<?xml version="1.0" encoding="UTF-8" standalone="no" ?>
<gpx xmlns="http://www.topografix.com/GPX/1/1" xmlns:xsi="http://www.w3.org/2001/XMLSchema-instance" xsi:schemaLocation="http://www.topografix.com/GPX/1/1 http://www.topografix.com/GPX/1/1/gpx.xsd" version="1.1" creator="VisuGPX - https://www.visugpx.com">
  <metadata>
    <name>Pouy de Hourmigué</name>
    <desc><![CDATA[Départ de la D22 (croix de Crouzet). Beaucoup de neige fraiche. Montée raide pour atteindre le point côté 1606]]></desc>
  </metadata>
  <trk>
    <name><![CDATA[Hiking]]></name>
    <trkseg>
      <trkpt lat="42.94128" lon="0.56639">
        <ele>713.8</ele>
        <time>2019-02-03T08:20:55.000Z</time>
      </trkpt>
      <trkpt lat="42.94128" lon="0.56639">
        <ele>713.8</ele>
        <time>2019-02-03T08:20:56.000Z</time>
      </trkpt>
      <trkpt lat="42.94127" lon="0.5664">
        <ele>713.9</ele>
        <time>2019-02-03T08:20:57.000Z</time>
      </trkpt>
      <trkpt lat="42.94126" lon="0.5664">
        <ele>690</ele>
        <time>2019-02-03T08:20:58.000Z</time>
      </trkpt>
      <trkpt lat="42.94126" lon="0.56641">
        <ele>690</ele>
        <time>2019-02-03T08:20:59.000Z</time>
      </trkpt>
      <trkpt lat="42.94125" lon="0.56641">
        <ele>690</ele>
        <time>2019-02-03T08:21:00.000Z</time>
      </trkpt>
      <trkpt lat="42.94124" lon="0.56642">
        <ele>691</ele>
        <time>2019-02-03T08:21:01.000Z</time>
      </trkpt>
      <trkpt lat="42.94123" lon="0.56642">
        <ele>691</ele>
        <time>2019-02-03T08:21:02.000Z</time>
      </trkpt>
      <trkpt lat="42.94123" lon="0.56643">
        <ele>691</ele>
        <time>2019-02-03T08:21:03.000Z</time>
      </trkpt>
      <trkpt lat="42.94122" lon="0.56643">
        <ele>691</ele>
        <time>2019-02-03T08:21:04.000Z</time>
      </trkpt>
      <trkpt lat="42.94121" lon="0.56644">
        <ele>691</ele>
        <time>2019-02-03T08:21:05.000Z</time>
      </trkpt>
      <trkpt lat="42.9412" lon="0.56644">
        <ele>691</ele>
        <time>2019-02-03T08:21:06.000Z</time>
      </trkpt>
      <trkpt lat="42.9412" lon="0.56645">
        <ele>691</ele>
        <time>2019-02-03T08:21:07.000Z</time>
      </trkpt>
      <trkpt lat="42.94119" lon="0.56645">
        <ele>691</ele>
        <time>2019-02-03T08:21:08.000Z</time>
      </trkpt>
      <trkpt lat="42.94118" lon="0.56646">
        <ele>691</ele>
        <time>2019-02-03T08:21:09.000Z</time>
      </trkpt>
      <trkpt lat="42.94118" lon="0.56646">
        <ele>691</ele>
        <time>2019-02-03T08:21:10.000Z</time>
      </trkpt>
      <trkpt lat="42.94117" lon="0.56647">
        <ele>691</ele>
        <time>2019-02-03T08:21:11.000Z</time>
      </trkpt>
      <trkpt lat="42.94116" lon="0.56647">
        <ele>691</ele>
        <time>2019-02-03T08:21:12.000Z</time>
      </trkpt>
      <trkpt lat="42.94116" lon="0.56648">
        <ele>691</ele>
        <time>2019-02-03T08:21:13.000Z</time>
      </trkpt>
      <trkpt lat="42.94115" lon="0.56648">
        <ele>691</ele>
        <time>2019-02-03T08:21:14.000Z</time>
      </trkpt>
      <trkpt lat="42.94114" lon="0.56648">
        <ele>691</ele>
        <time>2019-02-03T08:21:15.000Z</time>
      </trkpt>
      <trkpt lat="42.94113" lon="0.56648">
        <ele>691</ele>
        <time>2019-02-03T08:21:16.000Z</time>
      </trkpt>
      <trkpt lat="42.94112" lon="0.56647">
        <ele>691</ele>
        <time>2019-02-03T08:21:17.000Z</time>
      </trkpt>
      <trkpt lat="42.94111" lon="0.56647">
        <ele>691</ele>
        <time>2019-02-03T08:21:18.000Z</time>
      </trkpt>
      <trkpt lat="42.9411" lon="0.56647">
        <ele>691</ele>
        <time>2019-02-03T08:21:19.000Z</time>
      </trkpt>
      <trkpt lat="42.9411" lon="0.56647">
        <ele>691</ele>
        <time>2019-02-03T08:21:20.000Z</time>
      </trkpt>
      <trkpt lat="42.94109" lon="0.56647">
        <ele>692</ele>
        <time>2019-02-03T08:21:21.000Z</time>
      </trkpt>
      <trkpt lat="42.94108" lon="0.56647">
        <ele>692</ele>
        <time>2019-02-03T08:21:22.000Z</time>
      </trkpt>
      <trkpt lat="42.94107" lon="0.56647">
        <ele>692</ele>
        <time>2019-02-03T08:21:23.000Z</time>
      </trkpt>
      <trkpt lat="42.94106" lon="0.56647">
        <ele>692</ele>
        <time>2019-02-03T08:21:24.000Z</time>
      </trkpt>
      <trkpt lat="42.94104" lon="0.56647">
        <ele>692</ele>
        <time>2019-02-03T08:21:25.000Z</time>
      </trkpt>
      <trkpt lat="42.94102" lon="0.56648">
        <ele>692</ele>
        <time>2019-02-03T08:21:26.000Z</time>
      </trkpt>
      <trkpt lat="42.94101" lon="0.56648">
        <ele>692</ele>
        <time>2019-02-03T08:21:27.000Z</time>
      </trkpt>
      <trkpt lat="42.941" lon="0.56648">
        <ele>692</ele>
        <time>2019-02-03T08:21:28.000Z</time>
      </trkpt>
      <trkpt lat="42.94099" lon="0.56648">
        <ele>692</ele>
        <time>2019-02-03T08:21:29.000Z</time>
      </trkpt>
      <trkpt lat="42.94098" lon="0.56647">
        <ele>692.3</ele>
        <time>2019-02-03T08:21:30.000Z</time>
      </trkpt>
      <trkpt lat="42.94097" lon="0.56647">
        <ele>692.7</ele>
        <time>2019-02-03T08:21:31.000Z</time>
      </trkpt>
      <trkpt lat="42.94096" lon="0.56646">
        <ele>693</ele>
        <time>2019-02-03T08:21:32.000Z</time>
      </trkpt>
      <trkpt lat="42.94095" lon="0.56646">
        <ele>693</ele>
        <time>2019-02-03T08:21:33.000Z</time>
      </trkpt>
      <trkpt lat="42.94094" lon="0.56646">
        <ele>693</ele>
        <time>2019-02-03T08:21:34.000Z</time>
      </trkpt>
      <trkpt lat="42.94093" lon="0.56645">
        <ele>693</ele>
        <time>2019-02-03T08:21:35.000Z</time>
      </trkpt>
      <trkpt lat="42.94092" lon="0.56645">
        <ele>693</ele>
        <time>2019-02-03T08:21:36.000Z</time>
      </trkpt>
      <trkpt lat="42.94091" lon="0.56645">
        <ele>693</ele>
        <time>2019-02-03T08:21:37.000Z</time>
      </trkpt>
      <trkpt lat="42.9409" lon="0.56644">
        <ele>693</ele>
        <time>2019-02-03T08:21:38.000Z</time>
      </trkpt>
      <trkpt lat="42.94089" lon="0.56644">
        <ele>694</ele>
        <time>2019-02-03T08:21:39.000Z</time>
      </trkpt>
      <trkpt lat="42.94088" lon="0.56644">
        <ele>694</ele>
        <time>2019-02-03T08:21:40.000Z</time>
      </trkpt>
      <trkpt lat="42.94086" lon="0.56644">
        <ele>694</ele>
        <time>2019-02-03T08:21:41.000Z</time>
      </trkpt>
      <trkpt lat="42.94085" lon="0.56644">
        <ele>694</ele>
        <time>2019-02-03T08:21:42.000Z</time>
      </trkpt>
      <trkpt lat="42.94084" lon="0.56644">
        <ele>694</ele>
        <time>2019-02-03T08:21:43.000Z</time>
      </trkpt>
      <trkpt lat="42.94083" lon="0.56644">
        <ele>694</ele>
        <time>2019-02-03T08:21:44.000Z</time>
      </trkpt>
      <trkpt lat="42.94082" lon="0.56644">
        <ele>694</ele>
        <time>2019-02-03T08:21:45.000Z</time>
      </trkpt>
      <trkpt lat="42.94081" lon="0.56644">
        <ele>694</ele>
        <time>2019-02-03T08:21:46.000Z</time>
      </trkpt>
      <trkpt lat="42.9408" lon="0.56644">
        <ele>694</ele>
        <time>2019-02-03T08:21:47.000Z</time>
      </trkpt>
      <trkpt lat="42.94079" lon="0.56644">
        <ele>694</ele>
        <time>2019-02-03T08:21:48.000Z</time>
      </trkpt>
      <trkpt lat="42.94077" lon="0.56644">
        <ele>694</ele>
        <time>2019-02-03T08:21:49.000Z</time>
      </trkpt>
      <trkpt lat="42.94076" lon="0.56644">
        <ele>694.3</ele>
        <time>2019-02-03T08:21:50.000Z</time>
      </trkpt>
      <trkpt lat="42.94075" lon="0.56644">
        <ele>694.7</ele>
        <time>2019-02-03T08:21:51.000Z</time>
      </trkpt>
      <trkpt lat="42.94074" lon="0.56644">
        <ele>695</ele>
        <time>2019-02-03T08:21:52.000Z</time>
      </trkpt>
      <trkpt lat="42.94073" lon="0.56644">
        <ele>695</ele>
        <time>2019-02-03T08:21:53.000Z</time>
      </trkpt>
      <trkpt lat="42.94072" lon="0.56644">
        <ele>695</ele>
        <time>2019-02-03T08:21:54.000Z</time>
      </trkpt>
      <trkpt lat="42.94071" lon="0.56643">
        <ele>695</ele>
        <time>2019-02-03T08:21:55.000Z</time>
      </trkpt>
      <trkpt lat="42.9407" lon="0.56643">
        <ele>695.3</ele>
        <time>2019-02-03T08:21:56.000Z</time>
      </trkpt>
      <trkpt lat="42.94068" lon="0.56643">
        <ele>695.7</ele>
        <time>2019-02-03T08:21:57.000Z</time>
      </trkpt>
      <trkpt lat="42.94067" lon="0.56643">
        <ele>696</ele>
        <time>2019-02-03T08:21:58.000Z</time>
      </trkpt>
      <trkpt lat="42.94066" lon="0.56642">
        <ele>696</ele>
        <time>2019-02-03T08:21:59.000Z</time>
      </trkpt>
      <trkpt lat="42.94065" lon="0.56642">
        <ele>696</ele>
        <time>2019-02-03T08:22:00.000Z</time>
      </trkpt>
      <trkpt lat="42.94064" lon="0.56642">
        <ele>696</ele>
        <time>2019-02-03T08:22:01.000Z</time>
      </trkpt>
      <trkpt lat="42.94063" lon="0.56642">
        <ele>696</ele>
        <time>2019-02-03T08:22:02.000Z</time>
      </trkpt>
      <trkpt lat="42.94062" lon="0.56641">
        <ele>696</ele>
        <time>2019-02-03T08:22:03.000Z</time>
      </trkpt>
      <trkpt lat="42.94061" lon="0.56641">
        <ele>696</ele>
        <time>2019-02-03T08:22:04.000Z</time>
      </trkpt>
      <trkpt lat="42.94061" lon="0.56641">
        <ele>696</ele>
        <time>2019-02-03T08:22:05.000Z</time>
      </trkpt>
      <trkpt lat="42.9406" lon="0.5664">
        <ele>696.3</ele>
        <time>2019-02-03T08:22:06.000Z</time>
      </trkpt>
      <trkpt lat="42.94059" lon="0.5664">
        <ele>696.7</ele>
        <time>2019-02-03T08:22:07.000Z</time>
      </trkpt>
      <trkpt lat="42.94058" lon="0.5664">
        <ele>697</ele>
        <time>2019-02-03T08:22:08.000Z</time>
      </trkpt>
      <trkpt lat="42.94057" lon="0.5664">
        <ele>697</ele>
        <time>2019-02-03T08:22:09.000Z</time>
      </trkpt>
      <trkpt lat="42.94056" lon="0.56639">
        <ele>697</ele>
        <time>2019-02-03T08:22:10.000Z</time>
      </trkpt>
      <trkpt lat="42.94055" lon="0.56639">
        <ele>697</ele>
        <time>2019-02-03T08:22:11.000Z</time>
      </trkpt>
      <trkpt lat="42.94054" lon="0.56639">
        <ele>697</ele>
        <time>2019-02-03T08:22:12.000Z</time>
      </trkpt>
      <trkpt lat="42.94053" lon="0.56638">
        <ele>697</ele>
        <time>2019-02-03T08:22:13.000Z</time>
      </trkpt>
      <trkpt lat="42.94052" lon="0.56638">
        <ele>697</ele>
        <time>2019-02-03T08:22:14.000Z</time>
      </trkpt>
      <trkpt lat="42.94051" lon="0.56637">
        <ele>697</ele>
        <time>2019-02-03T08:22:15.000Z</time>
      </trkpt>
      <trkpt lat="42.9405" lon="0.56637">
        <ele>697.5</ele>
        <time>2019-02-03T08:22:16.000Z</time>
      </trkpt>
      <trkpt lat="42.94048" lon="0.56636">
        <ele>698</ele>
        <time>2019-02-03T08:22:17.000Z</time>
      </trkpt>
      <trkpt lat="42.94047" lon="0.56636">
        <ele>698</ele>
        <time>2019-02-03T08:22:18.000Z</time>
      </trkpt>
      <trkpt lat="42.94046" lon="0.56635">
        <ele>698</ele>
        <time>2019-02-03T08:22:19.000Z</time>
      </trkpt>
      <trkpt lat="42.94045" lon="0.56634">
        <ele>698</ele>
        <time>2019-02-03T08:22:20.000Z</time>
      </trkpt>
      <trkpt lat="42.94043" lon="0.56634">
        <ele>698</ele>
        <time>2019-02-03T08:22:21.000Z</time>
      </trkpt>
      <trkpt lat="42.94042" lon="0.56633">
        <ele>698</ele>
        <time>2019-02-03T08:22:22.000Z</time>
      </trkpt>
      <trkpt lat="42.94041" lon="0.56633">
        <ele>698</ele>
        <time>2019-02-03T08:22:23.000Z</time>
      </trkpt>
      <trkpt lat="42.9404" lon="0.56632">
        <ele>698</ele>
        <time>2019-02-03T08:22:24.000Z</time>
      </trkpt>
      <trkpt lat="42.94039" lon="0.56632">
        <ele>699</ele>
        <time>2019-02-03T08:22:25.000Z</time>
      </trkpt>
      <trkpt lat="42.94038" lon="0.56631">
        <ele>699</ele>
        <time>2019-02-03T08:22:26.000Z</time>
      </trkpt>
      <trkpt lat="42.94037" lon="0.56631">
        <ele>699</ele>
        <time>2019-02-03T08:22:27.000Z</time>
      </trkpt>
      <trkpt lat="42.94036" lon="0.56631">
        <ele>699</ele>
        <time>2019-02-03T08:22:28.000Z</time>
      </trkpt>
      <trkpt lat="42.94035" lon="0.5663">
        <ele>699</ele>
        <time>2019-02-03T08:22:29.000Z</time>
      </trkpt>
      <trkpt lat="42.94034" lon="0.5663">
        <ele>699</ele>
        <time>2019-02-03T08:22:30.000Z</time>
      </trkpt>
      <trkpt lat="42.94033" lon="0.5663">
        <ele>699</ele>
        <time>2019-02-03T08:22:31.000Z</time>
      </trkpt>
      <trkpt lat="42.94032" lon="0.56629">
        <ele>699</ele>
        <time>2019-02-03T08:22:32.000Z</time>
      </trkpt>
      <trkpt lat="42.9403" lon="0.56629">
        <ele>699</ele>
        <time>2019-02-03T08:22:33.000Z</time>
      </trkpt>
      <trkpt lat="42.94029" lon="0.56629">
        <ele>699</ele>
        <time>2019-02-03T08:22:34.000Z</time>
      </trkpt>
      <trkpt lat="42.94028" lon="0.56629">
        <ele>699</ele>
        <time>2019-02-03T08:22:35.000Z</time>
      </trkpt>
      <trkpt lat="42.94027" lon="0.56628">
        <ele>699</ele>
        <time>2019-02-03T08:22:36.000Z</time>
      </trkpt>
      <trkpt lat="42.94026" lon="0.56628">
        <ele>699</ele>
        <time>2019-02-03T08:22:37.000Z</time>
      </trkpt>
      <trkpt lat="42.94025" lon="0.56628">
        <ele>699</ele>
        <time>2019-02-03T08:22:38.000Z</time>
      </trkpt>
      <trkpt lat="42.94024" lon="0.56627">
        <ele>700</ele>
        <time>2019-02-03T08:22:39.000Z</time>
      </trkpt>
      <trkpt lat="42.94023" lon="0.56627">
        <ele>700</ele>
        <time>2019-02-03T08:22:40.000Z</time>
      </trkpt>
      <trkpt lat="42.94023" lon="0.56627">
        <ele>700</ele>
        <time>2019-02-03T08:22:41.000Z</time>
      </trkpt>
      <trkpt lat="42.94022" lon="0.56626">
        <ele>700</ele>
        <time>2019-02-03T08:22:42.000Z</time>
      </trkpt>
      <trkpt lat="42.94021" lon="0.56626">
        <ele>700</ele>
        <time>2019-02-03T08:22:43.000Z</time>
      </trkpt>
      <trkpt lat="42.9402" lon="0.56626">
        <ele>700</ele>
        <time>2019-02-03T08:22:44.000Z</time>
      </trkpt>
      <trkpt lat="42.94019" lon="0.56625">
        <ele>700</ele>
        <time>2019-02-03T08:22:45.000Z</time>
      </trkpt>
      <trkpt lat="42.94018" lon="0.56625">
        <ele>700</ele>
        <time>2019-02-03T08:22:46.000Z</time>
      </trkpt>
      <trkpt lat="42.94017" lon="0.56624">
        <ele>700</ele>
        <time>2019-02-03T08:22:47.000Z</time>
      </trkpt>
      <trkpt lat="42.94016" lon="0.56624">
        <ele>700</ele>
        <time>2019-02-03T08:22:48.000Z</time>
      </trkpt>
      <trkpt lat="42.94015" lon="0.56624">
        <ele>701</ele>
        <time>2019-02-03T08:22:49.000Z</time>
      </trkpt>
      <trkpt lat="42.94014" lon="0.56623">
        <ele>701</ele>
        <time>2019-02-03T08:22:50.000Z</time>
      </trkpt>
      <trkpt lat="42.94013" lon="0.56623">
        <ele>701</ele>
        <time>2019-02-03T08:22:51.000Z</time>
      </trkpt>
      <trkpt lat="42.94012" lon="0.56623">
        <ele>701</ele>
        <time>2019-02-03T08:22:52.000Z</time>
      </trkpt>
      <trkpt lat="42.94011" lon="0.56622">
        <ele>701</ele>
        <time>2019-02-03T08:22:53.000Z</time>
      </trkpt>
      <trkpt lat="42.9401" lon="0.56622">
        <ele>701</ele>
        <time>2019-02-03T08:22:54.000Z</time>
      </trkpt>
      <trkpt lat="42.94009" lon="0.56622">
        <ele>701</ele>
        <time>2019-02-03T08:22:55.000Z</time>
      </trkpt>
      <trkpt lat="42.94008" lon="0.56621">
        <ele>701.5</ele>
        <time>2019-02-03T08:22:56.000Z</time>
      </trkpt>
      <trkpt lat="42.94007" lon="0.56621">
        <ele>702</ele>
        <time>2019-02-03T08:22:57.000Z</time>
      </trkpt>
      <trkpt lat="42.94006" lon="0.5662">
        <ele>702</ele>
        <time>2019-02-03T08:22:58.000Z</time>
      </trkpt>
      <trkpt lat="42.94005" lon="0.5662">
        <ele>702</ele>
        <time>2019-02-03T08:22:59.000Z</time>
      </trkpt>
      <trkpt lat="42.94004" lon="0.5662">
        <ele>702</ele>
        <time>2019-02-03T08:23:00.000Z</time>
      </trkpt>
      <trkpt lat="42.94003" lon="0.56619">
        <ele>702</ele>
        <time>2019-02-03T08:23:01.000Z</time>
      </trkpt>
      <trkpt lat="42.94002" lon="0.56619">
        <ele>702</ele>
        <time>2019-02-03T08:23:02.000Z</time>
      </trkpt>
      <trkpt lat="42.94001" lon="0.56618">
        <ele>702</ele>
        <time>2019-02-03T08:23:03.000Z</time>
      </trkpt>
      <trkpt lat="42.94" lon="0.56618">
        <ele>702.5</ele>
        <time>2019-02-03T08:23:04.000Z</time>
      </trkpt>
      <trkpt lat="42.93999" lon="0.56617">
        <ele>703</ele>
        <time>2019-02-03T08:23:05.000Z</time>
      </trkpt>
      <trkpt lat="42.93998" lon="0.56617">
        <ele>703</ele>
        <time>2019-02-03T08:23:06.000Z</time>
      </trkpt>
      <trkpt lat="42.93996" lon="0.56616">
        <ele>703</ele>
        <time>2019-02-03T08:23:07.000Z</time>
      </trkpt>
      <trkpt lat="42.93995" lon="0.56616">
        <ele>703</ele>
        <time>2019-02-03T08:23:08.000Z</time>
      </trkpt>
      <trkpt lat="42.93994" lon="0.56616">
        <ele>703</ele>
        <time>2019-02-03T08:23:09.000Z</time>
      </trkpt>
      <trkpt lat="42.93993" lon="0.56615">
        <ele>703</ele>
        <time>2019-02-03T08:23:10.000Z</time>
      </trkpt>
      <trkpt lat="42.93992" lon="0.56615">
        <ele>703</ele>
        <time>2019-02-03T08:23:11.000Z</time>
      </trkpt>
      <trkpt lat="42.93991" lon="0.56615">
        <ele>703</ele>
        <time>2019-02-03T08:23:12.000Z</time>
      </trkpt>
      <trkpt lat="42.9399" lon="0.56614">
        <ele>703</ele>
        <time>2019-02-03T08:23:13.000Z</time>
      </trkpt>
      <trkpt lat="42.93989" lon="0.56614">
        <ele>703.5</ele>
        <time>2019-02-03T08:23:14.000Z</time>
      </trkpt>
      <trkpt lat="42.93988" lon="0.56614">
        <ele>704</ele>
        <time>2019-02-03T08:23:15.000Z</time>
      </trkpt>
      <trkpt lat="42.93987" lon="0.56614">
        <ele>704</ele>
        <time>2019-02-03T08:23:16.000Z</time>
      </trkpt>
      <trkpt lat="42.93986" lon="0.56614">
        <ele>704</ele>
        <time>2019-02-03T08:23:17.000Z</time>
      </trkpt>
      <trkpt lat="42.93985" lon="0.56613">
        <ele>704</ele>
        <time>2019-02-03T08:23:18.000Z</time>
      </trkpt>
      <trkpt lat="42.93983" lon="0.56613">
        <ele>704</ele>
        <time>2019-02-03T08:23:19.000Z</time>
      </trkpt>
      <trkpt lat="42.93982" lon="0.56613">
        <ele>704</ele>
        <time>2019-02-03T08:23:20.000Z</time>
      </trkpt>
      <trkpt lat="42.93981" lon="0.56613">
        <ele>704</ele>
        <time>2019-02-03T08:23:21.000Z</time>
      </trkpt>
      <trkpt lat="42.9398" lon="0.56613">
        <ele>704.5</ele>
        <time>2019-02-03T08:23:22.000Z</time>
      </trkpt>
      <trkpt lat="42.93979" lon="0.56613">
        <ele>705</ele>
        <time>2019-02-03T08:23:23.000Z</time>
      </trkpt>
      <trkpt lat="42.93977" lon="0.56612">
        <ele>705</ele>
        <time>2019-02-03T08:23:24.000Z</time>
      </trkpt>
      <trkpt lat="42.93976" lon="0.56612">
        <ele>705</ele>
        <time>2019-02-03T08:23:25.000Z</time>
      </trkpt>
      <trkpt lat="42.93975" lon="0.56612">
        <ele>705</ele>
        <time>2019-02-03T08:23:26.000Z</time>
      </trkpt>
      <trkpt lat="42.93975" lon="0.56611">
        <ele>705</ele>
        <time>2019-02-03T08:23:27.000Z</time>
      </trkpt>
      <trkpt lat="42.93974" lon="0.5661">
        <ele>705</ele>
        <time>2019-02-03T08:23:28.000Z</time>
      </trkpt>
      <trkpt lat="42.93973" lon="0.5661">
        <ele>705</ele>
        <time>2019-02-03T08:23:29.000Z</time>
      </trkpt>
      <trkpt lat="42.93972" lon="0.56609">
        <ele>705.5</ele>
        <time>2019-02-03T08:23:30.000Z</time>
      </trkpt>
      <trkpt lat="42.93971" lon="0.56609">
        <ele>706</ele>
        <time>2019-02-03T08:23:31.000Z</time>
      </trkpt>
      <trkpt lat="42.9397" lon="0.56609">
        <ele>706</ele>
        <time>2019-02-03T08:23:32.000Z</time>
      </trkpt>
      <trkpt lat="42.93969" lon="0.56608">
        <ele>706</ele>
        <time>2019-02-03T08:23:33.000Z</time>
      </trkpt>
      <trkpt lat="42.93968" lon="0.56608">
        <ele>706</ele>
        <time>2019-02-03T08:23:34.000Z</time>
      </trkpt>
      <trkpt lat="42.93967" lon="0.56608">
        <ele>707</ele>
        <time>2019-02-03T08:23:35.000Z</time>
      </trkpt>
      <trkpt lat="42.93966" lon="0.56608">
        <ele>707</ele>
        <time>2019-02-03T08:23:36.000Z</time>
      </trkpt>
      <trkpt lat="42.93965" lon="0.56609">
        <ele>707</ele>
        <time>2019-02-03T08:23:37.000Z</time>
      </trkpt>
      <trkpt lat="42.93964" lon="0.56609">
        <ele>707</ele>
        <time>2019-02-03T08:23:38.000Z</time>
      </trkpt>
      <trkpt lat="42.93964" lon="0.56609">
        <ele>707</ele>
        <time>2019-02-03T08:23:39.000Z</time>
      </trkpt>
      <trkpt lat="42.93963" lon="0.56609">
        <ele>707</ele>
        <time>2019-02-03T08:23:40.000Z</time>
      </trkpt>
      <trkpt lat="42.93962" lon="0.56609">
        <ele>707</ele>
        <time>2019-02-03T08:23:41.000Z</time>
      </trkpt>
      <trkpt lat="42.93962" lon="0.56609">
        <ele>707.3</ele>
        <time>2019-02-03T08:23:42.000Z</time>
      </trkpt>
      <trkpt lat="42.93961" lon="0.5661">
        <ele>707.7</ele>
        <time>2019-02-03T08:23:43.000Z</time>
      </trkpt>
      <trkpt lat="42.93961" lon="0.5661">
        <ele>708</ele>
        <time>2019-02-03T08:23:44.000Z</time>
      </trkpt>
      <trkpt lat="42.9396" lon="0.5661">
        <ele>708</ele>
        <time>2019-02-03T08:23:45.000Z</time>
      </trkpt>
      <trkpt lat="42.93959" lon="0.56609">
        <ele>708</ele>
        <time>2019-02-03T08:23:46.000Z</time>
      </trkpt>
      <trkpt lat="42.93958" lon="0.56609">
        <ele>708</ele>
        <time>2019-02-03T08:23:47.000Z</time>
      </trkpt>
      <trkpt lat="42.93957" lon="0.56609">
        <ele>708</ele>
        <time>2019-02-03T08:23:48.000Z</time>
      </trkpt>
      <trkpt lat="42.93956" lon="0.56609">
        <ele>708</ele>
        <time>2019-02-03T08:23:49.000Z</time>
      </trkpt>
      <trkpt lat="42.93955" lon="0.56608">
        <ele>708</ele>
        <time>2019-02-03T08:23:50.000Z</time>
      </trkpt>
      <trkpt lat="42.93954" lon="0.56608">
        <ele>708</ele>
        <time>2019-02-03T08:23:51.000Z</time>
      </trkpt>
      <trkpt lat="42.93954" lon="0.56608">
        <ele>708</ele>
        <time>2019-02-03T08:23:52.000Z</time>
      </trkpt>
      <trkpt lat="42.93953" lon="0.56607">
        <ele>709</ele>
        <time>2019-02-03T08:23:53.000Z</time>
      </trkpt>
      <trkpt lat="42.93952" lon="0.56607">
        <ele>709</ele>
        <time>2019-02-03T08:23:54.000Z</time>
      </trkpt>
      <trkpt lat="42.93951" lon="0.56607">
        <ele>709</ele>
        <time>2019-02-03T08:23:55.000Z</time>
      </trkpt>
      <trkpt lat="42.9395" lon="0.56606">
        <ele>709</ele>
        <time>2019-02-03T08:23:56.000Z</time>
      </trkpt>
      <trkpt lat="42.9395" lon="0.56606">
        <ele>709</ele>
        <time>2019-02-03T08:23:57.000Z</time>
      </trkpt>
      <trkpt lat="42.93949" lon="0.56606">
        <ele>709</ele>
        <time>2019-02-03T08:23:58.000Z</time>
      </trkpt>
      <trkpt lat="42.93948" lon="0.56605">
        <ele>709</ele>
        <time>2019-02-03T08:23:59.000Z</time>
      </trkpt>
      <trkpt lat="42.93947" lon="0.56605">
        <ele>709</ele>
        <time>2019-02-03T08:24:00.000Z</time>
      </trkpt>
      <trkpt lat="42.93946" lon="0.56605">
        <ele>710</ele>
        <time>2019-02-03T08:24:01.000Z</time>
      </trkpt>
      <trkpt lat="42.93945" lon="0.56605">
        <ele>710</ele>
        <time>2019-02-03T08:24:02.000Z</time>
      </trkpt>
      <trkpt lat="42.93944" lon="0.56605">
        <ele>710</ele>
        <time>2019-02-03T08:24:03.000Z</time>
      </trkpt>
      <trkpt lat="42.93943" lon="0.56605">
        <ele>710</ele>
        <time>2019-02-03T08:24:04.000Z</time>
      </trkpt>
      <trkpt lat="42.93942" lon="0.56605">
        <ele>710</ele>
        <time>2019-02-03T08:24:05.000Z</time>
      </trkpt>
      <trkpt lat="42.93941" lon="0.56605">
        <ele>710</ele>
        <time>2019-02-03T08:24:06.000Z</time>
      </trkpt>
      <trkpt lat="42.9394" lon="0.56605">
        <ele>710</ele>
        <time>2019-02-03T08:24:07.000Z</time>
      </trkpt>
      <trkpt lat="42.93939" lon="0.56605">
        <ele>710</ele>
        <time>2019-02-03T08:24:08.000Z</time>
      </trkpt>
      <trkpt lat="42.93937" lon="0.56605">
        <ele>710</ele>
        <time>2019-02-03T08:24:09.000Z</time>
      </trkpt>
      <trkpt lat="42.93936" lon="0.56605">
        <ele>710</ele>
        <time>2019-02-03T08:24:10.000Z</time>
      </trkpt>
      <trkpt lat="42.93935" lon="0.56605">
        <ele>711</ele>
        <time>2019-02-03T08:24:11.000Z</time>
      </trkpt>
      <trkpt lat="42.93934" lon="0.56605">
        <ele>711</ele>
        <time>2019-02-03T08:24:12.000Z</time>
      </trkpt>
      <trkpt lat="42.93933" lon="0.56605">
        <ele>711</ele>
        <time>2019-02-03T08:24:13.000Z</time>
      </trkpt>
      <trkpt lat="42.93932" lon="0.56605">
        <ele>711</ele>
        <time>2019-02-03T08:24:14.000Z</time>
      </trkpt>
      <trkpt lat="42.93931" lon="0.56605">
        <ele>711</ele>
        <time>2019-02-03T08:24:15.000Z</time>
      </trkpt>
      <trkpt lat="42.9393" lon="0.56605">
        <ele>711</ele>
        <time>2019-02-03T08:24:16.000Z</time>
      </trkpt>
      <trkpt lat="42.93929" lon="0.56605">
        <ele>711</ele>
        <time>2019-02-03T08:24:17.000Z</time>
      </trkpt>
      <trkpt lat="42.93928" lon="0.56604">
        <ele>711</ele>
        <time>2019-02-03T08:24:18.000Z</time>
      </trkpt>
      <trkpt lat="42.93927" lon="0.56604">
        <ele>712</ele>
        <time>2019-02-03T08:24:19.000Z</time>
      </trkpt>
      <trkpt lat="42.93926" lon="0.56604">
        <ele>712</ele>
        <time>2019-02-03T08:24:20.000Z</time>
      </trkpt>
      <trkpt lat="42.93925" lon="0.56604">
        <ele>712</ele>
        <time>2019-02-03T08:24:21.000Z</time>
      </trkpt>
      <trkpt lat="42.93925" lon="0.56603">
        <ele>712</ele>
        <time>2019-02-03T08:24:22.000Z</time>
      </trkpt>
      <trkpt lat="42.93924" lon="0.56603">
        <ele>712</ele>
        <time>2019-02-03T08:24:23.000Z</time>
      </trkpt>
      <trkpt lat="42.93923" lon="0.56603">
        <ele>712</ele>
        <time>2019-02-03T08:24:24.000Z</time>
      </trkpt>
      <trkpt lat="42.93922" lon="0.56604">
        <ele>712</ele>
        <time>2019-02-03T08:24:25.000Z</time>
      </trkpt>
      <trkpt lat="42.93922" lon="0.56604">
        <ele>712.5</ele>
        <time>2019-02-03T08:24:26.000Z</time>
      </trkpt>
      <trkpt lat="42.93921" lon="0.56604">
        <ele>713</ele>
        <time>2019-02-03T08:24:27.000Z</time>
      </trkpt>
      <trkpt lat="42.9392" lon="0.56604">
        <ele>713</ele>
        <time>2019-02-03T08:24:28.000Z</time>
      </trkpt>
      <trkpt lat="42.93919" lon="0.56604">
        <ele>713</ele>
        <time>2019-02-03T08:24:29.000Z</time>
      </trkpt>
      <trkpt lat="42.93918" lon="0.56604">
        <ele>713</ele>
        <time>2019-02-03T08:24:30.000Z</time>
      </trkpt>
      <trkpt lat="42.93917" lon="0.56604">
        <ele>713</ele>
        <time>2019-02-03T08:24:31.000Z</time>
      </trkpt>
      <trkpt lat="42.93916" lon="0.56604">
        <ele>713</ele>
        <time>2019-02-03T08:24:32.000Z</time>
      </trkpt>
      <trkpt lat="42.93915" lon="0.56604">
        <ele>713</ele>
        <time>2019-02-03T08:24:33.000Z</time>
      </trkpt>
      <trkpt lat="42.93914" lon="0.56604">
        <ele>713</ele>
        <time>2019-02-03T08:24:34.000Z</time>
      </trkpt>
      <trkpt lat="42.93913" lon="0.56604">
        <ele>713</ele>
        <time>2019-02-03T08:24:35.000Z</time>
      </trkpt>
      <trkpt lat="42.93912" lon="0.56604">
        <ele>713</ele>
        <time>2019-02-03T08:24:36.000Z</time>
      </trkpt>
      <trkpt lat="42.93911" lon="0.56605">
        <ele>713</ele>
        <time>2019-02-03T08:24:37.000Z</time>
      </trkpt>
      <trkpt lat="42.9391" lon="0.56605">
        <ele>713</ele>
        <time>2019-02-03T08:24:38.000Z</time>
      </trkpt>
      <trkpt lat="42.93909" lon="0.56605">
        <ele>714</ele>
        <time>2019-02-03T08:24:39.000Z</time>
      </trkpt>
      <trkpt lat="42.93908" lon="0.56605">
        <ele>714</ele>
        <time>2019-02-03T08:24:40.000Z</time>
      </trkpt>
      <trkpt lat="42.93907" lon="0.56605">
        <ele>714</ele>
        <time>2019-02-03T08:24:41.000Z</time>
      </trkpt>
      <trkpt lat="42.93906" lon="0.56605">
        <ele>714</ele>
        <time>2019-02-03T08:24:42.000Z</time>
      </trkpt>
      <trkpt lat="42.93905" lon="0.56605">
        <ele>714</ele>
        <time>2019-02-03T08:24:43.000Z</time>
      </trkpt>
      <trkpt lat="42.93904" lon="0.56605">
        <ele>714</ele>
        <time>2019-02-03T08:24:44.000Z</time>
      </trkpt>
      <trkpt lat="42.93903" lon="0.56605">
        <ele>714</ele>
        <time>2019-02-03T08:24:45.000Z</time>
      </trkpt>
      <trkpt lat="42.93903" lon="0.56605">
        <ele>714</ele>
        <time>2019-02-03T08:24:46.000Z</time>
      </trkpt>
      <trkpt lat="42.93902" lon="0.56605">
        <ele>714</ele>
        <time>2019-02-03T08:24:47.000Z</time>
      </trkpt>
      <trkpt lat="42.93902" lon="0.56605">
        <ele>714</ele>
        <time>2019-02-03T08:24:48.000Z</time>
      </trkpt>
      <trkpt lat="42.93901" lon="0.56605">
        <ele>714</ele>
        <time>2019-02-03T08:24:49.000Z</time>
      </trkpt>
      <trkpt lat="42.939" lon="0.56605">
        <ele>714.5</ele>
        <time>2019-02-03T08:24:50.000Z</time>
      </trkpt>
      <trkpt lat="42.93899" lon="0.56606">
        <ele>715</ele>
        <time>2019-02-03T08:24:51.000Z</time>
      </trkpt>
      <trkpt lat="42.93898" lon="0.56606">
        <ele>715</ele>
        <time>2019-02-03T08:24:52.000Z</time>
      </trkpt>
      <trkpt lat="42.93898" lon="0.56606">
        <ele>715</ele>
        <time>2019-02-03T08:24:53.000Z</time>
      </trkpt>
      <trkpt lat="42.93898" lon="0.56606">
        <ele>715</ele>
        <time>2019-02-03T08:24:54.000Z</time>
      </trkpt>
      <trkpt lat="42.93898" lon="0.56606">
        <ele>715</ele>
        <time>2019-02-03T08:24:55.000Z</time>
      </trkpt>
      <trkpt lat="42.93898" lon="0.56606">
        <ele>715</ele>
        <time>2019-02-03T08:24:56.000Z</time>
      </trkpt>
      <trkpt lat="42.93898" lon="0.56606">
        <ele>715</ele>
        <time>2019-02-03T08:24:57.000Z</time>
      </trkpt>
      <trkpt lat="42.93898" lon="0.56606">
        <ele>715</ele>
        <time>2019-02-03T08:24:58.000Z</time>
      </trkpt>
      <trkpt lat="42.93898" lon="0.56606">
        <ele>715</ele>
        <time>2019-02-03T08:24:59.000Z</time>
      </trkpt>
      <trkpt lat="42.93898" lon="0.56606">
        <ele>715</ele>
        <time>2019-02-03T08:25:00.000Z</time>
      </trkpt>
      <trkpt lat="42.93898" lon="0.56606">
        <ele>715</ele>
        <time>2019-02-03T08:25:01.000Z</time>
      </trkpt>
      <trkpt lat="42.93898" lon="0.56606">
        <ele>715</ele>
        <time>2019-02-03T08:25:02.000Z</time>
      </trkpt>
      <trkpt lat="42.93898" lon="0.56606">
        <ele>715</ele>
        <time>2019-02-03T08:25:03.000Z</time>
      </trkpt>
      <trkpt lat="42.93898" lon="0.56606">
        <ele>715</ele>
        <time>2019-02-03T08:25:04.000Z</time>
      </trkpt>
      <trkpt lat="42.93898" lon="0.56606">
        <ele>716</ele>
        <time>2019-02-03T08:25:05.000Z</time>
      </trkpt>
      <trkpt lat="42.93898" lon="0.56606">
        <ele>716</ele>
        <time>2019-02-03T08:25:06.000Z</time>
      </trkpt>
      <trkpt lat="42.93898" lon="0.56606">
        <ele>716</ele>
        <time>2019-02-03T08:25:07.000Z</time>
      </trkpt>
      <trkpt lat="42.93897" lon="0.56606">
        <ele>716</ele>
        <time>2019-02-03T08:25:08.000Z</time>
      </trkpt>
      <trkpt lat="42.93897" lon="0.56606">
        <ele>716</ele>
        <time>2019-02-03T08:25:09.000Z</time>
      </trkpt>
      <trkpt lat="42.93897" lon="0.56606">
        <ele>716</ele>
        <time>2019-02-03T08:25:10.000Z</time>
      </trkpt>
      <trkpt lat="42.93897" lon="0.56606">
        <ele>716</ele>
        <time>2019-02-03T08:25:11.000Z</time>
      </trkpt>
      <trkpt lat="42.93897" lon="0.56606">
        <ele>716</ele>
        <time>2019-02-03T08:25:12.000Z</time>
      </trkpt>
      <trkpt lat="42.93897" lon="0.56605">
        <ele>716</ele>
        <time>2019-02-03T08:25:13.000Z</time>
      </trkpt>
      <trkpt lat="42.93897" lon="0.56605">
        <ele>716</ele>
        <time>2019-02-03T08:25:14.000Z</time>
      </trkpt>
      <trkpt lat="42.93897" lon="0.56605">
        <ele>716</ele>
        <time>2019-02-03T08:25:15.000Z</time>
      </trkpt>
      <trkpt lat="42.93897" lon="0.56605">
        <ele>716</ele>
        <time>2019-02-03T08:25:16.000Z</time>
      </trkpt>
      <trkpt lat="42.93897" lon="0.56604">
        <ele>716</ele>
        <time>2019-02-03T08:25:17.000Z</time>
      </trkpt>
      <trkpt lat="42.93897" lon="0.56604">
        <ele>716</ele>
        <time>2019-02-03T08:25:18.000Z</time>
      </trkpt>
      <trkpt lat="42.93897" lon="0.56604">
        <ele>716</ele>
        <time>2019-02-03T08:25:19.000Z</time>
      </trkpt>
      <trkpt lat="42.93897" lon="0.56604">
        <ele>716</ele>
        <time>2019-02-03T08:25:20.000Z</time>
      </trkpt>
      <trkpt lat="42.93897" lon="0.56604">
        <ele>716</ele>
        <time>2019-02-03T08:25:21.000Z</time>
      </trkpt>
      <trkpt lat="42.93897" lon="0.56604">
        <ele>716</ele>
        <time>2019-02-03T08:25:22.000Z</time>
      </trkpt>
      <trkpt lat="42.93897" lon="0.56604">
        <ele>716</ele>
        <time>2019-02-03T08:25:23.000Z</time>
      </trkpt>
      <trkpt lat="42.93897" lon="0.56604">
        <ele>715.5</ele>
        <time>2019-02-03T08:25:24.000Z</time>
      </trkpt>
      <trkpt lat="42.93896" lon="0.56604">
        <ele>715</ele>
        <time>2019-02-03T08:25:25.000Z</time>
      </trkpt>
      <trkpt lat="42.93896" lon="0.56604">
        <ele>715.3</ele>
        <time>2019-02-03T08:25:26.000Z</time>
      </trkpt>
      <trkpt lat="42.93896" lon="0.56604">
        <ele>715.7</ele>
        <time>2019-02-03T08:25:27.000Z</time>
      </trkpt>
      <trkpt lat="42.93896" lon="0.56604">
        <ele>716</ele>
        <time>2019-02-03T08:25:28.000Z</time>
      </trkpt>
      <trkpt lat="42.93897" lon="0.56604">
        <ele>716</ele>
        <time>2019-02-03T08:25:29.000Z</time>
      </trkpt>
      <trkpt lat="42.93897" lon="0.56604">
        <ele>716</ele>
        <time>2019-02-03T08:25:30.000Z</time>
      </trkpt>
      <trkpt lat="42.93897" lon="0.56604">
        <ele>716</ele>
        <time>2019-02-03T08:25:31.000Z</time>
      </trkpt>
      <trkpt lat="42.93897" lon="0.56604">
        <ele>716</ele>
        <time>2019-02-03T08:25:32.000Z</time>
      </trkpt>
      <trkpt lat="42.93897" lon="0.56604">
        <ele>716</ele>
        <time>2019-02-03T08:25:33.000Z</time>
      </trkpt>
      <trkpt lat="42.93897" lon="0.56604">
        <ele>716</ele>
        <time>2019-02-03T08:25:34.000Z</time>
      </trkpt>
      <trkpt lat="42.93897" lon="0.56604">
        <ele>715</ele>
        <time>2019-02-03T08:25:35.000Z</time>
      </trkpt>
      <trkpt lat="42.93897" lon="0.56604">
        <ele>715</ele>
        <time>2019-02-03T08:25:36.000Z</time>
      </trkpt>
      <trkpt lat="42.93897" lon="0.56604">
        <ele>715</ele>
        <time>2019-02-03T08:25:37.000Z</time>
      </trkpt>
      <trkpt lat="42.93897" lon="0.56604">
        <ele>715</ele>
        <time>2019-02-03T08:25:38.000Z</time>
      </trkpt>
      <trkpt lat="42.93897" lon="0.56604">
        <ele>715</ele>
        <time>2019-02-03T08:25:39.000Z</time>
      </trkpt>
      <trkpt lat="42.93897" lon="0.56604">
        <ele>715</ele>
        <time>2019-02-03T08:25:40.000Z</time>
      </trkpt>
      <trkpt lat="42.93897" lon="0.56604">
        <ele>715</ele>
        <time>2019-02-03T08:25:41.000Z</time>
      </trkpt>
      <trkpt lat="42.93897" lon="0.56604">
        <ele>715</ele>
        <time>2019-02-03T08:25:42.000Z</time>
      </trkpt>
      <trkpt lat="42.93897" lon="0.56604">
        <ele>715</ele>
        <time>2019-02-03T08:25:43.000Z</time>
      </trkpt>
      <trkpt lat="42.93897" lon="0.56604">
        <ele>715</ele>
        <time>2019-02-03T08:25:44.000Z</time>
      </trkpt>
      <trkpt lat="42.93897" lon="0.56604">
        <ele>715</ele>
        <time>2019-02-03T08:25:45.000Z</time>
      </trkpt>
      <trkpt lat="42.93897" lon="0.56604">
        <ele>715</ele>
        <time>2019-02-03T08:25:46.000Z</time>
      </trkpt>
      <trkpt lat="42.93897" lon="0.56604">
        <ele>715</ele>
        <time>2019-02-03T08:25:47.000Z</time>
      </trkpt>
      <trkpt lat="42.93897" lon="0.56604">
        <ele>715</ele>
        <time>2019-02-03T08:25:48.000Z</time>
      </trkpt>
      <trkpt lat="42.93897" lon="0.56604">
        <ele>715</ele>
        <time>2019-02-03T08:25:49.000Z</time>
      </trkpt>
      <trkpt lat="42.93897" lon="0.56604">
        <ele>715</ele>
        <time>2019-02-03T08:25:50.000Z</time>
      </trkpt>
      <trkpt lat="42.93897" lon="0.56604">
        <ele>715</ele>
        <time>2019-02-03T08:25:51.000Z</time>
      </trkpt>
      <trkpt lat="42.93897" lon="0.56604">
        <ele>715</ele>
        <time>2019-02-03T08:25:52.000Z</time>
      </trkpt>
      <trkpt lat="42.93897" lon="0.56604">
        <ele>715</ele>
        <time>2019-02-03T08:25:53.000Z</time>
      </trkpt>
      <trkpt lat="42.93897" lon="0.56604">
        <ele>715</ele>
        <time>2019-02-03T08:25:54.000Z</time>
      </trkpt>
      <trkpt lat="42.93897" lon="0.56604">
        <ele>715</ele>
        <time>2019-02-03T08:25:55.000Z</time>
      </trkpt>
      <trkpt lat="42.93897" lon="0.56604">
        <ele>715</ele>
        <time>2019-02-03T08:25:56.000Z</time>
      </trkpt>
      <trkpt lat="42.93897" lon="0.56604">
        <ele>715</ele>
        <time>2019-02-03T08:25:57.000Z</time>
      </trkpt>
      <trkpt lat="42.93897" lon="0.56604">
        <ele>715</ele>
        <time>2019-02-03T08:25:58.000Z</time>
      </trkpt>
      <trkpt lat="42.93897" lon="0.56604">
        <ele>715</ele>
        <time>2019-02-03T08:25:59.000Z</time>
      </trkpt>
      <trkpt lat="42.93897" lon="0.56604">
        <ele>715</ele>
        <time>2019-02-03T08:26:00.000Z</time>
      </trkpt>
      <trkpt lat="42.93897" lon="0.56604">
        <ele>715</ele>
        <time>2019-02-03T08:26:01.000Z</time>
      </trkpt>
      <trkpt lat="42.93897" lon="0.56604">
        <ele>715</ele>
        <time>2019-02-03T08:26:02.000Z</time>
      </trkpt>
      <trkpt lat="42.93897" lon="0.56604">
        <ele>715</ele>
        <time>2019-02-03T08:26:03.000Z</time>
      </trkpt>
      <trkpt lat="42.93897" lon="0.56604">
        <ele>715</ele>
        <time>2019-02-03T08:26:04.000Z</time>
      </trkpt>
      <trkpt lat="42.93897" lon="0.56604">
        <ele>715</ele>
        <time>2019-02-03T08:26:05.000Z</time>
      </trkpt>
      <trkpt lat="42.93897" lon="0.56604">
        <ele>715</ele>
        <time>2019-02-03T08:26:06.000Z</time>
      </trkpt>
      <trkpt lat="42.93897" lon="0.56604">
        <ele>715</ele>
        <time>2019-02-03T08:26:07.000Z</time>
      </trkpt>
      <trkpt lat="42.93897" lon="0.56604">
        <ele>715</ele>
        <time>2019-02-03T08:26:08.000Z</time>
      </trkpt>
      <trkpt lat="42.93897" lon="0.56604">
        <ele>715</ele>
        <time>2019-02-03T08:26:09.000Z</time>
      </trkpt>
      <trkpt lat="42.93897" lon="0.56604">
        <ele>715</ele>
        <time>2019-02-03T08:26:10.000Z</time>
      </trkpt>
      <trkpt lat="42.93897" lon="0.56604">
        <ele>715</ele>
        <time>2019-02-03T08:26:11.000Z</time>
      </trkpt>
      <trkpt lat="42.93897" lon="0.56604">
        <ele>715</ele>
        <time>2019-02-03T08:26:12.000Z</time>
      </trkpt>
      <trkpt lat="42.93897" lon="0.56604">
        <ele>716</ele>
        <time>2019-02-03T08:26:13.000Z</time>
      </trkpt>
      <trkpt lat="42.93897" lon="0.56604">
        <ele>716</ele>
        <time>2019-02-03T08:26:14.000Z</time>
      </trkpt>
      <trkpt lat="42.93897" lon="0.56604">
        <ele>716</ele>
        <time>2019-02-03T08:26:15.000Z</time>
      </trkpt>
      <trkpt lat="42.93897" lon="0.56604">
        <ele>716</ele>
        <time>2019-02-03T08:26:16.000Z</time>
      </trkpt>
      <trkpt lat="42.93897" lon="0.56604">
        <ele>716</ele>
        <time>2019-02-03T08:26:17.000Z</time>
      </trkpt>
      <trkpt lat="42.93897" lon="0.56604">
        <ele>716</ele>
        <time>2019-02-03T08:26:18.000Z</time>
      </trkpt>
      <trkpt lat="42.93897" lon="0.56604">
        <ele>716</ele>
        <time>2019-02-03T08:26:19.000Z</time>
      </trkpt>
      <trkpt lat="42.93897" lon="0.56604">
        <ele>716</ele>
        <time>2019-02-03T08:26:20.000Z</time>
      </trkpt>
      <trkpt lat="42.93897" lon="0.56604">
        <ele>716</ele>
        <time>2019-02-03T08:26:21.000Z</time>
      </trkpt>
      <trkpt lat="42.93897" lon="0.56604">
        <ele>716</ele>
        <time>2019-02-03T08:26:22.000Z</time>
      </trkpt>
      <trkpt lat="42.93897" lon="0.56604">
        <ele>716</ele>
        <time>2019-02-03T08:26:23.000Z</time>
      </trkpt>
      <trkpt lat="42.93897" lon="0.56604">
        <ele>716</ele>
        <time>2019-02-03T08:26:24.000Z</time>
      </trkpt>
      <trkpt lat="42.93897" lon="0.56604">
        <ele>716</ele>
        <time>2019-02-03T08:26:25.000Z</time>
      </trkpt>
      <trkpt lat="42.93897" lon="0.56604">
        <ele>716</ele>
        <time>2019-02-03T08:26:26.000Z</time>
      </trkpt>
      <trkpt lat="42.93897" lon="0.56604">
        <ele>716</ele>
        <time>2019-02-03T08:26:27.000Z</time>
      </trkpt>
      <trkpt lat="42.93897" lon="0.56604">
        <ele>716</ele>
        <time>2019-02-03T08:26:28.000Z</time>
      </trkpt>
      <trkpt lat="42.93897" lon="0.56604">
        <ele>716</ele>
        <time>2019-02-03T08:26:29.000Z</time>
      </trkpt>
      <trkpt lat="42.93897" lon="0.56604">
        <ele>716</ele>
        <time>2019-02-03T08:26:30.000Z</time>
      </trkpt>
      <trkpt lat="42.93897" lon="0.56604">
        <ele>716</ele>
        <time>2019-02-03T08:26:31.000Z</time>
      </trkpt>
      <trkpt lat="42.93896" lon="0.56604">
        <ele>716</ele>
        <time>2019-02-03T08:26:32.000Z</time>
      </trkpt>
      <trkpt lat="42.93896" lon="0.56604">
        <ele>716</ele>
        <time>2019-02-03T08:26:33.000Z</time>
      </trkpt>
      <trkpt lat="42.93896" lon="0.56604">
        <ele>716</ele>
        <time>2019-02-03T08:26:34.000Z</time>
      </trkpt>
      <trkpt lat="42.93896" lon="0.56605">
        <ele>716</ele>
        <time>2019-02-03T08:26:35.000Z</time>
      </trkpt>
      <trkpt lat="42.93896" lon="0.56605">
        <ele>715.7</ele>
        <time>2019-02-03T08:26:36.000Z</time>
      </trkpt>
      <trkpt lat="42.93895" lon="0.56606">
        <ele>715.3</ele>
        <time>2019-02-03T08:26:37.000Z</time>
      </trkpt>
      <trkpt lat="42.93895" lon="0.56606">
        <ele>715</ele>
        <time>2019-02-03T08:26:38.000Z</time>
      </trkpt>
      <trkpt lat="42.93894" lon="0.56606">
        <ele>716</ele>
        <time>2019-02-03T08:26:39.000Z</time>
      </trkpt>
      <trkpt lat="42.93894" lon="0.56606">
        <ele>716</ele>
        <time>2019-02-03T08:26:40.000Z</time>
      </trkpt>
      <trkpt lat="42.93894" lon="0.56605">
        <ele>716</ele>
        <time>2019-02-03T08:26:41.000Z</time>
      </trkpt>
      <trkpt lat="42.93894" lon="0.56605">
        <ele>716</ele>
        <time>2019-02-03T08:26:42.000Z</time>
      </trkpt>
      <trkpt lat="42.93893" lon="0.56605">
        <ele>716</ele>
        <time>2019-02-03T08:26:43.000Z</time>
      </trkpt>
      <trkpt lat="42.93893" lon="0.56604">
        <ele>716</ele>
        <time>2019-02-03T08:26:44.000Z</time>
      </trkpt>
      <trkpt lat="42.93893" lon="0.56604">
        <ele>716</ele>
        <time>2019-02-03T08:26:45.000Z</time>
      </trkpt>
      <trkpt lat="42.93893" lon="0.56604">
        <ele>716</ele>
        <time>2019-02-03T08:26:46.000Z</time>
      </trkpt>
      <trkpt lat="42.93893" lon="0.56604">
        <ele>716</ele>
        <time>2019-02-03T08:26:47.000Z</time>
      </trkpt>
      <trkpt lat="42.93893" lon="0.56604">
        <ele>716</ele>
        <time>2019-02-03T08:26:48.000Z</time>
      </trkpt>
      <trkpt lat="42.93893" lon="0.56604">
        <ele>716</ele>
        <time>2019-02-03T08:26:49.000Z</time>
      </trkpt>
      <trkpt lat="42.93893" lon="0.56604">
        <ele>716</ele>
        <time>2019-02-03T08:26:50.000Z</time>
      </trkpt>
      <trkpt lat="42.93893" lon="0.56604">
        <ele>716</ele>
        <time>2019-02-03T08:26:51.000Z</time>
      </trkpt>
      <trkpt lat="42.93893" lon="0.56604">
        <ele>716</ele>
        <time>2019-02-03T08:26:52.000Z</time>
      </trkpt>
      <trkpt lat="42.93892" lon="0.56603">
        <ele>716</ele>
        <time>2019-02-03T08:26:53.000Z</time>
      </trkpt>
      <trkpt lat="42.93892" lon="0.56603">
        <ele>716</ele>
        <time>2019-02-03T08:26:54.000Z</time>
      </trkpt>
      <trkpt lat="42.93892" lon="0.56603">
        <ele>716</ele>
        <time>2019-02-03T08:26:55.000Z</time>
      </trkpt>
      <trkpt lat="42.93891" lon="0.56604">
        <ele>716</ele>
        <time>2019-02-03T08:26:56.000Z</time>
      </trkpt>
      <trkpt lat="42.93891" lon="0.56605">
        <ele>716</ele>
        <time>2019-02-03T08:26:57.000Z</time>
      </trkpt>
      <trkpt lat="42.9389" lon="0.56606">
        <ele>716</ele>
        <time>2019-02-03T08:26:58.000Z</time>
      </trkpt>
      <trkpt lat="42.9389" lon="0.56606">
        <ele>716</ele>
        <time>2019-02-03T08:26:59.000Z</time>
      </trkpt>
      <trkpt lat="42.9389" lon="0.56606">
        <ele>716</ele>
        <time>2019-02-03T08:27:00.000Z</time>
      </trkpt>
      <trkpt lat="42.9389" lon="0.56606">
        <ele>716</ele>
        <time>2019-02-03T08:27:01.000Z</time>
      </trkpt>
      <trkpt lat="42.9389" lon="0.56606">
        <ele>716</ele>
        <time>2019-02-03T08:27:02.000Z</time>
      </trkpt>
      <trkpt lat="42.9389" lon="0.56606">
        <ele>716</ele>
        <time>2019-02-03T08:27:03.000Z</time>
      </trkpt>
      <trkpt lat="42.9389" lon="0.56606">
        <ele>716</ele>
        <time>2019-02-03T08:27:04.000Z</time>
      </trkpt>
      <trkpt lat="42.93891" lon="0.56606">
        <ele>716</ele>
        <time>2019-02-03T08:27:05.000Z</time>
      </trkpt>
      <trkpt lat="42.93891" lon="0.56606">
        <ele>715.5</ele>
        <time>2019-02-03T08:27:06.000Z</time>
      </trkpt>
      <trkpt lat="42.93891" lon="0.56606">
        <ele>715</ele>
        <time>2019-02-03T08:27:07.000Z</time>
      </trkpt>
      <trkpt lat="42.93891" lon="0.56606">
        <ele>715</ele>
        <time>2019-02-03T08:27:08.000Z</time>
      </trkpt>
      <trkpt lat="42.93891" lon="0.56606">
        <ele>715</ele>
        <time>2019-02-03T08:27:09.000Z</time>
      </trkpt>
      <trkpt lat="42.93891" lon="0.56606">
        <ele>715</ele>
        <time>2019-02-03T08:27:10.000Z</time>
      </trkpt>
      <trkpt lat="42.93891" lon="0.56607">
        <ele>715</ele>
        <time>2019-02-03T08:27:11.000Z</time>
      </trkpt>
      <trkpt lat="42.93891" lon="0.56607">
        <ele>715</ele>
        <time>2019-02-03T08:27:12.000Z</time>
      </trkpt>
      <trkpt lat="42.93891" lon="0.56607">
        <ele>715</ele>
        <time>2019-02-03T08:27:13.000Z</time>
      </trkpt>
      <trkpt lat="42.93891" lon="0.56607">
        <ele>715</ele>
        <time>2019-02-03T08:27:14.000Z</time>
      </trkpt>
      <trkpt lat="42.93891" lon="0.56606">
        <ele>715</ele>
        <time>2019-02-03T08:27:15.000Z</time>
      </trkpt>
      <trkpt lat="42.93891" lon="0.56606">
        <ele>715</ele>
        <time>2019-02-03T08:27:16.000Z</time>
      </trkpt>
      <trkpt lat="42.93891" lon="0.56606">
        <ele>715</ele>
        <time>2019-02-03T08:27:17.000Z</time>
      </trkpt>
      <trkpt lat="42.93891" lon="0.56606">
        <ele>715</ele>
        <time>2019-02-03T08:27:18.000Z</time>
      </trkpt>
      <trkpt lat="42.93891" lon="0.56607">
        <ele>715</ele>
        <time>2019-02-03T08:27:19.000Z</time>
      </trkpt>
      <trkpt lat="42.93891" lon="0.56607">
        <ele>715</ele>
        <time>2019-02-03T08:27:20.000Z</time>
      </trkpt>
      <trkpt lat="42.93891" lon="0.56607">
        <ele>715</ele>
        <time>2019-02-03T08:27:21.000Z</time>
      </trkpt>
      <trkpt lat="42.9389" lon="0.56607">
        <ele>715</ele>
        <time>2019-02-03T08:27:22.000Z</time>
      </trkpt>
      <trkpt lat="42.9389" lon="0.56607">
        <ele>715</ele>
        <time>2019-02-03T08:27:23.000Z</time>
      </trkpt>
      <trkpt lat="42.9389" lon="0.56608">
        <ele>715</ele>
        <time>2019-02-03T08:27:24.000Z</time>
      </trkpt>
      <trkpt lat="42.9389" lon="0.56608">
        <ele>715</ele>
        <time>2019-02-03T08:27:25.000Z</time>
      </trkpt>
      <trkpt lat="42.9389" lon="0.56609">
        <ele>715</ele>
        <time>2019-02-03T08:27:26.000Z</time>
      </trkpt>
      <trkpt lat="42.9389" lon="0.56609">
        <ele>715</ele>
        <time>2019-02-03T08:27:27.000Z</time>
      </trkpt>
      <trkpt lat="42.9389" lon="0.56609">
        <ele>715</ele>
        <time>2019-02-03T08:27:28.000Z</time>
      </trkpt>
      <trkpt lat="42.9389" lon="0.56609">
        <ele>715</ele>
        <time>2019-02-03T08:27:29.000Z</time>
      </trkpt>
      <trkpt lat="42.9389" lon="0.56608">
        <ele>715</ele>
        <time>2019-02-03T08:27:30.000Z</time>
      </trkpt>
      <trkpt lat="42.9389" lon="0.56608">
        <ele>715</ele>
        <time>2019-02-03T08:27:31.000Z</time>
      </trkpt>
      <trkpt lat="42.9389" lon="0.56607">
        <ele>715</ele>
        <time>2019-02-03T08:27:32.000Z</time>
      </trkpt>
      <trkpt lat="42.9389" lon="0.56607">
        <ele>715</ele>
        <time>2019-02-03T08:27:33.000Z</time>
      </trkpt>
      <trkpt lat="42.9389" lon="0.56606">
        <ele>715</ele>
        <time>2019-02-03T08:27:34.000Z</time>
      </trkpt>
      <trkpt lat="42.9389" lon="0.56606">
        <ele>715</ele>
        <time>2019-02-03T08:27:35.000Z</time>
      </trkpt>
      <trkpt lat="42.9389" lon="0.56606">
        <ele>715</ele>
        <time>2019-02-03T08:27:36.000Z</time>
      </trkpt>
      <trkpt lat="42.93891" lon="0.56605">
        <ele>715</ele>
        <time>2019-02-03T08:27:37.000Z</time>
      </trkpt>
      <trkpt lat="42.93891" lon="0.56605">
        <ele>715</ele>
        <time>2019-02-03T08:27:38.000Z</time>
      </trkpt>
      <trkpt lat="42.9389" lon="0.56605">
        <ele>714</ele>
        <time>2019-02-03T08:27:39.000Z</time>
      </trkpt>
      <trkpt lat="42.9389" lon="0.56605">
        <ele>714</ele>
        <time>2019-02-03T08:27:40.000Z</time>
      </trkpt>
      <trkpt lat="42.9389" lon="0.56605">
        <ele>714</ele>
        <time>2019-02-03T08:27:41.000Z</time>
      </trkpt>
      <trkpt lat="42.9389" lon="0.56604">
        <ele>714</ele>
        <time>2019-02-03T08:27:42.000Z</time>
      </trkpt>
      <trkpt lat="42.9389" lon="0.56604">
        <ele>715</ele>
        <time>2019-02-03T08:27:43.000Z</time>
      </trkpt>
      <trkpt lat="42.9389" lon="0.56604">
        <ele>715</ele>
        <time>2019-02-03T08:27:44.000Z</time>
      </trkpt>
      <trkpt lat="42.9389" lon="0.56604">
        <ele>715</ele>
        <time>2019-02-03T08:27:45.000Z</time>
      </trkpt>
      <trkpt lat="42.9389" lon="0.56604">
        <ele>715</ele>
        <time>2019-02-03T08:27:46.000Z</time>
      </trkpt>
      <trkpt lat="42.9389" lon="0.56604">
        <ele>715</ele>
        <time>2019-02-03T08:27:47.000Z</time>
      </trkpt>
      <trkpt lat="42.9389" lon="0.56604">
        <ele>715</ele>
        <time>2019-02-03T08:27:48.000Z</time>
      </trkpt>
      <trkpt lat="42.9389" lon="0.56603">
        <ele>715</ele>
        <time>2019-02-03T08:27:49.000Z</time>
      </trkpt>
      <trkpt lat="42.93889" lon="0.56603">
        <ele>715</ele>
        <time>2019-02-03T08:27:50.000Z</time>
      </trkpt>
      <trkpt lat="42.93889" lon="0.56603">
        <ele>715</ele>
        <time>2019-02-03T08:27:51.000Z</time>
      </trkpt>
      <trkpt lat="42.93889" lon="0.56603">
        <ele>715</ele>
        <time>2019-02-03T08:27:52.000Z</time>
      </trkpt>
      <trkpt lat="42.93889" lon="0.56603">
        <ele>715</ele>
        <time>2019-02-03T08:27:53.000Z</time>
      </trkpt>
      <trkpt lat="42.9389" lon="0.56603">
        <ele>715</ele>
        <time>2019-02-03T08:27:54.000Z</time>
      </trkpt>
      <trkpt lat="42.9389" lon="0.56603">
        <ele>715</ele>
        <time>2019-02-03T08:27:55.000Z</time>
      </trkpt>
      <trkpt lat="42.9389" lon="0.56603">
        <ele>714.7</ele>
        <time>2019-02-03T08:27:56.000Z</time>
      </trkpt>
      <trkpt lat="42.9389" lon="0.56603">
        <ele>714.3</ele>
        <time>2019-02-03T08:27:57.000Z</time>
      </trkpt>
      <trkpt lat="42.9389" lon="0.56603">
        <ele>714</ele>
        <time>2019-02-03T08:27:58.000Z</time>
      </trkpt>
      <trkpt lat="42.9389" lon="0.56604">
        <ele>714</ele>
        <time>2019-02-03T08:27:59.000Z</time>
      </trkpt>
      <trkpt lat="42.9389" lon="0.56604">
        <ele>714.5</ele>
        <time>2019-02-03T08:28:00.000Z</time>
      </trkpt>
      <trkpt lat="42.9389" lon="0.56604">
        <ele>715</ele>
        <time>2019-02-03T08:28:01.000Z</time>
      </trkpt>
      <trkpt lat="42.9389" lon="0.56604">
        <ele>715</ele>
        <time>2019-02-03T08:28:02.000Z</time>
      </trkpt>
      <trkpt lat="42.9389" lon="0.56603">
        <ele>715</ele>
        <time>2019-02-03T08:28:03.000Z</time>
      </trkpt>
      <trkpt lat="42.9389" lon="0.56603">
        <ele>715</ele>
        <time>2019-02-03T08:28:04.000Z</time>
      </trkpt>
      <trkpt lat="42.9389" lon="0.56603">
        <ele>715</ele>
        <time>2019-02-03T08:28:05.000Z</time>
      </trkpt>
      <trkpt lat="42.9389" lon="0.56603">
        <ele>715</ele>
        <time>2019-02-03T08:28:06.000Z</time>
      </trkpt>
      <trkpt lat="42.9389" lon="0.56603">
        <ele>715</ele>
        <time>2019-02-03T08:28:07.000Z</time>
      </trkpt>
      <trkpt lat="42.93889" lon="0.56603">
        <ele>715</ele>
        <time>2019-02-03T08:28:08.000Z</time>
      </trkpt>
      <trkpt lat="42.93889" lon="0.56603">
        <ele>715</ele>
        <time>2019-02-03T08:28:09.000Z</time>
      </trkpt>
      <trkpt lat="42.93889" lon="0.56603">
        <ele>715</ele>
        <time>2019-02-03T08:28:10.000Z</time>
      </trkpt>
      <trkpt lat="42.93889" lon="0.56603">
        <ele>715</ele>
        <time>2019-02-03T08:28:11.000Z</time>
      </trkpt>
      <trkpt lat="42.93889" lon="0.56603">
        <ele>715</ele>
        <time>2019-02-03T08:28:12.000Z</time>
      </trkpt>
      <trkpt lat="42.93888" lon="0.56603">
        <ele>715</ele>
        <time>2019-02-03T08:28:13.000Z</time>
      </trkpt>
      <trkpt lat="42.93888" lon="0.56603">
        <ele>715</ele>
        <time>2019-02-03T08:28:14.000Z</time>
      </trkpt>
      <trkpt lat="42.93888" lon="0.56603">
        <ele>715</ele>
        <time>2019-02-03T08:28:15.000Z</time>
      </trkpt>
      <trkpt lat="42.93888" lon="0.56603">
        <ele>715</ele>
        <time>2019-02-03T08:28:16.000Z</time>
      </trkpt>
      <trkpt lat="42.93888" lon="0.56603">
        <ele>715</ele>
        <time>2019-02-03T08:28:17.000Z</time>
      </trkpt>
      <trkpt lat="42.93888" lon="0.56603">
        <ele>715</ele>
        <time>2019-02-03T08:28:18.000Z</time>
      </trkpt>
      <trkpt lat="42.93888" lon="0.56603">
        <ele>715</ele>
        <time>2019-02-03T08:28:19.000Z</time>
      </trkpt>
      <trkpt lat="42.93888" lon="0.56603">
        <ele>715</ele>
        <time>2019-02-03T08:28:20.000Z</time>
      </trkpt>
      <trkpt lat="42.93888" lon="0.56603">
        <ele>715</ele>
        <time>2019-02-03T08:28:21.000Z</time>
      </trkpt>
      <trkpt lat="42.93888" lon="0.56603">
        <ele>715</ele>
        <time>2019-02-03T08:28:22.000Z</time>
      </trkpt>
      <trkpt lat="42.93888" lon="0.56603">
        <ele>715</ele>
        <time>2019-02-03T08:28:23.000Z</time>
      </trkpt>
      <trkpt lat="42.93888" lon="0.56603">
        <ele>715</ele>
        <time>2019-02-03T08:28:24.000Z</time>
      </trkpt>
      <trkpt lat="42.93888" lon="0.56603">
        <ele>715</ele>
        <time>2019-02-03T08:28:25.000Z</time>
      </trkpt>
      <trkpt lat="42.93888" lon="0.56603">
        <ele>715</ele>
        <time>2019-02-03T08:28:26.000Z</time>
      </trkpt>
      <trkpt lat="42.93888" lon="0.56603">
        <ele>715</ele>
        <time>2019-02-03T08:28:27.000Z</time>
      </trkpt>
      <trkpt lat="42.93888" lon="0.56603">
        <ele>715</ele>
        <time>2019-02-03T08:28:28.000Z</time>
      </trkpt>
      <trkpt lat="42.93888" lon="0.56603">
        <ele>715</ele>
        <time>2019-02-03T08:28:29.000Z</time>
      </trkpt>
      <trkpt lat="42.93888" lon="0.56603">
        <ele>715</ele>
        <time>2019-02-03T08:28:30.000Z</time>
      </trkpt>
      <trkpt lat="42.93888" lon="0.56603">
        <ele>715</ele>
        <time>2019-02-03T08:28:31.000Z</time>
      </trkpt>
      <trkpt lat="42.93888" lon="0.56603">
        <ele>715</ele>
        <time>2019-02-03T08:28:32.000Z</time>
      </trkpt>
      <trkpt lat="42.93888" lon="0.56603">
        <ele>715</ele>
        <time>2019-02-03T08:28:33.000Z</time>
      </trkpt>
      <trkpt lat="42.93888" lon="0.56603">
        <ele>715</ele>
        <time>2019-02-03T08:28:34.000Z</time>
      </trkpt>
      <trkpt lat="42.93888" lon="0.56603">
        <ele>715</ele>
        <time>2019-02-03T08:28:35.000Z</time>
      </trkpt>
      <trkpt lat="42.93888" lon="0.56603">
        <ele>715</ele>
        <time>2019-02-03T08:28:36.000Z</time>
      </trkpt>
      <trkpt lat="42.93888" lon="0.56603">
        <ele>715</ele>
        <time>2019-02-03T08:28:37.000Z</time>
      </trkpt>
      <trkpt lat="42.93888" lon="0.56603">
        <ele>715</ele>
        <time>2019-02-03T08:28:38.000Z</time>
      </trkpt>
      <trkpt lat="42.93888" lon="0.56603">
        <ele>715</ele>
        <time>2019-02-03T08:28:39.000Z</time>
      </trkpt>
      <trkpt lat="42.93888" lon="0.56603">
        <ele>715</ele>
        <time>2019-02-03T08:28:40.000Z</time>
      </trkpt>
      <trkpt lat="42.93888" lon="0.56603">
        <ele>715</ele>
        <time>2019-02-03T08:28:41.000Z</time>
      </trkpt>
      <trkpt lat="42.93888" lon="0.56603">
        <ele>715</ele>
        <time>2019-02-03T08:28:42.000Z</time>
      </trkpt>
      <trkpt lat="42.93888" lon="0.56603">
        <ele>715</ele>
        <time>2019-02-03T08:28:43.000Z</time>
      </trkpt>
      <trkpt lat="42.93888" lon="0.56603">
        <ele>715</ele>
        <time>2019-02-03T08:28:44.000Z</time>
      </trkpt>
      <trkpt lat="42.93888" lon="0.56603">
        <ele>715</ele>
        <time>2019-02-03T08:28:45.000Z</time>
      </trkpt>
      <trkpt lat="42.93888" lon="0.56603">
        <ele>715</ele>
        <time>2019-02-03T08:28:46.000Z</time>
      </trkpt>
      <trkpt lat="42.93888" lon="0.56603">
        <ele>715</ele>
        <time>2019-02-03T08:28:47.000Z</time>
      </trkpt>
      <trkpt lat="42.93888" lon="0.56603">
        <ele>715</ele>
        <time>2019-02-03T08:28:48.000Z</time>
      </trkpt>
      <trkpt lat="42.93888" lon="0.56603">
        <ele>715</ele>
        <time>2019-02-03T08:28:49.000Z</time>
      </trkpt>
      <trkpt lat="42.93888" lon="0.56603">
        <ele>715</ele>
        <time>2019-02-03T08:28:50.000Z</time>
      </trkpt>
      <trkpt lat="42.93888" lon="0.56603">
        <ele>715</ele>
        <time>2019-02-03T08:28:51.000Z</time>
      </trkpt>
      <trkpt lat="42.93888" lon="0.56603">
        <ele>715</ele>
        <time>2019-02-03T08:28:52.000Z</time>
      </trkpt>
      <trkpt lat="42.93888" lon="0.56603">
        <ele>715</ele>
        <time>2019-02-03T08:28:53.000Z</time>
      </trkpt>
      <trkpt lat="42.93888" lon="0.56603">
        <ele>715</ele>
        <time>2019-02-03T08:28:54.000Z</time>
      </trkpt>
      <trkpt lat="42.93888" lon="0.56603">
        <ele>715</ele>
        <time>2019-02-03T08:28:55.000Z</time>
      </trkpt>
      <trkpt lat="42.93888" lon="0.56603">
        <ele>715</ele>
        <time>2019-02-03T08:28:56.000Z</time>
      </trkpt>
      <trkpt lat="42.93888" lon="0.56603">
        <ele>715</ele>
        <time>2019-02-03T08:28:57.000Z</time>
      </trkpt>
      <trkpt lat="42.93888" lon="0.56603">
        <ele>715</ele>
        <time>2019-02-03T08:28:58.000Z</time>
      </trkpt>
      <trkpt lat="42.93888" lon="0.56602">
        <ele>715</ele>
        <time>2019-02-03T08:28:59.000Z</time>
      </trkpt>
      <trkpt lat="42.93888" lon="0.56602">
        <ele>715</ele>
        <time>2019-02-03T08:29:00.000Z</time>
      </trkpt>
      <trkpt lat="42.93889" lon="0.56602">
        <ele>715</ele>
        <time>2019-02-03T08:29:01.000Z</time>
      </trkpt>
      <trkpt lat="42.93889" lon="0.56602">
        <ele>715</ele>
        <time>2019-02-03T08:29:02.000Z</time>
      </trkpt>
      <trkpt lat="42.93889" lon="0.56602">
        <ele>715</ele>
        <time>2019-02-03T08:29:03.000Z</time>
      </trkpt>
      <trkpt lat="42.93889" lon="0.56602">
        <ele>715</ele>
        <time>2019-02-03T08:29:04.000Z</time>
      </trkpt>
      <trkpt lat="42.93889" lon="0.56602">
        <ele>715</ele>
        <time>2019-02-03T08:29:05.000Z</time>
      </trkpt>
      <trkpt lat="42.93889" lon="0.56602">
        <ele>715</ele>
        <time>2019-02-03T08:29:06.000Z</time>
      </trkpt>
      <trkpt lat="42.93889" lon="0.56602">
        <ele>715</ele>
        <time>2019-02-03T08:29:07.000Z</time>
      </trkpt>
      <trkpt lat="42.93889" lon="0.56602">
        <ele>715</ele>
        <time>2019-02-03T08:29:08.000Z</time>
      </trkpt>
      <trkpt lat="42.93889" lon="0.56602">
        <ele>715</ele>
        <time>2019-02-03T08:29:09.000Z</time>
      </trkpt>
      <trkpt lat="42.93889" lon="0.56602">
        <ele>715</ele>
        <time>2019-02-03T08:29:10.000Z</time>
      </trkpt>
      <trkpt lat="42.93889" lon="0.56602">
        <ele>715</ele>
        <time>2019-02-03T08:29:11.000Z</time>
      </trkpt>
      <trkpt lat="42.93889" lon="0.56602">
        <ele>715</ele>
        <time>2019-02-03T08:29:12.000Z</time>
      </trkpt>
      <trkpt lat="42.93889" lon="0.56602">
        <ele>715</ele>
        <time>2019-02-03T08:29:13.000Z</time>
      </trkpt>
      <trkpt lat="42.93889" lon="0.56602">
        <ele>715</ele>
        <time>2019-02-03T08:29:14.000Z</time>
      </trkpt>
      <trkpt lat="42.93889" lon="0.56602">
        <ele>715</ele>
        <time>2019-02-03T08:29:15.000Z</time>
      </trkpt>
      <trkpt lat="42.93889" lon="0.56601">
        <ele>715</ele>
        <time>2019-02-03T08:29:16.000Z</time>
      </trkpt>
      <trkpt lat="42.93889" lon="0.56601">
        <ele>715</ele>
        <time>2019-02-03T08:29:17.000Z</time>
      </trkpt>
      <trkpt lat="42.9389" lon="0.56601">
        <ele>715</ele>
        <time>2019-02-03T08:29:18.000Z</time>
      </trkpt>
      <trkpt lat="42.9389" lon="0.56602">
        <ele>715</ele>
        <time>2019-02-03T08:29:19.000Z</time>
      </trkpt>
      <trkpt lat="42.9389" lon="0.56602">
        <ele>715</ele>
        <time>2019-02-03T08:29:20.000Z</time>
      </trkpt>
      <trkpt lat="42.93891" lon="0.56603">
        <ele>715</ele>
        <time>2019-02-03T08:29:21.000Z</time>
      </trkpt>
      <trkpt lat="42.93891" lon="0.56603">
        <ele>715</ele>
        <time>2019-02-03T08:29:22.000Z</time>
      </trkpt>
      <trkpt lat="42.93891" lon="0.56603">
        <ele>715</ele>
        <time>2019-02-03T08:29:23.000Z</time>
      </trkpt>
      <trkpt lat="42.93891" lon="0.56603">
        <ele>715</ele>
        <time>2019-02-03T08:29:24.000Z</time>
      </trkpt>
      <trkpt lat="42.93891" lon="0.56603">
        <ele>715</ele>
        <time>2019-02-03T08:29:25.000Z</time>
      </trkpt>
      <trkpt lat="42.93891" lon="0.56603">
        <ele>715</ele>
        <time>2019-02-03T08:29:26.000Z</time>
      </trkpt>
      <trkpt lat="42.93891" lon="0.56603">
        <ele>715</ele>
        <time>2019-02-03T08:29:27.000Z</time>
      </trkpt>
      <trkpt lat="42.93891" lon="0.56603">
        <ele>715</ele>
        <time>2019-02-03T08:29:28.000Z</time>
      </trkpt>
      <trkpt lat="42.93891" lon="0.56603">
        <ele>715</ele>
        <time>2019-02-03T08:29:29.000Z</time>
      </trkpt>
      <trkpt lat="42.93891" lon="0.56603">
        <ele>715</ele>
        <time>2019-02-03T08:29:30.000Z</time>
      </trkpt>
      <trkpt lat="42.93891" lon="0.56603">
        <ele>715</ele>
        <time>2019-02-03T08:29:31.000Z</time>
      </trkpt>
      <trkpt lat="42.93891" lon="0.56603">
        <ele>715</ele>
        <time>2019-02-03T08:29:32.000Z</time>
      </trkpt>
      <trkpt lat="42.93891" lon="0.56604">
        <ele>715</ele>
        <time>2019-02-03T08:29:33.000Z</time>
      </trkpt>
      <trkpt lat="42.93891" lon="0.56604">
        <ele>715</ele>
        <time>2019-02-03T08:29:34.000Z</time>
      </trkpt>
      <trkpt lat="42.93892" lon="0.56604">
        <ele>715</ele>
        <time>2019-02-03T08:29:35.000Z</time>
      </trkpt>
      <trkpt lat="42.93892" lon="0.56604">
        <ele>715</ele>
        <time>2019-02-03T08:29:36.000Z</time>
      </trkpt>
      <trkpt lat="42.93892" lon="0.56605">
        <ele>715</ele>
        <time>2019-02-03T08:29:37.000Z</time>
      </trkpt>
      <trkpt lat="42.93892" lon="0.56605">
        <ele>715</ele>
        <time>2019-02-03T08:29:38.000Z</time>
      </trkpt>
      <trkpt lat="42.93892" lon="0.56605">
        <ele>715</ele>
        <time>2019-02-03T08:29:39.000Z</time>
      </trkpt>
      <trkpt lat="42.93892" lon="0.56605">
        <ele>715</ele>
        <time>2019-02-03T08:29:40.000Z</time>
      </trkpt>
      <trkpt lat="42.93892" lon="0.56605">
        <ele>716</ele>
        <time>2019-02-03T08:29:41.000Z</time>
      </trkpt>
      <trkpt lat="42.93892" lon="0.56605">
        <ele>716</ele>
        <time>2019-02-03T08:29:42.000Z</time>
      </trkpt>
      <trkpt lat="42.93892" lon="0.56605">
        <ele>716</ele>
        <time>2019-02-03T08:29:43.000Z</time>
      </trkpt>
      <trkpt lat="42.93892" lon="0.56605">
        <ele>716</ele>
        <time>2019-02-03T08:29:44.000Z</time>
      </trkpt>
      <trkpt lat="42.93892" lon="0.56604">
        <ele>716</ele>
        <time>2019-02-03T08:29:45.000Z</time>
      </trkpt>
      <trkpt lat="42.93892" lon="0.56604">
        <ele>716</ele>
        <time>2019-02-03T08:29:46.000Z</time>
      </trkpt>
      <trkpt lat="42.93892" lon="0.56604">
        <ele>716</ele>
        <time>2019-02-03T08:29:47.000Z</time>
      </trkpt>
      <trkpt lat="42.93892" lon="0.56604">
        <ele>716</ele>
        <time>2019-02-03T08:29:48.000Z</time>
      </trkpt>
      <trkpt lat="42.93892" lon="0.56604">
        <ele>715</ele>
        <time>2019-02-03T08:29:49.000Z</time>
      </trkpt>
      <trkpt lat="42.93892" lon="0.56604">
        <ele>715</ele>
        <time>2019-02-03T08:29:50.000Z</time>
      </trkpt>
      <trkpt lat="42.93892" lon="0.56604">
        <ele>715</ele>
        <time>2019-02-03T08:29:51.000Z</time>
      </trkpt>
      <trkpt lat="42.93892" lon="0.56604">
        <ele>715</ele>
        <time>2019-02-03T08:29:52.000Z</time>
      </trkpt>
      <trkpt lat="42.93892" lon="0.56605">
        <ele>715</ele>
        <time>2019-02-03T08:29:53.000Z</time>
      </trkpt>
      <trkpt lat="42.93892" lon="0.56605">
        <ele>715</ele>
        <time>2019-02-03T08:29:54.000Z</time>
      </trkpt>
      <trkpt lat="42.93893" lon="0.56605">
        <ele>715</ele>
        <time>2019-02-03T08:29:55.000Z</time>
      </trkpt>
      <trkpt lat="42.93892" lon="0.56604">
        <ele>715</ele>
        <time>2019-02-03T08:29:56.000Z</time>
      </trkpt>
      <trkpt lat="42.93892" lon="0.56604">
        <ele>715</ele>
        <time>2019-02-03T08:29:57.000Z</time>
      </trkpt>
      <trkpt lat="42.93892" lon="0.56604">
        <ele>715</ele>
        <time>2019-02-03T08:29:58.000Z</time>
      </trkpt>
      <trkpt lat="42.93892" lon="0.56604">
        <ele>716</ele>
        <time>2019-02-03T08:29:59.000Z</time>
      </trkpt>
      <trkpt lat="42.93892" lon="0.56605">
        <ele>716</ele>
        <time>2019-02-03T08:30:00.000Z</time>
      </trkpt>
      <trkpt lat="42.93892" lon="0.56605">
        <ele>716</ele>
        <time>2019-02-03T08:30:01.000Z</time>
      </trkpt>
      <trkpt lat="42.93892" lon="0.56606">
        <ele>716</ele>
        <time>2019-02-03T08:30:02.000Z</time>
      </trkpt>
      <trkpt lat="42.93892" lon="0.56606">
        <ele>715.5</ele>
        <time>2019-02-03T08:30:03.000Z</time>
      </trkpt>
      <trkpt lat="42.93892" lon="0.56605">
        <ele>715</ele>
        <time>2019-02-03T08:30:04.000Z</time>
      </trkpt>
      <trkpt lat="42.93891" lon="0.56605">
        <ele>715</ele>
        <time>2019-02-03T08:30:05.000Z</time>
      </trkpt>
      <trkpt lat="42.93891" lon="0.56605">
        <ele>715</ele>
        <time>2019-02-03T08:30:06.000Z</time>
      </trkpt>
      <trkpt lat="42.93891" lon="0.56605">
        <ele>715</ele>
        <time>2019-02-03T08:30:07.000Z</time>
      </trkpt>
      <trkpt lat="42.93891" lon="0.56605">
        <ele>715</ele>
        <time>2019-02-03T08:30:08.000Z</time>
      </trkpt>
      <trkpt lat="42.93891" lon="0.56605">
        <ele>715</ele>
        <time>2019-02-03T08:30:09.000Z</time>
      </trkpt>
      <trkpt lat="42.93891" lon="0.56605">
        <ele>715</ele>
        <time>2019-02-03T08:30:10.000Z</time>
      </trkpt>
      <trkpt lat="42.93891" lon="0.56605">
        <ele>715</ele>
        <time>2019-02-03T08:30:11.000Z</time>
      </trkpt>
      <trkpt lat="42.93891" lon="0.56605">
        <ele>715</ele>
        <time>2019-02-03T08:30:12.000Z</time>
      </trkpt>
      <trkpt lat="42.93891" lon="0.56605">
        <ele>715</ele>
        <time>2019-02-03T08:30:13.000Z</time>
      </trkpt>
      <trkpt lat="42.93891" lon="0.56605">
        <ele>715</ele>
        <time>2019-02-03T08:30:14.000Z</time>
      </trkpt>
      <trkpt lat="42.93891" lon="0.56605">
        <ele>715</ele>
        <time>2019-02-03T08:30:15.000Z</time>
      </trkpt>
      <trkpt lat="42.93891" lon="0.56605">
        <ele>715</ele>
        <time>2019-02-03T08:30:16.000Z</time>
      </trkpt>
      <trkpt lat="42.93891" lon="0.56605">
        <ele>715</ele>
        <time>2019-02-03T08:30:17.000Z</time>
      </trkpt>
      <trkpt lat="42.93891" lon="0.56605">
        <ele>715</ele>
        <time>2019-02-03T08:30:18.000Z</time>
      </trkpt>
      <trkpt lat="42.93891" lon="0.56605">
        <ele>715</ele>
        <time>2019-02-03T08:30:19.000Z</time>
      </trkpt>
      <trkpt lat="42.93891" lon="0.56605">
        <ele>715</ele>
        <time>2019-02-03T08:30:20.000Z</time>
      </trkpt>
      <trkpt lat="42.93891" lon="0.56605">
        <ele>715</ele>
        <time>2019-02-03T08:30:21.000Z</time>
      </trkpt>
      <trkpt lat="42.93891" lon="0.56605">
        <ele>715</ele>
        <time>2019-02-03T08:30:22.000Z</time>
      </trkpt>
      <trkpt lat="42.93891" lon="0.56605">
        <ele>715</ele>
        <time>2019-02-03T08:30:23.000Z</time>
      </trkpt>
      <trkpt lat="42.93891" lon="0.56605">
        <ele>715</ele>
        <time>2019-02-03T08:30:24.000Z</time>
      </trkpt>
      <trkpt lat="42.9389" lon="0.56605">
        <ele>715</ele>
        <time>2019-02-03T08:30:25.000Z</time>
      </trkpt>
      <trkpt lat="42.9389" lon="0.56606">
        <ele>715</ele>
        <time>2019-02-03T08:30:26.000Z</time>
      </trkpt>
      <trkpt lat="42.93889" lon="0.56606">
        <ele>715</ele>
        <time>2019-02-03T08:30:27.000Z</time>
      </trkpt>
      <trkpt lat="42.93889" lon="0.56606">
        <ele>715</ele>
        <time>2019-02-03T08:30:28.000Z</time>
      </trkpt>
      <trkpt lat="42.93889" lon="0.56606">
        <ele>715</ele>
        <time>2019-02-03T08:30:29.000Z</time>
      </trkpt>
      <trkpt lat="42.93889" lon="0.56607">
        <ele>715</ele>
        <time>2019-02-03T08:30:30.000Z</time>
      </trkpt>
      <trkpt lat="42.93891" lon="0.56607">
        <ele>715</ele>
        <time>2019-02-03T08:30:31.000Z</time>
      </trkpt>
      <trkpt lat="42.93892" lon="0.56606">
        <ele>715</ele>
        <time>2019-02-03T08:30:32.000Z</time>
      </trkpt>
      <trkpt lat="42.93893" lon="0.56605">
        <ele>715</ele>
        <time>2019-02-03T08:30:33.000Z</time>
      </trkpt>
      <trkpt lat="42.93893" lon="0.56604">
        <ele>715</ele>
        <time>2019-02-03T08:30:34.000Z</time>
      </trkpt>
      <trkpt lat="42.93894" lon="0.56603">
        <ele>715</ele>
        <time>2019-02-03T08:30:35.000Z</time>
      </trkpt>
      <trkpt lat="42.93894" lon="0.56603">
        <ele>715</ele>
        <time>2019-02-03T08:30:36.000Z</time>
      </trkpt>
      <trkpt lat="42.93894" lon="0.56602">
        <ele>715</ele>
        <time>2019-02-03T08:30:37.000Z</time>
      </trkpt>
      <trkpt lat="42.93894" lon="0.56602">
        <ele>715</ele>
        <time>2019-02-03T08:30:38.000Z</time>
      </trkpt>
      <trkpt lat="42.93894" lon="0.56602">
        <ele>715</ele>
        <time>2019-02-03T08:30:39.000Z</time>
      </trkpt>
      <trkpt lat="42.93894" lon="0.56602">
        <ele>715</ele>
        <time>2019-02-03T08:30:40.000Z</time>
      </trkpt>
      <trkpt lat="42.93894" lon="0.56602">
        <ele>715</ele>
        <time>2019-02-03T08:30:41.000Z</time>
      </trkpt>
      <trkpt lat="42.93894" lon="0.56602">
        <ele>715</ele>
        <time>2019-02-03T08:30:42.000Z</time>
      </trkpt>
      <trkpt lat="42.93894" lon="0.56602">
        <ele>714</ele>
        <time>2019-02-03T08:30:43.000Z</time>
      </trkpt>
      <trkpt lat="42.93893" lon="0.56601">
        <ele>714</ele>
        <time>2019-02-03T08:30:44.000Z</time>
      </trkpt>
      <trkpt lat="42.93893" lon="0.56601">
        <ele>714</ele>
        <time>2019-02-03T08:30:45.000Z</time>
      </trkpt>
      <trkpt lat="42.93893" lon="0.56601">
        <ele>714</ele>
        <time>2019-02-03T08:30:46.000Z</time>
      </trkpt>
      <trkpt lat="42.93893" lon="0.56601">
        <ele>714</ele>
        <time>2019-02-03T08:30:47.000Z</time>
      </trkpt>
      <trkpt lat="42.93893" lon="0.56601">
        <ele>714</ele>
        <time>2019-02-03T08:30:48.000Z</time>
      </trkpt>
      <trkpt lat="42.93893" lon="0.56601">
        <ele>714</ele>
        <time>2019-02-03T08:30:49.000Z</time>
      </trkpt>
      <trkpt lat="42.93893" lon="0.56601">
        <ele>714</ele>
        <time>2019-02-03T08:30:50.000Z</time>
      </trkpt>
      <trkpt lat="42.93893" lon="0.56601">
        <ele>714</ele>
        <time>2019-02-03T08:30:51.000Z</time>
      </trkpt>
      <trkpt lat="42.93893" lon="0.56601">
        <ele>714</ele>
        <time>2019-02-03T08:30:52.000Z</time>
      </trkpt>
      <trkpt lat="42.93893" lon="0.56601">
        <ele>714</ele>
        <time>2019-02-03T08:30:53.000Z</time>
      </trkpt>
      <trkpt lat="42.93893" lon="0.56601">
        <ele>714</ele>
        <time>2019-02-03T08:30:54.000Z</time>
      </trkpt>
      <trkpt lat="42.93893" lon="0.56601">
        <ele>714</ele>
        <time>2019-02-03T08:30:55.000Z</time>
      </trkpt>
      <trkpt lat="42.93893" lon="0.56601">
        <ele>714</ele>
        <time>2019-02-03T08:30:56.000Z</time>
      </trkpt>
      <trkpt lat="42.93893" lon="0.56601">
        <ele>715</ele>
        <time>2019-02-03T08:30:57.000Z</time>
      </trkpt>
      <trkpt lat="42.93893" lon="0.56601">
        <ele>715</ele>
        <time>2019-02-03T08:30:58.000Z</time>
      </trkpt>
      <trkpt lat="42.93893" lon="0.56601">
        <ele>715</ele>
        <time>2019-02-03T08:30:59.000Z</time>
      </trkpt>
      <trkpt lat="42.93893" lon="0.56601">
        <ele>715</ele>
        <time>2019-02-03T08:31:00.000Z</time>
      </trkpt>
      <trkpt lat="42.93893" lon="0.56601">
        <ele>715</ele>
        <time>2019-02-03T08:31:01.000Z</time>
      </trkpt>
      <trkpt lat="42.93893" lon="0.56601">
        <ele>715</ele>
        <time>2019-02-03T08:31:02.000Z</time>
      </trkpt>
      <trkpt lat="42.93893" lon="0.56601">
        <ele>715</ele>
        <time>2019-02-03T08:31:03.000Z</time>
      </trkpt>
      <trkpt lat="42.93893" lon="0.56601">
        <ele>715</ele>
        <time>2019-02-03T08:31:04.000Z</time>
      </trkpt>
      <trkpt lat="42.93893" lon="0.56601">
        <ele>715</ele>
        <time>2019-02-03T08:31:05.000Z</time>
      </trkpt>
      <trkpt lat="42.93893" lon="0.566">
        <ele>715</ele>
        <time>2019-02-03T08:31:06.000Z</time>
      </trkpt>
      <trkpt lat="42.93892" lon="0.566">
        <ele>715</ele>
        <time>2019-02-03T08:31:07.000Z</time>
      </trkpt>
      <trkpt lat="42.93892" lon="0.566">
        <ele>715</ele>
        <time>2019-02-03T08:31:08.000Z</time>
      </trkpt>
      <trkpt lat="42.93892" lon="0.56601">
        <ele>715</ele>
        <time>2019-02-03T08:31:09.000Z</time>
      </trkpt>
      <trkpt lat="42.93892" lon="0.56601">
        <ele>715</ele>
        <time>2019-02-03T08:31:10.000Z</time>
      </trkpt>
      <trkpt lat="42.93891" lon="0.56602">
        <ele>715</ele>
        <time>2019-02-03T08:31:11.000Z</time>
      </trkpt>
      <trkpt lat="42.93891" lon="0.56603">
        <ele>715</ele>
        <time>2019-02-03T08:31:12.000Z</time>
      </trkpt>
      <trkpt lat="42.93891" lon="0.56604">
        <ele>715</ele>
        <time>2019-02-03T08:31:13.000Z</time>
      </trkpt>
      <trkpt lat="42.93891" lon="0.56605">
        <ele>715</ele>
        <time>2019-02-03T08:31:14.000Z</time>
      </trkpt>
      <trkpt lat="42.93891" lon="0.56605">
        <ele>715</ele>
        <time>2019-02-03T08:31:15.000Z</time>
      </trkpt>
      <trkpt lat="42.93892" lon="0.56606">
        <ele>714.7</ele>
        <time>2019-02-03T08:31:16.000Z</time>
      </trkpt>
      <trkpt lat="42.93892" lon="0.56606">
        <ele>714.3</ele>
        <time>2019-02-03T08:31:17.000Z</time>
      </trkpt>
      <trkpt lat="42.93892" lon="0.56606">
        <ele>714</ele>
        <time>2019-02-03T08:31:18.000Z</time>
      </trkpt>
      <trkpt lat="42.93892" lon="0.56606">
        <ele>714</ele>
        <time>2019-02-03T08:31:19.000Z</time>
      </trkpt>
      <trkpt lat="42.93892" lon="0.56606">
        <ele>714</ele>
        <time>2019-02-03T08:31:20.000Z</time>
      </trkpt>
      <trkpt lat="42.93892" lon="0.56606">
        <ele>714</ele>
        <time>2019-02-03T08:31:21.000Z</time>
      </trkpt>
      <trkpt lat="42.93892" lon="0.56606">
        <ele>714</ele>
        <time>2019-02-03T08:31:22.000Z</time>
      </trkpt>
      <trkpt lat="42.93892" lon="0.56606">
        <ele>714</ele>
        <time>2019-02-03T08:31:23.000Z</time>
      </trkpt>
      <trkpt lat="42.93892" lon="0.56606">
        <ele>714</ele>
        <time>2019-02-03T08:31:24.000Z</time>
      </trkpt>
      <trkpt lat="42.93892" lon="0.56606">
        <ele>714</ele>
        <time>2019-02-03T08:31:25.000Z</time>
      </trkpt>
      <trkpt lat="42.93892" lon="0.56606">
        <ele>714</ele>
        <time>2019-02-03T08:31:26.000Z</time>
      </trkpt>
      <trkpt lat="42.93891" lon="0.56605">
        <ele>714</ele>
        <time>2019-02-03T08:31:27.000Z</time>
      </trkpt>
      <trkpt lat="42.93891" lon="0.56605">
        <ele>714</ele>
        <time>2019-02-03T08:31:28.000Z</time>
      </trkpt>
      <trkpt lat="42.93891" lon="0.56605">
        <ele>714</ele>
        <time>2019-02-03T08:31:29.000Z</time>
      </trkpt>
      <trkpt lat="42.93891" lon="0.56605">
        <ele>714</ele>
        <time>2019-02-03T08:31:30.000Z</time>
      </trkpt>
      <trkpt lat="42.9389" lon="0.56605">
        <ele>715</ele>
        <time>2019-02-03T08:31:31.000Z</time>
      </trkpt>
      <trkpt lat="42.9389" lon="0.56605">
        <ele>714.7</ele>
        <time>2019-02-03T08:31:32.000Z</time>
      </trkpt>
      <trkpt lat="42.9389" lon="0.56605">
        <ele>714.3</ele>
        <time>2019-02-03T08:31:33.000Z</time>
      </trkpt>
      <trkpt lat="42.9389" lon="0.56605">
        <ele>714</ele>
        <time>2019-02-03T08:31:34.000Z</time>
      </trkpt>
      <trkpt lat="42.9389" lon="0.56605">
        <ele>714</ele>
        <time>2019-02-03T08:31:35.000Z</time>
      </trkpt>
      <trkpt lat="42.9389" lon="0.56605">
        <ele>714</ele>
        <time>2019-02-03T08:31:36.000Z</time>
      </trkpt>
      <trkpt lat="42.9389" lon="0.56605">
        <ele>714</ele>
        <time>2019-02-03T08:31:37.000Z</time>
      </trkpt>
      <trkpt lat="42.9389" lon="0.56605">
        <ele>714</ele>
        <time>2019-02-03T08:31:38.000Z</time>
      </trkpt>
      <trkpt lat="42.9389" lon="0.56605">
        <ele>714</ele>
        <time>2019-02-03T08:31:39.000Z</time>
      </trkpt>
      <trkpt lat="42.9389" lon="0.56605">
        <ele>714</ele>
        <time>2019-02-03T08:31:40.000Z</time>
      </trkpt>
      <trkpt lat="42.9389" lon="0.56605">
        <ele>714</ele>
        <time>2019-02-03T08:31:41.000Z</time>
      </trkpt>
      <trkpt lat="42.9389" lon="0.56605">
        <ele>714</ele>
        <time>2019-02-03T08:31:42.000Z</time>
      </trkpt>
      <trkpt lat="42.9389" lon="0.56605">
        <ele>714</ele>
        <time>2019-02-03T08:31:43.000Z</time>
      </trkpt>
      <trkpt lat="42.93889" lon="0.56605">
        <ele>714</ele>
        <time>2019-02-03T08:31:44.000Z</time>
      </trkpt>
      <trkpt lat="42.93889" lon="0.56605">
        <ele>714</ele>
        <time>2019-02-03T08:31:45.000Z</time>
      </trkpt>
      <trkpt lat="42.93889" lon="0.56605">
        <ele>714</ele>
        <time>2019-02-03T08:31:46.000Z</time>
      </trkpt>
      <trkpt lat="42.93889" lon="0.56605">
        <ele>714</ele>
        <time>2019-02-03T08:31:47.000Z</time>
      </trkpt>
      <trkpt lat="42.93889" lon="0.56605">
        <ele>714</ele>
        <time>2019-02-03T08:31:48.000Z</time>
      </trkpt>
      <trkpt lat="42.93888" lon="0.56604">
        <ele>714</ele>
        <time>2019-02-03T08:31:49.000Z</time>
      </trkpt>
      <trkpt lat="42.93888" lon="0.56604">
        <ele>714</ele>
        <time>2019-02-03T08:31:50.000Z</time>
      </trkpt>
      <trkpt lat="42.93888" lon="0.56604">
        <ele>714</ele>
        <time>2019-02-03T08:31:51.000Z</time>
      </trkpt>
      <trkpt lat="42.93888" lon="0.56604">
        <ele>714</ele>
        <time>2019-02-03T08:31:52.000Z</time>
      </trkpt>
      <trkpt lat="42.93888" lon="0.56604">
        <ele>714</ele>
        <time>2019-02-03T08:31:53.000Z</time>
      </trkpt>
      <trkpt lat="42.93888" lon="0.56604">
        <ele>714.3</ele>
        <time>2019-02-03T08:31:54.000Z</time>
      </trkpt>
      <trkpt lat="42.93888" lon="0.56604">
        <ele>714.7</ele>
        <time>2019-02-03T08:31:55.000Z</time>
      </trkpt>
      <trkpt lat="42.93888" lon="0.56604">
        <ele>715</ele>
        <time>2019-02-03T08:31:56.000Z</time>
      </trkpt>
      <trkpt lat="42.93888" lon="0.56604">
        <ele>715</ele>
        <time>2019-02-03T08:31:57.000Z</time>
      </trkpt>
      <trkpt lat="42.93888" lon="0.56604">
        <ele>715</ele>
        <time>2019-02-03T08:31:58.000Z</time>
      </trkpt>
      <trkpt lat="42.93888" lon="0.56604">
        <ele>715</ele>
        <time>2019-02-03T08:31:59.000Z</time>
      </trkpt>
      <trkpt lat="42.93888" lon="0.56604">
        <ele>715</ele>
        <time>2019-02-03T08:32:00.000Z</time>
      </trkpt>
      <trkpt lat="42.93888" lon="0.56604">
        <ele>715</ele>
        <time>2019-02-03T08:32:01.000Z</time>
      </trkpt>
      <trkpt lat="42.93888" lon="0.56604">
        <ele>715</ele>
        <time>2019-02-03T08:32:02.000Z</time>
      </trkpt>
      <trkpt lat="42.93888" lon="0.56604">
        <ele>715</ele>
        <time>2019-02-03T08:32:03.000Z</time>
      </trkpt>
      <trkpt lat="42.93888" lon="0.56604">
        <ele>715</ele>
        <time>2019-02-03T08:32:04.000Z</time>
      </trkpt>
      <trkpt lat="42.93888" lon="0.56604">
        <ele>715</ele>
        <time>2019-02-03T08:32:05.000Z</time>
      </trkpt>
      <trkpt lat="42.93888" lon="0.56604">
        <ele>715</ele>
        <time>2019-02-03T08:32:06.000Z</time>
      </trkpt>
      <trkpt lat="42.93888" lon="0.56604">
        <ele>715</ele>
        <time>2019-02-03T08:32:07.000Z</time>
      </trkpt>
      <trkpt lat="42.93888" lon="0.56604">
        <ele>715</ele>
        <time>2019-02-03T08:32:08.000Z</time>
      </trkpt>
      <trkpt lat="42.93888" lon="0.56604">
        <ele>715</ele>
        <time>2019-02-03T08:32:09.000Z</time>
      </trkpt>
      <trkpt lat="42.93888" lon="0.56604">
        <ele>715</ele>
        <time>2019-02-03T08:32:10.000Z</time>
      </trkpt>
      <trkpt lat="42.93888" lon="0.56604">
        <ele>715</ele>
        <time>2019-02-03T08:32:11.000Z</time>
      </trkpt>
      <trkpt lat="42.93888" lon="0.56604">
        <ele>714.7</ele>
        <time>2019-02-03T08:32:12.000Z</time>
      </trkpt>
      <trkpt lat="42.93888" lon="0.56604">
        <ele>714.3</ele>
        <time>2019-02-03T08:32:13.000Z</time>
      </trkpt>
      <trkpt lat="42.93888" lon="0.56604">
        <ele>714</ele>
        <time>2019-02-03T08:32:14.000Z</time>
      </trkpt>
      <trkpt lat="42.93888" lon="0.56604">
        <ele>714</ele>
        <time>2019-02-03T08:32:15.000Z</time>
      </trkpt>
      <trkpt lat="42.93888" lon="0.56604">
        <ele>714.3</ele>
        <time>2019-02-03T08:32:16.000Z</time>
      </trkpt>
      <trkpt lat="42.93888" lon="0.56604">
        <ele>714.7</ele>
        <time>2019-02-03T08:32:17.000Z</time>
      </trkpt>
      <trkpt lat="42.93888" lon="0.56604">
        <ele>715</ele>
        <time>2019-02-03T08:32:18.000Z</time>
      </trkpt>
      <trkpt lat="42.93888" lon="0.56604">
        <ele>715</ele>
        <time>2019-02-03T08:32:19.000Z</time>
      </trkpt>
      <trkpt lat="42.93888" lon="0.56604">
        <ele>715</ele>
        <time>2019-02-03T08:32:20.000Z</time>
      </trkpt>
      <trkpt lat="42.93888" lon="0.56604">
        <ele>715</ele>
        <time>2019-02-03T08:32:21.000Z</time>
      </trkpt>
      <trkpt lat="42.93888" lon="0.56604">
        <ele>715</ele>
        <time>2019-02-03T08:32:22.000Z</time>
      </trkpt>
      <trkpt lat="42.93888" lon="0.56604">
        <ele>715</ele>
        <time>2019-02-03T08:32:23.000Z</time>
      </trkpt>
      <trkpt lat="42.93888" lon="0.56604">
        <ele>715</ele>
        <time>2019-02-03T08:32:24.000Z</time>
      </trkpt>
      <trkpt lat="42.93888" lon="0.56604">
        <ele>715</ele>
        <time>2019-02-03T08:32:25.000Z</time>
      </trkpt>
      <trkpt lat="42.93888" lon="0.56604">
        <ele>715</ele>
        <time>2019-02-03T08:32:26.000Z</time>
      </trkpt>
      <trkpt lat="42.93888" lon="0.56604">
        <ele>714</ele>
        <time>2019-02-03T08:32:27.000Z</time>
      </trkpt>
      <trkpt lat="42.93888" lon="0.56604">
        <ele>714</ele>
        <time>2019-02-03T08:32:28.000Z</time>
      </trkpt>
      <trkpt lat="42.93888" lon="0.56604">
        <ele>714</ele>
        <time>2019-02-03T08:32:29.000Z</time>
      </trkpt>
      <trkpt lat="42.93888" lon="0.56604">
        <ele>714.5</ele>
        <time>2019-02-03T08:32:30.000Z</time>
      </trkpt>
      <trkpt lat="42.93888" lon="0.56604">
        <ele>715</ele>
        <time>2019-02-03T08:32:31.000Z</time>
      </trkpt>
      <trkpt lat="42.93888" lon="0.56604">
        <ele>715</ele>
        <time>2019-02-03T08:32:32.000Z</time>
      </trkpt>
      <trkpt lat="42.93888" lon="0.56604">
        <ele>715</ele>
        <time>2019-02-03T08:32:33.000Z</time>
      </trkpt>
      <trkpt lat="42.93888" lon="0.56604">
        <ele>715</ele>
        <time>2019-02-03T08:32:34.000Z</time>
      </trkpt>
      <trkpt lat="42.93888" lon="0.56604">
        <ele>715</ele>
        <time>2019-02-03T08:32:35.000Z</time>
      </trkpt>
      <trkpt lat="42.93888" lon="0.56604">
        <ele>715</ele>
        <time>2019-02-03T08:32:36.000Z</time>
      </trkpt>
      <trkpt lat="42.93888" lon="0.56604">
        <ele>715</ele>
        <time>2019-02-03T08:32:37.000Z</time>
      </trkpt>
      <trkpt lat="42.93888" lon="0.56604">
        <ele>715</ele>
        <time>2019-02-03T08:32:38.000Z</time>
      </trkpt>
      <trkpt lat="42.93889" lon="0.56604">
        <ele>715</ele>
        <time>2019-02-03T08:32:39.000Z</time>
      </trkpt>
      <trkpt lat="42.93889" lon="0.56603">
        <ele>715</ele>
        <time>2019-02-03T08:32:40.000Z</time>
      </trkpt>
      <trkpt lat="42.93889" lon="0.56603">
        <ele>715</ele>
        <time>2019-02-03T08:32:41.000Z</time>
      </trkpt>
      <trkpt lat="42.93889" lon="0.56602">
        <ele>715</ele>
        <time>2019-02-03T08:32:42.000Z</time>
      </trkpt>
      <trkpt lat="42.93889" lon="0.56602">
        <ele>715</ele>
        <time>2019-02-03T08:32:43.000Z</time>
      </trkpt>
      <trkpt lat="42.93889" lon="0.56601">
        <ele>715</ele>
        <time>2019-02-03T08:32:44.000Z</time>
      </trkpt>
      <trkpt lat="42.93889" lon="0.56601">
        <ele>715</ele>
        <time>2019-02-03T08:32:45.000Z</time>
      </trkpt>
      <trkpt lat="42.93889" lon="0.56601">
        <ele>715</ele>
        <time>2019-02-03T08:32:46.000Z</time>
      </trkpt>
      <trkpt lat="42.93888" lon="0.56601">
        <ele>715</ele>
        <time>2019-02-03T08:32:47.000Z</time>
      </trkpt>
      <trkpt lat="42.93888" lon="0.56601">
        <ele>715</ele>
        <time>2019-02-03T08:32:48.000Z</time>
      </trkpt>
      <trkpt lat="42.93888" lon="0.56601">
        <ele>714.5</ele>
        <time>2019-02-03T08:32:49.000Z</time>
      </trkpt>
      <trkpt lat="42.93888" lon="0.56601">
        <ele>714</ele>
        <time>2019-02-03T08:32:50.000Z</time>
      </trkpt>
      <trkpt lat="42.93887" lon="0.56601">
        <ele>714</ele>
        <time>2019-02-03T08:32:51.000Z</time>
      </trkpt>
      <trkpt lat="42.93887" lon="0.56601">
        <ele>714</ele>
        <time>2019-02-03T08:32:52.000Z</time>
      </trkpt>
      <trkpt lat="42.93887" lon="0.56601">
        <ele>714</ele>
        <time>2019-02-03T08:32:53.000Z</time>
      </trkpt>
      <trkpt lat="42.93887" lon="0.56601">
        <ele>714.3</ele>
        <time>2019-02-03T08:32:54.000Z</time>
      </trkpt>
      <trkpt lat="42.93887" lon="0.56601">
        <ele>714.7</ele>
        <time>2019-02-03T08:32:55.000Z</time>
      </trkpt>
      <trkpt lat="42.93887" lon="0.56601">
        <ele>715</ele>
        <time>2019-02-03T08:32:56.000Z</time>
      </trkpt>
      <trkpt lat="42.93887" lon="0.56601">
        <ele>715</ele>
        <time>2019-02-03T08:32:57.000Z</time>
      </trkpt>
      <trkpt lat="42.93887" lon="0.56601">
        <ele>715</ele>
        <time>2019-02-03T08:32:58.000Z</time>
      </trkpt>
      <trkpt lat="42.93888" lon="0.56601">
        <ele>715</ele>
        <time>2019-02-03T08:32:59.000Z</time>
      </trkpt>
      <trkpt lat="42.93888" lon="0.56601">
        <ele>715</ele>
        <time>2019-02-03T08:33:00.000Z</time>
      </trkpt>
      <trkpt lat="42.93888" lon="0.56601">
        <ele>715</ele>
        <time>2019-02-03T08:33:01.000Z</time>
      </trkpt>
      <trkpt lat="42.93888" lon="0.56601">
        <ele>715</ele>
        <time>2019-02-03T08:33:02.000Z</time>
      </trkpt>
      <trkpt lat="42.93888" lon="0.56601">
        <ele>715</ele>
        <time>2019-02-03T08:33:03.000Z</time>
      </trkpt>
      <trkpt lat="42.93888" lon="0.56601">
        <ele>715</ele>
        <time>2019-02-03T08:33:04.000Z</time>
      </trkpt>
      <trkpt lat="42.93889" lon="0.566">
        <ele>715</ele>
        <time>2019-02-03T08:33:05.000Z</time>
      </trkpt>
      <trkpt lat="42.93889" lon="0.56599">
        <ele>715</ele>
        <time>2019-02-03T08:33:06.000Z</time>
      </trkpt>
      <trkpt lat="42.9389" lon="0.56599">
        <ele>715</ele>
        <time>2019-02-03T08:33:07.000Z</time>
      </trkpt>
      <trkpt lat="42.9389" lon="0.56599">
        <ele>715</ele>
        <time>2019-02-03T08:33:08.000Z</time>
      </trkpt>
      <trkpt lat="42.9389" lon="0.56599">
        <ele>715</ele>
        <time>2019-02-03T08:33:09.000Z</time>
      </trkpt>
      <trkpt lat="42.9389" lon="0.566">
        <ele>715</ele>
        <time>2019-02-03T08:33:10.000Z</time>
      </trkpt>
      <trkpt lat="42.9389" lon="0.566">
        <ele>715</ele>
        <time>2019-02-03T08:33:11.000Z</time>
      </trkpt>
      <trkpt lat="42.93889" lon="0.56601">
        <ele>715</ele>
        <time>2019-02-03T08:33:12.000Z</time>
      </trkpt>
      <trkpt lat="42.93889" lon="0.56601">
        <ele>715</ele>
        <time>2019-02-03T08:33:13.000Z</time>
      </trkpt>
      <trkpt lat="42.93889" lon="0.56601">
        <ele>715</ele>
        <time>2019-02-03T08:33:14.000Z</time>
      </trkpt>
      <trkpt lat="42.93889" lon="0.56601">
        <ele>715</ele>
        <time>2019-02-03T08:33:15.000Z</time>
      </trkpt>
      <trkpt lat="42.93889" lon="0.566">
        <ele>715</ele>
        <time>2019-02-03T08:33:16.000Z</time>
      </trkpt>
      <trkpt lat="42.93889" lon="0.566">
        <ele>715</ele>
        <time>2019-02-03T08:33:17.000Z</time>
      </trkpt>
      <trkpt lat="42.93889" lon="0.566">
        <ele>715</ele>
        <time>2019-02-03T08:33:18.000Z</time>
      </trkpt>
      <trkpt lat="42.9389" lon="0.566">
        <ele>714</ele>
        <time>2019-02-03T08:33:19.000Z</time>
      </trkpt>
      <trkpt lat="42.9389" lon="0.566">
        <ele>714.3</ele>
        <time>2019-02-03T08:33:20.000Z</time>
      </trkpt>
      <trkpt lat="42.9389" lon="0.566">
        <ele>714.7</ele>
        <time>2019-02-03T08:33:21.000Z</time>
      </trkpt>
      <trkpt lat="42.9389" lon="0.566">
        <ele>715</ele>
        <time>2019-02-03T08:33:22.000Z</time>
      </trkpt>
      <trkpt lat="42.9389" lon="0.566">
        <ele>715</ele>
        <time>2019-02-03T08:33:23.000Z</time>
      </trkpt>
      <trkpt lat="42.9389" lon="0.566">
        <ele>715</ele>
        <time>2019-02-03T08:33:24.000Z</time>
      </trkpt>
      <trkpt lat="42.9389" lon="0.566">
        <ele>715</ele>
        <time>2019-02-03T08:33:25.000Z</time>
      </trkpt>
      <trkpt lat="42.9389" lon="0.566">
        <ele>715</ele>
        <time>2019-02-03T08:33:26.000Z</time>
      </trkpt>
      <trkpt lat="42.9389" lon="0.566">
        <ele>715</ele>
        <time>2019-02-03T08:33:27.000Z</time>
      </trkpt>
      <trkpt lat="42.9389" lon="0.566">
        <ele>715</ele>
        <time>2019-02-03T08:33:28.000Z</time>
      </trkpt>
      <trkpt lat="42.9389" lon="0.566">
        <ele>715</ele>
        <time>2019-02-03T08:33:29.000Z</time>
      </trkpt>
      <trkpt lat="42.9389" lon="0.566">
        <ele>715</ele>
        <time>2019-02-03T08:33:30.000Z</time>
      </trkpt>
      <trkpt lat="42.9389" lon="0.566">
        <ele>715</ele>
        <time>2019-02-03T08:33:31.000Z</time>
      </trkpt>
      <trkpt lat="42.9389" lon="0.566">
        <ele>715</ele>
        <time>2019-02-03T08:33:32.000Z</time>
      </trkpt>
      <trkpt lat="42.9389" lon="0.566">
        <ele>715</ele>
        <time>2019-02-03T08:33:33.000Z</time>
      </trkpt>
      <trkpt lat="42.9389" lon="0.566">
        <ele>715</ele>
        <time>2019-02-03T08:33:34.000Z</time>
      </trkpt>
      <trkpt lat="42.93889" lon="0.566">
        <ele>715</ele>
        <time>2019-02-03T08:33:35.000Z</time>
      </trkpt>
      <trkpt lat="42.93889" lon="0.566">
        <ele>715</ele>
        <time>2019-02-03T08:33:36.000Z</time>
      </trkpt>
      <trkpt lat="42.93889" lon="0.566">
        <ele>715</ele>
        <time>2019-02-03T08:33:37.000Z</time>
      </trkpt>
      <trkpt lat="42.93889" lon="0.566">
        <ele>715</ele>
        <time>2019-02-03T08:33:38.000Z</time>
      </trkpt>
      <trkpt lat="42.93889" lon="0.566">
        <ele>715</ele>
        <time>2019-02-03T08:33:39.000Z</time>
      </trkpt>
      <trkpt lat="42.93889" lon="0.56601">
        <ele>715</ele>
        <time>2019-02-03T08:33:40.000Z</time>
      </trkpt>
      <trkpt lat="42.93889" lon="0.56601">
        <ele>715</ele>
        <time>2019-02-03T08:33:41.000Z</time>
      </trkpt>
      <trkpt lat="42.93889" lon="0.56601">
        <ele>715</ele>
        <time>2019-02-03T08:33:42.000Z</time>
      </trkpt>
      <trkpt lat="42.9389" lon="0.56601">
        <ele>715</ele>
        <time>2019-02-03T08:33:43.000Z</time>
      </trkpt>
      <trkpt lat="42.9389" lon="0.566">
        <ele>715</ele>
        <time>2019-02-03T08:33:44.000Z</time>
      </trkpt>
      <trkpt lat="42.93891" lon="0.566">
        <ele>715</ele>
        <time>2019-02-03T08:33:45.000Z</time>
      </trkpt>
      <trkpt lat="42.93891" lon="0.566">
        <ele>714.7</ele>
        <time>2019-02-03T08:33:46.000Z</time>
      </trkpt>
      <trkpt lat="42.93892" lon="0.566">
        <ele>714.3</ele>
        <time>2019-02-03T08:33:47.000Z</time>
      </trkpt>
      <trkpt lat="42.93894" lon="0.566">
        <ele>714</ele>
        <time>2019-02-03T08:33:48.000Z</time>
      </trkpt>
      <trkpt lat="42.93896" lon="0.566">
        <ele>714</ele>
        <time>2019-02-03T08:33:49.000Z</time>
      </trkpt>
      <trkpt lat="42.93898" lon="0.566">
        <ele>714</ele>
        <time>2019-02-03T08:33:50.000Z</time>
      </trkpt>
      <trkpt lat="42.93899" lon="0.56601">
        <ele>714</ele>
        <time>2019-02-03T08:33:51.000Z</time>
      </trkpt>
      <trkpt lat="42.93901" lon="0.56601">
        <ele>714</ele>
        <time>2019-02-03T08:33:52.000Z</time>
      </trkpt>
      <trkpt lat="42.93902" lon="0.56601">
        <ele>714</ele>
        <time>2019-02-03T08:33:53.000Z</time>
      </trkpt>
      <trkpt lat="42.93904" lon="0.56602">
        <ele>714</ele>
        <time>2019-02-03T08:33:54.000Z</time>
      </trkpt>
      <trkpt lat="42.93905" lon="0.56601">
        <ele>714</ele>
        <time>2019-02-03T08:33:55.000Z</time>
      </trkpt>
      <trkpt lat="42.93906" lon="0.56601">
        <ele>714</ele>
        <time>2019-02-03T08:33:56.000Z</time>
      </trkpt>
      <trkpt lat="42.93907" lon="0.56601">
        <ele>714</ele>
        <time>2019-02-03T08:33:57.000Z</time>
      </trkpt>
      <trkpt lat="42.93907" lon="0.566">
        <ele>714</ele>
        <time>2019-02-03T08:33:58.000Z</time>
      </trkpt>
      <trkpt lat="42.93908" lon="0.566">
        <ele>713.5</ele>
        <time>2019-02-03T08:33:59.000Z</time>
      </trkpt>
      <trkpt lat="42.93909" lon="0.56599">
        <ele>713</ele>
        <time>2019-02-03T08:34:00.000Z</time>
      </trkpt>
      <trkpt lat="42.9391" lon="0.56599">
        <ele>713</ele>
        <time>2019-02-03T08:34:01.000Z</time>
      </trkpt>
      <trkpt lat="42.9391" lon="0.56598">
        <ele>713</ele>
        <time>2019-02-03T08:34:02.000Z</time>
      </trkpt>
      <trkpt lat="42.93911" lon="0.56598">
        <ele>713</ele>
        <time>2019-02-03T08:34:03.000Z</time>
      </trkpt>
      <trkpt lat="42.93911" lon="0.56597">
        <ele>713</ele>
        <time>2019-02-03T08:34:04.000Z</time>
      </trkpt>
      <trkpt lat="42.93912" lon="0.56597">
        <ele>713</ele>
        <time>2019-02-03T08:34:05.000Z</time>
      </trkpt>
      <trkpt lat="42.93912" lon="0.56597">
        <ele>713</ele>
        <time>2019-02-03T08:34:06.000Z</time>
      </trkpt>
      <trkpt lat="42.93912" lon="0.56596">
        <ele>713</ele>
        <time>2019-02-03T08:34:07.000Z</time>
      </trkpt>
      <trkpt lat="42.93913" lon="0.56596">
        <ele>713</ele>
        <time>2019-02-03T08:34:08.000Z</time>
      </trkpt>
      <trkpt lat="42.93913" lon="0.56596">
        <ele>712.5</ele>
        <time>2019-02-03T08:34:09.000Z</time>
      </trkpt>
      <trkpt lat="42.93913" lon="0.56596">
        <ele>712</ele>
        <time>2019-02-03T08:34:10.000Z</time>
      </trkpt>
      <trkpt lat="42.93914" lon="0.56596">
        <ele>712</ele>
        <time>2019-02-03T08:34:11.000Z</time>
      </trkpt>
      <trkpt lat="42.93914" lon="0.56596">
        <ele>712</ele>
        <time>2019-02-03T08:34:12.000Z</time>
      </trkpt>
      <trkpt lat="42.93914" lon="0.56596">
        <ele>712</ele>
        <time>2019-02-03T08:34:13.000Z</time>
      </trkpt>
      <trkpt lat="42.93914" lon="0.56596">
        <ele>712</ele>
        <time>2019-02-03T08:34:14.000Z</time>
      </trkpt>
      <trkpt lat="42.93914" lon="0.56596">
        <ele>712</ele>
        <time>2019-02-03T08:34:15.000Z</time>
      </trkpt>
      <trkpt lat="42.93914" lon="0.56596">
        <ele>712</ele>
        <time>2019-02-03T08:34:16.000Z</time>
      </trkpt>
      <trkpt lat="42.93914" lon="0.56596">
        <ele>712</ele>
        <time>2019-02-03T08:34:17.000Z</time>
      </trkpt>
      <trkpt lat="42.93914" lon="0.56596">
        <ele>712</ele>
        <time>2019-02-03T08:34:18.000Z</time>
      </trkpt>
      <trkpt lat="42.93914" lon="0.56596">
        <ele>712</ele>
        <time>2019-02-03T08:34:19.000Z</time>
      </trkpt>
      <trkpt lat="42.93914" lon="0.56596">
        <ele>712</ele>
        <time>2019-02-03T08:34:20.000Z</time>
      </trkpt>
      <trkpt lat="42.93914" lon="0.56596">
        <ele>712</ele>
        <time>2019-02-03T08:34:21.000Z</time>
      </trkpt>
      <trkpt lat="42.93914" lon="0.56596">
        <ele>712</ele>
        <time>2019-02-03T08:34:22.000Z</time>
      </trkpt>
      <trkpt lat="42.93914" lon="0.56596">
        <ele>712</ele>
        <time>2019-02-03T08:34:23.000Z</time>
      </trkpt>
      <trkpt lat="42.93914" lon="0.56596">
        <ele>712</ele>
        <time>2019-02-03T08:34:24.000Z</time>
      </trkpt>
      <trkpt lat="42.93914" lon="0.56597">
        <ele>712</ele>
        <time>2019-02-03T08:34:25.000Z</time>
      </trkpt>
      <trkpt lat="42.93914" lon="0.56597">
        <ele>712</ele>
        <time>2019-02-03T08:34:26.000Z</time>
      </trkpt>
      <trkpt lat="42.93914" lon="0.56597">
        <ele>712</ele>
        <time>2019-02-03T08:34:27.000Z</time>
      </trkpt>
      <trkpt lat="42.93914" lon="0.56597">
        <ele>712</ele>
        <time>2019-02-03T08:34:28.000Z</time>
      </trkpt>
      <trkpt lat="42.93914" lon="0.56597">
        <ele>712</ele>
        <time>2019-02-03T08:34:29.000Z</time>
      </trkpt>
      <trkpt lat="42.93914" lon="0.56597">
        <ele>712</ele>
        <time>2019-02-03T08:34:30.000Z</time>
      </trkpt>
      <trkpt lat="42.93914" lon="0.56597">
        <ele>712</ele>
        <time>2019-02-03T08:34:31.000Z</time>
      </trkpt>
      <trkpt lat="42.93914" lon="0.56597">
        <ele>712</ele>
        <time>2019-02-03T08:34:32.000Z</time>
      </trkpt>
      <trkpt lat="42.93914" lon="0.56597">
        <ele>712</ele>
        <time>2019-02-03T08:34:33.000Z</time>
      </trkpt>
      <trkpt lat="42.93914" lon="0.56597">
        <ele>712</ele>
        <time>2019-02-03T08:34:34.000Z</time>
      </trkpt>
      <trkpt lat="42.93914" lon="0.56597">
        <ele>712</ele>
        <time>2019-02-03T08:34:35.000Z</time>
      </trkpt>
      <trkpt lat="42.93914" lon="0.56597">
        <ele>712</ele>
        <time>2019-02-03T08:34:36.000Z</time>
      </trkpt>
      <trkpt lat="42.93914" lon="0.56597">
        <ele>712</ele>
        <time>2019-02-03T08:34:37.000Z</time>
      </trkpt>
      <trkpt lat="42.93914" lon="0.56597">
        <ele>712</ele>
        <time>2019-02-03T08:34:38.000Z</time>
      </trkpt>
      <trkpt lat="42.93913" lon="0.56597">
        <ele>712</ele>
        <time>2019-02-03T08:34:39.000Z</time>
      </trkpt>
      <trkpt lat="42.93913" lon="0.56598">
        <ele>712</ele>
        <time>2019-02-03T08:34:40.000Z</time>
      </trkpt>
      <trkpt lat="42.93913" lon="0.56599">
        <ele>712</ele>
        <time>2019-02-03T08:34:41.000Z</time>
      </trkpt>
      <trkpt lat="42.93913" lon="0.56599">
        <ele>712</ele>
        <time>2019-02-03T08:34:42.000Z</time>
      </trkpt>
      <trkpt lat="42.93912" lon="0.566">
        <ele>712.5</ele>
        <time>2019-02-03T08:34:43.000Z</time>
      </trkpt>
      <trkpt lat="42.93911" lon="0.566">
        <ele>713</ele>
        <time>2019-02-03T08:34:44.000Z</time>
      </trkpt>
      <trkpt lat="42.9391" lon="0.566">
        <ele>713</ele>
        <time>2019-02-03T08:34:45.000Z</time>
      </trkpt>
      <trkpt lat="42.93908" lon="0.566">
        <ele>713</ele>
        <time>2019-02-03T08:34:46.000Z</time>
      </trkpt>
      <trkpt lat="42.93907" lon="0.56599">
        <ele>713</ele>
        <time>2019-02-03T08:34:47.000Z</time>
      </trkpt>
      <trkpt lat="42.93905" lon="0.56599">
        <ele>713</ele>
        <time>2019-02-03T08:34:48.000Z</time>
      </trkpt>
      <trkpt lat="42.93904" lon="0.56598">
        <ele>713</ele>
        <time>2019-02-03T08:34:49.000Z</time>
      </trkpt>
      <trkpt lat="42.93903" lon="0.56598">
        <ele>713</ele>
        <time>2019-02-03T08:34:50.000Z</time>
      </trkpt>
      <trkpt lat="42.93902" lon="0.56597">
        <ele>713</ele>
        <time>2019-02-03T08:34:51.000Z</time>
      </trkpt>
      <trkpt lat="42.93902" lon="0.56597">
        <ele>713.3</ele>
        <time>2019-02-03T08:34:52.000Z</time>
      </trkpt>
      <trkpt lat="42.93901" lon="0.56597">
        <ele>713.7</ele>
        <time>2019-02-03T08:34:53.000Z</time>
      </trkpt>
      <trkpt lat="42.939" lon="0.56597">
        <ele>714</ele>
        <time>2019-02-03T08:34:54.000Z</time>
      </trkpt>
      <trkpt lat="42.93899" lon="0.56596">
        <ele>714</ele>
        <time>2019-02-03T08:34:55.000Z</time>
      </trkpt>
      <trkpt lat="42.93898" lon="0.56596">
        <ele>714</ele>
        <time>2019-02-03T08:34:56.000Z</time>
      </trkpt>
      <trkpt lat="42.93897" lon="0.56596">
        <ele>714</ele>
        <time>2019-02-03T08:34:57.000Z</time>
      </trkpt>
      <trkpt lat="42.93896" lon="0.56596">
        <ele>714</ele>
        <time>2019-02-03T08:34:58.000Z</time>
      </trkpt>
      <trkpt lat="42.93895" lon="0.56596">
        <ele>714</ele>
        <time>2019-02-03T08:34:59.000Z</time>
      </trkpt>
      <trkpt lat="42.93894" lon="0.56596">
        <ele>714.3</ele>
        <time>2019-02-03T08:35:00.000Z</time>
      </trkpt>
      <trkpt lat="42.93893" lon="0.56597">
        <ele>714.7</ele>
        <time>2019-02-03T08:35:01.000Z</time>
      </trkpt>
      <trkpt lat="42.93892" lon="0.56597">
        <ele>715</ele>
        <time>2019-02-03T08:35:02.000Z</time>
      </trkpt>
      <trkpt lat="42.93892" lon="0.56598">
        <ele>715</ele>
        <time>2019-02-03T08:35:03.000Z</time>
      </trkpt>
      <trkpt lat="42.93891" lon="0.56599">
        <ele>715</ele>
        <time>2019-02-03T08:35:04.000Z</time>
      </trkpt>
      <trkpt lat="42.93891" lon="0.56599">
        <ele>715</ele>
        <time>2019-02-03T08:35:05.000Z</time>
      </trkpt>
      <trkpt lat="42.93891" lon="0.566">
        <ele>715</ele>
        <time>2019-02-03T08:35:06.000Z</time>
      </trkpt>
      <trkpt lat="42.93891" lon="0.56601">
        <ele>715</ele>
        <time>2019-02-03T08:35:07.000Z</time>
      </trkpt>
      <trkpt lat="42.93891" lon="0.56601">
        <ele>715</ele>
        <time>2019-02-03T08:35:08.000Z</time>
      </trkpt>
      <trkpt lat="42.93891" lon="0.56602">
        <ele>715</ele>
        <time>2019-02-03T08:35:09.000Z</time>
      </trkpt>
      <trkpt lat="42.93891" lon="0.56602">
        <ele>715</ele>
        <time>2019-02-03T08:35:10.000Z</time>
      </trkpt>
      <trkpt lat="42.93891" lon="0.56602">
        <ele>715</ele>
        <time>2019-02-03T08:35:11.000Z</time>
      </trkpt>
      <trkpt lat="42.93891" lon="0.56602">
        <ele>715</ele>
        <time>2019-02-03T08:35:12.000Z</time>
      </trkpt>
      <trkpt lat="42.93891" lon="0.56603">
        <ele>715</ele>
        <time>2019-02-03T08:35:13.000Z</time>
      </trkpt>
      <trkpt lat="42.93891" lon="0.56603">
        <ele>715</ele>
        <time>2019-02-03T08:35:14.000Z</time>
      </trkpt>
      <trkpt lat="42.93891" lon="0.56603">
        <ele>715</ele>
        <time>2019-02-03T08:35:15.000Z</time>
      </trkpt>
      <trkpt lat="42.93891" lon="0.56602">
        <ele>715</ele>
        <time>2019-02-03T08:35:16.000Z</time>
      </trkpt>
      <trkpt lat="42.93891" lon="0.56602">
        <ele>715</ele>
        <time>2019-02-03T08:35:17.000Z</time>
      </trkpt>
      <trkpt lat="42.93891" lon="0.56602">
        <ele>715</ele>
        <time>2019-02-03T08:35:18.000Z</time>
      </trkpt>
      <trkpt lat="42.93891" lon="0.56602">
        <ele>715</ele>
        <time>2019-02-03T08:35:19.000Z</time>
      </trkpt>
      <trkpt lat="42.93891" lon="0.56602">
        <ele>715</ele>
        <time>2019-02-03T08:35:20.000Z</time>
      </trkpt>
      <trkpt lat="42.93891" lon="0.56602">
        <ele>715</ele>
        <time>2019-02-03T08:35:21.000Z</time>
      </trkpt>
      <trkpt lat="42.93891" lon="0.56602">
        <ele>715</ele>
        <time>2019-02-03T08:35:22.000Z</time>
      </trkpt>
      <trkpt lat="42.93891" lon="0.56602">
        <ele>715</ele>
        <time>2019-02-03T08:35:23.000Z</time>
      </trkpt>
      <trkpt lat="42.93891" lon="0.56602">
        <ele>715</ele>
        <time>2019-02-03T08:35:24.000Z</time>
      </trkpt>
      <trkpt lat="42.93891" lon="0.56602">
        <ele>715</ele>
        <time>2019-02-03T08:35:25.000Z</time>
      </trkpt>
      <trkpt lat="42.93891" lon="0.56602">
        <ele>715</ele>
        <time>2019-02-03T08:35:26.000Z</time>
      </trkpt>
      <trkpt lat="42.93891" lon="0.56602">
        <ele>715</ele>
        <time>2019-02-03T08:35:27.000Z</time>
      </trkpt>
      <trkpt lat="42.93891" lon="0.56602">
        <ele>715</ele>
        <time>2019-02-03T08:35:28.000Z</time>
      </trkpt>
      <trkpt lat="42.93891" lon="0.56602">
        <ele>715</ele>
        <time>2019-02-03T08:35:29.000Z</time>
      </trkpt>
      <trkpt lat="42.93891" lon="0.56602">
        <ele>715</ele>
        <time>2019-02-03T08:35:30.000Z</time>
      </trkpt>
      <trkpt lat="42.93891" lon="0.56602">
        <ele>715</ele>
        <time>2019-02-03T08:35:31.000Z</time>
      </trkpt>
      <trkpt lat="42.93891" lon="0.56602">
        <ele>715</ele>
        <time>2019-02-03T08:35:32.000Z</time>
      </trkpt>
      <trkpt lat="42.93891" lon="0.56602">
        <ele>715</ele>
        <time>2019-02-03T08:35:33.000Z</time>
      </trkpt>
      <trkpt lat="42.93891" lon="0.56602">
        <ele>715</ele>
        <time>2019-02-03T08:35:34.000Z</time>
      </trkpt>
      <trkpt lat="42.93891" lon="0.56602">
        <ele>715</ele>
        <time>2019-02-03T08:35:35.000Z</time>
      </trkpt>
      <trkpt lat="42.93891" lon="0.56603">
        <ele>715</ele>
        <time>2019-02-03T08:35:36.000Z</time>
      </trkpt>
      <trkpt lat="42.93891" lon="0.56603">
        <ele>715</ele>
        <time>2019-02-03T08:35:37.000Z</time>
      </trkpt>
      <trkpt lat="42.93891" lon="0.56603">
        <ele>715</ele>
        <time>2019-02-03T08:35:38.000Z</time>
      </trkpt>
      <trkpt lat="42.93892" lon="0.56603">
        <ele>715</ele>
        <time>2019-02-03T08:35:39.000Z</time>
      </trkpt>
      <trkpt lat="42.93892" lon="0.56603">
        <ele>715</ele>
        <time>2019-02-03T08:35:40.000Z</time>
      </trkpt>
      <trkpt lat="42.93892" lon="0.56603">
        <ele>715</ele>
        <time>2019-02-03T08:35:41.000Z</time>
      </trkpt>
      <trkpt lat="42.93892" lon="0.56603">
        <ele>715</ele>
        <time>2019-02-03T08:35:42.000Z</time>
      </trkpt>
      <trkpt lat="42.93892" lon="0.56603">
        <ele>715</ele>
        <time>2019-02-03T08:35:43.000Z</time>
      </trkpt>
      <trkpt lat="42.93892" lon="0.56603">
        <ele>715</ele>
        <time>2019-02-03T08:35:44.000Z</time>
      </trkpt>
      <trkpt lat="42.93892" lon="0.56603">
        <ele>715</ele>
        <time>2019-02-03T08:35:45.000Z</time>
      </trkpt>
      <trkpt lat="42.93892" lon="0.56603">
        <ele>715</ele>
        <time>2019-02-03T08:35:46.000Z</time>
      </trkpt>
      <trkpt lat="42.93892" lon="0.56603">
        <ele>715</ele>
        <time>2019-02-03T08:35:47.000Z</time>
      </trkpt>
      <trkpt lat="42.93892" lon="0.56603">
        <ele>715</ele>
        <time>2019-02-03T08:35:48.000Z</time>
      </trkpt>
      <trkpt lat="42.93892" lon="0.56603">
        <ele>715</ele>
        <time>2019-02-03T08:35:49.000Z</time>
      </trkpt>
      <trkpt lat="42.93892" lon="0.56603">
        <ele>715</ele>
        <time>2019-02-03T08:35:50.000Z</time>
      </trkpt>
      <trkpt lat="42.93892" lon="0.56603">
        <ele>715</ele>
        <time>2019-02-03T08:35:51.000Z</time>
      </trkpt>
      <trkpt lat="42.93892" lon="0.56603">
        <ele>715</ele>
        <time>2019-02-03T08:35:52.000Z</time>
      </trkpt>
      <trkpt lat="42.93892" lon="0.56603">
        <ele>715</ele>
        <time>2019-02-03T08:35:53.000Z</time>
      </trkpt>
      <trkpt lat="42.93892" lon="0.56603">
        <ele>715</ele>
        <time>2019-02-03T08:35:54.000Z</time>
      </trkpt>
      <trkpt lat="42.93892" lon="0.56603">
        <ele>715</ele>
        <time>2019-02-03T08:35:55.000Z</time>
      </trkpt>
      <trkpt lat="42.93891" lon="0.56603">
        <ele>715</ele>
        <time>2019-02-03T08:35:56.000Z</time>
      </trkpt>
      <trkpt lat="42.93891" lon="0.56603">
        <ele>715</ele>
        <time>2019-02-03T08:35:57.000Z</time>
      </trkpt>
      <trkpt lat="42.9389" lon="0.56603">
        <ele>715</ele>
        <time>2019-02-03T08:35:58.000Z</time>
      </trkpt>
      <trkpt lat="42.93889" lon="0.56602">
        <ele>715</ele>
        <time>2019-02-03T08:35:59.000Z</time>
      </trkpt>
      <trkpt lat="42.93888" lon="0.56602">
        <ele>715</ele>
        <time>2019-02-03T08:36:00.000Z</time>
      </trkpt>
      <trkpt lat="42.93887" lon="0.56602">
        <ele>715</ele>
        <time>2019-02-03T08:36:01.000Z</time>
      </trkpt>
      <trkpt lat="42.93885" lon="0.56602">
        <ele>715</ele>
        <time>2019-02-03T08:36:02.000Z</time>
      </trkpt>
      <trkpt lat="42.93884" lon="0.56601">
        <ele>715</ele>
        <time>2019-02-03T08:36:03.000Z</time>
      </trkpt>
      <trkpt lat="42.93883" lon="0.56601">
        <ele>715</ele>
        <time>2019-02-03T08:36:04.000Z</time>
      </trkpt>
      <trkpt lat="42.93882" lon="0.566">
        <ele>715</ele>
        <time>2019-02-03T08:36:05.000Z</time>
      </trkpt>
      <trkpt lat="42.93882" lon="0.566">
        <ele>715.3</ele>
        <time>2019-02-03T08:36:06.000Z</time>
      </trkpt>
      <trkpt lat="42.93881" lon="0.56599">
        <ele>715.7</ele>
        <time>2019-02-03T08:36:07.000Z</time>
      </trkpt>
      <trkpt lat="42.9388" lon="0.56599">
        <ele>716</ele>
        <time>2019-02-03T08:36:08.000Z</time>
      </trkpt>
      <trkpt lat="42.93879" lon="0.56599">
        <ele>716</ele>
        <time>2019-02-03T08:36:09.000Z</time>
      </trkpt>
      <trkpt lat="42.93879" lon="0.56598">
        <ele>716</ele>
        <time>2019-02-03T08:36:10.000Z</time>
      </trkpt>
      <trkpt lat="42.93878" lon="0.56598">
        <ele>716</ele>
        <time>2019-02-03T08:36:11.000Z</time>
      </trkpt>
      <trkpt lat="42.93877" lon="0.56597">
        <ele>716</ele>
        <time>2019-02-03T08:36:12.000Z</time>
      </trkpt>
      <trkpt lat="42.93876" lon="0.56597">
        <ele>716</ele>
        <time>2019-02-03T08:36:13.000Z</time>
      </trkpt>
      <trkpt lat="42.93876" lon="0.56596">
        <ele>716.5</ele>
        <time>2019-02-03T08:36:14.000Z</time>
      </trkpt>
      <trkpt lat="42.93875" lon="0.56595">
        <ele>717</ele>
        <time>2019-02-03T08:36:15.000Z</time>
      </trkpt>
      <trkpt lat="42.93874" lon="0.56595">
        <ele>717</ele>
        <time>2019-02-03T08:36:16.000Z</time>
      </trkpt>
      <trkpt lat="42.93874" lon="0.56594">
        <ele>717</ele>
        <time>2019-02-03T08:36:17.000Z</time>
      </trkpt>
      <trkpt lat="42.93873" lon="0.56594">
        <ele>717</ele>
        <time>2019-02-03T08:36:18.000Z</time>
      </trkpt>
      <trkpt lat="42.93872" lon="0.56593">
        <ele>717</ele>
        <time>2019-02-03T08:36:19.000Z</time>
      </trkpt>
      <trkpt lat="42.93871" lon="0.56592">
        <ele>717.5</ele>
        <time>2019-02-03T08:36:20.000Z</time>
      </trkpt>
      <trkpt lat="42.9387" lon="0.56592">
        <ele>718</ele>
        <time>2019-02-03T08:36:21.000Z</time>
      </trkpt>
      <trkpt lat="42.93869" lon="0.56591">
        <ele>718</ele>
        <time>2019-02-03T08:36:22.000Z</time>
      </trkpt>
      <trkpt lat="42.93868" lon="0.56591">
        <ele>718</ele>
        <time>2019-02-03T08:36:23.000Z</time>
      </trkpt>
      <trkpt lat="42.93868" lon="0.5659">
        <ele>718</ele>
        <time>2019-02-03T08:36:24.000Z</time>
      </trkpt>
      <trkpt lat="42.93867" lon="0.5659">
        <ele>718</ele>
        <time>2019-02-03T08:36:25.000Z</time>
      </trkpt>
      <trkpt lat="42.93866" lon="0.56589">
        <ele>718.5</ele>
        <time>2019-02-03T08:36:26.000Z</time>
      </trkpt>
      <trkpt lat="42.93866" lon="0.56589">
        <ele>719</ele>
        <time>2019-02-03T08:36:27.000Z</time>
      </trkpt>
      <trkpt lat="42.93865" lon="0.56588">
        <ele>719</ele>
        <time>2019-02-03T08:36:28.000Z</time>
      </trkpt>
      <trkpt lat="42.93864" lon="0.56588">
        <ele>719</ele>
        <time>2019-02-03T08:36:29.000Z</time>
      </trkpt>
      <trkpt lat="42.93864" lon="0.56587">
        <ele>719</ele>
        <time>2019-02-03T08:36:30.000Z</time>
      </trkpt>
      <trkpt lat="42.93863" lon="0.56586">
        <ele>719</ele>
        <time>2019-02-03T08:36:31.000Z</time>
      </trkpt>
      <trkpt lat="42.93863" lon="0.56586">
        <ele>719</ele>
        <time>2019-02-03T08:36:32.000Z</time>
      </trkpt>
      <trkpt lat="42.93862" lon="0.56585">
        <ele>719</ele>
        <time>2019-02-03T08:36:33.000Z</time>
      </trkpt>
      <trkpt lat="42.93862" lon="0.56585">
        <ele>719</ele>
        <time>2019-02-03T08:36:34.000Z</time>
      </trkpt>
      <trkpt lat="42.93861" lon="0.56584">
        <ele>719</ele>
        <time>2019-02-03T08:36:35.000Z</time>
      </trkpt>
      <trkpt lat="42.93861" lon="0.56583">
        <ele>719</ele>
        <time>2019-02-03T08:36:36.000Z</time>
      </trkpt>
      <trkpt lat="42.93861" lon="0.56583">
        <ele>719</ele>
        <time>2019-02-03T08:36:37.000Z</time>
      </trkpt>
      <trkpt lat="42.9386" lon="0.56582">
        <ele>719.3</ele>
        <time>2019-02-03T08:36:38.000Z</time>
      </trkpt>
      <trkpt lat="42.9386" lon="0.56582">
        <ele>719.7</ele>
        <time>2019-02-03T08:36:39.000Z</time>
      </trkpt>
      <trkpt lat="42.93859" lon="0.56581">
        <ele>720</ele>
        <time>2019-02-03T08:36:40.000Z</time>
      </trkpt>
      <trkpt lat="42.93859" lon="0.5658">
        <ele>720</ele>
        <time>2019-02-03T08:36:41.000Z</time>
      </trkpt>
      <trkpt lat="42.93858" lon="0.56579">
        <ele>720</ele>
        <time>2019-02-03T08:36:42.000Z</time>
      </trkpt>
      <trkpt lat="42.93858" lon="0.56579">
        <ele>720</ele>
        <time>2019-02-03T08:36:43.000Z</time>
      </trkpt>
      <trkpt lat="42.93857" lon="0.56578">
        <ele>720</ele>
        <time>2019-02-03T08:36:44.000Z</time>
      </trkpt>
      <trkpt lat="42.93857" lon="0.56577">
        <ele>720</ele>
        <time>2019-02-03T08:36:45.000Z</time>
      </trkpt>
      <trkpt lat="42.93856" lon="0.56577">
        <ele>720</ele>
        <time>2019-02-03T08:36:46.000Z</time>
      </trkpt>
      <trkpt lat="42.93856" lon="0.56576">
        <ele>720</ele>
        <time>2019-02-03T08:36:47.000Z</time>
      </trkpt>
      <trkpt lat="42.93855" lon="0.56576">
        <ele>720</ele>
        <time>2019-02-03T08:36:48.000Z</time>
      </trkpt>
      <trkpt lat="42.93855" lon="0.56575">
        <ele>720</ele>
        <time>2019-02-03T08:36:49.000Z</time>
      </trkpt>
      <trkpt lat="42.93855" lon="0.56575">
        <ele>720</ele>
        <time>2019-02-03T08:36:50.000Z</time>
      </trkpt>
      <trkpt lat="42.93855" lon="0.56575">
        <ele>720</ele>
        <time>2019-02-03T08:36:51.000Z</time>
      </trkpt>
      <trkpt lat="42.93855" lon="0.56575">
        <ele>720</ele>
        <time>2019-02-03T08:36:52.000Z</time>
      </trkpt>
      <trkpt lat="42.93855" lon="0.56575">
        <ele>720</ele>
        <time>2019-02-03T08:36:53.000Z</time>
      </trkpt>
      <trkpt lat="42.93854" lon="0.56574">
        <ele>720</ele>
        <time>2019-02-03T08:36:54.000Z</time>
      </trkpt>
      <trkpt lat="42.93854" lon="0.56574">
        <ele>720</ele>
        <time>2019-02-03T08:36:55.000Z</time>
      </trkpt>
      <trkpt lat="42.93854" lon="0.56573">
        <ele>720</ele>
        <time>2019-02-03T08:36:56.000Z</time>
      </trkpt>
      <trkpt lat="42.93853" lon="0.56573">
        <ele>720</ele>
        <time>2019-02-03T08:36:57.000Z</time>
      </trkpt>
      <trkpt lat="42.93853" lon="0.56572">
        <ele>720</ele>
        <time>2019-02-03T08:36:58.000Z</time>
      </trkpt>
      <trkpt lat="42.93852" lon="0.56571">
        <ele>720</ele>
        <time>2019-02-03T08:36:59.000Z</time>
      </trkpt>
      <trkpt lat="42.93852" lon="0.5657">
        <ele>720</ele>
        <time>2019-02-03T08:37:00.000Z</time>
      </trkpt>
      <trkpt lat="42.93851" lon="0.5657">
        <ele>720.5</ele>
        <time>2019-02-03T08:37:01.000Z</time>
      </trkpt>
      <trkpt lat="42.93851" lon="0.5657">
        <ele>721</ele>
        <time>2019-02-03T08:37:02.000Z</time>
      </trkpt>
      <trkpt lat="42.93851" lon="0.5657">
        <ele>721</ele>
        <time>2019-02-03T08:37:03.000Z</time>
      </trkpt>
      <trkpt lat="42.9385" lon="0.56569">
        <ele>721</ele>
        <time>2019-02-03T08:37:04.000Z</time>
      </trkpt>
      <trkpt lat="42.93849" lon="0.56569">
        <ele>721</ele>
        <time>2019-02-03T08:37:05.000Z</time>
      </trkpt>
      <trkpt lat="42.93848" lon="0.56568">
        <ele>721</ele>
        <time>2019-02-03T08:37:06.000Z</time>
      </trkpt>
      <trkpt lat="42.93847" lon="0.56567">
        <ele>721</ele>
        <time>2019-02-03T08:37:07.000Z</time>
      </trkpt>
      <trkpt lat="42.93846" lon="0.56566">
        <ele>721</ele>
        <time>2019-02-03T08:37:08.000Z</time>
      </trkpt>
      <trkpt lat="42.93845" lon="0.56565">
        <ele>721</ele>
        <time>2019-02-03T08:37:09.000Z</time>
      </trkpt>
      <trkpt lat="42.93844" lon="0.56564">
        <ele>721</ele>
        <time>2019-02-03T08:37:10.000Z</time>
      </trkpt>
      <trkpt lat="42.93843" lon="0.56564">
        <ele>721</ele>
        <time>2019-02-03T08:37:11.000Z</time>
      </trkpt>
      <trkpt lat="42.93843" lon="0.56563">
        <ele>721</ele>
        <time>2019-02-03T08:37:12.000Z</time>
      </trkpt>
      <trkpt lat="42.93843" lon="0.56562">
        <ele>721</ele>
        <time>2019-02-03T08:37:13.000Z</time>
      </trkpt>
      <trkpt lat="42.93843" lon="0.56562">
        <ele>721</ele>
        <time>2019-02-03T08:37:14.000Z</time>
      </trkpt>
      <trkpt lat="42.93842" lon="0.56562">
        <ele>721</ele>
        <time>2019-02-03T08:37:15.000Z</time>
      </trkpt>
      <trkpt lat="42.93842" lon="0.56561">
        <ele>721.5</ele>
        <time>2019-02-03T08:37:16.000Z</time>
      </trkpt>
      <trkpt lat="42.93842" lon="0.56561">
        <ele>722</ele>
        <time>2019-02-03T08:37:17.000Z</time>
      </trkpt>
      <trkpt lat="42.93841" lon="0.5656">
        <ele>722</ele>
        <time>2019-02-03T08:37:18.000Z</time>
      </trkpt>
      <trkpt lat="42.93841" lon="0.5656">
        <ele>722</ele>
        <time>2019-02-03T08:37:19.000Z</time>
      </trkpt>
      <trkpt lat="42.9384" lon="0.5656">
        <ele>722</ele>
        <time>2019-02-03T08:37:20.000Z</time>
      </trkpt>
      <trkpt lat="42.9384" lon="0.56559">
        <ele>722</ele>
        <time>2019-02-03T08:37:21.000Z</time>
      </trkpt>
      <trkpt lat="42.93839" lon="0.56559">
        <ele>722</ele>
        <time>2019-02-03T08:37:22.000Z</time>
      </trkpt>
      <trkpt lat="42.93839" lon="0.56559">
        <ele>722</ele>
        <time>2019-02-03T08:37:23.000Z</time>
      </trkpt>
      <trkpt lat="42.93839" lon="0.56558">
        <ele>722</ele>
        <time>2019-02-03T08:37:24.000Z</time>
      </trkpt>
      <trkpt lat="42.93838" lon="0.56558">
        <ele>722</ele>
        <time>2019-02-03T08:37:25.000Z</time>
      </trkpt>
      <trkpt lat="42.93838" lon="0.56558">
        <ele>722</ele>
        <time>2019-02-03T08:37:26.000Z</time>
      </trkpt>
      <trkpt lat="42.93837" lon="0.56558">
        <ele>722</ele>
        <time>2019-02-03T08:37:27.000Z</time>
      </trkpt>
      <trkpt lat="42.93837" lon="0.56557">
        <ele>722.5</ele>
        <time>2019-02-03T08:37:28.000Z</time>
      </trkpt>
      <trkpt lat="42.93836" lon="0.56557">
        <ele>723</ele>
        <time>2019-02-03T08:37:29.000Z</time>
      </trkpt>
      <trkpt lat="42.93836" lon="0.56557">
        <ele>723</ele>
        <time>2019-02-03T08:37:30.000Z</time>
      </trkpt>
      <trkpt lat="42.93835" lon="0.56556">
        <ele>723</ele>
        <time>2019-02-03T08:37:31.000Z</time>
      </trkpt>
      <trkpt lat="42.93834" lon="0.56556">
        <ele>723</ele>
        <time>2019-02-03T08:37:32.000Z</time>
      </trkpt>
      <trkpt lat="42.93834" lon="0.56556">
        <ele>723</ele>
        <time>2019-02-03T08:37:33.000Z</time>
      </trkpt>
      <trkpt lat="42.93833" lon="0.56555">
        <ele>723</ele>
        <time>2019-02-03T08:37:34.000Z</time>
      </trkpt>
      <trkpt lat="42.93833" lon="0.56555">
        <ele>723</ele>
        <time>2019-02-03T08:37:35.000Z</time>
      </trkpt>
      <trkpt lat="42.93832" lon="0.56554">
        <ele>723</ele>
        <time>2019-02-03T08:37:36.000Z</time>
      </trkpt>
      <trkpt lat="42.93831" lon="0.56554">
        <ele>723</ele>
        <time>2019-02-03T08:37:37.000Z</time>
      </trkpt>
      <trkpt lat="42.93831" lon="0.56554">
        <ele>723</ele>
        <time>2019-02-03T08:37:38.000Z</time>
      </trkpt>
      <trkpt lat="42.9383" lon="0.56553">
        <ele>723</ele>
        <time>2019-02-03T08:37:39.000Z</time>
      </trkpt>
      <trkpt lat="42.9383" lon="0.56553">
        <ele>723</ele>
        <time>2019-02-03T08:37:40.000Z</time>
      </trkpt>
      <trkpt lat="42.93829" lon="0.56553">
        <ele>723</ele>
        <time>2019-02-03T08:37:41.000Z</time>
      </trkpt>
      <trkpt lat="42.93828" lon="0.56552">
        <ele>723</ele>
        <time>2019-02-03T08:37:42.000Z</time>
      </trkpt>
      <trkpt lat="42.93828" lon="0.56552">
        <ele>723</ele>
        <time>2019-02-03T08:37:43.000Z</time>
      </trkpt>
      <trkpt lat="42.93827" lon="0.56552">
        <ele>723</ele>
        <time>2019-02-03T08:37:44.000Z</time>
      </trkpt>
      <trkpt lat="42.93827" lon="0.56552">
        <ele>724</ele>
        <time>2019-02-03T08:37:45.000Z</time>
      </trkpt>
      <trkpt lat="42.93826" lon="0.56552">
        <ele>724</ele>
        <time>2019-02-03T08:37:46.000Z</time>
      </trkpt>
      <trkpt lat="42.93826" lon="0.56552">
        <ele>724</ele>
        <time>2019-02-03T08:37:47.000Z</time>
      </trkpt>
      <trkpt lat="42.93825" lon="0.56552">
        <ele>724</ele>
        <time>2019-02-03T08:37:48.000Z</time>
      </trkpt>
      <trkpt lat="42.93824" lon="0.56552">
        <ele>724</ele>
        <time>2019-02-03T08:37:49.000Z</time>
      </trkpt>
      <trkpt lat="42.93824" lon="0.56553">
        <ele>724</ele>
        <time>2019-02-03T08:37:50.000Z</time>
      </trkpt>
      <trkpt lat="42.93823" lon="0.56553">
        <ele>724</ele>
        <time>2019-02-03T08:37:51.000Z</time>
      </trkpt>
      <trkpt lat="42.93823" lon="0.56553">
        <ele>724</ele>
        <time>2019-02-03T08:37:52.000Z</time>
      </trkpt>
      <trkpt lat="42.93822" lon="0.56553">
        <ele>724</ele>
        <time>2019-02-03T08:37:53.000Z</time>
      </trkpt>
      <trkpt lat="42.93822" lon="0.56554">
        <ele>724</ele>
        <time>2019-02-03T08:37:54.000Z</time>
      </trkpt>
      <trkpt lat="42.93821" lon="0.56554">
        <ele>724</ele>
        <time>2019-02-03T08:37:55.000Z</time>
      </trkpt>
      <trkpt lat="42.93821" lon="0.56554">
        <ele>724</ele>
        <time>2019-02-03T08:37:56.000Z</time>
      </trkpt>
      <trkpt lat="42.9382" lon="0.56554">
        <ele>725</ele>
        <time>2019-02-03T08:37:57.000Z</time>
      </trkpt>
      <trkpt lat="42.9382" lon="0.56555">
        <ele>725</ele>
        <time>2019-02-03T08:37:58.000Z</time>
      </trkpt>
      <trkpt lat="42.93819" lon="0.56555">
        <ele>725</ele>
        <time>2019-02-03T08:37:59.000Z</time>
      </trkpt>
      <trkpt lat="42.93819" lon="0.56555">
        <ele>725</ele>
        <time>2019-02-03T08:38:00.000Z</time>
      </trkpt>
      <trkpt lat="42.93818" lon="0.56555">
        <ele>725</ele>
        <time>2019-02-03T08:38:01.000Z</time>
      </trkpt>
      <trkpt lat="42.93818" lon="0.56556">
        <ele>725</ele>
        <time>2019-02-03T08:38:02.000Z</time>
      </trkpt>
      <trkpt lat="42.93817" lon="0.56556">
        <ele>725</ele>
        <time>2019-02-03T08:38:03.000Z</time>
      </trkpt>
      <trkpt lat="42.93817" lon="0.56557">
        <ele>725</ele>
        <time>2019-02-03T08:38:04.000Z</time>
      </trkpt>
      <trkpt lat="42.93816" lon="0.56558">
        <ele>725</ele>
        <time>2019-02-03T08:38:05.000Z</time>
      </trkpt>
      <trkpt lat="42.93815" lon="0.56559">
        <ele>725.3</ele>
        <time>2019-02-03T08:38:06.000Z</time>
      </trkpt>
      <trkpt lat="42.93814" lon="0.5656">
        <ele>725.7</ele>
        <time>2019-02-03T08:38:07.000Z</time>
      </trkpt>
      <trkpt lat="42.93814" lon="0.56561">
        <ele>726</ele>
        <time>2019-02-03T08:38:08.000Z</time>
      </trkpt>
      <trkpt lat="42.93813" lon="0.56562">
        <ele>726</ele>
        <time>2019-02-03T08:38:09.000Z</time>
      </trkpt>
      <trkpt lat="42.93812" lon="0.56563">
        <ele>726</ele>
        <time>2019-02-03T08:38:10.000Z</time>
      </trkpt>
      <trkpt lat="42.93811" lon="0.56564">
        <ele>726</ele>
        <time>2019-02-03T08:38:11.000Z</time>
      </trkpt>
      <trkpt lat="42.9381" lon="0.56566">
        <ele>726</ele>
        <time>2019-02-03T08:38:12.000Z</time>
      </trkpt>
      <trkpt lat="42.9381" lon="0.56566">
        <ele>726</ele>
        <time>2019-02-03T08:38:13.000Z</time>
      </trkpt>
      <trkpt lat="42.93809" lon="0.56567">
        <ele>726</ele>
        <time>2019-02-03T08:38:14.000Z</time>
      </trkpt>
      <trkpt lat="42.93808" lon="0.56568">
        <ele>726</ele>
        <time>2019-02-03T08:38:15.000Z</time>
      </trkpt>
      <trkpt lat="42.93808" lon="0.56569">
        <ele>726</ele>
        <time>2019-02-03T08:38:16.000Z</time>
      </trkpt>
      <trkpt lat="42.93807" lon="0.5657">
        <ele>726</ele>
        <time>2019-02-03T08:38:17.000Z</time>
      </trkpt>
      <trkpt lat="42.93806" lon="0.56571">
        <ele>726</ele>
        <time>2019-02-03T08:38:18.000Z</time>
      </trkpt>
      <trkpt lat="42.93806" lon="0.56572">
        <ele>726</ele>
        <time>2019-02-03T08:38:19.000Z</time>
      </trkpt>
      <trkpt lat="42.93805" lon="0.56573">
        <ele>726</ele>
        <time>2019-02-03T08:38:20.000Z</time>
      </trkpt>
      <trkpt lat="42.93805" lon="0.56574">
        <ele>726</ele>
        <time>2019-02-03T08:38:21.000Z</time>
      </trkpt>
      <trkpt lat="42.93804" lon="0.56575">
        <ele>726.3</ele>
        <time>2019-02-03T08:38:22.000Z</time>
      </trkpt>
      <trkpt lat="42.93804" lon="0.56576">
        <ele>726.7</ele>
        <time>2019-02-03T08:38:23.000Z</time>
      </trkpt>
      <trkpt lat="42.93804" lon="0.56577">
        <ele>727</ele>
        <time>2019-02-03T08:38:24.000Z</time>
      </trkpt>
      <trkpt lat="42.93803" lon="0.56579">
        <ele>727</ele>
        <time>2019-02-03T08:38:25.000Z</time>
      </trkpt>
      <trkpt lat="42.93803" lon="0.5658">
        <ele>727</ele>
        <time>2019-02-03T08:38:26.000Z</time>
      </trkpt>
      <trkpt lat="42.93803" lon="0.56582">
        <ele>727</ele>
        <time>2019-02-03T08:38:27.000Z</time>
      </trkpt>
      <trkpt lat="42.93803" lon="0.56583">
        <ele>727</ele>
        <time>2019-02-03T08:38:28.000Z</time>
      </trkpt>
      <trkpt lat="42.93803" lon="0.56584">
        <ele>727</ele>
        <time>2019-02-03T08:38:29.000Z</time>
      </trkpt>
      <trkpt lat="42.93803" lon="0.56586">
        <ele>727</ele>
        <time>2019-02-03T08:38:30.000Z</time>
      </trkpt>
      <trkpt lat="42.93802" lon="0.56588">
        <ele>727</ele>
        <time>2019-02-03T08:38:31.000Z</time>
      </trkpt>
      <trkpt lat="42.93802" lon="0.56589">
        <ele>727</ele>
        <time>2019-02-03T08:38:32.000Z</time>
      </trkpt>
      <trkpt lat="42.93802" lon="0.56591">
        <ele>727</ele>
        <time>2019-02-03T08:38:33.000Z</time>
      </trkpt>
      <trkpt lat="42.93802" lon="0.56592">
        <ele>727</ele>
        <time>2019-02-03T08:38:34.000Z</time>
      </trkpt>
      <trkpt lat="42.93802" lon="0.56594">
        <ele>727</ele>
        <time>2019-02-03T08:38:35.000Z</time>
      </trkpt>
      <trkpt lat="42.93802" lon="0.56595">
        <ele>727</ele>
        <time>2019-02-03T08:38:36.000Z</time>
      </trkpt>
      <trkpt lat="42.93801" lon="0.56596">
        <ele>727</ele>
        <time>2019-02-03T08:38:37.000Z</time>
      </trkpt>
      <trkpt lat="42.93801" lon="0.56598">
        <ele>727</ele>
        <time>2019-02-03T08:38:38.000Z</time>
      </trkpt>
      <trkpt lat="42.93801" lon="0.56599">
        <ele>727</ele>
        <time>2019-02-03T08:38:39.000Z</time>
      </trkpt>
      <trkpt lat="42.93801" lon="0.566">
        <ele>727</ele>
        <time>2019-02-03T08:38:40.000Z</time>
      </trkpt>
      <trkpt lat="42.938" lon="0.56602">
        <ele>727</ele>
        <time>2019-02-03T08:38:41.000Z</time>
      </trkpt>
      <trkpt lat="42.938" lon="0.56603">
        <ele>727</ele>
        <time>2019-02-03T08:38:42.000Z</time>
      </trkpt>
      <trkpt lat="42.938" lon="0.56604">
        <ele>727</ele>
        <time>2019-02-03T08:38:43.000Z</time>
      </trkpt>
      <trkpt lat="42.938" lon="0.56605">
        <ele>727</ele>
        <time>2019-02-03T08:38:44.000Z</time>
      </trkpt>
      <trkpt lat="42.938" lon="0.56606">
        <ele>727</ele>
        <time>2019-02-03T08:38:45.000Z</time>
      </trkpt>
      <trkpt lat="42.938" lon="0.56608">
        <ele>727</ele>
        <time>2019-02-03T08:38:46.000Z</time>
      </trkpt>
      <trkpt lat="42.938" lon="0.56609">
        <ele>727.5</ele>
        <time>2019-02-03T08:38:47.000Z</time>
      </trkpt>
      <trkpt lat="42.938" lon="0.5661">
        <ele>728</ele>
        <time>2019-02-03T08:38:48.000Z</time>
      </trkpt>
      <trkpt lat="42.938" lon="0.56611">
        <ele>728</ele>
        <time>2019-02-03T08:38:49.000Z</time>
      </trkpt>
      <trkpt lat="42.938" lon="0.56612">
        <ele>728</ele>
        <time>2019-02-03T08:38:50.000Z</time>
      </trkpt>
      <trkpt lat="42.938" lon="0.56614">
        <ele>728</ele>
        <time>2019-02-03T08:38:51.000Z</time>
      </trkpt>
      <trkpt lat="42.938" lon="0.56615">
        <ele>728</ele>
        <time>2019-02-03T08:38:52.000Z</time>
      </trkpt>
      <trkpt lat="42.938" lon="0.56616">
        <ele>728</ele>
        <time>2019-02-03T08:38:53.000Z</time>
      </trkpt>
      <trkpt lat="42.938" lon="0.56617">
        <ele>728</ele>
        <time>2019-02-03T08:38:54.000Z</time>
      </trkpt>
      <trkpt lat="42.938" lon="0.56618">
        <ele>728</ele>
        <time>2019-02-03T08:38:55.000Z</time>
      </trkpt>
      <trkpt lat="42.938" lon="0.5662">
        <ele>728</ele>
        <time>2019-02-03T08:38:56.000Z</time>
      </trkpt>
      <trkpt lat="42.938" lon="0.56621">
        <ele>728</ele>
        <time>2019-02-03T08:38:57.000Z</time>
      </trkpt>
      <trkpt lat="42.938" lon="0.56622">
        <ele>728</ele>
        <time>2019-02-03T08:38:58.000Z</time>
      </trkpt>
      <trkpt lat="42.938" lon="0.56623">
        <ele>728</ele>
        <time>2019-02-03T08:38:59.000Z</time>
      </trkpt>
      <trkpt lat="42.938" lon="0.56624">
        <ele>728</ele>
        <time>2019-02-03T08:39:00.000Z</time>
      </trkpt>
      <trkpt lat="42.938" lon="0.56625">
        <ele>728</ele>
        <time>2019-02-03T08:39:01.000Z</time>
      </trkpt>
      <trkpt lat="42.938" lon="0.56625">
        <ele>728</ele>
        <time>2019-02-03T08:39:02.000Z</time>
      </trkpt>
      <trkpt lat="42.93801" lon="0.56626">
        <ele>728</ele>
        <time>2019-02-03T08:39:03.000Z</time>
      </trkpt>
      <trkpt lat="42.93801" lon="0.56626">
        <ele>728</ele>
        <time>2019-02-03T08:39:04.000Z</time>
      </trkpt>
      <trkpt lat="42.93801" lon="0.56626">
        <ele>728</ele>
        <time>2019-02-03T08:39:05.000Z</time>
      </trkpt>
      <trkpt lat="42.93801" lon="0.56627">
        <ele>728</ele>
        <time>2019-02-03T08:39:06.000Z</time>
      </trkpt>
      <trkpt lat="42.93802" lon="0.56627">
        <ele>728</ele>
        <time>2019-02-03T08:39:07.000Z</time>
      </trkpt>
      <trkpt lat="42.93802" lon="0.56628">
        <ele>728</ele>
        <time>2019-02-03T08:39:08.000Z</time>
      </trkpt>
      <trkpt lat="42.93802" lon="0.56629">
        <ele>728</ele>
        <time>2019-02-03T08:39:09.000Z</time>
      </trkpt>
      <trkpt lat="42.93803" lon="0.5663">
        <ele>728</ele>
        <time>2019-02-03T08:39:10.000Z</time>
      </trkpt>
      <trkpt lat="42.93803" lon="0.56632">
        <ele>728</ele>
        <time>2019-02-03T08:39:11.000Z</time>
      </trkpt>
      <trkpt lat="42.93803" lon="0.56633">
        <ele>728</ele>
        <time>2019-02-03T08:39:12.000Z</time>
      </trkpt>
      <trkpt lat="42.93803" lon="0.56634">
        <ele>728</ele>
        <time>2019-02-03T08:39:13.000Z</time>
      </trkpt>
      <trkpt lat="42.93803" lon="0.56635">
        <ele>728</ele>
        <time>2019-02-03T08:39:14.000Z</time>
      </trkpt>
      <trkpt lat="42.93803" lon="0.56637">
        <ele>728</ele>
        <time>2019-02-03T08:39:15.000Z</time>
      </trkpt>
      <trkpt lat="42.93803" lon="0.56638">
        <ele>728</ele>
        <time>2019-02-03T08:39:16.000Z</time>
      </trkpt>
      <trkpt lat="42.93803" lon="0.56639">
        <ele>728</ele>
        <time>2019-02-03T08:39:17.000Z</time>
      </trkpt>
      <trkpt lat="42.93803" lon="0.5664">
        <ele>728.3</ele>
        <time>2019-02-03T08:39:18.000Z</time>
      </trkpt>
      <trkpt lat="42.93803" lon="0.56641">
        <ele>728.7</ele>
        <time>2019-02-03T08:39:19.000Z</time>
      </trkpt>
      <trkpt lat="42.93803" lon="0.56643">
        <ele>729</ele>
        <time>2019-02-03T08:39:20.000Z</time>
      </trkpt>
      <trkpt lat="42.93802" lon="0.56644">
        <ele>729</ele>
        <time>2019-02-03T08:39:21.000Z</time>
      </trkpt>
      <trkpt lat="42.93802" lon="0.56645">
        <ele>729</ele>
        <time>2019-02-03T08:39:22.000Z</time>
      </trkpt>
      <trkpt lat="42.93802" lon="0.56646">
        <ele>729</ele>
        <time>2019-02-03T08:39:23.000Z</time>
      </trkpt>
      <trkpt lat="42.93802" lon="0.56647">
        <ele>729</ele>
        <time>2019-02-03T08:39:24.000Z</time>
      </trkpt>
      <trkpt lat="42.93802" lon="0.56649">
        <ele>729</ele>
        <time>2019-02-03T08:39:25.000Z</time>
      </trkpt>
      <trkpt lat="42.93802" lon="0.5665">
        <ele>729</ele>
        <time>2019-02-03T08:39:26.000Z</time>
      </trkpt>
      <trkpt lat="42.93802" lon="0.56651">
        <ele>729</ele>
        <time>2019-02-03T08:39:27.000Z</time>
      </trkpt>
      <trkpt lat="42.93803" lon="0.56653">
        <ele>729</ele>
        <time>2019-02-03T08:39:28.000Z</time>
      </trkpt>
      <trkpt lat="42.93803" lon="0.56654">
        <ele>729</ele>
        <time>2019-02-03T08:39:29.000Z</time>
      </trkpt>
      <trkpt lat="42.93803" lon="0.56655">
        <ele>729.3</ele>
        <time>2019-02-03T08:39:30.000Z</time>
      </trkpt>
      <trkpt lat="42.93803" lon="0.56657">
        <ele>729.7</ele>
        <time>2019-02-03T08:39:31.000Z</time>
      </trkpt>
      <trkpt lat="42.93803" lon="0.56658">
        <ele>730</ele>
        <time>2019-02-03T08:39:32.000Z</time>
      </trkpt>
      <trkpt lat="42.93804" lon="0.56659">
        <ele>730</ele>
        <time>2019-02-03T08:39:33.000Z</time>
      </trkpt>
      <trkpt lat="42.93804" lon="0.56661">
        <ele>730</ele>
        <time>2019-02-03T08:39:34.000Z</time>
      </trkpt>
      <trkpt lat="42.93804" lon="0.56662">
        <ele>730</ele>
        <time>2019-02-03T08:39:35.000Z</time>
      </trkpt>
      <trkpt lat="42.93804" lon="0.56663">
        <ele>730</ele>
        <time>2019-02-03T08:39:36.000Z</time>
      </trkpt>
      <trkpt lat="42.93805" lon="0.56665">
        <ele>730</ele>
        <time>2019-02-03T08:39:37.000Z</time>
      </trkpt>
      <trkpt lat="42.93805" lon="0.56666">
        <ele>730</ele>
        <time>2019-02-03T08:39:38.000Z</time>
      </trkpt>
      <trkpt lat="42.93805" lon="0.56667">
        <ele>730</ele>
        <time>2019-02-03T08:39:39.000Z</time>
      </trkpt>
      <trkpt lat="42.93805" lon="0.56668">
        <ele>730</ele>
        <time>2019-02-03T08:39:40.000Z</time>
      </trkpt>
      <trkpt lat="42.93805" lon="0.56669">
        <ele>731</ele>
        <time>2019-02-03T08:39:41.000Z</time>
      </trkpt>
      <trkpt lat="42.93806" lon="0.56671">
        <ele>731</ele>
        <time>2019-02-03T08:39:42.000Z</time>
      </trkpt>
      <trkpt lat="42.93806" lon="0.56672">
        <ele>731</ele>
        <time>2019-02-03T08:39:43.000Z</time>
      </trkpt>
      <trkpt lat="42.93806" lon="0.56673">
        <ele>731</ele>
        <time>2019-02-03T08:39:44.000Z</time>
      </trkpt>
      <trkpt lat="42.93806" lon="0.56674">
        <ele>731</ele>
        <time>2019-02-03T08:39:45.000Z</time>
      </trkpt>
      <trkpt lat="42.93806" lon="0.56675">
        <ele>731</ele>
        <time>2019-02-03T08:39:46.000Z</time>
      </trkpt>
      <trkpt lat="42.93806" lon="0.56676">
        <ele>731</ele>
        <time>2019-02-03T08:39:47.000Z</time>
      </trkpt>
      <trkpt lat="42.93806" lon="0.56677">
        <ele>731</ele>
        <time>2019-02-03T08:39:48.000Z</time>
      </trkpt>
      <trkpt lat="42.93807" lon="0.56678">
        <ele>731</ele>
        <time>2019-02-03T08:39:49.000Z</time>
      </trkpt>
      <trkpt lat="42.93807" lon="0.5668">
        <ele>731.3</ele>
        <time>2019-02-03T08:39:50.000Z</time>
      </trkpt>
      <trkpt lat="42.93807" lon="0.56681">
        <ele>731.7</ele>
        <time>2019-02-03T08:39:51.000Z</time>
      </trkpt>
      <trkpt lat="42.93807" lon="0.56682">
        <ele>732</ele>
        <time>2019-02-03T08:39:52.000Z</time>
      </trkpt>
      <trkpt lat="42.93808" lon="0.56683">
        <ele>732</ele>
        <time>2019-02-03T08:39:53.000Z</time>
      </trkpt>
      <trkpt lat="42.93808" lon="0.56684">
        <ele>732</ele>
        <time>2019-02-03T08:39:54.000Z</time>
      </trkpt>
      <trkpt lat="42.93808" lon="0.56685">
        <ele>732</ele>
        <time>2019-02-03T08:39:55.000Z</time>
      </trkpt>
      <trkpt lat="42.93808" lon="0.56687">
        <ele>732</ele>
        <time>2019-02-03T08:39:56.000Z</time>
      </trkpt>
      <trkpt lat="42.93808" lon="0.56688">
        <ele>732</ele>
        <time>2019-02-03T08:39:57.000Z</time>
      </trkpt>
      <trkpt lat="42.93809" lon="0.56689">
        <ele>732</ele>
        <time>2019-02-03T08:39:58.000Z</time>
      </trkpt>
      <trkpt lat="42.93809" lon="0.5669">
        <ele>732</ele>
        <time>2019-02-03T08:39:59.000Z</time>
      </trkpt>
      <trkpt lat="42.93809" lon="0.56691">
        <ele>732</ele>
        <time>2019-02-03T08:40:00.000Z</time>
      </trkpt>
      <trkpt lat="42.93809" lon="0.56692">
        <ele>733</ele>
        <time>2019-02-03T08:40:01.000Z</time>
      </trkpt>
      <trkpt lat="42.9381" lon="0.56693">
        <ele>733</ele>
        <time>2019-02-03T08:40:02.000Z</time>
      </trkpt>
      <trkpt lat="42.9381" lon="0.56694">
        <ele>733</ele>
        <time>2019-02-03T08:40:03.000Z</time>
      </trkpt>
      <trkpt lat="42.9381" lon="0.56695">
        <ele>733</ele>
        <time>2019-02-03T08:40:04.000Z</time>
      </trkpt>
      <trkpt lat="42.93811" lon="0.56697">
        <ele>733</ele>
        <time>2019-02-03T08:40:05.000Z</time>
      </trkpt>
      <trkpt lat="42.93812" lon="0.56698">
        <ele>733</ele>
        <time>2019-02-03T08:40:06.000Z</time>
      </trkpt>
      <trkpt lat="42.93812" lon="0.56699">
        <ele>733</ele>
        <time>2019-02-03T08:40:07.000Z</time>
      </trkpt>
      <trkpt lat="42.93813" lon="0.567">
        <ele>733</ele>
        <time>2019-02-03T08:40:08.000Z</time>
      </trkpt>
      <trkpt lat="42.93813" lon="0.56701">
        <ele>733</ele>
        <time>2019-02-03T08:40:09.000Z</time>
      </trkpt>
      <trkpt lat="42.93814" lon="0.56702">
        <ele>733.3</ele>
        <time>2019-02-03T08:40:10.000Z</time>
      </trkpt>
      <trkpt lat="42.93815" lon="0.56703">
        <ele>733.7</ele>
        <time>2019-02-03T08:40:11.000Z</time>
      </trkpt>
      <trkpt lat="42.93815" lon="0.56704">
        <ele>734</ele>
        <time>2019-02-03T08:40:12.000Z</time>
      </trkpt>
      <trkpt lat="42.93816" lon="0.56705">
        <ele>734</ele>
        <time>2019-02-03T08:40:13.000Z</time>
      </trkpt>
      <trkpt lat="42.93817" lon="0.56706">
        <ele>734</ele>
        <time>2019-02-03T08:40:14.000Z</time>
      </trkpt>
      <trkpt lat="42.93817" lon="0.56707">
        <ele>734</ele>
        <time>2019-02-03T08:40:15.000Z</time>
      </trkpt>
      <trkpt lat="42.93818" lon="0.56708">
        <ele>734</ele>
        <time>2019-02-03T08:40:16.000Z</time>
      </trkpt>
      <trkpt lat="42.93819" lon="0.5671">
        <ele>734</ele>
        <time>2019-02-03T08:40:17.000Z</time>
      </trkpt>
      <trkpt lat="42.93819" lon="0.56711">
        <ele>734</ele>
        <time>2019-02-03T08:40:18.000Z</time>
      </trkpt>
      <trkpt lat="42.9382" lon="0.56712">
        <ele>734</ele>
        <time>2019-02-03T08:40:19.000Z</time>
      </trkpt>
      <trkpt lat="42.9382" lon="0.56713">
        <ele>734</ele>
        <time>2019-02-03T08:40:20.000Z</time>
      </trkpt>
      <trkpt lat="42.93821" lon="0.56714">
        <ele>734</ele>
        <time>2019-02-03T08:40:21.000Z</time>
      </trkpt>
      <trkpt lat="42.93821" lon="0.56715">
        <ele>734</ele>
        <time>2019-02-03T08:40:22.000Z</time>
      </trkpt>
      <trkpt lat="42.93821" lon="0.56716">
        <ele>734</ele>
        <time>2019-02-03T08:40:23.000Z</time>
      </trkpt>
      <trkpt lat="42.93822" lon="0.56717">
        <ele>734.3</ele>
        <time>2019-02-03T08:40:24.000Z</time>
      </trkpt>
      <trkpt lat="42.93822" lon="0.56718">
        <ele>734.7</ele>
        <time>2019-02-03T08:40:25.000Z</time>
      </trkpt>
      <trkpt lat="42.93823" lon="0.56719">
        <ele>735</ele>
        <time>2019-02-03T08:40:26.000Z</time>
      </trkpt>
      <trkpt lat="42.93823" lon="0.5672">
        <ele>735</ele>
        <time>2019-02-03T08:40:27.000Z</time>
      </trkpt>
      <trkpt lat="42.93823" lon="0.56721">
        <ele>735</ele>
        <time>2019-02-03T08:40:28.000Z</time>
      </trkpt>
      <trkpt lat="42.93824" lon="0.56722">
        <ele>735</ele>
        <time>2019-02-03T08:40:29.000Z</time>
      </trkpt>
      <trkpt lat="42.93824" lon="0.56723">
        <ele>735</ele>
        <time>2019-02-03T08:40:30.000Z</time>
      </trkpt>
      <trkpt lat="42.93824" lon="0.56724">
        <ele>735</ele>
        <time>2019-02-03T08:40:31.000Z</time>
      </trkpt>
      <trkpt lat="42.93825" lon="0.56725">
        <ele>735</ele>
        <time>2019-02-03T08:40:32.000Z</time>
      </trkpt>
      <trkpt lat="42.93825" lon="0.56726">
        <ele>735</ele>
        <time>2019-02-03T08:40:33.000Z</time>
      </trkpt>
      <trkpt lat="42.93825" lon="0.56727">
        <ele>735</ele>
        <time>2019-02-03T08:40:34.000Z</time>
      </trkpt>
      <trkpt lat="42.93826" lon="0.56728">
        <ele>735</ele>
        <time>2019-02-03T08:40:35.000Z</time>
      </trkpt>
      <trkpt lat="42.93826" lon="0.56729">
        <ele>735</ele>
        <time>2019-02-03T08:40:36.000Z</time>
      </trkpt>
      <trkpt lat="42.93827" lon="0.5673">
        <ele>735</ele>
        <time>2019-02-03T08:40:37.000Z</time>
      </trkpt>
      <trkpt lat="42.93827" lon="0.56731">
        <ele>735</ele>
        <time>2019-02-03T08:40:38.000Z</time>
      </trkpt>
      <trkpt lat="42.93828" lon="0.56732">
        <ele>736</ele>
        <time>2019-02-03T08:40:39.000Z</time>
      </trkpt>
      <trkpt lat="42.93829" lon="0.56734">
        <ele>736</ele>
        <time>2019-02-03T08:40:40.000Z</time>
      </trkpt>
      <trkpt lat="42.93829" lon="0.56735">
        <ele>736</ele>
        <time>2019-02-03T08:40:41.000Z</time>
      </trkpt>
      <trkpt lat="42.9383" lon="0.56736">
        <ele>736</ele>
        <time>2019-02-03T08:40:42.000Z</time>
      </trkpt>
      <trkpt lat="42.93831" lon="0.56737">
        <ele>736</ele>
        <time>2019-02-03T08:40:43.000Z</time>
      </trkpt>
      <trkpt lat="42.93832" lon="0.56738">
        <ele>736</ele>
        <time>2019-02-03T08:40:44.000Z</time>
      </trkpt>
      <trkpt lat="42.93833" lon="0.56739">
        <ele>736</ele>
        <time>2019-02-03T08:40:45.000Z</time>
      </trkpt>
      <trkpt lat="42.93834" lon="0.5674">
        <ele>736</ele>
        <time>2019-02-03T08:40:46.000Z</time>
      </trkpt>
      <trkpt lat="42.93835" lon="0.56742">
        <ele>736</ele>
        <time>2019-02-03T08:40:47.000Z</time>
      </trkpt>
      <trkpt lat="42.93835" lon="0.56743">
        <ele>736</ele>
        <time>2019-02-03T08:40:48.000Z</time>
      </trkpt>
      <trkpt lat="42.93836" lon="0.56744">
        <ele>736</ele>
        <time>2019-02-03T08:40:49.000Z</time>
      </trkpt>
      <trkpt lat="42.93837" lon="0.56745">
        <ele>736</ele>
        <time>2019-02-03T08:40:50.000Z</time>
      </trkpt>
      <trkpt lat="42.93838" lon="0.56746">
        <ele>736</ele>
        <time>2019-02-03T08:40:51.000Z</time>
      </trkpt>
      <trkpt lat="42.93839" lon="0.56747">
        <ele>736</ele>
        <time>2019-02-03T08:40:52.000Z</time>
      </trkpt>
      <trkpt lat="42.93839" lon="0.56748">
        <ele>736</ele>
        <time>2019-02-03T08:40:53.000Z</time>
      </trkpt>
      <trkpt lat="42.9384" lon="0.56748">
        <ele>736</ele>
        <time>2019-02-03T08:40:54.000Z</time>
      </trkpt>
      <trkpt lat="42.93841" lon="0.56749">
        <ele>736</ele>
        <time>2019-02-03T08:40:55.000Z</time>
      </trkpt>
      <trkpt lat="42.93842" lon="0.5675">
        <ele>736</ele>
        <time>2019-02-03T08:40:56.000Z</time>
      </trkpt>
      <trkpt lat="42.93843" lon="0.56751">
        <ele>736</ele>
        <time>2019-02-03T08:40:57.000Z</time>
      </trkpt>
      <trkpt lat="42.93844" lon="0.56752">
        <ele>736</ele>
        <time>2019-02-03T08:40:58.000Z</time>
      </trkpt>
      <trkpt lat="42.93845" lon="0.56753">
        <ele>737</ele>
        <time>2019-02-03T08:40:59.000Z</time>
      </trkpt>
      <trkpt lat="42.93846" lon="0.56754">
        <ele>737</ele>
        <time>2019-02-03T08:41:00.000Z</time>
      </trkpt>
      <trkpt lat="42.93847" lon="0.56755">
        <ele>737</ele>
        <time>2019-02-03T08:41:01.000Z</time>
      </trkpt>
      <trkpt lat="42.93848" lon="0.56757">
        <ele>737</ele>
        <time>2019-02-03T08:41:02.000Z</time>
      </trkpt>
      <trkpt lat="42.9385" lon="0.56758">
        <ele>737</ele>
        <time>2019-02-03T08:41:03.000Z</time>
      </trkpt>
      <trkpt lat="42.93851" lon="0.56759">
        <ele>737</ele>
        <time>2019-02-03T08:41:04.000Z</time>
      </trkpt>
      <trkpt lat="42.93852" lon="0.5676">
        <ele>737</ele>
        <time>2019-02-03T08:41:05.000Z</time>
      </trkpt>
      <trkpt lat="42.93852" lon="0.56761">
        <ele>737</ele>
        <time>2019-02-03T08:41:06.000Z</time>
      </trkpt>
      <trkpt lat="42.93853" lon="0.56762">
        <ele>737</ele>
        <time>2019-02-03T08:41:07.000Z</time>
      </trkpt>
      <trkpt lat="42.93854" lon="0.56763">
        <ele>737</ele>
        <time>2019-02-03T08:41:08.000Z</time>
      </trkpt>
      <trkpt lat="42.93854" lon="0.56764">
        <ele>737</ele>
        <time>2019-02-03T08:41:09.000Z</time>
      </trkpt>
      <trkpt lat="42.93855" lon="0.56765">
        <ele>737</ele>
        <time>2019-02-03T08:41:10.000Z</time>
      </trkpt>
      <trkpt lat="42.93855" lon="0.56766">
        <ele>737</ele>
        <time>2019-02-03T08:41:11.000Z</time>
      </trkpt>
      <trkpt lat="42.93855" lon="0.56767">
        <ele>737</ele>
        <time>2019-02-03T08:41:12.000Z</time>
      </trkpt>
      <trkpt lat="42.93855" lon="0.56768">
        <ele>737.5</ele>
        <time>2019-02-03T08:41:13.000Z</time>
      </trkpt>
      <trkpt lat="42.93856" lon="0.56769">
        <ele>738</ele>
        <time>2019-02-03T08:41:14.000Z</time>
      </trkpt>
      <trkpt lat="42.93856" lon="0.5677">
        <ele>738</ele>
        <time>2019-02-03T08:41:15.000Z</time>
      </trkpt>
      <trkpt lat="42.93856" lon="0.56771">
        <ele>738</ele>
        <time>2019-02-03T08:41:16.000Z</time>
      </trkpt>
      <trkpt lat="42.93856" lon="0.56772">
        <ele>738</ele>
        <time>2019-02-03T08:41:17.000Z</time>
      </trkpt>
      <trkpt lat="42.93856" lon="0.56774">
        <ele>738</ele>
        <time>2019-02-03T08:41:18.000Z</time>
      </trkpt>
      <trkpt lat="42.93856" lon="0.56775">
        <ele>738</ele>
        <time>2019-02-03T08:41:19.000Z</time>
      </trkpt>
      <trkpt lat="42.93857" lon="0.56776">
        <ele>738</ele>
        <time>2019-02-03T08:41:20.000Z</time>
      </trkpt>
      <trkpt lat="42.93858" lon="0.56777">
        <ele>738</ele>
        <time>2019-02-03T08:41:21.000Z</time>
      </trkpt>
      <trkpt lat="42.93859" lon="0.56778">
        <ele>739</ele>
        <time>2019-02-03T08:41:22.000Z</time>
      </trkpt>
      <trkpt lat="42.9386" lon="0.56779">
        <ele>739</ele>
        <time>2019-02-03T08:41:23.000Z</time>
      </trkpt>
      <trkpt lat="42.9386" lon="0.5678">
        <ele>739</ele>
        <time>2019-02-03T08:41:24.000Z</time>
      </trkpt>
      <trkpt lat="42.93861" lon="0.56781">
        <ele>739</ele>
        <time>2019-02-03T08:41:25.000Z</time>
      </trkpt>
      <trkpt lat="42.93861" lon="0.56782">
        <ele>739</ele>
        <time>2019-02-03T08:41:26.000Z</time>
      </trkpt>
      <trkpt lat="42.93862" lon="0.56783">
        <ele>739</ele>
        <time>2019-02-03T08:41:27.000Z</time>
      </trkpt>
      <trkpt lat="42.93862" lon="0.56784">
        <ele>739</ele>
        <time>2019-02-03T08:41:28.000Z</time>
      </trkpt>
      <trkpt lat="42.93862" lon="0.56785">
        <ele>739</ele>
        <time>2019-02-03T08:41:29.000Z</time>
      </trkpt>
      <trkpt lat="42.93862" lon="0.56786">
        <ele>739</ele>
        <time>2019-02-03T08:41:30.000Z</time>
      </trkpt>
      <trkpt lat="42.93863" lon="0.56787">
        <ele>739</ele>
        <time>2019-02-03T08:41:31.000Z</time>
      </trkpt>
      <trkpt lat="42.93863" lon="0.56788">
        <ele>740</ele>
        <time>2019-02-03T08:41:32.000Z</time>
      </trkpt>
      <trkpt lat="42.93864" lon="0.56789">
        <ele>740</ele>
        <time>2019-02-03T08:41:33.000Z</time>
      </trkpt>
      <trkpt lat="42.93864" lon="0.5679">
        <ele>740</ele>
        <time>2019-02-03T08:41:34.000Z</time>
      </trkpt>
      <trkpt lat="42.93865" lon="0.56791">
        <ele>740</ele>
        <time>2019-02-03T08:41:35.000Z</time>
      </trkpt>
      <trkpt lat="42.93865" lon="0.56792">
        <ele>740</ele>
        <time>2019-02-03T08:41:36.000Z</time>
      </trkpt>
      <trkpt lat="42.93865" lon="0.56793">
        <ele>740</ele>
        <time>2019-02-03T08:41:37.000Z</time>
      </trkpt>
      <trkpt lat="42.93866" lon="0.56794">
        <ele>740</ele>
        <time>2019-02-03T08:41:38.000Z</time>
      </trkpt>
      <trkpt lat="42.93866" lon="0.56795">
        <ele>740</ele>
        <time>2019-02-03T08:41:39.000Z</time>
      </trkpt>
      <trkpt lat="42.93867" lon="0.56796">
        <ele>741</ele>
        <time>2019-02-03T08:41:40.000Z</time>
      </trkpt>
      <trkpt lat="42.93867" lon="0.56797">
        <ele>741</ele>
        <time>2019-02-03T08:41:41.000Z</time>
      </trkpt>
      <trkpt lat="42.93868" lon="0.56798">
        <ele>741</ele>
        <time>2019-02-03T08:41:42.000Z</time>
      </trkpt>
      <trkpt lat="42.93868" lon="0.56798">
        <ele>741</ele>
        <time>2019-02-03T08:41:43.000Z</time>
      </trkpt>
      <trkpt lat="42.93868" lon="0.56799">
        <ele>741</ele>
        <time>2019-02-03T08:41:44.000Z</time>
      </trkpt>
      <trkpt lat="42.93869" lon="0.568">
        <ele>741</ele>
        <time>2019-02-03T08:41:45.000Z</time>
      </trkpt>
      <trkpt lat="42.93869" lon="0.56801">
        <ele>741</ele>
        <time>2019-02-03T08:41:46.000Z</time>
      </trkpt>
      <trkpt lat="42.93869" lon="0.56802">
        <ele>741</ele>
        <time>2019-02-03T08:41:47.000Z</time>
      </trkpt>
      <trkpt lat="42.9387" lon="0.56803">
        <ele>741</ele>
        <time>2019-02-03T08:41:48.000Z</time>
      </trkpt>
      <trkpt lat="42.9387" lon="0.56804">
        <ele>741</ele>
        <time>2019-02-03T08:41:49.000Z</time>
      </trkpt>
      <trkpt lat="42.93871" lon="0.56805">
        <ele>741</ele>
        <time>2019-02-03T08:41:50.000Z</time>
      </trkpt>
      <trkpt lat="42.93871" lon="0.56806">
        <ele>741</ele>
        <time>2019-02-03T08:41:51.000Z</time>
      </trkpt>
      <trkpt lat="42.93872" lon="0.56807">
        <ele>741</ele>
        <time>2019-02-03T08:41:52.000Z</time>
      </trkpt>
      <trkpt lat="42.93872" lon="0.56808">
        <ele>741.3</ele>
        <time>2019-02-03T08:41:53.000Z</time>
      </trkpt>
      <trkpt lat="42.93873" lon="0.56809">
        <ele>741.7</ele>
        <time>2019-02-03T08:41:54.000Z</time>
      </trkpt>
      <trkpt lat="42.93873" lon="0.56809">
        <ele>742</ele>
        <time>2019-02-03T08:41:55.000Z</time>
      </trkpt>
      <trkpt lat="42.93873" lon="0.5681">
        <ele>742</ele>
        <time>2019-02-03T08:41:56.000Z</time>
      </trkpt>
      <trkpt lat="42.93873" lon="0.56811">
        <ele>742</ele>
        <time>2019-02-03T08:41:57.000Z</time>
      </trkpt>
      <trkpt lat="42.93873" lon="0.56811">
        <ele>742</ele>
        <time>2019-02-03T08:41:58.000Z</time>
      </trkpt>
      <trkpt lat="42.93873" lon="0.56812">
        <ele>742.5</ele>
        <time>2019-02-03T08:41:59.000Z</time>
      </trkpt>
      <trkpt lat="42.93873" lon="0.56813">
        <ele>743</ele>
        <time>2019-02-03T08:42:00.000Z</time>
      </trkpt>
      <trkpt lat="42.93873" lon="0.56813">
        <ele>743</ele>
        <time>2019-02-03T08:42:01.000Z</time>
      </trkpt>
      <trkpt lat="42.93874" lon="0.56814">
        <ele>743</ele>
        <time>2019-02-03T08:42:02.000Z</time>
      </trkpt>
      <trkpt lat="42.93874" lon="0.56815">
        <ele>743</ele>
        <time>2019-02-03T08:42:03.000Z</time>
      </trkpt>
      <trkpt lat="42.93874" lon="0.56815">
        <ele>743</ele>
        <time>2019-02-03T08:42:04.000Z</time>
      </trkpt>
      <trkpt lat="42.93874" lon="0.56816">
        <ele>743.5</ele>
        <time>2019-02-03T08:42:05.000Z</time>
      </trkpt>
      <trkpt lat="42.93874" lon="0.56817">
        <ele>744</ele>
        <time>2019-02-03T08:42:06.000Z</time>
      </trkpt>
      <trkpt lat="42.93875" lon="0.56818">
        <ele>744</ele>
        <time>2019-02-03T08:42:07.000Z</time>
      </trkpt>
      <trkpt lat="42.93875" lon="0.56819">
        <ele>744</ele>
        <time>2019-02-03T08:42:08.000Z</time>
      </trkpt>
      <trkpt lat="42.93876" lon="0.5682">
        <ele>744</ele>
        <time>2019-02-03T08:42:09.000Z</time>
      </trkpt>
      <trkpt lat="42.93877" lon="0.56821">
        <ele>744</ele>
        <time>2019-02-03T08:42:10.000Z</time>
      </trkpt>
      <trkpt lat="42.93877" lon="0.56822">
        <ele>744</ele>
        <time>2019-02-03T08:42:11.000Z</time>
      </trkpt>
      <trkpt lat="42.93878" lon="0.56823">
        <ele>744</ele>
        <time>2019-02-03T08:42:12.000Z</time>
      </trkpt>
      <trkpt lat="42.93879" lon="0.56824">
        <ele>744</ele>
        <time>2019-02-03T08:42:13.000Z</time>
      </trkpt>
      <trkpt lat="42.93879" lon="0.56825">
        <ele>744.5</ele>
        <time>2019-02-03T08:42:14.000Z</time>
      </trkpt>
      <trkpt lat="42.9388" lon="0.56826">
        <ele>745</ele>
        <time>2019-02-03T08:42:15.000Z</time>
      </trkpt>
      <trkpt lat="42.9388" lon="0.56827">
        <ele>745</ele>
        <time>2019-02-03T08:42:16.000Z</time>
      </trkpt>
      <trkpt lat="42.9388" lon="0.56828">
        <ele>745</ele>
        <time>2019-02-03T08:42:17.000Z</time>
      </trkpt>
      <trkpt lat="42.93881" lon="0.56829">
        <ele>745</ele>
        <time>2019-02-03T08:42:18.000Z</time>
      </trkpt>
      <trkpt lat="42.93881" lon="0.5683">
        <ele>745</ele>
        <time>2019-02-03T08:42:19.000Z</time>
      </trkpt>
      <trkpt lat="42.93881" lon="0.56831">
        <ele>745</ele>
        <time>2019-02-03T08:42:20.000Z</time>
      </trkpt>
      <trkpt lat="42.93881" lon="0.56832">
        <ele>745</ele>
        <time>2019-02-03T08:42:21.000Z</time>
      </trkpt>
      <trkpt lat="42.93881" lon="0.56833">
        <ele>745</ele>
        <time>2019-02-03T08:42:22.000Z</time>
      </trkpt>
      <trkpt lat="42.93881" lon="0.56835">
        <ele>745.5</ele>
        <time>2019-02-03T08:42:23.000Z</time>
      </trkpt>
      <trkpt lat="42.93882" lon="0.56836">
        <ele>746</ele>
        <time>2019-02-03T08:42:24.000Z</time>
      </trkpt>
      <trkpt lat="42.93882" lon="0.56837">
        <ele>746</ele>
        <time>2019-02-03T08:42:25.000Z</time>
      </trkpt>
      <trkpt lat="42.93882" lon="0.56838">
        <ele>746</ele>
        <time>2019-02-03T08:42:26.000Z</time>
      </trkpt>
      <trkpt lat="42.93882" lon="0.5684">
        <ele>746</ele>
        <time>2019-02-03T08:42:27.000Z</time>
      </trkpt>
      <trkpt lat="42.93882" lon="0.56841">
        <ele>746</ele>
        <time>2019-02-03T08:42:28.000Z</time>
      </trkpt>
      <trkpt lat="42.93882" lon="0.56843">
        <ele>746</ele>
        <time>2019-02-03T08:42:29.000Z</time>
      </trkpt>
      <trkpt lat="42.93883" lon="0.56844">
        <ele>746</ele>
        <time>2019-02-03T08:42:30.000Z</time>
      </trkpt>
      <trkpt lat="42.93883" lon="0.56846">
        <ele>746</ele>
        <time>2019-02-03T08:42:31.000Z</time>
      </trkpt>
      <trkpt lat="42.93883" lon="0.56847">
        <ele>746</ele>
        <time>2019-02-03T08:42:32.000Z</time>
      </trkpt>
      <trkpt lat="42.93884" lon="0.56848">
        <ele>746</ele>
        <time>2019-02-03T08:42:33.000Z</time>
      </trkpt>
      <trkpt lat="42.93884" lon="0.5685">
        <ele>746</ele>
        <time>2019-02-03T08:42:34.000Z</time>
      </trkpt>
      <trkpt lat="42.93884" lon="0.56851">
        <ele>746</ele>
        <time>2019-02-03T08:42:35.000Z</time>
      </trkpt>
      <trkpt lat="42.93885" lon="0.56852">
        <ele>747</ele>
        <time>2019-02-03T08:42:36.000Z</time>
      </trkpt>
      <trkpt lat="42.93885" lon="0.56853">
        <ele>747</ele>
        <time>2019-02-03T08:42:37.000Z</time>
      </trkpt>
      <trkpt lat="42.93886" lon="0.56854">
        <ele>747</ele>
        <time>2019-02-03T08:42:38.000Z</time>
      </trkpt>
      <trkpt lat="42.93886" lon="0.56856">
        <ele>747</ele>
        <time>2019-02-03T08:42:39.000Z</time>
      </trkpt>
      <trkpt lat="42.93887" lon="0.56857">
        <ele>747</ele>
        <time>2019-02-03T08:42:40.000Z</time>
      </trkpt>
      <trkpt lat="42.93887" lon="0.56858">
        <ele>747</ele>
        <time>2019-02-03T08:42:41.000Z</time>
      </trkpt>
      <trkpt lat="42.93888" lon="0.56859">
        <ele>747</ele>
        <time>2019-02-03T08:42:42.000Z</time>
      </trkpt>
      <trkpt lat="42.93888" lon="0.5686">
        <ele>747</ele>
        <time>2019-02-03T08:42:43.000Z</time>
      </trkpt>
      <trkpt lat="42.93889" lon="0.56861">
        <ele>747</ele>
        <time>2019-02-03T08:42:44.000Z</time>
      </trkpt>
      <trkpt lat="42.93889" lon="0.56862">
        <ele>747.5</ele>
        <time>2019-02-03T08:42:45.000Z</time>
      </trkpt>
      <trkpt lat="42.93889" lon="0.56864">
        <ele>748</ele>
        <time>2019-02-03T08:42:46.000Z</time>
      </trkpt>
      <trkpt lat="42.9389" lon="0.56865">
        <ele>748</ele>
        <time>2019-02-03T08:42:47.000Z</time>
      </trkpt>
      <trkpt lat="42.9389" lon="0.56866">
        <ele>748</ele>
        <time>2019-02-03T08:42:48.000Z</time>
      </trkpt>
      <trkpt lat="42.9389" lon="0.56867">
        <ele>748</ele>
        <time>2019-02-03T08:42:49.000Z</time>
      </trkpt>
      <trkpt lat="42.93891" lon="0.56868">
        <ele>748</ele>
        <time>2019-02-03T08:42:50.000Z</time>
      </trkpt>
      <trkpt lat="42.93891" lon="0.5687">
        <ele>748</ele>
        <time>2019-02-03T08:42:51.000Z</time>
      </trkpt>
      <trkpt lat="42.93891" lon="0.56871">
        <ele>748</ele>
        <time>2019-02-03T08:42:52.000Z</time>
      </trkpt>
      <trkpt lat="42.93891" lon="0.56872">
        <ele>748</ele>
        <time>2019-02-03T08:42:53.000Z</time>
      </trkpt>
      <trkpt lat="42.93891" lon="0.56873">
        <ele>748</ele>
        <time>2019-02-03T08:42:54.000Z</time>
      </trkpt>
      <trkpt lat="42.93892" lon="0.56874">
        <ele>748.5</ele>
        <time>2019-02-03T08:42:55.000Z</time>
      </trkpt>
      <trkpt lat="42.93892" lon="0.56875">
        <ele>749</ele>
        <time>2019-02-03T08:42:56.000Z</time>
      </trkpt>
      <trkpt lat="42.93892" lon="0.56876">
        <ele>749</ele>
        <time>2019-02-03T08:42:57.000Z</time>
      </trkpt>
      <trkpt lat="42.93893" lon="0.56877">
        <ele>749</ele>
        <time>2019-02-03T08:42:58.000Z</time>
      </trkpt>
      <trkpt lat="42.93893" lon="0.56878">
        <ele>749</ele>
        <time>2019-02-03T08:42:59.000Z</time>
      </trkpt>
      <trkpt lat="42.93893" lon="0.56879">
        <ele>749</ele>
        <time>2019-02-03T08:43:00.000Z</time>
      </trkpt>
      <trkpt lat="42.93894" lon="0.5688">
        <ele>749</ele>
        <time>2019-02-03T08:43:01.000Z</time>
      </trkpt>
      <trkpt lat="42.93894" lon="0.56881">
        <ele>749</ele>
        <time>2019-02-03T08:43:02.000Z</time>
      </trkpt>
      <trkpt lat="42.93894" lon="0.56882">
        <ele>749.3</ele>
        <time>2019-02-03T08:43:03.000Z</time>
      </trkpt>
      <trkpt lat="42.93895" lon="0.56883">
        <ele>749.7</ele>
        <time>2019-02-03T08:43:04.000Z</time>
      </trkpt>
      <trkpt lat="42.93895" lon="0.56884">
        <ele>750</ele>
        <time>2019-02-03T08:43:05.000Z</time>
      </trkpt>
      <trkpt lat="42.93896" lon="0.56885">
        <ele>750</ele>
        <time>2019-02-03T08:43:06.000Z</time>
      </trkpt>
      <trkpt lat="42.93896" lon="0.56886">
        <ele>750</ele>
        <time>2019-02-03T08:43:07.000Z</time>
      </trkpt>
      <trkpt lat="42.93897" lon="0.56888">
        <ele>750</ele>
        <time>2019-02-03T08:43:08.000Z</time>
      </trkpt>
      <trkpt lat="42.93897" lon="0.56889">
        <ele>750</ele>
        <time>2019-02-03T08:43:09.000Z</time>
      </trkpt>
      <trkpt lat="42.93897" lon="0.5689">
        <ele>750</ele>
        <time>2019-02-03T08:43:10.000Z</time>
      </trkpt>
      <trkpt lat="42.93898" lon="0.56891">
        <ele>750</ele>
        <time>2019-02-03T08:43:11.000Z</time>
      </trkpt>
      <trkpt lat="42.93898" lon="0.56892">
        <ele>750</ele>
        <time>2019-02-03T08:43:12.000Z</time>
      </trkpt>
      <trkpt lat="42.93898" lon="0.56893">
        <ele>750.3</ele>
        <time>2019-02-03T08:43:13.000Z</time>
      </trkpt>
      <trkpt lat="42.93898" lon="0.56895">
        <ele>750.7</ele>
        <time>2019-02-03T08:43:14.000Z</time>
      </trkpt>
      <trkpt lat="42.93899" lon="0.56896">
        <ele>751</ele>
        <time>2019-02-03T08:43:15.000Z</time>
      </trkpt>
      <trkpt lat="42.93899" lon="0.56897">
        <ele>751</ele>
        <time>2019-02-03T08:43:16.000Z</time>
      </trkpt>
      <trkpt lat="42.93899" lon="0.56898">
        <ele>751</ele>
        <time>2019-02-03T08:43:17.000Z</time>
      </trkpt>
      <trkpt lat="42.93899" lon="0.56899">
        <ele>751</ele>
        <time>2019-02-03T08:43:18.000Z</time>
      </trkpt>
      <trkpt lat="42.939" lon="0.569">
        <ele>751</ele>
        <time>2019-02-03T08:43:19.000Z</time>
      </trkpt>
      <trkpt lat="42.939" lon="0.56901">
        <ele>751</ele>
        <time>2019-02-03T08:43:20.000Z</time>
      </trkpt>
      <trkpt lat="42.939" lon="0.56902">
        <ele>751</ele>
        <time>2019-02-03T08:43:21.000Z</time>
      </trkpt>
      <trkpt lat="42.939" lon="0.56903">
        <ele>752</ele>
        <time>2019-02-03T08:43:22.000Z</time>
      </trkpt>
      <trkpt lat="42.93901" lon="0.56904">
        <ele>752</ele>
        <time>2019-02-03T08:43:23.000Z</time>
      </trkpt>
      <trkpt lat="42.93901" lon="0.56905">
        <ele>752</ele>
        <time>2019-02-03T08:43:24.000Z</time>
      </trkpt>
      <trkpt lat="42.93901" lon="0.56906">
        <ele>752</ele>
        <time>2019-02-03T08:43:25.000Z</time>
      </trkpt>
      <trkpt lat="42.93901" lon="0.56906">
        <ele>752</ele>
        <time>2019-02-03T08:43:26.000Z</time>
      </trkpt>
      <trkpt lat="42.93901" lon="0.56907">
        <ele>752</ele>
        <time>2019-02-03T08:43:27.000Z</time>
      </trkpt>
      <trkpt lat="42.93901" lon="0.56908">
        <ele>752</ele>
        <time>2019-02-03T08:43:28.000Z</time>
      </trkpt>
      <trkpt lat="42.93901" lon="0.56909">
        <ele>752</ele>
        <time>2019-02-03T08:43:29.000Z</time>
      </trkpt>
      <trkpt lat="42.93901" lon="0.5691">
        <ele>752</ele>
        <time>2019-02-03T08:43:30.000Z</time>
      </trkpt>
      <trkpt lat="42.93901" lon="0.56911">
        <ele>752</ele>
        <time>2019-02-03T08:43:31.000Z</time>
      </trkpt>
      <trkpt lat="42.93901" lon="0.56912">
        <ele>752</ele>
        <time>2019-02-03T08:43:32.000Z</time>
      </trkpt>
      <trkpt lat="42.93901" lon="0.56913">
        <ele>752</ele>
        <time>2019-02-03T08:43:33.000Z</time>
      </trkpt>
      <trkpt lat="42.93901" lon="0.56914">
        <ele>752</ele>
        <time>2019-02-03T08:43:34.000Z</time>
      </trkpt>
      <trkpt lat="42.93901" lon="0.56915">
        <ele>752</ele>
        <time>2019-02-03T08:43:35.000Z</time>
      </trkpt>
      <trkpt lat="42.93902" lon="0.56916">
        <ele>752</ele>
        <time>2019-02-03T08:43:36.000Z</time>
      </trkpt>
      <trkpt lat="42.93902" lon="0.56917">
        <ele>752</ele>
        <time>2019-02-03T08:43:37.000Z</time>
      </trkpt>
      <trkpt lat="42.93902" lon="0.56918">
        <ele>753</ele>
        <time>2019-02-03T08:43:38.000Z</time>
      </trkpt>
      <trkpt lat="42.93902" lon="0.56919">
        <ele>753</ele>
        <time>2019-02-03T08:43:39.000Z</time>
      </trkpt>
      <trkpt lat="42.93902" lon="0.5692">
        <ele>753</ele>
        <time>2019-02-03T08:43:40.000Z</time>
      </trkpt>
      <trkpt lat="42.93902" lon="0.56921">
        <ele>753</ele>
        <time>2019-02-03T08:43:41.000Z</time>
      </trkpt>
      <trkpt lat="42.93903" lon="0.56922">
        <ele>753</ele>
        <time>2019-02-03T08:43:42.000Z</time>
      </trkpt>
      <trkpt lat="42.93903" lon="0.56923">
        <ele>753</ele>
        <time>2019-02-03T08:43:43.000Z</time>
      </trkpt>
      <trkpt lat="42.93903" lon="0.56924">
        <ele>753</ele>
        <time>2019-02-03T08:43:44.000Z</time>
      </trkpt>
      <trkpt lat="42.93903" lon="0.56925">
        <ele>753.5</ele>
        <time>2019-02-03T08:43:45.000Z</time>
      </trkpt>
      <trkpt lat="42.93903" lon="0.56926">
        <ele>754</ele>
        <time>2019-02-03T08:43:46.000Z</time>
      </trkpt>
      <trkpt lat="42.93903" lon="0.56927">
        <ele>754</ele>
        <time>2019-02-03T08:43:47.000Z</time>
      </trkpt>
      <trkpt lat="42.93903" lon="0.56929">
        <ele>754</ele>
        <time>2019-02-03T08:43:48.000Z</time>
      </trkpt>
      <trkpt lat="42.93903" lon="0.5693">
        <ele>754</ele>
        <time>2019-02-03T08:43:49.000Z</time>
      </trkpt>
      <trkpt lat="42.93904" lon="0.56931">
        <ele>754</ele>
        <time>2019-02-03T08:43:50.000Z</time>
      </trkpt>
      <trkpt lat="42.93904" lon="0.56932">
        <ele>754</ele>
        <time>2019-02-03T08:43:51.000Z</time>
      </trkpt>
      <trkpt lat="42.93904" lon="0.56933">
        <ele>754</ele>
        <time>2019-02-03T08:43:52.000Z</time>
      </trkpt>
      <trkpt lat="42.93904" lon="0.56935">
        <ele>754</ele>
        <time>2019-02-03T08:43:53.000Z</time>
      </trkpt>
      <trkpt lat="42.93904" lon="0.56936">
        <ele>754</ele>
        <time>2019-02-03T08:43:54.000Z</time>
      </trkpt>
      <trkpt lat="42.93904" lon="0.56937">
        <ele>754</ele>
        <time>2019-02-03T08:43:55.000Z</time>
      </trkpt>
      <trkpt lat="42.93904" lon="0.56938">
        <ele>754</ele>
        <time>2019-02-03T08:43:56.000Z</time>
      </trkpt>
      <trkpt lat="42.93905" lon="0.5694">
        <ele>754.3</ele>
        <time>2019-02-03T08:43:57.000Z</time>
      </trkpt>
      <trkpt lat="42.93905" lon="0.56941">
        <ele>754.7</ele>
        <time>2019-02-03T08:43:58.000Z</time>
      </trkpt>
      <trkpt lat="42.93905" lon="0.56942">
        <ele>755</ele>
        <time>2019-02-03T08:43:59.000Z</time>
      </trkpt>
      <trkpt lat="42.93905" lon="0.56944">
        <ele>755</ele>
        <time>2019-02-03T08:44:00.000Z</time>
      </trkpt>
      <trkpt lat="42.93905" lon="0.56945">
        <ele>755</ele>
        <time>2019-02-03T08:44:01.000Z</time>
      </trkpt>
      <trkpt lat="42.93905" lon="0.56946">
        <ele>755</ele>
        <time>2019-02-03T08:44:02.000Z</time>
      </trkpt>
      <trkpt lat="42.93906" lon="0.56948">
        <ele>755</ele>
        <time>2019-02-03T08:44:03.000Z</time>
      </trkpt>
      <trkpt lat="42.93906" lon="0.56949">
        <ele>755</ele>
        <time>2019-02-03T08:44:04.000Z</time>
      </trkpt>
      <trkpt lat="42.93906" lon="0.5695">
        <ele>755.5</ele>
        <time>2019-02-03T08:44:05.000Z</time>
      </trkpt>
      <trkpt lat="42.93906" lon="0.56951">
        <ele>756</ele>
        <time>2019-02-03T08:44:06.000Z</time>
      </trkpt>
      <trkpt lat="42.93906" lon="0.56951">
        <ele>756</ele>
        <time>2019-02-03T08:44:07.000Z</time>
      </trkpt>
      <trkpt lat="42.93906" lon="0.56952">
        <ele>756</ele>
        <time>2019-02-03T08:44:08.000Z</time>
      </trkpt>
      <trkpt lat="42.93907" lon="0.56953">
        <ele>756</ele>
        <time>2019-02-03T08:44:09.000Z</time>
      </trkpt>
      <trkpt lat="42.93907" lon="0.56954">
        <ele>756</ele>
        <time>2019-02-03T08:44:10.000Z</time>
      </trkpt>
      <trkpt lat="42.93907" lon="0.56955">
        <ele>756</ele>
        <time>2019-02-03T08:44:11.000Z</time>
      </trkpt>
      <trkpt lat="42.93907" lon="0.56956">
        <ele>756</ele>
        <time>2019-02-03T08:44:12.000Z</time>
      </trkpt>
      <trkpt lat="42.93908" lon="0.56957">
        <ele>756</ele>
        <time>2019-02-03T08:44:13.000Z</time>
      </trkpt>
      <trkpt lat="42.93908" lon="0.56959">
        <ele>756</ele>
        <time>2019-02-03T08:44:14.000Z</time>
      </trkpt>
      <trkpt lat="42.93908" lon="0.5696">
        <ele>756.5</ele>
        <time>2019-02-03T08:44:15.000Z</time>
      </trkpt>
      <trkpt lat="42.93908" lon="0.56961">
        <ele>757</ele>
        <time>2019-02-03T08:44:16.000Z</time>
      </trkpt>
      <trkpt lat="42.93908" lon="0.56962">
        <ele>757</ele>
        <time>2019-02-03T08:44:17.000Z</time>
      </trkpt>
      <trkpt lat="42.93908" lon="0.56963">
        <ele>757</ele>
        <time>2019-02-03T08:44:18.000Z</time>
      </trkpt>
      <trkpt lat="42.93908" lon="0.56964">
        <ele>757</ele>
        <time>2019-02-03T08:44:19.000Z</time>
      </trkpt>
      <trkpt lat="42.93908" lon="0.56965">
        <ele>757</ele>
        <time>2019-02-03T08:44:20.000Z</time>
      </trkpt>
      <trkpt lat="42.93908" lon="0.56966">
        <ele>757</ele>
        <time>2019-02-03T08:44:21.000Z</time>
      </trkpt>
      <trkpt lat="42.93908" lon="0.56967">
        <ele>757</ele>
        <time>2019-02-03T08:44:22.000Z</time>
      </trkpt>
      <trkpt lat="42.93909" lon="0.56968">
        <ele>757.5</ele>
        <time>2019-02-03T08:44:23.000Z</time>
      </trkpt>
      <trkpt lat="42.93909" lon="0.5697">
        <ele>758</ele>
        <time>2019-02-03T08:44:24.000Z</time>
      </trkpt>
      <trkpt lat="42.93909" lon="0.56971">
        <ele>758</ele>
        <time>2019-02-03T08:44:25.000Z</time>
      </trkpt>
      <trkpt lat="42.9391" lon="0.56972">
        <ele>758</ele>
        <time>2019-02-03T08:44:26.000Z</time>
      </trkpt>
      <trkpt lat="42.9391" lon="0.56973">
        <ele>758</ele>
        <time>2019-02-03T08:44:27.000Z</time>
      </trkpt>
      <trkpt lat="42.93911" lon="0.56974">
        <ele>758</ele>
        <time>2019-02-03T08:44:28.000Z</time>
      </trkpt>
      <trkpt lat="42.93911" lon="0.56975">
        <ele>758</ele>
        <time>2019-02-03T08:44:29.000Z</time>
      </trkpt>
      <trkpt lat="42.93911" lon="0.56977">
        <ele>758</ele>
        <time>2019-02-03T08:44:30.000Z</time>
      </trkpt>
      <trkpt lat="42.93912" lon="0.56978">
        <ele>758</ele>
        <time>2019-02-03T08:44:31.000Z</time>
      </trkpt>
      <trkpt lat="42.93912" lon="0.5698">
        <ele>758</ele>
        <time>2019-02-03T08:44:32.000Z</time>
      </trkpt>
      <trkpt lat="42.93912" lon="0.56981">
        <ele>758</ele>
        <time>2019-02-03T08:44:33.000Z</time>
      </trkpt>
      <trkpt lat="42.93912" lon="0.56982">
        <ele>758</ele>
        <time>2019-02-03T08:44:34.000Z</time>
      </trkpt>
      <trkpt lat="42.93912" lon="0.56984">
        <ele>758</ele>
        <time>2019-02-03T08:44:35.000Z</time>
      </trkpt>
      <trkpt lat="42.93913" lon="0.56985">
        <ele>758.5</ele>
        <time>2019-02-03T08:44:36.000Z</time>
      </trkpt>
      <trkpt lat="42.93913" lon="0.56986">
        <ele>759</ele>
        <time>2019-02-03T08:44:37.000Z</time>
      </trkpt>
      <trkpt lat="42.93913" lon="0.56988">
        <ele>759</ele>
        <time>2019-02-03T08:44:38.000Z</time>
      </trkpt>
      <trkpt lat="42.93913" lon="0.56989">
        <ele>759</ele>
        <time>2019-02-03T08:44:39.000Z</time>
      </trkpt>
      <trkpt lat="42.93913" lon="0.5699">
        <ele>759</ele>
        <time>2019-02-03T08:44:40.000Z</time>
      </trkpt>
      <trkpt lat="42.93913" lon="0.56991">
        <ele>759</ele>
        <time>2019-02-03T08:44:41.000Z</time>
      </trkpt>
      <trkpt lat="42.93914" lon="0.56992">
        <ele>759</ele>
        <time>2019-02-03T08:44:42.000Z</time>
      </trkpt>
      <trkpt lat="42.93914" lon="0.56993">
        <ele>759</ele>
        <time>2019-02-03T08:44:43.000Z</time>
      </trkpt>
      <trkpt lat="42.93914" lon="0.56995">
        <ele>759</ele>
        <time>2019-02-03T08:44:44.000Z</time>
      </trkpt>
      <trkpt lat="42.93914" lon="0.56996">
        <ele>759</ele>
        <time>2019-02-03T08:44:45.000Z</time>
      </trkpt>
      <trkpt lat="42.93914" lon="0.56997">
        <ele>759</ele>
        <time>2019-02-03T08:44:46.000Z</time>
      </trkpt>
      <trkpt lat="42.93914" lon="0.56998">
        <ele>759</ele>
        <time>2019-02-03T08:44:47.000Z</time>
      </trkpt>
      <trkpt lat="42.93915" lon="0.56999">
        <ele>760</ele>
        <time>2019-02-03T08:44:48.000Z</time>
      </trkpt>
      <trkpt lat="42.93915" lon="0.57001">
        <ele>760</ele>
        <time>2019-02-03T08:44:49.000Z</time>
      </trkpt>
      <trkpt lat="42.93915" lon="0.57002">
        <ele>760</ele>
        <time>2019-02-03T08:44:50.000Z</time>
      </trkpt>
      <trkpt lat="42.93915" lon="0.57003">
        <ele>760</ele>
        <time>2019-02-03T08:44:51.000Z</time>
      </trkpt>
      <trkpt lat="42.93915" lon="0.57005">
        <ele>760</ele>
        <time>2019-02-03T08:44:52.000Z</time>
      </trkpt>
      <trkpt lat="42.93915" lon="0.57006">
        <ele>760.5</ele>
        <time>2019-02-03T08:44:53.000Z</time>
      </trkpt>
      <trkpt lat="42.93916" lon="0.57007">
        <ele>761</ele>
        <time>2019-02-03T08:44:54.000Z</time>
      </trkpt>
      <trkpt lat="42.93916" lon="0.57008">
        <ele>760.7</ele>
        <time>2019-02-03T08:44:55.000Z</time>
      </trkpt>
      <trkpt lat="42.93916" lon="0.57009">
        <ele>760.3</ele>
        <time>2019-02-03T08:44:56.000Z</time>
      </trkpt>
      <trkpt lat="42.93916" lon="0.57011">
        <ele>760</ele>
        <time>2019-02-03T08:44:57.000Z</time>
      </trkpt>
      <trkpt lat="42.93917" lon="0.57012">
        <ele>761</ele>
        <time>2019-02-03T08:44:58.000Z</time>
      </trkpt>
      <trkpt lat="42.93917" lon="0.57013">
        <ele>761</ele>
        <time>2019-02-03T08:44:59.000Z</time>
      </trkpt>
      <trkpt lat="42.93917" lon="0.57014">
        <ele>761</ele>
        <time>2019-02-03T08:45:00.000Z</time>
      </trkpt>
      <trkpt lat="42.93918" lon="0.57015">
        <ele>761</ele>
        <time>2019-02-03T08:45:01.000Z</time>
      </trkpt>
      <trkpt lat="42.93918" lon="0.57015">
        <ele>761</ele>
        <time>2019-02-03T08:45:02.000Z</time>
      </trkpt>
      <trkpt lat="42.93919" lon="0.57016">
        <ele>761</ele>
        <time>2019-02-03T08:45:03.000Z</time>
      </trkpt>
      <trkpt lat="42.93919" lon="0.57017">
        <ele>761</ele>
        <time>2019-02-03T08:45:04.000Z</time>
      </trkpt>
      <trkpt lat="42.93919" lon="0.57018">
        <ele>761</ele>
        <time>2019-02-03T08:45:05.000Z</time>
      </trkpt>
      <trkpt lat="42.9392" lon="0.57019">
        <ele>761</ele>
        <time>2019-02-03T08:45:06.000Z</time>
      </trkpt>
      <trkpt lat="42.9392" lon="0.5702">
        <ele>761</ele>
        <time>2019-02-03T08:45:07.000Z</time>
      </trkpt>
      <trkpt lat="42.93921" lon="0.57021">
        <ele>761</ele>
        <time>2019-02-03T08:45:08.000Z</time>
      </trkpt>
      <trkpt lat="42.93921" lon="0.57022">
        <ele>761.5</ele>
        <time>2019-02-03T08:45:09.000Z</time>
      </trkpt>
      <trkpt lat="42.93922" lon="0.57023">
        <ele>762</ele>
        <time>2019-02-03T08:45:10.000Z</time>
      </trkpt>
      <trkpt lat="42.93922" lon="0.57024">
        <ele>762</ele>
        <time>2019-02-03T08:45:11.000Z</time>
      </trkpt>
      <trkpt lat="42.93922" lon="0.57025">
        <ele>762</ele>
        <time>2019-02-03T08:45:12.000Z</time>
      </trkpt>
      <trkpt lat="42.93923" lon="0.57026">
        <ele>762</ele>
        <time>2019-02-03T08:45:13.000Z</time>
      </trkpt>
      <trkpt lat="42.93923" lon="0.57027">
        <ele>762</ele>
        <time>2019-02-03T08:45:14.000Z</time>
      </trkpt>
      <trkpt lat="42.93924" lon="0.57028">
        <ele>762</ele>
        <time>2019-02-03T08:45:15.000Z</time>
      </trkpt>
      <trkpt lat="42.93924" lon="0.57029">
        <ele>762</ele>
        <time>2019-02-03T08:45:16.000Z</time>
      </trkpt>
      <trkpt lat="42.93924" lon="0.5703">
        <ele>762</ele>
        <time>2019-02-03T08:45:17.000Z</time>
      </trkpt>
      <trkpt lat="42.93925" lon="0.57032">
        <ele>762</ele>
        <time>2019-02-03T08:45:18.000Z</time>
      </trkpt>
      <trkpt lat="42.93925" lon="0.57033">
        <ele>762.5</ele>
        <time>2019-02-03T08:45:19.000Z</time>
      </trkpt>
      <trkpt lat="42.93925" lon="0.57034">
        <ele>763</ele>
        <time>2019-02-03T08:45:20.000Z</time>
      </trkpt>
      <trkpt lat="42.93926" lon="0.57035">
        <ele>763</ele>
        <time>2019-02-03T08:45:21.000Z</time>
      </trkpt>
      <trkpt lat="42.93926" lon="0.57036">
        <ele>763</ele>
        <time>2019-02-03T08:45:22.000Z</time>
      </trkpt>
      <trkpt lat="42.93926" lon="0.57037">
        <ele>763</ele>
        <time>2019-02-03T08:45:23.000Z</time>
      </trkpt>
      <trkpt lat="42.93926" lon="0.57039">
        <ele>763</ele>
        <time>2019-02-03T08:45:24.000Z</time>
      </trkpt>
      <trkpt lat="42.93927" lon="0.5704">
        <ele>763</ele>
        <time>2019-02-03T08:45:25.000Z</time>
      </trkpt>
      <trkpt lat="42.93927" lon="0.57041">
        <ele>763</ele>
        <time>2019-02-03T08:45:26.000Z</time>
      </trkpt>
      <trkpt lat="42.93927" lon="0.57042">
        <ele>763</ele>
        <time>2019-02-03T08:45:27.000Z</time>
      </trkpt>
      <trkpt lat="42.93927" lon="0.57043">
        <ele>763</ele>
        <time>2019-02-03T08:45:28.000Z</time>
      </trkpt>
      <trkpt lat="42.93927" lon="0.57044">
        <ele>763.3</ele>
        <time>2019-02-03T08:45:29.000Z</time>
      </trkpt>
      <trkpt lat="42.93928" lon="0.57045">
        <ele>763.7</ele>
        <time>2019-02-03T08:45:30.000Z</time>
      </trkpt>
      <trkpt lat="42.93928" lon="0.57046">
        <ele>764</ele>
        <time>2019-02-03T08:45:31.000Z</time>
      </trkpt>
      <trkpt lat="42.93928" lon="0.57047">
        <ele>764</ele>
        <time>2019-02-03T08:45:32.000Z</time>
      </trkpt>
      <trkpt lat="42.93928" lon="0.57048">
        <ele>764</ele>
        <time>2019-02-03T08:45:33.000Z</time>
      </trkpt>
      <trkpt lat="42.93929" lon="0.57049">
        <ele>764</ele>
        <time>2019-02-03T08:45:34.000Z</time>
      </trkpt>
      <trkpt lat="42.93929" lon="0.5705">
        <ele>764</ele>
        <time>2019-02-03T08:45:35.000Z</time>
      </trkpt>
      <trkpt lat="42.93929" lon="0.57051">
        <ele>764</ele>
        <time>2019-02-03T08:45:36.000Z</time>
      </trkpt>
      <trkpt lat="42.9393" lon="0.57052">
        <ele>764</ele>
        <time>2019-02-03T08:45:37.000Z</time>
      </trkpt>
      <trkpt lat="42.9393" lon="0.57053">
        <ele>764</ele>
        <time>2019-02-03T08:45:38.000Z</time>
      </trkpt>
      <trkpt lat="42.93931" lon="0.57054">
        <ele>764.5</ele>
        <time>2019-02-03T08:45:39.000Z</time>
      </trkpt>
      <trkpt lat="42.93931" lon="0.57055">
        <ele>765</ele>
        <time>2019-02-03T08:45:40.000Z</time>
      </trkpt>
      <trkpt lat="42.93932" lon="0.57056">
        <ele>765</ele>
        <time>2019-02-03T08:45:41.000Z</time>
      </trkpt>
      <trkpt lat="42.93932" lon="0.57057">
        <ele>765</ele>
        <time>2019-02-03T08:45:42.000Z</time>
      </trkpt>
      <trkpt lat="42.93933" lon="0.57058">
        <ele>765</ele>
        <time>2019-02-03T08:45:43.000Z</time>
      </trkpt>
      <trkpt lat="42.93933" lon="0.57059">
        <ele>765</ele>
        <time>2019-02-03T08:45:44.000Z</time>
      </trkpt>
      <trkpt lat="42.93934" lon="0.5706">
        <ele>765</ele>
        <time>2019-02-03T08:45:45.000Z</time>
      </trkpt>
      <trkpt lat="42.93934" lon="0.57061">
        <ele>765</ele>
        <time>2019-02-03T08:45:46.000Z</time>
      </trkpt>
      <trkpt lat="42.93934" lon="0.57062">
        <ele>765</ele>
        <time>2019-02-03T08:45:47.000Z</time>
      </trkpt>
      <trkpt lat="42.93934" lon="0.57063">
        <ele>765</ele>
        <time>2019-02-03T08:45:48.000Z</time>
      </trkpt>
      <trkpt lat="42.93934" lon="0.57064">
        <ele>765.5</ele>
        <time>2019-02-03T08:45:49.000Z</time>
      </trkpt>
      <trkpt lat="42.93934" lon="0.57065">
        <ele>766</ele>
        <time>2019-02-03T08:45:50.000Z</time>
      </trkpt>
      <trkpt lat="42.93934" lon="0.57065">
        <ele>766</ele>
        <time>2019-02-03T08:45:51.000Z</time>
      </trkpt>
      <trkpt lat="42.93934" lon="0.57066">
        <ele>766</ele>
        <time>2019-02-03T08:45:52.000Z</time>
      </trkpt>
      <trkpt lat="42.93934" lon="0.57067">
        <ele>766</ele>
        <time>2019-02-03T08:45:53.000Z</time>
      </trkpt>
      <trkpt lat="42.93934" lon="0.57068">
        <ele>766</ele>
        <time>2019-02-03T08:45:54.000Z</time>
      </trkpt>
      <trkpt lat="42.93934" lon="0.57069">
        <ele>766</ele>
        <time>2019-02-03T08:45:55.000Z</time>
      </trkpt>
      <trkpt lat="42.93934" lon="0.5707">
        <ele>766</ele>
        <time>2019-02-03T08:45:56.000Z</time>
      </trkpt>
      <trkpt lat="42.93934" lon="0.57071">
        <ele>766.3</ele>
        <time>2019-02-03T08:45:57.000Z</time>
      </trkpt>
      <trkpt lat="42.93933" lon="0.57072">
        <ele>766.7</ele>
        <time>2019-02-03T08:45:58.000Z</time>
      </trkpt>
      <trkpt lat="42.93933" lon="0.57073">
        <ele>767</ele>
        <time>2019-02-03T08:45:59.000Z</time>
      </trkpt>
      <trkpt lat="42.93933" lon="0.57074">
        <ele>767</ele>
        <time>2019-02-03T08:46:00.000Z</time>
      </trkpt>
      <trkpt lat="42.93933" lon="0.57075">
        <ele>767</ele>
        <time>2019-02-03T08:46:01.000Z</time>
      </trkpt>
      <trkpt lat="42.93933" lon="0.57076">
        <ele>767</ele>
        <time>2019-02-03T08:46:02.000Z</time>
      </trkpt>
      <trkpt lat="42.93932" lon="0.57077">
        <ele>767</ele>
        <time>2019-02-03T08:46:03.000Z</time>
      </trkpt>
      <trkpt lat="42.93932" lon="0.57078">
        <ele>767</ele>
        <time>2019-02-03T08:46:04.000Z</time>
      </trkpt>
      <trkpt lat="42.93932" lon="0.57079">
        <ele>767</ele>
        <time>2019-02-03T08:46:05.000Z</time>
      </trkpt>
      <trkpt lat="42.93932" lon="0.5708">
        <ele>767</ele>
        <time>2019-02-03T08:46:06.000Z</time>
      </trkpt>
      <trkpt lat="42.93932" lon="0.57081">
        <ele>767</ele>
        <time>2019-02-03T08:46:07.000Z</time>
      </trkpt>
      <trkpt lat="42.93931" lon="0.57082">
        <ele>767.5</ele>
        <time>2019-02-03T08:46:08.000Z</time>
      </trkpt>
      <trkpt lat="42.93931" lon="0.57083">
        <ele>768</ele>
        <time>2019-02-03T08:46:09.000Z</time>
      </trkpt>
      <trkpt lat="42.93931" lon="0.57084">
        <ele>768</ele>
        <time>2019-02-03T08:46:10.000Z</time>
      </trkpt>
      <trkpt lat="42.93931" lon="0.57085">
        <ele>768</ele>
        <time>2019-02-03T08:46:11.000Z</time>
      </trkpt>
      <trkpt lat="42.93931" lon="0.57086">
        <ele>768</ele>
        <time>2019-02-03T08:46:12.000Z</time>
      </trkpt>
      <trkpt lat="42.9393" lon="0.57086">
        <ele>768</ele>
        <time>2019-02-03T08:46:13.000Z</time>
      </trkpt>
      <trkpt lat="42.9393" lon="0.57087">
        <ele>768</ele>
        <time>2019-02-03T08:46:14.000Z</time>
      </trkpt>
      <trkpt lat="42.9393" lon="0.57088">
        <ele>768.3</ele>
        <time>2019-02-03T08:46:15.000Z</time>
      </trkpt>
      <trkpt lat="42.9393" lon="0.57089">
        <ele>768.7</ele>
        <time>2019-02-03T08:46:16.000Z</time>
      </trkpt>
      <trkpt lat="42.93929" lon="0.57089">
        <ele>769</ele>
        <time>2019-02-03T08:46:17.000Z</time>
      </trkpt>
      <trkpt lat="42.93929" lon="0.5709">
        <ele>769</ele>
        <time>2019-02-03T08:46:18.000Z</time>
      </trkpt>
      <trkpt lat="42.93929" lon="0.5709">
        <ele>769</ele>
        <time>2019-02-03T08:46:19.000Z</time>
      </trkpt>
      <trkpt lat="42.93928" lon="0.57091">
        <ele>769</ele>
        <time>2019-02-03T08:46:20.000Z</time>
      </trkpt>
      <trkpt lat="42.93928" lon="0.57092">
        <ele>769</ele>
        <time>2019-02-03T08:46:21.000Z</time>
      </trkpt>
      <trkpt lat="42.93927" lon="0.57092">
        <ele>769</ele>
        <time>2019-02-03T08:46:22.000Z</time>
      </trkpt>
      <trkpt lat="42.93927" lon="0.57093">
        <ele>769</ele>
        <time>2019-02-03T08:46:23.000Z</time>
      </trkpt>
      <trkpt lat="42.93926" lon="0.57094">
        <ele>769</ele>
        <time>2019-02-03T08:46:24.000Z</time>
      </trkpt>
      <trkpt lat="42.93925" lon="0.57095">
        <ele>769.5</ele>
        <time>2019-02-03T08:46:25.000Z</time>
      </trkpt>
      <trkpt lat="42.93925" lon="0.57096">
        <ele>770</ele>
        <time>2019-02-03T08:46:26.000Z</time>
      </trkpt>
      <trkpt lat="42.93924" lon="0.57097">
        <ele>770</ele>
        <time>2019-02-03T08:46:27.000Z</time>
      </trkpt>
      <trkpt lat="42.93923" lon="0.57097">
        <ele>770</ele>
        <time>2019-02-03T08:46:28.000Z</time>
      </trkpt>
      <trkpt lat="42.93923" lon="0.57098">
        <ele>770</ele>
        <time>2019-02-03T08:46:29.000Z</time>
      </trkpt>
      <trkpt lat="42.93922" lon="0.57099">
        <ele>770</ele>
        <time>2019-02-03T08:46:30.000Z</time>
      </trkpt>
      <trkpt lat="42.93922" lon="0.571">
        <ele>770</ele>
        <time>2019-02-03T08:46:31.000Z</time>
      </trkpt>
      <trkpt lat="42.93921" lon="0.571">
        <ele>771</ele>
        <time>2019-02-03T08:46:32.000Z</time>
      </trkpt>
      <trkpt lat="42.93921" lon="0.57101">
        <ele>771</ele>
        <time>2019-02-03T08:46:33.000Z</time>
      </trkpt>
      <trkpt lat="42.9392" lon="0.57101">
        <ele>771</ele>
        <time>2019-02-03T08:46:34.000Z</time>
      </trkpt>
      <trkpt lat="42.9392" lon="0.57102">
        <ele>771</ele>
        <time>2019-02-03T08:46:35.000Z</time>
      </trkpt>
      <trkpt lat="42.93919" lon="0.57103">
        <ele>771</ele>
        <time>2019-02-03T08:46:36.000Z</time>
      </trkpt>
      <trkpt lat="42.93919" lon="0.57103">
        <ele>771</ele>
        <time>2019-02-03T08:46:37.000Z</time>
      </trkpt>
      <trkpt lat="42.93918" lon="0.57104">
        <ele>771</ele>
        <time>2019-02-03T08:46:38.000Z</time>
      </trkpt>
      <trkpt lat="42.93918" lon="0.57104">
        <ele>771</ele>
        <time>2019-02-03T08:46:39.000Z</time>
      </trkpt>
      <trkpt lat="42.93917" lon="0.57105">
        <ele>771</ele>
        <time>2019-02-03T08:46:40.000Z</time>
      </trkpt>
      <trkpt lat="42.93917" lon="0.57105">
        <ele>771.3</ele>
        <time>2019-02-03T08:46:41.000Z</time>
      </trkpt>
      <trkpt lat="42.93916" lon="0.57106">
        <ele>771.7</ele>
        <time>2019-02-03T08:46:42.000Z</time>
      </trkpt>
      <trkpt lat="42.93916" lon="0.57106">
        <ele>772</ele>
        <time>2019-02-03T08:46:43.000Z</time>
      </trkpt>
      <trkpt lat="42.93916" lon="0.57107">
        <ele>772</ele>
        <time>2019-02-03T08:46:44.000Z</time>
      </trkpt>
      <trkpt lat="42.93915" lon="0.57108">
        <ele>772</ele>
        <time>2019-02-03T08:46:45.000Z</time>
      </trkpt>
      <trkpt lat="42.93915" lon="0.57108">
        <ele>772</ele>
        <time>2019-02-03T08:46:46.000Z</time>
      </trkpt>
      <trkpt lat="42.93915" lon="0.57109">
        <ele>772</ele>
        <time>2019-02-03T08:46:47.000Z</time>
      </trkpt>
      <trkpt lat="42.93915" lon="0.57109">
        <ele>773</ele>
        <time>2019-02-03T08:46:48.000Z</time>
      </trkpt>
      <trkpt lat="42.93915" lon="0.57109">
        <ele>773</ele>
        <time>2019-02-03T08:46:49.000Z</time>
      </trkpt>
      <trkpt lat="42.93914" lon="0.5711">
        <ele>773</ele>
        <time>2019-02-03T08:46:50.000Z</time>
      </trkpt>
      <trkpt lat="42.93914" lon="0.5711">
        <ele>773</ele>
        <time>2019-02-03T08:46:51.000Z</time>
      </trkpt>
      <trkpt lat="42.93914" lon="0.57111">
        <ele>773</ele>
        <time>2019-02-03T08:46:52.000Z</time>
      </trkpt>
      <trkpt lat="42.93914" lon="0.57111">
        <ele>773</ele>
        <time>2019-02-03T08:46:53.000Z</time>
      </trkpt>
      <trkpt lat="42.93914" lon="0.57111">
        <ele>773</ele>
        <time>2019-02-03T08:46:54.000Z</time>
      </trkpt>
      <trkpt lat="42.93913" lon="0.57112">
        <ele>773.3</ele>
        <time>2019-02-03T08:46:55.000Z</time>
      </trkpt>
      <trkpt lat="42.93913" lon="0.57112">
        <ele>773.7</ele>
        <time>2019-02-03T08:46:56.000Z</time>
      </trkpt>
      <trkpt lat="42.93913" lon="0.57112">
        <ele>774</ele>
        <time>2019-02-03T08:46:57.000Z</time>
      </trkpt>
      <trkpt lat="42.93913" lon="0.57113">
        <ele>774</ele>
        <time>2019-02-03T08:46:58.000Z</time>
      </trkpt>
      <trkpt lat="42.93913" lon="0.57113">
        <ele>774</ele>
        <time>2019-02-03T08:46:59.000Z</time>
      </trkpt>
      <trkpt lat="42.93913" lon="0.57113">
        <ele>774</ele>
        <time>2019-02-03T08:47:00.000Z</time>
      </trkpt>
      <trkpt lat="42.93913" lon="0.57113">
        <ele>774</ele>
        <time>2019-02-03T08:47:01.000Z</time>
      </trkpt>
      <trkpt lat="42.93913" lon="0.57113">
        <ele>774</ele>
        <time>2019-02-03T08:47:02.000Z</time>
      </trkpt>
      <trkpt lat="42.93912" lon="0.57114">
        <ele>774</ele>
        <time>2019-02-03T08:47:03.000Z</time>
      </trkpt>
      <trkpt lat="42.93912" lon="0.57114">
        <ele>774</ele>
        <time>2019-02-03T08:47:04.000Z</time>
      </trkpt>
      <trkpt lat="42.93912" lon="0.57114">
        <ele>774</ele>
        <time>2019-02-03T08:47:05.000Z</time>
      </trkpt>
      <trkpt lat="42.93912" lon="0.57114">
        <ele>774</ele>
        <time>2019-02-03T08:47:06.000Z</time>
      </trkpt>
      <trkpt lat="42.93912" lon="0.57114">
        <ele>774</ele>
        <time>2019-02-03T08:47:07.000Z</time>
      </trkpt>
      <trkpt lat="42.93912" lon="0.57114">
        <ele>774</ele>
        <time>2019-02-03T08:47:08.000Z</time>
      </trkpt>
      <trkpt lat="42.93912" lon="0.57114">
        <ele>774</ele>
        <time>2019-02-03T08:47:09.000Z</time>
      </trkpt>
      <trkpt lat="42.93912" lon="0.57114">
        <ele>774</ele>
        <time>2019-02-03T08:47:10.000Z</time>
      </trkpt>
      <trkpt lat="42.93912" lon="0.57114">
        <ele>774</ele>
        <time>2019-02-03T08:47:11.000Z</time>
      </trkpt>
      <trkpt lat="42.93912" lon="0.57114">
        <ele>774</ele>
        <time>2019-02-03T08:47:12.000Z</time>
      </trkpt>
      <trkpt lat="42.93913" lon="0.57114">
        <ele>774</ele>
        <time>2019-02-03T08:47:13.000Z</time>
      </trkpt>
      <trkpt lat="42.93913" lon="0.57115">
        <ele>774</ele>
        <time>2019-02-03T08:47:14.000Z</time>
      </trkpt>
      <trkpt lat="42.93913" lon="0.57115">
        <ele>774</ele>
        <time>2019-02-03T08:47:15.000Z</time>
      </trkpt>
      <trkpt lat="42.93913" lon="0.57116">
        <ele>774</ele>
        <time>2019-02-03T08:47:16.000Z</time>
      </trkpt>
      <trkpt lat="42.93914" lon="0.57116">
        <ele>774</ele>
        <time>2019-02-03T08:47:17.000Z</time>
      </trkpt>
      <trkpt lat="42.93914" lon="0.57117">
        <ele>774</ele>
        <time>2019-02-03T08:47:18.000Z</time>
      </trkpt>
      <trkpt lat="42.93914" lon="0.57117">
        <ele>774</ele>
        <time>2019-02-03T08:47:19.000Z</time>
      </trkpt>
      <trkpt lat="42.93914" lon="0.57117">
        <ele>774</ele>
        <time>2019-02-03T08:47:20.000Z</time>
      </trkpt>
      <trkpt lat="42.93913" lon="0.57118">
        <ele>774</ele>
        <time>2019-02-03T08:47:21.000Z</time>
      </trkpt>
      <trkpt lat="42.93913" lon="0.57118">
        <ele>774</ele>
        <time>2019-02-03T08:47:22.000Z</time>
      </trkpt>
      <trkpt lat="42.93913" lon="0.57118">
        <ele>774</ele>
        <time>2019-02-03T08:47:23.000Z</time>
      </trkpt>
      <trkpt lat="42.93913" lon="0.57118">
        <ele>774.5</ele>
        <time>2019-02-03T08:47:24.000Z</time>
      </trkpt>
      <trkpt lat="42.93913" lon="0.57119">
        <ele>775</ele>
        <time>2019-02-03T08:47:25.000Z</time>
      </trkpt>
      <trkpt lat="42.93913" lon="0.57119">
        <ele>775</ele>
        <time>2019-02-03T08:47:26.000Z</time>
      </trkpt>
      <trkpt lat="42.93913" lon="0.57119">
        <ele>775</ele>
        <time>2019-02-03T08:47:27.000Z</time>
      </trkpt>
      <trkpt lat="42.93913" lon="0.57119">
        <ele>775</ele>
        <time>2019-02-03T08:47:28.000Z</time>
      </trkpt>
      <trkpt lat="42.93913" lon="0.57119">
        <ele>775</ele>
        <time>2019-02-03T08:47:29.000Z</time>
      </trkpt>
      <trkpt lat="42.93913" lon="0.57119">
        <ele>775</ele>
        <time>2019-02-03T08:47:30.000Z</time>
      </trkpt>
      <trkpt lat="42.93913" lon="0.57119">
        <ele>775</ele>
        <time>2019-02-03T08:47:31.000Z</time>
      </trkpt>
      <trkpt lat="42.93913" lon="0.57119">
        <ele>775</ele>
        <time>2019-02-03T08:47:32.000Z</time>
      </trkpt>
      <trkpt lat="42.93913" lon="0.57119">
        <ele>775</ele>
        <time>2019-02-03T08:47:33.000Z</time>
      </trkpt>
      <trkpt lat="42.93913" lon="0.57119">
        <ele>775</ele>
        <time>2019-02-03T08:47:34.000Z</time>
      </trkpt>
      <trkpt lat="42.93912" lon="0.57119">
        <ele>775</ele>
        <time>2019-02-03T08:47:35.000Z</time>
      </trkpt>
      <trkpt lat="42.93912" lon="0.57119">
        <ele>775</ele>
        <time>2019-02-03T08:47:36.000Z</time>
      </trkpt>
      <trkpt lat="42.93912" lon="0.5712">
        <ele>775</ele>
        <time>2019-02-03T08:47:37.000Z</time>
      </trkpt>
      <trkpt lat="42.93912" lon="0.5712">
        <ele>775</ele>
        <time>2019-02-03T08:47:38.000Z</time>
      </trkpt>
      <trkpt lat="42.93911" lon="0.5712">
        <ele>775</ele>
        <time>2019-02-03T08:47:39.000Z</time>
      </trkpt>
      <trkpt lat="42.93911" lon="0.57121">
        <ele>775</ele>
        <time>2019-02-03T08:47:40.000Z</time>
      </trkpt>
      <trkpt lat="42.93911" lon="0.57121">
        <ele>775</ele>
        <time>2019-02-03T08:47:41.000Z</time>
      </trkpt>
      <trkpt lat="42.9391" lon="0.57121">
        <ele>775</ele>
        <time>2019-02-03T08:47:42.000Z</time>
      </trkpt>
      <trkpt lat="42.9391" lon="0.57121">
        <ele>775</ele>
        <time>2019-02-03T08:47:43.000Z</time>
      </trkpt>
      <trkpt lat="42.9391" lon="0.57122">
        <ele>775</ele>
        <time>2019-02-03T08:47:44.000Z</time>
      </trkpt>
      <trkpt lat="42.9391" lon="0.57122">
        <ele>775</ele>
        <time>2019-02-03T08:47:45.000Z</time>
      </trkpt>
      <trkpt lat="42.9391" lon="0.57122">
        <ele>775</ele>
        <time>2019-02-03T08:47:46.000Z</time>
      </trkpt>
      <trkpt lat="42.93909" lon="0.57122">
        <ele>775</ele>
        <time>2019-02-03T08:47:47.000Z</time>
      </trkpt>
      <trkpt lat="42.93909" lon="0.57122">
        <ele>775</ele>
        <time>2019-02-03T08:47:48.000Z</time>
      </trkpt>
      <trkpt lat="42.93909" lon="0.57122">
        <ele>775</ele>
        <time>2019-02-03T08:47:49.000Z</time>
      </trkpt>
      <trkpt lat="42.93909" lon="0.57122">
        <ele>775</ele>
        <time>2019-02-03T08:47:50.000Z</time>
      </trkpt>
      <trkpt lat="42.93909" lon="0.57122">
        <ele>775</ele>
        <time>2019-02-03T08:47:51.000Z</time>
      </trkpt>
      <trkpt lat="42.93909" lon="0.57122">
        <ele>775</ele>
        <time>2019-02-03T08:47:52.000Z</time>
      </trkpt>
      <trkpt lat="42.93909" lon="0.57122">
        <ele>775</ele>
        <time>2019-02-03T08:47:53.000Z</time>
      </trkpt>
      <trkpt lat="42.93909" lon="0.57122">
        <ele>775</ele>
        <time>2019-02-03T08:47:54.000Z</time>
      </trkpt>
      <trkpt lat="42.93909" lon="0.57122">
        <ele>775</ele>
        <time>2019-02-03T08:47:55.000Z</time>
      </trkpt>
      <trkpt lat="42.93909" lon="0.57122">
        <ele>775</ele>
        <time>2019-02-03T08:47:56.000Z</time>
      </trkpt>
      <trkpt lat="42.93909" lon="0.57122">
        <ele>775</ele>
        <time>2019-02-03T08:47:57.000Z</time>
      </trkpt>
      <trkpt lat="42.93909" lon="0.57122">
        <ele>774.5</ele>
        <time>2019-02-03T08:47:58.000Z</time>
      </trkpt>
      <trkpt lat="42.93909" lon="0.57122">
        <ele>774</ele>
        <time>2019-02-03T08:47:59.000Z</time>
      </trkpt>
      <trkpt lat="42.93909" lon="0.57122">
        <ele>775</ele>
        <time>2019-02-03T08:48:00.000Z</time>
      </trkpt>
      <trkpt lat="42.93909" lon="0.57122">
        <ele>775</ele>
        <time>2019-02-03T08:48:01.000Z</time>
      </trkpt>
      <trkpt lat="42.93909" lon="0.57122">
        <ele>775</ele>
        <time>2019-02-03T08:48:02.000Z</time>
      </trkpt>
      <trkpt lat="42.93909" lon="0.57122">
        <ele>775</ele>
        <time>2019-02-03T08:48:03.000Z</time>
      </trkpt>
      <trkpt lat="42.93909" lon="0.57122">
        <ele>775</ele>
        <time>2019-02-03T08:48:04.000Z</time>
      </trkpt>
      <trkpt lat="42.93909" lon="0.57122">
        <ele>775</ele>
        <time>2019-02-03T08:48:05.000Z</time>
      </trkpt>
      <trkpt lat="42.93909" lon="0.57122">
        <ele>775</ele>
        <time>2019-02-03T08:48:06.000Z</time>
      </trkpt>
      <trkpt lat="42.93909" lon="0.57122">
        <ele>775</ele>
        <time>2019-02-03T08:48:07.000Z</time>
      </trkpt>
      <trkpt lat="42.93909" lon="0.57122">
        <ele>775</ele>
        <time>2019-02-03T08:48:08.000Z</time>
      </trkpt>
      <trkpt lat="42.93909" lon="0.57122">
        <ele>775</ele>
        <time>2019-02-03T08:48:09.000Z</time>
      </trkpt>
      <trkpt lat="42.93909" lon="0.57122">
        <ele>775</ele>
        <time>2019-02-03T08:48:10.000Z</time>
      </trkpt>
      <trkpt lat="42.93909" lon="0.57122">
        <ele>775</ele>
        <time>2019-02-03T08:48:11.000Z</time>
      </trkpt>
      <trkpt lat="42.93909" lon="0.57122">
        <ele>775</ele>
        <time>2019-02-03T08:48:12.000Z</time>
      </trkpt>
      <trkpt lat="42.93909" lon="0.57122">
        <ele>775</ele>
        <time>2019-02-03T08:48:13.000Z</time>
      </trkpt>
      <trkpt lat="42.93909" lon="0.57122">
        <ele>774.5</ele>
        <time>2019-02-03T08:48:14.000Z</time>
      </trkpt>
      <trkpt lat="42.93909" lon="0.57122">
        <ele>774</ele>
        <time>2019-02-03T08:48:15.000Z</time>
      </trkpt>
      <trkpt lat="42.93909" lon="0.57122">
        <ele>774</ele>
        <time>2019-02-03T08:48:16.000Z</time>
      </trkpt>
      <trkpt lat="42.93909" lon="0.57122">
        <ele>774</ele>
        <time>2019-02-03T08:48:17.000Z</time>
      </trkpt>
      <trkpt lat="42.93909" lon="0.57122">
        <ele>774</ele>
        <time>2019-02-03T08:48:18.000Z</time>
      </trkpt>
      <trkpt lat="42.93908" lon="0.57122">
        <ele>774</ele>
        <time>2019-02-03T08:48:19.000Z</time>
      </trkpt>
      <trkpt lat="42.93908" lon="0.57122">
        <ele>774</ele>
        <time>2019-02-03T08:48:20.000Z</time>
      </trkpt>
      <trkpt lat="42.93908" lon="0.57122">
        <ele>774</ele>
        <time>2019-02-03T08:48:21.000Z</time>
      </trkpt>
      <trkpt lat="42.93908" lon="0.57122">
        <ele>774</ele>
        <time>2019-02-03T08:48:22.000Z</time>
      </trkpt>
      <trkpt lat="42.93907" lon="0.57122">
        <ele>774</ele>
        <time>2019-02-03T08:48:23.000Z</time>
      </trkpt>
      <trkpt lat="42.93907" lon="0.57122">
        <ele>774</ele>
        <time>2019-02-03T08:48:24.000Z</time>
      </trkpt>
      <trkpt lat="42.93907" lon="0.57122">
        <ele>774.5</ele>
        <time>2019-02-03T08:48:25.000Z</time>
      </trkpt>
      <trkpt lat="42.93907" lon="0.57122">
        <ele>775</ele>
        <time>2019-02-03T08:48:26.000Z</time>
      </trkpt>
      <trkpt lat="42.93907" lon="0.57122">
        <ele>775</ele>
        <time>2019-02-03T08:48:27.000Z</time>
      </trkpt>
      <trkpt lat="42.93907" lon="0.57122">
        <ele>775</ele>
        <time>2019-02-03T08:48:28.000Z</time>
      </trkpt>
      <trkpt lat="42.93907" lon="0.57122">
        <ele>775</ele>
        <time>2019-02-03T08:48:29.000Z</time>
      </trkpt>
      <trkpt lat="42.93907" lon="0.57122">
        <ele>775</ele>
        <time>2019-02-03T08:48:30.000Z</time>
      </trkpt>
      <trkpt lat="42.93907" lon="0.57122">
        <ele>775</ele>
        <time>2019-02-03T08:48:31.000Z</time>
      </trkpt>
      <trkpt lat="42.93907" lon="0.57122">
        <ele>775</ele>
        <time>2019-02-03T08:48:32.000Z</time>
      </trkpt>
      <trkpt lat="42.93907" lon="0.57122">
        <ele>775</ele>
        <time>2019-02-03T08:48:33.000Z</time>
      </trkpt>
      <trkpt lat="42.93907" lon="0.57122">
        <ele>775</ele>
        <time>2019-02-03T08:48:34.000Z</time>
      </trkpt>
      <trkpt lat="42.93907" lon="0.57122">
        <ele>775</ele>
        <time>2019-02-03T08:48:35.000Z</time>
      </trkpt>
      <trkpt lat="42.93907" lon="0.57122">
        <ele>775</ele>
        <time>2019-02-03T08:48:36.000Z</time>
      </trkpt>
      <trkpt lat="42.93907" lon="0.57122">
        <ele>775</ele>
        <time>2019-02-03T08:48:37.000Z</time>
      </trkpt>
      <trkpt lat="42.93907" lon="0.57122">
        <ele>774</ele>
        <time>2019-02-03T08:48:38.000Z</time>
      </trkpt>
      <trkpt lat="42.93907" lon="0.57122">
        <ele>774</ele>
        <time>2019-02-03T08:48:39.000Z</time>
      </trkpt>
      <trkpt lat="42.93907" lon="0.57122">
        <ele>774</ele>
        <time>2019-02-03T08:48:40.000Z</time>
      </trkpt>
      <trkpt lat="42.93907" lon="0.57122">
        <ele>774</ele>
        <time>2019-02-03T08:48:41.000Z</time>
      </trkpt>
      <trkpt lat="42.93907" lon="0.57122">
        <ele>774</ele>
        <time>2019-02-03T08:48:42.000Z</time>
      </trkpt>
      <trkpt lat="42.93907" lon="0.57122">
        <ele>774</ele>
        <time>2019-02-03T08:48:43.000Z</time>
      </trkpt>
      <trkpt lat="42.93907" lon="0.57121">
        <ele>774</ele>
        <time>2019-02-03T08:48:44.000Z</time>
      </trkpt>
      <trkpt lat="42.93907" lon="0.57121">
        <ele>774</ele>
        <time>2019-02-03T08:48:45.000Z</time>
      </trkpt>
      <trkpt lat="42.93907" lon="0.57121">
        <ele>774</ele>
        <time>2019-02-03T08:48:46.000Z</time>
      </trkpt>
      <trkpt lat="42.93907" lon="0.57121">
        <ele>774</ele>
        <time>2019-02-03T08:48:47.000Z</time>
      </trkpt>
      <trkpt lat="42.93907" lon="0.57121">
        <ele>774</ele>
        <time>2019-02-03T08:48:48.000Z</time>
      </trkpt>
      <trkpt lat="42.93907" lon="0.57121">
        <ele>774</ele>
        <time>2019-02-03T08:48:49.000Z</time>
      </trkpt>
      <trkpt lat="42.93907" lon="0.57121">
        <ele>774</ele>
        <time>2019-02-03T08:48:50.000Z</time>
      </trkpt>
      <trkpt lat="42.93908" lon="0.57121">
        <ele>774</ele>
        <time>2019-02-03T08:48:51.000Z</time>
      </trkpt>
      <trkpt lat="42.93908" lon="0.57121">
        <ele>774</ele>
        <time>2019-02-03T08:48:52.000Z</time>
      </trkpt>
      <trkpt lat="42.93908" lon="0.57121">
        <ele>774</ele>
        <time>2019-02-03T08:48:53.000Z</time>
      </trkpt>
      <trkpt lat="42.93908" lon="0.57121">
        <ele>774</ele>
        <time>2019-02-03T08:48:54.000Z</time>
      </trkpt>
      <trkpt lat="42.93908" lon="0.57121">
        <ele>774</ele>
        <time>2019-02-03T08:48:55.000Z</time>
      </trkpt>
      <trkpt lat="42.93908" lon="0.57121">
        <ele>774</ele>
        <time>2019-02-03T08:48:56.000Z</time>
      </trkpt>
      <trkpt lat="42.93908" lon="0.5712">
        <ele>774</ele>
        <time>2019-02-03T08:48:57.000Z</time>
      </trkpt>
      <trkpt lat="42.93908" lon="0.5712">
        <ele>774</ele>
        <time>2019-02-03T08:48:58.000Z</time>
      </trkpt>
      <trkpt lat="42.93908" lon="0.5712">
        <ele>774</ele>
        <time>2019-02-03T08:48:59.000Z</time>
      </trkpt>
      <trkpt lat="42.93908" lon="0.5712">
        <ele>774</ele>
        <time>2019-02-03T08:49:00.000Z</time>
      </trkpt>
      <trkpt lat="42.93908" lon="0.5712">
        <ele>774</ele>
        <time>2019-02-03T08:49:01.000Z</time>
      </trkpt>
      <trkpt lat="42.93908" lon="0.5712">
        <ele>774</ele>
        <time>2019-02-03T08:49:02.000Z</time>
      </trkpt>
      <trkpt lat="42.93908" lon="0.5712">
        <ele>774</ele>
        <time>2019-02-03T08:49:03.000Z</time>
      </trkpt>
      <trkpt lat="42.93908" lon="0.5712">
        <ele>774</ele>
        <time>2019-02-03T08:49:04.000Z</time>
      </trkpt>
      <trkpt lat="42.93908" lon="0.5712">
        <ele>774</ele>
        <time>2019-02-03T08:49:05.000Z</time>
      </trkpt>
      <trkpt lat="42.93908" lon="0.5712">
        <ele>774</ele>
        <time>2019-02-03T08:49:06.000Z</time>
      </trkpt>
      <trkpt lat="42.93908" lon="0.5712">
        <ele>774</ele>
        <time>2019-02-03T08:49:07.000Z</time>
      </trkpt>
      <trkpt lat="42.93908" lon="0.5712">
        <ele>774</ele>
        <time>2019-02-03T08:49:08.000Z</time>
      </trkpt>
      <trkpt lat="42.93908" lon="0.5712">
        <ele>774</ele>
        <time>2019-02-03T08:49:09.000Z</time>
      </trkpt>
      <trkpt lat="42.93908" lon="0.5712">
        <ele>774</ele>
        <time>2019-02-03T08:49:10.000Z</time>
      </trkpt>
      <trkpt lat="42.93908" lon="0.5712">
        <ele>774</ele>
        <time>2019-02-03T08:49:11.000Z</time>
      </trkpt>
      <trkpt lat="42.93908" lon="0.5712">
        <ele>774</ele>
        <time>2019-02-03T08:49:12.000Z</time>
      </trkpt>
      <trkpt lat="42.93908" lon="0.5712">
        <ele>774</ele>
        <time>2019-02-03T08:49:13.000Z</time>
      </trkpt>
      <trkpt lat="42.93908" lon="0.5712">
        <ele>774</ele>
        <time>2019-02-03T08:49:14.000Z</time>
      </trkpt>
      <trkpt lat="42.93908" lon="0.5712">
        <ele>774</ele>
        <time>2019-02-03T08:49:15.000Z</time>
      </trkpt>
      <trkpt lat="42.93908" lon="0.5712">
        <ele>774</ele>
        <time>2019-02-03T08:49:16.000Z</time>
      </trkpt>
      <trkpt lat="42.93908" lon="0.5712">
        <ele>774</ele>
        <time>2019-02-03T08:49:17.000Z</time>
      </trkpt>
      <trkpt lat="42.93908" lon="0.5712">
        <ele>774</ele>
        <time>2019-02-03T08:49:18.000Z</time>
      </trkpt>
      <trkpt lat="42.93908" lon="0.5712">
        <ele>774</ele>
        <time>2019-02-03T08:49:19.000Z</time>
      </trkpt>
      <trkpt lat="42.93908" lon="0.5712">
        <ele>774</ele>
        <time>2019-02-03T08:49:20.000Z</time>
      </trkpt>
      <trkpt lat="42.93908" lon="0.5712">
        <ele>774</ele>
        <time>2019-02-03T08:49:21.000Z</time>
      </trkpt>
      <trkpt lat="42.93908" lon="0.5712">
        <ele>774</ele>
        <time>2019-02-03T08:49:22.000Z</time>
      </trkpt>
      <trkpt lat="42.93908" lon="0.5712">
        <ele>774</ele>
        <time>2019-02-03T08:49:23.000Z</time>
      </trkpt>
      <trkpt lat="42.93908" lon="0.5712">
        <ele>774</ele>
        <time>2019-02-03T08:49:24.000Z</time>
      </trkpt>
      <trkpt lat="42.93908" lon="0.5712">
        <ele>774</ele>
        <time>2019-02-03T08:49:25.000Z</time>
      </trkpt>
      <trkpt lat="42.93908" lon="0.5712">
        <ele>774</ele>
        <time>2019-02-03T08:49:26.000Z</time>
      </trkpt>
      <trkpt lat="42.93908" lon="0.5712">
        <ele>774</ele>
        <time>2019-02-03T08:49:27.000Z</time>
      </trkpt>
      <trkpt lat="42.93908" lon="0.5712">
        <ele>774</ele>
        <time>2019-02-03T08:49:28.000Z</time>
      </trkpt>
      <trkpt lat="42.93908" lon="0.5712">
        <ele>774</ele>
        <time>2019-02-03T08:49:29.000Z</time>
      </trkpt>
      <trkpt lat="42.93908" lon="0.5712">
        <ele>774</ele>
        <time>2019-02-03T08:49:30.000Z</time>
      </trkpt>
      <trkpt lat="42.93908" lon="0.5712">
        <ele>774</ele>
        <time>2019-02-03T08:49:31.000Z</time>
      </trkpt>
      <trkpt lat="42.93908" lon="0.5712">
        <ele>774</ele>
        <time>2019-02-03T08:49:32.000Z</time>
      </trkpt>
      <trkpt lat="42.93908" lon="0.5712">
        <ele>774.3</ele>
        <time>2019-02-03T08:49:33.000Z</time>
      </trkpt>
      <trkpt lat="42.93908" lon="0.5712">
        <ele>774.7</ele>
        <time>2019-02-03T08:49:34.000Z</time>
      </trkpt>
      <trkpt lat="42.93908" lon="0.5712">
        <ele>775</ele>
        <time>2019-02-03T08:49:35.000Z</time>
      </trkpt>
      <trkpt lat="42.93908" lon="0.5712">
        <ele>775</ele>
        <time>2019-02-03T08:49:36.000Z</time>
      </trkpt>
      <trkpt lat="42.93908" lon="0.5712">
        <ele>775</ele>
        <time>2019-02-03T08:49:37.000Z</time>
      </trkpt>
      <trkpt lat="42.93908" lon="0.5712">
        <ele>775</ele>
        <time>2019-02-03T08:49:38.000Z</time>
      </trkpt>
      <trkpt lat="42.93908" lon="0.5712">
        <ele>775</ele>
        <time>2019-02-03T08:49:39.000Z</time>
      </trkpt>
      <trkpt lat="42.93908" lon="0.5712">
        <ele>775</ele>
        <time>2019-02-03T08:49:40.000Z</time>
      </trkpt>
      <trkpt lat="42.93908" lon="0.5712">
        <ele>775</ele>
        <time>2019-02-03T08:49:41.000Z</time>
      </trkpt>
      <trkpt lat="42.93908" lon="0.5712">
        <ele>775</ele>
        <time>2019-02-03T08:49:42.000Z</time>
      </trkpt>
      <trkpt lat="42.93908" lon="0.57121">
        <ele>775</ele>
        <time>2019-02-03T08:49:43.000Z</time>
      </trkpt>
      <trkpt lat="42.93908" lon="0.57121">
        <ele>775</ele>
        <time>2019-02-03T08:49:44.000Z</time>
      </trkpt>
      <trkpt lat="42.93907" lon="0.57121">
        <ele>774.5</ele>
        <time>2019-02-03T08:49:45.000Z</time>
      </trkpt>
      <trkpt lat="42.93907" lon="0.57121">
        <ele>774</ele>
        <time>2019-02-03T08:49:46.000Z</time>
      </trkpt>
      <trkpt lat="42.93907" lon="0.57121">
        <ele>774</ele>
        <time>2019-02-03T08:49:47.000Z</time>
      </trkpt>
      <trkpt lat="42.93907" lon="0.57121">
        <ele>774</ele>
        <time>2019-02-03T08:49:48.000Z</time>
      </trkpt>
      <trkpt lat="42.93907" lon="0.57121">
        <ele>774</ele>
        <time>2019-02-03T08:49:49.000Z</time>
      </trkpt>
      <trkpt lat="42.93906" lon="0.57121">
        <ele>774</ele>
        <time>2019-02-03T08:49:50.000Z</time>
      </trkpt>
      <trkpt lat="42.93906" lon="0.57121">
        <ele>774</ele>
        <time>2019-02-03T08:49:51.000Z</time>
      </trkpt>
      <trkpt lat="42.93906" lon="0.57121">
        <ele>774</ele>
        <time>2019-02-03T08:49:52.000Z</time>
      </trkpt>
      <trkpt lat="42.93906" lon="0.57121">
        <ele>774</ele>
        <time>2019-02-03T08:49:53.000Z</time>
      </trkpt>
      <trkpt lat="42.93906" lon="0.57121">
        <ele>774</ele>
        <time>2019-02-03T08:49:54.000Z</time>
      </trkpt>
      <trkpt lat="42.93906" lon="0.57121">
        <ele>774</ele>
        <time>2019-02-03T08:49:55.000Z</time>
      </trkpt>
      <trkpt lat="42.93905" lon="0.57121">
        <ele>774</ele>
        <time>2019-02-03T08:49:56.000Z</time>
      </trkpt>
      <trkpt lat="42.93905" lon="0.57121">
        <ele>774</ele>
        <time>2019-02-03T08:49:57.000Z</time>
      </trkpt>
      <trkpt lat="42.93905" lon="0.57121">
        <ele>774</ele>
        <time>2019-02-03T08:49:58.000Z</time>
      </trkpt>
      <trkpt lat="42.93905" lon="0.57121">
        <ele>774</ele>
        <time>2019-02-03T08:49:59.000Z</time>
      </trkpt>
      <trkpt lat="42.93905" lon="0.57121">
        <ele>774</ele>
        <time>2019-02-03T08:50:00.000Z</time>
      </trkpt>
      <trkpt lat="42.93905" lon="0.57121">
        <ele>774</ele>
        <time>2019-02-03T08:50:01.000Z</time>
      </trkpt>
      <trkpt lat="42.93905" lon="0.57121">
        <ele>774</ele>
        <time>2019-02-03T08:50:02.000Z</time>
      </trkpt>
      <trkpt lat="42.93905" lon="0.57121">
        <ele>774</ele>
        <time>2019-02-03T08:50:03.000Z</time>
      </trkpt>
      <trkpt lat="42.93905" lon="0.57121">
        <ele>774</ele>
        <time>2019-02-03T08:50:04.000Z</time>
      </trkpt>
      <trkpt lat="42.93905" lon="0.57121">
        <ele>774</ele>
        <time>2019-02-03T08:50:05.000Z</time>
      </trkpt>
      <trkpt lat="42.93905" lon="0.57121">
        <ele>774</ele>
        <time>2019-02-03T08:50:06.000Z</time>
      </trkpt>
      <trkpt lat="42.93905" lon="0.57121">
        <ele>774</ele>
        <time>2019-02-03T08:50:07.000Z</time>
      </trkpt>
      <trkpt lat="42.93905" lon="0.57121">
        <ele>774</ele>
        <time>2019-02-03T08:50:08.000Z</time>
      </trkpt>
      <trkpt lat="42.93905" lon="0.57121">
        <ele>774.5</ele>
        <time>2019-02-03T08:50:09.000Z</time>
      </trkpt>
      <trkpt lat="42.93905" lon="0.57121">
        <ele>775</ele>
        <time>2019-02-03T08:50:10.000Z</time>
      </trkpt>
      <trkpt lat="42.93905" lon="0.57121">
        <ele>774.5</ele>
        <time>2019-02-03T08:50:11.000Z</time>
      </trkpt>
      <trkpt lat="42.93905" lon="0.57121">
        <ele>774</ele>
        <time>2019-02-03T08:50:12.000Z</time>
      </trkpt>
      <trkpt lat="42.93905" lon="0.57121">
        <ele>774</ele>
        <time>2019-02-03T08:50:13.000Z</time>
      </trkpt>
      <trkpt lat="42.93905" lon="0.57121">
        <ele>774</ele>
        <time>2019-02-03T08:50:14.000Z</time>
      </trkpt>
      <trkpt lat="42.93905" lon="0.57121">
        <ele>774</ele>
        <time>2019-02-03T08:50:15.000Z</time>
      </trkpt>
      <trkpt lat="42.93905" lon="0.57121">
        <ele>774</ele>
        <time>2019-02-03T08:50:16.000Z</time>
      </trkpt>
      <trkpt lat="42.93905" lon="0.57121">
        <ele>774</ele>
        <time>2019-02-03T08:50:17.000Z</time>
      </trkpt>
      <trkpt lat="42.93905" lon="0.57121">
        <ele>774</ele>
        <time>2019-02-03T08:50:18.000Z</time>
      </trkpt>
      <trkpt lat="42.93905" lon="0.57121">
        <ele>774</ele>
        <time>2019-02-03T08:50:19.000Z</time>
      </trkpt>
      <trkpt lat="42.93905" lon="0.57121">
        <ele>774</ele>
        <time>2019-02-03T08:50:20.000Z</time>
      </trkpt>
      <trkpt lat="42.93905" lon="0.57121">
        <ele>774</ele>
        <time>2019-02-03T08:50:21.000Z</time>
      </trkpt>
      <trkpt lat="42.93905" lon="0.57121">
        <ele>774</ele>
        <time>2019-02-03T08:50:22.000Z</time>
      </trkpt>
      <trkpt lat="42.93905" lon="0.57121">
        <ele>774</ele>
        <time>2019-02-03T08:50:23.000Z</time>
      </trkpt>
      <trkpt lat="42.93905" lon="0.57121">
        <ele>774</ele>
        <time>2019-02-03T08:50:24.000Z</time>
      </trkpt>
      <trkpt lat="42.93905" lon="0.57121">
        <ele>774</ele>
        <time>2019-02-03T08:50:25.000Z</time>
      </trkpt>
      <trkpt lat="42.93905" lon="0.57121">
        <ele>774</ele>
        <time>2019-02-03T08:50:26.000Z</time>
      </trkpt>
      <trkpt lat="42.93905" lon="0.57121">
        <ele>774</ele>
        <time>2019-02-03T08:50:27.000Z</time>
      </trkpt>
      <trkpt lat="42.93905" lon="0.57121">
        <ele>774</ele>
        <time>2019-02-03T08:50:28.000Z</time>
      </trkpt>
      <trkpt lat="42.93905" lon="0.57121">
        <ele>774</ele>
        <time>2019-02-03T08:50:29.000Z</time>
      </trkpt>
      <trkpt lat="42.93905" lon="0.57121">
        <ele>774</ele>
        <time>2019-02-03T08:50:30.000Z</time>
      </trkpt>
      <trkpt lat="42.93905" lon="0.57121">
        <ele>774</ele>
        <time>2019-02-03T08:50:31.000Z</time>
      </trkpt>
      <trkpt lat="42.93905" lon="0.57121">
        <ele>774.5</ele>
        <time>2019-02-03T08:50:32.000Z</time>
      </trkpt>
      <trkpt lat="42.93905" lon="0.57121">
        <ele>775</ele>
        <time>2019-02-03T08:50:33.000Z</time>
      </trkpt>
      <trkpt lat="42.93905" lon="0.57121">
        <ele>775</ele>
        <time>2019-02-03T08:50:34.000Z</time>
      </trkpt>
      <trkpt lat="42.93905" lon="0.57121">
        <ele>775</ele>
        <time>2019-02-03T08:50:35.000Z</time>
      </trkpt>
      <trkpt lat="42.93905" lon="0.57121">
        <ele>775</ele>
        <time>2019-02-03T08:50:36.000Z</time>
      </trkpt>
      <trkpt lat="42.93905" lon="0.57121">
        <ele>775</ele>
        <time>2019-02-03T08:50:37.000Z</time>
      </trkpt>
      <trkpt lat="42.93905" lon="0.57121">
        <ele>775</ele>
        <time>2019-02-03T08:50:38.000Z</time>
      </trkpt>
      <trkpt lat="42.93905" lon="0.57121">
        <ele>775</ele>
        <time>2019-02-03T08:50:39.000Z</time>
      </trkpt>
      <trkpt lat="42.93904" lon="0.57121">
        <ele>775</ele>
        <time>2019-02-03T08:50:40.000Z</time>
      </trkpt>
      <trkpt lat="42.93904" lon="0.57121">
        <ele>775</ele>
        <time>2019-02-03T08:50:41.000Z</time>
      </trkpt>
      <trkpt lat="42.93904" lon="0.57121">
        <ele>775</ele>
        <time>2019-02-03T08:50:42.000Z</time>
      </trkpt>
      <trkpt lat="42.93904" lon="0.57121">
        <ele>775</ele>
        <time>2019-02-03T08:50:43.000Z</time>
      </trkpt>
      <trkpt lat="42.93904" lon="0.57121">
        <ele>775</ele>
        <time>2019-02-03T08:50:44.000Z</time>
      </trkpt>
      <trkpt lat="42.93904" lon="0.57121">
        <ele>775</ele>
        <time>2019-02-03T08:50:45.000Z</time>
      </trkpt>
      <trkpt lat="42.93904" lon="0.57121">
        <ele>775</ele>
        <time>2019-02-03T08:50:46.000Z</time>
      </trkpt>
      <trkpt lat="42.93904" lon="0.57121">
        <ele>775</ele>
        <time>2019-02-03T08:50:47.000Z</time>
      </trkpt>
      <trkpt lat="42.93904" lon="0.57121">
        <ele>775</ele>
        <time>2019-02-03T08:50:48.000Z</time>
      </trkpt>
      <trkpt lat="42.93904" lon="0.57121">
        <ele>775</ele>
        <time>2019-02-03T08:50:49.000Z</time>
      </trkpt>
      <trkpt lat="42.93904" lon="0.57121">
        <ele>775</ele>
        <time>2019-02-03T08:50:50.000Z</time>
      </trkpt>
      <trkpt lat="42.93904" lon="0.57121">
        <ele>775</ele>
        <time>2019-02-03T08:50:51.000Z</time>
      </trkpt>
      <trkpt lat="42.93904" lon="0.57121">
        <ele>775</ele>
        <time>2019-02-03T08:50:52.000Z</time>
      </trkpt>
      <trkpt lat="42.93904" lon="0.57121">
        <ele>775</ele>
        <time>2019-02-03T08:50:53.000Z</time>
      </trkpt>
      <trkpt lat="42.93904" lon="0.57121">
        <ele>775</ele>
        <time>2019-02-03T08:50:54.000Z</time>
      </trkpt>
      <trkpt lat="42.93904" lon="0.57121">
        <ele>775</ele>
        <time>2019-02-03T08:50:55.000Z</time>
      </trkpt>
      <trkpt lat="42.93904" lon="0.57121">
        <ele>775</ele>
        <time>2019-02-03T08:50:56.000Z</time>
      </trkpt>
      <trkpt lat="42.93904" lon="0.57121">
        <ele>775</ele>
        <time>2019-02-03T08:50:57.000Z</time>
      </trkpt>
      <trkpt lat="42.93904" lon="0.57121">
        <ele>775</ele>
        <time>2019-02-03T08:50:58.000Z</time>
      </trkpt>
      <trkpt lat="42.93904" lon="0.57121">
        <ele>775</ele>
        <time>2019-02-03T08:50:59.000Z</time>
      </trkpt>
      <trkpt lat="42.93904" lon="0.57121">
        <ele>775</ele>
        <time>2019-02-03T08:51:00.000Z</time>
      </trkpt>
      <trkpt lat="42.93904" lon="0.57121">
        <ele>775</ele>
        <time>2019-02-03T08:51:01.000Z</time>
      </trkpt>
      <trkpt lat="42.93904" lon="0.57121">
        <ele>775</ele>
        <time>2019-02-03T08:51:02.000Z</time>
      </trkpt>
      <trkpt lat="42.93904" lon="0.57121">
        <ele>775</ele>
        <time>2019-02-03T08:51:03.000Z</time>
      </trkpt>
      <trkpt lat="42.93904" lon="0.57121">
        <ele>775</ele>
        <time>2019-02-03T08:51:04.000Z</time>
      </trkpt>
      <trkpt lat="42.93904" lon="0.57122">
        <ele>775</ele>
        <time>2019-02-03T08:51:05.000Z</time>
      </trkpt>
      <trkpt lat="42.93904" lon="0.57122">
        <ele>775</ele>
        <time>2019-02-03T08:51:06.000Z</time>
      </trkpt>
      <trkpt lat="42.93904" lon="0.57122">
        <ele>775</ele>
        <time>2019-02-03T08:51:07.000Z</time>
      </trkpt>
      <trkpt lat="42.93904" lon="0.57122">
        <ele>775</ele>
        <time>2019-02-03T08:51:08.000Z</time>
      </trkpt>
      <trkpt lat="42.93904" lon="0.57122">
        <ele>775</ele>
        <time>2019-02-03T08:51:09.000Z</time>
      </trkpt>
      <trkpt lat="42.93904" lon="0.57122">
        <ele>775</ele>
        <time>2019-02-03T08:51:10.000Z</time>
      </trkpt>
      <trkpt lat="42.93904" lon="0.57122">
        <ele>775</ele>
        <time>2019-02-03T08:51:11.000Z</time>
      </trkpt>
      <trkpt lat="42.93904" lon="0.57122">
        <ele>775</ele>
        <time>2019-02-03T08:51:12.000Z</time>
      </trkpt>
      <trkpt lat="42.93904" lon="0.57122">
        <ele>775</ele>
        <time>2019-02-03T08:51:13.000Z</time>
      </trkpt>
      <trkpt lat="42.93904" lon="0.57122">
        <ele>775</ele>
        <time>2019-02-03T08:51:14.000Z</time>
      </trkpt>
      <trkpt lat="42.93904" lon="0.57122">
        <ele>775</ele>
        <time>2019-02-03T08:51:15.000Z</time>
      </trkpt>
      <trkpt lat="42.93904" lon="0.57122">
        <ele>775</ele>
        <time>2019-02-03T08:51:16.000Z</time>
      </trkpt>
      <trkpt lat="42.93904" lon="0.57122">
        <ele>775</ele>
        <time>2019-02-03T08:51:17.000Z</time>
      </trkpt>
      <trkpt lat="42.93904" lon="0.57122">
        <ele>775</ele>
        <time>2019-02-03T08:51:18.000Z</time>
      </trkpt>
      <trkpt lat="42.93904" lon="0.57122">
        <ele>775</ele>
        <time>2019-02-03T08:51:19.000Z</time>
      </trkpt>
      <trkpt lat="42.93904" lon="0.57122">
        <ele>775</ele>
        <time>2019-02-03T08:51:20.000Z</time>
      </trkpt>
      <trkpt lat="42.93905" lon="0.57122">
        <ele>775</ele>
        <time>2019-02-03T08:51:21.000Z</time>
      </trkpt>
      <trkpt lat="42.93905" lon="0.57122">
        <ele>775</ele>
        <time>2019-02-03T08:51:22.000Z</time>
      </trkpt>
      <trkpt lat="42.93905" lon="0.57122">
        <ele>775</ele>
        <time>2019-02-03T08:51:23.000Z</time>
      </trkpt>
      <trkpt lat="42.93905" lon="0.57122">
        <ele>775</ele>
        <time>2019-02-03T08:51:24.000Z</time>
      </trkpt>
      <trkpt lat="42.93905" lon="0.57122">
        <ele>775</ele>
        <time>2019-02-03T08:51:25.000Z</time>
      </trkpt>
      <trkpt lat="42.93905" lon="0.57122">
        <ele>775</ele>
        <time>2019-02-03T08:51:26.000Z</time>
      </trkpt>
      <trkpt lat="42.93906" lon="0.57122">
        <ele>775</ele>
        <time>2019-02-03T08:51:27.000Z</time>
      </trkpt>
      <trkpt lat="42.93906" lon="0.57122">
        <ele>775</ele>
        <time>2019-02-03T08:51:28.000Z</time>
      </trkpt>
      <trkpt lat="42.93906" lon="0.57122">
        <ele>775</ele>
        <time>2019-02-03T08:51:29.000Z</time>
      </trkpt>
      <trkpt lat="42.93906" lon="0.57122">
        <ele>775</ele>
        <time>2019-02-03T08:51:30.000Z</time>
      </trkpt>
      <trkpt lat="42.93906" lon="0.57122">
        <ele>775</ele>
        <time>2019-02-03T08:51:31.000Z</time>
      </trkpt>
      <trkpt lat="42.93906" lon="0.57122">
        <ele>775</ele>
        <time>2019-02-03T08:51:32.000Z</time>
      </trkpt>
      <trkpt lat="42.93906" lon="0.57122">
        <ele>775</ele>
        <time>2019-02-03T08:51:33.000Z</time>
      </trkpt>
      <trkpt lat="42.93906" lon="0.57122">
        <ele>775</ele>
        <time>2019-02-03T08:51:34.000Z</time>
      </trkpt>
      <trkpt lat="42.93906" lon="0.57122">
        <ele>775</ele>
        <time>2019-02-03T08:51:35.000Z</time>
      </trkpt>
      <trkpt lat="42.93906" lon="0.57122">
        <ele>775</ele>
        <time>2019-02-03T08:51:36.000Z</time>
      </trkpt>
      <trkpt lat="42.93906" lon="0.57122">
        <ele>775</ele>
        <time>2019-02-03T08:51:37.000Z</time>
      </trkpt>
      <trkpt lat="42.93906" lon="0.57122">
        <ele>775</ele>
        <time>2019-02-03T08:51:38.000Z</time>
      </trkpt>
      <trkpt lat="42.93906" lon="0.57122">
        <ele>775</ele>
        <time>2019-02-03T08:51:39.000Z</time>
      </trkpt>
      <trkpt lat="42.93906" lon="0.57122">
        <ele>775</ele>
        <time>2019-02-03T08:51:40.000Z</time>
      </trkpt>
      <trkpt lat="42.93906" lon="0.57122">
        <ele>775</ele>
        <time>2019-02-03T08:51:41.000Z</time>
      </trkpt>
      <trkpt lat="42.93906" lon="0.57122">
        <ele>774</ele>
        <time>2019-02-03T08:51:42.000Z</time>
      </trkpt>
      <trkpt lat="42.93906" lon="0.57122">
        <ele>774.3</ele>
        <time>2019-02-03T08:51:43.000Z</time>
      </trkpt>
      <trkpt lat="42.93906" lon="0.57122">
        <ele>774.7</ele>
        <time>2019-02-03T08:51:44.000Z</time>
      </trkpt>
      <trkpt lat="42.93906" lon="0.57122">
        <ele>775</ele>
        <time>2019-02-03T08:51:45.000Z</time>
      </trkpt>
      <trkpt lat="42.93906" lon="0.57122">
        <ele>775</ele>
        <time>2019-02-03T08:51:46.000Z</time>
      </trkpt>
      <trkpt lat="42.93906" lon="0.57122">
        <ele>775</ele>
        <time>2019-02-03T08:51:47.000Z</time>
      </trkpt>
      <trkpt lat="42.93906" lon="0.57122">
        <ele>775</ele>
        <time>2019-02-03T08:51:48.000Z</time>
      </trkpt>
      <trkpt lat="42.93906" lon="0.57122">
        <ele>775</ele>
        <time>2019-02-03T08:51:49.000Z</time>
      </trkpt>
      <trkpt lat="42.93905" lon="0.57123">
        <ele>775</ele>
        <time>2019-02-03T08:51:50.000Z</time>
      </trkpt>
      <trkpt lat="42.93905" lon="0.57123">
        <ele>775</ele>
        <time>2019-02-03T08:51:51.000Z</time>
      </trkpt>
      <trkpt lat="42.93905" lon="0.57123">
        <ele>775</ele>
        <time>2019-02-03T08:51:52.000Z</time>
      </trkpt>
      <trkpt lat="42.93905" lon="0.57123">
        <ele>775</ele>
        <time>2019-02-03T08:51:53.000Z</time>
      </trkpt>
      <trkpt lat="42.93905" lon="0.57123">
        <ele>775</ele>
        <time>2019-02-03T08:51:54.000Z</time>
      </trkpt>
      <trkpt lat="42.93905" lon="0.57123">
        <ele>775</ele>
        <time>2019-02-03T08:51:55.000Z</time>
      </trkpt>
      <trkpt lat="42.93905" lon="0.57123">
        <ele>775</ele>
        <time>2019-02-03T08:51:56.000Z</time>
      </trkpt>
      <trkpt lat="42.93905" lon="0.57123">
        <ele>775</ele>
        <time>2019-02-03T08:51:57.000Z</time>
      </trkpt>
      <trkpt lat="42.93905" lon="0.57123">
        <ele>775</ele>
        <time>2019-02-03T08:51:58.000Z</time>
      </trkpt>
      <trkpt lat="42.93905" lon="0.57123">
        <ele>775</ele>
        <time>2019-02-03T08:51:59.000Z</time>
      </trkpt>
      <trkpt lat="42.93905" lon="0.57123">
        <ele>775</ele>
        <time>2019-02-03T08:52:00.000Z</time>
      </trkpt>
      <trkpt lat="42.93905" lon="0.57123">
        <ele>775</ele>
        <time>2019-02-03T08:52:01.000Z</time>
      </trkpt>
      <trkpt lat="42.93905" lon="0.57123">
        <ele>775</ele>
        <time>2019-02-03T08:52:02.000Z</time>
      </trkpt>
      <trkpt lat="42.93905" lon="0.57123">
        <ele>775</ele>
        <time>2019-02-03T08:52:03.000Z</time>
      </trkpt>
      <trkpt lat="42.93905" lon="0.57123">
        <ele>775</ele>
        <time>2019-02-03T08:52:04.000Z</time>
      </trkpt>
      <trkpt lat="42.93905" lon="0.57123">
        <ele>775</ele>
        <time>2019-02-03T08:52:05.000Z</time>
      </trkpt>
      <trkpt lat="42.93905" lon="0.57123">
        <ele>775</ele>
        <time>2019-02-03T08:52:06.000Z</time>
      </trkpt>
      <trkpt lat="42.93905" lon="0.57123">
        <ele>775</ele>
        <time>2019-02-03T08:52:07.000Z</time>
      </trkpt>
      <trkpt lat="42.93905" lon="0.57123">
        <ele>775</ele>
        <time>2019-02-03T08:52:08.000Z</time>
      </trkpt>
      <trkpt lat="42.93905" lon="0.57123">
        <ele>775</ele>
        <time>2019-02-03T08:52:09.000Z</time>
      </trkpt>
      <trkpt lat="42.93905" lon="0.57123">
        <ele>775</ele>
        <time>2019-02-03T08:52:10.000Z</time>
      </trkpt>
      <trkpt lat="42.93905" lon="0.57123">
        <ele>775</ele>
        <time>2019-02-03T08:52:11.000Z</time>
      </trkpt>
      <trkpt lat="42.93905" lon="0.57123">
        <ele>775</ele>
        <time>2019-02-03T08:52:12.000Z</time>
      </trkpt>
      <trkpt lat="42.93905" lon="0.57123">
        <ele>775</ele>
        <time>2019-02-03T08:52:13.000Z</time>
      </trkpt>
      <trkpt lat="42.93905" lon="0.57122">
        <ele>775</ele>
        <time>2019-02-03T08:52:14.000Z</time>
      </trkpt>
      <trkpt lat="42.93904" lon="0.57121">
        <ele>775</ele>
        <time>2019-02-03T08:52:15.000Z</time>
      </trkpt>
      <trkpt lat="42.93904" lon="0.5712">
        <ele>775</ele>
        <time>2019-02-03T08:52:16.000Z</time>
      </trkpt>
      <trkpt lat="42.93904" lon="0.5712">
        <ele>775</ele>
        <time>2019-02-03T08:52:17.000Z</time>
      </trkpt>
      <trkpt lat="42.93904" lon="0.5712">
        <ele>775</ele>
        <time>2019-02-03T08:52:18.000Z</time>
      </trkpt>
      <trkpt lat="42.93904" lon="0.57119">
        <ele>775</ele>
        <time>2019-02-03T08:52:19.000Z</time>
      </trkpt>
      <trkpt lat="42.93904" lon="0.57119">
        <ele>775</ele>
        <time>2019-02-03T08:52:20.000Z</time>
      </trkpt>
      <trkpt lat="42.93904" lon="0.57119">
        <ele>775</ele>
        <time>2019-02-03T08:52:21.000Z</time>
      </trkpt>
      <trkpt lat="42.93904" lon="0.57119">
        <ele>775</ele>
        <time>2019-02-03T08:52:22.000Z</time>
      </trkpt>
      <trkpt lat="42.93904" lon="0.57119">
        <ele>775</ele>
        <time>2019-02-03T08:52:23.000Z</time>
      </trkpt>
      <trkpt lat="42.93904" lon="0.57119">
        <ele>775</ele>
        <time>2019-02-03T08:52:24.000Z</time>
      </trkpt>
      <trkpt lat="42.93904" lon="0.57119">
        <ele>775</ele>
        <time>2019-02-03T08:52:25.000Z</time>
      </trkpt>
      <trkpt lat="42.93904" lon="0.57119">
        <ele>775</ele>
        <time>2019-02-03T08:52:26.000Z</time>
      </trkpt>
      <trkpt lat="42.93904" lon="0.57119">
        <ele>775</ele>
        <time>2019-02-03T08:52:27.000Z</time>
      </trkpt>
      <trkpt lat="42.93904" lon="0.57119">
        <ele>775</ele>
        <time>2019-02-03T08:52:28.000Z</time>
      </trkpt>
      <trkpt lat="42.93904" lon="0.57119">
        <ele>775</ele>
        <time>2019-02-03T08:52:29.000Z</time>
      </trkpt>
      <trkpt lat="42.93904" lon="0.57119">
        <ele>775</ele>
        <time>2019-02-03T08:52:30.000Z</time>
      </trkpt>
      <trkpt lat="42.93904" lon="0.57119">
        <ele>775</ele>
        <time>2019-02-03T08:52:31.000Z</time>
      </trkpt>
      <trkpt lat="42.93904" lon="0.57119">
        <ele>775</ele>
        <time>2019-02-03T08:52:32.000Z</time>
      </trkpt>
      <trkpt lat="42.93904" lon="0.5712">
        <ele>775</ele>
        <time>2019-02-03T08:52:33.000Z</time>
      </trkpt>
      <trkpt lat="42.93904" lon="0.5712">
        <ele>775</ele>
        <time>2019-02-03T08:52:34.000Z</time>
      </trkpt>
      <trkpt lat="42.93904" lon="0.57121">
        <ele>775</ele>
        <time>2019-02-03T08:52:35.000Z</time>
      </trkpt>
      <trkpt lat="42.93904" lon="0.57121">
        <ele>775</ele>
        <time>2019-02-03T08:52:36.000Z</time>
      </trkpt>
      <trkpt lat="42.93904" lon="0.57121">
        <ele>775</ele>
        <time>2019-02-03T08:52:37.000Z</time>
      </trkpt>
      <trkpt lat="42.93904" lon="0.57122">
        <ele>775</ele>
        <time>2019-02-03T08:52:38.000Z</time>
      </trkpt>
      <trkpt lat="42.93904" lon="0.57122">
        <ele>775</ele>
        <time>2019-02-03T08:52:39.000Z</time>
      </trkpt>
      <trkpt lat="42.93904" lon="0.57122">
        <ele>775</ele>
        <time>2019-02-03T08:52:40.000Z</time>
      </trkpt>
      <trkpt lat="42.93904" lon="0.57122">
        <ele>775</ele>
        <time>2019-02-03T08:52:41.000Z</time>
      </trkpt>
      <trkpt lat="42.93903" lon="0.57122">
        <ele>775</ele>
        <time>2019-02-03T08:52:42.000Z</time>
      </trkpt>
      <trkpt lat="42.93903" lon="0.57122">
        <ele>775</ele>
        <time>2019-02-03T08:52:43.000Z</time>
      </trkpt>
      <trkpt lat="42.93903" lon="0.57122">
        <ele>775</ele>
        <time>2019-02-03T08:52:44.000Z</time>
      </trkpt>
      <trkpt lat="42.93903" lon="0.57122">
        <ele>775</ele>
        <time>2019-02-03T08:52:45.000Z</time>
      </trkpt>
      <trkpt lat="42.93903" lon="0.57122">
        <ele>775</ele>
        <time>2019-02-03T08:52:46.000Z</time>
      </trkpt>
      <trkpt lat="42.93903" lon="0.57123">
        <ele>775</ele>
        <time>2019-02-03T08:52:47.000Z</time>
      </trkpt>
      <trkpt lat="42.93902" lon="0.57123">
        <ele>775</ele>
        <time>2019-02-03T08:52:48.000Z</time>
      </trkpt>
      <trkpt lat="42.93902" lon="0.57123">
        <ele>775</ele>
        <time>2019-02-03T08:52:49.000Z</time>
      </trkpt>
      <trkpt lat="42.93902" lon="0.57123">
        <ele>775</ele>
        <time>2019-02-03T08:52:50.000Z</time>
      </trkpt>
      <trkpt lat="42.93902" lon="0.57123">
        <ele>775</ele>
        <time>2019-02-03T08:52:51.000Z</time>
      </trkpt>
      <trkpt lat="42.93902" lon="0.57123">
        <ele>775</ele>
        <time>2019-02-03T08:52:52.000Z</time>
      </trkpt>
      <trkpt lat="42.93902" lon="0.57123">
        <ele>775</ele>
        <time>2019-02-03T08:52:53.000Z</time>
      </trkpt>
      <trkpt lat="42.93902" lon="0.57123">
        <ele>775</ele>
        <time>2019-02-03T08:52:54.000Z</time>
      </trkpt>
      <trkpt lat="42.93902" lon="0.57124">
        <ele>775</ele>
        <time>2019-02-03T08:52:55.000Z</time>
      </trkpt>
      <trkpt lat="42.93901" lon="0.57124">
        <ele>775</ele>
        <time>2019-02-03T08:52:56.000Z</time>
      </trkpt>
      <trkpt lat="42.93901" lon="0.57124">
        <ele>775</ele>
        <time>2019-02-03T08:52:57.000Z</time>
      </trkpt>
      <trkpt lat="42.93901" lon="0.57124">
        <ele>775</ele>
        <time>2019-02-03T08:52:58.000Z</time>
      </trkpt>
      <trkpt lat="42.93901" lon="0.57124">
        <ele>775</ele>
        <time>2019-02-03T08:52:59.000Z</time>
      </trkpt>
      <trkpt lat="42.93901" lon="0.57124">
        <ele>775</ele>
        <time>2019-02-03T08:53:00.000Z</time>
      </trkpt>
      <trkpt lat="42.93902" lon="0.57123">
        <ele>775</ele>
        <time>2019-02-03T08:53:01.000Z</time>
      </trkpt>
      <trkpt lat="42.93902" lon="0.57123">
        <ele>775</ele>
        <time>2019-02-03T08:53:02.000Z</time>
      </trkpt>
      <trkpt lat="42.93902" lon="0.57123">
        <ele>775</ele>
        <time>2019-02-03T08:53:03.000Z</time>
      </trkpt>
      <trkpt lat="42.93902" lon="0.57123">
        <ele>775</ele>
        <time>2019-02-03T08:53:04.000Z</time>
      </trkpt>
      <trkpt lat="42.93902" lon="0.57123">
        <ele>775</ele>
        <time>2019-02-03T08:53:05.000Z</time>
      </trkpt>
      <trkpt lat="42.93902" lon="0.57123">
        <ele>775</ele>
        <time>2019-02-03T08:53:06.000Z</time>
      </trkpt>
      <trkpt lat="42.93902" lon="0.57123">
        <ele>775</ele>
        <time>2019-02-03T08:53:07.000Z</time>
      </trkpt>
      <trkpt lat="42.93902" lon="0.57123">
        <ele>775</ele>
        <time>2019-02-03T08:53:08.000Z</time>
      </trkpt>
      <trkpt lat="42.93902" lon="0.57123">
        <ele>775</ele>
        <time>2019-02-03T08:53:09.000Z</time>
      </trkpt>
      <trkpt lat="42.93902" lon="0.57123">
        <ele>775</ele>
        <time>2019-02-03T08:53:10.000Z</time>
      </trkpt>
      <trkpt lat="42.93902" lon="0.57123">
        <ele>775</ele>
        <time>2019-02-03T08:53:11.000Z</time>
      </trkpt>
      <trkpt lat="42.93902" lon="0.57123">
        <ele>775</ele>
        <time>2019-02-03T08:53:12.000Z</time>
      </trkpt>
      <trkpt lat="42.93902" lon="0.57123">
        <ele>775</ele>
        <time>2019-02-03T08:53:13.000Z</time>
      </trkpt>
      <trkpt lat="42.93902" lon="0.57123">
        <ele>775</ele>
        <time>2019-02-03T08:53:14.000Z</time>
      </trkpt>
      <trkpt lat="42.93902" lon="0.57123">
        <ele>775</ele>
        <time>2019-02-03T08:53:15.000Z</time>
      </trkpt>
      <trkpt lat="42.93902" lon="0.57123">
        <ele>775</ele>
        <time>2019-02-03T08:53:16.000Z</time>
      </trkpt>
      <trkpt lat="42.93902" lon="0.57123">
        <ele>775</ele>
        <time>2019-02-03T08:53:17.000Z</time>
      </trkpt>
      <trkpt lat="42.93902" lon="0.57123">
        <ele>775</ele>
        <time>2019-02-03T08:53:18.000Z</time>
      </trkpt>
      <trkpt lat="42.93902" lon="0.57123">
        <ele>775</ele>
        <time>2019-02-03T08:53:19.000Z</time>
      </trkpt>
      <trkpt lat="42.93902" lon="0.57123">
        <ele>775</ele>
        <time>2019-02-03T08:53:20.000Z</time>
      </trkpt>
      <trkpt lat="42.93902" lon="0.57123">
        <ele>775</ele>
        <time>2019-02-03T08:53:21.000Z</time>
      </trkpt>
      <trkpt lat="42.93902" lon="0.57123">
        <ele>775</ele>
        <time>2019-02-03T08:53:22.000Z</time>
      </trkpt>
      <trkpt lat="42.93902" lon="0.57123">
        <ele>775</ele>
        <time>2019-02-03T08:53:23.000Z</time>
      </trkpt>
      <trkpt lat="42.93902" lon="0.57123">
        <ele>775</ele>
        <time>2019-02-03T08:53:24.000Z</time>
      </trkpt>
      <trkpt lat="42.93902" lon="0.57123">
        <ele>775</ele>
        <time>2019-02-03T08:53:25.000Z</time>
      </trkpt>
      <trkpt lat="42.93902" lon="0.57123">
        <ele>775</ele>
        <time>2019-02-03T08:53:26.000Z</time>
      </trkpt>
      <trkpt lat="42.93902" lon="0.57123">
        <ele>775</ele>
        <time>2019-02-03T08:53:27.000Z</time>
      </trkpt>
      <trkpt lat="42.93902" lon="0.57123">
        <ele>775</ele>
        <time>2019-02-03T08:53:28.000Z</time>
      </trkpt>
      <trkpt lat="42.93902" lon="0.57123">
        <ele>775</ele>
        <time>2019-02-03T08:53:29.000Z</time>
      </trkpt>
      <trkpt lat="42.93902" lon="0.57123">
        <ele>775</ele>
        <time>2019-02-03T08:53:30.000Z</time>
      </trkpt>
      <trkpt lat="42.93902" lon="0.57123">
        <ele>775</ele>
        <time>2019-02-03T08:53:31.000Z</time>
      </trkpt>
      <trkpt lat="42.93902" lon="0.57123">
        <ele>775</ele>
        <time>2019-02-03T08:53:32.000Z</time>
      </trkpt>
      <trkpt lat="42.93902" lon="0.57123">
        <ele>775</ele>
        <time>2019-02-03T08:53:33.000Z</time>
      </trkpt>
      <trkpt lat="42.93902" lon="0.57123">
        <ele>775</ele>
        <time>2019-02-03T08:53:34.000Z</time>
      </trkpt>
      <trkpt lat="42.93902" lon="0.57123">
        <ele>775</ele>
        <time>2019-02-03T08:53:35.000Z</time>
      </trkpt>
      <trkpt lat="42.93902" lon="0.57123">
        <ele>775</ele>
        <time>2019-02-03T08:53:36.000Z</time>
      </trkpt>
      <trkpt lat="42.93902" lon="0.57123">
        <ele>775</ele>
        <time>2019-02-03T08:53:37.000Z</time>
      </trkpt>
      <trkpt lat="42.93902" lon="0.57123">
        <ele>775</ele>
        <time>2019-02-03T08:53:38.000Z</time>
      </trkpt>
      <trkpt lat="42.93902" lon="0.57123">
        <ele>775</ele>
        <time>2019-02-03T08:53:39.000Z</time>
      </trkpt>
      <trkpt lat="42.93902" lon="0.57123">
        <ele>775</ele>
        <time>2019-02-03T08:53:40.000Z</time>
      </trkpt>
      <trkpt lat="42.93902" lon="0.57123">
        <ele>775</ele>
        <time>2019-02-03T08:53:41.000Z</time>
      </trkpt>
      <trkpt lat="42.93902" lon="0.57123">
        <ele>775</ele>
        <time>2019-02-03T08:53:42.000Z</time>
      </trkpt>
      <trkpt lat="42.93902" lon="0.57123">
        <ele>775</ele>
        <time>2019-02-03T08:53:43.000Z</time>
      </trkpt>
      <trkpt lat="42.93902" lon="0.57123">
        <ele>775</ele>
        <time>2019-02-03T08:53:44.000Z</time>
      </trkpt>
      <trkpt lat="42.93902" lon="0.57123">
        <ele>775</ele>
        <time>2019-02-03T08:53:45.000Z</time>
      </trkpt>
      <trkpt lat="42.93902" lon="0.57123">
        <ele>775</ele>
        <time>2019-02-03T08:53:46.000Z</time>
      </trkpt>
      <trkpt lat="42.93902" lon="0.57123">
        <ele>775</ele>
        <time>2019-02-03T08:53:47.000Z</time>
      </trkpt>
      <trkpt lat="42.93902" lon="0.57123">
        <ele>775</ele>
        <time>2019-02-03T08:53:48.000Z</time>
      </trkpt>
      <trkpt lat="42.93902" lon="0.57123">
        <ele>775</ele>
        <time>2019-02-03T08:53:49.000Z</time>
      </trkpt>
      <trkpt lat="42.93902" lon="0.57124">
        <ele>775</ele>
        <time>2019-02-03T08:53:50.000Z</time>
      </trkpt>
      <trkpt lat="42.93902" lon="0.57124">
        <ele>775</ele>
        <time>2019-02-03T08:53:51.000Z</time>
      </trkpt>
      <trkpt lat="42.93902" lon="0.57125">
        <ele>775</ele>
        <time>2019-02-03T08:53:52.000Z</time>
      </trkpt>
      <trkpt lat="42.93903" lon="0.57125">
        <ele>775</ele>
        <time>2019-02-03T08:53:53.000Z</time>
      </trkpt>
      <trkpt lat="42.93903" lon="0.57125">
        <ele>775</ele>
        <time>2019-02-03T08:53:54.000Z</time>
      </trkpt>
      <trkpt lat="42.93904" lon="0.57126">
        <ele>775</ele>
        <time>2019-02-03T08:53:55.000Z</time>
      </trkpt>
      <trkpt lat="42.93904" lon="0.57127">
        <ele>775</ele>
        <time>2019-02-03T08:53:56.000Z</time>
      </trkpt>
      <trkpt lat="42.93904" lon="0.57127">
        <ele>775</ele>
        <time>2019-02-03T08:53:57.000Z</time>
      </trkpt>
      <trkpt lat="42.93905" lon="0.57128">
        <ele>775</ele>
        <time>2019-02-03T08:53:58.000Z</time>
      </trkpt>
      <trkpt lat="42.93905" lon="0.57129">
        <ele>775</ele>
        <time>2019-02-03T08:53:59.000Z</time>
      </trkpt>
      <trkpt lat="42.93905" lon="0.5713">
        <ele>775</ele>
        <time>2019-02-03T08:54:00.000Z</time>
      </trkpt>
      <trkpt lat="42.93905" lon="0.57131">
        <ele>775</ele>
        <time>2019-02-03T08:54:01.000Z</time>
      </trkpt>
      <trkpt lat="42.93905" lon="0.57132">
        <ele>775</ele>
        <time>2019-02-03T08:54:02.000Z</time>
      </trkpt>
      <trkpt lat="42.93906" lon="0.57132">
        <ele>775</ele>
        <time>2019-02-03T08:54:03.000Z</time>
      </trkpt>
      <trkpt lat="42.93906" lon="0.57133">
        <ele>775</ele>
        <time>2019-02-03T08:54:04.000Z</time>
      </trkpt>
      <trkpt lat="42.93906" lon="0.57133">
        <ele>775</ele>
        <time>2019-02-03T08:54:05.000Z</time>
      </trkpt>
      <trkpt lat="42.93906" lon="0.57133">
        <ele>775</ele>
        <time>2019-02-03T08:54:06.000Z</time>
      </trkpt>
      <trkpt lat="42.93906" lon="0.57133">
        <ele>775</ele>
        <time>2019-02-03T08:54:07.000Z</time>
      </trkpt>
      <trkpt lat="42.93906" lon="0.57133">
        <ele>775</ele>
        <time>2019-02-03T08:54:08.000Z</time>
      </trkpt>
      <trkpt lat="42.93906" lon="0.57134">
        <ele>775</ele>
        <time>2019-02-03T08:54:09.000Z</time>
      </trkpt>
      <trkpt lat="42.93906" lon="0.57134">
        <ele>775</ele>
        <time>2019-02-03T08:54:10.000Z</time>
      </trkpt>
      <trkpt lat="42.93907" lon="0.57134">
        <ele>775</ele>
        <time>2019-02-03T08:54:11.000Z</time>
      </trkpt>
      <trkpt lat="42.93907" lon="0.57134">
        <ele>775</ele>
        <time>2019-02-03T08:54:12.000Z</time>
      </trkpt>
      <trkpt lat="42.93907" lon="0.57135">
        <ele>775</ele>
        <time>2019-02-03T08:54:13.000Z</time>
      </trkpt>
      <trkpt lat="42.93907" lon="0.57135">
        <ele>775</ele>
        <time>2019-02-03T08:54:14.000Z</time>
      </trkpt>
      <trkpt lat="42.93907" lon="0.57135">
        <ele>775</ele>
        <time>2019-02-03T08:54:15.000Z</time>
      </trkpt>
      <trkpt lat="42.93907" lon="0.57135">
        <ele>775</ele>
        <time>2019-02-03T08:54:16.000Z</time>
      </trkpt>
      <trkpt lat="42.93907" lon="0.57135">
        <ele>775</ele>
        <time>2019-02-03T08:54:17.000Z</time>
      </trkpt>
      <trkpt lat="42.93908" lon="0.57135">
        <ele>775</ele>
        <time>2019-02-03T08:54:18.000Z</time>
      </trkpt>
      <trkpt lat="42.93908" lon="0.57135">
        <ele>775</ele>
        <time>2019-02-03T08:54:19.000Z</time>
      </trkpt>
      <trkpt lat="42.93908" lon="0.57135">
        <ele>775</ele>
        <time>2019-02-03T08:54:20.000Z</time>
      </trkpt>
      <trkpt lat="42.93908" lon="0.57134">
        <ele>775</ele>
        <time>2019-02-03T08:54:21.000Z</time>
      </trkpt>
      <trkpt lat="42.93908" lon="0.57134">
        <ele>775</ele>
        <time>2019-02-03T08:54:22.000Z</time>
      </trkpt>
      <trkpt lat="42.93908" lon="0.57135">
        <ele>775</ele>
        <time>2019-02-03T08:54:23.000Z</time>
      </trkpt>
      <trkpt lat="42.93908" lon="0.57135">
        <ele>775</ele>
        <time>2019-02-03T08:54:24.000Z</time>
      </trkpt>
      <trkpt lat="42.93908" lon="0.57134">
        <ele>775</ele>
        <time>2019-02-03T08:54:25.000Z</time>
      </trkpt>
      <trkpt lat="42.93908" lon="0.57134">
        <ele>775</ele>
        <time>2019-02-03T08:54:26.000Z</time>
      </trkpt>
      <trkpt lat="42.93908" lon="0.57134">
        <ele>775</ele>
        <time>2019-02-03T08:54:27.000Z</time>
      </trkpt>
      <trkpt lat="42.93908" lon="0.57134">
        <ele>775</ele>
        <time>2019-02-03T08:54:28.000Z</time>
      </trkpt>
      <trkpt lat="42.93908" lon="0.57134">
        <ele>775</ele>
        <time>2019-02-03T08:54:29.000Z</time>
      </trkpt>
      <trkpt lat="42.93908" lon="0.57134">
        <ele>775</ele>
        <time>2019-02-03T08:54:30.000Z</time>
      </trkpt>
      <trkpt lat="42.93908" lon="0.57134">
        <ele>775</ele>
        <time>2019-02-03T08:54:31.000Z</time>
      </trkpt>
      <trkpt lat="42.93909" lon="0.57134">
        <ele>775</ele>
        <time>2019-02-03T08:54:32.000Z</time>
      </trkpt>
      <trkpt lat="42.93909" lon="0.57134">
        <ele>775</ele>
        <time>2019-02-03T08:54:33.000Z</time>
      </trkpt>
      <trkpt lat="42.93908" lon="0.57134">
        <ele>775</ele>
        <time>2019-02-03T08:54:34.000Z</time>
      </trkpt>
      <trkpt lat="42.93908" lon="0.57134">
        <ele>775</ele>
        <time>2019-02-03T08:54:35.000Z</time>
      </trkpt>
      <trkpt lat="42.93908" lon="0.57134">
        <ele>775</ele>
        <time>2019-02-03T08:54:36.000Z</time>
      </trkpt>
      <trkpt lat="42.93908" lon="0.57134">
        <ele>775</ele>
        <time>2019-02-03T08:54:37.000Z</time>
      </trkpt>
      <trkpt lat="42.93908" lon="0.57134">
        <ele>775</ele>
        <time>2019-02-03T08:54:38.000Z</time>
      </trkpt>
      <trkpt lat="42.93908" lon="0.57134">
        <ele>775</ele>
        <time>2019-02-03T08:54:39.000Z</time>
      </trkpt>
      <trkpt lat="42.93908" lon="0.57134">
        <ele>775</ele>
        <time>2019-02-03T08:54:40.000Z</time>
      </trkpt>
      <trkpt lat="42.93908" lon="0.57134">
        <ele>775</ele>
        <time>2019-02-03T08:54:41.000Z</time>
      </trkpt>
      <trkpt lat="42.93908" lon="0.57134">
        <ele>775</ele>
        <time>2019-02-03T08:54:42.000Z</time>
      </trkpt>
      <trkpt lat="42.93908" lon="0.57134">
        <ele>775</ele>
        <time>2019-02-03T08:54:43.000Z</time>
      </trkpt>
      <trkpt lat="42.93908" lon="0.57134">
        <ele>775</ele>
        <time>2019-02-03T08:54:44.000Z</time>
      </trkpt>
      <trkpt lat="42.93908" lon="0.57134">
        <ele>775</ele>
        <time>2019-02-03T08:54:45.000Z</time>
      </trkpt>
      <trkpt lat="42.93908" lon="0.57134">
        <ele>775</ele>
        <time>2019-02-03T08:54:46.000Z</time>
      </trkpt>
      <trkpt lat="42.93908" lon="0.57134">
        <ele>775</ele>
        <time>2019-02-03T08:54:47.000Z</time>
      </trkpt>
      <trkpt lat="42.93909" lon="0.57134">
        <ele>775</ele>
        <time>2019-02-03T08:54:48.000Z</time>
      </trkpt>
      <trkpt lat="42.93909" lon="0.57134">
        <ele>775</ele>
        <time>2019-02-03T08:54:49.000Z</time>
      </trkpt>
      <trkpt lat="42.93909" lon="0.57134">
        <ele>775</ele>
        <time>2019-02-03T08:54:50.000Z</time>
      </trkpt>
      <trkpt lat="42.93908" lon="0.57134">
        <ele>775</ele>
        <time>2019-02-03T08:54:51.000Z</time>
      </trkpt>
      <trkpt lat="42.93908" lon="0.57134">
        <ele>775</ele>
        <time>2019-02-03T08:54:52.000Z</time>
      </trkpt>
      <trkpt lat="42.93908" lon="0.57134">
        <ele>775</ele>
        <time>2019-02-03T08:54:53.000Z</time>
      </trkpt>
      <trkpt lat="42.93908" lon="0.57134">
        <ele>775</ele>
        <time>2019-02-03T08:54:54.000Z</time>
      </trkpt>
      <trkpt lat="42.93908" lon="0.57134">
        <ele>775</ele>
        <time>2019-02-03T08:54:55.000Z</time>
      </trkpt>
      <trkpt lat="42.93908" lon="0.57134">
        <ele>775</ele>
        <time>2019-02-03T08:54:56.000Z</time>
      </trkpt>
      <trkpt lat="42.93908" lon="0.57134">
        <ele>775</ele>
        <time>2019-02-03T08:54:57.000Z</time>
      </trkpt>
      <trkpt lat="42.93908" lon="0.57134">
        <ele>775</ele>
        <time>2019-02-03T08:54:58.000Z</time>
      </trkpt>
      <trkpt lat="42.93907" lon="0.57134">
        <ele>775</ele>
        <time>2019-02-03T08:54:59.000Z</time>
      </trkpt>
      <trkpt lat="42.93907" lon="0.57134">
        <ele>775</ele>
        <time>2019-02-03T08:55:00.000Z</time>
      </trkpt>
      <trkpt lat="42.93907" lon="0.57134">
        <ele>775</ele>
        <time>2019-02-03T08:55:01.000Z</time>
      </trkpt>
      <trkpt lat="42.93907" lon="0.57134">
        <ele>775</ele>
        <time>2019-02-03T08:55:02.000Z</time>
      </trkpt>
      <trkpt lat="42.93906" lon="0.57134">
        <ele>775</ele>
        <time>2019-02-03T08:55:03.000Z</time>
      </trkpt>
      <trkpt lat="42.93906" lon="0.57134">
        <ele>775</ele>
        <time>2019-02-03T08:55:04.000Z</time>
      </trkpt>
      <trkpt lat="42.93906" lon="0.57134">
        <ele>775</ele>
        <time>2019-02-03T08:55:05.000Z</time>
      </trkpt>
      <trkpt lat="42.93906" lon="0.57134">
        <ele>775</ele>
        <time>2019-02-03T08:55:06.000Z</time>
      </trkpt>
      <trkpt lat="42.93906" lon="0.57134">
        <ele>775</ele>
        <time>2019-02-03T08:55:07.000Z</time>
      </trkpt>
      <trkpt lat="42.93906" lon="0.57134">
        <ele>775</ele>
        <time>2019-02-03T08:55:08.000Z</time>
      </trkpt>
      <trkpt lat="42.93906" lon="0.57134">
        <ele>775</ele>
        <time>2019-02-03T08:55:09.000Z</time>
      </trkpt>
      <trkpt lat="42.93906" lon="0.57134">
        <ele>775</ele>
        <time>2019-02-03T08:55:10.000Z</time>
      </trkpt>
      <trkpt lat="42.93906" lon="0.57134">
        <ele>775</ele>
        <time>2019-02-03T08:55:11.000Z</time>
      </trkpt>
      <trkpt lat="42.93906" lon="0.57134">
        <ele>775</ele>
        <time>2019-02-03T08:55:12.000Z</time>
      </trkpt>
      <trkpt lat="42.93906" lon="0.57134">
        <ele>775</ele>
        <time>2019-02-03T08:55:13.000Z</time>
      </trkpt>
      <trkpt lat="42.93906" lon="0.57134">
        <ele>775</ele>
        <time>2019-02-03T08:55:14.000Z</time>
      </trkpt>
      <trkpt lat="42.93906" lon="0.57134">
        <ele>775</ele>
        <time>2019-02-03T08:55:15.000Z</time>
      </trkpt>
      <trkpt lat="42.93906" lon="0.57134">
        <ele>775</ele>
        <time>2019-02-03T08:55:16.000Z</time>
      </trkpt>
      <trkpt lat="42.93906" lon="0.57134">
        <ele>775</ele>
        <time>2019-02-03T08:55:17.000Z</time>
      </trkpt>
      <trkpt lat="42.93906" lon="0.57134">
        <ele>775</ele>
        <time>2019-02-03T08:55:18.000Z</time>
      </trkpt>
      <trkpt lat="42.93906" lon="0.57134">
        <ele>775</ele>
        <time>2019-02-03T08:55:19.000Z</time>
      </trkpt>
      <trkpt lat="42.93906" lon="0.57134">
        <ele>775</ele>
        <time>2019-02-03T08:55:20.000Z</time>
      </trkpt>
      <trkpt lat="42.93906" lon="0.57134">
        <ele>775</ele>
        <time>2019-02-03T08:55:21.000Z</time>
      </trkpt>
      <trkpt lat="42.93906" lon="0.57134">
        <ele>775</ele>
        <time>2019-02-03T08:55:22.000Z</time>
      </trkpt>
      <trkpt lat="42.93906" lon="0.57134">
        <ele>775</ele>
        <time>2019-02-03T08:55:23.000Z</time>
      </trkpt>
      <trkpt lat="42.93906" lon="0.57134">
        <ele>775</ele>
        <time>2019-02-03T08:55:24.000Z</time>
      </trkpt>
      <trkpt lat="42.93906" lon="0.57134">
        <ele>775</ele>
        <time>2019-02-03T08:55:25.000Z</time>
      </trkpt>
      <trkpt lat="42.93906" lon="0.57134">
        <ele>775</ele>
        <time>2019-02-03T08:55:26.000Z</time>
      </trkpt>
      <trkpt lat="42.93906" lon="0.57134">
        <ele>775</ele>
        <time>2019-02-03T08:55:27.000Z</time>
      </trkpt>
      <trkpt lat="42.93906" lon="0.57134">
        <ele>775</ele>
        <time>2019-02-03T08:55:28.000Z</time>
      </trkpt>
      <trkpt lat="42.93906" lon="0.57134">
        <ele>775</ele>
        <time>2019-02-03T08:55:29.000Z</time>
      </trkpt>
      <trkpt lat="42.93906" lon="0.57134">
        <ele>775</ele>
        <time>2019-02-03T08:55:30.000Z</time>
      </trkpt>
      <trkpt lat="42.93906" lon="0.57134">
        <ele>775</ele>
        <time>2019-02-03T08:55:31.000Z</time>
      </trkpt>
      <trkpt lat="42.93906" lon="0.57134">
        <ele>775</ele>
        <time>2019-02-03T08:55:32.000Z</time>
      </trkpt>
      <trkpt lat="42.93906" lon="0.57134">
        <ele>775</ele>
        <time>2019-02-03T08:55:33.000Z</time>
      </trkpt>
      <trkpt lat="42.93906" lon="0.57134">
        <ele>775</ele>
        <time>2019-02-03T08:55:34.000Z</time>
      </trkpt>
      <trkpt lat="42.93906" lon="0.57134">
        <ele>775</ele>
        <time>2019-02-03T08:55:35.000Z</time>
      </trkpt>
      <trkpt lat="42.93906" lon="0.57134">
        <ele>775</ele>
        <time>2019-02-03T08:55:36.000Z</time>
      </trkpt>
      <trkpt lat="42.93906" lon="0.57134">
        <ele>775</ele>
        <time>2019-02-03T08:55:37.000Z</time>
      </trkpt>
      <trkpt lat="42.93906" lon="0.57134">
        <ele>775</ele>
        <time>2019-02-03T08:55:38.000Z</time>
      </trkpt>
      <trkpt lat="42.93906" lon="0.57134">
        <ele>775</ele>
        <time>2019-02-03T08:55:39.000Z</time>
      </trkpt>
      <trkpt lat="42.93906" lon="0.57134">
        <ele>775</ele>
        <time>2019-02-03T08:55:40.000Z</time>
      </trkpt>
      <trkpt lat="42.93906" lon="0.57134">
        <ele>775</ele>
        <time>2019-02-03T08:55:41.000Z</time>
      </trkpt>
      <trkpt lat="42.93906" lon="0.57134">
        <ele>775</ele>
        <time>2019-02-03T08:55:42.000Z</time>
      </trkpt>
      <trkpt lat="42.93906" lon="0.57134">
        <ele>775</ele>
        <time>2019-02-03T08:55:43.000Z</time>
      </trkpt>
      <trkpt lat="42.93906" lon="0.57134">
        <ele>775</ele>
        <time>2019-02-03T08:55:44.000Z</time>
      </trkpt>
      <trkpt lat="42.93906" lon="0.57134">
        <ele>775</ele>
        <time>2019-02-03T08:55:45.000Z</time>
      </trkpt>
      <trkpt lat="42.93906" lon="0.57134">
        <ele>775</ele>
        <time>2019-02-03T08:55:46.000Z</time>
      </trkpt>
      <trkpt lat="42.93906" lon="0.57134">
        <ele>775</ele>
        <time>2019-02-03T08:55:47.000Z</time>
      </trkpt>
      <trkpt lat="42.93906" lon="0.57134">
        <ele>775</ele>
        <time>2019-02-03T08:55:48.000Z</time>
      </trkpt>
      <trkpt lat="42.93906" lon="0.57134">
        <ele>775</ele>
        <time>2019-02-03T08:55:49.000Z</time>
      </trkpt>
      <trkpt lat="42.93906" lon="0.57134">
        <ele>775</ele>
        <time>2019-02-03T08:55:50.000Z</time>
      </trkpt>
      <trkpt lat="42.93906" lon="0.57134">
        <ele>775</ele>
        <time>2019-02-03T08:55:51.000Z</time>
      </trkpt>
      <trkpt lat="42.93906" lon="0.57134">
        <ele>775</ele>
        <time>2019-02-03T08:55:52.000Z</time>
      </trkpt>
      <trkpt lat="42.93906" lon="0.57134">
        <ele>775</ele>
        <time>2019-02-03T08:55:53.000Z</time>
      </trkpt>
      <trkpt lat="42.93906" lon="0.57134">
        <ele>775</ele>
        <time>2019-02-03T08:55:54.000Z</time>
      </trkpt>
      <trkpt lat="42.93906" lon="0.57134">
        <ele>775</ele>
        <time>2019-02-03T08:55:55.000Z</time>
      </trkpt>
      <trkpt lat="42.93906" lon="0.57134">
        <ele>775</ele>
        <time>2019-02-03T08:55:56.000Z</time>
      </trkpt>
      <trkpt lat="42.93906" lon="0.57134">
        <ele>775</ele>
        <time>2019-02-03T08:55:57.000Z</time>
      </trkpt>
      <trkpt lat="42.93906" lon="0.57134">
        <ele>775</ele>
        <time>2019-02-03T08:55:58.000Z</time>
      </trkpt>
      <trkpt lat="42.93906" lon="0.57133">
        <ele>775</ele>
        <time>2019-02-03T08:55:59.000Z</time>
      </trkpt>
      <trkpt lat="42.93906" lon="0.57134">
        <ele>775</ele>
        <time>2019-02-03T08:56:00.000Z</time>
      </trkpt>
      <trkpt lat="42.93906" lon="0.57134">
        <ele>775</ele>
        <time>2019-02-03T08:56:01.000Z</time>
      </trkpt>
      <trkpt lat="42.93907" lon="0.57134">
        <ele>775</ele>
        <time>2019-02-03T08:56:02.000Z</time>
      </trkpt>
      <trkpt lat="42.93907" lon="0.57135">
        <ele>775</ele>
        <time>2019-02-03T08:56:03.000Z</time>
      </trkpt>
      <trkpt lat="42.93907" lon="0.57135">
        <ele>775</ele>
        <time>2019-02-03T08:56:04.000Z</time>
      </trkpt>
      <trkpt lat="42.93908" lon="0.57136">
        <ele>775</ele>
        <time>2019-02-03T08:56:05.000Z</time>
      </trkpt>
      <trkpt lat="42.93908" lon="0.57137">
        <ele>775</ele>
        <time>2019-02-03T08:56:06.000Z</time>
      </trkpt>
      <trkpt lat="42.93909" lon="0.57137">
        <ele>775</ele>
        <time>2019-02-03T08:56:07.000Z</time>
      </trkpt>
      <trkpt lat="42.93909" lon="0.57138">
        <ele>775</ele>
        <time>2019-02-03T08:56:08.000Z</time>
      </trkpt>
      <trkpt lat="42.93909" lon="0.57138">
        <ele>775</ele>
        <time>2019-02-03T08:56:09.000Z</time>
      </trkpt>
      <trkpt lat="42.93909" lon="0.57138">
        <ele>775</ele>
        <time>2019-02-03T08:56:10.000Z</time>
      </trkpt>
      <trkpt lat="42.93909" lon="0.57138">
        <ele>775</ele>
        <time>2019-02-03T08:56:11.000Z</time>
      </trkpt>
      <trkpt lat="42.93909" lon="0.57138">
        <ele>775</ele>
        <time>2019-02-03T08:56:12.000Z</time>
      </trkpt>
      <trkpt lat="42.93909" lon="0.57138">
        <ele>775</ele>
        <time>2019-02-03T08:56:13.000Z</time>
      </trkpt>
      <trkpt lat="42.93909" lon="0.57138">
        <ele>774</ele>
        <time>2019-02-03T08:56:14.000Z</time>
      </trkpt>
      <trkpt lat="42.9391" lon="0.57138">
        <ele>774.5</ele>
        <time>2019-02-03T08:56:15.000Z</time>
      </trkpt>
      <trkpt lat="42.9391" lon="0.57138">
        <ele>775</ele>
        <time>2019-02-03T08:56:16.000Z</time>
      </trkpt>
      <trkpt lat="42.9391" lon="0.57138">
        <ele>774.7</ele>
        <time>2019-02-03T08:56:17.000Z</time>
      </trkpt>
      <trkpt lat="42.9391" lon="0.57138">
        <ele>774.3</ele>
        <time>2019-02-03T08:56:18.000Z</time>
      </trkpt>
      <trkpt lat="42.9391" lon="0.57138">
        <ele>774</ele>
        <time>2019-02-03T08:56:19.000Z</time>
      </trkpt>
      <trkpt lat="42.93911" lon="0.57138">
        <ele>774</ele>
        <time>2019-02-03T08:56:20.000Z</time>
      </trkpt>
      <trkpt lat="42.93911" lon="0.57138">
        <ele>774</ele>
        <time>2019-02-03T08:56:21.000Z</time>
      </trkpt>
      <trkpt lat="42.93911" lon="0.57138">
        <ele>774</ele>
        <time>2019-02-03T08:56:22.000Z</time>
      </trkpt>
      <trkpt lat="42.93911" lon="0.57138">
        <ele>774</ele>
        <time>2019-02-03T08:56:23.000Z</time>
      </trkpt>
      <trkpt lat="42.93911" lon="0.57138">
        <ele>774</ele>
        <time>2019-02-03T08:56:24.000Z</time>
      </trkpt>
      <trkpt lat="42.93911" lon="0.57138">
        <ele>774</ele>
        <time>2019-02-03T08:56:25.000Z</time>
      </trkpt>
      <trkpt lat="42.93911" lon="0.57138">
        <ele>774</ele>
        <time>2019-02-03T08:56:26.000Z</time>
      </trkpt>
      <trkpt lat="42.93911" lon="0.57138">
        <ele>774.3</ele>
        <time>2019-02-03T08:56:27.000Z</time>
      </trkpt>
      <trkpt lat="42.93911" lon="0.57138">
        <ele>774.7</ele>
        <time>2019-02-03T08:56:28.000Z</time>
      </trkpt>
      <trkpt lat="42.93911" lon="0.57138">
        <ele>775</ele>
        <time>2019-02-03T08:56:29.000Z</time>
      </trkpt>
      <trkpt lat="42.93911" lon="0.57138">
        <ele>775</ele>
        <time>2019-02-03T08:56:30.000Z</time>
      </trkpt>
      <trkpt lat="42.93911" lon="0.57138">
        <ele>774.7</ele>
        <time>2019-02-03T08:56:31.000Z</time>
      </trkpt>
      <trkpt lat="42.93911" lon="0.57138">
        <ele>774.3</ele>
        <time>2019-02-03T08:56:32.000Z</time>
      </trkpt>
      <trkpt lat="42.93911" lon="0.57138">
        <ele>774</ele>
        <time>2019-02-03T08:56:33.000Z</time>
      </trkpt>
      <trkpt lat="42.93911" lon="0.57138">
        <ele>774</ele>
        <time>2019-02-03T08:56:34.000Z</time>
      </trkpt>
      <trkpt lat="42.93911" lon="0.57138">
        <ele>774</ele>
        <time>2019-02-03T08:56:35.000Z</time>
      </trkpt>
      <trkpt lat="42.93911" lon="0.57138">
        <ele>774</ele>
        <time>2019-02-03T08:56:36.000Z</time>
      </trkpt>
      <trkpt lat="42.93911" lon="0.57138">
        <ele>774</ele>
        <time>2019-02-03T08:56:37.000Z</time>
      </trkpt>
      <trkpt lat="42.93911" lon="0.57138">
        <ele>774</ele>
        <time>2019-02-03T08:56:38.000Z</time>
      </trkpt>
      <trkpt lat="42.93911" lon="0.57138">
        <ele>774</ele>
        <time>2019-02-03T08:56:39.000Z</time>
      </trkpt>
      <trkpt lat="42.93911" lon="0.57138">
        <ele>774</ele>
        <time>2019-02-03T08:56:40.000Z</time>
      </trkpt>
      <trkpt lat="42.93911" lon="0.57138">
        <ele>774</ele>
        <time>2019-02-03T08:56:41.000Z</time>
      </trkpt>
      <trkpt lat="42.93911" lon="0.57138">
        <ele>774</ele>
        <time>2019-02-03T08:56:42.000Z</time>
      </trkpt>
      <trkpt lat="42.93911" lon="0.57138">
        <ele>774</ele>
        <time>2019-02-03T08:56:43.000Z</time>
      </trkpt>
      <trkpt lat="42.93911" lon="0.57138">
        <ele>774</ele>
        <time>2019-02-03T08:56:44.000Z</time>
      </trkpt>
      <trkpt lat="42.93911" lon="0.57138">
        <ele>774</ele>
        <time>2019-02-03T08:56:45.000Z</time>
      </trkpt>
      <trkpt lat="42.93911" lon="0.57138">
        <ele>774</ele>
        <time>2019-02-03T08:56:46.000Z</time>
      </trkpt>
      <trkpt lat="42.93911" lon="0.57138">
        <ele>774</ele>
        <time>2019-02-03T08:56:47.000Z</time>
      </trkpt>
      <trkpt lat="42.93911" lon="0.57138">
        <ele>774</ele>
        <time>2019-02-03T08:56:48.000Z</time>
      </trkpt>
      <trkpt lat="42.93911" lon="0.57138">
        <ele>774</ele>
        <time>2019-02-03T08:56:49.000Z</time>
      </trkpt>
      <trkpt lat="42.93911" lon="0.57138">
        <ele>774</ele>
        <time>2019-02-03T08:56:50.000Z</time>
      </trkpt>
      <trkpt lat="42.93911" lon="0.57138">
        <ele>774</ele>
        <time>2019-02-03T08:56:51.000Z</time>
      </trkpt>
      <trkpt lat="42.93911" lon="0.57138">
        <ele>774</ele>
        <time>2019-02-03T08:56:52.000Z</time>
      </trkpt>
      <trkpt lat="42.9391" lon="0.57137">
        <ele>774</ele>
        <time>2019-02-03T08:56:53.000Z</time>
      </trkpt>
      <trkpt lat="42.9391" lon="0.57136">
        <ele>774</ele>
        <time>2019-02-03T08:56:54.000Z</time>
      </trkpt>
      <trkpt lat="42.9391" lon="0.57135">
        <ele>774</ele>
        <time>2019-02-03T08:56:55.000Z</time>
      </trkpt>
      <trkpt lat="42.9391" lon="0.57135">
        <ele>774</ele>
        <time>2019-02-03T08:56:56.000Z</time>
      </trkpt>
      <trkpt lat="42.93911" lon="0.57135">
        <ele>774</ele>
        <time>2019-02-03T08:56:57.000Z</time>
      </trkpt>
      <trkpt lat="42.9391" lon="0.57136">
        <ele>774</ele>
        <time>2019-02-03T08:56:58.000Z</time>
      </trkpt>
      <trkpt lat="42.9391" lon="0.57136">
        <ele>774</ele>
        <time>2019-02-03T08:56:59.000Z</time>
      </trkpt>
      <trkpt lat="42.9391" lon="0.57137">
        <ele>774</ele>
        <time>2019-02-03T08:57:00.000Z</time>
      </trkpt>
      <trkpt lat="42.9391" lon="0.57137">
        <ele>774</ele>
        <time>2019-02-03T08:57:01.000Z</time>
      </trkpt>
      <trkpt lat="42.93909" lon="0.57137">
        <ele>774</ele>
        <time>2019-02-03T08:57:02.000Z</time>
      </trkpt>
      <trkpt lat="42.93909" lon="0.57137">
        <ele>774</ele>
        <time>2019-02-03T08:57:03.000Z</time>
      </trkpt>
      <trkpt lat="42.93909" lon="0.57138">
        <ele>774</ele>
        <time>2019-02-03T08:57:04.000Z</time>
      </trkpt>
      <trkpt lat="42.93908" lon="0.57138">
        <ele>774</ele>
        <time>2019-02-03T08:57:05.000Z</time>
      </trkpt>
      <trkpt lat="42.93908" lon="0.57138">
        <ele>774</ele>
        <time>2019-02-03T08:57:06.000Z</time>
      </trkpt>
      <trkpt lat="42.93908" lon="0.57138">
        <ele>774</ele>
        <time>2019-02-03T08:57:07.000Z</time>
      </trkpt>
      <trkpt lat="42.93908" lon="0.57138">
        <ele>774</ele>
        <time>2019-02-03T08:57:08.000Z</time>
      </trkpt>
      <trkpt lat="42.93908" lon="0.57138">
        <ele>774</ele>
        <time>2019-02-03T08:57:09.000Z</time>
      </trkpt>
      <trkpt lat="42.93908" lon="0.57138">
        <ele>774</ele>
        <time>2019-02-03T08:57:10.000Z</time>
      </trkpt>
      <trkpt lat="42.93908" lon="0.57138">
        <ele>774</ele>
        <time>2019-02-03T08:57:11.000Z</time>
      </trkpt>
      <trkpt lat="42.93908" lon="0.57138">
        <ele>774</ele>
        <time>2019-02-03T08:57:12.000Z</time>
      </trkpt>
      <trkpt lat="42.93908" lon="0.57138">
        <ele>774</ele>
        <time>2019-02-03T08:57:13.000Z</time>
      </trkpt>
      <trkpt lat="42.93908" lon="0.57138">
        <ele>774</ele>
        <time>2019-02-03T08:57:14.000Z</time>
      </trkpt>
      <trkpt lat="42.93909" lon="0.57138">
        <ele>774</ele>
        <time>2019-02-03T08:57:15.000Z</time>
      </trkpt>
      <trkpt lat="42.93909" lon="0.57138">
        <ele>774</ele>
        <time>2019-02-03T08:57:16.000Z</time>
      </trkpt>
      <trkpt lat="42.93909" lon="0.57138">
        <ele>774</ele>
        <time>2019-02-03T08:57:17.000Z</time>
      </trkpt>
      <trkpt lat="42.93909" lon="0.57138">
        <ele>774</ele>
        <time>2019-02-03T08:57:18.000Z</time>
      </trkpt>
      <trkpt lat="42.93909" lon="0.57138">
        <ele>774</ele>
        <time>2019-02-03T08:57:19.000Z</time>
      </trkpt>
      <trkpt lat="42.93909" lon="0.57138">
        <ele>775</ele>
        <time>2019-02-03T08:57:20.000Z</time>
      </trkpt>
      <trkpt lat="42.93909" lon="0.57138">
        <ele>775</ele>
        <time>2019-02-03T08:57:21.000Z</time>
      </trkpt>
      <trkpt lat="42.93909" lon="0.57138">
        <ele>775</ele>
        <time>2019-02-03T08:57:22.000Z</time>
      </trkpt>
      <trkpt lat="42.93909" lon="0.57138">
        <ele>775</ele>
        <time>2019-02-03T08:57:23.000Z</time>
      </trkpt>
      <trkpt lat="42.93909" lon="0.57138">
        <ele>775</ele>
        <time>2019-02-03T08:57:24.000Z</time>
      </trkpt>
      <trkpt lat="42.93909" lon="0.57138">
        <ele>775</ele>
        <time>2019-02-03T08:57:25.000Z</time>
      </trkpt>
      <trkpt lat="42.93909" lon="0.57138">
        <ele>775</ele>
        <time>2019-02-03T08:57:26.000Z</time>
      </trkpt>
      <trkpt lat="42.93909" lon="0.57138">
        <ele>775</ele>
        <time>2019-02-03T08:57:27.000Z</time>
      </trkpt>
      <trkpt lat="42.93909" lon="0.57138">
        <ele>775</ele>
        <time>2019-02-03T08:57:28.000Z</time>
      </trkpt>
      <trkpt lat="42.93909" lon="0.57138">
        <ele>775</ele>
        <time>2019-02-03T08:57:29.000Z</time>
      </trkpt>
      <trkpt lat="42.93909" lon="0.57138">
        <ele>775</ele>
        <time>2019-02-03T08:57:30.000Z</time>
      </trkpt>
      <trkpt lat="42.93909" lon="0.57138">
        <ele>775</ele>
        <time>2019-02-03T08:57:31.000Z</time>
      </trkpt>
      <trkpt lat="42.93909" lon="0.57138">
        <ele>775</ele>
        <time>2019-02-03T08:57:32.000Z</time>
      </trkpt>
      <trkpt lat="42.93909" lon="0.57138">
        <ele>774.7</ele>
        <time>2019-02-03T08:57:33.000Z</time>
      </trkpt>
      <trkpt lat="42.93909" lon="0.57138">
        <ele>774.3</ele>
        <time>2019-02-03T08:57:34.000Z</time>
      </trkpt>
      <trkpt lat="42.9391" lon="0.57138">
        <ele>774</ele>
        <time>2019-02-03T08:57:35.000Z</time>
      </trkpt>
      <trkpt lat="42.9391" lon="0.57137">
        <ele>774</ele>
        <time>2019-02-03T08:57:36.000Z</time>
      </trkpt>
      <trkpt lat="42.9391" lon="0.57137">
        <ele>774</ele>
        <time>2019-02-03T08:57:37.000Z</time>
      </trkpt>
      <trkpt lat="42.9391" lon="0.57137">
        <ele>774</ele>
        <time>2019-02-03T08:57:38.000Z</time>
      </trkpt>
      <trkpt lat="42.93911" lon="0.57137">
        <ele>774</ele>
        <time>2019-02-03T08:57:39.000Z</time>
      </trkpt>
      <trkpt lat="42.93911" lon="0.57137">
        <ele>774</ele>
        <time>2019-02-03T08:57:40.000Z</time>
      </trkpt>
      <trkpt lat="42.9391" lon="0.57137">
        <ele>774</ele>
        <time>2019-02-03T08:57:41.000Z</time>
      </trkpt>
      <trkpt lat="42.9391" lon="0.57137">
        <ele>774</ele>
        <time>2019-02-03T08:57:42.000Z</time>
      </trkpt>
      <trkpt lat="42.9391" lon="0.57137">
        <ele>774</ele>
        <time>2019-02-03T08:57:43.000Z</time>
      </trkpt>
      <trkpt lat="42.9391" lon="0.57137">
        <ele>774</ele>
        <time>2019-02-03T08:57:44.000Z</time>
      </trkpt>
      <trkpt lat="42.9391" lon="0.57137">
        <ele>774</ele>
        <time>2019-02-03T08:57:45.000Z</time>
      </trkpt>
      <trkpt lat="42.93909" lon="0.57138">
        <ele>774</ele>
        <time>2019-02-03T08:57:46.000Z</time>
      </trkpt>
      <trkpt lat="42.93909" lon="0.57138">
        <ele>774</ele>
        <time>2019-02-03T08:57:47.000Z</time>
      </trkpt>
      <trkpt lat="42.93909" lon="0.57138">
        <ele>774</ele>
        <time>2019-02-03T08:57:48.000Z</time>
      </trkpt>
      <trkpt lat="42.93909" lon="0.57138">
        <ele>774</ele>
        <time>2019-02-03T08:57:49.000Z</time>
      </trkpt>
      <trkpt lat="42.93909" lon="0.57138">
        <ele>774</ele>
        <time>2019-02-03T08:57:50.000Z</time>
      </trkpt>
      <trkpt lat="42.93909" lon="0.57138">
        <ele>774</ele>
        <time>2019-02-03T08:57:51.000Z</time>
      </trkpt>
      <trkpt lat="42.93909" lon="0.57138">
        <ele>774.5</ele>
        <time>2019-02-03T08:57:52.000Z</time>
      </trkpt>
      <trkpt lat="42.93909" lon="0.57138">
        <ele>775</ele>
        <time>2019-02-03T08:57:53.000Z</time>
      </trkpt>
      <trkpt lat="42.93908" lon="0.57138">
        <ele>775</ele>
        <time>2019-02-03T08:57:54.000Z</time>
      </trkpt>
      <trkpt lat="42.93908" lon="0.57138">
        <ele>775</ele>
        <time>2019-02-03T08:57:55.000Z</time>
      </trkpt>
      <trkpt lat="42.93908" lon="0.57138">
        <ele>775</ele>
        <time>2019-02-03T08:57:56.000Z</time>
      </trkpt>
      <trkpt lat="42.93908" lon="0.57138">
        <ele>774.7</ele>
        <time>2019-02-03T08:57:57.000Z</time>
      </trkpt>
      <trkpt lat="42.93908" lon="0.57138">
        <ele>774.3</ele>
        <time>2019-02-03T08:57:58.000Z</time>
      </trkpt>
      <trkpt lat="42.93908" lon="0.57138">
        <ele>774</ele>
        <time>2019-02-03T08:57:59.000Z</time>
      </trkpt>
      <trkpt lat="42.93908" lon="0.57138">
        <ele>774</ele>
        <time>2019-02-03T08:58:00.000Z</time>
      </trkpt>
      <trkpt lat="42.93908" lon="0.57138">
        <ele>774</ele>
        <time>2019-02-03T08:58:01.000Z</time>
      </trkpt>
      <trkpt lat="42.93908" lon="0.57138">
        <ele>774</ele>
        <time>2019-02-03T08:58:02.000Z</time>
      </trkpt>
      <trkpt lat="42.93908" lon="0.57138">
        <ele>774</ele>
        <time>2019-02-03T08:58:03.000Z</time>
      </trkpt>
      <trkpt lat="42.93908" lon="0.57138">
        <ele>774.5</ele>
        <time>2019-02-03T08:58:04.000Z</time>
      </trkpt>
      <trkpt lat="42.93908" lon="0.57138">
        <ele>775</ele>
        <time>2019-02-03T08:58:05.000Z</time>
      </trkpt>
      <trkpt lat="42.93908" lon="0.57138">
        <ele>775</ele>
        <time>2019-02-03T08:58:06.000Z</time>
      </trkpt>
      <trkpt lat="42.93908" lon="0.57138">
        <ele>775</ele>
        <time>2019-02-03T08:58:07.000Z</time>
      </trkpt>
      <trkpt lat="42.93908" lon="0.57138">
        <ele>775</ele>
        <time>2019-02-03T08:58:08.000Z</time>
      </trkpt>
      <trkpt lat="42.93908" lon="0.57138">
        <ele>775</ele>
        <time>2019-02-03T08:58:09.000Z</time>
      </trkpt>
      <trkpt lat="42.93908" lon="0.57138">
        <ele>774.5</ele>
        <time>2019-02-03T08:58:10.000Z</time>
      </trkpt>
      <trkpt lat="42.93908" lon="0.57138">
        <ele>774</ele>
        <time>2019-02-03T08:58:11.000Z</time>
      </trkpt>
      <trkpt lat="42.93908" lon="0.57138">
        <ele>774</ele>
        <time>2019-02-03T08:58:12.000Z</time>
      </trkpt>
      <trkpt lat="42.93908" lon="0.57138">
        <ele>774</ele>
        <time>2019-02-03T08:58:13.000Z</time>
      </trkpt>
      <trkpt lat="42.93908" lon="0.57138">
        <ele>774</ele>
        <time>2019-02-03T08:58:14.000Z</time>
      </trkpt>
      <trkpt lat="42.93908" lon="0.57138">
        <ele>774</ele>
        <time>2019-02-03T08:58:15.000Z</time>
      </trkpt>
      <trkpt lat="42.93908" lon="0.57139">
        <ele>774</ele>
        <time>2019-02-03T08:58:16.000Z</time>
      </trkpt>
      <trkpt lat="42.93908" lon="0.57139">
        <ele>774</ele>
        <time>2019-02-03T08:58:17.000Z</time>
      </trkpt>
      <trkpt lat="42.93908" lon="0.57139">
        <ele>774</ele>
        <time>2019-02-03T08:58:18.000Z</time>
      </trkpt>
      <trkpt lat="42.93908" lon="0.57139">
        <ele>774</ele>
        <time>2019-02-03T08:58:19.000Z</time>
      </trkpt>
      <trkpt lat="42.93908" lon="0.57139">
        <ele>774</ele>
        <time>2019-02-03T08:58:20.000Z</time>
      </trkpt>
      <trkpt lat="42.93908" lon="0.57139">
        <ele>774</ele>
        <time>2019-02-03T08:58:21.000Z</time>
      </trkpt>
      <trkpt lat="42.93908" lon="0.57139">
        <ele>774</ele>
        <time>2019-02-03T08:58:22.000Z</time>
      </trkpt>
      <trkpt lat="42.93908" lon="0.57139">
        <ele>774</ele>
        <time>2019-02-03T08:58:23.000Z</time>
      </trkpt>
      <trkpt lat="42.93908" lon="0.57139">
        <ele>774</ele>
        <time>2019-02-03T08:58:24.000Z</time>
      </trkpt>
      <trkpt lat="42.93908" lon="0.57139">
        <ele>774</ele>
        <time>2019-02-03T08:58:25.000Z</time>
      </trkpt>
      <trkpt lat="42.93908" lon="0.57139">
        <ele>774</ele>
        <time>2019-02-03T08:58:26.000Z</time>
      </trkpt>
      <trkpt lat="42.93908" lon="0.57139">
        <ele>774</ele>
        <time>2019-02-03T08:58:27.000Z</time>
      </trkpt>
      <trkpt lat="42.93908" lon="0.57139">
        <ele>774</ele>
        <time>2019-02-03T08:58:28.000Z</time>
      </trkpt>
      <trkpt lat="42.93908" lon="0.57139">
        <ele>774</ele>
        <time>2019-02-03T08:58:29.000Z</time>
      </trkpt>
      <trkpt lat="42.93908" lon="0.57139">
        <ele>774</ele>
        <time>2019-02-03T08:58:30.000Z</time>
      </trkpt>
      <trkpt lat="42.93908" lon="0.57139">
        <ele>774</ele>
        <time>2019-02-03T08:58:31.000Z</time>
      </trkpt>
      <trkpt lat="42.93908" lon="0.57139">
        <ele>774</ele>
        <time>2019-02-03T08:58:32.000Z</time>
      </trkpt>
      <trkpt lat="42.93908" lon="0.57139">
        <ele>774</ele>
        <time>2019-02-03T08:58:33.000Z</time>
      </trkpt>
      <trkpt lat="42.93908" lon="0.57139">
        <ele>774</ele>
        <time>2019-02-03T08:58:34.000Z</time>
      </trkpt>
      <trkpt lat="42.93908" lon="0.57139">
        <ele>774</ele>
        <time>2019-02-03T08:58:35.000Z</time>
      </trkpt>
      <trkpt lat="42.93908" lon="0.5714">
        <ele>774</ele>
        <time>2019-02-03T08:58:36.000Z</time>
      </trkpt>
      <trkpt lat="42.93908" lon="0.5714">
        <ele>774</ele>
        <time>2019-02-03T08:58:37.000Z</time>
      </trkpt>
      <trkpt lat="42.93908" lon="0.5714">
        <ele>774</ele>
        <time>2019-02-03T08:58:38.000Z</time>
      </trkpt>
      <trkpt lat="42.93908" lon="0.5714">
        <ele>774.3</ele>
        <time>2019-02-03T08:58:39.000Z</time>
      </trkpt>
      <trkpt lat="42.93908" lon="0.5714">
        <ele>774.7</ele>
        <time>2019-02-03T08:58:40.000Z</time>
      </trkpt>
      <trkpt lat="42.93907" lon="0.5714">
        <ele>775</ele>
        <time>2019-02-03T08:58:41.000Z</time>
      </trkpt>
      <trkpt lat="42.93907" lon="0.5714">
        <ele>775</ele>
        <time>2019-02-03T08:58:42.000Z</time>
      </trkpt>
      <trkpt lat="42.93907" lon="0.5714">
        <ele>775</ele>
        <time>2019-02-03T08:58:43.000Z</time>
      </trkpt>
      <trkpt lat="42.93907" lon="0.5714">
        <ele>775</ele>
        <time>2019-02-03T08:58:44.000Z</time>
      </trkpt>
      <trkpt lat="42.93907" lon="0.5714">
        <ele>775</ele>
        <time>2019-02-03T08:58:45.000Z</time>
      </trkpt>
      <trkpt lat="42.93906" lon="0.5714">
        <ele>775</ele>
        <time>2019-02-03T08:58:46.000Z</time>
      </trkpt>
      <trkpt lat="42.93906" lon="0.5714">
        <ele>775</ele>
        <time>2019-02-03T08:58:47.000Z</time>
      </trkpt>
      <trkpt lat="42.93906" lon="0.5714">
        <ele>775</ele>
        <time>2019-02-03T08:58:48.000Z</time>
      </trkpt>
      <trkpt lat="42.93905" lon="0.5714">
        <ele>775</ele>
        <time>2019-02-03T08:58:49.000Z</time>
      </trkpt>
      <trkpt lat="42.93905" lon="0.5714">
        <ele>775</ele>
        <time>2019-02-03T08:58:50.000Z</time>
      </trkpt>
      <trkpt lat="42.93905" lon="0.5714">
        <ele>775</ele>
        <time>2019-02-03T08:58:51.000Z</time>
      </trkpt>
      <trkpt lat="42.93905" lon="0.5714">
        <ele>775</ele>
        <time>2019-02-03T08:58:52.000Z</time>
      </trkpt>
      <trkpt lat="42.93905" lon="0.5714">
        <ele>775</ele>
        <time>2019-02-03T08:58:53.000Z</time>
      </trkpt>
      <trkpt lat="42.93905" lon="0.5714">
        <ele>775</ele>
        <time>2019-02-03T08:58:54.000Z</time>
      </trkpt>
      <trkpt lat="42.93905" lon="0.5714">
        <ele>775</ele>
        <time>2019-02-03T08:58:55.000Z</time>
      </trkpt>
      <trkpt lat="42.93905" lon="0.5714">
        <ele>775</ele>
        <time>2019-02-03T08:58:56.000Z</time>
      </trkpt>
      <trkpt lat="42.93904" lon="0.5714">
        <ele>775</ele>
        <time>2019-02-03T08:58:57.000Z</time>
      </trkpt>
      <trkpt lat="42.93904" lon="0.5714">
        <ele>775</ele>
        <time>2019-02-03T08:58:58.000Z</time>
      </trkpt>
      <trkpt lat="42.93904" lon="0.5714">
        <ele>775</ele>
        <time>2019-02-03T08:58:59.000Z</time>
      </trkpt>
      <trkpt lat="42.93904" lon="0.5714">
        <ele>775</ele>
        <time>2019-02-03T08:59:00.000Z</time>
      </trkpt>
      <trkpt lat="42.93904" lon="0.5714">
        <ele>775</ele>
        <time>2019-02-03T08:59:01.000Z</time>
      </trkpt>
      <trkpt lat="42.93904" lon="0.5714">
        <ele>775</ele>
        <time>2019-02-03T08:59:02.000Z</time>
      </trkpt>
      <trkpt lat="42.93905" lon="0.5714">
        <ele>775</ele>
        <time>2019-02-03T08:59:03.000Z</time>
      </trkpt>
      <trkpt lat="42.93905" lon="0.5714">
        <ele>775</ele>
        <time>2019-02-03T08:59:04.000Z</time>
      </trkpt>
      <trkpt lat="42.93905" lon="0.5714">
        <ele>775</ele>
        <time>2019-02-03T08:59:05.000Z</time>
      </trkpt>
      <trkpt lat="42.93905" lon="0.5714">
        <ele>775</ele>
        <time>2019-02-03T08:59:06.000Z</time>
      </trkpt>
      <trkpt lat="42.93905" lon="0.5714">
        <ele>775</ele>
        <time>2019-02-03T08:59:07.000Z</time>
      </trkpt>
      <trkpt lat="42.93905" lon="0.5714">
        <ele>775</ele>
        <time>2019-02-03T08:59:08.000Z</time>
      </trkpt>
      <trkpt lat="42.93905" lon="0.5714">
        <ele>775</ele>
        <time>2019-02-03T08:59:09.000Z</time>
      </trkpt>
      <trkpt lat="42.93905" lon="0.5714">
        <ele>775</ele>
        <time>2019-02-03T08:59:10.000Z</time>
      </trkpt>
      <trkpt lat="42.93905" lon="0.5714">
        <ele>775</ele>
        <time>2019-02-03T08:59:11.000Z</time>
      </trkpt>
      <trkpt lat="42.93905" lon="0.5714">
        <ele>775</ele>
        <time>2019-02-03T08:59:12.000Z</time>
      </trkpt>
      <trkpt lat="42.93905" lon="0.5714">
        <ele>775</ele>
        <time>2019-02-03T08:59:13.000Z</time>
      </trkpt>
      <trkpt lat="42.93905" lon="0.5714">
        <ele>775</ele>
        <time>2019-02-03T08:59:14.000Z</time>
      </trkpt>
      <trkpt lat="42.93905" lon="0.5714">
        <ele>775</ele>
        <time>2019-02-03T08:59:15.000Z</time>
      </trkpt>
      <trkpt lat="42.93905" lon="0.5714">
        <ele>775</ele>
        <time>2019-02-03T08:59:16.000Z</time>
      </trkpt>
      <trkpt lat="42.93905" lon="0.5714">
        <ele>775</ele>
        <time>2019-02-03T08:59:17.000Z</time>
      </trkpt>
      <trkpt lat="42.93905" lon="0.5714">
        <ele>775</ele>
        <time>2019-02-03T08:59:18.000Z</time>
      </trkpt>
      <trkpt lat="42.93905" lon="0.57139">
        <ele>775</ele>
        <time>2019-02-03T08:59:19.000Z</time>
      </trkpt>
      <trkpt lat="42.93906" lon="0.57139">
        <ele>775</ele>
        <time>2019-02-03T08:59:20.000Z</time>
      </trkpt>
      <trkpt lat="42.93907" lon="0.57139">
        <ele>775</ele>
        <time>2019-02-03T08:59:21.000Z</time>
      </trkpt>
      <trkpt lat="42.93908" lon="0.57139">
        <ele>775</ele>
        <time>2019-02-03T08:59:22.000Z</time>
      </trkpt>
      <trkpt lat="42.93909" lon="0.57139">
        <ele>775</ele>
        <time>2019-02-03T08:59:23.000Z</time>
      </trkpt>
      <trkpt lat="42.93909" lon="0.57139">
        <ele>775</ele>
        <time>2019-02-03T08:59:24.000Z</time>
      </trkpt>
      <trkpt lat="42.9391" lon="0.57139">
        <ele>775</ele>
        <time>2019-02-03T08:59:25.000Z</time>
      </trkpt>
      <trkpt lat="42.9391" lon="0.57139">
        <ele>775</ele>
        <time>2019-02-03T08:59:26.000Z</time>
      </trkpt>
      <trkpt lat="42.9391" lon="0.57139">
        <ele>775</ele>
        <time>2019-02-03T08:59:27.000Z</time>
      </trkpt>
      <trkpt lat="42.9391" lon="0.57139">
        <ele>775</ele>
        <time>2019-02-03T08:59:28.000Z</time>
      </trkpt>
      <trkpt lat="42.9391" lon="0.57139">
        <ele>775</ele>
        <time>2019-02-03T08:59:29.000Z</time>
      </trkpt>
      <trkpt lat="42.9391" lon="0.57139">
        <ele>775</ele>
        <time>2019-02-03T08:59:30.000Z</time>
      </trkpt>
      <trkpt lat="42.9391" lon="0.57139">
        <ele>775.3</ele>
        <time>2019-02-03T08:59:31.000Z</time>
      </trkpt>
      <trkpt lat="42.9391" lon="0.57139">
        <ele>775.7</ele>
        <time>2019-02-03T08:59:32.000Z</time>
      </trkpt>
      <trkpt lat="42.9391" lon="0.57139">
        <ele>776</ele>
        <time>2019-02-03T08:59:33.000Z</time>
      </trkpt>
      <trkpt lat="42.9391" lon="0.57139">
        <ele>776</ele>
        <time>2019-02-03T08:59:34.000Z</time>
      </trkpt>
      <trkpt lat="42.9391" lon="0.57139">
        <ele>776</ele>
        <time>2019-02-03T08:59:35.000Z</time>
      </trkpt>
      <trkpt lat="42.9391" lon="0.57139">
        <ele>776</ele>
        <time>2019-02-03T08:59:36.000Z</time>
      </trkpt>
      <trkpt lat="42.9391" lon="0.57139">
        <ele>776</ele>
        <time>2019-02-03T08:59:37.000Z</time>
      </trkpt>
      <trkpt lat="42.9391" lon="0.57139">
        <ele>776</ele>
        <time>2019-02-03T08:59:38.000Z</time>
      </trkpt>
      <trkpt lat="42.9391" lon="0.57139">
        <ele>776</ele>
        <time>2019-02-03T08:59:39.000Z</time>
      </trkpt>
      <trkpt lat="42.9391" lon="0.57139">
        <ele>776</ele>
        <time>2019-02-03T08:59:40.000Z</time>
      </trkpt>
      <trkpt lat="42.9391" lon="0.57139">
        <ele>776</ele>
        <time>2019-02-03T08:59:41.000Z</time>
      </trkpt>
      <trkpt lat="42.9391" lon="0.57139">
        <ele>776</ele>
        <time>2019-02-03T08:59:42.000Z</time>
      </trkpt>
      <trkpt lat="42.9391" lon="0.57139">
        <ele>776</ele>
        <time>2019-02-03T08:59:43.000Z</time>
      </trkpt>
      <trkpt lat="42.9391" lon="0.57139">
        <ele>775.5</ele>
        <time>2019-02-03T08:59:44.000Z</time>
      </trkpt>
      <trkpt lat="42.9391" lon="0.5714">
        <ele>775</ele>
        <time>2019-02-03T08:59:45.000Z</time>
      </trkpt>
      <trkpt lat="42.93911" lon="0.5714">
        <ele>775</ele>
        <time>2019-02-03T08:59:46.000Z</time>
      </trkpt>
      <trkpt lat="42.93911" lon="0.57141">
        <ele>775</ele>
        <time>2019-02-03T08:59:47.000Z</time>
      </trkpt>
      <trkpt lat="42.93911" lon="0.57142">
        <ele>775</ele>
        <time>2019-02-03T08:59:48.000Z</time>
      </trkpt>
      <trkpt lat="42.93911" lon="0.57143">
        <ele>775</ele>
        <time>2019-02-03T08:59:49.000Z</time>
      </trkpt>
      <trkpt lat="42.93912" lon="0.57145">
        <ele>775</ele>
        <time>2019-02-03T08:59:50.000Z</time>
      </trkpt>
      <trkpt lat="42.93912" lon="0.57146">
        <ele>775</ele>
        <time>2019-02-03T08:59:51.000Z</time>
      </trkpt>
      <trkpt lat="42.93913" lon="0.57147">
        <ele>775</ele>
        <time>2019-02-03T08:59:52.000Z</time>
      </trkpt>
      <trkpt lat="42.93913" lon="0.57148">
        <ele>775</ele>
        <time>2019-02-03T08:59:53.000Z</time>
      </trkpt>
      <trkpt lat="42.93914" lon="0.57149">
        <ele>775</ele>
        <time>2019-02-03T08:59:54.000Z</time>
      </trkpt>
      <trkpt lat="42.93914" lon="0.57149">
        <ele>775</ele>
        <time>2019-02-03T08:59:55.000Z</time>
      </trkpt>
      <trkpt lat="42.93915" lon="0.5715">
        <ele>775</ele>
        <time>2019-02-03T08:59:56.000Z</time>
      </trkpt>
      <trkpt lat="42.93916" lon="0.57151">
        <ele>775</ele>
        <time>2019-02-03T08:59:57.000Z</time>
      </trkpt>
      <trkpt lat="42.93916" lon="0.57152">
        <ele>775</ele>
        <time>2019-02-03T08:59:58.000Z</time>
      </trkpt>
      <trkpt lat="42.93917" lon="0.57153">
        <ele>775</ele>
        <time>2019-02-03T08:59:59.000Z</time>
      </trkpt>
      <trkpt lat="42.93917" lon="0.57154">
        <ele>775</ele>
        <time>2019-02-03T09:00:00.000Z</time>
      </trkpt>
      <trkpt lat="42.93918" lon="0.57155">
        <ele>775</ele>
        <time>2019-02-03T09:00:01.000Z</time>
      </trkpt>
      <trkpt lat="42.93919" lon="0.57156">
        <ele>775.5</ele>
        <time>2019-02-03T09:00:02.000Z</time>
      </trkpt>
      <trkpt lat="42.93919" lon="0.57157">
        <ele>776</ele>
        <time>2019-02-03T09:00:03.000Z</time>
      </trkpt>
      <trkpt lat="42.93919" lon="0.57157">
        <ele>776</ele>
        <time>2019-02-03T09:00:04.000Z</time>
      </trkpt>
      <trkpt lat="42.9392" lon="0.57158">
        <ele>776</ele>
        <time>2019-02-03T09:00:05.000Z</time>
      </trkpt>
      <trkpt lat="42.9392" lon="0.57158">
        <ele>776</ele>
        <time>2019-02-03T09:00:06.000Z</time>
      </trkpt>
      <trkpt lat="42.9392" lon="0.57159">
        <ele>776</ele>
        <time>2019-02-03T09:00:07.000Z</time>
      </trkpt>
      <trkpt lat="42.93921" lon="0.57159">
        <ele>776</ele>
        <time>2019-02-03T09:00:08.000Z</time>
      </trkpt>
      <trkpt lat="42.93921" lon="0.57159">
        <ele>776</ele>
        <time>2019-02-03T09:00:09.000Z</time>
      </trkpt>
      <trkpt lat="42.93921" lon="0.57159">
        <ele>776</ele>
        <time>2019-02-03T09:00:10.000Z</time>
      </trkpt>
      <trkpt lat="42.93921" lon="0.57159">
        <ele>776</ele>
        <time>2019-02-03T09:00:11.000Z</time>
      </trkpt>
      <trkpt lat="42.93921" lon="0.57159">
        <ele>776</ele>
        <time>2019-02-03T09:00:12.000Z</time>
      </trkpt>
      <trkpt lat="42.93921" lon="0.57159">
        <ele>776</ele>
        <time>2019-02-03T09:00:13.000Z</time>
      </trkpt>
      <trkpt lat="42.93921" lon="0.57159">
        <ele>776</ele>
        <time>2019-02-03T09:00:14.000Z</time>
      </trkpt>
      <trkpt lat="42.93921" lon="0.57159">
        <ele>776</ele>
        <time>2019-02-03T09:00:15.000Z</time>
      </trkpt>
      <trkpt lat="42.93921" lon="0.57159">
        <ele>776</ele>
        <time>2019-02-03T09:00:16.000Z</time>
      </trkpt>
      <trkpt lat="42.93921" lon="0.57159">
        <ele>776</ele>
        <time>2019-02-03T09:00:17.000Z</time>
      </trkpt>
      <trkpt lat="42.93921" lon="0.57159">
        <ele>776</ele>
        <time>2019-02-03T09:00:18.000Z</time>
      </trkpt>
      <trkpt lat="42.93921" lon="0.57159">
        <ele>776</ele>
        <time>2019-02-03T09:00:19.000Z</time>
      </trkpt>
      <trkpt lat="42.93921" lon="0.57159">
        <ele>776</ele>
        <time>2019-02-03T09:00:20.000Z</time>
      </trkpt>
      <trkpt lat="42.93922" lon="0.57159">
        <ele>776</ele>
        <time>2019-02-03T09:00:21.000Z</time>
      </trkpt>
      <trkpt lat="42.93922" lon="0.57159">
        <ele>776</ele>
        <time>2019-02-03T09:00:22.000Z</time>
      </trkpt>
      <trkpt lat="42.93922" lon="0.5716">
        <ele>776</ele>
        <time>2019-02-03T09:00:23.000Z</time>
      </trkpt>
      <trkpt lat="42.93922" lon="0.5716">
        <ele>776</ele>
        <time>2019-02-03T09:00:24.000Z</time>
      </trkpt>
      <trkpt lat="42.93923" lon="0.57161">
        <ele>776</ele>
        <time>2019-02-03T09:00:25.000Z</time>
      </trkpt>
      <trkpt lat="42.93923" lon="0.57161">
        <ele>776</ele>
        <time>2019-02-03T09:00:26.000Z</time>
      </trkpt>
      <trkpt lat="42.93924" lon="0.57162">
        <ele>776</ele>
        <time>2019-02-03T09:00:27.000Z</time>
      </trkpt>
      <trkpt lat="42.93924" lon="0.57163">
        <ele>776</ele>
        <time>2019-02-03T09:00:28.000Z</time>
      </trkpt>
      <trkpt lat="42.93925" lon="0.57164">
        <ele>776</ele>
        <time>2019-02-03T09:00:29.000Z</time>
      </trkpt>
      <trkpt lat="42.93925" lon="0.57165">
        <ele>776</ele>
        <time>2019-02-03T09:00:30.000Z</time>
      </trkpt>
      <trkpt lat="42.93925" lon="0.57167">
        <ele>776</ele>
        <time>2019-02-03T09:00:31.000Z</time>
      </trkpt>
      <trkpt lat="42.93926" lon="0.57168">
        <ele>776</ele>
        <time>2019-02-03T09:00:32.000Z</time>
      </trkpt>
      <trkpt lat="42.93926" lon="0.57169">
        <ele>776</ele>
        <time>2019-02-03T09:00:33.000Z</time>
      </trkpt>
      <trkpt lat="42.93927" lon="0.5717">
        <ele>776</ele>
        <time>2019-02-03T09:00:34.000Z</time>
      </trkpt>
      <trkpt lat="42.93927" lon="0.57171">
        <ele>776</ele>
        <time>2019-02-03T09:00:35.000Z</time>
      </trkpt>
      <trkpt lat="42.93927" lon="0.57172">
        <ele>776</ele>
        <time>2019-02-03T09:00:36.000Z</time>
      </trkpt>
      <trkpt lat="42.93928" lon="0.57173">
        <ele>776</ele>
        <time>2019-02-03T09:00:37.000Z</time>
      </trkpt>
      <trkpt lat="42.93928" lon="0.57174">
        <ele>776</ele>
        <time>2019-02-03T09:00:38.000Z</time>
      </trkpt>
      <trkpt lat="42.93928" lon="0.57175">
        <ele>776</ele>
        <time>2019-02-03T09:00:39.000Z</time>
      </trkpt>
      <trkpt lat="42.93928" lon="0.57176">
        <ele>776</ele>
        <time>2019-02-03T09:00:40.000Z</time>
      </trkpt>
      <trkpt lat="42.93929" lon="0.57177">
        <ele>776</ele>
        <time>2019-02-03T09:00:41.000Z</time>
      </trkpt>
      <trkpt lat="42.93929" lon="0.57179">
        <ele>776</ele>
        <time>2019-02-03T09:00:42.000Z</time>
      </trkpt>
      <trkpt lat="42.93929" lon="0.5718">
        <ele>776</ele>
        <time>2019-02-03T09:00:43.000Z</time>
      </trkpt>
      <trkpt lat="42.9393" lon="0.57181">
        <ele>776</ele>
        <time>2019-02-03T09:00:44.000Z</time>
      </trkpt>
      <trkpt lat="42.9393" lon="0.57182">
        <ele>776</ele>
        <time>2019-02-03T09:00:45.000Z</time>
      </trkpt>
      <trkpt lat="42.9393" lon="0.57183">
        <ele>776</ele>
        <time>2019-02-03T09:00:46.000Z</time>
      </trkpt>
      <trkpt lat="42.93931" lon="0.57184">
        <ele>776</ele>
        <time>2019-02-03T09:00:47.000Z</time>
      </trkpt>
      <trkpt lat="42.93931" lon="0.57185">
        <ele>776</ele>
        <time>2019-02-03T09:00:48.000Z</time>
      </trkpt>
      <trkpt lat="42.93931" lon="0.57186">
        <ele>776</ele>
        <time>2019-02-03T09:00:49.000Z</time>
      </trkpt>
      <trkpt lat="42.93932" lon="0.57187">
        <ele>776</ele>
        <time>2019-02-03T09:00:50.000Z</time>
      </trkpt>
      <trkpt lat="42.93932" lon="0.57188">
        <ele>776</ele>
        <time>2019-02-03T09:00:51.000Z</time>
      </trkpt>
      <trkpt lat="42.93933" lon="0.57189">
        <ele>775.5</ele>
        <time>2019-02-03T09:00:52.000Z</time>
      </trkpt>
      <trkpt lat="42.93933" lon="0.5719">
        <ele>775</ele>
        <time>2019-02-03T09:00:53.000Z</time>
      </trkpt>
      <trkpt lat="42.93933" lon="0.57191">
        <ele>775</ele>
        <time>2019-02-03T09:00:54.000Z</time>
      </trkpt>
      <trkpt lat="42.93933" lon="0.57192">
        <ele>775</ele>
        <time>2019-02-03T09:00:55.000Z</time>
      </trkpt>
      <trkpt lat="42.93934" lon="0.57194">
        <ele>775</ele>
        <time>2019-02-03T09:00:56.000Z</time>
      </trkpt>
      <trkpt lat="42.93934" lon="0.57195">
        <ele>775</ele>
        <time>2019-02-03T09:00:57.000Z</time>
      </trkpt>
      <trkpt lat="42.93935" lon="0.57197">
        <ele>775</ele>
        <time>2019-02-03T09:00:58.000Z</time>
      </trkpt>
      <trkpt lat="42.93935" lon="0.57198">
        <ele>775</ele>
        <time>2019-02-03T09:00:59.000Z</time>
      </trkpt>
      <trkpt lat="42.93936" lon="0.57199">
        <ele>775</ele>
        <time>2019-02-03T09:01:00.000Z</time>
      </trkpt>
      <trkpt lat="42.93937" lon="0.572">
        <ele>775</ele>
        <time>2019-02-03T09:01:01.000Z</time>
      </trkpt>
      <trkpt lat="42.93937" lon="0.57201">
        <ele>775</ele>
        <time>2019-02-03T09:01:02.000Z</time>
      </trkpt>
      <trkpt lat="42.93938" lon="0.57202">
        <ele>775</ele>
        <time>2019-02-03T09:01:03.000Z</time>
      </trkpt>
      <trkpt lat="42.93939" lon="0.57202">
        <ele>775</ele>
        <time>2019-02-03T09:01:04.000Z</time>
      </trkpt>
      <trkpt lat="42.93939" lon="0.57203">
        <ele>775</ele>
        <time>2019-02-03T09:01:05.000Z</time>
      </trkpt>
      <trkpt lat="42.9394" lon="0.57204">
        <ele>774.5</ele>
        <time>2019-02-03T09:01:06.000Z</time>
      </trkpt>
      <trkpt lat="42.9394" lon="0.57205">
        <ele>774</ele>
        <time>2019-02-03T09:01:07.000Z</time>
      </trkpt>
      <trkpt lat="42.93941" lon="0.57206">
        <ele>774</ele>
        <time>2019-02-03T09:01:08.000Z</time>
      </trkpt>
      <trkpt lat="42.93941" lon="0.57206">
        <ele>774</ele>
        <time>2019-02-03T09:01:09.000Z</time>
      </trkpt>
      <trkpt lat="42.93942" lon="0.57207">
        <ele>774</ele>
        <time>2019-02-03T09:01:10.000Z</time>
      </trkpt>
      <trkpt lat="42.93942" lon="0.57208">
        <ele>774</ele>
        <time>2019-02-03T09:01:11.000Z</time>
      </trkpt>
      <trkpt lat="42.93943" lon="0.5721">
        <ele>774</ele>
        <time>2019-02-03T09:01:12.000Z</time>
      </trkpt>
      <trkpt lat="42.93943" lon="0.57211">
        <ele>774</ele>
        <time>2019-02-03T09:01:13.000Z</time>
      </trkpt>
      <trkpt lat="42.93943" lon="0.57212">
        <ele>774.5</ele>
        <time>2019-02-03T09:01:14.000Z</time>
      </trkpt>
      <trkpt lat="42.93944" lon="0.57213">
        <ele>775</ele>
        <time>2019-02-03T09:01:15.000Z</time>
      </trkpt>
      <trkpt lat="42.93944" lon="0.57214">
        <ele>775</ele>
        <time>2019-02-03T09:01:16.000Z</time>
      </trkpt>
      <trkpt lat="42.93944" lon="0.57215">
        <ele>775</ele>
        <time>2019-02-03T09:01:17.000Z</time>
      </trkpt>
      <trkpt lat="42.93945" lon="0.57216">
        <ele>775</ele>
        <time>2019-02-03T09:01:18.000Z</time>
      </trkpt>
      <trkpt lat="42.93945" lon="0.57217">
        <ele>775</ele>
        <time>2019-02-03T09:01:19.000Z</time>
      </trkpt>
      <trkpt lat="42.93945" lon="0.57218">
        <ele>775</ele>
        <time>2019-02-03T09:01:20.000Z</time>
      </trkpt>
      <trkpt lat="42.93945" lon="0.57219">
        <ele>775</ele>
        <time>2019-02-03T09:01:21.000Z</time>
      </trkpt>
      <trkpt lat="42.93945" lon="0.57221">
        <ele>775</ele>
        <time>2019-02-03T09:01:22.000Z</time>
      </trkpt>
      <trkpt lat="42.93946" lon="0.57222">
        <ele>775</ele>
        <time>2019-02-03T09:01:23.000Z</time>
      </trkpt>
      <trkpt lat="42.93946" lon="0.57223">
        <ele>775</ele>
        <time>2019-02-03T09:01:24.000Z</time>
      </trkpt>
      <trkpt lat="42.93946" lon="0.57224">
        <ele>775</ele>
        <time>2019-02-03T09:01:25.000Z</time>
      </trkpt>
      <trkpt lat="42.93946" lon="0.57226">
        <ele>775</ele>
        <time>2019-02-03T09:01:26.000Z</time>
      </trkpt>
      <trkpt lat="42.93946" lon="0.57227">
        <ele>775</ele>
        <time>2019-02-03T09:01:27.000Z</time>
      </trkpt>
      <trkpt lat="42.93946" lon="0.57228">
        <ele>774.5</ele>
        <time>2019-02-03T09:01:28.000Z</time>
      </trkpt>
      <trkpt lat="42.93947" lon="0.57229">
        <ele>774</ele>
        <time>2019-02-03T09:01:29.000Z</time>
      </trkpt>
      <trkpt lat="42.93947" lon="0.5723">
        <ele>774</ele>
        <time>2019-02-03T09:01:30.000Z</time>
      </trkpt>
      <trkpt lat="42.93948" lon="0.57231">
        <ele>774</ele>
        <time>2019-02-03T09:01:31.000Z</time>
      </trkpt>
      <trkpt lat="42.93948" lon="0.57232">
        <ele>774</ele>
        <time>2019-02-03T09:01:32.000Z</time>
      </trkpt>
      <trkpt lat="42.93949" lon="0.57233">
        <ele>774</ele>
        <time>2019-02-03T09:01:33.000Z</time>
      </trkpt>
      <trkpt lat="42.93949" lon="0.57234">
        <ele>774</ele>
        <time>2019-02-03T09:01:34.000Z</time>
      </trkpt>
      <trkpt lat="42.9395" lon="0.57235">
        <ele>774</ele>
        <time>2019-02-03T09:01:35.000Z</time>
      </trkpt>
      <trkpt lat="42.9395" lon="0.57236">
        <ele>774</ele>
        <time>2019-02-03T09:01:36.000Z</time>
      </trkpt>
      <trkpt lat="42.93951" lon="0.57237">
        <ele>774</ele>
        <time>2019-02-03T09:01:37.000Z</time>
      </trkpt>
      <trkpt lat="42.93951" lon="0.57238">
        <ele>774</ele>
        <time>2019-02-03T09:01:38.000Z</time>
      </trkpt>
      <trkpt lat="42.93952" lon="0.57239">
        <ele>774</ele>
        <time>2019-02-03T09:01:39.000Z</time>
      </trkpt>
      <trkpt lat="42.93952" lon="0.5724">
        <ele>774</ele>
        <time>2019-02-03T09:01:40.000Z</time>
      </trkpt>
      <trkpt lat="42.93953" lon="0.57241">
        <ele>774</ele>
        <time>2019-02-03T09:01:41.000Z</time>
      </trkpt>
      <trkpt lat="42.93953" lon="0.57242">
        <ele>774</ele>
        <time>2019-02-03T09:01:42.000Z</time>
      </trkpt>
      <trkpt lat="42.93953" lon="0.57243">
        <ele>774</ele>
        <time>2019-02-03T09:01:43.000Z</time>
      </trkpt>
      <trkpt lat="42.93954" lon="0.57244">
        <ele>774</ele>
        <time>2019-02-03T09:01:44.000Z</time>
      </trkpt>
      <trkpt lat="42.93954" lon="0.57245">
        <ele>774</ele>
        <time>2019-02-03T09:01:45.000Z</time>
      </trkpt>
      <trkpt lat="42.93954" lon="0.57246">
        <ele>774.5</ele>
        <time>2019-02-03T09:01:46.000Z</time>
      </trkpt>
      <trkpt lat="42.93954" lon="0.57246">
        <ele>775</ele>
        <time>2019-02-03T09:01:47.000Z</time>
      </trkpt>
      <trkpt lat="42.93954" lon="0.57247">
        <ele>775</ele>
        <time>2019-02-03T09:01:48.000Z</time>
      </trkpt>
      <trkpt lat="42.93954" lon="0.57247">
        <ele>775</ele>
        <time>2019-02-03T09:01:49.000Z</time>
      </trkpt>
      <trkpt lat="42.93954" lon="0.57248">
        <ele>775</ele>
        <time>2019-02-03T09:01:50.000Z</time>
      </trkpt>
      <trkpt lat="42.93954" lon="0.57248">
        <ele>775</ele>
        <time>2019-02-03T09:01:51.000Z</time>
      </trkpt>
      <trkpt lat="42.93954" lon="0.57248">
        <ele>775</ele>
        <time>2019-02-03T09:01:52.000Z</time>
      </trkpt>
      <trkpt lat="42.93954" lon="0.57248">
        <ele>775</ele>
        <time>2019-02-03T09:01:53.000Z</time>
      </trkpt>
      <trkpt lat="42.93954" lon="0.57248">
        <ele>775</ele>
        <time>2019-02-03T09:01:54.000Z</time>
      </trkpt>
      <trkpt lat="42.93954" lon="0.57248">
        <ele>775</ele>
        <time>2019-02-03T09:01:55.000Z</time>
      </trkpt>
      <trkpt lat="42.93954" lon="0.57248">
        <ele>775</ele>
        <time>2019-02-03T09:01:56.000Z</time>
      </trkpt>
      <trkpt lat="42.93954" lon="0.57248">
        <ele>775</ele>
        <time>2019-02-03T09:01:57.000Z</time>
      </trkpt>
      <trkpt lat="42.93954" lon="0.57248">
        <ele>775</ele>
        <time>2019-02-03T09:01:58.000Z</time>
      </trkpt>
      <trkpt lat="42.93954" lon="0.57248">
        <ele>775</ele>
        <time>2019-02-03T09:01:59.000Z</time>
      </trkpt>
      <trkpt lat="42.93954" lon="0.57248">
        <ele>775</ele>
        <time>2019-02-03T09:02:00.000Z</time>
      </trkpt>
      <trkpt lat="42.93954" lon="0.57248">
        <ele>775</ele>
        <time>2019-02-03T09:02:01.000Z</time>
      </trkpt>
      <trkpt lat="42.93954" lon="0.57248">
        <ele>775</ele>
        <time>2019-02-03T09:02:02.000Z</time>
      </trkpt>
      <trkpt lat="42.93954" lon="0.57248">
        <ele>775</ele>
        <time>2019-02-03T09:02:03.000Z</time>
      </trkpt>
      <trkpt lat="42.93954" lon="0.57249">
        <ele>775</ele>
        <time>2019-02-03T09:02:04.000Z</time>
      </trkpt>
      <trkpt lat="42.93954" lon="0.57249">
        <ele>775</ele>
        <time>2019-02-03T09:02:05.000Z</time>
      </trkpt>
      <trkpt lat="42.93954" lon="0.57249">
        <ele>775</ele>
        <time>2019-02-03T09:02:06.000Z</time>
      </trkpt>
      <trkpt lat="42.93954" lon="0.57249">
        <ele>775</ele>
        <time>2019-02-03T09:02:07.000Z</time>
      </trkpt>
      <trkpt lat="42.93954" lon="0.57248">
        <ele>775</ele>
        <time>2019-02-03T09:02:08.000Z</time>
      </trkpt>
      <trkpt lat="42.93954" lon="0.57248">
        <ele>775</ele>
        <time>2019-02-03T09:02:09.000Z</time>
      </trkpt>
      <trkpt lat="42.93955" lon="0.57248">
        <ele>775</ele>
        <time>2019-02-03T09:02:10.000Z</time>
      </trkpt>
      <trkpt lat="42.93955" lon="0.57248">
        <ele>775</ele>
        <time>2019-02-03T09:02:11.000Z</time>
      </trkpt>
      <trkpt lat="42.93955" lon="0.57248">
        <ele>775</ele>
        <time>2019-02-03T09:02:12.000Z</time>
      </trkpt>
      <trkpt lat="42.93956" lon="0.57249">
        <ele>774.7</ele>
        <time>2019-02-03T09:02:13.000Z</time>
      </trkpt>
      <trkpt lat="42.93956" lon="0.5725">
        <ele>774.3</ele>
        <time>2019-02-03T09:02:14.000Z</time>
      </trkpt>
      <trkpt lat="42.93956" lon="0.57251">
        <ele>774</ele>
        <time>2019-02-03T09:02:15.000Z</time>
      </trkpt>
      <trkpt lat="42.93957" lon="0.57251">
        <ele>774</ele>
        <time>2019-02-03T09:02:16.000Z</time>
      </trkpt>
      <trkpt lat="42.93957" lon="0.57252">
        <ele>774</ele>
        <time>2019-02-03T09:02:17.000Z</time>
      </trkpt>
      <trkpt lat="42.93957" lon="0.57253">
        <ele>774</ele>
        <time>2019-02-03T09:02:18.000Z</time>
      </trkpt>
      <trkpt lat="42.93958" lon="0.57253">
        <ele>774</ele>
        <time>2019-02-03T09:02:19.000Z</time>
      </trkpt>
      <trkpt lat="42.93958" lon="0.57254">
        <ele>774</ele>
        <time>2019-02-03T09:02:20.000Z</time>
      </trkpt>
      <trkpt lat="42.93958" lon="0.57254">
        <ele>774</ele>
        <time>2019-02-03T09:02:21.000Z</time>
      </trkpt>
      <trkpt lat="42.93959" lon="0.57255">
        <ele>774</ele>
        <time>2019-02-03T09:02:22.000Z</time>
      </trkpt>
      <trkpt lat="42.93959" lon="0.57256">
        <ele>774</ele>
        <time>2019-02-03T09:02:23.000Z</time>
      </trkpt>
      <trkpt lat="42.93959" lon="0.57257">
        <ele>774</ele>
        <time>2019-02-03T09:02:24.000Z</time>
      </trkpt>
      <trkpt lat="42.93959" lon="0.57258">
        <ele>774</ele>
        <time>2019-02-03T09:02:25.000Z</time>
      </trkpt>
      <trkpt lat="42.93959" lon="0.57259">
        <ele>775</ele>
        <time>2019-02-03T09:02:26.000Z</time>
      </trkpt>
      <trkpt lat="42.93959" lon="0.5726">
        <ele>775</ele>
        <time>2019-02-03T09:02:27.000Z</time>
      </trkpt>
      <trkpt lat="42.9396" lon="0.57261">
        <ele>775</ele>
        <time>2019-02-03T09:02:28.000Z</time>
      </trkpt>
      <trkpt lat="42.9396" lon="0.57262">
        <ele>775</ele>
        <time>2019-02-03T09:02:29.000Z</time>
      </trkpt>
      <trkpt lat="42.9396" lon="0.57263">
        <ele>775</ele>
        <time>2019-02-03T09:02:30.000Z</time>
      </trkpt>
      <trkpt lat="42.93961" lon="0.57263">
        <ele>775</ele>
        <time>2019-02-03T09:02:31.000Z</time>
      </trkpt>
      <trkpt lat="42.93961" lon="0.57264">
        <ele>775</ele>
        <time>2019-02-03T09:02:32.000Z</time>
      </trkpt>
      <trkpt lat="42.93961" lon="0.57264">
        <ele>775</ele>
        <time>2019-02-03T09:02:33.000Z</time>
      </trkpt>
      <trkpt lat="42.93961" lon="0.57265">
        <ele>775</ele>
        <time>2019-02-03T09:02:34.000Z</time>
      </trkpt>
      <trkpt lat="42.93961" lon="0.57266">
        <ele>775</ele>
        <time>2019-02-03T09:02:35.000Z</time>
      </trkpt>
      <trkpt lat="42.93961" lon="0.57266">
        <ele>775</ele>
        <time>2019-02-03T09:02:36.000Z</time>
      </trkpt>
      <trkpt lat="42.93962" lon="0.57267">
        <ele>775</ele>
        <time>2019-02-03T09:02:37.000Z</time>
      </trkpt>
      <trkpt lat="42.93962" lon="0.57268">
        <ele>775</ele>
        <time>2019-02-03T09:02:38.000Z</time>
      </trkpt>
      <trkpt lat="42.93963" lon="0.5727">
        <ele>775</ele>
        <time>2019-02-03T09:02:39.000Z</time>
      </trkpt>
      <trkpt lat="42.93963" lon="0.57271">
        <ele>775</ele>
        <time>2019-02-03T09:02:40.000Z</time>
      </trkpt>
      <trkpt lat="42.93964" lon="0.57272">
        <ele>775</ele>
        <time>2019-02-03T09:02:41.000Z</time>
      </trkpt>
      <trkpt lat="42.93964" lon="0.57273">
        <ele>775</ele>
        <time>2019-02-03T09:02:42.000Z</time>
      </trkpt>
      <trkpt lat="42.93964" lon="0.57275">
        <ele>775</ele>
        <time>2019-02-03T09:02:43.000Z</time>
      </trkpt>
      <trkpt lat="42.93964" lon="0.57276">
        <ele>775</ele>
        <time>2019-02-03T09:02:44.000Z</time>
      </trkpt>
      <trkpt lat="42.93965" lon="0.57278">
        <ele>775</ele>
        <time>2019-02-03T09:02:45.000Z</time>
      </trkpt>
      <trkpt lat="42.93965" lon="0.57279">
        <ele>775</ele>
        <time>2019-02-03T09:02:46.000Z</time>
      </trkpt>
      <trkpt lat="42.93964" lon="0.57281">
        <ele>775</ele>
        <time>2019-02-03T09:02:47.000Z</time>
      </trkpt>
      <trkpt lat="42.93964" lon="0.57282">
        <ele>775</ele>
        <time>2019-02-03T09:02:48.000Z</time>
      </trkpt>
      <trkpt lat="42.93964" lon="0.57284">
        <ele>775.3</ele>
        <time>2019-02-03T09:02:49.000Z</time>
      </trkpt>
      <trkpt lat="42.93964" lon="0.57285">
        <ele>775.7</ele>
        <time>2019-02-03T09:02:50.000Z</time>
      </trkpt>
      <trkpt lat="42.93964" lon="0.57286">
        <ele>776</ele>
        <time>2019-02-03T09:02:51.000Z</time>
      </trkpt>
      <trkpt lat="42.93965" lon="0.57287">
        <ele>776</ele>
        <time>2019-02-03T09:02:52.000Z</time>
      </trkpt>
      <trkpt lat="42.93965" lon="0.57288">
        <ele>776</ele>
        <time>2019-02-03T09:02:53.000Z</time>
      </trkpt>
      <trkpt lat="42.93965" lon="0.57289">
        <ele>776</ele>
        <time>2019-02-03T09:02:54.000Z</time>
      </trkpt>
      <trkpt lat="42.93966" lon="0.5729">
        <ele>776</ele>
        <time>2019-02-03T09:02:55.000Z</time>
      </trkpt>
      <trkpt lat="42.93966" lon="0.57291">
        <ele>776</ele>
        <time>2019-02-03T09:02:56.000Z</time>
      </trkpt>
      <trkpt lat="42.93967" lon="0.57292">
        <ele>776</ele>
        <time>2019-02-03T09:02:57.000Z</time>
      </trkpt>
      <trkpt lat="42.93968" lon="0.57292">
        <ele>776</ele>
        <time>2019-02-03T09:02:58.000Z</time>
      </trkpt>
      <trkpt lat="42.93968" lon="0.57293">
        <ele>776</ele>
        <time>2019-02-03T09:02:59.000Z</time>
      </trkpt>
      <trkpt lat="42.93968" lon="0.57294">
        <ele>776</ele>
        <time>2019-02-03T09:03:00.000Z</time>
      </trkpt>
      <trkpt lat="42.93969" lon="0.57295">
        <ele>776</ele>
        <time>2019-02-03T09:03:01.000Z</time>
      </trkpt>
      <trkpt lat="42.93969" lon="0.57296">
        <ele>776</ele>
        <time>2019-02-03T09:03:02.000Z</time>
      </trkpt>
      <trkpt lat="42.93969" lon="0.57297">
        <ele>776</ele>
        <time>2019-02-03T09:03:03.000Z</time>
      </trkpt>
      <trkpt lat="42.9397" lon="0.57298">
        <ele>776</ele>
        <time>2019-02-03T09:03:04.000Z</time>
      </trkpt>
      <trkpt lat="42.9397" lon="0.57299">
        <ele>776</ele>
        <time>2019-02-03T09:03:05.000Z</time>
      </trkpt>
      <trkpt lat="42.9397" lon="0.57301">
        <ele>776</ele>
        <time>2019-02-03T09:03:06.000Z</time>
      </trkpt>
      <trkpt lat="42.9397" lon="0.57302">
        <ele>776</ele>
        <time>2019-02-03T09:03:07.000Z</time>
      </trkpt>
      <trkpt lat="42.9397" lon="0.57304">
        <ele>776</ele>
        <time>2019-02-03T09:03:08.000Z</time>
      </trkpt>
      <trkpt lat="42.93971" lon="0.57305">
        <ele>776.3</ele>
        <time>2019-02-03T09:03:09.000Z</time>
      </trkpt>
      <trkpt lat="42.93971" lon="0.57306">
        <ele>776.7</ele>
        <time>2019-02-03T09:03:10.000Z</time>
      </trkpt>
      <trkpt lat="42.93971" lon="0.57308">
        <ele>777</ele>
        <time>2019-02-03T09:03:11.000Z</time>
      </trkpt>
      <trkpt lat="42.93971" lon="0.57309">
        <ele>777</ele>
        <time>2019-02-03T09:03:12.000Z</time>
      </trkpt>
      <trkpt lat="42.93972" lon="0.57311">
        <ele>777</ele>
        <time>2019-02-03T09:03:13.000Z</time>
      </trkpt>
      <trkpt lat="42.93972" lon="0.57312">
        <ele>777</ele>
        <time>2019-02-03T09:03:14.000Z</time>
      </trkpt>
      <trkpt lat="42.93973" lon="0.57313">
        <ele>777</ele>
        <time>2019-02-03T09:03:15.000Z</time>
      </trkpt>
      <trkpt lat="42.93973" lon="0.57314">
        <ele>777</ele>
        <time>2019-02-03T09:03:16.000Z</time>
      </trkpt>
      <trkpt lat="42.93973" lon="0.57315">
        <ele>777</ele>
        <time>2019-02-03T09:03:17.000Z</time>
      </trkpt>
      <trkpt lat="42.93974" lon="0.57316">
        <ele>777</ele>
        <time>2019-02-03T09:03:18.000Z</time>
      </trkpt>
      <trkpt lat="42.93974" lon="0.57317">
        <ele>777</ele>
        <time>2019-02-03T09:03:19.000Z</time>
      </trkpt>
      <trkpt lat="42.93975" lon="0.57319">
        <ele>777</ele>
        <time>2019-02-03T09:03:20.000Z</time>
      </trkpt>
      <trkpt lat="42.93975" lon="0.5732">
        <ele>777</ele>
        <time>2019-02-03T09:03:21.000Z</time>
      </trkpt>
      <trkpt lat="42.93976" lon="0.57321">
        <ele>777</ele>
        <time>2019-02-03T09:03:22.000Z</time>
      </trkpt>
      <trkpt lat="42.93976" lon="0.57322">
        <ele>777</ele>
        <time>2019-02-03T09:03:23.000Z</time>
      </trkpt>
      <trkpt lat="42.93977" lon="0.57323">
        <ele>777</ele>
        <time>2019-02-03T09:03:24.000Z</time>
      </trkpt>
      <trkpt lat="42.93977" lon="0.57324">
        <ele>777</ele>
        <time>2019-02-03T09:03:25.000Z</time>
      </trkpt>
      <trkpt lat="42.93978" lon="0.57325">
        <ele>777</ele>
        <time>2019-02-03T09:03:26.000Z</time>
      </trkpt>
      <trkpt lat="42.93978" lon="0.57326">
        <ele>777</ele>
        <time>2019-02-03T09:03:27.000Z</time>
      </trkpt>
      <trkpt lat="42.93979" lon="0.57327">
        <ele>778</ele>
        <time>2019-02-03T09:03:28.000Z</time>
      </trkpt>
      <trkpt lat="42.9398" lon="0.57328">
        <ele>778</ele>
        <time>2019-02-03T09:03:29.000Z</time>
      </trkpt>
      <trkpt lat="42.9398" lon="0.57329">
        <ele>778</ele>
        <time>2019-02-03T09:03:30.000Z</time>
      </trkpt>
      <trkpt lat="42.93981" lon="0.5733">
        <ele>778</ele>
        <time>2019-02-03T09:03:31.000Z</time>
      </trkpt>
      <trkpt lat="42.93981" lon="0.57331">
        <ele>778</ele>
        <time>2019-02-03T09:03:32.000Z</time>
      </trkpt>
      <trkpt lat="42.93982" lon="0.57333">
        <ele>778</ele>
        <time>2019-02-03T09:03:33.000Z</time>
      </trkpt>
      <trkpt lat="42.93982" lon="0.57334">
        <ele>778</ele>
        <time>2019-02-03T09:03:34.000Z</time>
      </trkpt>
      <trkpt lat="42.93982" lon="0.57335">
        <ele>778</ele>
        <time>2019-02-03T09:03:35.000Z</time>
      </trkpt>
      <trkpt lat="42.93983" lon="0.57336">
        <ele>778</ele>
        <time>2019-02-03T09:03:36.000Z</time>
      </trkpt>
      <trkpt lat="42.93984" lon="0.57337">
        <ele>778.3</ele>
        <time>2019-02-03T09:03:37.000Z</time>
      </trkpt>
      <trkpt lat="42.93984" lon="0.57339">
        <ele>778.7</ele>
        <time>2019-02-03T09:03:38.000Z</time>
      </trkpt>
      <trkpt lat="42.93985" lon="0.57339">
        <ele>779</ele>
        <time>2019-02-03T09:03:39.000Z</time>
      </trkpt>
      <trkpt lat="42.93985" lon="0.5734">
        <ele>779</ele>
        <time>2019-02-03T09:03:40.000Z</time>
      </trkpt>
      <trkpt lat="42.93986" lon="0.57341">
        <ele>779</ele>
        <time>2019-02-03T09:03:41.000Z</time>
      </trkpt>
      <trkpt lat="42.93986" lon="0.57342">
        <ele>779</ele>
        <time>2019-02-03T09:03:42.000Z</time>
      </trkpt>
      <trkpt lat="42.93986" lon="0.57342">
        <ele>779</ele>
        <time>2019-02-03T09:03:43.000Z</time>
      </trkpt>
      <trkpt lat="42.93987" lon="0.57342">
        <ele>779</ele>
        <time>2019-02-03T09:03:44.000Z</time>
      </trkpt>
      <trkpt lat="42.93987" lon="0.57343">
        <ele>779</ele>
        <time>2019-02-03T09:03:45.000Z</time>
      </trkpt>
      <trkpt lat="42.93988" lon="0.57343">
        <ele>779</ele>
        <time>2019-02-03T09:03:46.000Z</time>
      </trkpt>
      <trkpt lat="42.93988" lon="0.57344">
        <ele>779</ele>
        <time>2019-02-03T09:03:47.000Z</time>
      </trkpt>
      <trkpt lat="42.93989" lon="0.57345">
        <ele>779</ele>
        <time>2019-02-03T09:03:48.000Z</time>
      </trkpt>
      <trkpt lat="42.93989" lon="0.57346">
        <ele>779</ele>
        <time>2019-02-03T09:03:49.000Z</time>
      </trkpt>
      <trkpt lat="42.9399" lon="0.57347">
        <ele>779</ele>
        <time>2019-02-03T09:03:50.000Z</time>
      </trkpt>
      <trkpt lat="42.93991" lon="0.57348">
        <ele>779</ele>
        <time>2019-02-03T09:03:51.000Z</time>
      </trkpt>
      <trkpt lat="42.93992" lon="0.57349">
        <ele>779</ele>
        <time>2019-02-03T09:03:52.000Z</time>
      </trkpt>
      <trkpt lat="42.93992" lon="0.57351">
        <ele>779</ele>
        <time>2019-02-03T09:03:53.000Z</time>
      </trkpt>
      <trkpt lat="42.93993" lon="0.57352">
        <ele>779</ele>
        <time>2019-02-03T09:03:54.000Z</time>
      </trkpt>
      <trkpt lat="42.93993" lon="0.57353">
        <ele>779</ele>
        <time>2019-02-03T09:03:55.000Z</time>
      </trkpt>
      <trkpt lat="42.93993" lon="0.57354">
        <ele>779</ele>
        <time>2019-02-03T09:03:56.000Z</time>
      </trkpt>
      <trkpt lat="42.93994" lon="0.57355">
        <ele>779.3</ele>
        <time>2019-02-03T09:03:57.000Z</time>
      </trkpt>
      <trkpt lat="42.93994" lon="0.57356">
        <ele>779.7</ele>
        <time>2019-02-03T09:03:58.000Z</time>
      </trkpt>
      <trkpt lat="42.93994" lon="0.57356">
        <ele>780</ele>
        <time>2019-02-03T09:03:59.000Z</time>
      </trkpt>
      <trkpt lat="42.93994" lon="0.57357">
        <ele>780</ele>
        <time>2019-02-03T09:04:00.000Z</time>
      </trkpt>
      <trkpt lat="42.93994" lon="0.57357">
        <ele>780</ele>
        <time>2019-02-03T09:04:01.000Z</time>
      </trkpt>
      <trkpt lat="42.93994" lon="0.57358">
        <ele>780</ele>
        <time>2019-02-03T09:04:02.000Z</time>
      </trkpt>
      <trkpt lat="42.93994" lon="0.5736">
        <ele>780</ele>
        <time>2019-02-03T09:04:03.000Z</time>
      </trkpt>
      <trkpt lat="42.93994" lon="0.57361">
        <ele>780</ele>
        <time>2019-02-03T09:04:04.000Z</time>
      </trkpt>
      <trkpt lat="42.93995" lon="0.57363">
        <ele>780</ele>
        <time>2019-02-03T09:04:05.000Z</time>
      </trkpt>
      <trkpt lat="42.93996" lon="0.57364">
        <ele>780</ele>
        <time>2019-02-03T09:04:06.000Z</time>
      </trkpt>
      <trkpt lat="42.93996" lon="0.57366">
        <ele>780</ele>
        <time>2019-02-03T09:04:07.000Z</time>
      </trkpt>
      <trkpt lat="42.93997" lon="0.57367">
        <ele>780</ele>
        <time>2019-02-03T09:04:08.000Z</time>
      </trkpt>
      <trkpt lat="42.93998" lon="0.57368">
        <ele>780</ele>
        <time>2019-02-03T09:04:09.000Z</time>
      </trkpt>
      <trkpt lat="42.93998" lon="0.57369">
        <ele>780</ele>
        <time>2019-02-03T09:04:10.000Z</time>
      </trkpt>
      <trkpt lat="42.93999" lon="0.5737">
        <ele>780</ele>
        <time>2019-02-03T09:04:11.000Z</time>
      </trkpt>
      <trkpt lat="42.94" lon="0.57371">
        <ele>780</ele>
        <time>2019-02-03T09:04:12.000Z</time>
      </trkpt>
      <trkpt lat="42.94001" lon="0.57372">
        <ele>780</ele>
        <time>2019-02-03T09:04:13.000Z</time>
      </trkpt>
      <trkpt lat="42.94001" lon="0.57373">
        <ele>780</ele>
        <time>2019-02-03T09:04:14.000Z</time>
      </trkpt>
      <trkpt lat="42.94002" lon="0.57374">
        <ele>780</ele>
        <time>2019-02-03T09:04:15.000Z</time>
      </trkpt>
      <trkpt lat="42.94002" lon="0.57375">
        <ele>781</ele>
        <time>2019-02-03T09:04:16.000Z</time>
      </trkpt>
      <trkpt lat="42.94003" lon="0.57376">
        <ele>781</ele>
        <time>2019-02-03T09:04:17.000Z</time>
      </trkpt>
      <trkpt lat="42.94003" lon="0.57378">
        <ele>781</ele>
        <time>2019-02-03T09:04:18.000Z</time>
      </trkpt>
      <trkpt lat="42.94003" lon="0.57379">
        <ele>781</ele>
        <time>2019-02-03T09:04:19.000Z</time>
      </trkpt>
      <trkpt lat="42.94004" lon="0.57381">
        <ele>781</ele>
        <time>2019-02-03T09:04:20.000Z</time>
      </trkpt>
      <trkpt lat="42.94004" lon="0.57382">
        <ele>781</ele>
        <time>2019-02-03T09:04:21.000Z</time>
      </trkpt>
      <trkpt lat="42.94004" lon="0.57383">
        <ele>781</ele>
        <time>2019-02-03T09:04:22.000Z</time>
      </trkpt>
      <trkpt lat="42.94004" lon="0.57385">
        <ele>781</ele>
        <time>2019-02-03T09:04:23.000Z</time>
      </trkpt>
      <trkpt lat="42.94004" lon="0.57386">
        <ele>781</ele>
        <time>2019-02-03T09:04:24.000Z</time>
      </trkpt>
      <trkpt lat="42.94004" lon="0.57386">
        <ele>781</ele>
        <time>2019-02-03T09:04:25.000Z</time>
      </trkpt>
      <trkpt lat="42.94005" lon="0.57387">
        <ele>781</ele>
        <time>2019-02-03T09:04:26.000Z</time>
      </trkpt>
      <trkpt lat="42.94005" lon="0.57388">
        <ele>781</ele>
        <time>2019-02-03T09:04:27.000Z</time>
      </trkpt>
      <trkpt lat="42.94005" lon="0.57388">
        <ele>781</ele>
        <time>2019-02-03T09:04:28.000Z</time>
      </trkpt>
      <trkpt lat="42.94006" lon="0.57389">
        <ele>781</ele>
        <time>2019-02-03T09:04:29.000Z</time>
      </trkpt>
      <trkpt lat="42.94006" lon="0.5739">
        <ele>781</ele>
        <time>2019-02-03T09:04:30.000Z</time>
      </trkpt>
      <trkpt lat="42.94007" lon="0.57391">
        <ele>781.3</ele>
        <time>2019-02-03T09:04:31.000Z</time>
      </trkpt>
      <trkpt lat="42.94008" lon="0.57392">
        <ele>781.7</ele>
        <time>2019-02-03T09:04:32.000Z</time>
      </trkpt>
      <trkpt lat="42.94008" lon="0.57394">
        <ele>782</ele>
        <time>2019-02-03T09:04:33.000Z</time>
      </trkpt>
      <trkpt lat="42.94009" lon="0.57395">
        <ele>782</ele>
        <time>2019-02-03T09:04:34.000Z</time>
      </trkpt>
      <trkpt lat="42.9401" lon="0.57397">
        <ele>782</ele>
        <time>2019-02-03T09:04:35.000Z</time>
      </trkpt>
      <trkpt lat="42.94011" lon="0.57399">
        <ele>782</ele>
        <time>2019-02-03T09:04:36.000Z</time>
      </trkpt>
      <trkpt lat="42.94011" lon="0.574">
        <ele>782</ele>
        <time>2019-02-03T09:04:37.000Z</time>
      </trkpt>
      <trkpt lat="42.94011" lon="0.57401">
        <ele>782</ele>
        <time>2019-02-03T09:04:38.000Z</time>
      </trkpt>
      <trkpt lat="42.94012" lon="0.57402">
        <ele>782</ele>
        <time>2019-02-03T09:04:39.000Z</time>
      </trkpt>
      <trkpt lat="42.94012" lon="0.57402">
        <ele>782</ele>
        <time>2019-02-03T09:04:40.000Z</time>
      </trkpt>
      <trkpt lat="42.94012" lon="0.57403">
        <ele>782</ele>
        <time>2019-02-03T09:04:41.000Z</time>
      </trkpt>
      <trkpt lat="42.94012" lon="0.57403">
        <ele>782</ele>
        <time>2019-02-03T09:04:42.000Z</time>
      </trkpt>
      <trkpt lat="42.94012" lon="0.57404">
        <ele>782</ele>
        <time>2019-02-03T09:04:43.000Z</time>
      </trkpt>
      <trkpt lat="42.94012" lon="0.57405">
        <ele>782</ele>
        <time>2019-02-03T09:04:44.000Z</time>
      </trkpt>
      <trkpt lat="42.94013" lon="0.57406">
        <ele>782</ele>
        <time>2019-02-03T09:04:45.000Z</time>
      </trkpt>
      <trkpt lat="42.94013" lon="0.57407">
        <ele>782</ele>
        <time>2019-02-03T09:04:46.000Z</time>
      </trkpt>
      <trkpt lat="42.94013" lon="0.57408">
        <ele>782.3</ele>
        <time>2019-02-03T09:04:47.000Z</time>
      </trkpt>
      <trkpt lat="42.94014" lon="0.57409">
        <ele>782.7</ele>
        <time>2019-02-03T09:04:48.000Z</time>
      </trkpt>
      <trkpt lat="42.94014" lon="0.5741">
        <ele>783</ele>
        <time>2019-02-03T09:04:49.000Z</time>
      </trkpt>
      <trkpt lat="42.94015" lon="0.57412">
        <ele>783</ele>
        <time>2019-02-03T09:04:50.000Z</time>
      </trkpt>
      <trkpt lat="42.94015" lon="0.57413">
        <ele>783</ele>
        <time>2019-02-03T09:04:51.000Z</time>
      </trkpt>
      <trkpt lat="42.94016" lon="0.57414">
        <ele>783</ele>
        <time>2019-02-03T09:04:52.000Z</time>
      </trkpt>
      <trkpt lat="42.94016" lon="0.57416">
        <ele>783</ele>
        <time>2019-02-03T09:04:53.000Z</time>
      </trkpt>
      <trkpt lat="42.94016" lon="0.57417">
        <ele>783</ele>
        <time>2019-02-03T09:04:54.000Z</time>
      </trkpt>
      <trkpt lat="42.94017" lon="0.57418">
        <ele>783</ele>
        <time>2019-02-03T09:04:55.000Z</time>
      </trkpt>
      <trkpt lat="42.94017" lon="0.57419">
        <ele>783</ele>
        <time>2019-02-03T09:04:56.000Z</time>
      </trkpt>
      <trkpt lat="42.94018" lon="0.5742">
        <ele>783</ele>
        <time>2019-02-03T09:04:57.000Z</time>
      </trkpt>
      <trkpt lat="42.94018" lon="0.57421">
        <ele>784</ele>
        <time>2019-02-03T09:04:58.000Z</time>
      </trkpt>
      <trkpt lat="42.94018" lon="0.57422">
        <ele>784</ele>
        <time>2019-02-03T09:04:59.000Z</time>
      </trkpt>
      <trkpt lat="42.94018" lon="0.57423">
        <ele>784</ele>
        <time>2019-02-03T09:05:00.000Z</time>
      </trkpt>
      <trkpt lat="42.94019" lon="0.57424">
        <ele>784</ele>
        <time>2019-02-03T09:05:01.000Z</time>
      </trkpt>
      <trkpt lat="42.94019" lon="0.57425">
        <ele>784</ele>
        <time>2019-02-03T09:05:02.000Z</time>
      </trkpt>
      <trkpt lat="42.94019" lon="0.57426">
        <ele>784</ele>
        <time>2019-02-03T09:05:03.000Z</time>
      </trkpt>
      <trkpt lat="42.94019" lon="0.57427">
        <ele>784</ele>
        <time>2019-02-03T09:05:04.000Z</time>
      </trkpt>
      <trkpt lat="42.94019" lon="0.57428">
        <ele>784</ele>
        <time>2019-02-03T09:05:05.000Z</time>
      </trkpt>
      <trkpt lat="42.9402" lon="0.57429">
        <ele>784</ele>
        <time>2019-02-03T09:05:06.000Z</time>
      </trkpt>
      <trkpt lat="42.94021" lon="0.57431">
        <ele>784</ele>
        <time>2019-02-03T09:05:07.000Z</time>
      </trkpt>
      <trkpt lat="42.94022" lon="0.57434">
        <ele>784</ele>
        <time>2019-02-03T09:05:08.000Z</time>
      </trkpt>
      <trkpt lat="42.94023" lon="0.57437">
        <ele>784</ele>
        <time>2019-02-03T09:05:09.000Z</time>
      </trkpt>
      <trkpt lat="42.94025" lon="0.5744">
        <ele>784</ele>
        <time>2019-02-03T09:05:10.000Z</time>
      </trkpt>
      <trkpt lat="42.94026" lon="0.57442">
        <ele>784</ele>
        <time>2019-02-03T09:05:11.000Z</time>
      </trkpt>
      <trkpt lat="42.94027" lon="0.57444">
        <ele>784</ele>
        <time>2019-02-03T09:05:12.000Z</time>
      </trkpt>
      <trkpt lat="42.94027" lon="0.57446">
        <ele>784</ele>
        <time>2019-02-03T09:05:13.000Z</time>
      </trkpt>
      <trkpt lat="42.94028" lon="0.57447">
        <ele>784</ele>
        <time>2019-02-03T09:05:14.000Z</time>
      </trkpt>
      <trkpt lat="42.94028" lon="0.57447">
        <ele>784</ele>
        <time>2019-02-03T09:05:15.000Z</time>
      </trkpt>
      <trkpt lat="42.94027" lon="0.57448">
        <ele>784</ele>
        <time>2019-02-03T09:05:16.000Z</time>
      </trkpt>
      <trkpt lat="42.94027" lon="0.57449">
        <ele>784</ele>
        <time>2019-02-03T09:05:17.000Z</time>
      </trkpt>
      <trkpt lat="42.94026" lon="0.57449">
        <ele>784</ele>
        <time>2019-02-03T09:05:18.000Z</time>
      </trkpt>
      <trkpt lat="42.94026" lon="0.5745">
        <ele>784</ele>
        <time>2019-02-03T09:05:19.000Z</time>
      </trkpt>
      <trkpt lat="42.94025" lon="0.5745">
        <ele>784</ele>
        <time>2019-02-03T09:05:20.000Z</time>
      </trkpt>
      <trkpt lat="42.94025" lon="0.57451">
        <ele>784</ele>
        <time>2019-02-03T09:05:21.000Z</time>
      </trkpt>
      <trkpt lat="42.94025" lon="0.57452">
        <ele>784</ele>
        <time>2019-02-03T09:05:22.000Z</time>
      </trkpt>
      <trkpt lat="42.94025" lon="0.57453">
        <ele>784</ele>
        <time>2019-02-03T09:05:23.000Z</time>
      </trkpt>
      <trkpt lat="42.94025" lon="0.57454">
        <ele>784</ele>
        <time>2019-02-03T09:05:24.000Z</time>
      </trkpt>
      <trkpt lat="42.94025" lon="0.57456">
        <ele>784</ele>
        <time>2019-02-03T09:05:25.000Z</time>
      </trkpt>
      <trkpt lat="42.94025" lon="0.57457">
        <ele>784</ele>
        <time>2019-02-03T09:05:26.000Z</time>
      </trkpt>
      <trkpt lat="42.94025" lon="0.57458">
        <ele>784</ele>
        <time>2019-02-03T09:05:27.000Z</time>
      </trkpt>
      <trkpt lat="42.94025" lon="0.57459">
        <ele>784</ele>
        <time>2019-02-03T09:05:28.000Z</time>
      </trkpt>
      <trkpt lat="42.94024" lon="0.57459">
        <ele>784</ele>
        <time>2019-02-03T09:05:29.000Z</time>
      </trkpt>
      <trkpt lat="42.94024" lon="0.5746">
        <ele>784</ele>
        <time>2019-02-03T09:05:30.000Z</time>
      </trkpt>
      <trkpt lat="42.94024" lon="0.5746">
        <ele>784</ele>
        <time>2019-02-03T09:05:31.000Z</time>
      </trkpt>
      <trkpt lat="42.94024" lon="0.57461">
        <ele>785</ele>
        <time>2019-02-03T09:05:32.000Z</time>
      </trkpt>
      <trkpt lat="42.94023" lon="0.57462">
        <ele>785</ele>
        <time>2019-02-03T09:05:33.000Z</time>
      </trkpt>
      <trkpt lat="42.94023" lon="0.57463">
        <ele>785</ele>
        <time>2019-02-03T09:05:34.000Z</time>
      </trkpt>
      <trkpt lat="42.94022" lon="0.57464">
        <ele>785</ele>
        <time>2019-02-03T09:05:35.000Z</time>
      </trkpt>
      <trkpt lat="42.94022" lon="0.57465">
        <ele>785</ele>
        <time>2019-02-03T09:05:36.000Z</time>
      </trkpt>
      <trkpt lat="42.94022" lon="0.57467">
        <ele>785</ele>
        <time>2019-02-03T09:05:37.000Z</time>
      </trkpt>
      <trkpt lat="42.94021" lon="0.57468">
        <ele>785</ele>
        <time>2019-02-03T09:05:38.000Z</time>
      </trkpt>
      <trkpt lat="42.94021" lon="0.57469">
        <ele>785</ele>
        <time>2019-02-03T09:05:39.000Z</time>
      </trkpt>
      <trkpt lat="42.94021" lon="0.5747">
        <ele>785</ele>
        <time>2019-02-03T09:05:40.000Z</time>
      </trkpt>
      <trkpt lat="42.9402" lon="0.57472">
        <ele>785</ele>
        <time>2019-02-03T09:05:41.000Z</time>
      </trkpt>
      <trkpt lat="42.9402" lon="0.57473">
        <ele>786</ele>
        <time>2019-02-03T09:05:42.000Z</time>
      </trkpt>
      <trkpt lat="42.9402" lon="0.57474">
        <ele>786</ele>
        <time>2019-02-03T09:05:43.000Z</time>
      </trkpt>
      <trkpt lat="42.9402" lon="0.57475">
        <ele>786</ele>
        <time>2019-02-03T09:05:44.000Z</time>
      </trkpt>
      <trkpt lat="42.9402" lon="0.57476">
        <ele>786</ele>
        <time>2019-02-03T09:05:45.000Z</time>
      </trkpt>
      <trkpt lat="42.9402" lon="0.57477">
        <ele>786</ele>
        <time>2019-02-03T09:05:46.000Z</time>
      </trkpt>
      <trkpt lat="42.9402" lon="0.57478">
        <ele>786</ele>
        <time>2019-02-03T09:05:47.000Z</time>
      </trkpt>
      <trkpt lat="42.9402" lon="0.57479">
        <ele>786</ele>
        <time>2019-02-03T09:05:48.000Z</time>
      </trkpt>
      <trkpt lat="42.9402" lon="0.57479">
        <ele>786.3</ele>
        <time>2019-02-03T09:05:49.000Z</time>
      </trkpt>
      <trkpt lat="42.9402" lon="0.5748">
        <ele>786.7</ele>
        <time>2019-02-03T09:05:50.000Z</time>
      </trkpt>
      <trkpt lat="42.9402" lon="0.57482">
        <ele>787</ele>
        <time>2019-02-03T09:05:51.000Z</time>
      </trkpt>
      <trkpt lat="42.9402" lon="0.57483">
        <ele>787</ele>
        <time>2019-02-03T09:05:52.000Z</time>
      </trkpt>
      <trkpt lat="42.9402" lon="0.57484">
        <ele>787</ele>
        <time>2019-02-03T09:05:53.000Z</time>
      </trkpt>
      <trkpt lat="42.94019" lon="0.57485">
        <ele>787</ele>
        <time>2019-02-03T09:05:54.000Z</time>
      </trkpt>
      <trkpt lat="42.94019" lon="0.57487">
        <ele>787</ele>
        <time>2019-02-03T09:05:55.000Z</time>
      </trkpt>
      <trkpt lat="42.94018" lon="0.57488">
        <ele>787</ele>
        <time>2019-02-03T09:05:56.000Z</time>
      </trkpt>
      <trkpt lat="42.94018" lon="0.57489">
        <ele>787</ele>
        <time>2019-02-03T09:05:57.000Z</time>
      </trkpt>
      <trkpt lat="42.94017" lon="0.5749">
        <ele>787</ele>
        <time>2019-02-03T09:05:58.000Z</time>
      </trkpt>
      <trkpt lat="42.94016" lon="0.57491">
        <ele>787</ele>
        <time>2019-02-03T09:05:59.000Z</time>
      </trkpt>
      <trkpt lat="42.94016" lon="0.57492">
        <ele>787.5</ele>
        <time>2019-02-03T09:06:00.000Z</time>
      </trkpt>
      <trkpt lat="42.94015" lon="0.57493">
        <ele>788</ele>
        <time>2019-02-03T09:06:01.000Z</time>
      </trkpt>
      <trkpt lat="42.94014" lon="0.57494">
        <ele>788</ele>
        <time>2019-02-03T09:06:02.000Z</time>
      </trkpt>
      <trkpt lat="42.94013" lon="0.57494">
        <ele>788</ele>
        <time>2019-02-03T09:06:03.000Z</time>
      </trkpt>
      <trkpt lat="42.94013" lon="0.57495">
        <ele>788</ele>
        <time>2019-02-03T09:06:04.000Z</time>
      </trkpt>
      <trkpt lat="42.94012" lon="0.57496">
        <ele>788</ele>
        <time>2019-02-03T09:06:05.000Z</time>
      </trkpt>
      <trkpt lat="42.94011" lon="0.57498">
        <ele>788</ele>
        <time>2019-02-03T09:06:06.000Z</time>
      </trkpt>
      <trkpt lat="42.94011" lon="0.57499">
        <ele>788</ele>
        <time>2019-02-03T09:06:07.000Z</time>
      </trkpt>
      <trkpt lat="42.9401" lon="0.575">
        <ele>788</ele>
        <time>2019-02-03T09:06:08.000Z</time>
      </trkpt>
      <trkpt lat="42.9401" lon="0.57502">
        <ele>788</ele>
        <time>2019-02-03T09:06:09.000Z</time>
      </trkpt>
      <trkpt lat="42.94009" lon="0.57503">
        <ele>788</ele>
        <time>2019-02-03T09:06:10.000Z</time>
      </trkpt>
      <trkpt lat="42.94009" lon="0.57505">
        <ele>788</ele>
        <time>2019-02-03T09:06:11.000Z</time>
      </trkpt>
      <trkpt lat="42.94008" lon="0.57506">
        <ele>788</ele>
        <time>2019-02-03T09:06:12.000Z</time>
      </trkpt>
      <trkpt lat="42.94008" lon="0.57508">
        <ele>788</ele>
        <time>2019-02-03T09:06:13.000Z</time>
      </trkpt>
      <trkpt lat="42.94008" lon="0.57509">
        <ele>789</ele>
        <time>2019-02-03T09:06:14.000Z</time>
      </trkpt>
      <trkpt lat="42.94007" lon="0.5751">
        <ele>789</ele>
        <time>2019-02-03T09:06:15.000Z</time>
      </trkpt>
      <trkpt lat="42.94007" lon="0.57511">
        <ele>789</ele>
        <time>2019-02-03T09:06:16.000Z</time>
      </trkpt>
      <trkpt lat="42.94007" lon="0.57512">
        <ele>789</ele>
        <time>2019-02-03T09:06:17.000Z</time>
      </trkpt>
      <trkpt lat="42.94006" lon="0.57513">
        <ele>789</ele>
        <time>2019-02-03T09:06:18.000Z</time>
      </trkpt>
      <trkpt lat="42.94006" lon="0.57514">
        <ele>789.3</ele>
        <time>2019-02-03T09:06:19.000Z</time>
      </trkpt>
      <trkpt lat="42.94006" lon="0.57515">
        <ele>789.7</ele>
        <time>2019-02-03T09:06:20.000Z</time>
      </trkpt>
      <trkpt lat="42.94005" lon="0.57515">
        <ele>790</ele>
        <time>2019-02-03T09:06:21.000Z</time>
      </trkpt>
      <trkpt lat="42.94005" lon="0.57516">
        <ele>790</ele>
        <time>2019-02-03T09:06:22.000Z</time>
      </trkpt>
      <trkpt lat="42.94004" lon="0.57516">
        <ele>790</ele>
        <time>2019-02-03T09:06:23.000Z</time>
      </trkpt>
      <trkpt lat="42.94004" lon="0.57517">
        <ele>790</ele>
        <time>2019-02-03T09:06:24.000Z</time>
      </trkpt>
      <trkpt lat="42.94004" lon="0.57518">
        <ele>790</ele>
        <time>2019-02-03T09:06:25.000Z</time>
      </trkpt>
      <trkpt lat="42.94003" lon="0.57518">
        <ele>790.5</ele>
        <time>2019-02-03T09:06:26.000Z</time>
      </trkpt>
      <trkpt lat="42.94003" lon="0.57519">
        <ele>791</ele>
        <time>2019-02-03T09:06:27.000Z</time>
      </trkpt>
      <trkpt lat="42.94003" lon="0.5752">
        <ele>791</ele>
        <time>2019-02-03T09:06:28.000Z</time>
      </trkpt>
      <trkpt lat="42.94002" lon="0.57521">
        <ele>791</ele>
        <time>2019-02-03T09:06:29.000Z</time>
      </trkpt>
      <trkpt lat="42.94002" lon="0.57523">
        <ele>791</ele>
        <time>2019-02-03T09:06:30.000Z</time>
      </trkpt>
      <trkpt lat="42.94001" lon="0.57524">
        <ele>791</ele>
        <time>2019-02-03T09:06:31.000Z</time>
      </trkpt>
      <trkpt lat="42.94" lon="0.57526">
        <ele>791</ele>
        <time>2019-02-03T09:06:32.000Z</time>
      </trkpt>
      <trkpt lat="42.93999" lon="0.57527">
        <ele>791.3</ele>
        <time>2019-02-03T09:06:33.000Z</time>
      </trkpt>
      <trkpt lat="42.93999" lon="0.57529">
        <ele>791.7</ele>
        <time>2019-02-03T09:06:34.000Z</time>
      </trkpt>
      <trkpt lat="42.93998" lon="0.5753">
        <ele>792</ele>
        <time>2019-02-03T09:06:35.000Z</time>
      </trkpt>
      <trkpt lat="42.93997" lon="0.57531">
        <ele>792</ele>
        <time>2019-02-03T09:06:36.000Z</time>
      </trkpt>
      <trkpt lat="42.93997" lon="0.57532">
        <ele>792</ele>
        <time>2019-02-03T09:06:37.000Z</time>
      </trkpt>
      <trkpt lat="42.93996" lon="0.57533">
        <ele>792</ele>
        <time>2019-02-03T09:06:38.000Z</time>
      </trkpt>
      <trkpt lat="42.93996" lon="0.57534">
        <ele>792</ele>
        <time>2019-02-03T09:06:39.000Z</time>
      </trkpt>
      <trkpt lat="42.93995" lon="0.57535">
        <ele>792</ele>
        <time>2019-02-03T09:06:40.000Z</time>
      </trkpt>
      <trkpt lat="42.93995" lon="0.57536">
        <ele>792</ele>
        <time>2019-02-03T09:06:41.000Z</time>
      </trkpt>
      <trkpt lat="42.93995" lon="0.57537">
        <ele>792</ele>
        <time>2019-02-03T09:06:42.000Z</time>
      </trkpt>
      <trkpt lat="42.93994" lon="0.57538">
        <ele>792.3</ele>
        <time>2019-02-03T09:06:43.000Z</time>
      </trkpt>
      <trkpt lat="42.93994" lon="0.57539">
        <ele>792.7</ele>
        <time>2019-02-03T09:06:44.000Z</time>
      </trkpt>
      <trkpt lat="42.93993" lon="0.5754">
        <ele>793</ele>
        <time>2019-02-03T09:06:45.000Z</time>
      </trkpt>
      <trkpt lat="42.93993" lon="0.57541">
        <ele>793</ele>
        <time>2019-02-03T09:06:46.000Z</time>
      </trkpt>
      <trkpt lat="42.93992" lon="0.57542">
        <ele>793</ele>
        <time>2019-02-03T09:06:47.000Z</time>
      </trkpt>
      <trkpt lat="42.93992" lon="0.57543">
        <ele>793</ele>
        <time>2019-02-03T09:06:48.000Z</time>
      </trkpt>
      <trkpt lat="42.93992" lon="0.57544">
        <ele>793</ele>
        <time>2019-02-03T09:06:49.000Z</time>
      </trkpt>
      <trkpt lat="42.93991" lon="0.57545">
        <ele>794</ele>
        <time>2019-02-03T09:06:50.000Z</time>
      </trkpt>
      <trkpt lat="42.93991" lon="0.57546">
        <ele>794</ele>
        <time>2019-02-03T09:06:51.000Z</time>
      </trkpt>
      <trkpt lat="42.93991" lon="0.57548">
        <ele>794</ele>
        <time>2019-02-03T09:06:52.000Z</time>
      </trkpt>
      <trkpt lat="42.9399" lon="0.57549">
        <ele>794</ele>
        <time>2019-02-03T09:06:53.000Z</time>
      </trkpt>
      <trkpt lat="42.9399" lon="0.5755">
        <ele>794</ele>
        <time>2019-02-03T09:06:54.000Z</time>
      </trkpt>
      <trkpt lat="42.9399" lon="0.57551">
        <ele>794</ele>
        <time>2019-02-03T09:06:55.000Z</time>
      </trkpt>
      <trkpt lat="42.9399" lon="0.57552">
        <ele>794</ele>
        <time>2019-02-03T09:06:56.000Z</time>
      </trkpt>
      <trkpt lat="42.93989" lon="0.57554">
        <ele>794.3</ele>
        <time>2019-02-03T09:06:57.000Z</time>
      </trkpt>
      <trkpt lat="42.93989" lon="0.57555">
        <ele>794.7</ele>
        <time>2019-02-03T09:06:58.000Z</time>
      </trkpt>
      <trkpt lat="42.93989" lon="0.57556">
        <ele>795</ele>
        <time>2019-02-03T09:06:59.000Z</time>
      </trkpt>
      <trkpt lat="42.93989" lon="0.57557">
        <ele>795</ele>
        <time>2019-02-03T09:07:00.000Z</time>
      </trkpt>
      <trkpt lat="42.93989" lon="0.57558">
        <ele>795</ele>
        <time>2019-02-03T09:07:01.000Z</time>
      </trkpt>
      <trkpt lat="42.93989" lon="0.57559">
        <ele>795</ele>
        <time>2019-02-03T09:07:02.000Z</time>
      </trkpt>
      <trkpt lat="42.93989" lon="0.5756">
        <ele>795</ele>
        <time>2019-02-03T09:07:03.000Z</time>
      </trkpt>
      <trkpt lat="42.93988" lon="0.57561">
        <ele>795</ele>
        <time>2019-02-03T09:07:04.000Z</time>
      </trkpt>
      <trkpt lat="42.93988" lon="0.57562">
        <ele>795</ele>
        <time>2019-02-03T09:07:05.000Z</time>
      </trkpt>
      <trkpt lat="42.93988" lon="0.57563">
        <ele>795</ele>
        <time>2019-02-03T09:07:06.000Z</time>
      </trkpt>
      <trkpt lat="42.93988" lon="0.57564">
        <ele>795</ele>
        <time>2019-02-03T09:07:07.000Z</time>
      </trkpt>
      <trkpt lat="42.93988" lon="0.57565">
        <ele>796</ele>
        <time>2019-02-03T09:07:08.000Z</time>
      </trkpt>
      <trkpt lat="42.93988" lon="0.57566">
        <ele>796</ele>
        <time>2019-02-03T09:07:09.000Z</time>
      </trkpt>
      <trkpt lat="42.93988" lon="0.57567">
        <ele>796</ele>
        <time>2019-02-03T09:07:10.000Z</time>
      </trkpt>
      <trkpt lat="42.93988" lon="0.57568">
        <ele>796</ele>
        <time>2019-02-03T09:07:11.000Z</time>
      </trkpt>
      <trkpt lat="42.93987" lon="0.5757">
        <ele>796</ele>
        <time>2019-02-03T09:07:12.000Z</time>
      </trkpt>
      <trkpt lat="42.93987" lon="0.57571">
        <ele>796</ele>
        <time>2019-02-03T09:07:13.000Z</time>
      </trkpt>
      <trkpt lat="42.93987" lon="0.57572">
        <ele>796</ele>
        <time>2019-02-03T09:07:14.000Z</time>
      </trkpt>
      <trkpt lat="42.93986" lon="0.57573">
        <ele>796</ele>
        <time>2019-02-03T09:07:15.000Z</time>
      </trkpt>
      <trkpt lat="42.93986" lon="0.57574">
        <ele>796</ele>
        <time>2019-02-03T09:07:16.000Z</time>
      </trkpt>
      <trkpt lat="42.93986" lon="0.57575">
        <ele>796</ele>
        <time>2019-02-03T09:07:17.000Z</time>
      </trkpt>
      <trkpt lat="42.93985" lon="0.57576">
        <ele>797</ele>
        <time>2019-02-03T09:07:18.000Z</time>
      </trkpt>
      <trkpt lat="42.93985" lon="0.57577">
        <ele>797</ele>
        <time>2019-02-03T09:07:19.000Z</time>
      </trkpt>
      <trkpt lat="42.93985" lon="0.57578">
        <ele>797</ele>
        <time>2019-02-03T09:07:20.000Z</time>
      </trkpt>
      <trkpt lat="42.93984" lon="0.57579">
        <ele>797</ele>
        <time>2019-02-03T09:07:21.000Z</time>
      </trkpt>
      <trkpt lat="42.93984" lon="0.57581">
        <ele>797</ele>
        <time>2019-02-03T09:07:22.000Z</time>
      </trkpt>
      <trkpt lat="42.93983" lon="0.57582">
        <ele>797</ele>
        <time>2019-02-03T09:07:23.000Z</time>
      </trkpt>
      <trkpt lat="42.93983" lon="0.57583">
        <ele>797</ele>
        <time>2019-02-03T09:07:24.000Z</time>
      </trkpt>
      <trkpt lat="42.93983" lon="0.57585">
        <ele>797</ele>
        <time>2019-02-03T09:07:25.000Z</time>
      </trkpt>
      <trkpt lat="42.93982" lon="0.57586">
        <ele>797</ele>
        <time>2019-02-03T09:07:26.000Z</time>
      </trkpt>
      <trkpt lat="42.93982" lon="0.57587">
        <ele>797</ele>
        <time>2019-02-03T09:07:27.000Z</time>
      </trkpt>
      <trkpt lat="42.93982" lon="0.57589">
        <ele>797</ele>
        <time>2019-02-03T09:07:28.000Z</time>
      </trkpt>
      <trkpt lat="42.93982" lon="0.5759">
        <ele>797</ele>
        <time>2019-02-03T09:07:29.000Z</time>
      </trkpt>
      <trkpt lat="42.93981" lon="0.57591">
        <ele>797</ele>
        <time>2019-02-03T09:07:30.000Z</time>
      </trkpt>
      <trkpt lat="42.93981" lon="0.57593">
        <ele>797</ele>
        <time>2019-02-03T09:07:31.000Z</time>
      </trkpt>
      <trkpt lat="42.93981" lon="0.57594">
        <ele>798</ele>
        <time>2019-02-03T09:07:32.000Z</time>
      </trkpt>
      <trkpt lat="42.93981" lon="0.57595">
        <ele>798</ele>
        <time>2019-02-03T09:07:33.000Z</time>
      </trkpt>
      <trkpt lat="42.9398" lon="0.57597">
        <ele>798</ele>
        <time>2019-02-03T09:07:34.000Z</time>
      </trkpt>
      <trkpt lat="42.9398" lon="0.57598">
        <ele>798</ele>
        <time>2019-02-03T09:07:35.000Z</time>
      </trkpt>
      <trkpt lat="42.9398" lon="0.57599">
        <ele>798</ele>
        <time>2019-02-03T09:07:36.000Z</time>
      </trkpt>
      <trkpt lat="42.9398" lon="0.57601">
        <ele>798.3</ele>
        <time>2019-02-03T09:07:37.000Z</time>
      </trkpt>
      <trkpt lat="42.9398" lon="0.57602">
        <ele>798.7</ele>
        <time>2019-02-03T09:07:38.000Z</time>
      </trkpt>
      <trkpt lat="42.93979" lon="0.57603">
        <ele>799</ele>
        <time>2019-02-03T09:07:39.000Z</time>
      </trkpt>
      <trkpt lat="42.93979" lon="0.57604">
        <ele>799</ele>
        <time>2019-02-03T09:07:40.000Z</time>
      </trkpt>
      <trkpt lat="42.93979" lon="0.57606">
        <ele>799</ele>
        <time>2019-02-03T09:07:41.000Z</time>
      </trkpt>
      <trkpt lat="42.93979" lon="0.57607">
        <ele>799</ele>
        <time>2019-02-03T09:07:42.000Z</time>
      </trkpt>
      <trkpt lat="42.93979" lon="0.57608">
        <ele>799</ele>
        <time>2019-02-03T09:07:43.000Z</time>
      </trkpt>
      <trkpt lat="42.93978" lon="0.57609">
        <ele>799</ele>
        <time>2019-02-03T09:07:44.000Z</time>
      </trkpt>
      <trkpt lat="42.93978" lon="0.5761">
        <ele>799</ele>
        <time>2019-02-03T09:07:45.000Z</time>
      </trkpt>
      <trkpt lat="42.93978" lon="0.57611">
        <ele>799</ele>
        <time>2019-02-03T09:07:46.000Z</time>
      </trkpt>
      <trkpt lat="42.93978" lon="0.57612">
        <ele>799</ele>
        <time>2019-02-03T09:07:47.000Z</time>
      </trkpt>
      <trkpt lat="42.93978" lon="0.57613">
        <ele>799</ele>
        <time>2019-02-03T09:07:48.000Z</time>
      </trkpt>
      <trkpt lat="42.93978" lon="0.57614">
        <ele>799</ele>
        <time>2019-02-03T09:07:49.000Z</time>
      </trkpt>
      <trkpt lat="42.93978" lon="0.57615">
        <ele>799</ele>
        <time>2019-02-03T09:07:50.000Z</time>
      </trkpt>
      <trkpt lat="42.93977" lon="0.57616">
        <ele>799</ele>
        <time>2019-02-03T09:07:51.000Z</time>
      </trkpt>
      <trkpt lat="42.93977" lon="0.57617">
        <ele>799</ele>
        <time>2019-02-03T09:07:52.000Z</time>
      </trkpt>
      <trkpt lat="42.93977" lon="0.57618">
        <ele>799</ele>
        <time>2019-02-03T09:07:53.000Z</time>
      </trkpt>
      <trkpt lat="42.93977" lon="0.57619">
        <ele>799</ele>
        <time>2019-02-03T09:07:54.000Z</time>
      </trkpt>
      <trkpt lat="42.93977" lon="0.5762">
        <ele>799</ele>
        <time>2019-02-03T09:07:55.000Z</time>
      </trkpt>
      <trkpt lat="42.93977" lon="0.57621">
        <ele>799</ele>
        <time>2019-02-03T09:07:56.000Z</time>
      </trkpt>
      <trkpt lat="42.93977" lon="0.57621">
        <ele>799</ele>
        <time>2019-02-03T09:07:57.000Z</time>
      </trkpt>
      <trkpt lat="42.93977" lon="0.57622">
        <ele>799</ele>
        <time>2019-02-03T09:07:58.000Z</time>
      </trkpt>
      <trkpt lat="42.93976" lon="0.57623">
        <ele>799</ele>
        <time>2019-02-03T09:07:59.000Z</time>
      </trkpt>
      <trkpt lat="42.93976" lon="0.57624">
        <ele>799</ele>
        <time>2019-02-03T09:08:00.000Z</time>
      </trkpt>
      <trkpt lat="42.93976" lon="0.57625">
        <ele>799</ele>
        <time>2019-02-03T09:08:01.000Z</time>
      </trkpt>
      <trkpt lat="42.93976" lon="0.57626">
        <ele>799</ele>
        <time>2019-02-03T09:08:02.000Z</time>
      </trkpt>
      <trkpt lat="42.93976" lon="0.57628">
        <ele>799.3</ele>
        <time>2019-02-03T09:08:03.000Z</time>
      </trkpt>
      <trkpt lat="42.93975" lon="0.57629">
        <ele>799.7</ele>
        <time>2019-02-03T09:08:04.000Z</time>
      </trkpt>
      <trkpt lat="42.93975" lon="0.5763">
        <ele>800</ele>
        <time>2019-02-03T09:08:05.000Z</time>
      </trkpt>
      <trkpt lat="42.93975" lon="0.57631">
        <ele>800</ele>
        <time>2019-02-03T09:08:06.000Z</time>
      </trkpt>
      <trkpt lat="42.93975" lon="0.57633">
        <ele>800</ele>
        <time>2019-02-03T09:08:07.000Z</time>
      </trkpt>
      <trkpt lat="42.93975" lon="0.57634">
        <ele>800</ele>
        <time>2019-02-03T09:08:08.000Z</time>
      </trkpt>
      <trkpt lat="42.93974" lon="0.57635">
        <ele>800</ele>
        <time>2019-02-03T09:08:09.000Z</time>
      </trkpt>
      <trkpt lat="42.93974" lon="0.57636">
        <ele>800</ele>
        <time>2019-02-03T09:08:10.000Z</time>
      </trkpt>
      <trkpt lat="42.93974" lon="0.57637">
        <ele>800</ele>
        <time>2019-02-03T09:08:11.000Z</time>
      </trkpt>
      <trkpt lat="42.93974" lon="0.57639">
        <ele>800</ele>
        <time>2019-02-03T09:08:12.000Z</time>
      </trkpt>
      <trkpt lat="42.93974" lon="0.5764">
        <ele>800</ele>
        <time>2019-02-03T09:08:13.000Z</time>
      </trkpt>
      <trkpt lat="42.93974" lon="0.57641">
        <ele>800</ele>
        <time>2019-02-03T09:08:14.000Z</time>
      </trkpt>
      <trkpt lat="42.93974" lon="0.57642">
        <ele>800</ele>
        <time>2019-02-03T09:08:15.000Z</time>
      </trkpt>
      <trkpt lat="42.93975" lon="0.57643">
        <ele>800</ele>
        <time>2019-02-03T09:08:16.000Z</time>
      </trkpt>
      <trkpt lat="42.93975" lon="0.57645">
        <ele>800</ele>
        <time>2019-02-03T09:08:17.000Z</time>
      </trkpt>
      <trkpt lat="42.93975" lon="0.57646">
        <ele>800</ele>
        <time>2019-02-03T09:08:18.000Z</time>
      </trkpt>
      <trkpt lat="42.93975" lon="0.57647">
        <ele>800.3</ele>
        <time>2019-02-03T09:08:19.000Z</time>
      </trkpt>
      <trkpt lat="42.93976" lon="0.57648">
        <ele>800.7</ele>
        <time>2019-02-03T09:08:20.000Z</time>
      </trkpt>
      <trkpt lat="42.93976" lon="0.5765">
        <ele>801</ele>
        <time>2019-02-03T09:08:21.000Z</time>
      </trkpt>
      <trkpt lat="42.93976" lon="0.57651">
        <ele>801</ele>
        <time>2019-02-03T09:08:22.000Z</time>
      </trkpt>
      <trkpt lat="42.93977" lon="0.57652">
        <ele>801</ele>
        <time>2019-02-03T09:08:23.000Z</time>
      </trkpt>
      <trkpt lat="42.93977" lon="0.57653">
        <ele>801</ele>
        <time>2019-02-03T09:08:24.000Z</time>
      </trkpt>
      <trkpt lat="42.93977" lon="0.57655">
        <ele>801</ele>
        <time>2019-02-03T09:08:25.000Z</time>
      </trkpt>
      <trkpt lat="42.93977" lon="0.57656">
        <ele>801</ele>
        <time>2019-02-03T09:08:26.000Z</time>
      </trkpt>
      <trkpt lat="42.93978" lon="0.57657">
        <ele>801</ele>
        <time>2019-02-03T09:08:27.000Z</time>
      </trkpt>
      <trkpt lat="42.93978" lon="0.57659">
        <ele>801</ele>
        <time>2019-02-03T09:08:28.000Z</time>
      </trkpt>
      <trkpt lat="42.93978" lon="0.5766">
        <ele>801</ele>
        <time>2019-02-03T09:08:29.000Z</time>
      </trkpt>
      <trkpt lat="42.93978" lon="0.57661">
        <ele>801</ele>
        <time>2019-02-03T09:08:30.000Z</time>
      </trkpt>
      <trkpt lat="42.93978" lon="0.57662">
        <ele>801</ele>
        <time>2019-02-03T09:08:31.000Z</time>
      </trkpt>
      <trkpt lat="42.93978" lon="0.57663">
        <ele>801</ele>
        <time>2019-02-03T09:08:32.000Z</time>
      </trkpt>
      <trkpt lat="42.93978" lon="0.57665">
        <ele>801</ele>
        <time>2019-02-03T09:08:33.000Z</time>
      </trkpt>
      <trkpt lat="42.93978" lon="0.57666">
        <ele>801</ele>
        <time>2019-02-03T09:08:34.000Z</time>
      </trkpt>
      <trkpt lat="42.93979" lon="0.57667">
        <ele>801</ele>
        <time>2019-02-03T09:08:35.000Z</time>
      </trkpt>
      <trkpt lat="42.93979" lon="0.57669">
        <ele>801</ele>
        <time>2019-02-03T09:08:36.000Z</time>
      </trkpt>
      <trkpt lat="42.93979" lon="0.5767">
        <ele>801</ele>
        <time>2019-02-03T09:08:37.000Z</time>
      </trkpt>
      <trkpt lat="42.9398" lon="0.57671">
        <ele>802</ele>
        <time>2019-02-03T09:08:38.000Z</time>
      </trkpt>
      <trkpt lat="42.93981" lon="0.57673">
        <ele>802</ele>
        <time>2019-02-03T09:08:39.000Z</time>
      </trkpt>
      <trkpt lat="42.93981" lon="0.57674">
        <ele>802</ele>
        <time>2019-02-03T09:08:40.000Z</time>
      </trkpt>
      <trkpt lat="42.93982" lon="0.57675">
        <ele>802</ele>
        <time>2019-02-03T09:08:41.000Z</time>
      </trkpt>
      <trkpt lat="42.93983" lon="0.57676">
        <ele>802</ele>
        <time>2019-02-03T09:08:42.000Z</time>
      </trkpt>
      <trkpt lat="42.93983" lon="0.57677">
        <ele>802</ele>
        <time>2019-02-03T09:08:43.000Z</time>
      </trkpt>
      <trkpt lat="42.93983" lon="0.57677">
        <ele>802</ele>
        <time>2019-02-03T09:08:44.000Z</time>
      </trkpt>
      <trkpt lat="42.93983" lon="0.57677">
        <ele>802</ele>
        <time>2019-02-03T09:08:45.000Z</time>
      </trkpt>
      <trkpt lat="42.93983" lon="0.57677">
        <ele>802</ele>
        <time>2019-02-03T09:08:46.000Z</time>
      </trkpt>
      <trkpt lat="42.93984" lon="0.57678">
        <ele>802</ele>
        <time>2019-02-03T09:08:47.000Z</time>
      </trkpt>
      <trkpt lat="42.93984" lon="0.57679">
        <ele>802</ele>
        <time>2019-02-03T09:08:48.000Z</time>
      </trkpt>
      <trkpt lat="42.93984" lon="0.5768">
        <ele>802</ele>
        <time>2019-02-03T09:08:49.000Z</time>
      </trkpt>
      <trkpt lat="42.93985" lon="0.57681">
        <ele>802</ele>
        <time>2019-02-03T09:08:50.000Z</time>
      </trkpt>
      <trkpt lat="42.93985" lon="0.57683">
        <ele>802</ele>
        <time>2019-02-03T09:08:51.000Z</time>
      </trkpt>
      <trkpt lat="42.93986" lon="0.57684">
        <ele>802</ele>
        <time>2019-02-03T09:08:52.000Z</time>
      </trkpt>
      <trkpt lat="42.93986" lon="0.57685">
        <ele>802</ele>
        <time>2019-02-03T09:08:53.000Z</time>
      </trkpt>
      <trkpt lat="42.93987" lon="0.57686">
        <ele>802</ele>
        <time>2019-02-03T09:08:54.000Z</time>
      </trkpt>
      <trkpt lat="42.93987" lon="0.57687">
        <ele>802.3</ele>
        <time>2019-02-03T09:08:55.000Z</time>
      </trkpt>
      <trkpt lat="42.93987" lon="0.57688">
        <ele>802.7</ele>
        <time>2019-02-03T09:08:56.000Z</time>
      </trkpt>
      <trkpt lat="42.93988" lon="0.57689">
        <ele>803</ele>
        <time>2019-02-03T09:08:57.000Z</time>
      </trkpt>
      <trkpt lat="42.93989" lon="0.57691">
        <ele>803</ele>
        <time>2019-02-03T09:08:58.000Z</time>
      </trkpt>
      <trkpt lat="42.9399" lon="0.57692">
        <ele>803</ele>
        <time>2019-02-03T09:08:59.000Z</time>
      </trkpt>
      <trkpt lat="42.93991" lon="0.57693">
        <ele>803</ele>
        <time>2019-02-03T09:09:00.000Z</time>
      </trkpt>
      <trkpt lat="42.93993" lon="0.57695">
        <ele>803</ele>
        <time>2019-02-03T09:09:01.000Z</time>
      </trkpt>
      <trkpt lat="42.93994" lon="0.57696">
        <ele>803</ele>
        <time>2019-02-03T09:09:02.000Z</time>
      </trkpt>
      <trkpt lat="42.93995" lon="0.57698">
        <ele>803</ele>
        <time>2019-02-03T09:09:03.000Z</time>
      </trkpt>
      <trkpt lat="42.93996" lon="0.57699">
        <ele>803</ele>
        <time>2019-02-03T09:09:04.000Z</time>
      </trkpt>
      <trkpt lat="42.93997" lon="0.577">
        <ele>803</ele>
        <time>2019-02-03T09:09:05.000Z</time>
      </trkpt>
      <trkpt lat="42.93998" lon="0.577">
        <ele>803</ele>
        <time>2019-02-03T09:09:06.000Z</time>
      </trkpt>
      <trkpt lat="42.93999" lon="0.57701">
        <ele>803</ele>
        <time>2019-02-03T09:09:07.000Z</time>
      </trkpt>
      <trkpt lat="42.93999" lon="0.57701">
        <ele>803</ele>
        <time>2019-02-03T09:09:08.000Z</time>
      </trkpt>
      <trkpt lat="42.94" lon="0.57701">
        <ele>803</ele>
        <time>2019-02-03T09:09:09.000Z</time>
      </trkpt>
      <trkpt lat="42.94" lon="0.57702">
        <ele>804</ele>
        <time>2019-02-03T09:09:10.000Z</time>
      </trkpt>
      <trkpt lat="42.94001" lon="0.57702">
        <ele>804</ele>
        <time>2019-02-03T09:09:11.000Z</time>
      </trkpt>
      <trkpt lat="42.94001" lon="0.57703">
        <ele>804</ele>
        <time>2019-02-03T09:09:12.000Z</time>
      </trkpt>
      <trkpt lat="42.94002" lon="0.57703">
        <ele>804</ele>
        <time>2019-02-03T09:09:13.000Z</time>
      </trkpt>
      <trkpt lat="42.94003" lon="0.57704">
        <ele>804</ele>
        <time>2019-02-03T09:09:14.000Z</time>
      </trkpt>
      <trkpt lat="42.94004" lon="0.57705">
        <ele>804</ele>
        <time>2019-02-03T09:09:15.000Z</time>
      </trkpt>
      <trkpt lat="42.94004" lon="0.57706">
        <ele>804</ele>
        <time>2019-02-03T09:09:16.000Z</time>
      </trkpt>
      <trkpt lat="42.94005" lon="0.57707">
        <ele>804</ele>
        <time>2019-02-03T09:09:17.000Z</time>
      </trkpt>
      <trkpt lat="42.94006" lon="0.57708">
        <ele>804</ele>
        <time>2019-02-03T09:09:18.000Z</time>
      </trkpt>
      <trkpt lat="42.94006" lon="0.5771">
        <ele>804</ele>
        <time>2019-02-03T09:09:19.000Z</time>
      </trkpt>
      <trkpt lat="42.94007" lon="0.57711">
        <ele>804</ele>
        <time>2019-02-03T09:09:20.000Z</time>
      </trkpt>
      <trkpt lat="42.94007" lon="0.57712">
        <ele>804</ele>
        <time>2019-02-03T09:09:21.000Z</time>
      </trkpt>
      <trkpt lat="42.94007" lon="0.57713">
        <ele>804</ele>
        <time>2019-02-03T09:09:22.000Z</time>
      </trkpt>
      <trkpt lat="42.94008" lon="0.57714">
        <ele>804</ele>
        <time>2019-02-03T09:09:23.000Z</time>
      </trkpt>
      <trkpt lat="42.94009" lon="0.57715">
        <ele>804</ele>
        <time>2019-02-03T09:09:24.000Z</time>
      </trkpt>
      <trkpt lat="42.94009" lon="0.57716">
        <ele>804</ele>
        <time>2019-02-03T09:09:25.000Z</time>
      </trkpt>
      <trkpt lat="42.9401" lon="0.57717">
        <ele>804</ele>
        <time>2019-02-03T09:09:26.000Z</time>
      </trkpt>
      <trkpt lat="42.94011" lon="0.57719">
        <ele>804</ele>
        <time>2019-02-03T09:09:27.000Z</time>
      </trkpt>
      <trkpt lat="42.94012" lon="0.5772">
        <ele>804</ele>
        <time>2019-02-03T09:09:28.000Z</time>
      </trkpt>
      <trkpt lat="42.94012" lon="0.57722">
        <ele>804</ele>
        <time>2019-02-03T09:09:29.000Z</time>
      </trkpt>
      <trkpt lat="42.94013" lon="0.57723">
        <ele>804</ele>
        <time>2019-02-03T09:09:30.000Z</time>
      </trkpt>
      <trkpt lat="42.94014" lon="0.57724">
        <ele>804</ele>
        <time>2019-02-03T09:09:31.000Z</time>
      </trkpt>
      <trkpt lat="42.94014" lon="0.57726">
        <ele>804</ele>
        <time>2019-02-03T09:09:32.000Z</time>
      </trkpt>
      <trkpt lat="42.94015" lon="0.57727">
        <ele>804</ele>
        <time>2019-02-03T09:09:33.000Z</time>
      </trkpt>
      <trkpt lat="42.94016" lon="0.57728">
        <ele>804</ele>
        <time>2019-02-03T09:09:34.000Z</time>
      </trkpt>
      <trkpt lat="42.94016" lon="0.57729">
        <ele>804.3</ele>
        <time>2019-02-03T09:09:35.000Z</time>
      </trkpt>
      <trkpt lat="42.94017" lon="0.5773">
        <ele>804.7</ele>
        <time>2019-02-03T09:09:36.000Z</time>
      </trkpt>
      <trkpt lat="42.94018" lon="0.5773">
        <ele>805</ele>
        <time>2019-02-03T09:09:37.000Z</time>
      </trkpt>
      <trkpt lat="42.94018" lon="0.57731">
        <ele>805</ele>
        <time>2019-02-03T09:09:38.000Z</time>
      </trkpt>
      <trkpt lat="42.94019" lon="0.57732">
        <ele>805</ele>
        <time>2019-02-03T09:09:39.000Z</time>
      </trkpt>
      <trkpt lat="42.94019" lon="0.57732">
        <ele>805</ele>
        <time>2019-02-03T09:09:40.000Z</time>
      </trkpt>
      <trkpt lat="42.94019" lon="0.57732">
        <ele>805</ele>
        <time>2019-02-03T09:09:41.000Z</time>
      </trkpt>
      <trkpt lat="42.94019" lon="0.57732">
        <ele>805</ele>
        <time>2019-02-03T09:09:42.000Z</time>
      </trkpt>
      <trkpt lat="42.9402" lon="0.57732">
        <ele>805</ele>
        <time>2019-02-03T09:09:43.000Z</time>
      </trkpt>
      <trkpt lat="42.9402" lon="0.57732">
        <ele>806</ele>
        <time>2019-02-03T09:09:44.000Z</time>
      </trkpt>
      <trkpt lat="42.9402" lon="0.57732">
        <ele>806</ele>
        <time>2019-02-03T09:09:45.000Z</time>
      </trkpt>
      <trkpt lat="42.9402" lon="0.57732">
        <ele>806</ele>
        <time>2019-02-03T09:09:46.000Z</time>
      </trkpt>
      <trkpt lat="42.9402" lon="0.57733">
        <ele>806</ele>
        <time>2019-02-03T09:09:47.000Z</time>
      </trkpt>
      <trkpt lat="42.9402" lon="0.57733">
        <ele>806</ele>
        <time>2019-02-03T09:09:48.000Z</time>
      </trkpt>
      <trkpt lat="42.9402" lon="0.57734">
        <ele>806</ele>
        <time>2019-02-03T09:09:49.000Z</time>
      </trkpt>
      <trkpt lat="42.94021" lon="0.57735">
        <ele>806</ele>
        <time>2019-02-03T09:09:50.000Z</time>
      </trkpt>
      <trkpt lat="42.94021" lon="0.57735">
        <ele>806</ele>
        <time>2019-02-03T09:09:51.000Z</time>
      </trkpt>
      <trkpt lat="42.94022" lon="0.57737">
        <ele>806</ele>
        <time>2019-02-03T09:09:52.000Z</time>
      </trkpt>
      <trkpt lat="42.94022" lon="0.57738">
        <ele>806</ele>
        <time>2019-02-03T09:09:53.000Z</time>
      </trkpt>
      <trkpt lat="42.94023" lon="0.57739">
        <ele>806</ele>
        <time>2019-02-03T09:09:54.000Z</time>
      </trkpt>
      <trkpt lat="42.94023" lon="0.5774">
        <ele>806</ele>
        <time>2019-02-03T09:09:55.000Z</time>
      </trkpt>
      <trkpt lat="42.94024" lon="0.5774">
        <ele>806</ele>
        <time>2019-02-03T09:09:56.000Z</time>
      </trkpt>
      <trkpt lat="42.94024" lon="0.57741">
        <ele>806</ele>
        <time>2019-02-03T09:09:57.000Z</time>
      </trkpt>
      <trkpt lat="42.94025" lon="0.57742">
        <ele>807</ele>
        <time>2019-02-03T09:09:58.000Z</time>
      </trkpt>
      <trkpt lat="42.94025" lon="0.57742">
        <ele>807</ele>
        <time>2019-02-03T09:09:59.000Z</time>
      </trkpt>
      <trkpt lat="42.94026" lon="0.57743">
        <ele>807</ele>
        <time>2019-02-03T09:10:00.000Z</time>
      </trkpt>
      <trkpt lat="42.94026" lon="0.57743">
        <ele>807</ele>
        <time>2019-02-03T09:10:01.000Z</time>
      </trkpt>
      <trkpt lat="42.94026" lon="0.57743">
        <ele>807</ele>
        <time>2019-02-03T09:10:02.000Z</time>
      </trkpt>
      <trkpt lat="42.94027" lon="0.57744">
        <ele>807</ele>
        <time>2019-02-03T09:10:03.000Z</time>
      </trkpt>
      <trkpt lat="42.94028" lon="0.57744">
        <ele>807</ele>
        <time>2019-02-03T09:10:04.000Z</time>
      </trkpt>
      <trkpt lat="42.94029" lon="0.57746">
        <ele>807</ele>
        <time>2019-02-03T09:10:05.000Z</time>
      </trkpt>
      <trkpt lat="42.9403" lon="0.57747">
        <ele>807</ele>
        <time>2019-02-03T09:10:06.000Z</time>
      </trkpt>
      <trkpt lat="42.94032" lon="0.57748">
        <ele>807.3</ele>
        <time>2019-02-03T09:10:07.000Z</time>
      </trkpt>
      <trkpt lat="42.94033" lon="0.57749">
        <ele>807.7</ele>
        <time>2019-02-03T09:10:08.000Z</time>
      </trkpt>
      <trkpt lat="42.94034" lon="0.57749">
        <ele>808</ele>
        <time>2019-02-03T09:10:09.000Z</time>
      </trkpt>
      <trkpt lat="42.94035" lon="0.5775">
        <ele>808</ele>
        <time>2019-02-03T09:10:10.000Z</time>
      </trkpt>
      <trkpt lat="42.94035" lon="0.57751">
        <ele>808</ele>
        <time>2019-02-03T09:10:11.000Z</time>
      </trkpt>
      <trkpt lat="42.94036" lon="0.57752">
        <ele>808</ele>
        <time>2019-02-03T09:10:12.000Z</time>
      </trkpt>
      <trkpt lat="42.94037" lon="0.57753">
        <ele>808</ele>
        <time>2019-02-03T09:10:13.000Z</time>
      </trkpt>
      <trkpt lat="42.94038" lon="0.57754">
        <ele>808</ele>
        <time>2019-02-03T09:10:14.000Z</time>
      </trkpt>
      <trkpt lat="42.94038" lon="0.57755">
        <ele>808</ele>
        <time>2019-02-03T09:10:15.000Z</time>
      </trkpt>
      <trkpt lat="42.94039" lon="0.57756">
        <ele>808</ele>
        <time>2019-02-03T09:10:16.000Z</time>
      </trkpt>
      <trkpt lat="42.94039" lon="0.57757">
        <ele>808</ele>
        <time>2019-02-03T09:10:17.000Z</time>
      </trkpt>
      <trkpt lat="42.9404" lon="0.57757">
        <ele>808</ele>
        <time>2019-02-03T09:10:18.000Z</time>
      </trkpt>
      <trkpt lat="42.94041" lon="0.57758">
        <ele>808</ele>
        <time>2019-02-03T09:10:19.000Z</time>
      </trkpt>
      <trkpt lat="42.94041" lon="0.57759">
        <ele>808</ele>
        <time>2019-02-03T09:10:20.000Z</time>
      </trkpt>
      <trkpt lat="42.94042" lon="0.57759">
        <ele>808</ele>
        <time>2019-02-03T09:10:21.000Z</time>
      </trkpt>
      <trkpt lat="42.94043" lon="0.5776">
        <ele>808</ele>
        <time>2019-02-03T09:10:22.000Z</time>
      </trkpt>
      <trkpt lat="42.94044" lon="0.5776">
        <ele>808</ele>
        <time>2019-02-03T09:10:23.000Z</time>
      </trkpt>
      <trkpt lat="42.94045" lon="0.57761">
        <ele>809</ele>
        <time>2019-02-03T09:10:24.000Z</time>
      </trkpt>
      <trkpt lat="42.94046" lon="0.57762">
        <ele>809</ele>
        <time>2019-02-03T09:10:25.000Z</time>
      </trkpt>
      <trkpt lat="42.94047" lon="0.57762">
        <ele>809</ele>
        <time>2019-02-03T09:10:26.000Z</time>
      </trkpt>
      <trkpt lat="42.94048" lon="0.57763">
        <ele>809</ele>
        <time>2019-02-03T09:10:27.000Z</time>
      </trkpt>
      <trkpt lat="42.94048" lon="0.57764">
        <ele>809</ele>
        <time>2019-02-03T09:10:28.000Z</time>
      </trkpt>
      <trkpt lat="42.94049" lon="0.57765">
        <ele>809</ele>
        <time>2019-02-03T09:10:29.000Z</time>
      </trkpt>
      <trkpt lat="42.9405" lon="0.57766">
        <ele>809</ele>
        <time>2019-02-03T09:10:30.000Z</time>
      </trkpt>
      <trkpt lat="42.94051" lon="0.57766">
        <ele>809</ele>
        <time>2019-02-03T09:10:31.000Z</time>
      </trkpt>
      <trkpt lat="42.94052" lon="0.57766">
        <ele>810</ele>
        <time>2019-02-03T09:10:32.000Z</time>
      </trkpt>
      <trkpt lat="42.94052" lon="0.57767">
        <ele>810</ele>
        <time>2019-02-03T09:10:33.000Z</time>
      </trkpt>
      <trkpt lat="42.94053" lon="0.57767">
        <ele>810</ele>
        <time>2019-02-03T09:10:34.000Z</time>
      </trkpt>
      <trkpt lat="42.94053" lon="0.57767">
        <ele>810</ele>
        <time>2019-02-03T09:10:35.000Z</time>
      </trkpt>
      <trkpt lat="42.94054" lon="0.57767">
        <ele>810</ele>
        <time>2019-02-03T09:10:36.000Z</time>
      </trkpt>
      <trkpt lat="42.94055" lon="0.57767">
        <ele>810</ele>
        <time>2019-02-03T09:10:37.000Z</time>
      </trkpt>
      <trkpt lat="42.94055" lon="0.57768">
        <ele>810</ele>
        <time>2019-02-03T09:10:38.000Z</time>
      </trkpt>
      <trkpt lat="42.94056" lon="0.57768">
        <ele>810</ele>
        <time>2019-02-03T09:10:39.000Z</time>
      </trkpt>
      <trkpt lat="42.94057" lon="0.57769">
        <ele>810</ele>
        <time>2019-02-03T09:10:40.000Z</time>
      </trkpt>
      <trkpt lat="42.94057" lon="0.5777">
        <ele>810</ele>
        <time>2019-02-03T09:10:41.000Z</time>
      </trkpt>
      <trkpt lat="42.94058" lon="0.57771">
        <ele>810</ele>
        <time>2019-02-03T09:10:42.000Z</time>
      </trkpt>
      <trkpt lat="42.94059" lon="0.57772">
        <ele>810</ele>
        <time>2019-02-03T09:10:43.000Z</time>
      </trkpt>
      <trkpt lat="42.9406" lon="0.57772">
        <ele>810</ele>
        <time>2019-02-03T09:10:44.000Z</time>
      </trkpt>
      <trkpt lat="42.9406" lon="0.57773">
        <ele>810</ele>
        <time>2019-02-03T09:10:45.000Z</time>
      </trkpt>
      <trkpt lat="42.94061" lon="0.57773">
        <ele>810</ele>
        <time>2019-02-03T09:10:46.000Z</time>
      </trkpt>
      <trkpt lat="42.94062" lon="0.57773">
        <ele>810.3</ele>
        <time>2019-02-03T09:10:47.000Z</time>
      </trkpt>
      <trkpt lat="42.94062" lon="0.57774">
        <ele>810.7</ele>
        <time>2019-02-03T09:10:48.000Z</time>
      </trkpt>
      <trkpt lat="42.94063" lon="0.57774">
        <ele>811</ele>
        <time>2019-02-03T09:10:49.000Z</time>
      </trkpt>
      <trkpt lat="42.94064" lon="0.57775">
        <ele>811</ele>
        <time>2019-02-03T09:10:50.000Z</time>
      </trkpt>
      <trkpt lat="42.94064" lon="0.57775">
        <ele>811</ele>
        <time>2019-02-03T09:10:51.000Z</time>
      </trkpt>
      <trkpt lat="42.94065" lon="0.57776">
        <ele>811</ele>
        <time>2019-02-03T09:10:52.000Z</time>
      </trkpt>
      <trkpt lat="42.94066" lon="0.57776">
        <ele>811</ele>
        <time>2019-02-03T09:10:53.000Z</time>
      </trkpt>
      <trkpt lat="42.94066" lon="0.57777">
        <ele>811</ele>
        <time>2019-02-03T09:10:54.000Z</time>
      </trkpt>
      <trkpt lat="42.94067" lon="0.57778">
        <ele>811</ele>
        <time>2019-02-03T09:10:55.000Z</time>
      </trkpt>
      <trkpt lat="42.94068" lon="0.57779">
        <ele>811</ele>
        <time>2019-02-03T09:10:56.000Z</time>
      </trkpt>
      <trkpt lat="42.94069" lon="0.57779">
        <ele>811</ele>
        <time>2019-02-03T09:10:57.000Z</time>
      </trkpt>
      <trkpt lat="42.9407" lon="0.5778">
        <ele>811</ele>
        <time>2019-02-03T09:10:58.000Z</time>
      </trkpt>
      <trkpt lat="42.9407" lon="0.57781">
        <ele>811</ele>
        <time>2019-02-03T09:10:59.000Z</time>
      </trkpt>
      <trkpt lat="42.94071" lon="0.57781">
        <ele>811</ele>
        <time>2019-02-03T09:11:00.000Z</time>
      </trkpt>
      <trkpt lat="42.94072" lon="0.57781">
        <ele>811</ele>
        <time>2019-02-03T09:11:01.000Z</time>
      </trkpt>
      <trkpt lat="42.94072" lon="0.57782">
        <ele>811</ele>
        <time>2019-02-03T09:11:02.000Z</time>
      </trkpt>
      <trkpt lat="42.94073" lon="0.57782">
        <ele>811</ele>
        <time>2019-02-03T09:11:03.000Z</time>
      </trkpt>
      <trkpt lat="42.94074" lon="0.57782">
        <ele>811</ele>
        <time>2019-02-03T09:11:04.000Z</time>
      </trkpt>
      <trkpt lat="42.94074" lon="0.57783">
        <ele>811</ele>
        <time>2019-02-03T09:11:05.000Z</time>
      </trkpt>
      <trkpt lat="42.94075" lon="0.57783">
        <ele>811</ele>
        <time>2019-02-03T09:11:06.000Z</time>
      </trkpt>
      <trkpt lat="42.94076" lon="0.57784">
        <ele>811</ele>
        <time>2019-02-03T09:11:07.000Z</time>
      </trkpt>
      <trkpt lat="42.94076" lon="0.57784">
        <ele>811</ele>
        <time>2019-02-03T09:11:08.000Z</time>
      </trkpt>
      <trkpt lat="42.94077" lon="0.57785">
        <ele>811</ele>
        <time>2019-02-03T09:11:09.000Z</time>
      </trkpt>
      <trkpt lat="42.94078" lon="0.57786">
        <ele>811</ele>
        <time>2019-02-03T09:11:10.000Z</time>
      </trkpt>
      <trkpt lat="42.94079" lon="0.57787">
        <ele>811</ele>
        <time>2019-02-03T09:11:11.000Z</time>
      </trkpt>
      <trkpt lat="42.9408" lon="0.57788">
        <ele>811</ele>
        <time>2019-02-03T09:11:12.000Z</time>
      </trkpt>
      <trkpt lat="42.94081" lon="0.57788">
        <ele>811</ele>
        <time>2019-02-03T09:11:13.000Z</time>
      </trkpt>
      <trkpt lat="42.94082" lon="0.57789">
        <ele>811</ele>
        <time>2019-02-03T09:11:14.000Z</time>
      </trkpt>
      <trkpt lat="42.94083" lon="0.5779">
        <ele>811</ele>
        <time>2019-02-03T09:11:15.000Z</time>
      </trkpt>
      <trkpt lat="42.94084" lon="0.5779">
        <ele>811</ele>
        <time>2019-02-03T09:11:16.000Z</time>
      </trkpt>
      <trkpt lat="42.94085" lon="0.57791">
        <ele>811</ele>
        <time>2019-02-03T09:11:17.000Z</time>
      </trkpt>
      <trkpt lat="42.94086" lon="0.57791">
        <ele>811</ele>
        <time>2019-02-03T09:11:18.000Z</time>
      </trkpt>
      <trkpt lat="42.94087" lon="0.57792">
        <ele>811</ele>
        <time>2019-02-03T09:11:19.000Z</time>
      </trkpt>
      <trkpt lat="42.94088" lon="0.57792">
        <ele>811</ele>
        <time>2019-02-03T09:11:20.000Z</time>
      </trkpt>
      <trkpt lat="42.94089" lon="0.57792">
        <ele>811</ele>
        <time>2019-02-03T09:11:21.000Z</time>
      </trkpt>
      <trkpt lat="42.94091" lon="0.57792">
        <ele>811</ele>
        <time>2019-02-03T09:11:22.000Z</time>
      </trkpt>
      <trkpt lat="42.94092" lon="0.57792">
        <ele>811</ele>
        <time>2019-02-03T09:11:23.000Z</time>
      </trkpt>
      <trkpt lat="42.94093" lon="0.57792">
        <ele>811</ele>
        <time>2019-02-03T09:11:24.000Z</time>
      </trkpt>
      <trkpt lat="42.94094" lon="0.57792">
        <ele>811</ele>
        <time>2019-02-03T09:11:25.000Z</time>
      </trkpt>
      <trkpt lat="42.94095" lon="0.57792">
        <ele>811</ele>
        <time>2019-02-03T09:11:26.000Z</time>
      </trkpt>
      <trkpt lat="42.94097" lon="0.57792">
        <ele>811</ele>
        <time>2019-02-03T09:11:27.000Z</time>
      </trkpt>
      <trkpt lat="42.94098" lon="0.57792">
        <ele>811</ele>
        <time>2019-02-03T09:11:28.000Z</time>
      </trkpt>
      <trkpt lat="42.94099" lon="0.57792">
        <ele>811</ele>
        <time>2019-02-03T09:11:29.000Z</time>
      </trkpt>
      <trkpt lat="42.941" lon="0.57792">
        <ele>811</ele>
        <time>2019-02-03T09:11:30.000Z</time>
      </trkpt>
      <trkpt lat="42.941" lon="0.57792">
        <ele>811</ele>
        <time>2019-02-03T09:11:31.000Z</time>
      </trkpt>
      <trkpt lat="42.94101" lon="0.57792">
        <ele>811</ele>
        <time>2019-02-03T09:11:32.000Z</time>
      </trkpt>
      <trkpt lat="42.94102" lon="0.57792">
        <ele>811</ele>
        <time>2019-02-03T09:11:33.000Z</time>
      </trkpt>
      <trkpt lat="42.94103" lon="0.57792">
        <ele>811</ele>
        <time>2019-02-03T09:11:34.000Z</time>
      </trkpt>
      <trkpt lat="42.94104" lon="0.57793">
        <ele>811</ele>
        <time>2019-02-03T09:11:35.000Z</time>
      </trkpt>
      <trkpt lat="42.94105" lon="0.57793">
        <ele>811</ele>
        <time>2019-02-03T09:11:36.000Z</time>
      </trkpt>
      <trkpt lat="42.94106" lon="0.57793">
        <ele>811</ele>
        <time>2019-02-03T09:11:37.000Z</time>
      </trkpt>
      <trkpt lat="42.94107" lon="0.57793">
        <ele>811</ele>
        <time>2019-02-03T09:11:38.000Z</time>
      </trkpt>
      <trkpt lat="42.94108" lon="0.57793">
        <ele>811</ele>
        <time>2019-02-03T09:11:39.000Z</time>
      </trkpt>
      <trkpt lat="42.94109" lon="0.57793">
        <ele>811</ele>
        <time>2019-02-03T09:11:40.000Z</time>
      </trkpt>
      <trkpt lat="42.9411" lon="0.57793">
        <ele>811</ele>
        <time>2019-02-03T09:11:41.000Z</time>
      </trkpt>
      <trkpt lat="42.94111" lon="0.57793">
        <ele>811</ele>
        <time>2019-02-03T09:11:42.000Z</time>
      </trkpt>
      <trkpt lat="42.94112" lon="0.57792">
        <ele>811</ele>
        <time>2019-02-03T09:11:43.000Z</time>
      </trkpt>
      <trkpt lat="42.94113" lon="0.57792">
        <ele>811</ele>
        <time>2019-02-03T09:11:44.000Z</time>
      </trkpt>
      <trkpt lat="42.94114" lon="0.57792">
        <ele>811</ele>
        <time>2019-02-03T09:11:45.000Z</time>
      </trkpt>
      <trkpt lat="42.94115" lon="0.57792">
        <ele>811</ele>
        <time>2019-02-03T09:11:46.000Z</time>
      </trkpt>
      <trkpt lat="42.94116" lon="0.57792">
        <ele>811</ele>
        <time>2019-02-03T09:11:47.000Z</time>
      </trkpt>
      <trkpt lat="42.94117" lon="0.57792">
        <ele>811</ele>
        <time>2019-02-03T09:11:48.000Z</time>
      </trkpt>
      <trkpt lat="42.94118" lon="0.57792">
        <ele>811</ele>
        <time>2019-02-03T09:11:49.000Z</time>
      </trkpt>
      <trkpt lat="42.94118" lon="0.57792">
        <ele>811</ele>
        <time>2019-02-03T09:11:50.000Z</time>
      </trkpt>
      <trkpt lat="42.94119" lon="0.57792">
        <ele>811</ele>
        <time>2019-02-03T09:11:51.000Z</time>
      </trkpt>
      <trkpt lat="42.9412" lon="0.57792">
        <ele>811</ele>
        <time>2019-02-03T09:11:52.000Z</time>
      </trkpt>
      <trkpt lat="42.94121" lon="0.57792">
        <ele>811</ele>
        <time>2019-02-03T09:11:53.000Z</time>
      </trkpt>
      <trkpt lat="42.94122" lon="0.57792">
        <ele>811</ele>
        <time>2019-02-03T09:11:54.000Z</time>
      </trkpt>
      <trkpt lat="42.94123" lon="0.57792">
        <ele>811</ele>
        <time>2019-02-03T09:11:55.000Z</time>
      </trkpt>
      <trkpt lat="42.94124" lon="0.57793">
        <ele>811</ele>
        <time>2019-02-03T09:11:56.000Z</time>
      </trkpt>
      <trkpt lat="42.94125" lon="0.57793">
        <ele>811</ele>
        <time>2019-02-03T09:11:57.000Z</time>
      </trkpt>
      <trkpt lat="42.94126" lon="0.57793">
        <ele>811</ele>
        <time>2019-02-03T09:11:58.000Z</time>
      </trkpt>
      <trkpt lat="42.94127" lon="0.57794">
        <ele>811</ele>
        <time>2019-02-03T09:11:59.000Z</time>
      </trkpt>
      <trkpt lat="42.94128" lon="0.57794">
        <ele>811</ele>
        <time>2019-02-03T09:12:00.000Z</time>
      </trkpt>
      <trkpt lat="42.94129" lon="0.57795">
        <ele>811</ele>
        <time>2019-02-03T09:12:01.000Z</time>
      </trkpt>
      <trkpt lat="42.9413" lon="0.57795">
        <ele>811</ele>
        <time>2019-02-03T09:12:02.000Z</time>
      </trkpt>
      <trkpt lat="42.94131" lon="0.57796">
        <ele>811</ele>
        <time>2019-02-03T09:12:03.000Z</time>
      </trkpt>
      <trkpt lat="42.94134" lon="0.57796">
        <ele>811</ele>
        <time>2019-02-03T09:12:04.000Z</time>
      </trkpt>
      <trkpt lat="42.94137" lon="0.57796">
        <ele>811</ele>
        <time>2019-02-03T09:12:05.000Z</time>
      </trkpt>
      <trkpt lat="42.94139" lon="0.57797">
        <ele>811</ele>
        <time>2019-02-03T09:12:06.000Z</time>
      </trkpt>
      <trkpt lat="42.94142" lon="0.57797">
        <ele>811</ele>
        <time>2019-02-03T09:12:07.000Z</time>
      </trkpt>
      <trkpt lat="42.94144" lon="0.57798">
        <ele>811</ele>
        <time>2019-02-03T09:12:08.000Z</time>
      </trkpt>
      <trkpt lat="42.94145" lon="0.57798">
        <ele>811</ele>
        <time>2019-02-03T09:12:09.000Z</time>
      </trkpt>
      <trkpt lat="42.94146" lon="0.57798">
        <ele>811</ele>
        <time>2019-02-03T09:12:10.000Z</time>
      </trkpt>
      <trkpt lat="42.94146" lon="0.57797">
        <ele>811</ele>
        <time>2019-02-03T09:12:11.000Z</time>
      </trkpt>
      <trkpt lat="42.94146" lon="0.57797">
        <ele>811</ele>
        <time>2019-02-03T09:12:12.000Z</time>
      </trkpt>
      <trkpt lat="42.94146" lon="0.57796">
        <ele>811</ele>
        <time>2019-02-03T09:12:13.000Z</time>
      </trkpt>
      <trkpt lat="42.94147" lon="0.57795">
        <ele>811</ele>
        <time>2019-02-03T09:12:14.000Z</time>
      </trkpt>
      <trkpt lat="42.94147" lon="0.57794">
        <ele>811</ele>
        <time>2019-02-03T09:12:15.000Z</time>
      </trkpt>
      <trkpt lat="42.94148" lon="0.57794">
        <ele>811</ele>
        <time>2019-02-03T09:12:16.000Z</time>
      </trkpt>
      <trkpt lat="42.94148" lon="0.57793">
        <ele>810.7</ele>
        <time>2019-02-03T09:12:17.000Z</time>
      </trkpt>
      <trkpt lat="42.94149" lon="0.57793">
        <ele>810.3</ele>
        <time>2019-02-03T09:12:18.000Z</time>
      </trkpt>
      <trkpt lat="42.9415" lon="0.57792">
        <ele>810</ele>
        <time>2019-02-03T09:12:19.000Z</time>
      </trkpt>
      <trkpt lat="42.9415" lon="0.57792">
        <ele>810.5</ele>
        <time>2019-02-03T09:12:20.000Z</time>
      </trkpt>
      <trkpt lat="42.94151" lon="0.57792">
        <ele>811</ele>
        <time>2019-02-03T09:12:21.000Z</time>
      </trkpt>
      <trkpt lat="42.94152" lon="0.57793">
        <ele>810</ele>
        <time>2019-02-03T09:12:22.000Z</time>
      </trkpt>
      <trkpt lat="42.94153" lon="0.57793">
        <ele>810</ele>
        <time>2019-02-03T09:12:23.000Z</time>
      </trkpt>
      <trkpt lat="42.94153" lon="0.57793">
        <ele>810</ele>
        <time>2019-02-03T09:12:24.000Z</time>
      </trkpt>
      <trkpt lat="42.94154" lon="0.57794">
        <ele>810</ele>
        <time>2019-02-03T09:12:25.000Z</time>
      </trkpt>
      <trkpt lat="42.94155" lon="0.57794">
        <ele>810</ele>
        <time>2019-02-03T09:12:26.000Z</time>
      </trkpt>
      <trkpt lat="42.94155" lon="0.57795">
        <ele>810</ele>
        <time>2019-02-03T09:12:27.000Z</time>
      </trkpt>
      <trkpt lat="42.94156" lon="0.57795">
        <ele>810</ele>
        <time>2019-02-03T09:12:28.000Z</time>
      </trkpt>
      <trkpt lat="42.94156" lon="0.57796">
        <ele>810</ele>
        <time>2019-02-03T09:12:29.000Z</time>
      </trkpt>
      <trkpt lat="42.94157" lon="0.57796">
        <ele>810</ele>
        <time>2019-02-03T09:12:30.000Z</time>
      </trkpt>
      <trkpt lat="42.94157" lon="0.57797">
        <ele>810</ele>
        <time>2019-02-03T09:12:31.000Z</time>
      </trkpt>
      <trkpt lat="42.94158" lon="0.57797">
        <ele>810</ele>
        <time>2019-02-03T09:12:32.000Z</time>
      </trkpt>
      <trkpt lat="42.94158" lon="0.57798">
        <ele>810</ele>
        <time>2019-02-03T09:12:33.000Z</time>
      </trkpt>
      <trkpt lat="42.94158" lon="0.57798">
        <ele>810</ele>
        <time>2019-02-03T09:12:34.000Z</time>
      </trkpt>
      <trkpt lat="42.94158" lon="0.57799">
        <ele>810</ele>
        <time>2019-02-03T09:12:35.000Z</time>
      </trkpt>
      <trkpt lat="42.94158" lon="0.57799">
        <ele>811</ele>
        <time>2019-02-03T09:12:36.000Z</time>
      </trkpt>
      <trkpt lat="42.94159" lon="0.57799">
        <ele>811</ele>
        <time>2019-02-03T09:12:37.000Z</time>
      </trkpt>
      <trkpt lat="42.94159" lon="0.57799">
        <ele>811</ele>
        <time>2019-02-03T09:12:38.000Z</time>
      </trkpt>
      <trkpt lat="42.94159" lon="0.57799">
        <ele>811</ele>
        <time>2019-02-03T09:12:39.000Z</time>
      </trkpt>
      <trkpt lat="42.94159" lon="0.57799">
        <ele>811</ele>
        <time>2019-02-03T09:12:40.000Z</time>
      </trkpt>
      <trkpt lat="42.94159" lon="0.57799">
        <ele>811</ele>
        <time>2019-02-03T09:12:41.000Z</time>
      </trkpt>
      <trkpt lat="42.94159" lon="0.57799">
        <ele>811</ele>
        <time>2019-02-03T09:12:42.000Z</time>
      </trkpt>
      <trkpt lat="42.94159" lon="0.578">
        <ele>811</ele>
        <time>2019-02-03T09:12:43.000Z</time>
      </trkpt>
      <trkpt lat="42.94159" lon="0.578">
        <ele>811</ele>
        <time>2019-02-03T09:12:44.000Z</time>
      </trkpt>
      <trkpt lat="42.94159" lon="0.57801">
        <ele>811</ele>
        <time>2019-02-03T09:12:45.000Z</time>
      </trkpt>
      <trkpt lat="42.94159" lon="0.57802">
        <ele>811</ele>
        <time>2019-02-03T09:12:46.000Z</time>
      </trkpt>
      <trkpt lat="42.94159" lon="0.57802">
        <ele>811</ele>
        <time>2019-02-03T09:12:47.000Z</time>
      </trkpt>
      <trkpt lat="42.94158" lon="0.57803">
        <ele>811</ele>
        <time>2019-02-03T09:12:48.000Z</time>
      </trkpt>
      <trkpt lat="42.94158" lon="0.57803">
        <ele>811</ele>
        <time>2019-02-03T09:12:49.000Z</time>
      </trkpt>
      <trkpt lat="42.94157" lon="0.57803">
        <ele>811</ele>
        <time>2019-02-03T09:12:50.000Z</time>
      </trkpt>
      <trkpt lat="42.94157" lon="0.57803">
        <ele>811</ele>
        <time>2019-02-03T09:12:51.000Z</time>
      </trkpt>
      <trkpt lat="42.94156" lon="0.57804">
        <ele>811</ele>
        <time>2019-02-03T09:12:52.000Z</time>
      </trkpt>
      <trkpt lat="42.94156" lon="0.57804">
        <ele>811</ele>
        <time>2019-02-03T09:12:53.000Z</time>
      </trkpt>
      <trkpt lat="42.94155" lon="0.57804">
        <ele>811</ele>
        <time>2019-02-03T09:12:54.000Z</time>
      </trkpt>
      <trkpt lat="42.94155" lon="0.57805">
        <ele>811</ele>
        <time>2019-02-03T09:12:55.000Z</time>
      </trkpt>
      <trkpt lat="42.94155" lon="0.57805">
        <ele>811</ele>
        <time>2019-02-03T09:12:56.000Z</time>
      </trkpt>
      <trkpt lat="42.94155" lon="0.57806">
        <ele>811</ele>
        <time>2019-02-03T09:12:57.000Z</time>
      </trkpt>
      <trkpt lat="42.94155" lon="0.57807">
        <ele>811</ele>
        <time>2019-02-03T09:12:58.000Z</time>
      </trkpt>
      <trkpt lat="42.94154" lon="0.57808">
        <ele>811</ele>
        <time>2019-02-03T09:12:59.000Z</time>
      </trkpt>
      <trkpt lat="42.94154" lon="0.57809">
        <ele>811</ele>
        <time>2019-02-03T09:13:00.000Z</time>
      </trkpt>
      <trkpt lat="42.94154" lon="0.5781">
        <ele>811</ele>
        <time>2019-02-03T09:13:01.000Z</time>
      </trkpt>
      <trkpt lat="42.94154" lon="0.57811">
        <ele>811</ele>
        <time>2019-02-03T09:13:02.000Z</time>
      </trkpt>
      <trkpt lat="42.94154" lon="0.57812">
        <ele>811</ele>
        <time>2019-02-03T09:13:03.000Z</time>
      </trkpt>
      <trkpt lat="42.94154" lon="0.57814">
        <ele>811</ele>
        <time>2019-02-03T09:13:04.000Z</time>
      </trkpt>
      <trkpt lat="42.94154" lon="0.57815">
        <ele>811</ele>
        <time>2019-02-03T09:13:05.000Z</time>
      </trkpt>
      <trkpt lat="42.94154" lon="0.57816">
        <ele>811</ele>
        <time>2019-02-03T09:13:06.000Z</time>
      </trkpt>
      <trkpt lat="42.94154" lon="0.57817">
        <ele>811</ele>
        <time>2019-02-03T09:13:07.000Z</time>
      </trkpt>
      <trkpt lat="42.94154" lon="0.57818">
        <ele>811</ele>
        <time>2019-02-03T09:13:08.000Z</time>
      </trkpt>
      <trkpt lat="42.94154" lon="0.57819">
        <ele>811</ele>
        <time>2019-02-03T09:13:09.000Z</time>
      </trkpt>
      <trkpt lat="42.94154" lon="0.5782">
        <ele>811</ele>
        <time>2019-02-03T09:13:10.000Z</time>
      </trkpt>
      <trkpt lat="42.94154" lon="0.57821">
        <ele>811</ele>
        <time>2019-02-03T09:13:11.000Z</time>
      </trkpt>
      <trkpt lat="42.94154" lon="0.57822">
        <ele>811</ele>
        <time>2019-02-03T09:13:12.000Z</time>
      </trkpt>
      <trkpt lat="42.94153" lon="0.57823">
        <ele>811</ele>
        <time>2019-02-03T09:13:13.000Z</time>
      </trkpt>
      <trkpt lat="42.94153" lon="0.57823">
        <ele>812</ele>
        <time>2019-02-03T09:13:14.000Z</time>
      </trkpt>
      <trkpt lat="42.94153" lon="0.57824">
        <ele>812</ele>
        <time>2019-02-03T09:13:15.000Z</time>
      </trkpt>
      <trkpt lat="42.94152" lon="0.57825">
        <ele>812</ele>
        <time>2019-02-03T09:13:16.000Z</time>
      </trkpt>
      <trkpt lat="42.94152" lon="0.57826">
        <ele>812</ele>
        <time>2019-02-03T09:13:17.000Z</time>
      </trkpt>
      <trkpt lat="42.94152" lon="0.57826">
        <ele>812</ele>
        <time>2019-02-03T09:13:18.000Z</time>
      </trkpt>
      <trkpt lat="42.94151" lon="0.57827">
        <ele>812</ele>
        <time>2019-02-03T09:13:19.000Z</time>
      </trkpt>
      <trkpt lat="42.94151" lon="0.57828">
        <ele>813</ele>
        <time>2019-02-03T09:13:20.000Z</time>
      </trkpt>
      <trkpt lat="42.94151" lon="0.57828">
        <ele>813</ele>
        <time>2019-02-03T09:13:21.000Z</time>
      </trkpt>
      <trkpt lat="42.9415" lon="0.57829">
        <ele>813</ele>
        <time>2019-02-03T09:13:22.000Z</time>
      </trkpt>
      <trkpt lat="42.9415" lon="0.5783">
        <ele>813</ele>
        <time>2019-02-03T09:13:23.000Z</time>
      </trkpt>
      <trkpt lat="42.9415" lon="0.5783">
        <ele>813</ele>
        <time>2019-02-03T09:13:24.000Z</time>
      </trkpt>
      <trkpt lat="42.94149" lon="0.57831">
        <ele>813</ele>
        <time>2019-02-03T09:13:25.000Z</time>
      </trkpt>
      <trkpt lat="42.94149" lon="0.57832">
        <ele>813</ele>
        <time>2019-02-03T09:13:26.000Z</time>
      </trkpt>
      <trkpt lat="42.94149" lon="0.57833">
        <ele>813</ele>
        <time>2019-02-03T09:13:27.000Z</time>
      </trkpt>
      <trkpt lat="42.94148" lon="0.57834">
        <ele>814</ele>
        <time>2019-02-03T09:13:28.000Z</time>
      </trkpt>
      <trkpt lat="42.94148" lon="0.57835">
        <ele>814</ele>
        <time>2019-02-03T09:13:29.000Z</time>
      </trkpt>
      <trkpt lat="42.94148" lon="0.57835">
        <ele>814</ele>
        <time>2019-02-03T09:13:30.000Z</time>
      </trkpt>
      <trkpt lat="42.94147" lon="0.57836">
        <ele>814</ele>
        <time>2019-02-03T09:13:31.000Z</time>
      </trkpt>
      <trkpt lat="42.94147" lon="0.57837">
        <ele>814</ele>
        <time>2019-02-03T09:13:32.000Z</time>
      </trkpt>
      <trkpt lat="42.94147" lon="0.57838">
        <ele>814</ele>
        <time>2019-02-03T09:13:33.000Z</time>
      </trkpt>
      <trkpt lat="42.94146" lon="0.57839">
        <ele>814</ele>
        <time>2019-02-03T09:13:34.000Z</time>
      </trkpt>
      <trkpt lat="42.94146" lon="0.57839">
        <ele>814</ele>
        <time>2019-02-03T09:13:35.000Z</time>
      </trkpt>
      <trkpt lat="42.94145" lon="0.5784">
        <ele>814</ele>
        <time>2019-02-03T09:13:36.000Z</time>
      </trkpt>
      <trkpt lat="42.94145" lon="0.5784">
        <ele>814</ele>
        <time>2019-02-03T09:13:37.000Z</time>
      </trkpt>
      <trkpt lat="42.94145" lon="0.57841">
        <ele>815</ele>
        <time>2019-02-03T09:13:38.000Z</time>
      </trkpt>
      <trkpt lat="42.94144" lon="0.57842">
        <ele>815</ele>
        <time>2019-02-03T09:13:39.000Z</time>
      </trkpt>
      <trkpt lat="42.94144" lon="0.57842">
        <ele>815</ele>
        <time>2019-02-03T09:13:40.000Z</time>
      </trkpt>
      <trkpt lat="42.94143" lon="0.57843">
        <ele>815</ele>
        <time>2019-02-03T09:13:41.000Z</time>
      </trkpt>
      <trkpt lat="42.94143" lon="0.57844">
        <ele>815</ele>
        <time>2019-02-03T09:13:42.000Z</time>
      </trkpt>
      <trkpt lat="42.94142" lon="0.57844">
        <ele>815</ele>
        <time>2019-02-03T09:13:43.000Z</time>
      </trkpt>
      <trkpt lat="42.94142" lon="0.57845">
        <ele>815</ele>
        <time>2019-02-03T09:13:44.000Z</time>
      </trkpt>
      <trkpt lat="42.94141" lon="0.57845">
        <ele>815</ele>
        <time>2019-02-03T09:13:45.000Z</time>
      </trkpt>
      <trkpt lat="42.94141" lon="0.57846">
        <ele>815</ele>
        <time>2019-02-03T09:13:46.000Z</time>
      </trkpt>
      <trkpt lat="42.9414" lon="0.57846">
        <ele>815</ele>
        <time>2019-02-03T09:13:47.000Z</time>
      </trkpt>
      <trkpt lat="42.9414" lon="0.57847">
        <ele>816</ele>
        <time>2019-02-03T09:13:48.000Z</time>
      </trkpt>
      <trkpt lat="42.94139" lon="0.57847">
        <ele>816</ele>
        <time>2019-02-03T09:13:49.000Z</time>
      </trkpt>
      <trkpt lat="42.94138" lon="0.57848">
        <ele>816</ele>
        <time>2019-02-03T09:13:50.000Z</time>
      </trkpt>
      <trkpt lat="42.94138" lon="0.57848">
        <ele>816</ele>
        <time>2019-02-03T09:13:51.000Z</time>
      </trkpt>
      <trkpt lat="42.94137" lon="0.57848">
        <ele>816</ele>
        <time>2019-02-03T09:13:52.000Z</time>
      </trkpt>
      <trkpt lat="42.94136" lon="0.57848">
        <ele>816</ele>
        <time>2019-02-03T09:13:53.000Z</time>
      </trkpt>
      <trkpt lat="42.94135" lon="0.57848">
        <ele>816</ele>
        <time>2019-02-03T09:13:54.000Z</time>
      </trkpt>
      <trkpt lat="42.94134" lon="0.57849">
        <ele>816</ele>
        <time>2019-02-03T09:13:55.000Z</time>
      </trkpt>
      <trkpt lat="42.94133" lon="0.57849">
        <ele>816</ele>
        <time>2019-02-03T09:13:56.000Z</time>
      </trkpt>
      <trkpt lat="42.94132" lon="0.57849">
        <ele>816.5</ele>
        <time>2019-02-03T09:13:57.000Z</time>
      </trkpt>
      <trkpt lat="42.94132" lon="0.57849">
        <ele>817</ele>
        <time>2019-02-03T09:13:58.000Z</time>
      </trkpt>
      <trkpt lat="42.94131" lon="0.57849">
        <ele>817</ele>
        <time>2019-02-03T09:13:59.000Z</time>
      </trkpt>
      <trkpt lat="42.9413" lon="0.57849">
        <ele>817</ele>
        <time>2019-02-03T09:14:00.000Z</time>
      </trkpt>
      <trkpt lat="42.94129" lon="0.57849">
        <ele>817</ele>
        <time>2019-02-03T09:14:01.000Z</time>
      </trkpt>
      <trkpt lat="42.94129" lon="0.57849">
        <ele>817</ele>
        <time>2019-02-03T09:14:02.000Z</time>
      </trkpt>
      <trkpt lat="42.94128" lon="0.57849">
        <ele>817</ele>
        <time>2019-02-03T09:14:03.000Z</time>
      </trkpt>
      <trkpt lat="42.94127" lon="0.57849">
        <ele>817</ele>
        <time>2019-02-03T09:14:04.000Z</time>
      </trkpt>
      <trkpt lat="42.94127" lon="0.57849">
        <ele>817</ele>
        <time>2019-02-03T09:14:05.000Z</time>
      </trkpt>
      <trkpt lat="42.94126" lon="0.57849">
        <ele>817</ele>
        <time>2019-02-03T09:14:06.000Z</time>
      </trkpt>
      <trkpt lat="42.94125" lon="0.57849">
        <ele>817.3</ele>
        <time>2019-02-03T09:14:07.000Z</time>
      </trkpt>
      <trkpt lat="42.94125" lon="0.57849">
        <ele>817.7</ele>
        <time>2019-02-03T09:14:08.000Z</time>
      </trkpt>
      <trkpt lat="42.94124" lon="0.57849">
        <ele>818</ele>
        <time>2019-02-03T09:14:09.000Z</time>
      </trkpt>
      <trkpt lat="42.94123" lon="0.57849">
        <ele>818</ele>
        <time>2019-02-03T09:14:10.000Z</time>
      </trkpt>
      <trkpt lat="42.94122" lon="0.57849">
        <ele>818</ele>
        <time>2019-02-03T09:14:11.000Z</time>
      </trkpt>
      <trkpt lat="42.94121" lon="0.5785">
        <ele>818</ele>
        <time>2019-02-03T09:14:12.000Z</time>
      </trkpt>
      <trkpt lat="42.9412" lon="0.5785">
        <ele>818</ele>
        <time>2019-02-03T09:14:13.000Z</time>
      </trkpt>
      <trkpt lat="42.94119" lon="0.5785">
        <ele>818</ele>
        <time>2019-02-03T09:14:14.000Z</time>
      </trkpt>
      <trkpt lat="42.94118" lon="0.57851">
        <ele>818</ele>
        <time>2019-02-03T09:14:15.000Z</time>
      </trkpt>
      <trkpt lat="42.94117" lon="0.57851">
        <ele>818</ele>
        <time>2019-02-03T09:14:16.000Z</time>
      </trkpt>
      <trkpt lat="42.94115" lon="0.57852">
        <ele>818</ele>
        <time>2019-02-03T09:14:17.000Z</time>
      </trkpt>
      <trkpt lat="42.94114" lon="0.57853">
        <ele>818</ele>
        <time>2019-02-03T09:14:18.000Z</time>
      </trkpt>
      <trkpt lat="42.94113" lon="0.57853">
        <ele>818</ele>
        <time>2019-02-03T09:14:19.000Z</time>
      </trkpt>
      <trkpt lat="42.94112" lon="0.57854">
        <ele>818</ele>
        <time>2019-02-03T09:14:20.000Z</time>
      </trkpt>
      <trkpt lat="42.94111" lon="0.57854">
        <ele>818</ele>
        <time>2019-02-03T09:14:21.000Z</time>
      </trkpt>
      <trkpt lat="42.9411" lon="0.57855">
        <ele>819</ele>
        <time>2019-02-03T09:14:22.000Z</time>
      </trkpt>
      <trkpt lat="42.9411" lon="0.57855">
        <ele>819</ele>
        <time>2019-02-03T09:14:23.000Z</time>
      </trkpt>
      <trkpt lat="42.94109" lon="0.57855">
        <ele>819</ele>
        <time>2019-02-03T09:14:24.000Z</time>
      </trkpt>
      <trkpt lat="42.94109" lon="0.57855">
        <ele>819</ele>
        <time>2019-02-03T09:14:25.000Z</time>
      </trkpt>
      <trkpt lat="42.94109" lon="0.57856">
        <ele>819</ele>
        <time>2019-02-03T09:14:26.000Z</time>
      </trkpt>
      <trkpt lat="42.94108" lon="0.57856">
        <ele>819</ele>
        <time>2019-02-03T09:14:27.000Z</time>
      </trkpt>
      <trkpt lat="42.94108" lon="0.57857">
        <ele>820</ele>
        <time>2019-02-03T09:14:28.000Z</time>
      </trkpt>
      <trkpt lat="42.94107" lon="0.57857">
        <ele>820</ele>
        <time>2019-02-03T09:14:29.000Z</time>
      </trkpt>
      <trkpt lat="42.94107" lon="0.57858">
        <ele>820</ele>
        <time>2019-02-03T09:14:30.000Z</time>
      </trkpt>
      <trkpt lat="42.94106" lon="0.57859">
        <ele>820</ele>
        <time>2019-02-03T09:14:31.000Z</time>
      </trkpt>
      <trkpt lat="42.94105" lon="0.5786">
        <ele>820</ele>
        <time>2019-02-03T09:14:32.000Z</time>
      </trkpt>
      <trkpt lat="42.94105" lon="0.57861">
        <ele>820</ele>
        <time>2019-02-03T09:14:33.000Z</time>
      </trkpt>
      <trkpt lat="42.94105" lon="0.57861">
        <ele>820</ele>
        <time>2019-02-03T09:14:34.000Z</time>
      </trkpt>
      <trkpt lat="42.94104" lon="0.57862">
        <ele>820</ele>
        <time>2019-02-03T09:14:35.000Z</time>
      </trkpt>
      <trkpt lat="42.94104" lon="0.57862">
        <ele>820</ele>
        <time>2019-02-03T09:14:36.000Z</time>
      </trkpt>
      <trkpt lat="42.94104" lon="0.57862">
        <ele>820</ele>
        <time>2019-02-03T09:14:37.000Z</time>
      </trkpt>
      <trkpt lat="42.94104" lon="0.57862">
        <ele>820</ele>
        <time>2019-02-03T09:14:38.000Z</time>
      </trkpt>
      <trkpt lat="42.94104" lon="0.57862">
        <ele>820</ele>
        <time>2019-02-03T09:14:39.000Z</time>
      </trkpt>
      <trkpt lat="42.94104" lon="0.57862">
        <ele>820</ele>
        <time>2019-02-03T09:14:40.000Z</time>
      </trkpt>
      <trkpt lat="42.94104" lon="0.57862">
        <ele>820</ele>
        <time>2019-02-03T09:14:41.000Z</time>
      </trkpt>
      <trkpt lat="42.94104" lon="0.57862">
        <ele>820</ele>
        <time>2019-02-03T09:14:42.000Z</time>
      </trkpt>
      <trkpt lat="42.94104" lon="0.57862">
        <ele>820</ele>
        <time>2019-02-03T09:14:43.000Z</time>
      </trkpt>
      <trkpt lat="42.94104" lon="0.57862">
        <ele>820</ele>
        <time>2019-02-03T09:14:44.000Z</time>
      </trkpt>
      <trkpt lat="42.94104" lon="0.57862">
        <ele>820</ele>
        <time>2019-02-03T09:14:45.000Z</time>
      </trkpt>
      <trkpt lat="42.94104" lon="0.57862">
        <ele>820</ele>
        <time>2019-02-03T09:14:46.000Z</time>
      </trkpt>
      <trkpt lat="42.94104" lon="0.57862">
        <ele>820</ele>
        <time>2019-02-03T09:14:47.000Z</time>
      </trkpt>
      <trkpt lat="42.94104" lon="0.57862">
        <ele>820</ele>
        <time>2019-02-03T09:14:48.000Z</time>
      </trkpt>
      <trkpt lat="42.94103" lon="0.57862">
        <ele>820</ele>
        <time>2019-02-03T09:14:49.000Z</time>
      </trkpt>
      <trkpt lat="42.94103" lon="0.57863">
        <ele>821</ele>
        <time>2019-02-03T09:14:50.000Z</time>
      </trkpt>
      <trkpt lat="42.94103" lon="0.57863">
        <ele>821</ele>
        <time>2019-02-03T09:14:51.000Z</time>
      </trkpt>
      <trkpt lat="42.94103" lon="0.57863">
        <ele>821</ele>
        <time>2019-02-03T09:14:52.000Z</time>
      </trkpt>
      <trkpt lat="42.94102" lon="0.57863">
        <ele>821</ele>
        <time>2019-02-03T09:14:53.000Z</time>
      </trkpt>
      <trkpt lat="42.94102" lon="0.57863">
        <ele>821</ele>
        <time>2019-02-03T09:14:54.000Z</time>
      </trkpt>
      <trkpt lat="42.94101" lon="0.57863">
        <ele>821</ele>
        <time>2019-02-03T09:14:55.000Z</time>
      </trkpt>
      <trkpt lat="42.94101" lon="0.57864">
        <ele>821</ele>
        <time>2019-02-03T09:14:56.000Z</time>
      </trkpt>
      <trkpt lat="42.941" lon="0.57864">
        <ele>821</ele>
        <time>2019-02-03T09:14:57.000Z</time>
      </trkpt>
      <trkpt lat="42.941" lon="0.57864">
        <ele>821</ele>
        <time>2019-02-03T09:14:58.000Z</time>
      </trkpt>
      <trkpt lat="42.94099" lon="0.57864">
        <ele>821</ele>
        <time>2019-02-03T09:14:59.000Z</time>
      </trkpt>
      <trkpt lat="42.94099" lon="0.57865">
        <ele>821</ele>
        <time>2019-02-03T09:15:00.000Z</time>
      </trkpt>
      <trkpt lat="42.94098" lon="0.57865">
        <ele>821</ele>
        <time>2019-02-03T09:15:01.000Z</time>
      </trkpt>
      <trkpt lat="42.94097" lon="0.57865">
        <ele>822</ele>
        <time>2019-02-03T09:15:02.000Z</time>
      </trkpt>
      <trkpt lat="42.94097" lon="0.57866">
        <ele>822</ele>
        <time>2019-02-03T09:15:03.000Z</time>
      </trkpt>
      <trkpt lat="42.94096" lon="0.57866">
        <ele>822</ele>
        <time>2019-02-03T09:15:04.000Z</time>
      </trkpt>
      <trkpt lat="42.94095" lon="0.57866">
        <ele>822</ele>
        <time>2019-02-03T09:15:05.000Z</time>
      </trkpt>
      <trkpt lat="42.94094" lon="0.57867">
        <ele>822</ele>
        <time>2019-02-03T09:15:06.000Z</time>
      </trkpt>
      <trkpt lat="42.94094" lon="0.57867">
        <ele>822</ele>
        <time>2019-02-03T09:15:07.000Z</time>
      </trkpt>
      <trkpt lat="42.94093" lon="0.57867">
        <ele>822</ele>
        <time>2019-02-03T09:15:08.000Z</time>
      </trkpt>
      <trkpt lat="42.94092" lon="0.57868">
        <ele>822</ele>
        <time>2019-02-03T09:15:09.000Z</time>
      </trkpt>
      <trkpt lat="42.94091" lon="0.57868">
        <ele>823</ele>
        <time>2019-02-03T09:15:10.000Z</time>
      </trkpt>
      <trkpt lat="42.94091" lon="0.57869">
        <ele>823</ele>
        <time>2019-02-03T09:15:11.000Z</time>
      </trkpt>
      <trkpt lat="42.9409" lon="0.57869">
        <ele>823</ele>
        <time>2019-02-03T09:15:12.000Z</time>
      </trkpt>
      <trkpt lat="42.94089" lon="0.57869">
        <ele>823</ele>
        <time>2019-02-03T09:15:13.000Z</time>
      </trkpt>
      <trkpt lat="42.94088" lon="0.5787">
        <ele>823</ele>
        <time>2019-02-03T09:15:14.000Z</time>
      </trkpt>
      <trkpt lat="42.94087" lon="0.5787">
        <ele>823</ele>
        <time>2019-02-03T09:15:15.000Z</time>
      </trkpt>
      <trkpt lat="42.94086" lon="0.5787">
        <ele>823</ele>
        <time>2019-02-03T09:15:16.000Z</time>
      </trkpt>
      <trkpt lat="42.94085" lon="0.5787">
        <ele>823</ele>
        <time>2019-02-03T09:15:17.000Z</time>
      </trkpt>
      <trkpt lat="42.94084" lon="0.57871">
        <ele>823</ele>
        <time>2019-02-03T09:15:18.000Z</time>
      </trkpt>
      <trkpt lat="42.94083" lon="0.57871">
        <ele>823</ele>
        <time>2019-02-03T09:15:19.000Z</time>
      </trkpt>
      <trkpt lat="42.94083" lon="0.57871">
        <ele>823</ele>
        <time>2019-02-03T09:15:20.000Z</time>
      </trkpt>
      <trkpt lat="42.94082" lon="0.57871">
        <ele>823</ele>
        <time>2019-02-03T09:15:21.000Z</time>
      </trkpt>
      <trkpt lat="42.94081" lon="0.57871">
        <ele>824</ele>
        <time>2019-02-03T09:15:22.000Z</time>
      </trkpt>
      <trkpt lat="42.9408" lon="0.57872">
        <ele>824</ele>
        <time>2019-02-03T09:15:23.000Z</time>
      </trkpt>
      <trkpt lat="42.94079" lon="0.57872">
        <ele>824</ele>
        <time>2019-02-03T09:15:24.000Z</time>
      </trkpt>
      <trkpt lat="42.94078" lon="0.57872">
        <ele>824</ele>
        <time>2019-02-03T09:15:25.000Z</time>
      </trkpt>
      <trkpt lat="42.94077" lon="0.57872">
        <ele>824</ele>
        <time>2019-02-03T09:15:26.000Z</time>
      </trkpt>
      <trkpt lat="42.94077" lon="0.57872">
        <ele>824</ele>
        <time>2019-02-03T09:15:27.000Z</time>
      </trkpt>
      <trkpt lat="42.94076" lon="0.57873">
        <ele>824</ele>
        <time>2019-02-03T09:15:28.000Z</time>
      </trkpt>
      <trkpt lat="42.94075" lon="0.57873">
        <ele>824</ele>
        <time>2019-02-03T09:15:29.000Z</time>
      </trkpt>
      <trkpt lat="42.94075" lon="0.57873">
        <ele>825</ele>
        <time>2019-02-03T09:15:30.000Z</time>
      </trkpt>
      <trkpt lat="42.94075" lon="0.57874">
        <ele>825</ele>
        <time>2019-02-03T09:15:31.000Z</time>
      </trkpt>
      <trkpt lat="42.94074" lon="0.57874">
        <ele>825</ele>
        <time>2019-02-03T09:15:32.000Z</time>
      </trkpt>
      <trkpt lat="42.94074" lon="0.57875">
        <ele>825</ele>
        <time>2019-02-03T09:15:33.000Z</time>
      </trkpt>
      <trkpt lat="42.94074" lon="0.57875">
        <ele>825</ele>
        <time>2019-02-03T09:15:34.000Z</time>
      </trkpt>
      <trkpt lat="42.94073" lon="0.57876">
        <ele>825</ele>
        <time>2019-02-03T09:15:35.000Z</time>
      </trkpt>
      <trkpt lat="42.94073" lon="0.57877">
        <ele>825</ele>
        <time>2019-02-03T09:15:36.000Z</time>
      </trkpt>
      <trkpt lat="42.94072" lon="0.57877">
        <ele>825</ele>
        <time>2019-02-03T09:15:37.000Z</time>
      </trkpt>
      <trkpt lat="42.94071" lon="0.57878">
        <ele>826</ele>
        <time>2019-02-03T09:15:38.000Z</time>
      </trkpt>
      <trkpt lat="42.94071" lon="0.57879">
        <ele>826</ele>
        <time>2019-02-03T09:15:39.000Z</time>
      </trkpt>
      <trkpt lat="42.9407" lon="0.5788">
        <ele>826</ele>
        <time>2019-02-03T09:15:40.000Z</time>
      </trkpt>
      <trkpt lat="42.94069" lon="0.5788">
        <ele>826</ele>
        <time>2019-02-03T09:15:41.000Z</time>
      </trkpt>
      <trkpt lat="42.94068" lon="0.57881">
        <ele>826</ele>
        <time>2019-02-03T09:15:42.000Z</time>
      </trkpt>
      <trkpt lat="42.94067" lon="0.57882">
        <ele>826</ele>
        <time>2019-02-03T09:15:43.000Z</time>
      </trkpt>
      <trkpt lat="42.94067" lon="0.57882">
        <ele>826</ele>
        <time>2019-02-03T09:15:44.000Z</time>
      </trkpt>
      <trkpt lat="42.94066" lon="0.57883">
        <ele>826</ele>
        <time>2019-02-03T09:15:45.000Z</time>
      </trkpt>
      <trkpt lat="42.94065" lon="0.57884">
        <ele>826</ele>
        <time>2019-02-03T09:15:46.000Z</time>
      </trkpt>
      <trkpt lat="42.94064" lon="0.57884">
        <ele>826.3</ele>
        <time>2019-02-03T09:15:47.000Z</time>
      </trkpt>
      <trkpt lat="42.94064" lon="0.57885">
        <ele>826.7</ele>
        <time>2019-02-03T09:15:48.000Z</time>
      </trkpt>
      <trkpt lat="42.94063" lon="0.57885">
        <ele>827</ele>
        <time>2019-02-03T09:15:49.000Z</time>
      </trkpt>
      <trkpt lat="42.94062" lon="0.57885">
        <ele>827</ele>
        <time>2019-02-03T09:15:50.000Z</time>
      </trkpt>
      <trkpt lat="42.94062" lon="0.57886">
        <ele>827</ele>
        <time>2019-02-03T09:15:51.000Z</time>
      </trkpt>
      <trkpt lat="42.94061" lon="0.57886">
        <ele>827</ele>
        <time>2019-02-03T09:15:52.000Z</time>
      </trkpt>
      <trkpt lat="42.9406" lon="0.57886">
        <ele>827</ele>
        <time>2019-02-03T09:15:53.000Z</time>
      </trkpt>
      <trkpt lat="42.94059" lon="0.57887">
        <ele>827</ele>
        <time>2019-02-03T09:15:54.000Z</time>
      </trkpt>
      <trkpt lat="42.94059" lon="0.57887">
        <ele>827.3</ele>
        <time>2019-02-03T09:15:55.000Z</time>
      </trkpt>
      <trkpt lat="42.94058" lon="0.57887">
        <ele>827.7</ele>
        <time>2019-02-03T09:15:56.000Z</time>
      </trkpt>
      <trkpt lat="42.94057" lon="0.57888">
        <ele>828</ele>
        <time>2019-02-03T09:15:57.000Z</time>
      </trkpt>
      <trkpt lat="42.94057" lon="0.57888">
        <ele>828</ele>
        <time>2019-02-03T09:15:58.000Z</time>
      </trkpt>
      <trkpt lat="42.94056" lon="0.57888">
        <ele>828</ele>
        <time>2019-02-03T09:15:59.000Z</time>
      </trkpt>
      <trkpt lat="42.94055" lon="0.57889">
        <ele>828</ele>
        <time>2019-02-03T09:16:00.000Z</time>
      </trkpt>
      <trkpt lat="42.94055" lon="0.57889">
        <ele>828</ele>
        <time>2019-02-03T09:16:01.000Z</time>
      </trkpt>
      <trkpt lat="42.94054" lon="0.5789">
        <ele>828</ele>
        <time>2019-02-03T09:16:02.000Z</time>
      </trkpt>
      <trkpt lat="42.94054" lon="0.57891">
        <ele>828.3</ele>
        <time>2019-02-03T09:16:03.000Z</time>
      </trkpt>
      <trkpt lat="42.94053" lon="0.57891">
        <ele>828.7</ele>
        <time>2019-02-03T09:16:04.000Z</time>
      </trkpt>
      <trkpt lat="42.94053" lon="0.57892">
        <ele>829</ele>
        <time>2019-02-03T09:16:05.000Z</time>
      </trkpt>
      <trkpt lat="42.94052" lon="0.57892">
        <ele>829</ele>
        <time>2019-02-03T09:16:06.000Z</time>
      </trkpt>
      <trkpt lat="42.94052" lon="0.57893">
        <ele>829</ele>
        <time>2019-02-03T09:16:07.000Z</time>
      </trkpt>
      <trkpt lat="42.94051" lon="0.57893">
        <ele>830</ele>
        <time>2019-02-03T09:16:08.000Z</time>
      </trkpt>
      <trkpt lat="42.94051" lon="0.57893">
        <ele>830</ele>
        <time>2019-02-03T09:16:09.000Z</time>
      </trkpt>
      <trkpt lat="42.9405" lon="0.57893">
        <ele>830</ele>
        <time>2019-02-03T09:16:10.000Z</time>
      </trkpt>
      <trkpt lat="42.9405" lon="0.57893">
        <ele>830</ele>
        <time>2019-02-03T09:16:11.000Z</time>
      </trkpt>
      <trkpt lat="42.9405" lon="0.57893">
        <ele>830</ele>
        <time>2019-02-03T09:16:12.000Z</time>
      </trkpt>
      <trkpt lat="42.94049" lon="0.57893">
        <ele>830</ele>
        <time>2019-02-03T09:16:13.000Z</time>
      </trkpt>
      <trkpt lat="42.94049" lon="0.57892">
        <ele>830</ele>
        <time>2019-02-03T09:16:14.000Z</time>
      </trkpt>
      <trkpt lat="42.94048" lon="0.57892">
        <ele>830</ele>
        <time>2019-02-03T09:16:15.000Z</time>
      </trkpt>
      <trkpt lat="42.94048" lon="0.57892">
        <ele>830</ele>
        <time>2019-02-03T09:16:16.000Z</time>
      </trkpt>
      <trkpt lat="42.94047" lon="0.57892">
        <ele>830</ele>
        <time>2019-02-03T09:16:17.000Z</time>
      </trkpt>
      <trkpt lat="42.94046" lon="0.57892">
        <ele>830</ele>
        <time>2019-02-03T09:16:18.000Z</time>
      </trkpt>
      <trkpt lat="42.94046" lon="0.57892">
        <ele>830</ele>
        <time>2019-02-03T09:16:19.000Z</time>
      </trkpt>
      <trkpt lat="42.94045" lon="0.57892">
        <ele>830</ele>
        <time>2019-02-03T09:16:20.000Z</time>
      </trkpt>
      <trkpt lat="42.94044" lon="0.57892">
        <ele>830</ele>
        <time>2019-02-03T09:16:21.000Z</time>
      </trkpt>
      <trkpt lat="42.94043" lon="0.57893">
        <ele>830</ele>
        <time>2019-02-03T09:16:22.000Z</time>
      </trkpt>
      <trkpt lat="42.94042" lon="0.57893">
        <ele>830</ele>
        <time>2019-02-03T09:16:23.000Z</time>
      </trkpt>
      <trkpt lat="42.94042" lon="0.57894">
        <ele>830.5</ele>
        <time>2019-02-03T09:16:24.000Z</time>
      </trkpt>
      <trkpt lat="42.94041" lon="0.57894">
        <ele>831</ele>
        <time>2019-02-03T09:16:25.000Z</time>
      </trkpt>
      <trkpt lat="42.94041" lon="0.57894">
        <ele>831</ele>
        <time>2019-02-03T09:16:26.000Z</time>
      </trkpt>
      <trkpt lat="42.94041" lon="0.57894">
        <ele>831</ele>
        <time>2019-02-03T09:16:27.000Z</time>
      </trkpt>
      <trkpt lat="42.94041" lon="0.57894">
        <ele>831</ele>
        <time>2019-02-03T09:16:28.000Z</time>
      </trkpt>
      <trkpt lat="42.9404" lon="0.57895">
        <ele>831</ele>
        <time>2019-02-03T09:16:29.000Z</time>
      </trkpt>
      <trkpt lat="42.94039" lon="0.57896">
        <ele>831</ele>
        <time>2019-02-03T09:16:30.000Z</time>
      </trkpt>
      <trkpt lat="42.94038" lon="0.57896">
        <ele>831</ele>
        <time>2019-02-03T09:16:31.000Z</time>
      </trkpt>
      <trkpt lat="42.94037" lon="0.57897">
        <ele>831</ele>
        <time>2019-02-03T09:16:32.000Z</time>
      </trkpt>
      <trkpt lat="42.94036" lon="0.57897">
        <ele>831</ele>
        <time>2019-02-03T09:16:33.000Z</time>
      </trkpt>
      <trkpt lat="42.94036" lon="0.57897">
        <ele>831</ele>
        <time>2019-02-03T09:16:34.000Z</time>
      </trkpt>
      <trkpt lat="42.94035" lon="0.57898">
        <ele>831</ele>
        <time>2019-02-03T09:16:35.000Z</time>
      </trkpt>
      <trkpt lat="42.94034" lon="0.57898">
        <ele>831</ele>
        <time>2019-02-03T09:16:36.000Z</time>
      </trkpt>
      <trkpt lat="42.94033" lon="0.57899">
        <ele>831.3</ele>
        <time>2019-02-03T09:16:37.000Z</time>
      </trkpt>
      <trkpt lat="42.94032" lon="0.57899">
        <ele>831.7</ele>
        <time>2019-02-03T09:16:38.000Z</time>
      </trkpt>
      <trkpt lat="42.94031" lon="0.57899">
        <ele>832</ele>
        <time>2019-02-03T09:16:39.000Z</time>
      </trkpt>
      <trkpt lat="42.9403" lon="0.57899">
        <ele>832</ele>
        <time>2019-02-03T09:16:40.000Z</time>
      </trkpt>
      <trkpt lat="42.94029" lon="0.57899">
        <ele>832</ele>
        <time>2019-02-03T09:16:41.000Z</time>
      </trkpt>
      <trkpt lat="42.94028" lon="0.57899">
        <ele>832</ele>
        <time>2019-02-03T09:16:42.000Z</time>
      </trkpt>
      <trkpt lat="42.94027" lon="0.57899">
        <ele>832</ele>
        <time>2019-02-03T09:16:43.000Z</time>
      </trkpt>
      <trkpt lat="42.94027" lon="0.57899">
        <ele>832</ele>
        <time>2019-02-03T09:16:44.000Z</time>
      </trkpt>
      <trkpt lat="42.94026" lon="0.57899">
        <ele>832</ele>
        <time>2019-02-03T09:16:45.000Z</time>
      </trkpt>
      <trkpt lat="42.94025" lon="0.57899">
        <ele>832</ele>
        <time>2019-02-03T09:16:46.000Z</time>
      </trkpt>
      <trkpt lat="42.94024" lon="0.57899">
        <ele>832</ele>
        <time>2019-02-03T09:16:47.000Z</time>
      </trkpt>
      <trkpt lat="42.94023" lon="0.57899">
        <ele>833</ele>
        <time>2019-02-03T09:16:48.000Z</time>
      </trkpt>
      <trkpt lat="42.94023" lon="0.57899">
        <ele>833</ele>
        <time>2019-02-03T09:16:49.000Z</time>
      </trkpt>
      <trkpt lat="42.94022" lon="0.57899">
        <ele>833</ele>
        <time>2019-02-03T09:16:50.000Z</time>
      </trkpt>
      <trkpt lat="42.94021" lon="0.57899">
        <ele>833</ele>
        <time>2019-02-03T09:16:51.000Z</time>
      </trkpt>
      <trkpt lat="42.94021" lon="0.57899">
        <ele>833</ele>
        <time>2019-02-03T09:16:52.000Z</time>
      </trkpt>
      <trkpt lat="42.9402" lon="0.57899">
        <ele>833</ele>
        <time>2019-02-03T09:16:53.000Z</time>
      </trkpt>
      <trkpt lat="42.9402" lon="0.57899">
        <ele>833</ele>
        <time>2019-02-03T09:16:54.000Z</time>
      </trkpt>
      <trkpt lat="42.94019" lon="0.57899">
        <ele>833</ele>
        <time>2019-02-03T09:16:55.000Z</time>
      </trkpt>
      <trkpt lat="42.94019" lon="0.57898">
        <ele>833</ele>
        <time>2019-02-03T09:16:56.000Z</time>
      </trkpt>
      <trkpt lat="42.94018" lon="0.57898">
        <ele>833.3</ele>
        <time>2019-02-03T09:16:57.000Z</time>
      </trkpt>
      <trkpt lat="42.94018" lon="0.57898">
        <ele>833.7</ele>
        <time>2019-02-03T09:16:58.000Z</time>
      </trkpt>
      <trkpt lat="42.94017" lon="0.57898">
        <ele>834</ele>
        <time>2019-02-03T09:16:59.000Z</time>
      </trkpt>
      <trkpt lat="42.94017" lon="0.57897">
        <ele>834</ele>
        <time>2019-02-03T09:17:00.000Z</time>
      </trkpt>
      <trkpt lat="42.94016" lon="0.57897">
        <ele>834</ele>
        <time>2019-02-03T09:17:01.000Z</time>
      </trkpt>
      <trkpt lat="42.94016" lon="0.57897">
        <ele>834</ele>
        <time>2019-02-03T09:17:02.000Z</time>
      </trkpt>
      <trkpt lat="42.94015" lon="0.57896">
        <ele>834</ele>
        <time>2019-02-03T09:17:03.000Z</time>
      </trkpt>
      <trkpt lat="42.94015" lon="0.57896">
        <ele>834</ele>
        <time>2019-02-03T09:17:04.000Z</time>
      </trkpt>
      <trkpt lat="42.94014" lon="0.57896">
        <ele>834</ele>
        <time>2019-02-03T09:17:05.000Z</time>
      </trkpt>
      <trkpt lat="42.94013" lon="0.57895">
        <ele>834</ele>
        <time>2019-02-03T09:17:06.000Z</time>
      </trkpt>
      <trkpt lat="42.94013" lon="0.57895">
        <ele>834</ele>
        <time>2019-02-03T09:17:07.000Z</time>
      </trkpt>
      <trkpt lat="42.94012" lon="0.57895">
        <ele>834</ele>
        <time>2019-02-03T09:17:08.000Z</time>
      </trkpt>
      <trkpt lat="42.94012" lon="0.57895">
        <ele>834</ele>
        <time>2019-02-03T09:17:09.000Z</time>
      </trkpt>
      <trkpt lat="42.94011" lon="0.57895">
        <ele>834.5</ele>
        <time>2019-02-03T09:17:10.000Z</time>
      </trkpt>
      <trkpt lat="42.9401" lon="0.57895">
        <ele>835</ele>
        <time>2019-02-03T09:17:11.000Z</time>
      </trkpt>
      <trkpt lat="42.9401" lon="0.57896">
        <ele>835</ele>
        <time>2019-02-03T09:17:12.000Z</time>
      </trkpt>
      <trkpt lat="42.94009" lon="0.57896">
        <ele>835</ele>
        <time>2019-02-03T09:17:13.000Z</time>
      </trkpt>
      <trkpt lat="42.94008" lon="0.57897">
        <ele>835</ele>
        <time>2019-02-03T09:17:14.000Z</time>
      </trkpt>
      <trkpt lat="42.94008" lon="0.57897">
        <ele>835</ele>
        <time>2019-02-03T09:17:15.000Z</time>
      </trkpt>
      <trkpt lat="42.94007" lon="0.57898">
        <ele>835</ele>
        <time>2019-02-03T09:17:16.000Z</time>
      </trkpt>
      <trkpt lat="42.94006" lon="0.57898">
        <ele>835</ele>
        <time>2019-02-03T09:17:17.000Z</time>
      </trkpt>
      <trkpt lat="42.94006" lon="0.57899">
        <ele>835</ele>
        <time>2019-02-03T09:17:18.000Z</time>
      </trkpt>
      <trkpt lat="42.94005" lon="0.579">
        <ele>835</ele>
        <time>2019-02-03T09:17:19.000Z</time>
      </trkpt>
      <trkpt lat="42.94005" lon="0.579">
        <ele>836</ele>
        <time>2019-02-03T09:17:20.000Z</time>
      </trkpt>
      <trkpt lat="42.94004" lon="0.57901">
        <ele>836</ele>
        <time>2019-02-03T09:17:21.000Z</time>
      </trkpt>
      <trkpt lat="42.94004" lon="0.57901">
        <ele>836</ele>
        <time>2019-02-03T09:17:22.000Z</time>
      </trkpt>
      <trkpt lat="42.94004" lon="0.57902">
        <ele>836</ele>
        <time>2019-02-03T09:17:23.000Z</time>
      </trkpt>
      <trkpt lat="42.94002" lon="0.57903">
        <ele>836</ele>
        <time>2019-02-03T09:17:24.000Z</time>
      </trkpt>
      <trkpt lat="42.94002" lon="0.57904">
        <ele>836</ele>
        <time>2019-02-03T09:17:25.000Z</time>
      </trkpt>
      <trkpt lat="42.94001" lon="0.57905">
        <ele>836</ele>
        <time>2019-02-03T09:17:26.000Z</time>
      </trkpt>
      <trkpt lat="42.94001" lon="0.57905">
        <ele>836</ele>
        <time>2019-02-03T09:17:27.000Z</time>
      </trkpt>
      <trkpt lat="42.94" lon="0.57906">
        <ele>836</ele>
        <time>2019-02-03T09:17:28.000Z</time>
      </trkpt>
      <trkpt lat="42.94" lon="0.57907">
        <ele>836.3</ele>
        <time>2019-02-03T09:17:29.000Z</time>
      </trkpt>
      <trkpt lat="42.93999" lon="0.57908">
        <ele>836.7</ele>
        <time>2019-02-03T09:17:30.000Z</time>
      </trkpt>
      <trkpt lat="42.93998" lon="0.57908">
        <ele>837</ele>
        <time>2019-02-03T09:17:31.000Z</time>
      </trkpt>
      <trkpt lat="42.93998" lon="0.57909">
        <ele>837</ele>
        <time>2019-02-03T09:17:32.000Z</time>
      </trkpt>
      <trkpt lat="42.93998" lon="0.57909">
        <ele>837</ele>
        <time>2019-02-03T09:17:33.000Z</time>
      </trkpt>
      <trkpt lat="42.93997" lon="0.57909">
        <ele>837</ele>
        <time>2019-02-03T09:17:34.000Z</time>
      </trkpt>
      <trkpt lat="42.93997" lon="0.5791">
        <ele>837</ele>
        <time>2019-02-03T09:17:35.000Z</time>
      </trkpt>
      <trkpt lat="42.93997" lon="0.5791">
        <ele>837</ele>
        <time>2019-02-03T09:17:36.000Z</time>
      </trkpt>
      <trkpt lat="42.93996" lon="0.57911">
        <ele>837</ele>
        <time>2019-02-03T09:17:37.000Z</time>
      </trkpt>
      <trkpt lat="42.93995" lon="0.57912">
        <ele>837</ele>
        <time>2019-02-03T09:17:38.000Z</time>
      </trkpt>
      <trkpt lat="42.93995" lon="0.57912">
        <ele>837</ele>
        <time>2019-02-03T09:17:39.000Z</time>
      </trkpt>
      <trkpt lat="42.93994" lon="0.57913">
        <ele>837</ele>
        <time>2019-02-03T09:17:40.000Z</time>
      </trkpt>
      <trkpt lat="42.93994" lon="0.57914">
        <ele>837</ele>
        <time>2019-02-03T09:17:41.000Z</time>
      </trkpt>
      <trkpt lat="42.93993" lon="0.57915">
        <ele>837</ele>
        <time>2019-02-03T09:17:42.000Z</time>
      </trkpt>
      <trkpt lat="42.93992" lon="0.57915">
        <ele>837</ele>
        <time>2019-02-03T09:17:43.000Z</time>
      </trkpt>
      <trkpt lat="42.93992" lon="0.57916">
        <ele>837.5</ele>
        <time>2019-02-03T09:17:44.000Z</time>
      </trkpt>
      <trkpt lat="42.93991" lon="0.57917">
        <ele>838</ele>
        <time>2019-02-03T09:17:45.000Z</time>
      </trkpt>
      <trkpt lat="42.9399" lon="0.57918">
        <ele>838</ele>
        <time>2019-02-03T09:17:46.000Z</time>
      </trkpt>
      <trkpt lat="42.9399" lon="0.57919">
        <ele>838</ele>
        <time>2019-02-03T09:17:47.000Z</time>
      </trkpt>
      <trkpt lat="42.93989" lon="0.57919">
        <ele>838</ele>
        <time>2019-02-03T09:17:48.000Z</time>
      </trkpt>
      <trkpt lat="42.93989" lon="0.5792">
        <ele>838</ele>
        <time>2019-02-03T09:17:49.000Z</time>
      </trkpt>
      <trkpt lat="42.93988" lon="0.57921">
        <ele>838</ele>
        <time>2019-02-03T09:17:50.000Z</time>
      </trkpt>
      <trkpt lat="42.93988" lon="0.57922">
        <ele>838.3</ele>
        <time>2019-02-03T09:17:51.000Z</time>
      </trkpt>
      <trkpt lat="42.93987" lon="0.57922">
        <ele>838.7</ele>
        <time>2019-02-03T09:17:52.000Z</time>
      </trkpt>
      <trkpt lat="42.93987" lon="0.57923">
        <ele>839</ele>
        <time>2019-02-03T09:17:53.000Z</time>
      </trkpt>
      <trkpt lat="42.93986" lon="0.57923">
        <ele>839</ele>
        <time>2019-02-03T09:17:54.000Z</time>
      </trkpt>
      <trkpt lat="42.93986" lon="0.57924">
        <ele>839</ele>
        <time>2019-02-03T09:17:55.000Z</time>
      </trkpt>
      <trkpt lat="42.93985" lon="0.57924">
        <ele>839</ele>
        <time>2019-02-03T09:17:56.000Z</time>
      </trkpt>
      <trkpt lat="42.93985" lon="0.57925">
        <ele>839</ele>
        <time>2019-02-03T09:17:57.000Z</time>
      </trkpt>
      <trkpt lat="42.93984" lon="0.57925">
        <ele>839</ele>
        <time>2019-02-03T09:17:58.000Z</time>
      </trkpt>
      <trkpt lat="42.93984" lon="0.57926">
        <ele>839</ele>
        <time>2019-02-03T09:17:59.000Z</time>
      </trkpt>
      <trkpt lat="42.93983" lon="0.57926">
        <ele>839</ele>
        <time>2019-02-03T09:18:00.000Z</time>
      </trkpt>
      <trkpt lat="42.93983" lon="0.57927">
        <ele>839</ele>
        <time>2019-02-03T09:18:01.000Z</time>
      </trkpt>
      <trkpt lat="42.93982" lon="0.57927">
        <ele>839</ele>
        <time>2019-02-03T09:18:02.000Z</time>
      </trkpt>
      <trkpt lat="42.93982" lon="0.57928">
        <ele>839</ele>
        <time>2019-02-03T09:18:03.000Z</time>
      </trkpt>
      <trkpt lat="42.93981" lon="0.57928">
        <ele>840</ele>
        <time>2019-02-03T09:18:04.000Z</time>
      </trkpt>
      <trkpt lat="42.9398" lon="0.57929">
        <ele>840</ele>
        <time>2019-02-03T09:18:05.000Z</time>
      </trkpt>
      <trkpt lat="42.9398" lon="0.57929">
        <ele>840</ele>
        <time>2019-02-03T09:18:06.000Z</time>
      </trkpt>
      <trkpt lat="42.93979" lon="0.5793">
        <ele>840</ele>
        <time>2019-02-03T09:18:07.000Z</time>
      </trkpt>
      <trkpt lat="42.93979" lon="0.5793">
        <ele>840</ele>
        <time>2019-02-03T09:18:08.000Z</time>
      </trkpt>
      <trkpt lat="42.93978" lon="0.5793">
        <ele>840</ele>
        <time>2019-02-03T09:18:09.000Z</time>
      </trkpt>
      <trkpt lat="42.93978" lon="0.5793">
        <ele>840</ele>
        <time>2019-02-03T09:18:10.000Z</time>
      </trkpt>
      <trkpt lat="42.93977" lon="0.57931">
        <ele>840</ele>
        <time>2019-02-03T09:18:11.000Z</time>
      </trkpt>
      <trkpt lat="42.93977" lon="0.57931">
        <ele>840</ele>
        <time>2019-02-03T09:18:12.000Z</time>
      </trkpt>
      <trkpt lat="42.93976" lon="0.57932">
        <ele>840.3</ele>
        <time>2019-02-03T09:18:13.000Z</time>
      </trkpt>
      <trkpt lat="42.93976" lon="0.57933">
        <ele>840.7</ele>
        <time>2019-02-03T09:18:14.000Z</time>
      </trkpt>
      <trkpt lat="42.93975" lon="0.57934">
        <ele>841</ele>
        <time>2019-02-03T09:18:15.000Z</time>
      </trkpt>
      <trkpt lat="42.93975" lon="0.57935">
        <ele>841</ele>
        <time>2019-02-03T09:18:16.000Z</time>
      </trkpt>
      <trkpt lat="42.93975" lon="0.57937">
        <ele>841</ele>
        <time>2019-02-03T09:18:17.000Z</time>
      </trkpt>
      <trkpt lat="42.93974" lon="0.57938">
        <ele>841</ele>
        <time>2019-02-03T09:18:18.000Z</time>
      </trkpt>
      <trkpt lat="42.93974" lon="0.57939">
        <ele>841</ele>
        <time>2019-02-03T09:18:19.000Z</time>
      </trkpt>
      <trkpt lat="42.93973" lon="0.5794">
        <ele>841</ele>
        <time>2019-02-03T09:18:20.000Z</time>
      </trkpt>
      <trkpt lat="42.93973" lon="0.57942">
        <ele>841</ele>
        <time>2019-02-03T09:18:21.000Z</time>
      </trkpt>
      <trkpt lat="42.93972" lon="0.57943">
        <ele>841</ele>
        <time>2019-02-03T09:18:22.000Z</time>
      </trkpt>
      <trkpt lat="42.93972" lon="0.57944">
        <ele>841</ele>
        <time>2019-02-03T09:18:23.000Z</time>
      </trkpt>
      <trkpt lat="42.93971" lon="0.57945">
        <ele>841</ele>
        <time>2019-02-03T09:18:24.000Z</time>
      </trkpt>
      <trkpt lat="42.9397" lon="0.57946">
        <ele>841</ele>
        <time>2019-02-03T09:18:25.000Z</time>
      </trkpt>
      <trkpt lat="42.9397" lon="0.57947">
        <ele>841</ele>
        <time>2019-02-03T09:18:26.000Z</time>
      </trkpt>
      <trkpt lat="42.93969" lon="0.57948">
        <ele>841.3</ele>
        <time>2019-02-03T09:18:27.000Z</time>
      </trkpt>
      <trkpt lat="42.93969" lon="0.57949">
        <ele>841.7</ele>
        <time>2019-02-03T09:18:28.000Z</time>
      </trkpt>
      <trkpt lat="42.93969" lon="0.5795">
        <ele>842</ele>
        <time>2019-02-03T09:18:29.000Z</time>
      </trkpt>
      <trkpt lat="42.93968" lon="0.5795">
        <ele>842</ele>
        <time>2019-02-03T09:18:30.000Z</time>
      </trkpt>
      <trkpt lat="42.93968" lon="0.57951">
        <ele>842</ele>
        <time>2019-02-03T09:18:31.000Z</time>
      </trkpt>
      <trkpt lat="42.93967" lon="0.57952">
        <ele>842</ele>
        <time>2019-02-03T09:18:32.000Z</time>
      </trkpt>
      <trkpt lat="42.93967" lon="0.57953">
        <ele>842</ele>
        <time>2019-02-03T09:18:33.000Z</time>
      </trkpt>
      <trkpt lat="42.93967" lon="0.57954">
        <ele>842</ele>
        <time>2019-02-03T09:18:34.000Z</time>
      </trkpt>
      <trkpt lat="42.93966" lon="0.57954">
        <ele>842</ele>
        <time>2019-02-03T09:18:35.000Z</time>
      </trkpt>
      <trkpt lat="42.93966" lon="0.57955">
        <ele>842</ele>
        <time>2019-02-03T09:18:36.000Z</time>
      </trkpt>
      <trkpt lat="42.93966" lon="0.57956">
        <ele>842</ele>
        <time>2019-02-03T09:18:37.000Z</time>
      </trkpt>
      <trkpt lat="42.93966" lon="0.57956">
        <ele>842</ele>
        <time>2019-02-03T09:18:38.000Z</time>
      </trkpt>
      <trkpt lat="42.93966" lon="0.57957">
        <ele>842</ele>
        <time>2019-02-03T09:18:39.000Z</time>
      </trkpt>
      <trkpt lat="42.93965" lon="0.57957">
        <ele>843</ele>
        <time>2019-02-03T09:18:40.000Z</time>
      </trkpt>
      <trkpt lat="42.93965" lon="0.57957">
        <ele>843</ele>
        <time>2019-02-03T09:18:41.000Z</time>
      </trkpt>
      <trkpt lat="42.93965" lon="0.57958">
        <ele>843</ele>
        <time>2019-02-03T09:18:42.000Z</time>
      </trkpt>
      <trkpt lat="42.93965" lon="0.57958">
        <ele>843</ele>
        <time>2019-02-03T09:18:43.000Z</time>
      </trkpt>
      <trkpt lat="42.93965" lon="0.57958">
        <ele>843</ele>
        <time>2019-02-03T09:18:44.000Z</time>
      </trkpt>
      <trkpt lat="42.93965" lon="0.57958">
        <ele>843</ele>
        <time>2019-02-03T09:18:45.000Z</time>
      </trkpt>
      <trkpt lat="42.93965" lon="0.57959">
        <ele>843</ele>
        <time>2019-02-03T09:18:46.000Z</time>
      </trkpt>
      <trkpt lat="42.93965" lon="0.57959">
        <ele>843</ele>
        <time>2019-02-03T09:18:47.000Z</time>
      </trkpt>
      <trkpt lat="42.93965" lon="0.57959">
        <ele>843</ele>
        <time>2019-02-03T09:18:48.000Z</time>
      </trkpt>
      <trkpt lat="42.93965" lon="0.5796">
        <ele>843</ele>
        <time>2019-02-03T09:18:49.000Z</time>
      </trkpt>
      <trkpt lat="42.93966" lon="0.5796">
        <ele>843.5</ele>
        <time>2019-02-03T09:18:50.000Z</time>
      </trkpt>
      <trkpt lat="42.93966" lon="0.57961">
        <ele>844</ele>
        <time>2019-02-03T09:18:51.000Z</time>
      </trkpt>
      <trkpt lat="42.93966" lon="0.57961">
        <ele>844</ele>
        <time>2019-02-03T09:18:52.000Z</time>
      </trkpt>
      <trkpt lat="42.93966" lon="0.57962">
        <ele>844</ele>
        <time>2019-02-03T09:18:53.000Z</time>
      </trkpt>
      <trkpt lat="42.93967" lon="0.57963">
        <ele>844</ele>
        <time>2019-02-03T09:18:54.000Z</time>
      </trkpt>
      <trkpt lat="42.93967" lon="0.57963">
        <ele>844</ele>
        <time>2019-02-03T09:18:55.000Z</time>
      </trkpt>
      <trkpt lat="42.93967" lon="0.57964">
        <ele>844</ele>
        <time>2019-02-03T09:18:56.000Z</time>
      </trkpt>
      <trkpt lat="42.93968" lon="0.57965">
        <ele>844</ele>
        <time>2019-02-03T09:18:57.000Z</time>
      </trkpt>
      <trkpt lat="42.93968" lon="0.57965">
        <ele>844</ele>
        <time>2019-02-03T09:18:58.000Z</time>
      </trkpt>
      <trkpt lat="42.93969" lon="0.57966">
        <ele>844</ele>
        <time>2019-02-03T09:18:59.000Z</time>
      </trkpt>
      <trkpt lat="42.93969" lon="0.57966">
        <ele>844.5</ele>
        <time>2019-02-03T09:19:00.000Z</time>
      </trkpt>
      <trkpt lat="42.9397" lon="0.57966">
        <ele>845</ele>
        <time>2019-02-03T09:19:01.000Z</time>
      </trkpt>
      <trkpt lat="42.9397" lon="0.57967">
        <ele>845</ele>
        <time>2019-02-03T09:19:02.000Z</time>
      </trkpt>
      <trkpt lat="42.93971" lon="0.57967">
        <ele>845</ele>
        <time>2019-02-03T09:19:03.000Z</time>
      </trkpt>
      <trkpt lat="42.93971" lon="0.57967">
        <ele>845</ele>
        <time>2019-02-03T09:19:04.000Z</time>
      </trkpt>
      <trkpt lat="42.93972" lon="0.57967">
        <ele>845</ele>
        <time>2019-02-03T09:19:05.000Z</time>
      </trkpt>
      <trkpt lat="42.93973" lon="0.57967">
        <ele>845</ele>
        <time>2019-02-03T09:19:06.000Z</time>
      </trkpt>
      <trkpt lat="42.93973" lon="0.57966">
        <ele>845</ele>
        <time>2019-02-03T09:19:07.000Z</time>
      </trkpt>
      <trkpt lat="42.93974" lon="0.57966">
        <ele>845.5</ele>
        <time>2019-02-03T09:19:08.000Z</time>
      </trkpt>
      <trkpt lat="42.93975" lon="0.57966">
        <ele>846</ele>
        <time>2019-02-03T09:19:09.000Z</time>
      </trkpt>
      <trkpt lat="42.93975" lon="0.57966">
        <ele>846</ele>
        <time>2019-02-03T09:19:10.000Z</time>
      </trkpt>
      <trkpt lat="42.93976" lon="0.57966">
        <ele>846.3</ele>
        <time>2019-02-03T09:19:11.000Z</time>
      </trkpt>
      <trkpt lat="42.93977" lon="0.57966">
        <ele>846.7</ele>
        <time>2019-02-03T09:19:12.000Z</time>
      </trkpt>
      <trkpt lat="42.93978" lon="0.57966">
        <ele>847</ele>
        <time>2019-02-03T09:19:13.000Z</time>
      </trkpt>
      <trkpt lat="42.93978" lon="0.57966">
        <ele>847</ele>
        <time>2019-02-03T09:19:14.000Z</time>
      </trkpt>
      <trkpt lat="42.93979" lon="0.57966">
        <ele>847</ele>
        <time>2019-02-03T09:19:15.000Z</time>
      </trkpt>
      <trkpt lat="42.9398" lon="0.57965">
        <ele>847.5</ele>
        <time>2019-02-03T09:19:16.000Z</time>
      </trkpt>
      <trkpt lat="42.9398" lon="0.57965">
        <ele>848</ele>
        <time>2019-02-03T09:19:17.000Z</time>
      </trkpt>
      <trkpt lat="42.93981" lon="0.57965">
        <ele>848</ele>
        <time>2019-02-03T09:19:18.000Z</time>
      </trkpt>
      <trkpt lat="42.93981" lon="0.57964">
        <ele>848</ele>
        <time>2019-02-03T09:19:19.000Z</time>
      </trkpt>
      <trkpt lat="42.93982" lon="0.57964">
        <ele>848</ele>
        <time>2019-02-03T09:19:20.000Z</time>
      </trkpt>
      <trkpt lat="42.93983" lon="0.57963">
        <ele>848</ele>
        <time>2019-02-03T09:19:21.000Z</time>
      </trkpt>
      <trkpt lat="42.93983" lon="0.57962">
        <ele>848</ele>
        <time>2019-02-03T09:19:22.000Z</time>
      </trkpt>
      <trkpt lat="42.93984" lon="0.57962">
        <ele>848</ele>
        <time>2019-02-03T09:19:23.000Z</time>
      </trkpt>
      <trkpt lat="42.93984" lon="0.57961">
        <ele>848</ele>
        <time>2019-02-03T09:19:24.000Z</time>
      </trkpt>
      <trkpt lat="42.93985" lon="0.57961">
        <ele>848</ele>
        <time>2019-02-03T09:19:25.000Z</time>
      </trkpt>
      <trkpt lat="42.93985" lon="0.5796">
        <ele>848</ele>
        <time>2019-02-03T09:19:26.000Z</time>
      </trkpt>
      <trkpt lat="42.93986" lon="0.5796">
        <ele>848</ele>
        <time>2019-02-03T09:19:27.000Z</time>
      </trkpt>
      <trkpt lat="42.93987" lon="0.57959">
        <ele>848</ele>
        <time>2019-02-03T09:19:28.000Z</time>
      </trkpt>
      <trkpt lat="42.93987" lon="0.57959">
        <ele>848</ele>
        <time>2019-02-03T09:19:29.000Z</time>
      </trkpt>
      <trkpt lat="42.93988" lon="0.57959">
        <ele>849</ele>
        <time>2019-02-03T09:19:30.000Z</time>
      </trkpt>
      <trkpt lat="42.93989" lon="0.57959">
        <ele>849</ele>
        <time>2019-02-03T09:19:31.000Z</time>
      </trkpt>
      <trkpt lat="42.9399" lon="0.57958">
        <ele>849</ele>
        <time>2019-02-03T09:19:32.000Z</time>
      </trkpt>
      <trkpt lat="42.9399" lon="0.57958">
        <ele>849</ele>
        <time>2019-02-03T09:19:33.000Z</time>
      </trkpt>
      <trkpt lat="42.93991" lon="0.57958">
        <ele>849</ele>
        <time>2019-02-03T09:19:34.000Z</time>
      </trkpt>
      <trkpt lat="42.93992" lon="0.57958">
        <ele>849</ele>
        <time>2019-02-03T09:19:35.000Z</time>
      </trkpt>
      <trkpt lat="42.93992" lon="0.57958">
        <ele>849</ele>
        <time>2019-02-03T09:19:36.000Z</time>
      </trkpt>
      <trkpt lat="42.93993" lon="0.57958">
        <ele>849</ele>
        <time>2019-02-03T09:19:37.000Z</time>
      </trkpt>
      <trkpt lat="42.93994" lon="0.57958">
        <ele>849</ele>
        <time>2019-02-03T09:19:38.000Z</time>
      </trkpt>
      <trkpt lat="42.93994" lon="0.57958">
        <ele>849</ele>
        <time>2019-02-03T09:19:39.000Z</time>
      </trkpt>
      <trkpt lat="42.93995" lon="0.57958">
        <ele>849</ele>
        <time>2019-02-03T09:19:40.000Z</time>
      </trkpt>
      <trkpt lat="42.93995" lon="0.57959">
        <ele>849</ele>
        <time>2019-02-03T09:19:41.000Z</time>
      </trkpt>
      <trkpt lat="42.93996" lon="0.57959">
        <ele>849</ele>
        <time>2019-02-03T09:19:42.000Z</time>
      </trkpt>
      <trkpt lat="42.93996" lon="0.57959">
        <ele>849</ele>
        <time>2019-02-03T09:19:43.000Z</time>
      </trkpt>
      <trkpt lat="42.93997" lon="0.5796">
        <ele>849.5</ele>
        <time>2019-02-03T09:19:44.000Z</time>
      </trkpt>
      <trkpt lat="42.93997" lon="0.5796">
        <ele>850</ele>
        <time>2019-02-03T09:19:45.000Z</time>
      </trkpt>
      <trkpt lat="42.93998" lon="0.57961">
        <ele>850</ele>
        <time>2019-02-03T09:19:46.000Z</time>
      </trkpt>
      <trkpt lat="42.93998" lon="0.57961">
        <ele>850</ele>
        <time>2019-02-03T09:19:47.000Z</time>
      </trkpt>
      <trkpt lat="42.93999" lon="0.57962">
        <ele>850</ele>
        <time>2019-02-03T09:19:48.000Z</time>
      </trkpt>
      <trkpt lat="42.93999" lon="0.57962">
        <ele>850</ele>
        <time>2019-02-03T09:19:49.000Z</time>
      </trkpt>
      <trkpt lat="42.94" lon="0.57963">
        <ele>850.5</ele>
        <time>2019-02-03T09:19:50.000Z</time>
      </trkpt>
      <trkpt lat="42.94" lon="0.57964">
        <ele>851</ele>
        <time>2019-02-03T09:19:51.000Z</time>
      </trkpt>
      <trkpt lat="42.94001" lon="0.57965">
        <ele>851</ele>
        <time>2019-02-03T09:19:52.000Z</time>
      </trkpt>
      <trkpt lat="42.94002" lon="0.57966">
        <ele>851</ele>
        <time>2019-02-03T09:19:53.000Z</time>
      </trkpt>
      <trkpt lat="42.94002" lon="0.57967">
        <ele>851</ele>
        <time>2019-02-03T09:19:54.000Z</time>
      </trkpt>
      <trkpt lat="42.94003" lon="0.57968">
        <ele>851</ele>
        <time>2019-02-03T09:19:55.000Z</time>
      </trkpt>
      <trkpt lat="42.94004" lon="0.57969">
        <ele>851</ele>
        <time>2019-02-03T09:19:56.000Z</time>
      </trkpt>
      <trkpt lat="42.94005" lon="0.5797">
        <ele>851</ele>
        <time>2019-02-03T09:19:57.000Z</time>
      </trkpt>
      <trkpt lat="42.94005" lon="0.57971">
        <ele>851</ele>
        <time>2019-02-03T09:19:58.000Z</time>
      </trkpt>
      <trkpt lat="42.94006" lon="0.57972">
        <ele>851</ele>
        <time>2019-02-03T09:19:59.000Z</time>
      </trkpt>
      <trkpt lat="42.94006" lon="0.57972">
        <ele>851.5</ele>
        <time>2019-02-03T09:20:00.000Z</time>
      </trkpt>
      <trkpt lat="42.94007" lon="0.57973">
        <ele>852</ele>
        <time>2019-02-03T09:20:01.000Z</time>
      </trkpt>
      <trkpt lat="42.94007" lon="0.57973">
        <ele>852</ele>
        <time>2019-02-03T09:20:02.000Z</time>
      </trkpt>
      <trkpt lat="42.94007" lon="0.57974">
        <ele>852</ele>
        <time>2019-02-03T09:20:03.000Z</time>
      </trkpt>
      <trkpt lat="42.94008" lon="0.57974">
        <ele>852</ele>
        <time>2019-02-03T09:20:04.000Z</time>
      </trkpt>
      <trkpt lat="42.94008" lon="0.57975">
        <ele>852</ele>
        <time>2019-02-03T09:20:05.000Z</time>
      </trkpt>
      <trkpt lat="42.94009" lon="0.57976">
        <ele>852</ele>
        <time>2019-02-03T09:20:06.000Z</time>
      </trkpt>
      <trkpt lat="42.94009" lon="0.57976">
        <ele>852</ele>
        <time>2019-02-03T09:20:07.000Z</time>
      </trkpt>
      <trkpt lat="42.9401" lon="0.57977">
        <ele>852.5</ele>
        <time>2019-02-03T09:20:08.000Z</time>
      </trkpt>
      <trkpt lat="42.94011" lon="0.57978">
        <ele>853</ele>
        <time>2019-02-03T09:20:09.000Z</time>
      </trkpt>
      <trkpt lat="42.94011" lon="0.57979">
        <ele>853</ele>
        <time>2019-02-03T09:20:10.000Z</time>
      </trkpt>
      <trkpt lat="42.94012" lon="0.5798">
        <ele>853</ele>
        <time>2019-02-03T09:20:11.000Z</time>
      </trkpt>
      <trkpt lat="42.94013" lon="0.5798">
        <ele>853</ele>
        <time>2019-02-03T09:20:12.000Z</time>
      </trkpt>
      <trkpt lat="42.94013" lon="0.57981">
        <ele>853</ele>
        <time>2019-02-03T09:20:13.000Z</time>
      </trkpt>
      <trkpt lat="42.94014" lon="0.57982">
        <ele>853</ele>
        <time>2019-02-03T09:20:14.000Z</time>
      </trkpt>
      <trkpt lat="42.94014" lon="0.57983">
        <ele>853</ele>
        <time>2019-02-03T09:20:15.000Z</time>
      </trkpt>
      <trkpt lat="42.94014" lon="0.57984">
        <ele>853</ele>
        <time>2019-02-03T09:20:16.000Z</time>
      </trkpt>
      <trkpt lat="42.94015" lon="0.57985">
        <ele>853</ele>
        <time>2019-02-03T09:20:17.000Z</time>
      </trkpt>
      <trkpt lat="42.94015" lon="0.57986">
        <ele>853.5</ele>
        <time>2019-02-03T09:20:18.000Z</time>
      </trkpt>
      <trkpt lat="42.94016" lon="0.57987">
        <ele>854</ele>
        <time>2019-02-03T09:20:19.000Z</time>
      </trkpt>
      <trkpt lat="42.94016" lon="0.57988">
        <ele>854</ele>
        <time>2019-02-03T09:20:20.000Z</time>
      </trkpt>
      <trkpt lat="42.94016" lon="0.57989">
        <ele>854</ele>
        <time>2019-02-03T09:20:21.000Z</time>
      </trkpt>
      <trkpt lat="42.94017" lon="0.5799">
        <ele>854</ele>
        <time>2019-02-03T09:20:22.000Z</time>
      </trkpt>
      <trkpt lat="42.94017" lon="0.57991">
        <ele>854</ele>
        <time>2019-02-03T09:20:23.000Z</time>
      </trkpt>
      <trkpt lat="42.94017" lon="0.57992">
        <ele>854</ele>
        <time>2019-02-03T09:20:24.000Z</time>
      </trkpt>
      <trkpt lat="42.94017" lon="0.57993">
        <ele>854</ele>
        <time>2019-02-03T09:20:25.000Z</time>
      </trkpt>
      <trkpt lat="42.94018" lon="0.57994">
        <ele>855</ele>
        <time>2019-02-03T09:20:26.000Z</time>
      </trkpt>
      <trkpt lat="42.94018" lon="0.57995">
        <ele>855</ele>
        <time>2019-02-03T09:20:27.000Z</time>
      </trkpt>
      <trkpt lat="42.94018" lon="0.57996">
        <ele>855</ele>
        <time>2019-02-03T09:20:28.000Z</time>
      </trkpt>
      <trkpt lat="42.94019" lon="0.57997">
        <ele>855</ele>
        <time>2019-02-03T09:20:29.000Z</time>
      </trkpt>
      <trkpt lat="42.94019" lon="0.57998">
        <ele>855</ele>
        <time>2019-02-03T09:20:30.000Z</time>
      </trkpt>
      <trkpt lat="42.9402" lon="0.57999">
        <ele>855</ele>
        <time>2019-02-03T09:20:31.000Z</time>
      </trkpt>
      <trkpt lat="42.9402" lon="0.57999">
        <ele>855</ele>
        <time>2019-02-03T09:20:32.000Z</time>
      </trkpt>
      <trkpt lat="42.9402" lon="0.58">
        <ele>855</ele>
        <time>2019-02-03T09:20:33.000Z</time>
      </trkpt>
      <trkpt lat="42.94021" lon="0.58">
        <ele>855</ele>
        <time>2019-02-03T09:20:34.000Z</time>
      </trkpt>
      <trkpt lat="42.94021" lon="0.58001">
        <ele>855</ele>
        <time>2019-02-03T09:20:35.000Z</time>
      </trkpt>
      <trkpt lat="42.94022" lon="0.58001">
        <ele>855.5</ele>
        <time>2019-02-03T09:20:36.000Z</time>
      </trkpt>
      <trkpt lat="42.94022" lon="0.58002">
        <ele>856</ele>
        <time>2019-02-03T09:20:37.000Z</time>
      </trkpt>
      <trkpt lat="42.94022" lon="0.58002">
        <ele>856</ele>
        <time>2019-02-03T09:20:38.000Z</time>
      </trkpt>
      <trkpt lat="42.94023" lon="0.58003">
        <ele>856</ele>
        <time>2019-02-03T09:20:39.000Z</time>
      </trkpt>
      <trkpt lat="42.94023" lon="0.58003">
        <ele>856</ele>
        <time>2019-02-03T09:20:40.000Z</time>
      </trkpt>
      <trkpt lat="42.94023" lon="0.58004">
        <ele>856</ele>
        <time>2019-02-03T09:20:41.000Z</time>
      </trkpt>
      <trkpt lat="42.94023" lon="0.58005">
        <ele>856</ele>
        <time>2019-02-03T09:20:42.000Z</time>
      </trkpt>
      <trkpt lat="42.94023" lon="0.58005">
        <ele>856</ele>
        <time>2019-02-03T09:20:43.000Z</time>
      </trkpt>
      <trkpt lat="42.94024" lon="0.58006">
        <ele>856</ele>
        <time>2019-02-03T09:20:44.000Z</time>
      </trkpt>
      <trkpt lat="42.94024" lon="0.58007">
        <ele>856</ele>
        <time>2019-02-03T09:20:45.000Z</time>
      </trkpt>
      <trkpt lat="42.94024" lon="0.58008">
        <ele>856</ele>
        <time>2019-02-03T09:20:46.000Z</time>
      </trkpt>
      <trkpt lat="42.94024" lon="0.58009">
        <ele>856</ele>
        <time>2019-02-03T09:20:47.000Z</time>
      </trkpt>
      <trkpt lat="42.94024" lon="0.5801">
        <ele>856</ele>
        <time>2019-02-03T09:20:48.000Z</time>
      </trkpt>
      <trkpt lat="42.94025" lon="0.58011">
        <ele>856</ele>
        <time>2019-02-03T09:20:49.000Z</time>
      </trkpt>
      <trkpt lat="42.94025" lon="0.58012">
        <ele>856.5</ele>
        <time>2019-02-03T09:20:50.000Z</time>
      </trkpt>
      <trkpt lat="42.94025" lon="0.58013">
        <ele>857</ele>
        <time>2019-02-03T09:20:51.000Z</time>
      </trkpt>
      <trkpt lat="42.94026" lon="0.58014">
        <ele>857</ele>
        <time>2019-02-03T09:20:52.000Z</time>
      </trkpt>
      <trkpt lat="42.94026" lon="0.58015">
        <ele>857</ele>
        <time>2019-02-03T09:20:53.000Z</time>
      </trkpt>
      <trkpt lat="42.94027" lon="0.58015">
        <ele>857</ele>
        <time>2019-02-03T09:20:54.000Z</time>
      </trkpt>
      <trkpt lat="42.94027" lon="0.58016">
        <ele>857</ele>
        <time>2019-02-03T09:20:55.000Z</time>
      </trkpt>
      <trkpt lat="42.94027" lon="0.58016">
        <ele>857</ele>
        <time>2019-02-03T09:20:56.000Z</time>
      </trkpt>
      <trkpt lat="42.94028" lon="0.58017">
        <ele>857</ele>
        <time>2019-02-03T09:20:57.000Z</time>
      </trkpt>
      <trkpt lat="42.94028" lon="0.58017">
        <ele>857</ele>
        <time>2019-02-03T09:20:58.000Z</time>
      </trkpt>
      <trkpt lat="42.94028" lon="0.58018">
        <ele>857.3</ele>
        <time>2019-02-03T09:20:59.000Z</time>
      </trkpt>
      <trkpt lat="42.94029" lon="0.58018">
        <ele>857.7</ele>
        <time>2019-02-03T09:21:00.000Z</time>
      </trkpt>
      <trkpt lat="42.94029" lon="0.58019">
        <ele>858</ele>
        <time>2019-02-03T09:21:01.000Z</time>
      </trkpt>
      <trkpt lat="42.94029" lon="0.5802">
        <ele>858</ele>
        <time>2019-02-03T09:21:02.000Z</time>
      </trkpt>
      <trkpt lat="42.94029" lon="0.58021">
        <ele>858</ele>
        <time>2019-02-03T09:21:03.000Z</time>
      </trkpt>
      <trkpt lat="42.94029" lon="0.58022">
        <ele>858</ele>
        <time>2019-02-03T09:21:04.000Z</time>
      </trkpt>
      <trkpt lat="42.94029" lon="0.58022">
        <ele>858</ele>
        <time>2019-02-03T09:21:05.000Z</time>
      </trkpt>
      <trkpt lat="42.9403" lon="0.58023">
        <ele>858</ele>
        <time>2019-02-03T09:21:06.000Z</time>
      </trkpt>
      <trkpt lat="42.9403" lon="0.58024">
        <ele>858</ele>
        <time>2019-02-03T09:21:07.000Z</time>
      </trkpt>
      <trkpt lat="42.9403" lon="0.58025">
        <ele>858</ele>
        <time>2019-02-03T09:21:08.000Z</time>
      </trkpt>
      <trkpt lat="42.9403" lon="0.58025">
        <ele>858</ele>
        <time>2019-02-03T09:21:09.000Z</time>
      </trkpt>
      <trkpt lat="42.94031" lon="0.58026">
        <ele>858</ele>
        <time>2019-02-03T09:21:10.000Z</time>
      </trkpt>
      <trkpt lat="42.94031" lon="0.58027">
        <ele>858</ele>
        <time>2019-02-03T09:21:11.000Z</time>
      </trkpt>
      <trkpt lat="42.94031" lon="0.58027">
        <ele>859</ele>
        <time>2019-02-03T09:21:12.000Z</time>
      </trkpt>
      <trkpt lat="42.94032" lon="0.58028">
        <ele>859</ele>
        <time>2019-02-03T09:21:13.000Z</time>
      </trkpt>
      <trkpt lat="42.94032" lon="0.58028">
        <ele>859</ele>
        <time>2019-02-03T09:21:14.000Z</time>
      </trkpt>
      <trkpt lat="42.94033" lon="0.58029">
        <ele>859</ele>
        <time>2019-02-03T09:21:15.000Z</time>
      </trkpt>
      <trkpt lat="42.94033" lon="0.5803">
        <ele>859</ele>
        <time>2019-02-03T09:21:16.000Z</time>
      </trkpt>
      <trkpt lat="42.94034" lon="0.5803">
        <ele>859</ele>
        <time>2019-02-03T09:21:17.000Z</time>
      </trkpt>
      <trkpt lat="42.94035" lon="0.58031">
        <ele>859</ele>
        <time>2019-02-03T09:21:18.000Z</time>
      </trkpt>
      <trkpt lat="42.94035" lon="0.58031">
        <ele>859</ele>
        <time>2019-02-03T09:21:19.000Z</time>
      </trkpt>
      <trkpt lat="42.94036" lon="0.58032">
        <ele>859</ele>
        <time>2019-02-03T09:21:20.000Z</time>
      </trkpt>
      <trkpt lat="42.94037" lon="0.58032">
        <ele>859</ele>
        <time>2019-02-03T09:21:21.000Z</time>
      </trkpt>
      <trkpt lat="42.94037" lon="0.58033">
        <ele>859</ele>
        <time>2019-02-03T09:21:22.000Z</time>
      </trkpt>
      <trkpt lat="42.94038" lon="0.58034">
        <ele>859</ele>
        <time>2019-02-03T09:21:23.000Z</time>
      </trkpt>
      <trkpt lat="42.94039" lon="0.58034">
        <ele>859.5</ele>
        <time>2019-02-03T09:21:24.000Z</time>
      </trkpt>
      <trkpt lat="42.94039" lon="0.58035">
        <ele>860</ele>
        <time>2019-02-03T09:21:25.000Z</time>
      </trkpt>
      <trkpt lat="42.9404" lon="0.58037">
        <ele>860</ele>
        <time>2019-02-03T09:21:26.000Z</time>
      </trkpt>
      <trkpt lat="42.94041" lon="0.58038">
        <ele>860</ele>
        <time>2019-02-03T09:21:27.000Z</time>
      </trkpt>
      <trkpt lat="42.94041" lon="0.58039">
        <ele>860</ele>
        <time>2019-02-03T09:21:28.000Z</time>
      </trkpt>
      <trkpt lat="42.94042" lon="0.58041">
        <ele>860</ele>
        <time>2019-02-03T09:21:29.000Z</time>
      </trkpt>
      <trkpt lat="42.94043" lon="0.58043">
        <ele>860</ele>
        <time>2019-02-03T09:21:30.000Z</time>
      </trkpt>
      <trkpt lat="42.94043" lon="0.58044">
        <ele>860</ele>
        <time>2019-02-03T09:21:31.000Z</time>
      </trkpt>
      <trkpt lat="42.94044" lon="0.58046">
        <ele>860</ele>
        <time>2019-02-03T09:21:32.000Z</time>
      </trkpt>
      <trkpt lat="42.94045" lon="0.58047">
        <ele>860</ele>
        <time>2019-02-03T09:21:33.000Z</time>
      </trkpt>
      <trkpt lat="42.94046" lon="0.58049">
        <ele>860.5</ele>
        <time>2019-02-03T09:21:34.000Z</time>
      </trkpt>
      <trkpt lat="42.94046" lon="0.5805">
        <ele>861</ele>
        <time>2019-02-03T09:21:35.000Z</time>
      </trkpt>
      <trkpt lat="42.94047" lon="0.58052">
        <ele>861</ele>
        <time>2019-02-03T09:21:36.000Z</time>
      </trkpt>
      <trkpt lat="42.94048" lon="0.58053">
        <ele>861</ele>
        <time>2019-02-03T09:21:37.000Z</time>
      </trkpt>
      <trkpt lat="42.94048" lon="0.58054">
        <ele>861</ele>
        <time>2019-02-03T09:21:38.000Z</time>
      </trkpt>
      <trkpt lat="42.94049" lon="0.58056">
        <ele>861</ele>
        <time>2019-02-03T09:21:39.000Z</time>
      </trkpt>
      <trkpt lat="42.94049" lon="0.58057">
        <ele>862</ele>
        <time>2019-02-03T09:21:40.000Z</time>
      </trkpt>
      <trkpt lat="42.9405" lon="0.58058">
        <ele>862</ele>
        <time>2019-02-03T09:21:41.000Z</time>
      </trkpt>
      <trkpt lat="42.9405" lon="0.58059">
        <ele>862</ele>
        <time>2019-02-03T09:21:42.000Z</time>
      </trkpt>
      <trkpt lat="42.94051" lon="0.5806">
        <ele>862</ele>
        <time>2019-02-03T09:21:43.000Z</time>
      </trkpt>
      <trkpt lat="42.94051" lon="0.5806">
        <ele>862</ele>
        <time>2019-02-03T09:21:44.000Z</time>
      </trkpt>
      <trkpt lat="42.94052" lon="0.58061">
        <ele>862</ele>
        <time>2019-02-03T09:21:45.000Z</time>
      </trkpt>
      <trkpt lat="42.94052" lon="0.58062">
        <ele>862</ele>
        <time>2019-02-03T09:21:46.000Z</time>
      </trkpt>
      <trkpt lat="42.94052" lon="0.58062">
        <ele>862</ele>
        <time>2019-02-03T09:21:47.000Z</time>
      </trkpt>
      <trkpt lat="42.94052" lon="0.58063">
        <ele>862</ele>
        <time>2019-02-03T09:21:48.000Z</time>
      </trkpt>
      <trkpt lat="42.94053" lon="0.58063">
        <ele>863</ele>
        <time>2019-02-03T09:21:49.000Z</time>
      </trkpt>
      <trkpt lat="42.94053" lon="0.58063">
        <ele>863</ele>
        <time>2019-02-03T09:21:50.000Z</time>
      </trkpt>
      <trkpt lat="42.94053" lon="0.58064">
        <ele>863</ele>
        <time>2019-02-03T09:21:51.000Z</time>
      </trkpt>
      <trkpt lat="42.94053" lon="0.58064">
        <ele>863</ele>
        <time>2019-02-03T09:21:52.000Z</time>
      </trkpt>
      <trkpt lat="42.94053" lon="0.58065">
        <ele>863</ele>
        <time>2019-02-03T09:21:53.000Z</time>
      </trkpt>
      <trkpt lat="42.94053" lon="0.58065">
        <ele>863</ele>
        <time>2019-02-03T09:21:54.000Z</time>
      </trkpt>
      <trkpt lat="42.94053" lon="0.58065">
        <ele>863</ele>
        <time>2019-02-03T09:21:55.000Z</time>
      </trkpt>
      <trkpt lat="42.94053" lon="0.58066">
        <ele>863</ele>
        <time>2019-02-03T09:21:56.000Z</time>
      </trkpt>
      <trkpt lat="42.94053" lon="0.58066">
        <ele>863</ele>
        <time>2019-02-03T09:21:57.000Z</time>
      </trkpt>
      <trkpt lat="42.94053" lon="0.58067">
        <ele>863.3</ele>
        <time>2019-02-03T09:21:58.000Z</time>
      </trkpt>
      <trkpt lat="42.94053" lon="0.58068">
        <ele>863.7</ele>
        <time>2019-02-03T09:21:59.000Z</time>
      </trkpt>
      <trkpt lat="42.94054" lon="0.58069">
        <ele>864</ele>
        <time>2019-02-03T09:22:00.000Z</time>
      </trkpt>
      <trkpt lat="42.94054" lon="0.58069">
        <ele>864</ele>
        <time>2019-02-03T09:22:01.000Z</time>
      </trkpt>
      <trkpt lat="42.94054" lon="0.5807">
        <ele>864</ele>
        <time>2019-02-03T09:22:02.000Z</time>
      </trkpt>
      <trkpt lat="42.94054" lon="0.58071">
        <ele>864</ele>
        <time>2019-02-03T09:22:03.000Z</time>
      </trkpt>
      <trkpt lat="42.94055" lon="0.58072">
        <ele>864</ele>
        <time>2019-02-03T09:22:04.000Z</time>
      </trkpt>
      <trkpt lat="42.94055" lon="0.58072">
        <ele>864</ele>
        <time>2019-02-03T09:22:05.000Z</time>
      </trkpt>
      <trkpt lat="42.94056" lon="0.58073">
        <ele>864.5</ele>
        <time>2019-02-03T09:22:06.000Z</time>
      </trkpt>
      <trkpt lat="42.94057" lon="0.58074">
        <ele>865</ele>
        <time>2019-02-03T09:22:07.000Z</time>
      </trkpt>
      <trkpt lat="42.94058" lon="0.58075">
        <ele>865</ele>
        <time>2019-02-03T09:22:08.000Z</time>
      </trkpt>
      <trkpt lat="42.94058" lon="0.58076">
        <ele>865</ele>
        <time>2019-02-03T09:22:09.000Z</time>
      </trkpt>
      <trkpt lat="42.94059" lon="0.58076">
        <ele>865</ele>
        <time>2019-02-03T09:22:10.000Z</time>
      </trkpt>
      <trkpt lat="42.94059" lon="0.58077">
        <ele>865</ele>
        <time>2019-02-03T09:22:11.000Z</time>
      </trkpt>
      <trkpt lat="42.9406" lon="0.58078">
        <ele>865</ele>
        <time>2019-02-03T09:22:12.000Z</time>
      </trkpt>
      <trkpt lat="42.9406" lon="0.58079">
        <ele>865</ele>
        <time>2019-02-03T09:22:13.000Z</time>
      </trkpt>
      <trkpt lat="42.94061" lon="0.58079">
        <ele>865</ele>
        <time>2019-02-03T09:22:14.000Z</time>
      </trkpt>
      <trkpt lat="42.94061" lon="0.5808">
        <ele>865</ele>
        <time>2019-02-03T09:22:15.000Z</time>
      </trkpt>
      <trkpt lat="42.94061" lon="0.58081">
        <ele>865</ele>
        <time>2019-02-03T09:22:16.000Z</time>
      </trkpt>
      <trkpt lat="42.94062" lon="0.58082">
        <ele>866</ele>
        <time>2019-02-03T09:22:17.000Z</time>
      </trkpt>
      <trkpt lat="42.94062" lon="0.58082">
        <ele>866</ele>
        <time>2019-02-03T09:22:18.000Z</time>
      </trkpt>
      <trkpt lat="42.94062" lon="0.58083">
        <ele>866</ele>
        <time>2019-02-03T09:22:19.000Z</time>
      </trkpt>
      <trkpt lat="42.94062" lon="0.58084">
        <ele>866</ele>
        <time>2019-02-03T09:22:20.000Z</time>
      </trkpt>
      <trkpt lat="42.94062" lon="0.58085">
        <ele>866</ele>
        <time>2019-02-03T09:22:21.000Z</time>
      </trkpt>
      <trkpt lat="42.94062" lon="0.58086">
        <ele>866</ele>
        <time>2019-02-03T09:22:22.000Z</time>
      </trkpt>
      <trkpt lat="42.94062" lon="0.58086">
        <ele>866</ele>
        <time>2019-02-03T09:22:23.000Z</time>
      </trkpt>
      <trkpt lat="42.94062" lon="0.58087">
        <ele>866.3</ele>
        <time>2019-02-03T09:22:24.000Z</time>
      </trkpt>
      <trkpt lat="42.94062" lon="0.58088">
        <ele>866.7</ele>
        <time>2019-02-03T09:22:25.000Z</time>
      </trkpt>
      <trkpt lat="42.94063" lon="0.58088">
        <ele>867</ele>
        <time>2019-02-03T09:22:26.000Z</time>
      </trkpt>
      <trkpt lat="42.94063" lon="0.58088">
        <ele>867</ele>
        <time>2019-02-03T09:22:27.000Z</time>
      </trkpt>
      <trkpt lat="42.94064" lon="0.58089">
        <ele>867</ele>
        <time>2019-02-03T09:22:28.000Z</time>
      </trkpt>
      <trkpt lat="42.94064" lon="0.58089">
        <ele>867</ele>
        <time>2019-02-03T09:22:29.000Z</time>
      </trkpt>
      <trkpt lat="42.94065" lon="0.58089">
        <ele>867</ele>
        <time>2019-02-03T09:22:30.000Z</time>
      </trkpt>
      <trkpt lat="42.94065" lon="0.5809">
        <ele>867</ele>
        <time>2019-02-03T09:22:31.000Z</time>
      </trkpt>
      <trkpt lat="42.94065" lon="0.5809">
        <ele>867</ele>
        <time>2019-02-03T09:22:32.000Z</time>
      </trkpt>
      <trkpt lat="42.94065" lon="0.58091">
        <ele>867</ele>
        <time>2019-02-03T09:22:33.000Z</time>
      </trkpt>
      <trkpt lat="42.94066" lon="0.58091">
        <ele>867.3</ele>
        <time>2019-02-03T09:22:34.000Z</time>
      </trkpt>
      <trkpt lat="42.94066" lon="0.58092">
        <ele>867.7</ele>
        <time>2019-02-03T09:22:35.000Z</time>
      </trkpt>
      <trkpt lat="42.94066" lon="0.58092">
        <ele>868</ele>
        <time>2019-02-03T09:22:36.000Z</time>
      </trkpt>
      <trkpt lat="42.94066" lon="0.58093">
        <ele>868</ele>
        <time>2019-02-03T09:22:37.000Z</time>
      </trkpt>
      <trkpt lat="42.94066" lon="0.58093">
        <ele>868</ele>
        <time>2019-02-03T09:22:38.000Z</time>
      </trkpt>
      <trkpt lat="42.94067" lon="0.58094">
        <ele>868</ele>
        <time>2019-02-03T09:22:39.000Z</time>
      </trkpt>
      <trkpt lat="42.94067" lon="0.58095">
        <ele>868</ele>
        <time>2019-02-03T09:22:40.000Z</time>
      </trkpt>
      <trkpt lat="42.94067" lon="0.58095">
        <ele>868</ele>
        <time>2019-02-03T09:22:41.000Z</time>
      </trkpt>
      <trkpt lat="42.94067" lon="0.58096">
        <ele>868</ele>
        <time>2019-02-03T09:22:42.000Z</time>
      </trkpt>
      <trkpt lat="42.94067" lon="0.58097">
        <ele>868</ele>
        <time>2019-02-03T09:22:43.000Z</time>
      </trkpt>
      <trkpt lat="42.94067" lon="0.58098">
        <ele>868</ele>
        <time>2019-02-03T09:22:44.000Z</time>
      </trkpt>
      <trkpt lat="42.94068" lon="0.58099">
        <ele>868</ele>
        <time>2019-02-03T09:22:45.000Z</time>
      </trkpt>
      <trkpt lat="42.94068" lon="0.581">
        <ele>868.3</ele>
        <time>2019-02-03T09:22:46.000Z</time>
      </trkpt>
      <trkpt lat="42.94068" lon="0.58101">
        <ele>868.7</ele>
        <time>2019-02-03T09:22:47.000Z</time>
      </trkpt>
      <trkpt lat="42.94069" lon="0.58102">
        <ele>869</ele>
        <time>2019-02-03T09:22:48.000Z</time>
      </trkpt>
      <trkpt lat="42.94069" lon="0.58103">
        <ele>869</ele>
        <time>2019-02-03T09:22:49.000Z</time>
      </trkpt>
      <trkpt lat="42.94069" lon="0.58104">
        <ele>869</ele>
        <time>2019-02-03T09:22:50.000Z</time>
      </trkpt>
      <trkpt lat="42.9407" lon="0.58105">
        <ele>869</ele>
        <time>2019-02-03T09:22:51.000Z</time>
      </trkpt>
      <trkpt lat="42.9407" lon="0.58106">
        <ele>869</ele>
        <time>2019-02-03T09:22:52.000Z</time>
      </trkpt>
      <trkpt lat="42.9407" lon="0.58106">
        <ele>869</ele>
        <time>2019-02-03T09:22:53.000Z</time>
      </trkpt>
      <trkpt lat="42.94071" lon="0.58107">
        <ele>869</ele>
        <time>2019-02-03T09:22:54.000Z</time>
      </trkpt>
      <trkpt lat="42.94071" lon="0.58108">
        <ele>869</ele>
        <time>2019-02-03T09:22:55.000Z</time>
      </trkpt>
      <trkpt lat="42.94071" lon="0.58108">
        <ele>869.3</ele>
        <time>2019-02-03T09:22:56.000Z</time>
      </trkpt>
      <trkpt lat="42.94071" lon="0.58109">
        <ele>869.7</ele>
        <time>2019-02-03T09:22:57.000Z</time>
      </trkpt>
      <trkpt lat="42.94071" lon="0.5811">
        <ele>870</ele>
        <time>2019-02-03T09:22:58.000Z</time>
      </trkpt>
      <trkpt lat="42.94071" lon="0.58111">
        <ele>870</ele>
        <time>2019-02-03T09:22:59.000Z</time>
      </trkpt>
      <trkpt lat="42.94072" lon="0.58112">
        <ele>870</ele>
        <time>2019-02-03T09:23:00.000Z</time>
      </trkpt>
      <trkpt lat="42.94072" lon="0.58113">
        <ele>870</ele>
        <time>2019-02-03T09:23:01.000Z</time>
      </trkpt>
      <trkpt lat="42.94072" lon="0.58114">
        <ele>870</ele>
        <time>2019-02-03T09:23:02.000Z</time>
      </trkpt>
      <trkpt lat="42.94072" lon="0.58115">
        <ele>870</ele>
        <time>2019-02-03T09:23:03.000Z</time>
      </trkpt>
      <trkpt lat="42.94072" lon="0.58117">
        <ele>870</ele>
        <time>2019-02-03T09:23:04.000Z</time>
      </trkpt>
      <trkpt lat="42.94073" lon="0.58118">
        <ele>870</ele>
        <time>2019-02-03T09:23:05.000Z</time>
      </trkpt>
      <trkpt lat="42.94073" lon="0.58119">
        <ele>870</ele>
        <time>2019-02-03T09:23:06.000Z</time>
      </trkpt>
      <trkpt lat="42.94073" lon="0.5812">
        <ele>871</ele>
        <time>2019-02-03T09:23:07.000Z</time>
      </trkpt>
      <trkpt lat="42.94074" lon="0.58121">
        <ele>871</ele>
        <time>2019-02-03T09:23:08.000Z</time>
      </trkpt>
      <trkpt lat="42.94074" lon="0.58122">
        <ele>871</ele>
        <time>2019-02-03T09:23:09.000Z</time>
      </trkpt>
      <trkpt lat="42.94075" lon="0.58123">
        <ele>871</ele>
        <time>2019-02-03T09:23:10.000Z</time>
      </trkpt>
      <trkpt lat="42.94075" lon="0.58125">
        <ele>871</ele>
        <time>2019-02-03T09:23:11.000Z</time>
      </trkpt>
      <trkpt lat="42.94075" lon="0.58126">
        <ele>871</ele>
        <time>2019-02-03T09:23:12.000Z</time>
      </trkpt>
      <trkpt lat="42.94076" lon="0.58127">
        <ele>871</ele>
        <time>2019-02-03T09:23:13.000Z</time>
      </trkpt>
      <trkpt lat="42.94076" lon="0.58128">
        <ele>871</ele>
        <time>2019-02-03T09:23:14.000Z</time>
      </trkpt>
      <trkpt lat="42.94076" lon="0.58129">
        <ele>871</ele>
        <time>2019-02-03T09:23:15.000Z</time>
      </trkpt>
      <trkpt lat="42.94076" lon="0.5813">
        <ele>871</ele>
        <time>2019-02-03T09:23:16.000Z</time>
      </trkpt>
      <trkpt lat="42.94077" lon="0.58131">
        <ele>871</ele>
        <time>2019-02-03T09:23:17.000Z</time>
      </trkpt>
      <trkpt lat="42.94077" lon="0.58132">
        <ele>871.5</ele>
        <time>2019-02-03T09:23:18.000Z</time>
      </trkpt>
      <trkpt lat="42.94077" lon="0.58133">
        <ele>872</ele>
        <time>2019-02-03T09:23:19.000Z</time>
      </trkpt>
      <trkpt lat="42.94077" lon="0.58134">
        <ele>872</ele>
        <time>2019-02-03T09:23:20.000Z</time>
      </trkpt>
      <trkpt lat="42.94077" lon="0.58134">
        <ele>872</ele>
        <time>2019-02-03T09:23:21.000Z</time>
      </trkpt>
      <trkpt lat="42.94077" lon="0.58135">
        <ele>872</ele>
        <time>2019-02-03T09:23:22.000Z</time>
      </trkpt>
      <trkpt lat="42.94078" lon="0.58136">
        <ele>872</ele>
        <time>2019-02-03T09:23:23.000Z</time>
      </trkpt>
      <trkpt lat="42.94078" lon="0.58136">
        <ele>872</ele>
        <time>2019-02-03T09:23:24.000Z</time>
      </trkpt>
      <trkpt lat="42.94078" lon="0.58137">
        <ele>872</ele>
        <time>2019-02-03T09:23:25.000Z</time>
      </trkpt>
      <trkpt lat="42.94078" lon="0.58138">
        <ele>872</ele>
        <time>2019-02-03T09:23:26.000Z</time>
      </trkpt>
      <trkpt lat="42.94078" lon="0.58139">
        <ele>872</ele>
        <time>2019-02-03T09:23:27.000Z</time>
      </trkpt>
      <trkpt lat="42.94078" lon="0.58139">
        <ele>872.5</ele>
        <time>2019-02-03T09:23:28.000Z</time>
      </trkpt>
      <trkpt lat="42.94078" lon="0.5814">
        <ele>873</ele>
        <time>2019-02-03T09:23:29.000Z</time>
      </trkpt>
      <trkpt lat="42.94078" lon="0.58141">
        <ele>873</ele>
        <time>2019-02-03T09:23:30.000Z</time>
      </trkpt>
      <trkpt lat="42.94078" lon="0.58142">
        <ele>873</ele>
        <time>2019-02-03T09:23:31.000Z</time>
      </trkpt>
      <trkpt lat="42.94078" lon="0.58143">
        <ele>873</ele>
        <time>2019-02-03T09:23:32.000Z</time>
      </trkpt>
      <trkpt lat="42.94078" lon="0.58143">
        <ele>873</ele>
        <time>2019-02-03T09:23:33.000Z</time>
      </trkpt>
      <trkpt lat="42.94078" lon="0.58144">
        <ele>873</ele>
        <time>2019-02-03T09:23:34.000Z</time>
      </trkpt>
      <trkpt lat="42.94078" lon="0.58145">
        <ele>873</ele>
        <time>2019-02-03T09:23:35.000Z</time>
      </trkpt>
      <trkpt lat="42.94078" lon="0.58146">
        <ele>873</ele>
        <time>2019-02-03T09:23:36.000Z</time>
      </trkpt>
      <trkpt lat="42.94078" lon="0.58147">
        <ele>873</ele>
        <time>2019-02-03T09:23:37.000Z</time>
      </trkpt>
      <trkpt lat="42.94079" lon="0.58147">
        <ele>873</ele>
        <time>2019-02-03T09:23:38.000Z</time>
      </trkpt>
      <trkpt lat="42.94079" lon="0.58148">
        <ele>874</ele>
        <time>2019-02-03T09:23:39.000Z</time>
      </trkpt>
      <trkpt lat="42.94079" lon="0.58149">
        <ele>874</ele>
        <time>2019-02-03T09:23:40.000Z</time>
      </trkpt>
      <trkpt lat="42.94079" lon="0.5815">
        <ele>874</ele>
        <time>2019-02-03T09:23:41.000Z</time>
      </trkpt>
      <trkpt lat="42.94079" lon="0.58151">
        <ele>874</ele>
        <time>2019-02-03T09:23:42.000Z</time>
      </trkpt>
      <trkpt lat="42.94079" lon="0.58152">
        <ele>874</ele>
        <time>2019-02-03T09:23:43.000Z</time>
      </trkpt>
      <trkpt lat="42.94079" lon="0.58153">
        <ele>874</ele>
        <time>2019-02-03T09:23:44.000Z</time>
      </trkpt>
      <trkpt lat="42.94079" lon="0.58154">
        <ele>874</ele>
        <time>2019-02-03T09:23:45.000Z</time>
      </trkpt>
      <trkpt lat="42.94079" lon="0.58155">
        <ele>874</ele>
        <time>2019-02-03T09:23:46.000Z</time>
      </trkpt>
      <trkpt lat="42.94079" lon="0.58156">
        <ele>874</ele>
        <time>2019-02-03T09:23:47.000Z</time>
      </trkpt>
      <trkpt lat="42.94079" lon="0.58157">
        <ele>874.3</ele>
        <time>2019-02-03T09:23:48.000Z</time>
      </trkpt>
      <trkpt lat="42.94079" lon="0.58158">
        <ele>874.7</ele>
        <time>2019-02-03T09:23:49.000Z</time>
      </trkpt>
      <trkpt lat="42.94079" lon="0.58159">
        <ele>875</ele>
        <time>2019-02-03T09:23:50.000Z</time>
      </trkpt>
      <trkpt lat="42.94079" lon="0.5816">
        <ele>875</ele>
        <time>2019-02-03T09:23:51.000Z</time>
      </trkpt>
      <trkpt lat="42.94078" lon="0.58162">
        <ele>875</ele>
        <time>2019-02-03T09:23:52.000Z</time>
      </trkpt>
      <trkpt lat="42.94079" lon="0.58163">
        <ele>875</ele>
        <time>2019-02-03T09:23:53.000Z</time>
      </trkpt>
      <trkpt lat="42.94079" lon="0.58164">
        <ele>875</ele>
        <time>2019-02-03T09:23:54.000Z</time>
      </trkpt>
      <trkpt lat="42.94079" lon="0.58165">
        <ele>875</ele>
        <time>2019-02-03T09:23:55.000Z</time>
      </trkpt>
      <trkpt lat="42.9408" lon="0.58166">
        <ele>875.5</ele>
        <time>2019-02-03T09:23:56.000Z</time>
      </trkpt>
      <trkpt lat="42.9408" lon="0.58167">
        <ele>876</ele>
        <time>2019-02-03T09:23:57.000Z</time>
      </trkpt>
      <trkpt lat="42.94081" lon="0.58168">
        <ele>876</ele>
        <time>2019-02-03T09:23:58.000Z</time>
      </trkpt>
      <trkpt lat="42.94082" lon="0.58169">
        <ele>876</ele>
        <time>2019-02-03T09:23:59.000Z</time>
      </trkpt>
      <trkpt lat="42.94082" lon="0.5817">
        <ele>876</ele>
        <time>2019-02-03T09:24:00.000Z</time>
      </trkpt>
      <trkpt lat="42.94083" lon="0.58171">
        <ele>876</ele>
        <time>2019-02-03T09:24:01.000Z</time>
      </trkpt>
      <trkpt lat="42.94083" lon="0.58172">
        <ele>876</ele>
        <time>2019-02-03T09:24:02.000Z</time>
      </trkpt>
      <trkpt lat="42.94084" lon="0.58173">
        <ele>876</ele>
        <time>2019-02-03T09:24:03.000Z</time>
      </trkpt>
      <trkpt lat="42.94084" lon="0.58174">
        <ele>876</ele>
        <time>2019-02-03T09:24:04.000Z</time>
      </trkpt>
      <trkpt lat="42.94085" lon="0.58175">
        <ele>876</ele>
        <time>2019-02-03T09:24:05.000Z</time>
      </trkpt>
      <trkpt lat="42.94085" lon="0.58176">
        <ele>876.5</ele>
        <time>2019-02-03T09:24:06.000Z</time>
      </trkpt>
      <trkpt lat="42.94085" lon="0.58177">
        <ele>877</ele>
        <time>2019-02-03T09:24:07.000Z</time>
      </trkpt>
      <trkpt lat="42.94085" lon="0.58178">
        <ele>877</ele>
        <time>2019-02-03T09:24:08.000Z</time>
      </trkpt>
      <trkpt lat="42.94085" lon="0.58179">
        <ele>877</ele>
        <time>2019-02-03T09:24:09.000Z</time>
      </trkpt>
      <trkpt lat="42.94085" lon="0.5818">
        <ele>877</ele>
        <time>2019-02-03T09:24:10.000Z</time>
      </trkpt>
      <trkpt lat="42.94084" lon="0.58181">
        <ele>877</ele>
        <time>2019-02-03T09:24:11.000Z</time>
      </trkpt>
      <trkpt lat="42.94084" lon="0.58182">
        <ele>877</ele>
        <time>2019-02-03T09:24:12.000Z</time>
      </trkpt>
      <trkpt lat="42.94084" lon="0.58182">
        <ele>877</ele>
        <time>2019-02-03T09:24:13.000Z</time>
      </trkpt>
      <trkpt lat="42.94084" lon="0.58183">
        <ele>877.5</ele>
        <time>2019-02-03T09:24:14.000Z</time>
      </trkpt>
      <trkpt lat="42.94084" lon="0.58184">
        <ele>878</ele>
        <time>2019-02-03T09:24:15.000Z</time>
      </trkpt>
      <trkpt lat="42.94084" lon="0.58185">
        <ele>878</ele>
        <time>2019-02-03T09:24:16.000Z</time>
      </trkpt>
      <trkpt lat="42.94084" lon="0.58186">
        <ele>878</ele>
        <time>2019-02-03T09:24:17.000Z</time>
      </trkpt>
      <trkpt lat="42.94084" lon="0.58187">
        <ele>878</ele>
        <time>2019-02-03T09:24:18.000Z</time>
      </trkpt>
      <trkpt lat="42.94085" lon="0.58188">
        <ele>878</ele>
        <time>2019-02-03T09:24:19.000Z</time>
      </trkpt>
      <trkpt lat="42.94085" lon="0.58189">
        <ele>878</ele>
        <time>2019-02-03T09:24:20.000Z</time>
      </trkpt>
      <trkpt lat="42.94085" lon="0.58191">
        <ele>878</ele>
        <time>2019-02-03T09:24:21.000Z</time>
      </trkpt>
      <trkpt lat="42.94085" lon="0.58192">
        <ele>878</ele>
        <time>2019-02-03T09:24:22.000Z</time>
      </trkpt>
      <trkpt lat="42.94085" lon="0.58193">
        <ele>878</ele>
        <time>2019-02-03T09:24:23.000Z</time>
      </trkpt>
      <trkpt lat="42.94085" lon="0.58194">
        <ele>878</ele>
        <time>2019-02-03T09:24:24.000Z</time>
      </trkpt>
      <trkpt lat="42.94085" lon="0.58195">
        <ele>878</ele>
        <time>2019-02-03T09:24:25.000Z</time>
      </trkpt>
      <trkpt lat="42.94085" lon="0.58196">
        <ele>878.3</ele>
        <time>2019-02-03T09:24:26.000Z</time>
      </trkpt>
      <trkpt lat="42.94085" lon="0.58197">
        <ele>878.7</ele>
        <time>2019-02-03T09:24:27.000Z</time>
      </trkpt>
      <trkpt lat="42.94085" lon="0.58198">
        <ele>879</ele>
        <time>2019-02-03T09:24:28.000Z</time>
      </trkpt>
      <trkpt lat="42.94085" lon="0.58199">
        <ele>879</ele>
        <time>2019-02-03T09:24:29.000Z</time>
      </trkpt>
      <trkpt lat="42.94085" lon="0.58201">
        <ele>879</ele>
        <time>2019-02-03T09:24:30.000Z</time>
      </trkpt>
      <trkpt lat="42.94085" lon="0.58203">
        <ele>879</ele>
        <time>2019-02-03T09:24:31.000Z</time>
      </trkpt>
      <trkpt lat="42.94085" lon="0.58204">
        <ele>879</ele>
        <time>2019-02-03T09:24:32.000Z</time>
      </trkpt>
      <trkpt lat="42.94086" lon="0.58206">
        <ele>879</ele>
        <time>2019-02-03T09:24:33.000Z</time>
      </trkpt>
      <trkpt lat="42.94086" lon="0.58207">
        <ele>879</ele>
        <time>2019-02-03T09:24:34.000Z</time>
      </trkpt>
      <trkpt lat="42.94086" lon="0.58207">
        <ele>879</ele>
        <time>2019-02-03T09:24:35.000Z</time>
      </trkpt>
      <trkpt lat="42.94086" lon="0.58208">
        <ele>879.5</ele>
        <time>2019-02-03T09:24:36.000Z</time>
      </trkpt>
      <trkpt lat="42.94086" lon="0.58209">
        <ele>880</ele>
        <time>2019-02-03T09:24:37.000Z</time>
      </trkpt>
      <trkpt lat="42.94087" lon="0.58209">
        <ele>880</ele>
        <time>2019-02-03T09:24:38.000Z</time>
      </trkpt>
      <trkpt lat="42.94087" lon="0.5821">
        <ele>880</ele>
        <time>2019-02-03T09:24:39.000Z</time>
      </trkpt>
      <trkpt lat="42.94087" lon="0.58211">
        <ele>880</ele>
        <time>2019-02-03T09:24:40.000Z</time>
      </trkpt>
      <trkpt lat="42.94087" lon="0.58212">
        <ele>880</ele>
        <time>2019-02-03T09:24:41.000Z</time>
      </trkpt>
      <trkpt lat="42.94087" lon="0.58213">
        <ele>880</ele>
        <time>2019-02-03T09:24:42.000Z</time>
      </trkpt>
      <trkpt lat="42.94087" lon="0.58214">
        <ele>880</ele>
        <time>2019-02-03T09:24:43.000Z</time>
      </trkpt>
      <trkpt lat="42.94087" lon="0.58215">
        <ele>880.3</ele>
        <time>2019-02-03T09:24:44.000Z</time>
      </trkpt>
      <trkpt lat="42.94087" lon="0.58216">
        <ele>880.7</ele>
        <time>2019-02-03T09:24:45.000Z</time>
      </trkpt>
      <trkpt lat="42.94087" lon="0.58217">
        <ele>881</ele>
        <time>2019-02-03T09:24:46.000Z</time>
      </trkpt>
      <trkpt lat="42.94086" lon="0.58218">
        <ele>881</ele>
        <time>2019-02-03T09:24:47.000Z</time>
      </trkpt>
      <trkpt lat="42.94086" lon="0.58219">
        <ele>881</ele>
        <time>2019-02-03T09:24:48.000Z</time>
      </trkpt>
      <trkpt lat="42.94086" lon="0.5822">
        <ele>881</ele>
        <time>2019-02-03T09:24:49.000Z</time>
      </trkpt>
      <trkpt lat="42.94085" lon="0.58221">
        <ele>881</ele>
        <time>2019-02-03T09:24:50.000Z</time>
      </trkpt>
      <trkpt lat="42.94085" lon="0.58222">
        <ele>881</ele>
        <time>2019-02-03T09:24:51.000Z</time>
      </trkpt>
      <trkpt lat="42.94085" lon="0.58223">
        <ele>881</ele>
        <time>2019-02-03T09:24:52.000Z</time>
      </trkpt>
      <trkpt lat="42.94085" lon="0.58224">
        <ele>881</ele>
        <time>2019-02-03T09:24:53.000Z</time>
      </trkpt>
      <trkpt lat="42.94085" lon="0.58225">
        <ele>881</ele>
        <time>2019-02-03T09:24:54.000Z</time>
      </trkpt>
      <trkpt lat="42.94085" lon="0.58227">
        <ele>881</ele>
        <time>2019-02-03T09:24:55.000Z</time>
      </trkpt>
      <trkpt lat="42.94085" lon="0.58228">
        <ele>881</ele>
        <time>2019-02-03T09:24:56.000Z</time>
      </trkpt>
      <trkpt lat="42.94085" lon="0.58229">
        <ele>882</ele>
        <time>2019-02-03T09:24:57.000Z</time>
      </trkpt>
      <trkpt lat="42.94085" lon="0.5823">
        <ele>882</ele>
        <time>2019-02-03T09:24:58.000Z</time>
      </trkpt>
      <trkpt lat="42.94085" lon="0.58232">
        <ele>882</ele>
        <time>2019-02-03T09:24:59.000Z</time>
      </trkpt>
      <trkpt lat="42.94085" lon="0.58233">
        <ele>882</ele>
        <time>2019-02-03T09:25:00.000Z</time>
      </trkpt>
      <trkpt lat="42.94085" lon="0.58234">
        <ele>882</ele>
        <time>2019-02-03T09:25:01.000Z</time>
      </trkpt>
      <trkpt lat="42.94085" lon="0.58235">
        <ele>882</ele>
        <time>2019-02-03T09:25:02.000Z</time>
      </trkpt>
      <trkpt lat="42.94085" lon="0.58236">
        <ele>882</ele>
        <time>2019-02-03T09:25:03.000Z</time>
      </trkpt>
      <trkpt lat="42.94085" lon="0.58238">
        <ele>882</ele>
        <time>2019-02-03T09:25:04.000Z</time>
      </trkpt>
      <trkpt lat="42.94084" lon="0.58239">
        <ele>883</ele>
        <time>2019-02-03T09:25:05.000Z</time>
      </trkpt>
      <trkpt lat="42.94085" lon="0.5824">
        <ele>883</ele>
        <time>2019-02-03T09:25:06.000Z</time>
      </trkpt>
      <trkpt lat="42.94085" lon="0.5824">
        <ele>883</ele>
        <time>2019-02-03T09:25:07.000Z</time>
      </trkpt>
      <trkpt lat="42.94086" lon="0.58241">
        <ele>883</ele>
        <time>2019-02-03T09:25:08.000Z</time>
      </trkpt>
      <trkpt lat="42.94086" lon="0.58241">
        <ele>883</ele>
        <time>2019-02-03T09:25:09.000Z</time>
      </trkpt>
      <trkpt lat="42.94086" lon="0.58242">
        <ele>883</ele>
        <time>2019-02-03T09:25:10.000Z</time>
      </trkpt>
      <trkpt lat="42.94087" lon="0.58243">
        <ele>883</ele>
        <time>2019-02-03T09:25:11.000Z</time>
      </trkpt>
      <trkpt lat="42.94087" lon="0.58245">
        <ele>883</ele>
        <time>2019-02-03T09:25:12.000Z</time>
      </trkpt>
      <trkpt lat="42.94087" lon="0.58246">
        <ele>883</ele>
        <time>2019-02-03T09:25:13.000Z</time>
      </trkpt>
      <trkpt lat="42.94086" lon="0.58247">
        <ele>883</ele>
        <time>2019-02-03T09:25:14.000Z</time>
      </trkpt>
      <trkpt lat="42.94086" lon="0.58249">
        <ele>884</ele>
        <time>2019-02-03T09:25:15.000Z</time>
      </trkpt>
      <trkpt lat="42.94087" lon="0.5825">
        <ele>884</ele>
        <time>2019-02-03T09:25:16.000Z</time>
      </trkpt>
      <trkpt lat="42.94087" lon="0.58251">
        <ele>884</ele>
        <time>2019-02-03T09:25:17.000Z</time>
      </trkpt>
      <trkpt lat="42.94087" lon="0.58252">
        <ele>884</ele>
        <time>2019-02-03T09:25:18.000Z</time>
      </trkpt>
      <trkpt lat="42.94087" lon="0.58253">
        <ele>884</ele>
        <time>2019-02-03T09:25:19.000Z</time>
      </trkpt>
      <trkpt lat="42.94087" lon="0.58254">
        <ele>884</ele>
        <time>2019-02-03T09:25:20.000Z</time>
      </trkpt>
      <trkpt lat="42.94088" lon="0.58254">
        <ele>884</ele>
        <time>2019-02-03T09:25:21.000Z</time>
      </trkpt>
      <trkpt lat="42.94088" lon="0.58255">
        <ele>884</ele>
        <time>2019-02-03T09:25:22.000Z</time>
      </trkpt>
      <trkpt lat="42.94088" lon="0.58256">
        <ele>884</ele>
        <time>2019-02-03T09:25:23.000Z</time>
      </trkpt>
      <trkpt lat="42.94089" lon="0.58257">
        <ele>884</ele>
        <time>2019-02-03T09:25:24.000Z</time>
      </trkpt>
      <trkpt lat="42.94089" lon="0.58257">
        <ele>885</ele>
        <time>2019-02-03T09:25:25.000Z</time>
      </trkpt>
      <trkpt lat="42.94089" lon="0.58258">
        <ele>885</ele>
        <time>2019-02-03T09:25:26.000Z</time>
      </trkpt>
      <trkpt lat="42.94089" lon="0.58259">
        <ele>885</ele>
        <time>2019-02-03T09:25:27.000Z</time>
      </trkpt>
      <trkpt lat="42.94089" lon="0.5826">
        <ele>885</ele>
        <time>2019-02-03T09:25:28.000Z</time>
      </trkpt>
      <trkpt lat="42.94089" lon="0.58261">
        <ele>885</ele>
        <time>2019-02-03T09:25:29.000Z</time>
      </trkpt>
      <trkpt lat="42.94089" lon="0.58262">
        <ele>885</ele>
        <time>2019-02-03T09:25:30.000Z</time>
      </trkpt>
      <trkpt lat="42.94089" lon="0.58263">
        <ele>885</ele>
        <time>2019-02-03T09:25:31.000Z</time>
      </trkpt>
      <trkpt lat="42.94088" lon="0.58264">
        <ele>885.3</ele>
        <time>2019-02-03T09:25:32.000Z</time>
      </trkpt>
      <trkpt lat="42.94088" lon="0.58265">
        <ele>885.7</ele>
        <time>2019-02-03T09:25:33.000Z</time>
      </trkpt>
      <trkpt lat="42.94087" lon="0.58266">
        <ele>886</ele>
        <time>2019-02-03T09:25:34.000Z</time>
      </trkpt>
      <trkpt lat="42.94087" lon="0.58267">
        <ele>886</ele>
        <time>2019-02-03T09:25:35.000Z</time>
      </trkpt>
      <trkpt lat="42.94086" lon="0.58268">
        <ele>886</ele>
        <time>2019-02-03T09:25:36.000Z</time>
      </trkpt>
      <trkpt lat="42.94086" lon="0.58269">
        <ele>886</ele>
        <time>2019-02-03T09:25:37.000Z</time>
      </trkpt>
      <trkpt lat="42.94086" lon="0.5827">
        <ele>886</ele>
        <time>2019-02-03T09:25:38.000Z</time>
      </trkpt>
      <trkpt lat="42.94085" lon="0.58271">
        <ele>886</ele>
        <time>2019-02-03T09:25:39.000Z</time>
      </trkpt>
      <trkpt lat="42.94085" lon="0.58272">
        <ele>886.3</ele>
        <time>2019-02-03T09:25:40.000Z</time>
      </trkpt>
      <trkpt lat="42.94084" lon="0.58272">
        <ele>886.7</ele>
        <time>2019-02-03T09:25:41.000Z</time>
      </trkpt>
      <trkpt lat="42.94084" lon="0.58273">
        <ele>887</ele>
        <time>2019-02-03T09:25:42.000Z</time>
      </trkpt>
      <trkpt lat="42.94083" lon="0.58274">
        <ele>886</ele>
        <time>2019-02-03T09:25:43.000Z</time>
      </trkpt>
      <trkpt lat="42.94083" lon="0.58275">
        <ele>886.3</ele>
        <time>2019-02-03T09:25:44.000Z</time>
      </trkpt>
      <trkpt lat="42.94083" lon="0.58275">
        <ele>886.7</ele>
        <time>2019-02-03T09:25:45.000Z</time>
      </trkpt>
      <trkpt lat="42.94083" lon="0.58277">
        <ele>887</ele>
        <time>2019-02-03T09:25:46.000Z</time>
      </trkpt>
      <trkpt lat="42.94082" lon="0.58278">
        <ele>887</ele>
        <time>2019-02-03T09:25:47.000Z</time>
      </trkpt>
      <trkpt lat="42.94082" lon="0.5828">
        <ele>887</ele>
        <time>2019-02-03T09:25:48.000Z</time>
      </trkpt>
      <trkpt lat="42.94082" lon="0.58281">
        <ele>887</ele>
        <time>2019-02-03T09:25:49.000Z</time>
      </trkpt>
      <trkpt lat="42.94082" lon="0.58283">
        <ele>887</ele>
        <time>2019-02-03T09:25:50.000Z</time>
      </trkpt>
      <trkpt lat="42.94082" lon="0.58284">
        <ele>887</ele>
        <time>2019-02-03T09:25:51.000Z</time>
      </trkpt>
      <trkpt lat="42.94082" lon="0.58284">
        <ele>887.3</ele>
        <time>2019-02-03T09:25:52.000Z</time>
      </trkpt>
      <trkpt lat="42.94081" lon="0.58285">
        <ele>887.7</ele>
        <time>2019-02-03T09:25:53.000Z</time>
      </trkpt>
      <trkpt lat="42.94081" lon="0.58286">
        <ele>888</ele>
        <time>2019-02-03T09:25:54.000Z</time>
      </trkpt>
      <trkpt lat="42.94081" lon="0.58287">
        <ele>888</ele>
        <time>2019-02-03T09:25:55.000Z</time>
      </trkpt>
      <trkpt lat="42.94081" lon="0.58288">
        <ele>888</ele>
        <time>2019-02-03T09:25:56.000Z</time>
      </trkpt>
      <trkpt lat="42.94081" lon="0.58289">
        <ele>888</ele>
        <time>2019-02-03T09:25:57.000Z</time>
      </trkpt>
      <trkpt lat="42.9408" lon="0.5829">
        <ele>888</ele>
        <time>2019-02-03T09:25:58.000Z</time>
      </trkpt>
      <trkpt lat="42.9408" lon="0.58292">
        <ele>888</ele>
        <time>2019-02-03T09:25:59.000Z</time>
      </trkpt>
      <trkpt lat="42.94079" lon="0.58293">
        <ele>888</ele>
        <time>2019-02-03T09:26:00.000Z</time>
      </trkpt>
      <trkpt lat="42.94079" lon="0.58294">
        <ele>888</ele>
        <time>2019-02-03T09:26:01.000Z</time>
      </trkpt>
      <trkpt lat="42.94079" lon="0.58295">
        <ele>888.5</ele>
        <time>2019-02-03T09:26:02.000Z</time>
      </trkpt>
      <trkpt lat="42.94079" lon="0.58296">
        <ele>889</ele>
        <time>2019-02-03T09:26:03.000Z</time>
      </trkpt>
      <trkpt lat="42.94078" lon="0.58297">
        <ele>889</ele>
        <time>2019-02-03T09:26:04.000Z</time>
      </trkpt>
      <trkpt lat="42.94078" lon="0.58298">
        <ele>889</ele>
        <time>2019-02-03T09:26:05.000Z</time>
      </trkpt>
      <trkpt lat="42.94078" lon="0.58299">
        <ele>889</ele>
        <time>2019-02-03T09:26:06.000Z</time>
      </trkpt>
      <trkpt lat="42.94078" lon="0.583">
        <ele>889</ele>
        <time>2019-02-03T09:26:07.000Z</time>
      </trkpt>
      <trkpt lat="42.94078" lon="0.58301">
        <ele>889</ele>
        <time>2019-02-03T09:26:08.000Z</time>
      </trkpt>
      <trkpt lat="42.94078" lon="0.58302">
        <ele>889</ele>
        <time>2019-02-03T09:26:09.000Z</time>
      </trkpt>
      <trkpt lat="42.94078" lon="0.58303">
        <ele>889</ele>
        <time>2019-02-03T09:26:10.000Z</time>
      </trkpt>
      <trkpt lat="42.94078" lon="0.58304">
        <ele>890</ele>
        <time>2019-02-03T09:26:11.000Z</time>
      </trkpt>
      <trkpt lat="42.94078" lon="0.58305">
        <ele>890</ele>
        <time>2019-02-03T09:26:12.000Z</time>
      </trkpt>
      <trkpt lat="42.94078" lon="0.58306">
        <ele>890</ele>
        <time>2019-02-03T09:26:13.000Z</time>
      </trkpt>
      <trkpt lat="42.94078" lon="0.58307">
        <ele>890</ele>
        <time>2019-02-03T09:26:14.000Z</time>
      </trkpt>
      <trkpt lat="42.94078" lon="0.58307">
        <ele>890</ele>
        <time>2019-02-03T09:26:15.000Z</time>
      </trkpt>
      <trkpt lat="42.94078" lon="0.58308">
        <ele>890</ele>
        <time>2019-02-03T09:26:16.000Z</time>
      </trkpt>
      <trkpt lat="42.94077" lon="0.58309">
        <ele>890</ele>
        <time>2019-02-03T09:26:17.000Z</time>
      </trkpt>
      <trkpt lat="42.94077" lon="0.5831">
        <ele>890</ele>
        <time>2019-02-03T09:26:18.000Z</time>
      </trkpt>
      <trkpt lat="42.94076" lon="0.58311">
        <ele>890</ele>
        <time>2019-02-03T09:26:19.000Z</time>
      </trkpt>
      <trkpt lat="42.94076" lon="0.58312">
        <ele>890</ele>
        <time>2019-02-03T09:26:20.000Z</time>
      </trkpt>
      <trkpt lat="42.94075" lon="0.58313">
        <ele>890</ele>
        <time>2019-02-03T09:26:21.000Z</time>
      </trkpt>
      <trkpt lat="42.94075" lon="0.58314">
        <ele>890</ele>
        <time>2019-02-03T09:26:22.000Z</time>
      </trkpt>
      <trkpt lat="42.94074" lon="0.58315">
        <ele>890</ele>
        <time>2019-02-03T09:26:23.000Z</time>
      </trkpt>
      <trkpt lat="42.94074" lon="0.58315">
        <ele>890</ele>
        <time>2019-02-03T09:26:24.000Z</time>
      </trkpt>
      <trkpt lat="42.94073" lon="0.58316">
        <ele>890</ele>
        <time>2019-02-03T09:26:25.000Z</time>
      </trkpt>
      <trkpt lat="42.94073" lon="0.58317">
        <ele>890</ele>
        <time>2019-02-03T09:26:26.000Z</time>
      </trkpt>
      <trkpt lat="42.94073" lon="0.58318">
        <ele>890</ele>
        <time>2019-02-03T09:26:27.000Z</time>
      </trkpt>
      <trkpt lat="42.94073" lon="0.58319">
        <ele>890</ele>
        <time>2019-02-03T09:26:28.000Z</time>
      </trkpt>
      <trkpt lat="42.94073" lon="0.5832">
        <ele>891</ele>
        <time>2019-02-03T09:26:29.000Z</time>
      </trkpt>
      <trkpt lat="42.94073" lon="0.58321">
        <ele>891</ele>
        <time>2019-02-03T09:26:30.000Z</time>
      </trkpt>
      <trkpt lat="42.94072" lon="0.58321">
        <ele>891</ele>
        <time>2019-02-03T09:26:31.000Z</time>
      </trkpt>
      <trkpt lat="42.94072" lon="0.58322">
        <ele>891</ele>
        <time>2019-02-03T09:26:32.000Z</time>
      </trkpt>
      <trkpt lat="42.94071" lon="0.58323">
        <ele>892</ele>
        <time>2019-02-03T09:26:33.000Z</time>
      </trkpt>
      <trkpt lat="42.9407" lon="0.58324">
        <ele>892</ele>
        <time>2019-02-03T09:26:34.000Z</time>
      </trkpt>
      <trkpt lat="42.9407" lon="0.58325">
        <ele>892</ele>
        <time>2019-02-03T09:26:35.000Z</time>
      </trkpt>
      <trkpt lat="42.94069" lon="0.58326">
        <ele>892</ele>
        <time>2019-02-03T09:26:36.000Z</time>
      </trkpt>
      <trkpt lat="42.94069" lon="0.58327">
        <ele>892</ele>
        <time>2019-02-03T09:26:37.000Z</time>
      </trkpt>
      <trkpt lat="42.94068" lon="0.58328">
        <ele>892</ele>
        <time>2019-02-03T09:26:38.000Z</time>
      </trkpt>
      <trkpt lat="42.94068" lon="0.58329">
        <ele>892</ele>
        <time>2019-02-03T09:26:39.000Z</time>
      </trkpt>
      <trkpt lat="42.94068" lon="0.5833">
        <ele>892</ele>
        <time>2019-02-03T09:26:40.000Z</time>
      </trkpt>
      <trkpt lat="42.94067" lon="0.5833">
        <ele>892</ele>
        <time>2019-02-03T09:26:41.000Z</time>
      </trkpt>
      <trkpt lat="42.94067" lon="0.58331">
        <ele>892.5</ele>
        <time>2019-02-03T09:26:42.000Z</time>
      </trkpt>
      <trkpt lat="42.94066" lon="0.58332">
        <ele>893</ele>
        <time>2019-02-03T09:26:43.000Z</time>
      </trkpt>
      <trkpt lat="42.94066" lon="0.58332">
        <ele>893</ele>
        <time>2019-02-03T09:26:44.000Z</time>
      </trkpt>
      <trkpt lat="42.94065" lon="0.58333">
        <ele>893</ele>
        <time>2019-02-03T09:26:45.000Z</time>
      </trkpt>
      <trkpt lat="42.94065" lon="0.58334">
        <ele>893</ele>
        <time>2019-02-03T09:26:46.000Z</time>
      </trkpt>
      <trkpt lat="42.94064" lon="0.58335">
        <ele>893</ele>
        <time>2019-02-03T09:26:47.000Z</time>
      </trkpt>
      <trkpt lat="42.94064" lon="0.58336">
        <ele>893</ele>
        <time>2019-02-03T09:26:48.000Z</time>
      </trkpt>
      <trkpt lat="42.94065" lon="0.58338">
        <ele>893</ele>
        <time>2019-02-03T09:26:49.000Z</time>
      </trkpt>
      <trkpt lat="42.94065" lon="0.58339">
        <ele>893</ele>
        <time>2019-02-03T09:26:50.000Z</time>
      </trkpt>
      <trkpt lat="42.94064" lon="0.5834">
        <ele>893</ele>
        <time>2019-02-03T09:26:51.000Z</time>
      </trkpt>
      <trkpt lat="42.94064" lon="0.58341">
        <ele>893</ele>
        <time>2019-02-03T09:26:52.000Z</time>
      </trkpt>
      <trkpt lat="42.94064" lon="0.58341">
        <ele>893</ele>
        <time>2019-02-03T09:26:53.000Z</time>
      </trkpt>
      <trkpt lat="42.94064" lon="0.58342">
        <ele>893</ele>
        <time>2019-02-03T09:26:54.000Z</time>
      </trkpt>
      <trkpt lat="42.94063" lon="0.58343">
        <ele>894</ele>
        <time>2019-02-03T09:26:55.000Z</time>
      </trkpt>
      <trkpt lat="42.94063" lon="0.58344">
        <ele>894</ele>
        <time>2019-02-03T09:26:56.000Z</time>
      </trkpt>
      <trkpt lat="42.94063" lon="0.58344">
        <ele>894</ele>
        <time>2019-02-03T09:26:57.000Z</time>
      </trkpt>
      <trkpt lat="42.94062" lon="0.58345">
        <ele>894</ele>
        <time>2019-02-03T09:26:58.000Z</time>
      </trkpt>
      <trkpt lat="42.94062" lon="0.58346">
        <ele>894</ele>
        <time>2019-02-03T09:26:59.000Z</time>
      </trkpt>
      <trkpt lat="42.94062" lon="0.58347">
        <ele>894</ele>
        <time>2019-02-03T09:27:00.000Z</time>
      </trkpt>
      <trkpt lat="42.94061" lon="0.58348">
        <ele>894</ele>
        <time>2019-02-03T09:27:01.000Z</time>
      </trkpt>
      <trkpt lat="42.94061" lon="0.58349">
        <ele>894</ele>
        <time>2019-02-03T09:27:02.000Z</time>
      </trkpt>
      <trkpt lat="42.94061" lon="0.5835">
        <ele>894</ele>
        <time>2019-02-03T09:27:03.000Z</time>
      </trkpt>
      <trkpt lat="42.9406" lon="0.58352">
        <ele>894</ele>
        <time>2019-02-03T09:27:04.000Z</time>
      </trkpt>
      <trkpt lat="42.9406" lon="0.58353">
        <ele>894</ele>
        <time>2019-02-03T09:27:05.000Z</time>
      </trkpt>
      <trkpt lat="42.9406" lon="0.58354">
        <ele>894</ele>
        <time>2019-02-03T09:27:06.000Z</time>
      </trkpt>
      <trkpt lat="42.94059" lon="0.58355">
        <ele>894</ele>
        <time>2019-02-03T09:27:07.000Z</time>
      </trkpt>
      <trkpt lat="42.94059" lon="0.58356">
        <ele>894.3</ele>
        <time>2019-02-03T09:27:08.000Z</time>
      </trkpt>
      <trkpt lat="42.94059" lon="0.58357">
        <ele>894.7</ele>
        <time>2019-02-03T09:27:09.000Z</time>
      </trkpt>
      <trkpt lat="42.94059" lon="0.58358">
        <ele>895</ele>
        <time>2019-02-03T09:27:10.000Z</time>
      </trkpt>
      <trkpt lat="42.94058" lon="0.58359">
        <ele>895</ele>
        <time>2019-02-03T09:27:11.000Z</time>
      </trkpt>
      <trkpt lat="42.94058" lon="0.58359">
        <ele>895</ele>
        <time>2019-02-03T09:27:12.000Z</time>
      </trkpt>
      <trkpt lat="42.94058" lon="0.5836">
        <ele>895</ele>
        <time>2019-02-03T09:27:13.000Z</time>
      </trkpt>
      <trkpt lat="42.94058" lon="0.58361">
        <ele>895</ele>
        <time>2019-02-03T09:27:14.000Z</time>
      </trkpt>
      <trkpt lat="42.94058" lon="0.58361">
        <ele>895</ele>
        <time>2019-02-03T09:27:15.000Z</time>
      </trkpt>
      <trkpt lat="42.94058" lon="0.58362">
        <ele>895.3</ele>
        <time>2019-02-03T09:27:16.000Z</time>
      </trkpt>
      <trkpt lat="42.94057" lon="0.58362">
        <ele>895.7</ele>
        <time>2019-02-03T09:27:17.000Z</time>
      </trkpt>
      <trkpt lat="42.94057" lon="0.58363">
        <ele>896</ele>
        <time>2019-02-03T09:27:18.000Z</time>
      </trkpt>
      <trkpt lat="42.94057" lon="0.58363">
        <ele>896</ele>
        <time>2019-02-03T09:27:19.000Z</time>
      </trkpt>
      <trkpt lat="42.94057" lon="0.58363">
        <ele>896</ele>
        <time>2019-02-03T09:27:20.000Z</time>
      </trkpt>
      <trkpt lat="42.94057" lon="0.58363">
        <ele>896</ele>
        <time>2019-02-03T09:27:21.000Z</time>
      </trkpt>
      <trkpt lat="42.94057" lon="0.58363">
        <ele>896</ele>
        <time>2019-02-03T09:27:22.000Z</time>
      </trkpt>
      <trkpt lat="42.94057" lon="0.58364">
        <ele>896</ele>
        <time>2019-02-03T09:27:23.000Z</time>
      </trkpt>
      <trkpt lat="42.94057" lon="0.58365">
        <ele>896.3</ele>
        <time>2019-02-03T09:27:24.000Z</time>
      </trkpt>
      <trkpt lat="42.94057" lon="0.58366">
        <ele>896.7</ele>
        <time>2019-02-03T09:27:25.000Z</time>
      </trkpt>
      <trkpt lat="42.94056" lon="0.58367">
        <ele>897</ele>
        <time>2019-02-03T09:27:26.000Z</time>
      </trkpt>
      <trkpt lat="42.94056" lon="0.58368">
        <ele>897</ele>
        <time>2019-02-03T09:27:27.000Z</time>
      </trkpt>
      <trkpt lat="42.94056" lon="0.58369">
        <ele>897</ele>
        <time>2019-02-03T09:27:28.000Z</time>
      </trkpt>
      <trkpt lat="42.94055" lon="0.5837">
        <ele>897</ele>
        <time>2019-02-03T09:27:29.000Z</time>
      </trkpt>
      <trkpt lat="42.94055" lon="0.58371">
        <ele>897</ele>
        <time>2019-02-03T09:27:30.000Z</time>
      </trkpt>
      <trkpt lat="42.94055" lon="0.58372">
        <ele>897</ele>
        <time>2019-02-03T09:27:31.000Z</time>
      </trkpt>
      <trkpt lat="42.94054" lon="0.58372">
        <ele>897</ele>
        <time>2019-02-03T09:27:32.000Z</time>
      </trkpt>
      <trkpt lat="42.94054" lon="0.58373">
        <ele>897</ele>
        <time>2019-02-03T09:27:33.000Z</time>
      </trkpt>
      <trkpt lat="42.94054" lon="0.58374">
        <ele>897</ele>
        <time>2019-02-03T09:27:34.000Z</time>
      </trkpt>
      <trkpt lat="42.94053" lon="0.58375">
        <ele>898</ele>
        <time>2019-02-03T09:27:35.000Z</time>
      </trkpt>
      <trkpt lat="42.94053" lon="0.58376">
        <ele>898</ele>
        <time>2019-02-03T09:27:36.000Z</time>
      </trkpt>
      <trkpt lat="42.94052" lon="0.58377">
        <ele>898</ele>
        <time>2019-02-03T09:27:37.000Z</time>
      </trkpt>
      <trkpt lat="42.94052" lon="0.58378">
        <ele>898</ele>
        <time>2019-02-03T09:27:38.000Z</time>
      </trkpt>
      <trkpt lat="42.94051" lon="0.58379">
        <ele>898</ele>
        <time>2019-02-03T09:27:39.000Z</time>
      </trkpt>
      <trkpt lat="42.94051" lon="0.5838">
        <ele>898.3</ele>
        <time>2019-02-03T09:27:40.000Z</time>
      </trkpt>
      <trkpt lat="42.9405" lon="0.58381">
        <ele>898.7</ele>
        <time>2019-02-03T09:27:41.000Z</time>
      </trkpt>
      <trkpt lat="42.9405" lon="0.58382">
        <ele>899</ele>
        <time>2019-02-03T09:27:42.000Z</time>
      </trkpt>
      <trkpt lat="42.94049" lon="0.58383">
        <ele>899</ele>
        <time>2019-02-03T09:27:43.000Z</time>
      </trkpt>
      <trkpt lat="42.94048" lon="0.58384">
        <ele>899</ele>
        <time>2019-02-03T09:27:44.000Z</time>
      </trkpt>
      <trkpt lat="42.94048" lon="0.58386">
        <ele>899</ele>
        <time>2019-02-03T09:27:45.000Z</time>
      </trkpt>
      <trkpt lat="42.94047" lon="0.58387">
        <ele>899</ele>
        <time>2019-02-03T09:27:46.000Z</time>
      </trkpt>
      <trkpt lat="42.94046" lon="0.58387">
        <ele>899</ele>
        <time>2019-02-03T09:27:47.000Z</time>
      </trkpt>
      <trkpt lat="42.94045" lon="0.58388">
        <ele>899</ele>
        <time>2019-02-03T09:27:48.000Z</time>
      </trkpt>
      <trkpt lat="42.94044" lon="0.58389">
        <ele>899</ele>
        <time>2019-02-03T09:27:49.000Z</time>
      </trkpt>
      <trkpt lat="42.94044" lon="0.5839">
        <ele>899</ele>
        <time>2019-02-03T09:27:50.000Z</time>
      </trkpt>
      <trkpt lat="42.94043" lon="0.5839">
        <ele>900</ele>
        <time>2019-02-03T09:27:51.000Z</time>
      </trkpt>
      <trkpt lat="42.94042" lon="0.58391">
        <ele>900</ele>
        <time>2019-02-03T09:27:52.000Z</time>
      </trkpt>
      <trkpt lat="42.94042" lon="0.58391">
        <ele>900</ele>
        <time>2019-02-03T09:27:53.000Z</time>
      </trkpt>
      <trkpt lat="42.94041" lon="0.58391">
        <ele>900</ele>
        <time>2019-02-03T09:27:54.000Z</time>
      </trkpt>
      <trkpt lat="42.94041" lon="0.58391">
        <ele>900</ele>
        <time>2019-02-03T09:27:55.000Z</time>
      </trkpt>
      <trkpt lat="42.94041" lon="0.58392">
        <ele>900</ele>
        <time>2019-02-03T09:27:56.000Z</time>
      </trkpt>
      <trkpt lat="42.94041" lon="0.58392">
        <ele>900</ele>
        <time>2019-02-03T09:27:57.000Z</time>
      </trkpt>
      <trkpt lat="42.9404" lon="0.58392">
        <ele>900.5</ele>
        <time>2019-02-03T09:27:58.000Z</time>
      </trkpt>
      <trkpt lat="42.9404" lon="0.58392">
        <ele>901</ele>
        <time>2019-02-03T09:27:59.000Z</time>
      </trkpt>
      <trkpt lat="42.9404" lon="0.58392">
        <ele>901</ele>
        <time>2019-02-03T09:28:00.000Z</time>
      </trkpt>
      <trkpt lat="42.9404" lon="0.58392">
        <ele>901</ele>
        <time>2019-02-03T09:28:01.000Z</time>
      </trkpt>
      <trkpt lat="42.9404" lon="0.58392">
        <ele>901</ele>
        <time>2019-02-03T09:28:02.000Z</time>
      </trkpt>
      <trkpt lat="42.9404" lon="0.58392">
        <ele>901</ele>
        <time>2019-02-03T09:28:03.000Z</time>
      </trkpt>
      <trkpt lat="42.9404" lon="0.58392">
        <ele>901</ele>
        <time>2019-02-03T09:28:04.000Z</time>
      </trkpt>
      <trkpt lat="42.9404" lon="0.58392">
        <ele>901</ele>
        <time>2019-02-03T09:28:05.000Z</time>
      </trkpt>
      <trkpt lat="42.9404" lon="0.58392">
        <ele>901</ele>
        <time>2019-02-03T09:28:06.000Z</time>
      </trkpt>
      <trkpt lat="42.9404" lon="0.58392">
        <ele>901</ele>
        <time>2019-02-03T09:28:07.000Z</time>
      </trkpt>
      <trkpt lat="42.9404" lon="0.58392">
        <ele>901</ele>
        <time>2019-02-03T09:28:08.000Z</time>
      </trkpt>
      <trkpt lat="42.9404" lon="0.58392">
        <ele>901</ele>
        <time>2019-02-03T09:28:09.000Z</time>
      </trkpt>
      <trkpt lat="42.9404" lon="0.58392">
        <ele>901</ele>
        <time>2019-02-03T09:28:10.000Z</time>
      </trkpt>
      <trkpt lat="42.9404" lon="0.58392">
        <ele>901</ele>
        <time>2019-02-03T09:28:11.000Z</time>
      </trkpt>
      <trkpt lat="42.9404" lon="0.58392">
        <ele>901</ele>
        <time>2019-02-03T09:28:12.000Z</time>
      </trkpt>
      <trkpt lat="42.9404" lon="0.58392">
        <ele>901</ele>
        <time>2019-02-03T09:28:13.000Z</time>
      </trkpt>
      <trkpt lat="42.9404" lon="0.58392">
        <ele>901</ele>
        <time>2019-02-03T09:28:14.000Z</time>
      </trkpt>
      <trkpt lat="42.9404" lon="0.58392">
        <ele>901</ele>
        <time>2019-02-03T09:28:15.000Z</time>
      </trkpt>
      <trkpt lat="42.94039" lon="0.58391">
        <ele>901</ele>
        <time>2019-02-03T09:28:16.000Z</time>
      </trkpt>
      <trkpt lat="42.94039" lon="0.58391">
        <ele>901</ele>
        <time>2019-02-03T09:28:17.000Z</time>
      </trkpt>
      <trkpt lat="42.94039" lon="0.58391">
        <ele>901</ele>
        <time>2019-02-03T09:28:18.000Z</time>
      </trkpt>
      <trkpt lat="42.94039" lon="0.58391">
        <ele>901</ele>
        <time>2019-02-03T09:28:19.000Z</time>
      </trkpt>
      <trkpt lat="42.94039" lon="0.58391">
        <ele>901</ele>
        <time>2019-02-03T09:28:20.000Z</time>
      </trkpt>
      <trkpt lat="42.9404" lon="0.58392">
        <ele>901</ele>
        <time>2019-02-03T09:28:21.000Z</time>
      </trkpt>
      <trkpt lat="42.9404" lon="0.58392">
        <ele>901</ele>
        <time>2019-02-03T09:28:22.000Z</time>
      </trkpt>
      <trkpt lat="42.9404" lon="0.58392">
        <ele>901</ele>
        <time>2019-02-03T09:28:23.000Z</time>
      </trkpt>
      <trkpt lat="42.9404" lon="0.58392">
        <ele>901</ele>
        <time>2019-02-03T09:28:24.000Z</time>
      </trkpt>
      <trkpt lat="42.9404" lon="0.58392">
        <ele>901</ele>
        <time>2019-02-03T09:28:25.000Z</time>
      </trkpt>
      <trkpt lat="42.9404" lon="0.58392">
        <ele>901</ele>
        <time>2019-02-03T09:28:26.000Z</time>
      </trkpt>
      <trkpt lat="42.9404" lon="0.58392">
        <ele>901</ele>
        <time>2019-02-03T09:28:27.000Z</time>
      </trkpt>
      <trkpt lat="42.9404" lon="0.58392">
        <ele>901</ele>
        <time>2019-02-03T09:28:28.000Z</time>
      </trkpt>
      <trkpt lat="42.9404" lon="0.58393">
        <ele>901</ele>
        <time>2019-02-03T09:28:29.000Z</time>
      </trkpt>
      <trkpt lat="42.9404" lon="0.58393">
        <ele>901</ele>
        <time>2019-02-03T09:28:30.000Z</time>
      </trkpt>
      <trkpt lat="42.9404" lon="0.58393">
        <ele>901</ele>
        <time>2019-02-03T09:28:31.000Z</time>
      </trkpt>
      <trkpt lat="42.9404" lon="0.58394">
        <ele>900.7</ele>
        <time>2019-02-03T09:28:32.000Z</time>
      </trkpt>
      <trkpt lat="42.9404" lon="0.58394">
        <ele>900.3</ele>
        <time>2019-02-03T09:28:33.000Z</time>
      </trkpt>
      <trkpt lat="42.9404" lon="0.58394">
        <ele>900</ele>
        <time>2019-02-03T09:28:34.000Z</time>
      </trkpt>
      <trkpt lat="42.9404" lon="0.58395">
        <ele>900</ele>
        <time>2019-02-03T09:28:35.000Z</time>
      </trkpt>
      <trkpt lat="42.9404" lon="0.58395">
        <ele>900</ele>
        <time>2019-02-03T09:28:36.000Z</time>
      </trkpt>
      <trkpt lat="42.9404" lon="0.58395">
        <ele>900</ele>
        <time>2019-02-03T09:28:37.000Z</time>
      </trkpt>
      <trkpt lat="42.9404" lon="0.58395">
        <ele>900</ele>
        <time>2019-02-03T09:28:38.000Z</time>
      </trkpt>
      <trkpt lat="42.9404" lon="0.58396">
        <ele>900</ele>
        <time>2019-02-03T09:28:39.000Z</time>
      </trkpt>
      <trkpt lat="42.9404" lon="0.58396">
        <ele>900</ele>
        <time>2019-02-03T09:28:40.000Z</time>
      </trkpt>
      <trkpt lat="42.9404" lon="0.58396">
        <ele>900</ele>
        <time>2019-02-03T09:28:41.000Z</time>
      </trkpt>
      <trkpt lat="42.9404" lon="0.58396">
        <ele>900</ele>
        <time>2019-02-03T09:28:42.000Z</time>
      </trkpt>
      <trkpt lat="42.9404" lon="0.58396">
        <ele>900</ele>
        <time>2019-02-03T09:28:43.000Z</time>
      </trkpt>
      <trkpt lat="42.9404" lon="0.58396">
        <ele>900</ele>
        <time>2019-02-03T09:28:44.000Z</time>
      </trkpt>
      <trkpt lat="42.9404" lon="0.58396">
        <ele>900</ele>
        <time>2019-02-03T09:28:45.000Z</time>
      </trkpt>
      <trkpt lat="42.9404" lon="0.58396">
        <ele>900</ele>
        <time>2019-02-03T09:28:46.000Z</time>
      </trkpt>
      <trkpt lat="42.9404" lon="0.58396">
        <ele>900</ele>
        <time>2019-02-03T09:28:47.000Z</time>
      </trkpt>
      <trkpt lat="42.9404" lon="0.58397">
        <ele>900</ele>
        <time>2019-02-03T09:28:48.000Z</time>
      </trkpt>
      <trkpt lat="42.9404" lon="0.58397">
        <ele>900</ele>
        <time>2019-02-03T09:28:49.000Z</time>
      </trkpt>
      <trkpt lat="42.9404" lon="0.58397">
        <ele>900</ele>
        <time>2019-02-03T09:28:50.000Z</time>
      </trkpt>
      <trkpt lat="42.94039" lon="0.58397">
        <ele>900</ele>
        <time>2019-02-03T09:28:51.000Z</time>
      </trkpt>
      <trkpt lat="42.94039" lon="0.58397">
        <ele>900</ele>
        <time>2019-02-03T09:28:52.000Z</time>
      </trkpt>
      <trkpt lat="42.94039" lon="0.58397">
        <ele>900</ele>
        <time>2019-02-03T09:28:53.000Z</time>
      </trkpt>
      <trkpt lat="42.94039" lon="0.58397">
        <ele>900</ele>
        <time>2019-02-03T09:28:54.000Z</time>
      </trkpt>
      <trkpt lat="42.94039" lon="0.58397">
        <ele>900</ele>
        <time>2019-02-03T09:28:55.000Z</time>
      </trkpt>
      <trkpt lat="42.94039" lon="0.58397">
        <ele>900</ele>
        <time>2019-02-03T09:28:56.000Z</time>
      </trkpt>
      <trkpt lat="42.94039" lon="0.58397">
        <ele>900</ele>
        <time>2019-02-03T09:28:57.000Z</time>
      </trkpt>
      <trkpt lat="42.94039" lon="0.58397">
        <ele>900</ele>
        <time>2019-02-03T09:28:58.000Z</time>
      </trkpt>
      <trkpt lat="42.94039" lon="0.58397">
        <ele>900.5</ele>
        <time>2019-02-03T09:28:59.000Z</time>
      </trkpt>
      <trkpt lat="42.94039" lon="0.58397">
        <ele>901</ele>
        <time>2019-02-03T09:29:00.000Z</time>
      </trkpt>
      <trkpt lat="42.94039" lon="0.58397">
        <ele>901</ele>
        <time>2019-02-03T09:29:01.000Z</time>
      </trkpt>
      <trkpt lat="42.94039" lon="0.58397">
        <ele>901</ele>
        <time>2019-02-03T09:29:02.000Z</time>
      </trkpt>
      <trkpt lat="42.94039" lon="0.58397">
        <ele>901</ele>
        <time>2019-02-03T09:29:03.000Z</time>
      </trkpt>
      <trkpt lat="42.94039" lon="0.58397">
        <ele>900.7</ele>
        <time>2019-02-03T09:29:04.000Z</time>
      </trkpt>
      <trkpt lat="42.94039" lon="0.58397">
        <ele>900.3</ele>
        <time>2019-02-03T09:29:05.000Z</time>
      </trkpt>
      <trkpt lat="42.94039" lon="0.58397">
        <ele>900</ele>
        <time>2019-02-03T09:29:06.000Z</time>
      </trkpt>
      <trkpt lat="42.94039" lon="0.58398">
        <ele>900</ele>
        <time>2019-02-03T09:29:07.000Z</time>
      </trkpt>
      <trkpt lat="42.94039" lon="0.58398">
        <ele>900</ele>
        <time>2019-02-03T09:29:08.000Z</time>
      </trkpt>
      <trkpt lat="42.94039" lon="0.58397">
        <ele>900</ele>
        <time>2019-02-03T09:29:09.000Z</time>
      </trkpt>
      <trkpt lat="42.9404" lon="0.58397">
        <ele>900</ele>
        <time>2019-02-03T09:29:10.000Z</time>
      </trkpt>
      <trkpt lat="42.9404" lon="0.58397">
        <ele>900</ele>
        <time>2019-02-03T09:29:11.000Z</time>
      </trkpt>
      <trkpt lat="42.9404" lon="0.58397">
        <ele>900</ele>
        <time>2019-02-03T09:29:12.000Z</time>
      </trkpt>
      <trkpt lat="42.9404" lon="0.58396">
        <ele>900</ele>
        <time>2019-02-03T09:29:13.000Z</time>
      </trkpt>
      <trkpt lat="42.94039" lon="0.58396">
        <ele>900</ele>
        <time>2019-02-03T09:29:14.000Z</time>
      </trkpt>
      <trkpt lat="42.94039" lon="0.58397">
        <ele>900</ele>
        <time>2019-02-03T09:29:15.000Z</time>
      </trkpt>
      <trkpt lat="42.94038" lon="0.58397">
        <ele>900</ele>
        <time>2019-02-03T09:29:16.000Z</time>
      </trkpt>
      <trkpt lat="42.94038" lon="0.58397">
        <ele>900</ele>
        <time>2019-02-03T09:29:17.000Z</time>
      </trkpt>
      <trkpt lat="42.94038" lon="0.58397">
        <ele>900.5</ele>
        <time>2019-02-03T09:29:18.000Z</time>
      </trkpt>
      <trkpt lat="42.94037" lon="0.58398">
        <ele>901</ele>
        <time>2019-02-03T09:29:19.000Z</time>
      </trkpt>
      <trkpt lat="42.94037" lon="0.58398">
        <ele>901</ele>
        <time>2019-02-03T09:29:20.000Z</time>
      </trkpt>
      <trkpt lat="42.94037" lon="0.58398">
        <ele>901</ele>
        <time>2019-02-03T09:29:21.000Z</time>
      </trkpt>
      <trkpt lat="42.94037" lon="0.58399">
        <ele>901</ele>
        <time>2019-02-03T09:29:22.000Z</time>
      </trkpt>
      <trkpt lat="42.94037" lon="0.58399">
        <ele>901</ele>
        <time>2019-02-03T09:29:23.000Z</time>
      </trkpt>
      <trkpt lat="42.94037" lon="0.58399">
        <ele>901</ele>
        <time>2019-02-03T09:29:24.000Z</time>
      </trkpt>
      <trkpt lat="42.94038" lon="0.58399">
        <ele>901</ele>
        <time>2019-02-03T09:29:25.000Z</time>
      </trkpt>
      <trkpt lat="42.94038" lon="0.58399">
        <ele>901</ele>
        <time>2019-02-03T09:29:26.000Z</time>
      </trkpt>
      <trkpt lat="42.94038" lon="0.58399">
        <ele>900</ele>
        <time>2019-02-03T09:29:27.000Z</time>
      </trkpt>
      <trkpt lat="42.94038" lon="0.58399">
        <ele>900</ele>
        <time>2019-02-03T09:29:28.000Z</time>
      </trkpt>
      <trkpt lat="42.94038" lon="0.58399">
        <ele>900</ele>
        <time>2019-02-03T09:29:29.000Z</time>
      </trkpt>
      <trkpt lat="42.94038" lon="0.58399">
        <ele>900</ele>
        <time>2019-02-03T09:29:30.000Z</time>
      </trkpt>
      <trkpt lat="42.94038" lon="0.58399">
        <ele>900</ele>
        <time>2019-02-03T09:29:31.000Z</time>
      </trkpt>
      <trkpt lat="42.94038" lon="0.58399">
        <ele>900</ele>
        <time>2019-02-03T09:29:32.000Z</time>
      </trkpt>
      <trkpt lat="42.94038" lon="0.58399">
        <ele>900</ele>
        <time>2019-02-03T09:29:33.000Z</time>
      </trkpt>
      <trkpt lat="42.94038" lon="0.58399">
        <ele>900</ele>
        <time>2019-02-03T09:29:34.000Z</time>
      </trkpt>
      <trkpt lat="42.94038" lon="0.58399">
        <ele>900</ele>
        <time>2019-02-03T09:29:35.000Z</time>
      </trkpt>
      <trkpt lat="42.94038" lon="0.58399">
        <ele>900</ele>
        <time>2019-02-03T09:29:36.000Z</time>
      </trkpt>
      <trkpt lat="42.94039" lon="0.58399">
        <ele>900</ele>
        <time>2019-02-03T09:29:37.000Z</time>
      </trkpt>
      <trkpt lat="42.94039" lon="0.58399">
        <ele>900</ele>
        <time>2019-02-03T09:29:38.000Z</time>
      </trkpt>
      <trkpt lat="42.9404" lon="0.58398">
        <ele>900</ele>
        <time>2019-02-03T09:29:39.000Z</time>
      </trkpt>
      <trkpt lat="42.9404" lon="0.58398">
        <ele>900</ele>
        <time>2019-02-03T09:29:40.000Z</time>
      </trkpt>
      <trkpt lat="42.94041" lon="0.58397">
        <ele>900</ele>
        <time>2019-02-03T09:29:41.000Z</time>
      </trkpt>
      <trkpt lat="42.94042" lon="0.58397">
        <ele>900</ele>
        <time>2019-02-03T09:29:42.000Z</time>
      </trkpt>
      <trkpt lat="42.94042" lon="0.58396">
        <ele>900</ele>
        <time>2019-02-03T09:29:43.000Z</time>
      </trkpt>
      <trkpt lat="42.94042" lon="0.58396">
        <ele>900</ele>
        <time>2019-02-03T09:29:44.000Z</time>
      </trkpt>
      <trkpt lat="42.94043" lon="0.58395">
        <ele>900</ele>
        <time>2019-02-03T09:29:45.000Z</time>
      </trkpt>
      <trkpt lat="42.94043" lon="0.58395">
        <ele>900.3</ele>
        <time>2019-02-03T09:29:46.000Z</time>
      </trkpt>
      <trkpt lat="42.94043" lon="0.58395">
        <ele>900.7</ele>
        <time>2019-02-03T09:29:47.000Z</time>
      </trkpt>
      <trkpt lat="42.94043" lon="0.58395">
        <ele>901</ele>
        <time>2019-02-03T09:29:48.000Z</time>
      </trkpt>
      <trkpt lat="42.94043" lon="0.58395">
        <ele>901</ele>
        <time>2019-02-03T09:29:49.000Z</time>
      </trkpt>
      <trkpt lat="42.94043" lon="0.58395">
        <ele>901</ele>
        <time>2019-02-03T09:29:50.000Z</time>
      </trkpt>
      <trkpt lat="42.94043" lon="0.58395">
        <ele>901</ele>
        <time>2019-02-03T09:29:51.000Z</time>
      </trkpt>
      <trkpt lat="42.94043" lon="0.58395">
        <ele>901</ele>
        <time>2019-02-03T09:29:52.000Z</time>
      </trkpt>
      <trkpt lat="42.94043" lon="0.58395">
        <ele>901</ele>
        <time>2019-02-03T09:29:53.000Z</time>
      </trkpt>
      <trkpt lat="42.94043" lon="0.58395">
        <ele>901</ele>
        <time>2019-02-03T09:29:54.000Z</time>
      </trkpt>
      <trkpt lat="42.94043" lon="0.58395">
        <ele>901</ele>
        <time>2019-02-03T09:29:55.000Z</time>
      </trkpt>
      <trkpt lat="42.94043" lon="0.58395">
        <ele>900.5</ele>
        <time>2019-02-03T09:29:56.000Z</time>
      </trkpt>
      <trkpt lat="42.94043" lon="0.58395">
        <ele>900</ele>
        <time>2019-02-03T09:29:57.000Z</time>
      </trkpt>
      <trkpt lat="42.94042" lon="0.58395">
        <ele>900</ele>
        <time>2019-02-03T09:29:58.000Z</time>
      </trkpt>
      <trkpt lat="42.94042" lon="0.58395">
        <ele>900</ele>
        <time>2019-02-03T09:29:59.000Z</time>
      </trkpt>
      <trkpt lat="42.94042" lon="0.58395">
        <ele>900</ele>
        <time>2019-02-03T09:30:00.000Z</time>
      </trkpt>
      <trkpt lat="42.94042" lon="0.58395">
        <ele>900</ele>
        <time>2019-02-03T09:30:01.000Z</time>
      </trkpt>
      <trkpt lat="42.94042" lon="0.58395">
        <ele>900</ele>
        <time>2019-02-03T09:30:02.000Z</time>
      </trkpt>
      <trkpt lat="42.94042" lon="0.58395">
        <ele>900.5</ele>
        <time>2019-02-03T09:30:03.000Z</time>
      </trkpt>
      <trkpt lat="42.94042" lon="0.58395">
        <ele>901</ele>
        <time>2019-02-03T09:30:04.000Z</time>
      </trkpt>
      <trkpt lat="42.94042" lon="0.58395">
        <ele>901</ele>
        <time>2019-02-03T09:30:05.000Z</time>
      </trkpt>
      <trkpt lat="42.94042" lon="0.58395">
        <ele>901</ele>
        <time>2019-02-03T09:30:06.000Z</time>
      </trkpt>
      <trkpt lat="42.94042" lon="0.58394">
        <ele>901</ele>
        <time>2019-02-03T09:30:07.000Z</time>
      </trkpt>
      <trkpt lat="42.94042" lon="0.58394">
        <ele>901</ele>
        <time>2019-02-03T09:30:08.000Z</time>
      </trkpt>
      <trkpt lat="42.94042" lon="0.58394">
        <ele>901</ele>
        <time>2019-02-03T09:30:09.000Z</time>
      </trkpt>
      <trkpt lat="42.94042" lon="0.58394">
        <ele>901</ele>
        <time>2019-02-03T09:30:10.000Z</time>
      </trkpt>
      <trkpt lat="42.94042" lon="0.58394">
        <ele>901</ele>
        <time>2019-02-03T09:30:11.000Z</time>
      </trkpt>
      <trkpt lat="42.94042" lon="0.58394">
        <ele>901</ele>
        <time>2019-02-03T09:30:12.000Z</time>
      </trkpt>
      <trkpt lat="42.94042" lon="0.58393">
        <ele>901</ele>
        <time>2019-02-03T09:30:13.000Z</time>
      </trkpt>
      <trkpt lat="42.94042" lon="0.58393">
        <ele>901</ele>
        <time>2019-02-03T09:30:14.000Z</time>
      </trkpt>
      <trkpt lat="42.94042" lon="0.58393">
        <ele>901</ele>
        <time>2019-02-03T09:30:15.000Z</time>
      </trkpt>
      <trkpt lat="42.94042" lon="0.58392">
        <ele>901</ele>
        <time>2019-02-03T09:30:16.000Z</time>
      </trkpt>
      <trkpt lat="42.94042" lon="0.58392">
        <ele>901</ele>
        <time>2019-02-03T09:30:17.000Z</time>
      </trkpt>
      <trkpt lat="42.94042" lon="0.58392">
        <ele>901</ele>
        <time>2019-02-03T09:30:18.000Z</time>
      </trkpt>
      <trkpt lat="42.94042" lon="0.58391">
        <ele>901</ele>
        <time>2019-02-03T09:30:19.000Z</time>
      </trkpt>
      <trkpt lat="42.94042" lon="0.58391">
        <ele>901</ele>
        <time>2019-02-03T09:30:20.000Z</time>
      </trkpt>
      <trkpt lat="42.94042" lon="0.58391">
        <ele>901</ele>
        <time>2019-02-03T09:30:21.000Z</time>
      </trkpt>
      <trkpt lat="42.94042" lon="0.58391">
        <ele>901</ele>
        <time>2019-02-03T09:30:22.000Z</time>
      </trkpt>
      <trkpt lat="42.94042" lon="0.58391">
        <ele>901</ele>
        <time>2019-02-03T09:30:23.000Z</time>
      </trkpt>
      <trkpt lat="42.94042" lon="0.58391">
        <ele>901</ele>
        <time>2019-02-03T09:30:24.000Z</time>
      </trkpt>
      <trkpt lat="42.94042" lon="0.58392">
        <ele>901</ele>
        <time>2019-02-03T09:30:25.000Z</time>
      </trkpt>
      <trkpt lat="42.94041" lon="0.58392">
        <ele>901</ele>
        <time>2019-02-03T09:30:26.000Z</time>
      </trkpt>
      <trkpt lat="42.94041" lon="0.58392">
        <ele>901</ele>
        <time>2019-02-03T09:30:27.000Z</time>
      </trkpt>
      <trkpt lat="42.94041" lon="0.58392">
        <ele>901</ele>
        <time>2019-02-03T09:30:28.000Z</time>
      </trkpt>
      <trkpt lat="42.9404" lon="0.58393">
        <ele>901</ele>
        <time>2019-02-03T09:30:29.000Z</time>
      </trkpt>
      <trkpt lat="42.9404" lon="0.58393">
        <ele>901</ele>
        <time>2019-02-03T09:30:30.000Z</time>
      </trkpt>
      <trkpt lat="42.9404" lon="0.58393">
        <ele>901</ele>
        <time>2019-02-03T09:30:31.000Z</time>
      </trkpt>
      <trkpt lat="42.94039" lon="0.58393">
        <ele>901</ele>
        <time>2019-02-03T09:30:32.000Z</time>
      </trkpt>
      <trkpt lat="42.94039" lon="0.58394">
        <ele>901</ele>
        <time>2019-02-03T09:30:33.000Z</time>
      </trkpt>
      <trkpt lat="42.94039" lon="0.58394">
        <ele>901</ele>
        <time>2019-02-03T09:30:34.000Z</time>
      </trkpt>
      <trkpt lat="42.94038" lon="0.58394">
        <ele>901</ele>
        <time>2019-02-03T09:30:35.000Z</time>
      </trkpt>
      <trkpt lat="42.94038" lon="0.58393">
        <ele>901</ele>
        <time>2019-02-03T09:30:36.000Z</time>
      </trkpt>
      <trkpt lat="42.94038" lon="0.58393">
        <ele>901</ele>
        <time>2019-02-03T09:30:37.000Z</time>
      </trkpt>
      <trkpt lat="42.94038" lon="0.58393">
        <ele>901</ele>
        <time>2019-02-03T09:30:38.000Z</time>
      </trkpt>
      <trkpt lat="42.94038" lon="0.58393">
        <ele>901</ele>
        <time>2019-02-03T09:30:39.000Z</time>
      </trkpt>
      <trkpt lat="42.94038" lon="0.58393">
        <ele>901</ele>
        <time>2019-02-03T09:30:40.000Z</time>
      </trkpt>
      <trkpt lat="42.94038" lon="0.58393">
        <ele>901</ele>
        <time>2019-02-03T09:30:41.000Z</time>
      </trkpt>
      <trkpt lat="42.94038" lon="0.58393">
        <ele>901</ele>
        <time>2019-02-03T09:30:42.000Z</time>
      </trkpt>
      <trkpt lat="42.94038" lon="0.58393">
        <ele>901</ele>
        <time>2019-02-03T09:30:43.000Z</time>
      </trkpt>
      <trkpt lat="42.94038" lon="0.58393">
        <ele>901</ele>
        <time>2019-02-03T09:30:44.000Z</time>
      </trkpt>
      <trkpt lat="42.94038" lon="0.58393">
        <ele>901</ele>
        <time>2019-02-03T09:30:45.000Z</time>
      </trkpt>
      <trkpt lat="42.94038" lon="0.58393">
        <ele>901</ele>
        <time>2019-02-03T09:30:46.000Z</time>
      </trkpt>
      <trkpt lat="42.94038" lon="0.58393">
        <ele>901</ele>
        <time>2019-02-03T09:30:47.000Z</time>
      </trkpt>
      <trkpt lat="42.94038" lon="0.58392">
        <ele>901</ele>
        <time>2019-02-03T09:30:48.000Z</time>
      </trkpt>
      <trkpt lat="42.94038" lon="0.58392">
        <ele>901</ele>
        <time>2019-02-03T09:30:49.000Z</time>
      </trkpt>
      <trkpt lat="42.94038" lon="0.58392">
        <ele>901</ele>
        <time>2019-02-03T09:30:50.000Z</time>
      </trkpt>
      <trkpt lat="42.94038" lon="0.58392">
        <ele>901</ele>
        <time>2019-02-03T09:30:51.000Z</time>
      </trkpt>
      <trkpt lat="42.94038" lon="0.58392">
        <ele>901</ele>
        <time>2019-02-03T09:30:52.000Z</time>
      </trkpt>
      <trkpt lat="42.94038" lon="0.58392">
        <ele>901</ele>
        <time>2019-02-03T09:30:53.000Z</time>
      </trkpt>
      <trkpt lat="42.94038" lon="0.58392">
        <ele>901</ele>
        <time>2019-02-03T09:30:54.000Z</time>
      </trkpt>
      <trkpt lat="42.94038" lon="0.58392">
        <ele>901</ele>
        <time>2019-02-03T09:30:55.000Z</time>
      </trkpt>
      <trkpt lat="42.94038" lon="0.58392">
        <ele>901</ele>
        <time>2019-02-03T09:30:56.000Z</time>
      </trkpt>
      <trkpt lat="42.94038" lon="0.58392">
        <ele>900</ele>
        <time>2019-02-03T09:30:57.000Z</time>
      </trkpt>
      <trkpt lat="42.94038" lon="0.58392">
        <ele>900.3</ele>
        <time>2019-02-03T09:30:58.000Z</time>
      </trkpt>
      <trkpt lat="42.94038" lon="0.58392">
        <ele>900.7</ele>
        <time>2019-02-03T09:30:59.000Z</time>
      </trkpt>
      <trkpt lat="42.94038" lon="0.58392">
        <ele>901</ele>
        <time>2019-02-03T09:31:00.000Z</time>
      </trkpt>
      <trkpt lat="42.94038" lon="0.58392">
        <ele>901</ele>
        <time>2019-02-03T09:31:01.000Z</time>
      </trkpt>
      <trkpt lat="42.94038" lon="0.58392">
        <ele>901</ele>
        <time>2019-02-03T09:31:02.000Z</time>
      </trkpt>
      <trkpt lat="42.94038" lon="0.58392">
        <ele>901</ele>
        <time>2019-02-03T09:31:03.000Z</time>
      </trkpt>
      <trkpt lat="42.94038" lon="0.58392">
        <ele>901</ele>
        <time>2019-02-03T09:31:04.000Z</time>
      </trkpt>
      <trkpt lat="42.94038" lon="0.58392">
        <ele>901</ele>
        <time>2019-02-03T09:31:05.000Z</time>
      </trkpt>
      <trkpt lat="42.94038" lon="0.58392">
        <ele>901</ele>
        <time>2019-02-03T09:31:06.000Z</time>
      </trkpt>
      <trkpt lat="42.94038" lon="0.58392">
        <ele>901</ele>
        <time>2019-02-03T09:31:07.000Z</time>
      </trkpt>
      <trkpt lat="42.94038" lon="0.58392">
        <ele>901</ele>
        <time>2019-02-03T09:31:08.000Z</time>
      </trkpt>
      <trkpt lat="42.94038" lon="0.58392">
        <ele>901</ele>
        <time>2019-02-03T09:31:09.000Z</time>
      </trkpt>
      <trkpt lat="42.94038" lon="0.58392">
        <ele>901</ele>
        <time>2019-02-03T09:31:10.000Z</time>
      </trkpt>
      <trkpt lat="42.94038" lon="0.58392">
        <ele>901</ele>
        <time>2019-02-03T09:31:11.000Z</time>
      </trkpt>
      <trkpt lat="42.94038" lon="0.58392">
        <ele>901</ele>
        <time>2019-02-03T09:31:12.000Z</time>
      </trkpt>
      <trkpt lat="42.94038" lon="0.58392">
        <ele>901</ele>
        <time>2019-02-03T09:31:13.000Z</time>
      </trkpt>
      <trkpt lat="42.94038" lon="0.58392">
        <ele>901</ele>
        <time>2019-02-03T09:31:14.000Z</time>
      </trkpt>
      <trkpt lat="42.94038" lon="0.58392">
        <ele>901</ele>
        <time>2019-02-03T09:31:15.000Z</time>
      </trkpt>
      <trkpt lat="42.94038" lon="0.58392">
        <ele>901</ele>
        <time>2019-02-03T09:31:16.000Z</time>
      </trkpt>
      <trkpt lat="42.94038" lon="0.58392">
        <ele>901</ele>
        <time>2019-02-03T09:31:17.000Z</time>
      </trkpt>
      <trkpt lat="42.94038" lon="0.58392">
        <ele>901</ele>
        <time>2019-02-03T09:31:18.000Z</time>
      </trkpt>
      <trkpt lat="42.94038" lon="0.58392">
        <ele>901</ele>
        <time>2019-02-03T09:31:19.000Z</time>
      </trkpt>
      <trkpt lat="42.94038" lon="0.58392">
        <ele>901</ele>
        <time>2019-02-03T09:31:20.000Z</time>
      </trkpt>
      <trkpt lat="42.94038" lon="0.58392">
        <ele>901</ele>
        <time>2019-02-03T09:31:21.000Z</time>
      </trkpt>
      <trkpt lat="42.94038" lon="0.58392">
        <ele>901</ele>
        <time>2019-02-03T09:31:22.000Z</time>
      </trkpt>
      <trkpt lat="42.94038" lon="0.58392">
        <ele>901</ele>
        <time>2019-02-03T09:31:23.000Z</time>
      </trkpt>
      <trkpt lat="42.94038" lon="0.58392">
        <ele>901</ele>
        <time>2019-02-03T09:31:24.000Z</time>
      </trkpt>
      <trkpt lat="42.94038" lon="0.58392">
        <ele>901</ele>
        <time>2019-02-03T09:31:25.000Z</time>
      </trkpt>
      <trkpt lat="42.94038" lon="0.58392">
        <ele>901</ele>
        <time>2019-02-03T09:31:26.000Z</time>
      </trkpt>
      <trkpt lat="42.94038" lon="0.58392">
        <ele>901</ele>
        <time>2019-02-03T09:31:27.000Z</time>
      </trkpt>
      <trkpt lat="42.94038" lon="0.58392">
        <ele>901</ele>
        <time>2019-02-03T09:31:28.000Z</time>
      </trkpt>
      <trkpt lat="42.94038" lon="0.58392">
        <ele>901</ele>
        <time>2019-02-03T09:31:29.000Z</time>
      </trkpt>
      <trkpt lat="42.94038" lon="0.58392">
        <ele>901</ele>
        <time>2019-02-03T09:31:30.000Z</time>
      </trkpt>
      <trkpt lat="42.94038" lon="0.58392">
        <ele>901</ele>
        <time>2019-02-03T09:31:31.000Z</time>
      </trkpt>
      <trkpt lat="42.94038" lon="0.58392">
        <ele>901</ele>
        <time>2019-02-03T09:31:32.000Z</time>
      </trkpt>
      <trkpt lat="42.94038" lon="0.58392">
        <ele>901</ele>
        <time>2019-02-03T09:31:33.000Z</time>
      </trkpt>
      <trkpt lat="42.94039" lon="0.58392">
        <ele>901</ele>
        <time>2019-02-03T09:31:34.000Z</time>
      </trkpt>
      <trkpt lat="42.94039" lon="0.58392">
        <ele>901</ele>
        <time>2019-02-03T09:31:35.000Z</time>
      </trkpt>
      <trkpt lat="42.94037" lon="0.5839">
        <ele>901</ele>
        <time>2019-02-03T09:31:36.000Z</time>
      </trkpt>
      <trkpt lat="42.94036" lon="0.58389">
        <ele>901</ele>
        <time>2019-02-03T09:31:37.000Z</time>
      </trkpt>
      <trkpt lat="42.94035" lon="0.58389">
        <ele>901</ele>
        <time>2019-02-03T09:31:38.000Z</time>
      </trkpt>
      <trkpt lat="42.94034" lon="0.58388">
        <ele>901</ele>
        <time>2019-02-03T09:31:39.000Z</time>
      </trkpt>
      <trkpt lat="42.94033" lon="0.58387">
        <ele>901</ele>
        <time>2019-02-03T09:31:40.000Z</time>
      </trkpt>
      <trkpt lat="42.94032" lon="0.58387">
        <ele>901</ele>
        <time>2019-02-03T09:31:41.000Z</time>
      </trkpt>
      <trkpt lat="42.94031" lon="0.58386">
        <ele>901</ele>
        <time>2019-02-03T09:31:42.000Z</time>
      </trkpt>
      <trkpt lat="42.9403" lon="0.58385">
        <ele>902</ele>
        <time>2019-02-03T09:31:43.000Z</time>
      </trkpt>
      <trkpt lat="42.9403" lon="0.58384">
        <ele>902</ele>
        <time>2019-02-03T09:31:44.000Z</time>
      </trkpt>
      <trkpt lat="42.94029" lon="0.58383">
        <ele>902</ele>
        <time>2019-02-03T09:31:45.000Z</time>
      </trkpt>
      <trkpt lat="42.94028" lon="0.58382">
        <ele>902</ele>
        <time>2019-02-03T09:31:46.000Z</time>
      </trkpt>
      <trkpt lat="42.94027" lon="0.58381">
        <ele>902</ele>
        <time>2019-02-03T09:31:47.000Z</time>
      </trkpt>
      <trkpt lat="42.94026" lon="0.58381">
        <ele>902</ele>
        <time>2019-02-03T09:31:48.000Z</time>
      </trkpt>
      <trkpt lat="42.94026" lon="0.5838">
        <ele>902</ele>
        <time>2019-02-03T09:31:49.000Z</time>
      </trkpt>
      <trkpt lat="42.94025" lon="0.58379">
        <ele>902</ele>
        <time>2019-02-03T09:31:50.000Z</time>
      </trkpt>
      <trkpt lat="42.94025" lon="0.58379">
        <ele>903</ele>
        <time>2019-02-03T09:31:51.000Z</time>
      </trkpt>
      <trkpt lat="42.94024" lon="0.58378">
        <ele>903</ele>
        <time>2019-02-03T09:31:52.000Z</time>
      </trkpt>
      <trkpt lat="42.94024" lon="0.58377">
        <ele>903</ele>
        <time>2019-02-03T09:31:53.000Z</time>
      </trkpt>
      <trkpt lat="42.94024" lon="0.58376">
        <ele>903</ele>
        <time>2019-02-03T09:31:54.000Z</time>
      </trkpt>
      <trkpt lat="42.94023" lon="0.58376">
        <ele>903</ele>
        <time>2019-02-03T09:31:55.000Z</time>
      </trkpt>
      <trkpt lat="42.94023" lon="0.58375">
        <ele>903</ele>
        <time>2019-02-03T09:31:56.000Z</time>
      </trkpt>
      <trkpt lat="42.94023" lon="0.58374">
        <ele>903</ele>
        <time>2019-02-03T09:31:57.000Z</time>
      </trkpt>
      <trkpt lat="42.94022" lon="0.58373">
        <ele>903</ele>
        <time>2019-02-03T09:31:58.000Z</time>
      </trkpt>
      <trkpt lat="42.94022" lon="0.58372">
        <ele>903</ele>
        <time>2019-02-03T09:31:59.000Z</time>
      </trkpt>
      <trkpt lat="42.94022" lon="0.58371">
        <ele>903</ele>
        <time>2019-02-03T09:32:00.000Z</time>
      </trkpt>
      <trkpt lat="42.94021" lon="0.5837">
        <ele>903</ele>
        <time>2019-02-03T09:32:01.000Z</time>
      </trkpt>
      <trkpt lat="42.94021" lon="0.58369">
        <ele>903</ele>
        <time>2019-02-03T09:32:02.000Z</time>
      </trkpt>
      <trkpt lat="42.9402" lon="0.58368">
        <ele>903</ele>
        <time>2019-02-03T09:32:03.000Z</time>
      </trkpt>
      <trkpt lat="42.9402" lon="0.58368">
        <ele>903</ele>
        <time>2019-02-03T09:32:04.000Z</time>
      </trkpt>
      <trkpt lat="42.94019" lon="0.58367">
        <ele>904</ele>
        <time>2019-02-03T09:32:05.000Z</time>
      </trkpt>
      <trkpt lat="42.94018" lon="0.58366">
        <ele>904</ele>
        <time>2019-02-03T09:32:06.000Z</time>
      </trkpt>
      <trkpt lat="42.94018" lon="0.58365">
        <ele>904</ele>
        <time>2019-02-03T09:32:07.000Z</time>
      </trkpt>
      <trkpt lat="42.94017" lon="0.58365">
        <ele>904</ele>
        <time>2019-02-03T09:32:08.000Z</time>
      </trkpt>
      <trkpt lat="42.94017" lon="0.58364">
        <ele>904</ele>
        <time>2019-02-03T09:32:09.000Z</time>
      </trkpt>
      <trkpt lat="42.94016" lon="0.58363">
        <ele>904</ele>
        <time>2019-02-03T09:32:10.000Z</time>
      </trkpt>
      <trkpt lat="42.94016" lon="0.58362">
        <ele>904</ele>
        <time>2019-02-03T09:32:11.000Z</time>
      </trkpt>
      <trkpt lat="42.94016" lon="0.58362">
        <ele>904</ele>
        <time>2019-02-03T09:32:12.000Z</time>
      </trkpt>
      <trkpt lat="42.94015" lon="0.58361">
        <ele>904</ele>
        <time>2019-02-03T09:32:13.000Z</time>
      </trkpt>
      <trkpt lat="42.94015" lon="0.5836">
        <ele>904</ele>
        <time>2019-02-03T09:32:14.000Z</time>
      </trkpt>
      <trkpt lat="42.94015" lon="0.58359">
        <ele>905</ele>
        <time>2019-02-03T09:32:15.000Z</time>
      </trkpt>
      <trkpt lat="42.94014" lon="0.58359">
        <ele>905</ele>
        <time>2019-02-03T09:32:16.000Z</time>
      </trkpt>
      <trkpt lat="42.94014" lon="0.58358">
        <ele>905</ele>
        <time>2019-02-03T09:32:17.000Z</time>
      </trkpt>
      <trkpt lat="42.94014" lon="0.58358">
        <ele>905</ele>
        <time>2019-02-03T09:32:18.000Z</time>
      </trkpt>
      <trkpt lat="42.94013" lon="0.58357">
        <ele>905</ele>
        <time>2019-02-03T09:32:19.000Z</time>
      </trkpt>
      <trkpt lat="42.94013" lon="0.58357">
        <ele>905</ele>
        <time>2019-02-03T09:32:20.000Z</time>
      </trkpt>
      <trkpt lat="42.94012" lon="0.58356">
        <ele>905</ele>
        <time>2019-02-03T09:32:21.000Z</time>
      </trkpt>
      <trkpt lat="42.94012" lon="0.58356">
        <ele>905.3</ele>
        <time>2019-02-03T09:32:22.000Z</time>
      </trkpt>
      <trkpt lat="42.94011" lon="0.58355">
        <ele>905.7</ele>
        <time>2019-02-03T09:32:23.000Z</time>
      </trkpt>
      <trkpt lat="42.94011" lon="0.58354">
        <ele>906</ele>
        <time>2019-02-03T09:32:24.000Z</time>
      </trkpt>
      <trkpt lat="42.9401" lon="0.58354">
        <ele>906</ele>
        <time>2019-02-03T09:32:25.000Z</time>
      </trkpt>
      <trkpt lat="42.9401" lon="0.58353">
        <ele>906</ele>
        <time>2019-02-03T09:32:26.000Z</time>
      </trkpt>
      <trkpt lat="42.9401" lon="0.58353">
        <ele>906</ele>
        <time>2019-02-03T09:32:27.000Z</time>
      </trkpt>
      <trkpt lat="42.9401" lon="0.58352">
        <ele>906</ele>
        <time>2019-02-03T09:32:28.000Z</time>
      </trkpt>
      <trkpt lat="42.9401" lon="0.58351">
        <ele>906</ele>
        <time>2019-02-03T09:32:29.000Z</time>
      </trkpt>
      <trkpt lat="42.9401" lon="0.58351">
        <ele>906</ele>
        <time>2019-02-03T09:32:30.000Z</time>
      </trkpt>
      <trkpt lat="42.94011" lon="0.5835">
        <ele>906</ele>
        <time>2019-02-03T09:32:31.000Z</time>
      </trkpt>
      <trkpt lat="42.94011" lon="0.5835">
        <ele>906</ele>
        <time>2019-02-03T09:32:32.000Z</time>
      </trkpt>
      <trkpt lat="42.94011" lon="0.5835">
        <ele>906</ele>
        <time>2019-02-03T09:32:33.000Z</time>
      </trkpt>
      <trkpt lat="42.94011" lon="0.5835">
        <ele>906</ele>
        <time>2019-02-03T09:32:34.000Z</time>
      </trkpt>
      <trkpt lat="42.94011" lon="0.5835">
        <ele>906</ele>
        <time>2019-02-03T09:32:35.000Z</time>
      </trkpt>
      <trkpt lat="42.94011" lon="0.5835">
        <ele>906</ele>
        <time>2019-02-03T09:32:36.000Z</time>
      </trkpt>
      <trkpt lat="42.94011" lon="0.58349">
        <ele>906</ele>
        <time>2019-02-03T09:32:37.000Z</time>
      </trkpt>
      <trkpt lat="42.9401" lon="0.58348">
        <ele>906</ele>
        <time>2019-02-03T09:32:38.000Z</time>
      </trkpt>
      <trkpt lat="42.94009" lon="0.58347">
        <ele>906</ele>
        <time>2019-02-03T09:32:39.000Z</time>
      </trkpt>
      <trkpt lat="42.94009" lon="0.58345">
        <ele>906</ele>
        <time>2019-02-03T09:32:40.000Z</time>
      </trkpt>
      <trkpt lat="42.94008" lon="0.58345">
        <ele>906</ele>
        <time>2019-02-03T09:32:41.000Z</time>
      </trkpt>
      <trkpt lat="42.94007" lon="0.58344">
        <ele>906</ele>
        <time>2019-02-03T09:32:42.000Z</time>
      </trkpt>
      <trkpt lat="42.94007" lon="0.58343">
        <ele>906</ele>
        <time>2019-02-03T09:32:43.000Z</time>
      </trkpt>
      <trkpt lat="42.94007" lon="0.58343">
        <ele>906</ele>
        <time>2019-02-03T09:32:44.000Z</time>
      </trkpt>
      <trkpt lat="42.94007" lon="0.58343">
        <ele>906</ele>
        <time>2019-02-03T09:32:45.000Z</time>
      </trkpt>
      <trkpt lat="42.94006" lon="0.58343">
        <ele>906</ele>
        <time>2019-02-03T09:32:46.000Z</time>
      </trkpt>
      <trkpt lat="42.94006" lon="0.58343">
        <ele>906</ele>
        <time>2019-02-03T09:32:47.000Z</time>
      </trkpt>
      <trkpt lat="42.94006" lon="0.58343">
        <ele>906</ele>
        <time>2019-02-03T09:32:48.000Z</time>
      </trkpt>
      <trkpt lat="42.94006" lon="0.58343">
        <ele>906</ele>
        <time>2019-02-03T09:32:49.000Z</time>
      </trkpt>
      <trkpt lat="42.94006" lon="0.58343">
        <ele>906</ele>
        <time>2019-02-03T09:32:50.000Z</time>
      </trkpt>
      <trkpt lat="42.94006" lon="0.58343">
        <ele>906</ele>
        <time>2019-02-03T09:32:51.000Z</time>
      </trkpt>
      <trkpt lat="42.94006" lon="0.58343">
        <ele>906</ele>
        <time>2019-02-03T09:32:52.000Z</time>
      </trkpt>
      <trkpt lat="42.94006" lon="0.58343">
        <ele>906</ele>
        <time>2019-02-03T09:32:53.000Z</time>
      </trkpt>
      <trkpt lat="42.94006" lon="0.58343">
        <ele>906</ele>
        <time>2019-02-03T09:32:54.000Z</time>
      </trkpt>
      <trkpt lat="42.94006" lon="0.58343">
        <ele>906</ele>
        <time>2019-02-03T09:32:55.000Z</time>
      </trkpt>
      <trkpt lat="42.94006" lon="0.58343">
        <ele>906</ele>
        <time>2019-02-03T09:32:56.000Z</time>
      </trkpt>
      <trkpt lat="42.94006" lon="0.58343">
        <ele>906</ele>
        <time>2019-02-03T09:32:57.000Z</time>
      </trkpt>
      <trkpt lat="42.94006" lon="0.58343">
        <ele>906</ele>
        <time>2019-02-03T09:32:58.000Z</time>
      </trkpt>
      <trkpt lat="42.94005" lon="0.58342">
        <ele>906</ele>
        <time>2019-02-03T09:32:59.000Z</time>
      </trkpt>
      <trkpt lat="42.94005" lon="0.58342">
        <ele>906</ele>
        <time>2019-02-03T09:33:00.000Z</time>
      </trkpt>
      <trkpt lat="42.94004" lon="0.58342">
        <ele>906</ele>
        <time>2019-02-03T09:33:01.000Z</time>
      </trkpt>
      <trkpt lat="42.94004" lon="0.58342">
        <ele>906</ele>
        <time>2019-02-03T09:33:02.000Z</time>
      </trkpt>
      <trkpt lat="42.94003" lon="0.58341">
        <ele>906</ele>
        <time>2019-02-03T09:33:03.000Z</time>
      </trkpt>
      <trkpt lat="42.94002" lon="0.58341">
        <ele>906</ele>
        <time>2019-02-03T09:33:04.000Z</time>
      </trkpt>
      <trkpt lat="42.94002" lon="0.58341">
        <ele>906</ele>
        <time>2019-02-03T09:33:05.000Z</time>
      </trkpt>
      <trkpt lat="42.94001" lon="0.58341">
        <ele>906</ele>
        <time>2019-02-03T09:33:06.000Z</time>
      </trkpt>
      <trkpt lat="42.94" lon="0.5834">
        <ele>906</ele>
        <time>2019-02-03T09:33:07.000Z</time>
      </trkpt>
      <trkpt lat="42.93999" lon="0.5834">
        <ele>906</ele>
        <time>2019-02-03T09:33:08.000Z</time>
      </trkpt>
      <trkpt lat="42.93998" lon="0.5834">
        <ele>906</ele>
        <time>2019-02-03T09:33:09.000Z</time>
      </trkpt>
      <trkpt lat="42.93998" lon="0.58339">
        <ele>906</ele>
        <time>2019-02-03T09:33:10.000Z</time>
      </trkpt>
      <trkpt lat="42.93997" lon="0.58339">
        <ele>906</ele>
        <time>2019-02-03T09:33:11.000Z</time>
      </trkpt>
      <trkpt lat="42.93996" lon="0.58339">
        <ele>906</ele>
        <time>2019-02-03T09:33:12.000Z</time>
      </trkpt>
      <trkpt lat="42.93995" lon="0.58339">
        <ele>906</ele>
        <time>2019-02-03T09:33:13.000Z</time>
      </trkpt>
      <trkpt lat="42.93995" lon="0.58338">
        <ele>906</ele>
        <time>2019-02-03T09:33:14.000Z</time>
      </trkpt>
      <trkpt lat="42.93994" lon="0.58338">
        <ele>906</ele>
        <time>2019-02-03T09:33:15.000Z</time>
      </trkpt>
      <trkpt lat="42.93993" lon="0.58338">
        <ele>906</ele>
        <time>2019-02-03T09:33:16.000Z</time>
      </trkpt>
      <trkpt lat="42.93993" lon="0.58338">
        <ele>907</ele>
        <time>2019-02-03T09:33:17.000Z</time>
      </trkpt>
      <trkpt lat="42.93993" lon="0.58338">
        <ele>907</ele>
        <time>2019-02-03T09:33:18.000Z</time>
      </trkpt>
      <trkpt lat="42.93992" lon="0.58338">
        <ele>907</ele>
        <time>2019-02-03T09:33:19.000Z</time>
      </trkpt>
      <trkpt lat="42.93992" lon="0.58338">
        <ele>907</ele>
        <time>2019-02-03T09:33:20.000Z</time>
      </trkpt>
      <trkpt lat="42.93991" lon="0.58338">
        <ele>907</ele>
        <time>2019-02-03T09:33:21.000Z</time>
      </trkpt>
      <trkpt lat="42.93991" lon="0.58337">
        <ele>907</ele>
        <time>2019-02-03T09:33:22.000Z</time>
      </trkpt>
      <trkpt lat="42.9399" lon="0.58337">
        <ele>907</ele>
        <time>2019-02-03T09:33:23.000Z</time>
      </trkpt>
      <trkpt lat="42.93989" lon="0.58337">
        <ele>907</ele>
        <time>2019-02-03T09:33:24.000Z</time>
      </trkpt>
      <trkpt lat="42.93988" lon="0.58337">
        <ele>907</ele>
        <time>2019-02-03T09:33:25.000Z</time>
      </trkpt>
      <trkpt lat="42.93987" lon="0.58337">
        <ele>907</ele>
        <time>2019-02-03T09:33:26.000Z</time>
      </trkpt>
      <trkpt lat="42.93987" lon="0.58337">
        <ele>907</ele>
        <time>2019-02-03T09:33:27.000Z</time>
      </trkpt>
      <trkpt lat="42.93986" lon="0.58337">
        <ele>907</ele>
        <time>2019-02-03T09:33:28.000Z</time>
      </trkpt>
      <trkpt lat="42.93986" lon="0.58337">
        <ele>908</ele>
        <time>2019-02-03T09:33:29.000Z</time>
      </trkpt>
      <trkpt lat="42.93985" lon="0.58337">
        <ele>908</ele>
        <time>2019-02-03T09:33:30.000Z</time>
      </trkpt>
      <trkpt lat="42.93985" lon="0.58337">
        <ele>908</ele>
        <time>2019-02-03T09:33:31.000Z</time>
      </trkpt>
      <trkpt lat="42.93984" lon="0.58337">
        <ele>908</ele>
        <time>2019-02-03T09:33:32.000Z</time>
      </trkpt>
      <trkpt lat="42.93984" lon="0.58337">
        <ele>908</ele>
        <time>2019-02-03T09:33:33.000Z</time>
      </trkpt>
      <trkpt lat="42.93983" lon="0.58337">
        <ele>908</ele>
        <time>2019-02-03T09:33:34.000Z</time>
      </trkpt>
      <trkpt lat="42.93983" lon="0.58337">
        <ele>908</ele>
        <time>2019-02-03T09:33:35.000Z</time>
      </trkpt>
      <trkpt lat="42.93982" lon="0.58337">
        <ele>908</ele>
        <time>2019-02-03T09:33:36.000Z</time>
      </trkpt>
      <trkpt lat="42.93981" lon="0.58337">
        <ele>908</ele>
        <time>2019-02-03T09:33:37.000Z</time>
      </trkpt>
      <trkpt lat="42.9398" lon="0.58337">
        <ele>908.3</ele>
        <time>2019-02-03T09:33:38.000Z</time>
      </trkpt>
      <trkpt lat="42.9398" lon="0.58337">
        <ele>908.7</ele>
        <time>2019-02-03T09:33:39.000Z</time>
      </trkpt>
      <trkpt lat="42.93979" lon="0.58337">
        <ele>909</ele>
        <time>2019-02-03T09:33:40.000Z</time>
      </trkpt>
      <trkpt lat="42.93978" lon="0.58337">
        <ele>909</ele>
        <time>2019-02-03T09:33:41.000Z</time>
      </trkpt>
      <trkpt lat="42.93978" lon="0.58337">
        <ele>909</ele>
        <time>2019-02-03T09:33:42.000Z</time>
      </trkpt>
      <trkpt lat="42.93977" lon="0.58337">
        <ele>909</ele>
        <time>2019-02-03T09:33:43.000Z</time>
      </trkpt>
      <trkpt lat="42.93977" lon="0.58337">
        <ele>909</ele>
        <time>2019-02-03T09:33:44.000Z</time>
      </trkpt>
      <trkpt lat="42.93976" lon="0.58337">
        <ele>909</ele>
        <time>2019-02-03T09:33:45.000Z</time>
      </trkpt>
      <trkpt lat="42.93976" lon="0.58337">
        <ele>909</ele>
        <time>2019-02-03T09:33:46.000Z</time>
      </trkpt>
      <trkpt lat="42.93975" lon="0.58337">
        <ele>909</ele>
        <time>2019-02-03T09:33:47.000Z</time>
      </trkpt>
      <trkpt lat="42.93974" lon="0.58338">
        <ele>909.3</ele>
        <time>2019-02-03T09:33:48.000Z</time>
      </trkpt>
      <trkpt lat="42.93974" lon="0.58338">
        <ele>909.7</ele>
        <time>2019-02-03T09:33:49.000Z</time>
      </trkpt>
      <trkpt lat="42.93973" lon="0.58338">
        <ele>910</ele>
        <time>2019-02-03T09:33:50.000Z</time>
      </trkpt>
      <trkpt lat="42.93972" lon="0.58338">
        <ele>910</ele>
        <time>2019-02-03T09:33:51.000Z</time>
      </trkpt>
      <trkpt lat="42.93971" lon="0.58338">
        <ele>910</ele>
        <time>2019-02-03T09:33:52.000Z</time>
      </trkpt>
      <trkpt lat="42.9397" lon="0.58338">
        <ele>910</ele>
        <time>2019-02-03T09:33:53.000Z</time>
      </trkpt>
      <trkpt lat="42.93969" lon="0.58338">
        <ele>910</ele>
        <time>2019-02-03T09:33:54.000Z</time>
      </trkpt>
      <trkpt lat="42.93967" lon="0.58338">
        <ele>910</ele>
        <time>2019-02-03T09:33:55.000Z</time>
      </trkpt>
      <trkpt lat="42.93966" lon="0.58338">
        <ele>910</ele>
        <time>2019-02-03T09:33:56.000Z</time>
      </trkpt>
      <trkpt lat="42.93965" lon="0.58338">
        <ele>910</ele>
        <time>2019-02-03T09:33:57.000Z</time>
      </trkpt>
      <trkpt lat="42.93964" lon="0.58337">
        <ele>910</ele>
        <time>2019-02-03T09:33:58.000Z</time>
      </trkpt>
      <trkpt lat="42.93964" lon="0.58337">
        <ele>910</ele>
        <time>2019-02-03T09:33:59.000Z</time>
      </trkpt>
      <trkpt lat="42.93963" lon="0.58337">
        <ele>910</ele>
        <time>2019-02-03T09:34:00.000Z</time>
      </trkpt>
      <trkpt lat="42.93962" lon="0.58337">
        <ele>910</ele>
        <time>2019-02-03T09:34:01.000Z</time>
      </trkpt>
      <trkpt lat="42.93961" lon="0.58337">
        <ele>910</ele>
        <time>2019-02-03T09:34:02.000Z</time>
      </trkpt>
      <trkpt lat="42.93961" lon="0.58337">
        <ele>910</ele>
        <time>2019-02-03T09:34:03.000Z</time>
      </trkpt>
      <trkpt lat="42.9396" lon="0.58337">
        <ele>910</ele>
        <time>2019-02-03T09:34:04.000Z</time>
      </trkpt>
      <trkpt lat="42.9396" lon="0.58337">
        <ele>910</ele>
        <time>2019-02-03T09:34:05.000Z</time>
      </trkpt>
      <trkpt lat="42.9396" lon="0.58337">
        <ele>910.3</ele>
        <time>2019-02-03T09:34:06.000Z</time>
      </trkpt>
      <trkpt lat="42.93959" lon="0.58337">
        <ele>910.7</ele>
        <time>2019-02-03T09:34:07.000Z</time>
      </trkpt>
      <trkpt lat="42.93959" lon="0.58337">
        <ele>911</ele>
        <time>2019-02-03T09:34:08.000Z</time>
      </trkpt>
      <trkpt lat="42.93958" lon="0.58337">
        <ele>911</ele>
        <time>2019-02-03T09:34:09.000Z</time>
      </trkpt>
      <trkpt lat="42.93958" lon="0.58337">
        <ele>911</ele>
        <time>2019-02-03T09:34:10.000Z</time>
      </trkpt>
      <trkpt lat="42.93957" lon="0.58336">
        <ele>911</ele>
        <time>2019-02-03T09:34:11.000Z</time>
      </trkpt>
      <trkpt lat="42.93957" lon="0.58336">
        <ele>911</ele>
        <time>2019-02-03T09:34:12.000Z</time>
      </trkpt>
      <trkpt lat="42.93956" lon="0.58336">
        <ele>911</ele>
        <time>2019-02-03T09:34:13.000Z</time>
      </trkpt>
      <trkpt lat="42.93956" lon="0.58335">
        <ele>911</ele>
        <time>2019-02-03T09:34:14.000Z</time>
      </trkpt>
      <trkpt lat="42.93955" lon="0.58335">
        <ele>912</ele>
        <time>2019-02-03T09:34:15.000Z</time>
      </trkpt>
      <trkpt lat="42.93955" lon="0.58334">
        <ele>912</ele>
        <time>2019-02-03T09:34:16.000Z</time>
      </trkpt>
      <trkpt lat="42.93954" lon="0.58334">
        <ele>912</ele>
        <time>2019-02-03T09:34:17.000Z</time>
      </trkpt>
      <trkpt lat="42.93954" lon="0.58334">
        <ele>912</ele>
        <time>2019-02-03T09:34:18.000Z</time>
      </trkpt>
      <trkpt lat="42.93954" lon="0.58334">
        <ele>912</ele>
        <time>2019-02-03T09:34:19.000Z</time>
      </trkpt>
      <trkpt lat="42.93954" lon="0.58334">
        <ele>912</ele>
        <time>2019-02-03T09:34:20.000Z</time>
      </trkpt>
      <trkpt lat="42.93954" lon="0.58334">
        <ele>912</ele>
        <time>2019-02-03T09:34:21.000Z</time>
      </trkpt>
      <trkpt lat="42.93953" lon="0.58335">
        <ele>912</ele>
        <time>2019-02-03T09:34:22.000Z</time>
      </trkpt>
      <trkpt lat="42.93953" lon="0.58335">
        <ele>912</ele>
        <time>2019-02-03T09:34:23.000Z</time>
      </trkpt>
      <trkpt lat="42.93952" lon="0.58335">
        <ele>912.3</ele>
        <time>2019-02-03T09:34:24.000Z</time>
      </trkpt>
      <trkpt lat="42.93951" lon="0.58335">
        <ele>912.7</ele>
        <time>2019-02-03T09:34:25.000Z</time>
      </trkpt>
      <trkpt lat="42.9395" lon="0.58336">
        <ele>913</ele>
        <time>2019-02-03T09:34:26.000Z</time>
      </trkpt>
      <trkpt lat="42.93949" lon="0.58336">
        <ele>913</ele>
        <time>2019-02-03T09:34:27.000Z</time>
      </trkpt>
      <trkpt lat="42.93949" lon="0.58336">
        <ele>913</ele>
        <time>2019-02-03T09:34:28.000Z</time>
      </trkpt>
      <trkpt lat="42.93948" lon="0.58336">
        <ele>913</ele>
        <time>2019-02-03T09:34:29.000Z</time>
      </trkpt>
      <trkpt lat="42.93948" lon="0.58337">
        <ele>913</ele>
        <time>2019-02-03T09:34:30.000Z</time>
      </trkpt>
      <trkpt lat="42.93948" lon="0.58337">
        <ele>913</ele>
        <time>2019-02-03T09:34:31.000Z</time>
      </trkpt>
      <trkpt lat="42.93948" lon="0.58337">
        <ele>913</ele>
        <time>2019-02-03T09:34:32.000Z</time>
      </trkpt>
      <trkpt lat="42.93948" lon="0.58337">
        <ele>913</ele>
        <time>2019-02-03T09:34:33.000Z</time>
      </trkpt>
      <trkpt lat="42.93948" lon="0.58337">
        <ele>913</ele>
        <time>2019-02-03T09:34:34.000Z</time>
      </trkpt>
      <trkpt lat="42.93948" lon="0.58337">
        <ele>913</ele>
        <time>2019-02-03T09:34:35.000Z</time>
      </trkpt>
      <trkpt lat="42.93948" lon="0.58337">
        <ele>913</ele>
        <time>2019-02-03T09:34:36.000Z</time>
      </trkpt>
      <trkpt lat="42.93948" lon="0.58337">
        <ele>913</ele>
        <time>2019-02-03T09:34:37.000Z</time>
      </trkpt>
      <trkpt lat="42.93947" lon="0.58337">
        <ele>913</ele>
        <time>2019-02-03T09:34:38.000Z</time>
      </trkpt>
      <trkpt lat="42.93947" lon="0.58337">
        <ele>914</ele>
        <time>2019-02-03T09:34:39.000Z</time>
      </trkpt>
      <trkpt lat="42.93947" lon="0.58338">
        <ele>914</ele>
        <time>2019-02-03T09:34:40.000Z</time>
      </trkpt>
      <trkpt lat="42.93947" lon="0.58338">
        <ele>914</ele>
        <time>2019-02-03T09:34:41.000Z</time>
      </trkpt>
      <trkpt lat="42.93946" lon="0.58339">
        <ele>914</ele>
        <time>2019-02-03T09:34:42.000Z</time>
      </trkpt>
      <trkpt lat="42.93945" lon="0.5834">
        <ele>914</ele>
        <time>2019-02-03T09:34:43.000Z</time>
      </trkpt>
      <trkpt lat="42.93944" lon="0.58342">
        <ele>914</ele>
        <time>2019-02-03T09:34:44.000Z</time>
      </trkpt>
      <trkpt lat="42.93943" lon="0.58343">
        <ele>914</ele>
        <time>2019-02-03T09:34:45.000Z</time>
      </trkpt>
      <trkpt lat="42.93943" lon="0.58344">
        <ele>914</ele>
        <time>2019-02-03T09:34:46.000Z</time>
      </trkpt>
      <trkpt lat="42.93942" lon="0.58345">
        <ele>914</ele>
        <time>2019-02-03T09:34:47.000Z</time>
      </trkpt>
      <trkpt lat="42.93942" lon="0.58346">
        <ele>914</ele>
        <time>2019-02-03T09:34:48.000Z</time>
      </trkpt>
      <trkpt lat="42.93941" lon="0.58347">
        <ele>914.5</ele>
        <time>2019-02-03T09:34:49.000Z</time>
      </trkpt>
      <trkpt lat="42.93941" lon="0.58347">
        <ele>915</ele>
        <time>2019-02-03T09:34:50.000Z</time>
      </trkpt>
      <trkpt lat="42.9394" lon="0.58348">
        <ele>915</ele>
        <time>2019-02-03T09:34:51.000Z</time>
      </trkpt>
      <trkpt lat="42.9394" lon="0.58349">
        <ele>915</ele>
        <time>2019-02-03T09:34:52.000Z</time>
      </trkpt>
      <trkpt lat="42.9394" lon="0.58349">
        <ele>915</ele>
        <time>2019-02-03T09:34:53.000Z</time>
      </trkpt>
      <trkpt lat="42.93939" lon="0.58349">
        <ele>915</ele>
        <time>2019-02-03T09:34:54.000Z</time>
      </trkpt>
      <trkpt lat="42.93939" lon="0.5835">
        <ele>915</ele>
        <time>2019-02-03T09:34:55.000Z</time>
      </trkpt>
      <trkpt lat="42.93939" lon="0.5835">
        <ele>915</ele>
        <time>2019-02-03T09:34:56.000Z</time>
      </trkpt>
      <trkpt lat="42.93939" lon="0.5835">
        <ele>916</ele>
        <time>2019-02-03T09:34:57.000Z</time>
      </trkpt>
      <trkpt lat="42.93939" lon="0.58351">
        <ele>916</ele>
        <time>2019-02-03T09:34:58.000Z</time>
      </trkpt>
      <trkpt lat="42.93938" lon="0.58351">
        <ele>916</ele>
        <time>2019-02-03T09:34:59.000Z</time>
      </trkpt>
      <trkpt lat="42.93938" lon="0.58351">
        <ele>916</ele>
        <time>2019-02-03T09:35:00.000Z</time>
      </trkpt>
      <trkpt lat="42.93938" lon="0.58351">
        <ele>916</ele>
        <time>2019-02-03T09:35:01.000Z</time>
      </trkpt>
      <trkpt lat="42.93938" lon="0.58351">
        <ele>916</ele>
        <time>2019-02-03T09:35:02.000Z</time>
      </trkpt>
      <trkpt lat="42.93938" lon="0.58352">
        <ele>916</ele>
        <time>2019-02-03T09:35:03.000Z</time>
      </trkpt>
      <trkpt lat="42.93937" lon="0.58353">
        <ele>916</ele>
        <time>2019-02-03T09:35:04.000Z</time>
      </trkpt>
      <trkpt lat="42.93936" lon="0.58354">
        <ele>916</ele>
        <time>2019-02-03T09:35:05.000Z</time>
      </trkpt>
      <trkpt lat="42.93935" lon="0.58355">
        <ele>916</ele>
        <time>2019-02-03T09:35:06.000Z</time>
      </trkpt>
      <trkpt lat="42.93935" lon="0.58355">
        <ele>916</ele>
        <time>2019-02-03T09:35:07.000Z</time>
      </trkpt>
      <trkpt lat="42.93935" lon="0.58355">
        <ele>916</ele>
        <time>2019-02-03T09:35:08.000Z</time>
      </trkpt>
      <trkpt lat="42.93934" lon="0.58356">
        <ele>916</ele>
        <time>2019-02-03T09:35:09.000Z</time>
      </trkpt>
      <trkpt lat="42.93934" lon="0.58357">
        <ele>916</ele>
        <time>2019-02-03T09:35:10.000Z</time>
      </trkpt>
      <trkpt lat="42.93934" lon="0.58357">
        <ele>916</ele>
        <time>2019-02-03T09:35:11.000Z</time>
      </trkpt>
      <trkpt lat="42.93934" lon="0.58358">
        <ele>916</ele>
        <time>2019-02-03T09:35:12.000Z</time>
      </trkpt>
      <trkpt lat="42.93934" lon="0.58358">
        <ele>916.5</ele>
        <time>2019-02-03T09:35:13.000Z</time>
      </trkpt>
      <trkpt lat="42.93934" lon="0.58358">
        <ele>917</ele>
        <time>2019-02-03T09:35:14.000Z</time>
      </trkpt>
      <trkpt lat="42.93934" lon="0.58358">
        <ele>917</ele>
        <time>2019-02-03T09:35:15.000Z</time>
      </trkpt>
      <trkpt lat="42.93934" lon="0.58359">
        <ele>917</ele>
        <time>2019-02-03T09:35:16.000Z</time>
      </trkpt>
      <trkpt lat="42.93934" lon="0.58359">
        <ele>917</ele>
        <time>2019-02-03T09:35:17.000Z</time>
      </trkpt>
      <trkpt lat="42.93934" lon="0.58359">
        <ele>917</ele>
        <time>2019-02-03T09:35:18.000Z</time>
      </trkpt>
      <trkpt lat="42.93933" lon="0.58359">
        <ele>917.5</ele>
        <time>2019-02-03T09:35:19.000Z</time>
      </trkpt>
      <trkpt lat="42.93933" lon="0.5836">
        <ele>918</ele>
        <time>2019-02-03T09:35:20.000Z</time>
      </trkpt>
      <trkpt lat="42.93932" lon="0.58361">
        <ele>918</ele>
        <time>2019-02-03T09:35:21.000Z</time>
      </trkpt>
      <trkpt lat="42.93931" lon="0.58363">
        <ele>918</ele>
        <time>2019-02-03T09:35:22.000Z</time>
      </trkpt>
      <trkpt lat="42.9393" lon="0.58364">
        <ele>918</ele>
        <time>2019-02-03T09:35:23.000Z</time>
      </trkpt>
      <trkpt lat="42.93929" lon="0.58365">
        <ele>918</ele>
        <time>2019-02-03T09:35:24.000Z</time>
      </trkpt>
      <trkpt lat="42.93928" lon="0.58366">
        <ele>918</ele>
        <time>2019-02-03T09:35:25.000Z</time>
      </trkpt>
      <trkpt lat="42.93927" lon="0.58366">
        <ele>918</ele>
        <time>2019-02-03T09:35:26.000Z</time>
      </trkpt>
      <trkpt lat="42.93926" lon="0.58366">
        <ele>918.5</ele>
        <time>2019-02-03T09:35:27.000Z</time>
      </trkpt>
      <trkpt lat="42.93926" lon="0.58367">
        <ele>919</ele>
        <time>2019-02-03T09:35:28.000Z</time>
      </trkpt>
      <trkpt lat="42.93925" lon="0.58367">
        <ele>919</ele>
        <time>2019-02-03T09:35:29.000Z</time>
      </trkpt>
      <trkpt lat="42.93924" lon="0.58367">
        <ele>919</ele>
        <time>2019-02-03T09:35:30.000Z</time>
      </trkpt>
      <trkpt lat="42.93924" lon="0.58368">
        <ele>919</ele>
        <time>2019-02-03T09:35:31.000Z</time>
      </trkpt>
      <trkpt lat="42.93923" lon="0.58368">
        <ele>919</ele>
        <time>2019-02-03T09:35:32.000Z</time>
      </trkpt>
      <trkpt lat="42.93922" lon="0.58368">
        <ele>919</ele>
        <time>2019-02-03T09:35:33.000Z</time>
      </trkpt>
      <trkpt lat="42.93922" lon="0.58369">
        <ele>919</ele>
        <time>2019-02-03T09:35:34.000Z</time>
      </trkpt>
      <trkpt lat="42.93921" lon="0.58369">
        <ele>919</ele>
        <time>2019-02-03T09:35:35.000Z</time>
      </trkpt>
      <trkpt lat="42.9392" lon="0.58369">
        <ele>919</ele>
        <time>2019-02-03T09:35:36.000Z</time>
      </trkpt>
      <trkpt lat="42.9392" lon="0.5837">
        <ele>920</ele>
        <time>2019-02-03T09:35:37.000Z</time>
      </trkpt>
      <trkpt lat="42.93919" lon="0.5837">
        <ele>920</ele>
        <time>2019-02-03T09:35:38.000Z</time>
      </trkpt>
      <trkpt lat="42.93919" lon="0.5837">
        <ele>920</ele>
        <time>2019-02-03T09:35:39.000Z</time>
      </trkpt>
      <trkpt lat="42.93918" lon="0.58371">
        <ele>920</ele>
        <time>2019-02-03T09:35:40.000Z</time>
      </trkpt>
      <trkpt lat="42.93918" lon="0.58371">
        <ele>920</ele>
        <time>2019-02-03T09:35:41.000Z</time>
      </trkpt>
      <trkpt lat="42.93917" lon="0.58372">
        <ele>920</ele>
        <time>2019-02-03T09:35:42.000Z</time>
      </trkpt>
      <trkpt lat="42.93916" lon="0.58372">
        <ele>920</ele>
        <time>2019-02-03T09:35:43.000Z</time>
      </trkpt>
      <trkpt lat="42.93916" lon="0.58373">
        <ele>920</ele>
        <time>2019-02-03T09:35:44.000Z</time>
      </trkpt>
      <trkpt lat="42.93915" lon="0.58374">
        <ele>920</ele>
        <time>2019-02-03T09:35:45.000Z</time>
      </trkpt>
      <trkpt lat="42.93914" lon="0.58375">
        <ele>920</ele>
        <time>2019-02-03T09:35:46.000Z</time>
      </trkpt>
      <trkpt lat="42.93914" lon="0.58375">
        <ele>920</ele>
        <time>2019-02-03T09:35:47.000Z</time>
      </trkpt>
      <trkpt lat="42.93913" lon="0.58376">
        <ele>920</ele>
        <time>2019-02-03T09:35:48.000Z</time>
      </trkpt>
      <trkpt lat="42.93913" lon="0.58377">
        <ele>920</ele>
        <time>2019-02-03T09:35:49.000Z</time>
      </trkpt>
      <trkpt lat="42.93912" lon="0.58377">
        <ele>920</ele>
        <time>2019-02-03T09:35:50.000Z</time>
      </trkpt>
      <trkpt lat="42.93912" lon="0.58377">
        <ele>920</ele>
        <time>2019-02-03T09:35:51.000Z</time>
      </trkpt>
      <trkpt lat="42.93912" lon="0.58377">
        <ele>920.3</ele>
        <time>2019-02-03T09:35:52.000Z</time>
      </trkpt>
      <trkpt lat="42.93912" lon="0.58377">
        <ele>920.7</ele>
        <time>2019-02-03T09:35:53.000Z</time>
      </trkpt>
      <trkpt lat="42.93912" lon="0.58377">
        <ele>921</ele>
        <time>2019-02-03T09:35:54.000Z</time>
      </trkpt>
      <trkpt lat="42.93912" lon="0.58377">
        <ele>921</ele>
        <time>2019-02-03T09:35:55.000Z</time>
      </trkpt>
      <trkpt lat="42.93912" lon="0.58377">
        <ele>921</ele>
        <time>2019-02-03T09:35:56.000Z</time>
      </trkpt>
      <trkpt lat="42.93912" lon="0.58377">
        <ele>921</ele>
        <time>2019-02-03T09:35:57.000Z</time>
      </trkpt>
      <trkpt lat="42.93912" lon="0.58377">
        <ele>921</ele>
        <time>2019-02-03T09:35:58.000Z</time>
      </trkpt>
      <trkpt lat="42.93912" lon="0.58377">
        <ele>921</ele>
        <time>2019-02-03T09:35:59.000Z</time>
      </trkpt>
      <trkpt lat="42.93912" lon="0.58377">
        <ele>921</ele>
        <time>2019-02-03T09:36:00.000Z</time>
      </trkpt>
      <trkpt lat="42.93912" lon="0.58377">
        <ele>921</ele>
        <time>2019-02-03T09:36:01.000Z</time>
      </trkpt>
      <trkpt lat="42.93912" lon="0.58377">
        <ele>921</ele>
        <time>2019-02-03T09:36:02.000Z</time>
      </trkpt>
      <trkpt lat="42.93912" lon="0.58377">
        <ele>920.5</ele>
        <time>2019-02-03T09:36:03.000Z</time>
      </trkpt>
      <trkpt lat="42.93911" lon="0.58377">
        <ele>920</ele>
        <time>2019-02-03T09:36:04.000Z</time>
      </trkpt>
      <trkpt lat="42.93911" lon="0.58378">
        <ele>920</ele>
        <time>2019-02-03T09:36:05.000Z</time>
      </trkpt>
      <trkpt lat="42.93911" lon="0.58378">
        <ele>920</ele>
        <time>2019-02-03T09:36:06.000Z</time>
      </trkpt>
      <trkpt lat="42.93911" lon="0.58378">
        <ele>920</ele>
        <time>2019-02-03T09:36:07.000Z</time>
      </trkpt>
      <trkpt lat="42.93911" lon="0.58378">
        <ele>920</ele>
        <time>2019-02-03T09:36:08.000Z</time>
      </trkpt>
      <trkpt lat="42.93911" lon="0.58378">
        <ele>920</ele>
        <time>2019-02-03T09:36:09.000Z</time>
      </trkpt>
      <trkpt lat="42.93911" lon="0.58378">
        <ele>920</ele>
        <time>2019-02-03T09:36:10.000Z</time>
      </trkpt>
      <trkpt lat="42.93911" lon="0.58378">
        <ele>921</ele>
        <time>2019-02-03T09:36:11.000Z</time>
      </trkpt>
      <trkpt lat="42.9391" lon="0.58378">
        <ele>921</ele>
        <time>2019-02-03T09:36:12.000Z</time>
      </trkpt>
      <trkpt lat="42.93909" lon="0.58378">
        <ele>921</ele>
        <time>2019-02-03T09:36:13.000Z</time>
      </trkpt>
      <trkpt lat="42.93907" lon="0.58379">
        <ele>921</ele>
        <time>2019-02-03T09:36:14.000Z</time>
      </trkpt>
      <trkpt lat="42.93906" lon="0.58379">
        <ele>921</ele>
        <time>2019-02-03T09:36:15.000Z</time>
      </trkpt>
      <trkpt lat="42.93906" lon="0.58379">
        <ele>921</ele>
        <time>2019-02-03T09:36:16.000Z</time>
      </trkpt>
      <trkpt lat="42.93905" lon="0.58379">
        <ele>921</ele>
        <time>2019-02-03T09:36:17.000Z</time>
      </trkpt>
      <trkpt lat="42.93904" lon="0.58379">
        <ele>921</ele>
        <time>2019-02-03T09:36:18.000Z</time>
      </trkpt>
      <trkpt lat="42.93903" lon="0.5838">
        <ele>921</ele>
        <time>2019-02-03T09:36:19.000Z</time>
      </trkpt>
      <trkpt lat="42.93902" lon="0.5838">
        <ele>921</ele>
        <time>2019-02-03T09:36:20.000Z</time>
      </trkpt>
      <trkpt lat="42.93902" lon="0.5838">
        <ele>921</ele>
        <time>2019-02-03T09:36:21.000Z</time>
      </trkpt>
      <trkpt lat="42.93901" lon="0.5838">
        <ele>921</ele>
        <time>2019-02-03T09:36:22.000Z</time>
      </trkpt>
      <trkpt lat="42.93901" lon="0.5838">
        <ele>921</ele>
        <time>2019-02-03T09:36:23.000Z</time>
      </trkpt>
      <trkpt lat="42.93901" lon="0.5838">
        <ele>921</ele>
        <time>2019-02-03T09:36:24.000Z</time>
      </trkpt>
      <trkpt lat="42.93901" lon="0.5838">
        <ele>921</ele>
        <time>2019-02-03T09:36:25.000Z</time>
      </trkpt>
      <trkpt lat="42.93901" lon="0.5838">
        <ele>921</ele>
        <time>2019-02-03T09:36:26.000Z</time>
      </trkpt>
      <trkpt lat="42.93901" lon="0.5838">
        <ele>921</ele>
        <time>2019-02-03T09:36:27.000Z</time>
      </trkpt>
      <trkpt lat="42.93901" lon="0.5838">
        <ele>921.3</ele>
        <time>2019-02-03T09:36:28.000Z</time>
      </trkpt>
      <trkpt lat="42.939" lon="0.5838">
        <ele>921.7</ele>
        <time>2019-02-03T09:36:29.000Z</time>
      </trkpt>
      <trkpt lat="42.939" lon="0.58381">
        <ele>922</ele>
        <time>2019-02-03T09:36:30.000Z</time>
      </trkpt>
      <trkpt lat="42.93899" lon="0.58381">
        <ele>922</ele>
        <time>2019-02-03T09:36:31.000Z</time>
      </trkpt>
      <trkpt lat="42.93899" lon="0.58381">
        <ele>922</ele>
        <time>2019-02-03T09:36:32.000Z</time>
      </trkpt>
      <trkpt lat="42.93898" lon="0.58382">
        <ele>922</ele>
        <time>2019-02-03T09:36:33.000Z</time>
      </trkpt>
      <trkpt lat="42.93898" lon="0.58382">
        <ele>922</ele>
        <time>2019-02-03T09:36:34.000Z</time>
      </trkpt>
      <trkpt lat="42.93897" lon="0.58382">
        <ele>922</ele>
        <time>2019-02-03T09:36:35.000Z</time>
      </trkpt>
      <trkpt lat="42.93897" lon="0.58383">
        <ele>922</ele>
        <time>2019-02-03T09:36:36.000Z</time>
      </trkpt>
      <trkpt lat="42.93896" lon="0.58383">
        <ele>922</ele>
        <time>2019-02-03T09:36:37.000Z</time>
      </trkpt>
      <trkpt lat="42.93896" lon="0.58383">
        <ele>922</ele>
        <time>2019-02-03T09:36:38.000Z</time>
      </trkpt>
      <trkpt lat="42.93895" lon="0.58383">
        <ele>922.5</ele>
        <time>2019-02-03T09:36:39.000Z</time>
      </trkpt>
      <trkpt lat="42.93895" lon="0.58384">
        <ele>923</ele>
        <time>2019-02-03T09:36:40.000Z</time>
      </trkpt>
      <trkpt lat="42.93895" lon="0.58384">
        <ele>923</ele>
        <time>2019-02-03T09:36:41.000Z</time>
      </trkpt>
      <trkpt lat="42.93894" lon="0.58384">
        <ele>923</ele>
        <time>2019-02-03T09:36:42.000Z</time>
      </trkpt>
      <trkpt lat="42.93894" lon="0.58384">
        <ele>923</ele>
        <time>2019-02-03T09:36:43.000Z</time>
      </trkpt>
      <trkpt lat="42.93893" lon="0.58384">
        <ele>923</ele>
        <time>2019-02-03T09:36:44.000Z</time>
      </trkpt>
      <trkpt lat="42.93893" lon="0.58384">
        <ele>923</ele>
        <time>2019-02-03T09:36:45.000Z</time>
      </trkpt>
      <trkpt lat="42.93892" lon="0.58384">
        <ele>923</ele>
        <time>2019-02-03T09:36:46.000Z</time>
      </trkpt>
      <trkpt lat="42.93892" lon="0.58384">
        <ele>923</ele>
        <time>2019-02-03T09:36:47.000Z</time>
      </trkpt>
      <trkpt lat="42.93891" lon="0.58383">
        <ele>923</ele>
        <time>2019-02-03T09:36:48.000Z</time>
      </trkpt>
      <trkpt lat="42.9389" lon="0.58383">
        <ele>924</ele>
        <time>2019-02-03T09:36:49.000Z</time>
      </trkpt>
      <trkpt lat="42.9389" lon="0.58383">
        <ele>924</ele>
        <time>2019-02-03T09:36:50.000Z</time>
      </trkpt>
      <trkpt lat="42.93889" lon="0.58383">
        <ele>924</ele>
        <time>2019-02-03T09:36:51.000Z</time>
      </trkpt>
      <trkpt lat="42.93888" lon="0.58383">
        <ele>924</ele>
        <time>2019-02-03T09:36:52.000Z</time>
      </trkpt>
      <trkpt lat="42.93887" lon="0.58384">
        <ele>924</ele>
        <time>2019-02-03T09:36:53.000Z</time>
      </trkpt>
      <trkpt lat="42.93886" lon="0.58384">
        <ele>924</ele>
        <time>2019-02-03T09:36:54.000Z</time>
      </trkpt>
      <trkpt lat="42.93886" lon="0.58384">
        <ele>924</ele>
        <time>2019-02-03T09:36:55.000Z</time>
      </trkpt>
      <trkpt lat="42.93885" lon="0.58384">
        <ele>924</ele>
        <time>2019-02-03T09:36:56.000Z</time>
      </trkpt>
      <trkpt lat="42.93884" lon="0.58384">
        <ele>924</ele>
        <time>2019-02-03T09:36:57.000Z</time>
      </trkpt>
      <trkpt lat="42.93883" lon="0.58385">
        <ele>924</ele>
        <time>2019-02-03T09:36:58.000Z</time>
      </trkpt>
      <trkpt lat="42.93882" lon="0.58385">
        <ele>925</ele>
        <time>2019-02-03T09:36:59.000Z</time>
      </trkpt>
      <trkpt lat="42.93881" lon="0.58385">
        <ele>925</ele>
        <time>2019-02-03T09:37:00.000Z</time>
      </trkpt>
      <trkpt lat="42.9388" lon="0.58386">
        <ele>925</ele>
        <time>2019-02-03T09:37:01.000Z</time>
      </trkpt>
      <trkpt lat="42.93879" lon="0.58386">
        <ele>925</ele>
        <time>2019-02-03T09:37:02.000Z</time>
      </trkpt>
      <trkpt lat="42.93878" lon="0.58386">
        <ele>925</ele>
        <time>2019-02-03T09:37:03.000Z</time>
      </trkpt>
      <trkpt lat="42.93877" lon="0.58387">
        <ele>925</ele>
        <time>2019-02-03T09:37:04.000Z</time>
      </trkpt>
      <trkpt lat="42.93877" lon="0.58387">
        <ele>925</ele>
        <time>2019-02-03T09:37:05.000Z</time>
      </trkpt>
      <trkpt lat="42.93876" lon="0.58387">
        <ele>925</ele>
        <time>2019-02-03T09:37:06.000Z</time>
      </trkpt>
      <trkpt lat="42.93875" lon="0.58387">
        <ele>925</ele>
        <time>2019-02-03T09:37:07.000Z</time>
      </trkpt>
      <trkpt lat="42.93874" lon="0.58388">
        <ele>925.5</ele>
        <time>2019-02-03T09:37:08.000Z</time>
      </trkpt>
      <trkpt lat="42.93873" lon="0.58388">
        <ele>926</ele>
        <time>2019-02-03T09:37:09.000Z</time>
      </trkpt>
      <trkpt lat="42.93873" lon="0.58388">
        <ele>926</ele>
        <time>2019-02-03T09:37:10.000Z</time>
      </trkpt>
      <trkpt lat="42.93872" lon="0.58388">
        <ele>926</ele>
        <time>2019-02-03T09:37:11.000Z</time>
      </trkpt>
      <trkpt lat="42.93872" lon="0.58388">
        <ele>926</ele>
        <time>2019-02-03T09:37:12.000Z</time>
      </trkpt>
      <trkpt lat="42.93871" lon="0.58388">
        <ele>926</ele>
        <time>2019-02-03T09:37:13.000Z</time>
      </trkpt>
      <trkpt lat="42.93871" lon="0.58388">
        <ele>926</ele>
        <time>2019-02-03T09:37:14.000Z</time>
      </trkpt>
      <trkpt lat="42.9387" lon="0.58388">
        <ele>926</ele>
        <time>2019-02-03T09:37:15.000Z</time>
      </trkpt>
      <trkpt lat="42.93869" lon="0.58388">
        <ele>926</ele>
        <time>2019-02-03T09:37:16.000Z</time>
      </trkpt>
      <trkpt lat="42.93869" lon="0.58388">
        <ele>927</ele>
        <time>2019-02-03T09:37:17.000Z</time>
      </trkpt>
      <trkpt lat="42.93868" lon="0.58388">
        <ele>927</ele>
        <time>2019-02-03T09:37:18.000Z</time>
      </trkpt>
      <trkpt lat="42.93868" lon="0.58388">
        <ele>927</ele>
        <time>2019-02-03T09:37:19.000Z</time>
      </trkpt>
      <trkpt lat="42.93867" lon="0.58388">
        <ele>927</ele>
        <time>2019-02-03T09:37:20.000Z</time>
      </trkpt>
      <trkpt lat="42.93866" lon="0.58388">
        <ele>927</ele>
        <time>2019-02-03T09:37:21.000Z</time>
      </trkpt>
      <trkpt lat="42.93865" lon="0.58388">
        <ele>927</ele>
        <time>2019-02-03T09:37:22.000Z</time>
      </trkpt>
      <trkpt lat="42.93864" lon="0.58388">
        <ele>927</ele>
        <time>2019-02-03T09:37:23.000Z</time>
      </trkpt>
      <trkpt lat="42.93863" lon="0.58389">
        <ele>927</ele>
        <time>2019-02-03T09:37:24.000Z</time>
      </trkpt>
      <trkpt lat="42.93861" lon="0.58389">
        <ele>927</ele>
        <time>2019-02-03T09:37:25.000Z</time>
      </trkpt>
      <trkpt lat="42.9386" lon="0.5839">
        <ele>927</ele>
        <time>2019-02-03T09:37:26.000Z</time>
      </trkpt>
      <trkpt lat="42.93859" lon="0.58391">
        <ele>927</ele>
        <time>2019-02-03T09:37:27.000Z</time>
      </trkpt>
      <trkpt lat="42.93857" lon="0.58392">
        <ele>928</ele>
        <time>2019-02-03T09:37:28.000Z</time>
      </trkpt>
      <trkpt lat="42.93856" lon="0.58392">
        <ele>928</ele>
        <time>2019-02-03T09:37:29.000Z</time>
      </trkpt>
      <trkpt lat="42.93855" lon="0.58393">
        <ele>928</ele>
        <time>2019-02-03T09:37:30.000Z</time>
      </trkpt>
      <trkpt lat="42.93854" lon="0.58394">
        <ele>928</ele>
        <time>2019-02-03T09:37:31.000Z</time>
      </trkpt>
      <trkpt lat="42.93853" lon="0.58394">
        <ele>928</ele>
        <time>2019-02-03T09:37:32.000Z</time>
      </trkpt>
      <trkpt lat="42.93852" lon="0.58395">
        <ele>928</ele>
        <time>2019-02-03T09:37:33.000Z</time>
      </trkpt>
      <trkpt lat="42.93852" lon="0.58395">
        <ele>928</ele>
        <time>2019-02-03T09:37:34.000Z</time>
      </trkpt>
      <trkpt lat="42.93851" lon="0.58395">
        <ele>928</ele>
        <time>2019-02-03T09:37:35.000Z</time>
      </trkpt>
      <trkpt lat="42.9385" lon="0.58396">
        <ele>928</ele>
        <time>2019-02-03T09:37:36.000Z</time>
      </trkpt>
      <trkpt lat="42.93849" lon="0.58396">
        <ele>928</ele>
        <time>2019-02-03T09:37:37.000Z</time>
      </trkpt>
      <trkpt lat="42.93847" lon="0.58396">
        <ele>929</ele>
        <time>2019-02-03T09:37:38.000Z</time>
      </trkpt>
      <trkpt lat="42.93846" lon="0.58397">
        <ele>929</ele>
        <time>2019-02-03T09:37:39.000Z</time>
      </trkpt>
      <trkpt lat="42.93845" lon="0.58397">
        <ele>929</ele>
        <time>2019-02-03T09:37:40.000Z</time>
      </trkpt>
      <trkpt lat="42.93844" lon="0.58397">
        <ele>929</ele>
        <time>2019-02-03T09:37:41.000Z</time>
      </trkpt>
      <trkpt lat="42.93843" lon="0.58397">
        <ele>929</ele>
        <time>2019-02-03T09:37:42.000Z</time>
      </trkpt>
      <trkpt lat="42.93843" lon="0.58397">
        <ele>929</ele>
        <time>2019-02-03T09:37:43.000Z</time>
      </trkpt>
      <trkpt lat="42.93842" lon="0.58397">
        <ele>929</ele>
        <time>2019-02-03T09:37:44.000Z</time>
      </trkpt>
      <trkpt lat="42.93842" lon="0.58396">
        <ele>929</ele>
        <time>2019-02-03T09:37:45.000Z</time>
      </trkpt>
      <trkpt lat="42.93842" lon="0.58396">
        <ele>929</ele>
        <time>2019-02-03T09:37:46.000Z</time>
      </trkpt>
      <trkpt lat="42.93842" lon="0.58396">
        <ele>929</ele>
        <time>2019-02-03T09:37:47.000Z</time>
      </trkpt>
      <trkpt lat="42.93842" lon="0.58396">
        <ele>929</ele>
        <time>2019-02-03T09:37:48.000Z</time>
      </trkpt>
      <trkpt lat="42.93841" lon="0.58396">
        <ele>929</ele>
        <time>2019-02-03T09:37:49.000Z</time>
      </trkpt>
      <trkpt lat="42.93841" lon="0.58396">
        <ele>929.3</ele>
        <time>2019-02-03T09:37:50.000Z</time>
      </trkpt>
      <trkpt lat="42.9384" lon="0.58396">
        <ele>929.7</ele>
        <time>2019-02-03T09:37:51.000Z</time>
      </trkpt>
      <trkpt lat="42.93839" lon="0.58397">
        <ele>930</ele>
        <time>2019-02-03T09:37:52.000Z</time>
      </trkpt>
      <trkpt lat="42.93838" lon="0.58397">
        <ele>930</ele>
        <time>2019-02-03T09:37:53.000Z</time>
      </trkpt>
      <trkpt lat="42.93838" lon="0.58397">
        <ele>930</ele>
        <time>2019-02-03T09:37:54.000Z</time>
      </trkpt>
      <trkpt lat="42.93837" lon="0.58397">
        <ele>930</ele>
        <time>2019-02-03T09:37:55.000Z</time>
      </trkpt>
      <trkpt lat="42.93837" lon="0.58397">
        <ele>930</ele>
        <time>2019-02-03T09:37:56.000Z</time>
      </trkpt>
      <trkpt lat="42.93837" lon="0.58396">
        <ele>930</ele>
        <time>2019-02-03T09:37:57.000Z</time>
      </trkpt>
      <trkpt lat="42.93837" lon="0.58395">
        <ele>930</ele>
        <time>2019-02-03T09:37:58.000Z</time>
      </trkpt>
      <trkpt lat="42.93836" lon="0.58395">
        <ele>930</ele>
        <time>2019-02-03T09:37:59.000Z</time>
      </trkpt>
      <trkpt lat="42.93836" lon="0.58394">
        <ele>930</ele>
        <time>2019-02-03T09:38:00.000Z</time>
      </trkpt>
      <trkpt lat="42.93835" lon="0.58393">
        <ele>930</ele>
        <time>2019-02-03T09:38:01.000Z</time>
      </trkpt>
      <trkpt lat="42.93834" lon="0.58393">
        <ele>930</ele>
        <time>2019-02-03T09:38:02.000Z</time>
      </trkpt>
      <trkpt lat="42.93833" lon="0.58392">
        <ele>930</ele>
        <time>2019-02-03T09:38:03.000Z</time>
      </trkpt>
      <trkpt lat="42.93833" lon="0.58392">
        <ele>930</ele>
        <time>2019-02-03T09:38:04.000Z</time>
      </trkpt>
      <trkpt lat="42.93832" lon="0.58391">
        <ele>931</ele>
        <time>2019-02-03T09:38:05.000Z</time>
      </trkpt>
      <trkpt lat="42.93832" lon="0.58391">
        <ele>931</ele>
        <time>2019-02-03T09:38:06.000Z</time>
      </trkpt>
      <trkpt lat="42.93831" lon="0.5839">
        <ele>931</ele>
        <time>2019-02-03T09:38:07.000Z</time>
      </trkpt>
      <trkpt lat="42.93831" lon="0.5839">
        <ele>931</ele>
        <time>2019-02-03T09:38:08.000Z</time>
      </trkpt>
      <trkpt lat="42.93831" lon="0.58389">
        <ele>931</ele>
        <time>2019-02-03T09:38:09.000Z</time>
      </trkpt>
      <trkpt lat="42.9383" lon="0.58389">
        <ele>931</ele>
        <time>2019-02-03T09:38:10.000Z</time>
      </trkpt>
      <trkpt lat="42.9383" lon="0.58388">
        <ele>931</ele>
        <time>2019-02-03T09:38:11.000Z</time>
      </trkpt>
      <trkpt lat="42.9383" lon="0.58388">
        <ele>931</ele>
        <time>2019-02-03T09:38:12.000Z</time>
      </trkpt>
      <trkpt lat="42.93829" lon="0.58387">
        <ele>931</ele>
        <time>2019-02-03T09:38:13.000Z</time>
      </trkpt>
      <trkpt lat="42.93829" lon="0.58387">
        <ele>931</ele>
        <time>2019-02-03T09:38:14.000Z</time>
      </trkpt>
      <trkpt lat="42.93829" lon="0.58386">
        <ele>932</ele>
        <time>2019-02-03T09:38:15.000Z</time>
      </trkpt>
      <trkpt lat="42.93829" lon="0.58386">
        <ele>932</ele>
        <time>2019-02-03T09:38:16.000Z</time>
      </trkpt>
      <trkpt lat="42.93829" lon="0.58386">
        <ele>932</ele>
        <time>2019-02-03T09:38:17.000Z</time>
      </trkpt>
      <trkpt lat="42.93828" lon="0.58385">
        <ele>932</ele>
        <time>2019-02-03T09:38:18.000Z</time>
      </trkpt>
      <trkpt lat="42.93828" lon="0.58385">
        <ele>932</ele>
        <time>2019-02-03T09:38:19.000Z</time>
      </trkpt>
      <trkpt lat="42.93828" lon="0.58385">
        <ele>932</ele>
        <time>2019-02-03T09:38:20.000Z</time>
      </trkpt>
      <trkpt lat="42.93828" lon="0.58385">
        <ele>932</ele>
        <time>2019-02-03T09:38:21.000Z</time>
      </trkpt>
      <trkpt lat="42.93828" lon="0.58385">
        <ele>932</ele>
        <time>2019-02-03T09:38:22.000Z</time>
      </trkpt>
      <trkpt lat="42.93828" lon="0.58385">
        <ele>933</ele>
        <time>2019-02-03T09:38:23.000Z</time>
      </trkpt>
      <trkpt lat="42.93828" lon="0.58385">
        <ele>933</ele>
        <time>2019-02-03T09:38:24.000Z</time>
      </trkpt>
      <trkpt lat="42.93828" lon="0.58385">
        <ele>933</ele>
        <time>2019-02-03T09:38:25.000Z</time>
      </trkpt>
      <trkpt lat="42.93828" lon="0.58385">
        <ele>933</ele>
        <time>2019-02-03T09:38:26.000Z</time>
      </trkpt>
      <trkpt lat="42.93828" lon="0.58385">
        <ele>933</ele>
        <time>2019-02-03T09:38:27.000Z</time>
      </trkpt>
      <trkpt lat="42.93828" lon="0.58384">
        <ele>933</ele>
        <time>2019-02-03T09:38:28.000Z</time>
      </trkpt>
      <trkpt lat="42.93828" lon="0.58383">
        <ele>933</ele>
        <time>2019-02-03T09:38:29.000Z</time>
      </trkpt>
      <trkpt lat="42.93828" lon="0.58383">
        <ele>933</ele>
        <time>2019-02-03T09:38:30.000Z</time>
      </trkpt>
      <trkpt lat="42.93828" lon="0.58381">
        <ele>933</ele>
        <time>2019-02-03T09:38:31.000Z</time>
      </trkpt>
      <trkpt lat="42.93828" lon="0.58379">
        <ele>933</ele>
        <time>2019-02-03T09:38:32.000Z</time>
      </trkpt>
      <trkpt lat="42.93829" lon="0.58377">
        <ele>933</ele>
        <time>2019-02-03T09:38:33.000Z</time>
      </trkpt>
      <trkpt lat="42.93829" lon="0.58374">
        <ele>933</ele>
        <time>2019-02-03T09:38:34.000Z</time>
      </trkpt>
      <trkpt lat="42.93829" lon="0.58372">
        <ele>933</ele>
        <time>2019-02-03T09:38:35.000Z</time>
      </trkpt>
      <trkpt lat="42.93829" lon="0.5837">
        <ele>933.3</ele>
        <time>2019-02-03T09:38:36.000Z</time>
      </trkpt>
      <trkpt lat="42.93829" lon="0.58369">
        <ele>933.7</ele>
        <time>2019-02-03T09:38:37.000Z</time>
      </trkpt>
      <trkpt lat="42.9383" lon="0.58369">
        <ele>934</ele>
        <time>2019-02-03T09:38:38.000Z</time>
      </trkpt>
      <trkpt lat="42.9383" lon="0.58368">
        <ele>934</ele>
        <time>2019-02-03T09:38:39.000Z</time>
      </trkpt>
      <trkpt lat="42.9383" lon="0.58367">
        <ele>934</ele>
        <time>2019-02-03T09:38:40.000Z</time>
      </trkpt>
      <trkpt lat="42.93831" lon="0.58367">
        <ele>934</ele>
        <time>2019-02-03T09:38:41.000Z</time>
      </trkpt>
      <trkpt lat="42.93831" lon="0.58366">
        <ele>934</ele>
        <time>2019-02-03T09:38:42.000Z</time>
      </trkpt>
      <trkpt lat="42.93832" lon="0.58364">
        <ele>934</ele>
        <time>2019-02-03T09:38:43.000Z</time>
      </trkpt>
      <trkpt lat="42.93832" lon="0.58363">
        <ele>934</ele>
        <time>2019-02-03T09:38:44.000Z</time>
      </trkpt>
      <trkpt lat="42.93833" lon="0.58362">
        <ele>934</ele>
        <time>2019-02-03T09:38:45.000Z</time>
      </trkpt>
      <trkpt lat="42.93833" lon="0.58362">
        <ele>934</ele>
        <time>2019-02-03T09:38:46.000Z</time>
      </trkpt>
      <trkpt lat="42.93833" lon="0.58361">
        <ele>934</ele>
        <time>2019-02-03T09:38:47.000Z</time>
      </trkpt>
      <trkpt lat="42.93833" lon="0.5836">
        <ele>934</ele>
        <time>2019-02-03T09:38:48.000Z</time>
      </trkpt>
      <trkpt lat="42.93833" lon="0.5836">
        <ele>934</ele>
        <time>2019-02-03T09:38:49.000Z</time>
      </trkpt>
      <trkpt lat="42.93833" lon="0.5836">
        <ele>934.3</ele>
        <time>2019-02-03T09:38:50.000Z</time>
      </trkpt>
      <trkpt lat="42.93833" lon="0.5836">
        <ele>934.7</ele>
        <time>2019-02-03T09:38:51.000Z</time>
      </trkpt>
      <trkpt lat="42.93833" lon="0.5836">
        <ele>935</ele>
        <time>2019-02-03T09:38:52.000Z</time>
      </trkpt>
      <trkpt lat="42.93833" lon="0.5836">
        <ele>935</ele>
        <time>2019-02-03T09:38:53.000Z</time>
      </trkpt>
      <trkpt lat="42.93833" lon="0.58359">
        <ele>935</ele>
        <time>2019-02-03T09:38:54.000Z</time>
      </trkpt>
      <trkpt lat="42.93834" lon="0.58359">
        <ele>935</ele>
        <time>2019-02-03T09:38:55.000Z</time>
      </trkpt>
      <trkpt lat="42.93834" lon="0.58358">
        <ele>935</ele>
        <time>2019-02-03T09:38:56.000Z</time>
      </trkpt>
      <trkpt lat="42.93835" lon="0.58357">
        <ele>935</ele>
        <time>2019-02-03T09:38:57.000Z</time>
      </trkpt>
      <trkpt lat="42.93835" lon="0.58356">
        <ele>935</ele>
        <time>2019-02-03T09:38:58.000Z</time>
      </trkpt>
      <trkpt lat="42.93836" lon="0.58355">
        <ele>935</ele>
        <time>2019-02-03T09:38:59.000Z</time>
      </trkpt>
      <trkpt lat="42.93837" lon="0.58354">
        <ele>935</ele>
        <time>2019-02-03T09:39:00.000Z</time>
      </trkpt>
      <trkpt lat="42.93838" lon="0.58353">
        <ele>935</ele>
        <time>2019-02-03T09:39:01.000Z</time>
      </trkpt>
      <trkpt lat="42.9384" lon="0.58352">
        <ele>935</ele>
        <time>2019-02-03T09:39:02.000Z</time>
      </trkpt>
      <trkpt lat="42.93841" lon="0.58351">
        <ele>935</ele>
        <time>2019-02-03T09:39:03.000Z</time>
      </trkpt>
      <trkpt lat="42.93841" lon="0.5835">
        <ele>935</ele>
        <time>2019-02-03T09:39:04.000Z</time>
      </trkpt>
      <trkpt lat="42.93842" lon="0.5835">
        <ele>935</ele>
        <time>2019-02-03T09:39:05.000Z</time>
      </trkpt>
      <trkpt lat="42.93843" lon="0.5835">
        <ele>935</ele>
        <time>2019-02-03T09:39:06.000Z</time>
      </trkpt>
      <trkpt lat="42.93843" lon="0.58349">
        <ele>936</ele>
        <time>2019-02-03T09:39:07.000Z</time>
      </trkpt>
      <trkpt lat="42.93843" lon="0.58349">
        <ele>936</ele>
        <time>2019-02-03T09:39:08.000Z</time>
      </trkpt>
      <trkpt lat="42.93843" lon="0.58349">
        <ele>936</ele>
        <time>2019-02-03T09:39:09.000Z</time>
      </trkpt>
      <trkpt lat="42.93843" lon="0.58349">
        <ele>936</ele>
        <time>2019-02-03T09:39:10.000Z</time>
      </trkpt>
      <trkpt lat="42.93843" lon="0.58349">
        <ele>936</ele>
        <time>2019-02-03T09:39:11.000Z</time>
      </trkpt>
      <trkpt lat="42.93843" lon="0.58349">
        <ele>936</ele>
        <time>2019-02-03T09:39:12.000Z</time>
      </trkpt>
      <trkpt lat="42.93843" lon="0.58349">
        <ele>936</ele>
        <time>2019-02-03T09:39:13.000Z</time>
      </trkpt>
      <trkpt lat="42.93843" lon="0.58349">
        <ele>936</ele>
        <time>2019-02-03T09:39:14.000Z</time>
      </trkpt>
      <trkpt lat="42.93844" lon="0.58349">
        <ele>936</ele>
        <time>2019-02-03T09:39:15.000Z</time>
      </trkpt>
      <trkpt lat="42.93844" lon="0.58348">
        <ele>936</ele>
        <time>2019-02-03T09:39:16.000Z</time>
      </trkpt>
      <trkpt lat="42.93844" lon="0.58347">
        <ele>936</ele>
        <time>2019-02-03T09:39:17.000Z</time>
      </trkpt>
      <trkpt lat="42.93844" lon="0.58346">
        <ele>936</ele>
        <time>2019-02-03T09:39:18.000Z</time>
      </trkpt>
      <trkpt lat="42.93844" lon="0.58345">
        <ele>936</ele>
        <time>2019-02-03T09:39:19.000Z</time>
      </trkpt>
      <trkpt lat="42.93845" lon="0.58344">
        <ele>936</ele>
        <time>2019-02-03T09:39:20.000Z</time>
      </trkpt>
      <trkpt lat="42.93845" lon="0.58343">
        <ele>936</ele>
        <time>2019-02-03T09:39:21.000Z</time>
      </trkpt>
      <trkpt lat="42.93845" lon="0.58342">
        <ele>936.5</ele>
        <time>2019-02-03T09:39:22.000Z</time>
      </trkpt>
      <trkpt lat="42.93846" lon="0.58341">
        <ele>937</ele>
        <time>2019-02-03T09:39:23.000Z</time>
      </trkpt>
      <trkpt lat="42.93846" lon="0.58341">
        <ele>937</ele>
        <time>2019-02-03T09:39:24.000Z</time>
      </trkpt>
      <trkpt lat="42.93846" lon="0.5834">
        <ele>937</ele>
        <time>2019-02-03T09:39:25.000Z</time>
      </trkpt>
      <trkpt lat="42.93847" lon="0.58339">
        <ele>937</ele>
        <time>2019-02-03T09:39:26.000Z</time>
      </trkpt>
      <trkpt lat="42.93847" lon="0.58339">
        <ele>937</ele>
        <time>2019-02-03T09:39:27.000Z</time>
      </trkpt>
      <trkpt lat="42.93847" lon="0.58338">
        <ele>937</ele>
        <time>2019-02-03T09:39:28.000Z</time>
      </trkpt>
      <trkpt lat="42.93848" lon="0.58337">
        <ele>937</ele>
        <time>2019-02-03T09:39:29.000Z</time>
      </trkpt>
      <trkpt lat="42.93848" lon="0.58336">
        <ele>937</ele>
        <time>2019-02-03T09:39:30.000Z</time>
      </trkpt>
      <trkpt lat="42.93848" lon="0.58335">
        <ele>937</ele>
        <time>2019-02-03T09:39:31.000Z</time>
      </trkpt>
      <trkpt lat="42.93849" lon="0.58334">
        <ele>937</ele>
        <time>2019-02-03T09:39:32.000Z</time>
      </trkpt>
      <trkpt lat="42.93849" lon="0.58333">
        <ele>937.5</ele>
        <time>2019-02-03T09:39:33.000Z</time>
      </trkpt>
      <trkpt lat="42.93849" lon="0.58332">
        <ele>938</ele>
        <time>2019-02-03T09:39:34.000Z</time>
      </trkpt>
      <trkpt lat="42.93849" lon="0.58331">
        <ele>938</ele>
        <time>2019-02-03T09:39:35.000Z</time>
      </trkpt>
      <trkpt lat="42.93849" lon="0.5833">
        <ele>938</ele>
        <time>2019-02-03T09:39:36.000Z</time>
      </trkpt>
      <trkpt lat="42.93849" lon="0.5833">
        <ele>938</ele>
        <time>2019-02-03T09:39:37.000Z</time>
      </trkpt>
      <trkpt lat="42.93849" lon="0.5833">
        <ele>938</ele>
        <time>2019-02-03T09:39:38.000Z</time>
      </trkpt>
      <trkpt lat="42.93849" lon="0.5833">
        <ele>938</ele>
        <time>2019-02-03T09:39:39.000Z</time>
      </trkpt>
      <trkpt lat="42.93849" lon="0.58329">
        <ele>938</ele>
        <time>2019-02-03T09:39:40.000Z</time>
      </trkpt>
      <trkpt lat="42.93849" lon="0.58329">
        <ele>938</ele>
        <time>2019-02-03T09:39:41.000Z</time>
      </trkpt>
      <trkpt lat="42.93849" lon="0.58328">
        <ele>938</ele>
        <time>2019-02-03T09:39:42.000Z</time>
      </trkpt>
      <trkpt lat="42.93849" lon="0.58328">
        <ele>938</ele>
        <time>2019-02-03T09:39:43.000Z</time>
      </trkpt>
      <trkpt lat="42.93849" lon="0.58327">
        <ele>938</ele>
        <time>2019-02-03T09:39:44.000Z</time>
      </trkpt>
      <trkpt lat="42.93849" lon="0.58326">
        <ele>938</ele>
        <time>2019-02-03T09:39:45.000Z</time>
      </trkpt>
      <trkpt lat="42.93849" lon="0.58324">
        <ele>938.5</ele>
        <time>2019-02-03T09:39:46.000Z</time>
      </trkpt>
      <trkpt lat="42.93849" lon="0.58323">
        <ele>939</ele>
        <time>2019-02-03T09:39:47.000Z</time>
      </trkpt>
      <trkpt lat="42.93848" lon="0.58322">
        <ele>939</ele>
        <time>2019-02-03T09:39:48.000Z</time>
      </trkpt>
      <trkpt lat="42.93848" lon="0.58321">
        <ele>939</ele>
        <time>2019-02-03T09:39:49.000Z</time>
      </trkpt>
      <trkpt lat="42.93847" lon="0.5832">
        <ele>939</ele>
        <time>2019-02-03T09:39:50.000Z</time>
      </trkpt>
      <trkpt lat="42.93847" lon="0.58318">
        <ele>939</ele>
        <time>2019-02-03T09:39:51.000Z</time>
      </trkpt>
      <trkpt lat="42.93846" lon="0.58317">
        <ele>939</ele>
        <time>2019-02-03T09:39:52.000Z</time>
      </trkpt>
      <trkpt lat="42.93846" lon="0.58316">
        <ele>939</ele>
        <time>2019-02-03T09:39:53.000Z</time>
      </trkpt>
      <trkpt lat="42.93845" lon="0.58315">
        <ele>939</ele>
        <time>2019-02-03T09:39:54.000Z</time>
      </trkpt>
      <trkpt lat="42.93845" lon="0.58314">
        <ele>939.3</ele>
        <time>2019-02-03T09:39:55.000Z</time>
      </trkpt>
      <trkpt lat="42.93844" lon="0.58313">
        <ele>939.7</ele>
        <time>2019-02-03T09:39:56.000Z</time>
      </trkpt>
      <trkpt lat="42.93844" lon="0.58313">
        <ele>940</ele>
        <time>2019-02-03T09:39:57.000Z</time>
      </trkpt>
      <trkpt lat="42.93844" lon="0.58312">
        <ele>940</ele>
        <time>2019-02-03T09:39:58.000Z</time>
      </trkpt>
      <trkpt lat="42.93843" lon="0.58311">
        <ele>940</ele>
        <time>2019-02-03T09:39:59.000Z</time>
      </trkpt>
      <trkpt lat="42.93843" lon="0.5831">
        <ele>940</ele>
        <time>2019-02-03T09:40:00.000Z</time>
      </trkpt>
      <trkpt lat="42.93843" lon="0.5831">
        <ele>940</ele>
        <time>2019-02-03T09:40:01.000Z</time>
      </trkpt>
      <trkpt lat="42.93842" lon="0.58309">
        <ele>940</ele>
        <time>2019-02-03T09:40:02.000Z</time>
      </trkpt>
      <trkpt lat="42.93842" lon="0.58308">
        <ele>940</ele>
        <time>2019-02-03T09:40:03.000Z</time>
      </trkpt>
      <trkpt lat="42.93842" lon="0.58307">
        <ele>940.5</ele>
        <time>2019-02-03T09:40:04.000Z</time>
      </trkpt>
      <trkpt lat="42.93841" lon="0.58307">
        <ele>941</ele>
        <time>2019-02-03T09:40:05.000Z</time>
      </trkpt>
      <trkpt lat="42.93841" lon="0.58306">
        <ele>941</ele>
        <time>2019-02-03T09:40:06.000Z</time>
      </trkpt>
      <trkpt lat="42.93841" lon="0.58305">
        <ele>941</ele>
        <time>2019-02-03T09:40:07.000Z</time>
      </trkpt>
      <trkpt lat="42.9384" lon="0.58305">
        <ele>941</ele>
        <time>2019-02-03T09:40:08.000Z</time>
      </trkpt>
      <trkpt lat="42.9384" lon="0.58305">
        <ele>941</ele>
        <time>2019-02-03T09:40:09.000Z</time>
      </trkpt>
      <trkpt lat="42.93839" lon="0.58304">
        <ele>941</ele>
        <time>2019-02-03T09:40:10.000Z</time>
      </trkpt>
      <trkpt lat="42.93839" lon="0.58304">
        <ele>941</ele>
        <time>2019-02-03T09:40:11.000Z</time>
      </trkpt>
      <trkpt lat="42.93839" lon="0.58303">
        <ele>941</ele>
        <time>2019-02-03T09:40:12.000Z</time>
      </trkpt>
      <trkpt lat="42.93838" lon="0.58302">
        <ele>941</ele>
        <time>2019-02-03T09:40:13.000Z</time>
      </trkpt>
      <trkpt lat="42.93837" lon="0.58302">
        <ele>941.5</ele>
        <time>2019-02-03T09:40:14.000Z</time>
      </trkpt>
      <trkpt lat="42.93837" lon="0.58301">
        <ele>942</ele>
        <time>2019-02-03T09:40:15.000Z</time>
      </trkpt>
      <trkpt lat="42.93836" lon="0.583">
        <ele>942</ele>
        <time>2019-02-03T09:40:16.000Z</time>
      </trkpt>
      <trkpt lat="42.93836" lon="0.58299">
        <ele>942</ele>
        <time>2019-02-03T09:40:17.000Z</time>
      </trkpt>
      <trkpt lat="42.93835" lon="0.58298">
        <ele>942</ele>
        <time>2019-02-03T09:40:18.000Z</time>
      </trkpt>
      <trkpt lat="42.93834" lon="0.58298">
        <ele>942</ele>
        <time>2019-02-03T09:40:19.000Z</time>
      </trkpt>
      <trkpt lat="42.93834" lon="0.58297">
        <ele>942</ele>
        <time>2019-02-03T09:40:20.000Z</time>
      </trkpt>
      <trkpt lat="42.93833" lon="0.58296">
        <ele>942.3</ele>
        <time>2019-02-03T09:40:21.000Z</time>
      </trkpt>
      <trkpt lat="42.93832" lon="0.58296">
        <ele>942.7</ele>
        <time>2019-02-03T09:40:22.000Z</time>
      </trkpt>
      <trkpt lat="42.93831" lon="0.58295">
        <ele>943</ele>
        <time>2019-02-03T09:40:23.000Z</time>
      </trkpt>
      <trkpt lat="42.93831" lon="0.58295">
        <ele>943</ele>
        <time>2019-02-03T09:40:24.000Z</time>
      </trkpt>
      <trkpt lat="42.9383" lon="0.58295">
        <ele>943</ele>
        <time>2019-02-03T09:40:25.000Z</time>
      </trkpt>
      <trkpt lat="42.93829" lon="0.58295">
        <ele>943</ele>
        <time>2019-02-03T09:40:26.000Z</time>
      </trkpt>
      <trkpt lat="42.93829" lon="0.58295">
        <ele>943</ele>
        <time>2019-02-03T09:40:27.000Z</time>
      </trkpt>
      <trkpt lat="42.93828" lon="0.58295">
        <ele>943</ele>
        <time>2019-02-03T09:40:28.000Z</time>
      </trkpt>
      <trkpt lat="42.93827" lon="0.58295">
        <ele>943</ele>
        <time>2019-02-03T09:40:29.000Z</time>
      </trkpt>
      <trkpt lat="42.93826" lon="0.58295">
        <ele>943</ele>
        <time>2019-02-03T09:40:30.000Z</time>
      </trkpt>
      <trkpt lat="42.93825" lon="0.58295">
        <ele>943</ele>
        <time>2019-02-03T09:40:31.000Z</time>
      </trkpt>
      <trkpt lat="42.93825" lon="0.58295">
        <ele>944</ele>
        <time>2019-02-03T09:40:32.000Z</time>
      </trkpt>
      <trkpt lat="42.93824" lon="0.58295">
        <ele>944</ele>
        <time>2019-02-03T09:40:33.000Z</time>
      </trkpt>
      <trkpt lat="42.93823" lon="0.58294">
        <ele>944</ele>
        <time>2019-02-03T09:40:34.000Z</time>
      </trkpt>
      <trkpt lat="42.93822" lon="0.58294">
        <ele>944</ele>
        <time>2019-02-03T09:40:35.000Z</time>
      </trkpt>
      <trkpt lat="42.93821" lon="0.58293">
        <ele>944</ele>
        <time>2019-02-03T09:40:36.000Z</time>
      </trkpt>
      <trkpt lat="42.9382" lon="0.58293">
        <ele>944</ele>
        <time>2019-02-03T09:40:37.000Z</time>
      </trkpt>
      <trkpt lat="42.93819" lon="0.58292">
        <ele>945</ele>
        <time>2019-02-03T09:40:38.000Z</time>
      </trkpt>
      <trkpt lat="42.93819" lon="0.58292">
        <ele>945</ele>
        <time>2019-02-03T09:40:39.000Z</time>
      </trkpt>
      <trkpt lat="42.93818" lon="0.58292">
        <ele>945</ele>
        <time>2019-02-03T09:40:40.000Z</time>
      </trkpt>
      <trkpt lat="42.93818" lon="0.58291">
        <ele>945</ele>
        <time>2019-02-03T09:40:41.000Z</time>
      </trkpt>
      <trkpt lat="42.93817" lon="0.58291">
        <ele>945</ele>
        <time>2019-02-03T09:40:42.000Z</time>
      </trkpt>
      <trkpt lat="42.93816" lon="0.58291">
        <ele>945</ele>
        <time>2019-02-03T09:40:43.000Z</time>
      </trkpt>
      <trkpt lat="42.93816" lon="0.5829">
        <ele>945</ele>
        <time>2019-02-03T09:40:44.000Z</time>
      </trkpt>
      <trkpt lat="42.93815" lon="0.5829">
        <ele>945</ele>
        <time>2019-02-03T09:40:45.000Z</time>
      </trkpt>
      <trkpt lat="42.93815" lon="0.5829">
        <ele>945</ele>
        <time>2019-02-03T09:40:46.000Z</time>
      </trkpt>
      <trkpt lat="42.93814" lon="0.58289">
        <ele>945</ele>
        <time>2019-02-03T09:40:47.000Z</time>
      </trkpt>
      <trkpt lat="42.93813" lon="0.58289">
        <ele>946</ele>
        <time>2019-02-03T09:40:48.000Z</time>
      </trkpt>
      <trkpt lat="42.93813" lon="0.58289">
        <ele>946</ele>
        <time>2019-02-03T09:40:49.000Z</time>
      </trkpt>
      <trkpt lat="42.93812" lon="0.58288">
        <ele>946</ele>
        <time>2019-02-03T09:40:50.000Z</time>
      </trkpt>
      <trkpt lat="42.93811" lon="0.58288">
        <ele>946</ele>
        <time>2019-02-03T09:40:51.000Z</time>
      </trkpt>
      <trkpt lat="42.93811" lon="0.58288">
        <ele>946</ele>
        <time>2019-02-03T09:40:52.000Z</time>
      </trkpt>
      <trkpt lat="42.9381" lon="0.58287">
        <ele>946</ele>
        <time>2019-02-03T09:40:53.000Z</time>
      </trkpt>
      <trkpt lat="42.93809" lon="0.58287">
        <ele>946</ele>
        <time>2019-02-03T09:40:54.000Z</time>
      </trkpt>
      <trkpt lat="42.93808" lon="0.58287">
        <ele>946</ele>
        <time>2019-02-03T09:40:55.000Z</time>
      </trkpt>
      <trkpt lat="42.93808" lon="0.58286">
        <ele>946</ele>
        <time>2019-02-03T09:40:56.000Z</time>
      </trkpt>
      <trkpt lat="42.93807" lon="0.58286">
        <ele>946.3</ele>
        <time>2019-02-03T09:40:57.000Z</time>
      </trkpt>
      <trkpt lat="42.93806" lon="0.58286">
        <ele>946.7</ele>
        <time>2019-02-03T09:40:58.000Z</time>
      </trkpt>
      <trkpt lat="42.93805" lon="0.58286">
        <ele>947</ele>
        <time>2019-02-03T09:40:59.000Z</time>
      </trkpt>
      <trkpt lat="42.93805" lon="0.58286">
        <ele>947</ele>
        <time>2019-02-03T09:41:00.000Z</time>
      </trkpt>
      <trkpt lat="42.93804" lon="0.58286">
        <ele>947</ele>
        <time>2019-02-03T09:41:01.000Z</time>
      </trkpt>
      <trkpt lat="42.93804" lon="0.58286">
        <ele>947</ele>
        <time>2019-02-03T09:41:02.000Z</time>
      </trkpt>
      <trkpt lat="42.93803" lon="0.58286">
        <ele>947</ele>
        <time>2019-02-03T09:41:03.000Z</time>
      </trkpt>
      <trkpt lat="42.93803" lon="0.58286">
        <ele>947</ele>
        <time>2019-02-03T09:41:04.000Z</time>
      </trkpt>
      <trkpt lat="42.93802" lon="0.58286">
        <ele>947</ele>
        <time>2019-02-03T09:41:05.000Z</time>
      </trkpt>
      <trkpt lat="42.93802" lon="0.58286">
        <ele>947</ele>
        <time>2019-02-03T09:41:06.000Z</time>
      </trkpt>
      <trkpt lat="42.93801" lon="0.58286">
        <ele>947</ele>
        <time>2019-02-03T09:41:07.000Z</time>
      </trkpt>
      <trkpt lat="42.938" lon="0.58286">
        <ele>947.5</ele>
        <time>2019-02-03T09:41:08.000Z</time>
      </trkpt>
      <trkpt lat="42.938" lon="0.58286">
        <ele>948</ele>
        <time>2019-02-03T09:41:09.000Z</time>
      </trkpt>
      <trkpt lat="42.93799" lon="0.58286">
        <ele>948</ele>
        <time>2019-02-03T09:41:10.000Z</time>
      </trkpt>
      <trkpt lat="42.93798" lon="0.58286">
        <ele>948</ele>
        <time>2019-02-03T09:41:11.000Z</time>
      </trkpt>
      <trkpt lat="42.93797" lon="0.58285">
        <ele>948</ele>
        <time>2019-02-03T09:41:12.000Z</time>
      </trkpt>
      <trkpt lat="42.93796" lon="0.58285">
        <ele>948</ele>
        <time>2019-02-03T09:41:13.000Z</time>
      </trkpt>
      <trkpt lat="42.93795" lon="0.58285">
        <ele>948</ele>
        <time>2019-02-03T09:41:14.000Z</time>
      </trkpt>
      <trkpt lat="42.93794" lon="0.58285">
        <ele>948</ele>
        <time>2019-02-03T09:41:15.000Z</time>
      </trkpt>
      <trkpt lat="42.93794" lon="0.58285">
        <ele>948</ele>
        <time>2019-02-03T09:41:16.000Z</time>
      </trkpt>
      <trkpt lat="42.93793" lon="0.58285">
        <ele>948</ele>
        <time>2019-02-03T09:41:17.000Z</time>
      </trkpt>
      <trkpt lat="42.93793" lon="0.58285">
        <ele>948.5</ele>
        <time>2019-02-03T09:41:18.000Z</time>
      </trkpt>
      <trkpt lat="42.93792" lon="0.58284">
        <ele>949</ele>
        <time>2019-02-03T09:41:19.000Z</time>
      </trkpt>
      <trkpt lat="42.93792" lon="0.58284">
        <ele>949</ele>
        <time>2019-02-03T09:41:20.000Z</time>
      </trkpt>
      <trkpt lat="42.93792" lon="0.58284">
        <ele>949</ele>
        <time>2019-02-03T09:41:21.000Z</time>
      </trkpt>
      <trkpt lat="42.93791" lon="0.58284">
        <ele>949</ele>
        <time>2019-02-03T09:41:22.000Z</time>
      </trkpt>
      <trkpt lat="42.93791" lon="0.58284">
        <ele>949</ele>
        <time>2019-02-03T09:41:23.000Z</time>
      </trkpt>
      <trkpt lat="42.93791" lon="0.58284">
        <ele>949</ele>
        <time>2019-02-03T09:41:24.000Z</time>
      </trkpt>
      <trkpt lat="42.9379" lon="0.58283">
        <ele>949</ele>
        <time>2019-02-03T09:41:25.000Z</time>
      </trkpt>
      <trkpt lat="42.9379" lon="0.58283">
        <ele>949</ele>
        <time>2019-02-03T09:41:26.000Z</time>
      </trkpt>
      <trkpt lat="42.9379" lon="0.58283">
        <ele>949</ele>
        <time>2019-02-03T09:41:27.000Z</time>
      </trkpt>
      <trkpt lat="42.93789" lon="0.58283">
        <ele>949</ele>
        <time>2019-02-03T09:41:28.000Z</time>
      </trkpt>
      <trkpt lat="42.93789" lon="0.58282">
        <ele>949</ele>
        <time>2019-02-03T09:41:29.000Z</time>
      </trkpt>
      <trkpt lat="42.93789" lon="0.58282">
        <ele>949</ele>
        <time>2019-02-03T09:41:30.000Z</time>
      </trkpt>
      <trkpt lat="42.93788" lon="0.58282">
        <ele>949</ele>
        <time>2019-02-03T09:41:31.000Z</time>
      </trkpt>
      <trkpt lat="42.93788" lon="0.58282">
        <ele>949</ele>
        <time>2019-02-03T09:41:32.000Z</time>
      </trkpt>
      <trkpt lat="42.93787" lon="0.58281">
        <ele>949</ele>
        <time>2019-02-03T09:41:33.000Z</time>
      </trkpt>
      <trkpt lat="42.93787" lon="0.58281">
        <ele>949</ele>
        <time>2019-02-03T09:41:34.000Z</time>
      </trkpt>
      <trkpt lat="42.93786" lon="0.58281">
        <ele>949</ele>
        <time>2019-02-03T09:41:35.000Z</time>
      </trkpt>
      <trkpt lat="42.93785" lon="0.5828">
        <ele>949.5</ele>
        <time>2019-02-03T09:41:36.000Z</time>
      </trkpt>
      <trkpt lat="42.93785" lon="0.5828">
        <ele>950</ele>
        <time>2019-02-03T09:41:37.000Z</time>
      </trkpt>
      <trkpt lat="42.93784" lon="0.5828">
        <ele>950</ele>
        <time>2019-02-03T09:41:38.000Z</time>
      </trkpt>
      <trkpt lat="42.93784" lon="0.5828">
        <ele>950</ele>
        <time>2019-02-03T09:41:39.000Z</time>
      </trkpt>
      <trkpt lat="42.93783" lon="0.58279">
        <ele>950</ele>
        <time>2019-02-03T09:41:40.000Z</time>
      </trkpt>
      <trkpt lat="42.93783" lon="0.58279">
        <ele>950</ele>
        <time>2019-02-03T09:41:41.000Z</time>
      </trkpt>
      <trkpt lat="42.93782" lon="0.58279">
        <ele>950</ele>
        <time>2019-02-03T09:41:42.000Z</time>
      </trkpt>
      <trkpt lat="42.93782" lon="0.58279">
        <ele>950</ele>
        <time>2019-02-03T09:41:43.000Z</time>
      </trkpt>
      <trkpt lat="42.93781" lon="0.58279">
        <ele>950</ele>
        <time>2019-02-03T09:41:44.000Z</time>
      </trkpt>
      <trkpt lat="42.93781" lon="0.58278">
        <ele>950</ele>
        <time>2019-02-03T09:41:45.000Z</time>
      </trkpt>
      <trkpt lat="42.9378" lon="0.58278">
        <ele>951</ele>
        <time>2019-02-03T09:41:46.000Z</time>
      </trkpt>
      <trkpt lat="42.93779" lon="0.58278">
        <ele>951</ele>
        <time>2019-02-03T09:41:47.000Z</time>
      </trkpt>
      <trkpt lat="42.93778" lon="0.58278">
        <ele>951</ele>
        <time>2019-02-03T09:41:48.000Z</time>
      </trkpt>
      <trkpt lat="42.93777" lon="0.58278">
        <ele>951</ele>
        <time>2019-02-03T09:41:49.000Z</time>
      </trkpt>
      <trkpt lat="42.93776" lon="0.58278">
        <ele>951</ele>
        <time>2019-02-03T09:41:50.000Z</time>
      </trkpt>
      <trkpt lat="42.93775" lon="0.58278">
        <ele>951</ele>
        <time>2019-02-03T09:41:51.000Z</time>
      </trkpt>
      <trkpt lat="42.93775" lon="0.58277">
        <ele>951</ele>
        <time>2019-02-03T09:41:52.000Z</time>
      </trkpt>
      <trkpt lat="42.93774" lon="0.58277">
        <ele>951</ele>
        <time>2019-02-03T09:41:53.000Z</time>
      </trkpt>
      <trkpt lat="42.93773" lon="0.58277">
        <ele>952</ele>
        <time>2019-02-03T09:41:54.000Z</time>
      </trkpt>
      <trkpt lat="42.93773" lon="0.58276">
        <ele>952</ele>
        <time>2019-02-03T09:41:55.000Z</time>
      </trkpt>
      <trkpt lat="42.93772" lon="0.58276">
        <ele>952</ele>
        <time>2019-02-03T09:41:56.000Z</time>
      </trkpt>
      <trkpt lat="42.93771" lon="0.58275">
        <ele>952</ele>
        <time>2019-02-03T09:41:57.000Z</time>
      </trkpt>
      <trkpt lat="42.93771" lon="0.58275">
        <ele>952</ele>
        <time>2019-02-03T09:41:58.000Z</time>
      </trkpt>
      <trkpt lat="42.93771" lon="0.58274">
        <ele>952</ele>
        <time>2019-02-03T09:41:59.000Z</time>
      </trkpt>
      <trkpt lat="42.9377" lon="0.58274">
        <ele>952</ele>
        <time>2019-02-03T09:42:00.000Z</time>
      </trkpt>
      <trkpt lat="42.9377" lon="0.58273">
        <ele>952</ele>
        <time>2019-02-03T09:42:01.000Z</time>
      </trkpt>
      <trkpt lat="42.93769" lon="0.58273">
        <ele>952</ele>
        <time>2019-02-03T09:42:02.000Z</time>
      </trkpt>
      <trkpt lat="42.93769" lon="0.58273">
        <ele>952</ele>
        <time>2019-02-03T09:42:03.000Z</time>
      </trkpt>
      <trkpt lat="42.93768" lon="0.58272">
        <ele>952</ele>
        <time>2019-02-03T09:42:04.000Z</time>
      </trkpt>
      <trkpt lat="42.93767" lon="0.58272">
        <ele>952</ele>
        <time>2019-02-03T09:42:05.000Z</time>
      </trkpt>
      <trkpt lat="42.93767" lon="0.58272">
        <ele>952</ele>
        <time>2019-02-03T09:42:06.000Z</time>
      </trkpt>
      <trkpt lat="42.93766" lon="0.58271">
        <ele>952</ele>
        <time>2019-02-03T09:42:07.000Z</time>
      </trkpt>
      <trkpt lat="42.93765" lon="0.58271">
        <ele>952.5</ele>
        <time>2019-02-03T09:42:08.000Z</time>
      </trkpt>
      <trkpt lat="42.93765" lon="0.58271">
        <ele>953</ele>
        <time>2019-02-03T09:42:09.000Z</time>
      </trkpt>
      <trkpt lat="42.93764" lon="0.58271">
        <ele>953</ele>
        <time>2019-02-03T09:42:10.000Z</time>
      </trkpt>
      <trkpt lat="42.93763" lon="0.58271">
        <ele>953</ele>
        <time>2019-02-03T09:42:11.000Z</time>
      </trkpt>
      <trkpt lat="42.93763" lon="0.58271">
        <ele>953</ele>
        <time>2019-02-03T09:42:12.000Z</time>
      </trkpt>
      <trkpt lat="42.93762" lon="0.58271">
        <ele>953</ele>
        <time>2019-02-03T09:42:13.000Z</time>
      </trkpt>
      <trkpt lat="42.93761" lon="0.58271">
        <ele>953</ele>
        <time>2019-02-03T09:42:14.000Z</time>
      </trkpt>
      <trkpt lat="42.93761" lon="0.58271">
        <ele>953</ele>
        <time>2019-02-03T09:42:15.000Z</time>
      </trkpt>
      <trkpt lat="42.9376" lon="0.58271">
        <ele>953</ele>
        <time>2019-02-03T09:42:16.000Z</time>
      </trkpt>
      <trkpt lat="42.9376" lon="0.5827">
        <ele>953</ele>
        <time>2019-02-03T09:42:17.000Z</time>
      </trkpt>
      <trkpt lat="42.9376" lon="0.5827">
        <ele>953</ele>
        <time>2019-02-03T09:42:18.000Z</time>
      </trkpt>
      <trkpt lat="42.93759" lon="0.5827">
        <ele>953</ele>
        <time>2019-02-03T09:42:19.000Z</time>
      </trkpt>
      <trkpt lat="42.93759" lon="0.5827">
        <ele>953.5</ele>
        <time>2019-02-03T09:42:20.000Z</time>
      </trkpt>
      <trkpt lat="42.93759" lon="0.5827">
        <ele>954</ele>
        <time>2019-02-03T09:42:21.000Z</time>
      </trkpt>
      <trkpt lat="42.93758" lon="0.5827">
        <ele>954</ele>
        <time>2019-02-03T09:42:22.000Z</time>
      </trkpt>
      <trkpt lat="42.93758" lon="0.5827">
        <ele>954</ele>
        <time>2019-02-03T09:42:23.000Z</time>
      </trkpt>
      <trkpt lat="42.93757" lon="0.5827">
        <ele>954</ele>
        <time>2019-02-03T09:42:24.000Z</time>
      </trkpt>
      <trkpt lat="42.93757" lon="0.5827">
        <ele>954</ele>
        <time>2019-02-03T09:42:25.000Z</time>
      </trkpt>
      <trkpt lat="42.93756" lon="0.5827">
        <ele>954</ele>
        <time>2019-02-03T09:42:26.000Z</time>
      </trkpt>
      <trkpt lat="42.93755" lon="0.5827">
        <ele>954</ele>
        <time>2019-02-03T09:42:27.000Z</time>
      </trkpt>
      <trkpt lat="42.93755" lon="0.5827">
        <ele>954</ele>
        <time>2019-02-03T09:42:28.000Z</time>
      </trkpt>
      <trkpt lat="42.93754" lon="0.5827">
        <ele>954</ele>
        <time>2019-02-03T09:42:29.000Z</time>
      </trkpt>
      <trkpt lat="42.93753" lon="0.5827">
        <ele>954</ele>
        <time>2019-02-03T09:42:30.000Z</time>
      </trkpt>
      <trkpt lat="42.93753" lon="0.5827">
        <ele>954</ele>
        <time>2019-02-03T09:42:31.000Z</time>
      </trkpt>
      <trkpt lat="42.93752" lon="0.5827">
        <ele>955</ele>
        <time>2019-02-03T09:42:32.000Z</time>
      </trkpt>
      <trkpt lat="42.93752" lon="0.5827">
        <ele>955</ele>
        <time>2019-02-03T09:42:33.000Z</time>
      </trkpt>
      <trkpt lat="42.93751" lon="0.5827">
        <ele>955</ele>
        <time>2019-02-03T09:42:34.000Z</time>
      </trkpt>
      <trkpt lat="42.93751" lon="0.58269">
        <ele>955</ele>
        <time>2019-02-03T09:42:35.000Z</time>
      </trkpt>
      <trkpt lat="42.9375" lon="0.58269">
        <ele>955</ele>
        <time>2019-02-03T09:42:36.000Z</time>
      </trkpt>
      <trkpt lat="42.9375" lon="0.58268">
        <ele>955</ele>
        <time>2019-02-03T09:42:37.000Z</time>
      </trkpt>
      <trkpt lat="42.93749" lon="0.58268">
        <ele>955</ele>
        <time>2019-02-03T09:42:38.000Z</time>
      </trkpt>
      <trkpt lat="42.93749" lon="0.58268">
        <ele>955</ele>
        <time>2019-02-03T09:42:39.000Z</time>
      </trkpt>
      <trkpt lat="42.93748" lon="0.58267">
        <ele>955.5</ele>
        <time>2019-02-03T09:42:40.000Z</time>
      </trkpt>
      <trkpt lat="42.93747" lon="0.58267">
        <ele>956</ele>
        <time>2019-02-03T09:42:41.000Z</time>
      </trkpt>
      <trkpt lat="42.93747" lon="0.58267">
        <ele>956</ele>
        <time>2019-02-03T09:42:42.000Z</time>
      </trkpt>
      <trkpt lat="42.93746" lon="0.58267">
        <ele>956</ele>
        <time>2019-02-03T09:42:43.000Z</time>
      </trkpt>
      <trkpt lat="42.93745" lon="0.58267">
        <ele>956</ele>
        <time>2019-02-03T09:42:44.000Z</time>
      </trkpt>
      <trkpt lat="42.93744" lon="0.58267">
        <ele>956</ele>
        <time>2019-02-03T09:42:45.000Z</time>
      </trkpt>
      <trkpt lat="42.93744" lon="0.58267">
        <ele>956</ele>
        <time>2019-02-03T09:42:46.000Z</time>
      </trkpt>
      <trkpt lat="42.93743" lon="0.58268">
        <ele>956</ele>
        <time>2019-02-03T09:42:47.000Z</time>
      </trkpt>
      <trkpt lat="42.93742" lon="0.58268">
        <ele>956</ele>
        <time>2019-02-03T09:42:48.000Z</time>
      </trkpt>
      <trkpt lat="42.93742" lon="0.58269">
        <ele>956</ele>
        <time>2019-02-03T09:42:49.000Z</time>
      </trkpt>
      <trkpt lat="42.93741" lon="0.58269">
        <ele>956</ele>
        <time>2019-02-03T09:42:50.000Z</time>
      </trkpt>
      <trkpt lat="42.93741" lon="0.5827">
        <ele>956</ele>
        <time>2019-02-03T09:42:51.000Z</time>
      </trkpt>
      <trkpt lat="42.9374" lon="0.5827">
        <ele>956.5</ele>
        <time>2019-02-03T09:42:52.000Z</time>
      </trkpt>
      <trkpt lat="42.9374" lon="0.58271">
        <ele>957</ele>
        <time>2019-02-03T09:42:53.000Z</time>
      </trkpt>
      <trkpt lat="42.93739" lon="0.58271">
        <ele>957</ele>
        <time>2019-02-03T09:42:54.000Z</time>
      </trkpt>
      <trkpt lat="42.93739" lon="0.58271">
        <ele>957</ele>
        <time>2019-02-03T09:42:55.000Z</time>
      </trkpt>
      <trkpt lat="42.93739" lon="0.58272">
        <ele>957</ele>
        <time>2019-02-03T09:42:56.000Z</time>
      </trkpt>
      <trkpt lat="42.93738" lon="0.58272">
        <ele>957</ele>
        <time>2019-02-03T09:42:57.000Z</time>
      </trkpt>
      <trkpt lat="42.93738" lon="0.58272">
        <ele>957</ele>
        <time>2019-02-03T09:42:58.000Z</time>
      </trkpt>
      <trkpt lat="42.93738" lon="0.58273">
        <ele>957</ele>
        <time>2019-02-03T09:42:59.000Z</time>
      </trkpt>
      <trkpt lat="42.93738" lon="0.58273">
        <ele>957</ele>
        <time>2019-02-03T09:43:00.000Z</time>
      </trkpt>
      <trkpt lat="42.93738" lon="0.58273">
        <ele>957</ele>
        <time>2019-02-03T09:43:01.000Z</time>
      </trkpt>
      <trkpt lat="42.93738" lon="0.58274">
        <ele>957</ele>
        <time>2019-02-03T09:43:02.000Z</time>
      </trkpt>
      <trkpt lat="42.93738" lon="0.58275">
        <ele>957.3</ele>
        <time>2019-02-03T09:43:03.000Z</time>
      </trkpt>
      <trkpt lat="42.93738" lon="0.58275">
        <ele>957.7</ele>
        <time>2019-02-03T09:43:04.000Z</time>
      </trkpt>
      <trkpt lat="42.93738" lon="0.58276">
        <ele>958</ele>
        <time>2019-02-03T09:43:05.000Z</time>
      </trkpt>
      <trkpt lat="42.93738" lon="0.58277">
        <ele>958</ele>
        <time>2019-02-03T09:43:06.000Z</time>
      </trkpt>
      <trkpt lat="42.93738" lon="0.58278">
        <ele>958</ele>
        <time>2019-02-03T09:43:07.000Z</time>
      </trkpt>
      <trkpt lat="42.93738" lon="0.58278">
        <ele>958</ele>
        <time>2019-02-03T09:43:08.000Z</time>
      </trkpt>
      <trkpt lat="42.93738" lon="0.58279">
        <ele>958</ele>
        <time>2019-02-03T09:43:09.000Z</time>
      </trkpt>
      <trkpt lat="42.93738" lon="0.5828">
        <ele>958</ele>
        <time>2019-02-03T09:43:10.000Z</time>
      </trkpt>
      <trkpt lat="42.93738" lon="0.58281">
        <ele>958</ele>
        <time>2019-02-03T09:43:11.000Z</time>
      </trkpt>
      <trkpt lat="42.93739" lon="0.58282">
        <ele>958</ele>
        <time>2019-02-03T09:43:12.000Z</time>
      </trkpt>
      <trkpt lat="42.93739" lon="0.58282">
        <ele>958</ele>
        <time>2019-02-03T09:43:13.000Z</time>
      </trkpt>
      <trkpt lat="42.93739" lon="0.58283">
        <ele>958</ele>
        <time>2019-02-03T09:43:14.000Z</time>
      </trkpt>
      <trkpt lat="42.9374" lon="0.58284">
        <ele>958.5</ele>
        <time>2019-02-03T09:43:15.000Z</time>
      </trkpt>
      <trkpt lat="42.9374" lon="0.58284">
        <ele>959</ele>
        <time>2019-02-03T09:43:16.000Z</time>
      </trkpt>
      <trkpt lat="42.93741" lon="0.58285">
        <ele>959</ele>
        <time>2019-02-03T09:43:17.000Z</time>
      </trkpt>
      <trkpt lat="42.93741" lon="0.58286">
        <ele>959</ele>
        <time>2019-02-03T09:43:18.000Z</time>
      </trkpt>
      <trkpt lat="42.93742" lon="0.58286">
        <ele>959</ele>
        <time>2019-02-03T09:43:19.000Z</time>
      </trkpt>
      <trkpt lat="42.93742" lon="0.58286">
        <ele>959</ele>
        <time>2019-02-03T09:43:20.000Z</time>
      </trkpt>
      <trkpt lat="42.93743" lon="0.58287">
        <ele>959</ele>
        <time>2019-02-03T09:43:21.000Z</time>
      </trkpt>
      <trkpt lat="42.93743" lon="0.58287">
        <ele>959</ele>
        <time>2019-02-03T09:43:22.000Z</time>
      </trkpt>
      <trkpt lat="42.93744" lon="0.58287">
        <ele>959</ele>
        <time>2019-02-03T09:43:23.000Z</time>
      </trkpt>
      <trkpt lat="42.93744" lon="0.58288">
        <ele>959</ele>
        <time>2019-02-03T09:43:24.000Z</time>
      </trkpt>
      <trkpt lat="42.93745" lon="0.58288">
        <ele>959</ele>
        <time>2019-02-03T09:43:25.000Z</time>
      </trkpt>
      <trkpt lat="42.93746" lon="0.58289">
        <ele>960</ele>
        <time>2019-02-03T09:43:26.000Z</time>
      </trkpt>
      <trkpt lat="42.93747" lon="0.58289">
        <ele>960</ele>
        <time>2019-02-03T09:43:27.000Z</time>
      </trkpt>
      <trkpt lat="42.93747" lon="0.5829">
        <ele>960</ele>
        <time>2019-02-03T09:43:28.000Z</time>
      </trkpt>
      <trkpt lat="42.93748" lon="0.58291">
        <ele>960</ele>
        <time>2019-02-03T09:43:29.000Z</time>
      </trkpt>
      <trkpt lat="42.93749" lon="0.58292">
        <ele>960</ele>
        <time>2019-02-03T09:43:30.000Z</time>
      </trkpt>
      <trkpt lat="42.9375" lon="0.58292">
        <ele>960</ele>
        <time>2019-02-03T09:43:31.000Z</time>
      </trkpt>
      <trkpt lat="42.9375" lon="0.58293">
        <ele>960</ele>
        <time>2019-02-03T09:43:32.000Z</time>
      </trkpt>
      <trkpt lat="42.93751" lon="0.58294">
        <ele>960.5</ele>
        <time>2019-02-03T09:43:33.000Z</time>
      </trkpt>
      <trkpt lat="42.93752" lon="0.58294">
        <ele>961</ele>
        <time>2019-02-03T09:43:34.000Z</time>
      </trkpt>
      <trkpt lat="42.93752" lon="0.58295">
        <ele>961</ele>
        <time>2019-02-03T09:43:35.000Z</time>
      </trkpt>
      <trkpt lat="42.93753" lon="0.58295">
        <ele>961</ele>
        <time>2019-02-03T09:43:36.000Z</time>
      </trkpt>
      <trkpt lat="42.93754" lon="0.58296">
        <ele>961</ele>
        <time>2019-02-03T09:43:37.000Z</time>
      </trkpt>
      <trkpt lat="42.93754" lon="0.58297">
        <ele>961</ele>
        <time>2019-02-03T09:43:38.000Z</time>
      </trkpt>
      <trkpt lat="42.93755" lon="0.58297">
        <ele>961</ele>
        <time>2019-02-03T09:43:39.000Z</time>
      </trkpt>
      <trkpt lat="42.93755" lon="0.58298">
        <ele>961</ele>
        <time>2019-02-03T09:43:40.000Z</time>
      </trkpt>
      <trkpt lat="42.93756" lon="0.58298">
        <ele>961</ele>
        <time>2019-02-03T09:43:41.000Z</time>
      </trkpt>
      <trkpt lat="42.93756" lon="0.58299">
        <ele>961</ele>
        <time>2019-02-03T09:43:42.000Z</time>
      </trkpt>
      <trkpt lat="42.93757" lon="0.583">
        <ele>961</ele>
        <time>2019-02-03T09:43:43.000Z</time>
      </trkpt>
      <trkpt lat="42.93757" lon="0.583">
        <ele>961</ele>
        <time>2019-02-03T09:43:44.000Z</time>
      </trkpt>
      <trkpt lat="42.93758" lon="0.58301">
        <ele>961.3</ele>
        <time>2019-02-03T09:43:45.000Z</time>
      </trkpt>
      <trkpt lat="42.93758" lon="0.58301">
        <ele>961.7</ele>
        <time>2019-02-03T09:43:46.000Z</time>
      </trkpt>
      <trkpt lat="42.93759" lon="0.58302">
        <ele>962</ele>
        <time>2019-02-03T09:43:47.000Z</time>
      </trkpt>
      <trkpt lat="42.93759" lon="0.58302">
        <ele>962</ele>
        <time>2019-02-03T09:43:48.000Z</time>
      </trkpt>
      <trkpt lat="42.93759" lon="0.58303">
        <ele>962</ele>
        <time>2019-02-03T09:43:49.000Z</time>
      </trkpt>
      <trkpt lat="42.9376" lon="0.58304">
        <ele>962</ele>
        <time>2019-02-03T09:43:50.000Z</time>
      </trkpt>
      <trkpt lat="42.9376" lon="0.58304">
        <ele>962</ele>
        <time>2019-02-03T09:43:51.000Z</time>
      </trkpt>
      <trkpt lat="42.93761" lon="0.58305">
        <ele>962</ele>
        <time>2019-02-03T09:43:52.000Z</time>
      </trkpt>
      <trkpt lat="42.93761" lon="0.58305">
        <ele>962</ele>
        <time>2019-02-03T09:43:53.000Z</time>
      </trkpt>
      <trkpt lat="42.93761" lon="0.58305">
        <ele>962</ele>
        <time>2019-02-03T09:43:54.000Z</time>
      </trkpt>
      <trkpt lat="42.93762" lon="0.58306">
        <ele>962</ele>
        <time>2019-02-03T09:43:55.000Z</time>
      </trkpt>
      <trkpt lat="42.93762" lon="0.58306">
        <ele>962</ele>
        <time>2019-02-03T09:43:56.000Z</time>
      </trkpt>
      <trkpt lat="42.93762" lon="0.58306">
        <ele>962</ele>
        <time>2019-02-03T09:43:57.000Z</time>
      </trkpt>
      <trkpt lat="42.93763" lon="0.58307">
        <ele>962</ele>
        <time>2019-02-03T09:43:58.000Z</time>
      </trkpt>
      <trkpt lat="42.93763" lon="0.58307">
        <ele>962</ele>
        <time>2019-02-03T09:43:59.000Z</time>
      </trkpt>
      <trkpt lat="42.93764" lon="0.58307">
        <ele>962</ele>
        <time>2019-02-03T09:44:00.000Z</time>
      </trkpt>
      <trkpt lat="42.93764" lon="0.58308">
        <ele>962.3</ele>
        <time>2019-02-03T09:44:01.000Z</time>
      </trkpt>
      <trkpt lat="42.93765" lon="0.58309">
        <ele>962.7</ele>
        <time>2019-02-03T09:44:02.000Z</time>
      </trkpt>
      <trkpt lat="42.93765" lon="0.58309">
        <ele>963</ele>
        <time>2019-02-03T09:44:03.000Z</time>
      </trkpt>
      <trkpt lat="42.93765" lon="0.58311">
        <ele>963</ele>
        <time>2019-02-03T09:44:04.000Z</time>
      </trkpt>
      <trkpt lat="42.93766" lon="0.58312">
        <ele>963</ele>
        <time>2019-02-03T09:44:05.000Z</time>
      </trkpt>
      <trkpt lat="42.93766" lon="0.58313">
        <ele>963</ele>
        <time>2019-02-03T09:44:06.000Z</time>
      </trkpt>
      <trkpt lat="42.93766" lon="0.58313">
        <ele>963.5</ele>
        <time>2019-02-03T09:44:07.000Z</time>
      </trkpt>
      <trkpt lat="42.93767" lon="0.58314">
        <ele>964</ele>
        <time>2019-02-03T09:44:08.000Z</time>
      </trkpt>
      <trkpt lat="42.93767" lon="0.58314">
        <ele>964</ele>
        <time>2019-02-03T09:44:09.000Z</time>
      </trkpt>
      <trkpt lat="42.93767" lon="0.58314">
        <ele>964</ele>
        <time>2019-02-03T09:44:10.000Z</time>
      </trkpt>
      <trkpt lat="42.93767" lon="0.58314">
        <ele>964</ele>
        <time>2019-02-03T09:44:11.000Z</time>
      </trkpt>
      <trkpt lat="42.93768" lon="0.58314">
        <ele>964</ele>
        <time>2019-02-03T09:44:12.000Z</time>
      </trkpt>
      <trkpt lat="42.93768" lon="0.58315">
        <ele>964</ele>
        <time>2019-02-03T09:44:13.000Z</time>
      </trkpt>
      <trkpt lat="42.93768" lon="0.58315">
        <ele>964</ele>
        <time>2019-02-03T09:44:14.000Z</time>
      </trkpt>
      <trkpt lat="42.93769" lon="0.58315">
        <ele>964</ele>
        <time>2019-02-03T09:44:15.000Z</time>
      </trkpt>
      <trkpt lat="42.9377" lon="0.58316">
        <ele>964</ele>
        <time>2019-02-03T09:44:16.000Z</time>
      </trkpt>
      <trkpt lat="42.9377" lon="0.58317">
        <ele>964.5</ele>
        <time>2019-02-03T09:44:17.000Z</time>
      </trkpt>
      <trkpt lat="42.93771" lon="0.58318">
        <ele>965</ele>
        <time>2019-02-03T09:44:18.000Z</time>
      </trkpt>
      <trkpt lat="42.93771" lon="0.58319">
        <ele>965</ele>
        <time>2019-02-03T09:44:19.000Z</time>
      </trkpt>
      <trkpt lat="42.93772" lon="0.5832">
        <ele>965</ele>
        <time>2019-02-03T09:44:20.000Z</time>
      </trkpt>
      <trkpt lat="42.93772" lon="0.58321">
        <ele>965</ele>
        <time>2019-02-03T09:44:21.000Z</time>
      </trkpt>
      <trkpt lat="42.93772" lon="0.58321">
        <ele>965</ele>
        <time>2019-02-03T09:44:22.000Z</time>
      </trkpt>
      <trkpt lat="42.93773" lon="0.58322">
        <ele>965</ele>
        <time>2019-02-03T09:44:23.000Z</time>
      </trkpt>
      <trkpt lat="42.93773" lon="0.58323">
        <ele>965</ele>
        <time>2019-02-03T09:44:24.000Z</time>
      </trkpt>
      <trkpt lat="42.93773" lon="0.58323">
        <ele>965</ele>
        <time>2019-02-03T09:44:25.000Z</time>
      </trkpt>
      <trkpt lat="42.93773" lon="0.58324">
        <ele>965</ele>
        <time>2019-02-03T09:44:26.000Z</time>
      </trkpt>
      <trkpt lat="42.93773" lon="0.58324">
        <ele>965.3</ele>
        <time>2019-02-03T09:44:27.000Z</time>
      </trkpt>
      <trkpt lat="42.93773" lon="0.58325">
        <ele>965.7</ele>
        <time>2019-02-03T09:44:28.000Z</time>
      </trkpt>
      <trkpt lat="42.93773" lon="0.58326">
        <ele>966</ele>
        <time>2019-02-03T09:44:29.000Z</time>
      </trkpt>
      <trkpt lat="42.93773" lon="0.58327">
        <ele>966</ele>
        <time>2019-02-03T09:44:30.000Z</time>
      </trkpt>
      <trkpt lat="42.93773" lon="0.58328">
        <ele>966</ele>
        <time>2019-02-03T09:44:31.000Z</time>
      </trkpt>
      <trkpt lat="42.93772" lon="0.58329">
        <ele>966</ele>
        <time>2019-02-03T09:44:32.000Z</time>
      </trkpt>
      <trkpt lat="42.93772" lon="0.58331">
        <ele>966</ele>
        <time>2019-02-03T09:44:33.000Z</time>
      </trkpt>
      <trkpt lat="42.93772" lon="0.58331">
        <ele>966</ele>
        <time>2019-02-03T09:44:34.000Z</time>
      </trkpt>
      <trkpt lat="42.93772" lon="0.58332">
        <ele>966</ele>
        <time>2019-02-03T09:44:35.000Z</time>
      </trkpt>
      <trkpt lat="42.93773" lon="0.58333">
        <ele>966</ele>
        <time>2019-02-03T09:44:36.000Z</time>
      </trkpt>
      <trkpt lat="42.93773" lon="0.58334">
        <ele>966</ele>
        <time>2019-02-03T09:44:37.000Z</time>
      </trkpt>
      <trkpt lat="42.93773" lon="0.58334">
        <ele>966</ele>
        <time>2019-02-03T09:44:38.000Z</time>
      </trkpt>
      <trkpt lat="42.93773" lon="0.58335">
        <ele>966</ele>
        <time>2019-02-03T09:44:39.000Z</time>
      </trkpt>
      <trkpt lat="42.93773" lon="0.58336">
        <ele>966</ele>
        <time>2019-02-03T09:44:40.000Z</time>
      </trkpt>
      <trkpt lat="42.93774" lon="0.58337">
        <ele>966</ele>
        <time>2019-02-03T09:44:41.000Z</time>
      </trkpt>
      <trkpt lat="42.93774" lon="0.58338">
        <ele>966</ele>
        <time>2019-02-03T09:44:42.000Z</time>
      </trkpt>
      <trkpt lat="42.93774" lon="0.58339">
        <ele>966</ele>
        <time>2019-02-03T09:44:43.000Z</time>
      </trkpt>
      <trkpt lat="42.93775" lon="0.5834">
        <ele>966</ele>
        <time>2019-02-03T09:44:44.000Z</time>
      </trkpt>
      <trkpt lat="42.93775" lon="0.58341">
        <ele>966.5</ele>
        <time>2019-02-03T09:44:45.000Z</time>
      </trkpt>
      <trkpt lat="42.93775" lon="0.58342">
        <ele>967</ele>
        <time>2019-02-03T09:44:46.000Z</time>
      </trkpt>
      <trkpt lat="42.93775" lon="0.58342">
        <ele>967</ele>
        <time>2019-02-03T09:44:47.000Z</time>
      </trkpt>
      <trkpt lat="42.93776" lon="0.58343">
        <ele>967</ele>
        <time>2019-02-03T09:44:48.000Z</time>
      </trkpt>
      <trkpt lat="42.93776" lon="0.58343">
        <ele>967</ele>
        <time>2019-02-03T09:44:49.000Z</time>
      </trkpt>
      <trkpt lat="42.93776" lon="0.58344">
        <ele>967</ele>
        <time>2019-02-03T09:44:50.000Z</time>
      </trkpt>
      <trkpt lat="42.93776" lon="0.58344">
        <ele>967</ele>
        <time>2019-02-03T09:44:51.000Z</time>
      </trkpt>
      <trkpt lat="42.93776" lon="0.58344">
        <ele>967</ele>
        <time>2019-02-03T09:44:52.000Z</time>
      </trkpt>
      <trkpt lat="42.93776" lon="0.58344">
        <ele>967</ele>
        <time>2019-02-03T09:44:53.000Z</time>
      </trkpt>
      <trkpt lat="42.93776" lon="0.58344">
        <ele>967</ele>
        <time>2019-02-03T09:44:54.000Z</time>
      </trkpt>
      <trkpt lat="42.93776" lon="0.58344">
        <ele>967</ele>
        <time>2019-02-03T09:44:55.000Z</time>
      </trkpt>
      <trkpt lat="42.93776" lon="0.58344">
        <ele>967</ele>
        <time>2019-02-03T09:44:56.000Z</time>
      </trkpt>
      <trkpt lat="42.93776" lon="0.58344">
        <ele>967.3</ele>
        <time>2019-02-03T09:44:57.000Z</time>
      </trkpt>
      <trkpt lat="42.93776" lon="0.58344">
        <ele>967.7</ele>
        <time>2019-02-03T09:44:58.000Z</time>
      </trkpt>
      <trkpt lat="42.93776" lon="0.58344">
        <ele>968</ele>
        <time>2019-02-03T09:44:59.000Z</time>
      </trkpt>
      <trkpt lat="42.93776" lon="0.58345">
        <ele>968</ele>
        <time>2019-02-03T09:45:00.000Z</time>
      </trkpt>
      <trkpt lat="42.93777" lon="0.58346">
        <ele>968</ele>
        <time>2019-02-03T09:45:01.000Z</time>
      </trkpt>
      <trkpt lat="42.93777" lon="0.58347">
        <ele>968</ele>
        <time>2019-02-03T09:45:02.000Z</time>
      </trkpt>
      <trkpt lat="42.93777" lon="0.58349">
        <ele>968</ele>
        <time>2019-02-03T09:45:03.000Z</time>
      </trkpt>
      <trkpt lat="42.93777" lon="0.58351">
        <ele>968</ele>
        <time>2019-02-03T09:45:04.000Z</time>
      </trkpt>
      <trkpt lat="42.93777" lon="0.58354">
        <ele>968</ele>
        <time>2019-02-03T09:45:05.000Z</time>
      </trkpt>
      <trkpt lat="42.93777" lon="0.58355">
        <ele>968.5</ele>
        <time>2019-02-03T09:45:06.000Z</time>
      </trkpt>
      <trkpt lat="42.93776" lon="0.58356">
        <ele>969</ele>
        <time>2019-02-03T09:45:07.000Z</time>
      </trkpt>
      <trkpt lat="42.93776" lon="0.58357">
        <ele>969</ele>
        <time>2019-02-03T09:45:08.000Z</time>
      </trkpt>
      <trkpt lat="42.93776" lon="0.58358">
        <ele>969</ele>
        <time>2019-02-03T09:45:09.000Z</time>
      </trkpt>
      <trkpt lat="42.93776" lon="0.58359">
        <ele>969</ele>
        <time>2019-02-03T09:45:10.000Z</time>
      </trkpt>
      <trkpt lat="42.93776" lon="0.58359">
        <ele>969</ele>
        <time>2019-02-03T09:45:11.000Z</time>
      </trkpt>
      <trkpt lat="42.93776" lon="0.5836">
        <ele>969</ele>
        <time>2019-02-03T09:45:12.000Z</time>
      </trkpt>
      <trkpt lat="42.93776" lon="0.58361">
        <ele>969</ele>
        <time>2019-02-03T09:45:13.000Z</time>
      </trkpt>
      <trkpt lat="42.93776" lon="0.58362">
        <ele>969</ele>
        <time>2019-02-03T09:45:14.000Z</time>
      </trkpt>
      <trkpt lat="42.93775" lon="0.58363">
        <ele>969</ele>
        <time>2019-02-03T09:45:15.000Z</time>
      </trkpt>
      <trkpt lat="42.93775" lon="0.58364">
        <ele>969</ele>
        <time>2019-02-03T09:45:16.000Z</time>
      </trkpt>
      <trkpt lat="42.93775" lon="0.58365">
        <ele>969</ele>
        <time>2019-02-03T09:45:17.000Z</time>
      </trkpt>
      <trkpt lat="42.93774" lon="0.58366">
        <ele>969</ele>
        <time>2019-02-03T09:45:18.000Z</time>
      </trkpt>
      <trkpt lat="42.93774" lon="0.58367">
        <ele>969</ele>
        <time>2019-02-03T09:45:19.000Z</time>
      </trkpt>
      <trkpt lat="42.93773" lon="0.58368">
        <ele>969</ele>
        <time>2019-02-03T09:45:20.000Z</time>
      </trkpt>
      <trkpt lat="42.93773" lon="0.58368">
        <ele>969</ele>
        <time>2019-02-03T09:45:21.000Z</time>
      </trkpt>
      <trkpt lat="42.93772" lon="0.58369">
        <ele>969</ele>
        <time>2019-02-03T09:45:22.000Z</time>
      </trkpt>
      <trkpt lat="42.93772" lon="0.5837">
        <ele>969.5</ele>
        <time>2019-02-03T09:45:23.000Z</time>
      </trkpt>
      <trkpt lat="42.93771" lon="0.5837">
        <ele>970</ele>
        <time>2019-02-03T09:45:24.000Z</time>
      </trkpt>
      <trkpt lat="42.93771" lon="0.5837">
        <ele>970</ele>
        <time>2019-02-03T09:45:25.000Z</time>
      </trkpt>
      <trkpt lat="42.9377" lon="0.58371">
        <ele>970</ele>
        <time>2019-02-03T09:45:26.000Z</time>
      </trkpt>
      <trkpt lat="42.93769" lon="0.58371">
        <ele>970</ele>
        <time>2019-02-03T09:45:27.000Z</time>
      </trkpt>
      <trkpt lat="42.93769" lon="0.58371">
        <ele>970</ele>
        <time>2019-02-03T09:45:28.000Z</time>
      </trkpt>
      <trkpt lat="42.93768" lon="0.58372">
        <ele>970</ele>
        <time>2019-02-03T09:45:29.000Z</time>
      </trkpt>
      <trkpt lat="42.93768" lon="0.58372">
        <ele>970</ele>
        <time>2019-02-03T09:45:30.000Z</time>
      </trkpt>
      <trkpt lat="42.93768" lon="0.58372">
        <ele>970</ele>
        <time>2019-02-03T09:45:31.000Z</time>
      </trkpt>
      <trkpt lat="42.93767" lon="0.58372">
        <ele>970</ele>
        <time>2019-02-03T09:45:32.000Z</time>
      </trkpt>
      <trkpt lat="42.93767" lon="0.58373">
        <ele>970</ele>
        <time>2019-02-03T09:45:33.000Z</time>
      </trkpt>
      <trkpt lat="42.93766" lon="0.58373">
        <ele>970.5</ele>
        <time>2019-02-03T09:45:34.000Z</time>
      </trkpt>
      <trkpt lat="42.93766" lon="0.58373">
        <ele>971</ele>
        <time>2019-02-03T09:45:35.000Z</time>
      </trkpt>
      <trkpt lat="42.93766" lon="0.58373">
        <ele>971</ele>
        <time>2019-02-03T09:45:36.000Z</time>
      </trkpt>
      <trkpt lat="42.93766" lon="0.58373">
        <ele>971</ele>
        <time>2019-02-03T09:45:37.000Z</time>
      </trkpt>
      <trkpt lat="42.93766" lon="0.58373">
        <ele>971</ele>
        <time>2019-02-03T09:45:38.000Z</time>
      </trkpt>
      <trkpt lat="42.93766" lon="0.58373">
        <ele>971</ele>
        <time>2019-02-03T09:45:39.000Z</time>
      </trkpt>
      <trkpt lat="42.93766" lon="0.58374">
        <ele>971</ele>
        <time>2019-02-03T09:45:40.000Z</time>
      </trkpt>
      <trkpt lat="42.93766" lon="0.58374">
        <ele>971</ele>
        <time>2019-02-03T09:45:41.000Z</time>
      </trkpt>
      <trkpt lat="42.93766" lon="0.58374">
        <ele>971</ele>
        <time>2019-02-03T09:45:42.000Z</time>
      </trkpt>
      <trkpt lat="42.93766" lon="0.58374">
        <ele>971</ele>
        <time>2019-02-03T09:45:43.000Z</time>
      </trkpt>
      <trkpt lat="42.93765" lon="0.58374">
        <ele>971</ele>
        <time>2019-02-03T09:45:44.000Z</time>
      </trkpt>
      <trkpt lat="42.93765" lon="0.58374">
        <ele>971</ele>
        <time>2019-02-03T09:45:45.000Z</time>
      </trkpt>
      <trkpt lat="42.93765" lon="0.58374">
        <ele>971</ele>
        <time>2019-02-03T09:45:46.000Z</time>
      </trkpt>
      <trkpt lat="42.93765" lon="0.58374">
        <ele>971</ele>
        <time>2019-02-03T09:45:47.000Z</time>
      </trkpt>
      <trkpt lat="42.93764" lon="0.58374">
        <ele>971</ele>
        <time>2019-02-03T09:45:48.000Z</time>
      </trkpt>
      <trkpt lat="42.93764" lon="0.58374">
        <ele>971.3</ele>
        <time>2019-02-03T09:45:49.000Z</time>
      </trkpt>
      <trkpt lat="42.93764" lon="0.58374">
        <ele>971.7</ele>
        <time>2019-02-03T09:45:50.000Z</time>
      </trkpt>
      <trkpt lat="42.93764" lon="0.58374">
        <ele>972</ele>
        <time>2019-02-03T09:45:51.000Z</time>
      </trkpt>
      <trkpt lat="42.93764" lon="0.58374">
        <ele>972</ele>
        <time>2019-02-03T09:45:52.000Z</time>
      </trkpt>
      <trkpt lat="42.93763" lon="0.58375">
        <ele>972</ele>
        <time>2019-02-03T09:45:53.000Z</time>
      </trkpt>
      <trkpt lat="42.93763" lon="0.58375">
        <ele>972</ele>
        <time>2019-02-03T09:45:54.000Z</time>
      </trkpt>
      <trkpt lat="42.93763" lon="0.58375">
        <ele>972</ele>
        <time>2019-02-03T09:45:55.000Z</time>
      </trkpt>
      <trkpt lat="42.93763" lon="0.58375">
        <ele>972</ele>
        <time>2019-02-03T09:45:56.000Z</time>
      </trkpt>
      <trkpt lat="42.93763" lon="0.58375">
        <ele>972</ele>
        <time>2019-02-03T09:45:57.000Z</time>
      </trkpt>
      <trkpt lat="42.93763" lon="0.58376">
        <ele>972</ele>
        <time>2019-02-03T09:45:58.000Z</time>
      </trkpt>
      <trkpt lat="42.93762" lon="0.58376">
        <ele>972</ele>
        <time>2019-02-03T09:45:59.000Z</time>
      </trkpt>
      <trkpt lat="42.93762" lon="0.58376">
        <ele>972</ele>
        <time>2019-02-03T09:46:00.000Z</time>
      </trkpt>
      <trkpt lat="42.93762" lon="0.58375">
        <ele>972</ele>
        <time>2019-02-03T09:46:01.000Z</time>
      </trkpt>
      <trkpt lat="42.93762" lon="0.58375">
        <ele>972</ele>
        <time>2019-02-03T09:46:02.000Z</time>
      </trkpt>
      <trkpt lat="42.93761" lon="0.58375">
        <ele>972</ele>
        <time>2019-02-03T09:46:03.000Z</time>
      </trkpt>
      <trkpt lat="42.93761" lon="0.58374">
        <ele>972</ele>
        <time>2019-02-03T09:46:04.000Z</time>
      </trkpt>
      <trkpt lat="42.93761" lon="0.58374">
        <ele>972</ele>
        <time>2019-02-03T09:46:05.000Z</time>
      </trkpt>
      <trkpt lat="42.9376" lon="0.58374">
        <ele>972</ele>
        <time>2019-02-03T09:46:06.000Z</time>
      </trkpt>
      <trkpt lat="42.9376" lon="0.58373">
        <ele>972</ele>
        <time>2019-02-03T09:46:07.000Z</time>
      </trkpt>
      <trkpt lat="42.9376" lon="0.58373">
        <ele>971</ele>
        <time>2019-02-03T09:46:08.000Z</time>
      </trkpt>
      <trkpt lat="42.93759" lon="0.58373">
        <ele>971</ele>
        <time>2019-02-03T09:46:09.000Z</time>
      </trkpt>
      <trkpt lat="42.93759" lon="0.58373">
        <ele>971</ele>
        <time>2019-02-03T09:46:10.000Z</time>
      </trkpt>
      <trkpt lat="42.93759" lon="0.58373">
        <ele>971</ele>
        <time>2019-02-03T09:46:11.000Z</time>
      </trkpt>
      <trkpt lat="42.93758" lon="0.58373">
        <ele>971</ele>
        <time>2019-02-03T09:46:12.000Z</time>
      </trkpt>
      <trkpt lat="42.93758" lon="0.58373">
        <ele>971</ele>
        <time>2019-02-03T09:46:13.000Z</time>
      </trkpt>
      <trkpt lat="42.93758" lon="0.58373">
        <ele>972</ele>
        <time>2019-02-03T09:46:14.000Z</time>
      </trkpt>
      <trkpt lat="42.93757" lon="0.58373">
        <ele>972</ele>
        <time>2019-02-03T09:46:15.000Z</time>
      </trkpt>
      <trkpt lat="42.93757" lon="0.58372">
        <ele>972</ele>
        <time>2019-02-03T09:46:16.000Z</time>
      </trkpt>
      <trkpt lat="42.93756" lon="0.58372">
        <ele>972</ele>
        <time>2019-02-03T09:46:17.000Z</time>
      </trkpt>
      <trkpt lat="42.93756" lon="0.58371">
        <ele>972</ele>
        <time>2019-02-03T09:46:18.000Z</time>
      </trkpt>
      <trkpt lat="42.93756" lon="0.58371">
        <ele>972</ele>
        <time>2019-02-03T09:46:19.000Z</time>
      </trkpt>
      <trkpt lat="42.93755" lon="0.5837">
        <ele>972</ele>
        <time>2019-02-03T09:46:20.000Z</time>
      </trkpt>
      <trkpt lat="42.93755" lon="0.5837">
        <ele>972</ele>
        <time>2019-02-03T09:46:21.000Z</time>
      </trkpt>
      <trkpt lat="42.93755" lon="0.5837">
        <ele>972</ele>
        <time>2019-02-03T09:46:22.000Z</time>
      </trkpt>
      <trkpt lat="42.93755" lon="0.5837">
        <ele>972</ele>
        <time>2019-02-03T09:46:23.000Z</time>
      </trkpt>
      <trkpt lat="42.93754" lon="0.5837">
        <ele>972</ele>
        <time>2019-02-03T09:46:24.000Z</time>
      </trkpt>
      <trkpt lat="42.93754" lon="0.5837">
        <ele>972</ele>
        <time>2019-02-03T09:46:25.000Z</time>
      </trkpt>
      <trkpt lat="42.93754" lon="0.5837">
        <ele>972.5</ele>
        <time>2019-02-03T09:46:26.000Z</time>
      </trkpt>
      <trkpt lat="42.93754" lon="0.5837">
        <ele>973</ele>
        <time>2019-02-03T09:46:27.000Z</time>
      </trkpt>
      <trkpt lat="42.93753" lon="0.5837">
        <ele>973</ele>
        <time>2019-02-03T09:46:28.000Z</time>
      </trkpt>
      <trkpt lat="42.93753" lon="0.58369">
        <ele>973</ele>
        <time>2019-02-03T09:46:29.000Z</time>
      </trkpt>
      <trkpt lat="42.93753" lon="0.58369">
        <ele>973</ele>
        <time>2019-02-03T09:46:30.000Z</time>
      </trkpt>
      <trkpt lat="42.93752" lon="0.58369">
        <ele>973</ele>
        <time>2019-02-03T09:46:31.000Z</time>
      </trkpt>
      <trkpt lat="42.93752" lon="0.58368">
        <ele>973</ele>
        <time>2019-02-03T09:46:32.000Z</time>
      </trkpt>
      <trkpt lat="42.93752" lon="0.58368">
        <ele>973</ele>
        <time>2019-02-03T09:46:33.000Z</time>
      </trkpt>
      <trkpt lat="42.93751" lon="0.58367">
        <ele>973</ele>
        <time>2019-02-03T09:46:34.000Z</time>
      </trkpt>
      <trkpt lat="42.93751" lon="0.58366">
        <ele>973</ele>
        <time>2019-02-03T09:46:35.000Z</time>
      </trkpt>
      <trkpt lat="42.93751" lon="0.58366">
        <ele>973</ele>
        <time>2019-02-03T09:46:36.000Z</time>
      </trkpt>
      <trkpt lat="42.9375" lon="0.58365">
        <ele>973</ele>
        <time>2019-02-03T09:46:37.000Z</time>
      </trkpt>
      <trkpt lat="42.9375" lon="0.58364">
        <ele>973</ele>
        <time>2019-02-03T09:46:38.000Z</time>
      </trkpt>
      <trkpt lat="42.9375" lon="0.58364">
        <ele>973</ele>
        <time>2019-02-03T09:46:39.000Z</time>
      </trkpt>
      <trkpt lat="42.93749" lon="0.58363">
        <ele>973</ele>
        <time>2019-02-03T09:46:40.000Z</time>
      </trkpt>
      <trkpt lat="42.93749" lon="0.58362">
        <ele>973</ele>
        <time>2019-02-03T09:46:41.000Z</time>
      </trkpt>
      <trkpt lat="42.93749" lon="0.58361">
        <ele>973</ele>
        <time>2019-02-03T09:46:42.000Z</time>
      </trkpt>
      <trkpt lat="42.93749" lon="0.58361">
        <ele>973</ele>
        <time>2019-02-03T09:46:43.000Z</time>
      </trkpt>
      <trkpt lat="42.93748" lon="0.5836">
        <ele>973</ele>
        <time>2019-02-03T09:46:44.000Z</time>
      </trkpt>
      <trkpt lat="42.93748" lon="0.58359">
        <ele>973.3</ele>
        <time>2019-02-03T09:46:45.000Z</time>
      </trkpt>
      <trkpt lat="42.93748" lon="0.58358">
        <ele>973.7</ele>
        <time>2019-02-03T09:46:46.000Z</time>
      </trkpt>
      <trkpt lat="42.93748" lon="0.58358">
        <ele>974</ele>
        <time>2019-02-03T09:46:47.000Z</time>
      </trkpt>
      <trkpt lat="42.93747" lon="0.58357">
        <ele>974</ele>
        <time>2019-02-03T09:46:48.000Z</time>
      </trkpt>
      <trkpt lat="42.93747" lon="0.58356">
        <ele>974</ele>
        <time>2019-02-03T09:46:49.000Z</time>
      </trkpt>
      <trkpt lat="42.93747" lon="0.58356">
        <ele>974</ele>
        <time>2019-02-03T09:46:50.000Z</time>
      </trkpt>
      <trkpt lat="42.93746" lon="0.58355">
        <ele>974</ele>
        <time>2019-02-03T09:46:51.000Z</time>
      </trkpt>
      <trkpt lat="42.93746" lon="0.58355">
        <ele>974</ele>
        <time>2019-02-03T09:46:52.000Z</time>
      </trkpt>
      <trkpt lat="42.93746" lon="0.58354">
        <ele>974</ele>
        <time>2019-02-03T09:46:53.000Z</time>
      </trkpt>
      <trkpt lat="42.93745" lon="0.58354">
        <ele>974</ele>
        <time>2019-02-03T09:46:54.000Z</time>
      </trkpt>
      <trkpt lat="42.93745" lon="0.58353">
        <ele>974.3</ele>
        <time>2019-02-03T09:46:55.000Z</time>
      </trkpt>
      <trkpt lat="42.93744" lon="0.58353">
        <ele>974.7</ele>
        <time>2019-02-03T09:46:56.000Z</time>
      </trkpt>
      <trkpt lat="42.93744" lon="0.58353">
        <ele>975</ele>
        <time>2019-02-03T09:46:57.000Z</time>
      </trkpt>
      <trkpt lat="42.93743" lon="0.58353">
        <ele>975</ele>
        <time>2019-02-03T09:46:58.000Z</time>
      </trkpt>
      <trkpt lat="42.93743" lon="0.58352">
        <ele>975</ele>
        <time>2019-02-03T09:46:59.000Z</time>
      </trkpt>
      <trkpt lat="42.93743" lon="0.58352">
        <ele>975</ele>
        <time>2019-02-03T09:47:00.000Z</time>
      </trkpt>
      <trkpt lat="42.93742" lon="0.58351">
        <ele>975</ele>
        <time>2019-02-03T09:47:01.000Z</time>
      </trkpt>
      <trkpt lat="42.93742" lon="0.58351">
        <ele>975</ele>
        <time>2019-02-03T09:47:02.000Z</time>
      </trkpt>
      <trkpt lat="42.93742" lon="0.5835">
        <ele>975</ele>
        <time>2019-02-03T09:47:03.000Z</time>
      </trkpt>
      <trkpt lat="42.93741" lon="0.5835">
        <ele>975</ele>
        <time>2019-02-03T09:47:04.000Z</time>
      </trkpt>
      <trkpt lat="42.93741" lon="0.58349">
        <ele>975</ele>
        <time>2019-02-03T09:47:05.000Z</time>
      </trkpt>
      <trkpt lat="42.93741" lon="0.58349">
        <ele>975.5</ele>
        <time>2019-02-03T09:47:06.000Z</time>
      </trkpt>
      <trkpt lat="42.93741" lon="0.58348">
        <ele>976</ele>
        <time>2019-02-03T09:47:07.000Z</time>
      </trkpt>
      <trkpt lat="42.9374" lon="0.58348">
        <ele>976</ele>
        <time>2019-02-03T09:47:08.000Z</time>
      </trkpt>
      <trkpt lat="42.9374" lon="0.58347">
        <ele>976</ele>
        <time>2019-02-03T09:47:09.000Z</time>
      </trkpt>
      <trkpt lat="42.9374" lon="0.58347">
        <ele>976</ele>
        <time>2019-02-03T09:47:10.000Z</time>
      </trkpt>
      <trkpt lat="42.93739" lon="0.58347">
        <ele>976</ele>
        <time>2019-02-03T09:47:11.000Z</time>
      </trkpt>
      <trkpt lat="42.93739" lon="0.58347">
        <ele>976</ele>
        <time>2019-02-03T09:47:12.000Z</time>
      </trkpt>
      <trkpt lat="42.93739" lon="0.58347">
        <ele>976</ele>
        <time>2019-02-03T09:47:13.000Z</time>
      </trkpt>
      <trkpt lat="42.93738" lon="0.58346">
        <ele>976</ele>
        <time>2019-02-03T09:47:14.000Z</time>
      </trkpt>
      <trkpt lat="42.93738" lon="0.58346">
        <ele>976.3</ele>
        <time>2019-02-03T09:47:15.000Z</time>
      </trkpt>
      <trkpt lat="42.93738" lon="0.58346">
        <ele>976.7</ele>
        <time>2019-02-03T09:47:16.000Z</time>
      </trkpt>
      <trkpt lat="42.93737" lon="0.58346">
        <ele>977</ele>
        <time>2019-02-03T09:47:17.000Z</time>
      </trkpt>
      <trkpt lat="42.93737" lon="0.58346">
        <ele>977</ele>
        <time>2019-02-03T09:47:18.000Z</time>
      </trkpt>
      <trkpt lat="42.93736" lon="0.58346">
        <ele>977</ele>
        <time>2019-02-03T09:47:19.000Z</time>
      </trkpt>
      <trkpt lat="42.93735" lon="0.58345">
        <ele>977</ele>
        <time>2019-02-03T09:47:20.000Z</time>
      </trkpt>
      <trkpt lat="42.93735" lon="0.58345">
        <ele>977</ele>
        <time>2019-02-03T09:47:21.000Z</time>
      </trkpt>
      <trkpt lat="42.93734" lon="0.58345">
        <ele>977</ele>
        <time>2019-02-03T09:47:22.000Z</time>
      </trkpt>
      <trkpt lat="42.93733" lon="0.58344">
        <ele>977</ele>
        <time>2019-02-03T09:47:23.000Z</time>
      </trkpt>
      <trkpt lat="42.93733" lon="0.58344">
        <ele>977</ele>
        <time>2019-02-03T09:47:24.000Z</time>
      </trkpt>
      <trkpt lat="42.93732" lon="0.58344">
        <ele>977</ele>
        <time>2019-02-03T09:47:25.000Z</time>
      </trkpt>
      <trkpt lat="42.93731" lon="0.58343">
        <ele>977</ele>
        <time>2019-02-03T09:47:26.000Z</time>
      </trkpt>
      <trkpt lat="42.93731" lon="0.58343">
        <ele>977</ele>
        <time>2019-02-03T09:47:27.000Z</time>
      </trkpt>
      <trkpt lat="42.9373" lon="0.58342">
        <ele>977</ele>
        <time>2019-02-03T09:47:28.000Z</time>
      </trkpt>
      <trkpt lat="42.93729" lon="0.58342">
        <ele>977</ele>
        <time>2019-02-03T09:47:29.000Z</time>
      </trkpt>
      <trkpt lat="42.93729" lon="0.58341">
        <ele>977</ele>
        <time>2019-02-03T09:47:30.000Z</time>
      </trkpt>
      <trkpt lat="42.93728" lon="0.58341">
        <ele>977</ele>
        <time>2019-02-03T09:47:31.000Z</time>
      </trkpt>
      <trkpt lat="42.93727" lon="0.5834">
        <ele>977</ele>
        <time>2019-02-03T09:47:32.000Z</time>
      </trkpt>
      <trkpt lat="42.93727" lon="0.5834">
        <ele>977</ele>
        <time>2019-02-03T09:47:33.000Z</time>
      </trkpt>
      <trkpt lat="42.93726" lon="0.5834">
        <ele>977</ele>
        <time>2019-02-03T09:47:34.000Z</time>
      </trkpt>
      <trkpt lat="42.93726" lon="0.58339">
        <ele>977</ele>
        <time>2019-02-03T09:47:35.000Z</time>
      </trkpt>
      <trkpt lat="42.93725" lon="0.58339">
        <ele>977</ele>
        <time>2019-02-03T09:47:36.000Z</time>
      </trkpt>
      <trkpt lat="42.93724" lon="0.58338">
        <ele>977</ele>
        <time>2019-02-03T09:47:37.000Z</time>
      </trkpt>
      <trkpt lat="42.93724" lon="0.58338">
        <ele>977</ele>
        <time>2019-02-03T09:47:38.000Z</time>
      </trkpt>
      <trkpt lat="42.93723" lon="0.58338">
        <ele>977</ele>
        <time>2019-02-03T09:47:39.000Z</time>
      </trkpt>
      <trkpt lat="42.93722" lon="0.58338">
        <ele>977</ele>
        <time>2019-02-03T09:47:40.000Z</time>
      </trkpt>
      <trkpt lat="42.93721" lon="0.58338">
        <ele>977</ele>
        <time>2019-02-03T09:47:41.000Z</time>
      </trkpt>
      <trkpt lat="42.9372" lon="0.58338">
        <ele>977</ele>
        <time>2019-02-03T09:47:42.000Z</time>
      </trkpt>
      <trkpt lat="42.9372" lon="0.58338">
        <ele>977</ele>
        <time>2019-02-03T09:47:43.000Z</time>
      </trkpt>
      <trkpt lat="42.93719" lon="0.58338">
        <ele>977</ele>
        <time>2019-02-03T09:47:44.000Z</time>
      </trkpt>
      <trkpt lat="42.93718" lon="0.58338">
        <ele>977</ele>
        <time>2019-02-03T09:47:45.000Z</time>
      </trkpt>
      <trkpt lat="42.93717" lon="0.58337">
        <ele>977</ele>
        <time>2019-02-03T09:47:46.000Z</time>
      </trkpt>
      <trkpt lat="42.93717" lon="0.58337">
        <ele>977</ele>
        <time>2019-02-03T09:47:47.000Z</time>
      </trkpt>
      <trkpt lat="42.93716" lon="0.58337">
        <ele>977</ele>
        <time>2019-02-03T09:47:48.000Z</time>
      </trkpt>
      <trkpt lat="42.93716" lon="0.58337">
        <ele>977</ele>
        <time>2019-02-03T09:47:49.000Z</time>
      </trkpt>
      <trkpt lat="42.93715" lon="0.58336">
        <ele>977</ele>
        <time>2019-02-03T09:47:50.000Z</time>
      </trkpt>
      <trkpt lat="42.93715" lon="0.58336">
        <ele>977</ele>
        <time>2019-02-03T09:47:51.000Z</time>
      </trkpt>
      <trkpt lat="42.93715" lon="0.58335">
        <ele>977</ele>
        <time>2019-02-03T09:47:52.000Z</time>
      </trkpt>
      <trkpt lat="42.93714" lon="0.58335">
        <ele>977</ele>
        <time>2019-02-03T09:47:53.000Z</time>
      </trkpt>
      <trkpt lat="42.93714" lon="0.58335">
        <ele>977</ele>
        <time>2019-02-03T09:47:54.000Z</time>
      </trkpt>
      <trkpt lat="42.93714" lon="0.58335">
        <ele>977</ele>
        <time>2019-02-03T09:47:55.000Z</time>
      </trkpt>
      <trkpt lat="42.93713" lon="0.58335">
        <ele>977.5</ele>
        <time>2019-02-03T09:47:56.000Z</time>
      </trkpt>
      <trkpt lat="42.93713" lon="0.58336">
        <ele>978</ele>
        <time>2019-02-03T09:47:57.000Z</time>
      </trkpt>
      <trkpt lat="42.93713" lon="0.58336">
        <ele>978</ele>
        <time>2019-02-03T09:47:58.000Z</time>
      </trkpt>
      <trkpt lat="42.93712" lon="0.58336">
        <ele>978</ele>
        <time>2019-02-03T09:47:59.000Z</time>
      </trkpt>
      <trkpt lat="42.93711" lon="0.58337">
        <ele>978</ele>
        <time>2019-02-03T09:48:00.000Z</time>
      </trkpt>
      <trkpt lat="42.9371" lon="0.58337">
        <ele>978</ele>
        <time>2019-02-03T09:48:01.000Z</time>
      </trkpt>
      <trkpt lat="42.9371" lon="0.58337">
        <ele>978</ele>
        <time>2019-02-03T09:48:02.000Z</time>
      </trkpt>
      <trkpt lat="42.93709" lon="0.58338">
        <ele>978</ele>
        <time>2019-02-03T09:48:03.000Z</time>
      </trkpt>
      <trkpt lat="42.93708" lon="0.58338">
        <ele>978</ele>
        <time>2019-02-03T09:48:04.000Z</time>
      </trkpt>
      <trkpt lat="42.93707" lon="0.58338">
        <ele>978</ele>
        <time>2019-02-03T09:48:05.000Z</time>
      </trkpt>
      <trkpt lat="42.93706" lon="0.58338">
        <ele>978</ele>
        <time>2019-02-03T09:48:06.000Z</time>
      </trkpt>
      <trkpt lat="42.93706" lon="0.58339">
        <ele>978</ele>
        <time>2019-02-03T09:48:07.000Z</time>
      </trkpt>
      <trkpt lat="42.93705" lon="0.58339">
        <ele>978</ele>
        <time>2019-02-03T09:48:08.000Z</time>
      </trkpt>
      <trkpt lat="42.93704" lon="0.58339">
        <ele>978</ele>
        <time>2019-02-03T09:48:09.000Z</time>
      </trkpt>
      <trkpt lat="42.93704" lon="0.58339">
        <ele>978</ele>
        <time>2019-02-03T09:48:10.000Z</time>
      </trkpt>
      <trkpt lat="42.93703" lon="0.58339">
        <ele>978</ele>
        <time>2019-02-03T09:48:11.000Z</time>
      </trkpt>
      <trkpt lat="42.93703" lon="0.58339">
        <ele>978</ele>
        <time>2019-02-03T09:48:12.000Z</time>
      </trkpt>
      <trkpt lat="42.93702" lon="0.58339">
        <ele>978</ele>
        <time>2019-02-03T09:48:13.000Z</time>
      </trkpt>
      <trkpt lat="42.93702" lon="0.58339">
        <ele>978.5</ele>
        <time>2019-02-03T09:48:14.000Z</time>
      </trkpt>
      <trkpt lat="42.93701" lon="0.58339">
        <ele>979</ele>
        <time>2019-02-03T09:48:15.000Z</time>
      </trkpt>
      <trkpt lat="42.937" lon="0.5834">
        <ele>979</ele>
        <time>2019-02-03T09:48:16.000Z</time>
      </trkpt>
      <trkpt lat="42.937" lon="0.5834">
        <ele>979</ele>
        <time>2019-02-03T09:48:17.000Z</time>
      </trkpt>
      <trkpt lat="42.93699" lon="0.5834">
        <ele>979</ele>
        <time>2019-02-03T09:48:18.000Z</time>
      </trkpt>
      <trkpt lat="42.93698" lon="0.5834">
        <ele>979</ele>
        <time>2019-02-03T09:48:19.000Z</time>
      </trkpt>
      <trkpt lat="42.93697" lon="0.58341">
        <ele>979</ele>
        <time>2019-02-03T09:48:20.000Z</time>
      </trkpt>
      <trkpt lat="42.93696" lon="0.58341">
        <ele>979</ele>
        <time>2019-02-03T09:48:21.000Z</time>
      </trkpt>
      <trkpt lat="42.93695" lon="0.58342">
        <ele>979</ele>
        <time>2019-02-03T09:48:22.000Z</time>
      </trkpt>
      <trkpt lat="42.93694" lon="0.58342">
        <ele>979</ele>
        <time>2019-02-03T09:48:23.000Z</time>
      </trkpt>
      <trkpt lat="42.93694" lon="0.58342">
        <ele>979</ele>
        <time>2019-02-03T09:48:24.000Z</time>
      </trkpt>
      <trkpt lat="42.93694" lon="0.58343">
        <ele>979</ele>
        <time>2019-02-03T09:48:25.000Z</time>
      </trkpt>
      <trkpt lat="42.93693" lon="0.58343">
        <ele>979.5</ele>
        <time>2019-02-03T09:48:26.000Z</time>
      </trkpt>
      <trkpt lat="42.93693" lon="0.58344">
        <ele>980</ele>
        <time>2019-02-03T09:48:27.000Z</time>
      </trkpt>
      <trkpt lat="42.93692" lon="0.58344">
        <ele>980</ele>
        <time>2019-02-03T09:48:28.000Z</time>
      </trkpt>
      <trkpt lat="42.93691" lon="0.58345">
        <ele>980</ele>
        <time>2019-02-03T09:48:29.000Z</time>
      </trkpt>
      <trkpt lat="42.9369" lon="0.58345">
        <ele>980</ele>
        <time>2019-02-03T09:48:30.000Z</time>
      </trkpt>
      <trkpt lat="42.93689" lon="0.58345">
        <ele>980</ele>
        <time>2019-02-03T09:48:31.000Z</time>
      </trkpt>
      <trkpt lat="42.93688" lon="0.58346">
        <ele>980</ele>
        <time>2019-02-03T09:48:32.000Z</time>
      </trkpt>
      <trkpt lat="42.93687" lon="0.58346">
        <ele>980</ele>
        <time>2019-02-03T09:48:33.000Z</time>
      </trkpt>
      <trkpt lat="42.93686" lon="0.58346">
        <ele>980</ele>
        <time>2019-02-03T09:48:34.000Z</time>
      </trkpt>
      <trkpt lat="42.93685" lon="0.58346">
        <ele>980</ele>
        <time>2019-02-03T09:48:35.000Z</time>
      </trkpt>
      <trkpt lat="42.93684" lon="0.58346">
        <ele>980.5</ele>
        <time>2019-02-03T09:48:36.000Z</time>
      </trkpt>
      <trkpt lat="42.93683" lon="0.58346">
        <ele>981</ele>
        <time>2019-02-03T09:48:37.000Z</time>
      </trkpt>
      <trkpt lat="42.93683" lon="0.58346">
        <ele>981</ele>
        <time>2019-02-03T09:48:38.000Z</time>
      </trkpt>
      <trkpt lat="42.93682" lon="0.58346">
        <ele>981</ele>
        <time>2019-02-03T09:48:39.000Z</time>
      </trkpt>
      <trkpt lat="42.93681" lon="0.58346">
        <ele>981</ele>
        <time>2019-02-03T09:48:40.000Z</time>
      </trkpt>
      <trkpt lat="42.93681" lon="0.58346">
        <ele>981</ele>
        <time>2019-02-03T09:48:41.000Z</time>
      </trkpt>
      <trkpt lat="42.9368" lon="0.58346">
        <ele>981</ele>
        <time>2019-02-03T09:48:42.000Z</time>
      </trkpt>
      <trkpt lat="42.93679" lon="0.58346">
        <ele>981</ele>
        <time>2019-02-03T09:48:43.000Z</time>
      </trkpt>
      <trkpt lat="42.93678" lon="0.58347">
        <ele>981</ele>
        <time>2019-02-03T09:48:44.000Z</time>
      </trkpt>
      <trkpt lat="42.93678" lon="0.58347">
        <ele>981</ele>
        <time>2019-02-03T09:48:45.000Z</time>
      </trkpt>
      <trkpt lat="42.93677" lon="0.58347">
        <ele>981</ele>
        <time>2019-02-03T09:48:46.000Z</time>
      </trkpt>
      <trkpt lat="42.93676" lon="0.58348">
        <ele>981</ele>
        <time>2019-02-03T09:48:47.000Z</time>
      </trkpt>
      <trkpt lat="42.93676" lon="0.58348">
        <ele>982</ele>
        <time>2019-02-03T09:48:48.000Z</time>
      </trkpt>
      <trkpt lat="42.93675" lon="0.58349">
        <ele>982</ele>
        <time>2019-02-03T09:48:49.000Z</time>
      </trkpt>
      <trkpt lat="42.93674" lon="0.58349">
        <ele>982</ele>
        <time>2019-02-03T09:48:50.000Z</time>
      </trkpt>
      <trkpt lat="42.93674" lon="0.5835">
        <ele>982</ele>
        <time>2019-02-03T09:48:51.000Z</time>
      </trkpt>
      <trkpt lat="42.93674" lon="0.5835">
        <ele>982</ele>
        <time>2019-02-03T09:48:52.000Z</time>
      </trkpt>
      <trkpt lat="42.93673" lon="0.58351">
        <ele>982</ele>
        <time>2019-02-03T09:48:53.000Z</time>
      </trkpt>
      <trkpt lat="42.93673" lon="0.58351">
        <ele>982</ele>
        <time>2019-02-03T09:48:54.000Z</time>
      </trkpt>
      <trkpt lat="42.93673" lon="0.58352">
        <ele>982</ele>
        <time>2019-02-03T09:48:55.000Z</time>
      </trkpt>
      <trkpt lat="42.93673" lon="0.58352">
        <ele>982</ele>
        <time>2019-02-03T09:48:56.000Z</time>
      </trkpt>
      <trkpt lat="42.93673" lon="0.58352">
        <ele>982.5</ele>
        <time>2019-02-03T09:48:57.000Z</time>
      </trkpt>
      <trkpt lat="42.93673" lon="0.58351">
        <ele>983</ele>
        <time>2019-02-03T09:48:58.000Z</time>
      </trkpt>
      <trkpt lat="42.93674" lon="0.58351">
        <ele>983</ele>
        <time>2019-02-03T09:48:59.000Z</time>
      </trkpt>
      <trkpt lat="42.93674" lon="0.58351">
        <ele>983</ele>
        <time>2019-02-03T09:49:00.000Z</time>
      </trkpt>
      <trkpt lat="42.93674" lon="0.58351">
        <ele>983</ele>
        <time>2019-02-03T09:49:01.000Z</time>
      </trkpt>
      <trkpt lat="42.93674" lon="0.58351">
        <ele>983</ele>
        <time>2019-02-03T09:49:02.000Z</time>
      </trkpt>
      <trkpt lat="42.93674" lon="0.58351">
        <ele>983</ele>
        <time>2019-02-03T09:49:03.000Z</time>
      </trkpt>
      <trkpt lat="42.93674" lon="0.58351">
        <ele>983</ele>
        <time>2019-02-03T09:49:04.000Z</time>
      </trkpt>
      <trkpt lat="42.93673" lon="0.58352">
        <ele>983</ele>
        <time>2019-02-03T09:49:05.000Z</time>
      </trkpt>
      <trkpt lat="42.93673" lon="0.58352">
        <ele>983</ele>
        <time>2019-02-03T09:49:06.000Z</time>
      </trkpt>
      <trkpt lat="42.93673" lon="0.58353">
        <ele>983</ele>
        <time>2019-02-03T09:49:07.000Z</time>
      </trkpt>
      <trkpt lat="42.93672" lon="0.58353">
        <ele>983</ele>
        <time>2019-02-03T09:49:08.000Z</time>
      </trkpt>
      <trkpt lat="42.93671" lon="0.58354">
        <ele>983</ele>
        <time>2019-02-03T09:49:09.000Z</time>
      </trkpt>
      <trkpt lat="42.93671" lon="0.58355">
        <ele>983.5</ele>
        <time>2019-02-03T09:49:10.000Z</time>
      </trkpt>
      <trkpt lat="42.9367" lon="0.58355">
        <ele>984</ele>
        <time>2019-02-03T09:49:11.000Z</time>
      </trkpt>
      <trkpt lat="42.93669" lon="0.58356">
        <ele>984</ele>
        <time>2019-02-03T09:49:12.000Z</time>
      </trkpt>
      <trkpt lat="42.93669" lon="0.58356">
        <ele>984</ele>
        <time>2019-02-03T09:49:13.000Z</time>
      </trkpt>
      <trkpt lat="42.93668" lon="0.58356">
        <ele>984</ele>
        <time>2019-02-03T09:49:14.000Z</time>
      </trkpt>
      <trkpt lat="42.93668" lon="0.58356">
        <ele>984</ele>
        <time>2019-02-03T09:49:15.000Z</time>
      </trkpt>
      <trkpt lat="42.93668" lon="0.58356">
        <ele>984</ele>
        <time>2019-02-03T09:49:16.000Z</time>
      </trkpt>
      <trkpt lat="42.93666" lon="0.58356">
        <ele>984</ele>
        <time>2019-02-03T09:49:17.000Z</time>
      </trkpt>
      <trkpt lat="42.93664" lon="0.58357">
        <ele>984.3</ele>
        <time>2019-02-03T09:49:18.000Z</time>
      </trkpt>
      <trkpt lat="42.93662" lon="0.58357">
        <ele>984.7</ele>
        <time>2019-02-03T09:49:19.000Z</time>
      </trkpt>
      <trkpt lat="42.93662" lon="0.58357">
        <ele>985</ele>
        <time>2019-02-03T09:49:20.000Z</time>
      </trkpt>
      <trkpt lat="42.93661" lon="0.58357">
        <ele>985</ele>
        <time>2019-02-03T09:49:21.000Z</time>
      </trkpt>
      <trkpt lat="42.9366" lon="0.58357">
        <ele>985</ele>
        <time>2019-02-03T09:49:22.000Z</time>
      </trkpt>
      <trkpt lat="42.93659" lon="0.58357">
        <ele>985</ele>
        <time>2019-02-03T09:49:23.000Z</time>
      </trkpt>
      <trkpt lat="42.93659" lon="0.58358">
        <ele>985</ele>
        <time>2019-02-03T09:49:24.000Z</time>
      </trkpt>
      <trkpt lat="42.93658" lon="0.58358">
        <ele>985</ele>
        <time>2019-02-03T09:49:25.000Z</time>
      </trkpt>
      <trkpt lat="42.93657" lon="0.58358">
        <ele>985</ele>
        <time>2019-02-03T09:49:26.000Z</time>
      </trkpt>
      <trkpt lat="42.93656" lon="0.58359">
        <ele>985</ele>
        <time>2019-02-03T09:49:27.000Z</time>
      </trkpt>
      <trkpt lat="42.93655" lon="0.58359">
        <ele>985</ele>
        <time>2019-02-03T09:49:28.000Z</time>
      </trkpt>
      <trkpt lat="42.93654" lon="0.58359">
        <ele>985</ele>
        <time>2019-02-03T09:49:29.000Z</time>
      </trkpt>
      <trkpt lat="42.93653" lon="0.58359">
        <ele>985</ele>
        <time>2019-02-03T09:49:30.000Z</time>
      </trkpt>
      <trkpt lat="42.93653" lon="0.5836">
        <ele>985</ele>
        <time>2019-02-03T09:49:31.000Z</time>
      </trkpt>
      <trkpt lat="42.93652" lon="0.5836">
        <ele>985</ele>
        <time>2019-02-03T09:49:32.000Z</time>
      </trkpt>
      <trkpt lat="42.93651" lon="0.5836">
        <ele>985.5</ele>
        <time>2019-02-03T09:49:33.000Z</time>
      </trkpt>
      <trkpt lat="42.9365" lon="0.5836">
        <ele>986</ele>
        <time>2019-02-03T09:49:34.000Z</time>
      </trkpt>
      <trkpt lat="42.9365" lon="0.5836">
        <ele>986</ele>
        <time>2019-02-03T09:49:35.000Z</time>
      </trkpt>
      <trkpt lat="42.93649" lon="0.58359">
        <ele>986</ele>
        <time>2019-02-03T09:49:36.000Z</time>
      </trkpt>
      <trkpt lat="42.93648" lon="0.58359">
        <ele>986</ele>
        <time>2019-02-03T09:49:37.000Z</time>
      </trkpt>
      <trkpt lat="42.93648" lon="0.58359">
        <ele>986</ele>
        <time>2019-02-03T09:49:38.000Z</time>
      </trkpt>
      <trkpt lat="42.93647" lon="0.58359">
        <ele>986</ele>
        <time>2019-02-03T09:49:39.000Z</time>
      </trkpt>
      <trkpt lat="42.93647" lon="0.58358">
        <ele>986</ele>
        <time>2019-02-03T09:49:40.000Z</time>
      </trkpt>
      <trkpt lat="42.93646" lon="0.58358">
        <ele>986</ele>
        <time>2019-02-03T09:49:41.000Z</time>
      </trkpt>
      <trkpt lat="42.93646" lon="0.58357">
        <ele>986</ele>
        <time>2019-02-03T09:49:42.000Z</time>
      </trkpt>
      <trkpt lat="42.93646" lon="0.58357">
        <ele>986</ele>
        <time>2019-02-03T09:49:43.000Z</time>
      </trkpt>
      <trkpt lat="42.93645" lon="0.58357">
        <ele>986.3</ele>
        <time>2019-02-03T09:49:44.000Z</time>
      </trkpt>
      <trkpt lat="42.93645" lon="0.58356">
        <ele>986.7</ele>
        <time>2019-02-03T09:49:45.000Z</time>
      </trkpt>
      <trkpt lat="42.93645" lon="0.58356">
        <ele>987</ele>
        <time>2019-02-03T09:49:46.000Z</time>
      </trkpt>
      <trkpt lat="42.93644" lon="0.58356">
        <ele>987</ele>
        <time>2019-02-03T09:49:47.000Z</time>
      </trkpt>
      <trkpt lat="42.93644" lon="0.58355">
        <ele>987</ele>
        <time>2019-02-03T09:49:48.000Z</time>
      </trkpt>
      <trkpt lat="42.93644" lon="0.58355">
        <ele>987</ele>
        <time>2019-02-03T09:49:49.000Z</time>
      </trkpt>
      <trkpt lat="42.93643" lon="0.58355">
        <ele>987</ele>
        <time>2019-02-03T09:49:50.000Z</time>
      </trkpt>
      <trkpt lat="42.93643" lon="0.58355">
        <ele>987</ele>
        <time>2019-02-03T09:49:51.000Z</time>
      </trkpt>
      <trkpt lat="42.93642" lon="0.58355">
        <ele>987</ele>
        <time>2019-02-03T09:49:52.000Z</time>
      </trkpt>
      <trkpt lat="42.93642" lon="0.58354">
        <ele>987</ele>
        <time>2019-02-03T09:49:53.000Z</time>
      </trkpt>
      <trkpt lat="42.93641" lon="0.58354">
        <ele>987</ele>
        <time>2019-02-03T09:49:54.000Z</time>
      </trkpt>
      <trkpt lat="42.93641" lon="0.58354">
        <ele>987</ele>
        <time>2019-02-03T09:49:55.000Z</time>
      </trkpt>
      <trkpt lat="42.9364" lon="0.58354">
        <ele>987</ele>
        <time>2019-02-03T09:49:56.000Z</time>
      </trkpt>
      <trkpt lat="42.9364" lon="0.58353">
        <ele>987</ele>
        <time>2019-02-03T09:49:57.000Z</time>
      </trkpt>
      <trkpt lat="42.93639" lon="0.58353">
        <ele>987</ele>
        <time>2019-02-03T09:49:58.000Z</time>
      </trkpt>
      <trkpt lat="42.93639" lon="0.58353">
        <ele>987</ele>
        <time>2019-02-03T09:49:59.000Z</time>
      </trkpt>
      <trkpt lat="42.93639" lon="0.58352">
        <ele>987.3</ele>
        <time>2019-02-03T09:50:00.000Z</time>
      </trkpt>
      <trkpt lat="42.93638" lon="0.58352">
        <ele>987.7</ele>
        <time>2019-02-03T09:50:01.000Z</time>
      </trkpt>
      <trkpt lat="42.93638" lon="0.58351">
        <ele>988</ele>
        <time>2019-02-03T09:50:02.000Z</time>
      </trkpt>
      <trkpt lat="42.93637" lon="0.58351">
        <ele>988</ele>
        <time>2019-02-03T09:50:03.000Z</time>
      </trkpt>
      <trkpt lat="42.93637" lon="0.5835">
        <ele>988</ele>
        <time>2019-02-03T09:50:04.000Z</time>
      </trkpt>
      <trkpt lat="42.93637" lon="0.5835">
        <ele>988</ele>
        <time>2019-02-03T09:50:05.000Z</time>
      </trkpt>
      <trkpt lat="42.93636" lon="0.5835">
        <ele>988</ele>
        <time>2019-02-03T09:50:06.000Z</time>
      </trkpt>
      <trkpt lat="42.93636" lon="0.58349">
        <ele>988</ele>
        <time>2019-02-03T09:50:07.000Z</time>
      </trkpt>
      <trkpt lat="42.93635" lon="0.58349">
        <ele>988</ele>
        <time>2019-02-03T09:50:08.000Z</time>
      </trkpt>
      <trkpt lat="42.93634" lon="0.58349">
        <ele>988</ele>
        <time>2019-02-03T09:50:09.000Z</time>
      </trkpt>
      <trkpt lat="42.93634" lon="0.58349">
        <ele>988</ele>
        <time>2019-02-03T09:50:10.000Z</time>
      </trkpt>
      <trkpt lat="42.93633" lon="0.58348">
        <ele>988</ele>
        <time>2019-02-03T09:50:11.000Z</time>
      </trkpt>
      <trkpt lat="42.93632" lon="0.58349">
        <ele>988</ele>
        <time>2019-02-03T09:50:12.000Z</time>
      </trkpt>
      <trkpt lat="42.93631" lon="0.58349">
        <ele>988.5</ele>
        <time>2019-02-03T09:50:13.000Z</time>
      </trkpt>
      <trkpt lat="42.9363" lon="0.58349">
        <ele>989</ele>
        <time>2019-02-03T09:50:14.000Z</time>
      </trkpt>
      <trkpt lat="42.93629" lon="0.58349">
        <ele>989</ele>
        <time>2019-02-03T09:50:15.000Z</time>
      </trkpt>
      <trkpt lat="42.93628" lon="0.58349">
        <ele>989</ele>
        <time>2019-02-03T09:50:16.000Z</time>
      </trkpt>
      <trkpt lat="42.93627" lon="0.58349">
        <ele>989</ele>
        <time>2019-02-03T09:50:17.000Z</time>
      </trkpt>
      <trkpt lat="42.93626" lon="0.58349">
        <ele>989</ele>
        <time>2019-02-03T09:50:18.000Z</time>
      </trkpt>
      <trkpt lat="42.93626" lon="0.58349">
        <ele>989</ele>
        <time>2019-02-03T09:50:19.000Z</time>
      </trkpt>
      <trkpt lat="42.93625" lon="0.58349">
        <ele>989</ele>
        <time>2019-02-03T09:50:20.000Z</time>
      </trkpt>
      <trkpt lat="42.93624" lon="0.58349">
        <ele>989.5</ele>
        <time>2019-02-03T09:50:21.000Z</time>
      </trkpt>
      <trkpt lat="42.93624" lon="0.58349">
        <ele>990</ele>
        <time>2019-02-03T09:50:22.000Z</time>
      </trkpt>
      <trkpt lat="42.93623" lon="0.58349">
        <ele>990</ele>
        <time>2019-02-03T09:50:23.000Z</time>
      </trkpt>
      <trkpt lat="42.93622" lon="0.58349">
        <ele>990</ele>
        <time>2019-02-03T09:50:24.000Z</time>
      </trkpt>
      <trkpt lat="42.93622" lon="0.58348">
        <ele>990</ele>
        <time>2019-02-03T09:50:25.000Z</time>
      </trkpt>
      <trkpt lat="42.93621" lon="0.58348">
        <ele>990</ele>
        <time>2019-02-03T09:50:26.000Z</time>
      </trkpt>
      <trkpt lat="42.93621" lon="0.58348">
        <ele>990</ele>
        <time>2019-02-03T09:50:27.000Z</time>
      </trkpt>
      <trkpt lat="42.9362" lon="0.58348">
        <ele>990</ele>
        <time>2019-02-03T09:50:28.000Z</time>
      </trkpt>
      <trkpt lat="42.93619" lon="0.58347">
        <ele>990</ele>
        <time>2019-02-03T09:50:29.000Z</time>
      </trkpt>
      <trkpt lat="42.93619" lon="0.58347">
        <ele>990</ele>
        <time>2019-02-03T09:50:30.000Z</time>
      </trkpt>
      <trkpt lat="42.93618" lon="0.58346">
        <ele>990.5</ele>
        <time>2019-02-03T09:50:31.000Z</time>
      </trkpt>
      <trkpt lat="42.93618" lon="0.58346">
        <ele>991</ele>
        <time>2019-02-03T09:50:32.000Z</time>
      </trkpt>
      <trkpt lat="42.93617" lon="0.58346">
        <ele>991</ele>
        <time>2019-02-03T09:50:33.000Z</time>
      </trkpt>
      <trkpt lat="42.93617" lon="0.58345">
        <ele>991</ele>
        <time>2019-02-03T09:50:34.000Z</time>
      </trkpt>
      <trkpt lat="42.93616" lon="0.58345">
        <ele>991</ele>
        <time>2019-02-03T09:50:35.000Z</time>
      </trkpt>
      <trkpt lat="42.93616" lon="0.58345">
        <ele>991</ele>
        <time>2019-02-03T09:50:36.000Z</time>
      </trkpt>
      <trkpt lat="42.93615" lon="0.58344">
        <ele>991</ele>
        <time>2019-02-03T09:50:37.000Z</time>
      </trkpt>
      <trkpt lat="42.93615" lon="0.58344">
        <ele>991</ele>
        <time>2019-02-03T09:50:38.000Z</time>
      </trkpt>
      <trkpt lat="42.93614" lon="0.58343">
        <ele>991</ele>
        <time>2019-02-03T09:50:39.000Z</time>
      </trkpt>
      <trkpt lat="42.93614" lon="0.58343">
        <ele>991</ele>
        <time>2019-02-03T09:50:40.000Z</time>
      </trkpt>
      <trkpt lat="42.93613" lon="0.58343">
        <ele>991</ele>
        <time>2019-02-03T09:50:41.000Z</time>
      </trkpt>
      <trkpt lat="42.93613" lon="0.58342">
        <ele>991</ele>
        <time>2019-02-03T09:50:42.000Z</time>
      </trkpt>
      <trkpt lat="42.93612" lon="0.58342">
        <ele>991</ele>
        <time>2019-02-03T09:50:43.000Z</time>
      </trkpt>
      <trkpt lat="42.93612" lon="0.58341">
        <ele>991.3</ele>
        <time>2019-02-03T09:50:44.000Z</time>
      </trkpt>
      <trkpt lat="42.93611" lon="0.58341">
        <ele>991.7</ele>
        <time>2019-02-03T09:50:45.000Z</time>
      </trkpt>
      <trkpt lat="42.93611" lon="0.58341">
        <ele>992</ele>
        <time>2019-02-03T09:50:46.000Z</time>
      </trkpt>
      <trkpt lat="42.9361" lon="0.5834">
        <ele>992</ele>
        <time>2019-02-03T09:50:47.000Z</time>
      </trkpt>
      <trkpt lat="42.9361" lon="0.5834">
        <ele>992</ele>
        <time>2019-02-03T09:50:48.000Z</time>
      </trkpt>
      <trkpt lat="42.93609" lon="0.5834">
        <ele>992</ele>
        <time>2019-02-03T09:50:49.000Z</time>
      </trkpt>
      <trkpt lat="42.93609" lon="0.58339">
        <ele>992</ele>
        <time>2019-02-03T09:50:50.000Z</time>
      </trkpt>
      <trkpt lat="42.93608" lon="0.58339">
        <ele>992</ele>
        <time>2019-02-03T09:50:51.000Z</time>
      </trkpt>
      <trkpt lat="42.93607" lon="0.58339">
        <ele>992</ele>
        <time>2019-02-03T09:50:52.000Z</time>
      </trkpt>
      <trkpt lat="42.93607" lon="0.58338">
        <ele>992</ele>
        <time>2019-02-03T09:50:53.000Z</time>
      </trkpt>
      <trkpt lat="42.93606" lon="0.58338">
        <ele>992</ele>
        <time>2019-02-03T09:50:54.000Z</time>
      </trkpt>
      <trkpt lat="42.93606" lon="0.58338">
        <ele>992.5</ele>
        <time>2019-02-03T09:50:55.000Z</time>
      </trkpt>
      <trkpt lat="42.93605" lon="0.58338">
        <ele>993</ele>
        <time>2019-02-03T09:50:56.000Z</time>
      </trkpt>
      <trkpt lat="42.93604" lon="0.58337">
        <ele>993</ele>
        <time>2019-02-03T09:50:57.000Z</time>
      </trkpt>
      <trkpt lat="42.93604" lon="0.58337">
        <ele>993</ele>
        <time>2019-02-03T09:50:58.000Z</time>
      </trkpt>
      <trkpt lat="42.93603" lon="0.58337">
        <ele>993</ele>
        <time>2019-02-03T09:50:59.000Z</time>
      </trkpt>
      <trkpt lat="42.93602" lon="0.58337">
        <ele>993</ele>
        <time>2019-02-03T09:51:00.000Z</time>
      </trkpt>
      <trkpt lat="42.93601" lon="0.58336">
        <ele>993</ele>
        <time>2019-02-03T09:51:01.000Z</time>
      </trkpt>
      <trkpt lat="42.93601" lon="0.58336">
        <ele>993</ele>
        <time>2019-02-03T09:51:02.000Z</time>
      </trkpt>
      <trkpt lat="42.936" lon="0.58336">
        <ele>993</ele>
        <time>2019-02-03T09:51:03.000Z</time>
      </trkpt>
      <trkpt lat="42.93599" lon="0.58336">
        <ele>993</ele>
        <time>2019-02-03T09:51:04.000Z</time>
      </trkpt>
      <trkpt lat="42.93598" lon="0.58335">
        <ele>993</ele>
        <time>2019-02-03T09:51:05.000Z</time>
      </trkpt>
      <trkpt lat="42.93597" lon="0.58335">
        <ele>993</ele>
        <time>2019-02-03T09:51:06.000Z</time>
      </trkpt>
      <trkpt lat="42.93597" lon="0.58335">
        <ele>993</ele>
        <time>2019-02-03T09:51:07.000Z</time>
      </trkpt>
      <trkpt lat="42.93596" lon="0.58335">
        <ele>993.3</ele>
        <time>2019-02-03T09:51:08.000Z</time>
      </trkpt>
      <trkpt lat="42.93595" lon="0.58335">
        <ele>993.7</ele>
        <time>2019-02-03T09:51:09.000Z</time>
      </trkpt>
      <trkpt lat="42.93594" lon="0.58334">
        <ele>994</ele>
        <time>2019-02-03T09:51:10.000Z</time>
      </trkpt>
      <trkpt lat="42.93594" lon="0.58334">
        <ele>994</ele>
        <time>2019-02-03T09:51:11.000Z</time>
      </trkpt>
      <trkpt lat="42.93593" lon="0.58334">
        <ele>994</ele>
        <time>2019-02-03T09:51:12.000Z</time>
      </trkpt>
      <trkpt lat="42.93592" lon="0.58333">
        <ele>994</ele>
        <time>2019-02-03T09:51:13.000Z</time>
      </trkpt>
      <trkpt lat="42.93592" lon="0.58333">
        <ele>994</ele>
        <time>2019-02-03T09:51:14.000Z</time>
      </trkpt>
      <trkpt lat="42.93591" lon="0.58333">
        <ele>994</ele>
        <time>2019-02-03T09:51:15.000Z</time>
      </trkpt>
      <trkpt lat="42.93591" lon="0.58332">
        <ele>994</ele>
        <time>2019-02-03T09:51:16.000Z</time>
      </trkpt>
      <trkpt lat="42.9359" lon="0.58332">
        <ele>994</ele>
        <time>2019-02-03T09:51:17.000Z</time>
      </trkpt>
      <trkpt lat="42.9359" lon="0.58331">
        <ele>994.3</ele>
        <time>2019-02-03T09:51:18.000Z</time>
      </trkpt>
      <trkpt lat="42.93589" lon="0.58331">
        <ele>994.7</ele>
        <time>2019-02-03T09:51:19.000Z</time>
      </trkpt>
      <trkpt lat="42.93589" lon="0.58331">
        <ele>995</ele>
        <time>2019-02-03T09:51:20.000Z</time>
      </trkpt>
      <trkpt lat="42.93588" lon="0.5833">
        <ele>995</ele>
        <time>2019-02-03T09:51:21.000Z</time>
      </trkpt>
      <trkpt lat="42.93588" lon="0.5833">
        <ele>995</ele>
        <time>2019-02-03T09:51:22.000Z</time>
      </trkpt>
      <trkpt lat="42.93587" lon="0.58329">
        <ele>995</ele>
        <time>2019-02-03T09:51:23.000Z</time>
      </trkpt>
      <trkpt lat="42.93587" lon="0.58329">
        <ele>995</ele>
        <time>2019-02-03T09:51:24.000Z</time>
      </trkpt>
      <trkpt lat="42.93586" lon="0.58328">
        <ele>995</ele>
        <time>2019-02-03T09:51:25.000Z</time>
      </trkpt>
      <trkpt lat="42.93586" lon="0.58328">
        <ele>995</ele>
        <time>2019-02-03T09:51:26.000Z</time>
      </trkpt>
      <trkpt lat="42.93585" lon="0.58327">
        <ele>995</ele>
        <time>2019-02-03T09:51:27.000Z</time>
      </trkpt>
      <trkpt lat="42.93585" lon="0.58327">
        <ele>995</ele>
        <time>2019-02-03T09:51:28.000Z</time>
      </trkpt>
      <trkpt lat="42.93584" lon="0.58327">
        <ele>995</ele>
        <time>2019-02-03T09:51:29.000Z</time>
      </trkpt>
      <trkpt lat="42.93583" lon="0.58327">
        <ele>995</ele>
        <time>2019-02-03T09:51:30.000Z</time>
      </trkpt>
      <trkpt lat="42.93582" lon="0.58327">
        <ele>995.5</ele>
        <time>2019-02-03T09:51:31.000Z</time>
      </trkpt>
      <trkpt lat="42.93581" lon="0.58327">
        <ele>996</ele>
        <time>2019-02-03T09:51:32.000Z</time>
      </trkpt>
      <trkpt lat="42.9358" lon="0.58327">
        <ele>996</ele>
        <time>2019-02-03T09:51:33.000Z</time>
      </trkpt>
      <trkpt lat="42.93579" lon="0.58327">
        <ele>996</ele>
        <time>2019-02-03T09:51:34.000Z</time>
      </trkpt>
      <trkpt lat="42.93578" lon="0.58328">
        <ele>996</ele>
        <time>2019-02-03T09:51:35.000Z</time>
      </trkpt>
      <trkpt lat="42.93577" lon="0.58328">
        <ele>996</ele>
        <time>2019-02-03T09:51:36.000Z</time>
      </trkpt>
      <trkpt lat="42.93577" lon="0.58328">
        <ele>996</ele>
        <time>2019-02-03T09:51:37.000Z</time>
      </trkpt>
      <trkpt lat="42.93576" lon="0.58329">
        <ele>996</ele>
        <time>2019-02-03T09:51:38.000Z</time>
      </trkpt>
      <trkpt lat="42.93576" lon="0.58329">
        <ele>997</ele>
        <time>2019-02-03T09:51:39.000Z</time>
      </trkpt>
      <trkpt lat="42.93575" lon="0.58329">
        <ele>997</ele>
        <time>2019-02-03T09:51:40.000Z</time>
      </trkpt>
      <trkpt lat="42.93575" lon="0.58329">
        <ele>997</ele>
        <time>2019-02-03T09:51:41.000Z</time>
      </trkpt>
      <trkpt lat="42.93575" lon="0.58329">
        <ele>997</ele>
        <time>2019-02-03T09:51:42.000Z</time>
      </trkpt>
      <trkpt lat="42.93574" lon="0.58329">
        <ele>997</ele>
        <time>2019-02-03T09:51:43.000Z</time>
      </trkpt>
      <trkpt lat="42.93573" lon="0.58329">
        <ele>997</ele>
        <time>2019-02-03T09:51:44.000Z</time>
      </trkpt>
      <trkpt lat="42.93573" lon="0.58328">
        <ele>997</ele>
        <time>2019-02-03T09:51:45.000Z</time>
      </trkpt>
      <trkpt lat="42.93572" lon="0.58328">
        <ele>997</ele>
        <time>2019-02-03T09:51:46.000Z</time>
      </trkpt>
      <trkpt lat="42.93572" lon="0.58328">
        <ele>997</ele>
        <time>2019-02-03T09:51:47.000Z</time>
      </trkpt>
      <trkpt lat="42.93571" lon="0.58328">
        <ele>997</ele>
        <time>2019-02-03T09:51:48.000Z</time>
      </trkpt>
      <trkpt lat="42.93571" lon="0.58328">
        <ele>997</ele>
        <time>2019-02-03T09:51:49.000Z</time>
      </trkpt>
      <trkpt lat="42.93571" lon="0.58328">
        <ele>997</ele>
        <time>2019-02-03T09:51:50.000Z</time>
      </trkpt>
      <trkpt lat="42.9357" lon="0.58328">
        <ele>997.5</ele>
        <time>2019-02-03T09:51:51.000Z</time>
      </trkpt>
      <trkpt lat="42.9357" lon="0.58328">
        <ele>998</ele>
        <time>2019-02-03T09:51:52.000Z</time>
      </trkpt>
      <trkpt lat="42.9357" lon="0.58328">
        <ele>998</ele>
        <time>2019-02-03T09:51:53.000Z</time>
      </trkpt>
      <trkpt lat="42.93569" lon="0.58328">
        <ele>998</ele>
        <time>2019-02-03T09:51:54.000Z</time>
      </trkpt>
      <trkpt lat="42.93569" lon="0.58328">
        <ele>998</ele>
        <time>2019-02-03T09:51:55.000Z</time>
      </trkpt>
      <trkpt lat="42.93568" lon="0.58329">
        <ele>998</ele>
        <time>2019-02-03T09:51:56.000Z</time>
      </trkpt>
      <trkpt lat="42.93568" lon="0.58329">
        <ele>998</ele>
        <time>2019-02-03T09:51:57.000Z</time>
      </trkpt>
      <trkpt lat="42.93567" lon="0.58329">
        <ele>998</ele>
        <time>2019-02-03T09:51:58.000Z</time>
      </trkpt>
      <trkpt lat="42.93566" lon="0.58329">
        <ele>998</ele>
        <time>2019-02-03T09:51:59.000Z</time>
      </trkpt>
      <trkpt lat="42.93565" lon="0.5833">
        <ele>998</ele>
        <time>2019-02-03T09:52:00.000Z</time>
      </trkpt>
      <trkpt lat="42.93564" lon="0.5833">
        <ele>998</ele>
        <time>2019-02-03T09:52:01.000Z</time>
      </trkpt>
      <trkpt lat="42.93563" lon="0.5833">
        <ele>998</ele>
        <time>2019-02-03T09:52:02.000Z</time>
      </trkpt>
      <trkpt lat="42.93562" lon="0.58331">
        <ele>998</ele>
        <time>2019-02-03T09:52:03.000Z</time>
      </trkpt>
      <trkpt lat="42.93561" lon="0.58331">
        <ele>999</ele>
        <time>2019-02-03T09:52:06.000Z</time>
      </trkpt>
      <trkpt lat="42.93561" lon="0.58332">
        <ele>999</ele>
        <time>2019-02-03T09:52:07.000Z</time>
      </trkpt>
      <trkpt lat="42.9356" lon="0.58332">
        <ele>999</ele>
        <time>2019-02-03T09:52:08.000Z</time>
      </trkpt>
      <trkpt lat="42.93559" lon="0.58333">
        <ele>999</ele>
        <time>2019-02-03T09:52:09.000Z</time>
      </trkpt>
      <trkpt lat="42.93558" lon="0.58333">
        <ele>999</ele>
        <time>2019-02-03T09:52:10.000Z</time>
      </trkpt>
      <trkpt lat="42.93557" lon="0.58334">
        <ele>999</ele>
        <time>2019-02-03T09:52:11.000Z</time>
      </trkpt>
      <trkpt lat="42.93556" lon="0.58334">
        <ele>999</ele>
        <time>2019-02-03T09:52:12.000Z</time>
      </trkpt>
      <trkpt lat="42.93555" lon="0.58334">
        <ele>999</ele>
        <time>2019-02-03T09:52:13.000Z</time>
      </trkpt>
      <trkpt lat="42.93555" lon="0.58335">
        <ele>1000</ele>
        <time>2019-02-03T09:52:14.000Z</time>
      </trkpt>
      <trkpt lat="42.93554" lon="0.58335">
        <ele>1000</ele>
        <time>2019-02-03T09:52:15.000Z</time>
      </trkpt>
      <trkpt lat="42.93554" lon="0.58335">
        <ele>1000</ele>
        <time>2019-02-03T09:52:16.000Z</time>
      </trkpt>
      <trkpt lat="42.93554" lon="0.58335">
        <ele>1000</ele>
        <time>2019-02-03T09:52:17.000Z</time>
      </trkpt>
      <trkpt lat="42.93553" lon="0.58335">
        <ele>1000</ele>
        <time>2019-02-03T09:52:18.000Z</time>
      </trkpt>
      <trkpt lat="42.93553" lon="0.58335">
        <ele>1000</ele>
        <time>2019-02-03T09:52:19.000Z</time>
      </trkpt>
      <trkpt lat="42.93553" lon="0.58336">
        <ele>1000</ele>
        <time>2019-02-03T09:52:20.000Z</time>
      </trkpt>
      <trkpt lat="42.93552" lon="0.58336">
        <ele>1000</ele>
        <time>2019-02-03T09:52:21.000Z</time>
      </trkpt>
      <trkpt lat="42.93552" lon="0.58336">
        <ele>1000.5</ele>
        <time>2019-02-03T09:52:22.000Z</time>
      </trkpt>
      <trkpt lat="42.93551" lon="0.58337">
        <ele>1001</ele>
        <time>2019-02-03T09:52:23.000Z</time>
      </trkpt>
      <trkpt lat="42.9355" lon="0.58338">
        <ele>1001</ele>
        <time>2019-02-03T09:52:24.000Z</time>
      </trkpt>
      <trkpt lat="42.9355" lon="0.58339">
        <ele>1001</ele>
        <time>2019-02-03T09:52:25.000Z</time>
      </trkpt>
      <trkpt lat="42.93549" lon="0.58339">
        <ele>1001</ele>
        <time>2019-02-03T09:52:26.000Z</time>
      </trkpt>
      <trkpt lat="42.93549" lon="0.5834">
        <ele>1001</ele>
        <time>2019-02-03T09:52:27.000Z</time>
      </trkpt>
      <trkpt lat="42.93549" lon="0.5834">
        <ele>1001</ele>
        <time>2019-02-03T09:52:28.000Z</time>
      </trkpt>
      <trkpt lat="42.93549" lon="0.5834">
        <ele>1001</ele>
        <time>2019-02-03T09:52:29.000Z</time>
      </trkpt>
      <trkpt lat="42.93548" lon="0.58341">
        <ele>1001</ele>
        <time>2019-02-03T09:52:30.000Z</time>
      </trkpt>
      <trkpt lat="42.93548" lon="0.58341">
        <ele>1001</ele>
        <time>2019-02-03T09:52:31.000Z</time>
      </trkpt>
      <trkpt lat="42.93548" lon="0.58341">
        <ele>1002</ele>
        <time>2019-02-03T09:52:32.000Z</time>
      </trkpt>
      <trkpt lat="42.93547" lon="0.58342">
        <ele>1002</ele>
        <time>2019-02-03T09:52:33.000Z</time>
      </trkpt>
      <trkpt lat="42.93547" lon="0.58342">
        <ele>1002</ele>
        <time>2019-02-03T09:52:34.000Z</time>
      </trkpt>
      <trkpt lat="42.93546" lon="0.58343">
        <ele>1002</ele>
        <time>2019-02-03T09:52:35.000Z</time>
      </trkpt>
      <trkpt lat="42.93545" lon="0.58343">
        <ele>1002</ele>
        <time>2019-02-03T09:52:36.000Z</time>
      </trkpt>
      <trkpt lat="42.93545" lon="0.58344">
        <ele>1002</ele>
        <time>2019-02-03T09:52:37.000Z</time>
      </trkpt>
      <trkpt lat="42.93544" lon="0.58344">
        <ele>1002</ele>
        <time>2019-02-03T09:52:38.000Z</time>
      </trkpt>
      <trkpt lat="42.93543" lon="0.58345">
        <ele>1002</ele>
        <time>2019-02-03T09:52:39.000Z</time>
      </trkpt>
      <trkpt lat="42.93543" lon="0.58346">
        <ele>1002</ele>
        <time>2019-02-03T09:52:40.000Z</time>
      </trkpt>
      <trkpt lat="42.93542" lon="0.58346">
        <ele>1002</ele>
        <time>2019-02-03T09:52:41.000Z</time>
      </trkpt>
      <trkpt lat="42.93541" lon="0.58347">
        <ele>1002.5</ele>
        <time>2019-02-03T09:52:42.000Z</time>
      </trkpt>
      <trkpt lat="42.93541" lon="0.58347">
        <ele>1003</ele>
        <time>2019-02-03T09:52:43.000Z</time>
      </trkpt>
      <trkpt lat="42.9354" lon="0.58348">
        <ele>1003</ele>
        <time>2019-02-03T09:52:44.000Z</time>
      </trkpt>
      <trkpt lat="42.9354" lon="0.58349">
        <ele>1003</ele>
        <time>2019-02-03T09:52:45.000Z</time>
      </trkpt>
      <trkpt lat="42.93539" lon="0.58349">
        <ele>1003</ele>
        <time>2019-02-03T09:52:46.000Z</time>
      </trkpt>
      <trkpt lat="42.93539" lon="0.5835">
        <ele>1003</ele>
        <time>2019-02-03T09:52:47.000Z</time>
      </trkpt>
      <trkpt lat="42.93538" lon="0.58351">
        <ele>1003</ele>
        <time>2019-02-03T09:52:48.000Z</time>
      </trkpt>
      <trkpt lat="42.93538" lon="0.58351">
        <ele>1003</ele>
        <time>2019-02-03T09:52:49.000Z</time>
      </trkpt>
      <trkpt lat="42.93537" lon="0.58352">
        <ele>1003</ele>
        <time>2019-02-03T09:52:50.000Z</time>
      </trkpt>
      <trkpt lat="42.93537" lon="0.58352">
        <ele>1003</ele>
        <time>2019-02-03T09:52:51.000Z</time>
      </trkpt>
      <trkpt lat="42.93536" lon="0.58353">
        <ele>1003</ele>
        <time>2019-02-03T09:52:52.000Z</time>
      </trkpt>
      <trkpt lat="42.93536" lon="0.58353">
        <ele>1003</ele>
        <time>2019-02-03T09:52:53.000Z</time>
      </trkpt>
      <trkpt lat="42.93536" lon="0.58354">
        <ele>1003.5</ele>
        <time>2019-02-03T09:52:54.000Z</time>
      </trkpt>
      <trkpt lat="42.93535" lon="0.58354">
        <ele>1004</ele>
        <time>2019-02-03T09:52:55.000Z</time>
      </trkpt>
      <trkpt lat="42.93535" lon="0.58355">
        <ele>1004</ele>
        <time>2019-02-03T09:52:56.000Z</time>
      </trkpt>
      <trkpt lat="42.93535" lon="0.58355">
        <ele>1004</ele>
        <time>2019-02-03T09:52:57.000Z</time>
      </trkpt>
      <trkpt lat="42.93535" lon="0.58356">
        <ele>1004</ele>
        <time>2019-02-03T09:52:58.000Z</time>
      </trkpt>
      <trkpt lat="42.93534" lon="0.58356">
        <ele>1004</ele>
        <time>2019-02-03T09:52:59.000Z</time>
      </trkpt>
      <trkpt lat="42.93534" lon="0.58357">
        <ele>1004</ele>
        <time>2019-02-03T09:53:00.000Z</time>
      </trkpt>
      <trkpt lat="42.93534" lon="0.58357">
        <ele>1004</ele>
        <time>2019-02-03T09:53:01.000Z</time>
      </trkpt>
      <trkpt lat="42.93533" lon="0.58358">
        <ele>1004.5</ele>
        <time>2019-02-03T09:53:02.000Z</time>
      </trkpt>
      <trkpt lat="42.93533" lon="0.58358">
        <ele>1005</ele>
        <time>2019-02-03T09:53:03.000Z</time>
      </trkpt>
      <trkpt lat="42.93533" lon="0.58359">
        <ele>1005</ele>
        <time>2019-02-03T09:53:04.000Z</time>
      </trkpt>
      <trkpt lat="42.93533" lon="0.58359">
        <ele>1005</ele>
        <time>2019-02-03T09:53:05.000Z</time>
      </trkpt>
      <trkpt lat="42.93532" lon="0.5836">
        <ele>1005</ele>
        <time>2019-02-03T09:53:06.000Z</time>
      </trkpt>
      <trkpt lat="42.93532" lon="0.5836">
        <ele>1005</ele>
        <time>2019-02-03T09:53:07.000Z</time>
      </trkpt>
      <trkpt lat="42.93532" lon="0.58361">
        <ele>1005</ele>
        <time>2019-02-03T09:53:08.000Z</time>
      </trkpt>
      <trkpt lat="42.93531" lon="0.58362">
        <ele>1005</ele>
        <time>2019-02-03T09:53:09.000Z</time>
      </trkpt>
      <trkpt lat="42.93531" lon="0.58362">
        <ele>1005</ele>
        <time>2019-02-03T09:53:10.000Z</time>
      </trkpt>
      <trkpt lat="42.93531" lon="0.58363">
        <ele>1005</ele>
        <time>2019-02-03T09:53:11.000Z</time>
      </trkpt>
      <trkpt lat="42.9353" lon="0.58364">
        <ele>1005</ele>
        <time>2019-02-03T09:53:12.000Z</time>
      </trkpt>
      <trkpt lat="42.9353" lon="0.58365">
        <ele>1005</ele>
        <time>2019-02-03T09:53:13.000Z</time>
      </trkpt>
      <trkpt lat="42.9353" lon="0.58366">
        <ele>1005</ele>
        <time>2019-02-03T09:53:14.000Z</time>
      </trkpt>
      <trkpt lat="42.93529" lon="0.58366">
        <ele>1005</ele>
        <time>2019-02-03T09:53:15.000Z</time>
      </trkpt>
      <trkpt lat="42.93529" lon="0.58367">
        <ele>1005</ele>
        <time>2019-02-03T09:53:16.000Z</time>
      </trkpt>
      <trkpt lat="42.93529" lon="0.58368">
        <ele>1005</ele>
        <time>2019-02-03T09:53:17.000Z</time>
      </trkpt>
      <trkpt lat="42.93528" lon="0.58368">
        <ele>1006</ele>
        <time>2019-02-03T09:53:18.000Z</time>
      </trkpt>
      <trkpt lat="42.93528" lon="0.58369">
        <ele>1006</ele>
        <time>2019-02-03T09:53:19.000Z</time>
      </trkpt>
      <trkpt lat="42.93528" lon="0.5837">
        <ele>1006</ele>
        <time>2019-02-03T09:53:20.000Z</time>
      </trkpt>
      <trkpt lat="42.93527" lon="0.5837">
        <ele>1006</ele>
        <time>2019-02-03T09:53:21.000Z</time>
      </trkpt>
      <trkpt lat="42.93527" lon="0.58371">
        <ele>1006</ele>
        <time>2019-02-03T09:53:22.000Z</time>
      </trkpt>
      <trkpt lat="42.93527" lon="0.58371">
        <ele>1006</ele>
        <time>2019-02-03T09:53:23.000Z</time>
      </trkpt>
      <trkpt lat="42.93527" lon="0.58372">
        <ele>1006</ele>
        <time>2019-02-03T09:53:24.000Z</time>
      </trkpt>
      <trkpt lat="42.93526" lon="0.58372">
        <ele>1006</ele>
        <time>2019-02-03T09:53:25.000Z</time>
      </trkpt>
      <trkpt lat="42.93526" lon="0.58373">
        <ele>1006</ele>
        <time>2019-02-03T09:53:26.000Z</time>
      </trkpt>
      <trkpt lat="42.93526" lon="0.58374">
        <ele>1006</ele>
        <time>2019-02-03T09:53:27.000Z</time>
      </trkpt>
      <trkpt lat="42.93525" lon="0.58374">
        <ele>1006</ele>
        <time>2019-02-03T09:53:28.000Z</time>
      </trkpt>
      <trkpt lat="42.93525" lon="0.58375">
        <ele>1006</ele>
        <time>2019-02-03T09:53:29.000Z</time>
      </trkpt>
      <trkpt lat="42.93524" lon="0.58376">
        <ele>1006.5</ele>
        <time>2019-02-03T09:53:30.000Z</time>
      </trkpt>
      <trkpt lat="42.93524" lon="0.58377">
        <ele>1007</ele>
        <time>2019-02-03T09:53:31.000Z</time>
      </trkpt>
      <trkpt lat="42.93523" lon="0.58378">
        <ele>1007</ele>
        <time>2019-02-03T09:53:32.000Z</time>
      </trkpt>
      <trkpt lat="42.93523" lon="0.5838">
        <ele>1007</ele>
        <time>2019-02-03T09:53:33.000Z</time>
      </trkpt>
      <trkpt lat="42.93522" lon="0.58381">
        <ele>1007</ele>
        <time>2019-02-03T09:53:34.000Z</time>
      </trkpt>
      <trkpt lat="42.93522" lon="0.58382">
        <ele>1007</ele>
        <time>2019-02-03T09:53:35.000Z</time>
      </trkpt>
      <trkpt lat="42.93521" lon="0.58383">
        <ele>1007</ele>
        <time>2019-02-03T09:53:36.000Z</time>
      </trkpt>
      <trkpt lat="42.93521" lon="0.58384">
        <ele>1007</ele>
        <time>2019-02-03T09:53:37.000Z</time>
      </trkpt>
      <trkpt lat="42.9352" lon="0.58385">
        <ele>1007</ele>
        <time>2019-02-03T09:53:38.000Z</time>
      </trkpt>
      <trkpt lat="42.9352" lon="0.58386">
        <ele>1007</ele>
        <time>2019-02-03T09:53:39.000Z</time>
      </trkpt>
      <trkpt lat="42.9352" lon="0.58386">
        <ele>1007.5</ele>
        <time>2019-02-03T09:53:40.000Z</time>
      </trkpt>
      <trkpt lat="42.93519" lon="0.58387">
        <ele>1008</ele>
        <time>2019-02-03T09:53:41.000Z</time>
      </trkpt>
      <trkpt lat="42.93519" lon="0.58387">
        <ele>1008</ele>
        <time>2019-02-03T09:53:42.000Z</time>
      </trkpt>
      <trkpt lat="42.93519" lon="0.58387">
        <ele>1008</ele>
        <time>2019-02-03T09:53:43.000Z</time>
      </trkpt>
      <trkpt lat="42.93518" lon="0.58388">
        <ele>1008</ele>
        <time>2019-02-03T09:53:44.000Z</time>
      </trkpt>
      <trkpt lat="42.93518" lon="0.58388">
        <ele>1008</ele>
        <time>2019-02-03T09:53:45.000Z</time>
      </trkpt>
      <trkpt lat="42.93518" lon="0.58388">
        <ele>1008.5</ele>
        <time>2019-02-03T09:53:46.000Z</time>
      </trkpt>
      <trkpt lat="42.93517" lon="0.58389">
        <ele>1009</ele>
        <time>2019-02-03T09:53:47.000Z</time>
      </trkpt>
      <trkpt lat="42.93517" lon="0.58389">
        <ele>1009</ele>
        <time>2019-02-03T09:53:48.000Z</time>
      </trkpt>
      <trkpt lat="42.93516" lon="0.58389">
        <ele>1009</ele>
        <time>2019-02-03T09:53:49.000Z</time>
      </trkpt>
      <trkpt lat="42.93516" lon="0.58389">
        <ele>1009</ele>
        <time>2019-02-03T09:53:50.000Z</time>
      </trkpt>
      <trkpt lat="42.93515" lon="0.5839">
        <ele>1009</ele>
        <time>2019-02-03T09:53:51.000Z</time>
      </trkpt>
      <trkpt lat="42.93515" lon="0.5839">
        <ele>1009</ele>
        <time>2019-02-03T09:53:52.000Z</time>
      </trkpt>
      <trkpt lat="42.93515" lon="0.5839">
        <ele>1009</ele>
        <time>2019-02-03T09:53:53.000Z</time>
      </trkpt>
      <trkpt lat="42.93514" lon="0.5839">
        <ele>1009</ele>
        <time>2019-02-03T09:53:54.000Z</time>
      </trkpt>
      <trkpt lat="42.93514" lon="0.5839">
        <ele>1009</ele>
        <time>2019-02-03T09:53:55.000Z</time>
      </trkpt>
      <trkpt lat="42.93513" lon="0.5839">
        <ele>1009.5</ele>
        <time>2019-02-03T09:53:56.000Z</time>
      </trkpt>
      <trkpt lat="42.93513" lon="0.58391">
        <ele>1010</ele>
        <time>2019-02-03T09:53:57.000Z</time>
      </trkpt>
      <trkpt lat="42.93513" lon="0.58391">
        <ele>1010</ele>
        <time>2019-02-03T09:53:58.000Z</time>
      </trkpt>
      <trkpt lat="42.93512" lon="0.58391">
        <ele>1010</ele>
        <time>2019-02-03T09:53:59.000Z</time>
      </trkpt>
      <trkpt lat="42.93512" lon="0.58391">
        <ele>1010</ele>
        <time>2019-02-03T09:54:00.000Z</time>
      </trkpt>
      <trkpt lat="42.93512" lon="0.58391">
        <ele>1010</ele>
        <time>2019-02-03T09:54:01.000Z</time>
      </trkpt>
      <trkpt lat="42.93511" lon="0.58391">
        <ele>1010</ele>
        <time>2019-02-03T09:54:02.000Z</time>
      </trkpt>
      <trkpt lat="42.9351" lon="0.58391">
        <ele>1010</ele>
        <time>2019-02-03T09:54:03.000Z</time>
      </trkpt>
      <trkpt lat="42.9351" lon="0.58391">
        <ele>1010</ele>
        <time>2019-02-03T09:54:04.000Z</time>
      </trkpt>
      <trkpt lat="42.93509" lon="0.58391">
        <ele>1010</ele>
        <time>2019-02-03T09:54:05.000Z</time>
      </trkpt>
      <trkpt lat="42.93508" lon="0.58392">
        <ele>1010</ele>
        <time>2019-02-03T09:54:06.000Z</time>
      </trkpt>
      <trkpt lat="42.93508" lon="0.58392">
        <ele>1010</ele>
        <time>2019-02-03T09:54:07.000Z</time>
      </trkpt>
      <trkpt lat="42.93507" lon="0.58392">
        <ele>1010</ele>
        <time>2019-02-03T09:54:08.000Z</time>
      </trkpt>
      <trkpt lat="42.93506" lon="0.58393">
        <ele>1010</ele>
        <time>2019-02-03T09:54:09.000Z</time>
      </trkpt>
      <trkpt lat="42.93506" lon="0.58393">
        <ele>1010</ele>
        <time>2019-02-03T09:54:10.000Z</time>
      </trkpt>
      <trkpt lat="42.93505" lon="0.58394">
        <ele>1010</ele>
        <time>2019-02-03T09:54:11.000Z</time>
      </trkpt>
      <trkpt lat="42.93505" lon="0.58394">
        <ele>1010</ele>
        <time>2019-02-03T09:54:12.000Z</time>
      </trkpt>
      <trkpt lat="42.93504" lon="0.58395">
        <ele>1010</ele>
        <time>2019-02-03T09:54:13.000Z</time>
      </trkpt>
      <trkpt lat="42.93504" lon="0.58395">
        <ele>1010</ele>
        <time>2019-02-03T09:54:14.000Z</time>
      </trkpt>
      <trkpt lat="42.93503" lon="0.58396">
        <ele>1010</ele>
        <time>2019-02-03T09:54:15.000Z</time>
      </trkpt>
      <trkpt lat="42.93503" lon="0.58397">
        <ele>1010.5</ele>
        <time>2019-02-03T09:54:16.000Z</time>
      </trkpt>
      <trkpt lat="42.93503" lon="0.58397">
        <ele>1011</ele>
        <time>2019-02-03T09:54:17.000Z</time>
      </trkpt>
      <trkpt lat="42.93502" lon="0.58398">
        <ele>1011</ele>
        <time>2019-02-03T09:54:18.000Z</time>
      </trkpt>
      <trkpt lat="42.93501" lon="0.58399">
        <ele>1011</ele>
        <time>2019-02-03T09:54:19.000Z</time>
      </trkpt>
      <trkpt lat="42.93501" lon="0.584">
        <ele>1011</ele>
        <time>2019-02-03T09:54:20.000Z</time>
      </trkpt>
      <trkpt lat="42.935" lon="0.58401">
        <ele>1011</ele>
        <time>2019-02-03T09:54:21.000Z</time>
      </trkpt>
      <trkpt lat="42.93499" lon="0.58402">
        <ele>1011</ele>
        <time>2019-02-03T09:54:22.000Z</time>
      </trkpt>
      <trkpt lat="42.93499" lon="0.58403">
        <ele>1011</ele>
        <time>2019-02-03T09:54:23.000Z</time>
      </trkpt>
      <trkpt lat="42.93498" lon="0.58405">
        <ele>1011</ele>
        <time>2019-02-03T09:54:24.000Z</time>
      </trkpt>
      <trkpt lat="42.93497" lon="0.58406">
        <ele>1011</ele>
        <time>2019-02-03T09:54:25.000Z</time>
      </trkpt>
      <trkpt lat="42.93496" lon="0.58407">
        <ele>1011</ele>
        <time>2019-02-03T09:54:26.000Z</time>
      </trkpt>
      <trkpt lat="42.93496" lon="0.58408">
        <ele>1011</ele>
        <time>2019-02-03T09:54:27.000Z</time>
      </trkpt>
      <trkpt lat="42.93495" lon="0.58408">
        <ele>1011.5</ele>
        <time>2019-02-03T09:54:28.000Z</time>
      </trkpt>
      <trkpt lat="42.93494" lon="0.58409">
        <ele>1012</ele>
        <time>2019-02-03T09:54:29.000Z</time>
      </trkpt>
      <trkpt lat="42.93493" lon="0.5841">
        <ele>1012</ele>
        <time>2019-02-03T09:54:30.000Z</time>
      </trkpt>
      <trkpt lat="42.93493" lon="0.58411">
        <ele>1012</ele>
        <time>2019-02-03T09:54:31.000Z</time>
      </trkpt>
      <trkpt lat="42.93492" lon="0.58411">
        <ele>1012</ele>
        <time>2019-02-03T09:54:32.000Z</time>
      </trkpt>
      <trkpt lat="42.93492" lon="0.58412">
        <ele>1012</ele>
        <time>2019-02-03T09:54:33.000Z</time>
      </trkpt>
      <trkpt lat="42.93491" lon="0.58412">
        <ele>1012</ele>
        <time>2019-02-03T09:54:34.000Z</time>
      </trkpt>
      <trkpt lat="42.93491" lon="0.58412">
        <ele>1012</ele>
        <time>2019-02-03T09:54:35.000Z</time>
      </trkpt>
      <trkpt lat="42.9349" lon="0.58413">
        <ele>1012</ele>
        <time>2019-02-03T09:54:36.000Z</time>
      </trkpt>
      <trkpt lat="42.9349" lon="0.58413">
        <ele>1012</ele>
        <time>2019-02-03T09:54:37.000Z</time>
      </trkpt>
      <trkpt lat="42.9349" lon="0.58413">
        <ele>1012</ele>
        <time>2019-02-03T09:54:38.000Z</time>
      </trkpt>
      <trkpt lat="42.93489" lon="0.58413">
        <ele>1012</ele>
        <time>2019-02-03T09:54:39.000Z</time>
      </trkpt>
      <trkpt lat="42.93489" lon="0.58413">
        <ele>1012</ele>
        <time>2019-02-03T09:54:40.000Z</time>
      </trkpt>
      <trkpt lat="42.93488" lon="0.58413">
        <ele>1012.3</ele>
        <time>2019-02-03T09:54:41.000Z</time>
      </trkpt>
      <trkpt lat="42.93488" lon="0.58414">
        <ele>1012.7</ele>
        <time>2019-02-03T09:54:42.000Z</time>
      </trkpt>
      <trkpt lat="42.93487" lon="0.58414">
        <ele>1013</ele>
        <time>2019-02-03T09:54:43.000Z</time>
      </trkpt>
      <trkpt lat="42.93486" lon="0.58414">
        <ele>1013</ele>
        <time>2019-02-03T09:54:44.000Z</time>
      </trkpt>
      <trkpt lat="42.93485" lon="0.58414">
        <ele>1013</ele>
        <time>2019-02-03T09:54:45.000Z</time>
      </trkpt>
      <trkpt lat="42.93484" lon="0.58414">
        <ele>1013</ele>
        <time>2019-02-03T09:54:46.000Z</time>
      </trkpt>
      <trkpt lat="42.93484" lon="0.58414">
        <ele>1013</ele>
        <time>2019-02-03T09:54:47.000Z</time>
      </trkpt>
      <trkpt lat="42.93483" lon="0.58414">
        <ele>1013</ele>
        <time>2019-02-03T09:54:48.000Z</time>
      </trkpt>
      <trkpt lat="42.93482" lon="0.58414">
        <ele>1013</ele>
        <time>2019-02-03T09:54:49.000Z</time>
      </trkpt>
      <trkpt lat="42.93481" lon="0.58414">
        <ele>1013.5</ele>
        <time>2019-02-03T09:54:50.000Z</time>
      </trkpt>
      <trkpt lat="42.9348" lon="0.58414">
        <ele>1014</ele>
        <time>2019-02-03T09:54:51.000Z</time>
      </trkpt>
      <trkpt lat="42.93479" lon="0.58414">
        <ele>1014</ele>
        <time>2019-02-03T09:54:52.000Z</time>
      </trkpt>
      <trkpt lat="42.93478" lon="0.58414">
        <ele>1014</ele>
        <time>2019-02-03T09:54:53.000Z</time>
      </trkpt>
      <trkpt lat="42.93477" lon="0.58414">
        <ele>1014</ele>
        <time>2019-02-03T09:54:54.000Z</time>
      </trkpt>
      <trkpt lat="42.93477" lon="0.58414">
        <ele>1014</ele>
        <time>2019-02-03T09:54:55.000Z</time>
      </trkpt>
      <trkpt lat="42.93476" lon="0.58414">
        <ele>1014</ele>
        <time>2019-02-03T09:54:56.000Z</time>
      </trkpt>
      <trkpt lat="42.93475" lon="0.58414">
        <ele>1014</ele>
        <time>2019-02-03T09:54:57.000Z</time>
      </trkpt>
      <trkpt lat="42.93475" lon="0.58414">
        <ele>1014</ele>
        <time>2019-02-03T09:54:58.000Z</time>
      </trkpt>
      <trkpt lat="42.93474" lon="0.58414">
        <ele>1014</ele>
        <time>2019-02-03T09:54:59.000Z</time>
      </trkpt>
      <trkpt lat="42.93474" lon="0.58414">
        <ele>1014.5</ele>
        <time>2019-02-03T09:55:00.000Z</time>
      </trkpt>
      <trkpt lat="42.93473" lon="0.58414">
        <ele>1015</ele>
        <time>2019-02-03T09:55:01.000Z</time>
      </trkpt>
      <trkpt lat="42.93473" lon="0.58414">
        <ele>1015</ele>
        <time>2019-02-03T09:55:02.000Z</time>
      </trkpt>
      <trkpt lat="42.93473" lon="0.58414">
        <ele>1015</ele>
        <time>2019-02-03T09:55:03.000Z</time>
      </trkpt>
      <trkpt lat="42.93472" lon="0.58415">
        <ele>1015</ele>
        <time>2019-02-03T09:55:04.000Z</time>
      </trkpt>
      <trkpt lat="42.93472" lon="0.58415">
        <ele>1015</ele>
        <time>2019-02-03T09:55:05.000Z</time>
      </trkpt>
      <trkpt lat="42.93471" lon="0.58415">
        <ele>1015</ele>
        <time>2019-02-03T09:55:06.000Z</time>
      </trkpt>
      <trkpt lat="42.93471" lon="0.58415">
        <ele>1015</ele>
        <time>2019-02-03T09:55:07.000Z</time>
      </trkpt>
      <trkpt lat="42.93471" lon="0.58415">
        <ele>1015</ele>
        <time>2019-02-03T09:55:08.000Z</time>
      </trkpt>
      <trkpt lat="42.9347" lon="0.58415">
        <ele>1015</ele>
        <time>2019-02-03T09:55:09.000Z</time>
      </trkpt>
      <trkpt lat="42.9347" lon="0.58415">
        <ele>1015.5</ele>
        <time>2019-02-03T09:55:10.000Z</time>
      </trkpt>
      <trkpt lat="42.93469" lon="0.58415">
        <ele>1016</ele>
        <time>2019-02-03T09:55:11.000Z</time>
      </trkpt>
      <trkpt lat="42.93469" lon="0.58415">
        <ele>1016</ele>
        <time>2019-02-03T09:55:12.000Z</time>
      </trkpt>
      <trkpt lat="42.93468" lon="0.58414">
        <ele>1016</ele>
        <time>2019-02-03T09:55:13.000Z</time>
      </trkpt>
      <trkpt lat="42.93468" lon="0.58414">
        <ele>1016</ele>
        <time>2019-02-03T09:55:14.000Z</time>
      </trkpt>
      <trkpt lat="42.93467" lon="0.58414">
        <ele>1016</ele>
        <time>2019-02-03T09:55:15.000Z</time>
      </trkpt>
      <trkpt lat="42.93467" lon="0.58414">
        <ele>1016</ele>
        <time>2019-02-03T09:55:16.000Z</time>
      </trkpt>
      <trkpt lat="42.93466" lon="0.58414">
        <ele>1016</ele>
        <time>2019-02-03T09:55:17.000Z</time>
      </trkpt>
      <trkpt lat="42.93466" lon="0.58415">
        <ele>1016</ele>
        <time>2019-02-03T09:55:18.000Z</time>
      </trkpt>
      <trkpt lat="42.93465" lon="0.58415">
        <ele>1016</ele>
        <time>2019-02-03T09:55:19.000Z</time>
      </trkpt>
      <trkpt lat="42.93465" lon="0.58415">
        <ele>1016.5</ele>
        <time>2019-02-03T09:55:20.000Z</time>
      </trkpt>
      <trkpt lat="42.93464" lon="0.58415">
        <ele>1017</ele>
        <time>2019-02-03T09:55:21.000Z</time>
      </trkpt>
      <trkpt lat="42.93464" lon="0.58416">
        <ele>1017</ele>
        <time>2019-02-03T09:55:22.000Z</time>
      </trkpt>
      <trkpt lat="42.93463" lon="0.58416">
        <ele>1017</ele>
        <time>2019-02-03T09:55:23.000Z</time>
      </trkpt>
      <trkpt lat="42.93462" lon="0.58416">
        <ele>1017</ele>
        <time>2019-02-03T09:55:24.000Z</time>
      </trkpt>
      <trkpt lat="42.93461" lon="0.58417">
        <ele>1017</ele>
        <time>2019-02-03T09:55:25.000Z</time>
      </trkpt>
      <trkpt lat="42.9346" lon="0.58417">
        <ele>1017</ele>
        <time>2019-02-03T09:55:26.000Z</time>
      </trkpt>
      <trkpt lat="42.93459" lon="0.58417">
        <ele>1017</ele>
        <time>2019-02-03T09:55:27.000Z</time>
      </trkpt>
      <trkpt lat="42.93459" lon="0.58417">
        <ele>1017</ele>
        <time>2019-02-03T09:55:28.000Z</time>
      </trkpt>
      <trkpt lat="42.93458" lon="0.58418">
        <ele>1017</ele>
        <time>2019-02-03T09:55:29.000Z</time>
      </trkpt>
      <trkpt lat="42.93457" lon="0.58418">
        <ele>1017</ele>
        <time>2019-02-03T09:55:30.000Z</time>
      </trkpt>
      <trkpt lat="42.93456" lon="0.58418">
        <ele>1017</ele>
        <time>2019-02-03T09:55:31.000Z</time>
      </trkpt>
      <trkpt lat="42.93456" lon="0.58418">
        <ele>1017</ele>
        <time>2019-02-03T09:55:32.000Z</time>
      </trkpt>
      <trkpt lat="42.93455" lon="0.58418">
        <ele>1017</ele>
        <time>2019-02-03T09:55:33.000Z</time>
      </trkpt>
      <trkpt lat="42.93455" lon="0.58418">
        <ele>1017.5</ele>
        <time>2019-02-03T09:55:34.000Z</time>
      </trkpt>
      <trkpt lat="42.93454" lon="0.58418">
        <ele>1018</ele>
        <time>2019-02-03T09:55:35.000Z</time>
      </trkpt>
      <trkpt lat="42.93454" lon="0.58418">
        <ele>1018</ele>
        <time>2019-02-03T09:55:36.000Z</time>
      </trkpt>
      <trkpt lat="42.93453" lon="0.58418">
        <ele>1018</ele>
        <time>2019-02-03T09:55:37.000Z</time>
      </trkpt>
      <trkpt lat="42.93453" lon="0.58419">
        <ele>1018</ele>
        <time>2019-02-03T09:55:38.000Z</time>
      </trkpt>
      <trkpt lat="42.93452" lon="0.58419">
        <ele>1018</ele>
        <time>2019-02-03T09:55:39.000Z</time>
      </trkpt>
      <trkpt lat="42.93452" lon="0.58419">
        <ele>1018</ele>
        <time>2019-02-03T09:55:40.000Z</time>
      </trkpt>
      <trkpt lat="42.93452" lon="0.58419">
        <ele>1018</ele>
        <time>2019-02-03T09:55:41.000Z</time>
      </trkpt>
      <trkpt lat="42.93452" lon="0.5842">
        <ele>1018</ele>
        <time>2019-02-03T09:55:42.000Z</time>
      </trkpt>
      <trkpt lat="42.93452" lon="0.5842">
        <ele>1018</ele>
        <time>2019-02-03T09:55:43.000Z</time>
      </trkpt>
      <trkpt lat="42.93452" lon="0.5842">
        <ele>1018</ele>
        <time>2019-02-03T09:55:44.000Z</time>
      </trkpt>
      <trkpt lat="42.93452" lon="0.5842">
        <ele>1018</ele>
        <time>2019-02-03T09:55:45.000Z</time>
      </trkpt>
      <trkpt lat="42.93451" lon="0.5842">
        <ele>1018.5</ele>
        <time>2019-02-03T09:55:46.000Z</time>
      </trkpt>
      <trkpt lat="42.9345" lon="0.58421">
        <ele>1019</ele>
        <time>2019-02-03T09:55:47.000Z</time>
      </trkpt>
      <trkpt lat="42.93449" lon="0.58421">
        <ele>1019</ele>
        <time>2019-02-03T09:55:48.000Z</time>
      </trkpt>
      <trkpt lat="42.93448" lon="0.58421">
        <ele>1019</ele>
        <time>2019-02-03T09:55:49.000Z</time>
      </trkpt>
      <trkpt lat="42.93448" lon="0.58422">
        <ele>1019</ele>
        <time>2019-02-03T09:55:50.000Z</time>
      </trkpt>
      <trkpt lat="42.93447" lon="0.58422">
        <ele>1019</ele>
        <time>2019-02-03T09:55:51.000Z</time>
      </trkpt>
      <trkpt lat="42.93447" lon="0.58422">
        <ele>1019</ele>
        <time>2019-02-03T09:55:52.000Z</time>
      </trkpt>
      <trkpt lat="42.93446" lon="0.58422">
        <ele>1019</ele>
        <time>2019-02-03T09:55:53.000Z</time>
      </trkpt>
      <trkpt lat="42.93446" lon="0.58423">
        <ele>1019</ele>
        <time>2019-02-03T09:55:54.000Z</time>
      </trkpt>
      <trkpt lat="42.93445" lon="0.58423">
        <ele>1019</ele>
        <time>2019-02-03T09:55:55.000Z</time>
      </trkpt>
      <trkpt lat="42.93445" lon="0.58423">
        <ele>1019.5</ele>
        <time>2019-02-03T09:55:56.000Z</time>
      </trkpt>
      <trkpt lat="42.93444" lon="0.58423">
        <ele>1020</ele>
        <time>2019-02-03T09:55:57.000Z</time>
      </trkpt>
      <trkpt lat="42.93444" lon="0.58423">
        <ele>1020</ele>
        <time>2019-02-03T09:55:58.000Z</time>
      </trkpt>
      <trkpt lat="42.93443" lon="0.58423">
        <ele>1020</ele>
        <time>2019-02-03T09:55:59.000Z</time>
      </trkpt>
      <trkpt lat="42.93442" lon="0.58424">
        <ele>1020</ele>
        <time>2019-02-03T09:56:00.000Z</time>
      </trkpt>
      <trkpt lat="42.93442" lon="0.58424">
        <ele>1020</ele>
        <time>2019-02-03T09:56:01.000Z</time>
      </trkpt>
      <trkpt lat="42.93441" lon="0.58424">
        <ele>1020</ele>
        <time>2019-02-03T09:56:02.000Z</time>
      </trkpt>
      <trkpt lat="42.93441" lon="0.58424">
        <ele>1020</ele>
        <time>2019-02-03T09:56:03.000Z</time>
      </trkpt>
      <trkpt lat="42.9344" lon="0.58424">
        <ele>1020</ele>
        <time>2019-02-03T09:56:04.000Z</time>
      </trkpt>
      <trkpt lat="42.9344" lon="0.58424">
        <ele>1020</ele>
        <time>2019-02-03T09:56:05.000Z</time>
      </trkpt>
      <trkpt lat="42.93439" lon="0.58424">
        <ele>1020</ele>
        <time>2019-02-03T09:56:06.000Z</time>
      </trkpt>
      <trkpt lat="42.93438" lon="0.58424">
        <ele>1020</ele>
        <time>2019-02-03T09:56:07.000Z</time>
      </trkpt>
      <trkpt lat="42.93438" lon="0.58424">
        <ele>1020</ele>
        <time>2019-02-03T09:56:08.000Z</time>
      </trkpt>
      <trkpt lat="42.93437" lon="0.58424">
        <ele>1020</ele>
        <time>2019-02-03T09:56:09.000Z</time>
      </trkpt>
      <trkpt lat="42.93436" lon="0.58424">
        <ele>1020</ele>
        <time>2019-02-03T09:56:10.000Z</time>
      </trkpt>
      <trkpt lat="42.93435" lon="0.58424">
        <ele>1020</ele>
        <time>2019-02-03T09:56:11.000Z</time>
      </trkpt>
      <trkpt lat="42.93435" lon="0.58424">
        <ele>1020</ele>
        <time>2019-02-03T09:56:12.000Z</time>
      </trkpt>
      <trkpt lat="42.93434" lon="0.58424">
        <ele>1020</ele>
        <time>2019-02-03T09:56:13.000Z</time>
      </trkpt>
      <trkpt lat="42.93433" lon="0.58424">
        <ele>1020</ele>
        <time>2019-02-03T09:56:14.000Z</time>
      </trkpt>
      <trkpt lat="42.93433" lon="0.58424">
        <ele>1020</ele>
        <time>2019-02-03T09:56:15.000Z</time>
      </trkpt>
      <trkpt lat="42.93432" lon="0.58424">
        <ele>1020.5</ele>
        <time>2019-02-03T09:56:16.000Z</time>
      </trkpt>
      <trkpt lat="42.93432" lon="0.58424">
        <ele>1021</ele>
        <time>2019-02-03T09:56:17.000Z</time>
      </trkpt>
      <trkpt lat="42.93431" lon="0.58424">
        <ele>1021</ele>
        <time>2019-02-03T09:56:18.000Z</time>
      </trkpt>
      <trkpt lat="42.93431" lon="0.58424">
        <ele>1021</ele>
        <time>2019-02-03T09:56:19.000Z</time>
      </trkpt>
      <trkpt lat="42.9343" lon="0.58425">
        <ele>1021</ele>
        <time>2019-02-03T09:56:20.000Z</time>
      </trkpt>
      <trkpt lat="42.9343" lon="0.58425">
        <ele>1021</ele>
        <time>2019-02-03T09:56:21.000Z</time>
      </trkpt>
      <trkpt lat="42.93429" lon="0.58425">
        <ele>1021</ele>
        <time>2019-02-03T09:56:22.000Z</time>
      </trkpt>
      <trkpt lat="42.93429" lon="0.58426">
        <ele>1021</ele>
        <time>2019-02-03T09:56:23.000Z</time>
      </trkpt>
      <trkpt lat="42.93429" lon="0.58426">
        <ele>1021</ele>
        <time>2019-02-03T09:56:24.000Z</time>
      </trkpt>
      <trkpt lat="42.93428" lon="0.58426">
        <ele>1021.3</ele>
        <time>2019-02-03T09:56:25.000Z</time>
      </trkpt>
      <trkpt lat="42.93428" lon="0.58426">
        <ele>1021.7</ele>
        <time>2019-02-03T09:56:26.000Z</time>
      </trkpt>
      <trkpt lat="42.93427" lon="0.58427">
        <ele>1022</ele>
        <time>2019-02-03T09:56:27.000Z</time>
      </trkpt>
      <trkpt lat="42.93427" lon="0.58427">
        <ele>1022</ele>
        <time>2019-02-03T09:56:28.000Z</time>
      </trkpt>
      <trkpt lat="42.93426" lon="0.58427">
        <ele>1022</ele>
        <time>2019-02-03T09:56:29.000Z</time>
      </trkpt>
      <trkpt lat="42.93426" lon="0.58427">
        <ele>1022</ele>
        <time>2019-02-03T09:56:30.000Z</time>
      </trkpt>
      <trkpt lat="42.93425" lon="0.58427">
        <ele>1022</ele>
        <time>2019-02-03T09:56:31.000Z</time>
      </trkpt>
      <trkpt lat="42.93425" lon="0.58427">
        <ele>1022</ele>
        <time>2019-02-03T09:56:32.000Z</time>
      </trkpt>
      <trkpt lat="42.93424" lon="0.58427">
        <ele>1022</ele>
        <time>2019-02-03T09:56:33.000Z</time>
      </trkpt>
      <trkpt lat="42.93423" lon="0.58427">
        <ele>1022</ele>
        <time>2019-02-03T09:56:34.000Z</time>
      </trkpt>
      <trkpt lat="42.93423" lon="0.58427">
        <ele>1022</ele>
        <time>2019-02-03T09:56:35.000Z</time>
      </trkpt>
      <trkpt lat="42.93422" lon="0.58428">
        <ele>1022</ele>
        <time>2019-02-03T09:56:36.000Z</time>
      </trkpt>
      <trkpt lat="42.93422" lon="0.58428">
        <ele>1022.3</ele>
        <time>2019-02-03T09:56:37.000Z</time>
      </trkpt>
      <trkpt lat="42.93421" lon="0.58428">
        <ele>1022.7</ele>
        <time>2019-02-03T09:56:38.000Z</time>
      </trkpt>
      <trkpt lat="42.93421" lon="0.58428">
        <ele>1023</ele>
        <time>2019-02-03T09:56:39.000Z</time>
      </trkpt>
      <trkpt lat="42.9342" lon="0.58428">
        <ele>1023</ele>
        <time>2019-02-03T09:56:40.000Z</time>
      </trkpt>
      <trkpt lat="42.93419" lon="0.58429">
        <ele>1023</ele>
        <time>2019-02-03T09:56:41.000Z</time>
      </trkpt>
      <trkpt lat="42.93419" lon="0.58429">
        <ele>1023</ele>
        <time>2019-02-03T09:56:42.000Z</time>
      </trkpt>
      <trkpt lat="42.93418" lon="0.58429">
        <ele>1023</ele>
        <time>2019-02-03T09:56:43.000Z</time>
      </trkpt>
      <trkpt lat="42.93418" lon="0.5843">
        <ele>1023</ele>
        <time>2019-02-03T09:56:44.000Z</time>
      </trkpt>
      <trkpt lat="42.93417" lon="0.58431">
        <ele>1023</ele>
        <time>2019-02-03T09:56:45.000Z</time>
      </trkpt>
      <trkpt lat="42.93416" lon="0.58431">
        <ele>1023</ele>
        <time>2019-02-03T09:56:46.000Z</time>
      </trkpt>
      <trkpt lat="42.93415" lon="0.58431">
        <ele>1023.3</ele>
        <time>2019-02-03T09:56:47.000Z</time>
      </trkpt>
      <trkpt lat="42.93414" lon="0.58431">
        <ele>1023.7</ele>
        <time>2019-02-03T09:56:48.000Z</time>
      </trkpt>
      <trkpt lat="42.93414" lon="0.58431">
        <ele>1024</ele>
        <time>2019-02-03T09:56:49.000Z</time>
      </trkpt>
      <trkpt lat="42.93414" lon="0.58432">
        <ele>1024</ele>
        <time>2019-02-03T09:56:50.000Z</time>
      </trkpt>
      <trkpt lat="42.93414" lon="0.58432">
        <ele>1024</ele>
        <time>2019-02-03T09:56:51.000Z</time>
      </trkpt>
      <trkpt lat="42.93414" lon="0.58432">
        <ele>1024</ele>
        <time>2019-02-03T09:56:52.000Z</time>
      </trkpt>
      <trkpt lat="42.93413" lon="0.58432">
        <ele>1024</ele>
        <time>2019-02-03T09:56:53.000Z</time>
      </trkpt>
      <trkpt lat="42.93413" lon="0.58432">
        <ele>1024</ele>
        <time>2019-02-03T09:56:54.000Z</time>
      </trkpt>
      <trkpt lat="42.93413" lon="0.58432">
        <ele>1024</ele>
        <time>2019-02-03T09:56:55.000Z</time>
      </trkpt>
      <trkpt lat="42.93412" lon="0.58432">
        <ele>1024</ele>
        <time>2019-02-03T09:56:56.000Z</time>
      </trkpt>
      <trkpt lat="42.93412" lon="0.58432">
        <ele>1024</ele>
        <time>2019-02-03T09:56:57.000Z</time>
      </trkpt>
      <trkpt lat="42.93411" lon="0.58433">
        <ele>1024</ele>
        <time>2019-02-03T09:56:58.000Z</time>
      </trkpt>
      <trkpt lat="42.93411" lon="0.58433">
        <ele>1024</ele>
        <time>2019-02-03T09:56:59.000Z</time>
      </trkpt>
      <trkpt lat="42.9341" lon="0.58433">
        <ele>1024</ele>
        <time>2019-02-03T09:57:00.000Z</time>
      </trkpt>
      <trkpt lat="42.9341" lon="0.58434">
        <ele>1024</ele>
        <time>2019-02-03T09:57:01.000Z</time>
      </trkpt>
      <trkpt lat="42.93409" lon="0.58434">
        <ele>1024</ele>
        <time>2019-02-03T09:57:02.000Z</time>
      </trkpt>
      <trkpt lat="42.93408" lon="0.58434">
        <ele>1024</ele>
        <time>2019-02-03T09:57:03.000Z</time>
      </trkpt>
      <trkpt lat="42.93407" lon="0.58435">
        <ele>1024.5</ele>
        <time>2019-02-03T09:57:04.000Z</time>
      </trkpt>
      <trkpt lat="42.93407" lon="0.58435">
        <ele>1025</ele>
        <time>2019-02-03T09:57:05.000Z</time>
      </trkpt>
      <trkpt lat="42.93406" lon="0.58436">
        <ele>1025</ele>
        <time>2019-02-03T09:57:06.000Z</time>
      </trkpt>
      <trkpt lat="42.93405" lon="0.58436">
        <ele>1025</ele>
        <time>2019-02-03T09:57:07.000Z</time>
      </trkpt>
      <trkpt lat="42.93404" lon="0.58437">
        <ele>1025</ele>
        <time>2019-02-03T09:57:08.000Z</time>
      </trkpt>
      <trkpt lat="42.93404" lon="0.58437">
        <ele>1025</ele>
        <time>2019-02-03T09:57:09.000Z</time>
      </trkpt>
      <trkpt lat="42.93403" lon="0.58438">
        <ele>1025</ele>
        <time>2019-02-03T09:57:10.000Z</time>
      </trkpt>
      <trkpt lat="42.93402" lon="0.58438">
        <ele>1025</ele>
        <time>2019-02-03T09:57:11.000Z</time>
      </trkpt>
      <trkpt lat="42.93402" lon="0.58439">
        <ele>1025</ele>
        <time>2019-02-03T09:57:12.000Z</time>
      </trkpt>
      <trkpt lat="42.93401" lon="0.58439">
        <ele>1025</ele>
        <time>2019-02-03T09:57:13.000Z</time>
      </trkpt>
      <trkpt lat="42.93401" lon="0.5844">
        <ele>1025</ele>
        <time>2019-02-03T09:57:14.000Z</time>
      </trkpt>
      <trkpt lat="42.934" lon="0.5844">
        <ele>1025</ele>
        <time>2019-02-03T09:57:15.000Z</time>
      </trkpt>
      <trkpt lat="42.934" lon="0.58441">
        <ele>1025</ele>
        <time>2019-02-03T09:57:16.000Z</time>
      </trkpt>
      <trkpt lat="42.93399" lon="0.58441">
        <ele>1025</ele>
        <time>2019-02-03T09:57:17.000Z</time>
      </trkpt>
      <trkpt lat="42.93399" lon="0.58442">
        <ele>1025</ele>
        <time>2019-02-03T09:57:18.000Z</time>
      </trkpt>
      <trkpt lat="42.93398" lon="0.58442">
        <ele>1025</ele>
        <time>2019-02-03T09:57:19.000Z</time>
      </trkpt>
      <trkpt lat="42.93398" lon="0.58442">
        <ele>1025</ele>
        <time>2019-02-03T09:57:20.000Z</time>
      </trkpt>
      <trkpt lat="42.93397" lon="0.58443">
        <ele>1025</ele>
        <time>2019-02-03T09:57:21.000Z</time>
      </trkpt>
      <trkpt lat="42.93397" lon="0.58443">
        <ele>1025.5</ele>
        <time>2019-02-03T09:57:22.000Z</time>
      </trkpt>
      <trkpt lat="42.93397" lon="0.58443">
        <ele>1026</ele>
        <time>2019-02-03T09:57:23.000Z</time>
      </trkpt>
      <trkpt lat="42.93396" lon="0.58444">
        <ele>1026</ele>
        <time>2019-02-03T09:57:24.000Z</time>
      </trkpt>
      <trkpt lat="42.93396" lon="0.58444">
        <ele>1026</ele>
        <time>2019-02-03T09:57:25.000Z</time>
      </trkpt>
      <trkpt lat="42.93395" lon="0.58444">
        <ele>1026</ele>
        <time>2019-02-03T09:57:26.000Z</time>
      </trkpt>
      <trkpt lat="42.93395" lon="0.58445">
        <ele>1026</ele>
        <time>2019-02-03T09:57:27.000Z</time>
      </trkpt>
      <trkpt lat="42.93395" lon="0.58445">
        <ele>1026</ele>
        <time>2019-02-03T09:57:28.000Z</time>
      </trkpt>
      <trkpt lat="42.93394" lon="0.58445">
        <ele>1026</ele>
        <time>2019-02-03T09:57:29.000Z</time>
      </trkpt>
      <trkpt lat="42.93394" lon="0.58445">
        <ele>1026</ele>
        <time>2019-02-03T09:57:30.000Z</time>
      </trkpt>
      <trkpt lat="42.93394" lon="0.58445">
        <ele>1026</ele>
        <time>2019-02-03T09:57:31.000Z</time>
      </trkpt>
      <trkpt lat="42.93393" lon="0.58446">
        <ele>1026</ele>
        <time>2019-02-03T09:57:32.000Z</time>
      </trkpt>
      <trkpt lat="42.93393" lon="0.58446">
        <ele>1026.3</ele>
        <time>2019-02-03T09:57:33.000Z</time>
      </trkpt>
      <trkpt lat="42.93392" lon="0.58446">
        <ele>1026.7</ele>
        <time>2019-02-03T09:57:34.000Z</time>
      </trkpt>
      <trkpt lat="42.93392" lon="0.58447">
        <ele>1027</ele>
        <time>2019-02-03T09:57:35.000Z</time>
      </trkpt>
      <trkpt lat="42.93391" lon="0.58447">
        <ele>1027</ele>
        <time>2019-02-03T09:57:36.000Z</time>
      </trkpt>
      <trkpt lat="42.9339" lon="0.58448">
        <ele>1027</ele>
        <time>2019-02-03T09:57:37.000Z</time>
      </trkpt>
      <trkpt lat="42.9339" lon="0.58449">
        <ele>1027</ele>
        <time>2019-02-03T09:57:38.000Z</time>
      </trkpt>
      <trkpt lat="42.93389" lon="0.5845">
        <ele>1027</ele>
        <time>2019-02-03T09:57:39.000Z</time>
      </trkpt>
      <trkpt lat="42.93388" lon="0.58451">
        <ele>1027</ele>
        <time>2019-02-03T09:57:40.000Z</time>
      </trkpt>
      <trkpt lat="42.93388" lon="0.58452">
        <ele>1027</ele>
        <time>2019-02-03T09:57:41.000Z</time>
      </trkpt>
      <trkpt lat="42.93387" lon="0.58453">
        <ele>1027</ele>
        <time>2019-02-03T09:57:42.000Z</time>
      </trkpt>
      <trkpt lat="42.93386" lon="0.58454">
        <ele>1027</ele>
        <time>2019-02-03T09:57:43.000Z</time>
      </trkpt>
      <trkpt lat="42.93386" lon="0.58454">
        <ele>1027</ele>
        <time>2019-02-03T09:57:44.000Z</time>
      </trkpt>
      <trkpt lat="42.93386" lon="0.58455">
        <ele>1027</ele>
        <time>2019-02-03T09:57:45.000Z</time>
      </trkpt>
      <trkpt lat="42.93386" lon="0.58455">
        <ele>1027.5</ele>
        <time>2019-02-03T09:57:46.000Z</time>
      </trkpt>
      <trkpt lat="42.93385" lon="0.58455">
        <ele>1028</ele>
        <time>2019-02-03T09:57:47.000Z</time>
      </trkpt>
      <trkpt lat="42.93385" lon="0.58456">
        <ele>1028</ele>
        <time>2019-02-03T09:57:48.000Z</time>
      </trkpt>
      <trkpt lat="42.93385" lon="0.58456">
        <ele>1028</ele>
        <time>2019-02-03T09:57:49.000Z</time>
      </trkpt>
      <trkpt lat="42.93385" lon="0.58457">
        <ele>1028</ele>
        <time>2019-02-03T09:57:50.000Z</time>
      </trkpt>
      <trkpt lat="42.93385" lon="0.58458">
        <ele>1028</ele>
        <time>2019-02-03T09:57:51.000Z</time>
      </trkpt>
      <trkpt lat="42.93384" lon="0.58459">
        <ele>1028</ele>
        <time>2019-02-03T09:57:52.000Z</time>
      </trkpt>
      <trkpt lat="42.93384" lon="0.58459">
        <ele>1028</ele>
        <time>2019-02-03T09:57:53.000Z</time>
      </trkpt>
      <trkpt lat="42.93384" lon="0.5846">
        <ele>1028</ele>
        <time>2019-02-03T09:57:54.000Z</time>
      </trkpt>
      <trkpt lat="42.93383" lon="0.58461">
        <ele>1028</ele>
        <time>2019-02-03T09:57:55.000Z</time>
      </trkpt>
      <trkpt lat="42.93383" lon="0.58462">
        <ele>1028</ele>
        <time>2019-02-03T09:57:56.000Z</time>
      </trkpt>
      <trkpt lat="42.93382" lon="0.58463">
        <ele>1028</ele>
        <time>2019-02-03T09:57:57.000Z</time>
      </trkpt>
      <trkpt lat="42.93382" lon="0.58464">
        <ele>1028</ele>
        <time>2019-02-03T09:57:58.000Z</time>
      </trkpt>
      <trkpt lat="42.93381" lon="0.58465">
        <ele>1028.3</ele>
        <time>2019-02-03T09:57:59.000Z</time>
      </trkpt>
      <trkpt lat="42.93381" lon="0.58465">
        <ele>1028.7</ele>
        <time>2019-02-03T09:58:00.000Z</time>
      </trkpt>
      <trkpt lat="42.9338" lon="0.58466">
        <ele>1029</ele>
        <time>2019-02-03T09:58:01.000Z</time>
      </trkpt>
      <trkpt lat="42.9338" lon="0.58467">
        <ele>1029</ele>
        <time>2019-02-03T09:58:02.000Z</time>
      </trkpt>
      <trkpt lat="42.93379" lon="0.58468">
        <ele>1029</ele>
        <time>2019-02-03T09:58:03.000Z</time>
      </trkpt>
      <trkpt lat="42.93379" lon="0.58469">
        <ele>1029</ele>
        <time>2019-02-03T09:58:04.000Z</time>
      </trkpt>
      <trkpt lat="42.93378" lon="0.5847">
        <ele>1029</ele>
        <time>2019-02-03T09:58:05.000Z</time>
      </trkpt>
      <trkpt lat="42.93378" lon="0.58471">
        <ele>1029</ele>
        <time>2019-02-03T09:58:06.000Z</time>
      </trkpt>
      <trkpt lat="42.93378" lon="0.58472">
        <ele>1029</ele>
        <time>2019-02-03T09:58:07.000Z</time>
      </trkpt>
      <trkpt lat="42.93377" lon="0.58473">
        <ele>1029</ele>
        <time>2019-02-03T09:58:08.000Z</time>
      </trkpt>
      <trkpt lat="42.93377" lon="0.58474">
        <ele>1029</ele>
        <time>2019-02-03T09:58:09.000Z</time>
      </trkpt>
      <trkpt lat="42.93377" lon="0.58475">
        <ele>1029</ele>
        <time>2019-02-03T09:58:10.000Z</time>
      </trkpt>
      <trkpt lat="42.93377" lon="0.58476">
        <ele>1029</ele>
        <time>2019-02-03T09:58:11.000Z</time>
      </trkpt>
      <trkpt lat="42.93376" lon="0.58477">
        <ele>1029.5</ele>
        <time>2019-02-03T09:58:12.000Z</time>
      </trkpt>
      <trkpt lat="42.93376" lon="0.58478">
        <ele>1030</ele>
        <time>2019-02-03T09:58:13.000Z</time>
      </trkpt>
      <trkpt lat="42.93376" lon="0.58479">
        <ele>1030</ele>
        <time>2019-02-03T09:58:14.000Z</time>
      </trkpt>
      <trkpt lat="42.93376" lon="0.5848">
        <ele>1030</ele>
        <time>2019-02-03T09:58:15.000Z</time>
      </trkpt>
      <trkpt lat="42.93375" lon="0.58481">
        <ele>1030</ele>
        <time>2019-02-03T09:58:16.000Z</time>
      </trkpt>
      <trkpt lat="42.93375" lon="0.58482">
        <ele>1030</ele>
        <time>2019-02-03T09:58:17.000Z</time>
      </trkpt>
      <trkpt lat="42.93375" lon="0.58482">
        <ele>1030</ele>
        <time>2019-02-03T09:58:18.000Z</time>
      </trkpt>
      <trkpt lat="42.93375" lon="0.58483">
        <ele>1030</ele>
        <time>2019-02-03T09:58:19.000Z</time>
      </trkpt>
      <trkpt lat="42.93375" lon="0.58484">
        <ele>1030</ele>
        <time>2019-02-03T09:58:20.000Z</time>
      </trkpt>
      <trkpt lat="42.93374" lon="0.58484">
        <ele>1030</ele>
        <time>2019-02-03T09:58:21.000Z</time>
      </trkpt>
      <trkpt lat="42.93374" lon="0.58485">
        <ele>1030</ele>
        <time>2019-02-03T09:58:22.000Z</time>
      </trkpt>
      <trkpt lat="42.93374" lon="0.58485">
        <ele>1030</ele>
        <time>2019-02-03T09:58:23.000Z</time>
      </trkpt>
      <trkpt lat="42.93373" lon="0.58486">
        <ele>1030</ele>
        <time>2019-02-03T09:58:24.000Z</time>
      </trkpt>
      <trkpt lat="42.93373" lon="0.58486">
        <ele>1030</ele>
        <time>2019-02-03T09:58:25.000Z</time>
      </trkpt>
      <trkpt lat="42.93373" lon="0.58487">
        <ele>1030.5</ele>
        <time>2019-02-03T09:58:26.000Z</time>
      </trkpt>
      <trkpt lat="42.93373" lon="0.58487">
        <ele>1031</ele>
        <time>2019-02-03T09:58:27.000Z</time>
      </trkpt>
      <trkpt lat="42.93372" lon="0.58488">
        <ele>1031</ele>
        <time>2019-02-03T09:58:28.000Z</time>
      </trkpt>
      <trkpt lat="42.93372" lon="0.58488">
        <ele>1031</ele>
        <time>2019-02-03T09:58:29.000Z</time>
      </trkpt>
      <trkpt lat="42.93372" lon="0.58489">
        <ele>1031</ele>
        <time>2019-02-03T09:58:30.000Z</time>
      </trkpt>
      <trkpt lat="42.93371" lon="0.58489">
        <ele>1031</ele>
        <time>2019-02-03T09:58:31.000Z</time>
      </trkpt>
      <trkpt lat="42.93371" lon="0.58489">
        <ele>1031</ele>
        <time>2019-02-03T09:58:32.000Z</time>
      </trkpt>
      <trkpt lat="42.93371" lon="0.5849">
        <ele>1031</ele>
        <time>2019-02-03T09:58:33.000Z</time>
      </trkpt>
      <trkpt lat="42.9337" lon="0.5849">
        <ele>1031</ele>
        <time>2019-02-03T09:58:34.000Z</time>
      </trkpt>
      <trkpt lat="42.9337" lon="0.58491">
        <ele>1031</ele>
        <time>2019-02-03T09:58:35.000Z</time>
      </trkpt>
      <trkpt lat="42.9337" lon="0.58491">
        <ele>1031.5</ele>
        <time>2019-02-03T09:58:36.000Z</time>
      </trkpt>
      <trkpt lat="42.93369" lon="0.58492">
        <ele>1032</ele>
        <time>2019-02-03T09:58:37.000Z</time>
      </trkpt>
      <trkpt lat="42.93369" lon="0.58492">
        <ele>1032</ele>
        <time>2019-02-03T09:58:38.000Z</time>
      </trkpt>
      <trkpt lat="42.93369" lon="0.58493">
        <ele>1032</ele>
        <time>2019-02-03T09:58:39.000Z</time>
      </trkpt>
      <trkpt lat="42.93368" lon="0.58493">
        <ele>1032</ele>
        <time>2019-02-03T09:58:40.000Z</time>
      </trkpt>
      <trkpt lat="42.93368" lon="0.58494">
        <ele>1032</ele>
        <time>2019-02-03T09:58:41.000Z</time>
      </trkpt>
      <trkpt lat="42.93367" lon="0.58494">
        <ele>1032</ele>
        <time>2019-02-03T09:58:42.000Z</time>
      </trkpt>
      <trkpt lat="42.93367" lon="0.58495">
        <ele>1032</ele>
        <time>2019-02-03T09:58:43.000Z</time>
      </trkpt>
      <trkpt lat="42.93367" lon="0.58495">
        <ele>1032</ele>
        <time>2019-02-03T09:58:44.000Z</time>
      </trkpt>
      <trkpt lat="42.93366" lon="0.58496">
        <ele>1032</ele>
        <time>2019-02-03T09:58:45.000Z</time>
      </trkpt>
      <trkpt lat="42.93366" lon="0.58497">
        <ele>1032</ele>
        <time>2019-02-03T09:58:46.000Z</time>
      </trkpt>
      <trkpt lat="42.93365" lon="0.58497">
        <ele>1032</ele>
        <time>2019-02-03T09:58:47.000Z</time>
      </trkpt>
      <trkpt lat="42.93365" lon="0.58498">
        <ele>1032.5</ele>
        <time>2019-02-03T09:58:48.000Z</time>
      </trkpt>
      <trkpt lat="42.93364" lon="0.58498">
        <ele>1033</ele>
        <time>2019-02-03T09:58:49.000Z</time>
      </trkpt>
      <trkpt lat="42.93364" lon="0.58499">
        <ele>1033</ele>
        <time>2019-02-03T09:58:50.000Z</time>
      </trkpt>
      <trkpt lat="42.93363" lon="0.585">
        <ele>1033</ele>
        <time>2019-02-03T09:58:51.000Z</time>
      </trkpt>
      <trkpt lat="42.93363" lon="0.585">
        <ele>1033</ele>
        <time>2019-02-03T09:58:52.000Z</time>
      </trkpt>
      <trkpt lat="42.93362" lon="0.58501">
        <ele>1033</ele>
        <time>2019-02-03T09:58:53.000Z</time>
      </trkpt>
      <trkpt lat="42.93362" lon="0.58501">
        <ele>1033</ele>
        <time>2019-02-03T09:58:54.000Z</time>
      </trkpt>
      <trkpt lat="42.93361" lon="0.58502">
        <ele>1033</ele>
        <time>2019-02-03T09:58:55.000Z</time>
      </trkpt>
      <trkpt lat="42.9336" lon="0.58502">
        <ele>1033.5</ele>
        <time>2019-02-03T09:58:56.000Z</time>
      </trkpt>
      <trkpt lat="42.9336" lon="0.58503">
        <ele>1034</ele>
        <time>2019-02-03T09:58:57.000Z</time>
      </trkpt>
      <trkpt lat="42.93359" lon="0.58503">
        <ele>1034</ele>
        <time>2019-02-03T09:58:58.000Z</time>
      </trkpt>
      <trkpt lat="42.93358" lon="0.58504">
        <ele>1034</ele>
        <time>2019-02-03T09:58:59.000Z</time>
      </trkpt>
      <trkpt lat="42.93358" lon="0.58504">
        <ele>1034</ele>
        <time>2019-02-03T09:59:00.000Z</time>
      </trkpt>
      <trkpt lat="42.93357" lon="0.58504">
        <ele>1034</ele>
        <time>2019-02-03T09:59:01.000Z</time>
      </trkpt>
      <trkpt lat="42.93356" lon="0.58504">
        <ele>1034</ele>
        <time>2019-02-03T09:59:02.000Z</time>
      </trkpt>
      <trkpt lat="42.93356" lon="0.58505">
        <ele>1034</ele>
        <time>2019-02-03T09:59:03.000Z</time>
      </trkpt>
      <trkpt lat="42.93355" lon="0.58505">
        <ele>1034</ele>
        <time>2019-02-03T09:59:04.000Z</time>
      </trkpt>
      <trkpt lat="42.93355" lon="0.58505">
        <ele>1034</ele>
        <time>2019-02-03T09:59:05.000Z</time>
      </trkpt>
      <trkpt lat="42.93354" lon="0.58505">
        <ele>1034</ele>
        <time>2019-02-03T09:59:06.000Z</time>
      </trkpt>
      <trkpt lat="42.93354" lon="0.58505">
        <ele>1034</ele>
        <time>2019-02-03T09:59:07.000Z</time>
      </trkpt>
      <trkpt lat="42.93353" lon="0.58505">
        <ele>1034</ele>
        <time>2019-02-03T09:59:08.000Z</time>
      </trkpt>
      <trkpt lat="42.93353" lon="0.58505">
        <ele>1034</ele>
        <time>2019-02-03T09:59:09.000Z</time>
      </trkpt>
      <trkpt lat="42.93353" lon="0.58506">
        <ele>1034.5</ele>
        <time>2019-02-03T09:59:10.000Z</time>
      </trkpt>
      <trkpt lat="42.93352" lon="0.58506">
        <ele>1035</ele>
        <time>2019-02-03T09:59:11.000Z</time>
      </trkpt>
      <trkpt lat="42.93351" lon="0.58506">
        <ele>1035</ele>
        <time>2019-02-03T09:59:12.000Z</time>
      </trkpt>
      <trkpt lat="42.93351" lon="0.58506">
        <ele>1035</ele>
        <time>2019-02-03T09:59:13.000Z</time>
      </trkpt>
      <trkpt lat="42.9335" lon="0.58506">
        <ele>1035</ele>
        <time>2019-02-03T09:59:14.000Z</time>
      </trkpt>
      <trkpt lat="42.9335" lon="0.58506">
        <ele>1035</ele>
        <time>2019-02-03T09:59:15.000Z</time>
      </trkpt>
      <trkpt lat="42.93349" lon="0.58507">
        <ele>1035</ele>
        <time>2019-02-03T09:59:16.000Z</time>
      </trkpt>
      <trkpt lat="42.93349" lon="0.58507">
        <ele>1035</ele>
        <time>2019-02-03T09:59:17.000Z</time>
      </trkpt>
      <trkpt lat="42.93348" lon="0.58507">
        <ele>1035</ele>
        <time>2019-02-03T09:59:18.000Z</time>
      </trkpt>
      <trkpt lat="42.93348" lon="0.58507">
        <ele>1035</ele>
        <time>2019-02-03T09:59:19.000Z</time>
      </trkpt>
      <trkpt lat="42.93347" lon="0.58507">
        <ele>1035</ele>
        <time>2019-02-03T09:59:20.000Z</time>
      </trkpt>
      <trkpt lat="42.93347" lon="0.58507">
        <ele>1035</ele>
        <time>2019-02-03T09:59:21.000Z</time>
      </trkpt>
      <trkpt lat="42.93346" lon="0.58508">
        <ele>1035.5</ele>
        <time>2019-02-03T09:59:22.000Z</time>
      </trkpt>
      <trkpt lat="42.93346" lon="0.58508">
        <ele>1036</ele>
        <time>2019-02-03T09:59:23.000Z</time>
      </trkpt>
      <trkpt lat="42.93345" lon="0.58508">
        <ele>1036</ele>
        <time>2019-02-03T09:59:24.000Z</time>
      </trkpt>
      <trkpt lat="42.93344" lon="0.58508">
        <ele>1036</ele>
        <time>2019-02-03T09:59:25.000Z</time>
      </trkpt>
      <trkpt lat="42.93344" lon="0.58509">
        <ele>1036</ele>
        <time>2019-02-03T09:59:26.000Z</time>
      </trkpt>
      <trkpt lat="42.93343" lon="0.58509">
        <ele>1036</ele>
        <time>2019-02-03T09:59:27.000Z</time>
      </trkpt>
      <trkpt lat="42.93343" lon="0.5851">
        <ele>1036</ele>
        <time>2019-02-03T09:59:28.000Z</time>
      </trkpt>
      <trkpt lat="42.93342" lon="0.5851">
        <ele>1036</ele>
        <time>2019-02-03T09:59:29.000Z</time>
      </trkpt>
      <trkpt lat="42.93342" lon="0.58511">
        <ele>1036</ele>
        <time>2019-02-03T09:59:30.000Z</time>
      </trkpt>
      <trkpt lat="42.93341" lon="0.58511">
        <ele>1036</ele>
        <time>2019-02-03T09:59:31.000Z</time>
      </trkpt>
      <trkpt lat="42.93341" lon="0.58512">
        <ele>1036</ele>
        <time>2019-02-03T09:59:32.000Z</time>
      </trkpt>
      <trkpt lat="42.9334" lon="0.58512">
        <ele>1036</ele>
        <time>2019-02-03T09:59:33.000Z</time>
      </trkpt>
      <trkpt lat="42.9334" lon="0.58513">
        <ele>1036</ele>
        <time>2019-02-03T09:59:34.000Z</time>
      </trkpt>
      <trkpt lat="42.93339" lon="0.58513">
        <ele>1036</ele>
        <time>2019-02-03T09:59:35.000Z</time>
      </trkpt>
      <trkpt lat="42.93339" lon="0.58514">
        <ele>1036.5</ele>
        <time>2019-02-03T09:59:36.000Z</time>
      </trkpt>
      <trkpt lat="42.93338" lon="0.58514">
        <ele>1037</ele>
        <time>2019-02-03T09:59:37.000Z</time>
      </trkpt>
      <trkpt lat="42.93338" lon="0.58515">
        <ele>1037</ele>
        <time>2019-02-03T09:59:38.000Z</time>
      </trkpt>
      <trkpt lat="42.93337" lon="0.58516">
        <ele>1037</ele>
        <time>2019-02-03T09:59:39.000Z</time>
      </trkpt>
      <trkpt lat="42.93336" lon="0.58516">
        <ele>1037</ele>
        <time>2019-02-03T09:59:40.000Z</time>
      </trkpt>
      <trkpt lat="42.93336" lon="0.58517">
        <ele>1037</ele>
        <time>2019-02-03T09:59:41.000Z</time>
      </trkpt>
      <trkpt lat="42.93335" lon="0.58518">
        <ele>1037</ele>
        <time>2019-02-03T09:59:42.000Z</time>
      </trkpt>
      <trkpt lat="42.93335" lon="0.58518">
        <ele>1037</ele>
        <time>2019-02-03T09:59:43.000Z</time>
      </trkpt>
      <trkpt lat="42.93334" lon="0.58519">
        <ele>1037</ele>
        <time>2019-02-03T09:59:44.000Z</time>
      </trkpt>
      <trkpt lat="42.93333" lon="0.58519">
        <ele>1037</ele>
        <time>2019-02-03T09:59:45.000Z</time>
      </trkpt>
      <trkpt lat="42.93333" lon="0.5852">
        <ele>1037</ele>
        <time>2019-02-03T09:59:46.000Z</time>
      </trkpt>
      <trkpt lat="42.93332" lon="0.58521">
        <ele>1037</ele>
        <time>2019-02-03T09:59:47.000Z</time>
      </trkpt>
      <trkpt lat="42.93332" lon="0.58521">
        <ele>1037</ele>
        <time>2019-02-03T09:59:48.000Z</time>
      </trkpt>
      <trkpt lat="42.93331" lon="0.58522">
        <ele>1037</ele>
        <time>2019-02-03T09:59:49.000Z</time>
      </trkpt>
      <trkpt lat="42.93331" lon="0.58522">
        <ele>1038</ele>
        <time>2019-02-03T09:59:50.000Z</time>
      </trkpt>
      <trkpt lat="42.9333" lon="0.58523">
        <ele>1038</ele>
        <time>2019-02-03T09:59:51.000Z</time>
      </trkpt>
      <trkpt lat="42.9333" lon="0.58524">
        <ele>1038</ele>
        <time>2019-02-03T09:59:52.000Z</time>
      </trkpt>
      <trkpt lat="42.9333" lon="0.58524">
        <ele>1038</ele>
        <time>2019-02-03T09:59:53.000Z</time>
      </trkpt>
      <trkpt lat="42.93329" lon="0.58525">
        <ele>1038</ele>
        <time>2019-02-03T09:59:54.000Z</time>
      </trkpt>
      <trkpt lat="42.93329" lon="0.58525">
        <ele>1038</ele>
        <time>2019-02-03T09:59:55.000Z</time>
      </trkpt>
      <trkpt lat="42.93329" lon="0.58526">
        <ele>1038</ele>
        <time>2019-02-03T09:59:56.000Z</time>
      </trkpt>
      <trkpt lat="42.93328" lon="0.58527">
        <ele>1038</ele>
        <time>2019-02-03T09:59:57.000Z</time>
      </trkpt>
      <trkpt lat="42.93328" lon="0.58527">
        <ele>1038</ele>
        <time>2019-02-03T09:59:58.000Z</time>
      </trkpt>
      <trkpt lat="42.93328" lon="0.58528">
        <ele>1038</ele>
        <time>2019-02-03T09:59:59.000Z</time>
      </trkpt>
      <trkpt lat="42.93328" lon="0.58528">
        <ele>1038</ele>
        <time>2019-02-03T10:00:00.000Z</time>
      </trkpt>
      <trkpt lat="42.93327" lon="0.58529">
        <ele>1038</ele>
        <time>2019-02-03T10:00:01.000Z</time>
      </trkpt>
      <trkpt lat="42.93327" lon="0.58529">
        <ele>1038</ele>
        <time>2019-02-03T10:00:02.000Z</time>
      </trkpt>
      <trkpt lat="42.93327" lon="0.5853">
        <ele>1038</ele>
        <time>2019-02-03T10:00:03.000Z</time>
      </trkpt>
      <trkpt lat="42.93326" lon="0.5853">
        <ele>1038</ele>
        <time>2019-02-03T10:00:04.000Z</time>
      </trkpt>
      <trkpt lat="42.93326" lon="0.58531">
        <ele>1038</ele>
        <time>2019-02-03T10:00:05.000Z</time>
      </trkpt>
      <trkpt lat="42.93326" lon="0.58531">
        <ele>1038</ele>
        <time>2019-02-03T10:00:06.000Z</time>
      </trkpt>
      <trkpt lat="42.93325" lon="0.58532">
        <ele>1038</ele>
        <time>2019-02-03T10:00:07.000Z</time>
      </trkpt>
      <trkpt lat="42.93325" lon="0.58532">
        <ele>1038.5</ele>
        <time>2019-02-03T10:00:08.000Z</time>
      </trkpt>
      <trkpt lat="42.93325" lon="0.58532">
        <ele>1039</ele>
        <time>2019-02-03T10:00:09.000Z</time>
      </trkpt>
      <trkpt lat="42.93325" lon="0.58532">
        <ele>1039</ele>
        <time>2019-02-03T10:00:10.000Z</time>
      </trkpt>
      <trkpt lat="42.93325" lon="0.58532">
        <ele>1039</ele>
        <time>2019-02-03T10:00:11.000Z</time>
      </trkpt>
      <trkpt lat="42.93325" lon="0.58532">
        <ele>1039</ele>
        <time>2019-02-03T10:00:12.000Z</time>
      </trkpt>
      <trkpt lat="42.93325" lon="0.58532">
        <ele>1039</ele>
        <time>2019-02-03T10:00:13.000Z</time>
      </trkpt>
      <trkpt lat="42.93325" lon="0.58533">
        <ele>1039</ele>
        <time>2019-02-03T10:00:14.000Z</time>
      </trkpt>
      <trkpt lat="42.93325" lon="0.58533">
        <ele>1039</ele>
        <time>2019-02-03T10:00:15.000Z</time>
      </trkpt>
      <trkpt lat="42.93324" lon="0.58533">
        <ele>1039.5</ele>
        <time>2019-02-03T10:00:16.000Z</time>
      </trkpt>
      <trkpt lat="42.93324" lon="0.58534">
        <ele>1040</ele>
        <time>2019-02-03T10:00:17.000Z</time>
      </trkpt>
      <trkpt lat="42.93324" lon="0.58535">
        <ele>1040</ele>
        <time>2019-02-03T10:00:18.000Z</time>
      </trkpt>
      <trkpt lat="42.93324" lon="0.58536">
        <ele>1040</ele>
        <time>2019-02-03T10:00:19.000Z</time>
      </trkpt>
      <trkpt lat="42.93323" lon="0.58536">
        <ele>1040</ele>
        <time>2019-02-03T10:00:20.000Z</time>
      </trkpt>
      <trkpt lat="42.93323" lon="0.58537">
        <ele>1040</ele>
        <time>2019-02-03T10:00:21.000Z</time>
      </trkpt>
      <trkpt lat="42.93322" lon="0.58538">
        <ele>1040</ele>
        <time>2019-02-03T10:00:22.000Z</time>
      </trkpt>
      <trkpt lat="42.93322" lon="0.58539">
        <ele>1040</ele>
        <time>2019-02-03T10:00:23.000Z</time>
      </trkpt>
      <trkpt lat="42.93321" lon="0.5854">
        <ele>1040</ele>
        <time>2019-02-03T10:00:24.000Z</time>
      </trkpt>
      <trkpt lat="42.93321" lon="0.5854">
        <ele>1040</ele>
        <time>2019-02-03T10:00:25.000Z</time>
      </trkpt>
      <trkpt lat="42.9332" lon="0.58541">
        <ele>1040</ele>
        <time>2019-02-03T10:00:26.000Z</time>
      </trkpt>
      <trkpt lat="42.9332" lon="0.58542">
        <ele>1040</ele>
        <time>2019-02-03T10:00:27.000Z</time>
      </trkpt>
      <trkpt lat="42.93319" lon="0.58542">
        <ele>1040</ele>
        <time>2019-02-03T10:00:28.000Z</time>
      </trkpt>
      <trkpt lat="42.93319" lon="0.58543">
        <ele>1040</ele>
        <time>2019-02-03T10:00:29.000Z</time>
      </trkpt>
      <trkpt lat="42.93319" lon="0.58544">
        <ele>1040</ele>
        <time>2019-02-03T10:00:30.000Z</time>
      </trkpt>
      <trkpt lat="42.93318" lon="0.58544">
        <ele>1040</ele>
        <time>2019-02-03T10:00:31.000Z</time>
      </trkpt>
      <trkpt lat="42.93318" lon="0.58545">
        <ele>1040.5</ele>
        <time>2019-02-03T10:00:32.000Z</time>
      </trkpt>
      <trkpt lat="42.93317" lon="0.58545">
        <ele>1041</ele>
        <time>2019-02-03T10:00:33.000Z</time>
      </trkpt>
      <trkpt lat="42.93317" lon="0.58546">
        <ele>1041</ele>
        <time>2019-02-03T10:00:34.000Z</time>
      </trkpt>
      <trkpt lat="42.93317" lon="0.58546">
        <ele>1041</ele>
        <time>2019-02-03T10:00:35.000Z</time>
      </trkpt>
      <trkpt lat="42.93317" lon="0.58546">
        <ele>1041</ele>
        <time>2019-02-03T10:00:36.000Z</time>
      </trkpt>
      <trkpt lat="42.93316" lon="0.58547">
        <ele>1041</ele>
        <time>2019-02-03T10:00:37.000Z</time>
      </trkpt>
      <trkpt lat="42.93316" lon="0.58547">
        <ele>1041</ele>
        <time>2019-02-03T10:00:38.000Z</time>
      </trkpt>
      <trkpt lat="42.93316" lon="0.58548">
        <ele>1041</ele>
        <time>2019-02-03T10:00:39.000Z</time>
      </trkpt>
      <trkpt lat="42.93316" lon="0.58548">
        <ele>1041</ele>
        <time>2019-02-03T10:00:40.000Z</time>
      </trkpt>
      <trkpt lat="42.93315" lon="0.58549">
        <ele>1041</ele>
        <time>2019-02-03T10:00:41.000Z</time>
      </trkpt>
      <trkpt lat="42.93315" lon="0.5855">
        <ele>1041</ele>
        <time>2019-02-03T10:00:42.000Z</time>
      </trkpt>
      <trkpt lat="42.93315" lon="0.5855">
        <ele>1041</ele>
        <time>2019-02-03T10:00:43.000Z</time>
      </trkpt>
      <trkpt lat="42.93314" lon="0.58551">
        <ele>1041</ele>
        <time>2019-02-03T10:00:44.000Z</time>
      </trkpt>
      <trkpt lat="42.93314" lon="0.58552">
        <ele>1041</ele>
        <time>2019-02-03T10:00:45.000Z</time>
      </trkpt>
      <trkpt lat="42.93313" lon="0.58553">
        <ele>1041</ele>
        <time>2019-02-03T10:00:46.000Z</time>
      </trkpt>
      <trkpt lat="42.93313" lon="0.58554">
        <ele>1041</ele>
        <time>2019-02-03T10:00:47.000Z</time>
      </trkpt>
      <trkpt lat="42.93313" lon="0.58555">
        <ele>1041</ele>
        <time>2019-02-03T10:00:48.000Z</time>
      </trkpt>
      <trkpt lat="42.93313" lon="0.58556">
        <ele>1041</ele>
        <time>2019-02-03T10:00:49.000Z</time>
      </trkpt>
      <trkpt lat="42.93312" lon="0.58556">
        <ele>1041.5</ele>
        <time>2019-02-03T10:00:50.000Z</time>
      </trkpt>
      <trkpt lat="42.93312" lon="0.58557">
        <ele>1042</ele>
        <time>2019-02-03T10:00:51.000Z</time>
      </trkpt>
      <trkpt lat="42.93312" lon="0.58558">
        <ele>1042</ele>
        <time>2019-02-03T10:00:52.000Z</time>
      </trkpt>
      <trkpt lat="42.93312" lon="0.58559">
        <ele>1042</ele>
        <time>2019-02-03T10:00:53.000Z</time>
      </trkpt>
      <trkpt lat="42.93313" lon="0.5856">
        <ele>1042</ele>
        <time>2019-02-03T10:00:54.000Z</time>
      </trkpt>
      <trkpt lat="42.93313" lon="0.5856">
        <ele>1042</ele>
        <time>2019-02-03T10:00:55.000Z</time>
      </trkpt>
      <trkpt lat="42.93313" lon="0.58561">
        <ele>1042</ele>
        <time>2019-02-03T10:00:56.000Z</time>
      </trkpt>
      <trkpt lat="42.93313" lon="0.58561">
        <ele>1042</ele>
        <time>2019-02-03T10:00:57.000Z</time>
      </trkpt>
      <trkpt lat="42.93314" lon="0.58562">
        <ele>1042</ele>
        <time>2019-02-03T10:00:58.000Z</time>
      </trkpt>
      <trkpt lat="42.93314" lon="0.58563">
        <ele>1042</ele>
        <time>2019-02-03T10:00:59.000Z</time>
      </trkpt>
      <trkpt lat="42.93314" lon="0.58563">
        <ele>1042</ele>
        <time>2019-02-03T10:01:00.000Z</time>
      </trkpt>
      <trkpt lat="42.93315" lon="0.58564">
        <ele>1042</ele>
        <time>2019-02-03T10:01:01.000Z</time>
      </trkpt>
      <trkpt lat="42.93315" lon="0.58564">
        <ele>1042</ele>
        <time>2019-02-03T10:01:02.000Z</time>
      </trkpt>
      <trkpt lat="42.93315" lon="0.58565">
        <ele>1042</ele>
        <time>2019-02-03T10:01:03.000Z</time>
      </trkpt>
      <trkpt lat="42.93316" lon="0.58565">
        <ele>1042</ele>
        <time>2019-02-03T10:01:04.000Z</time>
      </trkpt>
      <trkpt lat="42.93316" lon="0.58566">
        <ele>1042</ele>
        <time>2019-02-03T10:01:05.000Z</time>
      </trkpt>
      <trkpt lat="42.93316" lon="0.58566">
        <ele>1042</ele>
        <time>2019-02-03T10:01:06.000Z</time>
      </trkpt>
      <trkpt lat="42.93317" lon="0.58567">
        <ele>1042</ele>
        <time>2019-02-03T10:01:07.000Z</time>
      </trkpt>
      <trkpt lat="42.93317" lon="0.58568">
        <ele>1042.5</ele>
        <time>2019-02-03T10:01:08.000Z</time>
      </trkpt>
      <trkpt lat="42.93318" lon="0.58568">
        <ele>1043</ele>
        <time>2019-02-03T10:01:09.000Z</time>
      </trkpt>
      <trkpt lat="42.93318" lon="0.58569">
        <ele>1043</ele>
        <time>2019-02-03T10:01:10.000Z</time>
      </trkpt>
      <trkpt lat="42.93318" lon="0.5857">
        <ele>1043</ele>
        <time>2019-02-03T10:01:11.000Z</time>
      </trkpt>
      <trkpt lat="42.93319" lon="0.58571">
        <ele>1043</ele>
        <time>2019-02-03T10:01:12.000Z</time>
      </trkpt>
      <trkpt lat="42.93319" lon="0.58571">
        <ele>1043</ele>
        <time>2019-02-03T10:01:13.000Z</time>
      </trkpt>
      <trkpt lat="42.93319" lon="0.58572">
        <ele>1043</ele>
        <time>2019-02-03T10:01:14.000Z</time>
      </trkpt>
      <trkpt lat="42.9332" lon="0.58573">
        <ele>1043</ele>
        <time>2019-02-03T10:01:15.000Z</time>
      </trkpt>
      <trkpt lat="42.9332" lon="0.58574">
        <ele>1043</ele>
        <time>2019-02-03T10:01:16.000Z</time>
      </trkpt>
      <trkpt lat="42.9332" lon="0.58575">
        <ele>1043</ele>
        <time>2019-02-03T10:01:17.000Z</time>
      </trkpt>
      <trkpt lat="42.93321" lon="0.58576">
        <ele>1043</ele>
        <time>2019-02-03T10:01:18.000Z</time>
      </trkpt>
      <trkpt lat="42.93321" lon="0.58577">
        <ele>1043</ele>
        <time>2019-02-03T10:01:19.000Z</time>
      </trkpt>
      <trkpt lat="42.93322" lon="0.58578">
        <ele>1043</ele>
        <time>2019-02-03T10:01:20.000Z</time>
      </trkpt>
      <trkpt lat="42.93322" lon="0.58579">
        <ele>1043</ele>
        <time>2019-02-03T10:01:21.000Z</time>
      </trkpt>
      <trkpt lat="42.93322" lon="0.5858">
        <ele>1043.5</ele>
        <time>2019-02-03T10:01:22.000Z</time>
      </trkpt>
      <trkpt lat="42.93323" lon="0.5858">
        <ele>1044</ele>
        <time>2019-02-03T10:01:23.000Z</time>
      </trkpt>
      <trkpt lat="42.93323" lon="0.58581">
        <ele>1044</ele>
        <time>2019-02-03T10:01:24.000Z</time>
      </trkpt>
      <trkpt lat="42.93323" lon="0.58582">
        <ele>1044</ele>
        <time>2019-02-03T10:01:25.000Z</time>
      </trkpt>
      <trkpt lat="42.93323" lon="0.58582">
        <ele>1044</ele>
        <time>2019-02-03T10:01:26.000Z</time>
      </trkpt>
      <trkpt lat="42.93323" lon="0.58583">
        <ele>1044</ele>
        <time>2019-02-03T10:01:27.000Z</time>
      </trkpt>
      <trkpt lat="42.93323" lon="0.58584">
        <ele>1044</ele>
        <time>2019-02-03T10:01:28.000Z</time>
      </trkpt>
      <trkpt lat="42.93324" lon="0.58585">
        <ele>1044</ele>
        <time>2019-02-03T10:01:29.000Z</time>
      </trkpt>
      <trkpt lat="42.93324" lon="0.58586">
        <ele>1044</ele>
        <time>2019-02-03T10:01:30.000Z</time>
      </trkpt>
      <trkpt lat="42.93324" lon="0.58587">
        <ele>1044</ele>
        <time>2019-02-03T10:01:31.000Z</time>
      </trkpt>
      <trkpt lat="42.93324" lon="0.58588">
        <ele>1044</ele>
        <time>2019-02-03T10:01:32.000Z</time>
      </trkpt>
      <trkpt lat="42.93324" lon="0.5859">
        <ele>1044</ele>
        <time>2019-02-03T10:01:33.000Z</time>
      </trkpt>
      <trkpt lat="42.93325" lon="0.58591">
        <ele>1044</ele>
        <time>2019-02-03T10:01:34.000Z</time>
      </trkpt>
      <trkpt lat="42.93325" lon="0.58592">
        <ele>1044</ele>
        <time>2019-02-03T10:01:35.000Z</time>
      </trkpt>
      <trkpt lat="42.93325" lon="0.58594">
        <ele>1044</ele>
        <time>2019-02-03T10:01:36.000Z</time>
      </trkpt>
      <trkpt lat="42.93326" lon="0.58594">
        <ele>1044</ele>
        <time>2019-02-03T10:01:37.000Z</time>
      </trkpt>
      <trkpt lat="42.93326" lon="0.58595">
        <ele>1044.5</ele>
        <time>2019-02-03T10:01:38.000Z</time>
      </trkpt>
      <trkpt lat="42.93326" lon="0.58596">
        <ele>1045</ele>
        <time>2019-02-03T10:01:39.000Z</time>
      </trkpt>
      <trkpt lat="42.93326" lon="0.58597">
        <ele>1045</ele>
        <time>2019-02-03T10:01:40.000Z</time>
      </trkpt>
      <trkpt lat="42.93326" lon="0.58598">
        <ele>1045</ele>
        <time>2019-02-03T10:01:41.000Z</time>
      </trkpt>
      <trkpt lat="42.93326" lon="0.58599">
        <ele>1045</ele>
        <time>2019-02-03T10:01:42.000Z</time>
      </trkpt>
      <trkpt lat="42.93327" lon="0.586">
        <ele>1045</ele>
        <time>2019-02-03T10:01:43.000Z</time>
      </trkpt>
      <trkpt lat="42.93327" lon="0.58601">
        <ele>1045</ele>
        <time>2019-02-03T10:01:44.000Z</time>
      </trkpt>
      <trkpt lat="42.93327" lon="0.58602">
        <ele>1045</ele>
        <time>2019-02-03T10:01:45.000Z</time>
      </trkpt>
      <trkpt lat="42.93327" lon="0.58603">
        <ele>1045</ele>
        <time>2019-02-03T10:01:46.000Z</time>
      </trkpt>
      <trkpt lat="42.93327" lon="0.58604">
        <ele>1045</ele>
        <time>2019-02-03T10:01:47.000Z</time>
      </trkpt>
      <trkpt lat="42.93328" lon="0.58605">
        <ele>1045</ele>
        <time>2019-02-03T10:01:48.000Z</time>
      </trkpt>
      <trkpt lat="42.93328" lon="0.58606">
        <ele>1045</ele>
        <time>2019-02-03T10:01:49.000Z</time>
      </trkpt>
      <trkpt lat="42.93328" lon="0.58607">
        <ele>1045</ele>
        <time>2019-02-03T10:01:50.000Z</time>
      </trkpt>
      <trkpt lat="42.93328" lon="0.58608">
        <ele>1045</ele>
        <time>2019-02-03T10:01:51.000Z</time>
      </trkpt>
      <trkpt lat="42.93329" lon="0.58609">
        <ele>1046</ele>
        <time>2019-02-03T10:01:52.000Z</time>
      </trkpt>
      <trkpt lat="42.93329" lon="0.5861">
        <ele>1046</ele>
        <time>2019-02-03T10:01:53.000Z</time>
      </trkpt>
      <trkpt lat="42.93329" lon="0.58611">
        <ele>1046</ele>
        <time>2019-02-03T10:01:54.000Z</time>
      </trkpt>
      <trkpt lat="42.93329" lon="0.58612">
        <ele>1046</ele>
        <time>2019-02-03T10:01:55.000Z</time>
      </trkpt>
      <trkpt lat="42.93329" lon="0.58612">
        <ele>1046</ele>
        <time>2019-02-03T10:01:56.000Z</time>
      </trkpt>
      <trkpt lat="42.93329" lon="0.58613">
        <ele>1046</ele>
        <time>2019-02-03T10:01:57.000Z</time>
      </trkpt>
      <trkpt lat="42.93329" lon="0.58614">
        <ele>1046</ele>
        <time>2019-02-03T10:01:58.000Z</time>
      </trkpt>
      <trkpt lat="42.93329" lon="0.58615">
        <ele>1046</ele>
        <time>2019-02-03T10:01:59.000Z</time>
      </trkpt>
      <trkpt lat="42.93329" lon="0.58615">
        <ele>1046</ele>
        <time>2019-02-03T10:02:00.000Z</time>
      </trkpt>
      <trkpt lat="42.93329" lon="0.58616">
        <ele>1046</ele>
        <time>2019-02-03T10:02:01.000Z</time>
      </trkpt>
      <trkpt lat="42.93329" lon="0.58616">
        <ele>1046</ele>
        <time>2019-02-03T10:02:02.000Z</time>
      </trkpt>
      <trkpt lat="42.93328" lon="0.58617">
        <ele>1046</ele>
        <time>2019-02-03T10:02:03.000Z</time>
      </trkpt>
      <trkpt lat="42.93328" lon="0.58618">
        <ele>1046.5</ele>
        <time>2019-02-03T10:02:04.000Z</time>
      </trkpt>
      <trkpt lat="42.93328" lon="0.58618">
        <ele>1047</ele>
        <time>2019-02-03T10:02:05.000Z</time>
      </trkpt>
      <trkpt lat="42.93327" lon="0.58619">
        <ele>1047</ele>
        <time>2019-02-03T10:02:06.000Z</time>
      </trkpt>
      <trkpt lat="42.93327" lon="0.58619">
        <ele>1047</ele>
        <time>2019-02-03T10:02:07.000Z</time>
      </trkpt>
      <trkpt lat="42.93327" lon="0.5862">
        <ele>1047</ele>
        <time>2019-02-03T10:02:08.000Z</time>
      </trkpt>
      <trkpt lat="42.93326" lon="0.5862">
        <ele>1047</ele>
        <time>2019-02-03T10:02:09.000Z</time>
      </trkpt>
      <trkpt lat="42.93326" lon="0.58621">
        <ele>1047</ele>
        <time>2019-02-03T10:02:10.000Z</time>
      </trkpt>
      <trkpt lat="42.93325" lon="0.58622">
        <ele>1047</ele>
        <time>2019-02-03T10:02:11.000Z</time>
      </trkpt>
      <trkpt lat="42.93325" lon="0.58622">
        <ele>1047</ele>
        <time>2019-02-03T10:02:12.000Z</time>
      </trkpt>
      <trkpt lat="42.93325" lon="0.58623">
        <ele>1047</ele>
        <time>2019-02-03T10:02:13.000Z</time>
      </trkpt>
      <trkpt lat="42.93324" lon="0.58624">
        <ele>1047</ele>
        <time>2019-02-03T10:02:14.000Z</time>
      </trkpt>
      <trkpt lat="42.93324" lon="0.58625">
        <ele>1047</ele>
        <time>2019-02-03T10:02:15.000Z</time>
      </trkpt>
      <trkpt lat="42.93324" lon="0.58625">
        <ele>1047</ele>
        <time>2019-02-03T10:02:16.000Z</time>
      </trkpt>
      <trkpt lat="42.93324" lon="0.58626">
        <ele>1047</ele>
        <time>2019-02-03T10:02:17.000Z</time>
      </trkpt>
      <trkpt lat="42.93323" lon="0.58627">
        <ele>1047</ele>
        <time>2019-02-03T10:02:18.000Z</time>
      </trkpt>
      <trkpt lat="42.93323" lon="0.58628">
        <ele>1047</ele>
        <time>2019-02-03T10:02:19.000Z</time>
      </trkpt>
      <trkpt lat="42.93323" lon="0.58629">
        <ele>1047</ele>
        <time>2019-02-03T10:02:20.000Z</time>
      </trkpt>
      <trkpt lat="42.93323" lon="0.5863">
        <ele>1047</ele>
        <time>2019-02-03T10:02:21.000Z</time>
      </trkpt>
      <trkpt lat="42.93322" lon="0.58631">
        <ele>1047</ele>
        <time>2019-02-03T10:02:22.000Z</time>
      </trkpt>
      <trkpt lat="42.93322" lon="0.58632">
        <ele>1047</ele>
        <time>2019-02-03T10:02:23.000Z</time>
      </trkpt>
      <trkpt lat="42.93322" lon="0.58632">
        <ele>1047</ele>
        <time>2019-02-03T10:02:24.000Z</time>
      </trkpt>
      <trkpt lat="42.93321" lon="0.58633">
        <ele>1047</ele>
        <time>2019-02-03T10:02:25.000Z</time>
      </trkpt>
      <trkpt lat="42.93321" lon="0.58634">
        <ele>1047</ele>
        <time>2019-02-03T10:02:26.000Z</time>
      </trkpt>
      <trkpt lat="42.9332" lon="0.58635">
        <ele>1047</ele>
        <time>2019-02-03T10:02:27.000Z</time>
      </trkpt>
      <trkpt lat="42.9332" lon="0.58636">
        <ele>1047</ele>
        <time>2019-02-03T10:02:28.000Z</time>
      </trkpt>
      <trkpt lat="42.93319" lon="0.58636">
        <ele>1047</ele>
        <time>2019-02-03T10:02:29.000Z</time>
      </trkpt>
      <trkpt lat="42.93319" lon="0.58637">
        <ele>1047</ele>
        <time>2019-02-03T10:02:30.000Z</time>
      </trkpt>
      <trkpt lat="42.93318" lon="0.58638">
        <ele>1047</ele>
        <time>2019-02-03T10:02:31.000Z</time>
      </trkpt>
      <trkpt lat="42.93318" lon="0.58638">
        <ele>1047</ele>
        <time>2019-02-03T10:02:32.000Z</time>
      </trkpt>
      <trkpt lat="42.93317" lon="0.58639">
        <ele>1047</ele>
        <time>2019-02-03T10:02:33.000Z</time>
      </trkpt>
      <trkpt lat="42.93317" lon="0.5864">
        <ele>1047</ele>
        <time>2019-02-03T10:02:34.000Z</time>
      </trkpt>
      <trkpt lat="42.93316" lon="0.5864">
        <ele>1047</ele>
        <time>2019-02-03T10:02:35.000Z</time>
      </trkpt>
      <trkpt lat="42.93316" lon="0.58641">
        <ele>1047</ele>
        <time>2019-02-03T10:02:36.000Z</time>
      </trkpt>
      <trkpt lat="42.93315" lon="0.58641">
        <ele>1047</ele>
        <time>2019-02-03T10:02:37.000Z</time>
      </trkpt>
      <trkpt lat="42.93315" lon="0.58642">
        <ele>1047</ele>
        <time>2019-02-03T10:02:38.000Z</time>
      </trkpt>
      <trkpt lat="42.93315" lon="0.58642">
        <ele>1047</ele>
        <time>2019-02-03T10:02:39.000Z</time>
      </trkpt>
      <trkpt lat="42.93314" lon="0.58642">
        <ele>1047.5</ele>
        <time>2019-02-03T10:02:40.000Z</time>
      </trkpt>
      <trkpt lat="42.93314" lon="0.58643">
        <ele>1048</ele>
        <time>2019-02-03T10:02:41.000Z</time>
      </trkpt>
      <trkpt lat="42.93314" lon="0.58643">
        <ele>1047.5</ele>
        <time>2019-02-03T10:02:42.000Z</time>
      </trkpt>
      <trkpt lat="42.93314" lon="0.58644">
        <ele>1047</ele>
        <time>2019-02-03T10:02:43.000Z</time>
      </trkpt>
      <trkpt lat="42.93313" lon="0.58644">
        <ele>1047</ele>
        <time>2019-02-03T10:02:44.000Z</time>
      </trkpt>
      <trkpt lat="42.93313" lon="0.58645">
        <ele>1047</ele>
        <time>2019-02-03T10:02:45.000Z</time>
      </trkpt>
      <trkpt lat="42.93313" lon="0.58646">
        <ele>1047</ele>
        <time>2019-02-03T10:02:46.000Z</time>
      </trkpt>
      <trkpt lat="42.93312" lon="0.58646">
        <ele>1047</ele>
        <time>2019-02-03T10:02:47.000Z</time>
      </trkpt>
      <trkpt lat="42.93312" lon="0.58647">
        <ele>1047</ele>
        <time>2019-02-03T10:02:48.000Z</time>
      </trkpt>
      <trkpt lat="42.93312" lon="0.58648">
        <ele>1047</ele>
        <time>2019-02-03T10:02:49.000Z</time>
      </trkpt>
      <trkpt lat="42.93311" lon="0.58649">
        <ele>1047</ele>
        <time>2019-02-03T10:02:50.000Z</time>
      </trkpt>
      <trkpt lat="42.93311" lon="0.5865">
        <ele>1047</ele>
        <time>2019-02-03T10:02:51.000Z</time>
      </trkpt>
      <trkpt lat="42.93311" lon="0.58651">
        <ele>1047</ele>
        <time>2019-02-03T10:02:52.000Z</time>
      </trkpt>
      <trkpt lat="42.9331" lon="0.58652">
        <ele>1047</ele>
        <time>2019-02-03T10:02:53.000Z</time>
      </trkpt>
      <trkpt lat="42.9331" lon="0.58653">
        <ele>1047</ele>
        <time>2019-02-03T10:02:54.000Z</time>
      </trkpt>
      <trkpt lat="42.9331" lon="0.58654">
        <ele>1047</ele>
        <time>2019-02-03T10:02:55.000Z</time>
      </trkpt>
      <trkpt lat="42.9331" lon="0.58655">
        <ele>1047</ele>
        <time>2019-02-03T10:02:56.000Z</time>
      </trkpt>
      <trkpt lat="42.9331" lon="0.58656">
        <ele>1047</ele>
        <time>2019-02-03T10:02:57.000Z</time>
      </trkpt>
      <trkpt lat="42.9331" lon="0.58657">
        <ele>1047</ele>
        <time>2019-02-03T10:02:58.000Z</time>
      </trkpt>
      <trkpt lat="42.9331" lon="0.58657">
        <ele>1047</ele>
        <time>2019-02-03T10:02:59.000Z</time>
      </trkpt>
      <trkpt lat="42.9331" lon="0.58658">
        <ele>1047</ele>
        <time>2019-02-03T10:03:00.000Z</time>
      </trkpt>
      <trkpt lat="42.9331" lon="0.58659">
        <ele>1047</ele>
        <time>2019-02-03T10:03:01.000Z</time>
      </trkpt>
      <trkpt lat="42.9331" lon="0.5866">
        <ele>1047</ele>
        <time>2019-02-03T10:03:02.000Z</time>
      </trkpt>
      <trkpt lat="42.9331" lon="0.58661">
        <ele>1047</ele>
        <time>2019-02-03T10:03:03.000Z</time>
      </trkpt>
      <trkpt lat="42.9331" lon="0.58662">
        <ele>1047</ele>
        <time>2019-02-03T10:03:04.000Z</time>
      </trkpt>
      <trkpt lat="42.9331" lon="0.58663">
        <ele>1047</ele>
        <time>2019-02-03T10:03:05.000Z</time>
      </trkpt>
      <trkpt lat="42.93311" lon="0.58664">
        <ele>1047</ele>
        <time>2019-02-03T10:03:06.000Z</time>
      </trkpt>
      <trkpt lat="42.93311" lon="0.58665">
        <ele>1047</ele>
        <time>2019-02-03T10:03:07.000Z</time>
      </trkpt>
      <trkpt lat="42.93311" lon="0.58666">
        <ele>1047</ele>
        <time>2019-02-03T10:03:08.000Z</time>
      </trkpt>
      <trkpt lat="42.93311" lon="0.58668">
        <ele>1047</ele>
        <time>2019-02-03T10:03:09.000Z</time>
      </trkpt>
      <trkpt lat="42.9331" lon="0.58669">
        <ele>1047</ele>
        <time>2019-02-03T10:03:10.000Z</time>
      </trkpt>
      <trkpt lat="42.9331" lon="0.5867">
        <ele>1047</ele>
        <time>2019-02-03T10:03:11.000Z</time>
      </trkpt>
      <trkpt lat="42.93309" lon="0.58671">
        <ele>1047</ele>
        <time>2019-02-03T10:03:12.000Z</time>
      </trkpt>
      <trkpt lat="42.93308" lon="0.58672">
        <ele>1047</ele>
        <time>2019-02-03T10:03:13.000Z</time>
      </trkpt>
      <trkpt lat="42.93307" lon="0.58673">
        <ele>1047</ele>
        <time>2019-02-03T10:03:14.000Z</time>
      </trkpt>
      <trkpt lat="42.93306" lon="0.58674">
        <ele>1047</ele>
        <time>2019-02-03T10:03:15.000Z</time>
      </trkpt>
      <trkpt lat="42.93305" lon="0.58674">
        <ele>1047</ele>
        <time>2019-02-03T10:03:16.000Z</time>
      </trkpt>
      <trkpt lat="42.93304" lon="0.58675">
        <ele>1047</ele>
        <time>2019-02-03T10:03:17.000Z</time>
      </trkpt>
      <trkpt lat="42.93304" lon="0.58676">
        <ele>1047</ele>
        <time>2019-02-03T10:03:18.000Z</time>
      </trkpt>
      <trkpt lat="42.93303" lon="0.58677">
        <ele>1047</ele>
        <time>2019-02-03T10:03:19.000Z</time>
      </trkpt>
      <trkpt lat="42.93303" lon="0.58678">
        <ele>1047</ele>
        <time>2019-02-03T10:03:20.000Z</time>
      </trkpt>
      <trkpt lat="42.93303" lon="0.58679">
        <ele>1047</ele>
        <time>2019-02-03T10:03:21.000Z</time>
      </trkpt>
      <trkpt lat="42.93302" lon="0.58679">
        <ele>1047</ele>
        <time>2019-02-03T10:03:22.000Z</time>
      </trkpt>
      <trkpt lat="42.93302" lon="0.5868">
        <ele>1047</ele>
        <time>2019-02-03T10:03:23.000Z</time>
      </trkpt>
      <trkpt lat="42.93301" lon="0.5868">
        <ele>1047</ele>
        <time>2019-02-03T10:03:24.000Z</time>
      </trkpt>
      <trkpt lat="42.93301" lon="0.5868">
        <ele>1047</ele>
        <time>2019-02-03T10:03:25.000Z</time>
      </trkpt>
      <trkpt lat="42.933" lon="0.5868">
        <ele>1047</ele>
        <time>2019-02-03T10:03:26.000Z</time>
      </trkpt>
      <trkpt lat="42.93299" lon="0.5868">
        <ele>1047</ele>
        <time>2019-02-03T10:03:27.000Z</time>
      </trkpt>
      <trkpt lat="42.93298" lon="0.58681">
        <ele>1047</ele>
        <time>2019-02-03T10:03:28.000Z</time>
      </trkpt>
      <trkpt lat="42.93297" lon="0.58681">
        <ele>1047</ele>
        <time>2019-02-03T10:03:29.000Z</time>
      </trkpt>
      <trkpt lat="42.93297" lon="0.58681">
        <ele>1047</ele>
        <time>2019-02-03T10:03:30.000Z</time>
      </trkpt>
      <trkpt lat="42.93296" lon="0.58682">
        <ele>1047</ele>
        <time>2019-02-03T10:03:31.000Z</time>
      </trkpt>
      <trkpt lat="42.93295" lon="0.58683">
        <ele>1047</ele>
        <time>2019-02-03T10:03:32.000Z</time>
      </trkpt>
      <trkpt lat="42.93295" lon="0.58683">
        <ele>1047</ele>
        <time>2019-02-03T10:03:33.000Z</time>
      </trkpt>
      <trkpt lat="42.93295" lon="0.58684">
        <ele>1047.5</ele>
        <time>2019-02-03T10:03:34.000Z</time>
      </trkpt>
      <trkpt lat="42.93294" lon="0.58685">
        <ele>1048</ele>
        <time>2019-02-03T10:03:35.000Z</time>
      </trkpt>
      <trkpt lat="42.93294" lon="0.58686">
        <ele>1048</ele>
        <time>2019-02-03T10:03:36.000Z</time>
      </trkpt>
      <trkpt lat="42.93294" lon="0.58686">
        <ele>1048</ele>
        <time>2019-02-03T10:03:37.000Z</time>
      </trkpt>
      <trkpt lat="42.93294" lon="0.58687">
        <ele>1048</ele>
        <time>2019-02-03T10:03:38.000Z</time>
      </trkpt>
      <trkpt lat="42.93294" lon="0.58688">
        <ele>1048</ele>
        <time>2019-02-03T10:03:39.000Z</time>
      </trkpt>
      <trkpt lat="42.93294" lon="0.58688">
        <ele>1048</ele>
        <time>2019-02-03T10:03:40.000Z</time>
      </trkpt>
      <trkpt lat="42.93294" lon="0.58689">
        <ele>1048</ele>
        <time>2019-02-03T10:03:41.000Z</time>
      </trkpt>
      <trkpt lat="42.93294" lon="0.58689">
        <ele>1048</ele>
        <time>2019-02-03T10:03:42.000Z</time>
      </trkpt>
      <trkpt lat="42.93294" lon="0.58689">
        <ele>1048</ele>
        <time>2019-02-03T10:03:43.000Z</time>
      </trkpt>
      <trkpt lat="42.93294" lon="0.58689">
        <ele>1048</ele>
        <time>2019-02-03T10:03:44.000Z</time>
      </trkpt>
      <trkpt lat="42.93294" lon="0.58689">
        <ele>1048</ele>
        <time>2019-02-03T10:03:45.000Z</time>
      </trkpt>
      <trkpt lat="42.93294" lon="0.58689">
        <ele>1048</ele>
        <time>2019-02-03T10:03:46.000Z</time>
      </trkpt>
      <trkpt lat="42.93294" lon="0.58689">
        <ele>1048</ele>
        <time>2019-02-03T10:03:47.000Z</time>
      </trkpt>
      <trkpt lat="42.93294" lon="0.58689">
        <ele>1048</ele>
        <time>2019-02-03T10:03:48.000Z</time>
      </trkpt>
      <trkpt lat="42.93294" lon="0.58689">
        <ele>1048</ele>
        <time>2019-02-03T10:03:49.000Z</time>
      </trkpt>
      <trkpt lat="42.93294" lon="0.58689">
        <ele>1048</ele>
        <time>2019-02-03T10:03:50.000Z</time>
      </trkpt>
      <trkpt lat="42.93294" lon="0.58689">
        <ele>1048</ele>
        <time>2019-02-03T10:03:51.000Z</time>
      </trkpt>
      <trkpt lat="42.93294" lon="0.58689">
        <ele>1048</ele>
        <time>2019-02-03T10:03:52.000Z</time>
      </trkpt>
      <trkpt lat="42.93294" lon="0.58689">
        <ele>1048</ele>
        <time>2019-02-03T10:03:53.000Z</time>
      </trkpt>
      <trkpt lat="42.93294" lon="0.58689">
        <ele>1048</ele>
        <time>2019-02-03T10:03:54.000Z</time>
      </trkpt>
      <trkpt lat="42.93294" lon="0.58689">
        <ele>1048</ele>
        <time>2019-02-03T10:03:55.000Z</time>
      </trkpt>
      <trkpt lat="42.93294" lon="0.58689">
        <ele>1048</ele>
        <time>2019-02-03T10:03:56.000Z</time>
      </trkpt>
      <trkpt lat="42.93294" lon="0.58689">
        <ele>1048</ele>
        <time>2019-02-03T10:03:57.000Z</time>
      </trkpt>
      <trkpt lat="42.93294" lon="0.58689">
        <ele>1048</ele>
        <time>2019-02-03T10:03:58.000Z</time>
      </trkpt>
      <trkpt lat="42.93294" lon="0.58689">
        <ele>1048</ele>
        <time>2019-02-03T10:03:59.000Z</time>
      </trkpt>
      <trkpt lat="42.93294" lon="0.58689">
        <ele>1048</ele>
        <time>2019-02-03T10:04:00.000Z</time>
      </trkpt>
      <trkpt lat="42.93294" lon="0.58689">
        <ele>1048</ele>
        <time>2019-02-03T10:04:01.000Z</time>
      </trkpt>
      <trkpt lat="42.93294" lon="0.5869">
        <ele>1048</ele>
        <time>2019-02-03T10:04:02.000Z</time>
      </trkpt>
      <trkpt lat="42.93293" lon="0.58692">
        <ele>1048</ele>
        <time>2019-02-03T10:04:03.000Z</time>
      </trkpt>
      <trkpt lat="42.93292" lon="0.58695">
        <ele>1048</ele>
        <time>2019-02-03T10:04:04.000Z</time>
      </trkpt>
      <trkpt lat="42.93292" lon="0.58698">
        <ele>1048</ele>
        <time>2019-02-03T10:04:05.000Z</time>
      </trkpt>
      <trkpt lat="42.93291" lon="0.587">
        <ele>1049</ele>
        <time>2019-02-03T10:04:06.000Z</time>
      </trkpt>
      <trkpt lat="42.9329" lon="0.58702">
        <ele>1049</ele>
        <time>2019-02-03T10:04:07.000Z</time>
      </trkpt>
      <trkpt lat="42.93289" lon="0.58704">
        <ele>1049</ele>
        <time>2019-02-03T10:04:08.000Z</time>
      </trkpt>
      <trkpt lat="42.93288" lon="0.58705">
        <ele>1049</ele>
        <time>2019-02-03T10:04:09.000Z</time>
      </trkpt>
      <trkpt lat="42.93288" lon="0.58707">
        <ele>1049</ele>
        <time>2019-02-03T10:04:10.000Z</time>
      </trkpt>
      <trkpt lat="42.93287" lon="0.58708">
        <ele>1049</ele>
        <time>2019-02-03T10:04:11.000Z</time>
      </trkpt>
      <trkpt lat="42.93287" lon="0.58709">
        <ele>1049</ele>
        <time>2019-02-03T10:04:12.000Z</time>
      </trkpt>
      <trkpt lat="42.93286" lon="0.58709">
        <ele>1049</ele>
        <time>2019-02-03T10:04:13.000Z</time>
      </trkpt>
      <trkpt lat="42.93286" lon="0.5871">
        <ele>1049</ele>
        <time>2019-02-03T10:04:14.000Z</time>
      </trkpt>
      <trkpt lat="42.93286" lon="0.58711">
        <ele>1049</ele>
        <time>2019-02-03T10:04:15.000Z</time>
      </trkpt>
      <trkpt lat="42.93285" lon="0.58712">
        <ele>1049</ele>
        <time>2019-02-03T10:04:16.000Z</time>
      </trkpt>
      <trkpt lat="42.93285" lon="0.58712">
        <ele>1049</ele>
        <time>2019-02-03T10:04:17.000Z</time>
      </trkpt>
      <trkpt lat="42.93285" lon="0.58713">
        <ele>1049</ele>
        <time>2019-02-03T10:04:18.000Z</time>
      </trkpt>
      <trkpt lat="42.93285" lon="0.58714">
        <ele>1049</ele>
        <time>2019-02-03T10:04:19.000Z</time>
      </trkpt>
      <trkpt lat="42.93284" lon="0.58715">
        <ele>1049</ele>
        <time>2019-02-03T10:04:20.000Z</time>
      </trkpt>
      <trkpt lat="42.93284" lon="0.58716">
        <ele>1049</ele>
        <time>2019-02-03T10:04:21.000Z</time>
      </trkpt>
      <trkpt lat="42.93284" lon="0.58717">
        <ele>1049</ele>
        <time>2019-02-03T10:04:22.000Z</time>
      </trkpt>
      <trkpt lat="42.93284" lon="0.58718">
        <ele>1049</ele>
        <time>2019-02-03T10:04:23.000Z</time>
      </trkpt>
      <trkpt lat="42.93283" lon="0.58719">
        <ele>1050</ele>
        <time>2019-02-03T10:04:24.000Z</time>
      </trkpt>
      <trkpt lat="42.93283" lon="0.58721">
        <ele>1050</ele>
        <time>2019-02-03T10:04:25.000Z</time>
      </trkpt>
      <trkpt lat="42.93282" lon="0.58722">
        <ele>1050</ele>
        <time>2019-02-03T10:04:26.000Z</time>
      </trkpt>
      <trkpt lat="42.93282" lon="0.58723">
        <ele>1050</ele>
        <time>2019-02-03T10:04:27.000Z</time>
      </trkpt>
      <trkpt lat="42.93281" lon="0.58724">
        <ele>1050</ele>
        <time>2019-02-03T10:04:28.000Z</time>
      </trkpt>
      <trkpt lat="42.93281" lon="0.58726">
        <ele>1050</ele>
        <time>2019-02-03T10:04:29.000Z</time>
      </trkpt>
      <trkpt lat="42.9328" lon="0.58727">
        <ele>1050</ele>
        <time>2019-02-03T10:04:30.000Z</time>
      </trkpt>
      <trkpt lat="42.9328" lon="0.58728">
        <ele>1050</ele>
        <time>2019-02-03T10:04:31.000Z</time>
      </trkpt>
      <trkpt lat="42.9328" lon="0.58729">
        <ele>1050</ele>
        <time>2019-02-03T10:04:32.000Z</time>
      </trkpt>
      <trkpt lat="42.93279" lon="0.5873">
        <ele>1050</ele>
        <time>2019-02-03T10:04:33.000Z</time>
      </trkpt>
      <trkpt lat="42.93279" lon="0.5873">
        <ele>1050</ele>
        <time>2019-02-03T10:04:34.000Z</time>
      </trkpt>
      <trkpt lat="42.93278" lon="0.58731">
        <ele>1050</ele>
        <time>2019-02-03T10:04:35.000Z</time>
      </trkpt>
      <trkpt lat="42.93278" lon="0.58732">
        <ele>1050</ele>
        <time>2019-02-03T10:04:36.000Z</time>
      </trkpt>
      <trkpt lat="42.93278" lon="0.58733">
        <ele>1050</ele>
        <time>2019-02-03T10:04:37.000Z</time>
      </trkpt>
      <trkpt lat="42.93277" lon="0.58733">
        <ele>1050</ele>
        <time>2019-02-03T10:04:38.000Z</time>
      </trkpt>
      <trkpt lat="42.93277" lon="0.58734">
        <ele>1050</ele>
        <time>2019-02-03T10:04:39.000Z</time>
      </trkpt>
      <trkpt lat="42.93277" lon="0.58734">
        <ele>1050</ele>
        <time>2019-02-03T10:04:40.000Z</time>
      </trkpt>
      <trkpt lat="42.93277" lon="0.58735">
        <ele>1050</ele>
        <time>2019-02-03T10:04:41.000Z</time>
      </trkpt>
      <trkpt lat="42.93276" lon="0.58735">
        <ele>1050</ele>
        <time>2019-02-03T10:04:42.000Z</time>
      </trkpt>
      <trkpt lat="42.93276" lon="0.58736">
        <ele>1050</ele>
        <time>2019-02-03T10:04:43.000Z</time>
      </trkpt>
      <trkpt lat="42.93276" lon="0.58736">
        <ele>1050</ele>
        <time>2019-02-03T10:04:44.000Z</time>
      </trkpt>
      <trkpt lat="42.93276" lon="0.58737">
        <ele>1050.3</ele>
        <time>2019-02-03T10:04:45.000Z</time>
      </trkpt>
      <trkpt lat="42.93276" lon="0.58737">
        <ele>1050.7</ele>
        <time>2019-02-03T10:04:46.000Z</time>
      </trkpt>
      <trkpt lat="42.93275" lon="0.58738">
        <ele>1051</ele>
        <time>2019-02-03T10:04:47.000Z</time>
      </trkpt>
      <trkpt lat="42.93275" lon="0.58738">
        <ele>1051</ele>
        <time>2019-02-03T10:04:48.000Z</time>
      </trkpt>
      <trkpt lat="42.93275" lon="0.58738">
        <ele>1051</ele>
        <time>2019-02-03T10:04:49.000Z</time>
      </trkpt>
      <trkpt lat="42.93275" lon="0.58739">
        <ele>1051</ele>
        <time>2019-02-03T10:04:50.000Z</time>
      </trkpt>
      <trkpt lat="42.93275" lon="0.58739">
        <ele>1051</ele>
        <time>2019-02-03T10:04:51.000Z</time>
      </trkpt>
      <trkpt lat="42.93275" lon="0.5874">
        <ele>1051</ele>
        <time>2019-02-03T10:04:52.000Z</time>
      </trkpt>
      <trkpt lat="42.93274" lon="0.5874">
        <ele>1051</ele>
        <time>2019-02-03T10:04:53.000Z</time>
      </trkpt>
      <trkpt lat="42.93274" lon="0.58741">
        <ele>1051</ele>
        <time>2019-02-03T10:04:54.000Z</time>
      </trkpt>
      <trkpt lat="42.93274" lon="0.58741">
        <ele>1051</ele>
        <time>2019-02-03T10:04:55.000Z</time>
      </trkpt>
      <trkpt lat="42.93274" lon="0.58741">
        <ele>1051</ele>
        <time>2019-02-03T10:04:56.000Z</time>
      </trkpt>
      <trkpt lat="42.93273" lon="0.58742">
        <ele>1051</ele>
        <time>2019-02-03T10:04:57.000Z</time>
      </trkpt>
      <trkpt lat="42.93273" lon="0.58742">
        <ele>1051</ele>
        <time>2019-02-03T10:04:58.000Z</time>
      </trkpt>
      <trkpt lat="42.93272" lon="0.58743">
        <ele>1051</ele>
        <time>2019-02-03T10:04:59.000Z</time>
      </trkpt>
      <trkpt lat="42.93272" lon="0.58743">
        <ele>1051</ele>
        <time>2019-02-03T10:05:00.000Z</time>
      </trkpt>
      <trkpt lat="42.93271" lon="0.58744">
        <ele>1051</ele>
        <time>2019-02-03T10:05:01.000Z</time>
      </trkpt>
      <trkpt lat="42.9327" lon="0.58744">
        <ele>1051</ele>
        <time>2019-02-03T10:05:02.000Z</time>
      </trkpt>
      <trkpt lat="42.93269" lon="0.58745">
        <ele>1051.3</ele>
        <time>2019-02-03T10:05:03.000Z</time>
      </trkpt>
      <trkpt lat="42.93269" lon="0.58745">
        <ele>1051.7</ele>
        <time>2019-02-03T10:05:04.000Z</time>
      </trkpt>
      <trkpt lat="42.93268" lon="0.58745">
        <ele>1052</ele>
        <time>2019-02-03T10:05:05.000Z</time>
      </trkpt>
      <trkpt lat="42.93268" lon="0.58746">
        <ele>1052</ele>
        <time>2019-02-03T10:05:06.000Z</time>
      </trkpt>
      <trkpt lat="42.93268" lon="0.58746">
        <ele>1052</ele>
        <time>2019-02-03T10:05:07.000Z</time>
      </trkpt>
      <trkpt lat="42.93267" lon="0.58746">
        <ele>1052</ele>
        <time>2019-02-03T10:05:08.000Z</time>
      </trkpt>
      <trkpt lat="42.93267" lon="0.58746">
        <ele>1052</ele>
        <time>2019-02-03T10:05:09.000Z</time>
      </trkpt>
      <trkpt lat="42.93267" lon="0.58747">
        <ele>1052</ele>
        <time>2019-02-03T10:05:10.000Z</time>
      </trkpt>
      <trkpt lat="42.93266" lon="0.58747">
        <ele>1052</ele>
        <time>2019-02-03T10:05:11.000Z</time>
      </trkpt>
      <trkpt lat="42.93266" lon="0.58747">
        <ele>1052</ele>
        <time>2019-02-03T10:05:12.000Z</time>
      </trkpt>
      <trkpt lat="42.93266" lon="0.58747">
        <ele>1052</ele>
        <time>2019-02-03T10:05:13.000Z</time>
      </trkpt>
      <trkpt lat="42.93265" lon="0.58747">
        <ele>1052</ele>
        <time>2019-02-03T10:05:14.000Z</time>
      </trkpt>
      <trkpt lat="42.93265" lon="0.58747">
        <ele>1052</ele>
        <time>2019-02-03T10:05:15.000Z</time>
      </trkpt>
      <trkpt lat="42.93264" lon="0.58747">
        <ele>1052</ele>
        <time>2019-02-03T10:05:16.000Z</time>
      </trkpt>
      <trkpt lat="42.93264" lon="0.58747">
        <ele>1052</ele>
        <time>2019-02-03T10:05:17.000Z</time>
      </trkpt>
      <trkpt lat="42.93263" lon="0.58747">
        <ele>1052</ele>
        <time>2019-02-03T10:05:18.000Z</time>
      </trkpt>
      <trkpt lat="42.93263" lon="0.58747">
        <ele>1052</ele>
        <time>2019-02-03T10:05:19.000Z</time>
      </trkpt>
      <trkpt lat="42.93262" lon="0.58747">
        <ele>1052</ele>
        <time>2019-02-03T10:05:20.000Z</time>
      </trkpt>
      <trkpt lat="42.93261" lon="0.58748">
        <ele>1052</ele>
        <time>2019-02-03T10:05:21.000Z</time>
      </trkpt>
      <trkpt lat="42.93261" lon="0.58748">
        <ele>1052</ele>
        <time>2019-02-03T10:05:22.000Z</time>
      </trkpt>
      <trkpt lat="42.9326" lon="0.58748">
        <ele>1052</ele>
        <time>2019-02-03T10:05:23.000Z</time>
      </trkpt>
      <trkpt lat="42.93259" lon="0.58748">
        <ele>1052.5</ele>
        <time>2019-02-03T10:05:24.000Z</time>
      </trkpt>
      <trkpt lat="42.93258" lon="0.58749">
        <ele>1053</ele>
        <time>2019-02-03T10:05:25.000Z</time>
      </trkpt>
      <trkpt lat="42.93258" lon="0.58749">
        <ele>1053</ele>
        <time>2019-02-03T10:05:26.000Z</time>
      </trkpt>
      <trkpt lat="42.93257" lon="0.58749">
        <ele>1053</ele>
        <time>2019-02-03T10:05:27.000Z</time>
      </trkpt>
      <trkpt lat="42.93256" lon="0.58749">
        <ele>1053</ele>
        <time>2019-02-03T10:05:28.000Z</time>
      </trkpt>
      <trkpt lat="42.93256" lon="0.5875">
        <ele>1053</ele>
        <time>2019-02-03T10:05:29.000Z</time>
      </trkpt>
      <trkpt lat="42.93255" lon="0.5875">
        <ele>1053</ele>
        <time>2019-02-03T10:05:30.000Z</time>
      </trkpt>
      <trkpt lat="42.93255" lon="0.5875">
        <ele>1053</ele>
        <time>2019-02-03T10:05:31.000Z</time>
      </trkpt>
      <trkpt lat="42.93255" lon="0.58751">
        <ele>1053</ele>
        <time>2019-02-03T10:05:32.000Z</time>
      </trkpt>
      <trkpt lat="42.93255" lon="0.58751">
        <ele>1053</ele>
        <time>2019-02-03T10:05:33.000Z</time>
      </trkpt>
      <trkpt lat="42.93255" lon="0.58751">
        <ele>1053</ele>
        <time>2019-02-03T10:05:34.000Z</time>
      </trkpt>
      <trkpt lat="42.93255" lon="0.58751">
        <ele>1053</ele>
        <time>2019-02-03T10:05:35.000Z</time>
      </trkpt>
      <trkpt lat="42.93254" lon="0.58751">
        <ele>1053</ele>
        <time>2019-02-03T10:05:36.000Z</time>
      </trkpt>
      <trkpt lat="42.93254" lon="0.58751">
        <ele>1053</ele>
        <time>2019-02-03T10:05:37.000Z</time>
      </trkpt>
      <trkpt lat="42.93253" lon="0.58751">
        <ele>1053.5</ele>
        <time>2019-02-03T10:05:38.000Z</time>
      </trkpt>
      <trkpt lat="42.93252" lon="0.58752">
        <ele>1054</ele>
        <time>2019-02-03T10:05:39.000Z</time>
      </trkpt>
      <trkpt lat="42.93252" lon="0.58752">
        <ele>1054</ele>
        <time>2019-02-03T10:05:40.000Z</time>
      </trkpt>
      <trkpt lat="42.93252" lon="0.58752">
        <ele>1054</ele>
        <time>2019-02-03T10:05:41.000Z</time>
      </trkpt>
      <trkpt lat="42.93251" lon="0.58752">
        <ele>1054</ele>
        <time>2019-02-03T10:05:42.000Z</time>
      </trkpt>
      <trkpt lat="42.93251" lon="0.58751">
        <ele>1054</ele>
        <time>2019-02-03T10:05:43.000Z</time>
      </trkpt>
      <trkpt lat="42.93251" lon="0.58751">
        <ele>1054</ele>
        <time>2019-02-03T10:05:44.000Z</time>
      </trkpt>
      <trkpt lat="42.93251" lon="0.5875">
        <ele>1054</ele>
        <time>2019-02-03T10:05:45.000Z</time>
      </trkpt>
      <trkpt lat="42.93251" lon="0.5875">
        <ele>1054</ele>
        <time>2019-02-03T10:05:46.000Z</time>
      </trkpt>
      <trkpt lat="42.93251" lon="0.58749">
        <ele>1054</ele>
        <time>2019-02-03T10:05:47.000Z</time>
      </trkpt>
      <trkpt lat="42.93252" lon="0.58749">
        <ele>1054</ele>
        <time>2019-02-03T10:05:48.000Z</time>
      </trkpt>
      <trkpt lat="42.93251" lon="0.58749">
        <ele>1054</ele>
        <time>2019-02-03T10:05:49.000Z</time>
      </trkpt>
      <trkpt lat="42.93251" lon="0.58749">
        <ele>1054</ele>
        <time>2019-02-03T10:05:50.000Z</time>
      </trkpt>
      <trkpt lat="42.93251" lon="0.58749">
        <ele>1054</ele>
        <time>2019-02-03T10:05:51.000Z</time>
      </trkpt>
      <trkpt lat="42.9325" lon="0.58749">
        <ele>1054</ele>
        <time>2019-02-03T10:05:52.000Z</time>
      </trkpt>
      <trkpt lat="42.93249" lon="0.58749">
        <ele>1054</ele>
        <time>2019-02-03T10:05:53.000Z</time>
      </trkpt>
      <trkpt lat="42.93247" lon="0.58749">
        <ele>1054</ele>
        <time>2019-02-03T10:05:54.000Z</time>
      </trkpt>
      <trkpt lat="42.93247" lon="0.58749">
        <ele>1054</ele>
        <time>2019-02-03T10:05:55.000Z</time>
      </trkpt>
      <trkpt lat="42.93246" lon="0.5875">
        <ele>1054</ele>
        <time>2019-02-03T10:05:56.000Z</time>
      </trkpt>
      <trkpt lat="42.93246" lon="0.5875">
        <ele>1054</ele>
        <time>2019-02-03T10:05:57.000Z</time>
      </trkpt>
      <trkpt lat="42.93245" lon="0.5875">
        <ele>1054</ele>
        <time>2019-02-03T10:05:58.000Z</time>
      </trkpt>
      <trkpt lat="42.93244" lon="0.5875">
        <ele>1054</ele>
        <time>2019-02-03T10:05:59.000Z</time>
      </trkpt>
      <trkpt lat="42.93244" lon="0.5875">
        <ele>1054</ele>
        <time>2019-02-03T10:06:00.000Z</time>
      </trkpt>
      <trkpt lat="42.93243" lon="0.5875">
        <ele>1054</ele>
        <time>2019-02-03T10:06:01.000Z</time>
      </trkpt>
      <trkpt lat="42.93242" lon="0.5875">
        <ele>1054</ele>
        <time>2019-02-03T10:06:02.000Z</time>
      </trkpt>
      <trkpt lat="42.93242" lon="0.5875">
        <ele>1054</ele>
        <time>2019-02-03T10:06:03.000Z</time>
      </trkpt>
      <trkpt lat="42.93241" lon="0.5875">
        <ele>1054.5</ele>
        <time>2019-02-03T10:06:04.000Z</time>
      </trkpt>
      <trkpt lat="42.9324" lon="0.58751">
        <ele>1055</ele>
        <time>2019-02-03T10:06:05.000Z</time>
      </trkpt>
      <trkpt lat="42.93239" lon="0.58751">
        <ele>1055</ele>
        <time>2019-02-03T10:06:06.000Z</time>
      </trkpt>
      <trkpt lat="42.93238" lon="0.58751">
        <ele>1055</ele>
        <time>2019-02-03T10:06:07.000Z</time>
      </trkpt>
      <trkpt lat="42.93238" lon="0.58751">
        <ele>1055</ele>
        <time>2019-02-03T10:06:08.000Z</time>
      </trkpt>
      <trkpt lat="42.93237" lon="0.58751">
        <ele>1055</ele>
        <time>2019-02-03T10:06:09.000Z</time>
      </trkpt>
      <trkpt lat="42.93236" lon="0.58751">
        <ele>1055</ele>
        <time>2019-02-03T10:06:10.000Z</time>
      </trkpt>
      <trkpt lat="42.93235" lon="0.58751">
        <ele>1055</ele>
        <time>2019-02-03T10:06:11.000Z</time>
      </trkpt>
      <trkpt lat="42.93234" lon="0.58751">
        <ele>1055</ele>
        <time>2019-02-03T10:06:12.000Z</time>
      </trkpt>
      <trkpt lat="42.93233" lon="0.58751">
        <ele>1055</ele>
        <time>2019-02-03T10:06:13.000Z</time>
      </trkpt>
      <trkpt lat="42.93232" lon="0.58751">
        <ele>1055</ele>
        <time>2019-02-03T10:06:14.000Z</time>
      </trkpt>
      <trkpt lat="42.93232" lon="0.58751">
        <ele>1055</ele>
        <time>2019-02-03T10:06:15.000Z</time>
      </trkpt>
      <trkpt lat="42.93231" lon="0.58751">
        <ele>1055</ele>
        <time>2019-02-03T10:06:16.000Z</time>
      </trkpt>
      <trkpt lat="42.9323" lon="0.58751">
        <ele>1055</ele>
        <time>2019-02-03T10:06:17.000Z</time>
      </trkpt>
      <trkpt lat="42.93229" lon="0.58751">
        <ele>1055</ele>
        <time>2019-02-03T10:06:18.000Z</time>
      </trkpt>
      <trkpt lat="42.93229" lon="0.58751">
        <ele>1055</ele>
        <time>2019-02-03T10:06:19.000Z</time>
      </trkpt>
      <trkpt lat="42.93228" lon="0.58752">
        <ele>1055</ele>
        <time>2019-02-03T10:06:20.000Z</time>
      </trkpt>
      <trkpt lat="42.93228" lon="0.58752">
        <ele>1055</ele>
        <time>2019-02-03T10:06:21.000Z</time>
      </trkpt>
      <trkpt lat="42.93228" lon="0.58752">
        <ele>1055</ele>
        <time>2019-02-03T10:06:22.000Z</time>
      </trkpt>
      <trkpt lat="42.93228" lon="0.58752">
        <ele>1055</ele>
        <time>2019-02-03T10:06:23.000Z</time>
      </trkpt>
      <trkpt lat="42.93228" lon="0.58752">
        <ele>1055</ele>
        <time>2019-02-03T10:06:24.000Z</time>
      </trkpt>
      <trkpt lat="42.93228" lon="0.58752">
        <ele>1055</ele>
        <time>2019-02-03T10:06:25.000Z</time>
      </trkpt>
      <trkpt lat="42.93228" lon="0.58753">
        <ele>1055.5</ele>
        <time>2019-02-03T10:06:26.000Z</time>
      </trkpt>
      <trkpt lat="42.93227" lon="0.58753">
        <ele>1056</ele>
        <time>2019-02-03T10:06:27.000Z</time>
      </trkpt>
      <trkpt lat="42.93227" lon="0.58754">
        <ele>1056</ele>
        <time>2019-02-03T10:06:28.000Z</time>
      </trkpt>
      <trkpt lat="42.93226" lon="0.58754">
        <ele>1056</ele>
        <time>2019-02-03T10:06:29.000Z</time>
      </trkpt>
      <trkpt lat="42.93225" lon="0.58755">
        <ele>1056</ele>
        <time>2019-02-03T10:06:30.000Z</time>
      </trkpt>
      <trkpt lat="42.93224" lon="0.58756">
        <ele>1056</ele>
        <time>2019-02-03T10:06:31.000Z</time>
      </trkpt>
      <trkpt lat="42.93222" lon="0.58757">
        <ele>1056</ele>
        <time>2019-02-03T10:06:32.000Z</time>
      </trkpt>
      <trkpt lat="42.93221" lon="0.58758">
        <ele>1056</ele>
        <time>2019-02-03T10:06:33.000Z</time>
      </trkpt>
      <trkpt lat="42.9322" lon="0.58759">
        <ele>1056</ele>
        <time>2019-02-03T10:06:34.000Z</time>
      </trkpt>
      <trkpt lat="42.93219" lon="0.58759">
        <ele>1056</ele>
        <time>2019-02-03T10:06:35.000Z</time>
      </trkpt>
      <trkpt lat="42.93218" lon="0.5876">
        <ele>1056</ele>
        <time>2019-02-03T10:06:36.000Z</time>
      </trkpt>
      <trkpt lat="42.93217" lon="0.58761">
        <ele>1056</ele>
        <time>2019-02-03T10:06:37.000Z</time>
      </trkpt>
      <trkpt lat="42.93216" lon="0.58762">
        <ele>1056</ele>
        <time>2019-02-03T10:06:38.000Z</time>
      </trkpt>
      <trkpt lat="42.93215" lon="0.58762">
        <ele>1056</ele>
        <time>2019-02-03T10:06:39.000Z</time>
      </trkpt>
      <trkpt lat="42.93214" lon="0.58763">
        <ele>1056</ele>
        <time>2019-02-03T10:06:40.000Z</time>
      </trkpt>
      <trkpt lat="42.93213" lon="0.58764">
        <ele>1056</ele>
        <time>2019-02-03T10:06:41.000Z</time>
      </trkpt>
      <trkpt lat="42.93211" lon="0.58765">
        <ele>1056</ele>
        <time>2019-02-03T10:06:42.000Z</time>
      </trkpt>
      <trkpt lat="42.9321" lon="0.58765">
        <ele>1056</ele>
        <time>2019-02-03T10:06:43.000Z</time>
      </trkpt>
      <trkpt lat="42.93209" lon="0.58766">
        <ele>1056</ele>
        <time>2019-02-03T10:06:44.000Z</time>
      </trkpt>
      <trkpt lat="42.93208" lon="0.58767">
        <ele>1056</ele>
        <time>2019-02-03T10:06:45.000Z</time>
      </trkpt>
      <trkpt lat="42.93208" lon="0.58767">
        <ele>1056</ele>
        <time>2019-02-03T10:06:46.000Z</time>
      </trkpt>
      <trkpt lat="42.93207" lon="0.58768">
        <ele>1056</ele>
        <time>2019-02-03T10:06:47.000Z</time>
      </trkpt>
      <trkpt lat="42.93206" lon="0.58768">
        <ele>1056</ele>
        <time>2019-02-03T10:06:48.000Z</time>
      </trkpt>
      <trkpt lat="42.93205" lon="0.58768">
        <ele>1056</ele>
        <time>2019-02-03T10:06:49.000Z</time>
      </trkpt>
      <trkpt lat="42.93205" lon="0.58769">
        <ele>1056</ele>
        <time>2019-02-03T10:06:50.000Z</time>
      </trkpt>
      <trkpt lat="42.93204" lon="0.58769">
        <ele>1056</ele>
        <time>2019-02-03T10:06:51.000Z</time>
      </trkpt>
      <trkpt lat="42.93203" lon="0.58769">
        <ele>1056</ele>
        <time>2019-02-03T10:06:52.000Z</time>
      </trkpt>
      <trkpt lat="42.93203" lon="0.58769">
        <ele>1056</ele>
        <time>2019-02-03T10:06:53.000Z</time>
      </trkpt>
      <trkpt lat="42.93202" lon="0.58769">
        <ele>1056</ele>
        <time>2019-02-03T10:06:54.000Z</time>
      </trkpt>
      <trkpt lat="42.93202" lon="0.58769">
        <ele>1056</ele>
        <time>2019-02-03T10:06:55.000Z</time>
      </trkpt>
      <trkpt lat="42.93202" lon="0.5877">
        <ele>1056</ele>
        <time>2019-02-03T10:06:56.000Z</time>
      </trkpt>
      <trkpt lat="42.93201" lon="0.5877">
        <ele>1056</ele>
        <time>2019-02-03T10:06:57.000Z</time>
      </trkpt>
      <trkpt lat="42.93201" lon="0.5877">
        <ele>1056</ele>
        <time>2019-02-03T10:06:58.000Z</time>
      </trkpt>
      <trkpt lat="42.932" lon="0.5877">
        <ele>1056</ele>
        <time>2019-02-03T10:06:59.000Z</time>
      </trkpt>
      <trkpt lat="42.932" lon="0.58771">
        <ele>1056.5</ele>
        <time>2019-02-03T10:07:00.000Z</time>
      </trkpt>
      <trkpt lat="42.932" lon="0.58771">
        <ele>1057</ele>
        <time>2019-02-03T10:07:01.000Z</time>
      </trkpt>
      <trkpt lat="42.93199" lon="0.58772">
        <ele>1057</ele>
        <time>2019-02-03T10:07:02.000Z</time>
      </trkpt>
      <trkpt lat="42.93199" lon="0.58772">
        <ele>1057</ele>
        <time>2019-02-03T10:07:03.000Z</time>
      </trkpt>
      <trkpt lat="42.93198" lon="0.58773">
        <ele>1057</ele>
        <time>2019-02-03T10:07:04.000Z</time>
      </trkpt>
      <trkpt lat="42.93198" lon="0.58774">
        <ele>1057</ele>
        <time>2019-02-03T10:07:05.000Z</time>
      </trkpt>
      <trkpt lat="42.93197" lon="0.58774">
        <ele>1057</ele>
        <time>2019-02-03T10:07:06.000Z</time>
      </trkpt>
      <trkpt lat="42.93197" lon="0.58775">
        <ele>1057</ele>
        <time>2019-02-03T10:07:07.000Z</time>
      </trkpt>
      <trkpt lat="42.93196" lon="0.58776">
        <ele>1057</ele>
        <time>2019-02-03T10:07:08.000Z</time>
      </trkpt>
      <trkpt lat="42.93196" lon="0.58777">
        <ele>1057</ele>
        <time>2019-02-03T10:07:09.000Z</time>
      </trkpt>
      <trkpt lat="42.93195" lon="0.58778">
        <ele>1057</ele>
        <time>2019-02-03T10:07:10.000Z</time>
      </trkpt>
      <trkpt lat="42.93194" lon="0.58779">
        <ele>1057</ele>
        <time>2019-02-03T10:07:11.000Z</time>
      </trkpt>
      <trkpt lat="42.93194" lon="0.5878">
        <ele>1057</ele>
        <time>2019-02-03T10:07:12.000Z</time>
      </trkpt>
      <trkpt lat="42.93193" lon="0.58781">
        <ele>1057</ele>
        <time>2019-02-03T10:07:13.000Z</time>
      </trkpt>
      <trkpt lat="42.93192" lon="0.58782">
        <ele>1057</ele>
        <time>2019-02-03T10:07:14.000Z</time>
      </trkpt>
      <trkpt lat="42.93191" lon="0.58783">
        <ele>1057</ele>
        <time>2019-02-03T10:07:15.000Z</time>
      </trkpt>
      <trkpt lat="42.93191" lon="0.58783">
        <ele>1057</ele>
        <time>2019-02-03T10:07:16.000Z</time>
      </trkpt>
      <trkpt lat="42.9319" lon="0.58784">
        <ele>1057</ele>
        <time>2019-02-03T10:07:17.000Z</time>
      </trkpt>
      <trkpt lat="42.93189" lon="0.58785">
        <ele>1058</ele>
        <time>2019-02-03T10:07:18.000Z</time>
      </trkpt>
      <trkpt lat="42.93189" lon="0.58785">
        <ele>1058</ele>
        <time>2019-02-03T10:07:19.000Z</time>
      </trkpt>
      <trkpt lat="42.93188" lon="0.58786">
        <ele>1058</ele>
        <time>2019-02-03T10:07:20.000Z</time>
      </trkpt>
      <trkpt lat="42.93188" lon="0.58786">
        <ele>1058</ele>
        <time>2019-02-03T10:07:21.000Z</time>
      </trkpt>
      <trkpt lat="42.93187" lon="0.58786">
        <ele>1058</ele>
        <time>2019-02-03T10:07:22.000Z</time>
      </trkpt>
      <trkpt lat="42.93187" lon="0.58787">
        <ele>1058</ele>
        <time>2019-02-03T10:07:23.000Z</time>
      </trkpt>
      <trkpt lat="42.93186" lon="0.58787">
        <ele>1058</ele>
        <time>2019-02-03T10:07:24.000Z</time>
      </trkpt>
      <trkpt lat="42.93186" lon="0.58787">
        <ele>1058</ele>
        <time>2019-02-03T10:07:25.000Z</time>
      </trkpt>
      <trkpt lat="42.93185" lon="0.58787">
        <ele>1058.5</ele>
        <time>2019-02-03T10:07:26.000Z</time>
      </trkpt>
      <trkpt lat="42.93185" lon="0.58787">
        <ele>1059</ele>
        <time>2019-02-03T10:07:27.000Z</time>
      </trkpt>
      <trkpt lat="42.93185" lon="0.58787">
        <ele>1059</ele>
        <time>2019-02-03T10:07:28.000Z</time>
      </trkpt>
      <trkpt lat="42.93185" lon="0.58787">
        <ele>1059</ele>
        <time>2019-02-03T10:07:29.000Z</time>
      </trkpt>
      <trkpt lat="42.93184" lon="0.58787">
        <ele>1059</ele>
        <time>2019-02-03T10:07:30.000Z</time>
      </trkpt>
      <trkpt lat="42.93184" lon="0.58788">
        <ele>1059</ele>
        <time>2019-02-03T10:07:31.000Z</time>
      </trkpt>
      <trkpt lat="42.93183" lon="0.58789">
        <ele>1059</ele>
        <time>2019-02-03T10:07:32.000Z</time>
      </trkpt>
      <trkpt lat="42.93182" lon="0.5879">
        <ele>1059</ele>
        <time>2019-02-03T10:07:33.000Z</time>
      </trkpt>
      <trkpt lat="42.93182" lon="0.5879">
        <ele>1059</ele>
        <time>2019-02-03T10:07:34.000Z</time>
      </trkpt>
      <trkpt lat="42.93181" lon="0.58791">
        <ele>1059</ele>
        <time>2019-02-03T10:07:35.000Z</time>
      </trkpt>
      <trkpt lat="42.93181" lon="0.58791">
        <ele>1059</ele>
        <time>2019-02-03T10:07:36.000Z</time>
      </trkpt>
      <trkpt lat="42.9318" lon="0.58792">
        <ele>1059</ele>
        <time>2019-02-03T10:07:37.000Z</time>
      </trkpt>
      <trkpt lat="42.93179" lon="0.58792">
        <ele>1059</ele>
        <time>2019-02-03T10:07:38.000Z</time>
      </trkpt>
      <trkpt lat="42.93178" lon="0.58792">
        <ele>1059</ele>
        <time>2019-02-03T10:07:39.000Z</time>
      </trkpt>
      <trkpt lat="42.93178" lon="0.58793">
        <ele>1059.5</ele>
        <time>2019-02-03T10:07:40.000Z</time>
      </trkpt>
      <trkpt lat="42.93177" lon="0.58793">
        <ele>1060</ele>
        <time>2019-02-03T10:07:41.000Z</time>
      </trkpt>
      <trkpt lat="42.93176" lon="0.58793">
        <ele>1060</ele>
        <time>2019-02-03T10:07:42.000Z</time>
      </trkpt>
      <trkpt lat="42.93175" lon="0.58793">
        <ele>1060</ele>
        <time>2019-02-03T10:07:43.000Z</time>
      </trkpt>
      <trkpt lat="42.93174" lon="0.58794">
        <ele>1060</ele>
        <time>2019-02-03T10:07:44.000Z</time>
      </trkpt>
      <trkpt lat="42.93173" lon="0.58794">
        <ele>1060</ele>
        <time>2019-02-03T10:07:45.000Z</time>
      </trkpt>
      <trkpt lat="42.93172" lon="0.58794">
        <ele>1060</ele>
        <time>2019-02-03T10:07:46.000Z</time>
      </trkpt>
      <trkpt lat="42.93171" lon="0.58795">
        <ele>1060</ele>
        <time>2019-02-03T10:07:47.000Z</time>
      </trkpt>
      <trkpt lat="42.9317" lon="0.58795">
        <ele>1060</ele>
        <time>2019-02-03T10:07:48.000Z</time>
      </trkpt>
      <trkpt lat="42.9317" lon="0.58795">
        <ele>1060</ele>
        <time>2019-02-03T10:07:49.000Z</time>
      </trkpt>
      <trkpt lat="42.93169" lon="0.58796">
        <ele>1060</ele>
        <time>2019-02-03T10:07:50.000Z</time>
      </trkpt>
      <trkpt lat="42.93169" lon="0.58796">
        <ele>1060</ele>
        <time>2019-02-03T10:07:51.000Z</time>
      </trkpt>
      <trkpt lat="42.93168" lon="0.58796">
        <ele>1060</ele>
        <time>2019-02-03T10:07:52.000Z</time>
      </trkpt>
      <trkpt lat="42.93168" lon="0.58797">
        <ele>1060</ele>
        <time>2019-02-03T10:07:53.000Z</time>
      </trkpt>
      <trkpt lat="42.93167" lon="0.58797">
        <ele>1060</ele>
        <time>2019-02-03T10:07:54.000Z</time>
      </trkpt>
      <trkpt lat="42.93167" lon="0.58798">
        <ele>1060</ele>
        <time>2019-02-03T10:07:55.000Z</time>
      </trkpt>
      <trkpt lat="42.93167" lon="0.58798">
        <ele>1060</ele>
        <time>2019-02-03T10:07:56.000Z</time>
      </trkpt>
      <trkpt lat="42.93166" lon="0.58798">
        <ele>1060</ele>
        <time>2019-02-03T10:07:57.000Z</time>
      </trkpt>
      <trkpt lat="42.93166" lon="0.58799">
        <ele>1060.5</ele>
        <time>2019-02-03T10:07:58.000Z</time>
      </trkpt>
      <trkpt lat="42.93165" lon="0.58799">
        <ele>1061</ele>
        <time>2019-02-03T10:07:59.000Z</time>
      </trkpt>
      <trkpt lat="42.93165" lon="0.58799">
        <ele>1061</ele>
        <time>2019-02-03T10:08:00.000Z</time>
      </trkpt>
      <trkpt lat="42.93164" lon="0.58799">
        <ele>1061</ele>
        <time>2019-02-03T10:08:01.000Z</time>
      </trkpt>
      <trkpt lat="42.93164" lon="0.588">
        <ele>1061</ele>
        <time>2019-02-03T10:08:02.000Z</time>
      </trkpt>
      <trkpt lat="42.93163" lon="0.588">
        <ele>1061</ele>
        <time>2019-02-03T10:08:03.000Z</time>
      </trkpt>
      <trkpt lat="42.93162" lon="0.588">
        <ele>1061</ele>
        <time>2019-02-03T10:08:04.000Z</time>
      </trkpt>
      <trkpt lat="42.93162" lon="0.588">
        <ele>1061</ele>
        <time>2019-02-03T10:08:05.000Z</time>
      </trkpt>
      <trkpt lat="42.93161" lon="0.588">
        <ele>1061</ele>
        <time>2019-02-03T10:08:06.000Z</time>
      </trkpt>
      <trkpt lat="42.9316" lon="0.588">
        <ele>1061</ele>
        <time>2019-02-03T10:08:07.000Z</time>
      </trkpt>
      <trkpt lat="42.93159" lon="0.588">
        <ele>1061</ele>
        <time>2019-02-03T10:08:08.000Z</time>
      </trkpt>
      <trkpt lat="42.93159" lon="0.588">
        <ele>1061</ele>
        <time>2019-02-03T10:08:09.000Z</time>
      </trkpt>
      <trkpt lat="42.93158" lon="0.588">
        <ele>1061</ele>
        <time>2019-02-03T10:08:10.000Z</time>
      </trkpt>
      <trkpt lat="42.93157" lon="0.588">
        <ele>1061</ele>
        <time>2019-02-03T10:08:11.000Z</time>
      </trkpt>
      <trkpt lat="42.93157" lon="0.588">
        <ele>1061</ele>
        <time>2019-02-03T10:08:12.000Z</time>
      </trkpt>
      <trkpt lat="42.93156" lon="0.588">
        <ele>1061</ele>
        <time>2019-02-03T10:08:13.000Z</time>
      </trkpt>
      <trkpt lat="42.93156" lon="0.588">
        <ele>1061</ele>
        <time>2019-02-03T10:08:14.000Z</time>
      </trkpt>
      <trkpt lat="42.93155" lon="0.588">
        <ele>1061</ele>
        <time>2019-02-03T10:08:15.000Z</time>
      </trkpt>
      <trkpt lat="42.93155" lon="0.588">
        <ele>1061.5</ele>
        <time>2019-02-03T10:08:16.000Z</time>
      </trkpt>
      <trkpt lat="42.93154" lon="0.58801">
        <ele>1062</ele>
        <time>2019-02-03T10:08:17.000Z</time>
      </trkpt>
      <trkpt lat="42.93154" lon="0.58801">
        <ele>1062</ele>
        <time>2019-02-03T10:08:18.000Z</time>
      </trkpt>
      <trkpt lat="42.93153" lon="0.58801">
        <ele>1062</ele>
        <time>2019-02-03T10:08:19.000Z</time>
      </trkpt>
      <trkpt lat="42.93152" lon="0.58801">
        <ele>1062</ele>
        <time>2019-02-03T10:08:20.000Z</time>
      </trkpt>
      <trkpt lat="42.93151" lon="0.58802">
        <ele>1062</ele>
        <time>2019-02-03T10:08:21.000Z</time>
      </trkpt>
      <trkpt lat="42.9315" lon="0.58802">
        <ele>1062</ele>
        <time>2019-02-03T10:08:22.000Z</time>
      </trkpt>
      <trkpt lat="42.93149" lon="0.58803">
        <ele>1062</ele>
        <time>2019-02-03T10:08:23.000Z</time>
      </trkpt>
      <trkpt lat="42.93148" lon="0.58803">
        <ele>1062</ele>
        <time>2019-02-03T10:08:24.000Z</time>
      </trkpt>
      <trkpt lat="42.93147" lon="0.58803">
        <ele>1062</ele>
        <time>2019-02-03T10:08:25.000Z</time>
      </trkpt>
      <trkpt lat="42.93147" lon="0.58804">
        <ele>1062</ele>
        <time>2019-02-03T10:08:26.000Z</time>
      </trkpt>
      <trkpt lat="42.93146" lon="0.58804">
        <ele>1062</ele>
        <time>2019-02-03T10:08:27.000Z</time>
      </trkpt>
      <trkpt lat="42.93146" lon="0.58804">
        <ele>1062</ele>
        <time>2019-02-03T10:08:28.000Z</time>
      </trkpt>
      <trkpt lat="42.93145" lon="0.58804">
        <ele>1062</ele>
        <time>2019-02-03T10:08:29.000Z</time>
      </trkpt>
      <trkpt lat="42.93145" lon="0.58804">
        <ele>1062.5</ele>
        <time>2019-02-03T10:08:30.000Z</time>
      </trkpt>
      <trkpt lat="42.93145" lon="0.58804">
        <ele>1063</ele>
        <time>2019-02-03T10:08:31.000Z</time>
      </trkpt>
      <trkpt lat="42.93145" lon="0.58804">
        <ele>1063</ele>
        <time>2019-02-03T10:08:32.000Z</time>
      </trkpt>
      <trkpt lat="42.93145" lon="0.58804">
        <ele>1063</ele>
        <time>2019-02-03T10:08:33.000Z</time>
      </trkpt>
      <trkpt lat="42.93145" lon="0.58804">
        <ele>1063</ele>
        <time>2019-02-03T10:08:34.000Z</time>
      </trkpt>
      <trkpt lat="42.93144" lon="0.58804">
        <ele>1063</ele>
        <time>2019-02-03T10:08:35.000Z</time>
      </trkpt>
      <trkpt lat="42.93144" lon="0.58804">
        <ele>1063</ele>
        <time>2019-02-03T10:08:36.000Z</time>
      </trkpt>
      <trkpt lat="42.93143" lon="0.58803">
        <ele>1063</ele>
        <time>2019-02-03T10:08:37.000Z</time>
      </trkpt>
      <trkpt lat="42.93142" lon="0.58803">
        <ele>1063</ele>
        <time>2019-02-03T10:08:38.000Z</time>
      </trkpt>
      <trkpt lat="42.93141" lon="0.58802">
        <ele>1063</ele>
        <time>2019-02-03T10:08:39.000Z</time>
      </trkpt>
      <trkpt lat="42.9314" lon="0.58802">
        <ele>1063</ele>
        <time>2019-02-03T10:08:40.000Z</time>
      </trkpt>
      <trkpt lat="42.9314" lon="0.58802">
        <ele>1063</ele>
        <time>2019-02-03T10:08:41.000Z</time>
      </trkpt>
      <trkpt lat="42.93139" lon="0.58801">
        <ele>1063</ele>
        <time>2019-02-03T10:08:42.000Z</time>
      </trkpt>
      <trkpt lat="42.93139" lon="0.58801">
        <ele>1063</ele>
        <time>2019-02-03T10:08:43.000Z</time>
      </trkpt>
      <trkpt lat="42.93138" lon="0.588">
        <ele>1063</ele>
        <time>2019-02-03T10:08:44.000Z</time>
      </trkpt>
      <trkpt lat="42.93137" lon="0.588">
        <ele>1063</ele>
        <time>2019-02-03T10:08:45.000Z</time>
      </trkpt>
      <trkpt lat="42.93136" lon="0.58799">
        <ele>1063</ele>
        <time>2019-02-03T10:08:46.000Z</time>
      </trkpt>
      <trkpt lat="42.93135" lon="0.58799">
        <ele>1063.3</ele>
        <time>2019-02-03T10:08:47.000Z</time>
      </trkpt>
      <trkpt lat="42.93135" lon="0.58798">
        <ele>1063.7</ele>
        <time>2019-02-03T10:08:48.000Z</time>
      </trkpt>
      <trkpt lat="42.93134" lon="0.58798">
        <ele>1064</ele>
        <time>2019-02-03T10:08:49.000Z</time>
      </trkpt>
      <trkpt lat="42.93133" lon="0.58797">
        <ele>1064</ele>
        <time>2019-02-03T10:08:50.000Z</time>
      </trkpt>
      <trkpt lat="42.93132" lon="0.58796">
        <ele>1064</ele>
        <time>2019-02-03T10:08:51.000Z</time>
      </trkpt>
      <trkpt lat="42.93132" lon="0.58796">
        <ele>1064</ele>
        <time>2019-02-03T10:08:52.000Z</time>
      </trkpt>
      <trkpt lat="42.93131" lon="0.58795">
        <ele>1064</ele>
        <time>2019-02-03T10:08:53.000Z</time>
      </trkpt>
      <trkpt lat="42.93131" lon="0.58794">
        <ele>1064</ele>
        <time>2019-02-03T10:08:54.000Z</time>
      </trkpt>
      <trkpt lat="42.9313" lon="0.58793">
        <ele>1064</ele>
        <time>2019-02-03T10:08:55.000Z</time>
      </trkpt>
      <trkpt lat="42.9313" lon="0.58792">
        <ele>1064</ele>
        <time>2019-02-03T10:08:56.000Z</time>
      </trkpt>
      <trkpt lat="42.9313" lon="0.58791">
        <ele>1064</ele>
        <time>2019-02-03T10:08:57.000Z</time>
      </trkpt>
      <trkpt lat="42.9313" lon="0.5879">
        <ele>1064</ele>
        <time>2019-02-03T10:08:58.000Z</time>
      </trkpt>
      <trkpt lat="42.93129" lon="0.58789">
        <ele>1064</ele>
        <time>2019-02-03T10:08:59.000Z</time>
      </trkpt>
      <trkpt lat="42.93129" lon="0.58789">
        <ele>1064</ele>
        <time>2019-02-03T10:09:00.000Z</time>
      </trkpt>
      <trkpt lat="42.93129" lon="0.58788">
        <ele>1064</ele>
        <time>2019-02-03T10:09:01.000Z</time>
      </trkpt>
      <trkpt lat="42.93129" lon="0.58787">
        <ele>1064</ele>
        <time>2019-02-03T10:09:02.000Z</time>
      </trkpt>
      <trkpt lat="42.93129" lon="0.58786">
        <ele>1064</ele>
        <time>2019-02-03T10:09:03.000Z</time>
      </trkpt>
      <trkpt lat="42.93129" lon="0.58786">
        <ele>1064</ele>
        <time>2019-02-03T10:09:04.000Z</time>
      </trkpt>
      <trkpt lat="42.93129" lon="0.58785">
        <ele>1064</ele>
        <time>2019-02-03T10:09:05.000Z</time>
      </trkpt>
      <trkpt lat="42.93128" lon="0.58784">
        <ele>1064.5</ele>
        <time>2019-02-03T10:09:06.000Z</time>
      </trkpt>
      <trkpt lat="42.93128" lon="0.58784">
        <ele>1065</ele>
        <time>2019-02-03T10:09:07.000Z</time>
      </trkpt>
      <trkpt lat="42.93128" lon="0.58783">
        <ele>1065</ele>
        <time>2019-02-03T10:09:08.000Z</time>
      </trkpt>
      <trkpt lat="42.93127" lon="0.58783">
        <ele>1065</ele>
        <time>2019-02-03T10:09:09.000Z</time>
      </trkpt>
      <trkpt lat="42.93127" lon="0.58783">
        <ele>1065</ele>
        <time>2019-02-03T10:09:10.000Z</time>
      </trkpt>
      <trkpt lat="42.93126" lon="0.58782">
        <ele>1065</ele>
        <time>2019-02-03T10:09:11.000Z</time>
      </trkpt>
      <trkpt lat="42.93126" lon="0.58782">
        <ele>1065</ele>
        <time>2019-02-03T10:09:12.000Z</time>
      </trkpt>
      <trkpt lat="42.93125" lon="0.58781">
        <ele>1065</ele>
        <time>2019-02-03T10:09:13.000Z</time>
      </trkpt>
      <trkpt lat="42.93125" lon="0.58781">
        <ele>1065</ele>
        <time>2019-02-03T10:09:14.000Z</time>
      </trkpt>
      <trkpt lat="42.93124" lon="0.5878">
        <ele>1065</ele>
        <time>2019-02-03T10:09:15.000Z</time>
      </trkpt>
      <trkpt lat="42.93123" lon="0.58779">
        <ele>1065</ele>
        <time>2019-02-03T10:09:16.000Z</time>
      </trkpt>
      <trkpt lat="42.93123" lon="0.58779">
        <ele>1065</ele>
        <time>2019-02-03T10:09:17.000Z</time>
      </trkpt>
      <trkpt lat="42.93122" lon="0.58778">
        <ele>1065.5</ele>
        <time>2019-02-03T10:09:18.000Z</time>
      </trkpt>
      <trkpt lat="42.93121" lon="0.58777">
        <ele>1066</ele>
        <time>2019-02-03T10:09:19.000Z</time>
      </trkpt>
      <trkpt lat="42.93121" lon="0.58776">
        <ele>1066</ele>
        <time>2019-02-03T10:09:20.000Z</time>
      </trkpt>
      <trkpt lat="42.9312" lon="0.58776">
        <ele>1066</ele>
        <time>2019-02-03T10:09:21.000Z</time>
      </trkpt>
      <trkpt lat="42.93119" lon="0.58775">
        <ele>1066</ele>
        <time>2019-02-03T10:09:22.000Z</time>
      </trkpt>
      <trkpt lat="42.93119" lon="0.58774">
        <ele>1066</ele>
        <time>2019-02-03T10:09:23.000Z</time>
      </trkpt>
      <trkpt lat="42.93118" lon="0.58773">
        <ele>1066</ele>
        <time>2019-02-03T10:09:24.000Z</time>
      </trkpt>
      <trkpt lat="42.93118" lon="0.58773">
        <ele>1066</ele>
        <time>2019-02-03T10:09:25.000Z</time>
      </trkpt>
      <trkpt lat="42.93118" lon="0.58772">
        <ele>1066</ele>
        <time>2019-02-03T10:09:26.000Z</time>
      </trkpt>
      <trkpt lat="42.93117" lon="0.58771">
        <ele>1066</ele>
        <time>2019-02-03T10:09:27.000Z</time>
      </trkpt>
      <trkpt lat="42.93117" lon="0.58771">
        <ele>1066</ele>
        <time>2019-02-03T10:09:28.000Z</time>
      </trkpt>
      <trkpt lat="42.93117" lon="0.5877">
        <ele>1066</ele>
        <time>2019-02-03T10:09:29.000Z</time>
      </trkpt>
      <trkpt lat="42.93116" lon="0.5877">
        <ele>1066</ele>
        <time>2019-02-03T10:09:30.000Z</time>
      </trkpt>
      <trkpt lat="42.93116" lon="0.58769">
        <ele>1066</ele>
        <time>2019-02-03T10:09:31.000Z</time>
      </trkpt>
      <trkpt lat="42.93116" lon="0.58769">
        <ele>1066.5</ele>
        <time>2019-02-03T10:09:32.000Z</time>
      </trkpt>
      <trkpt lat="42.93115" lon="0.58769">
        <ele>1067</ele>
        <time>2019-02-03T10:09:33.000Z</time>
      </trkpt>
      <trkpt lat="42.93115" lon="0.58768">
        <ele>1067</ele>
        <time>2019-02-03T10:09:34.000Z</time>
      </trkpt>
      <trkpt lat="42.93114" lon="0.58768">
        <ele>1067</ele>
        <time>2019-02-03T10:09:35.000Z</time>
      </trkpt>
      <trkpt lat="42.93114" lon="0.58767">
        <ele>1067</ele>
        <time>2019-02-03T10:09:36.000Z</time>
      </trkpt>
      <trkpt lat="42.93114" lon="0.58766">
        <ele>1067</ele>
        <time>2019-02-03T10:09:37.000Z</time>
      </trkpt>
      <trkpt lat="42.93113" lon="0.58766">
        <ele>1067</ele>
        <time>2019-02-03T10:09:38.000Z</time>
      </trkpt>
      <trkpt lat="42.93113" lon="0.58765">
        <ele>1067</ele>
        <time>2019-02-03T10:09:39.000Z</time>
      </trkpt>
      <trkpt lat="42.93112" lon="0.58764">
        <ele>1067</ele>
        <time>2019-02-03T10:09:40.000Z</time>
      </trkpt>
      <trkpt lat="42.93112" lon="0.58764">
        <ele>1067</ele>
        <time>2019-02-03T10:09:41.000Z</time>
      </trkpt>
      <trkpt lat="42.93111" lon="0.58763">
        <ele>1067</ele>
        <time>2019-02-03T10:09:42.000Z</time>
      </trkpt>
      <trkpt lat="42.93111" lon="0.58762">
        <ele>1067</ele>
        <time>2019-02-03T10:09:43.000Z</time>
      </trkpt>
      <trkpt lat="42.93111" lon="0.58762">
        <ele>1067</ele>
        <time>2019-02-03T10:09:44.000Z</time>
      </trkpt>
      <trkpt lat="42.9311" lon="0.58761">
        <ele>1067</ele>
        <time>2019-02-03T10:09:45.000Z</time>
      </trkpt>
      <trkpt lat="42.9311" lon="0.5876">
        <ele>1067</ele>
        <time>2019-02-03T10:09:46.000Z</time>
      </trkpt>
      <trkpt lat="42.93109" lon="0.5876">
        <ele>1067</ele>
        <time>2019-02-03T10:09:47.000Z</time>
      </trkpt>
      <trkpt lat="42.93109" lon="0.58759">
        <ele>1068</ele>
        <time>2019-02-03T10:09:48.000Z</time>
      </trkpt>
      <trkpt lat="42.93109" lon="0.58758">
        <ele>1068</ele>
        <time>2019-02-03T10:09:49.000Z</time>
      </trkpt>
      <trkpt lat="42.93108" lon="0.58757">
        <ele>1068</ele>
        <time>2019-02-03T10:09:50.000Z</time>
      </trkpt>
      <trkpt lat="42.93108" lon="0.58756">
        <ele>1068</ele>
        <time>2019-02-03T10:09:51.000Z</time>
      </trkpt>
      <trkpt lat="42.93108" lon="0.58754">
        <ele>1068</ele>
        <time>2019-02-03T10:09:52.000Z</time>
      </trkpt>
      <trkpt lat="42.93108" lon="0.58753">
        <ele>1068</ele>
        <time>2019-02-03T10:09:53.000Z</time>
      </trkpt>
      <trkpt lat="42.93108" lon="0.58753">
        <ele>1068</ele>
        <time>2019-02-03T10:09:54.000Z</time>
      </trkpt>
      <trkpt lat="42.93107" lon="0.58752">
        <ele>1068</ele>
        <time>2019-02-03T10:09:55.000Z</time>
      </trkpt>
      <trkpt lat="42.93107" lon="0.58751">
        <ele>1068</ele>
        <time>2019-02-03T10:09:56.000Z</time>
      </trkpt>
      <trkpt lat="42.93107" lon="0.58751">
        <ele>1068</ele>
        <time>2019-02-03T10:09:57.000Z</time>
      </trkpt>
      <trkpt lat="42.93106" lon="0.5875">
        <ele>1068</ele>
        <time>2019-02-03T10:09:58.000Z</time>
      </trkpt>
      <trkpt lat="42.93106" lon="0.5875">
        <ele>1068</ele>
        <time>2019-02-03T10:09:59.000Z</time>
      </trkpt>
      <trkpt lat="42.93105" lon="0.58749">
        <ele>1068</ele>
        <time>2019-02-03T10:10:00.000Z</time>
      </trkpt>
      <trkpt lat="42.93105" lon="0.58749">
        <ele>1068</ele>
        <time>2019-02-03T10:10:01.000Z</time>
      </trkpt>
      <trkpt lat="42.93104" lon="0.58748">
        <ele>1068</ele>
        <time>2019-02-03T10:10:02.000Z</time>
      </trkpt>
      <trkpt lat="42.93104" lon="0.58748">
        <ele>1068.3</ele>
        <time>2019-02-03T10:10:03.000Z</time>
      </trkpt>
      <trkpt lat="42.93104" lon="0.58747">
        <ele>1068.7</ele>
        <time>2019-02-03T10:10:04.000Z</time>
      </trkpt>
      <trkpt lat="42.93103" lon="0.58747">
        <ele>1069</ele>
        <time>2019-02-03T10:10:05.000Z</time>
      </trkpt>
      <trkpt lat="42.93103" lon="0.58746">
        <ele>1069</ele>
        <time>2019-02-03T10:10:06.000Z</time>
      </trkpt>
      <trkpt lat="42.93103" lon="0.58745">
        <ele>1069</ele>
        <time>2019-02-03T10:10:07.000Z</time>
      </trkpt>
      <trkpt lat="42.93102" lon="0.58745">
        <ele>1069</ele>
        <time>2019-02-03T10:10:08.000Z</time>
      </trkpt>
      <trkpt lat="42.93102" lon="0.58744">
        <ele>1069</ele>
        <time>2019-02-03T10:10:09.000Z</time>
      </trkpt>
      <trkpt lat="42.93101" lon="0.58744">
        <ele>1069</ele>
        <time>2019-02-03T10:10:10.000Z</time>
      </trkpt>
      <trkpt lat="42.93101" lon="0.58743">
        <ele>1069</ele>
        <time>2019-02-03T10:10:11.000Z</time>
      </trkpt>
      <trkpt lat="42.931" lon="0.58742">
        <ele>1069</ele>
        <time>2019-02-03T10:10:12.000Z</time>
      </trkpt>
      <trkpt lat="42.931" lon="0.58742">
        <ele>1069</ele>
        <time>2019-02-03T10:10:13.000Z</time>
      </trkpt>
      <trkpt lat="42.93099" lon="0.58741">
        <ele>1069</ele>
        <time>2019-02-03T10:10:14.000Z</time>
      </trkpt>
      <trkpt lat="42.93098" lon="0.5874">
        <ele>1069</ele>
        <time>2019-02-03T10:10:15.000Z</time>
      </trkpt>
      <trkpt lat="42.93098" lon="0.5874">
        <ele>1069</ele>
        <time>2019-02-03T10:10:16.000Z</time>
      </trkpt>
      <trkpt lat="42.93098" lon="0.58739">
        <ele>1069</ele>
        <time>2019-02-03T10:10:17.000Z</time>
      </trkpt>
      <trkpt lat="42.93097" lon="0.58739">
        <ele>1069.5</ele>
        <time>2019-02-03T10:10:18.000Z</time>
      </trkpt>
      <trkpt lat="42.93097" lon="0.58738">
        <ele>1070</ele>
        <time>2019-02-03T10:10:19.000Z</time>
      </trkpt>
      <trkpt lat="42.93096" lon="0.58737">
        <ele>1070</ele>
        <time>2019-02-03T10:10:20.000Z</time>
      </trkpt>
      <trkpt lat="42.93096" lon="0.58737">
        <ele>1070</ele>
        <time>2019-02-03T10:10:21.000Z</time>
      </trkpt>
      <trkpt lat="42.93096" lon="0.58736">
        <ele>1070</ele>
        <time>2019-02-03T10:10:22.000Z</time>
      </trkpt>
      <trkpt lat="42.93096" lon="0.58736">
        <ele>1070</ele>
        <time>2019-02-03T10:10:23.000Z</time>
      </trkpt>
      <trkpt lat="42.93096" lon="0.58735">
        <ele>1070</ele>
        <time>2019-02-03T10:10:24.000Z</time>
      </trkpt>
      <trkpt lat="42.93095" lon="0.58735">
        <ele>1070</ele>
        <time>2019-02-03T10:10:25.000Z</time>
      </trkpt>
      <trkpt lat="42.93095" lon="0.58734">
        <ele>1070</ele>
        <time>2019-02-03T10:10:26.000Z</time>
      </trkpt>
      <trkpt lat="42.93095" lon="0.58734">
        <ele>1070</ele>
        <time>2019-02-03T10:10:27.000Z</time>
      </trkpt>
      <trkpt lat="42.93095" lon="0.58733">
        <ele>1070</ele>
        <time>2019-02-03T10:10:28.000Z</time>
      </trkpt>
      <trkpt lat="42.93094" lon="0.58732">
        <ele>1070</ele>
        <time>2019-02-03T10:10:29.000Z</time>
      </trkpt>
      <trkpt lat="42.93094" lon="0.58732">
        <ele>1070</ele>
        <time>2019-02-03T10:10:30.000Z</time>
      </trkpt>
      <trkpt lat="42.93094" lon="0.58731">
        <ele>1070</ele>
        <time>2019-02-03T10:10:31.000Z</time>
      </trkpt>
      <trkpt lat="42.93093" lon="0.5873">
        <ele>1070</ele>
        <time>2019-02-03T10:10:32.000Z</time>
      </trkpt>
      <trkpt lat="42.93093" lon="0.5873">
        <ele>1070</ele>
        <time>2019-02-03T10:10:33.000Z</time>
      </trkpt>
      <trkpt lat="42.93093" lon="0.58729">
        <ele>1070.5</ele>
        <time>2019-02-03T10:10:34.000Z</time>
      </trkpt>
      <trkpt lat="42.93093" lon="0.58727">
        <ele>1071</ele>
        <time>2019-02-03T10:10:35.000Z</time>
      </trkpt>
      <trkpt lat="42.93093" lon="0.58726">
        <ele>1071</ele>
        <time>2019-02-03T10:10:36.000Z</time>
      </trkpt>
      <trkpt lat="42.93093" lon="0.58725">
        <ele>1071</ele>
        <time>2019-02-03T10:10:37.000Z</time>
      </trkpt>
      <trkpt lat="42.93093" lon="0.58723">
        <ele>1071</ele>
        <time>2019-02-03T10:10:38.000Z</time>
      </trkpt>
      <trkpt lat="42.93093" lon="0.58722">
        <ele>1071</ele>
        <time>2019-02-03T10:10:39.000Z</time>
      </trkpt>
      <trkpt lat="42.93094" lon="0.58721">
        <ele>1071</ele>
        <time>2019-02-03T10:10:40.000Z</time>
      </trkpt>
      <trkpt lat="42.93094" lon="0.5872">
        <ele>1071</ele>
        <time>2019-02-03T10:10:41.000Z</time>
      </trkpt>
      <trkpt lat="42.93095" lon="0.5872">
        <ele>1071</ele>
        <time>2019-02-03T10:10:42.000Z</time>
      </trkpt>
      <trkpt lat="42.93095" lon="0.58719">
        <ele>1071</ele>
        <time>2019-02-03T10:10:43.000Z</time>
      </trkpt>
      <trkpt lat="42.93095" lon="0.58719">
        <ele>1071</ele>
        <time>2019-02-03T10:10:44.000Z</time>
      </trkpt>
      <trkpt lat="42.93095" lon="0.58718">
        <ele>1071</ele>
        <time>2019-02-03T10:10:45.000Z</time>
      </trkpt>
      <trkpt lat="42.93095" lon="0.58717">
        <ele>1072</ele>
        <time>2019-02-03T10:10:46.000Z</time>
      </trkpt>
      <trkpt lat="42.93095" lon="0.58716">
        <ele>1072</ele>
        <time>2019-02-03T10:10:47.000Z</time>
      </trkpt>
      <trkpt lat="42.93095" lon="0.58716">
        <ele>1072</ele>
        <time>2019-02-03T10:10:48.000Z</time>
      </trkpt>
      <trkpt lat="42.93095" lon="0.58715">
        <ele>1072</ele>
        <time>2019-02-03T10:10:49.000Z</time>
      </trkpt>
      <trkpt lat="42.93094" lon="0.58714">
        <ele>1072</ele>
        <time>2019-02-03T10:10:50.000Z</time>
      </trkpt>
      <trkpt lat="42.93094" lon="0.58714">
        <ele>1072</ele>
        <time>2019-02-03T10:10:51.000Z</time>
      </trkpt>
      <trkpt lat="42.93093" lon="0.58713">
        <ele>1072</ele>
        <time>2019-02-03T10:10:52.000Z</time>
      </trkpt>
      <trkpt lat="42.93093" lon="0.58713">
        <ele>1072</ele>
        <time>2019-02-03T10:10:53.000Z</time>
      </trkpt>
      <trkpt lat="42.93092" lon="0.58712">
        <ele>1072</ele>
        <time>2019-02-03T10:10:54.000Z</time>
      </trkpt>
      <trkpt lat="42.93092" lon="0.58712">
        <ele>1072</ele>
        <time>2019-02-03T10:10:55.000Z</time>
      </trkpt>
      <trkpt lat="42.93091" lon="0.58711">
        <ele>1072</ele>
        <time>2019-02-03T10:10:56.000Z</time>
      </trkpt>
      <trkpt lat="42.93091" lon="0.5871">
        <ele>1072</ele>
        <time>2019-02-03T10:10:57.000Z</time>
      </trkpt>
      <trkpt lat="42.9309" lon="0.5871">
        <ele>1072</ele>
        <time>2019-02-03T10:10:58.000Z</time>
      </trkpt>
      <trkpt lat="42.9309" lon="0.58709">
        <ele>1072</ele>
        <time>2019-02-03T10:10:59.000Z</time>
      </trkpt>
      <trkpt lat="42.9309" lon="0.58709">
        <ele>1072</ele>
        <time>2019-02-03T10:11:00.000Z</time>
      </trkpt>
      <trkpt lat="42.9309" lon="0.58708">
        <ele>1072</ele>
        <time>2019-02-03T10:11:01.000Z</time>
      </trkpt>
      <trkpt lat="42.93089" lon="0.58707">
        <ele>1072</ele>
        <time>2019-02-03T10:11:02.000Z</time>
      </trkpt>
      <trkpt lat="42.93089" lon="0.58706">
        <ele>1072</ele>
        <time>2019-02-03T10:11:03.000Z</time>
      </trkpt>
      <trkpt lat="42.93089" lon="0.58706">
        <ele>1072.5</ele>
        <time>2019-02-03T10:11:04.000Z</time>
      </trkpt>
      <trkpt lat="42.93088" lon="0.58705">
        <ele>1073</ele>
        <time>2019-02-03T10:11:05.000Z</time>
      </trkpt>
      <trkpt lat="42.93088" lon="0.58704">
        <ele>1073</ele>
        <time>2019-02-03T10:11:06.000Z</time>
      </trkpt>
      <trkpt lat="42.93087" lon="0.58703">
        <ele>1073</ele>
        <time>2019-02-03T10:11:07.000Z</time>
      </trkpt>
      <trkpt lat="42.93087" lon="0.58703">
        <ele>1073</ele>
        <time>2019-02-03T10:11:08.000Z</time>
      </trkpt>
      <trkpt lat="42.93086" lon="0.58702">
        <ele>1073</ele>
        <time>2019-02-03T10:11:09.000Z</time>
      </trkpt>
      <trkpt lat="42.93085" lon="0.58701">
        <ele>1073</ele>
        <time>2019-02-03T10:11:10.000Z</time>
      </trkpt>
      <trkpt lat="42.93085" lon="0.58701">
        <ele>1073</ele>
        <time>2019-02-03T10:11:11.000Z</time>
      </trkpt>
      <trkpt lat="42.93084" lon="0.587">
        <ele>1073</ele>
        <time>2019-02-03T10:11:12.000Z</time>
      </trkpt>
      <trkpt lat="42.93083" lon="0.587">
        <ele>1073</ele>
        <time>2019-02-03T10:11:13.000Z</time>
      </trkpt>
      <trkpt lat="42.93082" lon="0.58699">
        <ele>1073</ele>
        <time>2019-02-03T10:11:14.000Z</time>
      </trkpt>
      <trkpt lat="42.93082" lon="0.58699">
        <ele>1073.5</ele>
        <time>2019-02-03T10:11:15.000Z</time>
      </trkpt>
      <trkpt lat="42.93081" lon="0.58699">
        <ele>1074</ele>
        <time>2019-02-03T10:11:16.000Z</time>
      </trkpt>
      <trkpt lat="42.93081" lon="0.58698">
        <ele>1074</ele>
        <time>2019-02-03T10:11:17.000Z</time>
      </trkpt>
      <trkpt lat="42.93081" lon="0.58698">
        <ele>1074</ele>
        <time>2019-02-03T10:11:18.000Z</time>
      </trkpt>
      <trkpt lat="42.9308" lon="0.58698">
        <ele>1074</ele>
        <time>2019-02-03T10:11:19.000Z</time>
      </trkpt>
      <trkpt lat="42.9308" lon="0.58697">
        <ele>1074</ele>
        <time>2019-02-03T10:11:20.000Z</time>
      </trkpt>
      <trkpt lat="42.93079" lon="0.58696">
        <ele>1074</ele>
        <time>2019-02-03T10:11:21.000Z</time>
      </trkpt>
      <trkpt lat="42.93079" lon="0.58695">
        <ele>1074</ele>
        <time>2019-02-03T10:11:22.000Z</time>
      </trkpt>
      <trkpt lat="42.93078" lon="0.58694">
        <ele>1074</ele>
        <time>2019-02-03T10:11:23.000Z</time>
      </trkpt>
      <trkpt lat="42.93078" lon="0.58693">
        <ele>1074</ele>
        <time>2019-02-03T10:11:24.000Z</time>
      </trkpt>
      <trkpt lat="42.93077" lon="0.58692">
        <ele>1074</ele>
        <time>2019-02-03T10:11:25.000Z</time>
      </trkpt>
      <trkpt lat="42.93077" lon="0.58691">
        <ele>1074</ele>
        <time>2019-02-03T10:11:26.000Z</time>
      </trkpt>
      <trkpt lat="42.93076" lon="0.5869">
        <ele>1074</ele>
        <time>2019-02-03T10:11:27.000Z</time>
      </trkpt>
      <trkpt lat="42.93076" lon="0.58689">
        <ele>1074</ele>
        <time>2019-02-03T10:11:28.000Z</time>
      </trkpt>
      <trkpt lat="42.93075" lon="0.58688">
        <ele>1074.3</ele>
        <time>2019-02-03T10:11:29.000Z</time>
      </trkpt>
      <trkpt lat="42.93075" lon="0.58688">
        <ele>1074.7</ele>
        <time>2019-02-03T10:11:30.000Z</time>
      </trkpt>
      <trkpt lat="42.93074" lon="0.58687">
        <ele>1075</ele>
        <time>2019-02-03T10:11:31.000Z</time>
      </trkpt>
      <trkpt lat="42.93074" lon="0.58687">
        <ele>1075</ele>
        <time>2019-02-03T10:11:32.000Z</time>
      </trkpt>
      <trkpt lat="42.93074" lon="0.58687">
        <ele>1075</ele>
        <time>2019-02-03T10:11:33.000Z</time>
      </trkpt>
      <trkpt lat="42.93073" lon="0.58687">
        <ele>1075</ele>
        <time>2019-02-03T10:11:34.000Z</time>
      </trkpt>
      <trkpt lat="42.93073" lon="0.58687">
        <ele>1075</ele>
        <time>2019-02-03T10:11:35.000Z</time>
      </trkpt>
      <trkpt lat="42.93073" lon="0.58687">
        <ele>1075</ele>
        <time>2019-02-03T10:11:36.000Z</time>
      </trkpt>
      <trkpt lat="42.93072" lon="0.58687">
        <ele>1075</ele>
        <time>2019-02-03T10:11:37.000Z</time>
      </trkpt>
      <trkpt lat="42.93072" lon="0.58687">
        <ele>1075</ele>
        <time>2019-02-03T10:11:38.000Z</time>
      </trkpt>
      <trkpt lat="42.93071" lon="0.58687">
        <ele>1075</ele>
        <time>2019-02-03T10:11:39.000Z</time>
      </trkpt>
      <trkpt lat="42.9307" lon="0.58687">
        <ele>1075</ele>
        <time>2019-02-03T10:11:40.000Z</time>
      </trkpt>
      <trkpt lat="42.93068" lon="0.58687">
        <ele>1075</ele>
        <time>2019-02-03T10:11:41.000Z</time>
      </trkpt>
      <trkpt lat="42.93067" lon="0.58687">
        <ele>1076</ele>
        <time>2019-02-03T10:11:42.000Z</time>
      </trkpt>
      <trkpt lat="42.93065" lon="0.58687">
        <ele>1076</ele>
        <time>2019-02-03T10:11:43.000Z</time>
      </trkpt>
      <trkpt lat="42.93064" lon="0.58686">
        <ele>1076</ele>
        <time>2019-02-03T10:11:44.000Z</time>
      </trkpt>
      <trkpt lat="42.93063" lon="0.58686">
        <ele>1076</ele>
        <time>2019-02-03T10:11:45.000Z</time>
      </trkpt>
      <trkpt lat="42.93063" lon="0.58686">
        <ele>1076</ele>
        <time>2019-02-03T10:11:46.000Z</time>
      </trkpt>
      <trkpt lat="42.93062" lon="0.58685">
        <ele>1076</ele>
        <time>2019-02-03T10:11:47.000Z</time>
      </trkpt>
      <trkpt lat="42.93061" lon="0.58685">
        <ele>1076</ele>
        <time>2019-02-03T10:11:48.000Z</time>
      </trkpt>
      <trkpt lat="42.93061" lon="0.58684">
        <ele>1076</ele>
        <time>2019-02-03T10:11:49.000Z</time>
      </trkpt>
      <trkpt lat="42.9306" lon="0.58684">
        <ele>1076</ele>
        <time>2019-02-03T10:11:50.000Z</time>
      </trkpt>
      <trkpt lat="42.93059" lon="0.58683">
        <ele>1076</ele>
        <time>2019-02-03T10:11:51.000Z</time>
      </trkpt>
      <trkpt lat="42.93059" lon="0.58683">
        <ele>1076</ele>
        <time>2019-02-03T10:11:52.000Z</time>
      </trkpt>
      <trkpt lat="42.93058" lon="0.58682">
        <ele>1076</ele>
        <time>2019-02-03T10:11:53.000Z</time>
      </trkpt>
      <trkpt lat="42.93058" lon="0.58682">
        <ele>1076.5</ele>
        <time>2019-02-03T10:11:54.000Z</time>
      </trkpt>
      <trkpt lat="42.93057" lon="0.58681">
        <ele>1077</ele>
        <time>2019-02-03T10:11:55.000Z</time>
      </trkpt>
      <trkpt lat="42.93056" lon="0.58681">
        <ele>1077</ele>
        <time>2019-02-03T10:11:56.000Z</time>
      </trkpt>
      <trkpt lat="42.93056" lon="0.5868">
        <ele>1077</ele>
        <time>2019-02-03T10:11:57.000Z</time>
      </trkpt>
      <trkpt lat="42.93055" lon="0.5868">
        <ele>1077</ele>
        <time>2019-02-03T10:11:58.000Z</time>
      </trkpt>
      <trkpt lat="42.93055" lon="0.58679">
        <ele>1077</ele>
        <time>2019-02-03T10:11:59.000Z</time>
      </trkpt>
      <trkpt lat="42.93055" lon="0.58679">
        <ele>1077</ele>
        <time>2019-02-03T10:12:00.000Z</time>
      </trkpt>
      <trkpt lat="42.93054" lon="0.58679">
        <ele>1077</ele>
        <time>2019-02-03T10:12:01.000Z</time>
      </trkpt>
      <trkpt lat="42.93053" lon="0.58679">
        <ele>1077</ele>
        <time>2019-02-03T10:12:02.000Z</time>
      </trkpt>
      <trkpt lat="42.93052" lon="0.58679">
        <ele>1077</ele>
        <time>2019-02-03T10:12:03.000Z</time>
      </trkpt>
      <trkpt lat="42.93051" lon="0.5868">
        <ele>1077</ele>
        <time>2019-02-03T10:12:04.000Z</time>
      </trkpt>
      <trkpt lat="42.93049" lon="0.5868">
        <ele>1077</ele>
        <time>2019-02-03T10:12:05.000Z</time>
      </trkpt>
      <trkpt lat="42.93048" lon="0.58681">
        <ele>1077</ele>
        <time>2019-02-03T10:12:06.000Z</time>
      </trkpt>
      <trkpt lat="42.93047" lon="0.58682">
        <ele>1077</ele>
        <time>2019-02-03T10:12:07.000Z</time>
      </trkpt>
      <trkpt lat="42.93046" lon="0.58682">
        <ele>1077</ele>
        <time>2019-02-03T10:12:08.000Z</time>
      </trkpt>
      <trkpt lat="42.93045" lon="0.58682">
        <ele>1077</ele>
        <time>2019-02-03T10:12:09.000Z</time>
      </trkpt>
      <trkpt lat="42.93044" lon="0.58683">
        <ele>1077</ele>
        <time>2019-02-03T10:12:10.000Z</time>
      </trkpt>
      <trkpt lat="42.93043" lon="0.58683">
        <ele>1078</ele>
        <time>2019-02-03T10:12:11.000Z</time>
      </trkpt>
      <trkpt lat="42.93042" lon="0.58683">
        <ele>1078</ele>
        <time>2019-02-03T10:12:12.000Z</time>
      </trkpt>
      <trkpt lat="42.93042" lon="0.58683">
        <ele>1078</ele>
        <time>2019-02-03T10:12:13.000Z</time>
      </trkpt>
      <trkpt lat="42.93041" lon="0.58683">
        <ele>1078</ele>
        <time>2019-02-03T10:12:14.000Z</time>
      </trkpt>
      <trkpt lat="42.93041" lon="0.58682">
        <ele>1078</ele>
        <time>2019-02-03T10:12:15.000Z</time>
      </trkpt>
      <trkpt lat="42.9304" lon="0.58682">
        <ele>1078</ele>
        <time>2019-02-03T10:12:16.000Z</time>
      </trkpt>
      <trkpt lat="42.9304" lon="0.58682">
        <ele>1078</ele>
        <time>2019-02-03T10:12:17.000Z</time>
      </trkpt>
      <trkpt lat="42.9304" lon="0.58681">
        <ele>1078</ele>
        <time>2019-02-03T10:12:18.000Z</time>
      </trkpt>
      <trkpt lat="42.93039" lon="0.58681">
        <ele>1078</ele>
        <time>2019-02-03T10:12:19.000Z</time>
      </trkpt>
      <trkpt lat="42.93039" lon="0.58681">
        <ele>1078</ele>
        <time>2019-02-03T10:12:20.000Z</time>
      </trkpt>
      <trkpt lat="42.93038" lon="0.5868">
        <ele>1078</ele>
        <time>2019-02-03T10:12:21.000Z</time>
      </trkpt>
      <trkpt lat="42.93038" lon="0.5868">
        <ele>1078.5</ele>
        <time>2019-02-03T10:12:22.000Z</time>
      </trkpt>
      <trkpt lat="42.93038" lon="0.58679">
        <ele>1079</ele>
        <time>2019-02-03T10:12:23.000Z</time>
      </trkpt>
      <trkpt lat="42.93037" lon="0.58679">
        <ele>1079</ele>
        <time>2019-02-03T10:12:24.000Z</time>
      </trkpt>
      <trkpt lat="42.93037" lon="0.58678">
        <ele>1079</ele>
        <time>2019-02-03T10:12:25.000Z</time>
      </trkpt>
      <trkpt lat="42.93036" lon="0.58678">
        <ele>1079</ele>
        <time>2019-02-03T10:12:26.000Z</time>
      </trkpt>
      <trkpt lat="42.93036" lon="0.58678">
        <ele>1079</ele>
        <time>2019-02-03T10:12:27.000Z</time>
      </trkpt>
      <trkpt lat="42.93035" lon="0.58677">
        <ele>1079</ele>
        <time>2019-02-03T10:12:28.000Z</time>
      </trkpt>
      <trkpt lat="42.93034" lon="0.58677">
        <ele>1079</ele>
        <time>2019-02-03T10:12:29.000Z</time>
      </trkpt>
      <trkpt lat="42.93034" lon="0.58677">
        <ele>1079</ele>
        <time>2019-02-03T10:12:30.000Z</time>
      </trkpt>
      <trkpt lat="42.93033" lon="0.58676">
        <ele>1079</ele>
        <time>2019-02-03T10:12:31.000Z</time>
      </trkpt>
      <trkpt lat="42.93033" lon="0.58676">
        <ele>1079</ele>
        <time>2019-02-03T10:12:32.000Z</time>
      </trkpt>
      <trkpt lat="42.93032" lon="0.58676">
        <ele>1079</ele>
        <time>2019-02-03T10:12:33.000Z</time>
      </trkpt>
      <trkpt lat="42.93031" lon="0.58676">
        <ele>1079</ele>
        <time>2019-02-03T10:12:34.000Z</time>
      </trkpt>
      <trkpt lat="42.93031" lon="0.58675">
        <ele>1079</ele>
        <time>2019-02-03T10:12:35.000Z</time>
      </trkpt>
      <trkpt lat="42.9303" lon="0.58675">
        <ele>1079</ele>
        <time>2019-02-03T10:12:36.000Z</time>
      </trkpt>
      <trkpt lat="42.9303" lon="0.58675">
        <ele>1079</ele>
        <time>2019-02-03T10:12:37.000Z</time>
      </trkpt>
      <trkpt lat="42.93029" lon="0.58675">
        <ele>1080</ele>
        <time>2019-02-03T10:12:38.000Z</time>
      </trkpt>
      <trkpt lat="42.93028" lon="0.58674">
        <ele>1080</ele>
        <time>2019-02-03T10:12:39.000Z</time>
      </trkpt>
      <trkpt lat="42.93028" lon="0.58674">
        <ele>1080</ele>
        <time>2019-02-03T10:12:40.000Z</time>
      </trkpt>
      <trkpt lat="42.93027" lon="0.58674">
        <ele>1080</ele>
        <time>2019-02-03T10:12:41.000Z</time>
      </trkpt>
      <trkpt lat="42.93027" lon="0.58674">
        <ele>1080</ele>
        <time>2019-02-03T10:12:42.000Z</time>
      </trkpt>
      <trkpt lat="42.93026" lon="0.58674">
        <ele>1080</ele>
        <time>2019-02-03T10:12:43.000Z</time>
      </trkpt>
      <trkpt lat="42.93025" lon="0.58673">
        <ele>1080</ele>
        <time>2019-02-03T10:12:44.000Z</time>
      </trkpt>
      <trkpt lat="42.93025" lon="0.58673">
        <ele>1080.3</ele>
        <time>2019-02-03T10:12:45.000Z</time>
      </trkpt>
      <trkpt lat="42.93024" lon="0.58673">
        <ele>1080.7</ele>
        <time>2019-02-03T10:12:46.000Z</time>
      </trkpt>
      <trkpt lat="42.93023" lon="0.58673">
        <ele>1081</ele>
        <time>2019-02-03T10:12:47.000Z</time>
      </trkpt>
      <trkpt lat="42.93023" lon="0.58673">
        <ele>1081</ele>
        <time>2019-02-03T10:12:48.000Z</time>
      </trkpt>
      <trkpt lat="42.93022" lon="0.58673">
        <ele>1081</ele>
        <time>2019-02-03T10:12:49.000Z</time>
      </trkpt>
      <trkpt lat="42.93022" lon="0.58673">
        <ele>1081</ele>
        <time>2019-02-03T10:12:50.000Z</time>
      </trkpt>
      <trkpt lat="42.93021" lon="0.58673">
        <ele>1081</ele>
        <time>2019-02-03T10:12:51.000Z</time>
      </trkpt>
      <trkpt lat="42.9302" lon="0.58672">
        <ele>1081</ele>
        <time>2019-02-03T10:12:52.000Z</time>
      </trkpt>
      <trkpt lat="42.9302" lon="0.58672">
        <ele>1081</ele>
        <time>2019-02-03T10:12:53.000Z</time>
      </trkpt>
      <trkpt lat="42.93019" lon="0.58672">
        <ele>1081</ele>
        <time>2019-02-03T10:12:54.000Z</time>
      </trkpt>
      <trkpt lat="42.93018" lon="0.58672">
        <ele>1081</ele>
        <time>2019-02-03T10:12:55.000Z</time>
      </trkpt>
      <trkpt lat="42.93018" lon="0.58672">
        <ele>1082</ele>
        <time>2019-02-03T10:12:56.000Z</time>
      </trkpt>
      <trkpt lat="42.93017" lon="0.58672">
        <ele>1082</ele>
        <time>2019-02-03T10:12:57.000Z</time>
      </trkpt>
      <trkpt lat="42.93017" lon="0.58672">
        <ele>1082</ele>
        <time>2019-02-03T10:12:58.000Z</time>
      </trkpt>
      <trkpt lat="42.93016" lon="0.58671">
        <ele>1082</ele>
        <time>2019-02-03T10:12:59.000Z</time>
      </trkpt>
      <trkpt lat="42.93016" lon="0.58671">
        <ele>1082</ele>
        <time>2019-02-03T10:13:00.000Z</time>
      </trkpt>
      <trkpt lat="42.93016" lon="0.58671">
        <ele>1082</ele>
        <time>2019-02-03T10:13:01.000Z</time>
      </trkpt>
      <trkpt lat="42.93016" lon="0.5867">
        <ele>1082</ele>
        <time>2019-02-03T10:13:02.000Z</time>
      </trkpt>
      <trkpt lat="42.93015" lon="0.5867">
        <ele>1082</ele>
        <time>2019-02-03T10:13:03.000Z</time>
      </trkpt>
      <trkpt lat="42.93015" lon="0.5867">
        <ele>1082</ele>
        <time>2019-02-03T10:13:04.000Z</time>
      </trkpt>
      <trkpt lat="42.93015" lon="0.58669">
        <ele>1082</ele>
        <time>2019-02-03T10:13:05.000Z</time>
      </trkpt>
      <trkpt lat="42.93015" lon="0.58669">
        <ele>1082</ele>
        <time>2019-02-03T10:13:06.000Z</time>
      </trkpt>
      <trkpt lat="42.93014" lon="0.58669">
        <ele>1082</ele>
        <time>2019-02-03T10:13:07.000Z</time>
      </trkpt>
      <trkpt lat="42.93014" lon="0.58669">
        <ele>1082.5</ele>
        <time>2019-02-03T10:13:08.000Z</time>
      </trkpt>
      <trkpt lat="42.93013" lon="0.58669">
        <ele>1083</ele>
        <time>2019-02-03T10:13:09.000Z</time>
      </trkpt>
      <trkpt lat="42.93012" lon="0.58669">
        <ele>1083</ele>
        <time>2019-02-03T10:13:10.000Z</time>
      </trkpt>
      <trkpt lat="42.93011" lon="0.58669">
        <ele>1083</ele>
        <time>2019-02-03T10:13:11.000Z</time>
      </trkpt>
      <trkpt lat="42.9301" lon="0.58669">
        <ele>1083</ele>
        <time>2019-02-03T10:13:12.000Z</time>
      </trkpt>
      <trkpt lat="42.9301" lon="0.58669">
        <ele>1083</ele>
        <time>2019-02-03T10:13:13.000Z</time>
      </trkpt>
      <trkpt lat="42.93009" lon="0.58669">
        <ele>1083</ele>
        <time>2019-02-03T10:13:14.000Z</time>
      </trkpt>
      <trkpt lat="42.93009" lon="0.58669">
        <ele>1083</ele>
        <time>2019-02-03T10:13:15.000Z</time>
      </trkpt>
      <trkpt lat="42.93009" lon="0.58669">
        <ele>1083</ele>
        <time>2019-02-03T10:13:16.000Z</time>
      </trkpt>
      <trkpt lat="42.93008" lon="0.58669">
        <ele>1083</ele>
        <time>2019-02-03T10:13:17.000Z</time>
      </trkpt>
      <trkpt lat="42.93008" lon="0.58669">
        <ele>1083</ele>
        <time>2019-02-03T10:13:18.000Z</time>
      </trkpt>
      <trkpt lat="42.93008" lon="0.58669">
        <ele>1083</ele>
        <time>2019-02-03T10:13:19.000Z</time>
      </trkpt>
      <trkpt lat="42.93008" lon="0.58669">
        <ele>1083.5</ele>
        <time>2019-02-03T10:13:20.000Z</time>
      </trkpt>
      <trkpt lat="42.93007" lon="0.58669">
        <ele>1084</ele>
        <time>2019-02-03T10:13:21.000Z</time>
      </trkpt>
      <trkpt lat="42.93006" lon="0.58668">
        <ele>1084</ele>
        <time>2019-02-03T10:13:22.000Z</time>
      </trkpt>
      <trkpt lat="42.93005" lon="0.58668">
        <ele>1084</ele>
        <time>2019-02-03T10:13:23.000Z</time>
      </trkpt>
      <trkpt lat="42.93004" lon="0.58668">
        <ele>1084</ele>
        <time>2019-02-03T10:13:24.000Z</time>
      </trkpt>
      <trkpt lat="42.93003" lon="0.58668">
        <ele>1084</ele>
        <time>2019-02-03T10:13:25.000Z</time>
      </trkpt>
      <trkpt lat="42.93002" lon="0.58668">
        <ele>1084</ele>
        <time>2019-02-03T10:13:26.000Z</time>
      </trkpt>
      <trkpt lat="42.93002" lon="0.58667">
        <ele>1084</ele>
        <time>2019-02-03T10:13:27.000Z</time>
      </trkpt>
      <trkpt lat="42.93001" lon="0.58667">
        <ele>1084</ele>
        <time>2019-02-03T10:13:28.000Z</time>
      </trkpt>
      <trkpt lat="42.93001" lon="0.58667">
        <ele>1084</ele>
        <time>2019-02-03T10:13:29.000Z</time>
      </trkpt>
      <trkpt lat="42.93" lon="0.58666">
        <ele>1084</ele>
        <time>2019-02-03T10:13:30.000Z</time>
      </trkpt>
      <trkpt lat="42.93" lon="0.58665">
        <ele>1084</ele>
        <time>2019-02-03T10:13:31.000Z</time>
      </trkpt>
      <trkpt lat="42.92999" lon="0.58665">
        <ele>1084</ele>
        <time>2019-02-03T10:13:32.000Z</time>
      </trkpt>
      <trkpt lat="42.92999" lon="0.58664">
        <ele>1084</ele>
        <time>2019-02-03T10:13:33.000Z</time>
      </trkpt>
      <trkpt lat="42.92998" lon="0.58664">
        <ele>1084.5</ele>
        <time>2019-02-03T10:13:34.000Z</time>
      </trkpt>
      <trkpt lat="42.92998" lon="0.58663">
        <ele>1085</ele>
        <time>2019-02-03T10:13:35.000Z</time>
      </trkpt>
      <trkpt lat="42.92997" lon="0.58663">
        <ele>1085</ele>
        <time>2019-02-03T10:13:36.000Z</time>
      </trkpt>
      <trkpt lat="42.92997" lon="0.58662">
        <ele>1085</ele>
        <time>2019-02-03T10:13:37.000Z</time>
      </trkpt>
      <trkpt lat="42.92996" lon="0.58662">
        <ele>1085</ele>
        <time>2019-02-03T10:13:38.000Z</time>
      </trkpt>
      <trkpt lat="42.92995" lon="0.58662">
        <ele>1085</ele>
        <time>2019-02-03T10:13:39.000Z</time>
      </trkpt>
      <trkpt lat="42.92994" lon="0.58662">
        <ele>1085</ele>
        <time>2019-02-03T10:13:40.000Z</time>
      </trkpt>
      <trkpt lat="42.92993" lon="0.58662">
        <ele>1085</ele>
        <time>2019-02-03T10:13:41.000Z</time>
      </trkpt>
      <trkpt lat="42.92992" lon="0.58662">
        <ele>1085</ele>
        <time>2019-02-03T10:13:42.000Z</time>
      </trkpt>
      <trkpt lat="42.92992" lon="0.58662">
        <ele>1085</ele>
        <time>2019-02-03T10:13:43.000Z</time>
      </trkpt>
      <trkpt lat="42.92991" lon="0.58661">
        <ele>1085</ele>
        <time>2019-02-03T10:13:44.000Z</time>
      </trkpt>
      <trkpt lat="42.9299" lon="0.58661">
        <ele>1085</ele>
        <time>2019-02-03T10:13:45.000Z</time>
      </trkpt>
      <trkpt lat="42.9299" lon="0.58661">
        <ele>1085</ele>
        <time>2019-02-03T10:13:46.000Z</time>
      </trkpt>
      <trkpt lat="42.92989" lon="0.58661">
        <ele>1085</ele>
        <time>2019-02-03T10:13:47.000Z</time>
      </trkpt>
      <trkpt lat="42.92989" lon="0.5866">
        <ele>1086</ele>
        <time>2019-02-03T10:13:48.000Z</time>
      </trkpt>
      <trkpt lat="42.92988" lon="0.5866">
        <ele>1086</ele>
        <time>2019-02-03T10:13:49.000Z</time>
      </trkpt>
      <trkpt lat="42.92988" lon="0.5866">
        <ele>1086</ele>
        <time>2019-02-03T10:13:50.000Z</time>
      </trkpt>
      <trkpt lat="42.92987" lon="0.5866">
        <ele>1086</ele>
        <time>2019-02-03T10:13:51.000Z</time>
      </trkpt>
      <trkpt lat="42.92986" lon="0.58661">
        <ele>1086</ele>
        <time>2019-02-03T10:13:52.000Z</time>
      </trkpt>
      <trkpt lat="42.92985" lon="0.58661">
        <ele>1086</ele>
        <time>2019-02-03T10:13:53.000Z</time>
      </trkpt>
      <trkpt lat="42.92984" lon="0.58661">
        <ele>1086</ele>
        <time>2019-02-03T10:13:54.000Z</time>
      </trkpt>
      <trkpt lat="42.92983" lon="0.58662">
        <ele>1086</ele>
        <time>2019-02-03T10:13:55.000Z</time>
      </trkpt>
      <trkpt lat="42.92982" lon="0.58662">
        <ele>1086</ele>
        <time>2019-02-03T10:13:56.000Z</time>
      </trkpt>
      <trkpt lat="42.92981" lon="0.58663">
        <ele>1086</ele>
        <time>2019-02-03T10:13:57.000Z</time>
      </trkpt>
      <trkpt lat="42.9298" lon="0.58663">
        <ele>1086</ele>
        <time>2019-02-03T10:13:58.000Z</time>
      </trkpt>
      <trkpt lat="42.9298" lon="0.58663">
        <ele>1086</ele>
        <time>2019-02-03T10:13:59.000Z</time>
      </trkpt>
      <trkpt lat="42.9298" lon="0.58663">
        <ele>1086</ele>
        <time>2019-02-03T10:14:00.000Z</time>
      </trkpt>
      <trkpt lat="42.92979" lon="0.58663">
        <ele>1086</ele>
        <time>2019-02-03T10:14:01.000Z</time>
      </trkpt>
      <trkpt lat="42.92979" lon="0.58663">
        <ele>1086</ele>
        <time>2019-02-03T10:14:02.000Z</time>
      </trkpt>
      <trkpt lat="42.92979" lon="0.58663">
        <ele>1086</ele>
        <time>2019-02-03T10:14:03.000Z</time>
      </trkpt>
      <trkpt lat="42.92978" lon="0.58662">
        <ele>1086.5</ele>
        <time>2019-02-03T10:14:04.000Z</time>
      </trkpt>
      <trkpt lat="42.92978" lon="0.58662">
        <ele>1087</ele>
        <time>2019-02-03T10:14:05.000Z</time>
      </trkpt>
      <trkpt lat="42.92977" lon="0.58662">
        <ele>1087</ele>
        <time>2019-02-03T10:14:06.000Z</time>
      </trkpt>
      <trkpt lat="42.92976" lon="0.58661">
        <ele>1087</ele>
        <time>2019-02-03T10:14:07.000Z</time>
      </trkpt>
      <trkpt lat="42.92976" lon="0.58661">
        <ele>1087</ele>
        <time>2019-02-03T10:14:08.000Z</time>
      </trkpt>
      <trkpt lat="42.92975" lon="0.58661">
        <ele>1087</ele>
        <time>2019-02-03T10:14:09.000Z</time>
      </trkpt>
      <trkpt lat="42.92974" lon="0.5866">
        <ele>1087</ele>
        <time>2019-02-03T10:14:10.000Z</time>
      </trkpt>
      <trkpt lat="42.92973" lon="0.5866">
        <ele>1087</ele>
        <time>2019-02-03T10:14:11.000Z</time>
      </trkpt>
      <trkpt lat="42.92972" lon="0.5866">
        <ele>1087</ele>
        <time>2019-02-03T10:14:12.000Z</time>
      </trkpt>
      <trkpt lat="42.92972" lon="0.58659">
        <ele>1087</ele>
        <time>2019-02-03T10:14:13.000Z</time>
      </trkpt>
      <trkpt lat="42.92971" lon="0.58659">
        <ele>1087</ele>
        <time>2019-02-03T10:14:14.000Z</time>
      </trkpt>
      <trkpt lat="42.9297" lon="0.58659">
        <ele>1087</ele>
        <time>2019-02-03T10:14:15.000Z</time>
      </trkpt>
      <trkpt lat="42.92969" lon="0.58659">
        <ele>1087.5</ele>
        <time>2019-02-03T10:14:16.000Z</time>
      </trkpt>
      <trkpt lat="42.92969" lon="0.58659">
        <ele>1088</ele>
        <time>2019-02-03T10:14:17.000Z</time>
      </trkpt>
      <trkpt lat="42.92968" lon="0.58658">
        <ele>1088</ele>
        <time>2019-02-03T10:14:18.000Z</time>
      </trkpt>
      <trkpt lat="42.92967" lon="0.58658">
        <ele>1088</ele>
        <time>2019-02-03T10:14:19.000Z</time>
      </trkpt>
      <trkpt lat="42.92967" lon="0.58658">
        <ele>1088</ele>
        <time>2019-02-03T10:14:20.000Z</time>
      </trkpt>
      <trkpt lat="42.92966" lon="0.58658">
        <ele>1088</ele>
        <time>2019-02-03T10:14:21.000Z</time>
      </trkpt>
      <trkpt lat="42.92966" lon="0.58658">
        <ele>1088</ele>
        <time>2019-02-03T10:14:22.000Z</time>
      </trkpt>
      <trkpt lat="42.92965" lon="0.58658">
        <ele>1088</ele>
        <time>2019-02-03T10:14:23.000Z</time>
      </trkpt>
      <trkpt lat="42.92965" lon="0.58658">
        <ele>1088</ele>
        <time>2019-02-03T10:14:24.000Z</time>
      </trkpt>
      <trkpt lat="42.92964" lon="0.58657">
        <ele>1088</ele>
        <time>2019-02-03T10:14:25.000Z</time>
      </trkpt>
      <trkpt lat="42.92964" lon="0.58657">
        <ele>1088</ele>
        <time>2019-02-03T10:14:26.000Z</time>
      </trkpt>
      <trkpt lat="42.92963" lon="0.58657">
        <ele>1088</ele>
        <time>2019-02-03T10:14:27.000Z</time>
      </trkpt>
      <trkpt lat="42.92963" lon="0.58657">
        <ele>1088</ele>
        <time>2019-02-03T10:14:28.000Z</time>
      </trkpt>
      <trkpt lat="42.92962" lon="0.58656">
        <ele>1088</ele>
        <time>2019-02-03T10:14:29.000Z</time>
      </trkpt>
      <trkpt lat="42.92962" lon="0.58656">
        <ele>1088.5</ele>
        <time>2019-02-03T10:14:30.000Z</time>
      </trkpt>
      <trkpt lat="42.92962" lon="0.58655">
        <ele>1089</ele>
        <time>2019-02-03T10:14:31.000Z</time>
      </trkpt>
      <trkpt lat="42.92961" lon="0.58655">
        <ele>1089</ele>
        <time>2019-02-03T10:14:32.000Z</time>
      </trkpt>
      <trkpt lat="42.92961" lon="0.58654">
        <ele>1089</ele>
        <time>2019-02-03T10:14:33.000Z</time>
      </trkpt>
      <trkpt lat="42.9296" lon="0.58654">
        <ele>1089</ele>
        <time>2019-02-03T10:14:34.000Z</time>
      </trkpt>
      <trkpt lat="42.9296" lon="0.58653">
        <ele>1089</ele>
        <time>2019-02-03T10:14:35.000Z</time>
      </trkpt>
      <trkpt lat="42.92959" lon="0.58653">
        <ele>1089</ele>
        <time>2019-02-03T10:14:36.000Z</time>
      </trkpt>
      <trkpt lat="42.92958" lon="0.58652">
        <ele>1089</ele>
        <time>2019-02-03T10:14:37.000Z</time>
      </trkpt>
      <trkpt lat="42.92958" lon="0.58652">
        <ele>1089</ele>
        <time>2019-02-03T10:14:38.000Z</time>
      </trkpt>
      <trkpt lat="42.92957" lon="0.58651">
        <ele>1089</ele>
        <time>2019-02-03T10:14:39.000Z</time>
      </trkpt>
      <trkpt lat="42.92957" lon="0.58651">
        <ele>1089</ele>
        <time>2019-02-03T10:14:40.000Z</time>
      </trkpt>
      <trkpt lat="42.92956" lon="0.5865">
        <ele>1089</ele>
        <time>2019-02-03T10:14:41.000Z</time>
      </trkpt>
      <trkpt lat="42.92955" lon="0.5865">
        <ele>1089</ele>
        <time>2019-02-03T10:14:42.000Z</time>
      </trkpt>
      <trkpt lat="42.92955" lon="0.5865">
        <ele>1089</ele>
        <time>2019-02-03T10:14:43.000Z</time>
      </trkpt>
      <trkpt lat="42.92954" lon="0.58649">
        <ele>1089</ele>
        <time>2019-02-03T10:14:44.000Z</time>
      </trkpt>
      <trkpt lat="42.92953" lon="0.58649">
        <ele>1089</ele>
        <time>2019-02-03T10:14:45.000Z</time>
      </trkpt>
      <trkpt lat="42.92952" lon="0.58649">
        <ele>1089.5</ele>
        <time>2019-02-03T10:14:46.000Z</time>
      </trkpt>
      <trkpt lat="42.92951" lon="0.58649">
        <ele>1090</ele>
        <time>2019-02-03T10:14:47.000Z</time>
      </trkpt>
      <trkpt lat="42.92951" lon="0.58648">
        <ele>1090</ele>
        <time>2019-02-03T10:14:48.000Z</time>
      </trkpt>
      <trkpt lat="42.9295" lon="0.58648">
        <ele>1090</ele>
        <time>2019-02-03T10:14:49.000Z</time>
      </trkpt>
      <trkpt lat="42.92949" lon="0.58648">
        <ele>1090</ele>
        <time>2019-02-03T10:14:50.000Z</time>
      </trkpt>
      <trkpt lat="42.92948" lon="0.58648">
        <ele>1090</ele>
        <time>2019-02-03T10:14:51.000Z</time>
      </trkpt>
      <trkpt lat="42.92947" lon="0.58647">
        <ele>1090</ele>
        <time>2019-02-03T10:14:52.000Z</time>
      </trkpt>
      <trkpt lat="42.92946" lon="0.58647">
        <ele>1090</ele>
        <time>2019-02-03T10:14:53.000Z</time>
      </trkpt>
      <trkpt lat="42.92945" lon="0.58646">
        <ele>1090</ele>
        <time>2019-02-03T10:14:54.000Z</time>
      </trkpt>
      <trkpt lat="42.92944" lon="0.58646">
        <ele>1090</ele>
        <time>2019-02-03T10:14:55.000Z</time>
      </trkpt>
      <trkpt lat="42.92943" lon="0.58646">
        <ele>1090.5</ele>
        <time>2019-02-03T10:14:56.000Z</time>
      </trkpt>
      <trkpt lat="42.92942" lon="0.58645">
        <ele>1091</ele>
        <time>2019-02-03T10:14:57.000Z</time>
      </trkpt>
      <trkpt lat="42.92941" lon="0.58645">
        <ele>1091</ele>
        <time>2019-02-03T10:14:58.000Z</time>
      </trkpt>
      <trkpt lat="42.9294" lon="0.58644">
        <ele>1091</ele>
        <time>2019-02-03T10:14:59.000Z</time>
      </trkpt>
      <trkpt lat="42.9294" lon="0.58644">
        <ele>1091</ele>
        <time>2019-02-03T10:15:00.000Z</time>
      </trkpt>
      <trkpt lat="42.9294" lon="0.58644">
        <ele>1091</ele>
        <time>2019-02-03T10:15:01.000Z</time>
      </trkpt>
      <trkpt lat="42.9294" lon="0.58644">
        <ele>1091</ele>
        <time>2019-02-03T10:15:02.000Z</time>
      </trkpt>
      <trkpt lat="42.92939" lon="0.58644">
        <ele>1091</ele>
        <time>2019-02-03T10:15:03.000Z</time>
      </trkpt>
      <trkpt lat="42.92939" lon="0.58644">
        <ele>1091</ele>
        <time>2019-02-03T10:15:04.000Z</time>
      </trkpt>
      <trkpt lat="42.92939" lon="0.58644">
        <ele>1091</ele>
        <time>2019-02-03T10:15:05.000Z</time>
      </trkpt>
      <trkpt lat="42.92939" lon="0.58644">
        <ele>1091</ele>
        <time>2019-02-03T10:15:06.000Z</time>
      </trkpt>
      <trkpt lat="42.92939" lon="0.58644">
        <ele>1091</ele>
        <time>2019-02-03T10:15:07.000Z</time>
      </trkpt>
      <trkpt lat="42.92938" lon="0.58643">
        <ele>1092</ele>
        <time>2019-02-03T10:15:08.000Z</time>
      </trkpt>
      <trkpt lat="42.92938" lon="0.58643">
        <ele>1092</ele>
        <time>2019-02-03T10:15:09.000Z</time>
      </trkpt>
      <trkpt lat="42.92937" lon="0.58643">
        <ele>1092</ele>
        <time>2019-02-03T10:15:10.000Z</time>
      </trkpt>
      <trkpt lat="42.92936" lon="0.58643">
        <ele>1092</ele>
        <time>2019-02-03T10:15:11.000Z</time>
      </trkpt>
      <trkpt lat="42.92936" lon="0.58643">
        <ele>1092</ele>
        <time>2019-02-03T10:15:12.000Z</time>
      </trkpt>
      <trkpt lat="42.92935" lon="0.58643">
        <ele>1092</ele>
        <time>2019-02-03T10:15:13.000Z</time>
      </trkpt>
      <trkpt lat="42.92934" lon="0.58643">
        <ele>1092</ele>
        <time>2019-02-03T10:15:14.000Z</time>
      </trkpt>
      <trkpt lat="42.92934" lon="0.58643">
        <ele>1092</ele>
        <time>2019-02-03T10:15:15.000Z</time>
      </trkpt>
      <trkpt lat="42.92933" lon="0.58643">
        <ele>1092</ele>
        <time>2019-02-03T10:15:16.000Z</time>
      </trkpt>
      <trkpt lat="42.92932" lon="0.58643">
        <ele>1092</ele>
        <time>2019-02-03T10:15:17.000Z</time>
      </trkpt>
      <trkpt lat="42.92931" lon="0.58643">
        <ele>1092.5</ele>
        <time>2019-02-03T10:15:18.000Z</time>
      </trkpt>
      <trkpt lat="42.92931" lon="0.58643">
        <ele>1093</ele>
        <time>2019-02-03T10:15:19.000Z</time>
      </trkpt>
      <trkpt lat="42.9293" lon="0.58642">
        <ele>1093</ele>
        <time>2019-02-03T10:15:20.000Z</time>
      </trkpt>
      <trkpt lat="42.9293" lon="0.58642">
        <ele>1093</ele>
        <time>2019-02-03T10:15:21.000Z</time>
      </trkpt>
      <trkpt lat="42.92929" lon="0.58642">
        <ele>1093</ele>
        <time>2019-02-03T10:15:22.000Z</time>
      </trkpt>
      <trkpt lat="42.92929" lon="0.58642">
        <ele>1093</ele>
        <time>2019-02-03T10:15:23.000Z</time>
      </trkpt>
      <trkpt lat="42.92928" lon="0.58642">
        <ele>1093</ele>
        <time>2019-02-03T10:15:24.000Z</time>
      </trkpt>
      <trkpt lat="42.92928" lon="0.58642">
        <ele>1093</ele>
        <time>2019-02-03T10:15:25.000Z</time>
      </trkpt>
      <trkpt lat="42.92927" lon="0.58642">
        <ele>1093</ele>
        <time>2019-02-03T10:15:26.000Z</time>
      </trkpt>
      <trkpt lat="42.92927" lon="0.58642">
        <ele>1093</ele>
        <time>2019-02-03T10:15:27.000Z</time>
      </trkpt>
      <trkpt lat="42.92926" lon="0.58641">
        <ele>1093</ele>
        <time>2019-02-03T10:15:28.000Z</time>
      </trkpt>
      <trkpt lat="42.92926" lon="0.58641">
        <ele>1093</ele>
        <time>2019-02-03T10:15:29.000Z</time>
      </trkpt>
      <trkpt lat="42.92925" lon="0.58641">
        <ele>1093</ele>
        <time>2019-02-03T10:15:30.000Z</time>
      </trkpt>
      <trkpt lat="42.92924" lon="0.58641">
        <ele>1093</ele>
        <time>2019-02-03T10:15:31.000Z</time>
      </trkpt>
      <trkpt lat="42.92924" lon="0.58641">
        <ele>1093.5</ele>
        <time>2019-02-03T10:15:32.000Z</time>
      </trkpt>
      <trkpt lat="42.92923" lon="0.58641">
        <ele>1094</ele>
        <time>2019-02-03T10:15:33.000Z</time>
      </trkpt>
      <trkpt lat="42.92922" lon="0.5864">
        <ele>1094</ele>
        <time>2019-02-03T10:15:34.000Z</time>
      </trkpt>
      <trkpt lat="42.92922" lon="0.5864">
        <ele>1094</ele>
        <time>2019-02-03T10:15:35.000Z</time>
      </trkpt>
      <trkpt lat="42.92921" lon="0.5864">
        <ele>1094</ele>
        <time>2019-02-03T10:15:36.000Z</time>
      </trkpt>
      <trkpt lat="42.9292" lon="0.5864">
        <ele>1094</ele>
        <time>2019-02-03T10:15:37.000Z</time>
      </trkpt>
      <trkpt lat="42.9292" lon="0.5864">
        <ele>1094</ele>
        <time>2019-02-03T10:15:38.000Z</time>
      </trkpt>
      <trkpt lat="42.92919" lon="0.5864">
        <ele>1094</ele>
        <time>2019-02-03T10:15:39.000Z</time>
      </trkpt>
      <trkpt lat="42.92919" lon="0.5864">
        <ele>1094</ele>
        <time>2019-02-03T10:15:40.000Z</time>
      </trkpt>
      <trkpt lat="42.92918" lon="0.58641">
        <ele>1094</ele>
        <time>2019-02-03T10:15:41.000Z</time>
      </trkpt>
      <trkpt lat="42.92918" lon="0.58641">
        <ele>1094</ele>
        <time>2019-02-03T10:15:42.000Z</time>
      </trkpt>
      <trkpt lat="42.92918" lon="0.58641">
        <ele>1094</ele>
        <time>2019-02-03T10:15:43.000Z</time>
      </trkpt>
      <trkpt lat="42.92917" lon="0.58641">
        <ele>1094</ele>
        <time>2019-02-03T10:15:44.000Z</time>
      </trkpt>
      <trkpt lat="42.92917" lon="0.58641">
        <ele>1094</ele>
        <time>2019-02-03T10:15:45.000Z</time>
      </trkpt>
      <trkpt lat="42.92916" lon="0.58641">
        <ele>1094</ele>
        <time>2019-02-03T10:15:46.000Z</time>
      </trkpt>
      <trkpt lat="42.92916" lon="0.58641">
        <ele>1094</ele>
        <time>2019-02-03T10:15:47.000Z</time>
      </trkpt>
      <trkpt lat="42.92916" lon="0.58641">
        <ele>1094.5</ele>
        <time>2019-02-03T10:15:48.000Z</time>
      </trkpt>
      <trkpt lat="42.92916" lon="0.58641">
        <ele>1095</ele>
        <time>2019-02-03T10:15:49.000Z</time>
      </trkpt>
      <trkpt lat="42.92915" lon="0.58641">
        <ele>1095</ele>
        <time>2019-02-03T10:15:50.000Z</time>
      </trkpt>
      <trkpt lat="42.92915" lon="0.58641">
        <ele>1095</ele>
        <time>2019-02-03T10:15:51.000Z</time>
      </trkpt>
      <trkpt lat="42.92915" lon="0.58641">
        <ele>1095</ele>
        <time>2019-02-03T10:15:52.000Z</time>
      </trkpt>
      <trkpt lat="42.92915" lon="0.58641">
        <ele>1095</ele>
        <time>2019-02-03T10:15:53.000Z</time>
      </trkpt>
      <trkpt lat="42.92915" lon="0.58641">
        <ele>1095</ele>
        <time>2019-02-03T10:15:54.000Z</time>
      </trkpt>
      <trkpt lat="42.92915" lon="0.58641">
        <ele>1095</ele>
        <time>2019-02-03T10:15:55.000Z</time>
      </trkpt>
      <trkpt lat="42.92915" lon="0.58641">
        <ele>1095</ele>
        <time>2019-02-03T10:15:56.000Z</time>
      </trkpt>
      <trkpt lat="42.92915" lon="0.58641">
        <ele>1095</ele>
        <time>2019-02-03T10:15:57.000Z</time>
      </trkpt>
      <trkpt lat="42.92915" lon="0.58642">
        <ele>1095</ele>
        <time>2019-02-03T10:15:58.000Z</time>
      </trkpt>
      <trkpt lat="42.92914" lon="0.58642">
        <ele>1095</ele>
        <time>2019-02-03T10:15:59.000Z</time>
      </trkpt>
      <trkpt lat="42.92914" lon="0.58642">
        <ele>1095.5</ele>
        <time>2019-02-03T10:16:00.000Z</time>
      </trkpt>
      <trkpt lat="42.92913" lon="0.58643">
        <ele>1096</ele>
        <time>2019-02-03T10:16:01.000Z</time>
      </trkpt>
      <trkpt lat="42.92912" lon="0.58643">
        <ele>1096</ele>
        <time>2019-02-03T10:16:02.000Z</time>
      </trkpt>
      <trkpt lat="42.92911" lon="0.58644">
        <ele>1096</ele>
        <time>2019-02-03T10:16:03.000Z</time>
      </trkpt>
      <trkpt lat="42.9291" lon="0.58645">
        <ele>1096</ele>
        <time>2019-02-03T10:16:04.000Z</time>
      </trkpt>
      <trkpt lat="42.92909" lon="0.58645">
        <ele>1096</ele>
        <time>2019-02-03T10:16:05.000Z</time>
      </trkpt>
      <trkpt lat="42.92909" lon="0.58646">
        <ele>1096</ele>
        <time>2019-02-03T10:16:06.000Z</time>
      </trkpt>
      <trkpt lat="42.92909" lon="0.58646">
        <ele>1096</ele>
        <time>2019-02-03T10:16:07.000Z</time>
      </trkpt>
      <trkpt lat="42.92909" lon="0.58646">
        <ele>1096</ele>
        <time>2019-02-03T10:16:08.000Z</time>
      </trkpt>
      <trkpt lat="42.92909" lon="0.58646">
        <ele>1096</ele>
        <time>2019-02-03T10:16:09.000Z</time>
      </trkpt>
      <trkpt lat="42.92909" lon="0.58646">
        <ele>1096</ele>
        <time>2019-02-03T10:16:10.000Z</time>
      </trkpt>
      <trkpt lat="42.92908" lon="0.58646">
        <ele>1096</ele>
        <time>2019-02-03T10:16:11.000Z</time>
      </trkpt>
      <trkpt lat="42.92908" lon="0.58647">
        <ele>1096</ele>
        <time>2019-02-03T10:16:12.000Z</time>
      </trkpt>
      <trkpt lat="42.92908" lon="0.58647">
        <ele>1096</ele>
        <time>2019-02-03T10:16:13.000Z</time>
      </trkpt>
      <trkpt lat="42.92908" lon="0.58647">
        <ele>1096.5</ele>
        <time>2019-02-03T10:16:14.000Z</time>
      </trkpt>
      <trkpt lat="42.92907" lon="0.58647">
        <ele>1097</ele>
        <time>2019-02-03T10:16:15.000Z</time>
      </trkpt>
      <trkpt lat="42.92907" lon="0.58647">
        <ele>1097</ele>
        <time>2019-02-03T10:16:16.000Z</time>
      </trkpt>
      <trkpt lat="42.92907" lon="0.58648">
        <ele>1097</ele>
        <time>2019-02-03T10:16:17.000Z</time>
      </trkpt>
      <trkpt lat="42.92906" lon="0.58648">
        <ele>1097</ele>
        <time>2019-02-03T10:16:18.000Z</time>
      </trkpt>
      <trkpt lat="42.92906" lon="0.58648">
        <ele>1097</ele>
        <time>2019-02-03T10:16:19.000Z</time>
      </trkpt>
      <trkpt lat="42.92906" lon="0.58648">
        <ele>1097</ele>
        <time>2019-02-03T10:16:20.000Z</time>
      </trkpt>
      <trkpt lat="42.92906" lon="0.58649">
        <ele>1097</ele>
        <time>2019-02-03T10:16:21.000Z</time>
      </trkpt>
      <trkpt lat="42.92905" lon="0.58649">
        <ele>1097</ele>
        <time>2019-02-03T10:16:22.000Z</time>
      </trkpt>
      <trkpt lat="42.92905" lon="0.58649">
        <ele>1097</ele>
        <time>2019-02-03T10:16:23.000Z</time>
      </trkpt>
      <trkpt lat="42.92905" lon="0.5865">
        <ele>1097</ele>
        <time>2019-02-03T10:16:24.000Z</time>
      </trkpt>
      <trkpt lat="42.92904" lon="0.5865">
        <ele>1097</ele>
        <time>2019-02-03T10:16:25.000Z</time>
      </trkpt>
      <trkpt lat="42.92904" lon="0.5865">
        <ele>1097</ele>
        <time>2019-02-03T10:16:26.000Z</time>
      </trkpt>
      <trkpt lat="42.92903" lon="0.5865">
        <ele>1097</ele>
        <time>2019-02-03T10:16:27.000Z</time>
      </trkpt>
      <trkpt lat="42.92903" lon="0.58651">
        <ele>1097.5</ele>
        <time>2019-02-03T10:16:28.000Z</time>
      </trkpt>
      <trkpt lat="42.92903" lon="0.58651">
        <ele>1098</ele>
        <time>2019-02-03T10:16:29.000Z</time>
      </trkpt>
      <trkpt lat="42.92902" lon="0.58651">
        <ele>1098</ele>
        <time>2019-02-03T10:16:30.000Z</time>
      </trkpt>
      <trkpt lat="42.92902" lon="0.58651">
        <ele>1098</ele>
        <time>2019-02-03T10:16:31.000Z</time>
      </trkpt>
      <trkpt lat="42.92901" lon="0.58652">
        <ele>1098</ele>
        <time>2019-02-03T10:16:32.000Z</time>
      </trkpt>
      <trkpt lat="42.92901" lon="0.58652">
        <ele>1098</ele>
        <time>2019-02-03T10:16:33.000Z</time>
      </trkpt>
      <trkpt lat="42.929" lon="0.58652">
        <ele>1098</ele>
        <time>2019-02-03T10:16:34.000Z</time>
      </trkpt>
      <trkpt lat="42.929" lon="0.58652">
        <ele>1098</ele>
        <time>2019-02-03T10:16:35.000Z</time>
      </trkpt>
      <trkpt lat="42.92899" lon="0.58652">
        <ele>1098.5</ele>
        <time>2019-02-03T10:16:36.000Z</time>
      </trkpt>
      <trkpt lat="42.92899" lon="0.58652">
        <ele>1099</ele>
        <time>2019-02-03T10:16:37.000Z</time>
      </trkpt>
      <trkpt lat="42.92898" lon="0.58653">
        <ele>1099</ele>
        <time>2019-02-03T10:16:38.000Z</time>
      </trkpt>
      <trkpt lat="42.92897" lon="0.58653">
        <ele>1099</ele>
        <time>2019-02-03T10:16:39.000Z</time>
      </trkpt>
      <trkpt lat="42.92897" lon="0.58653">
        <ele>1099</ele>
        <time>2019-02-03T10:16:40.000Z</time>
      </trkpt>
      <trkpt lat="42.92896" lon="0.58653">
        <ele>1099</ele>
        <time>2019-02-03T10:16:41.000Z</time>
      </trkpt>
      <trkpt lat="42.92896" lon="0.58653">
        <ele>1099</ele>
        <time>2019-02-03T10:16:42.000Z</time>
      </trkpt>
      <trkpt lat="42.92895" lon="0.58654">
        <ele>1099</ele>
        <time>2019-02-03T10:16:43.000Z</time>
      </trkpt>
      <trkpt lat="42.92895" lon="0.58654">
        <ele>1099</ele>
        <time>2019-02-03T10:16:44.000Z</time>
      </trkpt>
      <trkpt lat="42.92894" lon="0.58655">
        <ele>1099</ele>
        <time>2019-02-03T10:16:45.000Z</time>
      </trkpt>
      <trkpt lat="42.92893" lon="0.58655">
        <ele>1099.5</ele>
        <time>2019-02-03T10:16:46.000Z</time>
      </trkpt>
      <trkpt lat="42.92893" lon="0.58656">
        <ele>1100</ele>
        <time>2019-02-03T10:16:47.000Z</time>
      </trkpt>
      <trkpt lat="42.92892" lon="0.58656">
        <ele>1100</ele>
        <time>2019-02-03T10:16:48.000Z</time>
      </trkpt>
      <trkpt lat="42.92891" lon="0.58657">
        <ele>1100</ele>
        <time>2019-02-03T10:16:49.000Z</time>
      </trkpt>
      <trkpt lat="42.92891" lon="0.58657">
        <ele>1100</ele>
        <time>2019-02-03T10:16:50.000Z</time>
      </trkpt>
      <trkpt lat="42.9289" lon="0.58658">
        <ele>1100</ele>
        <time>2019-02-03T10:16:51.000Z</time>
      </trkpt>
      <trkpt lat="42.92889" lon="0.58659">
        <ele>1100</ele>
        <time>2019-02-03T10:16:52.000Z</time>
      </trkpt>
      <trkpt lat="42.92889" lon="0.58659">
        <ele>1100</ele>
        <time>2019-02-03T10:16:53.000Z</time>
      </trkpt>
      <trkpt lat="42.92888" lon="0.5866">
        <ele>1100</ele>
        <time>2019-02-03T10:16:54.000Z</time>
      </trkpt>
      <trkpt lat="42.92887" lon="0.58661">
        <ele>1100</ele>
        <time>2019-02-03T10:16:55.000Z</time>
      </trkpt>
      <trkpt lat="42.92887" lon="0.58661">
        <ele>1100</ele>
        <time>2019-02-03T10:16:56.000Z</time>
      </trkpt>
      <trkpt lat="42.92887" lon="0.58662">
        <ele>1100</ele>
        <time>2019-02-03T10:16:57.000Z</time>
      </trkpt>
      <trkpt lat="42.92886" lon="0.58663">
        <ele>1100.5</ele>
        <time>2019-02-03T10:16:58.000Z</time>
      </trkpt>
      <trkpt lat="42.92886" lon="0.58663">
        <ele>1101</ele>
        <time>2019-02-03T10:16:59.000Z</time>
      </trkpt>
      <trkpt lat="42.92885" lon="0.58664">
        <ele>1101</ele>
        <time>2019-02-03T10:17:00.000Z</time>
      </trkpt>
      <trkpt lat="42.92885" lon="0.58664">
        <ele>1101</ele>
        <time>2019-02-03T10:17:01.000Z</time>
      </trkpt>
      <trkpt lat="42.92885" lon="0.58665">
        <ele>1101</ele>
        <time>2019-02-03T10:17:02.000Z</time>
      </trkpt>
      <trkpt lat="42.92884" lon="0.58665">
        <ele>1101</ele>
        <time>2019-02-03T10:17:03.000Z</time>
      </trkpt>
      <trkpt lat="42.92884" lon="0.58665">
        <ele>1101</ele>
        <time>2019-02-03T10:17:04.000Z</time>
      </trkpt>
      <trkpt lat="42.92884" lon="0.58666">
        <ele>1101</ele>
        <time>2019-02-03T10:17:05.000Z</time>
      </trkpt>
      <trkpt lat="42.92883" lon="0.58666">
        <ele>1101</ele>
        <time>2019-02-03T10:17:06.000Z</time>
      </trkpt>
      <trkpt lat="42.92883" lon="0.58666">
        <ele>1101</ele>
        <time>2019-02-03T10:17:07.000Z</time>
      </trkpt>
      <trkpt lat="42.92883" lon="0.58666">
        <ele>1101.5</ele>
        <time>2019-02-03T10:17:08.000Z</time>
      </trkpt>
      <trkpt lat="42.92882" lon="0.58667">
        <ele>1102</ele>
        <time>2019-02-03T10:17:09.000Z</time>
      </trkpt>
      <trkpt lat="42.92882" lon="0.58667">
        <ele>1102</ele>
        <time>2019-02-03T10:17:10.000Z</time>
      </trkpt>
      <trkpt lat="42.92882" lon="0.58667">
        <ele>1102</ele>
        <time>2019-02-03T10:17:11.000Z</time>
      </trkpt>
      <trkpt lat="42.92882" lon="0.58667">
        <ele>1102</ele>
        <time>2019-02-03T10:17:12.000Z</time>
      </trkpt>
      <trkpt lat="42.92881" lon="0.58667">
        <ele>1102</ele>
        <time>2019-02-03T10:17:13.000Z</time>
      </trkpt>
      <trkpt lat="42.92881" lon="0.58667">
        <ele>1102</ele>
        <time>2019-02-03T10:17:14.000Z</time>
      </trkpt>
      <trkpt lat="42.92881" lon="0.58667">
        <ele>1102</ele>
        <time>2019-02-03T10:17:15.000Z</time>
      </trkpt>
      <trkpt lat="42.9288" lon="0.58667">
        <ele>1102</ele>
        <time>2019-02-03T10:17:16.000Z</time>
      </trkpt>
      <trkpt lat="42.9288" lon="0.58667">
        <ele>1102</ele>
        <time>2019-02-03T10:17:17.000Z</time>
      </trkpt>
      <trkpt lat="42.9288" lon="0.58667">
        <ele>1102</ele>
        <time>2019-02-03T10:17:18.000Z</time>
      </trkpt>
      <trkpt lat="42.92879" lon="0.58668">
        <ele>1102</ele>
        <time>2019-02-03T10:17:19.000Z</time>
      </trkpt>
      <trkpt lat="42.92879" lon="0.58668">
        <ele>1102.5</ele>
        <time>2019-02-03T10:17:20.000Z</time>
      </trkpt>
      <trkpt lat="42.92878" lon="0.58668">
        <ele>1103</ele>
        <time>2019-02-03T10:17:21.000Z</time>
      </trkpt>
      <trkpt lat="42.92877" lon="0.58669">
        <ele>1103</ele>
        <time>2019-02-03T10:17:22.000Z</time>
      </trkpt>
      <trkpt lat="42.92877" lon="0.58669">
        <ele>1103</ele>
        <time>2019-02-03T10:17:23.000Z</time>
      </trkpt>
      <trkpt lat="42.92876" lon="0.5867">
        <ele>1103</ele>
        <time>2019-02-03T10:17:24.000Z</time>
      </trkpt>
      <trkpt lat="42.92876" lon="0.58671">
        <ele>1103</ele>
        <time>2019-02-03T10:17:25.000Z</time>
      </trkpt>
      <trkpt lat="42.92875" lon="0.58671">
        <ele>1103</ele>
        <time>2019-02-03T10:17:26.000Z</time>
      </trkpt>
      <trkpt lat="42.92875" lon="0.58672">
        <ele>1103</ele>
        <time>2019-02-03T10:17:27.000Z</time>
      </trkpt>
      <trkpt lat="42.92874" lon="0.58673">
        <ele>1103</ele>
        <time>2019-02-03T10:17:28.000Z</time>
      </trkpt>
      <trkpt lat="42.92873" lon="0.58674">
        <ele>1103.3</ele>
        <time>2019-02-03T10:17:29.000Z</time>
      </trkpt>
      <trkpt lat="42.92873" lon="0.58675">
        <ele>1103.7</ele>
        <time>2019-02-03T10:17:30.000Z</time>
      </trkpt>
      <trkpt lat="42.92872" lon="0.58676">
        <ele>1104</ele>
        <time>2019-02-03T10:17:31.000Z</time>
      </trkpt>
      <trkpt lat="42.92872" lon="0.58677">
        <ele>1104</ele>
        <time>2019-02-03T10:17:32.000Z</time>
      </trkpt>
      <trkpt lat="42.92871" lon="0.58677">
        <ele>1104</ele>
        <time>2019-02-03T10:17:33.000Z</time>
      </trkpt>
      <trkpt lat="42.92871" lon="0.58678">
        <ele>1104</ele>
        <time>2019-02-03T10:17:34.000Z</time>
      </trkpt>
      <trkpt lat="42.9287" lon="0.58679">
        <ele>1104</ele>
        <time>2019-02-03T10:17:35.000Z</time>
      </trkpt>
      <trkpt lat="42.9287" lon="0.5868">
        <ele>1104</ele>
        <time>2019-02-03T10:17:36.000Z</time>
      </trkpt>
      <trkpt lat="42.92869" lon="0.5868">
        <ele>1104</ele>
        <time>2019-02-03T10:17:37.000Z</time>
      </trkpt>
      <trkpt lat="42.92869" lon="0.58681">
        <ele>1104</ele>
        <time>2019-02-03T10:17:38.000Z</time>
      </trkpt>
      <trkpt lat="42.92869" lon="0.58682">
        <ele>1104</ele>
        <time>2019-02-03T10:17:39.000Z</time>
      </trkpt>
      <trkpt lat="42.92868" lon="0.58683">
        <ele>1104</ele>
        <time>2019-02-03T10:17:40.000Z</time>
      </trkpt>
      <trkpt lat="42.92868" lon="0.58683">
        <ele>1104</ele>
        <time>2019-02-03T10:17:41.000Z</time>
      </trkpt>
      <trkpt lat="42.92867" lon="0.58684">
        <ele>1104.5</ele>
        <time>2019-02-03T10:17:42.000Z</time>
      </trkpt>
      <trkpt lat="42.92866" lon="0.58685">
        <ele>1105</ele>
        <time>2019-02-03T10:17:43.000Z</time>
      </trkpt>
      <trkpt lat="42.92866" lon="0.58686">
        <ele>1105</ele>
        <time>2019-02-03T10:17:44.000Z</time>
      </trkpt>
      <trkpt lat="42.92865" lon="0.58687">
        <ele>1105</ele>
        <time>2019-02-03T10:17:45.000Z</time>
      </trkpt>
      <trkpt lat="42.92865" lon="0.58688">
        <ele>1105</ele>
        <time>2019-02-03T10:17:46.000Z</time>
      </trkpt>
      <trkpt lat="42.92864" lon="0.58689">
        <ele>1105</ele>
        <time>2019-02-03T10:17:47.000Z</time>
      </trkpt>
      <trkpt lat="42.92864" lon="0.58689">
        <ele>1105</ele>
        <time>2019-02-03T10:17:48.000Z</time>
      </trkpt>
      <trkpt lat="42.92864" lon="0.5869">
        <ele>1105</ele>
        <time>2019-02-03T10:17:49.000Z</time>
      </trkpt>
      <trkpt lat="42.92864" lon="0.58691">
        <ele>1105</ele>
        <time>2019-02-03T10:17:50.000Z</time>
      </trkpt>
      <trkpt lat="42.92863" lon="0.58692">
        <ele>1105</ele>
        <time>2019-02-03T10:17:51.000Z</time>
      </trkpt>
      <trkpt lat="42.92863" lon="0.58693">
        <ele>1105</ele>
        <time>2019-02-03T10:17:52.000Z</time>
      </trkpt>
      <trkpt lat="42.92863" lon="0.58693">
        <ele>1105</ele>
        <time>2019-02-03T10:17:53.000Z</time>
      </trkpt>
      <trkpt lat="42.92863" lon="0.58694">
        <ele>1105.5</ele>
        <time>2019-02-03T10:17:54.000Z</time>
      </trkpt>
      <trkpt lat="42.92863" lon="0.58694">
        <ele>1106</ele>
        <time>2019-02-03T10:17:55.000Z</time>
      </trkpt>
      <trkpt lat="42.92863" lon="0.58695">
        <ele>1106</ele>
        <time>2019-02-03T10:17:56.000Z</time>
      </trkpt>
      <trkpt lat="42.92863" lon="0.58695">
        <ele>1106</ele>
        <time>2019-02-03T10:17:57.000Z</time>
      </trkpt>
      <trkpt lat="42.92863" lon="0.58696">
        <ele>1106</ele>
        <time>2019-02-03T10:17:58.000Z</time>
      </trkpt>
      <trkpt lat="42.92863" lon="0.58696">
        <ele>1106</ele>
        <time>2019-02-03T10:17:59.000Z</time>
      </trkpt>
      <trkpt lat="42.92863" lon="0.58696">
        <ele>1106</ele>
        <time>2019-02-03T10:18:00.000Z</time>
      </trkpt>
      <trkpt lat="42.92862" lon="0.58697">
        <ele>1106</ele>
        <time>2019-02-03T10:18:01.000Z</time>
      </trkpt>
      <trkpt lat="42.92862" lon="0.58697">
        <ele>1106</ele>
        <time>2019-02-03T10:18:02.000Z</time>
      </trkpt>
      <trkpt lat="42.92862" lon="0.58697">
        <ele>1106</ele>
        <time>2019-02-03T10:18:03.000Z</time>
      </trkpt>
      <trkpt lat="42.92861" lon="0.58697">
        <ele>1106</ele>
        <time>2019-02-03T10:18:04.000Z</time>
      </trkpt>
      <trkpt lat="42.92861" lon="0.58697">
        <ele>1106</ele>
        <time>2019-02-03T10:18:05.000Z</time>
      </trkpt>
      <trkpt lat="42.9286" lon="0.58697">
        <ele>1106</ele>
        <time>2019-02-03T10:18:06.000Z</time>
      </trkpt>
      <trkpt lat="42.9286" lon="0.58697">
        <ele>1106</ele>
        <time>2019-02-03T10:18:07.000Z</time>
      </trkpt>
      <trkpt lat="42.92859" lon="0.58697">
        <ele>1106.5</ele>
        <time>2019-02-03T10:18:08.000Z</time>
      </trkpt>
      <trkpt lat="42.92859" lon="0.58697">
        <ele>1107</ele>
        <time>2019-02-03T10:18:09.000Z</time>
      </trkpt>
      <trkpt lat="42.92858" lon="0.58698">
        <ele>1107</ele>
        <time>2019-02-03T10:18:10.000Z</time>
      </trkpt>
      <trkpt lat="42.92858" lon="0.58698">
        <ele>1107</ele>
        <time>2019-02-03T10:18:11.000Z</time>
      </trkpt>
      <trkpt lat="42.92858" lon="0.58698">
        <ele>1107</ele>
        <time>2019-02-03T10:18:12.000Z</time>
      </trkpt>
      <trkpt lat="42.92857" lon="0.58699">
        <ele>1107</ele>
        <time>2019-02-03T10:18:13.000Z</time>
      </trkpt>
      <trkpt lat="42.92857" lon="0.587">
        <ele>1107</ele>
        <time>2019-02-03T10:18:14.000Z</time>
      </trkpt>
      <trkpt lat="42.92857" lon="0.587">
        <ele>1107</ele>
        <time>2019-02-03T10:18:15.000Z</time>
      </trkpt>
      <trkpt lat="42.92856" lon="0.58701">
        <ele>1107</ele>
        <time>2019-02-03T10:18:16.000Z</time>
      </trkpt>
      <trkpt lat="42.92856" lon="0.58702">
        <ele>1107</ele>
        <time>2019-02-03T10:18:17.000Z</time>
      </trkpt>
      <trkpt lat="42.92856" lon="0.58703">
        <ele>1107</ele>
        <time>2019-02-03T10:18:18.000Z</time>
      </trkpt>
      <trkpt lat="42.92856" lon="0.58704">
        <ele>1107.3</ele>
        <time>2019-02-03T10:18:19.000Z</time>
      </trkpt>
      <trkpt lat="42.92855" lon="0.58705">
        <ele>1107.7</ele>
        <time>2019-02-03T10:18:20.000Z</time>
      </trkpt>
      <trkpt lat="42.92855" lon="0.58706">
        <ele>1108</ele>
        <time>2019-02-03T10:18:21.000Z</time>
      </trkpt>
      <trkpt lat="42.92855" lon="0.58707">
        <ele>1108</ele>
        <time>2019-02-03T10:18:22.000Z</time>
      </trkpt>
      <trkpt lat="42.92855" lon="0.58708">
        <ele>1108</ele>
        <time>2019-02-03T10:18:23.000Z</time>
      </trkpt>
      <trkpt lat="42.92854" lon="0.58708">
        <ele>1108</ele>
        <time>2019-02-03T10:18:24.000Z</time>
      </trkpt>
      <trkpt lat="42.92854" lon="0.58709">
        <ele>1108</ele>
        <time>2019-02-03T10:18:25.000Z</time>
      </trkpt>
      <trkpt lat="42.92854" lon="0.5871">
        <ele>1108</ele>
        <time>2019-02-03T10:18:26.000Z</time>
      </trkpt>
      <trkpt lat="42.92854" lon="0.58711">
        <ele>1108</ele>
        <time>2019-02-03T10:18:27.000Z</time>
      </trkpt>
      <trkpt lat="42.92854" lon="0.58712">
        <ele>1108</ele>
        <time>2019-02-03T10:18:28.000Z</time>
      </trkpt>
      <trkpt lat="42.92854" lon="0.58712">
        <ele>1108</ele>
        <time>2019-02-03T10:18:29.000Z</time>
      </trkpt>
      <trkpt lat="42.92853" lon="0.58713">
        <ele>1108</ele>
        <time>2019-02-03T10:18:30.000Z</time>
      </trkpt>
      <trkpt lat="42.92853" lon="0.58714">
        <ele>1108.3</ele>
        <time>2019-02-03T10:18:31.000Z</time>
      </trkpt>
      <trkpt lat="42.92853" lon="0.58714">
        <ele>1108.7</ele>
        <time>2019-02-03T10:18:32.000Z</time>
      </trkpt>
      <trkpt lat="42.92853" lon="0.58715">
        <ele>1109</ele>
        <time>2019-02-03T10:18:33.000Z</time>
      </trkpt>
      <trkpt lat="42.92853" lon="0.58716">
        <ele>1109</ele>
        <time>2019-02-03T10:18:34.000Z</time>
      </trkpt>
      <trkpt lat="42.92853" lon="0.58716">
        <ele>1109</ele>
        <time>2019-02-03T10:18:35.000Z</time>
      </trkpt>
      <trkpt lat="42.92852" lon="0.58717">
        <ele>1109</ele>
        <time>2019-02-03T10:18:36.000Z</time>
      </trkpt>
      <trkpt lat="42.92852" lon="0.58718">
        <ele>1109</ele>
        <time>2019-02-03T10:18:37.000Z</time>
      </trkpt>
      <trkpt lat="42.92852" lon="0.58718">
        <ele>1109</ele>
        <time>2019-02-03T10:18:38.000Z</time>
      </trkpt>
      <trkpt lat="42.92852" lon="0.58719">
        <ele>1109</ele>
        <time>2019-02-03T10:18:39.000Z</time>
      </trkpt>
      <trkpt lat="42.92851" lon="0.58719">
        <ele>1109</ele>
        <time>2019-02-03T10:18:40.000Z</time>
      </trkpt>
      <trkpt lat="42.92851" lon="0.5872">
        <ele>1109</ele>
        <time>2019-02-03T10:18:41.000Z</time>
      </trkpt>
      <trkpt lat="42.92851" lon="0.5872">
        <ele>1109</ele>
        <time>2019-02-03T10:18:42.000Z</time>
      </trkpt>
      <trkpt lat="42.9285" lon="0.5872">
        <ele>1109</ele>
        <time>2019-02-03T10:18:43.000Z</time>
      </trkpt>
      <trkpt lat="42.9285" lon="0.5872">
        <ele>1109</ele>
        <time>2019-02-03T10:18:44.000Z</time>
      </trkpt>
      <trkpt lat="42.9285" lon="0.5872">
        <ele>1109</ele>
        <time>2019-02-03T10:18:45.000Z</time>
      </trkpt>
      <trkpt lat="42.92849" lon="0.5872">
        <ele>1109</ele>
        <time>2019-02-03T10:18:46.000Z</time>
      </trkpt>
      <trkpt lat="42.92849" lon="0.5872">
        <ele>1109</ele>
        <time>2019-02-03T10:18:47.000Z</time>
      </trkpt>
      <trkpt lat="42.92848" lon="0.5872">
        <ele>1109</ele>
        <time>2019-02-03T10:18:48.000Z</time>
      </trkpt>
      <trkpt lat="42.92848" lon="0.5872">
        <ele>1109</ele>
        <time>2019-02-03T10:18:49.000Z</time>
      </trkpt>
      <trkpt lat="42.92847" lon="0.58719">
        <ele>1109</ele>
        <time>2019-02-03T10:18:50.000Z</time>
      </trkpt>
      <trkpt lat="42.92847" lon="0.58719">
        <ele>1109</ele>
        <time>2019-02-03T10:18:51.000Z</time>
      </trkpt>
      <trkpt lat="42.92846" lon="0.58719">
        <ele>1109</ele>
        <time>2019-02-03T10:18:52.000Z</time>
      </trkpt>
      <trkpt lat="42.92846" lon="0.58718">
        <ele>1109</ele>
        <time>2019-02-03T10:18:53.000Z</time>
      </trkpt>
      <trkpt lat="42.92845" lon="0.58718">
        <ele>1109.5</ele>
        <time>2019-02-03T10:18:54.000Z</time>
      </trkpt>
      <trkpt lat="42.92845" lon="0.58718">
        <ele>1110</ele>
        <time>2019-02-03T10:18:55.000Z</time>
      </trkpt>
      <trkpt lat="42.92844" lon="0.58718">
        <ele>1110</ele>
        <time>2019-02-03T10:18:56.000Z</time>
      </trkpt>
      <trkpt lat="42.92844" lon="0.58718">
        <ele>1110</ele>
        <time>2019-02-03T10:18:57.000Z</time>
      </trkpt>
      <trkpt lat="42.92843" lon="0.58718">
        <ele>1110</ele>
        <time>2019-02-03T10:18:58.000Z</time>
      </trkpt>
      <trkpt lat="42.92842" lon="0.58718">
        <ele>1110</ele>
        <time>2019-02-03T10:18:59.000Z</time>
      </trkpt>
      <trkpt lat="42.92841" lon="0.58719">
        <ele>1110</ele>
        <time>2019-02-03T10:19:00.000Z</time>
      </trkpt>
      <trkpt lat="42.92841" lon="0.58719">
        <ele>1110</ele>
        <time>2019-02-03T10:19:01.000Z</time>
      </trkpt>
      <trkpt lat="42.9284" lon="0.58719">
        <ele>1110</ele>
        <time>2019-02-03T10:19:02.000Z</time>
      </trkpt>
      <trkpt lat="42.92839" lon="0.5872">
        <ele>1110</ele>
        <time>2019-02-03T10:19:03.000Z</time>
      </trkpt>
      <trkpt lat="42.92838" lon="0.5872">
        <ele>1110</ele>
        <time>2019-02-03T10:19:04.000Z</time>
      </trkpt>
      <trkpt lat="42.92838" lon="0.58721">
        <ele>1110</ele>
        <time>2019-02-03T10:19:05.000Z</time>
      </trkpt>
      <trkpt lat="42.92837" lon="0.58721">
        <ele>1110.5</ele>
        <time>2019-02-03T10:19:06.000Z</time>
      </trkpt>
      <trkpt lat="42.92836" lon="0.58722">
        <ele>1111</ele>
        <time>2019-02-03T10:19:07.000Z</time>
      </trkpt>
      <trkpt lat="42.92835" lon="0.58722">
        <ele>1111</ele>
        <time>2019-02-03T10:19:08.000Z</time>
      </trkpt>
      <trkpt lat="42.92835" lon="0.58722">
        <ele>1111</ele>
        <time>2019-02-03T10:19:09.000Z</time>
      </trkpt>
      <trkpt lat="42.92834" lon="0.58723">
        <ele>1111</ele>
        <time>2019-02-03T10:19:10.000Z</time>
      </trkpt>
      <trkpt lat="42.92833" lon="0.58723">
        <ele>1111</ele>
        <time>2019-02-03T10:19:11.000Z</time>
      </trkpt>
      <trkpt lat="42.92833" lon="0.58724">
        <ele>1111</ele>
        <time>2019-02-03T10:19:12.000Z</time>
      </trkpt>
      <trkpt lat="42.92832" lon="0.58724">
        <ele>1111</ele>
        <time>2019-02-03T10:19:13.000Z</time>
      </trkpt>
      <trkpt lat="42.92831" lon="0.58725">
        <ele>1111</ele>
        <time>2019-02-03T10:19:14.000Z</time>
      </trkpt>
      <trkpt lat="42.92831" lon="0.58725">
        <ele>1111</ele>
        <time>2019-02-03T10:19:15.000Z</time>
      </trkpt>
      <trkpt lat="42.9283" lon="0.58725">
        <ele>1111</ele>
        <time>2019-02-03T10:19:16.000Z</time>
      </trkpt>
      <trkpt lat="42.9283" lon="0.58726">
        <ele>1111</ele>
        <time>2019-02-03T10:19:17.000Z</time>
      </trkpt>
      <trkpt lat="42.92829" lon="0.58726">
        <ele>1111</ele>
        <time>2019-02-03T10:19:18.000Z</time>
      </trkpt>
      <trkpt lat="42.92828" lon="0.58726">
        <ele>1111</ele>
        <time>2019-02-03T10:19:19.000Z</time>
      </trkpt>
      <trkpt lat="42.92828" lon="0.58727">
        <ele>1112</ele>
        <time>2019-02-03T10:19:20.000Z</time>
      </trkpt>
      <trkpt lat="42.92827" lon="0.58727">
        <ele>1112</ele>
        <time>2019-02-03T10:19:21.000Z</time>
      </trkpt>
      <trkpt lat="42.92826" lon="0.58728">
        <ele>1112</ele>
        <time>2019-02-03T10:19:22.000Z</time>
      </trkpt>
      <trkpt lat="42.92825" lon="0.58728">
        <ele>1112</ele>
        <time>2019-02-03T10:19:23.000Z</time>
      </trkpt>
      <trkpt lat="42.92825" lon="0.58729">
        <ele>1112</ele>
        <time>2019-02-03T10:19:24.000Z</time>
      </trkpt>
      <trkpt lat="42.92825" lon="0.5873">
        <ele>1112</ele>
        <time>2019-02-03T10:19:25.000Z</time>
      </trkpt>
      <trkpt lat="42.92826" lon="0.58732">
        <ele>1112</ele>
        <time>2019-02-03T10:19:26.000Z</time>
      </trkpt>
      <trkpt lat="42.92826" lon="0.58733">
        <ele>1112</ele>
        <time>2019-02-03T10:19:27.000Z</time>
      </trkpt>
      <trkpt lat="42.92826" lon="0.58733">
        <ele>1112</ele>
        <time>2019-02-03T10:19:28.000Z</time>
      </trkpt>
      <trkpt lat="42.92827" lon="0.58734">
        <ele>1112</ele>
        <time>2019-02-03T10:19:29.000Z</time>
      </trkpt>
      <trkpt lat="42.92827" lon="0.58734">
        <ele>1112</ele>
        <time>2019-02-03T10:19:30.000Z</time>
      </trkpt>
      <trkpt lat="42.92827" lon="0.58734">
        <ele>1112</ele>
        <time>2019-02-03T10:19:31.000Z</time>
      </trkpt>
      <trkpt lat="42.92827" lon="0.58733">
        <ele>1112</ele>
        <time>2019-02-03T10:19:32.000Z</time>
      </trkpt>
      <trkpt lat="42.92827" lon="0.58733">
        <ele>1112</ele>
        <time>2019-02-03T10:19:33.000Z</time>
      </trkpt>
      <trkpt lat="42.92826" lon="0.58732">
        <ele>1112</ele>
        <time>2019-02-03T10:19:34.000Z</time>
      </trkpt>
      <trkpt lat="42.92826" lon="0.58732">
        <ele>1112</ele>
        <time>2019-02-03T10:19:35.000Z</time>
      </trkpt>
      <trkpt lat="42.92825" lon="0.58732">
        <ele>1112</ele>
        <time>2019-02-03T10:19:36.000Z</time>
      </trkpt>
      <trkpt lat="42.92824" lon="0.58731">
        <ele>1113</ele>
        <time>2019-02-03T10:19:37.000Z</time>
      </trkpt>
      <trkpt lat="42.92823" lon="0.58731">
        <ele>1113</ele>
        <time>2019-02-03T10:19:38.000Z</time>
      </trkpt>
      <trkpt lat="42.92822" lon="0.58732">
        <ele>1113</ele>
        <time>2019-02-03T10:19:39.000Z</time>
      </trkpt>
      <trkpt lat="42.9282" lon="0.58732">
        <ele>1113</ele>
        <time>2019-02-03T10:19:40.000Z</time>
      </trkpt>
      <trkpt lat="42.92819" lon="0.58733">
        <ele>1113</ele>
        <time>2019-02-03T10:19:41.000Z</time>
      </trkpt>
      <trkpt lat="42.92818" lon="0.58733">
        <ele>1113</ele>
        <time>2019-02-03T10:19:42.000Z</time>
      </trkpt>
      <trkpt lat="42.92816" lon="0.58734">
        <ele>1113</ele>
        <time>2019-02-03T10:19:43.000Z</time>
      </trkpt>
      <trkpt lat="42.92815" lon="0.58734">
        <ele>1113</ele>
        <time>2019-02-03T10:19:44.000Z</time>
      </trkpt>
      <trkpt lat="42.92814" lon="0.58735">
        <ele>1113</ele>
        <time>2019-02-03T10:19:45.000Z</time>
      </trkpt>
      <trkpt lat="42.92813" lon="0.58735">
        <ele>1113</ele>
        <time>2019-02-03T10:19:46.000Z</time>
      </trkpt>
      <trkpt lat="42.92812" lon="0.58737">
        <ele>1113</ele>
        <time>2019-02-03T10:19:47.000Z</time>
      </trkpt>
      <trkpt lat="42.92811" lon="0.58738">
        <ele>1113</ele>
        <time>2019-02-03T10:19:48.000Z</time>
      </trkpt>
      <trkpt lat="42.9281" lon="0.58739">
        <ele>1113</ele>
        <time>2019-02-03T10:19:49.000Z</time>
      </trkpt>
      <trkpt lat="42.92809" lon="0.58741">
        <ele>1113</ele>
        <time>2019-02-03T10:19:50.000Z</time>
      </trkpt>
      <trkpt lat="42.92808" lon="0.58742">
        <ele>1113</ele>
        <time>2019-02-03T10:19:51.000Z</time>
      </trkpt>
      <trkpt lat="42.92807" lon="0.58742">
        <ele>1113</ele>
        <time>2019-02-03T10:19:52.000Z</time>
      </trkpt>
      <trkpt lat="42.92807" lon="0.58743">
        <ele>1113</ele>
        <time>2019-02-03T10:19:53.000Z</time>
      </trkpt>
      <trkpt lat="42.92806" lon="0.58744">
        <ele>1113</ele>
        <time>2019-02-03T10:19:54.000Z</time>
      </trkpt>
      <trkpt lat="42.92805" lon="0.58744">
        <ele>1113</ele>
        <time>2019-02-03T10:19:55.000Z</time>
      </trkpt>
      <trkpt lat="42.92804" lon="0.58744">
        <ele>1113</ele>
        <time>2019-02-03T10:19:56.000Z</time>
      </trkpt>
      <trkpt lat="42.92804" lon="0.58744">
        <ele>1113</ele>
        <time>2019-02-03T10:19:57.000Z</time>
      </trkpt>
      <trkpt lat="42.92803" lon="0.58744">
        <ele>1114</ele>
        <time>2019-02-03T10:19:58.000Z</time>
      </trkpt>
      <trkpt lat="42.92803" lon="0.58744">
        <ele>1114</ele>
        <time>2019-02-03T10:19:59.000Z</time>
      </trkpt>
      <trkpt lat="42.92803" lon="0.58744">
        <ele>1114</ele>
        <time>2019-02-03T10:20:00.000Z</time>
      </trkpt>
      <trkpt lat="42.92803" lon="0.58744">
        <ele>1114</ele>
        <time>2019-02-03T10:20:01.000Z</time>
      </trkpt>
      <trkpt lat="42.92802" lon="0.58744">
        <ele>1114</ele>
        <time>2019-02-03T10:20:02.000Z</time>
      </trkpt>
      <trkpt lat="42.92801" lon="0.58744">
        <ele>1114</ele>
        <time>2019-02-03T10:20:03.000Z</time>
      </trkpt>
      <trkpt lat="42.92801" lon="0.58745">
        <ele>1114</ele>
        <time>2019-02-03T10:20:04.000Z</time>
      </trkpt>
      <trkpt lat="42.928" lon="0.58745">
        <ele>1114</ele>
        <time>2019-02-03T10:20:05.000Z</time>
      </trkpt>
      <trkpt lat="42.928" lon="0.58745">
        <ele>1114</ele>
        <time>2019-02-03T10:20:06.000Z</time>
      </trkpt>
      <trkpt lat="42.92799" lon="0.58745">
        <ele>1114</ele>
        <time>2019-02-03T10:20:07.000Z</time>
      </trkpt>
      <trkpt lat="42.92799" lon="0.58746">
        <ele>1114</ele>
        <time>2019-02-03T10:20:08.000Z</time>
      </trkpt>
      <trkpt lat="42.92798" lon="0.58746">
        <ele>1114</ele>
        <time>2019-02-03T10:20:09.000Z</time>
      </trkpt>
      <trkpt lat="42.92798" lon="0.58746">
        <ele>1114.5</ele>
        <time>2019-02-03T10:20:10.000Z</time>
      </trkpt>
      <trkpt lat="42.92798" lon="0.58746">
        <ele>1115</ele>
        <time>2019-02-03T10:20:11.000Z</time>
      </trkpt>
      <trkpt lat="42.92798" lon="0.58746">
        <ele>1115</ele>
        <time>2019-02-03T10:20:12.000Z</time>
      </trkpt>
      <trkpt lat="42.92797" lon="0.58746">
        <ele>1115</ele>
        <time>2019-02-03T10:20:13.000Z</time>
      </trkpt>
      <trkpt lat="42.92797" lon="0.58746">
        <ele>1115</ele>
        <time>2019-02-03T10:20:14.000Z</time>
      </trkpt>
      <trkpt lat="42.92797" lon="0.58746">
        <ele>1115</ele>
        <time>2019-02-03T10:20:15.000Z</time>
      </trkpt>
      <trkpt lat="42.92796" lon="0.58747">
        <ele>1115</ele>
        <time>2019-02-03T10:20:16.000Z</time>
      </trkpt>
      <trkpt lat="42.92795" lon="0.58747">
        <ele>1115</ele>
        <time>2019-02-03T10:20:17.000Z</time>
      </trkpt>
      <trkpt lat="42.92794" lon="0.58748">
        <ele>1115</ele>
        <time>2019-02-03T10:20:18.000Z</time>
      </trkpt>
      <trkpt lat="42.92793" lon="0.58748">
        <ele>1115</ele>
        <time>2019-02-03T10:20:19.000Z</time>
      </trkpt>
      <trkpt lat="42.92792" lon="0.58749">
        <ele>1115</ele>
        <time>2019-02-03T10:20:20.000Z</time>
      </trkpt>
      <trkpt lat="42.92791" lon="0.5875">
        <ele>1115</ele>
        <time>2019-02-03T10:20:21.000Z</time>
      </trkpt>
      <trkpt lat="42.9279" lon="0.58751">
        <ele>1115</ele>
        <time>2019-02-03T10:20:22.000Z</time>
      </trkpt>
      <trkpt lat="42.92789" lon="0.58751">
        <ele>1115.5</ele>
        <time>2019-02-03T10:20:23.000Z</time>
      </trkpt>
      <trkpt lat="42.92789" lon="0.58752">
        <ele>1116</ele>
        <time>2019-02-03T10:20:24.000Z</time>
      </trkpt>
      <trkpt lat="42.92788" lon="0.58752">
        <ele>1116</ele>
        <time>2019-02-03T10:20:25.000Z</time>
      </trkpt>
      <trkpt lat="42.92788" lon="0.58752">
        <ele>1116</ele>
        <time>2019-02-03T10:20:26.000Z</time>
      </trkpt>
      <trkpt lat="42.92788" lon="0.58752">
        <ele>1116</ele>
        <time>2019-02-03T10:20:27.000Z</time>
      </trkpt>
      <trkpt lat="42.92789" lon="0.58752">
        <ele>1116</ele>
        <time>2019-02-03T10:20:28.000Z</time>
      </trkpt>
      <trkpt lat="42.92789" lon="0.58751">
        <ele>1116</ele>
        <time>2019-02-03T10:20:29.000Z</time>
      </trkpt>
      <trkpt lat="42.9279" lon="0.58751">
        <ele>1116</ele>
        <time>2019-02-03T10:20:30.000Z</time>
      </trkpt>
      <trkpt lat="42.92791" lon="0.58751">
        <ele>1116</ele>
        <time>2019-02-03T10:20:31.000Z</time>
      </trkpt>
      <trkpt lat="42.92792" lon="0.5875">
        <ele>1116</ele>
        <time>2019-02-03T10:20:32.000Z</time>
      </trkpt>
      <trkpt lat="42.92793" lon="0.5875">
        <ele>1116</ele>
        <time>2019-02-03T10:20:33.000Z</time>
      </trkpt>
      <trkpt lat="42.92793" lon="0.58749">
        <ele>1116</ele>
        <time>2019-02-03T10:20:34.000Z</time>
      </trkpt>
      <trkpt lat="42.92793" lon="0.58749">
        <ele>1116.5</ele>
        <time>2019-02-03T10:20:35.000Z</time>
      </trkpt>
      <trkpt lat="42.92793" lon="0.58749">
        <ele>1117</ele>
        <time>2019-02-03T10:20:36.000Z</time>
      </trkpt>
      <trkpt lat="42.92792" lon="0.58749">
        <ele>1117</ele>
        <time>2019-02-03T10:20:37.000Z</time>
      </trkpt>
      <trkpt lat="42.92792" lon="0.58749">
        <ele>1117</ele>
        <time>2019-02-03T10:20:38.000Z</time>
      </trkpt>
      <trkpt lat="42.92791" lon="0.58749">
        <ele>1117</ele>
        <time>2019-02-03T10:20:39.000Z</time>
      </trkpt>
      <trkpt lat="42.9279" lon="0.58749">
        <ele>1117</ele>
        <time>2019-02-03T10:20:40.000Z</time>
      </trkpt>
      <trkpt lat="42.92789" lon="0.5875">
        <ele>1117</ele>
        <time>2019-02-03T10:20:41.000Z</time>
      </trkpt>
      <trkpt lat="42.92788" lon="0.5875">
        <ele>1117</ele>
        <time>2019-02-03T10:20:42.000Z</time>
      </trkpt>
      <trkpt lat="42.92788" lon="0.58751">
        <ele>1117</ele>
        <time>2019-02-03T10:20:43.000Z</time>
      </trkpt>
      <trkpt lat="42.92788" lon="0.58751">
        <ele>1117</ele>
        <time>2019-02-03T10:20:44.000Z</time>
      </trkpt>
      <trkpt lat="42.92787" lon="0.58752">
        <ele>1117</ele>
        <time>2019-02-03T10:20:45.000Z</time>
      </trkpt>
      <trkpt lat="42.92787" lon="0.58753">
        <ele>1117</ele>
        <time>2019-02-03T10:20:46.000Z</time>
      </trkpt>
      <trkpt lat="42.92786" lon="0.58753">
        <ele>1117</ele>
        <time>2019-02-03T10:20:47.000Z</time>
      </trkpt>
      <trkpt lat="42.92785" lon="0.58754">
        <ele>1118</ele>
        <time>2019-02-03T10:20:48.000Z</time>
      </trkpt>
      <trkpt lat="42.92784" lon="0.58754">
        <ele>1118</ele>
        <time>2019-02-03T10:20:49.000Z</time>
      </trkpt>
      <trkpt lat="42.92783" lon="0.58754">
        <ele>1118</ele>
        <time>2019-02-03T10:20:50.000Z</time>
      </trkpt>
      <trkpt lat="42.92782" lon="0.58754">
        <ele>1118</ele>
        <time>2019-02-03T10:20:51.000Z</time>
      </trkpt>
      <trkpt lat="42.9278" lon="0.58754">
        <ele>1118</ele>
        <time>2019-02-03T10:20:52.000Z</time>
      </trkpt>
      <trkpt lat="42.92779" lon="0.58754">
        <ele>1118</ele>
        <time>2019-02-03T10:20:53.000Z</time>
      </trkpt>
      <trkpt lat="42.92778" lon="0.58754">
        <ele>1118</ele>
        <time>2019-02-03T10:20:54.000Z</time>
      </trkpt>
      <trkpt lat="42.92778" lon="0.58754">
        <ele>1118</ele>
        <time>2019-02-03T10:20:55.000Z</time>
      </trkpt>
      <trkpt lat="42.92777" lon="0.58754">
        <ele>1118</ele>
        <time>2019-02-03T10:20:56.000Z</time>
      </trkpt>
      <trkpt lat="42.92777" lon="0.58754">
        <ele>1118</ele>
        <time>2019-02-03T10:20:57.000Z</time>
      </trkpt>
      <trkpt lat="42.92776" lon="0.58754">
        <ele>1118</ele>
        <time>2019-02-03T10:20:58.000Z</time>
      </trkpt>
      <trkpt lat="42.92776" lon="0.58754">
        <ele>1118</ele>
        <time>2019-02-03T10:20:59.000Z</time>
      </trkpt>
      <trkpt lat="42.92776" lon="0.58754">
        <ele>1118</ele>
        <time>2019-02-03T10:21:00.000Z</time>
      </trkpt>
      <trkpt lat="42.92776" lon="0.58754">
        <ele>1118.5</ele>
        <time>2019-02-03T10:21:01.000Z</time>
      </trkpt>
      <trkpt lat="42.92776" lon="0.58754">
        <ele>1119</ele>
        <time>2019-02-03T10:21:02.000Z</time>
      </trkpt>
      <trkpt lat="42.92776" lon="0.58754">
        <ele>1119</ele>
        <time>2019-02-03T10:21:03.000Z</time>
      </trkpt>
      <trkpt lat="42.92776" lon="0.58754">
        <ele>1119</ele>
        <time>2019-02-03T10:21:04.000Z</time>
      </trkpt>
      <trkpt lat="42.92776" lon="0.58754">
        <ele>1119</ele>
        <time>2019-02-03T10:21:05.000Z</time>
      </trkpt>
      <trkpt lat="42.92776" lon="0.58754">
        <ele>1119</ele>
        <time>2019-02-03T10:21:06.000Z</time>
      </trkpt>
      <trkpt lat="42.92775" lon="0.58754">
        <ele>1119</ele>
        <time>2019-02-03T10:21:07.000Z</time>
      </trkpt>
      <trkpt lat="42.92773" lon="0.58754">
        <ele>1119</ele>
        <time>2019-02-03T10:21:08.000Z</time>
      </trkpt>
      <trkpt lat="42.92767" lon="0.58754">
        <ele>1119</ele>
        <time>2019-02-03T10:21:09.000Z</time>
      </trkpt>
      <trkpt lat="42.92764" lon="0.58753">
        <ele>1119</ele>
        <time>2019-02-03T10:21:12.000Z</time>
      </trkpt>
      <trkpt lat="42.92762" lon="0.58753">
        <ele>1119</ele>
        <time>2019-02-03T10:21:13.000Z</time>
      </trkpt>
      <trkpt lat="42.92761" lon="0.58754">
        <ele>1119</ele>
        <time>2019-02-03T10:21:14.000Z</time>
      </trkpt>
      <trkpt lat="42.9276" lon="0.58754">
        <ele>1119</ele>
        <time>2019-02-03T10:21:15.000Z</time>
      </trkpt>
      <trkpt lat="42.92759" lon="0.58754">
        <ele>1119</ele>
        <time>2019-02-03T10:21:16.000Z</time>
      </trkpt>
      <trkpt lat="42.92758" lon="0.58754">
        <ele>1119.5</ele>
        <time>2019-02-03T10:21:17.000Z</time>
      </trkpt>
      <trkpt lat="42.92757" lon="0.58754">
        <ele>1120</ele>
        <time>2019-02-03T10:21:18.000Z</time>
      </trkpt>
      <trkpt lat="42.92756" lon="0.58754">
        <ele>1120</ele>
        <time>2019-02-03T10:21:19.000Z</time>
      </trkpt>
      <trkpt lat="42.92755" lon="0.58754">
        <ele>1120</ele>
        <time>2019-02-03T10:21:20.000Z</time>
      </trkpt>
      <trkpt lat="42.92754" lon="0.58754">
        <ele>1120</ele>
        <time>2019-02-03T10:21:21.000Z</time>
      </trkpt>
      <trkpt lat="42.92752" lon="0.58755">
        <ele>1120</ele>
        <time>2019-02-03T10:21:22.000Z</time>
      </trkpt>
      <trkpt lat="42.92751" lon="0.58755">
        <ele>1120</ele>
        <time>2019-02-03T10:21:23.000Z</time>
      </trkpt>
      <trkpt lat="42.9275" lon="0.58755">
        <ele>1120</ele>
        <time>2019-02-03T10:21:24.000Z</time>
      </trkpt>
      <trkpt lat="42.9275" lon="0.58756">
        <ele>1120</ele>
        <time>2019-02-03T10:21:25.000Z</time>
      </trkpt>
      <trkpt lat="42.9275" lon="0.58757">
        <ele>1120</ele>
        <time>2019-02-03T10:21:26.000Z</time>
      </trkpt>
      <trkpt lat="42.92751" lon="0.58758">
        <ele>1120.5</ele>
        <time>2019-02-03T10:21:27.000Z</time>
      </trkpt>
      <trkpt lat="42.92752" lon="0.58758">
        <ele>1121</ele>
        <time>2019-02-03T10:21:28.000Z</time>
      </trkpt>
      <trkpt lat="42.92752" lon="0.58758">
        <ele>1121</ele>
        <time>2019-02-03T10:21:29.000Z</time>
      </trkpt>
      <trkpt lat="42.92752" lon="0.58758">
        <ele>1121</ele>
        <time>2019-02-03T10:21:30.000Z</time>
      </trkpt>
      <trkpt lat="42.92753" lon="0.58758">
        <ele>1121</ele>
        <time>2019-02-03T10:21:31.000Z</time>
      </trkpt>
      <trkpt lat="42.92753" lon="0.58758">
        <ele>1121</ele>
        <time>2019-02-03T10:21:32.000Z</time>
      </trkpt>
      <trkpt lat="42.92753" lon="0.58758">
        <ele>1121</ele>
        <time>2019-02-03T10:21:33.000Z</time>
      </trkpt>
      <trkpt lat="42.92753" lon="0.58758">
        <ele>1121</ele>
        <time>2019-02-03T10:21:34.000Z</time>
      </trkpt>
      <trkpt lat="42.92753" lon="0.58758">
        <ele>1121</ele>
        <time>2019-02-03T10:21:35.000Z</time>
      </trkpt>
      <trkpt lat="42.92752" lon="0.58757">
        <ele>1121</ele>
        <time>2019-02-03T10:21:36.000Z</time>
      </trkpt>
      <trkpt lat="42.92752" lon="0.58757">
        <ele>1121</ele>
        <time>2019-02-03T10:21:37.000Z</time>
      </trkpt>
      <trkpt lat="42.92752" lon="0.58757">
        <ele>1121</ele>
        <time>2019-02-03T10:21:38.000Z</time>
      </trkpt>
      <trkpt lat="42.92752" lon="0.58757">
        <ele>1121</ele>
        <time>2019-02-03T10:21:39.000Z</time>
      </trkpt>
      <trkpt lat="42.92751" lon="0.58757">
        <ele>1121</ele>
        <time>2019-02-03T10:21:40.000Z</time>
      </trkpt>
      <trkpt lat="42.92751" lon="0.58756">
        <ele>1121</ele>
        <time>2019-02-03T10:21:41.000Z</time>
      </trkpt>
      <trkpt lat="42.92751" lon="0.58756">
        <ele>1121</ele>
        <time>2019-02-03T10:21:42.000Z</time>
      </trkpt>
      <trkpt lat="42.9275" lon="0.58756">
        <ele>1121</ele>
        <time>2019-02-03T10:21:43.000Z</time>
      </trkpt>
      <trkpt lat="42.9275" lon="0.58755">
        <ele>1121</ele>
        <time>2019-02-03T10:21:44.000Z</time>
      </trkpt>
      <trkpt lat="42.9275" lon="0.58755">
        <ele>1121.5</ele>
        <time>2019-02-03T10:21:45.000Z</time>
      </trkpt>
      <trkpt lat="42.92749" lon="0.58754">
        <ele>1122</ele>
        <time>2019-02-03T10:21:46.000Z</time>
      </trkpt>
      <trkpt lat="42.92749" lon="0.58753">
        <ele>1122</ele>
        <time>2019-02-03T10:21:47.000Z</time>
      </trkpt>
      <trkpt lat="42.92749" lon="0.58753">
        <ele>1122</ele>
        <time>2019-02-03T10:21:48.000Z</time>
      </trkpt>
      <trkpt lat="42.92749" lon="0.58752">
        <ele>1122</ele>
        <time>2019-02-03T10:21:49.000Z</time>
      </trkpt>
      <trkpt lat="42.92749" lon="0.58751">
        <ele>1122</ele>
        <time>2019-02-03T10:21:50.000Z</time>
      </trkpt>
      <trkpt lat="42.92748" lon="0.5875">
        <ele>1122</ele>
        <time>2019-02-03T10:21:51.000Z</time>
      </trkpt>
      <trkpt lat="42.92748" lon="0.5875">
        <ele>1122</ele>
        <time>2019-02-03T10:21:52.000Z</time>
      </trkpt>
      <trkpt lat="42.92748" lon="0.58749">
        <ele>1122</ele>
        <time>2019-02-03T10:21:53.000Z</time>
      </trkpt>
      <trkpt lat="42.92748" lon="0.58749">
        <ele>1122</ele>
        <time>2019-02-03T10:21:54.000Z</time>
      </trkpt>
      <trkpt lat="42.92748" lon="0.58748">
        <ele>1122.5</ele>
        <time>2019-02-03T10:21:55.000Z</time>
      </trkpt>
      <trkpt lat="42.92748" lon="0.58748">
        <ele>1123</ele>
        <time>2019-02-03T10:21:56.000Z</time>
      </trkpt>
      <trkpt lat="42.92747" lon="0.58748">
        <ele>1123</ele>
        <time>2019-02-03T10:21:57.000Z</time>
      </trkpt>
      <trkpt lat="42.92747" lon="0.58748">
        <ele>1123</ele>
        <time>2019-02-03T10:21:58.000Z</time>
      </trkpt>
      <trkpt lat="42.92746" lon="0.58748">
        <ele>1123</ele>
        <time>2019-02-03T10:21:59.000Z</time>
      </trkpt>
      <trkpt lat="42.92746" lon="0.58748">
        <ele>1123</ele>
        <time>2019-02-03T10:22:00.000Z</time>
      </trkpt>
      <trkpt lat="42.92745" lon="0.58748">
        <ele>1123</ele>
        <time>2019-02-03T10:22:01.000Z</time>
      </trkpt>
      <trkpt lat="42.92744" lon="0.58748">
        <ele>1123</ele>
        <time>2019-02-03T10:22:02.000Z</time>
      </trkpt>
      <trkpt lat="42.92743" lon="0.58748">
        <ele>1123</ele>
        <time>2019-02-03T10:22:03.000Z</time>
      </trkpt>
      <trkpt lat="42.92741" lon="0.58748">
        <ele>1123</ele>
        <time>2019-02-03T10:22:04.000Z</time>
      </trkpt>
      <trkpt lat="42.92738" lon="0.58748">
        <ele>1123</ele>
        <time>2019-02-03T10:22:05.000Z</time>
      </trkpt>
      <trkpt lat="42.92736" lon="0.58749">
        <ele>1123</ele>
        <time>2019-02-03T10:22:06.000Z</time>
      </trkpt>
      <trkpt lat="42.92734" lon="0.58749">
        <ele>1123</ele>
        <time>2019-02-03T10:22:07.000Z</time>
      </trkpt>
      <trkpt lat="42.92732" lon="0.58749">
        <ele>1123</ele>
        <time>2019-02-03T10:22:08.000Z</time>
      </trkpt>
      <trkpt lat="42.92731" lon="0.58749">
        <ele>1123</ele>
        <time>2019-02-03T10:22:09.000Z</time>
      </trkpt>
      <trkpt lat="42.92729" lon="0.58749">
        <ele>1123</ele>
        <time>2019-02-03T10:22:10.000Z</time>
      </trkpt>
      <trkpt lat="42.92729" lon="0.58749">
        <ele>1123</ele>
        <time>2019-02-03T10:22:11.000Z</time>
      </trkpt>
      <trkpt lat="42.92728" lon="0.58749">
        <ele>1123</ele>
        <time>2019-02-03T10:22:12.000Z</time>
      </trkpt>
      <trkpt lat="42.92728" lon="0.58749">
        <ele>1123</ele>
        <time>2019-02-03T10:22:13.000Z</time>
      </trkpt>
      <trkpt lat="42.92728" lon="0.58749">
        <ele>1123</ele>
        <time>2019-02-03T10:22:14.000Z</time>
      </trkpt>
      <trkpt lat="42.92727" lon="0.58749">
        <ele>1123</ele>
        <time>2019-02-03T10:22:15.000Z</time>
      </trkpt>
      <trkpt lat="42.92727" lon="0.58749">
        <ele>1123</ele>
        <time>2019-02-03T10:22:16.000Z</time>
      </trkpt>
      <trkpt lat="42.92727" lon="0.58749">
        <ele>1123</ele>
        <time>2019-02-03T10:22:17.000Z</time>
      </trkpt>
      <trkpt lat="42.92726" lon="0.5875">
        <ele>1123</ele>
        <time>2019-02-03T10:22:18.000Z</time>
      </trkpt>
      <trkpt lat="42.92726" lon="0.5875">
        <ele>1123</ele>
        <time>2019-02-03T10:22:19.000Z</time>
      </trkpt>
      <trkpt lat="42.92726" lon="0.5875">
        <ele>1123</ele>
        <time>2019-02-03T10:22:20.000Z</time>
      </trkpt>
      <trkpt lat="42.92726" lon="0.5875">
        <ele>1123</ele>
        <time>2019-02-03T10:22:21.000Z</time>
      </trkpt>
      <trkpt lat="42.92726" lon="0.5875">
        <ele>1123</ele>
        <time>2019-02-03T10:22:22.000Z</time>
      </trkpt>
      <trkpt lat="42.92726" lon="0.5875">
        <ele>1123</ele>
        <time>2019-02-03T10:22:23.000Z</time>
      </trkpt>
      <trkpt lat="42.92726" lon="0.5875">
        <ele>1123</ele>
        <time>2019-02-03T10:22:24.000Z</time>
      </trkpt>
      <trkpt lat="42.92726" lon="0.5875">
        <ele>1123</ele>
        <time>2019-02-03T10:22:25.000Z</time>
      </trkpt>
      <trkpt lat="42.92726" lon="0.5875">
        <ele>1123</ele>
        <time>2019-02-03T10:22:26.000Z</time>
      </trkpt>
      <trkpt lat="42.92726" lon="0.5875">
        <ele>1123</ele>
        <time>2019-02-03T10:22:27.000Z</time>
      </trkpt>
      <trkpt lat="42.92726" lon="0.5875">
        <ele>1123</ele>
        <time>2019-02-03T10:22:28.000Z</time>
      </trkpt>
      <trkpt lat="42.92726" lon="0.5875">
        <ele>1123</ele>
        <time>2019-02-03T10:22:29.000Z</time>
      </trkpt>
      <trkpt lat="42.92727" lon="0.5875">
        <ele>1123</ele>
        <time>2019-02-03T10:22:30.000Z</time>
      </trkpt>
      <trkpt lat="42.92727" lon="0.5875">
        <ele>1123</ele>
        <time>2019-02-03T10:22:31.000Z</time>
      </trkpt>
      <trkpt lat="42.92727" lon="0.5875">
        <ele>1123</ele>
        <time>2019-02-03T10:22:32.000Z</time>
      </trkpt>
      <trkpt lat="42.92727" lon="0.58749">
        <ele>1123</ele>
        <time>2019-02-03T10:22:33.000Z</time>
      </trkpt>
      <trkpt lat="42.92728" lon="0.58749">
        <ele>1123</ele>
        <time>2019-02-03T10:22:34.000Z</time>
      </trkpt>
      <trkpt lat="42.92728" lon="0.58749">
        <ele>1123</ele>
        <time>2019-02-03T10:22:35.000Z</time>
      </trkpt>
      <trkpt lat="42.92728" lon="0.58748">
        <ele>1123</ele>
        <time>2019-02-03T10:22:36.000Z</time>
      </trkpt>
      <trkpt lat="42.92728" lon="0.58748">
        <ele>1122</ele>
        <time>2019-02-03T10:22:37.000Z</time>
      </trkpt>
      <trkpt lat="42.92727" lon="0.58748">
        <ele>1122</ele>
        <time>2019-02-03T10:22:38.000Z</time>
      </trkpt>
      <trkpt lat="42.92727" lon="0.58748">
        <ele>1122</ele>
        <time>2019-02-03T10:22:39.000Z</time>
      </trkpt>
      <trkpt lat="42.92727" lon="0.58748">
        <ele>1122</ele>
        <time>2019-02-03T10:22:40.000Z</time>
      </trkpt>
      <trkpt lat="42.92726" lon="0.58748">
        <ele>1122</ele>
        <time>2019-02-03T10:22:41.000Z</time>
      </trkpt>
      <trkpt lat="42.92726" lon="0.58748">
        <ele>1122</ele>
        <time>2019-02-03T10:22:42.000Z</time>
      </trkpt>
      <trkpt lat="42.92726" lon="0.58748">
        <ele>1122</ele>
        <time>2019-02-03T10:22:43.000Z</time>
      </trkpt>
      <trkpt lat="42.92726" lon="0.58747">
        <ele>1122</ele>
        <time>2019-02-03T10:22:44.000Z</time>
      </trkpt>
      <trkpt lat="42.92726" lon="0.58747">
        <ele>1122</ele>
        <time>2019-02-03T10:22:45.000Z</time>
      </trkpt>
      <trkpt lat="42.92726" lon="0.58747">
        <ele>1122</ele>
        <time>2019-02-03T10:22:46.000Z</time>
      </trkpt>
      <trkpt lat="42.92726" lon="0.58747">
        <ele>1122</ele>
        <time>2019-02-03T10:22:47.000Z</time>
      </trkpt>
      <trkpt lat="42.92726" lon="0.58747">
        <ele>1122</ele>
        <time>2019-02-03T10:22:48.000Z</time>
      </trkpt>
      <trkpt lat="42.92726" lon="0.58747">
        <ele>1122</ele>
        <time>2019-02-03T10:22:49.000Z</time>
      </trkpt>
      <trkpt lat="42.92726" lon="0.58747">
        <ele>1122</ele>
        <time>2019-02-03T10:22:50.000Z</time>
      </trkpt>
      <trkpt lat="42.92726" lon="0.58747">
        <ele>1122</ele>
        <time>2019-02-03T10:22:51.000Z</time>
      </trkpt>
      <trkpt lat="42.92726" lon="0.58747">
        <ele>1122</ele>
        <time>2019-02-03T10:22:52.000Z</time>
      </trkpt>
      <trkpt lat="42.92726" lon="0.58747">
        <ele>1122</ele>
        <time>2019-02-03T10:22:53.000Z</time>
      </trkpt>
      <trkpt lat="42.92726" lon="0.58747">
        <ele>1122</ele>
        <time>2019-02-03T10:22:54.000Z</time>
      </trkpt>
      <trkpt lat="42.92726" lon="0.58747">
        <ele>1122</ele>
        <time>2019-02-03T10:22:55.000Z</time>
      </trkpt>
      <trkpt lat="42.92726" lon="0.58747">
        <ele>1122</ele>
        <time>2019-02-03T10:22:56.000Z</time>
      </trkpt>
      <trkpt lat="42.92726" lon="0.58747">
        <ele>1122</ele>
        <time>2019-02-03T10:22:57.000Z</time>
      </trkpt>
      <trkpt lat="42.92726" lon="0.58747">
        <ele>1122</ele>
        <time>2019-02-03T10:22:58.000Z</time>
      </trkpt>
      <trkpt lat="42.92726" lon="0.58747">
        <ele>1122</ele>
        <time>2019-02-03T10:22:59.000Z</time>
      </trkpt>
      <trkpt lat="42.92726" lon="0.58747">
        <ele>1122</ele>
        <time>2019-02-03T10:23:00.000Z</time>
      </trkpt>
      <trkpt lat="42.92726" lon="0.58747">
        <ele>1122</ele>
        <time>2019-02-03T10:23:01.000Z</time>
      </trkpt>
      <trkpt lat="42.92726" lon="0.58747">
        <ele>1122</ele>
        <time>2019-02-03T10:23:02.000Z</time>
      </trkpt>
      <trkpt lat="42.92726" lon="0.58747">
        <ele>1122</ele>
        <time>2019-02-03T10:23:03.000Z</time>
      </trkpt>
      <trkpt lat="42.92726" lon="0.58747">
        <ele>1122</ele>
        <time>2019-02-03T10:23:04.000Z</time>
      </trkpt>
      <trkpt lat="42.92726" lon="0.58747">
        <ele>1122</ele>
        <time>2019-02-03T10:23:05.000Z</time>
      </trkpt>
      <trkpt lat="42.92726" lon="0.58747">
        <ele>1121.5</ele>
        <time>2019-02-03T10:23:06.000Z</time>
      </trkpt>
      <trkpt lat="42.92726" lon="0.58747">
        <ele>1121</ele>
        <time>2019-02-03T10:23:07.000Z</time>
      </trkpt>
      <trkpt lat="42.92726" lon="0.58747">
        <ele>1121</ele>
        <time>2019-02-03T10:23:08.000Z</time>
      </trkpt>
      <trkpt lat="42.92726" lon="0.58747">
        <ele>1121</ele>
        <time>2019-02-03T10:23:09.000Z</time>
      </trkpt>
      <trkpt lat="42.92726" lon="0.58747">
        <ele>1121</ele>
        <time>2019-02-03T10:23:10.000Z</time>
      </trkpt>
      <trkpt lat="42.92726" lon="0.58747">
        <ele>1121</ele>
        <time>2019-02-03T10:23:11.000Z</time>
      </trkpt>
      <trkpt lat="42.92726" lon="0.58747">
        <ele>1121</ele>
        <time>2019-02-03T10:23:12.000Z</time>
      </trkpt>
      <trkpt lat="42.92726" lon="0.58747">
        <ele>1121</ele>
        <time>2019-02-03T10:23:13.000Z</time>
      </trkpt>
      <trkpt lat="42.92726" lon="0.58747">
        <ele>1121.5</ele>
        <time>2019-02-03T10:23:14.000Z</time>
      </trkpt>
      <trkpt lat="42.92726" lon="0.58747">
        <ele>1122</ele>
        <time>2019-02-03T10:23:15.000Z</time>
      </trkpt>
      <trkpt lat="42.92727" lon="0.58746">
        <ele>1121</ele>
        <time>2019-02-03T10:23:16.000Z</time>
      </trkpt>
      <trkpt lat="42.92727" lon="0.58746">
        <ele>1121</ele>
        <time>2019-02-03T10:23:17.000Z</time>
      </trkpt>
      <trkpt lat="42.92727" lon="0.58746">
        <ele>1121</ele>
        <time>2019-02-03T10:23:18.000Z</time>
      </trkpt>
      <trkpt lat="42.92727" lon="0.58746">
        <ele>1121</ele>
        <time>2019-02-03T10:23:19.000Z</time>
      </trkpt>
      <trkpt lat="42.92727" lon="0.58746">
        <ele>1121</ele>
        <time>2019-02-03T10:23:20.000Z</time>
      </trkpt>
      <trkpt lat="42.92727" lon="0.58746">
        <ele>1121</ele>
        <time>2019-02-03T10:23:21.000Z</time>
      </trkpt>
      <trkpt lat="42.92727" lon="0.58746">
        <ele>1121</ele>
        <time>2019-02-03T10:23:22.000Z</time>
      </trkpt>
      <trkpt lat="42.92727" lon="0.58746">
        <ele>1121</ele>
        <time>2019-02-03T10:23:23.000Z</time>
      </trkpt>
      <trkpt lat="42.92728" lon="0.58746">
        <ele>1121</ele>
        <time>2019-02-03T10:23:24.000Z</time>
      </trkpt>
      <trkpt lat="42.92728" lon="0.58745">
        <ele>1121</ele>
        <time>2019-02-03T10:23:25.000Z</time>
      </trkpt>
      <trkpt lat="42.92729" lon="0.58745">
        <ele>1121</ele>
        <time>2019-02-03T10:23:26.000Z</time>
      </trkpt>
      <trkpt lat="42.9273" lon="0.58744">
        <ele>1121</ele>
        <time>2019-02-03T10:23:27.000Z</time>
      </trkpt>
      <trkpt lat="42.9273" lon="0.58744">
        <ele>1121</ele>
        <time>2019-02-03T10:23:28.000Z</time>
      </trkpt>
      <trkpt lat="42.92731" lon="0.58744">
        <ele>1121</ele>
        <time>2019-02-03T10:23:29.000Z</time>
      </trkpt>
      <trkpt lat="42.92731" lon="0.58744">
        <ele>1121</ele>
        <time>2019-02-03T10:23:30.000Z</time>
      </trkpt>
      <trkpt lat="42.92731" lon="0.58744">
        <ele>1121</ele>
        <time>2019-02-03T10:23:31.000Z</time>
      </trkpt>
      <trkpt lat="42.92731" lon="0.58744">
        <ele>1121</ele>
        <time>2019-02-03T10:23:32.000Z</time>
      </trkpt>
      <trkpt lat="42.92731" lon="0.58744">
        <ele>1121</ele>
        <time>2019-02-03T10:23:33.000Z</time>
      </trkpt>
      <trkpt lat="42.92731" lon="0.58744">
        <ele>1121</ele>
        <time>2019-02-03T10:23:34.000Z</time>
      </trkpt>
      <trkpt lat="42.92731" lon="0.58745">
        <ele>1121</ele>
        <time>2019-02-03T10:23:35.000Z</time>
      </trkpt>
      <trkpt lat="42.92732" lon="0.58745">
        <ele>1121</ele>
        <time>2019-02-03T10:23:36.000Z</time>
      </trkpt>
      <trkpt lat="42.92732" lon="0.58745">
        <ele>1121</ele>
        <time>2019-02-03T10:23:37.000Z</time>
      </trkpt>
      <trkpt lat="42.92732" lon="0.58746">
        <ele>1121</ele>
        <time>2019-02-03T10:23:38.000Z</time>
      </trkpt>
      <trkpt lat="42.92732" lon="0.58746">
        <ele>1121</ele>
        <time>2019-02-03T10:23:39.000Z</time>
      </trkpt>
      <trkpt lat="42.92732" lon="0.58746">
        <ele>1121</ele>
        <time>2019-02-03T10:23:40.000Z</time>
      </trkpt>
      <trkpt lat="42.92732" lon="0.58746">
        <ele>1122</ele>
        <time>2019-02-03T10:23:41.000Z</time>
      </trkpt>
      <trkpt lat="42.92732" lon="0.58746">
        <ele>1122</ele>
        <time>2019-02-03T10:23:42.000Z</time>
      </trkpt>
      <trkpt lat="42.92732" lon="0.58746">
        <ele>1122</ele>
        <time>2019-02-03T10:23:43.000Z</time>
      </trkpt>
      <trkpt lat="42.92732" lon="0.58746">
        <ele>1122</ele>
        <time>2019-02-03T10:23:44.000Z</time>
      </trkpt>
      <trkpt lat="42.92732" lon="0.58746">
        <ele>1122</ele>
        <time>2019-02-03T10:23:45.000Z</time>
      </trkpt>
      <trkpt lat="42.92732" lon="0.58746">
        <ele>1122</ele>
        <time>2019-02-03T10:23:46.000Z</time>
      </trkpt>
      <trkpt lat="42.92732" lon="0.58746">
        <ele>1122</ele>
        <time>2019-02-03T10:23:47.000Z</time>
      </trkpt>
      <trkpt lat="42.92732" lon="0.58746">
        <ele>1122</ele>
        <time>2019-02-03T10:23:48.000Z</time>
      </trkpt>
      <trkpt lat="42.92732" lon="0.58746">
        <ele>1122</ele>
        <time>2019-02-03T10:23:49.000Z</time>
      </trkpt>
      <trkpt lat="42.92732" lon="0.58746">
        <ele>1122</ele>
        <time>2019-02-03T10:23:50.000Z</time>
      </trkpt>
      <trkpt lat="42.92733" lon="0.58746">
        <ele>1122</ele>
        <time>2019-02-03T10:23:51.000Z</time>
      </trkpt>
      <trkpt lat="42.92733" lon="0.58746">
        <ele>1122</ele>
        <time>2019-02-03T10:23:52.000Z</time>
      </trkpt>
      <trkpt lat="42.92734" lon="0.58746">
        <ele>1122</ele>
        <time>2019-02-03T10:23:53.000Z</time>
      </trkpt>
      <trkpt lat="42.92734" lon="0.58746">
        <ele>1122</ele>
        <time>2019-02-03T10:23:54.000Z</time>
      </trkpt>
      <trkpt lat="42.92734" lon="0.58746">
        <ele>1121.5</ele>
        <time>2019-02-03T10:23:55.000Z</time>
      </trkpt>
      <trkpt lat="42.92735" lon="0.58746">
        <ele>1121</ele>
        <time>2019-02-03T10:23:56.000Z</time>
      </trkpt>
      <trkpt lat="42.92735" lon="0.58746">
        <ele>1121</ele>
        <time>2019-02-03T10:23:57.000Z</time>
      </trkpt>
      <trkpt lat="42.92735" lon="0.58746">
        <ele>1121</ele>
        <time>2019-02-03T10:23:58.000Z</time>
      </trkpt>
      <trkpt lat="42.92736" lon="0.58746">
        <ele>1121</ele>
        <time>2019-02-03T10:23:59.000Z</time>
      </trkpt>
      <trkpt lat="42.92736" lon="0.58746">
        <ele>1121</ele>
        <time>2019-02-03T10:24:00.000Z</time>
      </trkpt>
      <trkpt lat="42.92736" lon="0.58746">
        <ele>1121</ele>
        <time>2019-02-03T10:24:01.000Z</time>
      </trkpt>
      <trkpt lat="42.92736" lon="0.58746">
        <ele>1121</ele>
        <time>2019-02-03T10:24:02.000Z</time>
      </trkpt>
      <trkpt lat="42.92736" lon="0.58746">
        <ele>1121</ele>
        <time>2019-02-03T10:24:03.000Z</time>
      </trkpt>
      <trkpt lat="42.92736" lon="0.58746">
        <ele>1121</ele>
        <time>2019-02-03T10:24:04.000Z</time>
      </trkpt>
      <trkpt lat="42.92735" lon="0.58746">
        <ele>1121</ele>
        <time>2019-02-03T10:24:05.000Z</time>
      </trkpt>
      <trkpt lat="42.92735" lon="0.58746">
        <ele>1121</ele>
        <time>2019-02-03T10:24:06.000Z</time>
      </trkpt>
      <trkpt lat="42.92735" lon="0.58747">
        <ele>1121</ele>
        <time>2019-02-03T10:24:07.000Z</time>
      </trkpt>
      <trkpt lat="42.92735" lon="0.58747">
        <ele>1121</ele>
        <time>2019-02-03T10:24:08.000Z</time>
      </trkpt>
      <trkpt lat="42.92734" lon="0.58747">
        <ele>1121</ele>
        <time>2019-02-03T10:24:09.000Z</time>
      </trkpt>
      <trkpt lat="42.92734" lon="0.58747">
        <ele>1121</ele>
        <time>2019-02-03T10:24:10.000Z</time>
      </trkpt>
      <trkpt lat="42.92733" lon="0.58748">
        <ele>1121</ele>
        <time>2019-02-03T10:24:11.000Z</time>
      </trkpt>
      <trkpt lat="42.92733" lon="0.58748">
        <ele>1121</ele>
        <time>2019-02-03T10:24:12.000Z</time>
      </trkpt>
      <trkpt lat="42.92733" lon="0.58748">
        <ele>1121</ele>
        <time>2019-02-03T10:24:13.000Z</time>
      </trkpt>
      <trkpt lat="42.92733" lon="0.58748">
        <ele>1121</ele>
        <time>2019-02-03T10:24:14.000Z</time>
      </trkpt>
      <trkpt lat="42.92733" lon="0.58748">
        <ele>1121</ele>
        <time>2019-02-03T10:24:15.000Z</time>
      </trkpt>
      <trkpt lat="42.92733" lon="0.58748">
        <ele>1121</ele>
        <time>2019-02-03T10:24:16.000Z</time>
      </trkpt>
      <trkpt lat="42.92733" lon="0.58748">
        <ele>1121</ele>
        <time>2019-02-03T10:24:17.000Z</time>
      </trkpt>
      <trkpt lat="42.92733" lon="0.58747">
        <ele>1121</ele>
        <time>2019-02-03T10:24:18.000Z</time>
      </trkpt>
      <trkpt lat="42.92733" lon="0.58747">
        <ele>1121</ele>
        <time>2019-02-03T10:24:19.000Z</time>
      </trkpt>
      <trkpt lat="42.92733" lon="0.58747">
        <ele>1121</ele>
        <time>2019-02-03T10:24:20.000Z</time>
      </trkpt>
      <trkpt lat="42.92733" lon="0.58747">
        <ele>1121</ele>
        <time>2019-02-03T10:24:21.000Z</time>
      </trkpt>
      <trkpt lat="42.92733" lon="0.58747">
        <ele>1121</ele>
        <time>2019-02-03T10:24:22.000Z</time>
      </trkpt>
      <trkpt lat="42.92734" lon="0.58747">
        <ele>1121</ele>
        <time>2019-02-03T10:24:23.000Z</time>
      </trkpt>
      <trkpt lat="42.92735" lon="0.58747">
        <ele>1121</ele>
        <time>2019-02-03T10:24:24.000Z</time>
      </trkpt>
      <trkpt lat="42.92735" lon="0.58747">
        <ele>1121</ele>
        <time>2019-02-03T10:24:25.000Z</time>
      </trkpt>
      <trkpt lat="42.92735" lon="0.58746">
        <ele>1121</ele>
        <time>2019-02-03T10:24:26.000Z</time>
      </trkpt>
      <trkpt lat="42.92736" lon="0.58746">
        <ele>1121.5</ele>
        <time>2019-02-03T10:24:27.000Z</time>
      </trkpt>
      <trkpt lat="42.92736" lon="0.58746">
        <ele>1122</ele>
        <time>2019-02-03T10:24:28.000Z</time>
      </trkpt>
      <trkpt lat="42.92737" lon="0.58746">
        <ele>1122</ele>
        <time>2019-02-03T10:24:29.000Z</time>
      </trkpt>
      <trkpt lat="42.92738" lon="0.58746">
        <ele>1122</ele>
        <time>2019-02-03T10:24:30.000Z</time>
      </trkpt>
      <trkpt lat="42.92739" lon="0.58746">
        <ele>1121.5</ele>
        <time>2019-02-03T10:24:31.000Z</time>
      </trkpt>
      <trkpt lat="42.9274" lon="0.58746">
        <ele>1121</ele>
        <time>2019-02-03T10:24:32.000Z</time>
      </trkpt>
      <trkpt lat="42.92741" lon="0.58746">
        <ele>1122</ele>
        <time>2019-02-03T10:24:33.000Z</time>
      </trkpt>
      <trkpt lat="42.92741" lon="0.58745">
        <ele>1122</ele>
        <time>2019-02-03T10:24:34.000Z</time>
      </trkpt>
      <trkpt lat="42.92741" lon="0.58745">
        <ele>1122</ele>
        <time>2019-02-03T10:24:35.000Z</time>
      </trkpt>
      <trkpt lat="42.92741" lon="0.58745">
        <ele>1122</ele>
        <time>2019-02-03T10:24:36.000Z</time>
      </trkpt>
      <trkpt lat="42.92741" lon="0.58745">
        <ele>1122</ele>
        <time>2019-02-03T10:24:39.000Z</time>
      </trkpt>
      <trkpt lat="42.92741" lon="0.58745">
        <ele>1122</ele>
        <time>2019-02-03T10:24:40.000Z</time>
      </trkpt>
      <trkpt lat="42.9274" lon="0.58746">
        <ele>1122</ele>
        <time>2019-02-03T10:24:41.000Z</time>
      </trkpt>
      <trkpt lat="42.9274" lon="0.58746">
        <ele>1122</ele>
        <time>2019-02-03T10:24:42.000Z</time>
      </trkpt>
      <trkpt lat="42.92739" lon="0.58747">
        <ele>1122</ele>
        <time>2019-02-03T10:24:43.000Z</time>
      </trkpt>
      <trkpt lat="42.92739" lon="0.58748">
        <ele>1122</ele>
        <time>2019-02-03T10:24:44.000Z</time>
      </trkpt>
      <trkpt lat="42.9274" lon="0.58748">
        <ele>1122</ele>
        <time>2019-02-03T10:24:45.000Z</time>
      </trkpt>
      <trkpt lat="42.92741" lon="0.58749">
        <ele>1122</ele>
        <time>2019-02-03T10:24:46.000Z</time>
      </trkpt>
      <trkpt lat="42.92741" lon="0.58749">
        <ele>1122</ele>
        <time>2019-02-03T10:24:47.000Z</time>
      </trkpt>
      <trkpt lat="42.9274" lon="0.5875">
        <ele>1122</ele>
        <time>2019-02-03T10:24:48.000Z</time>
      </trkpt>
      <trkpt lat="42.9274" lon="0.5875">
        <ele>1122</ele>
        <time>2019-02-03T10:24:49.000Z</time>
      </trkpt>
      <trkpt lat="42.9274" lon="0.5875">
        <ele>1122</ele>
        <time>2019-02-03T10:24:50.000Z</time>
      </trkpt>
      <trkpt lat="42.9274" lon="0.5875">
        <ele>1122</ele>
        <time>2019-02-03T10:24:51.000Z</time>
      </trkpt>
      <trkpt lat="42.9274" lon="0.58749">
        <ele>1122</ele>
        <time>2019-02-03T10:24:52.000Z</time>
      </trkpt>
      <trkpt lat="42.9274" lon="0.58748">
        <ele>1122</ele>
        <time>2019-02-03T10:24:53.000Z</time>
      </trkpt>
      <trkpt lat="42.92739" lon="0.58748">
        <ele>1122</ele>
        <time>2019-02-03T10:24:54.000Z</time>
      </trkpt>
      <trkpt lat="42.92738" lon="0.58747">
        <ele>1121.5</ele>
        <time>2019-02-03T10:24:55.000Z</time>
      </trkpt>
      <trkpt lat="42.92738" lon="0.58746">
        <ele>1121</ele>
        <time>2019-02-03T10:24:56.000Z</time>
      </trkpt>
      <trkpt lat="42.92739" lon="0.58746">
        <ele>1121</ele>
        <time>2019-02-03T10:24:57.000Z</time>
      </trkpt>
      <trkpt lat="42.92739" lon="0.58745">
        <ele>1121</ele>
        <time>2019-02-03T10:24:58.000Z</time>
      </trkpt>
      <trkpt lat="42.9274" lon="0.58745">
        <ele>1121</ele>
        <time>2019-02-03T10:24:59.000Z</time>
      </trkpt>
      <trkpt lat="42.92741" lon="0.58744">
        <ele>1121</ele>
        <time>2019-02-03T10:25:00.000Z</time>
      </trkpt>
      <trkpt lat="42.92742" lon="0.58744">
        <ele>1121</ele>
        <time>2019-02-03T10:25:01.000Z</time>
      </trkpt>
      <trkpt lat="42.92743" lon="0.58744">
        <ele>1121</ele>
        <time>2019-02-03T10:25:02.000Z</time>
      </trkpt>
      <trkpt lat="42.92743" lon="0.58744">
        <ele>1121</ele>
        <time>2019-02-03T10:25:03.000Z</time>
      </trkpt>
      <trkpt lat="42.92744" lon="0.58744">
        <ele>1121.3</ele>
        <time>2019-02-03T10:25:04.000Z</time>
      </trkpt>
      <trkpt lat="42.92744" lon="0.58744">
        <ele>1121.7</ele>
        <time>2019-02-03T10:25:05.000Z</time>
      </trkpt>
      <trkpt lat="42.92744" lon="0.58744">
        <ele>1122</ele>
        <time>2019-02-03T10:25:06.000Z</time>
      </trkpt>
      <trkpt lat="42.92744" lon="0.58744">
        <ele>1122</ele>
        <time>2019-02-03T10:25:07.000Z</time>
      </trkpt>
      <trkpt lat="42.92744" lon="0.58744">
        <ele>1122</ele>
        <time>2019-02-03T10:25:08.000Z</time>
      </trkpt>
      <trkpt lat="42.92744" lon="0.58744">
        <ele>1122</ele>
        <time>2019-02-03T10:25:09.000Z</time>
      </trkpt>
      <trkpt lat="42.92744" lon="0.58744">
        <ele>1122</ele>
        <time>2019-02-03T10:25:10.000Z</time>
      </trkpt>
      <trkpt lat="42.92744" lon="0.58744">
        <ele>1122</ele>
        <time>2019-02-03T10:25:11.000Z</time>
      </trkpt>
      <trkpt lat="42.92744" lon="0.58744">
        <ele>1122</ele>
        <time>2019-02-03T10:25:12.000Z</time>
      </trkpt>
      <trkpt lat="42.92745" lon="0.58744">
        <ele>1122</ele>
        <time>2019-02-03T10:25:13.000Z</time>
      </trkpt>
      <trkpt lat="42.92745" lon="0.58744">
        <ele>1122</ele>
        <time>2019-02-03T10:25:14.000Z</time>
      </trkpt>
      <trkpt lat="42.92745" lon="0.58744">
        <ele>1122</ele>
        <time>2019-02-03T10:25:15.000Z</time>
      </trkpt>
      <trkpt lat="42.92745" lon="0.58744">
        <ele>1122</ele>
        <time>2019-02-03T10:25:16.000Z</time>
      </trkpt>
      <trkpt lat="42.92745" lon="0.58744">
        <ele>1122</ele>
        <time>2019-02-03T10:25:17.000Z</time>
      </trkpt>
      <trkpt lat="42.92745" lon="0.58744">
        <ele>1122</ele>
        <time>2019-02-03T10:25:18.000Z</time>
      </trkpt>
      <trkpt lat="42.92745" lon="0.58744">
        <ele>1122</ele>
        <time>2019-02-03T10:25:19.000Z</time>
      </trkpt>
      <trkpt lat="42.92745" lon="0.58744">
        <ele>1122</ele>
        <time>2019-02-03T10:25:20.000Z</time>
      </trkpt>
      <trkpt lat="42.92745" lon="0.58744">
        <ele>1122</ele>
        <time>2019-02-03T10:25:21.000Z</time>
      </trkpt>
      <trkpt lat="42.92745" lon="0.58744">
        <ele>1122</ele>
        <time>2019-02-03T10:25:22.000Z</time>
      </trkpt>
      <trkpt lat="42.92744" lon="0.58744">
        <ele>1122</ele>
        <time>2019-02-03T10:25:23.000Z</time>
      </trkpt>
      <trkpt lat="42.92744" lon="0.58744">
        <ele>1122</ele>
        <time>2019-02-03T10:25:24.000Z</time>
      </trkpt>
      <trkpt lat="42.92744" lon="0.58744">
        <ele>1122</ele>
        <time>2019-02-03T10:25:25.000Z</time>
      </trkpt>
      <trkpt lat="42.92744" lon="0.58744">
        <ele>1122</ele>
        <time>2019-02-03T10:25:26.000Z</time>
      </trkpt>
      <trkpt lat="42.92744" lon="0.58744">
        <ele>1122</ele>
        <time>2019-02-03T10:25:27.000Z</time>
      </trkpt>
      <trkpt lat="42.92744" lon="0.58744">
        <ele>1122</ele>
        <time>2019-02-03T10:25:28.000Z</time>
      </trkpt>
      <trkpt lat="42.92744" lon="0.58744">
        <ele>1121</ele>
        <time>2019-02-03T10:25:29.000Z</time>
      </trkpt>
      <trkpt lat="42.92744" lon="0.58744">
        <ele>1121</ele>
        <time>2019-02-03T10:25:30.000Z</time>
      </trkpt>
      <trkpt lat="42.92744" lon="0.58744">
        <ele>1121</ele>
        <time>2019-02-03T10:25:31.000Z</time>
      </trkpt>
      <trkpt lat="42.92744" lon="0.58744">
        <ele>1121</ele>
        <time>2019-02-03T10:25:32.000Z</time>
      </trkpt>
      <trkpt lat="42.92743" lon="0.58744">
        <ele>1121</ele>
        <time>2019-02-03T10:25:33.000Z</time>
      </trkpt>
      <trkpt lat="42.92743" lon="0.58744">
        <ele>1121</ele>
        <time>2019-02-03T10:25:34.000Z</time>
      </trkpt>
      <trkpt lat="42.92743" lon="0.58744">
        <ele>1121</ele>
        <time>2019-02-03T10:25:35.000Z</time>
      </trkpt>
      <trkpt lat="42.92743" lon="0.58744">
        <ele>1121</ele>
        <time>2019-02-03T10:25:36.000Z</time>
      </trkpt>
      <trkpt lat="42.92743" lon="0.58744">
        <ele>1121</ele>
        <time>2019-02-03T10:25:37.000Z</time>
      </trkpt>
      <trkpt lat="42.92742" lon="0.58744">
        <ele>1121</ele>
        <time>2019-02-03T10:25:38.000Z</time>
      </trkpt>
      <trkpt lat="42.92742" lon="0.58744">
        <ele>1121</ele>
        <time>2019-02-03T10:25:39.000Z</time>
      </trkpt>
      <trkpt lat="42.92742" lon="0.58744">
        <ele>1121</ele>
        <time>2019-02-03T10:25:40.000Z</time>
      </trkpt>
      <trkpt lat="42.92742" lon="0.58744">
        <ele>1121</ele>
        <time>2019-02-03T10:25:41.000Z</time>
      </trkpt>
      <trkpt lat="42.92741" lon="0.58744">
        <ele>1121</ele>
        <time>2019-02-03T10:25:42.000Z</time>
      </trkpt>
      <trkpt lat="42.92741" lon="0.58744">
        <ele>1121</ele>
        <time>2019-02-03T10:25:43.000Z</time>
      </trkpt>
      <trkpt lat="42.92741" lon="0.58744">
        <ele>1121</ele>
        <time>2019-02-03T10:25:44.000Z</time>
      </trkpt>
      <trkpt lat="42.92741" lon="0.58744">
        <ele>1121</ele>
        <time>2019-02-03T10:25:45.000Z</time>
      </trkpt>
      <trkpt lat="42.92741" lon="0.58744">
        <ele>1121</ele>
        <time>2019-02-03T10:25:46.000Z</time>
      </trkpt>
      <trkpt lat="42.92741" lon="0.58745">
        <ele>1121</ele>
        <time>2019-02-03T10:25:47.000Z</time>
      </trkpt>
      <trkpt lat="42.92741" lon="0.58745">
        <ele>1121</ele>
        <time>2019-02-03T10:25:48.000Z</time>
      </trkpt>
      <trkpt lat="42.92741" lon="0.58746">
        <ele>1121</ele>
        <time>2019-02-03T10:25:49.000Z</time>
      </trkpt>
      <trkpt lat="42.92741" lon="0.58746">
        <ele>1121</ele>
        <time>2019-02-03T10:25:50.000Z</time>
      </trkpt>
      <trkpt lat="42.92741" lon="0.58746">
        <ele>1121</ele>
        <time>2019-02-03T10:25:51.000Z</time>
      </trkpt>
      <trkpt lat="42.92741" lon="0.58746">
        <ele>1121</ele>
        <time>2019-02-03T10:25:52.000Z</time>
      </trkpt>
      <trkpt lat="42.92741" lon="0.58746">
        <ele>1121.5</ele>
        <time>2019-02-03T10:25:53.000Z</time>
      </trkpt>
      <trkpt lat="42.92741" lon="0.58746">
        <ele>1122</ele>
        <time>2019-02-03T10:25:54.000Z</time>
      </trkpt>
      <trkpt lat="42.92741" lon="0.58746">
        <ele>1122</ele>
        <time>2019-02-03T10:25:55.000Z</time>
      </trkpt>
      <trkpt lat="42.92741" lon="0.58746">
        <ele>1122</ele>
        <time>2019-02-03T10:25:56.000Z</time>
      </trkpt>
      <trkpt lat="42.92741" lon="0.58747">
        <ele>1122</ele>
        <time>2019-02-03T10:25:57.000Z</time>
      </trkpt>
      <trkpt lat="42.9274" lon="0.58747">
        <ele>1122</ele>
        <time>2019-02-03T10:25:58.000Z</time>
      </trkpt>
      <trkpt lat="42.9274" lon="0.58747">
        <ele>1122</ele>
        <time>2019-02-03T10:25:59.000Z</time>
      </trkpt>
      <trkpt lat="42.92739" lon="0.58748">
        <ele>1122</ele>
        <time>2019-02-03T10:26:00.000Z</time>
      </trkpt>
      <trkpt lat="42.92739" lon="0.58748">
        <ele>1122</ele>
        <time>2019-02-03T10:26:01.000Z</time>
      </trkpt>
      <trkpt lat="42.92738" lon="0.58748">
        <ele>1122</ele>
        <time>2019-02-03T10:26:02.000Z</time>
      </trkpt>
      <trkpt lat="42.92738" lon="0.58748">
        <ele>1122</ele>
        <time>2019-02-03T10:26:03.000Z</time>
      </trkpt>
      <trkpt lat="42.92737" lon="0.58748">
        <ele>1122</ele>
        <time>2019-02-03T10:26:04.000Z</time>
      </trkpt>
      <trkpt lat="42.92736" lon="0.58748">
        <ele>1122</ele>
        <time>2019-02-03T10:26:05.000Z</time>
      </trkpt>
      <trkpt lat="42.92735" lon="0.58748">
        <ele>1122</ele>
        <time>2019-02-03T10:26:06.000Z</time>
      </trkpt>
      <trkpt lat="42.92735" lon="0.58748">
        <ele>1122</ele>
        <time>2019-02-03T10:26:07.000Z</time>
      </trkpt>
      <trkpt lat="42.92735" lon="0.58748">
        <ele>1122</ele>
        <time>2019-02-03T10:26:08.000Z</time>
      </trkpt>
      <trkpt lat="42.92735" lon="0.58748">
        <ele>1122</ele>
        <time>2019-02-03T10:26:09.000Z</time>
      </trkpt>
      <trkpt lat="42.92735" lon="0.58748">
        <ele>1122</ele>
        <time>2019-02-03T10:26:10.000Z</time>
      </trkpt>
      <trkpt lat="42.92735" lon="0.58748">
        <ele>1122</ele>
        <time>2019-02-03T10:26:11.000Z</time>
      </trkpt>
      <trkpt lat="42.92736" lon="0.58748">
        <ele>1122</ele>
        <time>2019-02-03T10:26:12.000Z</time>
      </trkpt>
      <trkpt lat="42.92736" lon="0.58748">
        <ele>1122</ele>
        <time>2019-02-03T10:26:13.000Z</time>
      </trkpt>
      <trkpt lat="42.92736" lon="0.58747">
        <ele>1122</ele>
        <time>2019-02-03T10:26:14.000Z</time>
      </trkpt>
      <trkpt lat="42.92737" lon="0.58747">
        <ele>1122</ele>
        <time>2019-02-03T10:26:15.000Z</time>
      </trkpt>
      <trkpt lat="42.92737" lon="0.58747">
        <ele>1122</ele>
        <time>2019-02-03T10:26:16.000Z</time>
      </trkpt>
      <trkpt lat="42.92738" lon="0.58747">
        <ele>1122</ele>
        <time>2019-02-03T10:26:17.000Z</time>
      </trkpt>
      <trkpt lat="42.92738" lon="0.58746">
        <ele>1122</ele>
        <time>2019-02-03T10:26:18.000Z</time>
      </trkpt>
      <trkpt lat="42.92739" lon="0.58746">
        <ele>1122</ele>
        <time>2019-02-03T10:26:19.000Z</time>
      </trkpt>
      <trkpt lat="42.92739" lon="0.58746">
        <ele>1122</ele>
        <time>2019-02-03T10:26:20.000Z</time>
      </trkpt>
      <trkpt lat="42.92739" lon="0.58746">
        <ele>1122</ele>
        <time>2019-02-03T10:26:21.000Z</time>
      </trkpt>
      <trkpt lat="42.92739" lon="0.58747">
        <ele>1122</ele>
        <time>2019-02-03T10:26:22.000Z</time>
      </trkpt>
      <trkpt lat="42.92739" lon="0.58747">
        <ele>1122</ele>
        <time>2019-02-03T10:26:23.000Z</time>
      </trkpt>
      <trkpt lat="42.92739" lon="0.58748">
        <ele>1122</ele>
        <time>2019-02-03T10:26:24.000Z</time>
      </trkpt>
      <trkpt lat="42.92738" lon="0.58748">
        <ele>1121.5</ele>
        <time>2019-02-03T10:26:25.000Z</time>
      </trkpt>
      <trkpt lat="42.92738" lon="0.58749">
        <ele>1121</ele>
        <time>2019-02-03T10:26:26.000Z</time>
      </trkpt>
      <trkpt lat="42.92738" lon="0.58749">
        <ele>1121</ele>
        <time>2019-02-03T10:26:27.000Z</time>
      </trkpt>
      <trkpt lat="42.92738" lon="0.58749">
        <ele>1121</ele>
        <time>2019-02-03T10:26:28.000Z</time>
      </trkpt>
      <trkpt lat="42.92738" lon="0.58748">
        <ele>1121</ele>
        <time>2019-02-03T10:26:29.000Z</time>
      </trkpt>
      <trkpt lat="42.92739" lon="0.58748">
        <ele>1121</ele>
        <time>2019-02-03T10:26:30.000Z</time>
      </trkpt>
      <trkpt lat="42.92739" lon="0.58747">
        <ele>1121</ele>
        <time>2019-02-03T10:26:31.000Z</time>
      </trkpt>
      <trkpt lat="42.92739" lon="0.58747">
        <ele>1121</ele>
        <time>2019-02-03T10:26:32.000Z</time>
      </trkpt>
      <trkpt lat="42.92739" lon="0.58748">
        <ele>1121</ele>
        <time>2019-02-03T10:26:33.000Z</time>
      </trkpt>
      <trkpt lat="42.92738" lon="0.58749">
        <ele>1121</ele>
        <time>2019-02-03T10:26:34.000Z</time>
      </trkpt>
      <trkpt lat="42.92738" lon="0.58749">
        <ele>1121.5</ele>
        <time>2019-02-03T10:26:35.000Z</time>
      </trkpt>
      <trkpt lat="42.92737" lon="0.5875">
        <ele>1122</ele>
        <time>2019-02-03T10:26:36.000Z</time>
      </trkpt>
      <trkpt lat="42.92737" lon="0.5875">
        <ele>1122</ele>
        <time>2019-02-03T10:26:37.000Z</time>
      </trkpt>
      <trkpt lat="42.92736" lon="0.5875">
        <ele>1122</ele>
        <time>2019-02-03T10:26:38.000Z</time>
      </trkpt>
      <trkpt lat="42.92736" lon="0.58749">
        <ele>1122</ele>
        <time>2019-02-03T10:26:39.000Z</time>
      </trkpt>
      <trkpt lat="42.92735" lon="0.58749">
        <ele>1121.5</ele>
        <time>2019-02-03T10:26:40.000Z</time>
      </trkpt>
      <trkpt lat="42.92734" lon="0.58749">
        <ele>1121</ele>
        <time>2019-02-03T10:26:41.000Z</time>
      </trkpt>
      <trkpt lat="42.92733" lon="0.58749">
        <ele>1121</ele>
        <time>2019-02-03T10:26:42.000Z</time>
      </trkpt>
      <trkpt lat="42.92732" lon="0.58749">
        <ele>1121</ele>
        <time>2019-02-03T10:26:43.000Z</time>
      </trkpt>
      <trkpt lat="42.92731" lon="0.58749">
        <ele>1121</ele>
        <time>2019-02-03T10:26:44.000Z</time>
      </trkpt>
      <trkpt lat="42.9273" lon="0.58749">
        <ele>1121</ele>
        <time>2019-02-03T10:26:45.000Z</time>
      </trkpt>
      <trkpt lat="42.9273" lon="0.5875">
        <ele>1121</ele>
        <time>2019-02-03T10:26:46.000Z</time>
      </trkpt>
      <trkpt lat="42.9273" lon="0.5875">
        <ele>1121</ele>
        <time>2019-02-03T10:26:47.000Z</time>
      </trkpt>
      <trkpt lat="42.9273" lon="0.5875">
        <ele>1121</ele>
        <time>2019-02-03T10:26:48.000Z</time>
      </trkpt>
      <trkpt lat="42.9273" lon="0.5875">
        <ele>1121</ele>
        <time>2019-02-03T10:26:49.000Z</time>
      </trkpt>
      <trkpt lat="42.9273" lon="0.5875">
        <ele>1121</ele>
        <time>2019-02-03T10:26:50.000Z</time>
      </trkpt>
      <trkpt lat="42.9273" lon="0.5875">
        <ele>1121</ele>
        <time>2019-02-03T10:26:51.000Z</time>
      </trkpt>
      <trkpt lat="42.9273" lon="0.5875">
        <ele>1121</ele>
        <time>2019-02-03T10:26:52.000Z</time>
      </trkpt>
      <trkpt lat="42.9273" lon="0.5875">
        <ele>1121</ele>
        <time>2019-02-03T10:26:53.000Z</time>
      </trkpt>
      <trkpt lat="42.9273" lon="0.5875">
        <ele>1121</ele>
        <time>2019-02-03T10:26:54.000Z</time>
      </trkpt>
      <trkpt lat="42.9273" lon="0.5875">
        <ele>1121</ele>
        <time>2019-02-03T10:26:55.000Z</time>
      </trkpt>
      <trkpt lat="42.9273" lon="0.5875">
        <ele>1121</ele>
        <time>2019-02-03T10:26:56.000Z</time>
      </trkpt>
      <trkpt lat="42.9273" lon="0.5875">
        <ele>1121</ele>
        <time>2019-02-03T10:26:57.000Z</time>
      </trkpt>
      <trkpt lat="42.9273" lon="0.5875">
        <ele>1121</ele>
        <time>2019-02-03T10:26:58.000Z</time>
      </trkpt>
      <trkpt lat="42.9273" lon="0.5875">
        <ele>1122</ele>
        <time>2019-02-03T10:26:59.000Z</time>
      </trkpt>
      <trkpt lat="42.9273" lon="0.5875">
        <ele>1121.7</ele>
        <time>2019-02-03T10:27:00.000Z</time>
      </trkpt>
      <trkpt lat="42.9273" lon="0.5875">
        <ele>1121.3</ele>
        <time>2019-02-03T10:27:01.000Z</time>
      </trkpt>
      <trkpt lat="42.9273" lon="0.5875">
        <ele>1121</ele>
        <time>2019-02-03T10:27:02.000Z</time>
      </trkpt>
      <trkpt lat="42.92729" lon="0.5875">
        <ele>1121</ele>
        <time>2019-02-03T10:27:03.000Z</time>
      </trkpt>
      <trkpt lat="42.92729" lon="0.5875">
        <ele>1121</ele>
        <time>2019-02-03T10:27:04.000Z</time>
      </trkpt>
      <trkpt lat="42.92728" lon="0.5875">
        <ele>1121</ele>
        <time>2019-02-03T10:27:05.000Z</time>
      </trkpt>
      <trkpt lat="42.92728" lon="0.5875">
        <ele>1121</ele>
        <time>2019-02-03T10:27:06.000Z</time>
      </trkpt>
      <trkpt lat="42.92728" lon="0.5875">
        <ele>1121</ele>
        <time>2019-02-03T10:27:07.000Z</time>
      </trkpt>
      <trkpt lat="42.92727" lon="0.5875">
        <ele>1121</ele>
        <time>2019-02-03T10:27:08.000Z</time>
      </trkpt>
      <trkpt lat="42.92727" lon="0.5875">
        <ele>1121</ele>
        <time>2019-02-03T10:27:09.000Z</time>
      </trkpt>
      <trkpt lat="42.92727" lon="0.5875">
        <ele>1121</ele>
        <time>2019-02-03T10:27:10.000Z</time>
      </trkpt>
      <trkpt lat="42.92727" lon="0.5875">
        <ele>1121</ele>
        <time>2019-02-03T10:27:11.000Z</time>
      </trkpt>
      <trkpt lat="42.92727" lon="0.5875">
        <ele>1121</ele>
        <time>2019-02-03T10:27:12.000Z</time>
      </trkpt>
      <trkpt lat="42.92727" lon="0.5875">
        <ele>1121</ele>
        <time>2019-02-03T10:27:13.000Z</time>
      </trkpt>
      <trkpt lat="42.92727" lon="0.5875">
        <ele>1121</ele>
        <time>2019-02-03T10:27:14.000Z</time>
      </trkpt>
      <trkpt lat="42.92727" lon="0.5875">
        <ele>1121</ele>
        <time>2019-02-03T10:27:15.000Z</time>
      </trkpt>
      <trkpt lat="42.92727" lon="0.5875">
        <ele>1121</ele>
        <time>2019-02-03T10:27:16.000Z</time>
      </trkpt>
      <trkpt lat="42.92727" lon="0.5875">
        <ele>1121</ele>
        <time>2019-02-03T10:27:17.000Z</time>
      </trkpt>
      <trkpt lat="42.92728" lon="0.5875">
        <ele>1121</ele>
        <time>2019-02-03T10:27:18.000Z</time>
      </trkpt>
      <trkpt lat="42.92728" lon="0.5875">
        <ele>1121</ele>
        <time>2019-02-03T10:27:19.000Z</time>
      </trkpt>
      <trkpt lat="42.92728" lon="0.5875">
        <ele>1121</ele>
        <time>2019-02-03T10:27:20.000Z</time>
      </trkpt>
      <trkpt lat="42.92728" lon="0.5875">
        <ele>1121</ele>
        <time>2019-02-03T10:27:21.000Z</time>
      </trkpt>
      <trkpt lat="42.92728" lon="0.5875">
        <ele>1121</ele>
        <time>2019-02-03T10:27:22.000Z</time>
      </trkpt>
      <trkpt lat="42.92728" lon="0.5875">
        <ele>1121</ele>
        <time>2019-02-03T10:27:23.000Z</time>
      </trkpt>
      <trkpt lat="42.92729" lon="0.5875">
        <ele>1121</ele>
        <time>2019-02-03T10:27:24.000Z</time>
      </trkpt>
      <trkpt lat="42.92729" lon="0.5875">
        <ele>1121</ele>
        <time>2019-02-03T10:27:25.000Z</time>
      </trkpt>
      <trkpt lat="42.92729" lon="0.5875">
        <ele>1121</ele>
        <time>2019-02-03T10:27:26.000Z</time>
      </trkpt>
      <trkpt lat="42.92729" lon="0.5875">
        <ele>1121</ele>
        <time>2019-02-03T10:27:27.000Z</time>
      </trkpt>
      <trkpt lat="42.92729" lon="0.5875">
        <ele>1121</ele>
        <time>2019-02-03T10:27:28.000Z</time>
      </trkpt>
      <trkpt lat="42.92729" lon="0.5875">
        <ele>1121</ele>
        <time>2019-02-03T10:27:29.000Z</time>
      </trkpt>
      <trkpt lat="42.92729" lon="0.5875">
        <ele>1121</ele>
        <time>2019-02-03T10:27:30.000Z</time>
      </trkpt>
      <trkpt lat="42.92729" lon="0.5875">
        <ele>1121</ele>
        <time>2019-02-03T10:27:31.000Z</time>
      </trkpt>
      <trkpt lat="42.92729" lon="0.5875">
        <ele>1121</ele>
        <time>2019-02-03T10:27:32.000Z</time>
      </trkpt>
      <trkpt lat="42.92729" lon="0.5875">
        <ele>1121</ele>
        <time>2019-02-03T10:27:33.000Z</time>
      </trkpt>
      <trkpt lat="42.92729" lon="0.5875">
        <ele>1121</ele>
        <time>2019-02-03T10:27:34.000Z</time>
      </trkpt>
      <trkpt lat="42.92729" lon="0.5875">
        <ele>1121</ele>
        <time>2019-02-03T10:27:35.000Z</time>
      </trkpt>
      <trkpt lat="42.92729" lon="0.5875">
        <ele>1121</ele>
        <time>2019-02-03T10:27:36.000Z</time>
      </trkpt>
      <trkpt lat="42.92729" lon="0.5875">
        <ele>1121</ele>
        <time>2019-02-03T10:27:37.000Z</time>
      </trkpt>
      <trkpt lat="42.92729" lon="0.5875">
        <ele>1121</ele>
        <time>2019-02-03T10:27:38.000Z</time>
      </trkpt>
      <trkpt lat="42.92729" lon="0.5875">
        <ele>1121</ele>
        <time>2019-02-03T10:27:39.000Z</time>
      </trkpt>
      <trkpt lat="42.92729" lon="0.5875">
        <ele>1121</ele>
        <time>2019-02-03T10:27:40.000Z</time>
      </trkpt>
      <trkpt lat="42.92729" lon="0.5875">
        <ele>1121</ele>
        <time>2019-02-03T10:27:41.000Z</time>
      </trkpt>
      <trkpt lat="42.92729" lon="0.5875">
        <ele>1121</ele>
        <time>2019-02-03T10:27:42.000Z</time>
      </trkpt>
      <trkpt lat="42.92728" lon="0.5875">
        <ele>1121</ele>
        <time>2019-02-03T10:27:43.000Z</time>
      </trkpt>
      <trkpt lat="42.92728" lon="0.5875">
        <ele>1121</ele>
        <time>2019-02-03T10:27:44.000Z</time>
      </trkpt>
      <trkpt lat="42.92728" lon="0.5875">
        <ele>1121</ele>
        <time>2019-02-03T10:27:45.000Z</time>
      </trkpt>
      <trkpt lat="42.92728" lon="0.58751">
        <ele>1121</ele>
        <time>2019-02-03T10:27:46.000Z</time>
      </trkpt>
      <trkpt lat="42.92727" lon="0.58751">
        <ele>1121</ele>
        <time>2019-02-03T10:27:47.000Z</time>
      </trkpt>
      <trkpt lat="42.92727" lon="0.58751">
        <ele>1121</ele>
        <time>2019-02-03T10:27:48.000Z</time>
      </trkpt>
      <trkpt lat="42.92727" lon="0.58751">
        <ele>1121</ele>
        <time>2019-02-03T10:27:49.000Z</time>
      </trkpt>
      <trkpt lat="42.92726" lon="0.58751">
        <ele>1121</ele>
        <time>2019-02-03T10:27:50.000Z</time>
      </trkpt>
      <trkpt lat="42.92726" lon="0.58752">
        <ele>1121</ele>
        <time>2019-02-03T10:27:51.000Z</time>
      </trkpt>
      <trkpt lat="42.92726" lon="0.58752">
        <ele>1121</ele>
        <time>2019-02-03T10:27:52.000Z</time>
      </trkpt>
      <trkpt lat="42.92726" lon="0.58753">
        <ele>1121</ele>
        <time>2019-02-03T10:27:53.000Z</time>
      </trkpt>
      <trkpt lat="42.92725" lon="0.58754">
        <ele>1120.7</ele>
        <time>2019-02-03T10:27:54.000Z</time>
      </trkpt>
      <trkpt lat="42.92725" lon="0.58755">
        <ele>1120.3</ele>
        <time>2019-02-03T10:27:55.000Z</time>
      </trkpt>
      <trkpt lat="42.92724" lon="0.58755">
        <ele>1120</ele>
        <time>2019-02-03T10:27:56.000Z</time>
      </trkpt>
      <trkpt lat="42.92722" lon="0.58756">
        <ele>1120</ele>
        <time>2019-02-03T10:27:57.000Z</time>
      </trkpt>
      <trkpt lat="42.92721" lon="0.58757">
        <ele>1120</ele>
        <time>2019-02-03T10:27:58.000Z</time>
      </trkpt>
      <trkpt lat="42.9272" lon="0.58757">
        <ele>1120</ele>
        <time>2019-02-03T10:27:59.000Z</time>
      </trkpt>
      <trkpt lat="42.92719" lon="0.58758">
        <ele>1120</ele>
        <time>2019-02-03T10:28:00.000Z</time>
      </trkpt>
      <trkpt lat="42.92718" lon="0.58758">
        <ele>1120.3</ele>
        <time>2019-02-03T10:28:01.000Z</time>
      </trkpt>
      <trkpt lat="42.92718" lon="0.58758">
        <ele>1120.7</ele>
        <time>2019-02-03T10:28:02.000Z</time>
      </trkpt>
      <trkpt lat="42.92718" lon="0.58758">
        <ele>1121</ele>
        <time>2019-02-03T10:28:03.000Z</time>
      </trkpt>
      <trkpt lat="42.92719" lon="0.58758">
        <ele>1121</ele>
        <time>2019-02-03T10:28:04.000Z</time>
      </trkpt>
      <trkpt lat="42.92719" lon="0.58758">
        <ele>1121</ele>
        <time>2019-02-03T10:28:05.000Z</time>
      </trkpt>
      <trkpt lat="42.92719" lon="0.58758">
        <ele>1121</ele>
        <time>2019-02-03T10:28:06.000Z</time>
      </trkpt>
      <trkpt lat="42.92719" lon="0.58758">
        <ele>1121</ele>
        <time>2019-02-03T10:28:07.000Z</time>
      </trkpt>
      <trkpt lat="42.9272" lon="0.58758">
        <ele>1121</ele>
        <time>2019-02-03T10:28:08.000Z</time>
      </trkpt>
      <trkpt lat="42.92721" lon="0.58758">
        <ele>1121</ele>
        <time>2019-02-03T10:28:09.000Z</time>
      </trkpt>
      <trkpt lat="42.92723" lon="0.58758">
        <ele>1121</ele>
        <time>2019-02-03T10:28:10.000Z</time>
      </trkpt>
      <trkpt lat="42.92724" lon="0.58757">
        <ele>1121</ele>
        <time>2019-02-03T10:28:11.000Z</time>
      </trkpt>
      <trkpt lat="42.92724" lon="0.58758">
        <ele>1121</ele>
        <time>2019-02-03T10:28:12.000Z</time>
      </trkpt>
      <trkpt lat="42.92725" lon="0.58758">
        <ele>1121</ele>
        <time>2019-02-03T10:28:13.000Z</time>
      </trkpt>
      <trkpt lat="42.92725" lon="0.58758">
        <ele>1121</ele>
        <time>2019-02-03T10:28:14.000Z</time>
      </trkpt>
      <trkpt lat="42.92725" lon="0.58757">
        <ele>1121</ele>
        <time>2019-02-03T10:28:15.000Z</time>
      </trkpt>
      <trkpt lat="42.92726" lon="0.58756">
        <ele>1121</ele>
        <time>2019-02-03T10:28:16.000Z</time>
      </trkpt>
      <trkpt lat="42.92727" lon="0.58756">
        <ele>1121</ele>
        <time>2019-02-03T10:28:17.000Z</time>
      </trkpt>
      <trkpt lat="42.92727" lon="0.58755">
        <ele>1121</ele>
        <time>2019-02-03T10:28:18.000Z</time>
      </trkpt>
      <trkpt lat="42.92728" lon="0.58754">
        <ele>1121</ele>
        <time>2019-02-03T10:28:19.000Z</time>
      </trkpt>
      <trkpt lat="42.92729" lon="0.58753">
        <ele>1121</ele>
        <time>2019-02-03T10:28:20.000Z</time>
      </trkpt>
      <trkpt lat="42.9273" lon="0.58753">
        <ele>1121</ele>
        <time>2019-02-03T10:28:21.000Z</time>
      </trkpt>
      <trkpt lat="42.92731" lon="0.58752">
        <ele>1121</ele>
        <time>2019-02-03T10:28:22.000Z</time>
      </trkpt>
      <trkpt lat="42.92732" lon="0.58752">
        <ele>1121</ele>
        <time>2019-02-03T10:28:23.000Z</time>
      </trkpt>
      <trkpt lat="42.92733" lon="0.58751">
        <ele>1121</ele>
        <time>2019-02-03T10:28:24.000Z</time>
      </trkpt>
      <trkpt lat="42.92733" lon="0.58751">
        <ele>1121</ele>
        <time>2019-02-03T10:28:25.000Z</time>
      </trkpt>
      <trkpt lat="42.92734" lon="0.58751">
        <ele>1121</ele>
        <time>2019-02-03T10:28:26.000Z</time>
      </trkpt>
      <trkpt lat="42.92734" lon="0.58751">
        <ele>1121</ele>
        <time>2019-02-03T10:28:27.000Z</time>
      </trkpt>
      <trkpt lat="42.92734" lon="0.58751">
        <ele>1121</ele>
        <time>2019-02-03T10:28:28.000Z</time>
      </trkpt>
      <trkpt lat="42.92734" lon="0.58751">
        <ele>1121</ele>
        <time>2019-02-03T10:28:29.000Z</time>
      </trkpt>
      <trkpt lat="42.92734" lon="0.58751">
        <ele>1121</ele>
        <time>2019-02-03T10:28:30.000Z</time>
      </trkpt>
      <trkpt lat="42.92734" lon="0.58751">
        <ele>1121</ele>
        <time>2019-02-03T10:28:31.000Z</time>
      </trkpt>
      <trkpt lat="42.92734" lon="0.58751">
        <ele>1121</ele>
        <time>2019-02-03T10:28:32.000Z</time>
      </trkpt>
      <trkpt lat="42.92734" lon="0.58751">
        <ele>1121</ele>
        <time>2019-02-03T10:28:33.000Z</time>
      </trkpt>
      <trkpt lat="42.92735" lon="0.58751">
        <ele>1121</ele>
        <time>2019-02-03T10:28:34.000Z</time>
      </trkpt>
      <trkpt lat="42.92735" lon="0.58752">
        <ele>1121</ele>
        <time>2019-02-03T10:28:35.000Z</time>
      </trkpt>
      <trkpt lat="42.92736" lon="0.58752">
        <ele>1121</ele>
        <time>2019-02-03T10:28:36.000Z</time>
      </trkpt>
      <trkpt lat="42.92736" lon="0.58752">
        <ele>1121</ele>
        <time>2019-02-03T10:28:37.000Z</time>
      </trkpt>
      <trkpt lat="42.92736" lon="0.58752">
        <ele>1121</ele>
        <time>2019-02-03T10:28:38.000Z</time>
      </trkpt>
      <trkpt lat="42.92736" lon="0.58752">
        <ele>1121</ele>
        <time>2019-02-03T10:28:39.000Z</time>
      </trkpt>
      <trkpt lat="42.92736" lon="0.58752">
        <ele>1121</ele>
        <time>2019-02-03T10:28:40.000Z</time>
      </trkpt>
      <trkpt lat="42.92736" lon="0.58752">
        <ele>1121</ele>
        <time>2019-02-03T10:28:41.000Z</time>
      </trkpt>
      <trkpt lat="42.92736" lon="0.58752">
        <ele>1121</ele>
        <time>2019-02-03T10:28:42.000Z</time>
      </trkpt>
      <trkpt lat="42.92736" lon="0.58752">
        <ele>1121</ele>
        <time>2019-02-03T10:28:43.000Z</time>
      </trkpt>
      <trkpt lat="42.92736" lon="0.58752">
        <ele>1121</ele>
        <time>2019-02-03T10:28:44.000Z</time>
      </trkpt>
      <trkpt lat="42.92736" lon="0.58752">
        <ele>1120</ele>
        <time>2019-02-03T10:28:45.000Z</time>
      </trkpt>
      <trkpt lat="42.92736" lon="0.58752">
        <ele>1120.3</ele>
        <time>2019-02-03T10:28:46.000Z</time>
      </trkpt>
      <trkpt lat="42.92736" lon="0.58752">
        <ele>1120.7</ele>
        <time>2019-02-03T10:28:47.000Z</time>
      </trkpt>
      <trkpt lat="42.92736" lon="0.58752">
        <ele>1121</ele>
        <time>2019-02-03T10:28:48.000Z</time>
      </trkpt>
      <trkpt lat="42.92736" lon="0.58752">
        <ele>1121</ele>
        <time>2019-02-03T10:28:49.000Z</time>
      </trkpt>
      <trkpt lat="42.92736" lon="0.58752">
        <ele>1121</ele>
        <time>2019-02-03T10:28:50.000Z</time>
      </trkpt>
      <trkpt lat="42.92736" lon="0.58752">
        <ele>1121</ele>
        <time>2019-02-03T10:28:51.000Z</time>
      </trkpt>
      <trkpt lat="42.92736" lon="0.58752">
        <ele>1120.5</ele>
        <time>2019-02-03T10:28:52.000Z</time>
      </trkpt>
      <trkpt lat="42.92736" lon="0.58752">
        <ele>1120</ele>
        <time>2019-02-03T10:28:53.000Z</time>
      </trkpt>
      <trkpt lat="42.92736" lon="0.58752">
        <ele>1120</ele>
        <time>2019-02-03T10:28:54.000Z</time>
      </trkpt>
      <trkpt lat="42.92736" lon="0.58752">
        <ele>1120</ele>
        <time>2019-02-03T10:28:55.000Z</time>
      </trkpt>
      <trkpt lat="42.92736" lon="0.58751">
        <ele>1120</ele>
        <time>2019-02-03T10:28:56.000Z</time>
      </trkpt>
      <trkpt lat="42.92736" lon="0.58751">
        <ele>1120</ele>
        <time>2019-02-03T10:28:57.000Z</time>
      </trkpt>
      <trkpt lat="42.92736" lon="0.5875">
        <ele>1120</ele>
        <time>2019-02-03T10:28:58.000Z</time>
      </trkpt>
      <trkpt lat="42.92736" lon="0.5875">
        <ele>1121</ele>
        <time>2019-02-03T10:28:59.000Z</time>
      </trkpt>
      <trkpt lat="42.92737" lon="0.58749">
        <ele>1120.7</ele>
        <time>2019-02-03T10:29:00.000Z</time>
      </trkpt>
      <trkpt lat="42.92737" lon="0.58748">
        <ele>1120.3</ele>
        <time>2019-02-03T10:29:01.000Z</time>
      </trkpt>
      <trkpt lat="42.92737" lon="0.58748">
        <ele>1120</ele>
        <time>2019-02-03T10:29:02.000Z</time>
      </trkpt>
      <trkpt lat="42.92738" lon="0.58747">
        <ele>1120</ele>
        <time>2019-02-03T10:29:03.000Z</time>
      </trkpt>
      <trkpt lat="42.92738" lon="0.58747">
        <ele>1120</ele>
        <time>2019-02-03T10:29:04.000Z</time>
      </trkpt>
      <trkpt lat="42.92739" lon="0.58747">
        <ele>1120</ele>
        <time>2019-02-03T10:29:05.000Z</time>
      </trkpt>
      <trkpt lat="42.92739" lon="0.58747">
        <ele>1120</ele>
        <time>2019-02-03T10:29:06.000Z</time>
      </trkpt>
      <trkpt lat="42.92739" lon="0.58747">
        <ele>1120</ele>
        <time>2019-02-03T10:29:07.000Z</time>
      </trkpt>
      <trkpt lat="42.92739" lon="0.58748">
        <ele>1120</ele>
        <time>2019-02-03T10:29:08.000Z</time>
      </trkpt>
      <trkpt lat="42.9274" lon="0.58748">
        <ele>1120</ele>
        <time>2019-02-03T10:29:09.000Z</time>
      </trkpt>
      <trkpt lat="42.9274" lon="0.58748">
        <ele>1120</ele>
        <time>2019-02-03T10:29:10.000Z</time>
      </trkpt>
      <trkpt lat="42.9274" lon="0.58748">
        <ele>1120</ele>
        <time>2019-02-03T10:29:11.000Z</time>
      </trkpt>
      <trkpt lat="42.9274" lon="0.58748">
        <ele>1120</ele>
        <time>2019-02-03T10:29:12.000Z</time>
      </trkpt>
      <trkpt lat="42.9274" lon="0.58748">
        <ele>1120</ele>
        <time>2019-02-03T10:29:13.000Z</time>
      </trkpt>
      <trkpt lat="42.9274" lon="0.58748">
        <ele>1120</ele>
        <time>2019-02-03T10:29:14.000Z</time>
      </trkpt>
      <trkpt lat="42.9274" lon="0.58747">
        <ele>1120</ele>
        <time>2019-02-03T10:29:15.000Z</time>
      </trkpt>
      <trkpt lat="42.9274" lon="0.58747">
        <ele>1120</ele>
        <time>2019-02-03T10:29:16.000Z</time>
      </trkpt>
      <trkpt lat="42.9274" lon="0.58747">
        <ele>1120</ele>
        <time>2019-02-03T10:29:17.000Z</time>
      </trkpt>
      <trkpt lat="42.92741" lon="0.58747">
        <ele>1121</ele>
        <time>2019-02-03T10:29:18.000Z</time>
      </trkpt>
      <trkpt lat="42.92741" lon="0.58746">
        <ele>1121</ele>
        <time>2019-02-03T10:29:19.000Z</time>
      </trkpt>
      <trkpt lat="42.92741" lon="0.58746">
        <ele>1121</ele>
        <time>2019-02-03T10:29:20.000Z</time>
      </trkpt>
      <trkpt lat="42.92741" lon="0.58746">
        <ele>1121</ele>
        <time>2019-02-03T10:29:21.000Z</time>
      </trkpt>
      <trkpt lat="42.92741" lon="0.58746">
        <ele>1121</ele>
        <time>2019-02-03T10:29:22.000Z</time>
      </trkpt>
      <trkpt lat="42.92741" lon="0.58746">
        <ele>1121</ele>
        <time>2019-02-03T10:29:23.000Z</time>
      </trkpt>
      <trkpt lat="42.92741" lon="0.58746">
        <ele>1121</ele>
        <time>2019-02-03T10:29:24.000Z</time>
      </trkpt>
      <trkpt lat="42.92741" lon="0.58746">
        <ele>1120.7</ele>
        <time>2019-02-03T10:29:25.000Z</time>
      </trkpt>
      <trkpt lat="42.9274" lon="0.58746">
        <ele>1120.3</ele>
        <time>2019-02-03T10:29:26.000Z</time>
      </trkpt>
      <trkpt lat="42.9274" lon="0.58747">
        <ele>1120</ele>
        <time>2019-02-03T10:29:27.000Z</time>
      </trkpt>
      <trkpt lat="42.9274" lon="0.58747">
        <ele>1120</ele>
        <time>2019-02-03T10:29:28.000Z</time>
      </trkpt>
      <trkpt lat="42.9274" lon="0.58747">
        <ele>1120</ele>
        <time>2019-02-03T10:29:29.000Z</time>
      </trkpt>
      <trkpt lat="42.9274" lon="0.58747">
        <ele>1120</ele>
        <time>2019-02-03T10:29:30.000Z</time>
      </trkpt>
      <trkpt lat="42.92739" lon="0.58747">
        <ele>1120</ele>
        <time>2019-02-03T10:29:31.000Z</time>
      </trkpt>
      <trkpt lat="42.92739" lon="0.58747">
        <ele>1120</ele>
        <time>2019-02-03T10:29:32.000Z</time>
      </trkpt>
      <trkpt lat="42.92739" lon="0.58747">
        <ele>1120</ele>
        <time>2019-02-03T10:29:33.000Z</time>
      </trkpt>
      <trkpt lat="42.92738" lon="0.58747">
        <ele>1120</ele>
        <time>2019-02-03T10:29:34.000Z</time>
      </trkpt>
      <trkpt lat="42.92738" lon="0.58747">
        <ele>1120</ele>
        <time>2019-02-03T10:29:35.000Z</time>
      </trkpt>
      <trkpt lat="42.92738" lon="0.58747">
        <ele>1120</ele>
        <time>2019-02-03T10:29:36.000Z</time>
      </trkpt>
      <trkpt lat="42.92738" lon="0.58748">
        <ele>1120</ele>
        <time>2019-02-03T10:29:37.000Z</time>
      </trkpt>
      <trkpt lat="42.92738" lon="0.58748">
        <ele>1120</ele>
        <time>2019-02-03T10:29:38.000Z</time>
      </trkpt>
      <trkpt lat="42.92738" lon="0.58748">
        <ele>1120</ele>
        <time>2019-02-03T10:29:39.000Z</time>
      </trkpt>
      <trkpt lat="42.92739" lon="0.58749">
        <ele>1120</ele>
        <time>2019-02-03T10:29:40.000Z</time>
      </trkpt>
      <trkpt lat="42.92739" lon="0.58749">
        <ele>1120</ele>
        <time>2019-02-03T10:29:41.000Z</time>
      </trkpt>
      <trkpt lat="42.92739" lon="0.58749">
        <ele>1120</ele>
        <time>2019-02-03T10:29:42.000Z</time>
      </trkpt>
      <trkpt lat="42.92739" lon="0.58749">
        <ele>1120</ele>
        <time>2019-02-03T10:29:43.000Z</time>
      </trkpt>
      <trkpt lat="42.92739" lon="0.58749">
        <ele>1120</ele>
        <time>2019-02-03T10:29:44.000Z</time>
      </trkpt>
      <trkpt lat="42.9274" lon="0.5875">
        <ele>1120</ele>
        <time>2019-02-03T10:29:45.000Z</time>
      </trkpt>
      <trkpt lat="42.9274" lon="0.5875">
        <ele>1120</ele>
        <time>2019-02-03T10:29:46.000Z</time>
      </trkpt>
      <trkpt lat="42.9274" lon="0.5875">
        <ele>1120</ele>
        <time>2019-02-03T10:29:47.000Z</time>
      </trkpt>
      <trkpt lat="42.9274" lon="0.58749">
        <ele>1120</ele>
        <time>2019-02-03T10:29:48.000Z</time>
      </trkpt>
      <trkpt lat="42.92741" lon="0.58749">
        <ele>1120.5</ele>
        <time>2019-02-03T10:29:49.000Z</time>
      </trkpt>
      <trkpt lat="42.92741" lon="0.58749">
        <ele>1121</ele>
        <time>2019-02-03T10:29:50.000Z</time>
      </trkpt>
      <trkpt lat="42.92741" lon="0.58749">
        <ele>1121</ele>
        <time>2019-02-03T10:29:51.000Z</time>
      </trkpt>
      <trkpt lat="42.92741" lon="0.58749">
        <ele>1121</ele>
        <time>2019-02-03T10:29:52.000Z</time>
      </trkpt>
      <trkpt lat="42.92742" lon="0.58749">
        <ele>1121</ele>
        <time>2019-02-03T10:29:53.000Z</time>
      </trkpt>
      <trkpt lat="42.92742" lon="0.58749">
        <ele>1121</ele>
        <time>2019-02-03T10:29:54.000Z</time>
      </trkpt>
      <trkpt lat="42.92742" lon="0.58748">
        <ele>1121</ele>
        <time>2019-02-03T10:29:55.000Z</time>
      </trkpt>
      <trkpt lat="42.92743" lon="0.58748">
        <ele>1121</ele>
        <time>2019-02-03T10:29:56.000Z</time>
      </trkpt>
      <trkpt lat="42.92743" lon="0.58748">
        <ele>1121</ele>
        <time>2019-02-03T10:29:57.000Z</time>
      </trkpt>
      <trkpt lat="42.92744" lon="0.58748">
        <ele>1121</ele>
        <time>2019-02-03T10:29:58.000Z</time>
      </trkpt>
      <trkpt lat="42.92744" lon="0.58747">
        <ele>1121</ele>
        <time>2019-02-03T10:29:59.000Z</time>
      </trkpt>
      <trkpt lat="42.92744" lon="0.58747">
        <ele>1121</ele>
        <time>2019-02-03T10:30:00.000Z</time>
      </trkpt>
      <trkpt lat="42.92745" lon="0.58747">
        <ele>1121</ele>
        <time>2019-02-03T10:30:01.000Z</time>
      </trkpt>
      <trkpt lat="42.92745" lon="0.58747">
        <ele>1121</ele>
        <time>2019-02-03T10:30:02.000Z</time>
      </trkpt>
      <trkpt lat="42.92746" lon="0.58747">
        <ele>1121</ele>
        <time>2019-02-03T10:30:03.000Z</time>
      </trkpt>
      <trkpt lat="42.92746" lon="0.58747">
        <ele>1121</ele>
        <time>2019-02-03T10:30:04.000Z</time>
      </trkpt>
      <trkpt lat="42.92746" lon="0.58747">
        <ele>1120.5</ele>
        <time>2019-02-03T10:30:05.000Z</time>
      </trkpt>
      <trkpt lat="42.92747" lon="0.58747">
        <ele>1120</ele>
        <time>2019-02-03T10:30:06.000Z</time>
      </trkpt>
      <trkpt lat="42.92747" lon="0.58747">
        <ele>1120</ele>
        <time>2019-02-03T10:30:07.000Z</time>
      </trkpt>
      <trkpt lat="42.92748" lon="0.58747">
        <ele>1120</ele>
        <time>2019-02-03T10:30:08.000Z</time>
      </trkpt>
      <trkpt lat="42.92748" lon="0.58747">
        <ele>1120</ele>
        <time>2019-02-03T10:30:09.000Z</time>
      </trkpt>
      <trkpt lat="42.92749" lon="0.58747">
        <ele>1120</ele>
        <time>2019-02-03T10:30:10.000Z</time>
      </trkpt>
      <trkpt lat="42.92749" lon="0.58747">
        <ele>1120.5</ele>
        <time>2019-02-03T10:30:11.000Z</time>
      </trkpt>
      <trkpt lat="42.9275" lon="0.58746">
        <ele>1121</ele>
        <time>2019-02-03T10:30:12.000Z</time>
      </trkpt>
      <trkpt lat="42.9275" lon="0.58746">
        <ele>1121</ele>
        <time>2019-02-03T10:30:13.000Z</time>
      </trkpt>
      <trkpt lat="42.92751" lon="0.58746">
        <ele>1121</ele>
        <time>2019-02-03T10:30:14.000Z</time>
      </trkpt>
      <trkpt lat="42.92752" lon="0.58746">
        <ele>1121</ele>
        <time>2019-02-03T10:30:15.000Z</time>
      </trkpt>
      <trkpt lat="42.92752" lon="0.58746">
        <ele>1121</ele>
        <time>2019-02-03T10:30:16.000Z</time>
      </trkpt>
      <trkpt lat="42.92753" lon="0.58745">
        <ele>1121</ele>
        <time>2019-02-03T10:30:17.000Z</time>
      </trkpt>
      <trkpt lat="42.92753" lon="0.58745">
        <ele>1121</ele>
        <time>2019-02-03T10:30:18.000Z</time>
      </trkpt>
      <trkpt lat="42.92754" lon="0.58745">
        <ele>1121</ele>
        <time>2019-02-03T10:30:19.000Z</time>
      </trkpt>
      <trkpt lat="42.92755" lon="0.58745">
        <ele>1121</ele>
        <time>2019-02-03T10:30:20.000Z</time>
      </trkpt>
      <trkpt lat="42.92755" lon="0.58745">
        <ele>1120.5</ele>
        <time>2019-02-03T10:30:21.000Z</time>
      </trkpt>
      <trkpt lat="42.92756" lon="0.58745">
        <ele>1120</ele>
        <time>2019-02-03T10:30:22.000Z</time>
      </trkpt>
      <trkpt lat="42.92757" lon="0.58745">
        <ele>1120</ele>
        <time>2019-02-03T10:30:23.000Z</time>
      </trkpt>
      <trkpt lat="42.92757" lon="0.58746">
        <ele>1120</ele>
        <time>2019-02-03T10:30:24.000Z</time>
      </trkpt>
      <trkpt lat="42.92758" lon="0.58746">
        <ele>1120</ele>
        <time>2019-02-03T10:30:25.000Z</time>
      </trkpt>
      <trkpt lat="42.92759" lon="0.58746">
        <ele>1120</ele>
        <time>2019-02-03T10:30:26.000Z</time>
      </trkpt>
      <trkpt lat="42.92759" lon="0.58746">
        <ele>1120</ele>
        <time>2019-02-03T10:30:27.000Z</time>
      </trkpt>
      <trkpt lat="42.92759" lon="0.58746">
        <ele>1120</ele>
        <time>2019-02-03T10:30:28.000Z</time>
      </trkpt>
      <trkpt lat="42.92759" lon="0.58746">
        <ele>1120</ele>
        <time>2019-02-03T10:30:29.000Z</time>
      </trkpt>
      <trkpt lat="42.92759" lon="0.58746">
        <ele>1120</ele>
        <time>2019-02-03T10:30:30.000Z</time>
      </trkpt>
      <trkpt lat="42.92759" lon="0.58746">
        <ele>1120</ele>
        <time>2019-02-03T10:30:31.000Z</time>
      </trkpt>
      <trkpt lat="42.92759" lon="0.58746">
        <ele>1120</ele>
        <time>2019-02-03T10:30:32.000Z</time>
      </trkpt>
      <trkpt lat="42.92758" lon="0.58746">
        <ele>1120</ele>
        <time>2019-02-03T10:30:33.000Z</time>
      </trkpt>
      <trkpt lat="42.92757" lon="0.58746">
        <ele>1120</ele>
        <time>2019-02-03T10:30:34.000Z</time>
      </trkpt>
      <trkpt lat="42.92756" lon="0.58746">
        <ele>1120</ele>
        <time>2019-02-03T10:30:35.000Z</time>
      </trkpt>
      <trkpt lat="42.92756" lon="0.58746">
        <ele>1120</ele>
        <time>2019-02-03T10:30:36.000Z</time>
      </trkpt>
      <trkpt lat="42.92755" lon="0.58746">
        <ele>1120</ele>
        <time>2019-02-03T10:30:37.000Z</time>
      </trkpt>
      <trkpt lat="42.92755" lon="0.58746">
        <ele>1120</ele>
        <time>2019-02-03T10:30:38.000Z</time>
      </trkpt>
      <trkpt lat="42.92754" lon="0.58746">
        <ele>1120</ele>
        <time>2019-02-03T10:30:39.000Z</time>
      </trkpt>
      <trkpt lat="42.92754" lon="0.58746">
        <ele>1120</ele>
        <time>2019-02-03T10:30:40.000Z</time>
      </trkpt>
      <trkpt lat="42.92754" lon="0.58746">
        <ele>1120</ele>
        <time>2019-02-03T10:30:41.000Z</time>
      </trkpt>
      <trkpt lat="42.92754" lon="0.58745">
        <ele>1120</ele>
        <time>2019-02-03T10:30:42.000Z</time>
      </trkpt>
      <trkpt lat="42.92754" lon="0.58745">
        <ele>1120</ele>
        <time>2019-02-03T10:30:43.000Z</time>
      </trkpt>
      <trkpt lat="42.92754" lon="0.58745">
        <ele>1120</ele>
        <time>2019-02-03T10:30:44.000Z</time>
      </trkpt>
      <trkpt lat="42.92754" lon="0.58745">
        <ele>1120</ele>
        <time>2019-02-03T10:30:45.000Z</time>
      </trkpt>
      <trkpt lat="42.92754" lon="0.58745">
        <ele>1120</ele>
        <time>2019-02-03T10:30:46.000Z</time>
      </trkpt>
      <trkpt lat="42.92754" lon="0.58744">
        <ele>1120</ele>
        <time>2019-02-03T10:30:47.000Z</time>
      </trkpt>
      <trkpt lat="42.92755" lon="0.58744">
        <ele>1120</ele>
        <time>2019-02-03T10:30:48.000Z</time>
      </trkpt>
      <trkpt lat="42.92755" lon="0.58744">
        <ele>1120</ele>
        <time>2019-02-03T10:30:49.000Z</time>
      </trkpt>
      <trkpt lat="42.92755" lon="0.58744">
        <ele>1120</ele>
        <time>2019-02-03T10:30:50.000Z</time>
      </trkpt>
      <trkpt lat="42.92755" lon="0.58744">
        <ele>1120</ele>
        <time>2019-02-03T10:30:51.000Z</time>
      </trkpt>
      <trkpt lat="42.92755" lon="0.58744">
        <ele>1120</ele>
        <time>2019-02-03T10:30:52.000Z</time>
      </trkpt>
      <trkpt lat="42.92754" lon="0.58744">
        <ele>1120</ele>
        <time>2019-02-03T10:30:53.000Z</time>
      </trkpt>
      <trkpt lat="42.92754" lon="0.58744">
        <ele>1120</ele>
        <time>2019-02-03T10:30:54.000Z</time>
      </trkpt>
      <trkpt lat="42.92754" lon="0.58744">
        <ele>1120</ele>
        <time>2019-02-03T10:30:55.000Z</time>
      </trkpt>
      <trkpt lat="42.92753" lon="0.58744">
        <ele>1120</ele>
        <time>2019-02-03T10:30:56.000Z</time>
      </trkpt>
      <trkpt lat="42.92753" lon="0.58745">
        <ele>1120</ele>
        <time>2019-02-03T10:30:57.000Z</time>
      </trkpt>
      <trkpt lat="42.92752" lon="0.58745">
        <ele>1120</ele>
        <time>2019-02-03T10:30:58.000Z</time>
      </trkpt>
      <trkpt lat="42.92752" lon="0.58745">
        <ele>1120</ele>
        <time>2019-02-03T10:30:59.000Z</time>
      </trkpt>
      <trkpt lat="42.92751" lon="0.58745">
        <ele>1120</ele>
        <time>2019-02-03T10:31:00.000Z</time>
      </trkpt>
      <trkpt lat="42.92751" lon="0.58746">
        <ele>1120</ele>
        <time>2019-02-03T10:31:01.000Z</time>
      </trkpt>
      <trkpt lat="42.9275" lon="0.58746">
        <ele>1120</ele>
        <time>2019-02-03T10:31:02.000Z</time>
      </trkpt>
      <trkpt lat="42.9275" lon="0.58746">
        <ele>1120</ele>
        <time>2019-02-03T10:31:03.000Z</time>
      </trkpt>
      <trkpt lat="42.92749" lon="0.58746">
        <ele>1120</ele>
        <time>2019-02-03T10:31:04.000Z</time>
      </trkpt>
      <trkpt lat="42.92749" lon="0.58746">
        <ele>1120</ele>
        <time>2019-02-03T10:31:05.000Z</time>
      </trkpt>
      <trkpt lat="42.92749" lon="0.58745">
        <ele>1120</ele>
        <time>2019-02-03T10:31:06.000Z</time>
      </trkpt>
      <trkpt lat="42.92749" lon="0.58745">
        <ele>1120</ele>
        <time>2019-02-03T10:31:07.000Z</time>
      </trkpt>
      <trkpt lat="42.92749" lon="0.58745">
        <ele>1120</ele>
        <time>2019-02-03T10:31:08.000Z</time>
      </trkpt>
      <trkpt lat="42.92749" lon="0.58745">
        <ele>1120</ele>
        <time>2019-02-03T10:31:09.000Z</time>
      </trkpt>
      <trkpt lat="42.92749" lon="0.58745">
        <ele>1120</ele>
        <time>2019-02-03T10:31:10.000Z</time>
      </trkpt>
      <trkpt lat="42.92749" lon="0.58744">
        <ele>1120</ele>
        <time>2019-02-03T10:31:11.000Z</time>
      </trkpt>
      <trkpt lat="42.92749" lon="0.58744">
        <ele>1120</ele>
        <time>2019-02-03T10:31:12.000Z</time>
      </trkpt>
      <trkpt lat="42.92748" lon="0.58744">
        <ele>1120</ele>
        <time>2019-02-03T10:31:13.000Z</time>
      </trkpt>
      <trkpt lat="42.92748" lon="0.58744">
        <ele>1120</ele>
        <time>2019-02-03T10:31:14.000Z</time>
      </trkpt>
      <trkpt lat="42.92748" lon="0.58744">
        <ele>1120</ele>
        <time>2019-02-03T10:31:15.000Z</time>
      </trkpt>
      <trkpt lat="42.92748" lon="0.58744">
        <ele>1120</ele>
        <time>2019-02-03T10:31:16.000Z</time>
      </trkpt>
      <trkpt lat="42.92748" lon="0.58743">
        <ele>1120</ele>
        <time>2019-02-03T10:31:17.000Z</time>
      </trkpt>
      <trkpt lat="42.92747" lon="0.58743">
        <ele>1120</ele>
        <time>2019-02-03T10:31:18.000Z</time>
      </trkpt>
      <trkpt lat="42.92747" lon="0.58743">
        <ele>1120</ele>
        <time>2019-02-03T10:31:19.000Z</time>
      </trkpt>
      <trkpt lat="42.92746" lon="0.58743">
        <ele>1120</ele>
        <time>2019-02-03T10:31:20.000Z</time>
      </trkpt>
      <trkpt lat="42.92746" lon="0.58743">
        <ele>1120.5</ele>
        <time>2019-02-03T10:31:21.000Z</time>
      </trkpt>
      <trkpt lat="42.92745" lon="0.58743">
        <ele>1121</ele>
        <time>2019-02-03T10:31:22.000Z</time>
      </trkpt>
      <trkpt lat="42.92745" lon="0.58743">
        <ele>1120</ele>
        <time>2019-02-03T10:31:23.000Z</time>
      </trkpt>
      <trkpt lat="42.92746" lon="0.58742">
        <ele>1120</ele>
        <time>2019-02-03T10:31:24.000Z</time>
      </trkpt>
      <trkpt lat="42.92747" lon="0.58741">
        <ele>1120</ele>
        <time>2019-02-03T10:31:25.000Z</time>
      </trkpt>
      <trkpt lat="42.92748" lon="0.58741">
        <ele>1120</ele>
        <time>2019-02-03T10:31:26.000Z</time>
      </trkpt>
      <trkpt lat="42.92749" lon="0.5874">
        <ele>1120</ele>
        <time>2019-02-03T10:31:27.000Z</time>
      </trkpt>
      <trkpt lat="42.92749" lon="0.58741">
        <ele>1120</ele>
        <time>2019-02-03T10:31:28.000Z</time>
      </trkpt>
      <trkpt lat="42.92749" lon="0.58741">
        <ele>1120</ele>
        <time>2019-02-03T10:31:29.000Z</time>
      </trkpt>
      <trkpt lat="42.92748" lon="0.58742">
        <ele>1120</ele>
        <time>2019-02-03T10:31:30.000Z</time>
      </trkpt>
      <trkpt lat="42.92748" lon="0.58744">
        <ele>1120</ele>
        <time>2019-02-03T10:31:31.000Z</time>
      </trkpt>
      <trkpt lat="42.92748" lon="0.58745">
        <ele>1120</ele>
        <time>2019-02-03T10:31:32.000Z</time>
      </trkpt>
      <trkpt lat="42.92747" lon="0.58746">
        <ele>1120</ele>
        <time>2019-02-03T10:31:33.000Z</time>
      </trkpt>
      <trkpt lat="42.92747" lon="0.58746">
        <ele>1120</ele>
        <time>2019-02-03T10:31:34.000Z</time>
      </trkpt>
      <trkpt lat="42.92747" lon="0.58746">
        <ele>1120</ele>
        <time>2019-02-03T10:31:35.000Z</time>
      </trkpt>
      <trkpt lat="42.92746" lon="0.58746">
        <ele>1120</ele>
        <time>2019-02-03T10:31:36.000Z</time>
      </trkpt>
      <trkpt lat="42.92746" lon="0.58746">
        <ele>1120</ele>
        <time>2019-02-03T10:31:37.000Z</time>
      </trkpt>
      <trkpt lat="42.92746" lon="0.58746">
        <ele>1120</ele>
        <time>2019-02-03T10:31:38.000Z</time>
      </trkpt>
      <trkpt lat="42.92746" lon="0.58746">
        <ele>1120</ele>
        <time>2019-02-03T10:31:39.000Z</time>
      </trkpt>
      <trkpt lat="42.92746" lon="0.58745">
        <ele>1120</ele>
        <time>2019-02-03T10:31:40.000Z</time>
      </trkpt>
      <trkpt lat="42.92746" lon="0.58745">
        <ele>1120</ele>
        <time>2019-02-03T10:31:41.000Z</time>
      </trkpt>
      <trkpt lat="42.92746" lon="0.58745">
        <ele>1120</ele>
        <time>2019-02-03T10:31:42.000Z</time>
      </trkpt>
      <trkpt lat="42.92746" lon="0.58745">
        <ele>1120</ele>
        <time>2019-02-03T10:31:43.000Z</time>
      </trkpt>
      <trkpt lat="42.92746" lon="0.58744">
        <ele>1120</ele>
        <time>2019-02-03T10:31:44.000Z</time>
      </trkpt>
      <trkpt lat="42.92747" lon="0.58744">
        <ele>1120</ele>
        <time>2019-02-03T10:31:45.000Z</time>
      </trkpt>
      <trkpt lat="42.92747" lon="0.58744">
        <ele>1120</ele>
        <time>2019-02-03T10:31:46.000Z</time>
      </trkpt>
      <trkpt lat="42.92747" lon="0.58744">
        <ele>1120</ele>
        <time>2019-02-03T10:31:47.000Z</time>
      </trkpt>
      <trkpt lat="42.92748" lon="0.58744">
        <ele>1120</ele>
        <time>2019-02-03T10:31:48.000Z</time>
      </trkpt>
      <trkpt lat="42.92748" lon="0.58744">
        <ele>1120</ele>
        <time>2019-02-03T10:31:49.000Z</time>
      </trkpt>
      <trkpt lat="42.92748" lon="0.58744">
        <ele>1120</ele>
        <time>2019-02-03T10:31:50.000Z</time>
      </trkpt>
      <trkpt lat="42.92748" lon="0.58744">
        <ele>1120</ele>
        <time>2019-02-03T10:31:51.000Z</time>
      </trkpt>
      <trkpt lat="42.92748" lon="0.58744">
        <ele>1120</ele>
        <time>2019-02-03T10:31:52.000Z</time>
      </trkpt>
      <trkpt lat="42.92748" lon="0.58745">
        <ele>1120</ele>
        <time>2019-02-03T10:31:53.000Z</time>
      </trkpt>
      <trkpt lat="42.92748" lon="0.58745">
        <ele>1120.3</ele>
        <time>2019-02-03T10:31:54.000Z</time>
      </trkpt>
      <trkpt lat="42.92748" lon="0.58745">
        <ele>1120.7</ele>
        <time>2019-02-03T10:31:55.000Z</time>
      </trkpt>
      <trkpt lat="42.92748" lon="0.58745">
        <ele>1121</ele>
        <time>2019-02-03T10:31:56.000Z</time>
      </trkpt>
      <trkpt lat="42.92748" lon="0.58745">
        <ele>1121</ele>
        <time>2019-02-03T10:31:57.000Z</time>
      </trkpt>
      <trkpt lat="42.92748" lon="0.58745">
        <ele>1121</ele>
        <time>2019-02-03T10:31:58.000Z</time>
      </trkpt>
      <trkpt lat="42.92748" lon="0.58746">
        <ele>1121</ele>
        <time>2019-02-03T10:31:59.000Z</time>
      </trkpt>
      <trkpt lat="42.92748" lon="0.58746">
        <ele>1121</ele>
        <time>2019-02-03T10:32:00.000Z</time>
      </trkpt>
      <trkpt lat="42.92748" lon="0.58746">
        <ele>1121</ele>
        <time>2019-02-03T10:32:01.000Z</time>
      </trkpt>
      <trkpt lat="42.92748" lon="0.58746">
        <ele>1121</ele>
        <time>2019-02-03T10:32:02.000Z</time>
      </trkpt>
      <trkpt lat="42.92747" lon="0.58747">
        <ele>1121</ele>
        <time>2019-02-03T10:32:03.000Z</time>
      </trkpt>
      <trkpt lat="42.92747" lon="0.58747">
        <ele>1121</ele>
        <time>2019-02-03T10:32:04.000Z</time>
      </trkpt>
      <trkpt lat="42.92747" lon="0.58747">
        <ele>1121</ele>
        <time>2019-02-03T10:32:05.000Z</time>
      </trkpt>
      <trkpt lat="42.92747" lon="0.58748">
        <ele>1121</ele>
        <time>2019-02-03T10:32:06.000Z</time>
      </trkpt>
      <trkpt lat="42.92747" lon="0.58748">
        <ele>1121</ele>
        <time>2019-02-03T10:32:07.000Z</time>
      </trkpt>
      <trkpt lat="42.92747" lon="0.58749">
        <ele>1121</ele>
        <time>2019-02-03T10:32:08.000Z</time>
      </trkpt>
      <trkpt lat="42.92746" lon="0.58749">
        <ele>1121</ele>
        <time>2019-02-03T10:32:09.000Z</time>
      </trkpt>
      <trkpt lat="42.92746" lon="0.5875">
        <ele>1121</ele>
        <time>2019-02-03T10:32:10.000Z</time>
      </trkpt>
      <trkpt lat="42.92745" lon="0.5875">
        <ele>1121</ele>
        <time>2019-02-03T10:32:11.000Z</time>
      </trkpt>
      <trkpt lat="42.92744" lon="0.58751">
        <ele>1121</ele>
        <time>2019-02-03T10:32:12.000Z</time>
      </trkpt>
      <trkpt lat="42.92744" lon="0.58751">
        <ele>1121</ele>
        <time>2019-02-03T10:32:13.000Z</time>
      </trkpt>
      <trkpt lat="42.92743" lon="0.58752">
        <ele>1121</ele>
        <time>2019-02-03T10:32:14.000Z</time>
      </trkpt>
      <trkpt lat="42.92742" lon="0.58752">
        <ele>1121</ele>
        <time>2019-02-03T10:32:15.000Z</time>
      </trkpt>
      <trkpt lat="42.92741" lon="0.58752">
        <ele>1121</ele>
        <time>2019-02-03T10:32:16.000Z</time>
      </trkpt>
      <trkpt lat="42.9274" lon="0.58753">
        <ele>1121</ele>
        <time>2019-02-03T10:32:17.000Z</time>
      </trkpt>
      <trkpt lat="42.9274" lon="0.58753">
        <ele>1121</ele>
        <time>2019-02-03T10:32:18.000Z</time>
      </trkpt>
      <trkpt lat="42.9274" lon="0.58753">
        <ele>1121</ele>
        <time>2019-02-03T10:32:19.000Z</time>
      </trkpt>
      <trkpt lat="42.92739" lon="0.58753">
        <ele>1121</ele>
        <time>2019-02-03T10:32:20.000Z</time>
      </trkpt>
      <trkpt lat="42.92739" lon="0.58753">
        <ele>1121</ele>
        <time>2019-02-03T10:32:21.000Z</time>
      </trkpt>
      <trkpt lat="42.92739" lon="0.58753">
        <ele>1121</ele>
        <time>2019-02-03T10:32:30.000Z</time>
      </trkpt>
      <trkpt lat="42.92739" lon="0.58753">
        <ele>1121</ele>
        <time>2019-02-03T10:32:31.000Z</time>
      </trkpt>
      <trkpt lat="42.92739" lon="0.58754">
        <ele>1121</ele>
        <time>2019-02-03T10:32:32.000Z</time>
      </trkpt>
      <trkpt lat="42.92739" lon="0.58754">
        <ele>1121</ele>
        <time>2019-02-03T10:32:33.000Z</time>
      </trkpt>
      <trkpt lat="42.92739" lon="0.58754">
        <ele>1121</ele>
        <time>2019-02-03T10:32:34.000Z</time>
      </trkpt>
      <trkpt lat="42.92739" lon="0.58754">
        <ele>1121</ele>
        <time>2019-02-03T10:32:35.000Z</time>
      </trkpt>
      <trkpt lat="42.92739" lon="0.58754">
        <ele>1121</ele>
        <time>2019-02-03T10:32:36.000Z</time>
      </trkpt>
      <trkpt lat="42.92739" lon="0.58754">
        <ele>1121</ele>
        <time>2019-02-03T10:32:37.000Z</time>
      </trkpt>
      <trkpt lat="42.92739" lon="0.58754">
        <ele>1121</ele>
        <time>2019-02-03T10:32:38.000Z</time>
      </trkpt>
      <trkpt lat="42.92739" lon="0.58754">
        <ele>1121</ele>
        <time>2019-02-03T10:32:39.000Z</time>
      </trkpt>
      <trkpt lat="42.92739" lon="0.58754">
        <ele>1121</ele>
        <time>2019-02-03T10:32:40.000Z</time>
      </trkpt>
      <trkpt lat="42.92739" lon="0.58754">
        <ele>1121</ele>
        <time>2019-02-03T10:32:41.000Z</time>
      </trkpt>
      <trkpt lat="42.92739" lon="0.58754">
        <ele>1120</ele>
        <time>2019-02-03T10:32:42.000Z</time>
      </trkpt>
      <trkpt lat="42.92739" lon="0.58754">
        <ele>1120</ele>
        <time>2019-02-03T10:32:43.000Z</time>
      </trkpt>
      <trkpt lat="42.92739" lon="0.58754">
        <ele>1121</ele>
        <time>2019-02-03T10:32:44.000Z</time>
      </trkpt>
      <trkpt lat="42.92739" lon="0.58754">
        <ele>1121</ele>
        <time>2019-02-03T10:32:45.000Z</time>
      </trkpt>
      <trkpt lat="42.92739" lon="0.58754">
        <ele>1120</ele>
        <time>2019-02-03T10:32:46.000Z</time>
      </trkpt>
      <trkpt lat="42.92739" lon="0.58754">
        <ele>1121</ele>
        <time>2019-02-03T10:32:47.000Z</time>
      </trkpt>
      <trkpt lat="42.92739" lon="0.58754">
        <ele>1120</ele>
        <time>2019-02-03T10:32:48.000Z</time>
      </trkpt>
      <trkpt lat="42.92739" lon="0.58754">
        <ele>1120</ele>
        <time>2019-02-03T10:32:49.000Z</time>
      </trkpt>
      <trkpt lat="42.92739" lon="0.58754">
        <ele>1120</ele>
        <time>2019-02-03T10:32:50.000Z</time>
      </trkpt>
      <trkpt lat="42.92739" lon="0.58754">
        <ele>1120</ele>
        <time>2019-02-03T10:32:51.000Z</time>
      </trkpt>
      <trkpt lat="42.92739" lon="0.58754">
        <ele>1120</ele>
        <time>2019-02-03T10:32:52.000Z</time>
      </trkpt>
      <trkpt lat="42.92739" lon="0.58754">
        <ele>1120</ele>
        <time>2019-02-03T10:32:53.000Z</time>
      </trkpt>
      <trkpt lat="42.92739" lon="0.58754">
        <ele>1120</ele>
        <time>2019-02-03T10:32:54.000Z</time>
      </trkpt>
      <trkpt lat="42.92739" lon="0.58754">
        <ele>1120</ele>
        <time>2019-02-03T10:32:55.000Z</time>
      </trkpt>
      <trkpt lat="42.92739" lon="0.58754">
        <ele>1120</ele>
        <time>2019-02-03T10:32:56.000Z</time>
      </trkpt>
      <trkpt lat="42.92739" lon="0.58754">
        <ele>1120</ele>
        <time>2019-02-03T10:32:57.000Z</time>
      </trkpt>
      <trkpt lat="42.92739" lon="0.58754">
        <ele>1120</ele>
        <time>2019-02-03T10:32:58.000Z</time>
      </trkpt>
      <trkpt lat="42.92739" lon="0.58754">
        <ele>1120</ele>
        <time>2019-02-03T10:32:59.000Z</time>
      </trkpt>
      <trkpt lat="42.92739" lon="0.58754">
        <ele>1120</ele>
        <time>2019-02-03T10:33:00.000Z</time>
      </trkpt>
      <trkpt lat="42.92739" lon="0.58753">
        <ele>1120</ele>
        <time>2019-02-03T10:33:01.000Z</time>
      </trkpt>
      <trkpt lat="42.92739" lon="0.58753">
        <ele>1120</ele>
        <time>2019-02-03T10:33:02.000Z</time>
      </trkpt>
      <trkpt lat="42.92739" lon="0.58753">
        <ele>1120</ele>
        <time>2019-02-03T10:33:03.000Z</time>
      </trkpt>
      <trkpt lat="42.92739" lon="0.58753">
        <ele>1120</ele>
        <time>2019-02-03T10:33:04.000Z</time>
      </trkpt>
      <trkpt lat="42.92739" lon="0.58753">
        <ele>1120</ele>
        <time>2019-02-03T10:33:05.000Z</time>
      </trkpt>
      <trkpt lat="42.92739" lon="0.58753">
        <ele>1120</ele>
        <time>2019-02-03T10:33:06.000Z</time>
      </trkpt>
      <trkpt lat="42.92739" lon="0.58752">
        <ele>1120</ele>
        <time>2019-02-03T10:33:07.000Z</time>
      </trkpt>
      <trkpt lat="42.9274" lon="0.58752">
        <ele>1120</ele>
        <time>2019-02-03T10:33:08.000Z</time>
      </trkpt>
      <trkpt lat="42.9274" lon="0.58751">
        <ele>1120</ele>
        <time>2019-02-03T10:33:09.000Z</time>
      </trkpt>
      <trkpt lat="42.92741" lon="0.58751">
        <ele>1120.5</ele>
        <time>2019-02-03T10:33:10.000Z</time>
      </trkpt>
      <trkpt lat="42.92741" lon="0.5875">
        <ele>1121</ele>
        <time>2019-02-03T10:33:11.000Z</time>
      </trkpt>
      <trkpt lat="42.92742" lon="0.5875">
        <ele>1121</ele>
        <time>2019-02-03T10:33:12.000Z</time>
      </trkpt>
      <trkpt lat="42.92742" lon="0.58749">
        <ele>1121</ele>
        <time>2019-02-03T10:33:13.000Z</time>
      </trkpt>
      <trkpt lat="42.92742" lon="0.58749">
        <ele>1121</ele>
        <time>2019-02-03T10:33:14.000Z</time>
      </trkpt>
      <trkpt lat="42.92743" lon="0.58749">
        <ele>1121</ele>
        <time>2019-02-03T10:33:15.000Z</time>
      </trkpt>
      <trkpt lat="42.92743" lon="0.58749">
        <ele>1121</ele>
        <time>2019-02-03T10:33:16.000Z</time>
      </trkpt>
      <trkpt lat="42.92743" lon="0.58749">
        <ele>1121</ele>
        <time>2019-02-03T10:33:17.000Z</time>
      </trkpt>
      <trkpt lat="42.92743" lon="0.58748">
        <ele>1121</ele>
        <time>2019-02-03T10:33:18.000Z</time>
      </trkpt>
      <trkpt lat="42.92744" lon="0.58748">
        <ele>1121</ele>
        <time>2019-02-03T10:33:19.000Z</time>
      </trkpt>
      <trkpt lat="42.92745" lon="0.58748">
        <ele>1121</ele>
        <time>2019-02-03T10:33:20.000Z</time>
      </trkpt>
      <trkpt lat="42.92747" lon="0.58747">
        <ele>1121</ele>
        <time>2019-02-03T10:33:21.000Z</time>
      </trkpt>
      <trkpt lat="42.92748" lon="0.58747">
        <ele>1121</ele>
        <time>2019-02-03T10:33:22.000Z</time>
      </trkpt>
      <trkpt lat="42.92749" lon="0.58747">
        <ele>1121</ele>
        <time>2019-02-03T10:33:23.000Z</time>
      </trkpt>
      <trkpt lat="42.9275" lon="0.58747">
        <ele>1121</ele>
        <time>2019-02-03T10:33:24.000Z</time>
      </trkpt>
      <trkpt lat="42.92751" lon="0.58746">
        <ele>1121</ele>
        <time>2019-02-03T10:33:25.000Z</time>
      </trkpt>
      <trkpt lat="42.92751" lon="0.58746">
        <ele>1121</ele>
        <time>2019-02-03T10:33:26.000Z</time>
      </trkpt>
      <trkpt lat="42.92752" lon="0.58746">
        <ele>1121</ele>
        <time>2019-02-03T10:33:27.000Z</time>
      </trkpt>
      <trkpt lat="42.92753" lon="0.58746">
        <ele>1121</ele>
        <time>2019-02-03T10:33:28.000Z</time>
      </trkpt>
      <trkpt lat="42.92754" lon="0.58746">
        <ele>1121</ele>
        <time>2019-02-03T10:33:29.000Z</time>
      </trkpt>
      <trkpt lat="42.92754" lon="0.58745">
        <ele>1121</ele>
        <time>2019-02-03T10:33:30.000Z</time>
      </trkpt>
      <trkpt lat="42.92755" lon="0.58745">
        <ele>1121</ele>
        <time>2019-02-03T10:33:31.000Z</time>
      </trkpt>
      <trkpt lat="42.92756" lon="0.58745">
        <ele>1121</ele>
        <time>2019-02-03T10:33:32.000Z</time>
      </trkpt>
      <trkpt lat="42.92756" lon="0.58745">
        <ele>1121</ele>
        <time>2019-02-03T10:33:33.000Z</time>
      </trkpt>
      <trkpt lat="42.92757" lon="0.58745">
        <ele>1121</ele>
        <time>2019-02-03T10:33:34.000Z</time>
      </trkpt>
      <trkpt lat="42.92758" lon="0.58745">
        <ele>1121</ele>
        <time>2019-02-03T10:33:35.000Z</time>
      </trkpt>
      <trkpt lat="42.92759" lon="0.58745">
        <ele>1121</ele>
        <time>2019-02-03T10:33:36.000Z</time>
      </trkpt>
      <trkpt lat="42.92759" lon="0.58745">
        <ele>1121</ele>
        <time>2019-02-03T10:33:37.000Z</time>
      </trkpt>
      <trkpt lat="42.9276" lon="0.58745">
        <ele>1121</ele>
        <time>2019-02-03T10:33:38.000Z</time>
      </trkpt>
      <trkpt lat="42.92761" lon="0.58745">
        <ele>1121</ele>
        <time>2019-02-03T10:33:39.000Z</time>
      </trkpt>
      <trkpt lat="42.92761" lon="0.58745">
        <ele>1121</ele>
        <time>2019-02-03T10:33:40.000Z</time>
      </trkpt>
      <trkpt lat="42.92761" lon="0.58744">
        <ele>1121</ele>
        <time>2019-02-03T10:33:41.000Z</time>
      </trkpt>
      <trkpt lat="42.92761" lon="0.58744">
        <ele>1121</ele>
        <time>2019-02-03T10:33:42.000Z</time>
      </trkpt>
      <trkpt lat="42.92761" lon="0.58744">
        <ele>1121</ele>
        <time>2019-02-03T10:33:43.000Z</time>
      </trkpt>
      <trkpt lat="42.92761" lon="0.58744">
        <ele>1121</ele>
        <time>2019-02-03T10:33:44.000Z</time>
      </trkpt>
      <trkpt lat="42.92762" lon="0.58744">
        <ele>1121</ele>
        <time>2019-02-03T10:33:45.000Z</time>
      </trkpt>
      <trkpt lat="42.92762" lon="0.58744">
        <ele>1121</ele>
        <time>2019-02-03T10:33:46.000Z</time>
      </trkpt>
      <trkpt lat="42.92762" lon="0.58745">
        <ele>1121</ele>
        <time>2019-02-03T10:33:47.000Z</time>
      </trkpt>
      <trkpt lat="42.92762" lon="0.58745">
        <ele>1121</ele>
        <time>2019-02-03T10:33:48.000Z</time>
      </trkpt>
      <trkpt lat="42.92762" lon="0.58745">
        <ele>1121</ele>
        <time>2019-02-03T10:33:49.000Z</time>
      </trkpt>
      <trkpt lat="42.92762" lon="0.58745">
        <ele>1121</ele>
        <time>2019-02-03T10:33:50.000Z</time>
      </trkpt>
      <trkpt lat="42.92761" lon="0.58746">
        <ele>1121</ele>
        <time>2019-02-03T10:33:51.000Z</time>
      </trkpt>
      <trkpt lat="42.92761" lon="0.58746">
        <ele>1121</ele>
        <time>2019-02-03T10:33:52.000Z</time>
      </trkpt>
      <trkpt lat="42.9276" lon="0.58747">
        <ele>1121</ele>
        <time>2019-02-03T10:33:53.000Z</time>
      </trkpt>
      <trkpt lat="42.92759" lon="0.58747">
        <ele>1121</ele>
        <time>2019-02-03T10:33:54.000Z</time>
      </trkpt>
      <trkpt lat="42.92757" lon="0.58747">
        <ele>1121</ele>
        <time>2019-02-03T10:33:55.000Z</time>
      </trkpt>
      <trkpt lat="42.92756" lon="0.58746">
        <ele>1121</ele>
        <time>2019-02-03T10:33:56.000Z</time>
      </trkpt>
      <trkpt lat="42.92755" lon="0.58746">
        <ele>1121</ele>
        <time>2019-02-03T10:33:57.000Z</time>
      </trkpt>
      <trkpt lat="42.92754" lon="0.58746">
        <ele>1121</ele>
        <time>2019-02-03T10:33:58.000Z</time>
      </trkpt>
      <trkpt lat="42.92753" lon="0.58746">
        <ele>1121</ele>
        <time>2019-02-03T10:33:59.000Z</time>
      </trkpt>
      <trkpt lat="42.92751" lon="0.58746">
        <ele>1121</ele>
        <time>2019-02-03T10:34:00.000Z</time>
      </trkpt>
      <trkpt lat="42.9275" lon="0.58746">
        <ele>1121</ele>
        <time>2019-02-03T10:34:01.000Z</time>
      </trkpt>
      <trkpt lat="42.92749" lon="0.58746">
        <ele>1121</ele>
        <time>2019-02-03T10:34:02.000Z</time>
      </trkpt>
      <trkpt lat="42.92748" lon="0.58747">
        <ele>1121</ele>
        <time>2019-02-03T10:34:03.000Z</time>
      </trkpt>
      <trkpt lat="42.92747" lon="0.58747">
        <ele>1121</ele>
        <time>2019-02-03T10:34:04.000Z</time>
      </trkpt>
      <trkpt lat="42.92747" lon="0.58747">
        <ele>1121</ele>
        <time>2019-02-03T10:34:05.000Z</time>
      </trkpt>
      <trkpt lat="42.92747" lon="0.58747">
        <ele>1121</ele>
        <time>2019-02-03T10:34:06.000Z</time>
      </trkpt>
      <trkpt lat="42.92747" lon="0.58748">
        <ele>1121</ele>
        <time>2019-02-03T10:34:07.000Z</time>
      </trkpt>
      <trkpt lat="42.92746" lon="0.58748">
        <ele>1121</ele>
        <time>2019-02-03T10:34:08.000Z</time>
      </trkpt>
      <trkpt lat="42.92746" lon="0.58748">
        <ele>1121</ele>
        <time>2019-02-03T10:34:09.000Z</time>
      </trkpt>
      <trkpt lat="42.92746" lon="0.58748">
        <ele>1121</ele>
        <time>2019-02-03T10:34:10.000Z</time>
      </trkpt>
      <trkpt lat="42.92746" lon="0.58748">
        <ele>1121</ele>
        <time>2019-02-03T10:34:11.000Z</time>
      </trkpt>
      <trkpt lat="42.92746" lon="0.58748">
        <ele>1121</ele>
        <time>2019-02-03T10:34:12.000Z</time>
      </trkpt>
      <trkpt lat="42.92746" lon="0.58748">
        <ele>1121</ele>
        <time>2019-02-03T10:34:13.000Z</time>
      </trkpt>
      <trkpt lat="42.92746" lon="0.58748">
        <ele>1121</ele>
        <time>2019-02-03T10:34:14.000Z</time>
      </trkpt>
      <trkpt lat="42.92746" lon="0.58748">
        <ele>1121</ele>
        <time>2019-02-03T10:34:15.000Z</time>
      </trkpt>
      <trkpt lat="42.92746" lon="0.58748">
        <ele>1121</ele>
        <time>2019-02-03T10:34:16.000Z</time>
      </trkpt>
      <trkpt lat="42.92746" lon="0.58748">
        <ele>1121</ele>
        <time>2019-02-03T10:34:17.000Z</time>
      </trkpt>
      <trkpt lat="42.92746" lon="0.58748">
        <ele>1121</ele>
        <time>2019-02-03T10:34:18.000Z</time>
      </trkpt>
      <trkpt lat="42.92746" lon="0.58748">
        <ele>1121</ele>
        <time>2019-02-03T10:34:19.000Z</time>
      </trkpt>
      <trkpt lat="42.92746" lon="0.58748">
        <ele>1121</ele>
        <time>2019-02-03T10:34:20.000Z</time>
      </trkpt>
      <trkpt lat="42.92746" lon="0.58748">
        <ele>1121</ele>
        <time>2019-02-03T10:34:21.000Z</time>
      </trkpt>
      <trkpt lat="42.92746" lon="0.58748">
        <ele>1121</ele>
        <time>2019-02-03T10:34:22.000Z</time>
      </trkpt>
      <trkpt lat="42.92747" lon="0.58748">
        <ele>1120.5</ele>
        <time>2019-02-03T10:34:23.000Z</time>
      </trkpt>
      <trkpt lat="42.92747" lon="0.58748">
        <ele>1120</ele>
        <time>2019-02-03T10:34:24.000Z</time>
      </trkpt>
      <trkpt lat="42.92747" lon="0.58748">
        <ele>1120</ele>
        <time>2019-02-03T10:34:25.000Z</time>
      </trkpt>
      <trkpt lat="42.92747" lon="0.58748">
        <ele>1120</ele>
        <time>2019-02-03T10:34:26.000Z</time>
      </trkpt>
      <trkpt lat="42.92747" lon="0.58748">
        <ele>1120</ele>
        <time>2019-02-03T10:34:27.000Z</time>
      </trkpt>
      <trkpt lat="42.92747" lon="0.58749">
        <ele>1120</ele>
        <time>2019-02-03T10:34:28.000Z</time>
      </trkpt>
      <trkpt lat="42.92748" lon="0.58749">
        <ele>1120</ele>
        <time>2019-02-03T10:34:29.000Z</time>
      </trkpt>
      <trkpt lat="42.92748" lon="0.5875">
        <ele>1120</ele>
        <time>2019-02-03T10:34:30.000Z</time>
      </trkpt>
      <trkpt lat="42.92749" lon="0.5875">
        <ele>1120</ele>
        <time>2019-02-03T10:34:31.000Z</time>
      </trkpt>
      <trkpt lat="42.92749" lon="0.5875">
        <ele>1120</ele>
        <time>2019-02-03T10:34:32.000Z</time>
      </trkpt>
      <trkpt lat="42.9275" lon="0.58749">
        <ele>1120</ele>
        <time>2019-02-03T10:34:33.000Z</time>
      </trkpt>
      <trkpt lat="42.92751" lon="0.58749">
        <ele>1120</ele>
        <time>2019-02-03T10:34:34.000Z</time>
      </trkpt>
      <trkpt lat="42.92751" lon="0.58749">
        <ele>1120</ele>
        <time>2019-02-03T10:34:35.000Z</time>
      </trkpt>
      <trkpt lat="42.92752" lon="0.58748">
        <ele>1120</ele>
        <time>2019-02-03T10:34:36.000Z</time>
      </trkpt>
      <trkpt lat="42.92753" lon="0.58748">
        <ele>1120</ele>
        <time>2019-02-03T10:34:37.000Z</time>
      </trkpt>
      <trkpt lat="42.92754" lon="0.58748">
        <ele>1120</ele>
        <time>2019-02-03T10:34:38.000Z</time>
      </trkpt>
      <trkpt lat="42.92755" lon="0.58748">
        <ele>1120</ele>
        <time>2019-02-03T10:34:39.000Z</time>
      </trkpt>
      <trkpt lat="42.92755" lon="0.58747">
        <ele>1120</ele>
        <time>2019-02-03T10:34:40.000Z</time>
      </trkpt>
      <trkpt lat="42.92756" lon="0.58747">
        <ele>1120</ele>
        <time>2019-02-03T10:34:41.000Z</time>
      </trkpt>
      <trkpt lat="42.92756" lon="0.58747">
        <ele>1120</ele>
        <time>2019-02-03T10:34:42.000Z</time>
      </trkpt>
      <trkpt lat="42.92757" lon="0.58747">
        <ele>1120.5</ele>
        <time>2019-02-03T10:34:43.000Z</time>
      </trkpt>
      <trkpt lat="42.92757" lon="0.58746">
        <ele>1121</ele>
        <time>2019-02-03T10:34:44.000Z</time>
      </trkpt>
      <trkpt lat="42.92757" lon="0.58746">
        <ele>1121</ele>
        <time>2019-02-03T10:34:45.000Z</time>
      </trkpt>
      <trkpt lat="42.92758" lon="0.58746">
        <ele>1121</ele>
        <time>2019-02-03T10:34:46.000Z</time>
      </trkpt>
      <trkpt lat="42.92758" lon="0.58746">
        <ele>1121</ele>
        <time>2019-02-03T10:34:47.000Z</time>
      </trkpt>
      <trkpt lat="42.92758" lon="0.58746">
        <ele>1120.7</ele>
        <time>2019-02-03T10:34:48.000Z</time>
      </trkpt>
      <trkpt lat="42.92759" lon="0.58745">
        <ele>1120.3</ele>
        <time>2019-02-03T10:34:49.000Z</time>
      </trkpt>
      <trkpt lat="42.92759" lon="0.58745">
        <ele>1120</ele>
        <time>2019-02-03T10:34:50.000Z</time>
      </trkpt>
      <trkpt lat="42.9276" lon="0.58745">
        <ele>1120.5</ele>
        <time>2019-02-03T10:34:51.000Z</time>
      </trkpt>
      <trkpt lat="42.9276" lon="0.58745">
        <ele>1121</ele>
        <time>2019-02-03T10:34:52.000Z</time>
      </trkpt>
      <trkpt lat="42.92761" lon="0.58745">
        <ele>1121</ele>
        <time>2019-02-03T10:34:53.000Z</time>
      </trkpt>
      <trkpt lat="42.92761" lon="0.58745">
        <ele>1121</ele>
        <time>2019-02-03T10:34:54.000Z</time>
      </trkpt>
      <trkpt lat="42.92762" lon="0.58745">
        <ele>1121</ele>
        <time>2019-02-03T10:34:55.000Z</time>
      </trkpt>
      <trkpt lat="42.92762" lon="0.58745">
        <ele>1121</ele>
        <time>2019-02-03T10:34:56.000Z</time>
      </trkpt>
      <trkpt lat="42.92763" lon="0.58745">
        <ele>1121</ele>
        <time>2019-02-03T10:34:57.000Z</time>
      </trkpt>
      <trkpt lat="42.92763" lon="0.58746">
        <ele>1121</ele>
        <time>2019-02-03T10:34:58.000Z</time>
      </trkpt>
      <trkpt lat="42.92763" lon="0.58746">
        <ele>1121</ele>
        <time>2019-02-03T10:34:59.000Z</time>
      </trkpt>
      <trkpt lat="42.92764" lon="0.58746">
        <ele>1121</ele>
        <time>2019-02-03T10:35:00.000Z</time>
      </trkpt>
      <trkpt lat="42.92764" lon="0.58746">
        <ele>1121</ele>
        <time>2019-02-03T10:35:01.000Z</time>
      </trkpt>
      <trkpt lat="42.92764" lon="0.58746">
        <ele>1121</ele>
        <time>2019-02-03T10:35:02.000Z</time>
      </trkpt>
      <trkpt lat="42.92765" lon="0.58746">
        <ele>1121</ele>
        <time>2019-02-03T10:35:03.000Z</time>
      </trkpt>
      <trkpt lat="42.92765" lon="0.58746">
        <ele>1121</ele>
        <time>2019-02-03T10:35:04.000Z</time>
      </trkpt>
      <trkpt lat="42.92765" lon="0.58747">
        <ele>1121</ele>
        <time>2019-02-03T10:35:05.000Z</time>
      </trkpt>
      <trkpt lat="42.92765" lon="0.58747">
        <ele>1121</ele>
        <time>2019-02-03T10:35:06.000Z</time>
      </trkpt>
      <trkpt lat="42.92765" lon="0.58747">
        <ele>1121</ele>
        <time>2019-02-03T10:35:07.000Z</time>
      </trkpt>
      <trkpt lat="42.92765" lon="0.58748">
        <ele>1121</ele>
        <time>2019-02-03T10:35:08.000Z</time>
      </trkpt>
      <trkpt lat="42.92765" lon="0.58748">
        <ele>1121</ele>
        <time>2019-02-03T10:35:09.000Z</time>
      </trkpt>
      <trkpt lat="42.92765" lon="0.58748">
        <ele>1121</ele>
        <time>2019-02-03T10:35:10.000Z</time>
      </trkpt>
      <trkpt lat="42.92765" lon="0.58748">
        <ele>1121</ele>
        <time>2019-02-03T10:35:11.000Z</time>
      </trkpt>
      <trkpt lat="42.92765" lon="0.58748">
        <ele>1121</ele>
        <time>2019-02-03T10:35:12.000Z</time>
      </trkpt>
      <trkpt lat="42.92766" lon="0.58748">
        <ele>1121</ele>
        <time>2019-02-03T10:35:13.000Z</time>
      </trkpt>
      <trkpt lat="42.92766" lon="0.58748">
        <ele>1121</ele>
        <time>2019-02-03T10:35:14.000Z</time>
      </trkpt>
      <trkpt lat="42.92766" lon="0.58747">
        <ele>1121</ele>
        <time>2019-02-03T10:35:15.000Z</time>
      </trkpt>
      <trkpt lat="42.92767" lon="0.58747">
        <ele>1121</ele>
        <time>2019-02-03T10:35:16.000Z</time>
      </trkpt>
      <trkpt lat="42.92767" lon="0.58746">
        <ele>1121</ele>
        <time>2019-02-03T10:35:17.000Z</time>
      </trkpt>
      <trkpt lat="42.92768" lon="0.58746">
        <ele>1121</ele>
        <time>2019-02-03T10:35:18.000Z</time>
      </trkpt>
      <trkpt lat="42.92768" lon="0.58746">
        <ele>1121</ele>
        <time>2019-02-03T10:35:19.000Z</time>
      </trkpt>
      <trkpt lat="42.92768" lon="0.58745">
        <ele>1121</ele>
        <time>2019-02-03T10:35:20.000Z</time>
      </trkpt>
      <trkpt lat="42.92768" lon="0.58745">
        <ele>1121</ele>
        <time>2019-02-03T10:35:21.000Z</time>
      </trkpt>
      <trkpt lat="42.92768" lon="0.58745">
        <ele>1121</ele>
        <time>2019-02-03T10:35:22.000Z</time>
      </trkpt>
      <trkpt lat="42.92769" lon="0.58745">
        <ele>1121</ele>
        <time>2019-02-03T10:35:23.000Z</time>
      </trkpt>
      <trkpt lat="42.9277" lon="0.58745">
        <ele>1121</ele>
        <time>2019-02-03T10:35:24.000Z</time>
      </trkpt>
      <trkpt lat="42.9277" lon="0.58745">
        <ele>1121</ele>
        <time>2019-02-03T10:35:25.000Z</time>
      </trkpt>
      <trkpt lat="42.92771" lon="0.58745">
        <ele>1121</ele>
        <time>2019-02-03T10:35:26.000Z</time>
      </trkpt>
      <trkpt lat="42.92771" lon="0.58745">
        <ele>1121</ele>
        <time>2019-02-03T10:35:27.000Z</time>
      </trkpt>
      <trkpt lat="42.92772" lon="0.58745">
        <ele>1121</ele>
        <time>2019-02-03T10:35:28.000Z</time>
      </trkpt>
      <trkpt lat="42.92772" lon="0.58745">
        <ele>1121</ele>
        <time>2019-02-03T10:35:29.000Z</time>
      </trkpt>
      <trkpt lat="42.92772" lon="0.58745">
        <ele>1121</ele>
        <time>2019-02-03T10:35:30.000Z</time>
      </trkpt>
      <trkpt lat="42.92773" lon="0.58745">
        <ele>1121</ele>
        <time>2019-02-03T10:35:31.000Z</time>
      </trkpt>
      <trkpt lat="42.92773" lon="0.58745">
        <ele>1121</ele>
        <time>2019-02-03T10:35:32.000Z</time>
      </trkpt>
      <trkpt lat="42.92773" lon="0.58745">
        <ele>1121</ele>
        <time>2019-02-03T10:35:33.000Z</time>
      </trkpt>
      <trkpt lat="42.92773" lon="0.58745">
        <ele>1121</ele>
        <time>2019-02-03T10:35:34.000Z</time>
      </trkpt>
      <trkpt lat="42.92773" lon="0.58745">
        <ele>1121</ele>
        <time>2019-02-03T10:35:35.000Z</time>
      </trkpt>
      <trkpt lat="42.92773" lon="0.58745">
        <ele>1121</ele>
        <time>2019-02-03T10:35:36.000Z</time>
      </trkpt>
      <trkpt lat="42.92773" lon="0.58745">
        <ele>1121</ele>
        <time>2019-02-03T10:35:37.000Z</time>
      </trkpt>
      <trkpt lat="42.92773" lon="0.58745">
        <ele>1121</ele>
        <time>2019-02-03T10:35:38.000Z</time>
      </trkpt>
      <trkpt lat="42.92773" lon="0.58745">
        <ele>1121</ele>
        <time>2019-02-03T10:35:39.000Z</time>
      </trkpt>
      <trkpt lat="42.92773" lon="0.58745">
        <ele>1121</ele>
        <time>2019-02-03T10:35:40.000Z</time>
      </trkpt>
      <trkpt lat="42.92773" lon="0.58744">
        <ele>1121</ele>
        <time>2019-02-03T10:35:41.000Z</time>
      </trkpt>
      <trkpt lat="42.92773" lon="0.58744">
        <ele>1121</ele>
        <time>2019-02-03T10:35:42.000Z</time>
      </trkpt>
      <trkpt lat="42.92773" lon="0.58744">
        <ele>1121</ele>
        <time>2019-02-03T10:35:43.000Z</time>
      </trkpt>
      <trkpt lat="42.92773" lon="0.58744">
        <ele>1121</ele>
        <time>2019-02-03T10:35:44.000Z</time>
      </trkpt>
      <trkpt lat="42.92773" lon="0.58744">
        <ele>1121</ele>
        <time>2019-02-03T10:35:45.000Z</time>
      </trkpt>
      <trkpt lat="42.92773" lon="0.58744">
        <ele>1121</ele>
        <time>2019-02-03T10:35:46.000Z</time>
      </trkpt>
      <trkpt lat="42.92774" lon="0.58744">
        <ele>1121</ele>
        <time>2019-02-03T10:35:47.000Z</time>
      </trkpt>
      <trkpt lat="42.92774" lon="0.58744">
        <ele>1121</ele>
        <time>2019-02-03T10:35:48.000Z</time>
      </trkpt>
      <trkpt lat="42.92774" lon="0.58744">
        <ele>1121</ele>
        <time>2019-02-03T10:35:49.000Z</time>
      </trkpt>
      <trkpt lat="42.92774" lon="0.58744">
        <ele>1121</ele>
        <time>2019-02-03T10:35:50.000Z</time>
      </trkpt>
      <trkpt lat="42.92775" lon="0.58744">
        <ele>1121</ele>
        <time>2019-02-03T10:35:51.000Z</time>
      </trkpt>
      <trkpt lat="42.92775" lon="0.58743">
        <ele>1121</ele>
        <time>2019-02-03T10:35:52.000Z</time>
      </trkpt>
      <trkpt lat="42.92775" lon="0.58743">
        <ele>1121</ele>
        <time>2019-02-03T10:35:53.000Z</time>
      </trkpt>
      <trkpt lat="42.92776" lon="0.58743">
        <ele>1121</ele>
        <time>2019-02-03T10:35:54.000Z</time>
      </trkpt>
      <trkpt lat="42.92776" lon="0.58743">
        <ele>1121</ele>
        <time>2019-02-03T10:35:55.000Z</time>
      </trkpt>
      <trkpt lat="42.92777" lon="0.58743">
        <ele>1121</ele>
        <time>2019-02-03T10:35:56.000Z</time>
      </trkpt>
      <trkpt lat="42.92777" lon="0.58743">
        <ele>1121</ele>
        <time>2019-02-03T10:35:57.000Z</time>
      </trkpt>
      <trkpt lat="42.92778" lon="0.58743">
        <ele>1121</ele>
        <time>2019-02-03T10:35:58.000Z</time>
      </trkpt>
      <trkpt lat="42.92778" lon="0.58743">
        <ele>1121</ele>
        <time>2019-02-03T10:35:59.000Z</time>
      </trkpt>
      <trkpt lat="42.92779" lon="0.58743">
        <ele>1121</ele>
        <time>2019-02-03T10:36:00.000Z</time>
      </trkpt>
      <trkpt lat="42.9278" lon="0.58742">
        <ele>1121</ele>
        <time>2019-02-03T10:36:01.000Z</time>
      </trkpt>
      <trkpt lat="42.9278" lon="0.58742">
        <ele>1121</ele>
        <time>2019-02-03T10:36:02.000Z</time>
      </trkpt>
      <trkpt lat="42.92781" lon="0.58742">
        <ele>1121</ele>
        <time>2019-02-03T10:36:03.000Z</time>
      </trkpt>
      <trkpt lat="42.92782" lon="0.58741">
        <ele>1121</ele>
        <time>2019-02-03T10:36:04.000Z</time>
      </trkpt>
      <trkpt lat="42.92782" lon="0.58741">
        <ele>1121</ele>
        <time>2019-02-03T10:36:05.000Z</time>
      </trkpt>
      <trkpt lat="42.92783" lon="0.58741">
        <ele>1121</ele>
        <time>2019-02-03T10:36:06.000Z</time>
      </trkpt>
      <trkpt lat="42.92783" lon="0.5874">
        <ele>1121</ele>
        <time>2019-02-03T10:36:07.000Z</time>
      </trkpt>
      <trkpt lat="42.92783" lon="0.5874">
        <ele>1121</ele>
        <time>2019-02-03T10:36:08.000Z</time>
      </trkpt>
      <trkpt lat="42.92784" lon="0.5874">
        <ele>1121</ele>
        <time>2019-02-03T10:36:09.000Z</time>
      </trkpt>
      <trkpt lat="42.92783" lon="0.5874">
        <ele>1121</ele>
        <time>2019-02-03T10:36:10.000Z</time>
      </trkpt>
      <trkpt lat="42.92783" lon="0.58741">
        <ele>1121.5</ele>
        <time>2019-02-03T10:36:11.000Z</time>
      </trkpt>
      <trkpt lat="42.92783" lon="0.58741">
        <ele>1122</ele>
        <time>2019-02-03T10:36:12.000Z</time>
      </trkpt>
      <trkpt lat="42.92783" lon="0.58741">
        <ele>1121.5</ele>
        <time>2019-02-03T10:36:13.000Z</time>
      </trkpt>
      <trkpt lat="42.92782" lon="0.58742">
        <ele>1121</ele>
        <time>2019-02-03T10:36:14.000Z</time>
      </trkpt>
      <trkpt lat="42.92782" lon="0.58742">
        <ele>1121</ele>
        <time>2019-02-03T10:36:15.000Z</time>
      </trkpt>
      <trkpt lat="42.92783" lon="0.58742">
        <ele>1121</ele>
        <time>2019-02-03T10:36:16.000Z</time>
      </trkpt>
      <trkpt lat="42.92783" lon="0.58742">
        <ele>1122</ele>
        <time>2019-02-03T10:36:17.000Z</time>
      </trkpt>
      <trkpt lat="42.92784" lon="0.58742">
        <ele>1122</ele>
        <time>2019-02-03T10:36:18.000Z</time>
      </trkpt>
      <trkpt lat="42.92784" lon="0.58741">
        <ele>1122</ele>
        <time>2019-02-03T10:36:19.000Z</time>
      </trkpt>
      <trkpt lat="42.92784" lon="0.58741">
        <ele>1122</ele>
        <time>2019-02-03T10:36:20.000Z</time>
      </trkpt>
      <trkpt lat="42.92784" lon="0.58741">
        <ele>1122</ele>
        <time>2019-02-03T10:36:21.000Z</time>
      </trkpt>
      <trkpt lat="42.92784" lon="0.58742">
        <ele>1122</ele>
        <time>2019-02-03T10:36:22.000Z</time>
      </trkpt>
      <trkpt lat="42.92783" lon="0.58742">
        <ele>1122</ele>
        <time>2019-02-03T10:36:23.000Z</time>
      </trkpt>
      <trkpt lat="42.92782" lon="0.58742">
        <ele>1122</ele>
        <time>2019-02-03T10:36:24.000Z</time>
      </trkpt>
      <trkpt lat="42.92781" lon="0.58743">
        <ele>1122.5</ele>
        <time>2019-02-03T10:36:25.000Z</time>
      </trkpt>
      <trkpt lat="42.9278" lon="0.58743">
        <ele>1123</ele>
        <time>2019-02-03T10:36:26.000Z</time>
      </trkpt>
      <trkpt lat="42.92779" lon="0.58744">
        <ele>1123</ele>
        <time>2019-02-03T10:36:27.000Z</time>
      </trkpt>
      <trkpt lat="42.92778" lon="0.58745">
        <ele>1123.3</ele>
        <time>2019-02-03T10:36:28.000Z</time>
      </trkpt>
      <trkpt lat="42.92778" lon="0.58745">
        <ele>1123.7</ele>
        <time>2019-02-03T10:36:29.000Z</time>
      </trkpt>
      <trkpt lat="42.92777" lon="0.58746">
        <ele>1124</ele>
        <time>2019-02-03T10:36:30.000Z</time>
      </trkpt>
      <trkpt lat="42.92777" lon="0.58747">
        <ele>1124</ele>
        <time>2019-02-03T10:36:31.000Z</time>
      </trkpt>
      <trkpt lat="42.92777" lon="0.58748">
        <ele>1124</ele>
        <time>2019-02-03T10:36:32.000Z</time>
      </trkpt>
      <trkpt lat="42.92777" lon="0.58749">
        <ele>1124</ele>
        <time>2019-02-03T10:36:33.000Z</time>
      </trkpt>
      <trkpt lat="42.92777" lon="0.5875">
        <ele>1124</ele>
        <time>2019-02-03T10:36:34.000Z</time>
      </trkpt>
      <trkpt lat="42.92777" lon="0.58751">
        <ele>1124.5</ele>
        <time>2019-02-03T10:36:35.000Z</time>
      </trkpt>
      <trkpt lat="42.92777" lon="0.58752">
        <ele>1125</ele>
        <time>2019-02-03T10:36:36.000Z</time>
      </trkpt>
      <trkpt lat="42.92777" lon="0.58753">
        <ele>1125</ele>
        <time>2019-02-03T10:36:37.000Z</time>
      </trkpt>
      <trkpt lat="42.92778" lon="0.58754">
        <ele>1125</ele>
        <time>2019-02-03T10:36:38.000Z</time>
      </trkpt>
      <trkpt lat="42.92778" lon="0.58755">
        <ele>1125</ele>
        <time>2019-02-03T10:36:39.000Z</time>
      </trkpt>
      <trkpt lat="42.92778" lon="0.58755">
        <ele>1125.3</ele>
        <time>2019-02-03T10:36:40.000Z</time>
      </trkpt>
      <trkpt lat="42.92779" lon="0.58756">
        <ele>1125.7</ele>
        <time>2019-02-03T10:36:41.000Z</time>
      </trkpt>
      <trkpt lat="42.92779" lon="0.58757">
        <ele>1126</ele>
        <time>2019-02-03T10:36:42.000Z</time>
      </trkpt>
      <trkpt lat="42.92779" lon="0.58757">
        <ele>1126</ele>
        <time>2019-02-03T10:36:43.000Z</time>
      </trkpt>
      <trkpt lat="42.9278" lon="0.58758">
        <ele>1126</ele>
        <time>2019-02-03T10:36:44.000Z</time>
      </trkpt>
      <trkpt lat="42.9278" lon="0.58758">
        <ele>1126</ele>
        <time>2019-02-03T10:36:45.000Z</time>
      </trkpt>
      <trkpt lat="42.9278" lon="0.58758">
        <ele>1126</ele>
        <time>2019-02-03T10:36:46.000Z</time>
      </trkpt>
      <trkpt lat="42.92781" lon="0.58758">
        <ele>1126.5</ele>
        <time>2019-02-03T10:36:47.000Z</time>
      </trkpt>
      <trkpt lat="42.92781" lon="0.58759">
        <ele>1127</ele>
        <time>2019-02-03T10:36:48.000Z</time>
      </trkpt>
      <trkpt lat="42.92781" lon="0.58759">
        <ele>1127</ele>
        <time>2019-02-03T10:36:49.000Z</time>
      </trkpt>
      <trkpt lat="42.92781" lon="0.58759">
        <ele>1127</ele>
        <time>2019-02-03T10:36:50.000Z</time>
      </trkpt>
      <trkpt lat="42.92782" lon="0.58759">
        <ele>1127</ele>
        <time>2019-02-03T10:36:51.000Z</time>
      </trkpt>
      <trkpt lat="42.92782" lon="0.5876">
        <ele>1127</ele>
        <time>2019-02-03T10:36:52.000Z</time>
      </trkpt>
      <trkpt lat="42.92782" lon="0.5876">
        <ele>1127.5</ele>
        <time>2019-02-03T10:36:53.000Z</time>
      </trkpt>
      <trkpt lat="42.92782" lon="0.5876">
        <ele>1128</ele>
        <time>2019-02-03T10:36:54.000Z</time>
      </trkpt>
      <trkpt lat="42.92783" lon="0.58761">
        <ele>1128</ele>
        <time>2019-02-03T10:36:55.000Z</time>
      </trkpt>
      <trkpt lat="42.92783" lon="0.58761">
        <ele>1128</ele>
        <time>2019-02-03T10:36:56.000Z</time>
      </trkpt>
      <trkpt lat="42.92783" lon="0.58761">
        <ele>1128</ele>
        <time>2019-02-03T10:36:57.000Z</time>
      </trkpt>
      <trkpt lat="42.92783" lon="0.58762">
        <ele>1128.3</ele>
        <time>2019-02-03T10:36:58.000Z</time>
      </trkpt>
      <trkpt lat="42.92784" lon="0.58762">
        <ele>1128.7</ele>
        <time>2019-02-03T10:36:59.000Z</time>
      </trkpt>
      <trkpt lat="42.92784" lon="0.58762">
        <ele>1129</ele>
        <time>2019-02-03T10:37:00.000Z</time>
      </trkpt>
      <trkpt lat="42.92784" lon="0.58763">
        <ele>1129</ele>
        <time>2019-02-03T10:37:01.000Z</time>
      </trkpt>
      <trkpt lat="42.92784" lon="0.58763">
        <ele>1129</ele>
        <time>2019-02-03T10:37:02.000Z</time>
      </trkpt>
      <trkpt lat="42.92784" lon="0.58763">
        <ele>1129</ele>
        <time>2019-02-03T10:37:03.000Z</time>
      </trkpt>
      <trkpt lat="42.92784" lon="0.58763">
        <ele>1129</ele>
        <time>2019-02-03T10:37:04.000Z</time>
      </trkpt>
      <trkpt lat="42.92784" lon="0.58763">
        <ele>1129</ele>
        <time>2019-02-03T10:37:05.000Z</time>
      </trkpt>
      <trkpt lat="42.92784" lon="0.58763">
        <ele>1129</ele>
        <time>2019-02-03T10:37:06.000Z</time>
      </trkpt>
      <trkpt lat="42.92784" lon="0.58763">
        <ele>1129.5</ele>
        <time>2019-02-03T10:37:07.000Z</time>
      </trkpt>
      <trkpt lat="42.92784" lon="0.58763">
        <ele>1130</ele>
        <time>2019-02-03T10:37:08.000Z</time>
      </trkpt>
      <trkpt lat="42.92784" lon="0.58763">
        <ele>1130</ele>
        <time>2019-02-03T10:37:09.000Z</time>
      </trkpt>
      <trkpt lat="42.92783" lon="0.58764">
        <ele>1130</ele>
        <time>2019-02-03T10:37:10.000Z</time>
      </trkpt>
      <trkpt lat="42.92782" lon="0.58764">
        <ele>1130</ele>
        <time>2019-02-03T10:37:11.000Z</time>
      </trkpt>
      <trkpt lat="42.92782" lon="0.58764">
        <ele>1130</ele>
        <time>2019-02-03T10:37:12.000Z</time>
      </trkpt>
      <trkpt lat="42.92781" lon="0.58765">
        <ele>1130</ele>
        <time>2019-02-03T10:37:13.000Z</time>
      </trkpt>
      <trkpt lat="42.9278" lon="0.58766">
        <ele>1130</ele>
        <time>2019-02-03T10:37:14.000Z</time>
      </trkpt>
      <trkpt lat="42.9278" lon="0.58767">
        <ele>1131</ele>
        <time>2019-02-03T10:37:15.000Z</time>
      </trkpt>
      <trkpt lat="42.9278" lon="0.58768">
        <ele>1131</ele>
        <time>2019-02-03T10:37:16.000Z</time>
      </trkpt>
      <trkpt lat="42.9278" lon="0.58769">
        <ele>1131</ele>
        <time>2019-02-03T10:37:17.000Z</time>
      </trkpt>
      <trkpt lat="42.9278" lon="0.5877">
        <ele>1131</ele>
        <time>2019-02-03T10:37:18.000Z</time>
      </trkpt>
      <trkpt lat="42.9278" lon="0.58771">
        <ele>1131</ele>
        <time>2019-02-03T10:37:19.000Z</time>
      </trkpt>
      <trkpt lat="42.92779" lon="0.58772">
        <ele>1131</ele>
        <time>2019-02-03T10:37:20.000Z</time>
      </trkpt>
      <trkpt lat="42.92779" lon="0.58772">
        <ele>1131</ele>
        <time>2019-02-03T10:37:21.000Z</time>
      </trkpt>
      <trkpt lat="42.92779" lon="0.58773">
        <ele>1131</ele>
        <time>2019-02-03T10:37:22.000Z</time>
      </trkpt>
      <trkpt lat="42.92778" lon="0.58774">
        <ele>1131.5</ele>
        <time>2019-02-03T10:37:23.000Z</time>
      </trkpt>
      <trkpt lat="42.92778" lon="0.58774">
        <ele>1132</ele>
        <time>2019-02-03T10:37:24.000Z</time>
      </trkpt>
      <trkpt lat="42.92777" lon="0.58775">
        <ele>1132</ele>
        <time>2019-02-03T10:37:25.000Z</time>
      </trkpt>
      <trkpt lat="42.92777" lon="0.58776">
        <ele>1132</ele>
        <time>2019-02-03T10:37:26.000Z</time>
      </trkpt>
      <trkpt lat="42.92776" lon="0.58776">
        <ele>1132</ele>
        <time>2019-02-03T10:37:27.000Z</time>
      </trkpt>
      <trkpt lat="42.92776" lon="0.58777">
        <ele>1132</ele>
        <time>2019-02-03T10:37:28.000Z</time>
      </trkpt>
      <trkpt lat="42.92776" lon="0.58777">
        <ele>1132</ele>
        <time>2019-02-03T10:37:29.000Z</time>
      </trkpt>
      <trkpt lat="42.92776" lon="0.58778">
        <ele>1132</ele>
        <time>2019-02-03T10:37:30.000Z</time>
      </trkpt>
      <trkpt lat="42.92776" lon="0.58778">
        <ele>1132.5</ele>
        <time>2019-02-03T10:37:31.000Z</time>
      </trkpt>
      <trkpt lat="42.92777" lon="0.58778">
        <ele>1133</ele>
        <time>2019-02-03T10:37:32.000Z</time>
      </trkpt>
      <trkpt lat="42.92777" lon="0.58779">
        <ele>1133</ele>
        <time>2019-02-03T10:37:33.000Z</time>
      </trkpt>
      <trkpt lat="42.92778" lon="0.58779">
        <ele>1133</ele>
        <time>2019-02-03T10:37:34.000Z</time>
      </trkpt>
      <trkpt lat="42.92778" lon="0.5878">
        <ele>1133</ele>
        <time>2019-02-03T10:37:35.000Z</time>
      </trkpt>
      <trkpt lat="42.92779" lon="0.5878">
        <ele>1133</ele>
        <time>2019-02-03T10:37:36.000Z</time>
      </trkpt>
      <trkpt lat="42.92779" lon="0.5878">
        <ele>1133</ele>
        <time>2019-02-03T10:37:37.000Z</time>
      </trkpt>
      <trkpt lat="42.92779" lon="0.58781">
        <ele>1133</ele>
        <time>2019-02-03T10:37:38.000Z</time>
      </trkpt>
      <trkpt lat="42.9278" lon="0.58781">
        <ele>1133.5</ele>
        <time>2019-02-03T10:37:39.000Z</time>
      </trkpt>
      <trkpt lat="42.9278" lon="0.58782">
        <ele>1134</ele>
        <time>2019-02-03T10:37:40.000Z</time>
      </trkpt>
      <trkpt lat="42.9278" lon="0.58782">
        <ele>1134</ele>
        <time>2019-02-03T10:37:41.000Z</time>
      </trkpt>
      <trkpt lat="42.9278" lon="0.58783">
        <ele>1134</ele>
        <time>2019-02-03T10:37:42.000Z</time>
      </trkpt>
      <trkpt lat="42.92779" lon="0.58783">
        <ele>1134</ele>
        <time>2019-02-03T10:37:43.000Z</time>
      </trkpt>
      <trkpt lat="42.92779" lon="0.58784">
        <ele>1134</ele>
        <time>2019-02-03T10:37:44.000Z</time>
      </trkpt>
      <trkpt lat="42.92778" lon="0.58785">
        <ele>1134</ele>
        <time>2019-02-03T10:37:45.000Z</time>
      </trkpt>
      <trkpt lat="42.92777" lon="0.58785">
        <ele>1134</ele>
        <time>2019-02-03T10:37:46.000Z</time>
      </trkpt>
      <trkpt lat="42.92777" lon="0.58785">
        <ele>1134.5</ele>
        <time>2019-02-03T10:37:47.000Z</time>
      </trkpt>
      <trkpt lat="42.92776" lon="0.58785">
        <ele>1135</ele>
        <time>2019-02-03T10:37:48.000Z</time>
      </trkpt>
      <trkpt lat="42.92776" lon="0.58786">
        <ele>1135</ele>
        <time>2019-02-03T10:37:49.000Z</time>
      </trkpt>
      <trkpt lat="42.92776" lon="0.58786">
        <ele>1135</ele>
        <time>2019-02-03T10:37:50.000Z</time>
      </trkpt>
      <trkpt lat="42.92777" lon="0.58786">
        <ele>1135</ele>
        <time>2019-02-03T10:37:51.000Z</time>
      </trkpt>
      <trkpt lat="42.92777" lon="0.58787">
        <ele>1135</ele>
        <time>2019-02-03T10:37:52.000Z</time>
      </trkpt>
      <trkpt lat="42.92777" lon="0.58788">
        <ele>1135</ele>
        <time>2019-02-03T10:37:53.000Z</time>
      </trkpt>
      <trkpt lat="42.92777" lon="0.58788">
        <ele>1135</ele>
        <time>2019-02-03T10:37:54.000Z</time>
      </trkpt>
      <trkpt lat="42.92778" lon="0.58789">
        <ele>1135</ele>
        <time>2019-02-03T10:37:55.000Z</time>
      </trkpt>
      <trkpt lat="42.92777" lon="0.5879">
        <ele>1135</ele>
        <time>2019-02-03T10:37:56.000Z</time>
      </trkpt>
      <trkpt lat="42.92776" lon="0.58791">
        <ele>1135</ele>
        <time>2019-02-03T10:37:57.000Z</time>
      </trkpt>
      <trkpt lat="42.92775" lon="0.58792">
        <ele>1135</ele>
        <time>2019-02-03T10:37:58.000Z</time>
      </trkpt>
      <trkpt lat="42.92773" lon="0.58793">
        <ele>1136</ele>
        <time>2019-02-03T10:37:59.000Z</time>
      </trkpt>
      <trkpt lat="42.92772" lon="0.58793">
        <ele>1136</ele>
        <time>2019-02-03T10:38:00.000Z</time>
      </trkpt>
      <trkpt lat="42.92772" lon="0.58793">
        <ele>1136</ele>
        <time>2019-02-03T10:38:01.000Z</time>
      </trkpt>
      <trkpt lat="42.92771" lon="0.58793">
        <ele>1136</ele>
        <time>2019-02-03T10:38:02.000Z</time>
      </trkpt>
      <trkpt lat="42.9277" lon="0.58794">
        <ele>1136</ele>
        <time>2019-02-03T10:38:03.000Z</time>
      </trkpt>
      <trkpt lat="42.92769" lon="0.58795">
        <ele>1136</ele>
        <time>2019-02-03T10:38:04.000Z</time>
      </trkpt>
      <trkpt lat="42.92769" lon="0.58796">
        <ele>1136</ele>
        <time>2019-02-03T10:38:05.000Z</time>
      </trkpt>
      <trkpt lat="42.92768" lon="0.58797">
        <ele>1136</ele>
        <time>2019-02-03T10:38:06.000Z</time>
      </trkpt>
      <trkpt lat="42.92768" lon="0.58798">
        <ele>1137</ele>
        <time>2019-02-03T10:38:07.000Z</time>
      </trkpt>
      <trkpt lat="42.92768" lon="0.58799">
        <ele>1137</ele>
        <time>2019-02-03T10:38:08.000Z</time>
      </trkpt>
      <trkpt lat="42.92768" lon="0.58799">
        <ele>1137</ele>
        <time>2019-02-03T10:38:09.000Z</time>
      </trkpt>
      <trkpt lat="42.92768" lon="0.588">
        <ele>1137</ele>
        <time>2019-02-03T10:38:10.000Z</time>
      </trkpt>
      <trkpt lat="42.92769" lon="0.588">
        <ele>1137</ele>
        <time>2019-02-03T10:38:11.000Z</time>
      </trkpt>
      <trkpt lat="42.92769" lon="0.588">
        <ele>1137</ele>
        <time>2019-02-03T10:38:12.000Z</time>
      </trkpt>
      <trkpt lat="42.9277" lon="0.588">
        <ele>1137.5</ele>
        <time>2019-02-03T10:38:13.000Z</time>
      </trkpt>
      <trkpt lat="42.9277" lon="0.588">
        <ele>1138</ele>
        <time>2019-02-03T10:38:14.000Z</time>
      </trkpt>
      <trkpt lat="42.9277" lon="0.588">
        <ele>1138</ele>
        <time>2019-02-03T10:38:15.000Z</time>
      </trkpt>
      <trkpt lat="42.9277" lon="0.58801">
        <ele>1138</ele>
        <time>2019-02-03T10:38:16.000Z</time>
      </trkpt>
      <trkpt lat="42.9277" lon="0.58801">
        <ele>1138</ele>
        <time>2019-02-03T10:38:17.000Z</time>
      </trkpt>
      <trkpt lat="42.92769" lon="0.58801">
        <ele>1138</ele>
        <time>2019-02-03T10:38:18.000Z</time>
      </trkpt>
      <trkpt lat="42.92769" lon="0.58801">
        <ele>1138</ele>
        <time>2019-02-03T10:38:19.000Z</time>
      </trkpt>
      <trkpt lat="42.92769" lon="0.58801">
        <ele>1138</ele>
        <time>2019-02-03T10:38:20.000Z</time>
      </trkpt>
      <trkpt lat="42.92768" lon="0.58802">
        <ele>1139</ele>
        <time>2019-02-03T10:38:21.000Z</time>
      </trkpt>
      <trkpt lat="42.92768" lon="0.58802">
        <ele>1139</ele>
        <time>2019-02-03T10:38:22.000Z</time>
      </trkpt>
      <trkpt lat="42.92768" lon="0.58802">
        <ele>1139</ele>
        <time>2019-02-03T10:38:23.000Z</time>
      </trkpt>
      <trkpt lat="42.92769" lon="0.58803">
        <ele>1139</ele>
        <time>2019-02-03T10:38:24.000Z</time>
      </trkpt>
      <trkpt lat="42.92769" lon="0.58803">
        <ele>1139.5</ele>
        <time>2019-02-03T10:38:25.000Z</time>
      </trkpt>
      <trkpt lat="42.92769" lon="0.58804">
        <ele>1140</ele>
        <time>2019-02-03T10:38:26.000Z</time>
      </trkpt>
      <trkpt lat="42.9277" lon="0.58804">
        <ele>1140</ele>
        <time>2019-02-03T10:38:27.000Z</time>
      </trkpt>
      <trkpt lat="42.9277" lon="0.58805">
        <ele>1140</ele>
        <time>2019-02-03T10:38:28.000Z</time>
      </trkpt>
      <trkpt lat="42.92771" lon="0.58805">
        <ele>1140</ele>
        <time>2019-02-03T10:38:29.000Z</time>
      </trkpt>
      <trkpt lat="42.92772" lon="0.58806">
        <ele>1140</ele>
        <time>2019-02-03T10:38:30.000Z</time>
      </trkpt>
      <trkpt lat="42.92772" lon="0.58807">
        <ele>1140</ele>
        <time>2019-02-03T10:38:31.000Z</time>
      </trkpt>
      <trkpt lat="42.92773" lon="0.58808">
        <ele>1140</ele>
        <time>2019-02-03T10:38:32.000Z</time>
      </trkpt>
      <trkpt lat="42.92774" lon="0.58809">
        <ele>1140.5</ele>
        <time>2019-02-03T10:38:33.000Z</time>
      </trkpt>
      <trkpt lat="42.92775" lon="0.5881">
        <ele>1141</ele>
        <time>2019-02-03T10:38:34.000Z</time>
      </trkpt>
      <trkpt lat="42.92775" lon="0.58811">
        <ele>1141</ele>
        <time>2019-02-03T10:38:35.000Z</time>
      </trkpt>
      <trkpt lat="42.92776" lon="0.58812">
        <ele>1141</ele>
        <time>2019-02-03T10:38:36.000Z</time>
      </trkpt>
      <trkpt lat="42.92776" lon="0.58813">
        <ele>1141</ele>
        <time>2019-02-03T10:38:37.000Z</time>
      </trkpt>
      <trkpt lat="42.92776" lon="0.58814">
        <ele>1141</ele>
        <time>2019-02-03T10:38:38.000Z</time>
      </trkpt>
      <trkpt lat="42.92775" lon="0.58815">
        <ele>1141</ele>
        <time>2019-02-03T10:38:39.000Z</time>
      </trkpt>
      <trkpt lat="42.92774" lon="0.58816">
        <ele>1141</ele>
        <time>2019-02-03T10:38:40.000Z</time>
      </trkpt>
      <trkpt lat="42.92773" lon="0.58816">
        <ele>1141</ele>
        <time>2019-02-03T10:38:41.000Z</time>
      </trkpt>
      <trkpt lat="42.92772" lon="0.58817">
        <ele>1141.3</ele>
        <time>2019-02-03T10:38:42.000Z</time>
      </trkpt>
      <trkpt lat="42.9277" lon="0.58817">
        <ele>1141.7</ele>
        <time>2019-02-03T10:38:43.000Z</time>
      </trkpt>
      <trkpt lat="42.92768" lon="0.58818">
        <ele>1142</ele>
        <time>2019-02-03T10:38:44.000Z</time>
      </trkpt>
      <trkpt lat="42.92767" lon="0.58818">
        <ele>1142</ele>
        <time>2019-02-03T10:38:45.000Z</time>
      </trkpt>
      <trkpt lat="42.92766" lon="0.58818">
        <ele>1142</ele>
        <time>2019-02-03T10:38:46.000Z</time>
      </trkpt>
      <trkpt lat="42.92765" lon="0.58818">
        <ele>1142</ele>
        <time>2019-02-03T10:38:47.000Z</time>
      </trkpt>
      <trkpt lat="42.92764" lon="0.58818">
        <ele>1142</ele>
        <time>2019-02-03T10:38:48.000Z</time>
      </trkpt>
      <trkpt lat="42.92763" lon="0.58818">
        <ele>1142</ele>
        <time>2019-02-03T10:38:49.000Z</time>
      </trkpt>
      <trkpt lat="42.92762" lon="0.58817">
        <ele>1142</ele>
        <time>2019-02-03T10:38:50.000Z</time>
      </trkpt>
      <trkpt lat="42.92762" lon="0.58817">
        <ele>1142</ele>
        <time>2019-02-03T10:38:51.000Z</time>
      </trkpt>
      <trkpt lat="42.92761" lon="0.58817">
        <ele>1142</ele>
        <time>2019-02-03T10:38:52.000Z</time>
      </trkpt>
      <trkpt lat="42.92761" lon="0.58816">
        <ele>1142</ele>
        <time>2019-02-03T10:38:53.000Z</time>
      </trkpt>
      <trkpt lat="42.92761" lon="0.58816">
        <ele>1142</ele>
        <time>2019-02-03T10:38:54.000Z</time>
      </trkpt>
      <trkpt lat="42.92761" lon="0.58816">
        <ele>1142</ele>
        <time>2019-02-03T10:38:55.000Z</time>
      </trkpt>
      <trkpt lat="42.92761" lon="0.58815">
        <ele>1142</ele>
        <time>2019-02-03T10:38:56.000Z</time>
      </trkpt>
      <trkpt lat="42.9276" lon="0.58815">
        <ele>1142</ele>
        <time>2019-02-03T10:38:57.000Z</time>
      </trkpt>
      <trkpt lat="42.9276" lon="0.58815">
        <ele>1142</ele>
        <time>2019-02-03T10:38:58.000Z</time>
      </trkpt>
      <trkpt lat="42.9276" lon="0.58815">
        <ele>1142</ele>
        <time>2019-02-03T10:38:59.000Z</time>
      </trkpt>
      <trkpt lat="42.9276" lon="0.58815">
        <ele>1142</ele>
        <time>2019-02-03T10:39:00.000Z</time>
      </trkpt>
      <trkpt lat="42.9276" lon="0.58815">
        <ele>1142</ele>
        <time>2019-02-03T10:39:01.000Z</time>
      </trkpt>
      <trkpt lat="42.9276" lon="0.58815">
        <ele>1142.3</ele>
        <time>2019-02-03T10:39:02.000Z</time>
      </trkpt>
      <trkpt lat="42.9276" lon="0.58815">
        <ele>1142.7</ele>
        <time>2019-02-03T10:39:03.000Z</time>
      </trkpt>
      <trkpt lat="42.9276" lon="0.58815">
        <ele>1143</ele>
        <time>2019-02-03T10:39:04.000Z</time>
      </trkpt>
      <trkpt lat="42.9276" lon="0.58815">
        <ele>1143</ele>
        <time>2019-02-03T10:39:05.000Z</time>
      </trkpt>
      <trkpt lat="42.9276" lon="0.58815">
        <ele>1143</ele>
        <time>2019-02-03T10:39:06.000Z</time>
      </trkpt>
      <trkpt lat="42.9276" lon="0.58815">
        <ele>1143</ele>
        <time>2019-02-03T10:39:07.000Z</time>
      </trkpt>
      <trkpt lat="42.9276" lon="0.58815">
        <ele>1143</ele>
        <time>2019-02-03T10:39:08.000Z</time>
      </trkpt>
      <trkpt lat="42.9276" lon="0.58815">
        <ele>1143</ele>
        <time>2019-02-03T10:39:09.000Z</time>
      </trkpt>
      <trkpt lat="42.9276" lon="0.58814">
        <ele>1143</ele>
        <time>2019-02-03T10:39:10.000Z</time>
      </trkpt>
      <trkpt lat="42.92759" lon="0.58814">
        <ele>1143</ele>
        <time>2019-02-03T10:39:11.000Z</time>
      </trkpt>
      <trkpt lat="42.92759" lon="0.58814">
        <ele>1143</ele>
        <time>2019-02-03T10:39:12.000Z</time>
      </trkpt>
      <trkpt lat="42.92758" lon="0.58813">
        <ele>1143</ele>
        <time>2019-02-03T10:39:13.000Z</time>
      </trkpt>
      <trkpt lat="42.92757" lon="0.58813">
        <ele>1143</ele>
        <time>2019-02-03T10:39:14.000Z</time>
      </trkpt>
      <trkpt lat="42.92757" lon="0.58813">
        <ele>1143</ele>
        <time>2019-02-03T10:39:15.000Z</time>
      </trkpt>
      <trkpt lat="42.92756" lon="0.58812">
        <ele>1143</ele>
        <time>2019-02-03T10:39:16.000Z</time>
      </trkpt>
      <trkpt lat="42.92756" lon="0.58812">
        <ele>1143</ele>
        <time>2019-02-03T10:39:17.000Z</time>
      </trkpt>
      <trkpt lat="42.92756" lon="0.58812">
        <ele>1143</ele>
        <time>2019-02-03T10:39:18.000Z</time>
      </trkpt>
      <trkpt lat="42.92756" lon="0.58812">
        <ele>1143</ele>
        <time>2019-02-03T10:39:19.000Z</time>
      </trkpt>
      <trkpt lat="42.92755" lon="0.58812">
        <ele>1143</ele>
        <time>2019-02-03T10:39:20.000Z</time>
      </trkpt>
      <trkpt lat="42.92754" lon="0.58812">
        <ele>1143</ele>
        <time>2019-02-03T10:39:21.000Z</time>
      </trkpt>
      <trkpt lat="42.92752" lon="0.58811">
        <ele>1143</ele>
        <time>2019-02-03T10:39:22.000Z</time>
      </trkpt>
      <trkpt lat="42.92751" lon="0.58811">
        <ele>1143</ele>
        <time>2019-02-03T10:39:23.000Z</time>
      </trkpt>
      <trkpt lat="42.9275" lon="0.58811">
        <ele>1143</ele>
        <time>2019-02-03T10:39:24.000Z</time>
      </trkpt>
      <trkpt lat="42.92749" lon="0.5881">
        <ele>1143.5</ele>
        <time>2019-02-03T10:39:25.000Z</time>
      </trkpt>
      <trkpt lat="42.92748" lon="0.5881">
        <ele>1144</ele>
        <time>2019-02-03T10:39:26.000Z</time>
      </trkpt>
      <trkpt lat="42.92747" lon="0.5881">
        <ele>1144</ele>
        <time>2019-02-03T10:39:27.000Z</time>
      </trkpt>
      <trkpt lat="42.92747" lon="0.5881">
        <ele>1144</ele>
        <time>2019-02-03T10:39:28.000Z</time>
      </trkpt>
      <trkpt lat="42.92746" lon="0.58809">
        <ele>1144</ele>
        <time>2019-02-03T10:39:29.000Z</time>
      </trkpt>
      <trkpt lat="42.92746" lon="0.58809">
        <ele>1144</ele>
        <time>2019-02-03T10:39:30.000Z</time>
      </trkpt>
      <trkpt lat="42.92746" lon="0.58808">
        <ele>1144.5</ele>
        <time>2019-02-03T10:39:31.000Z</time>
      </trkpt>
      <trkpt lat="42.92746" lon="0.58808">
        <ele>1145</ele>
        <time>2019-02-03T10:39:32.000Z</time>
      </trkpt>
      <trkpt lat="42.92746" lon="0.58807">
        <ele>1145</ele>
        <time>2019-02-03T10:39:33.000Z</time>
      </trkpt>
      <trkpt lat="42.92746" lon="0.58807">
        <ele>1145</ele>
        <time>2019-02-03T10:39:34.000Z</time>
      </trkpt>
      <trkpt lat="42.92745" lon="0.58806">
        <ele>1145</ele>
        <time>2019-02-03T10:39:35.000Z</time>
      </trkpt>
      <trkpt lat="42.92745" lon="0.58806">
        <ele>1145</ele>
        <time>2019-02-03T10:39:36.000Z</time>
      </trkpt>
      <trkpt lat="42.92745" lon="0.58805">
        <ele>1145</ele>
        <time>2019-02-03T10:39:37.000Z</time>
      </trkpt>
      <trkpt lat="42.92744" lon="0.58805">
        <ele>1145</ele>
        <time>2019-02-03T10:39:38.000Z</time>
      </trkpt>
      <trkpt lat="42.92744" lon="0.58805">
        <ele>1145</ele>
        <time>2019-02-03T10:39:39.000Z</time>
      </trkpt>
      <trkpt lat="42.92744" lon="0.58805">
        <ele>1145</ele>
        <time>2019-02-03T10:39:40.000Z</time>
      </trkpt>
      <trkpt lat="42.92743" lon="0.58806">
        <ele>1145</ele>
        <time>2019-02-03T10:39:41.000Z</time>
      </trkpt>
      <trkpt lat="42.92743" lon="0.58806">
        <ele>1145</ele>
        <time>2019-02-03T10:39:42.000Z</time>
      </trkpt>
      <trkpt lat="42.92743" lon="0.58807">
        <ele>1145.5</ele>
        <time>2019-02-03T10:39:43.000Z</time>
      </trkpt>
      <trkpt lat="42.92743" lon="0.58808">
        <ele>1146</ele>
        <time>2019-02-03T10:39:44.000Z</time>
      </trkpt>
      <trkpt lat="42.92743" lon="0.58809">
        <ele>1146</ele>
        <time>2019-02-03T10:39:45.000Z</time>
      </trkpt>
      <trkpt lat="42.92743" lon="0.5881">
        <ele>1146</ele>
        <time>2019-02-03T10:39:46.000Z</time>
      </trkpt>
      <trkpt lat="42.92743" lon="0.5881">
        <ele>1146</ele>
        <time>2019-02-03T10:39:47.000Z</time>
      </trkpt>
      <trkpt lat="42.92744" lon="0.58811">
        <ele>1146</ele>
        <time>2019-02-03T10:39:48.000Z</time>
      </trkpt>
      <trkpt lat="42.92745" lon="0.58811">
        <ele>1146</ele>
        <time>2019-02-03T10:39:49.000Z</time>
      </trkpt>
      <trkpt lat="42.92745" lon="0.58812">
        <ele>1146</ele>
        <time>2019-02-03T10:39:50.000Z</time>
      </trkpt>
      <trkpt lat="42.92746" lon="0.58812">
        <ele>1146.5</ele>
        <time>2019-02-03T10:39:51.000Z</time>
      </trkpt>
      <trkpt lat="42.92747" lon="0.58813">
        <ele>1147</ele>
        <time>2019-02-03T10:39:52.000Z</time>
      </trkpt>
      <trkpt lat="42.92747" lon="0.58813">
        <ele>1147</ele>
        <time>2019-02-03T10:39:53.000Z</time>
      </trkpt>
      <trkpt lat="42.92748" lon="0.58813">
        <ele>1147</ele>
        <time>2019-02-03T10:39:54.000Z</time>
      </trkpt>
      <trkpt lat="42.92748" lon="0.58814">
        <ele>1147</ele>
        <time>2019-02-03T10:39:55.000Z</time>
      </trkpt>
      <trkpt lat="42.92749" lon="0.58815">
        <ele>1147</ele>
        <time>2019-02-03T10:39:56.000Z</time>
      </trkpt>
      <trkpt lat="42.92749" lon="0.58815">
        <ele>1147</ele>
        <time>2019-02-03T10:39:57.000Z</time>
      </trkpt>
      <trkpt lat="42.92749" lon="0.58816">
        <ele>1147</ele>
        <time>2019-02-03T10:39:58.000Z</time>
      </trkpt>
      <trkpt lat="42.92748" lon="0.58817">
        <ele>1147.5</ele>
        <time>2019-02-03T10:39:59.000Z</time>
      </trkpt>
      <trkpt lat="42.92747" lon="0.58818">
        <ele>1148</ele>
        <time>2019-02-03T10:40:00.000Z</time>
      </trkpt>
      <trkpt lat="42.92746" lon="0.58819">
        <ele>1148</ele>
        <time>2019-02-03T10:40:01.000Z</time>
      </trkpt>
      <trkpt lat="42.92745" lon="0.5882">
        <ele>1148</ele>
        <time>2019-02-03T10:40:02.000Z</time>
      </trkpt>
      <trkpt lat="42.92744" lon="0.58821">
        <ele>1148.5</ele>
        <time>2019-02-03T10:40:03.000Z</time>
      </trkpt>
      <trkpt lat="42.92742" lon="0.58821">
        <ele>1149</ele>
        <time>2019-02-03T10:40:04.000Z</time>
      </trkpt>
      <trkpt lat="42.92741" lon="0.58821">
        <ele>1149</ele>
        <time>2019-02-03T10:40:05.000Z</time>
      </trkpt>
      <trkpt lat="42.9274" lon="0.58822">
        <ele>1149</ele>
        <time>2019-02-03T10:40:06.000Z</time>
      </trkpt>
      <trkpt lat="42.9274" lon="0.58823">
        <ele>1149</ele>
        <time>2019-02-03T10:40:07.000Z</time>
      </trkpt>
      <trkpt lat="42.9274" lon="0.58824">
        <ele>1149</ele>
        <time>2019-02-03T10:40:08.000Z</time>
      </trkpt>
      <trkpt lat="42.9274" lon="0.58825">
        <ele>1149</ele>
        <time>2019-02-03T10:40:09.000Z</time>
      </trkpt>
      <trkpt lat="42.9274" lon="0.58827">
        <ele>1149</ele>
        <time>2019-02-03T10:40:10.000Z</time>
      </trkpt>
      <trkpt lat="42.9274" lon="0.58827">
        <ele>1149.5</ele>
        <time>2019-02-03T10:40:11.000Z</time>
      </trkpt>
      <trkpt lat="42.9274" lon="0.58828">
        <ele>1150</ele>
        <time>2019-02-03T10:40:12.000Z</time>
      </trkpt>
      <trkpt lat="42.92741" lon="0.58829">
        <ele>1150</ele>
        <time>2019-02-03T10:40:13.000Z</time>
      </trkpt>
      <trkpt lat="42.92741" lon="0.58829">
        <ele>1150</ele>
        <time>2019-02-03T10:40:14.000Z</time>
      </trkpt>
      <trkpt lat="42.92741" lon="0.5883">
        <ele>1150</ele>
        <time>2019-02-03T10:40:15.000Z</time>
      </trkpt>
      <trkpt lat="42.92742" lon="0.58831">
        <ele>1150</ele>
        <time>2019-02-03T10:40:16.000Z</time>
      </trkpt>
      <trkpt lat="42.92742" lon="0.58831">
        <ele>1150</ele>
        <time>2019-02-03T10:40:17.000Z</time>
      </trkpt>
      <trkpt lat="42.92743" lon="0.58832">
        <ele>1150</ele>
        <time>2019-02-03T10:40:18.000Z</time>
      </trkpt>
      <trkpt lat="42.92744" lon="0.58833">
        <ele>1150.5</ele>
        <time>2019-02-03T10:40:19.000Z</time>
      </trkpt>
      <trkpt lat="42.92744" lon="0.58833">
        <ele>1151</ele>
        <time>2019-02-03T10:40:20.000Z</time>
      </trkpt>
      <trkpt lat="42.92745" lon="0.58834">
        <ele>1151</ele>
        <time>2019-02-03T10:40:21.000Z</time>
      </trkpt>
      <trkpt lat="42.92746" lon="0.58835">
        <ele>1151</ele>
        <time>2019-02-03T10:40:22.000Z</time>
      </trkpt>
      <trkpt lat="42.92746" lon="0.58835">
        <ele>1151</ele>
        <time>2019-02-03T10:40:23.000Z</time>
      </trkpt>
      <trkpt lat="42.92747" lon="0.58836">
        <ele>1151</ele>
        <time>2019-02-03T10:40:24.000Z</time>
      </trkpt>
      <trkpt lat="42.92748" lon="0.58836">
        <ele>1151.5</ele>
        <time>2019-02-03T10:40:25.000Z</time>
      </trkpt>
      <trkpt lat="42.92748" lon="0.58836">
        <ele>1152</ele>
        <time>2019-02-03T10:40:26.000Z</time>
      </trkpt>
      <trkpt lat="42.92749" lon="0.58837">
        <ele>1152</ele>
        <time>2019-02-03T10:40:27.000Z</time>
      </trkpt>
      <trkpt lat="42.9275" lon="0.58837">
        <ele>1152</ele>
        <time>2019-02-03T10:40:28.000Z</time>
      </trkpt>
      <trkpt lat="42.9275" lon="0.58837">
        <ele>1152</ele>
        <time>2019-02-03T10:40:29.000Z</time>
      </trkpt>
      <trkpt lat="42.92751" lon="0.58837">
        <ele>1152</ele>
        <time>2019-02-03T10:40:30.000Z</time>
      </trkpt>
      <trkpt lat="42.92751" lon="0.58837">
        <ele>1152</ele>
        <time>2019-02-03T10:40:31.000Z</time>
      </trkpt>
      <trkpt lat="42.92752" lon="0.58837">
        <ele>1152</ele>
        <time>2019-02-03T10:40:32.000Z</time>
      </trkpt>
      <trkpt lat="42.92752" lon="0.58838">
        <ele>1152.5</ele>
        <time>2019-02-03T10:40:33.000Z</time>
      </trkpt>
      <trkpt lat="42.92752" lon="0.58838">
        <ele>1153</ele>
        <time>2019-02-03T10:40:34.000Z</time>
      </trkpt>
      <trkpt lat="42.92753" lon="0.58838">
        <ele>1153</ele>
        <time>2019-02-03T10:40:35.000Z</time>
      </trkpt>
      <trkpt lat="42.92753" lon="0.58838">
        <ele>1153</ele>
        <time>2019-02-03T10:40:36.000Z</time>
      </trkpt>
      <trkpt lat="42.92753" lon="0.58839">
        <ele>1153</ele>
        <time>2019-02-03T10:40:37.000Z</time>
      </trkpt>
      <trkpt lat="42.92753" lon="0.58839">
        <ele>1153</ele>
        <time>2019-02-03T10:40:38.000Z</time>
      </trkpt>
      <trkpt lat="42.92753" lon="0.5884">
        <ele>1153.5</ele>
        <time>2019-02-03T10:40:39.000Z</time>
      </trkpt>
      <trkpt lat="42.92753" lon="0.5884">
        <ele>1154</ele>
        <time>2019-02-03T10:40:40.000Z</time>
      </trkpt>
      <trkpt lat="42.92753" lon="0.58841">
        <ele>1154</ele>
        <time>2019-02-03T10:40:41.000Z</time>
      </trkpt>
      <trkpt lat="42.92753" lon="0.58841">
        <ele>1154</ele>
        <time>2019-02-03T10:40:42.000Z</time>
      </trkpt>
      <trkpt lat="42.92753" lon="0.58842">
        <ele>1154</ele>
        <time>2019-02-03T10:40:43.000Z</time>
      </trkpt>
      <trkpt lat="42.92753" lon="0.58842">
        <ele>1154</ele>
        <time>2019-02-03T10:40:44.000Z</time>
      </trkpt>
      <trkpt lat="42.92753" lon="0.58843">
        <ele>1154.5</ele>
        <time>2019-02-03T10:40:45.000Z</time>
      </trkpt>
      <trkpt lat="42.92753" lon="0.58843">
        <ele>1155</ele>
        <time>2019-02-03T10:40:46.000Z</time>
      </trkpt>
      <trkpt lat="42.92753" lon="0.58844">
        <ele>1155</ele>
        <time>2019-02-03T10:40:47.000Z</time>
      </trkpt>
      <trkpt lat="42.92753" lon="0.58844">
        <ele>1155</ele>
        <time>2019-02-03T10:40:48.000Z</time>
      </trkpt>
      <trkpt lat="42.92753" lon="0.58845">
        <ele>1155</ele>
        <time>2019-02-03T10:40:49.000Z</time>
      </trkpt>
      <trkpt lat="42.92753" lon="0.58845">
        <ele>1155</ele>
        <time>2019-02-03T10:40:50.000Z</time>
      </trkpt>
      <trkpt lat="42.92753" lon="0.58846">
        <ele>1155</ele>
        <time>2019-02-03T10:40:51.000Z</time>
      </trkpt>
      <trkpt lat="42.92753" lon="0.58846">
        <ele>1155</ele>
        <time>2019-02-03T10:40:52.000Z</time>
      </trkpt>
      <trkpt lat="42.92753" lon="0.58846">
        <ele>1155</ele>
        <time>2019-02-03T10:40:53.000Z</time>
      </trkpt>
      <trkpt lat="42.92753" lon="0.58846">
        <ele>1155</ele>
        <time>2019-02-03T10:40:54.000Z</time>
      </trkpt>
      <trkpt lat="42.92753" lon="0.58847">
        <ele>1155.5</ele>
        <time>2019-02-03T10:40:55.000Z</time>
      </trkpt>
      <trkpt lat="42.92752" lon="0.58847">
        <ele>1156</ele>
        <time>2019-02-03T10:40:56.000Z</time>
      </trkpt>
      <trkpt lat="42.92752" lon="0.58847">
        <ele>1156</ele>
        <time>2019-02-03T10:40:57.000Z</time>
      </trkpt>
      <trkpt lat="42.92751" lon="0.58847">
        <ele>1156</ele>
        <time>2019-02-03T10:40:58.000Z</time>
      </trkpt>
      <trkpt lat="42.92751" lon="0.58848">
        <ele>1157</ele>
        <time>2019-02-03T10:40:59.000Z</time>
      </trkpt>
      <trkpt lat="42.92751" lon="0.58849">
        <ele>1157</ele>
        <time>2019-02-03T10:41:00.000Z</time>
      </trkpt>
      <trkpt lat="42.92751" lon="0.5885">
        <ele>1157</ele>
        <time>2019-02-03T10:41:01.000Z</time>
      </trkpt>
      <trkpt lat="42.92751" lon="0.58851">
        <ele>1157</ele>
        <time>2019-02-03T10:41:02.000Z</time>
      </trkpt>
      <trkpt lat="42.92752" lon="0.58851">
        <ele>1157</ele>
        <time>2019-02-03T10:41:03.000Z</time>
      </trkpt>
      <trkpt lat="42.92752" lon="0.58852">
        <ele>1157</ele>
        <time>2019-02-03T10:41:04.000Z</time>
      </trkpt>
      <trkpt lat="42.92752" lon="0.58852">
        <ele>1157</ele>
        <time>2019-02-03T10:41:05.000Z</time>
      </trkpt>
      <trkpt lat="42.92753" lon="0.58852">
        <ele>1157</ele>
        <time>2019-02-03T10:41:06.000Z</time>
      </trkpt>
      <trkpt lat="42.92753" lon="0.58852">
        <ele>1157</ele>
        <time>2019-02-03T10:41:07.000Z</time>
      </trkpt>
      <trkpt lat="42.92753" lon="0.58852">
        <ele>1157</ele>
        <time>2019-02-03T10:41:08.000Z</time>
      </trkpt>
      <trkpt lat="42.92753" lon="0.58852">
        <ele>1157</ele>
        <time>2019-02-03T10:41:09.000Z</time>
      </trkpt>
      <trkpt lat="42.92752" lon="0.58852">
        <ele>1157</ele>
        <time>2019-02-03T10:41:10.000Z</time>
      </trkpt>
      <trkpt lat="42.92752" lon="0.58852">
        <ele>1157</ele>
        <time>2019-02-03T10:41:11.000Z</time>
      </trkpt>
      <trkpt lat="42.92752" lon="0.58852">
        <ele>1157</ele>
        <time>2019-02-03T10:41:12.000Z</time>
      </trkpt>
      <trkpt lat="42.92751" lon="0.58852">
        <ele>1157</ele>
        <time>2019-02-03T10:41:13.000Z</time>
      </trkpt>
      <trkpt lat="42.92751" lon="0.58852">
        <ele>1157.5</ele>
        <time>2019-02-03T10:41:14.000Z</time>
      </trkpt>
      <trkpt lat="42.9275" lon="0.58852">
        <ele>1158</ele>
        <time>2019-02-03T10:41:15.000Z</time>
      </trkpt>
      <trkpt lat="42.9275" lon="0.58852">
        <ele>1158</ele>
        <time>2019-02-03T10:41:16.000Z</time>
      </trkpt>
      <trkpt lat="42.9275" lon="0.58852">
        <ele>1158</ele>
        <time>2019-02-03T10:41:17.000Z</time>
      </trkpt>
      <trkpt lat="42.92749" lon="0.58852">
        <ele>1158.5</ele>
        <time>2019-02-03T10:41:18.000Z</time>
      </trkpt>
      <trkpt lat="42.92749" lon="0.58853">
        <ele>1159</ele>
        <time>2019-02-03T10:41:19.000Z</time>
      </trkpt>
      <trkpt lat="42.92748" lon="0.58853">
        <ele>1159</ele>
        <time>2019-02-03T10:41:20.000Z</time>
      </trkpt>
      <trkpt lat="42.92747" lon="0.58853">
        <ele>1159</ele>
        <time>2019-02-03T10:41:21.000Z</time>
      </trkpt>
      <trkpt lat="42.92746" lon="0.58854">
        <ele>1159</ele>
        <time>2019-02-03T10:41:22.000Z</time>
      </trkpt>
      <trkpt lat="42.92745" lon="0.58854">
        <ele>1159</ele>
        <time>2019-02-03T10:41:23.000Z</time>
      </trkpt>
      <trkpt lat="42.92745" lon="0.58855">
        <ele>1159</ele>
        <time>2019-02-03T10:41:24.000Z</time>
      </trkpt>
      <trkpt lat="42.92745" lon="0.58855">
        <ele>1159.3</ele>
        <time>2019-02-03T10:41:25.000Z</time>
      </trkpt>
      <trkpt lat="42.92745" lon="0.58856">
        <ele>1159.7</ele>
        <time>2019-02-03T10:41:26.000Z</time>
      </trkpt>
      <trkpt lat="42.92745" lon="0.58856">
        <ele>1160</ele>
        <time>2019-02-03T10:41:27.000Z</time>
      </trkpt>
      <trkpt lat="42.92745" lon="0.58856">
        <ele>1160</ele>
        <time>2019-02-03T10:41:28.000Z</time>
      </trkpt>
      <trkpt lat="42.92745" lon="0.58857">
        <ele>1160</ele>
        <time>2019-02-03T10:41:29.000Z</time>
      </trkpt>
      <trkpt lat="42.92745" lon="0.58857">
        <ele>1160</ele>
        <time>2019-02-03T10:41:30.000Z</time>
      </trkpt>
      <trkpt lat="42.92745" lon="0.58857">
        <ele>1160</ele>
        <time>2019-02-03T10:41:31.000Z</time>
      </trkpt>
      <trkpt lat="42.92745" lon="0.58858">
        <ele>1160.5</ele>
        <time>2019-02-03T10:41:32.000Z</time>
      </trkpt>
      <trkpt lat="42.92745" lon="0.58858">
        <ele>1161</ele>
        <time>2019-02-03T10:41:33.000Z</time>
      </trkpt>
      <trkpt lat="42.92745" lon="0.58859">
        <ele>1161</ele>
        <time>2019-02-03T10:41:34.000Z</time>
      </trkpt>
      <trkpt lat="42.92745" lon="0.5886">
        <ele>1161</ele>
        <time>2019-02-03T10:41:35.000Z</time>
      </trkpt>
      <trkpt lat="42.92745" lon="0.5886">
        <ele>1161</ele>
        <time>2019-02-03T10:41:36.000Z</time>
      </trkpt>
      <trkpt lat="42.92745" lon="0.58861">
        <ele>1161</ele>
        <time>2019-02-03T10:41:37.000Z</time>
      </trkpt>
      <trkpt lat="42.92745" lon="0.58862">
        <ele>1161</ele>
        <time>2019-02-03T10:41:38.000Z</time>
      </trkpt>
      <trkpt lat="42.92744" lon="0.58862">
        <ele>1161</ele>
        <time>2019-02-03T10:41:39.000Z</time>
      </trkpt>
      <trkpt lat="42.92744" lon="0.58863">
        <ele>1161</ele>
        <time>2019-02-03T10:41:40.000Z</time>
      </trkpt>
      <trkpt lat="42.92743" lon="0.58863">
        <ele>1161</ele>
        <time>2019-02-03T10:41:41.000Z</time>
      </trkpt>
      <trkpt lat="42.92743" lon="0.58863">
        <ele>1161</ele>
        <time>2019-02-03T10:41:42.000Z</time>
      </trkpt>
      <trkpt lat="42.92742" lon="0.58863">
        <ele>1161</ele>
        <time>2019-02-03T10:41:43.000Z</time>
      </trkpt>
      <trkpt lat="42.92741" lon="0.58863">
        <ele>1161</ele>
        <time>2019-02-03T10:41:44.000Z</time>
      </trkpt>
      <trkpt lat="42.92741" lon="0.58863">
        <ele>1161</ele>
        <time>2019-02-03T10:41:45.000Z</time>
      </trkpt>
      <trkpt lat="42.9274" lon="0.58863">
        <ele>1161</ele>
        <time>2019-02-03T10:41:46.000Z</time>
      </trkpt>
      <trkpt lat="42.9274" lon="0.58863">
        <ele>1161</ele>
        <time>2019-02-03T10:41:47.000Z</time>
      </trkpt>
      <trkpt lat="42.9274" lon="0.58863">
        <ele>1161</ele>
        <time>2019-02-03T10:41:48.000Z</time>
      </trkpt>
      <trkpt lat="42.9274" lon="0.58862">
        <ele>1161</ele>
        <time>2019-02-03T10:41:49.000Z</time>
      </trkpt>
      <trkpt lat="42.9274" lon="0.58862">
        <ele>1161</ele>
        <time>2019-02-03T10:41:50.000Z</time>
      </trkpt>
      <trkpt lat="42.92739" lon="0.58862">
        <ele>1161.3</ele>
        <time>2019-02-03T10:41:51.000Z</time>
      </trkpt>
      <trkpt lat="42.92739" lon="0.58862">
        <ele>1161.7</ele>
        <time>2019-02-03T10:41:52.000Z</time>
      </trkpt>
      <trkpt lat="42.92739" lon="0.58862">
        <ele>1162</ele>
        <time>2019-02-03T10:41:53.000Z</time>
      </trkpt>
      <trkpt lat="42.92739" lon="0.58862">
        <ele>1162</ele>
        <time>2019-02-03T10:41:54.000Z</time>
      </trkpt>
      <trkpt lat="42.92739" lon="0.58862">
        <ele>1162</ele>
        <time>2019-02-03T10:41:55.000Z</time>
      </trkpt>
      <trkpt lat="42.92739" lon="0.58862">
        <ele>1161.5</ele>
        <time>2019-02-03T10:41:56.000Z</time>
      </trkpt>
      <trkpt lat="42.9274" lon="0.58862">
        <ele>1161</ele>
        <time>2019-02-03T10:41:57.000Z</time>
      </trkpt>
      <trkpt lat="42.9274" lon="0.58862">
        <ele>1161</ele>
        <time>2019-02-03T10:41:58.000Z</time>
      </trkpt>
      <trkpt lat="42.9274" lon="0.58862">
        <ele>1161</ele>
        <time>2019-02-03T10:41:59.000Z</time>
      </trkpt>
      <trkpt lat="42.9274" lon="0.58862">
        <ele>1161</ele>
        <time>2019-02-03T10:42:00.000Z</time>
      </trkpt>
      <trkpt lat="42.9274" lon="0.58862">
        <ele>1161</ele>
        <time>2019-02-03T10:42:01.000Z</time>
      </trkpt>
      <trkpt lat="42.9274" lon="0.58862">
        <ele>1161</ele>
        <time>2019-02-03T10:42:02.000Z</time>
      </trkpt>
      <trkpt lat="42.9274" lon="0.58862">
        <ele>1161</ele>
        <time>2019-02-03T10:42:03.000Z</time>
      </trkpt>
      <trkpt lat="42.9274" lon="0.58862">
        <ele>1161.5</ele>
        <time>2019-02-03T10:42:04.000Z</time>
      </trkpt>
      <trkpt lat="42.9274" lon="0.58862">
        <ele>1162</ele>
        <time>2019-02-03T10:42:05.000Z</time>
      </trkpt>
      <trkpt lat="42.9274" lon="0.58862">
        <ele>1161.5</ele>
        <time>2019-02-03T10:42:06.000Z</time>
      </trkpt>
      <trkpt lat="42.9274" lon="0.58862">
        <ele>1161</ele>
        <time>2019-02-03T10:42:07.000Z</time>
      </trkpt>
      <trkpt lat="42.92739" lon="0.58862">
        <ele>1161</ele>
        <time>2019-02-03T10:42:08.000Z</time>
      </trkpt>
      <trkpt lat="42.92739" lon="0.58862">
        <ele>1161</ele>
        <time>2019-02-03T10:42:09.000Z</time>
      </trkpt>
      <trkpt lat="42.92739" lon="0.58864">
        <ele>1162</ele>
        <time>2019-02-03T10:42:10.000Z</time>
      </trkpt>
      <trkpt lat="42.92739" lon="0.58865">
        <ele>1162</ele>
        <time>2019-02-03T10:42:11.000Z</time>
      </trkpt>
      <trkpt lat="42.92739" lon="0.58866">
        <ele>1162</ele>
        <time>2019-02-03T10:42:12.000Z</time>
      </trkpt>
      <trkpt lat="42.92738" lon="0.58867">
        <ele>1162</ele>
        <time>2019-02-03T10:42:13.000Z</time>
      </trkpt>
      <trkpt lat="42.92738" lon="0.58867">
        <ele>1162</ele>
        <time>2019-02-03T10:42:14.000Z</time>
      </trkpt>
      <trkpt lat="42.92738" lon="0.58868">
        <ele>1162</ele>
        <time>2019-02-03T10:42:15.000Z</time>
      </trkpt>
      <trkpt lat="42.92738" lon="0.58868">
        <ele>1162</ele>
        <time>2019-02-03T10:42:16.000Z</time>
      </trkpt>
      <trkpt lat="42.92738" lon="0.58869">
        <ele>1162</ele>
        <time>2019-02-03T10:42:17.000Z</time>
      </trkpt>
      <trkpt lat="42.92739" lon="0.58869">
        <ele>1162.5</ele>
        <time>2019-02-03T10:42:18.000Z</time>
      </trkpt>
      <trkpt lat="42.92739" lon="0.5887">
        <ele>1163</ele>
        <time>2019-02-03T10:42:19.000Z</time>
      </trkpt>
      <trkpt lat="42.92739" lon="0.5887">
        <ele>1163</ele>
        <time>2019-02-03T10:42:20.000Z</time>
      </trkpt>
      <trkpt lat="42.92739" lon="0.58871">
        <ele>1163</ele>
        <time>2019-02-03T10:42:21.000Z</time>
      </trkpt>
      <trkpt lat="42.92739" lon="0.58871">
        <ele>1163</ele>
        <time>2019-02-03T10:42:22.000Z</time>
      </trkpt>
      <trkpt lat="42.9274" lon="0.58872">
        <ele>1163</ele>
        <time>2019-02-03T10:42:23.000Z</time>
      </trkpt>
      <trkpt lat="42.9274" lon="0.58872">
        <ele>1163</ele>
        <time>2019-02-03T10:42:24.000Z</time>
      </trkpt>
      <trkpt lat="42.9274" lon="0.58873">
        <ele>1163</ele>
        <time>2019-02-03T10:42:25.000Z</time>
      </trkpt>
      <trkpt lat="42.9274" lon="0.58873">
        <ele>1163.5</ele>
        <time>2019-02-03T10:42:26.000Z</time>
      </trkpt>
      <trkpt lat="42.92741" lon="0.58874">
        <ele>1164</ele>
        <time>2019-02-03T10:42:27.000Z</time>
      </trkpt>
      <trkpt lat="42.92741" lon="0.58875">
        <ele>1164</ele>
        <time>2019-02-03T10:42:28.000Z</time>
      </trkpt>
      <trkpt lat="42.92742" lon="0.58875">
        <ele>1164</ele>
        <time>2019-02-03T10:42:29.000Z</time>
      </trkpt>
      <trkpt lat="42.92742" lon="0.58875">
        <ele>1164</ele>
        <time>2019-02-03T10:42:30.000Z</time>
      </trkpt>
      <trkpt lat="42.92743" lon="0.58876">
        <ele>1164</ele>
        <time>2019-02-03T10:42:31.000Z</time>
      </trkpt>
      <trkpt lat="42.92743" lon="0.58876">
        <ele>1164</ele>
        <time>2019-02-03T10:42:32.000Z</time>
      </trkpt>
      <trkpt lat="42.92744" lon="0.58876">
        <ele>1164</ele>
        <time>2019-02-03T10:42:33.000Z</time>
      </trkpt>
      <trkpt lat="42.92745" lon="0.58876">
        <ele>1164.5</ele>
        <time>2019-02-03T10:42:34.000Z</time>
      </trkpt>
      <trkpt lat="42.92745" lon="0.58876">
        <ele>1165</ele>
        <time>2019-02-03T10:42:35.000Z</time>
      </trkpt>
      <trkpt lat="42.92746" lon="0.58876">
        <ele>1165</ele>
        <time>2019-02-03T10:42:36.000Z</time>
      </trkpt>
      <trkpt lat="42.92746" lon="0.58876">
        <ele>1165</ele>
        <time>2019-02-03T10:42:37.000Z</time>
      </trkpt>
      <trkpt lat="42.92747" lon="0.58876">
        <ele>1165</ele>
        <time>2019-02-03T10:42:38.000Z</time>
      </trkpt>
      <trkpt lat="42.92747" lon="0.58877">
        <ele>1165</ele>
        <time>2019-02-03T10:42:39.000Z</time>
      </trkpt>
      <trkpt lat="42.92747" lon="0.58877">
        <ele>1165</ele>
        <time>2019-02-03T10:42:40.000Z</time>
      </trkpt>
      <trkpt lat="42.92748" lon="0.58877">
        <ele>1165</ele>
        <time>2019-02-03T10:42:41.000Z</time>
      </trkpt>
      <trkpt lat="42.92747" lon="0.58877">
        <ele>1165</ele>
        <time>2019-02-03T10:42:42.000Z</time>
      </trkpt>
      <trkpt lat="42.92747" lon="0.58877">
        <ele>1165</ele>
        <time>2019-02-03T10:42:43.000Z</time>
      </trkpt>
      <trkpt lat="42.92747" lon="0.58878">
        <ele>1165.5</ele>
        <time>2019-02-03T10:42:44.000Z</time>
      </trkpt>
      <trkpt lat="42.92746" lon="0.58878">
        <ele>1166</ele>
        <time>2019-02-03T10:42:45.000Z</time>
      </trkpt>
      <trkpt lat="42.92745" lon="0.58879">
        <ele>1166</ele>
        <time>2019-02-03T10:42:46.000Z</time>
      </trkpt>
      <trkpt lat="42.92745" lon="0.58879">
        <ele>1166</ele>
        <time>2019-02-03T10:42:47.000Z</time>
      </trkpt>
      <trkpt lat="42.92744" lon="0.58879">
        <ele>1166</ele>
        <time>2019-02-03T10:42:48.000Z</time>
      </trkpt>
      <trkpt lat="42.92743" lon="0.5888">
        <ele>1166.3</ele>
        <time>2019-02-03T10:42:49.000Z</time>
      </trkpt>
      <trkpt lat="42.92743" lon="0.58881">
        <ele>1166.7</ele>
        <time>2019-02-03T10:42:50.000Z</time>
      </trkpt>
      <trkpt lat="42.92742" lon="0.58881">
        <ele>1167</ele>
        <time>2019-02-03T10:42:51.000Z</time>
      </trkpt>
      <trkpt lat="42.92742" lon="0.58882">
        <ele>1167</ele>
        <time>2019-02-03T10:42:52.000Z</time>
      </trkpt>
      <trkpt lat="42.92741" lon="0.58882">
        <ele>1167</ele>
        <time>2019-02-03T10:42:53.000Z</time>
      </trkpt>
      <trkpt lat="42.92741" lon="0.58883">
        <ele>1167</ele>
        <time>2019-02-03T10:42:54.000Z</time>
      </trkpt>
      <trkpt lat="42.92741" lon="0.58884">
        <ele>1167</ele>
        <time>2019-02-03T10:42:55.000Z</time>
      </trkpt>
      <trkpt lat="42.92741" lon="0.58884">
        <ele>1167.5</ele>
        <time>2019-02-03T10:42:56.000Z</time>
      </trkpt>
      <trkpt lat="42.92741" lon="0.58885">
        <ele>1168</ele>
        <time>2019-02-03T10:42:57.000Z</time>
      </trkpt>
      <trkpt lat="42.92741" lon="0.58885">
        <ele>1168</ele>
        <time>2019-02-03T10:42:58.000Z</time>
      </trkpt>
      <trkpt lat="42.92741" lon="0.58886">
        <ele>1168</ele>
        <time>2019-02-03T10:42:59.000Z</time>
      </trkpt>
      <trkpt lat="42.92741" lon="0.58886">
        <ele>1168</ele>
        <time>2019-02-03T10:43:00.000Z</time>
      </trkpt>
      <trkpt lat="42.92741" lon="0.58887">
        <ele>1168</ele>
        <time>2019-02-03T10:43:01.000Z</time>
      </trkpt>
      <trkpt lat="42.92741" lon="0.58887">
        <ele>1168.5</ele>
        <time>2019-02-03T10:43:02.000Z</time>
      </trkpt>
      <trkpt lat="42.92741" lon="0.58887">
        <ele>1169</ele>
        <time>2019-02-03T10:43:03.000Z</time>
      </trkpt>
      <trkpt lat="42.92741" lon="0.58887">
        <ele>1169</ele>
        <time>2019-02-03T10:43:04.000Z</time>
      </trkpt>
      <trkpt lat="42.92741" lon="0.58887">
        <ele>1169</ele>
        <time>2019-02-03T10:43:05.000Z</time>
      </trkpt>
      <trkpt lat="42.92741" lon="0.58887">
        <ele>1169</ele>
        <time>2019-02-03T10:43:06.000Z</time>
      </trkpt>
      <trkpt lat="42.92741" lon="0.58887">
        <ele>1169</ele>
        <time>2019-02-03T10:43:07.000Z</time>
      </trkpt>
      <trkpt lat="42.92741" lon="0.58887">
        <ele>1169.5</ele>
        <time>2019-02-03T10:43:08.000Z</time>
      </trkpt>
      <trkpt lat="42.92741" lon="0.58887">
        <ele>1170</ele>
        <time>2019-02-03T10:43:09.000Z</time>
      </trkpt>
      <trkpt lat="42.92741" lon="0.58887">
        <ele>1170</ele>
        <time>2019-02-03T10:43:10.000Z</time>
      </trkpt>
      <trkpt lat="42.92741" lon="0.58887">
        <ele>1170</ele>
        <time>2019-02-03T10:43:11.000Z</time>
      </trkpt>
      <trkpt lat="42.92741" lon="0.58887">
        <ele>1170</ele>
        <time>2019-02-03T10:43:12.000Z</time>
      </trkpt>
      <trkpt lat="42.92741" lon="0.58887">
        <ele>1170</ele>
        <time>2019-02-03T10:43:13.000Z</time>
      </trkpt>
      <trkpt lat="42.92741" lon="0.58887">
        <ele>1170</ele>
        <time>2019-02-03T10:43:14.000Z</time>
      </trkpt>
      <trkpt lat="42.92741" lon="0.58887">
        <ele>1170</ele>
        <time>2019-02-03T10:43:15.000Z</time>
      </trkpt>
      <trkpt lat="42.92741" lon="0.58887">
        <ele>1170</ele>
        <time>2019-02-03T10:43:16.000Z</time>
      </trkpt>
      <trkpt lat="42.92741" lon="0.58888">
        <ele>1170</ele>
        <time>2019-02-03T10:43:17.000Z</time>
      </trkpt>
      <trkpt lat="42.92741" lon="0.58888">
        <ele>1170</ele>
        <time>2019-02-03T10:43:18.000Z</time>
      </trkpt>
      <trkpt lat="42.92741" lon="0.58888">
        <ele>1170</ele>
        <time>2019-02-03T10:43:19.000Z</time>
      </trkpt>
      <trkpt lat="42.9274" lon="0.58888">
        <ele>1170</ele>
        <time>2019-02-03T10:43:20.000Z</time>
      </trkpt>
      <trkpt lat="42.9274" lon="0.58888">
        <ele>1170</ele>
        <time>2019-02-03T10:43:21.000Z</time>
      </trkpt>
      <trkpt lat="42.9274" lon="0.58889">
        <ele>1170.5</ele>
        <time>2019-02-03T10:43:22.000Z</time>
      </trkpt>
      <trkpt lat="42.9274" lon="0.58889">
        <ele>1171</ele>
        <time>2019-02-03T10:43:23.000Z</time>
      </trkpt>
      <trkpt lat="42.92739" lon="0.58889">
        <ele>1171</ele>
        <time>2019-02-03T10:43:24.000Z</time>
      </trkpt>
      <trkpt lat="42.92739" lon="0.58889">
        <ele>1171</ele>
        <time>2019-02-03T10:43:25.000Z</time>
      </trkpt>
      <trkpt lat="42.92739" lon="0.5889">
        <ele>1171</ele>
        <time>2019-02-03T10:43:26.000Z</time>
      </trkpt>
      <trkpt lat="42.92739" lon="0.5889">
        <ele>1171</ele>
        <time>2019-02-03T10:43:27.000Z</time>
      </trkpt>
      <trkpt lat="42.92739" lon="0.5889">
        <ele>1171.5</ele>
        <time>2019-02-03T10:43:28.000Z</time>
      </trkpt>
      <trkpt lat="42.92739" lon="0.58891">
        <ele>1172</ele>
        <time>2019-02-03T10:43:29.000Z</time>
      </trkpt>
      <trkpt lat="42.92738" lon="0.58891">
        <ele>1172</ele>
        <time>2019-02-03T10:43:30.000Z</time>
      </trkpt>
      <trkpt lat="42.92738" lon="0.58892">
        <ele>1172</ele>
        <time>2019-02-03T10:43:31.000Z</time>
      </trkpt>
      <trkpt lat="42.92738" lon="0.58892">
        <ele>1172.5</ele>
        <time>2019-02-03T10:43:32.000Z</time>
      </trkpt>
      <trkpt lat="42.92739" lon="0.58893">
        <ele>1173</ele>
        <time>2019-02-03T10:43:33.000Z</time>
      </trkpt>
      <trkpt lat="42.92739" lon="0.58893">
        <ele>1173</ele>
        <time>2019-02-03T10:43:34.000Z</time>
      </trkpt>
      <trkpt lat="42.92739" lon="0.58893">
        <ele>1173</ele>
        <time>2019-02-03T10:43:35.000Z</time>
      </trkpt>
      <trkpt lat="42.9274" lon="0.58893">
        <ele>1173</ele>
        <time>2019-02-03T10:43:36.000Z</time>
      </trkpt>
      <trkpt lat="42.9274" lon="0.58893">
        <ele>1173</ele>
        <time>2019-02-03T10:43:37.000Z</time>
      </trkpt>
      <trkpt lat="42.92741" lon="0.58893">
        <ele>1173</ele>
        <time>2019-02-03T10:43:38.000Z</time>
      </trkpt>
      <trkpt lat="42.92741" lon="0.58893">
        <ele>1173</ele>
        <time>2019-02-03T10:43:39.000Z</time>
      </trkpt>
      <trkpt lat="42.92742" lon="0.58893">
        <ele>1173</ele>
        <time>2019-02-03T10:43:40.000Z</time>
      </trkpt>
      <trkpt lat="42.92742" lon="0.58894">
        <ele>1173</ele>
        <time>2019-02-03T10:43:41.000Z</time>
      </trkpt>
      <trkpt lat="42.92741" lon="0.58896">
        <ele>1173</ele>
        <time>2019-02-03T10:43:42.000Z</time>
      </trkpt>
      <trkpt lat="42.92741" lon="0.58897">
        <ele>1173</ele>
        <time>2019-02-03T10:43:43.000Z</time>
      </trkpt>
      <trkpt lat="42.9274" lon="0.58898">
        <ele>1173.5</ele>
        <time>2019-02-03T10:43:44.000Z</time>
      </trkpt>
      <trkpt lat="42.92739" lon="0.58899">
        <ele>1174</ele>
        <time>2019-02-03T10:43:45.000Z</time>
      </trkpt>
      <trkpt lat="42.92738" lon="0.58899">
        <ele>1174</ele>
        <time>2019-02-03T10:43:46.000Z</time>
      </trkpt>
      <trkpt lat="42.92737" lon="0.589">
        <ele>1174</ele>
        <time>2019-02-03T10:43:47.000Z</time>
      </trkpt>
      <trkpt lat="42.92737" lon="0.589">
        <ele>1174</ele>
        <time>2019-02-03T10:43:48.000Z</time>
      </trkpt>
      <trkpt lat="42.92736" lon="0.58901">
        <ele>1174</ele>
        <time>2019-02-03T10:43:49.000Z</time>
      </trkpt>
      <trkpt lat="42.92735" lon="0.58901">
        <ele>1174.5</ele>
        <time>2019-02-03T10:43:50.000Z</time>
      </trkpt>
      <trkpt lat="42.92734" lon="0.58901">
        <ele>1175</ele>
        <time>2019-02-03T10:43:51.000Z</time>
      </trkpt>
      <trkpt lat="42.92733" lon="0.58901">
        <ele>1175</ele>
        <time>2019-02-03T10:43:52.000Z</time>
      </trkpt>
      <trkpt lat="42.92733" lon="0.58901">
        <ele>1175</ele>
        <time>2019-02-03T10:43:53.000Z</time>
      </trkpt>
      <trkpt lat="42.92732" lon="0.58901">
        <ele>1175</ele>
        <time>2019-02-03T10:43:54.000Z</time>
      </trkpt>
      <trkpt lat="42.92732" lon="0.58901">
        <ele>1175</ele>
        <time>2019-02-03T10:43:55.000Z</time>
      </trkpt>
      <trkpt lat="42.92732" lon="0.58902">
        <ele>1175</ele>
        <time>2019-02-03T10:43:56.000Z</time>
      </trkpt>
      <trkpt lat="42.92731" lon="0.58902">
        <ele>1175</ele>
        <time>2019-02-03T10:43:57.000Z</time>
      </trkpt>
      <trkpt lat="42.92731" lon="0.58903">
        <ele>1175.5</ele>
        <time>2019-02-03T10:43:58.000Z</time>
      </trkpt>
      <trkpt lat="42.92731" lon="0.58903">
        <ele>1176</ele>
        <time>2019-02-03T10:43:59.000Z</time>
      </trkpt>
      <trkpt lat="42.92731" lon="0.58903">
        <ele>1176</ele>
        <time>2019-02-03T10:44:00.000Z</time>
      </trkpt>
      <trkpt lat="42.92731" lon="0.58903">
        <ele>1176</ele>
        <time>2019-02-03T10:44:01.000Z</time>
      </trkpt>
      <trkpt lat="42.92731" lon="0.58904">
        <ele>1176</ele>
        <time>2019-02-03T10:44:02.000Z</time>
      </trkpt>
      <trkpt lat="42.92731" lon="0.58903">
        <ele>1176</ele>
        <time>2019-02-03T10:44:03.000Z</time>
      </trkpt>
      <trkpt lat="42.92731" lon="0.58903">
        <ele>1176</ele>
        <time>2019-02-03T10:44:04.000Z</time>
      </trkpt>
      <trkpt lat="42.92732" lon="0.58903">
        <ele>1176</ele>
        <time>2019-02-03T10:44:05.000Z</time>
      </trkpt>
      <trkpt lat="42.92732" lon="0.58903">
        <ele>1176</ele>
        <time>2019-02-03T10:44:06.000Z</time>
      </trkpt>
      <trkpt lat="42.92732" lon="0.58903">
        <ele>1176</ele>
        <time>2019-02-03T10:44:07.000Z</time>
      </trkpt>
      <trkpt lat="42.92733" lon="0.58903">
        <ele>1176</ele>
        <time>2019-02-03T10:44:08.000Z</time>
      </trkpt>
      <trkpt lat="42.92733" lon="0.58903">
        <ele>1176</ele>
        <time>2019-02-03T10:44:09.000Z</time>
      </trkpt>
      <trkpt lat="42.92734" lon="0.58903">
        <ele>1176</ele>
        <time>2019-02-03T10:44:10.000Z</time>
      </trkpt>
      <trkpt lat="42.92734" lon="0.58904">
        <ele>1176</ele>
        <time>2019-02-03T10:44:11.000Z</time>
      </trkpt>
      <trkpt lat="42.92734" lon="0.58905">
        <ele>1176</ele>
        <time>2019-02-03T10:44:12.000Z</time>
      </trkpt>
      <trkpt lat="42.92735" lon="0.58905">
        <ele>1176</ele>
        <time>2019-02-03T10:44:13.000Z</time>
      </trkpt>
      <trkpt lat="42.92734" lon="0.58905">
        <ele>1176</ele>
        <time>2019-02-03T10:44:14.000Z</time>
      </trkpt>
      <trkpt lat="42.92733" lon="0.58906">
        <ele>1177</ele>
        <time>2019-02-03T10:44:15.000Z</time>
      </trkpt>
      <trkpt lat="42.92733" lon="0.58906">
        <ele>1177</ele>
        <time>2019-02-03T10:44:16.000Z</time>
      </trkpt>
      <trkpt lat="42.92732" lon="0.58906">
        <ele>1177</ele>
        <time>2019-02-03T10:44:17.000Z</time>
      </trkpt>
      <trkpt lat="42.92731" lon="0.58906">
        <ele>1177</ele>
        <time>2019-02-03T10:44:18.000Z</time>
      </trkpt>
      <trkpt lat="42.92731" lon="0.58906">
        <ele>1177</ele>
        <time>2019-02-03T10:44:19.000Z</time>
      </trkpt>
      <trkpt lat="42.92731" lon="0.58906">
        <ele>1177</ele>
        <time>2019-02-03T10:44:20.000Z</time>
      </trkpt>
      <trkpt lat="42.92731" lon="0.58906">
        <ele>1177</ele>
        <time>2019-02-03T10:44:21.000Z</time>
      </trkpt>
      <trkpt lat="42.92731" lon="0.58905">
        <ele>1177</ele>
        <time>2019-02-03T10:44:22.000Z</time>
      </trkpt>
      <trkpt lat="42.92732" lon="0.58905">
        <ele>1177</ele>
        <time>2019-02-03T10:44:23.000Z</time>
      </trkpt>
      <trkpt lat="42.92732" lon="0.58905">
        <ele>1178</ele>
        <time>2019-02-03T10:44:24.000Z</time>
      </trkpt>
      <trkpt lat="42.92732" lon="0.58904">
        <ele>1178</ele>
        <time>2019-02-03T10:44:25.000Z</time>
      </trkpt>
      <trkpt lat="42.92732" lon="0.58904">
        <ele>1178</ele>
        <time>2019-02-03T10:44:26.000Z</time>
      </trkpt>
      <trkpt lat="42.92733" lon="0.58904">
        <ele>1178</ele>
        <time>2019-02-03T10:44:27.000Z</time>
      </trkpt>
      <trkpt lat="42.92733" lon="0.58904">
        <ele>1178</ele>
        <time>2019-02-03T10:44:28.000Z</time>
      </trkpt>
      <trkpt lat="42.92734" lon="0.58905">
        <ele>1178</ele>
        <time>2019-02-03T10:44:29.000Z</time>
      </trkpt>
      <trkpt lat="42.92735" lon="0.58905">
        <ele>1178</ele>
        <time>2019-02-03T10:44:30.000Z</time>
      </trkpt>
      <trkpt lat="42.92736" lon="0.58906">
        <ele>1178</ele>
        <time>2019-02-03T10:44:31.000Z</time>
      </trkpt>
      <trkpt lat="42.92737" lon="0.58906">
        <ele>1178</ele>
        <time>2019-02-03T10:44:32.000Z</time>
      </trkpt>
      <trkpt lat="42.92738" lon="0.58907">
        <ele>1178</ele>
        <time>2019-02-03T10:44:33.000Z</time>
      </trkpt>
      <trkpt lat="42.92739" lon="0.58908">
        <ele>1178</ele>
        <time>2019-02-03T10:44:34.000Z</time>
      </trkpt>
      <trkpt lat="42.9274" lon="0.58909">
        <ele>1178</ele>
        <time>2019-02-03T10:44:35.000Z</time>
      </trkpt>
      <trkpt lat="42.92741" lon="0.5891">
        <ele>1178</ele>
        <time>2019-02-03T10:44:36.000Z</time>
      </trkpt>
      <trkpt lat="42.92742" lon="0.5891">
        <ele>1178</ele>
        <time>2019-02-03T10:44:37.000Z</time>
      </trkpt>
      <trkpt lat="42.92742" lon="0.58911">
        <ele>1178</ele>
        <time>2019-02-03T10:44:38.000Z</time>
      </trkpt>
      <trkpt lat="42.92743" lon="0.58911">
        <ele>1178</ele>
        <time>2019-02-03T10:44:39.000Z</time>
      </trkpt>
      <trkpt lat="42.92743" lon="0.58912">
        <ele>1179</ele>
        <time>2019-02-03T10:44:40.000Z</time>
      </trkpt>
      <trkpt lat="42.92744" lon="0.58912">
        <ele>1179</ele>
        <time>2019-02-03T10:44:41.000Z</time>
      </trkpt>
      <trkpt lat="42.92745" lon="0.58913">
        <ele>1179</ele>
        <time>2019-02-03T10:44:42.000Z</time>
      </trkpt>
      <trkpt lat="42.92745" lon="0.58913">
        <ele>1179</ele>
        <time>2019-02-03T10:44:43.000Z</time>
      </trkpt>
      <trkpt lat="42.92746" lon="0.58913">
        <ele>1179</ele>
        <time>2019-02-03T10:44:44.000Z</time>
      </trkpt>
      <trkpt lat="42.92746" lon="0.58914">
        <ele>1179</ele>
        <time>2019-02-03T10:44:45.000Z</time>
      </trkpt>
      <trkpt lat="42.92746" lon="0.58914">
        <ele>1179</ele>
        <time>2019-02-03T10:44:46.000Z</time>
      </trkpt>
      <trkpt lat="42.92747" lon="0.58914">
        <ele>1179</ele>
        <time>2019-02-03T10:44:47.000Z</time>
      </trkpt>
      <trkpt lat="42.92747" lon="0.58915">
        <ele>1180</ele>
        <time>2019-02-03T10:44:48.000Z</time>
      </trkpt>
      <trkpt lat="42.92747" lon="0.58915">
        <ele>1180</ele>
        <time>2019-02-03T10:44:49.000Z</time>
      </trkpt>
      <trkpt lat="42.92747" lon="0.58915">
        <ele>1180</ele>
        <time>2019-02-03T10:44:50.000Z</time>
      </trkpt>
      <trkpt lat="42.92747" lon="0.58915">
        <ele>1180</ele>
        <time>2019-02-03T10:44:51.000Z</time>
      </trkpt>
      <trkpt lat="42.92747" lon="0.58915">
        <ele>1180</ele>
        <time>2019-02-03T10:44:52.000Z</time>
      </trkpt>
      <trkpt lat="42.92748" lon="0.58915">
        <ele>1180</ele>
        <time>2019-02-03T10:44:53.000Z</time>
      </trkpt>
      <trkpt lat="42.92748" lon="0.58915">
        <ele>1180.5</ele>
        <time>2019-02-03T10:44:54.000Z</time>
      </trkpt>
      <trkpt lat="42.92748" lon="0.58915">
        <ele>1181</ele>
        <time>2019-02-03T10:44:55.000Z</time>
      </trkpt>
      <trkpt lat="42.92748" lon="0.58915">
        <ele>1181</ele>
        <time>2019-02-03T10:44:56.000Z</time>
      </trkpt>
      <trkpt lat="42.92748" lon="0.58916">
        <ele>1181</ele>
        <time>2019-02-03T10:44:57.000Z</time>
      </trkpt>
      <trkpt lat="42.92749" lon="0.58916">
        <ele>1181</ele>
        <time>2019-02-03T10:44:58.000Z</time>
      </trkpt>
      <trkpt lat="42.92749" lon="0.58916">
        <ele>1181</ele>
        <time>2019-02-03T10:44:59.000Z</time>
      </trkpt>
      <trkpt lat="42.92749" lon="0.58916">
        <ele>1181</ele>
        <time>2019-02-03T10:45:00.000Z</time>
      </trkpt>
      <trkpt lat="42.92749" lon="0.58916">
        <ele>1181</ele>
        <time>2019-02-03T10:45:01.000Z</time>
      </trkpt>
      <trkpt lat="42.92749" lon="0.58916">
        <ele>1181</ele>
        <time>2019-02-03T10:45:02.000Z</time>
      </trkpt>
      <trkpt lat="42.9275" lon="0.58916">
        <ele>1181</ele>
        <time>2019-02-03T10:45:03.000Z</time>
      </trkpt>
      <trkpt lat="42.9275" lon="0.58916">
        <ele>1181</ele>
        <time>2019-02-03T10:45:04.000Z</time>
      </trkpt>
      <trkpt lat="42.9275" lon="0.58916">
        <ele>1181</ele>
        <time>2019-02-03T10:45:05.000Z</time>
      </trkpt>
      <trkpt lat="42.9275" lon="0.58917">
        <ele>1181</ele>
        <time>2019-02-03T10:45:06.000Z</time>
      </trkpt>
      <trkpt lat="42.9275" lon="0.58917">
        <ele>1181</ele>
        <time>2019-02-03T10:45:07.000Z</time>
      </trkpt>
      <trkpt lat="42.9275" lon="0.58917">
        <ele>1181</ele>
        <time>2019-02-03T10:45:08.000Z</time>
      </trkpt>
      <trkpt lat="42.9275" lon="0.58917">
        <ele>1181.3</ele>
        <time>2019-02-03T10:45:09.000Z</time>
      </trkpt>
      <trkpt lat="42.9275" lon="0.58917">
        <ele>1181.7</ele>
        <time>2019-02-03T10:45:10.000Z</time>
      </trkpt>
      <trkpt lat="42.9275" lon="0.58917">
        <ele>1182</ele>
        <time>2019-02-03T10:45:11.000Z</time>
      </trkpt>
      <trkpt lat="42.9275" lon="0.58917">
        <ele>1182</ele>
        <time>2019-02-03T10:45:12.000Z</time>
      </trkpt>
      <trkpt lat="42.9275" lon="0.58917">
        <ele>1182</ele>
        <time>2019-02-03T10:45:13.000Z</time>
      </trkpt>
      <trkpt lat="42.92749" lon="0.58918">
        <ele>1182</ele>
        <time>2019-02-03T10:45:14.000Z</time>
      </trkpt>
      <trkpt lat="42.9275" lon="0.58918">
        <ele>1182</ele>
        <time>2019-02-03T10:45:15.000Z</time>
      </trkpt>
      <trkpt lat="42.92749" lon="0.58919">
        <ele>1182</ele>
        <time>2019-02-03T10:45:16.000Z</time>
      </trkpt>
      <trkpt lat="42.92749" lon="0.5892">
        <ele>1182</ele>
        <time>2019-02-03T10:45:17.000Z</time>
      </trkpt>
      <trkpt lat="42.92749" lon="0.5892">
        <ele>1182</ele>
        <time>2019-02-03T10:45:18.000Z</time>
      </trkpt>
      <trkpt lat="42.92748" lon="0.5892">
        <ele>1182</ele>
        <time>2019-02-03T10:45:19.000Z</time>
      </trkpt>
      <trkpt lat="42.92746" lon="0.5892">
        <ele>1182</ele>
        <time>2019-02-03T10:45:20.000Z</time>
      </trkpt>
      <trkpt lat="42.92745" lon="0.58921">
        <ele>1182</ele>
        <time>2019-02-03T10:45:21.000Z</time>
      </trkpt>
      <trkpt lat="42.92744" lon="0.58921">
        <ele>1182</ele>
        <time>2019-02-03T10:45:22.000Z</time>
      </trkpt>
      <trkpt lat="42.92744" lon="0.58921">
        <ele>1182</ele>
        <time>2019-02-03T10:45:23.000Z</time>
      </trkpt>
      <trkpt lat="42.92744" lon="0.58921">
        <ele>1182</ele>
        <time>2019-02-03T10:45:24.000Z</time>
      </trkpt>
      <trkpt lat="42.92744" lon="0.58921">
        <ele>1182</ele>
        <time>2019-02-03T10:45:25.000Z</time>
      </trkpt>
      <trkpt lat="42.92744" lon="0.58921">
        <ele>1182</ele>
        <time>2019-02-03T10:45:26.000Z</time>
      </trkpt>
      <trkpt lat="42.92743" lon="0.58921">
        <ele>1182</ele>
        <time>2019-02-03T10:45:27.000Z</time>
      </trkpt>
      <trkpt lat="42.92743" lon="0.58921">
        <ele>1182</ele>
        <time>2019-02-03T10:45:28.000Z</time>
      </trkpt>
      <trkpt lat="42.92742" lon="0.58921">
        <ele>1182</ele>
        <time>2019-02-03T10:45:29.000Z</time>
      </trkpt>
      <trkpt lat="42.92742" lon="0.58921">
        <ele>1182</ele>
        <time>2019-02-03T10:45:30.000Z</time>
      </trkpt>
      <trkpt lat="42.92741" lon="0.58921">
        <ele>1182</ele>
        <time>2019-02-03T10:45:31.000Z</time>
      </trkpt>
      <trkpt lat="42.92741" lon="0.58921">
        <ele>1182</ele>
        <time>2019-02-03T10:45:32.000Z</time>
      </trkpt>
      <trkpt lat="42.9274" lon="0.58921">
        <ele>1182</ele>
        <time>2019-02-03T10:45:33.000Z</time>
      </trkpt>
      <trkpt lat="42.9274" lon="0.58921">
        <ele>1182.5</ele>
        <time>2019-02-03T10:45:34.000Z</time>
      </trkpt>
      <trkpt lat="42.9274" lon="0.58921">
        <ele>1183</ele>
        <time>2019-02-03T10:45:35.000Z</time>
      </trkpt>
      <trkpt lat="42.9274" lon="0.58921">
        <ele>1183</ele>
        <time>2019-02-03T10:45:36.000Z</time>
      </trkpt>
      <trkpt lat="42.9274" lon="0.58921">
        <ele>1183</ele>
        <time>2019-02-03T10:45:37.000Z</time>
      </trkpt>
      <trkpt lat="42.92739" lon="0.58921">
        <ele>1183</ele>
        <time>2019-02-03T10:45:38.000Z</time>
      </trkpt>
      <trkpt lat="42.92739" lon="0.58922">
        <ele>1183</ele>
        <time>2019-02-03T10:45:39.000Z</time>
      </trkpt>
      <trkpt lat="42.92739" lon="0.58923">
        <ele>1183.5</ele>
        <time>2019-02-03T10:45:40.000Z</time>
      </trkpt>
      <trkpt lat="42.92738" lon="0.58924">
        <ele>1184</ele>
        <time>2019-02-03T10:45:41.000Z</time>
      </trkpt>
      <trkpt lat="42.92738" lon="0.58924">
        <ele>1184</ele>
        <time>2019-02-03T10:45:42.000Z</time>
      </trkpt>
      <trkpt lat="42.92738" lon="0.58925">
        <ele>1184</ele>
        <time>2019-02-03T10:45:43.000Z</time>
      </trkpt>
      <trkpt lat="42.92738" lon="0.58925">
        <ele>1184</ele>
        <time>2019-02-03T10:45:44.000Z</time>
      </trkpt>
      <trkpt lat="42.92737" lon="0.58926">
        <ele>1184.3</ele>
        <time>2019-02-03T10:45:45.000Z</time>
      </trkpt>
      <trkpt lat="42.92737" lon="0.58927">
        <ele>1184.7</ele>
        <time>2019-02-03T10:45:46.000Z</time>
      </trkpt>
      <trkpt lat="42.92737" lon="0.58927">
        <ele>1185</ele>
        <time>2019-02-03T10:45:47.000Z</time>
      </trkpt>
      <trkpt lat="42.92737" lon="0.58928">
        <ele>1185</ele>
        <time>2019-02-03T10:45:48.000Z</time>
      </trkpt>
      <trkpt lat="42.92737" lon="0.58928">
        <ele>1185</ele>
        <time>2019-02-03T10:45:49.000Z</time>
      </trkpt>
      <trkpt lat="42.92737" lon="0.58929">
        <ele>1185</ele>
        <time>2019-02-03T10:45:50.000Z</time>
      </trkpt>
      <trkpt lat="42.92737" lon="0.5893">
        <ele>1185</ele>
        <time>2019-02-03T10:45:51.000Z</time>
      </trkpt>
      <trkpt lat="42.92737" lon="0.58931">
        <ele>1185.5</ele>
        <time>2019-02-03T10:45:52.000Z</time>
      </trkpt>
      <trkpt lat="42.92737" lon="0.58931">
        <ele>1186</ele>
        <time>2019-02-03T10:45:53.000Z</time>
      </trkpt>
      <trkpt lat="42.92737" lon="0.58932">
        <ele>1186</ele>
        <time>2019-02-03T10:45:54.000Z</time>
      </trkpt>
      <trkpt lat="42.92737" lon="0.58933">
        <ele>1186</ele>
        <time>2019-02-03T10:45:55.000Z</time>
      </trkpt>
      <trkpt lat="42.92737" lon="0.58934">
        <ele>1186</ele>
        <time>2019-02-03T10:45:56.000Z</time>
      </trkpt>
      <trkpt lat="42.92737" lon="0.58935">
        <ele>1186.3</ele>
        <time>2019-02-03T10:45:57.000Z</time>
      </trkpt>
      <trkpt lat="42.92737" lon="0.58935">
        <ele>1186.7</ele>
        <time>2019-02-03T10:45:58.000Z</time>
      </trkpt>
      <trkpt lat="42.92737" lon="0.58936">
        <ele>1187</ele>
        <time>2019-02-03T10:45:59.000Z</time>
      </trkpt>
      <trkpt lat="42.92737" lon="0.58937">
        <ele>1187</ele>
        <time>2019-02-03T10:46:00.000Z</time>
      </trkpt>
      <trkpt lat="42.92737" lon="0.58938">
        <ele>1187</ele>
        <time>2019-02-03T10:46:01.000Z</time>
      </trkpt>
      <trkpt lat="42.92737" lon="0.58939">
        <ele>1187</ele>
        <time>2019-02-03T10:46:02.000Z</time>
      </trkpt>
      <trkpt lat="42.92737" lon="0.58939">
        <ele>1187</ele>
        <time>2019-02-03T10:46:03.000Z</time>
      </trkpt>
      <trkpt lat="42.92737" lon="0.5894">
        <ele>1187.5</ele>
        <time>2019-02-03T10:46:04.000Z</time>
      </trkpt>
      <trkpt lat="42.92736" lon="0.58941">
        <ele>1188</ele>
        <time>2019-02-03T10:46:05.000Z</time>
      </trkpt>
      <trkpt lat="42.92736" lon="0.58941">
        <ele>1188</ele>
        <time>2019-02-03T10:46:06.000Z</time>
      </trkpt>
      <trkpt lat="42.92735" lon="0.58942">
        <ele>1188</ele>
        <time>2019-02-03T10:46:07.000Z</time>
      </trkpt>
      <trkpt lat="42.92734" lon="0.58942">
        <ele>1188</ele>
        <time>2019-02-03T10:46:08.000Z</time>
      </trkpt>
      <trkpt lat="42.92733" lon="0.58943">
        <ele>1188</ele>
        <time>2019-02-03T10:46:09.000Z</time>
      </trkpt>
      <trkpt lat="42.92732" lon="0.58943">
        <ele>1188</ele>
        <time>2019-02-03T10:46:10.000Z</time>
      </trkpt>
      <trkpt lat="42.92731" lon="0.58943">
        <ele>1188</ele>
        <time>2019-02-03T10:46:11.000Z</time>
      </trkpt>
      <trkpt lat="42.9273" lon="0.58944">
        <ele>1188</ele>
        <time>2019-02-03T10:46:12.000Z</time>
      </trkpt>
      <trkpt lat="42.92729" lon="0.58944">
        <ele>1188</ele>
        <time>2019-02-03T10:46:13.000Z</time>
      </trkpt>
      <trkpt lat="42.92729" lon="0.58945">
        <ele>1188</ele>
        <time>2019-02-03T10:46:14.000Z</time>
      </trkpt>
      <trkpt lat="42.92728" lon="0.58945">
        <ele>1188</ele>
        <time>2019-02-03T10:46:15.000Z</time>
      </trkpt>
      <trkpt lat="42.92728" lon="0.58946">
        <ele>1188</ele>
        <time>2019-02-03T10:46:16.000Z</time>
      </trkpt>
      <trkpt lat="42.92728" lon="0.58946">
        <ele>1188</ele>
        <time>2019-02-03T10:46:17.000Z</time>
      </trkpt>
      <trkpt lat="42.92728" lon="0.58946">
        <ele>1188.5</ele>
        <time>2019-02-03T10:46:18.000Z</time>
      </trkpt>
      <trkpt lat="42.92728" lon="0.58947">
        <ele>1189</ele>
        <time>2019-02-03T10:46:19.000Z</time>
      </trkpt>
      <trkpt lat="42.92728" lon="0.58947">
        <ele>1189</ele>
        <time>2019-02-03T10:46:20.000Z</time>
      </trkpt>
      <trkpt lat="42.92728" lon="0.58947">
        <ele>1189</ele>
        <time>2019-02-03T10:46:21.000Z</time>
      </trkpt>
      <trkpt lat="42.92728" lon="0.58948">
        <ele>1189</ele>
        <time>2019-02-03T10:46:22.000Z</time>
      </trkpt>
      <trkpt lat="42.92728" lon="0.58948">
        <ele>1189</ele>
        <time>2019-02-03T10:46:23.000Z</time>
      </trkpt>
      <trkpt lat="42.92728" lon="0.58948">
        <ele>1189</ele>
        <time>2019-02-03T10:46:24.000Z</time>
      </trkpt>
      <trkpt lat="42.92728" lon="0.58949">
        <ele>1189.3</ele>
        <time>2019-02-03T10:46:25.000Z</time>
      </trkpt>
      <trkpt lat="42.92728" lon="0.58949">
        <ele>1189.7</ele>
        <time>2019-02-03T10:46:26.000Z</time>
      </trkpt>
      <trkpt lat="42.92728" lon="0.58949">
        <ele>1190</ele>
        <time>2019-02-03T10:46:27.000Z</time>
      </trkpt>
      <trkpt lat="42.92728" lon="0.58949">
        <ele>1190</ele>
        <time>2019-02-03T10:46:28.000Z</time>
      </trkpt>
      <trkpt lat="42.92728" lon="0.58949">
        <ele>1190</ele>
        <time>2019-02-03T10:46:29.000Z</time>
      </trkpt>
      <trkpt lat="42.92727" lon="0.5895">
        <ele>1190</ele>
        <time>2019-02-03T10:46:30.000Z</time>
      </trkpt>
      <trkpt lat="42.92727" lon="0.5895">
        <ele>1190</ele>
        <time>2019-02-03T10:46:31.000Z</time>
      </trkpt>
      <trkpt lat="42.92727" lon="0.5895">
        <ele>1190</ele>
        <time>2019-02-03T10:46:32.000Z</time>
      </trkpt>
      <trkpt lat="42.92727" lon="0.5895">
        <ele>1190</ele>
        <time>2019-02-03T10:46:33.000Z</time>
      </trkpt>
      <trkpt lat="42.92726" lon="0.58951">
        <ele>1190</ele>
        <time>2019-02-03T10:46:34.000Z</time>
      </trkpt>
      <trkpt lat="42.92726" lon="0.58951">
        <ele>1190</ele>
        <time>2019-02-03T10:46:35.000Z</time>
      </trkpt>
      <trkpt lat="42.92726" lon="0.58952">
        <ele>1190.5</ele>
        <time>2019-02-03T10:46:36.000Z</time>
      </trkpt>
      <trkpt lat="42.92726" lon="0.58952">
        <ele>1191</ele>
        <time>2019-02-03T10:46:37.000Z</time>
      </trkpt>
      <trkpt lat="42.92725" lon="0.58952">
        <ele>1191</ele>
        <time>2019-02-03T10:46:38.000Z</time>
      </trkpt>
      <trkpt lat="42.92725" lon="0.58952">
        <ele>1191</ele>
        <time>2019-02-03T10:46:39.000Z</time>
      </trkpt>
      <trkpt lat="42.92725" lon="0.58953">
        <ele>1191</ele>
        <time>2019-02-03T10:46:40.000Z</time>
      </trkpt>
      <trkpt lat="42.92725" lon="0.58953">
        <ele>1191</ele>
        <time>2019-02-03T10:46:41.000Z</time>
      </trkpt>
      <trkpt lat="42.92725" lon="0.58953">
        <ele>1191.5</ele>
        <time>2019-02-03T10:46:42.000Z</time>
      </trkpt>
      <trkpt lat="42.92725" lon="0.58953">
        <ele>1192</ele>
        <time>2019-02-03T10:46:43.000Z</time>
      </trkpt>
      <trkpt lat="42.92725" lon="0.58953">
        <ele>1192</ele>
        <time>2019-02-03T10:46:44.000Z</time>
      </trkpt>
      <trkpt lat="42.92724" lon="0.58953">
        <ele>1192</ele>
        <time>2019-02-03T10:46:45.000Z</time>
      </trkpt>
      <trkpt lat="42.92725" lon="0.58953">
        <ele>1192</ele>
        <time>2019-02-03T10:46:46.000Z</time>
      </trkpt>
      <trkpt lat="42.92725" lon="0.58953">
        <ele>1192</ele>
        <time>2019-02-03T10:46:47.000Z</time>
      </trkpt>
      <trkpt lat="42.92725" lon="0.58954">
        <ele>1192</ele>
        <time>2019-02-03T10:46:48.000Z</time>
      </trkpt>
      <trkpt lat="42.92725" lon="0.58954">
        <ele>1192</ele>
        <time>2019-02-03T10:46:49.000Z</time>
      </trkpt>
      <trkpt lat="42.92725" lon="0.58954">
        <ele>1192</ele>
        <time>2019-02-03T10:46:50.000Z</time>
      </trkpt>
      <trkpt lat="42.92726" lon="0.58955">
        <ele>1192</ele>
        <time>2019-02-03T10:46:51.000Z</time>
      </trkpt>
      <trkpt lat="42.92726" lon="0.58955">
        <ele>1192</ele>
        <time>2019-02-03T10:46:52.000Z</time>
      </trkpt>
      <trkpt lat="42.92726" lon="0.58956">
        <ele>1192</ele>
        <time>2019-02-03T10:46:53.000Z</time>
      </trkpt>
      <trkpt lat="42.92727" lon="0.58956">
        <ele>1192.5</ele>
        <time>2019-02-03T10:46:54.000Z</time>
      </trkpt>
      <trkpt lat="42.92727" lon="0.58957">
        <ele>1193</ele>
        <time>2019-02-03T10:46:55.000Z</time>
      </trkpt>
      <trkpt lat="42.92728" lon="0.58957">
        <ele>1193</ele>
        <time>2019-02-03T10:46:56.000Z</time>
      </trkpt>
      <trkpt lat="42.92728" lon="0.58957">
        <ele>1193</ele>
        <time>2019-02-03T10:46:57.000Z</time>
      </trkpt>
      <trkpt lat="42.92728" lon="0.58958">
        <ele>1193</ele>
        <time>2019-02-03T10:46:58.000Z</time>
      </trkpt>
      <trkpt lat="42.92729" lon="0.58958">
        <ele>1193</ele>
        <time>2019-02-03T10:46:59.000Z</time>
      </trkpt>
      <trkpt lat="42.92729" lon="0.58958">
        <ele>1193</ele>
        <time>2019-02-03T10:47:00.000Z</time>
      </trkpt>
      <trkpt lat="42.92729" lon="0.58958">
        <ele>1193</ele>
        <time>2019-02-03T10:47:01.000Z</time>
      </trkpt>
      <trkpt lat="42.9273" lon="0.58958">
        <ele>1193</ele>
        <time>2019-02-03T10:47:02.000Z</time>
      </trkpt>
      <trkpt lat="42.9273" lon="0.58958">
        <ele>1193</ele>
        <time>2019-02-03T10:47:03.000Z</time>
      </trkpt>
      <trkpt lat="42.92731" lon="0.58958">
        <ele>1193.5</ele>
        <time>2019-02-03T10:47:04.000Z</time>
      </trkpt>
      <trkpt lat="42.92731" lon="0.58959">
        <ele>1194</ele>
        <time>2019-02-03T10:47:05.000Z</time>
      </trkpt>
      <trkpt lat="42.92732" lon="0.58959">
        <ele>1194</ele>
        <time>2019-02-03T10:47:06.000Z</time>
      </trkpt>
      <trkpt lat="42.92732" lon="0.5896">
        <ele>1194</ele>
        <time>2019-02-03T10:47:07.000Z</time>
      </trkpt>
      <trkpt lat="42.92733" lon="0.5896">
        <ele>1194</ele>
        <time>2019-02-03T10:47:08.000Z</time>
      </trkpt>
      <trkpt lat="42.92733" lon="0.5896">
        <ele>1194</ele>
        <time>2019-02-03T10:47:09.000Z</time>
      </trkpt>
      <trkpt lat="42.92733" lon="0.58961">
        <ele>1194.5</ele>
        <time>2019-02-03T10:47:10.000Z</time>
      </trkpt>
      <trkpt lat="42.92734" lon="0.58961">
        <ele>1195</ele>
        <time>2019-02-03T10:47:11.000Z</time>
      </trkpt>
      <trkpt lat="42.92734" lon="0.58961">
        <ele>1195</ele>
        <time>2019-02-03T10:47:12.000Z</time>
      </trkpt>
      <trkpt lat="42.92734" lon="0.58961">
        <ele>1195</ele>
        <time>2019-02-03T10:47:13.000Z</time>
      </trkpt>
      <trkpt lat="42.92734" lon="0.58961">
        <ele>1195</ele>
        <time>2019-02-03T10:47:14.000Z</time>
      </trkpt>
      <trkpt lat="42.92735" lon="0.58961">
        <ele>1195</ele>
        <time>2019-02-03T10:47:15.000Z</time>
      </trkpt>
      <trkpt lat="42.92735" lon="0.58961">
        <ele>1195</ele>
        <time>2019-02-03T10:47:16.000Z</time>
      </trkpt>
      <trkpt lat="42.92735" lon="0.58961">
        <ele>1195</ele>
        <time>2019-02-03T10:47:17.000Z</time>
      </trkpt>
      <trkpt lat="42.92735" lon="0.58961">
        <ele>1195.5</ele>
        <time>2019-02-03T10:47:18.000Z</time>
      </trkpt>
      <trkpt lat="42.92735" lon="0.58961">
        <ele>1196</ele>
        <time>2019-02-03T10:47:19.000Z</time>
      </trkpt>
      <trkpt lat="42.92735" lon="0.58961">
        <ele>1196</ele>
        <time>2019-02-03T10:47:20.000Z</time>
      </trkpt>
      <trkpt lat="42.92735" lon="0.58961">
        <ele>1196</ele>
        <time>2019-02-03T10:47:21.000Z</time>
      </trkpt>
      <trkpt lat="42.92736" lon="0.58961">
        <ele>1196</ele>
        <time>2019-02-03T10:47:22.000Z</time>
      </trkpt>
      <trkpt lat="42.92736" lon="0.58961">
        <ele>1196</ele>
        <time>2019-02-03T10:47:23.000Z</time>
      </trkpt>
      <trkpt lat="42.92736" lon="0.58961">
        <ele>1196</ele>
        <time>2019-02-03T10:47:24.000Z</time>
      </trkpt>
      <trkpt lat="42.92736" lon="0.58961">
        <ele>1196</ele>
        <time>2019-02-03T10:47:25.000Z</time>
      </trkpt>
      <trkpt lat="42.92737" lon="0.58961">
        <ele>1196</ele>
        <time>2019-02-03T10:47:26.000Z</time>
      </trkpt>
      <trkpt lat="42.92737" lon="0.58961">
        <ele>1196</ele>
        <time>2019-02-03T10:47:27.000Z</time>
      </trkpt>
      <trkpt lat="42.92738" lon="0.58961">
        <ele>1196</ele>
        <time>2019-02-03T10:47:28.000Z</time>
      </trkpt>
      <trkpt lat="42.92738" lon="0.58961">
        <ele>1196</ele>
        <time>2019-02-03T10:47:29.000Z</time>
      </trkpt>
      <trkpt lat="42.92739" lon="0.58961">
        <ele>1196</ele>
        <time>2019-02-03T10:47:30.000Z</time>
      </trkpt>
      <trkpt lat="42.9274" lon="0.58962">
        <ele>1196</ele>
        <time>2019-02-03T10:47:31.000Z</time>
      </trkpt>
      <trkpt lat="42.9274" lon="0.58962">
        <ele>1196.5</ele>
        <time>2019-02-03T10:47:32.000Z</time>
      </trkpt>
      <trkpt lat="42.92741" lon="0.58962">
        <ele>1197</ele>
        <time>2019-02-03T10:47:33.000Z</time>
      </trkpt>
      <trkpt lat="42.92741" lon="0.58963">
        <ele>1197</ele>
        <time>2019-02-03T10:47:34.000Z</time>
      </trkpt>
      <trkpt lat="42.92741" lon="0.58963">
        <ele>1197</ele>
        <time>2019-02-03T10:47:35.000Z</time>
      </trkpt>
      <trkpt lat="42.92741" lon="0.58963">
        <ele>1197</ele>
        <time>2019-02-03T10:47:36.000Z</time>
      </trkpt>
      <trkpt lat="42.92742" lon="0.58964">
        <ele>1197</ele>
        <time>2019-02-03T10:47:37.000Z</time>
      </trkpt>
      <trkpt lat="42.92742" lon="0.58964">
        <ele>1197</ele>
        <time>2019-02-03T10:47:38.000Z</time>
      </trkpt>
      <trkpt lat="42.92742" lon="0.58964">
        <ele>1197</ele>
        <time>2019-02-03T10:47:39.000Z</time>
      </trkpt>
      <trkpt lat="42.92742" lon="0.58964">
        <ele>1197.5</ele>
        <time>2019-02-03T10:47:40.000Z</time>
      </trkpt>
      <trkpt lat="42.92742" lon="0.58964">
        <ele>1198</ele>
        <time>2019-02-03T10:47:41.000Z</time>
      </trkpt>
      <trkpt lat="42.92742" lon="0.58964">
        <ele>1198</ele>
        <time>2019-02-03T10:47:42.000Z</time>
      </trkpt>
      <trkpt lat="42.92742" lon="0.58964">
        <ele>1198</ele>
        <time>2019-02-03T10:47:43.000Z</time>
      </trkpt>
      <trkpt lat="42.92742" lon="0.58964">
        <ele>1198</ele>
        <time>2019-02-03T10:47:44.000Z</time>
      </trkpt>
      <trkpt lat="42.92742" lon="0.58964">
        <ele>1198</ele>
        <time>2019-02-03T10:47:45.000Z</time>
      </trkpt>
      <trkpt lat="42.92742" lon="0.58964">
        <ele>1198</ele>
        <time>2019-02-03T10:47:46.000Z</time>
      </trkpt>
      <trkpt lat="42.92742" lon="0.58964">
        <ele>1198</ele>
        <time>2019-02-03T10:47:47.000Z</time>
      </trkpt>
      <trkpt lat="42.92742" lon="0.58964">
        <ele>1199</ele>
        <time>2019-02-03T10:47:48.000Z</time>
      </trkpt>
      <trkpt lat="42.92742" lon="0.58964">
        <ele>1199</ele>
        <time>2019-02-03T10:47:49.000Z</time>
      </trkpt>
      <trkpt lat="42.92742" lon="0.58964">
        <ele>1199</ele>
        <time>2019-02-03T10:47:50.000Z</time>
      </trkpt>
      <trkpt lat="42.92742" lon="0.58965">
        <ele>1199</ele>
        <time>2019-02-03T10:47:51.000Z</time>
      </trkpt>
      <trkpt lat="42.92742" lon="0.58965">
        <ele>1199</ele>
        <time>2019-02-03T10:47:52.000Z</time>
      </trkpt>
      <trkpt lat="42.92742" lon="0.58966">
        <ele>1199</ele>
        <time>2019-02-03T10:47:53.000Z</time>
      </trkpt>
      <trkpt lat="42.92742" lon="0.58966">
        <ele>1199.5</ele>
        <time>2019-02-03T10:47:54.000Z</time>
      </trkpt>
      <trkpt lat="42.92742" lon="0.58967">
        <ele>1200</ele>
        <time>2019-02-03T10:47:55.000Z</time>
      </trkpt>
      <trkpt lat="42.92742" lon="0.58967">
        <ele>1200</ele>
        <time>2019-02-03T10:47:56.000Z</time>
      </trkpt>
      <trkpt lat="42.92742" lon="0.58968">
        <ele>1200</ele>
        <time>2019-02-03T10:47:57.000Z</time>
      </trkpt>
      <trkpt lat="42.92742" lon="0.58969">
        <ele>1200</ele>
        <time>2019-02-03T10:47:58.000Z</time>
      </trkpt>
      <trkpt lat="42.92742" lon="0.58969">
        <ele>1200</ele>
        <time>2019-02-03T10:47:59.000Z</time>
      </trkpt>
      <trkpt lat="42.92742" lon="0.5897">
        <ele>1200</ele>
        <time>2019-02-03T10:48:00.000Z</time>
      </trkpt>
      <trkpt lat="42.92742" lon="0.58971">
        <ele>1200</ele>
        <time>2019-02-03T10:48:01.000Z</time>
      </trkpt>
      <trkpt lat="42.92742" lon="0.58971">
        <ele>1200.5</ele>
        <time>2019-02-03T10:48:02.000Z</time>
      </trkpt>
      <trkpt lat="42.92742" lon="0.58972">
        <ele>1201</ele>
        <time>2019-02-03T10:48:03.000Z</time>
      </trkpt>
      <trkpt lat="42.92742" lon="0.58972">
        <ele>1201</ele>
        <time>2019-02-03T10:48:04.000Z</time>
      </trkpt>
      <trkpt lat="42.92742" lon="0.58973">
        <ele>1201</ele>
        <time>2019-02-03T10:48:05.000Z</time>
      </trkpt>
      <trkpt lat="42.92742" lon="0.58973">
        <ele>1201</ele>
        <time>2019-02-03T10:48:06.000Z</time>
      </trkpt>
      <trkpt lat="42.92742" lon="0.58974">
        <ele>1201</ele>
        <time>2019-02-03T10:48:07.000Z</time>
      </trkpt>
      <trkpt lat="42.92742" lon="0.58974">
        <ele>1201</ele>
        <time>2019-02-03T10:48:08.000Z</time>
      </trkpt>
      <trkpt lat="42.92742" lon="0.58975">
        <ele>1201</ele>
        <time>2019-02-03T10:48:09.000Z</time>
      </trkpt>
      <trkpt lat="42.92742" lon="0.58975">
        <ele>1201.5</ele>
        <time>2019-02-03T10:48:10.000Z</time>
      </trkpt>
      <trkpt lat="42.92741" lon="0.58976">
        <ele>1202</ele>
        <time>2019-02-03T10:48:11.000Z</time>
      </trkpt>
      <trkpt lat="42.92741" lon="0.58976">
        <ele>1202</ele>
        <time>2019-02-03T10:48:12.000Z</time>
      </trkpt>
      <trkpt lat="42.92741" lon="0.58977">
        <ele>1202</ele>
        <time>2019-02-03T10:48:13.000Z</time>
      </trkpt>
      <trkpt lat="42.92741" lon="0.58977">
        <ele>1202</ele>
        <time>2019-02-03T10:48:14.000Z</time>
      </trkpt>
      <trkpt lat="42.9274" lon="0.58978">
        <ele>1202</ele>
        <time>2019-02-03T10:48:15.000Z</time>
      </trkpt>
      <trkpt lat="42.9274" lon="0.58978">
        <ele>1202</ele>
        <time>2019-02-03T10:48:16.000Z</time>
      </trkpt>
      <trkpt lat="42.92739" lon="0.58978">
        <ele>1202</ele>
        <time>2019-02-03T10:48:17.000Z</time>
      </trkpt>
      <trkpt lat="42.92739" lon="0.58979">
        <ele>1202.5</ele>
        <time>2019-02-03T10:48:18.000Z</time>
      </trkpt>
      <trkpt lat="42.92739" lon="0.58979">
        <ele>1203</ele>
        <time>2019-02-03T10:48:19.000Z</time>
      </trkpt>
      <trkpt lat="42.92738" lon="0.58979">
        <ele>1203</ele>
        <time>2019-02-03T10:48:20.000Z</time>
      </trkpt>
      <trkpt lat="42.92738" lon="0.5898">
        <ele>1203</ele>
        <time>2019-02-03T10:48:21.000Z</time>
      </trkpt>
      <trkpt lat="42.92737" lon="0.5898">
        <ele>1203</ele>
        <time>2019-02-03T10:48:22.000Z</time>
      </trkpt>
      <trkpt lat="42.92737" lon="0.58981">
        <ele>1203</ele>
        <time>2019-02-03T10:48:23.000Z</time>
      </trkpt>
      <trkpt lat="42.92737" lon="0.58981">
        <ele>1203</ele>
        <time>2019-02-03T10:48:24.000Z</time>
      </trkpt>
      <trkpt lat="42.92737" lon="0.58982">
        <ele>1203</ele>
        <time>2019-02-03T10:48:25.000Z</time>
      </trkpt>
      <trkpt lat="42.92737" lon="0.58982">
        <ele>1203.5</ele>
        <time>2019-02-03T10:48:26.000Z</time>
      </trkpt>
      <trkpt lat="42.92737" lon="0.58983">
        <ele>1204</ele>
        <time>2019-02-03T10:48:27.000Z</time>
      </trkpt>
      <trkpt lat="42.92737" lon="0.58984">
        <ele>1204</ele>
        <time>2019-02-03T10:48:28.000Z</time>
      </trkpt>
      <trkpt lat="42.92737" lon="0.58984">
        <ele>1204</ele>
        <time>2019-02-03T10:48:29.000Z</time>
      </trkpt>
      <trkpt lat="42.92737" lon="0.58985">
        <ele>1204</ele>
        <time>2019-02-03T10:48:30.000Z</time>
      </trkpt>
      <trkpt lat="42.92737" lon="0.58985">
        <ele>1204</ele>
        <time>2019-02-03T10:48:31.000Z</time>
      </trkpt>
      <trkpt lat="42.92737" lon="0.58986">
        <ele>1204.5</ele>
        <time>2019-02-03T10:48:32.000Z</time>
      </trkpt>
      <trkpt lat="42.92737" lon="0.58986">
        <ele>1205</ele>
        <time>2019-02-03T10:48:33.000Z</time>
      </trkpt>
      <trkpt lat="42.92737" lon="0.58986">
        <ele>1205</ele>
        <time>2019-02-03T10:48:34.000Z</time>
      </trkpt>
      <trkpt lat="42.92737" lon="0.58986">
        <ele>1205</ele>
        <time>2019-02-03T10:48:35.000Z</time>
      </trkpt>
      <trkpt lat="42.92737" lon="0.58987">
        <ele>1205</ele>
        <time>2019-02-03T10:48:36.000Z</time>
      </trkpt>
      <trkpt lat="42.92736" lon="0.58987">
        <ele>1205</ele>
        <time>2019-02-03T10:48:37.000Z</time>
      </trkpt>
      <trkpt lat="42.92736" lon="0.58987">
        <ele>1205</ele>
        <time>2019-02-03T10:48:38.000Z</time>
      </trkpt>
      <trkpt lat="42.92736" lon="0.58987">
        <ele>1205.3</ele>
        <time>2019-02-03T10:48:39.000Z</time>
      </trkpt>
      <trkpt lat="42.92735" lon="0.58987">
        <ele>1205.7</ele>
        <time>2019-02-03T10:48:40.000Z</time>
      </trkpt>
      <trkpt lat="42.92735" lon="0.58987">
        <ele>1206</ele>
        <time>2019-02-03T10:48:41.000Z</time>
      </trkpt>
      <trkpt lat="42.92735" lon="0.58987">
        <ele>1206</ele>
        <time>2019-02-03T10:48:42.000Z</time>
      </trkpt>
      <trkpt lat="42.92735" lon="0.58987">
        <ele>1206</ele>
        <time>2019-02-03T10:48:43.000Z</time>
      </trkpt>
      <trkpt lat="42.92735" lon="0.58987">
        <ele>1206</ele>
        <time>2019-02-03T10:48:44.000Z</time>
      </trkpt>
      <trkpt lat="42.92735" lon="0.58987">
        <ele>1206</ele>
        <time>2019-02-03T10:48:45.000Z</time>
      </trkpt>
      <trkpt lat="42.92735" lon="0.58986">
        <ele>1206</ele>
        <time>2019-02-03T10:48:46.000Z</time>
      </trkpt>
      <trkpt lat="42.92735" lon="0.58986">
        <ele>1206</ele>
        <time>2019-02-03T10:48:47.000Z</time>
      </trkpt>
      <trkpt lat="42.92735" lon="0.58987">
        <ele>1206</ele>
        <time>2019-02-03T10:48:48.000Z</time>
      </trkpt>
      <trkpt lat="42.92735" lon="0.58987">
        <ele>1206</ele>
        <time>2019-02-03T10:48:49.000Z</time>
      </trkpt>
      <trkpt lat="42.92734" lon="0.58987">
        <ele>1206</ele>
        <time>2019-02-03T10:48:50.000Z</time>
      </trkpt>
      <trkpt lat="42.92733" lon="0.58987">
        <ele>1206</ele>
        <time>2019-02-03T10:48:51.000Z</time>
      </trkpt>
      <trkpt lat="42.92733" lon="0.58987">
        <ele>1206</ele>
        <time>2019-02-03T10:48:52.000Z</time>
      </trkpt>
      <trkpt lat="42.92732" lon="0.58987">
        <ele>1206</ele>
        <time>2019-02-03T10:48:53.000Z</time>
      </trkpt>
      <trkpt lat="42.92732" lon="0.58986">
        <ele>1207</ele>
        <time>2019-02-03T10:48:54.000Z</time>
      </trkpt>
      <trkpt lat="42.92732" lon="0.58986">
        <ele>1207</ele>
        <time>2019-02-03T10:48:55.000Z</time>
      </trkpt>
      <trkpt lat="42.92731" lon="0.58986">
        <ele>1207</ele>
        <time>2019-02-03T10:48:56.000Z</time>
      </trkpt>
      <trkpt lat="42.92731" lon="0.58986">
        <ele>1207</ele>
        <time>2019-02-03T10:48:57.000Z</time>
      </trkpt>
      <trkpt lat="42.92731" lon="0.58986">
        <ele>1207</ele>
        <time>2019-02-03T10:48:58.000Z</time>
      </trkpt>
      <trkpt lat="42.92731" lon="0.58986">
        <ele>1207</ele>
        <time>2019-02-03T10:48:59.000Z</time>
      </trkpt>
      <trkpt lat="42.92731" lon="0.58986">
        <ele>1207</ele>
        <time>2019-02-03T10:49:00.000Z</time>
      </trkpt>
      <trkpt lat="42.92731" lon="0.58987">
        <ele>1207</ele>
        <time>2019-02-03T10:49:01.000Z</time>
      </trkpt>
      <trkpt lat="42.9273" lon="0.58987">
        <ele>1207</ele>
        <time>2019-02-03T10:49:02.000Z</time>
      </trkpt>
      <trkpt lat="42.9273" lon="0.58987">
        <ele>1207.3</ele>
        <time>2019-02-03T10:49:03.000Z</time>
      </trkpt>
      <trkpt lat="42.9273" lon="0.58988">
        <ele>1207.7</ele>
        <time>2019-02-03T10:49:04.000Z</time>
      </trkpt>
      <trkpt lat="42.9273" lon="0.58988">
        <ele>1208</ele>
        <time>2019-02-03T10:49:05.000Z</time>
      </trkpt>
      <trkpt lat="42.9273" lon="0.58988">
        <ele>1208</ele>
        <time>2019-02-03T10:49:06.000Z</time>
      </trkpt>
      <trkpt lat="42.9273" lon="0.58989">
        <ele>1208</ele>
        <time>2019-02-03T10:49:07.000Z</time>
      </trkpt>
      <trkpt lat="42.9273" lon="0.58989">
        <ele>1208</ele>
        <time>2019-02-03T10:49:08.000Z</time>
      </trkpt>
      <trkpt lat="42.9273" lon="0.5899">
        <ele>1208</ele>
        <time>2019-02-03T10:49:09.000Z</time>
      </trkpt>
      <trkpt lat="42.92731" lon="0.5899">
        <ele>1208</ele>
        <time>2019-02-03T10:49:10.000Z</time>
      </trkpt>
      <trkpt lat="42.92731" lon="0.5899">
        <ele>1208</ele>
        <time>2019-02-03T10:49:11.000Z</time>
      </trkpt>
      <trkpt lat="42.92732" lon="0.58991">
        <ele>1208</ele>
        <time>2019-02-03T10:49:12.000Z</time>
      </trkpt>
      <trkpt lat="42.92733" lon="0.58991">
        <ele>1208</ele>
        <time>2019-02-03T10:49:13.000Z</time>
      </trkpt>
      <trkpt lat="42.92733" lon="0.58991">
        <ele>1208</ele>
        <time>2019-02-03T10:49:14.000Z</time>
      </trkpt>
      <trkpt lat="42.92733" lon="0.58992">
        <ele>1208.3</ele>
        <time>2019-02-03T10:49:15.000Z</time>
      </trkpt>
      <trkpt lat="42.92734" lon="0.58992">
        <ele>1208.7</ele>
        <time>2019-02-03T10:49:16.000Z</time>
      </trkpt>
      <trkpt lat="42.92734" lon="0.58992">
        <ele>1209</ele>
        <time>2019-02-03T10:49:17.000Z</time>
      </trkpt>
      <trkpt lat="42.92735" lon="0.58993">
        <ele>1209</ele>
        <time>2019-02-03T10:49:18.000Z</time>
      </trkpt>
      <trkpt lat="42.92735" lon="0.58993">
        <ele>1209</ele>
        <time>2019-02-03T10:49:19.000Z</time>
      </trkpt>
      <trkpt lat="42.92736" lon="0.58993">
        <ele>1209</ele>
        <time>2019-02-03T10:49:20.000Z</time>
      </trkpt>
      <trkpt lat="42.92736" lon="0.58993">
        <ele>1209</ele>
        <time>2019-02-03T10:49:21.000Z</time>
      </trkpt>
      <trkpt lat="42.92737" lon="0.58994">
        <ele>1209.5</ele>
        <time>2019-02-03T10:49:22.000Z</time>
      </trkpt>
      <trkpt lat="42.92738" lon="0.58994">
        <ele>1210</ele>
        <time>2019-02-03T10:49:23.000Z</time>
      </trkpt>
      <trkpt lat="42.92739" lon="0.58994">
        <ele>1210</ele>
        <time>2019-02-03T10:49:24.000Z</time>
      </trkpt>
      <trkpt lat="42.92739" lon="0.58995">
        <ele>1210</ele>
        <time>2019-02-03T10:49:25.000Z</time>
      </trkpt>
      <trkpt lat="42.9274" lon="0.58996">
        <ele>1210</ele>
        <time>2019-02-03T10:49:26.000Z</time>
      </trkpt>
      <trkpt lat="42.9274" lon="0.58996">
        <ele>1210</ele>
        <time>2019-02-03T10:49:27.000Z</time>
      </trkpt>
      <trkpt lat="42.9274" lon="0.58997">
        <ele>1210</ele>
        <time>2019-02-03T10:49:28.000Z</time>
      </trkpt>
      <trkpt lat="42.92741" lon="0.58997">
        <ele>1210</ele>
        <time>2019-02-03T10:49:29.000Z</time>
      </trkpt>
      <trkpt lat="42.92741" lon="0.58998">
        <ele>1210</ele>
        <time>2019-02-03T10:49:30.000Z</time>
      </trkpt>
      <trkpt lat="42.92741" lon="0.58998">
        <ele>1210</ele>
        <time>2019-02-03T10:49:31.000Z</time>
      </trkpt>
      <trkpt lat="42.92742" lon="0.58999">
        <ele>1210.5</ele>
        <time>2019-02-03T10:49:32.000Z</time>
      </trkpt>
      <trkpt lat="42.92742" lon="0.58999">
        <ele>1211</ele>
        <time>2019-02-03T10:49:33.000Z</time>
      </trkpt>
      <trkpt lat="42.92743" lon="0.59">
        <ele>1211</ele>
        <time>2019-02-03T10:49:34.000Z</time>
      </trkpt>
      <trkpt lat="42.92744" lon="0.59">
        <ele>1211</ele>
        <time>2019-02-03T10:49:35.000Z</time>
      </trkpt>
      <trkpt lat="42.92745" lon="0.59">
        <ele>1211</ele>
        <time>2019-02-03T10:49:36.000Z</time>
      </trkpt>
      <trkpt lat="42.92746" lon="0.59001">
        <ele>1211</ele>
        <time>2019-02-03T10:49:37.000Z</time>
      </trkpt>
      <trkpt lat="42.92746" lon="0.59001">
        <ele>1211</ele>
        <time>2019-02-03T10:49:38.000Z</time>
      </trkpt>
      <trkpt lat="42.92747" lon="0.59001">
        <ele>1211</ele>
        <time>2019-02-03T10:49:39.000Z</time>
      </trkpt>
      <trkpt lat="42.92747" lon="0.59001">
        <ele>1211.5</ele>
        <time>2019-02-03T10:49:40.000Z</time>
      </trkpt>
      <trkpt lat="42.92747" lon="0.59001">
        <ele>1212</ele>
        <time>2019-02-03T10:49:41.000Z</time>
      </trkpt>
      <trkpt lat="42.92748" lon="0.59001">
        <ele>1212</ele>
        <time>2019-02-03T10:49:42.000Z</time>
      </trkpt>
      <trkpt lat="42.92748" lon="0.59001">
        <ele>1212</ele>
        <time>2019-02-03T10:49:43.000Z</time>
      </trkpt>
      <trkpt lat="42.92748" lon="0.59001">
        <ele>1212</ele>
        <time>2019-02-03T10:49:44.000Z</time>
      </trkpt>
      <trkpt lat="42.92748" lon="0.59001">
        <ele>1212</ele>
        <time>2019-02-03T10:49:45.000Z</time>
      </trkpt>
      <trkpt lat="42.92748" lon="0.59001">
        <ele>1212.5</ele>
        <time>2019-02-03T10:49:46.000Z</time>
      </trkpt>
      <trkpt lat="42.92748" lon="0.59001">
        <ele>1213</ele>
        <time>2019-02-03T10:49:47.000Z</time>
      </trkpt>
      <trkpt lat="42.92748" lon="0.59002">
        <ele>1213</ele>
        <time>2019-02-03T10:49:48.000Z</time>
      </trkpt>
      <trkpt lat="42.92748" lon="0.59002">
        <ele>1213</ele>
        <time>2019-02-03T10:49:49.000Z</time>
      </trkpt>
      <trkpt lat="42.92748" lon="0.59002">
        <ele>1213</ele>
        <time>2019-02-03T10:49:50.000Z</time>
      </trkpt>
      <trkpt lat="42.92748" lon="0.59003">
        <ele>1213.3</ele>
        <time>2019-02-03T10:49:51.000Z</time>
      </trkpt>
      <trkpt lat="42.92748" lon="0.59003">
        <ele>1213.7</ele>
        <time>2019-02-03T10:49:52.000Z</time>
      </trkpt>
      <trkpt lat="42.92748" lon="0.59004">
        <ele>1214</ele>
        <time>2019-02-03T10:49:53.000Z</time>
      </trkpt>
      <trkpt lat="42.92748" lon="0.59004">
        <ele>1214</ele>
        <time>2019-02-03T10:49:54.000Z</time>
      </trkpt>
      <trkpt lat="42.92748" lon="0.59005">
        <ele>1214</ele>
        <time>2019-02-03T10:49:55.000Z</time>
      </trkpt>
      <trkpt lat="42.92748" lon="0.59006">
        <ele>1214</ele>
        <time>2019-02-03T10:49:56.000Z</time>
      </trkpt>
      <trkpt lat="42.92749" lon="0.59007">
        <ele>1214</ele>
        <time>2019-02-03T10:49:57.000Z</time>
      </trkpt>
      <trkpt lat="42.92749" lon="0.59007">
        <ele>1214</ele>
        <time>2019-02-03T10:49:58.000Z</time>
      </trkpt>
      <trkpt lat="42.92749" lon="0.59008">
        <ele>1214</ele>
        <time>2019-02-03T10:49:59.000Z</time>
      </trkpt>
      <trkpt lat="42.92749" lon="0.59009">
        <ele>1214.5</ele>
        <time>2019-02-03T10:50:00.000Z</time>
      </trkpt>
      <trkpt lat="42.9275" lon="0.5901">
        <ele>1215</ele>
        <time>2019-02-03T10:50:01.000Z</time>
      </trkpt>
      <trkpt lat="42.9275" lon="0.5901">
        <ele>1215</ele>
        <time>2019-02-03T10:50:02.000Z</time>
      </trkpt>
      <trkpt lat="42.9275" lon="0.59011">
        <ele>1215</ele>
        <time>2019-02-03T10:50:03.000Z</time>
      </trkpt>
      <trkpt lat="42.9275" lon="0.59011">
        <ele>1215</ele>
        <time>2019-02-03T10:50:04.000Z</time>
      </trkpt>
      <trkpt lat="42.9275" lon="0.59011">
        <ele>1215</ele>
        <time>2019-02-03T10:50:05.000Z</time>
      </trkpt>
      <trkpt lat="42.9275" lon="0.59011">
        <ele>1215</ele>
        <time>2019-02-03T10:50:06.000Z</time>
      </trkpt>
      <trkpt lat="42.9275" lon="0.59011">
        <ele>1215</ele>
        <time>2019-02-03T10:50:07.000Z</time>
      </trkpt>
      <trkpt lat="42.9275" lon="0.59011">
        <ele>1215.5</ele>
        <time>2019-02-03T10:50:08.000Z</time>
      </trkpt>
      <trkpt lat="42.9275" lon="0.59011">
        <ele>1216</ele>
        <time>2019-02-03T10:50:09.000Z</time>
      </trkpt>
      <trkpt lat="42.9275" lon="0.59011">
        <ele>1216</ele>
        <time>2019-02-03T10:50:10.000Z</time>
      </trkpt>
      <trkpt lat="42.9275" lon="0.59011">
        <ele>1216</ele>
        <time>2019-02-03T10:50:11.000Z</time>
      </trkpt>
      <trkpt lat="42.9275" lon="0.59011">
        <ele>1216</ele>
        <time>2019-02-03T10:50:12.000Z</time>
      </trkpt>
      <trkpt lat="42.9275" lon="0.59011">
        <ele>1216</ele>
        <time>2019-02-03T10:50:13.000Z</time>
      </trkpt>
      <trkpt lat="42.9275" lon="0.59011">
        <ele>1216</ele>
        <time>2019-02-03T10:50:14.000Z</time>
      </trkpt>
      <trkpt lat="42.9275" lon="0.59011">
        <ele>1216</ele>
        <time>2019-02-03T10:50:15.000Z</time>
      </trkpt>
      <trkpt lat="42.9275" lon="0.59011">
        <ele>1216</ele>
        <time>2019-02-03T10:50:16.000Z</time>
      </trkpt>
      <trkpt lat="42.92749" lon="0.59012">
        <ele>1216</ele>
        <time>2019-02-03T10:50:17.000Z</time>
      </trkpt>
      <trkpt lat="42.92749" lon="0.59012">
        <ele>1216.5</ele>
        <time>2019-02-03T10:50:18.000Z</time>
      </trkpt>
      <trkpt lat="42.92749" lon="0.59012">
        <ele>1217</ele>
        <time>2019-02-03T10:50:19.000Z</time>
      </trkpt>
      <trkpt lat="42.92749" lon="0.59012">
        <ele>1217</ele>
        <time>2019-02-03T10:50:20.000Z</time>
      </trkpt>
      <trkpt lat="42.92748" lon="0.59012">
        <ele>1217</ele>
        <time>2019-02-03T10:50:21.000Z</time>
      </trkpt>
      <trkpt lat="42.92748" lon="0.59013">
        <ele>1217</ele>
        <time>2019-02-03T10:50:22.000Z</time>
      </trkpt>
      <trkpt lat="42.92748" lon="0.59013">
        <ele>1217</ele>
        <time>2019-02-03T10:50:23.000Z</time>
      </trkpt>
      <trkpt lat="42.92748" lon="0.59013">
        <ele>1217</ele>
        <time>2019-02-03T10:50:24.000Z</time>
      </trkpt>
      <trkpt lat="42.92747" lon="0.59014">
        <ele>1217</ele>
        <time>2019-02-03T10:50:25.000Z</time>
      </trkpt>
      <trkpt lat="42.92747" lon="0.59014">
        <ele>1217.5</ele>
        <time>2019-02-03T10:50:26.000Z</time>
      </trkpt>
      <trkpt lat="42.92747" lon="0.59015">
        <ele>1218</ele>
        <time>2019-02-03T10:50:27.000Z</time>
      </trkpt>
      <trkpt lat="42.92746" lon="0.59015">
        <ele>1218</ele>
        <time>2019-02-03T10:50:28.000Z</time>
      </trkpt>
      <trkpt lat="42.92746" lon="0.59016">
        <ele>1218</ele>
        <time>2019-02-03T10:50:29.000Z</time>
      </trkpt>
      <trkpt lat="42.92745" lon="0.59016">
        <ele>1218</ele>
        <time>2019-02-03T10:50:30.000Z</time>
      </trkpt>
      <trkpt lat="42.92745" lon="0.59017">
        <ele>1218</ele>
        <time>2019-02-03T10:50:31.000Z</time>
      </trkpt>
      <trkpt lat="42.92745" lon="0.59017">
        <ele>1218</ele>
        <time>2019-02-03T10:50:32.000Z</time>
      </trkpt>
      <trkpt lat="42.92744" lon="0.59018">
        <ele>1218</ele>
        <time>2019-02-03T10:50:33.000Z</time>
      </trkpt>
      <trkpt lat="42.92744" lon="0.59018">
        <ele>1218</ele>
        <time>2019-02-03T10:50:34.000Z</time>
      </trkpt>
      <trkpt lat="42.92743" lon="0.59019">
        <ele>1218</ele>
        <time>2019-02-03T10:50:35.000Z</time>
      </trkpt>
      <trkpt lat="42.92742" lon="0.59019">
        <ele>1218</ele>
        <time>2019-02-03T10:50:36.000Z</time>
      </trkpt>
      <trkpt lat="42.92742" lon="0.59019">
        <ele>1218</ele>
        <time>2019-02-03T10:50:37.000Z</time>
      </trkpt>
      <trkpt lat="42.92741" lon="0.5902">
        <ele>1218</ele>
        <time>2019-02-03T10:50:38.000Z</time>
      </trkpt>
      <trkpt lat="42.92741" lon="0.5902">
        <ele>1218</ele>
        <time>2019-02-03T10:50:39.000Z</time>
      </trkpt>
      <trkpt lat="42.9274" lon="0.5902">
        <ele>1218</ele>
        <time>2019-02-03T10:50:40.000Z</time>
      </trkpt>
      <trkpt lat="42.9274" lon="0.5902">
        <ele>1218</ele>
        <time>2019-02-03T10:50:41.000Z</time>
      </trkpt>
      <trkpt lat="42.92739" lon="0.59021">
        <ele>1218</ele>
        <time>2019-02-03T10:50:42.000Z</time>
      </trkpt>
      <trkpt lat="42.92738" lon="0.59021">
        <ele>1218</ele>
        <time>2019-02-03T10:50:43.000Z</time>
      </trkpt>
      <trkpt lat="42.92738" lon="0.59021">
        <ele>1218</ele>
        <time>2019-02-03T10:50:44.000Z</time>
      </trkpt>
      <trkpt lat="42.92737" lon="0.59021">
        <ele>1218</ele>
        <time>2019-02-03T10:50:45.000Z</time>
      </trkpt>
      <trkpt lat="42.92737" lon="0.59021">
        <ele>1218</ele>
        <time>2019-02-03T10:50:46.000Z</time>
      </trkpt>
      <trkpt lat="42.92736" lon="0.59021">
        <ele>1218</ele>
        <time>2019-02-03T10:50:47.000Z</time>
      </trkpt>
      <trkpt lat="42.92736" lon="0.59021">
        <ele>1218</ele>
        <time>2019-02-03T10:50:48.000Z</time>
      </trkpt>
      <trkpt lat="42.92735" lon="0.59021">
        <ele>1218</ele>
        <time>2019-02-03T10:50:49.000Z</time>
      </trkpt>
      <trkpt lat="42.92735" lon="0.59021">
        <ele>1218</ele>
        <time>2019-02-03T10:50:50.000Z</time>
      </trkpt>
      <trkpt lat="42.92735" lon="0.59021">
        <ele>1218</ele>
        <time>2019-02-03T10:50:51.000Z</time>
      </trkpt>
      <trkpt lat="42.92734" lon="0.59021">
        <ele>1218</ele>
        <time>2019-02-03T10:50:52.000Z</time>
      </trkpt>
      <trkpt lat="42.92734" lon="0.59021">
        <ele>1218</ele>
        <time>2019-02-03T10:50:53.000Z</time>
      </trkpt>
      <trkpt lat="42.92734" lon="0.59021">
        <ele>1218</ele>
        <time>2019-02-03T10:50:54.000Z</time>
      </trkpt>
      <trkpt lat="42.92734" lon="0.59021">
        <ele>1218</ele>
        <time>2019-02-03T10:50:55.000Z</time>
      </trkpt>
      <trkpt lat="42.92733" lon="0.59021">
        <ele>1218</ele>
        <time>2019-02-03T10:50:56.000Z</time>
      </trkpt>
      <trkpt lat="42.92733" lon="0.59021">
        <ele>1218</ele>
        <time>2019-02-03T10:50:57.000Z</time>
      </trkpt>
      <trkpt lat="42.92733" lon="0.59021">
        <ele>1218</ele>
        <time>2019-02-03T10:50:58.000Z</time>
      </trkpt>
      <trkpt lat="42.92733" lon="0.59021">
        <ele>1218</ele>
        <time>2019-02-03T10:50:59.000Z</time>
      </trkpt>
      <trkpt lat="42.92733" lon="0.59022">
        <ele>1218</ele>
        <time>2019-02-03T10:51:00.000Z</time>
      </trkpt>
      <trkpt lat="42.92733" lon="0.59022">
        <ele>1218</ele>
        <time>2019-02-03T10:51:01.000Z</time>
      </trkpt>
      <trkpt lat="42.92733" lon="0.59022">
        <ele>1218</ele>
        <time>2019-02-03T10:51:02.000Z</time>
      </trkpt>
      <trkpt lat="42.92733" lon="0.59022">
        <ele>1218</ele>
        <time>2019-02-03T10:51:03.000Z</time>
      </trkpt>
      <trkpt lat="42.92733" lon="0.59022">
        <ele>1218</ele>
        <time>2019-02-03T10:51:04.000Z</time>
      </trkpt>
      <trkpt lat="42.92733" lon="0.59023">
        <ele>1218</ele>
        <time>2019-02-03T10:51:05.000Z</time>
      </trkpt>
      <trkpt lat="42.92733" lon="0.59023">
        <ele>1218</ele>
        <time>2019-02-03T10:51:06.000Z</time>
      </trkpt>
      <trkpt lat="42.92733" lon="0.59023">
        <ele>1218.3</ele>
        <time>2019-02-03T10:51:07.000Z</time>
      </trkpt>
      <trkpt lat="42.92733" lon="0.59023">
        <ele>1218.7</ele>
        <time>2019-02-03T10:51:08.000Z</time>
      </trkpt>
      <trkpt lat="42.92733" lon="0.59023">
        <ele>1219</ele>
        <time>2019-02-03T10:51:09.000Z</time>
      </trkpt>
      <trkpt lat="42.92733" lon="0.59023">
        <ele>1219</ele>
        <time>2019-02-03T10:51:10.000Z</time>
      </trkpt>
      <trkpt lat="42.92733" lon="0.59023">
        <ele>1219</ele>
        <time>2019-02-03T10:51:11.000Z</time>
      </trkpt>
      <trkpt lat="42.92733" lon="0.59023">
        <ele>1219</ele>
        <time>2019-02-03T10:51:12.000Z</time>
      </trkpt>
      <trkpt lat="42.92733" lon="0.59023">
        <ele>1219</ele>
        <time>2019-02-03T10:51:13.000Z</time>
      </trkpt>
      <trkpt lat="42.92733" lon="0.59023">
        <ele>1219</ele>
        <time>2019-02-03T10:51:14.000Z</time>
      </trkpt>
      <trkpt lat="42.92733" lon="0.59023">
        <ele>1219</ele>
        <time>2019-02-03T10:51:15.000Z</time>
      </trkpt>
      <trkpt lat="42.92733" lon="0.59024">
        <ele>1219</ele>
        <time>2019-02-03T10:51:16.000Z</time>
      </trkpt>
      <trkpt lat="42.92733" lon="0.59024">
        <ele>1219</ele>
        <time>2019-02-03T10:51:17.000Z</time>
      </trkpt>
      <trkpt lat="42.92733" lon="0.59025">
        <ele>1219</ele>
        <time>2019-02-03T10:51:18.000Z</time>
      </trkpt>
      <trkpt lat="42.92734" lon="0.59025">
        <ele>1219</ele>
        <time>2019-02-03T10:51:19.000Z</time>
      </trkpt>
      <trkpt lat="42.92734" lon="0.59026">
        <ele>1219.5</ele>
        <time>2019-02-03T10:51:20.000Z</time>
      </trkpt>
      <trkpt lat="42.92735" lon="0.59027">
        <ele>1220</ele>
        <time>2019-02-03T10:51:21.000Z</time>
      </trkpt>
      <trkpt lat="42.92735" lon="0.59027">
        <ele>1220</ele>
        <time>2019-02-03T10:51:22.000Z</time>
      </trkpt>
      <trkpt lat="42.92736" lon="0.59028">
        <ele>1220</ele>
        <time>2019-02-03T10:51:23.000Z</time>
      </trkpt>
      <trkpt lat="42.92736" lon="0.59028">
        <ele>1220</ele>
        <time>2019-02-03T10:51:24.000Z</time>
      </trkpt>
      <trkpt lat="42.92737" lon="0.59028">
        <ele>1220.3</ele>
        <time>2019-02-03T10:51:25.000Z</time>
      </trkpt>
      <trkpt lat="42.92737" lon="0.59028">
        <ele>1220.7</ele>
        <time>2019-02-03T10:51:26.000Z</time>
      </trkpt>
      <trkpt lat="42.92737" lon="0.59028">
        <ele>1221</ele>
        <time>2019-02-03T10:51:27.000Z</time>
      </trkpt>
      <trkpt lat="42.92737" lon="0.59028">
        <ele>1221</ele>
        <time>2019-02-03T10:51:28.000Z</time>
      </trkpt>
      <trkpt lat="42.92737" lon="0.59028">
        <ele>1221</ele>
        <time>2019-02-03T10:51:29.000Z</time>
      </trkpt>
      <trkpt lat="42.92737" lon="0.59028">
        <ele>1221</ele>
        <time>2019-02-03T10:51:30.000Z</time>
      </trkpt>
      <trkpt lat="42.92737" lon="0.59028">
        <ele>1221</ele>
        <time>2019-02-03T10:51:31.000Z</time>
      </trkpt>
      <trkpt lat="42.92737" lon="0.59028">
        <ele>1221</ele>
        <time>2019-02-03T10:51:32.000Z</time>
      </trkpt>
      <trkpt lat="42.92737" lon="0.59028">
        <ele>1221</ele>
        <time>2019-02-03T10:51:33.000Z</time>
      </trkpt>
      <trkpt lat="42.92738" lon="0.59028">
        <ele>1221</ele>
        <time>2019-02-03T10:51:34.000Z</time>
      </trkpt>
      <trkpt lat="42.92738" lon="0.59028">
        <ele>1221</ele>
        <time>2019-02-03T10:51:35.000Z</time>
      </trkpt>
      <trkpt lat="42.92739" lon="0.59028">
        <ele>1221</ele>
        <time>2019-02-03T10:51:36.000Z</time>
      </trkpt>
      <trkpt lat="42.92739" lon="0.59028">
        <ele>1221</ele>
        <time>2019-02-03T10:51:37.000Z</time>
      </trkpt>
      <trkpt lat="42.92739" lon="0.59028">
        <ele>1221</ele>
        <time>2019-02-03T10:51:38.000Z</time>
      </trkpt>
      <trkpt lat="42.92739" lon="0.59029">
        <ele>1221</ele>
        <time>2019-02-03T10:51:39.000Z</time>
      </trkpt>
      <trkpt lat="42.9274" lon="0.59029">
        <ele>1221</ele>
        <time>2019-02-03T10:51:40.000Z</time>
      </trkpt>
      <trkpt lat="42.9274" lon="0.5903">
        <ele>1221</ele>
        <time>2019-02-03T10:51:41.000Z</time>
      </trkpt>
      <trkpt lat="42.9274" lon="0.5903">
        <ele>1221.5</ele>
        <time>2019-02-03T10:51:42.000Z</time>
      </trkpt>
      <trkpt lat="42.9274" lon="0.5903">
        <ele>1222</ele>
        <time>2019-02-03T10:51:43.000Z</time>
      </trkpt>
      <trkpt lat="42.9274" lon="0.59031">
        <ele>1222</ele>
        <time>2019-02-03T10:51:44.000Z</time>
      </trkpt>
      <trkpt lat="42.92739" lon="0.59031">
        <ele>1222</ele>
        <time>2019-02-03T10:51:45.000Z</time>
      </trkpt>
      <trkpt lat="42.92739" lon="0.59031">
        <ele>1222</ele>
        <time>2019-02-03T10:51:46.000Z</time>
      </trkpt>
      <trkpt lat="42.92739" lon="0.59032">
        <ele>1222</ele>
        <time>2019-02-03T10:51:47.000Z</time>
      </trkpt>
      <trkpt lat="42.92738" lon="0.59032">
        <ele>1223</ele>
        <time>2019-02-03T10:51:48.000Z</time>
      </trkpt>
      <trkpt lat="42.92737" lon="0.59032">
        <ele>1223</ele>
        <time>2019-02-03T10:51:49.000Z</time>
      </trkpt>
      <trkpt lat="42.92737" lon="0.59032">
        <ele>1223</ele>
        <time>2019-02-03T10:51:50.000Z</time>
      </trkpt>
      <trkpt lat="42.92736" lon="0.59032">
        <ele>1223</ele>
        <time>2019-02-03T10:51:51.000Z</time>
      </trkpt>
      <trkpt lat="42.92735" lon="0.59032">
        <ele>1223</ele>
        <time>2019-02-03T10:51:52.000Z</time>
      </trkpt>
      <trkpt lat="42.92734" lon="0.59032">
        <ele>1223</ele>
        <time>2019-02-03T10:51:53.000Z</time>
      </trkpt>
      <trkpt lat="42.92734" lon="0.59032">
        <ele>1223</ele>
        <time>2019-02-03T10:51:54.000Z</time>
      </trkpt>
      <trkpt lat="42.92733" lon="0.59032">
        <ele>1223</ele>
        <time>2019-02-03T10:51:55.000Z</time>
      </trkpt>
      <trkpt lat="42.92733" lon="0.59032">
        <ele>1224</ele>
        <time>2019-02-03T10:51:56.000Z</time>
      </trkpt>
      <trkpt lat="42.92733" lon="0.59033">
        <ele>1224</ele>
        <time>2019-02-03T10:51:57.000Z</time>
      </trkpt>
      <trkpt lat="42.92733" lon="0.59033">
        <ele>1224</ele>
        <time>2019-02-03T10:51:58.000Z</time>
      </trkpt>
      <trkpt lat="42.92733" lon="0.59033">
        <ele>1224</ele>
        <time>2019-02-03T10:51:59.000Z</time>
      </trkpt>
      <trkpt lat="42.92733" lon="0.59033">
        <ele>1224</ele>
        <time>2019-02-03T10:52:00.000Z</time>
      </trkpt>
      <trkpt lat="42.92733" lon="0.59033">
        <ele>1224</ele>
        <time>2019-02-03T10:52:01.000Z</time>
      </trkpt>
      <trkpt lat="42.92733" lon="0.59033">
        <ele>1224</ele>
        <time>2019-02-03T10:52:02.000Z</time>
      </trkpt>
      <trkpt lat="42.92733" lon="0.59033">
        <ele>1224</ele>
        <time>2019-02-03T10:52:03.000Z</time>
      </trkpt>
      <trkpt lat="42.92733" lon="0.59034">
        <ele>1224</ele>
        <time>2019-02-03T10:52:04.000Z</time>
      </trkpt>
      <trkpt lat="42.92733" lon="0.59034">
        <ele>1224</ele>
        <time>2019-02-03T10:52:05.000Z</time>
      </trkpt>
      <trkpt lat="42.92733" lon="0.59034">
        <ele>1224</ele>
        <time>2019-02-03T10:52:06.000Z</time>
      </trkpt>
      <trkpt lat="42.92733" lon="0.59035">
        <ele>1224</ele>
        <time>2019-02-03T10:52:07.000Z</time>
      </trkpt>
      <trkpt lat="42.92732" lon="0.59035">
        <ele>1224.5</ele>
        <time>2019-02-03T10:52:08.000Z</time>
      </trkpt>
      <trkpt lat="42.92732" lon="0.59036">
        <ele>1225</ele>
        <time>2019-02-03T10:52:09.000Z</time>
      </trkpt>
      <trkpt lat="42.92732" lon="0.59036">
        <ele>1225</ele>
        <time>2019-02-03T10:52:10.000Z</time>
      </trkpt>
      <trkpt lat="42.92732" lon="0.59036">
        <ele>1225</ele>
        <time>2019-02-03T10:52:11.000Z</time>
      </trkpt>
      <trkpt lat="42.92732" lon="0.59037">
        <ele>1225</ele>
        <time>2019-02-03T10:52:12.000Z</time>
      </trkpt>
      <trkpt lat="42.92732" lon="0.59037">
        <ele>1225.3</ele>
        <time>2019-02-03T10:52:13.000Z</time>
      </trkpt>
      <trkpt lat="42.92732" lon="0.59038">
        <ele>1225.7</ele>
        <time>2019-02-03T10:52:14.000Z</time>
      </trkpt>
      <trkpt lat="42.92732" lon="0.59038">
        <ele>1226</ele>
        <time>2019-02-03T10:52:15.000Z</time>
      </trkpt>
      <trkpt lat="42.92732" lon="0.59039">
        <ele>1226</ele>
        <time>2019-02-03T10:52:16.000Z</time>
      </trkpt>
      <trkpt lat="42.92732" lon="0.59039">
        <ele>1226</ele>
        <time>2019-02-03T10:52:17.000Z</time>
      </trkpt>
      <trkpt lat="42.92732" lon="0.59039">
        <ele>1226</ele>
        <time>2019-02-03T10:52:18.000Z</time>
      </trkpt>
      <trkpt lat="42.92732" lon="0.59039">
        <ele>1226</ele>
        <time>2019-02-03T10:52:19.000Z</time>
      </trkpt>
      <trkpt lat="42.92732" lon="0.59039">
        <ele>1226</ele>
        <time>2019-02-03T10:52:20.000Z</time>
      </trkpt>
      <trkpt lat="42.92732" lon="0.59039">
        <ele>1226</ele>
        <time>2019-02-03T10:52:21.000Z</time>
      </trkpt>
      <trkpt lat="42.92731" lon="0.59039">
        <ele>1226</ele>
        <time>2019-02-03T10:52:22.000Z</time>
      </trkpt>
      <trkpt lat="42.92731" lon="0.5904">
        <ele>1226</ele>
        <time>2019-02-03T10:52:23.000Z</time>
      </trkpt>
      <trkpt lat="42.92731" lon="0.5904">
        <ele>1226</ele>
        <time>2019-02-03T10:52:24.000Z</time>
      </trkpt>
      <trkpt lat="42.9273" lon="0.5904">
        <ele>1226</ele>
        <time>2019-02-03T10:52:25.000Z</time>
      </trkpt>
      <trkpt lat="42.9273" lon="0.59039">
        <ele>1226</ele>
        <time>2019-02-03T10:52:26.000Z</time>
      </trkpt>
      <trkpt lat="42.9273" lon="0.59039">
        <ele>1226</ele>
        <time>2019-02-03T10:52:27.000Z</time>
      </trkpt>
      <trkpt lat="42.92729" lon="0.59039">
        <ele>1226</ele>
        <time>2019-02-03T10:52:28.000Z</time>
      </trkpt>
      <trkpt lat="42.92729" lon="0.59039">
        <ele>1226</ele>
        <time>2019-02-03T10:52:29.000Z</time>
      </trkpt>
      <trkpt lat="42.92729" lon="0.5904">
        <ele>1226</ele>
        <time>2019-02-03T10:52:30.000Z</time>
      </trkpt>
      <trkpt lat="42.92728" lon="0.5904">
        <ele>1226</ele>
        <time>2019-02-03T10:52:31.000Z</time>
      </trkpt>
      <trkpt lat="42.92728" lon="0.5904">
        <ele>1226</ele>
        <time>2019-02-03T10:52:32.000Z</time>
      </trkpt>
      <trkpt lat="42.92728" lon="0.59041">
        <ele>1226</ele>
        <time>2019-02-03T10:52:33.000Z</time>
      </trkpt>
      <trkpt lat="42.92727" lon="0.59041">
        <ele>1226</ele>
        <time>2019-02-03T10:52:34.000Z</time>
      </trkpt>
      <trkpt lat="42.92727" lon="0.59041">
        <ele>1226</ele>
        <time>2019-02-03T10:52:35.000Z</time>
      </trkpt>
      <trkpt lat="42.92727" lon="0.59042">
        <ele>1226</ele>
        <time>2019-02-03T10:52:36.000Z</time>
      </trkpt>
      <trkpt lat="42.92727" lon="0.59042">
        <ele>1226</ele>
        <time>2019-02-03T10:52:37.000Z</time>
      </trkpt>
      <trkpt lat="42.92726" lon="0.59043">
        <ele>1226</ele>
        <time>2019-02-03T10:52:38.000Z</time>
      </trkpt>
      <trkpt lat="42.92726" lon="0.59043">
        <ele>1226</ele>
        <time>2019-02-03T10:52:39.000Z</time>
      </trkpt>
      <trkpt lat="42.92726" lon="0.59044">
        <ele>1226</ele>
        <time>2019-02-03T10:52:40.000Z</time>
      </trkpt>
      <trkpt lat="42.92726" lon="0.59044">
        <ele>1226</ele>
        <time>2019-02-03T10:52:41.000Z</time>
      </trkpt>
      <trkpt lat="42.92726" lon="0.59045">
        <ele>1226</ele>
        <time>2019-02-03T10:52:42.000Z</time>
      </trkpt>
      <trkpt lat="42.92725" lon="0.59045">
        <ele>1226</ele>
        <time>2019-02-03T10:52:43.000Z</time>
      </trkpt>
      <trkpt lat="42.92725" lon="0.59046">
        <ele>1227</ele>
        <time>2019-02-03T10:52:44.000Z</time>
      </trkpt>
      <trkpt lat="42.92725" lon="0.59046">
        <ele>1227</ele>
        <time>2019-02-03T10:52:45.000Z</time>
      </trkpt>
      <trkpt lat="42.92725" lon="0.59047">
        <ele>1227</ele>
        <time>2019-02-03T10:52:46.000Z</time>
      </trkpt>
      <trkpt lat="42.92724" lon="0.59047">
        <ele>1227</ele>
        <time>2019-02-03T10:52:47.000Z</time>
      </trkpt>
      <trkpt lat="42.92724" lon="0.59048">
        <ele>1227</ele>
        <time>2019-02-03T10:52:48.000Z</time>
      </trkpt>
      <trkpt lat="42.92724" lon="0.59048">
        <ele>1227</ele>
        <time>2019-02-03T10:52:49.000Z</time>
      </trkpt>
      <trkpt lat="42.92724" lon="0.59048">
        <ele>1227</ele>
        <time>2019-02-03T10:52:50.000Z</time>
      </trkpt>
      <trkpt lat="42.92724" lon="0.59049">
        <ele>1227.3</ele>
        <time>2019-02-03T10:52:51.000Z</time>
      </trkpt>
      <trkpt lat="42.92724" lon="0.59049">
        <ele>1227.7</ele>
        <time>2019-02-03T10:52:52.000Z</time>
      </trkpt>
      <trkpt lat="42.92724" lon="0.59049">
        <ele>1228</ele>
        <time>2019-02-03T10:52:53.000Z</time>
      </trkpt>
      <trkpt lat="42.92723" lon="0.5905">
        <ele>1228</ele>
        <time>2019-02-03T10:52:54.000Z</time>
      </trkpt>
      <trkpt lat="42.92723" lon="0.5905">
        <ele>1228</ele>
        <time>2019-02-03T10:52:55.000Z</time>
      </trkpt>
      <trkpt lat="42.92723" lon="0.5905">
        <ele>1228</ele>
        <time>2019-02-03T10:52:56.000Z</time>
      </trkpt>
      <trkpt lat="42.92723" lon="0.59051">
        <ele>1228</ele>
        <time>2019-02-03T10:52:57.000Z</time>
      </trkpt>
      <trkpt lat="42.92723" lon="0.59051">
        <ele>1228</ele>
        <time>2019-02-03T10:52:58.000Z</time>
      </trkpt>
      <trkpt lat="42.92723" lon="0.59051">
        <ele>1228</ele>
        <time>2019-02-03T10:52:59.000Z</time>
      </trkpt>
      <trkpt lat="42.92723" lon="0.59051">
        <ele>1228.5</ele>
        <time>2019-02-03T10:53:00.000Z</time>
      </trkpt>
      <trkpt lat="42.92723" lon="0.59052">
        <ele>1229</ele>
        <time>2019-02-03T10:53:01.000Z</time>
      </trkpt>
      <trkpt lat="42.92723" lon="0.59052">
        <ele>1229</ele>
        <time>2019-02-03T10:53:02.000Z</time>
      </trkpt>
      <trkpt lat="42.92723" lon="0.59052">
        <ele>1229</ele>
        <time>2019-02-03T10:53:03.000Z</time>
      </trkpt>
      <trkpt lat="42.92723" lon="0.59052">
        <ele>1229</ele>
        <time>2019-02-03T10:53:04.000Z</time>
      </trkpt>
      <trkpt lat="42.92723" lon="0.59053">
        <ele>1229</ele>
        <time>2019-02-03T10:53:05.000Z</time>
      </trkpt>
      <trkpt lat="42.92723" lon="0.59053">
        <ele>1229</ele>
        <time>2019-02-03T10:53:06.000Z</time>
      </trkpt>
      <trkpt lat="42.92723" lon="0.59053">
        <ele>1229</ele>
        <time>2019-02-03T10:53:07.000Z</time>
      </trkpt>
      <trkpt lat="42.92723" lon="0.59053">
        <ele>1229</ele>
        <time>2019-02-03T10:53:08.000Z</time>
      </trkpt>
      <trkpt lat="42.92723" lon="0.59054">
        <ele>1229</ele>
        <time>2019-02-03T10:53:09.000Z</time>
      </trkpt>
      <trkpt lat="42.92723" lon="0.59054">
        <ele>1229</ele>
        <time>2019-02-03T10:53:10.000Z</time>
      </trkpt>
      <trkpt lat="42.92723" lon="0.59054">
        <ele>1229</ele>
        <time>2019-02-03T10:53:11.000Z</time>
      </trkpt>
      <trkpt lat="42.92723" lon="0.59054">
        <ele>1229</ele>
        <time>2019-02-03T10:53:12.000Z</time>
      </trkpt>
      <trkpt lat="42.92723" lon="0.59054">
        <ele>1229</ele>
        <time>2019-02-03T10:53:13.000Z</time>
      </trkpt>
      <trkpt lat="42.92723" lon="0.59055">
        <ele>1229</ele>
        <time>2019-02-03T10:53:14.000Z</time>
      </trkpt>
      <trkpt lat="42.92723" lon="0.59055">
        <ele>1229</ele>
        <time>2019-02-03T10:53:15.000Z</time>
      </trkpt>
      <trkpt lat="42.92723" lon="0.59055">
        <ele>1229</ele>
        <time>2019-02-03T10:53:16.000Z</time>
      </trkpt>
      <trkpt lat="42.92723" lon="0.59055">
        <ele>1229</ele>
        <time>2019-02-03T10:53:17.000Z</time>
      </trkpt>
      <trkpt lat="42.92723" lon="0.59055">
        <ele>1229</ele>
        <time>2019-02-03T10:53:18.000Z</time>
      </trkpt>
      <trkpt lat="42.92723" lon="0.59056">
        <ele>1229</ele>
        <time>2019-02-03T10:53:19.000Z</time>
      </trkpt>
      <trkpt lat="42.92723" lon="0.59056">
        <ele>1229</ele>
        <time>2019-02-03T10:53:20.000Z</time>
      </trkpt>
      <trkpt lat="42.92723" lon="0.59056">
        <ele>1229</ele>
        <time>2019-02-03T10:53:21.000Z</time>
      </trkpt>
      <trkpt lat="42.92723" lon="0.59056">
        <ele>1229</ele>
        <time>2019-02-03T10:53:22.000Z</time>
      </trkpt>
      <trkpt lat="42.92723" lon="0.59057">
        <ele>1229</ele>
        <time>2019-02-03T10:53:23.000Z</time>
      </trkpt>
      <trkpt lat="42.92723" lon="0.59057">
        <ele>1229</ele>
        <time>2019-02-03T10:53:24.000Z</time>
      </trkpt>
      <trkpt lat="42.92723" lon="0.59057">
        <ele>1229.3</ele>
        <time>2019-02-03T10:53:25.000Z</time>
      </trkpt>
      <trkpt lat="42.92722" lon="0.59058">
        <ele>1229.7</ele>
        <time>2019-02-03T10:53:26.000Z</time>
      </trkpt>
      <trkpt lat="42.92722" lon="0.59058">
        <ele>1230</ele>
        <time>2019-02-03T10:53:27.000Z</time>
      </trkpt>
      <trkpt lat="42.92722" lon="0.59058">
        <ele>1230</ele>
        <time>2019-02-03T10:53:28.000Z</time>
      </trkpt>
      <trkpt lat="42.92722" lon="0.59058">
        <ele>1230</ele>
        <time>2019-02-03T10:53:29.000Z</time>
      </trkpt>
      <trkpt lat="42.92722" lon="0.59058">
        <ele>1230</ele>
        <time>2019-02-03T10:53:30.000Z</time>
      </trkpt>
      <trkpt lat="42.92722" lon="0.59058">
        <ele>1230</ele>
        <time>2019-02-03T10:53:31.000Z</time>
      </trkpt>
      <trkpt lat="42.92722" lon="0.59058">
        <ele>1230</ele>
        <time>2019-02-03T10:53:32.000Z</time>
      </trkpt>
      <trkpt lat="42.92722" lon="0.59058">
        <ele>1230</ele>
        <time>2019-02-03T10:53:33.000Z</time>
      </trkpt>
      <trkpt lat="42.92722" lon="0.59058">
        <ele>1230</ele>
        <time>2019-02-03T10:53:34.000Z</time>
      </trkpt>
      <trkpt lat="42.92722" lon="0.59058">
        <ele>1230</ele>
        <time>2019-02-03T10:53:35.000Z</time>
      </trkpt>
      <trkpt lat="42.92722" lon="0.59058">
        <ele>1230</ele>
        <time>2019-02-03T10:53:36.000Z</time>
      </trkpt>
      <trkpt lat="42.92722" lon="0.59058">
        <ele>1230</ele>
        <time>2019-02-03T10:53:37.000Z</time>
      </trkpt>
      <trkpt lat="42.92722" lon="0.59058">
        <ele>1230</ele>
        <time>2019-02-03T10:53:38.000Z</time>
      </trkpt>
      <trkpt lat="42.92721" lon="0.59058">
        <ele>1230</ele>
        <time>2019-02-03T10:53:39.000Z</time>
      </trkpt>
      <trkpt lat="42.92721" lon="0.59058">
        <ele>1230</ele>
        <time>2019-02-03T10:53:40.000Z</time>
      </trkpt>
      <trkpt lat="42.9272" lon="0.59058">
        <ele>1230.3</ele>
        <time>2019-02-03T10:53:41.000Z</time>
      </trkpt>
      <trkpt lat="42.92719" lon="0.59058">
        <ele>1230.7</ele>
        <time>2019-02-03T10:53:42.000Z</time>
      </trkpt>
      <trkpt lat="42.92719" lon="0.59058">
        <ele>1231</ele>
        <time>2019-02-03T10:53:43.000Z</time>
      </trkpt>
      <trkpt lat="42.92718" lon="0.59059">
        <ele>1231</ele>
        <time>2019-02-03T10:53:44.000Z</time>
      </trkpt>
      <trkpt lat="42.92718" lon="0.59059">
        <ele>1231</ele>
        <time>2019-02-03T10:53:45.000Z</time>
      </trkpt>
      <trkpt lat="42.92717" lon="0.59059">
        <ele>1231</ele>
        <time>2019-02-03T10:53:46.000Z</time>
      </trkpt>
      <trkpt lat="42.92717" lon="0.59059">
        <ele>1231</ele>
        <time>2019-02-03T10:53:47.000Z</time>
      </trkpt>
      <trkpt lat="42.92716" lon="0.59059">
        <ele>1231</ele>
        <time>2019-02-03T10:53:48.000Z</time>
      </trkpt>
      <trkpt lat="42.92716" lon="0.5906">
        <ele>1231</ele>
        <time>2019-02-03T10:53:49.000Z</time>
      </trkpt>
      <trkpt lat="42.92715" lon="0.5906">
        <ele>1231</ele>
        <time>2019-02-03T10:53:50.000Z</time>
      </trkpt>
      <trkpt lat="42.92715" lon="0.5906">
        <ele>1231</ele>
        <time>2019-02-03T10:53:51.000Z</time>
      </trkpt>
      <trkpt lat="42.92714" lon="0.5906">
        <ele>1232</ele>
        <time>2019-02-03T10:53:52.000Z</time>
      </trkpt>
      <trkpt lat="42.92714" lon="0.59061">
        <ele>1232</ele>
        <time>2019-02-03T10:53:53.000Z</time>
      </trkpt>
      <trkpt lat="42.92714" lon="0.59061">
        <ele>1232</ele>
        <time>2019-02-03T10:53:54.000Z</time>
      </trkpt>
      <trkpt lat="42.92713" lon="0.59061">
        <ele>1232</ele>
        <time>2019-02-03T10:53:55.000Z</time>
      </trkpt>
      <trkpt lat="42.92713" lon="0.59061">
        <ele>1232</ele>
        <time>2019-02-03T10:53:56.000Z</time>
      </trkpt>
      <trkpt lat="42.92712" lon="0.59061">
        <ele>1232</ele>
        <time>2019-02-03T10:53:57.000Z</time>
      </trkpt>
      <trkpt lat="42.92712" lon="0.59061">
        <ele>1232</ele>
        <time>2019-02-03T10:53:58.000Z</time>
      </trkpt>
      <trkpt lat="42.92711" lon="0.59061">
        <ele>1232</ele>
        <time>2019-02-03T10:53:59.000Z</time>
      </trkpt>
      <trkpt lat="42.92711" lon="0.59062">
        <ele>1232</ele>
        <time>2019-02-03T10:54:00.000Z</time>
      </trkpt>
      <trkpt lat="42.9271" lon="0.59062">
        <ele>1232</ele>
        <time>2019-02-03T10:54:01.000Z</time>
      </trkpt>
      <trkpt lat="42.9271" lon="0.59062">
        <ele>1232</ele>
        <time>2019-02-03T10:54:02.000Z</time>
      </trkpt>
      <trkpt lat="42.9271" lon="0.59062">
        <ele>1232</ele>
        <time>2019-02-03T10:54:03.000Z</time>
      </trkpt>
      <trkpt lat="42.92709" lon="0.59062">
        <ele>1232</ele>
        <time>2019-02-03T10:54:04.000Z</time>
      </trkpt>
      <trkpt lat="42.92709" lon="0.59062">
        <ele>1232</ele>
        <time>2019-02-03T10:54:05.000Z</time>
      </trkpt>
      <trkpt lat="42.92708" lon="0.59062">
        <ele>1232</ele>
        <time>2019-02-03T10:54:06.000Z</time>
      </trkpt>
      <trkpt lat="42.92708" lon="0.59062">
        <ele>1232</ele>
        <time>2019-02-03T10:54:07.000Z</time>
      </trkpt>
      <trkpt lat="42.92708" lon="0.59062">
        <ele>1232</ele>
        <time>2019-02-03T10:54:08.000Z</time>
      </trkpt>
      <trkpt lat="42.92707" lon="0.59063">
        <ele>1232</ele>
        <time>2019-02-03T10:54:09.000Z</time>
      </trkpt>
      <trkpt lat="42.92707" lon="0.59063">
        <ele>1233</ele>
        <time>2019-02-03T10:54:10.000Z</time>
      </trkpt>
      <trkpt lat="42.92707" lon="0.59063">
        <ele>1233</ele>
        <time>2019-02-03T10:54:11.000Z</time>
      </trkpt>
      <trkpt lat="42.92707" lon="0.59063">
        <ele>1233</ele>
        <time>2019-02-03T10:54:12.000Z</time>
      </trkpt>
      <trkpt lat="42.92706" lon="0.59063">
        <ele>1233</ele>
        <time>2019-02-03T10:54:13.000Z</time>
      </trkpt>
      <trkpt lat="42.92706" lon="0.59063">
        <ele>1233</ele>
        <time>2019-02-03T10:54:14.000Z</time>
      </trkpt>
      <trkpt lat="42.92706" lon="0.59063">
        <ele>1233</ele>
        <time>2019-02-03T10:54:15.000Z</time>
      </trkpt>
      <trkpt lat="42.92706" lon="0.59063">
        <ele>1233</ele>
        <time>2019-02-03T10:54:16.000Z</time>
      </trkpt>
      <trkpt lat="42.92705" lon="0.59063">
        <ele>1233</ele>
        <time>2019-02-03T10:54:17.000Z</time>
      </trkpt>
      <trkpt lat="42.92705" lon="0.59063">
        <ele>1233</ele>
        <time>2019-02-03T10:54:18.000Z</time>
      </trkpt>
      <trkpt lat="42.92705" lon="0.59063">
        <ele>1233</ele>
        <time>2019-02-03T10:54:19.000Z</time>
      </trkpt>
      <trkpt lat="42.92705" lon="0.59065">
        <ele>1233</ele>
        <time>2019-02-03T10:54:20.000Z</time>
      </trkpt>
      <trkpt lat="42.92705" lon="0.59066">
        <ele>1233</ele>
        <time>2019-02-03T10:54:21.000Z</time>
      </trkpt>
      <trkpt lat="42.92705" lon="0.59067">
        <ele>1233</ele>
        <time>2019-02-03T10:54:22.000Z</time>
      </trkpt>
      <trkpt lat="42.92706" lon="0.59067">
        <ele>1233</ele>
        <time>2019-02-03T10:54:23.000Z</time>
      </trkpt>
      <trkpt lat="42.92706" lon="0.59067">
        <ele>1233</ele>
        <time>2019-02-03T10:54:24.000Z</time>
      </trkpt>
      <trkpt lat="42.92706" lon="0.59067">
        <ele>1233</ele>
        <time>2019-02-03T10:54:25.000Z</time>
      </trkpt>
      <trkpt lat="42.92706" lon="0.59067">
        <ele>1233</ele>
        <time>2019-02-03T10:54:26.000Z</time>
      </trkpt>
      <trkpt lat="42.92705" lon="0.59066">
        <ele>1233.3</ele>
        <time>2019-02-03T10:54:27.000Z</time>
      </trkpt>
      <trkpt lat="42.92705" lon="0.59066">
        <ele>1233.7</ele>
        <time>2019-02-03T10:54:28.000Z</time>
      </trkpt>
      <trkpt lat="42.92704" lon="0.59065">
        <ele>1234</ele>
        <time>2019-02-03T10:54:29.000Z</time>
      </trkpt>
      <trkpt lat="42.92704" lon="0.59065">
        <ele>1234</ele>
        <time>2019-02-03T10:54:30.000Z</time>
      </trkpt>
      <trkpt lat="42.92703" lon="0.59064">
        <ele>1234</ele>
        <time>2019-02-03T10:54:31.000Z</time>
      </trkpt>
      <trkpt lat="42.92703" lon="0.59064">
        <ele>1234</ele>
        <time>2019-02-03T10:54:32.000Z</time>
      </trkpt>
      <trkpt lat="42.92702" lon="0.59064">
        <ele>1234</ele>
        <time>2019-02-03T10:54:33.000Z</time>
      </trkpt>
      <trkpt lat="42.92702" lon="0.59064">
        <ele>1234</ele>
        <time>2019-02-03T10:54:34.000Z</time>
      </trkpt>
      <trkpt lat="42.92701" lon="0.59065">
        <ele>1234</ele>
        <time>2019-02-03T10:54:35.000Z</time>
      </trkpt>
      <trkpt lat="42.92701" lon="0.59065">
        <ele>1234</ele>
        <time>2019-02-03T10:54:36.000Z</time>
      </trkpt>
      <trkpt lat="42.927" lon="0.59066">
        <ele>1234</ele>
        <time>2019-02-03T10:54:37.000Z</time>
      </trkpt>
      <trkpt lat="42.927" lon="0.59066">
        <ele>1235</ele>
        <time>2019-02-03T10:54:38.000Z</time>
      </trkpt>
      <trkpt lat="42.927" lon="0.59067">
        <ele>1235</ele>
        <time>2019-02-03T10:54:39.000Z</time>
      </trkpt>
      <trkpt lat="42.92699" lon="0.59067">
        <ele>1235</ele>
        <time>2019-02-03T10:54:40.000Z</time>
      </trkpt>
      <trkpt lat="42.92699" lon="0.59068">
        <ele>1235</ele>
        <time>2019-02-03T10:54:41.000Z</time>
      </trkpt>
      <trkpt lat="42.92699" lon="0.59068">
        <ele>1235</ele>
        <time>2019-02-03T10:54:42.000Z</time>
      </trkpt>
      <trkpt lat="42.92698" lon="0.59069">
        <ele>1235.3</ele>
        <time>2019-02-03T10:54:43.000Z</time>
      </trkpt>
      <trkpt lat="42.92698" lon="0.59069">
        <ele>1235.7</ele>
        <time>2019-02-03T10:54:44.000Z</time>
      </trkpt>
      <trkpt lat="42.92698" lon="0.59069">
        <ele>1236</ele>
        <time>2019-02-03T10:54:45.000Z</time>
      </trkpt>
      <trkpt lat="42.92698" lon="0.59069">
        <ele>1236</ele>
        <time>2019-02-03T10:54:46.000Z</time>
      </trkpt>
      <trkpt lat="42.92698" lon="0.5907">
        <ele>1236</ele>
        <time>2019-02-03T10:54:47.000Z</time>
      </trkpt>
      <trkpt lat="42.92698" lon="0.5907">
        <ele>1236</ele>
        <time>2019-02-03T10:54:48.000Z</time>
      </trkpt>
      <trkpt lat="42.92698" lon="0.5907">
        <ele>1236</ele>
        <time>2019-02-03T10:54:49.000Z</time>
      </trkpt>
      <trkpt lat="42.92697" lon="0.5907">
        <ele>1236</ele>
        <time>2019-02-03T10:54:50.000Z</time>
      </trkpt>
      <trkpt lat="42.92697" lon="0.5907">
        <ele>1236</ele>
        <time>2019-02-03T10:54:51.000Z</time>
      </trkpt>
      <trkpt lat="42.92697" lon="0.5907">
        <ele>1236.5</ele>
        <time>2019-02-03T10:54:52.000Z</time>
      </trkpt>
      <trkpt lat="42.92697" lon="0.5907">
        <ele>1237</ele>
        <time>2019-02-03T10:54:53.000Z</time>
      </trkpt>
      <trkpt lat="42.92698" lon="0.5907">
        <ele>1237</ele>
        <time>2019-02-03T10:54:54.000Z</time>
      </trkpt>
      <trkpt lat="42.92698" lon="0.5907">
        <ele>1237</ele>
        <time>2019-02-03T10:54:55.000Z</time>
      </trkpt>
      <trkpt lat="42.92698" lon="0.5907">
        <ele>1237</ele>
        <time>2019-02-03T10:54:56.000Z</time>
      </trkpt>
      <trkpt lat="42.92698" lon="0.5907">
        <ele>1237</ele>
        <time>2019-02-03T10:54:57.000Z</time>
      </trkpt>
      <trkpt lat="42.92698" lon="0.5907">
        <ele>1237</ele>
        <time>2019-02-03T10:54:58.000Z</time>
      </trkpt>
      <trkpt lat="42.92697" lon="0.5907">
        <ele>1237</ele>
        <time>2019-02-03T10:54:59.000Z</time>
      </trkpt>
      <trkpt lat="42.92697" lon="0.5907">
        <ele>1237</ele>
        <time>2019-02-03T10:55:00.000Z</time>
      </trkpt>
      <trkpt lat="42.92697" lon="0.5907">
        <ele>1237</ele>
        <time>2019-02-03T10:55:01.000Z</time>
      </trkpt>
      <trkpt lat="42.92697" lon="0.5907">
        <ele>1237</ele>
        <time>2019-02-03T10:55:02.000Z</time>
      </trkpt>
      <trkpt lat="42.92696" lon="0.5907">
        <ele>1237</ele>
        <time>2019-02-03T10:55:03.000Z</time>
      </trkpt>
      <trkpt lat="42.92696" lon="0.5907">
        <ele>1237</ele>
        <time>2019-02-03T10:55:04.000Z</time>
      </trkpt>
      <trkpt lat="42.92695" lon="0.59071">
        <ele>1237</ele>
        <time>2019-02-03T10:55:05.000Z</time>
      </trkpt>
      <trkpt lat="42.92695" lon="0.59071">
        <ele>1237</ele>
        <time>2019-02-03T10:55:06.000Z</time>
      </trkpt>
      <trkpt lat="42.92695" lon="0.59072">
        <ele>1237</ele>
        <time>2019-02-03T10:55:07.000Z</time>
      </trkpt>
      <trkpt lat="42.92695" lon="0.59073">
        <ele>1237</ele>
        <time>2019-02-03T10:55:08.000Z</time>
      </trkpt>
      <trkpt lat="42.92695" lon="0.59074">
        <ele>1237</ele>
        <time>2019-02-03T10:55:09.000Z</time>
      </trkpt>
      <trkpt lat="42.92695" lon="0.59075">
        <ele>1238</ele>
        <time>2019-02-03T10:55:10.000Z</time>
      </trkpt>
      <trkpt lat="42.92695" lon="0.59075">
        <ele>1238</ele>
        <time>2019-02-03T10:55:11.000Z</time>
      </trkpt>
      <trkpt lat="42.92695" lon="0.59076">
        <ele>1238</ele>
        <time>2019-02-03T10:55:12.000Z</time>
      </trkpt>
      <trkpt lat="42.92696" lon="0.59077">
        <ele>1238</ele>
        <time>2019-02-03T10:55:13.000Z</time>
      </trkpt>
      <trkpt lat="42.92696" lon="0.59077">
        <ele>1238</ele>
        <time>2019-02-03T10:55:14.000Z</time>
      </trkpt>
      <trkpt lat="42.92696" lon="0.59077">
        <ele>1238</ele>
        <time>2019-02-03T10:55:15.000Z</time>
      </trkpt>
      <trkpt lat="42.92696" lon="0.59077">
        <ele>1238</ele>
        <time>2019-02-03T10:55:16.000Z</time>
      </trkpt>
      <trkpt lat="42.92696" lon="0.59077">
        <ele>1238</ele>
        <time>2019-02-03T10:55:17.000Z</time>
      </trkpt>
      <trkpt lat="42.92696" lon="0.59077">
        <ele>1238</ele>
        <time>2019-02-03T10:55:18.000Z</time>
      </trkpt>
      <trkpt lat="42.92696" lon="0.59077">
        <ele>1238</ele>
        <time>2019-02-03T10:55:19.000Z</time>
      </trkpt>
      <trkpt lat="42.92696" lon="0.59077">
        <ele>1238.5</ele>
        <time>2019-02-03T10:55:20.000Z</time>
      </trkpt>
      <trkpt lat="42.92695" lon="0.59078">
        <ele>1239</ele>
        <time>2019-02-03T10:55:21.000Z</time>
      </trkpt>
      <trkpt lat="42.92695" lon="0.59078">
        <ele>1239</ele>
        <time>2019-02-03T10:55:22.000Z</time>
      </trkpt>
      <trkpt lat="42.92694" lon="0.59078">
        <ele>1239</ele>
        <time>2019-02-03T10:55:23.000Z</time>
      </trkpt>
      <trkpt lat="42.92693" lon="0.59078">
        <ele>1239</ele>
        <time>2019-02-03T10:55:24.000Z</time>
      </trkpt>
      <trkpt lat="42.92693" lon="0.59079">
        <ele>1239</ele>
        <time>2019-02-03T10:55:25.000Z</time>
      </trkpt>
      <trkpt lat="42.92692" lon="0.59079">
        <ele>1239</ele>
        <time>2019-02-03T10:55:26.000Z</time>
      </trkpt>
      <trkpt lat="42.92692" lon="0.59079">
        <ele>1239</ele>
        <time>2019-02-03T10:55:27.000Z</time>
      </trkpt>
      <trkpt lat="42.92692" lon="0.59079">
        <ele>1239</ele>
        <time>2019-02-03T10:55:28.000Z</time>
      </trkpt>
      <trkpt lat="42.92692" lon="0.59079">
        <ele>1239</ele>
        <time>2019-02-03T10:55:29.000Z</time>
      </trkpt>
      <trkpt lat="42.92692" lon="0.59079">
        <ele>1239</ele>
        <time>2019-02-03T10:55:30.000Z</time>
      </trkpt>
      <trkpt lat="42.92691" lon="0.59079">
        <ele>1239</ele>
        <time>2019-02-03T10:55:31.000Z</time>
      </trkpt>
      <trkpt lat="42.92691" lon="0.59079">
        <ele>1239</ele>
        <time>2019-02-03T10:55:32.000Z</time>
      </trkpt>
      <trkpt lat="42.92691" lon="0.59079">
        <ele>1239</ele>
        <time>2019-02-03T10:55:33.000Z</time>
      </trkpt>
      <trkpt lat="42.9269" lon="0.59079">
        <ele>1239</ele>
        <time>2019-02-03T10:55:34.000Z</time>
      </trkpt>
      <trkpt lat="42.92689" lon="0.59079">
        <ele>1239</ele>
        <time>2019-02-03T10:55:35.000Z</time>
      </trkpt>
      <trkpt lat="42.92688" lon="0.59079">
        <ele>1239</ele>
        <time>2019-02-03T10:55:36.000Z</time>
      </trkpt>
      <trkpt lat="42.92688" lon="0.59079">
        <ele>1239</ele>
        <time>2019-02-03T10:55:37.000Z</time>
      </trkpt>
      <trkpt lat="42.92687" lon="0.59079">
        <ele>1239</ele>
        <time>2019-02-03T10:55:38.000Z</time>
      </trkpt>
      <trkpt lat="42.92687" lon="0.59079">
        <ele>1239.3</ele>
        <time>2019-02-03T10:55:39.000Z</time>
      </trkpt>
      <trkpt lat="42.92686" lon="0.59079">
        <ele>1239.7</ele>
        <time>2019-02-03T10:55:40.000Z</time>
      </trkpt>
      <trkpt lat="42.92686" lon="0.5908">
        <ele>1240</ele>
        <time>2019-02-03T10:55:41.000Z</time>
      </trkpt>
      <trkpt lat="42.92686" lon="0.5908">
        <ele>1240</ele>
        <time>2019-02-03T10:55:42.000Z</time>
      </trkpt>
      <trkpt lat="42.92686" lon="0.5908">
        <ele>1240</ele>
        <time>2019-02-03T10:55:43.000Z</time>
      </trkpt>
      <trkpt lat="42.92687" lon="0.5908">
        <ele>1240</ele>
        <time>2019-02-03T10:55:44.000Z</time>
      </trkpt>
      <trkpt lat="42.92687" lon="0.5908">
        <ele>1240</ele>
        <time>2019-02-03T10:55:45.000Z</time>
      </trkpt>
      <trkpt lat="42.92687" lon="0.5908">
        <ele>1240</ele>
        <time>2019-02-03T10:55:46.000Z</time>
      </trkpt>
      <trkpt lat="42.92687" lon="0.5908">
        <ele>1240</ele>
        <time>2019-02-03T10:55:47.000Z</time>
      </trkpt>
      <trkpt lat="42.92687" lon="0.5908">
        <ele>1240</ele>
        <time>2019-02-03T10:55:48.000Z</time>
      </trkpt>
      <trkpt lat="42.92687" lon="0.5908">
        <ele>1240</ele>
        <time>2019-02-03T10:55:49.000Z</time>
      </trkpt>
      <trkpt lat="42.92687" lon="0.5908">
        <ele>1240</ele>
        <time>2019-02-03T10:55:50.000Z</time>
      </trkpt>
      <trkpt lat="42.92686" lon="0.5908">
        <ele>1240</ele>
        <time>2019-02-03T10:55:51.000Z</time>
      </trkpt>
      <trkpt lat="42.92686" lon="0.5908">
        <ele>1240</ele>
        <time>2019-02-03T10:55:52.000Z</time>
      </trkpt>
      <trkpt lat="42.92685" lon="0.5908">
        <ele>1240</ele>
        <time>2019-02-03T10:55:53.000Z</time>
      </trkpt>
      <trkpt lat="42.92685" lon="0.5908">
        <ele>1240</ele>
        <time>2019-02-03T10:55:54.000Z</time>
      </trkpt>
      <trkpt lat="42.92684" lon="0.5908">
        <ele>1240</ele>
        <time>2019-02-03T10:55:55.000Z</time>
      </trkpt>
      <trkpt lat="42.92684" lon="0.5908">
        <ele>1240</ele>
        <time>2019-02-03T10:55:56.000Z</time>
      </trkpt>
      <trkpt lat="42.92684" lon="0.5908">
        <ele>1240</ele>
        <time>2019-02-03T10:55:57.000Z</time>
      </trkpt>
      <trkpt lat="42.92684" lon="0.5908">
        <ele>1240</ele>
        <time>2019-02-03T10:55:58.000Z</time>
      </trkpt>
      <trkpt lat="42.92684" lon="0.5908">
        <ele>1240</ele>
        <time>2019-02-03T10:55:59.000Z</time>
      </trkpt>
      <trkpt lat="42.92684" lon="0.5908">
        <ele>1240</ele>
        <time>2019-02-03T10:56:00.000Z</time>
      </trkpt>
      <trkpt lat="42.92684" lon="0.5908">
        <ele>1240</ele>
        <time>2019-02-03T10:56:01.000Z</time>
      </trkpt>
      <trkpt lat="42.92684" lon="0.5908">
        <ele>1240</ele>
        <time>2019-02-03T10:56:02.000Z</time>
      </trkpt>
      <trkpt lat="42.92684" lon="0.5908">
        <ele>1240</ele>
        <time>2019-02-03T10:56:03.000Z</time>
      </trkpt>
      <trkpt lat="42.92684" lon="0.5908">
        <ele>1240</ele>
        <time>2019-02-03T10:56:04.000Z</time>
      </trkpt>
      <trkpt lat="42.92684" lon="0.59081">
        <ele>1240</ele>
        <time>2019-02-03T10:56:05.000Z</time>
      </trkpt>
      <trkpt lat="42.92684" lon="0.59081">
        <ele>1240.5</ele>
        <time>2019-02-03T10:56:06.000Z</time>
      </trkpt>
      <trkpt lat="42.92684" lon="0.59081">
        <ele>1241</ele>
        <time>2019-02-03T10:56:07.000Z</time>
      </trkpt>
      <trkpt lat="42.92684" lon="0.59081">
        <ele>1241</ele>
        <time>2019-02-03T10:56:08.000Z</time>
      </trkpt>
      <trkpt lat="42.92685" lon="0.59081">
        <ele>1241</ele>
        <time>2019-02-03T10:56:09.000Z</time>
      </trkpt>
      <trkpt lat="42.92685" lon="0.59081">
        <ele>1241</ele>
        <time>2019-02-03T10:56:10.000Z</time>
      </trkpt>
      <trkpt lat="42.92685" lon="0.59081">
        <ele>1241</ele>
        <time>2019-02-03T10:56:11.000Z</time>
      </trkpt>
      <trkpt lat="42.92685" lon="0.59081">
        <ele>1241</ele>
        <time>2019-02-03T10:56:12.000Z</time>
      </trkpt>
      <trkpt lat="42.92684" lon="0.59082">
        <ele>1241</ele>
        <time>2019-02-03T10:56:13.000Z</time>
      </trkpt>
      <trkpt lat="42.92684" lon="0.59082">
        <ele>1241</ele>
        <time>2019-02-03T10:56:14.000Z</time>
      </trkpt>
      <trkpt lat="42.92683" lon="0.59082">
        <ele>1241</ele>
        <time>2019-02-03T10:56:15.000Z</time>
      </trkpt>
      <trkpt lat="42.92683" lon="0.59082">
        <ele>1241</ele>
        <time>2019-02-03T10:56:16.000Z</time>
      </trkpt>
      <trkpt lat="42.92682" lon="0.59082">
        <ele>1241.3</ele>
        <time>2019-02-03T10:56:17.000Z</time>
      </trkpt>
      <trkpt lat="42.92682" lon="0.59082">
        <ele>1241.7</ele>
        <time>2019-02-03T10:56:18.000Z</time>
      </trkpt>
      <trkpt lat="42.92681" lon="0.59083">
        <ele>1242</ele>
        <time>2019-02-03T10:56:19.000Z</time>
      </trkpt>
      <trkpt lat="42.92681" lon="0.59083">
        <ele>1242</ele>
        <time>2019-02-03T10:56:20.000Z</time>
      </trkpt>
      <trkpt lat="42.9268" lon="0.59083">
        <ele>1242</ele>
        <time>2019-02-03T10:56:21.000Z</time>
      </trkpt>
      <trkpt lat="42.9268" lon="0.59083">
        <ele>1243</ele>
        <time>2019-02-03T10:56:22.000Z</time>
      </trkpt>
      <trkpt lat="42.92679" lon="0.59083">
        <ele>1243</ele>
        <time>2019-02-03T10:56:23.000Z</time>
      </trkpt>
      <trkpt lat="42.92679" lon="0.59083">
        <ele>1243</ele>
        <time>2019-02-03T10:56:24.000Z</time>
      </trkpt>
      <trkpt lat="42.92678" lon="0.59083">
        <ele>1243</ele>
        <time>2019-02-03T10:56:25.000Z</time>
      </trkpt>
      <trkpt lat="42.92678" lon="0.59083">
        <ele>1243</ele>
        <time>2019-02-03T10:56:26.000Z</time>
      </trkpt>
      <trkpt lat="42.92677" lon="0.59083">
        <ele>1243</ele>
        <time>2019-02-03T10:56:27.000Z</time>
      </trkpt>
      <trkpt lat="42.92677" lon="0.59083">
        <ele>1243</ele>
        <time>2019-02-03T10:56:28.000Z</time>
      </trkpt>
      <trkpt lat="42.92676" lon="0.59083">
        <ele>1243</ele>
        <time>2019-02-03T10:56:29.000Z</time>
      </trkpt>
      <trkpt lat="42.92675" lon="0.59083">
        <ele>1243</ele>
        <time>2019-02-03T10:56:30.000Z</time>
      </trkpt>
      <trkpt lat="42.92675" lon="0.59083">
        <ele>1243</ele>
        <time>2019-02-03T10:56:31.000Z</time>
      </trkpt>
      <trkpt lat="42.92674" lon="0.59083">
        <ele>1244</ele>
        <time>2019-02-03T10:56:32.000Z</time>
      </trkpt>
      <trkpt lat="42.92674" lon="0.59084">
        <ele>1244</ele>
        <time>2019-02-03T10:56:33.000Z</time>
      </trkpt>
      <trkpt lat="42.92673" lon="0.59084">
        <ele>1244</ele>
        <time>2019-02-03T10:56:34.000Z</time>
      </trkpt>
      <trkpt lat="42.92673" lon="0.59084">
        <ele>1244</ele>
        <time>2019-02-03T10:56:35.000Z</time>
      </trkpt>
      <trkpt lat="42.92673" lon="0.59084">
        <ele>1244</ele>
        <time>2019-02-03T10:56:36.000Z</time>
      </trkpt>
      <trkpt lat="42.92672" lon="0.59085">
        <ele>1244</ele>
        <time>2019-02-03T10:56:37.000Z</time>
      </trkpt>
      <trkpt lat="42.92672" lon="0.59085">
        <ele>1244.5</ele>
        <time>2019-02-03T10:56:38.000Z</time>
      </trkpt>
      <trkpt lat="42.92672" lon="0.59086">
        <ele>1245</ele>
        <time>2019-02-03T10:56:39.000Z</time>
      </trkpt>
      <trkpt lat="42.92672" lon="0.59086">
        <ele>1245</ele>
        <time>2019-02-03T10:56:40.000Z</time>
      </trkpt>
      <trkpt lat="42.92672" lon="0.59087">
        <ele>1245</ele>
        <time>2019-02-03T10:56:41.000Z</time>
      </trkpt>
      <trkpt lat="42.92672" lon="0.59087">
        <ele>1245</ele>
        <time>2019-02-03T10:56:42.000Z</time>
      </trkpt>
      <trkpt lat="42.92672" lon="0.59088">
        <ele>1245</ele>
        <time>2019-02-03T10:56:43.000Z</time>
      </trkpt>
      <trkpt lat="42.92672" lon="0.59089">
        <ele>1245</ele>
        <time>2019-02-03T10:56:44.000Z</time>
      </trkpt>
      <trkpt lat="42.92672" lon="0.59089">
        <ele>1245</ele>
        <time>2019-02-03T10:56:45.000Z</time>
      </trkpt>
      <trkpt lat="42.92672" lon="0.5909">
        <ele>1246</ele>
        <time>2019-02-03T10:56:46.000Z</time>
      </trkpt>
      <trkpt lat="42.92672" lon="0.5909">
        <ele>1246</ele>
        <time>2019-02-03T10:56:47.000Z</time>
      </trkpt>
      <trkpt lat="42.92672" lon="0.59091">
        <ele>1246</ele>
        <time>2019-02-03T10:56:48.000Z</time>
      </trkpt>
      <trkpt lat="42.92672" lon="0.59091">
        <ele>1246</ele>
        <time>2019-02-03T10:56:49.000Z</time>
      </trkpt>
      <trkpt lat="42.92672" lon="0.59091">
        <ele>1246</ele>
        <time>2019-02-03T10:56:50.000Z</time>
      </trkpt>
      <trkpt lat="42.92672" lon="0.59092">
        <ele>1246</ele>
        <time>2019-02-03T10:56:51.000Z</time>
      </trkpt>
      <trkpt lat="42.92672" lon="0.59092">
        <ele>1246.5</ele>
        <time>2019-02-03T10:56:52.000Z</time>
      </trkpt>
      <trkpt lat="42.92672" lon="0.59092">
        <ele>1247</ele>
        <time>2019-02-03T10:56:53.000Z</time>
      </trkpt>
      <trkpt lat="42.92672" lon="0.59092">
        <ele>1247</ele>
        <time>2019-02-03T10:56:54.000Z</time>
      </trkpt>
      <trkpt lat="42.92672" lon="0.59092">
        <ele>1247</ele>
        <time>2019-02-03T10:56:55.000Z</time>
      </trkpt>
      <trkpt lat="42.92672" lon="0.59092">
        <ele>1247</ele>
        <time>2019-02-03T10:56:56.000Z</time>
      </trkpt>
      <trkpt lat="42.92672" lon="0.59092">
        <ele>1247</ele>
        <time>2019-02-03T10:56:57.000Z</time>
      </trkpt>
      <trkpt lat="42.92671" lon="0.59093">
        <ele>1248</ele>
        <time>2019-02-03T10:56:59.000Z</time>
      </trkpt>
      <trkpt lat="42.92671" lon="0.59093">
        <ele>1248</ele>
        <time>2019-02-03T10:57:00.000Z</time>
      </trkpt>
      <trkpt lat="42.92671" lon="0.59093">
        <ele>1248</ele>
        <time>2019-02-03T10:57:01.000Z</time>
      </trkpt>
      <trkpt lat="42.9267" lon="0.59094">
        <ele>1248</ele>
        <time>2019-02-03T10:57:02.000Z</time>
      </trkpt>
      <trkpt lat="42.9267" lon="0.59094">
        <ele>1248</ele>
        <time>2019-02-03T10:57:03.000Z</time>
      </trkpt>
      <trkpt lat="42.92669" lon="0.59094">
        <ele>1248</ele>
        <time>2019-02-03T10:57:04.000Z</time>
      </trkpt>
      <trkpt lat="42.92668" lon="0.59094">
        <ele>1248</ele>
        <time>2019-02-03T10:57:05.000Z</time>
      </trkpt>
      <trkpt lat="42.92668" lon="0.59094">
        <ele>1248.5</ele>
        <time>2019-02-03T10:57:06.000Z</time>
      </trkpt>
      <trkpt lat="42.92667" lon="0.59095">
        <ele>1249</ele>
        <time>2019-02-03T10:57:07.000Z</time>
      </trkpt>
      <trkpt lat="42.92667" lon="0.59095">
        <ele>1249</ele>
        <time>2019-02-03T10:57:08.000Z</time>
      </trkpt>
      <trkpt lat="42.92666" lon="0.59095">
        <ele>1249</ele>
        <time>2019-02-03T10:57:09.000Z</time>
      </trkpt>
      <trkpt lat="42.92666" lon="0.59095">
        <ele>1249</ele>
        <time>2019-02-03T10:57:10.000Z</time>
      </trkpt>
      <trkpt lat="42.92666" lon="0.59095">
        <ele>1249</ele>
        <time>2019-02-03T10:57:11.000Z</time>
      </trkpt>
      <trkpt lat="42.92666" lon="0.59095">
        <ele>1249</ele>
        <time>2019-02-03T10:57:12.000Z</time>
      </trkpt>
      <trkpt lat="42.92665" lon="0.59095">
        <ele>1249</ele>
        <time>2019-02-03T10:57:13.000Z</time>
      </trkpt>
      <trkpt lat="42.92665" lon="0.59095">
        <ele>1249</ele>
        <time>2019-02-03T10:57:14.000Z</time>
      </trkpt>
      <trkpt lat="42.92665" lon="0.59096">
        <ele>1249</ele>
        <time>2019-02-03T10:57:15.000Z</time>
      </trkpt>
      <trkpt lat="42.92665" lon="0.59096">
        <ele>1249</ele>
        <time>2019-02-03T10:57:16.000Z</time>
      </trkpt>
      <trkpt lat="42.92664" lon="0.59096">
        <ele>1249</ele>
        <time>2019-02-03T10:57:17.000Z</time>
      </trkpt>
      <trkpt lat="42.92663" lon="0.59096">
        <ele>1249.5</ele>
        <time>2019-02-03T10:57:18.000Z</time>
      </trkpt>
      <trkpt lat="42.92662" lon="0.59097">
        <ele>1250</ele>
        <time>2019-02-03T10:57:19.000Z</time>
      </trkpt>
      <trkpt lat="42.92661" lon="0.59097">
        <ele>1250</ele>
        <time>2019-02-03T10:57:20.000Z</time>
      </trkpt>
      <trkpt lat="42.9266" lon="0.59097">
        <ele>1250</ele>
        <time>2019-02-03T10:57:21.000Z</time>
      </trkpt>
      <trkpt lat="42.92659" lon="0.59097">
        <ele>1250</ele>
        <time>2019-02-03T10:57:22.000Z</time>
      </trkpt>
      <trkpt lat="42.92658" lon="0.59097">
        <ele>1250</ele>
        <time>2019-02-03T10:57:23.000Z</time>
      </trkpt>
      <trkpt lat="42.92657" lon="0.59097">
        <ele>1250</ele>
        <time>2019-02-03T10:57:24.000Z</time>
      </trkpt>
      <trkpt lat="42.92657" lon="0.59097">
        <ele>1251</ele>
        <time>2019-02-03T10:57:25.000Z</time>
      </trkpt>
      <trkpt lat="42.92657" lon="0.59097">
        <ele>1251</ele>
        <time>2019-02-03T10:57:26.000Z</time>
      </trkpt>
      <trkpt lat="42.92657" lon="0.59097">
        <ele>1251</ele>
        <time>2019-02-03T10:57:27.000Z</time>
      </trkpt>
      <trkpt lat="42.92657" lon="0.59097">
        <ele>1251</ele>
        <time>2019-02-03T10:57:28.000Z</time>
      </trkpt>
      <trkpt lat="42.92657" lon="0.59097">
        <ele>1251</ele>
        <time>2019-02-03T10:57:29.000Z</time>
      </trkpt>
      <trkpt lat="42.92657" lon="0.59097">
        <ele>1251</ele>
        <time>2019-02-03T10:57:30.000Z</time>
      </trkpt>
      <trkpt lat="42.92656" lon="0.59097">
        <ele>1252</ele>
        <time>2019-02-03T10:57:31.000Z</time>
      </trkpt>
      <trkpt lat="42.92656" lon="0.59097">
        <ele>1252</ele>
        <time>2019-02-03T10:57:32.000Z</time>
      </trkpt>
      <trkpt lat="42.92656" lon="0.59097">
        <ele>1252</ele>
        <time>2019-02-03T10:57:33.000Z</time>
      </trkpt>
      <trkpt lat="42.92655" lon="0.59097">
        <ele>1252</ele>
        <time>2019-02-03T10:57:34.000Z</time>
      </trkpt>
      <trkpt lat="42.92654" lon="0.59097">
        <ele>1252</ele>
        <time>2019-02-03T10:57:35.000Z</time>
      </trkpt>
      <trkpt lat="42.92654" lon="0.59097">
        <ele>1252</ele>
        <time>2019-02-03T10:57:36.000Z</time>
      </trkpt>
      <trkpt lat="42.92654" lon="0.59097">
        <ele>1253</ele>
        <time>2019-02-03T10:57:37.000Z</time>
      </trkpt>
      <trkpt lat="42.92653" lon="0.59097">
        <ele>1253</ele>
        <time>2019-02-03T10:57:38.000Z</time>
      </trkpt>
      <trkpt lat="42.92653" lon="0.59096">
        <ele>1253</ele>
        <time>2019-02-03T10:57:39.000Z</time>
      </trkpt>
      <trkpt lat="42.92653" lon="0.59096">
        <ele>1253</ele>
        <time>2019-02-03T10:57:40.000Z</time>
      </trkpt>
      <trkpt lat="42.92653" lon="0.59097">
        <ele>1253</ele>
        <time>2019-02-03T10:57:41.000Z</time>
      </trkpt>
      <trkpt lat="42.92653" lon="0.59097">
        <ele>1253</ele>
        <time>2019-02-03T10:57:42.000Z</time>
      </trkpt>
      <trkpt lat="42.92653" lon="0.59097">
        <ele>1253</ele>
        <time>2019-02-03T10:57:43.000Z</time>
      </trkpt>
      <trkpt lat="42.92653" lon="0.59097">
        <ele>1253</ele>
        <time>2019-02-03T10:57:44.000Z</time>
      </trkpt>
      <trkpt lat="42.92653" lon="0.59097">
        <ele>1253</ele>
        <time>2019-02-03T10:57:45.000Z</time>
      </trkpt>
      <trkpt lat="42.92653" lon="0.59097">
        <ele>1253</ele>
        <time>2019-02-03T10:57:46.000Z</time>
      </trkpt>
      <trkpt lat="42.92653" lon="0.59097">
        <ele>1253</ele>
        <time>2019-02-03T10:57:47.000Z</time>
      </trkpt>
      <trkpt lat="42.92652" lon="0.59097">
        <ele>1253</ele>
        <time>2019-02-03T10:57:48.000Z</time>
      </trkpt>
      <trkpt lat="42.92652" lon="0.59097">
        <ele>1253</ele>
        <time>2019-02-03T10:57:49.000Z</time>
      </trkpt>
      <trkpt lat="42.92652" lon="0.59097">
        <ele>1253</ele>
        <time>2019-02-03T10:57:50.000Z</time>
      </trkpt>
      <trkpt lat="42.92652" lon="0.59096">
        <ele>1253</ele>
        <time>2019-02-03T10:57:51.000Z</time>
      </trkpt>
      <trkpt lat="42.92652" lon="0.59096">
        <ele>1253</ele>
        <time>2019-02-03T10:57:52.000Z</time>
      </trkpt>
      <trkpt lat="42.92652" lon="0.59096">
        <ele>1253</ele>
        <time>2019-02-03T10:57:53.000Z</time>
      </trkpt>
      <trkpt lat="42.92652" lon="0.59096">
        <ele>1253.5</ele>
        <time>2019-02-03T10:57:54.000Z</time>
      </trkpt>
      <trkpt lat="42.92652" lon="0.59096">
        <ele>1254</ele>
        <time>2019-02-03T10:57:55.000Z</time>
      </trkpt>
      <trkpt lat="42.92652" lon="0.59095">
        <ele>1254</ele>
        <time>2019-02-03T10:57:56.000Z</time>
      </trkpt>
      <trkpt lat="42.92652" lon="0.59095">
        <ele>1254</ele>
        <time>2019-02-03T10:57:57.000Z</time>
      </trkpt>
      <trkpt lat="42.92653" lon="0.59095">
        <ele>1254</ele>
        <time>2019-02-03T10:57:58.000Z</time>
      </trkpt>
      <trkpt lat="42.92653" lon="0.59095">
        <ele>1254</ele>
        <time>2019-02-03T10:57:59.000Z</time>
      </trkpt>
      <trkpt lat="42.92653" lon="0.59095">
        <ele>1254</ele>
        <time>2019-02-03T10:58:00.000Z</time>
      </trkpt>
      <trkpt lat="42.92653" lon="0.59095">
        <ele>1254</ele>
        <time>2019-02-03T10:58:01.000Z</time>
      </trkpt>
      <trkpt lat="42.92653" lon="0.59094">
        <ele>1254</ele>
        <time>2019-02-03T10:58:02.000Z</time>
      </trkpt>
      <trkpt lat="42.92653" lon="0.59094">
        <ele>1254.5</ele>
        <time>2019-02-03T10:58:03.000Z</time>
      </trkpt>
      <trkpt lat="42.92653" lon="0.59095">
        <ele>1255</ele>
        <time>2019-02-03T10:58:04.000Z</time>
      </trkpt>
      <trkpt lat="42.92653" lon="0.59094">
        <ele>1255</ele>
        <time>2019-02-03T10:58:05.000Z</time>
      </trkpt>
      <trkpt lat="42.92653" lon="0.59094">
        <ele>1255</ele>
        <time>2019-02-03T10:58:06.000Z</time>
      </trkpt>
      <trkpt lat="42.92653" lon="0.59094">
        <ele>1255</ele>
        <time>2019-02-03T10:58:07.000Z</time>
      </trkpt>
      <trkpt lat="42.92654" lon="0.59094">
        <ele>1255</ele>
        <time>2019-02-03T10:58:08.000Z</time>
      </trkpt>
      <trkpt lat="42.92654" lon="0.59094">
        <ele>1255</ele>
        <time>2019-02-03T10:58:09.000Z</time>
      </trkpt>
      <trkpt lat="42.92654" lon="0.59094">
        <ele>1255</ele>
        <time>2019-02-03T10:58:10.000Z</time>
      </trkpt>
      <trkpt lat="42.92654" lon="0.59093">
        <ele>1255</ele>
        <time>2019-02-03T10:58:11.000Z</time>
      </trkpt>
      <trkpt lat="42.92654" lon="0.59093">
        <ele>1255</ele>
        <time>2019-02-03T10:58:12.000Z</time>
      </trkpt>
      <trkpt lat="42.92654" lon="0.59093">
        <ele>1255</ele>
        <time>2019-02-03T10:58:13.000Z</time>
      </trkpt>
      <trkpt lat="42.92654" lon="0.59093">
        <ele>1255</ele>
        <time>2019-02-03T10:58:14.000Z</time>
      </trkpt>
      <trkpt lat="42.92654" lon="0.59093">
        <ele>1256</ele>
        <time>2019-02-03T10:58:15.000Z</time>
      </trkpt>
      <trkpt lat="42.92654" lon="0.59093">
        <ele>1256</ele>
        <time>2019-02-03T10:58:16.000Z</time>
      </trkpt>
      <trkpt lat="42.92654" lon="0.59093">
        <ele>1256</ele>
        <time>2019-02-03T10:58:17.000Z</time>
      </trkpt>
      <trkpt lat="42.92654" lon="0.59093">
        <ele>1256</ele>
        <time>2019-02-03T10:58:18.000Z</time>
      </trkpt>
      <trkpt lat="42.92654" lon="0.59093">
        <ele>1256</ele>
        <time>2019-02-03T10:58:19.000Z</time>
      </trkpt>
      <trkpt lat="42.92653" lon="0.59093">
        <ele>1256</ele>
        <time>2019-02-03T10:58:20.000Z</time>
      </trkpt>
      <trkpt lat="42.92653" lon="0.59093">
        <ele>1256</ele>
        <time>2019-02-03T10:58:21.000Z</time>
      </trkpt>
      <trkpt lat="42.92652" lon="0.59094">
        <ele>1256</ele>
        <time>2019-02-03T10:58:22.000Z</time>
      </trkpt>
      <trkpt lat="42.92651" lon="0.59094">
        <ele>1256</ele>
        <time>2019-02-03T10:58:23.000Z</time>
      </trkpt>
      <trkpt lat="42.92651" lon="0.59094">
        <ele>1256</ele>
        <time>2019-02-03T10:58:24.000Z</time>
      </trkpt>
      <trkpt lat="42.9265" lon="0.59094">
        <ele>1256</ele>
        <time>2019-02-03T10:58:25.000Z</time>
      </trkpt>
      <trkpt lat="42.92649" lon="0.59094">
        <ele>1256</ele>
        <time>2019-02-03T10:58:26.000Z</time>
      </trkpt>
      <trkpt lat="42.92648" lon="0.59094">
        <ele>1256</ele>
        <time>2019-02-03T10:58:27.000Z</time>
      </trkpt>
      <trkpt lat="42.92648" lon="0.59094">
        <ele>1256</ele>
        <time>2019-02-03T10:58:28.000Z</time>
      </trkpt>
      <trkpt lat="42.92648" lon="0.59094">
        <ele>1257</ele>
        <time>2019-02-03T10:58:29.000Z</time>
      </trkpt>
      <trkpt lat="42.92647" lon="0.59094">
        <ele>1257</ele>
        <time>2019-02-03T10:58:30.000Z</time>
      </trkpt>
      <trkpt lat="42.92647" lon="0.59095">
        <ele>1257</ele>
        <time>2019-02-03T10:58:31.000Z</time>
      </trkpt>
      <trkpt lat="42.92647" lon="0.59095">
        <ele>1257</ele>
        <time>2019-02-03T10:58:32.000Z</time>
      </trkpt>
      <trkpt lat="42.92647" lon="0.59095">
        <ele>1257</ele>
        <time>2019-02-03T10:58:33.000Z</time>
      </trkpt>
      <trkpt lat="42.92647" lon="0.59095">
        <ele>1257</ele>
        <time>2019-02-03T10:58:34.000Z</time>
      </trkpt>
      <trkpt lat="42.92647" lon="0.59096">
        <ele>1257</ele>
        <time>2019-02-03T10:58:35.000Z</time>
      </trkpt>
      <trkpt lat="42.92647" lon="0.59096">
        <ele>1257</ele>
        <time>2019-02-03T10:58:36.000Z</time>
      </trkpt>
      <trkpt lat="42.92647" lon="0.59096">
        <ele>1258</ele>
        <time>2019-02-03T10:58:37.000Z</time>
      </trkpt>
      <trkpt lat="42.92647" lon="0.59097">
        <ele>1258</ele>
        <time>2019-02-03T10:58:38.000Z</time>
      </trkpt>
      <trkpt lat="42.92647" lon="0.59097">
        <ele>1258</ele>
        <time>2019-02-03T10:58:39.000Z</time>
      </trkpt>
      <trkpt lat="42.92647" lon="0.59097">
        <ele>1258</ele>
        <time>2019-02-03T10:58:40.000Z</time>
      </trkpt>
      <trkpt lat="42.92647" lon="0.59098">
        <ele>1258</ele>
        <time>2019-02-03T10:58:41.000Z</time>
      </trkpt>
      <trkpt lat="42.92647" lon="0.59098">
        <ele>1258</ele>
        <time>2019-02-03T10:58:42.000Z</time>
      </trkpt>
      <trkpt lat="42.92647" lon="0.59098">
        <ele>1258.5</ele>
        <time>2019-02-03T10:58:43.000Z</time>
      </trkpt>
      <trkpt lat="42.92647" lon="0.59098">
        <ele>1259</ele>
        <time>2019-02-03T10:58:44.000Z</time>
      </trkpt>
      <trkpt lat="42.92647" lon="0.59098">
        <ele>1259</ele>
        <time>2019-02-03T10:58:45.000Z</time>
      </trkpt>
      <trkpt lat="42.92648" lon="0.59098">
        <ele>1259</ele>
        <time>2019-02-03T10:58:46.000Z</time>
      </trkpt>
      <trkpt lat="42.92648" lon="0.59098">
        <ele>1259</ele>
        <time>2019-02-03T10:58:47.000Z</time>
      </trkpt>
      <trkpt lat="42.92648" lon="0.59098">
        <ele>1259</ele>
        <time>2019-02-03T10:58:48.000Z</time>
      </trkpt>
      <trkpt lat="42.92648" lon="0.59099">
        <ele>1259</ele>
        <time>2019-02-03T10:58:49.000Z</time>
      </trkpt>
      <trkpt lat="42.92648" lon="0.59099">
        <ele>1259.3</ele>
        <time>2019-02-03T10:58:50.000Z</time>
      </trkpt>
      <trkpt lat="42.92648" lon="0.591">
        <ele>1259.7</ele>
        <time>2019-02-03T10:58:51.000Z</time>
      </trkpt>
      <trkpt lat="42.92648" lon="0.59101">
        <ele>1260</ele>
        <time>2019-02-03T10:58:52.000Z</time>
      </trkpt>
      <trkpt lat="42.92648" lon="0.59102">
        <ele>1260</ele>
        <time>2019-02-03T10:58:53.000Z</time>
      </trkpt>
      <trkpt lat="42.92648" lon="0.59102">
        <ele>1260</ele>
        <time>2019-02-03T10:58:54.000Z</time>
      </trkpt>
      <trkpt lat="42.92647" lon="0.59103">
        <ele>1260</ele>
        <time>2019-02-03T10:58:55.000Z</time>
      </trkpt>
      <trkpt lat="42.92647" lon="0.59104">
        <ele>1260</ele>
        <time>2019-02-03T10:58:56.000Z</time>
      </trkpt>
      <trkpt lat="42.92647" lon="0.59105">
        <ele>1260</ele>
        <time>2019-02-03T10:58:57.000Z</time>
      </trkpt>
      <trkpt lat="42.92647" lon="0.59106">
        <ele>1260</ele>
        <time>2019-02-03T10:58:58.000Z</time>
      </trkpt>
      <trkpt lat="42.92647" lon="0.59107">
        <ele>1260</ele>
        <time>2019-02-03T10:58:59.000Z</time>
      </trkpt>
      <trkpt lat="42.92647" lon="0.59107">
        <ele>1260</ele>
        <time>2019-02-03T10:59:00.000Z</time>
      </trkpt>
      <trkpt lat="42.92647" lon="0.59108">
        <ele>1261</ele>
        <time>2019-02-03T10:59:01.000Z</time>
      </trkpt>
      <trkpt lat="42.92648" lon="0.59109">
        <ele>1261</ele>
        <time>2019-02-03T10:59:02.000Z</time>
      </trkpt>
      <trkpt lat="42.92648" lon="0.59109">
        <ele>1261</ele>
        <time>2019-02-03T10:59:03.000Z</time>
      </trkpt>
      <trkpt lat="42.92648" lon="0.5911">
        <ele>1261</ele>
        <time>2019-02-03T10:59:04.000Z</time>
      </trkpt>
      <trkpt lat="42.92648" lon="0.5911">
        <ele>1261</ele>
        <time>2019-02-03T10:59:05.000Z</time>
      </trkpt>
      <trkpt lat="42.92649" lon="0.5911">
        <ele>1261</ele>
        <time>2019-02-03T10:59:06.000Z</time>
      </trkpt>
      <trkpt lat="42.92649" lon="0.5911">
        <ele>1261</ele>
        <time>2019-02-03T10:59:07.000Z</time>
      </trkpt>
      <trkpt lat="42.9265" lon="0.5911">
        <ele>1261</ele>
        <time>2019-02-03T10:59:08.000Z</time>
      </trkpt>
      <trkpt lat="42.9265" lon="0.5911">
        <ele>1261</ele>
        <time>2019-02-03T10:59:09.000Z</time>
      </trkpt>
      <trkpt lat="42.92651" lon="0.5911">
        <ele>1261</ele>
        <time>2019-02-03T10:59:10.000Z</time>
      </trkpt>
      <trkpt lat="42.92651" lon="0.5911">
        <ele>1261</ele>
        <time>2019-02-03T10:59:11.000Z</time>
      </trkpt>
      <trkpt lat="42.92651" lon="0.5911">
        <ele>1261</ele>
        <time>2019-02-03T10:59:12.000Z</time>
      </trkpt>
      <trkpt lat="42.92652" lon="0.5911">
        <ele>1261</ele>
        <time>2019-02-03T10:59:13.000Z</time>
      </trkpt>
      <trkpt lat="42.92652" lon="0.5911">
        <ele>1261</ele>
        <time>2019-02-03T10:59:14.000Z</time>
      </trkpt>
      <trkpt lat="42.92652" lon="0.5911">
        <ele>1261</ele>
        <time>2019-02-03T10:59:15.000Z</time>
      </trkpt>
      <trkpt lat="42.92652" lon="0.5911">
        <ele>1261</ele>
        <time>2019-02-03T10:59:16.000Z</time>
      </trkpt>
      <trkpt lat="42.92652" lon="0.5911">
        <ele>1261</ele>
        <time>2019-02-03T10:59:17.000Z</time>
      </trkpt>
      <trkpt lat="42.92652" lon="0.5911">
        <ele>1261</ele>
        <time>2019-02-03T10:59:18.000Z</time>
      </trkpt>
      <trkpt lat="42.92652" lon="0.5911">
        <ele>1261</ele>
        <time>2019-02-03T10:59:19.000Z</time>
      </trkpt>
      <trkpt lat="42.92653" lon="0.5911">
        <ele>1261</ele>
        <time>2019-02-03T10:59:20.000Z</time>
      </trkpt>
      <trkpt lat="42.92653" lon="0.5911">
        <ele>1261</ele>
        <time>2019-02-03T10:59:21.000Z</time>
      </trkpt>
      <trkpt lat="42.92653" lon="0.5911">
        <ele>1261</ele>
        <time>2019-02-03T10:59:22.000Z</time>
      </trkpt>
      <trkpt lat="42.92653" lon="0.5911">
        <ele>1262</ele>
        <time>2019-02-03T10:59:23.000Z</time>
      </trkpt>
      <trkpt lat="42.92653" lon="0.5911">
        <ele>1262</ele>
        <time>2019-02-03T10:59:24.000Z</time>
      </trkpt>
      <trkpt lat="42.92653" lon="0.5911">
        <ele>1262</ele>
        <time>2019-02-03T10:59:25.000Z</time>
      </trkpt>
      <trkpt lat="42.92653" lon="0.5911">
        <ele>1262</ele>
        <time>2019-02-03T10:59:26.000Z</time>
      </trkpt>
      <trkpt lat="42.92653" lon="0.5911">
        <ele>1262</ele>
        <time>2019-02-03T10:59:27.000Z</time>
      </trkpt>
      <trkpt lat="42.92653" lon="0.5911">
        <ele>1262</ele>
        <time>2019-02-03T10:59:28.000Z</time>
      </trkpt>
      <trkpt lat="42.92652" lon="0.5911">
        <ele>1262</ele>
        <time>2019-02-03T10:59:29.000Z</time>
      </trkpt>
      <trkpt lat="42.92652" lon="0.5911">
        <ele>1262</ele>
        <time>2019-02-03T10:59:30.000Z</time>
      </trkpt>
      <trkpt lat="42.92652" lon="0.5911">
        <ele>1262</ele>
        <time>2019-02-03T10:59:31.000Z</time>
      </trkpt>
      <trkpt lat="42.92652" lon="0.59111">
        <ele>1262</ele>
        <time>2019-02-03T10:59:32.000Z</time>
      </trkpt>
      <trkpt lat="42.92652" lon="0.59114">
        <ele>1262</ele>
        <time>2019-02-03T10:59:33.000Z</time>
      </trkpt>
      <trkpt lat="42.92652" lon="0.59116">
        <ele>1262.3</ele>
        <time>2019-02-03T10:59:34.000Z</time>
      </trkpt>
      <trkpt lat="42.92651" lon="0.59117">
        <ele>1262.7</ele>
        <time>2019-02-03T10:59:35.000Z</time>
      </trkpt>
      <trkpt lat="42.92651" lon="0.59117">
        <ele>1263</ele>
        <time>2019-02-03T10:59:36.000Z</time>
      </trkpt>
      <trkpt lat="42.92651" lon="0.59118">
        <ele>1263</ele>
        <time>2019-02-03T10:59:37.000Z</time>
      </trkpt>
      <trkpt lat="42.92652" lon="0.59118">
        <ele>1263</ele>
        <time>2019-02-03T10:59:38.000Z</time>
      </trkpt>
      <trkpt lat="42.92652" lon="0.59119">
        <ele>1263</ele>
        <time>2019-02-03T10:59:39.000Z</time>
      </trkpt>
      <trkpt lat="42.92652" lon="0.59119">
        <ele>1263</ele>
        <time>2019-02-03T10:59:40.000Z</time>
      </trkpt>
      <trkpt lat="42.92653" lon="0.5912">
        <ele>1263</ele>
        <time>2019-02-03T10:59:41.000Z</time>
      </trkpt>
      <trkpt lat="42.92653" lon="0.5912">
        <ele>1263</ele>
        <time>2019-02-03T10:59:42.000Z</time>
      </trkpt>
      <trkpt lat="42.92653" lon="0.59121">
        <ele>1263</ele>
        <time>2019-02-03T10:59:43.000Z</time>
      </trkpt>
      <trkpt lat="42.92654" lon="0.59122">
        <ele>1263.3</ele>
        <time>2019-02-03T10:59:44.000Z</time>
      </trkpt>
      <trkpt lat="42.92654" lon="0.59123">
        <ele>1263.7</ele>
        <time>2019-02-03T10:59:45.000Z</time>
      </trkpt>
      <trkpt lat="42.92654" lon="0.59124">
        <ele>1264</ele>
        <time>2019-02-03T10:59:46.000Z</time>
      </trkpt>
      <trkpt lat="42.92654" lon="0.59125">
        <ele>1264</ele>
        <time>2019-02-03T10:59:47.000Z</time>
      </trkpt>
      <trkpt lat="42.92654" lon="0.59126">
        <ele>1264</ele>
        <time>2019-02-03T10:59:48.000Z</time>
      </trkpt>
      <trkpt lat="42.92654" lon="0.59127">
        <ele>1264</ele>
        <time>2019-02-03T10:59:49.000Z</time>
      </trkpt>
      <trkpt lat="42.92654" lon="0.59128">
        <ele>1264</ele>
        <time>2019-02-03T10:59:50.000Z</time>
      </trkpt>
      <trkpt lat="42.92654" lon="0.59128">
        <ele>1264</ele>
        <time>2019-02-03T10:59:51.000Z</time>
      </trkpt>
      <trkpt lat="42.92655" lon="0.59129">
        <ele>1264</ele>
        <time>2019-02-03T10:59:52.000Z</time>
      </trkpt>
      <trkpt lat="42.92655" lon="0.5913">
        <ele>1264.5</ele>
        <time>2019-02-03T10:59:53.000Z</time>
      </trkpt>
      <trkpt lat="42.92655" lon="0.5913">
        <ele>1265</ele>
        <time>2019-02-03T10:59:54.000Z</time>
      </trkpt>
      <trkpt lat="42.92655" lon="0.59131">
        <ele>1265</ele>
        <time>2019-02-03T10:59:55.000Z</time>
      </trkpt>
      <trkpt lat="42.92655" lon="0.59131">
        <ele>1265</ele>
        <time>2019-02-03T10:59:56.000Z</time>
      </trkpt>
      <trkpt lat="42.92656" lon="0.59131">
        <ele>1265</ele>
        <time>2019-02-03T10:59:57.000Z</time>
      </trkpt>
      <trkpt lat="42.92656" lon="0.59132">
        <ele>1265</ele>
        <time>2019-02-03T10:59:58.000Z</time>
      </trkpt>
      <trkpt lat="42.92656" lon="0.59132">
        <ele>1265</ele>
        <time>2019-02-03T10:59:59.000Z</time>
      </trkpt>
      <trkpt lat="42.92656" lon="0.59132">
        <ele>1265</ele>
        <time>2019-02-03T11:00:00.000Z</time>
      </trkpt>
      <trkpt lat="42.92656" lon="0.59132">
        <ele>1265</ele>
        <time>2019-02-03T11:00:01.000Z</time>
      </trkpt>
      <trkpt lat="42.92656" lon="0.59132">
        <ele>1265</ele>
        <time>2019-02-03T11:00:02.000Z</time>
      </trkpt>
      <trkpt lat="42.92656" lon="0.59132">
        <ele>1265</ele>
        <time>2019-02-03T11:00:03.000Z</time>
      </trkpt>
      <trkpt lat="42.92656" lon="0.59132">
        <ele>1265</ele>
        <time>2019-02-03T11:00:04.000Z</time>
      </trkpt>
      <trkpt lat="42.92656" lon="0.59132">
        <ele>1265</ele>
        <time>2019-02-03T11:00:05.000Z</time>
      </trkpt>
      <trkpt lat="42.92656" lon="0.59132">
        <ele>1265</ele>
        <time>2019-02-03T11:00:06.000Z</time>
      </trkpt>
      <trkpt lat="42.92656" lon="0.59132">
        <ele>1265</ele>
        <time>2019-02-03T11:00:07.000Z</time>
      </trkpt>
      <trkpt lat="42.92655" lon="0.59132">
        <ele>1265</ele>
        <time>2019-02-03T11:00:08.000Z</time>
      </trkpt>
      <trkpt lat="42.92655" lon="0.59132">
        <ele>1265.5</ele>
        <time>2019-02-03T11:00:09.000Z</time>
      </trkpt>
      <trkpt lat="42.92655" lon="0.59132">
        <ele>1266</ele>
        <time>2019-02-03T11:00:10.000Z</time>
      </trkpt>
      <trkpt lat="42.92654" lon="0.59132">
        <ele>1266</ele>
        <time>2019-02-03T11:00:11.000Z</time>
      </trkpt>
      <trkpt lat="42.92654" lon="0.59133">
        <ele>1266</ele>
        <time>2019-02-03T11:00:12.000Z</time>
      </trkpt>
      <trkpt lat="42.92654" lon="0.59133">
        <ele>1266</ele>
        <time>2019-02-03T11:00:13.000Z</time>
      </trkpt>
      <trkpt lat="42.92653" lon="0.59133">
        <ele>1266</ele>
        <time>2019-02-03T11:00:14.000Z</time>
      </trkpt>
      <trkpt lat="42.92653" lon="0.59134">
        <ele>1266</ele>
        <time>2019-02-03T11:00:15.000Z</time>
      </trkpt>
      <trkpt lat="42.92653" lon="0.59134">
        <ele>1266</ele>
        <time>2019-02-03T11:00:16.000Z</time>
      </trkpt>
      <trkpt lat="42.92653" lon="0.59134">
        <ele>1266</ele>
        <time>2019-02-03T11:00:17.000Z</time>
      </trkpt>
      <trkpt lat="42.92652" lon="0.59135">
        <ele>1266</ele>
        <time>2019-02-03T11:00:18.000Z</time>
      </trkpt>
      <trkpt lat="42.92652" lon="0.59136">
        <ele>1266</ele>
        <time>2019-02-03T11:00:19.000Z</time>
      </trkpt>
      <trkpt lat="42.92652" lon="0.59136">
        <ele>1266</ele>
        <time>2019-02-03T11:00:20.000Z</time>
      </trkpt>
      <trkpt lat="42.92652" lon="0.59137">
        <ele>1266</ele>
        <time>2019-02-03T11:00:21.000Z</time>
      </trkpt>
      <trkpt lat="42.92652" lon="0.59138">
        <ele>1266</ele>
        <time>2019-02-03T11:00:22.000Z</time>
      </trkpt>
      <trkpt lat="42.92653" lon="0.59139">
        <ele>1266</ele>
        <time>2019-02-03T11:00:23.000Z</time>
      </trkpt>
      <trkpt lat="42.92653" lon="0.59139">
        <ele>1266</ele>
        <time>2019-02-03T11:00:24.000Z</time>
      </trkpt>
      <trkpt lat="42.92653" lon="0.5914">
        <ele>1266</ele>
        <time>2019-02-03T11:00:25.000Z</time>
      </trkpt>
      <trkpt lat="42.92653" lon="0.59141">
        <ele>1266</ele>
        <time>2019-02-03T11:00:26.000Z</time>
      </trkpt>
      <trkpt lat="42.92653" lon="0.59142">
        <ele>1266</ele>
        <time>2019-02-03T11:00:27.000Z</time>
      </trkpt>
      <trkpt lat="42.92653" lon="0.59142">
        <ele>1266</ele>
        <time>2019-02-03T11:00:28.000Z</time>
      </trkpt>
      <trkpt lat="42.92653" lon="0.59143">
        <ele>1266</ele>
        <time>2019-02-03T11:00:29.000Z</time>
      </trkpt>
      <trkpt lat="42.92653" lon="0.59143">
        <ele>1266</ele>
        <time>2019-02-03T11:00:30.000Z</time>
      </trkpt>
      <trkpt lat="42.92652" lon="0.59143">
        <ele>1266</ele>
        <time>2019-02-03T11:00:31.000Z</time>
      </trkpt>
      <trkpt lat="42.92652" lon="0.59143">
        <ele>1266</ele>
        <time>2019-02-03T11:00:32.000Z</time>
      </trkpt>
      <trkpt lat="42.92652" lon="0.59143">
        <ele>1266</ele>
        <time>2019-02-03T11:00:33.000Z</time>
      </trkpt>
      <trkpt lat="42.92651" lon="0.59144">
        <ele>1266</ele>
        <time>2019-02-03T11:00:34.000Z</time>
      </trkpt>
      <trkpt lat="42.92651" lon="0.59144">
        <ele>1266</ele>
        <time>2019-02-03T11:00:35.000Z</time>
      </trkpt>
      <trkpt lat="42.9265" lon="0.59144">
        <ele>1266</ele>
        <time>2019-02-03T11:00:36.000Z</time>
      </trkpt>
      <trkpt lat="42.92647" lon="0.59143">
        <ele>1266</ele>
        <time>2019-02-03T11:00:37.000Z</time>
      </trkpt>
      <trkpt lat="42.9265" lon="0.59145">
        <ele>1266</ele>
        <time>2019-02-03T11:00:38.000Z</time>
      </trkpt>
      <trkpt lat="42.92653" lon="0.59146">
        <ele>1266</ele>
        <time>2019-02-03T11:00:39.000Z</time>
      </trkpt>
      <trkpt lat="42.92654" lon="0.59147">
        <ele>1266</ele>
        <time>2019-02-03T11:00:40.000Z</time>
      </trkpt>
      <trkpt lat="42.92654" lon="0.59146">
        <ele>1267</ele>
        <time>2019-02-03T11:00:41.000Z</time>
      </trkpt>
      <trkpt lat="42.92654" lon="0.59146">
        <ele>1267</ele>
        <time>2019-02-03T11:00:42.000Z</time>
      </trkpt>
      <trkpt lat="42.92654" lon="0.59147">
        <ele>1267</ele>
        <time>2019-02-03T11:00:43.000Z</time>
      </trkpt>
      <trkpt lat="42.92654" lon="0.59148">
        <ele>1267</ele>
        <time>2019-02-03T11:00:44.000Z</time>
      </trkpt>
      <trkpt lat="42.92654" lon="0.59148">
        <ele>1267.5</ele>
        <time>2019-02-03T11:00:45.000Z</time>
      </trkpt>
      <trkpt lat="42.92654" lon="0.59148">
        <ele>1268</ele>
        <time>2019-02-03T11:00:46.000Z</time>
      </trkpt>
      <trkpt lat="42.92653" lon="0.59148">
        <ele>1268</ele>
        <time>2019-02-03T11:00:47.000Z</time>
      </trkpt>
      <trkpt lat="42.92653" lon="0.59148">
        <ele>1268</ele>
        <time>2019-02-03T11:00:48.000Z</time>
      </trkpt>
      <trkpt lat="42.92653" lon="0.59148">
        <ele>1268</ele>
        <time>2019-02-03T11:00:49.000Z</time>
      </trkpt>
      <trkpt lat="42.92653" lon="0.59148">
        <ele>1268</ele>
        <time>2019-02-03T11:00:50.000Z</time>
      </trkpt>
      <trkpt lat="42.92653" lon="0.59149">
        <ele>1268.5</ele>
        <time>2019-02-03T11:00:51.000Z</time>
      </trkpt>
      <trkpt lat="42.92653" lon="0.5915">
        <ele>1269</ele>
        <time>2019-02-03T11:00:52.000Z</time>
      </trkpt>
      <trkpt lat="42.92653" lon="0.59151">
        <ele>1269</ele>
        <time>2019-02-03T11:00:53.000Z</time>
      </trkpt>
      <trkpt lat="42.92653" lon="0.59152">
        <ele>1269</ele>
        <time>2019-02-03T11:00:54.000Z</time>
      </trkpt>
      <trkpt lat="42.92653" lon="0.59154">
        <ele>1269</ele>
        <time>2019-02-03T11:00:55.000Z</time>
      </trkpt>
      <trkpt lat="42.92653" lon="0.59155">
        <ele>1269</ele>
        <time>2019-02-03T11:00:56.000Z</time>
      </trkpt>
      <trkpt lat="42.92653" lon="0.59156">
        <ele>1269</ele>
        <time>2019-02-03T11:00:57.000Z</time>
      </trkpt>
      <trkpt lat="42.92652" lon="0.59157">
        <ele>1269.3</ele>
        <time>2019-02-03T11:00:58.000Z</time>
      </trkpt>
      <trkpt lat="42.92652" lon="0.59157">
        <ele>1269.7</ele>
        <time>2019-02-03T11:00:59.000Z</time>
      </trkpt>
      <trkpt lat="42.92652" lon="0.59158">
        <ele>1270</ele>
        <time>2019-02-03T11:01:00.000Z</time>
      </trkpt>
      <trkpt lat="42.92651" lon="0.59158">
        <ele>1270</ele>
        <time>2019-02-03T11:01:01.000Z</time>
      </trkpt>
      <trkpt lat="42.92651" lon="0.59158">
        <ele>1270</ele>
        <time>2019-02-03T11:01:02.000Z</time>
      </trkpt>
      <trkpt lat="42.92651" lon="0.59158">
        <ele>1270</ele>
        <time>2019-02-03T11:01:03.000Z</time>
      </trkpt>
      <trkpt lat="42.92651" lon="0.59158">
        <ele>1270</ele>
        <time>2019-02-03T11:01:04.000Z</time>
      </trkpt>
      <trkpt lat="42.92651" lon="0.59159">
        <ele>1270</ele>
        <time>2019-02-03T11:01:05.000Z</time>
      </trkpt>
      <trkpt lat="42.92651" lon="0.59159">
        <ele>1270</ele>
        <time>2019-02-03T11:01:06.000Z</time>
      </trkpt>
      <trkpt lat="42.9265" lon="0.59159">
        <ele>1270</ele>
        <time>2019-02-03T11:01:07.000Z</time>
      </trkpt>
      <trkpt lat="42.9265" lon="0.59159">
        <ele>1270</ele>
        <time>2019-02-03T11:01:08.000Z</time>
      </trkpt>
      <trkpt lat="42.9265" lon="0.59159">
        <ele>1270</ele>
        <time>2019-02-03T11:01:09.000Z</time>
      </trkpt>
      <trkpt lat="42.9265" lon="0.59159">
        <ele>1270</ele>
        <time>2019-02-03T11:01:10.000Z</time>
      </trkpt>
      <trkpt lat="42.9265" lon="0.59159">
        <ele>1270.5</ele>
        <time>2019-02-03T11:01:11.000Z</time>
      </trkpt>
      <trkpt lat="42.9265" lon="0.5916">
        <ele>1271</ele>
        <time>2019-02-03T11:01:12.000Z</time>
      </trkpt>
      <trkpt lat="42.9265" lon="0.5916">
        <ele>1271</ele>
        <time>2019-02-03T11:01:13.000Z</time>
      </trkpt>
      <trkpt lat="42.9265" lon="0.5916">
        <ele>1271</ele>
        <time>2019-02-03T11:01:14.000Z</time>
      </trkpt>
      <trkpt lat="42.9265" lon="0.5916">
        <ele>1271</ele>
        <time>2019-02-03T11:01:15.000Z</time>
      </trkpt>
      <trkpt lat="42.9265" lon="0.59161">
        <ele>1271</ele>
        <time>2019-02-03T11:01:16.000Z</time>
      </trkpt>
      <trkpt lat="42.9265" lon="0.59161">
        <ele>1271</ele>
        <time>2019-02-03T11:01:17.000Z</time>
      </trkpt>
      <trkpt lat="42.92649" lon="0.59161">
        <ele>1271</ele>
        <time>2019-02-03T11:01:18.000Z</time>
      </trkpt>
      <trkpt lat="42.92649" lon="0.59162">
        <ele>1271</ele>
        <time>2019-02-03T11:01:19.000Z</time>
      </trkpt>
      <trkpt lat="42.92649" lon="0.59162">
        <ele>1271</ele>
        <time>2019-02-03T11:01:20.000Z</time>
      </trkpt>
      <trkpt lat="42.92649" lon="0.59162">
        <ele>1271.5</ele>
        <time>2019-02-03T11:01:21.000Z</time>
      </trkpt>
      <trkpt lat="42.92649" lon="0.59163">
        <ele>1272</ele>
        <time>2019-02-03T11:01:22.000Z</time>
      </trkpt>
      <trkpt lat="42.92649" lon="0.59163">
        <ele>1272</ele>
        <time>2019-02-03T11:01:23.000Z</time>
      </trkpt>
      <trkpt lat="42.92649" lon="0.59163">
        <ele>1272</ele>
        <time>2019-02-03T11:01:24.000Z</time>
      </trkpt>
      <trkpt lat="42.92649" lon="0.59163">
        <ele>1272</ele>
        <time>2019-02-03T11:01:25.000Z</time>
      </trkpt>
      <trkpt lat="42.92649" lon="0.59163">
        <ele>1272</ele>
        <time>2019-02-03T11:01:26.000Z</time>
      </trkpt>
      <trkpt lat="42.92649" lon="0.59164">
        <ele>1272</ele>
        <time>2019-02-03T11:01:27.000Z</time>
      </trkpt>
      <trkpt lat="42.92649" lon="0.59164">
        <ele>1272</ele>
        <time>2019-02-03T11:01:28.000Z</time>
      </trkpt>
      <trkpt lat="42.92649" lon="0.59164">
        <ele>1272</ele>
        <time>2019-02-03T11:01:29.000Z</time>
      </trkpt>
      <trkpt lat="42.92649" lon="0.59164">
        <ele>1272</ele>
        <time>2019-02-03T11:01:30.000Z</time>
      </trkpt>
      <trkpt lat="42.92649" lon="0.59164">
        <ele>1272.5</ele>
        <time>2019-02-03T11:01:31.000Z</time>
      </trkpt>
      <trkpt lat="42.92649" lon="0.59164">
        <ele>1273</ele>
        <time>2019-02-03T11:01:32.000Z</time>
      </trkpt>
      <trkpt lat="42.92649" lon="0.59164">
        <ele>1273</ele>
        <time>2019-02-03T11:01:33.000Z</time>
      </trkpt>
      <trkpt lat="42.92649" lon="0.59164">
        <ele>1273</ele>
        <time>2019-02-03T11:01:34.000Z</time>
      </trkpt>
      <trkpt lat="42.92649" lon="0.59164">
        <ele>1273</ele>
        <time>2019-02-03T11:01:35.000Z</time>
      </trkpt>
      <trkpt lat="42.92649" lon="0.59164">
        <ele>1273.3</ele>
        <time>2019-02-03T11:01:36.000Z</time>
      </trkpt>
      <trkpt lat="42.92649" lon="0.59164">
        <ele>1273.7</ele>
        <time>2019-02-03T11:01:37.000Z</time>
      </trkpt>
      <trkpt lat="42.92649" lon="0.59164">
        <ele>1274</ele>
        <time>2019-02-03T11:01:38.000Z</time>
      </trkpt>
      <trkpt lat="42.92649" lon="0.59164">
        <ele>1274</ele>
        <time>2019-02-03T11:01:39.000Z</time>
      </trkpt>
      <trkpt lat="42.92649" lon="0.59164">
        <ele>1274</ele>
        <time>2019-02-03T11:01:40.000Z</time>
      </trkpt>
      <trkpt lat="42.92649" lon="0.59164">
        <ele>1274</ele>
        <time>2019-02-03T11:01:41.000Z</time>
      </trkpt>
      <trkpt lat="42.92649" lon="0.59164">
        <ele>1274</ele>
        <time>2019-02-03T11:01:42.000Z</time>
      </trkpt>
      <trkpt lat="42.92649" lon="0.59164">
        <ele>1274</ele>
        <time>2019-02-03T11:01:43.000Z</time>
      </trkpt>
      <trkpt lat="42.92648" lon="0.59164">
        <ele>1274</ele>
        <time>2019-02-03T11:01:44.000Z</time>
      </trkpt>
      <trkpt lat="42.92648" lon="0.59164">
        <ele>1274.5</ele>
        <time>2019-02-03T11:01:45.000Z</time>
      </trkpt>
      <trkpt lat="42.92648" lon="0.59164">
        <ele>1275</ele>
        <time>2019-02-03T11:01:46.000Z</time>
      </trkpt>
      <trkpt lat="42.92648" lon="0.59164">
        <ele>1275</ele>
        <time>2019-02-03T11:01:47.000Z</time>
      </trkpt>
      <trkpt lat="42.92648" lon="0.59164">
        <ele>1275</ele>
        <time>2019-02-03T11:01:48.000Z</time>
      </trkpt>
      <trkpt lat="42.92648" lon="0.59164">
        <ele>1275</ele>
        <time>2019-02-03T11:01:49.000Z</time>
      </trkpt>
      <trkpt lat="42.92648" lon="0.59165">
        <ele>1275</ele>
        <time>2019-02-03T11:01:50.000Z</time>
      </trkpt>
      <trkpt lat="42.92648" lon="0.59165">
        <ele>1276</ele>
        <time>2019-02-03T11:01:51.000Z</time>
      </trkpt>
      <trkpt lat="42.92648" lon="0.59165">
        <ele>1276</ele>
        <time>2019-02-03T11:01:52.000Z</time>
      </trkpt>
      <trkpt lat="42.92647" lon="0.59165">
        <ele>1276</ele>
        <time>2019-02-03T11:01:53.000Z</time>
      </trkpt>
      <trkpt lat="42.92647" lon="0.59166">
        <ele>1276</ele>
        <time>2019-02-03T11:01:54.000Z</time>
      </trkpt>
      <trkpt lat="42.92646" lon="0.59166">
        <ele>1276</ele>
        <time>2019-02-03T11:01:55.000Z</time>
      </trkpt>
      <trkpt lat="42.92646" lon="0.59167">
        <ele>1276</ele>
        <time>2019-02-03T11:01:56.000Z</time>
      </trkpt>
      <trkpt lat="42.92645" lon="0.59168">
        <ele>1276</ele>
        <time>2019-02-03T11:01:57.000Z</time>
      </trkpt>
      <trkpt lat="42.92645" lon="0.59168">
        <ele>1276</ele>
        <time>2019-02-03T11:01:58.000Z</time>
      </trkpt>
      <trkpt lat="42.92644" lon="0.59169">
        <ele>1276</ele>
        <time>2019-02-03T11:01:59.000Z</time>
      </trkpt>
      <trkpt lat="42.92643" lon="0.5917">
        <ele>1277</ele>
        <time>2019-02-03T11:02:00.000Z</time>
      </trkpt>
      <trkpt lat="42.92643" lon="0.5917">
        <ele>1277</ele>
        <time>2019-02-03T11:02:01.000Z</time>
      </trkpt>
      <trkpt lat="42.92642" lon="0.59171">
        <ele>1277</ele>
        <time>2019-02-03T11:02:02.000Z</time>
      </trkpt>
      <trkpt lat="42.92642" lon="0.59172">
        <ele>1277</ele>
        <time>2019-02-03T11:02:03.000Z</time>
      </trkpt>
      <trkpt lat="42.92641" lon="0.59172">
        <ele>1277</ele>
        <time>2019-02-03T11:02:04.000Z</time>
      </trkpt>
      <trkpt lat="42.92641" lon="0.59173">
        <ele>1277</ele>
        <time>2019-02-03T11:02:05.000Z</time>
      </trkpt>
      <trkpt lat="42.92641" lon="0.59174">
        <ele>1277</ele>
        <time>2019-02-03T11:02:06.000Z</time>
      </trkpt>
      <trkpt lat="42.9264" lon="0.59174">
        <ele>1277</ele>
        <time>2019-02-03T11:02:07.000Z</time>
      </trkpt>
      <trkpt lat="42.9264" lon="0.59175">
        <ele>1277.5</ele>
        <time>2019-02-03T11:02:08.000Z</time>
      </trkpt>
      <trkpt lat="42.9264" lon="0.59175">
        <ele>1278</ele>
        <time>2019-02-03T11:02:09.000Z</time>
      </trkpt>
      <trkpt lat="42.9264" lon="0.59176">
        <ele>1278</ele>
        <time>2019-02-03T11:02:10.000Z</time>
      </trkpt>
      <trkpt lat="42.9264" lon="0.59176">
        <ele>1278</ele>
        <time>2019-02-03T11:02:11.000Z</time>
      </trkpt>
      <trkpt lat="42.9264" lon="0.59176">
        <ele>1278</ele>
        <time>2019-02-03T11:02:12.000Z</time>
      </trkpt>
      <trkpt lat="42.92639" lon="0.59176">
        <ele>1278</ele>
        <time>2019-02-03T11:02:13.000Z</time>
      </trkpt>
      <trkpt lat="42.92639" lon="0.59176">
        <ele>1278</ele>
        <time>2019-02-03T11:02:14.000Z</time>
      </trkpt>
      <trkpt lat="42.9264" lon="0.59176">
        <ele>1278</ele>
        <time>2019-02-03T11:02:15.000Z</time>
      </trkpt>
      <trkpt lat="42.9264" lon="0.59177">
        <ele>1278</ele>
        <time>2019-02-03T11:02:16.000Z</time>
      </trkpt>
      <trkpt lat="42.9264" lon="0.59178">
        <ele>1278.5</ele>
        <time>2019-02-03T11:02:17.000Z</time>
      </trkpt>
      <trkpt lat="42.92641" lon="0.59179">
        <ele>1279</ele>
        <time>2019-02-03T11:02:18.000Z</time>
      </trkpt>
      <trkpt lat="42.92641" lon="0.5918">
        <ele>1279</ele>
        <time>2019-02-03T11:02:19.000Z</time>
      </trkpt>
      <trkpt lat="42.92641" lon="0.5918">
        <ele>1279</ele>
        <time>2019-02-03T11:02:20.000Z</time>
      </trkpt>
      <trkpt lat="42.92642" lon="0.5918">
        <ele>1279</ele>
        <time>2019-02-03T11:02:21.000Z</time>
      </trkpt>
      <trkpt lat="42.92642" lon="0.59181">
        <ele>1279</ele>
        <time>2019-02-03T11:02:22.000Z</time>
      </trkpt>
      <trkpt lat="42.92642" lon="0.59181">
        <ele>1279</ele>
        <time>2019-02-03T11:02:23.000Z</time>
      </trkpt>
      <trkpt lat="42.92642" lon="0.59181">
        <ele>1279.5</ele>
        <time>2019-02-03T11:02:24.000Z</time>
      </trkpt>
      <trkpt lat="42.92641" lon="0.59181">
        <ele>1280</ele>
        <time>2019-02-03T11:02:25.000Z</time>
      </trkpt>
      <trkpt lat="42.92641" lon="0.59181">
        <ele>1280</ele>
        <time>2019-02-03T11:02:26.000Z</time>
      </trkpt>
      <trkpt lat="42.92641" lon="0.59181">
        <ele>1280</ele>
        <time>2019-02-03T11:02:27.000Z</time>
      </trkpt>
      <trkpt lat="42.92641" lon="0.59182">
        <ele>1280</ele>
        <time>2019-02-03T11:02:28.000Z</time>
      </trkpt>
      <trkpt lat="42.92641" lon="0.59182">
        <ele>1280</ele>
        <time>2019-02-03T11:02:29.000Z</time>
      </trkpt>
      <trkpt lat="42.92641" lon="0.59183">
        <ele>1280</ele>
        <time>2019-02-03T11:02:30.000Z</time>
      </trkpt>
      <trkpt lat="42.92641" lon="0.59184">
        <ele>1280.3</ele>
        <time>2019-02-03T11:02:31.000Z</time>
      </trkpt>
      <trkpt lat="42.92641" lon="0.59184">
        <ele>1280.7</ele>
        <time>2019-02-03T11:02:32.000Z</time>
      </trkpt>
      <trkpt lat="42.92641" lon="0.59185">
        <ele>1281</ele>
        <time>2019-02-03T11:02:33.000Z</time>
      </trkpt>
      <trkpt lat="42.92642" lon="0.59185">
        <ele>1281</ele>
        <time>2019-02-03T11:02:34.000Z</time>
      </trkpt>
      <trkpt lat="42.92642" lon="0.59186">
        <ele>1281</ele>
        <time>2019-02-03T11:02:35.000Z</time>
      </trkpt>
      <trkpt lat="42.92642" lon="0.59186">
        <ele>1281</ele>
        <time>2019-02-03T11:02:36.000Z</time>
      </trkpt>
      <trkpt lat="42.92642" lon="0.59186">
        <ele>1281.3</ele>
        <time>2019-02-03T11:02:37.000Z</time>
      </trkpt>
      <trkpt lat="42.92642" lon="0.59187">
        <ele>1281.7</ele>
        <time>2019-02-03T11:02:38.000Z</time>
      </trkpt>
      <trkpt lat="42.92642" lon="0.59187">
        <ele>1282</ele>
        <time>2019-02-03T11:02:39.000Z</time>
      </trkpt>
      <trkpt lat="42.92642" lon="0.59187">
        <ele>1282</ele>
        <time>2019-02-03T11:02:40.000Z</time>
      </trkpt>
      <trkpt lat="42.92642" lon="0.59187">
        <ele>1282</ele>
        <time>2019-02-03T11:02:41.000Z</time>
      </trkpt>
      <trkpt lat="42.92642" lon="0.59187">
        <ele>1282</ele>
        <time>2019-02-03T11:02:42.000Z</time>
      </trkpt>
      <trkpt lat="42.92642" lon="0.59187">
        <ele>1282</ele>
        <time>2019-02-03T11:02:43.000Z</time>
      </trkpt>
      <trkpt lat="42.92642" lon="0.59187">
        <ele>1282</ele>
        <time>2019-02-03T11:02:44.000Z</time>
      </trkpt>
      <trkpt lat="42.92642" lon="0.59187">
        <ele>1282</ele>
        <time>2019-02-03T11:02:45.000Z</time>
      </trkpt>
      <trkpt lat="42.92642" lon="0.59187">
        <ele>1282</ele>
        <time>2019-02-03T11:02:46.000Z</time>
      </trkpt>
      <trkpt lat="42.92642" lon="0.59187">
        <ele>1282</ele>
        <time>2019-02-03T11:02:47.000Z</time>
      </trkpt>
      <trkpt lat="42.92642" lon="0.59187">
        <ele>1282</ele>
        <time>2019-02-03T11:02:48.000Z</time>
      </trkpt>
      <trkpt lat="42.92642" lon="0.59187">
        <ele>1282</ele>
        <time>2019-02-03T11:02:49.000Z</time>
      </trkpt>
      <trkpt lat="42.92642" lon="0.59187">
        <ele>1282</ele>
        <time>2019-02-03T11:02:50.000Z</time>
      </trkpt>
      <trkpt lat="42.92641" lon="0.59186">
        <ele>1282</ele>
        <time>2019-02-03T11:02:51.000Z</time>
      </trkpt>
      <trkpt lat="42.92641" lon="0.59186">
        <ele>1283</ele>
        <time>2019-02-03T11:02:52.000Z</time>
      </trkpt>
      <trkpt lat="42.92641" lon="0.59186">
        <ele>1283</ele>
        <time>2019-02-03T11:02:53.000Z</time>
      </trkpt>
      <trkpt lat="42.92641" lon="0.59187">
        <ele>1283</ele>
        <time>2019-02-03T11:02:54.000Z</time>
      </trkpt>
      <trkpt lat="42.9264" lon="0.59187">
        <ele>1283</ele>
        <time>2019-02-03T11:02:55.000Z</time>
      </trkpt>
      <trkpt lat="42.9264" lon="0.59187">
        <ele>1283</ele>
        <time>2019-02-03T11:02:56.000Z</time>
      </trkpt>
      <trkpt lat="42.9264" lon="0.59188">
        <ele>1283</ele>
        <time>2019-02-03T11:02:57.000Z</time>
      </trkpt>
      <trkpt lat="42.92639" lon="0.59189">
        <ele>1283</ele>
        <time>2019-02-03T11:02:58.000Z</time>
      </trkpt>
      <trkpt lat="42.92639" lon="0.59189">
        <ele>1283</ele>
        <time>2019-02-03T11:02:59.000Z</time>
      </trkpt>
      <trkpt lat="42.92639" lon="0.5919">
        <ele>1283.5</ele>
        <time>2019-02-03T11:03:00.000Z</time>
      </trkpt>
      <trkpt lat="42.92639" lon="0.5919">
        <ele>1284</ele>
        <time>2019-02-03T11:03:01.000Z</time>
      </trkpt>
      <trkpt lat="42.92639" lon="0.59191">
        <ele>1284</ele>
        <time>2019-02-03T11:03:02.000Z</time>
      </trkpt>
      <trkpt lat="42.92639" lon="0.59191">
        <ele>1284</ele>
        <time>2019-02-03T11:03:03.000Z</time>
      </trkpt>
      <trkpt lat="42.92639" lon="0.59191">
        <ele>1284</ele>
        <time>2019-02-03T11:03:04.000Z</time>
      </trkpt>
      <trkpt lat="42.92639" lon="0.59191">
        <ele>1284</ele>
        <time>2019-02-03T11:03:05.000Z</time>
      </trkpt>
      <trkpt lat="42.9264" lon="0.59191">
        <ele>1284</ele>
        <time>2019-02-03T11:03:06.000Z</time>
      </trkpt>
      <trkpt lat="42.9264" lon="0.59192">
        <ele>1284</ele>
        <time>2019-02-03T11:03:07.000Z</time>
      </trkpt>
      <trkpt lat="42.92641" lon="0.59193">
        <ele>1284</ele>
        <time>2019-02-03T11:03:08.000Z</time>
      </trkpt>
      <trkpt lat="42.92641" lon="0.59194">
        <ele>1284.3</ele>
        <time>2019-02-03T11:03:09.000Z</time>
      </trkpt>
      <trkpt lat="42.92642" lon="0.59195">
        <ele>1284.7</ele>
        <time>2019-02-03T11:03:10.000Z</time>
      </trkpt>
      <trkpt lat="42.92643" lon="0.59195">
        <ele>1285</ele>
        <time>2019-02-03T11:03:11.000Z</time>
      </trkpt>
      <trkpt lat="42.92643" lon="0.59196">
        <ele>1285</ele>
        <time>2019-02-03T11:03:12.000Z</time>
      </trkpt>
      <trkpt lat="42.92644" lon="0.59197">
        <ele>1285</ele>
        <time>2019-02-03T11:03:13.000Z</time>
      </trkpt>
      <trkpt lat="42.92644" lon="0.59197">
        <ele>1285</ele>
        <time>2019-02-03T11:03:14.000Z</time>
      </trkpt>
      <trkpt lat="42.92645" lon="0.59198">
        <ele>1285</ele>
        <time>2019-02-03T11:03:15.000Z</time>
      </trkpt>
      <trkpt lat="42.92645" lon="0.59198">
        <ele>1286</ele>
        <time>2019-02-03T11:03:16.000Z</time>
      </trkpt>
      <trkpt lat="42.92645" lon="0.59198">
        <ele>1286</ele>
        <time>2019-02-03T11:03:17.000Z</time>
      </trkpt>
      <trkpt lat="42.92645" lon="0.59198">
        <ele>1286</ele>
        <time>2019-02-03T11:03:18.000Z</time>
      </trkpt>
      <trkpt lat="42.92645" lon="0.59198">
        <ele>1286</ele>
        <time>2019-02-03T11:03:19.000Z</time>
      </trkpt>
      <trkpt lat="42.92645" lon="0.59198">
        <ele>1286</ele>
        <time>2019-02-03T11:03:20.000Z</time>
      </trkpt>
      <trkpt lat="42.92645" lon="0.59198">
        <ele>1286</ele>
        <time>2019-02-03T11:03:21.000Z</time>
      </trkpt>
      <trkpt lat="42.92645" lon="0.59198">
        <ele>1286</ele>
        <time>2019-02-03T11:03:22.000Z</time>
      </trkpt>
      <trkpt lat="42.92645" lon="0.59198">
        <ele>1286</ele>
        <time>2019-02-03T11:03:23.000Z</time>
      </trkpt>
      <trkpt lat="42.92645" lon="0.59198">
        <ele>1287</ele>
        <time>2019-02-03T11:03:24.000Z</time>
      </trkpt>
      <trkpt lat="42.92645" lon="0.59199">
        <ele>1287</ele>
        <time>2019-02-03T11:03:25.000Z</time>
      </trkpt>
      <trkpt lat="42.92645" lon="0.59199">
        <ele>1287</ele>
        <time>2019-02-03T11:03:26.000Z</time>
      </trkpt>
      <trkpt lat="42.92645" lon="0.592">
        <ele>1287</ele>
        <time>2019-02-03T11:03:27.000Z</time>
      </trkpt>
      <trkpt lat="42.92645" lon="0.592">
        <ele>1287</ele>
        <time>2019-02-03T11:03:28.000Z</time>
      </trkpt>
      <trkpt lat="42.92645" lon="0.59201">
        <ele>1287</ele>
        <time>2019-02-03T11:03:29.000Z</time>
      </trkpt>
      <trkpt lat="42.92645" lon="0.59201">
        <ele>1287</ele>
        <time>2019-02-03T11:03:30.000Z</time>
      </trkpt>
      <trkpt lat="42.92645" lon="0.59202">
        <ele>1287.3</ele>
        <time>2019-02-03T11:03:31.000Z</time>
      </trkpt>
      <trkpt lat="42.92645" lon="0.59202">
        <ele>1287.7</ele>
        <time>2019-02-03T11:03:32.000Z</time>
      </trkpt>
      <trkpt lat="42.92645" lon="0.59202">
        <ele>1288</ele>
        <time>2019-02-03T11:03:33.000Z</time>
      </trkpt>
      <trkpt lat="42.92645" lon="0.59202">
        <ele>1288</ele>
        <time>2019-02-03T11:03:34.000Z</time>
      </trkpt>
      <trkpt lat="42.92645" lon="0.59202">
        <ele>1288</ele>
        <time>2019-02-03T11:03:35.000Z</time>
      </trkpt>
      <trkpt lat="42.92645" lon="0.59202">
        <ele>1288</ele>
        <time>2019-02-03T11:03:36.000Z</time>
      </trkpt>
      <trkpt lat="42.92645" lon="0.59203">
        <ele>1288</ele>
        <time>2019-02-03T11:03:37.000Z</time>
      </trkpt>
      <trkpt lat="42.92645" lon="0.59204">
        <ele>1289</ele>
        <time>2019-02-03T11:03:38.000Z</time>
      </trkpt>
      <trkpt lat="42.92645" lon="0.59204">
        <ele>1289</ele>
        <time>2019-02-03T11:03:39.000Z</time>
      </trkpt>
      <trkpt lat="42.92645" lon="0.59205">
        <ele>1289</ele>
        <time>2019-02-03T11:03:40.000Z</time>
      </trkpt>
      <trkpt lat="42.92645" lon="0.59205">
        <ele>1289</ele>
        <time>2019-02-03T11:03:41.000Z</time>
      </trkpt>
      <trkpt lat="42.92644" lon="0.59205">
        <ele>1289</ele>
        <time>2019-02-03T11:03:42.000Z</time>
      </trkpt>
      <trkpt lat="42.92644" lon="0.59205">
        <ele>1289</ele>
        <time>2019-02-03T11:03:43.000Z</time>
      </trkpt>
      <trkpt lat="42.92644" lon="0.59205">
        <ele>1289</ele>
        <time>2019-02-03T11:03:44.000Z</time>
      </trkpt>
      <trkpt lat="42.92643" lon="0.59205">
        <ele>1289</ele>
        <time>2019-02-03T11:03:45.000Z</time>
      </trkpt>
      <trkpt lat="42.92643" lon="0.59205">
        <ele>1289.5</ele>
        <time>2019-02-03T11:03:46.000Z</time>
      </trkpt>
      <trkpt lat="42.92643" lon="0.59205">
        <ele>1290</ele>
        <time>2019-02-03T11:03:47.000Z</time>
      </trkpt>
      <trkpt lat="42.92644" lon="0.59205">
        <ele>1290</ele>
        <time>2019-02-03T11:03:48.000Z</time>
      </trkpt>
      <trkpt lat="42.92646" lon="0.59206">
        <ele>1290</ele>
        <time>2019-02-03T11:03:49.000Z</time>
      </trkpt>
      <trkpt lat="42.92647" lon="0.59207">
        <ele>1290</ele>
        <time>2019-02-03T11:03:50.000Z</time>
      </trkpt>
      <trkpt lat="42.92648" lon="0.59209">
        <ele>1290</ele>
        <time>2019-02-03T11:03:51.000Z</time>
      </trkpt>
      <trkpt lat="42.92648" lon="0.5921">
        <ele>1290</ele>
        <time>2019-02-03T11:03:52.000Z</time>
      </trkpt>
      <trkpt lat="42.92648" lon="0.59211">
        <ele>1290.3</ele>
        <time>2019-02-03T11:03:53.000Z</time>
      </trkpt>
      <trkpt lat="42.92648" lon="0.59212">
        <ele>1290.7</ele>
        <time>2019-02-03T11:03:54.000Z</time>
      </trkpt>
      <trkpt lat="42.92648" lon="0.59212">
        <ele>1291</ele>
        <time>2019-02-03T11:03:55.000Z</time>
      </trkpt>
      <trkpt lat="42.92648" lon="0.59213">
        <ele>1291</ele>
        <time>2019-02-03T11:03:56.000Z</time>
      </trkpt>
      <trkpt lat="42.92648" lon="0.59213">
        <ele>1291</ele>
        <time>2019-02-03T11:03:57.000Z</time>
      </trkpt>
      <trkpt lat="42.92647" lon="0.59213">
        <ele>1291</ele>
        <time>2019-02-03T11:03:58.000Z</time>
      </trkpt>
      <trkpt lat="42.92647" lon="0.59213">
        <ele>1291</ele>
        <time>2019-02-03T11:03:59.000Z</time>
      </trkpt>
      <trkpt lat="42.92647" lon="0.59213">
        <ele>1291</ele>
        <time>2019-02-03T11:04:00.000Z</time>
      </trkpt>
      <trkpt lat="42.92647" lon="0.59213">
        <ele>1291</ele>
        <time>2019-02-03T11:04:01.000Z</time>
      </trkpt>
      <trkpt lat="42.92647" lon="0.59213">
        <ele>1291</ele>
        <time>2019-02-03T11:04:02.000Z</time>
      </trkpt>
      <trkpt lat="42.92647" lon="0.59213">
        <ele>1291</ele>
        <time>2019-02-03T11:04:03.000Z</time>
      </trkpt>
      <trkpt lat="42.92647" lon="0.59214">
        <ele>1291</ele>
        <time>2019-02-03T11:04:04.000Z</time>
      </trkpt>
      <trkpt lat="42.92647" lon="0.59214">
        <ele>1291</ele>
        <time>2019-02-03T11:04:05.000Z</time>
      </trkpt>
      <trkpt lat="42.92647" lon="0.59215">
        <ele>1291.5</ele>
        <time>2019-02-03T11:04:06.000Z</time>
      </trkpt>
      <trkpt lat="42.92647" lon="0.59216">
        <ele>1292</ele>
        <time>2019-02-03T11:04:07.000Z</time>
      </trkpt>
      <trkpt lat="42.92647" lon="0.59217">
        <ele>1292</ele>
        <time>2019-02-03T11:04:08.000Z</time>
      </trkpt>
      <trkpt lat="42.92647" lon="0.59218">
        <ele>1292</ele>
        <time>2019-02-03T11:04:09.000Z</time>
      </trkpt>
      <trkpt lat="42.92647" lon="0.59218">
        <ele>1292</ele>
        <time>2019-02-03T11:04:10.000Z</time>
      </trkpt>
      <trkpt lat="42.92647" lon="0.59219">
        <ele>1292</ele>
        <time>2019-02-03T11:04:11.000Z</time>
      </trkpt>
      <trkpt lat="42.92647" lon="0.59219">
        <ele>1293</ele>
        <time>2019-02-03T11:04:12.000Z</time>
      </trkpt>
      <trkpt lat="42.92647" lon="0.59219">
        <ele>1293</ele>
        <time>2019-02-03T11:04:13.000Z</time>
      </trkpt>
      <trkpt lat="42.92647" lon="0.59219">
        <ele>1293</ele>
        <time>2019-02-03T11:04:14.000Z</time>
      </trkpt>
      <trkpt lat="42.92647" lon="0.59219">
        <ele>1293</ele>
        <time>2019-02-03T11:04:15.000Z</time>
      </trkpt>
      <trkpt lat="42.92647" lon="0.59219">
        <ele>1293</ele>
        <time>2019-02-03T11:04:16.000Z</time>
      </trkpt>
      <trkpt lat="42.92647" lon="0.59219">
        <ele>1293</ele>
        <time>2019-02-03T11:04:17.000Z</time>
      </trkpt>
      <trkpt lat="42.92647" lon="0.5922">
        <ele>1293</ele>
        <time>2019-02-03T11:04:18.000Z</time>
      </trkpt>
      <trkpt lat="42.92647" lon="0.5922">
        <ele>1293</ele>
        <time>2019-02-03T11:04:19.000Z</time>
      </trkpt>
      <trkpt lat="42.92647" lon="0.59221">
        <ele>1294</ele>
        <time>2019-02-03T11:04:20.000Z</time>
      </trkpt>
      <trkpt lat="42.92647" lon="0.59221">
        <ele>1294</ele>
        <time>2019-02-03T11:04:21.000Z</time>
      </trkpt>
      <trkpt lat="42.92647" lon="0.59221">
        <ele>1294</ele>
        <time>2019-02-03T11:04:22.000Z</time>
      </trkpt>
      <trkpt lat="42.92647" lon="0.59221">
        <ele>1294</ele>
        <time>2019-02-03T11:04:23.000Z</time>
      </trkpt>
      <trkpt lat="42.92648" lon="0.59221">
        <ele>1294</ele>
        <time>2019-02-03T11:04:24.000Z</time>
      </trkpt>
      <trkpt lat="42.92648" lon="0.59221">
        <ele>1294</ele>
        <time>2019-02-03T11:04:25.000Z</time>
      </trkpt>
      <trkpt lat="42.92648" lon="0.59222">
        <ele>1294</ele>
        <time>2019-02-03T11:04:26.000Z</time>
      </trkpt>
      <trkpt lat="42.92649" lon="0.59222">
        <ele>1294.3</ele>
        <time>2019-02-03T11:04:27.000Z</time>
      </trkpt>
      <trkpt lat="42.92649" lon="0.59223">
        <ele>1294.7</ele>
        <time>2019-02-03T11:04:28.000Z</time>
      </trkpt>
      <trkpt lat="42.92649" lon="0.59223">
        <ele>1295</ele>
        <time>2019-02-03T11:04:29.000Z</time>
      </trkpt>
      <trkpt lat="42.92649" lon="0.59223">
        <ele>1295</ele>
        <time>2019-02-03T11:04:30.000Z</time>
      </trkpt>
      <trkpt lat="42.92649" lon="0.59223">
        <ele>1295</ele>
        <time>2019-02-03T11:04:31.000Z</time>
      </trkpt>
      <trkpt lat="42.92649" lon="0.59223">
        <ele>1295</ele>
        <time>2019-02-03T11:04:32.000Z</time>
      </trkpt>
      <trkpt lat="42.92649" lon="0.59224">
        <ele>1295</ele>
        <time>2019-02-03T11:04:33.000Z</time>
      </trkpt>
      <trkpt lat="42.92648" lon="0.59224">
        <ele>1295</ele>
        <time>2019-02-03T11:04:34.000Z</time>
      </trkpt>
      <trkpt lat="42.92648" lon="0.59224">
        <ele>1295</ele>
        <time>2019-02-03T11:04:35.000Z</time>
      </trkpt>
      <trkpt lat="42.92648" lon="0.59224">
        <ele>1295.5</ele>
        <time>2019-02-03T11:04:36.000Z</time>
      </trkpt>
      <trkpt lat="42.92648" lon="0.59224">
        <ele>1296</ele>
        <time>2019-02-03T11:04:37.000Z</time>
      </trkpt>
      <trkpt lat="42.92649" lon="0.59225">
        <ele>1296</ele>
        <time>2019-02-03T11:04:38.000Z</time>
      </trkpt>
      <trkpt lat="42.92649" lon="0.59225">
        <ele>1296</ele>
        <time>2019-02-03T11:04:39.000Z</time>
      </trkpt>
      <trkpt lat="42.92649" lon="0.59226">
        <ele>1296</ele>
        <time>2019-02-03T11:04:40.000Z</time>
      </trkpt>
      <trkpt lat="42.92649" lon="0.59226">
        <ele>1296</ele>
        <time>2019-02-03T11:04:41.000Z</time>
      </trkpt>
      <trkpt lat="42.92648" lon="0.59228">
        <ele>1296</ele>
        <time>2019-02-03T11:04:42.000Z</time>
      </trkpt>
      <trkpt lat="42.92648" lon="0.59229">
        <ele>1296</ele>
        <time>2019-02-03T11:04:43.000Z</time>
      </trkpt>
      <trkpt lat="42.92647" lon="0.5923">
        <ele>1296.5</ele>
        <time>2019-02-03T11:04:44.000Z</time>
      </trkpt>
      <trkpt lat="42.92647" lon="0.59231">
        <ele>1297</ele>
        <time>2019-02-03T11:04:45.000Z</time>
      </trkpt>
      <trkpt lat="42.92646" lon="0.59232">
        <ele>1297</ele>
        <time>2019-02-03T11:04:46.000Z</time>
      </trkpt>
      <trkpt lat="42.92645" lon="0.59233">
        <ele>1297</ele>
        <time>2019-02-03T11:04:47.000Z</time>
      </trkpt>
      <trkpt lat="42.92644" lon="0.59234">
        <ele>1297</ele>
        <time>2019-02-03T11:04:48.000Z</time>
      </trkpt>
      <trkpt lat="42.92643" lon="0.59234">
        <ele>1297</ele>
        <time>2019-02-03T11:04:49.000Z</time>
      </trkpt>
      <trkpt lat="42.92643" lon="0.59234">
        <ele>1298</ele>
        <time>2019-02-03T11:04:50.000Z</time>
      </trkpt>
      <trkpt lat="42.92643" lon="0.59234">
        <ele>1298</ele>
        <time>2019-02-03T11:04:51.000Z</time>
      </trkpt>
      <trkpt lat="42.92643" lon="0.59235">
        <ele>1298</ele>
        <time>2019-02-03T11:04:52.000Z</time>
      </trkpt>
      <trkpt lat="42.92643" lon="0.59234">
        <ele>1298</ele>
        <time>2019-02-03T11:04:53.000Z</time>
      </trkpt>
      <trkpt lat="42.92643" lon="0.59234">
        <ele>1298</ele>
        <time>2019-02-03T11:04:54.000Z</time>
      </trkpt>
      <trkpt lat="42.92643" lon="0.59235">
        <ele>1298</ele>
        <time>2019-02-03T11:04:55.000Z</time>
      </trkpt>
      <trkpt lat="42.92642" lon="0.59235">
        <ele>1298</ele>
        <time>2019-02-03T11:04:56.000Z</time>
      </trkpt>
      <trkpt lat="42.92642" lon="0.59235">
        <ele>1298</ele>
        <time>2019-02-03T11:04:57.000Z</time>
      </trkpt>
      <trkpt lat="42.92642" lon="0.59235">
        <ele>1299</ele>
        <time>2019-02-03T11:04:58.000Z</time>
      </trkpt>
      <trkpt lat="42.92641" lon="0.59235">
        <ele>1299</ele>
        <time>2019-02-03T11:04:59.000Z</time>
      </trkpt>
      <trkpt lat="42.92641" lon="0.59235">
        <ele>1299</ele>
        <time>2019-02-03T11:05:00.000Z</time>
      </trkpt>
      <trkpt lat="42.92641" lon="0.59236">
        <ele>1299</ele>
        <time>2019-02-03T11:05:01.000Z</time>
      </trkpt>
      <trkpt lat="42.9264" lon="0.59236">
        <ele>1299</ele>
        <time>2019-02-03T11:05:02.000Z</time>
      </trkpt>
      <trkpt lat="42.9264" lon="0.59236">
        <ele>1299</ele>
        <time>2019-02-03T11:05:03.000Z</time>
      </trkpt>
      <trkpt lat="42.9264" lon="0.59236">
        <ele>1299</ele>
        <time>2019-02-03T11:05:04.000Z</time>
      </trkpt>
      <trkpt lat="42.9264" lon="0.59236">
        <ele>1299</ele>
        <time>2019-02-03T11:05:05.000Z</time>
      </trkpt>
      <trkpt lat="42.92639" lon="0.59237">
        <ele>1299</ele>
        <time>2019-02-03T11:05:06.000Z</time>
      </trkpt>
      <trkpt lat="42.92639" lon="0.59237">
        <ele>1299</ele>
        <time>2019-02-03T11:05:07.000Z</time>
      </trkpt>
      <trkpt lat="42.92639" lon="0.59237">
        <ele>1300</ele>
        <time>2019-02-03T11:05:08.000Z</time>
      </trkpt>
      <trkpt lat="42.92638" lon="0.59238">
        <ele>1300</ele>
        <time>2019-02-03T11:05:09.000Z</time>
      </trkpt>
      <trkpt lat="42.92638" lon="0.59238">
        <ele>1300</ele>
        <time>2019-02-03T11:05:10.000Z</time>
      </trkpt>
      <trkpt lat="42.92638" lon="0.59239">
        <ele>1300</ele>
        <time>2019-02-03T11:05:11.000Z</time>
      </trkpt>
      <trkpt lat="42.92638" lon="0.59239">
        <ele>1300</ele>
        <time>2019-02-03T11:05:12.000Z</time>
      </trkpt>
      <trkpt lat="42.92638" lon="0.5924">
        <ele>1300</ele>
        <time>2019-02-03T11:05:13.000Z</time>
      </trkpt>
      <trkpt lat="42.92638" lon="0.59241">
        <ele>1300.5</ele>
        <time>2019-02-03T11:05:14.000Z</time>
      </trkpt>
      <trkpt lat="42.92638" lon="0.59241">
        <ele>1301</ele>
        <time>2019-02-03T11:05:15.000Z</time>
      </trkpt>
      <trkpt lat="42.92638" lon="0.59242">
        <ele>1301</ele>
        <time>2019-02-03T11:05:16.000Z</time>
      </trkpt>
      <trkpt lat="42.92639" lon="0.59242">
        <ele>1301</ele>
        <time>2019-02-03T11:05:17.000Z</time>
      </trkpt>
      <trkpt lat="42.92639" lon="0.59242">
        <ele>1301</ele>
        <time>2019-02-03T11:05:18.000Z</time>
      </trkpt>
      <trkpt lat="42.92639" lon="0.59242">
        <ele>1301</ele>
        <time>2019-02-03T11:05:19.000Z</time>
      </trkpt>
      <trkpt lat="42.92639" lon="0.59243">
        <ele>1301</ele>
        <time>2019-02-03T11:05:20.000Z</time>
      </trkpt>
      <trkpt lat="42.92639" lon="0.59243">
        <ele>1301</ele>
        <time>2019-02-03T11:05:21.000Z</time>
      </trkpt>
      <trkpt lat="42.9264" lon="0.59243">
        <ele>1301</ele>
        <time>2019-02-03T11:05:22.000Z</time>
      </trkpt>
      <trkpt lat="42.9264" lon="0.59243">
        <ele>1301</ele>
        <time>2019-02-03T11:05:23.000Z</time>
      </trkpt>
      <trkpt lat="42.9264" lon="0.59243">
        <ele>1301</ele>
        <time>2019-02-03T11:05:24.000Z</time>
      </trkpt>
      <trkpt lat="42.9264" lon="0.59243">
        <ele>1301</ele>
        <time>2019-02-03T11:05:25.000Z</time>
      </trkpt>
      <trkpt lat="42.9264" lon="0.59243">
        <ele>1301</ele>
        <time>2019-02-03T11:05:26.000Z</time>
      </trkpt>
      <trkpt lat="42.9264" lon="0.59243">
        <ele>1301</ele>
        <time>2019-02-03T11:05:27.000Z</time>
      </trkpt>
      <trkpt lat="42.92641" lon="0.59243">
        <ele>1301</ele>
        <time>2019-02-03T11:05:28.000Z</time>
      </trkpt>
      <trkpt lat="42.92641" lon="0.59244">
        <ele>1301</ele>
        <time>2019-02-03T11:05:29.000Z</time>
      </trkpt>
      <trkpt lat="42.92641" lon="0.59244">
        <ele>1302</ele>
        <time>2019-02-03T11:05:30.000Z</time>
      </trkpt>
      <trkpt lat="42.92641" lon="0.59244">
        <ele>1302</ele>
        <time>2019-02-03T11:05:31.000Z</time>
      </trkpt>
      <trkpt lat="42.92641" lon="0.59244">
        <ele>1302</ele>
        <time>2019-02-03T11:05:32.000Z</time>
      </trkpt>
      <trkpt lat="42.92641" lon="0.59245">
        <ele>1302</ele>
        <time>2019-02-03T11:05:33.000Z</time>
      </trkpt>
      <trkpt lat="42.92641" lon="0.59245">
        <ele>1302</ele>
        <time>2019-02-03T11:05:34.000Z</time>
      </trkpt>
      <trkpt lat="42.92641" lon="0.59246">
        <ele>1302</ele>
        <time>2019-02-03T11:05:35.000Z</time>
      </trkpt>
      <trkpt lat="42.9264" lon="0.59246">
        <ele>1302</ele>
        <time>2019-02-03T11:05:36.000Z</time>
      </trkpt>
      <trkpt lat="42.9264" lon="0.59247">
        <ele>1302.3</ele>
        <time>2019-02-03T11:05:37.000Z</time>
      </trkpt>
      <trkpt lat="42.9264" lon="0.59247">
        <ele>1302.7</ele>
        <time>2019-02-03T11:05:38.000Z</time>
      </trkpt>
      <trkpt lat="42.9264" lon="0.59248">
        <ele>1303</ele>
        <time>2019-02-03T11:05:39.000Z</time>
      </trkpt>
      <trkpt lat="42.9264" lon="0.59248">
        <ele>1303</ele>
        <time>2019-02-03T11:05:40.000Z</time>
      </trkpt>
      <trkpt lat="42.9264" lon="0.59249">
        <ele>1303</ele>
        <time>2019-02-03T11:05:41.000Z</time>
      </trkpt>
      <trkpt lat="42.9264" lon="0.59249">
        <ele>1303</ele>
        <time>2019-02-03T11:05:42.000Z</time>
      </trkpt>
      <trkpt lat="42.9264" lon="0.5925">
        <ele>1303.3</ele>
        <time>2019-02-03T11:05:43.000Z</time>
      </trkpt>
      <trkpt lat="42.9264" lon="0.5925">
        <ele>1303.7</ele>
        <time>2019-02-03T11:05:44.000Z</time>
      </trkpt>
      <trkpt lat="42.9264" lon="0.59251">
        <ele>1304</ele>
        <time>2019-02-03T11:05:45.000Z</time>
      </trkpt>
      <trkpt lat="42.9264" lon="0.59251">
        <ele>1303.5</ele>
        <time>2019-02-03T11:05:46.000Z</time>
      </trkpt>
      <trkpt lat="42.9264" lon="0.59252">
        <ele>1303</ele>
        <time>2019-02-03T11:05:47.000Z</time>
      </trkpt>
      <trkpt lat="42.92639" lon="0.59252">
        <ele>1304</ele>
        <time>2019-02-03T11:05:48.000Z</time>
      </trkpt>
      <trkpt lat="42.92639" lon="0.59253">
        <ele>1304</ele>
        <time>2019-02-03T11:05:49.000Z</time>
      </trkpt>
      <trkpt lat="42.92639" lon="0.59254">
        <ele>1304</ele>
        <time>2019-02-03T11:05:50.000Z</time>
      </trkpt>
      <trkpt lat="42.92638" lon="0.59254">
        <ele>1304</ele>
        <time>2019-02-03T11:05:51.000Z</time>
      </trkpt>
      <trkpt lat="42.92638" lon="0.59255">
        <ele>1304</ele>
        <time>2019-02-03T11:05:52.000Z</time>
      </trkpt>
      <trkpt lat="42.92637" lon="0.59255">
        <ele>1304.3</ele>
        <time>2019-02-03T11:05:53.000Z</time>
      </trkpt>
      <trkpt lat="42.92636" lon="0.59256">
        <ele>1304.7</ele>
        <time>2019-02-03T11:05:54.000Z</time>
      </trkpt>
      <trkpt lat="42.92635" lon="0.59256">
        <ele>1305</ele>
        <time>2019-02-03T11:05:55.000Z</time>
      </trkpt>
      <trkpt lat="42.92634" lon="0.59256">
        <ele>1305</ele>
        <time>2019-02-03T11:05:56.000Z</time>
      </trkpt>
      <trkpt lat="42.92633" lon="0.59256">
        <ele>1305</ele>
        <time>2019-02-03T11:05:57.000Z</time>
      </trkpt>
      <trkpt lat="42.92633" lon="0.59256">
        <ele>1305</ele>
        <time>2019-02-03T11:05:58.000Z</time>
      </trkpt>
      <trkpt lat="42.92632" lon="0.59256">
        <ele>1305</ele>
        <time>2019-02-03T11:05:59.000Z</time>
      </trkpt>
      <trkpt lat="42.92632" lon="0.59256">
        <ele>1305</ele>
        <time>2019-02-03T11:06:00.000Z</time>
      </trkpt>
      <trkpt lat="42.92631" lon="0.59256">
        <ele>1305</ele>
        <time>2019-02-03T11:06:01.000Z</time>
      </trkpt>
      <trkpt lat="42.92631" lon="0.59256">
        <ele>1306</ele>
        <time>2019-02-03T11:06:02.000Z</time>
      </trkpt>
      <trkpt lat="42.92631" lon="0.59256">
        <ele>1306</ele>
        <time>2019-02-03T11:06:03.000Z</time>
      </trkpt>
      <trkpt lat="42.92631" lon="0.59256">
        <ele>1306</ele>
        <time>2019-02-03T11:06:04.000Z</time>
      </trkpt>
      <trkpt lat="42.92631" lon="0.59256">
        <ele>1306</ele>
        <time>2019-02-03T11:06:05.000Z</time>
      </trkpt>
      <trkpt lat="42.92631" lon="0.59256">
        <ele>1306</ele>
        <time>2019-02-03T11:06:06.000Z</time>
      </trkpt>
      <trkpt lat="42.92631" lon="0.59256">
        <ele>1306</ele>
        <time>2019-02-03T11:06:07.000Z</time>
      </trkpt>
      <trkpt lat="42.92631" lon="0.59256">
        <ele>1306</ele>
        <time>2019-02-03T11:06:08.000Z</time>
      </trkpt>
      <trkpt lat="42.92631" lon="0.59256">
        <ele>1306</ele>
        <time>2019-02-03T11:06:09.000Z</time>
      </trkpt>
      <trkpt lat="42.92631" lon="0.59256">
        <ele>1306</ele>
        <time>2019-02-03T11:06:10.000Z</time>
      </trkpt>
      <trkpt lat="42.92631" lon="0.59256">
        <ele>1306.3</ele>
        <time>2019-02-03T11:06:11.000Z</time>
      </trkpt>
      <trkpt lat="42.92631" lon="0.59257">
        <ele>1306.7</ele>
        <time>2019-02-03T11:06:12.000Z</time>
      </trkpt>
      <trkpt lat="42.92631" lon="0.59257">
        <ele>1307</ele>
        <time>2019-02-03T11:06:13.000Z</time>
      </trkpt>
      <trkpt lat="42.92631" lon="0.59257">
        <ele>1307</ele>
        <time>2019-02-03T11:06:14.000Z</time>
      </trkpt>
      <trkpt lat="42.92631" lon="0.59257">
        <ele>1307</ele>
        <time>2019-02-03T11:06:15.000Z</time>
      </trkpt>
      <trkpt lat="42.92631" lon="0.59257">
        <ele>1307</ele>
        <time>2019-02-03T11:06:16.000Z</time>
      </trkpt>
      <trkpt lat="42.92631" lon="0.59257">
        <ele>1307</ele>
        <time>2019-02-03T11:06:17.000Z</time>
      </trkpt>
      <trkpt lat="42.92631" lon="0.59257">
        <ele>1307</ele>
        <time>2019-02-03T11:06:18.000Z</time>
      </trkpt>
      <trkpt lat="42.92631" lon="0.59257">
        <ele>1307</ele>
        <time>2019-02-03T11:06:19.000Z</time>
      </trkpt>
      <trkpt lat="42.92631" lon="0.59257">
        <ele>1308</ele>
        <time>2019-02-03T11:06:20.000Z</time>
      </trkpt>
      <trkpt lat="42.92632" lon="0.59257">
        <ele>1308</ele>
        <time>2019-02-03T11:06:21.000Z</time>
      </trkpt>
      <trkpt lat="42.92632" lon="0.59258">
        <ele>1308</ele>
        <time>2019-02-03T11:06:22.000Z</time>
      </trkpt>
      <trkpt lat="42.92632" lon="0.59258">
        <ele>1308</ele>
        <time>2019-02-03T11:06:23.000Z</time>
      </trkpt>
      <trkpt lat="42.92632" lon="0.59259">
        <ele>1308</ele>
        <time>2019-02-03T11:06:24.000Z</time>
      </trkpt>
      <trkpt lat="42.92632" lon="0.5926">
        <ele>1308.3</ele>
        <time>2019-02-03T11:06:25.000Z</time>
      </trkpt>
      <trkpt lat="42.92633" lon="0.5926">
        <ele>1308.7</ele>
        <time>2019-02-03T11:06:26.000Z</time>
      </trkpt>
      <trkpt lat="42.92633" lon="0.59261">
        <ele>1309</ele>
        <time>2019-02-03T11:06:27.000Z</time>
      </trkpt>
      <trkpt lat="42.92634" lon="0.59261">
        <ele>1309</ele>
        <time>2019-02-03T11:06:28.000Z</time>
      </trkpt>
      <trkpt lat="42.92634" lon="0.59262">
        <ele>1309</ele>
        <time>2019-02-03T11:06:29.000Z</time>
      </trkpt>
      <trkpt lat="42.92634" lon="0.59262">
        <ele>1309</ele>
        <time>2019-02-03T11:06:30.000Z</time>
      </trkpt>
      <trkpt lat="42.92635" lon="0.59262">
        <ele>1309</ele>
        <time>2019-02-03T11:06:31.000Z</time>
      </trkpt>
      <trkpt lat="42.92635" lon="0.59262">
        <ele>1309</ele>
        <time>2019-02-03T11:06:32.000Z</time>
      </trkpt>
      <trkpt lat="42.92635" lon="0.59262">
        <ele>1309.3</ele>
        <time>2019-02-03T11:06:33.000Z</time>
      </trkpt>
      <trkpt lat="42.92635" lon="0.59262">
        <ele>1309.7</ele>
        <time>2019-02-03T11:06:34.000Z</time>
      </trkpt>
      <trkpt lat="42.92635" lon="0.59262">
        <ele>1310</ele>
        <time>2019-02-03T11:06:35.000Z</time>
      </trkpt>
      <trkpt lat="42.92635" lon="0.59262">
        <ele>1310</ele>
        <time>2019-02-03T11:06:36.000Z</time>
      </trkpt>
      <trkpt lat="42.92635" lon="0.59263">
        <ele>1310</ele>
        <time>2019-02-03T11:06:37.000Z</time>
      </trkpt>
      <trkpt lat="42.92635" lon="0.59263">
        <ele>1310</ele>
        <time>2019-02-03T11:06:38.000Z</time>
      </trkpt>
      <trkpt lat="42.92635" lon="0.59264">
        <ele>1310</ele>
        <time>2019-02-03T11:06:39.000Z</time>
      </trkpt>
      <trkpt lat="42.92635" lon="0.59265">
        <ele>1310</ele>
        <time>2019-02-03T11:06:40.000Z</time>
      </trkpt>
      <trkpt lat="42.92635" lon="0.59265">
        <ele>1310</ele>
        <time>2019-02-03T11:06:41.000Z</time>
      </trkpt>
      <trkpt lat="42.92635" lon="0.59266">
        <ele>1311</ele>
        <time>2019-02-03T11:06:42.000Z</time>
      </trkpt>
      <trkpt lat="42.92635" lon="0.59267">
        <ele>1311</ele>
        <time>2019-02-03T11:06:43.000Z</time>
      </trkpt>
      <trkpt lat="42.92636" lon="0.59267">
        <ele>1311</ele>
        <time>2019-02-03T11:06:44.000Z</time>
      </trkpt>
      <trkpt lat="42.92636" lon="0.59268">
        <ele>1311</ele>
        <time>2019-02-03T11:06:45.000Z</time>
      </trkpt>
      <trkpt lat="42.92636" lon="0.59269">
        <ele>1311</ele>
        <time>2019-02-03T11:06:46.000Z</time>
      </trkpt>
      <trkpt lat="42.92637" lon="0.59269">
        <ele>1311</ele>
        <time>2019-02-03T11:06:47.000Z</time>
      </trkpt>
      <trkpt lat="42.92638" lon="0.5927">
        <ele>1311</ele>
        <time>2019-02-03T11:06:48.000Z</time>
      </trkpt>
      <trkpt lat="42.92638" lon="0.5927">
        <ele>1311</ele>
        <time>2019-02-03T11:06:49.000Z</time>
      </trkpt>
      <trkpt lat="42.92639" lon="0.59271">
        <ele>1312</ele>
        <time>2019-02-03T11:06:50.000Z</time>
      </trkpt>
      <trkpt lat="42.92639" lon="0.59271">
        <ele>1312</ele>
        <time>2019-02-03T11:06:51.000Z</time>
      </trkpt>
      <trkpt lat="42.9264" lon="0.59272">
        <ele>1312</ele>
        <time>2019-02-03T11:06:52.000Z</time>
      </trkpt>
      <trkpt lat="42.9264" lon="0.59272">
        <ele>1312</ele>
        <time>2019-02-03T11:06:53.000Z</time>
      </trkpt>
      <trkpt lat="42.9264" lon="0.59272">
        <ele>1312</ele>
        <time>2019-02-03T11:06:54.000Z</time>
      </trkpt>
      <trkpt lat="42.9264" lon="0.59273">
        <ele>1312</ele>
        <time>2019-02-03T11:06:55.000Z</time>
      </trkpt>
      <trkpt lat="42.9264" lon="0.59273">
        <ele>1312</ele>
        <time>2019-02-03T11:06:56.000Z</time>
      </trkpt>
      <trkpt lat="42.92639" lon="0.59274">
        <ele>1312</ele>
        <time>2019-02-03T11:06:57.000Z</time>
      </trkpt>
      <trkpt lat="42.92639" lon="0.59274">
        <ele>1312</ele>
        <time>2019-02-03T11:06:58.000Z</time>
      </trkpt>
      <trkpt lat="42.92639" lon="0.59274">
        <ele>1312.5</ele>
        <time>2019-02-03T11:06:59.000Z</time>
      </trkpt>
      <trkpt lat="42.92639" lon="0.59274">
        <ele>1313</ele>
        <time>2019-02-03T11:07:00.000Z</time>
      </trkpt>
      <trkpt lat="42.92639" lon="0.59274">
        <ele>1313</ele>
        <time>2019-02-03T11:07:01.000Z</time>
      </trkpt>
      <trkpt lat="42.92639" lon="0.59274">
        <ele>1313</ele>
        <time>2019-02-03T11:07:02.000Z</time>
      </trkpt>
      <trkpt lat="42.92639" lon="0.59274">
        <ele>1313</ele>
        <time>2019-02-03T11:07:03.000Z</time>
      </trkpt>
      <trkpt lat="42.92639" lon="0.59274">
        <ele>1313</ele>
        <time>2019-02-03T11:07:04.000Z</time>
      </trkpt>
      <trkpt lat="42.92639" lon="0.59274">
        <ele>1313</ele>
        <time>2019-02-03T11:07:05.000Z</time>
      </trkpt>
      <trkpt lat="42.92639" lon="0.59274">
        <ele>1313</ele>
        <time>2019-02-03T11:07:06.000Z</time>
      </trkpt>
      <trkpt lat="42.92639" lon="0.59275">
        <ele>1313</ele>
        <time>2019-02-03T11:07:07.000Z</time>
      </trkpt>
      <trkpt lat="42.92638" lon="0.59275">
        <ele>1313</ele>
        <time>2019-02-03T11:07:08.000Z</time>
      </trkpt>
      <trkpt lat="42.92638" lon="0.59275">
        <ele>1313.5</ele>
        <time>2019-02-03T11:07:09.000Z</time>
      </trkpt>
      <trkpt lat="42.92638" lon="0.59275">
        <ele>1314</ele>
        <time>2019-02-03T11:07:10.000Z</time>
      </trkpt>
      <trkpt lat="42.92638" lon="0.59276">
        <ele>1314</ele>
        <time>2019-02-03T11:07:11.000Z</time>
      </trkpt>
      <trkpt lat="42.92638" lon="0.59276">
        <ele>1314</ele>
        <time>2019-02-03T11:07:12.000Z</time>
      </trkpt>
      <trkpt lat="42.92638" lon="0.59276">
        <ele>1314</ele>
        <time>2019-02-03T11:07:13.000Z</time>
      </trkpt>
      <trkpt lat="42.92638" lon="0.59276">
        <ele>1314</ele>
        <time>2019-02-03T11:07:14.000Z</time>
      </trkpt>
      <trkpt lat="42.92638" lon="0.59276">
        <ele>1314</ele>
        <time>2019-02-03T11:07:15.000Z</time>
      </trkpt>
      <trkpt lat="42.92638" lon="0.59277">
        <ele>1314</ele>
        <time>2019-02-03T11:07:16.000Z</time>
      </trkpt>
      <trkpt lat="42.92638" lon="0.59277">
        <ele>1314</ele>
        <time>2019-02-03T11:07:17.000Z</time>
      </trkpt>
      <trkpt lat="42.92638" lon="0.59277">
        <ele>1315</ele>
        <time>2019-02-03T11:07:18.000Z</time>
      </trkpt>
      <trkpt lat="42.92639" lon="0.59277">
        <ele>1315</ele>
        <time>2019-02-03T11:07:19.000Z</time>
      </trkpt>
      <trkpt lat="42.92639" lon="0.59277">
        <ele>1315</ele>
        <time>2019-02-03T11:07:20.000Z</time>
      </trkpt>
      <trkpt lat="42.92639" lon="0.59278">
        <ele>1315</ele>
        <time>2019-02-03T11:07:21.000Z</time>
      </trkpt>
      <trkpt lat="42.92639" lon="0.59278">
        <ele>1315</ele>
        <time>2019-02-03T11:07:22.000Z</time>
      </trkpt>
      <trkpt lat="42.92639" lon="0.59278">
        <ele>1315</ele>
        <time>2019-02-03T11:07:23.000Z</time>
      </trkpt>
      <trkpt lat="42.92639" lon="0.59279">
        <ele>1315</ele>
        <time>2019-02-03T11:07:24.000Z</time>
      </trkpt>
      <trkpt lat="42.92639" lon="0.59279">
        <ele>1315.3</ele>
        <time>2019-02-03T11:07:25.000Z</time>
      </trkpt>
      <trkpt lat="42.92639" lon="0.5928">
        <ele>1315.7</ele>
        <time>2019-02-03T11:07:26.000Z</time>
      </trkpt>
      <trkpt lat="42.92638" lon="0.59281">
        <ele>1316</ele>
        <time>2019-02-03T11:07:27.000Z</time>
      </trkpt>
      <trkpt lat="42.92638" lon="0.59281">
        <ele>1316</ele>
        <time>2019-02-03T11:07:28.000Z</time>
      </trkpt>
      <trkpt lat="42.92638" lon="0.59282">
        <ele>1316</ele>
        <time>2019-02-03T11:07:29.000Z</time>
      </trkpt>
      <trkpt lat="42.92638" lon="0.59282">
        <ele>1316</ele>
        <time>2019-02-03T11:07:30.000Z</time>
      </trkpt>
      <trkpt lat="42.92637" lon="0.59283">
        <ele>1316.5</ele>
        <time>2019-02-03T11:07:31.000Z</time>
      </trkpt>
      <trkpt lat="42.92637" lon="0.59283">
        <ele>1317</ele>
        <time>2019-02-03T11:07:32.000Z</time>
      </trkpt>
      <trkpt lat="42.92637" lon="0.59284">
        <ele>1317</ele>
        <time>2019-02-03T11:07:33.000Z</time>
      </trkpt>
      <trkpt lat="42.92636" lon="0.59284">
        <ele>1317</ele>
        <time>2019-02-03T11:07:34.000Z</time>
      </trkpt>
      <trkpt lat="42.92636" lon="0.59284">
        <ele>1317</ele>
        <time>2019-02-03T11:07:35.000Z</time>
      </trkpt>
      <trkpt lat="42.92636" lon="0.59285">
        <ele>1317</ele>
        <time>2019-02-03T11:07:36.000Z</time>
      </trkpt>
      <trkpt lat="42.92635" lon="0.59285">
        <ele>1317</ele>
        <time>2019-02-03T11:07:37.000Z</time>
      </trkpt>
      <trkpt lat="42.92635" lon="0.59285">
        <ele>1317</ele>
        <time>2019-02-03T11:07:38.000Z</time>
      </trkpt>
      <trkpt lat="42.92635" lon="0.59285">
        <ele>1317</ele>
        <time>2019-02-03T11:07:39.000Z</time>
      </trkpt>
      <trkpt lat="42.92634" lon="0.59285">
        <ele>1317.5</ele>
        <time>2019-02-03T11:07:40.000Z</time>
      </trkpt>
      <trkpt lat="42.92634" lon="0.59285">
        <ele>1318</ele>
        <time>2019-02-03T11:07:41.000Z</time>
      </trkpt>
      <trkpt lat="42.92634" lon="0.59285">
        <ele>1318</ele>
        <time>2019-02-03T11:07:42.000Z</time>
      </trkpt>
      <trkpt lat="42.92634" lon="0.59285">
        <ele>1318</ele>
        <time>2019-02-03T11:07:43.000Z</time>
      </trkpt>
      <trkpt lat="42.92634" lon="0.59285">
        <ele>1318</ele>
        <time>2019-02-03T11:07:44.000Z</time>
      </trkpt>
      <trkpt lat="42.92634" lon="0.59285">
        <ele>1318</ele>
        <time>2019-02-03T11:07:45.000Z</time>
      </trkpt>
      <trkpt lat="42.92634" lon="0.59285">
        <ele>1318</ele>
        <time>2019-02-03T11:07:46.000Z</time>
      </trkpt>
      <trkpt lat="42.92634" lon="0.59285">
        <ele>1318</ele>
        <time>2019-02-03T11:07:47.000Z</time>
      </trkpt>
      <trkpt lat="42.92634" lon="0.59285">
        <ele>1318</ele>
        <time>2019-02-03T11:07:48.000Z</time>
      </trkpt>
      <trkpt lat="42.92635" lon="0.59284">
        <ele>1318</ele>
        <time>2019-02-03T11:07:49.000Z</time>
      </trkpt>
      <trkpt lat="42.92635" lon="0.59284">
        <ele>1318</ele>
        <time>2019-02-03T11:07:50.000Z</time>
      </trkpt>
      <trkpt lat="42.92635" lon="0.59284">
        <ele>1318</ele>
        <time>2019-02-03T11:07:51.000Z</time>
      </trkpt>
      <trkpt lat="42.92636" lon="0.59284">
        <ele>1318</ele>
        <time>2019-02-03T11:07:52.000Z</time>
      </trkpt>
      <trkpt lat="42.92636" lon="0.59284">
        <ele>1318</ele>
        <time>2019-02-03T11:07:53.000Z</time>
      </trkpt>
      <trkpt lat="42.92636" lon="0.59284">
        <ele>1319</ele>
        <time>2019-02-03T11:07:54.000Z</time>
      </trkpt>
      <trkpt lat="42.92636" lon="0.59285">
        <ele>1319</ele>
        <time>2019-02-03T11:07:55.000Z</time>
      </trkpt>
      <trkpt lat="42.92636" lon="0.59286">
        <ele>1319</ele>
        <time>2019-02-03T11:07:56.000Z</time>
      </trkpt>
      <trkpt lat="42.92636" lon="0.59287">
        <ele>1319</ele>
        <time>2019-02-03T11:07:57.000Z</time>
      </trkpt>
      <trkpt lat="42.92636" lon="0.59288">
        <ele>1319</ele>
        <time>2019-02-03T11:07:58.000Z</time>
      </trkpt>
      <trkpt lat="42.92636" lon="0.59289">
        <ele>1319</ele>
        <time>2019-02-03T11:07:59.000Z</time>
      </trkpt>
      <trkpt lat="42.92635" lon="0.5929">
        <ele>1319</ele>
        <time>2019-02-03T11:08:00.000Z</time>
      </trkpt>
      <trkpt lat="42.92635" lon="0.5929">
        <ele>1319</ele>
        <time>2019-02-03T11:08:01.000Z</time>
      </trkpt>
      <trkpt lat="42.92635" lon="0.59291">
        <ele>1320</ele>
        <time>2019-02-03T11:08:02.000Z</time>
      </trkpt>
      <trkpt lat="42.92635" lon="0.59291">
        <ele>1320</ele>
        <time>2019-02-03T11:08:03.000Z</time>
      </trkpt>
      <trkpt lat="42.92635" lon="0.59291">
        <ele>1320</ele>
        <time>2019-02-03T11:08:04.000Z</time>
      </trkpt>
      <trkpt lat="42.92635" lon="0.59292">
        <ele>1320</ele>
        <time>2019-02-03T11:08:05.000Z</time>
      </trkpt>
      <trkpt lat="42.92635" lon="0.59292">
        <ele>1320</ele>
        <time>2019-02-03T11:08:06.000Z</time>
      </trkpt>
      <trkpt lat="42.92634" lon="0.59292">
        <ele>1320</ele>
        <time>2019-02-03T11:08:07.000Z</time>
      </trkpt>
      <trkpt lat="42.92634" lon="0.59292">
        <ele>1320</ele>
        <time>2019-02-03T11:08:08.000Z</time>
      </trkpt>
      <trkpt lat="42.92634" lon="0.59292">
        <ele>1320</ele>
        <time>2019-02-03T11:08:09.000Z</time>
      </trkpt>
      <trkpt lat="42.92634" lon="0.59292">
        <ele>1321</ele>
        <time>2019-02-03T11:08:10.000Z</time>
      </trkpt>
      <trkpt lat="42.92634" lon="0.59292">
        <ele>1321</ele>
        <time>2019-02-03T11:08:11.000Z</time>
      </trkpt>
      <trkpt lat="42.92634" lon="0.59292">
        <ele>1321</ele>
        <time>2019-02-03T11:08:12.000Z</time>
      </trkpt>
      <trkpt lat="42.92633" lon="0.59293">
        <ele>1321</ele>
        <time>2019-02-03T11:08:13.000Z</time>
      </trkpt>
      <trkpt lat="42.92633" lon="0.59293">
        <ele>1322</ele>
        <time>2019-02-03T11:08:14.000Z</time>
      </trkpt>
      <trkpt lat="42.92633" lon="0.59293">
        <ele>1322</ele>
        <time>2019-02-03T11:08:15.000Z</time>
      </trkpt>
      <trkpt lat="42.92632" lon="0.59294">
        <ele>1322</ele>
        <time>2019-02-03T11:08:16.000Z</time>
      </trkpt>
      <trkpt lat="42.92632" lon="0.59294">
        <ele>1322</ele>
        <time>2019-02-03T11:08:17.000Z</time>
      </trkpt>
      <trkpt lat="42.92632" lon="0.59295">
        <ele>1322</ele>
        <time>2019-02-03T11:08:18.000Z</time>
      </trkpt>
      <trkpt lat="42.92631" lon="0.59295">
        <ele>1322</ele>
        <time>2019-02-03T11:08:19.000Z</time>
      </trkpt>
      <trkpt lat="42.92631" lon="0.59296">
        <ele>1323</ele>
        <time>2019-02-03T11:08:20.000Z</time>
      </trkpt>
      <trkpt lat="42.9263" lon="0.59297">
        <ele>1323</ele>
        <time>2019-02-03T11:08:21.000Z</time>
      </trkpt>
      <trkpt lat="42.9263" lon="0.59297">
        <ele>1323</ele>
        <time>2019-02-03T11:08:22.000Z</time>
      </trkpt>
      <trkpt lat="42.92629" lon="0.59298">
        <ele>1323</ele>
        <time>2019-02-03T11:08:23.000Z</time>
      </trkpt>
      <trkpt lat="42.92629" lon="0.59298">
        <ele>1323</ele>
        <time>2019-02-03T11:08:24.000Z</time>
      </trkpt>
      <trkpt lat="42.92628" lon="0.59298">
        <ele>1323</ele>
        <time>2019-02-03T11:08:25.000Z</time>
      </trkpt>
      <trkpt lat="42.92628" lon="0.59299">
        <ele>1323</ele>
        <time>2019-02-03T11:08:26.000Z</time>
      </trkpt>
      <trkpt lat="42.92627" lon="0.59299">
        <ele>1323</ele>
        <time>2019-02-03T11:08:27.000Z</time>
      </trkpt>
      <trkpt lat="42.92627" lon="0.59299">
        <ele>1323</ele>
        <time>2019-02-03T11:08:28.000Z</time>
      </trkpt>
      <trkpt lat="42.92626" lon="0.59299">
        <ele>1323</ele>
        <time>2019-02-03T11:08:29.000Z</time>
      </trkpt>
      <trkpt lat="42.92626" lon="0.59299">
        <ele>1324</ele>
        <time>2019-02-03T11:08:30.000Z</time>
      </trkpt>
      <trkpt lat="42.92626" lon="0.59299">
        <ele>1324</ele>
        <time>2019-02-03T11:08:31.000Z</time>
      </trkpt>
      <trkpt lat="42.92625" lon="0.59299">
        <ele>1324</ele>
        <time>2019-02-03T11:08:32.000Z</time>
      </trkpt>
      <trkpt lat="42.92625" lon="0.59299">
        <ele>1324</ele>
        <time>2019-02-03T11:08:33.000Z</time>
      </trkpt>
      <trkpt lat="42.92625" lon="0.59299">
        <ele>1324</ele>
        <time>2019-02-03T11:08:34.000Z</time>
      </trkpt>
      <trkpt lat="42.92624" lon="0.59299">
        <ele>1324</ele>
        <time>2019-02-03T11:08:35.000Z</time>
      </trkpt>
      <trkpt lat="42.92624" lon="0.59299">
        <ele>1325</ele>
        <time>2019-02-03T11:08:36.000Z</time>
      </trkpt>
      <trkpt lat="42.92624" lon="0.59299">
        <ele>1325</ele>
        <time>2019-02-03T11:08:37.000Z</time>
      </trkpt>
      <trkpt lat="42.92624" lon="0.593">
        <ele>1325</ele>
        <time>2019-02-03T11:08:38.000Z</time>
      </trkpt>
      <trkpt lat="42.92623" lon="0.593">
        <ele>1325</ele>
        <time>2019-02-03T11:08:39.000Z</time>
      </trkpt>
      <trkpt lat="42.92623" lon="0.593">
        <ele>1325</ele>
        <time>2019-02-03T11:08:40.000Z</time>
      </trkpt>
      <trkpt lat="42.92623" lon="0.593">
        <ele>1325</ele>
        <time>2019-02-03T11:08:41.000Z</time>
      </trkpt>
      <trkpt lat="42.92623" lon="0.59301">
        <ele>1325</ele>
        <time>2019-02-03T11:08:42.000Z</time>
      </trkpt>
      <trkpt lat="42.92623" lon="0.59301">
        <ele>1325.5</ele>
        <time>2019-02-03T11:08:43.000Z</time>
      </trkpt>
      <trkpt lat="42.92623" lon="0.59302">
        <ele>1326</ele>
        <time>2019-02-03T11:08:44.000Z</time>
      </trkpt>
      <trkpt lat="42.92623" lon="0.59302">
        <ele>1326</ele>
        <time>2019-02-03T11:08:45.000Z</time>
      </trkpt>
      <trkpt lat="42.92623" lon="0.59303">
        <ele>1326</ele>
        <time>2019-02-03T11:08:46.000Z</time>
      </trkpt>
      <trkpt lat="42.92623" lon="0.59303">
        <ele>1326</ele>
        <time>2019-02-03T11:08:47.000Z</time>
      </trkpt>
      <trkpt lat="42.92623" lon="0.59304">
        <ele>1326</ele>
        <time>2019-02-03T11:08:48.000Z</time>
      </trkpt>
      <trkpt lat="42.92623" lon="0.59304">
        <ele>1326</ele>
        <time>2019-02-03T11:08:49.000Z</time>
      </trkpt>
      <trkpt lat="42.92623" lon="0.59305">
        <ele>1326</ele>
        <time>2019-02-03T11:08:50.000Z</time>
      </trkpt>
      <trkpt lat="42.92623" lon="0.59305">
        <ele>1326</ele>
        <time>2019-02-03T11:08:51.000Z</time>
      </trkpt>
      <trkpt lat="42.92623" lon="0.59306">
        <ele>1326</ele>
        <time>2019-02-03T11:08:52.000Z</time>
      </trkpt>
      <trkpt lat="42.92623" lon="0.59306">
        <ele>1326</ele>
        <time>2019-02-03T11:08:53.000Z</time>
      </trkpt>
      <trkpt lat="42.92623" lon="0.59307">
        <ele>1327</ele>
        <time>2019-02-03T11:08:54.000Z</time>
      </trkpt>
      <trkpt lat="42.92623" lon="0.59307">
        <ele>1327</ele>
        <time>2019-02-03T11:08:55.000Z</time>
      </trkpt>
      <trkpt lat="42.92624" lon="0.59307">
        <ele>1327</ele>
        <time>2019-02-03T11:08:56.000Z</time>
      </trkpt>
      <trkpt lat="42.92624" lon="0.59308">
        <ele>1327</ele>
        <time>2019-02-03T11:08:57.000Z</time>
      </trkpt>
      <trkpt lat="42.92625" lon="0.59308">
        <ele>1327</ele>
        <time>2019-02-03T11:08:58.000Z</time>
      </trkpt>
      <trkpt lat="42.92625" lon="0.59309">
        <ele>1327</ele>
        <time>2019-02-03T11:08:59.000Z</time>
      </trkpt>
      <trkpt lat="42.92625" lon="0.59309">
        <ele>1327</ele>
        <time>2019-02-03T11:09:00.000Z</time>
      </trkpt>
      <trkpt lat="42.92625" lon="0.59309">
        <ele>1327</ele>
        <time>2019-02-03T11:09:01.000Z</time>
      </trkpt>
      <trkpt lat="42.92625" lon="0.59309">
        <ele>1327</ele>
        <time>2019-02-03T11:09:02.000Z</time>
      </trkpt>
      <trkpt lat="42.92626" lon="0.59309">
        <ele>1327</ele>
        <time>2019-02-03T11:09:03.000Z</time>
      </trkpt>
      <trkpt lat="42.92626" lon="0.5931">
        <ele>1327</ele>
        <time>2019-02-03T11:09:04.000Z</time>
      </trkpt>
      <trkpt lat="42.92626" lon="0.5931">
        <ele>1327.5</ele>
        <time>2019-02-03T11:09:05.000Z</time>
      </trkpt>
      <trkpt lat="42.92626" lon="0.59311">
        <ele>1328</ele>
        <time>2019-02-03T11:09:06.000Z</time>
      </trkpt>
      <trkpt lat="42.92627" lon="0.59312">
        <ele>1328</ele>
        <time>2019-02-03T11:09:07.000Z</time>
      </trkpt>
      <trkpt lat="42.92627" lon="0.59312">
        <ele>1328</ele>
        <time>2019-02-03T11:09:08.000Z</time>
      </trkpt>
      <trkpt lat="42.92627" lon="0.59313">
        <ele>1328</ele>
        <time>2019-02-03T11:09:09.000Z</time>
      </trkpt>
      <trkpt lat="42.92628" lon="0.59313">
        <ele>1328</ele>
        <time>2019-02-03T11:09:10.000Z</time>
      </trkpt>
      <trkpt lat="42.92628" lon="0.59313">
        <ele>1328</ele>
        <time>2019-02-03T11:09:11.000Z</time>
      </trkpt>
      <trkpt lat="42.92628" lon="0.59313">
        <ele>1328</ele>
        <time>2019-02-03T11:09:12.000Z</time>
      </trkpt>
      <trkpt lat="42.92628" lon="0.59313">
        <ele>1328</ele>
        <time>2019-02-03T11:09:13.000Z</time>
      </trkpt>
      <trkpt lat="42.92628" lon="0.59313">
        <ele>1329</ele>
        <time>2019-02-03T11:09:14.000Z</time>
      </trkpt>
      <trkpt lat="42.92628" lon="0.59313">
        <ele>1329</ele>
        <time>2019-02-03T11:09:15.000Z</time>
      </trkpt>
      <trkpt lat="42.92628" lon="0.59313">
        <ele>1329</ele>
        <time>2019-02-03T11:09:16.000Z</time>
      </trkpt>
      <trkpt lat="42.92627" lon="0.59313">
        <ele>1329</ele>
        <time>2019-02-03T11:09:17.000Z</time>
      </trkpt>
      <trkpt lat="42.92627" lon="0.59314">
        <ele>1330</ele>
        <time>2019-02-03T11:09:18.000Z</time>
      </trkpt>
      <trkpt lat="42.92626" lon="0.59314">
        <ele>1330</ele>
        <time>2019-02-03T11:09:19.000Z</time>
      </trkpt>
      <trkpt lat="42.92625" lon="0.59315">
        <ele>1330</ele>
        <time>2019-02-03T11:09:20.000Z</time>
      </trkpt>
      <trkpt lat="42.92625" lon="0.59315">
        <ele>1330</ele>
        <time>2019-02-03T11:09:21.000Z</time>
      </trkpt>
      <trkpt lat="42.92624" lon="0.59316">
        <ele>1330</ele>
        <time>2019-02-03T11:09:22.000Z</time>
      </trkpt>
      <trkpt lat="42.92624" lon="0.59317">
        <ele>1330.3</ele>
        <time>2019-02-03T11:09:23.000Z</time>
      </trkpt>
      <trkpt lat="42.92624" lon="0.59318">
        <ele>1330.7</ele>
        <time>2019-02-03T11:09:24.000Z</time>
      </trkpt>
      <trkpt lat="42.92624" lon="0.59319">
        <ele>1331</ele>
        <time>2019-02-03T11:09:25.000Z</time>
      </trkpt>
      <trkpt lat="42.92624" lon="0.59319">
        <ele>1331</ele>
        <time>2019-02-03T11:09:26.000Z</time>
      </trkpt>
      <trkpt lat="42.92624" lon="0.5932">
        <ele>1331</ele>
        <time>2019-02-03T11:09:27.000Z</time>
      </trkpt>
      <trkpt lat="42.92625" lon="0.5932">
        <ele>1331</ele>
        <time>2019-02-03T11:09:28.000Z</time>
      </trkpt>
      <trkpt lat="42.92625" lon="0.59321">
        <ele>1331</ele>
        <time>2019-02-03T11:09:29.000Z</time>
      </trkpt>
      <trkpt lat="42.92625" lon="0.59321">
        <ele>1331</ele>
        <time>2019-02-03T11:09:30.000Z</time>
      </trkpt>
      <trkpt lat="42.92625" lon="0.59321">
        <ele>1331</ele>
        <time>2019-02-03T11:09:31.000Z</time>
      </trkpt>
      <trkpt lat="42.92625" lon="0.59321">
        <ele>1331</ele>
        <time>2019-02-03T11:09:32.000Z</time>
      </trkpt>
      <trkpt lat="42.92625" lon="0.59321">
        <ele>1331</ele>
        <time>2019-02-03T11:09:33.000Z</time>
      </trkpt>
      <trkpt lat="42.92625" lon="0.59321">
        <ele>1331</ele>
        <time>2019-02-03T11:09:34.000Z</time>
      </trkpt>
      <trkpt lat="42.92625" lon="0.59321">
        <ele>1331</ele>
        <time>2019-02-03T11:09:35.000Z</time>
      </trkpt>
      <trkpt lat="42.92625" lon="0.59322">
        <ele>1331</ele>
        <time>2019-02-03T11:09:36.000Z</time>
      </trkpt>
      <trkpt lat="42.92625" lon="0.59322">
        <ele>1331</ele>
        <time>2019-02-03T11:09:37.000Z</time>
      </trkpt>
      <trkpt lat="42.92626" lon="0.59323">
        <ele>1332</ele>
        <time>2019-02-03T11:09:38.000Z</time>
      </trkpt>
      <trkpt lat="42.92626" lon="0.59323">
        <ele>1332</ele>
        <time>2019-02-03T11:09:39.000Z</time>
      </trkpt>
      <trkpt lat="42.92627" lon="0.59324">
        <ele>1332</ele>
        <time>2019-02-03T11:09:40.000Z</time>
      </trkpt>
      <trkpt lat="42.92627" lon="0.59324">
        <ele>1332</ele>
        <time>2019-02-03T11:09:41.000Z</time>
      </trkpt>
      <trkpt lat="42.92628" lon="0.59325">
        <ele>1332</ele>
        <time>2019-02-03T11:09:42.000Z</time>
      </trkpt>
      <trkpt lat="42.92628" lon="0.59325">
        <ele>1332</ele>
        <time>2019-02-03T11:09:43.000Z</time>
      </trkpt>
      <trkpt lat="42.92629" lon="0.59326">
        <ele>1332</ele>
        <time>2019-02-03T11:09:44.000Z</time>
      </trkpt>
      <trkpt lat="42.92629" lon="0.59326">
        <ele>1332</ele>
        <time>2019-02-03T11:09:45.000Z</time>
      </trkpt>
      <trkpt lat="42.92629" lon="0.59326">
        <ele>1333</ele>
        <time>2019-02-03T11:09:46.000Z</time>
      </trkpt>
      <trkpt lat="42.9263" lon="0.59327">
        <ele>1333</ele>
        <time>2019-02-03T11:09:47.000Z</time>
      </trkpt>
      <trkpt lat="42.9263" lon="0.59327">
        <ele>1333</ele>
        <time>2019-02-03T11:09:48.000Z</time>
      </trkpt>
      <trkpt lat="42.9263" lon="0.59328">
        <ele>1333</ele>
        <time>2019-02-03T11:09:49.000Z</time>
      </trkpt>
      <trkpt lat="42.9263" lon="0.59328">
        <ele>1333</ele>
        <time>2019-02-03T11:09:50.000Z</time>
      </trkpt>
      <trkpt lat="42.9263" lon="0.59329">
        <ele>1333</ele>
        <time>2019-02-03T11:09:51.000Z</time>
      </trkpt>
      <trkpt lat="42.9263" lon="0.5933">
        <ele>1333</ele>
        <time>2019-02-03T11:09:52.000Z</time>
      </trkpt>
      <trkpt lat="42.9263" lon="0.5933">
        <ele>1333.3</ele>
        <time>2019-02-03T11:09:53.000Z</time>
      </trkpt>
      <trkpt lat="42.92629" lon="0.59331">
        <ele>1333.7</ele>
        <time>2019-02-03T11:09:54.000Z</time>
      </trkpt>
      <trkpt lat="42.92629" lon="0.59331">
        <ele>1334</ele>
        <time>2019-02-03T11:09:55.000Z</time>
      </trkpt>
      <trkpt lat="42.92629" lon="0.59331">
        <ele>1334</ele>
        <time>2019-02-03T11:09:56.000Z</time>
      </trkpt>
      <trkpt lat="42.92629" lon="0.59332">
        <ele>1334</ele>
        <time>2019-02-03T11:09:57.000Z</time>
      </trkpt>
      <trkpt lat="42.9263" lon="0.59332">
        <ele>1334</ele>
        <time>2019-02-03T11:09:58.000Z</time>
      </trkpt>
      <trkpt lat="42.9263" lon="0.59333">
        <ele>1334</ele>
        <time>2019-02-03T11:09:59.000Z</time>
      </trkpt>
      <trkpt lat="42.9263" lon="0.59333">
        <ele>1334</ele>
        <time>2019-02-03T11:10:00.000Z</time>
      </trkpt>
      <trkpt lat="42.9263" lon="0.59334">
        <ele>1334</ele>
        <time>2019-02-03T11:10:01.000Z</time>
      </trkpt>
      <trkpt lat="42.9263" lon="0.59335">
        <ele>1334</ele>
        <time>2019-02-03T11:10:02.000Z</time>
      </trkpt>
      <trkpt lat="42.9263" lon="0.59335">
        <ele>1334</ele>
        <time>2019-02-03T11:10:03.000Z</time>
      </trkpt>
      <trkpt lat="42.92631" lon="0.59336">
        <ele>1334</ele>
        <time>2019-02-03T11:10:04.000Z</time>
      </trkpt>
      <trkpt lat="42.92631" lon="0.59337">
        <ele>1334</ele>
        <time>2019-02-03T11:10:05.000Z</time>
      </trkpt>
      <trkpt lat="42.92631" lon="0.59337">
        <ele>1335</ele>
        <time>2019-02-03T11:10:06.000Z</time>
      </trkpt>
      <trkpt lat="42.92631" lon="0.59338">
        <ele>1335</ele>
        <time>2019-02-03T11:10:07.000Z</time>
      </trkpt>
      <trkpt lat="42.92631" lon="0.59338">
        <ele>1335</ele>
        <time>2019-02-03T11:10:08.000Z</time>
      </trkpt>
      <trkpt lat="42.92631" lon="0.59338">
        <ele>1335</ele>
        <time>2019-02-03T11:10:09.000Z</time>
      </trkpt>
      <trkpt lat="42.92631" lon="0.59338">
        <ele>1335</ele>
        <time>2019-02-03T11:10:10.000Z</time>
      </trkpt>
      <trkpt lat="42.92631" lon="0.59338">
        <ele>1335</ele>
        <time>2019-02-03T11:10:11.000Z</time>
      </trkpt>
      <trkpt lat="42.92631" lon="0.59338">
        <ele>1335</ele>
        <time>2019-02-03T11:10:12.000Z</time>
      </trkpt>
      <trkpt lat="42.9263" lon="0.59338">
        <ele>1335</ele>
        <time>2019-02-03T11:10:13.000Z</time>
      </trkpt>
      <trkpt lat="42.9263" lon="0.59338">
        <ele>1336</ele>
        <time>2019-02-03T11:10:14.000Z</time>
      </trkpt>
      <trkpt lat="42.9263" lon="0.59338">
        <ele>1336</ele>
        <time>2019-02-03T11:10:15.000Z</time>
      </trkpt>
      <trkpt lat="42.9263" lon="0.59338">
        <ele>1336</ele>
        <time>2019-02-03T11:10:16.000Z</time>
      </trkpt>
      <trkpt lat="42.9263" lon="0.59338">
        <ele>1336</ele>
        <time>2019-02-03T11:10:17.000Z</time>
      </trkpt>
      <trkpt lat="42.9263" lon="0.59338">
        <ele>1336</ele>
        <time>2019-02-03T11:10:18.000Z</time>
      </trkpt>
      <trkpt lat="42.9263" lon="0.59338">
        <ele>1336</ele>
        <time>2019-02-03T11:10:19.000Z</time>
      </trkpt>
      <trkpt lat="42.92629" lon="0.59338">
        <ele>1336</ele>
        <time>2019-02-03T11:10:20.000Z</time>
      </trkpt>
      <trkpt lat="42.92629" lon="0.59338">
        <ele>1336</ele>
        <time>2019-02-03T11:10:21.000Z</time>
      </trkpt>
      <trkpt lat="42.92629" lon="0.59338">
        <ele>1336</ele>
        <time>2019-02-03T11:10:22.000Z</time>
      </trkpt>
      <trkpt lat="42.92629" lon="0.59338">
        <ele>1336.3</ele>
        <time>2019-02-03T11:10:23.000Z</time>
      </trkpt>
      <trkpt lat="42.92629" lon="0.59338">
        <ele>1336.7</ele>
        <time>2019-02-03T11:10:24.000Z</time>
      </trkpt>
      <trkpt lat="42.92629" lon="0.59338">
        <ele>1337</ele>
        <time>2019-02-03T11:10:25.000Z</time>
      </trkpt>
      <trkpt lat="42.92629" lon="0.59339">
        <ele>1337</ele>
        <time>2019-02-03T11:10:26.000Z</time>
      </trkpt>
      <trkpt lat="42.92629" lon="0.59339">
        <ele>1337</ele>
        <time>2019-02-03T11:10:27.000Z</time>
      </trkpt>
      <trkpt lat="42.92629" lon="0.59339">
        <ele>1337</ele>
        <time>2019-02-03T11:10:28.000Z</time>
      </trkpt>
      <trkpt lat="42.92629" lon="0.59339">
        <ele>1337.3</ele>
        <time>2019-02-03T11:10:29.000Z</time>
      </trkpt>
      <trkpt lat="42.92629" lon="0.59339">
        <ele>1337.7</ele>
        <time>2019-02-03T11:10:30.000Z</time>
      </trkpt>
      <trkpt lat="42.92629" lon="0.59339">
        <ele>1338</ele>
        <time>2019-02-03T11:10:31.000Z</time>
      </trkpt>
      <trkpt lat="42.92628" lon="0.59339">
        <ele>1338</ele>
        <time>2019-02-03T11:10:32.000Z</time>
      </trkpt>
      <trkpt lat="42.92628" lon="0.59339">
        <ele>1338</ele>
        <time>2019-02-03T11:10:33.000Z</time>
      </trkpt>
      <trkpt lat="42.92628" lon="0.59339">
        <ele>1338</ele>
        <time>2019-02-03T11:10:34.000Z</time>
      </trkpt>
      <trkpt lat="42.92627" lon="0.5934">
        <ele>1338</ele>
        <time>2019-02-03T11:10:35.000Z</time>
      </trkpt>
      <trkpt lat="42.92626" lon="0.59341">
        <ele>1338</ele>
        <time>2019-02-03T11:10:36.000Z</time>
      </trkpt>
      <trkpt lat="42.92626" lon="0.59341">
        <ele>1338</ele>
        <time>2019-02-03T11:10:37.000Z</time>
      </trkpt>
      <trkpt lat="42.92626" lon="0.59342">
        <ele>1338.5</ele>
        <time>2019-02-03T11:10:38.000Z</time>
      </trkpt>
      <trkpt lat="42.92626" lon="0.59343">
        <ele>1339</ele>
        <time>2019-02-03T11:10:39.000Z</time>
      </trkpt>
      <trkpt lat="42.92626" lon="0.59344">
        <ele>1339</ele>
        <time>2019-02-03T11:10:40.000Z</time>
      </trkpt>
      <trkpt lat="42.92625" lon="0.59344">
        <ele>1339</ele>
        <time>2019-02-03T11:10:41.000Z</time>
      </trkpt>
      <trkpt lat="42.92625" lon="0.59345">
        <ele>1339</ele>
        <time>2019-02-03T11:10:42.000Z</time>
      </trkpt>
      <trkpt lat="42.92624" lon="0.59346">
        <ele>1339</ele>
        <time>2019-02-03T11:10:43.000Z</time>
      </trkpt>
      <trkpt lat="42.92624" lon="0.59347">
        <ele>1339</ele>
        <time>2019-02-03T11:10:44.000Z</time>
      </trkpt>
      <trkpt lat="42.92623" lon="0.59347">
        <ele>1339</ele>
        <time>2019-02-03T11:10:45.000Z</time>
      </trkpt>
      <trkpt lat="42.92622" lon="0.59348">
        <ele>1339</ele>
        <time>2019-02-03T11:10:46.000Z</time>
      </trkpt>
      <trkpt lat="42.92621" lon="0.59349">
        <ele>1339</ele>
        <time>2019-02-03T11:10:47.000Z</time>
      </trkpt>
      <trkpt lat="42.92621" lon="0.59349">
        <ele>1340</ele>
        <time>2019-02-03T11:10:48.000Z</time>
      </trkpt>
      <trkpt lat="42.9262" lon="0.59349">
        <ele>1340</ele>
        <time>2019-02-03T11:10:49.000Z</time>
      </trkpt>
      <trkpt lat="42.9262" lon="0.59349">
        <ele>1340</ele>
        <time>2019-02-03T11:10:50.000Z</time>
      </trkpt>
      <trkpt lat="42.9262" lon="0.59349">
        <ele>1340</ele>
        <time>2019-02-03T11:10:51.000Z</time>
      </trkpt>
      <trkpt lat="42.9262" lon="0.59349">
        <ele>1340</ele>
        <time>2019-02-03T11:10:52.000Z</time>
      </trkpt>
      <trkpt lat="42.9262" lon="0.59349">
        <ele>1340</ele>
        <time>2019-02-03T11:10:53.000Z</time>
      </trkpt>
      <trkpt lat="42.9262" lon="0.59349">
        <ele>1341</ele>
        <time>2019-02-03T11:10:54.000Z</time>
      </trkpt>
      <trkpt lat="42.9262" lon="0.59349">
        <ele>1341</ele>
        <time>2019-02-03T11:10:55.000Z</time>
      </trkpt>
      <trkpt lat="42.9262" lon="0.5935">
        <ele>1341</ele>
        <time>2019-02-03T11:10:56.000Z</time>
      </trkpt>
      <trkpt lat="42.9262" lon="0.5935">
        <ele>1341</ele>
        <time>2019-02-03T11:10:57.000Z</time>
      </trkpt>
      <trkpt lat="42.92619" lon="0.5935">
        <ele>1341</ele>
        <time>2019-02-03T11:10:58.000Z</time>
      </trkpt>
      <trkpt lat="42.92619" lon="0.5935">
        <ele>1341</ele>
        <time>2019-02-03T11:10:59.000Z</time>
      </trkpt>
      <trkpt lat="42.92618" lon="0.59351">
        <ele>1341</ele>
        <time>2019-02-03T11:11:00.000Z</time>
      </trkpt>
      <trkpt lat="42.92618" lon="0.59351">
        <ele>1341</ele>
        <time>2019-02-03T11:11:01.000Z</time>
      </trkpt>
      <trkpt lat="42.92617" lon="0.59351">
        <ele>1341</ele>
        <time>2019-02-03T11:11:02.000Z</time>
      </trkpt>
      <trkpt lat="42.92617" lon="0.59351">
        <ele>1341.3</ele>
        <time>2019-02-03T11:11:03.000Z</time>
      </trkpt>
      <trkpt lat="42.92616" lon="0.59351">
        <ele>1341.7</ele>
        <time>2019-02-03T11:11:04.000Z</time>
      </trkpt>
      <trkpt lat="42.92616" lon="0.59352">
        <ele>1342</ele>
        <time>2019-02-03T11:11:05.000Z</time>
      </trkpt>
      <trkpt lat="42.92615" lon="0.59352">
        <ele>1342</ele>
        <time>2019-02-03T11:11:06.000Z</time>
      </trkpt>
      <trkpt lat="42.92615" lon="0.59352">
        <ele>1342</ele>
        <time>2019-02-03T11:11:07.000Z</time>
      </trkpt>
      <trkpt lat="42.92615" lon="0.59352">
        <ele>1342</ele>
        <time>2019-02-03T11:11:08.000Z</time>
      </trkpt>
      <trkpt lat="42.92615" lon="0.59352">
        <ele>1342</ele>
        <time>2019-02-03T11:11:09.000Z</time>
      </trkpt>
      <trkpt lat="42.92614" lon="0.59352">
        <ele>1342</ele>
        <time>2019-02-03T11:11:10.000Z</time>
      </trkpt>
      <trkpt lat="42.92614" lon="0.59352">
        <ele>1342</ele>
        <time>2019-02-03T11:11:11.000Z</time>
      </trkpt>
      <trkpt lat="42.92614" lon="0.59352">
        <ele>1343</ele>
        <time>2019-02-03T11:11:12.000Z</time>
      </trkpt>
      <trkpt lat="42.92614" lon="0.59352">
        <ele>1343</ele>
        <time>2019-02-03T11:11:13.000Z</time>
      </trkpt>
      <trkpt lat="42.92614" lon="0.59352">
        <ele>1343</ele>
        <time>2019-02-03T11:11:14.000Z</time>
      </trkpt>
      <trkpt lat="42.92614" lon="0.59352">
        <ele>1343</ele>
        <time>2019-02-03T11:11:15.000Z</time>
      </trkpt>
      <trkpt lat="42.92614" lon="0.59353">
        <ele>1343</ele>
        <time>2019-02-03T11:11:16.000Z</time>
      </trkpt>
      <trkpt lat="42.92614" lon="0.59353">
        <ele>1343</ele>
        <time>2019-02-03T11:11:17.000Z</time>
      </trkpt>
      <trkpt lat="42.92614" lon="0.59353">
        <ele>1343</ele>
        <time>2019-02-03T11:11:18.000Z</time>
      </trkpt>
      <trkpt lat="42.92614" lon="0.59353">
        <ele>1343</ele>
        <time>2019-02-03T11:11:19.000Z</time>
      </trkpt>
      <trkpt lat="42.92614" lon="0.59353">
        <ele>1344</ele>
        <time>2019-02-03T11:11:20.000Z</time>
      </trkpt>
      <trkpt lat="42.92614" lon="0.59353">
        <ele>1344</ele>
        <time>2019-02-03T11:11:21.000Z</time>
      </trkpt>
      <trkpt lat="42.92613" lon="0.59354">
        <ele>1344</ele>
        <time>2019-02-03T11:11:22.000Z</time>
      </trkpt>
      <trkpt lat="42.92612" lon="0.59354">
        <ele>1344</ele>
        <time>2019-02-03T11:11:23.000Z</time>
      </trkpt>
      <trkpt lat="42.92612" lon="0.59354">
        <ele>1344</ele>
        <time>2019-02-03T11:11:24.000Z</time>
      </trkpt>
      <trkpt lat="42.92611" lon="0.59354">
        <ele>1344</ele>
        <time>2019-02-03T11:11:25.000Z</time>
      </trkpt>
      <trkpt lat="42.92611" lon="0.59354">
        <ele>1344</ele>
        <time>2019-02-03T11:11:26.000Z</time>
      </trkpt>
      <trkpt lat="42.92611" lon="0.59354">
        <ele>1344</ele>
        <time>2019-02-03T11:11:27.000Z</time>
      </trkpt>
      <trkpt lat="42.92611" lon="0.59354">
        <ele>1344.5</ele>
        <time>2019-02-03T11:11:28.000Z</time>
      </trkpt>
      <trkpt lat="42.92611" lon="0.59354">
        <ele>1345</ele>
        <time>2019-02-03T11:11:29.000Z</time>
      </trkpt>
      <trkpt lat="42.92611" lon="0.59354">
        <ele>1345</ele>
        <time>2019-02-03T11:11:30.000Z</time>
      </trkpt>
      <trkpt lat="42.92611" lon="0.59354">
        <ele>1345</ele>
        <time>2019-02-03T11:11:31.000Z</time>
      </trkpt>
      <trkpt lat="42.92611" lon="0.59354">
        <ele>1345</ele>
        <time>2019-02-03T11:11:32.000Z</time>
      </trkpt>
      <trkpt lat="42.9261" lon="0.59354">
        <ele>1345</ele>
        <time>2019-02-03T11:11:33.000Z</time>
      </trkpt>
      <trkpt lat="42.9261" lon="0.59354">
        <ele>1345</ele>
        <time>2019-02-03T11:11:34.000Z</time>
      </trkpt>
      <trkpt lat="42.92609" lon="0.59354">
        <ele>1345</ele>
        <time>2019-02-03T11:11:35.000Z</time>
      </trkpt>
      <trkpt lat="42.92609" lon="0.59355">
        <ele>1345.5</ele>
        <time>2019-02-03T11:11:36.000Z</time>
      </trkpt>
      <trkpt lat="42.92609" lon="0.59355">
        <ele>1346</ele>
        <time>2019-02-03T11:11:37.000Z</time>
      </trkpt>
      <trkpt lat="42.92608" lon="0.59355">
        <ele>1346</ele>
        <time>2019-02-03T11:11:38.000Z</time>
      </trkpt>
      <trkpt lat="42.92608" lon="0.59355">
        <ele>1346</ele>
        <time>2019-02-03T11:11:39.000Z</time>
      </trkpt>
      <trkpt lat="42.92608" lon="0.59355">
        <ele>1346</ele>
        <time>2019-02-03T11:11:40.000Z</time>
      </trkpt>
      <trkpt lat="42.92608" lon="0.59355">
        <ele>1346</ele>
        <time>2019-02-03T11:11:41.000Z</time>
      </trkpt>
      <trkpt lat="42.92608" lon="0.59355">
        <ele>1346</ele>
        <time>2019-02-03T11:11:42.000Z</time>
      </trkpt>
      <trkpt lat="42.92608" lon="0.59355">
        <ele>1346</ele>
        <time>2019-02-03T11:11:43.000Z</time>
      </trkpt>
      <trkpt lat="42.92608" lon="0.59355">
        <ele>1346</ele>
        <time>2019-02-03T11:11:44.000Z</time>
      </trkpt>
      <trkpt lat="42.92608" lon="0.59356">
        <ele>1346</ele>
        <time>2019-02-03T11:11:45.000Z</time>
      </trkpt>
      <trkpt lat="42.92609" lon="0.59356">
        <ele>1346</ele>
        <time>2019-02-03T11:11:46.000Z</time>
      </trkpt>
      <trkpt lat="42.92609" lon="0.59356">
        <ele>1346</ele>
        <time>2019-02-03T11:11:47.000Z</time>
      </trkpt>
      <trkpt lat="42.92609" lon="0.59357">
        <ele>1346</ele>
        <time>2019-02-03T11:11:48.000Z</time>
      </trkpt>
      <trkpt lat="42.92609" lon="0.59357">
        <ele>1346</ele>
        <time>2019-02-03T11:11:49.000Z</time>
      </trkpt>
      <trkpt lat="42.92609" lon="0.59357">
        <ele>1346</ele>
        <time>2019-02-03T11:11:50.000Z</time>
      </trkpt>
      <trkpt lat="42.92609" lon="0.59358">
        <ele>1346</ele>
        <time>2019-02-03T11:11:51.000Z</time>
      </trkpt>
      <trkpt lat="42.92609" lon="0.59358">
        <ele>1346</ele>
        <time>2019-02-03T11:11:52.000Z</time>
      </trkpt>
      <trkpt lat="42.9261" lon="0.59358">
        <ele>1346</ele>
        <time>2019-02-03T11:11:53.000Z</time>
      </trkpt>
      <trkpt lat="42.9261" lon="0.59358">
        <ele>1346</ele>
        <time>2019-02-03T11:11:54.000Z</time>
      </trkpt>
      <trkpt lat="42.9261" lon="0.59358">
        <ele>1346</ele>
        <time>2019-02-03T11:11:55.000Z</time>
      </trkpt>
      <trkpt lat="42.9261" lon="0.59358">
        <ele>1346</ele>
        <time>2019-02-03T11:11:56.000Z</time>
      </trkpt>
      <trkpt lat="42.92611" lon="0.59358">
        <ele>1346</ele>
        <time>2019-02-03T11:11:57.000Z</time>
      </trkpt>
      <trkpt lat="42.92611" lon="0.59357">
        <ele>1346</ele>
        <time>2019-02-03T11:11:58.000Z</time>
      </trkpt>
      <trkpt lat="42.92611" lon="0.59357">
        <ele>1346</ele>
        <time>2019-02-03T11:11:59.000Z</time>
      </trkpt>
      <trkpt lat="42.92611" lon="0.59357">
        <ele>1346</ele>
        <time>2019-02-03T11:12:00.000Z</time>
      </trkpt>
      <trkpt lat="42.9261" lon="0.59357">
        <ele>1346</ele>
        <time>2019-02-03T11:12:01.000Z</time>
      </trkpt>
      <trkpt lat="42.9261" lon="0.59357">
        <ele>1346</ele>
        <time>2019-02-03T11:12:02.000Z</time>
      </trkpt>
      <trkpt lat="42.9261" lon="0.59357">
        <ele>1347</ele>
        <time>2019-02-03T11:12:03.000Z</time>
      </trkpt>
      <trkpt lat="42.9261" lon="0.59357">
        <ele>1347</ele>
        <time>2019-02-03T11:12:04.000Z</time>
      </trkpt>
      <trkpt lat="42.9261" lon="0.59358">
        <ele>1347</ele>
        <time>2019-02-03T11:12:05.000Z</time>
      </trkpt>
      <trkpt lat="42.9261" lon="0.59359">
        <ele>1347</ele>
        <time>2019-02-03T11:12:06.000Z</time>
      </trkpt>
      <trkpt lat="42.92611" lon="0.59359">
        <ele>1347</ele>
        <time>2019-02-03T11:12:07.000Z</time>
      </trkpt>
      <trkpt lat="42.92611" lon="0.5936">
        <ele>1347</ele>
        <time>2019-02-03T11:12:08.000Z</time>
      </trkpt>
      <trkpt lat="42.92611" lon="0.59361">
        <ele>1347</ele>
        <time>2019-02-03T11:12:09.000Z</time>
      </trkpt>
      <trkpt lat="42.92611" lon="0.59362">
        <ele>1347</ele>
        <time>2019-02-03T11:12:10.000Z</time>
      </trkpt>
      <trkpt lat="42.92611" lon="0.59362">
        <ele>1348</ele>
        <time>2019-02-03T11:12:11.000Z</time>
      </trkpt>
      <trkpt lat="42.92611" lon="0.59363">
        <ele>1348</ele>
        <time>2019-02-03T11:12:12.000Z</time>
      </trkpt>
      <trkpt lat="42.92611" lon="0.59364">
        <ele>1348</ele>
        <time>2019-02-03T11:12:13.000Z</time>
      </trkpt>
      <trkpt lat="42.92611" lon="0.59364">
        <ele>1348</ele>
        <time>2019-02-03T11:12:14.000Z</time>
      </trkpt>
      <trkpt lat="42.92611" lon="0.59365">
        <ele>1348</ele>
        <time>2019-02-03T11:12:15.000Z</time>
      </trkpt>
      <trkpt lat="42.92611" lon="0.59365">
        <ele>1348</ele>
        <time>2019-02-03T11:12:16.000Z</time>
      </trkpt>
      <trkpt lat="42.92611" lon="0.59366">
        <ele>1348</ele>
        <time>2019-02-03T11:12:17.000Z</time>
      </trkpt>
      <trkpt lat="42.92611" lon="0.59367">
        <ele>1348</ele>
        <time>2019-02-03T11:12:18.000Z</time>
      </trkpt>
      <trkpt lat="42.92611" lon="0.59368">
        <ele>1349</ele>
        <time>2019-02-03T11:12:19.000Z</time>
      </trkpt>
      <trkpt lat="42.92611" lon="0.59368">
        <ele>1349</ele>
        <time>2019-02-03T11:12:20.000Z</time>
      </trkpt>
      <trkpt lat="42.92611" lon="0.59369">
        <ele>1349</ele>
        <time>2019-02-03T11:12:21.000Z</time>
      </trkpt>
      <trkpt lat="42.92611" lon="0.5937">
        <ele>1349</ele>
        <time>2019-02-03T11:12:22.000Z</time>
      </trkpt>
      <trkpt lat="42.92612" lon="0.5937">
        <ele>1349</ele>
        <time>2019-02-03T11:12:23.000Z</time>
      </trkpt>
      <trkpt lat="42.92611" lon="0.59371">
        <ele>1349</ele>
        <time>2019-02-03T11:12:24.000Z</time>
      </trkpt>
      <trkpt lat="42.92611" lon="0.59371">
        <ele>1349</ele>
        <time>2019-02-03T11:12:25.000Z</time>
      </trkpt>
      <trkpt lat="42.92611" lon="0.59372">
        <ele>1349.3</ele>
        <time>2019-02-03T11:12:26.000Z</time>
      </trkpt>
      <trkpt lat="42.92611" lon="0.59372">
        <ele>1349.7</ele>
        <time>2019-02-03T11:12:27.000Z</time>
      </trkpt>
      <trkpt lat="42.92611" lon="0.59372">
        <ele>1350</ele>
        <time>2019-02-03T11:12:28.000Z</time>
      </trkpt>
      <trkpt lat="42.92611" lon="0.59373">
        <ele>1350</ele>
        <time>2019-02-03T11:12:29.000Z</time>
      </trkpt>
      <trkpt lat="42.92611" lon="0.59373">
        <ele>1350</ele>
        <time>2019-02-03T11:12:30.000Z</time>
      </trkpt>
      <trkpt lat="42.92611" lon="0.59373">
        <ele>1350</ele>
        <time>2019-02-03T11:12:31.000Z</time>
      </trkpt>
      <trkpt lat="42.92611" lon="0.59374">
        <ele>1350</ele>
        <time>2019-02-03T11:12:32.000Z</time>
      </trkpt>
      <trkpt lat="42.92611" lon="0.59374">
        <ele>1350</ele>
        <time>2019-02-03T11:12:33.000Z</time>
      </trkpt>
      <trkpt lat="42.92611" lon="0.59374">
        <ele>1350.3</ele>
        <time>2019-02-03T11:12:34.000Z</time>
      </trkpt>
      <trkpt lat="42.92611" lon="0.59374">
        <ele>1350.7</ele>
        <time>2019-02-03T11:12:35.000Z</time>
      </trkpt>
      <trkpt lat="42.92611" lon="0.59375">
        <ele>1351</ele>
        <time>2019-02-03T11:12:36.000Z</time>
      </trkpt>
      <trkpt lat="42.92611" lon="0.59375">
        <ele>1351</ele>
        <time>2019-02-03T11:12:37.000Z</time>
      </trkpt>
      <trkpt lat="42.92611" lon="0.59375">
        <ele>1351</ele>
        <time>2019-02-03T11:12:38.000Z</time>
      </trkpt>
      <trkpt lat="42.92612" lon="0.59375">
        <ele>1351</ele>
        <time>2019-02-03T11:12:39.000Z</time>
      </trkpt>
      <trkpt lat="42.92612" lon="0.59376">
        <ele>1351</ele>
        <time>2019-02-03T11:12:40.000Z</time>
      </trkpt>
      <trkpt lat="42.92612" lon="0.59376">
        <ele>1351</ele>
        <time>2019-02-03T11:12:41.000Z</time>
      </trkpt>
      <trkpt lat="42.92612" lon="0.59376">
        <ele>1351</ele>
        <time>2019-02-03T11:12:42.000Z</time>
      </trkpt>
      <trkpt lat="42.92613" lon="0.59376">
        <ele>1352</ele>
        <time>2019-02-03T11:12:43.000Z</time>
      </trkpt>
      <trkpt lat="42.92613" lon="0.59377">
        <ele>1352</ele>
        <time>2019-02-03T11:12:44.000Z</time>
      </trkpt>
      <trkpt lat="42.92613" lon="0.59377">
        <ele>1352</ele>
        <time>2019-02-03T11:12:45.000Z</time>
      </trkpt>
      <trkpt lat="42.92613" lon="0.59377">
        <ele>1352</ele>
        <time>2019-02-03T11:12:46.000Z</time>
      </trkpt>
      <trkpt lat="42.92613" lon="0.59377">
        <ele>1352</ele>
        <time>2019-02-03T11:12:47.000Z</time>
      </trkpt>
      <trkpt lat="42.92613" lon="0.59377">
        <ele>1352</ele>
        <time>2019-02-03T11:12:48.000Z</time>
      </trkpt>
      <trkpt lat="42.92612" lon="0.59377">
        <ele>1352</ele>
        <time>2019-02-03T11:12:49.000Z</time>
      </trkpt>
      <trkpt lat="42.92612" lon="0.59378">
        <ele>1352.3</ele>
        <time>2019-02-03T11:12:50.000Z</time>
      </trkpt>
      <trkpt lat="42.92611" lon="0.59378">
        <ele>1352.7</ele>
        <time>2019-02-03T11:12:51.000Z</time>
      </trkpt>
      <trkpt lat="42.9261" lon="0.59378">
        <ele>1353</ele>
        <time>2019-02-03T11:12:52.000Z</time>
      </trkpt>
      <trkpt lat="42.92609" lon="0.59378">
        <ele>1353</ele>
        <time>2019-02-03T11:12:53.000Z</time>
      </trkpt>
      <trkpt lat="42.92609" lon="0.59378">
        <ele>1353</ele>
        <time>2019-02-03T11:12:54.000Z</time>
      </trkpt>
      <trkpt lat="42.92608" lon="0.59378">
        <ele>1353</ele>
        <time>2019-02-03T11:12:55.000Z</time>
      </trkpt>
      <trkpt lat="42.92607" lon="0.59378">
        <ele>1353</ele>
        <time>2019-02-03T11:12:56.000Z</time>
      </trkpt>
      <trkpt lat="42.92606" lon="0.59378">
        <ele>1353</ele>
        <time>2019-02-03T11:12:57.000Z</time>
      </trkpt>
      <trkpt lat="42.92606" lon="0.59378">
        <ele>1353.3</ele>
        <time>2019-02-03T11:12:58.000Z</time>
      </trkpt>
      <trkpt lat="42.92605" lon="0.59378">
        <ele>1353.7</ele>
        <time>2019-02-03T11:12:59.000Z</time>
      </trkpt>
      <trkpt lat="42.92604" lon="0.59378">
        <ele>1354</ele>
        <time>2019-02-03T11:13:00.000Z</time>
      </trkpt>
      <trkpt lat="42.92604" lon="0.59377">
        <ele>1354</ele>
        <time>2019-02-03T11:13:01.000Z</time>
      </trkpt>
      <trkpt lat="42.92604" lon="0.59377">
        <ele>1354</ele>
        <time>2019-02-03T11:13:02.000Z</time>
      </trkpt>
      <trkpt lat="42.92603" lon="0.59377">
        <ele>1354</ele>
        <time>2019-02-03T11:13:03.000Z</time>
      </trkpt>
      <trkpt lat="42.92603" lon="0.59377">
        <ele>1354</ele>
        <time>2019-02-03T11:13:04.000Z</time>
      </trkpt>
      <trkpt lat="42.92603" lon="0.59377">
        <ele>1355</ele>
        <time>2019-02-03T11:13:05.000Z</time>
      </trkpt>
      <trkpt lat="42.92603" lon="0.59377">
        <ele>1355</ele>
        <time>2019-02-03T11:13:06.000Z</time>
      </trkpt>
      <trkpt lat="42.92603" lon="0.59377">
        <ele>1355</ele>
        <time>2019-02-03T11:13:07.000Z</time>
      </trkpt>
      <trkpt lat="42.92603" lon="0.59377">
        <ele>1355</ele>
        <time>2019-02-03T11:13:08.000Z</time>
      </trkpt>
      <trkpt lat="42.92603" lon="0.59378">
        <ele>1355</ele>
        <time>2019-02-03T11:13:09.000Z</time>
      </trkpt>
      <trkpt lat="42.92602" lon="0.59378">
        <ele>1355</ele>
        <time>2019-02-03T11:13:10.000Z</time>
      </trkpt>
      <trkpt lat="42.92602" lon="0.59379">
        <ele>1355</ele>
        <time>2019-02-03T11:13:11.000Z</time>
      </trkpt>
      <trkpt lat="42.92602" lon="0.59379">
        <ele>1355</ele>
        <time>2019-02-03T11:13:12.000Z</time>
      </trkpt>
      <trkpt lat="42.92602" lon="0.5938">
        <ele>1355</ele>
        <time>2019-02-03T11:13:13.000Z</time>
      </trkpt>
      <trkpt lat="42.92602" lon="0.5938">
        <ele>1355</ele>
        <time>2019-02-03T11:13:14.000Z</time>
      </trkpt>
      <trkpt lat="42.92601" lon="0.59381">
        <ele>1355</ele>
        <time>2019-02-03T11:13:15.000Z</time>
      </trkpt>
      <trkpt lat="42.92601" lon="0.59381">
        <ele>1355</ele>
        <time>2019-02-03T11:13:16.000Z</time>
      </trkpt>
      <trkpt lat="42.92601" lon="0.59381">
        <ele>1356</ele>
        <time>2019-02-03T11:13:17.000Z</time>
      </trkpt>
      <trkpt lat="42.92601" lon="0.59382">
        <ele>1356</ele>
        <time>2019-02-03T11:13:18.000Z</time>
      </trkpt>
      <trkpt lat="42.92601" lon="0.59382">
        <ele>1356</ele>
        <time>2019-02-03T11:13:19.000Z</time>
      </trkpt>
      <trkpt lat="42.92601" lon="0.59382">
        <ele>1356</ele>
        <time>2019-02-03T11:13:20.000Z</time>
      </trkpt>
      <trkpt lat="42.92602" lon="0.59382">
        <ele>1356</ele>
        <time>2019-02-03T11:13:21.000Z</time>
      </trkpt>
      <trkpt lat="42.92602" lon="0.59383">
        <ele>1356</ele>
        <time>2019-02-03T11:13:22.000Z</time>
      </trkpt>
      <trkpt lat="42.92602" lon="0.59383">
        <ele>1356</ele>
        <time>2019-02-03T11:13:23.000Z</time>
      </trkpt>
      <trkpt lat="42.92602" lon="0.59383">
        <ele>1356</ele>
        <time>2019-02-03T11:13:24.000Z</time>
      </trkpt>
      <trkpt lat="42.92602" lon="0.59383">
        <ele>1356</ele>
        <time>2019-02-03T11:13:25.000Z</time>
      </trkpt>
      <trkpt lat="42.92602" lon="0.59383">
        <ele>1356</ele>
        <time>2019-02-03T11:13:26.000Z</time>
      </trkpt>
      <trkpt lat="42.92602" lon="0.59383">
        <ele>1356</ele>
        <time>2019-02-03T11:13:27.000Z</time>
      </trkpt>
      <trkpt lat="42.92602" lon="0.59384">
        <ele>1356</ele>
        <time>2019-02-03T11:13:28.000Z</time>
      </trkpt>
      <trkpt lat="42.92602" lon="0.59384">
        <ele>1356</ele>
        <time>2019-02-03T11:13:29.000Z</time>
      </trkpt>
      <trkpt lat="42.92602" lon="0.59384">
        <ele>1356.5</ele>
        <time>2019-02-03T11:13:30.000Z</time>
      </trkpt>
      <trkpt lat="42.92603" lon="0.59384">
        <ele>1357</ele>
        <time>2019-02-03T11:13:31.000Z</time>
      </trkpt>
      <trkpt lat="42.92603" lon="0.59385">
        <ele>1357</ele>
        <time>2019-02-03T11:13:32.000Z</time>
      </trkpt>
      <trkpt lat="42.92603" lon="0.59385">
        <ele>1357</ele>
        <time>2019-02-03T11:13:33.000Z</time>
      </trkpt>
      <trkpt lat="42.92604" lon="0.59385">
        <ele>1357</ele>
        <time>2019-02-03T11:13:34.000Z</time>
      </trkpt>
      <trkpt lat="42.92604" lon="0.59385">
        <ele>1357</ele>
        <time>2019-02-03T11:13:35.000Z</time>
      </trkpt>
      <trkpt lat="42.92604" lon="0.59386">
        <ele>1357</ele>
        <time>2019-02-03T11:13:36.000Z</time>
      </trkpt>
      <trkpt lat="42.92604" lon="0.59386">
        <ele>1357</ele>
        <time>2019-02-03T11:13:37.000Z</time>
      </trkpt>
      <trkpt lat="42.92604" lon="0.59386">
        <ele>1357</ele>
        <time>2019-02-03T11:13:38.000Z</time>
      </trkpt>
      <trkpt lat="42.92604" lon="0.59387">
        <ele>1357</ele>
        <time>2019-02-03T11:13:39.000Z</time>
      </trkpt>
      <trkpt lat="42.92604" lon="0.59387">
        <ele>1357</ele>
        <time>2019-02-03T11:13:40.000Z</time>
      </trkpt>
      <trkpt lat="42.92605" lon="0.59387">
        <ele>1357</ele>
        <time>2019-02-03T11:13:41.000Z</time>
      </trkpt>
      <trkpt lat="42.92605" lon="0.59387">
        <ele>1357</ele>
        <time>2019-02-03T11:13:42.000Z</time>
      </trkpt>
      <trkpt lat="42.92605" lon="0.59387">
        <ele>1357</ele>
        <time>2019-02-03T11:13:43.000Z</time>
      </trkpt>
      <trkpt lat="42.92605" lon="0.59388">
        <ele>1357</ele>
        <time>2019-02-03T11:13:44.000Z</time>
      </trkpt>
      <trkpt lat="42.92605" lon="0.59388">
        <ele>1357</ele>
        <time>2019-02-03T11:13:45.000Z</time>
      </trkpt>
      <trkpt lat="42.92605" lon="0.59388">
        <ele>1357</ele>
        <time>2019-02-03T11:13:46.000Z</time>
      </trkpt>
      <trkpt lat="42.92605" lon="0.59388">
        <ele>1357</ele>
        <time>2019-02-03T11:13:47.000Z</time>
      </trkpt>
      <trkpt lat="42.92605" lon="0.59388">
        <ele>1357</ele>
        <time>2019-02-03T11:13:48.000Z</time>
      </trkpt>
      <trkpt lat="42.92605" lon="0.59388">
        <ele>1357</ele>
        <time>2019-02-03T11:13:49.000Z</time>
      </trkpt>
      <trkpt lat="42.92605" lon="0.59388">
        <ele>1357</ele>
        <time>2019-02-03T11:13:50.000Z</time>
      </trkpt>
      <trkpt lat="42.92605" lon="0.59388">
        <ele>1357</ele>
        <time>2019-02-03T11:13:51.000Z</time>
      </trkpt>
      <trkpt lat="42.92605" lon="0.59388">
        <ele>1357</ele>
        <time>2019-02-03T11:13:52.000Z</time>
      </trkpt>
      <trkpt lat="42.92605" lon="0.59388">
        <ele>1357</ele>
        <time>2019-02-03T11:13:53.000Z</time>
      </trkpt>
      <trkpt lat="42.92605" lon="0.59388">
        <ele>1357</ele>
        <time>2019-02-03T11:13:54.000Z</time>
      </trkpt>
      <trkpt lat="42.92605" lon="0.59388">
        <ele>1357</ele>
        <time>2019-02-03T11:13:55.000Z</time>
      </trkpt>
      <trkpt lat="42.92605" lon="0.59388">
        <ele>1357</ele>
        <time>2019-02-03T11:13:56.000Z</time>
      </trkpt>
      <trkpt lat="42.92605" lon="0.59388">
        <ele>1357</ele>
        <time>2019-02-03T11:13:57.000Z</time>
      </trkpt>
      <trkpt lat="42.92605" lon="0.59388">
        <ele>1357</ele>
        <time>2019-02-03T11:13:58.000Z</time>
      </trkpt>
      <trkpt lat="42.92605" lon="0.59388">
        <ele>1357</ele>
        <time>2019-02-03T11:13:59.000Z</time>
      </trkpt>
      <trkpt lat="42.92605" lon="0.59388">
        <ele>1357</ele>
        <time>2019-02-03T11:14:00.000Z</time>
      </trkpt>
      <trkpt lat="42.92605" lon="0.59388">
        <ele>1357</ele>
        <time>2019-02-03T11:14:01.000Z</time>
      </trkpt>
      <trkpt lat="42.92605" lon="0.59388">
        <ele>1356.7</ele>
        <time>2019-02-03T11:14:02.000Z</time>
      </trkpt>
      <trkpt lat="42.92605" lon="0.59388">
        <ele>1356.3</ele>
        <time>2019-02-03T11:14:03.000Z</time>
      </trkpt>
      <trkpt lat="42.92605" lon="0.59388">
        <ele>1356</ele>
        <time>2019-02-03T11:14:04.000Z</time>
      </trkpt>
      <trkpt lat="42.92605" lon="0.59388">
        <ele>1356</ele>
        <time>2019-02-03T11:14:05.000Z</time>
      </trkpt>
      <trkpt lat="42.92605" lon="0.59387">
        <ele>1356.3</ele>
        <time>2019-02-03T11:14:06.000Z</time>
      </trkpt>
      <trkpt lat="42.92605" lon="0.59387">
        <ele>1356.7</ele>
        <time>2019-02-03T11:14:07.000Z</time>
      </trkpt>
      <trkpt lat="42.92604" lon="0.59387">
        <ele>1357</ele>
        <time>2019-02-03T11:14:08.000Z</time>
      </trkpt>
      <trkpt lat="42.92604" lon="0.59387">
        <ele>1357</ele>
        <time>2019-02-03T11:14:09.000Z</time>
      </trkpt>
      <trkpt lat="42.92604" lon="0.59387">
        <ele>1357</ele>
        <time>2019-02-03T11:14:10.000Z</time>
      </trkpt>
      <trkpt lat="42.92604" lon="0.59387">
        <ele>1357</ele>
        <time>2019-02-03T11:14:11.000Z</time>
      </trkpt>
      <trkpt lat="42.92604" lon="0.59387">
        <ele>1357</ele>
        <time>2019-02-03T11:14:12.000Z</time>
      </trkpt>
      <trkpt lat="42.92604" lon="0.59387">
        <ele>1357.5</ele>
        <time>2019-02-03T11:14:13.000Z</time>
      </trkpt>
      <trkpt lat="42.92604" lon="0.59387">
        <ele>1358</ele>
        <time>2019-02-03T11:14:14.000Z</time>
      </trkpt>
      <trkpt lat="42.92604" lon="0.59387">
        <ele>1358</ele>
        <time>2019-02-03T11:14:15.000Z</time>
      </trkpt>
      <trkpt lat="42.92604" lon="0.59387">
        <ele>1358</ele>
        <time>2019-02-03T11:14:16.000Z</time>
      </trkpt>
      <trkpt lat="42.92604" lon="0.59388">
        <ele>1358</ele>
        <time>2019-02-03T11:14:17.000Z</time>
      </trkpt>
      <trkpt lat="42.92603" lon="0.59388">
        <ele>1358</ele>
        <time>2019-02-03T11:14:18.000Z</time>
      </trkpt>
      <trkpt lat="42.92603" lon="0.59388">
        <ele>1358</ele>
        <time>2019-02-03T11:14:19.000Z</time>
      </trkpt>
      <trkpt lat="42.92602" lon="0.59388">
        <ele>1358.3</ele>
        <time>2019-02-03T11:14:20.000Z</time>
      </trkpt>
      <trkpt lat="42.92602" lon="0.59388">
        <ele>1358.7</ele>
        <time>2019-02-03T11:14:21.000Z</time>
      </trkpt>
      <trkpt lat="42.92601" lon="0.59388">
        <ele>1359</ele>
        <time>2019-02-03T11:14:22.000Z</time>
      </trkpt>
      <trkpt lat="42.92601" lon="0.59388">
        <ele>1359</ele>
        <time>2019-02-03T11:14:23.000Z</time>
      </trkpt>
      <trkpt lat="42.926" lon="0.59389">
        <ele>1359</ele>
        <time>2019-02-03T11:14:24.000Z</time>
      </trkpt>
      <trkpt lat="42.92599" lon="0.59389">
        <ele>1359</ele>
        <time>2019-02-03T11:14:25.000Z</time>
      </trkpt>
      <trkpt lat="42.92599" lon="0.59389">
        <ele>1359</ele>
        <time>2019-02-03T11:14:26.000Z</time>
      </trkpt>
      <trkpt lat="42.92599" lon="0.59389">
        <ele>1359</ele>
        <time>2019-02-03T11:14:27.000Z</time>
      </trkpt>
      <trkpt lat="42.92598" lon="0.59389">
        <ele>1359</ele>
        <time>2019-02-03T11:14:28.000Z</time>
      </trkpt>
      <trkpt lat="42.92598" lon="0.59389">
        <ele>1359</ele>
        <time>2019-02-03T11:14:29.000Z</time>
      </trkpt>
      <trkpt lat="42.92598" lon="0.5939">
        <ele>1359</ele>
        <time>2019-02-03T11:14:30.000Z</time>
      </trkpt>
      <trkpt lat="42.92598" lon="0.5939">
        <ele>1360</ele>
        <time>2019-02-03T11:14:31.000Z</time>
      </trkpt>
      <trkpt lat="42.92598" lon="0.5939">
        <ele>1360</ele>
        <time>2019-02-03T11:14:32.000Z</time>
      </trkpt>
      <trkpt lat="42.92599" lon="0.5939">
        <ele>1360</ele>
        <time>2019-02-03T11:14:33.000Z</time>
      </trkpt>
      <trkpt lat="42.92599" lon="0.5939">
        <ele>1360</ele>
        <time>2019-02-03T11:14:34.000Z</time>
      </trkpt>
      <trkpt lat="42.92598" lon="0.5939">
        <ele>1360</ele>
        <time>2019-02-03T11:14:35.000Z</time>
      </trkpt>
      <trkpt lat="42.92598" lon="0.5939">
        <ele>1360</ele>
        <time>2019-02-03T11:14:36.000Z</time>
      </trkpt>
      <trkpt lat="42.92598" lon="0.5939">
        <ele>1360</ele>
        <time>2019-02-03T11:14:37.000Z</time>
      </trkpt>
      <trkpt lat="42.92598" lon="0.59391">
        <ele>1360.5</ele>
        <time>2019-02-03T11:14:38.000Z</time>
      </trkpt>
      <trkpt lat="42.92597" lon="0.59392">
        <ele>1361</ele>
        <time>2019-02-03T11:14:39.000Z</time>
      </trkpt>
      <trkpt lat="42.92597" lon="0.59392">
        <ele>1361</ele>
        <time>2019-02-03T11:14:40.000Z</time>
      </trkpt>
      <trkpt lat="42.92596" lon="0.59393">
        <ele>1361</ele>
        <time>2019-02-03T11:14:41.000Z</time>
      </trkpt>
      <trkpt lat="42.92596" lon="0.59394">
        <ele>1361</ele>
        <time>2019-02-03T11:14:42.000Z</time>
      </trkpt>
      <trkpt lat="42.92595" lon="0.59394">
        <ele>1361</ele>
        <time>2019-02-03T11:14:43.000Z</time>
      </trkpt>
      <trkpt lat="42.92594" lon="0.59395">
        <ele>1361.5</ele>
        <time>2019-02-03T11:14:44.000Z</time>
      </trkpt>
      <trkpt lat="42.92594" lon="0.59395">
        <ele>1362</ele>
        <time>2019-02-03T11:14:45.000Z</time>
      </trkpt>
      <trkpt lat="42.92594" lon="0.59396">
        <ele>1362</ele>
        <time>2019-02-03T11:14:46.000Z</time>
      </trkpt>
      <trkpt lat="42.92593" lon="0.59396">
        <ele>1362</ele>
        <time>2019-02-03T11:14:47.000Z</time>
      </trkpt>
      <trkpt lat="42.92593" lon="0.59396">
        <ele>1362</ele>
        <time>2019-02-03T11:14:48.000Z</time>
      </trkpt>
      <trkpt lat="42.92593" lon="0.59396">
        <ele>1362</ele>
        <time>2019-02-03T11:14:49.000Z</time>
      </trkpt>
      <trkpt lat="42.92593" lon="0.59396">
        <ele>1362</ele>
        <time>2019-02-03T11:14:50.000Z</time>
      </trkpt>
      <trkpt lat="42.92593" lon="0.59397">
        <ele>1362</ele>
        <time>2019-02-03T11:14:51.000Z</time>
      </trkpt>
      <trkpt lat="42.92592" lon="0.59397">
        <ele>1362</ele>
        <time>2019-02-03T11:14:52.000Z</time>
      </trkpt>
      <trkpt lat="42.92592" lon="0.59397">
        <ele>1363</ele>
        <time>2019-02-03T11:14:53.000Z</time>
      </trkpt>
      <trkpt lat="42.92592" lon="0.59397">
        <ele>1363</ele>
        <time>2019-02-03T11:14:54.000Z</time>
      </trkpt>
      <trkpt lat="42.92592" lon="0.59398">
        <ele>1363</ele>
        <time>2019-02-03T11:14:55.000Z</time>
      </trkpt>
      <trkpt lat="42.92592" lon="0.59398">
        <ele>1363</ele>
        <time>2019-02-03T11:14:56.000Z</time>
      </trkpt>
      <trkpt lat="42.92592" lon="0.59398">
        <ele>1363</ele>
        <time>2019-02-03T11:14:57.000Z</time>
      </trkpt>
      <trkpt lat="42.92592" lon="0.59399">
        <ele>1363</ele>
        <time>2019-02-03T11:14:58.000Z</time>
      </trkpt>
      <trkpt lat="42.92592" lon="0.59399">
        <ele>1363</ele>
        <time>2019-02-03T11:14:59.000Z</time>
      </trkpt>
      <trkpt lat="42.92592" lon="0.59399">
        <ele>1363.5</ele>
        <time>2019-02-03T11:15:00.000Z</time>
      </trkpt>
      <trkpt lat="42.92592" lon="0.594">
        <ele>1364</ele>
        <time>2019-02-03T11:15:01.000Z</time>
      </trkpt>
      <trkpt lat="42.92591" lon="0.594">
        <ele>1364</ele>
        <time>2019-02-03T11:15:02.000Z</time>
      </trkpt>
      <trkpt lat="42.92591" lon="0.594">
        <ele>1364</ele>
        <time>2019-02-03T11:15:03.000Z</time>
      </trkpt>
      <trkpt lat="42.92592" lon="0.594">
        <ele>1364</ele>
        <time>2019-02-03T11:15:04.000Z</time>
      </trkpt>
      <trkpt lat="42.92592" lon="0.594">
        <ele>1364</ele>
        <time>2019-02-03T11:15:05.000Z</time>
      </trkpt>
      <trkpt lat="42.92592" lon="0.594">
        <ele>1364</ele>
        <time>2019-02-03T11:15:06.000Z</time>
      </trkpt>
      <trkpt lat="42.92592" lon="0.594">
        <ele>1364</ele>
        <time>2019-02-03T11:15:07.000Z</time>
      </trkpt>
      <trkpt lat="42.92592" lon="0.59401">
        <ele>1364</ele>
        <time>2019-02-03T11:15:08.000Z</time>
      </trkpt>
      <trkpt lat="42.92592" lon="0.59401">
        <ele>1364.5</ele>
        <time>2019-02-03T11:15:09.000Z</time>
      </trkpt>
      <trkpt lat="42.92592" lon="0.59402">
        <ele>1365</ele>
        <time>2019-02-03T11:15:10.000Z</time>
      </trkpt>
      <trkpt lat="42.92592" lon="0.59402">
        <ele>1365</ele>
        <time>2019-02-03T11:15:11.000Z</time>
      </trkpt>
      <trkpt lat="42.92593" lon="0.59403">
        <ele>1365</ele>
        <time>2019-02-03T11:15:12.000Z</time>
      </trkpt>
      <trkpt lat="42.92593" lon="0.59404">
        <ele>1365</ele>
        <time>2019-02-03T11:15:13.000Z</time>
      </trkpt>
      <trkpt lat="42.92593" lon="0.59405">
        <ele>1365.3</ele>
        <time>2019-02-03T11:15:14.000Z</time>
      </trkpt>
      <trkpt lat="42.92593" lon="0.59406">
        <ele>1365.7</ele>
        <time>2019-02-03T11:15:15.000Z</time>
      </trkpt>
      <trkpt lat="42.92594" lon="0.59406">
        <ele>1366</ele>
        <time>2019-02-03T11:15:16.000Z</time>
      </trkpt>
      <trkpt lat="42.92594" lon="0.59407">
        <ele>1366</ele>
        <time>2019-02-03T11:15:17.000Z</time>
      </trkpt>
      <trkpt lat="42.92594" lon="0.59407">
        <ele>1366</ele>
        <time>2019-02-03T11:15:18.000Z</time>
      </trkpt>
      <trkpt lat="42.92594" lon="0.59407">
        <ele>1366</ele>
        <time>2019-02-03T11:15:19.000Z</time>
      </trkpt>
      <trkpt lat="42.92594" lon="0.59407">
        <ele>1366</ele>
        <time>2019-02-03T11:15:20.000Z</time>
      </trkpt>
      <trkpt lat="42.92594" lon="0.59407">
        <ele>1366</ele>
        <time>2019-02-03T11:15:21.000Z</time>
      </trkpt>
      <trkpt lat="42.92594" lon="0.59407">
        <ele>1366</ele>
        <time>2019-02-03T11:15:22.000Z</time>
      </trkpt>
      <trkpt lat="42.92594" lon="0.59407">
        <ele>1366</ele>
        <time>2019-02-03T11:15:23.000Z</time>
      </trkpt>
      <trkpt lat="42.92594" lon="0.59407">
        <ele>1366</ele>
        <time>2019-02-03T11:15:24.000Z</time>
      </trkpt>
      <trkpt lat="42.92594" lon="0.59407">
        <ele>1366.5</ele>
        <time>2019-02-03T11:15:25.000Z</time>
      </trkpt>
      <trkpt lat="42.92594" lon="0.59408">
        <ele>1367</ele>
        <time>2019-02-03T11:15:26.000Z</time>
      </trkpt>
      <trkpt lat="42.92594" lon="0.59408">
        <ele>1367</ele>
        <time>2019-02-03T11:15:27.000Z</time>
      </trkpt>
      <trkpt lat="42.92594" lon="0.59408">
        <ele>1367</ele>
        <time>2019-02-03T11:15:28.000Z</time>
      </trkpt>
      <trkpt lat="42.92594" lon="0.59409">
        <ele>1367</ele>
        <time>2019-02-03T11:15:29.000Z</time>
      </trkpt>
      <trkpt lat="42.92594" lon="0.59409">
        <ele>1367</ele>
        <time>2019-02-03T11:15:30.000Z</time>
      </trkpt>
      <trkpt lat="42.92595" lon="0.5941">
        <ele>1368</ele>
        <time>2019-02-03T11:15:31.000Z</time>
      </trkpt>
      <trkpt lat="42.92595" lon="0.59411">
        <ele>1368</ele>
        <time>2019-02-03T11:15:32.000Z</time>
      </trkpt>
      <trkpt lat="42.92595" lon="0.59411">
        <ele>1368</ele>
        <time>2019-02-03T11:15:33.000Z</time>
      </trkpt>
      <trkpt lat="42.92595" lon="0.59412">
        <ele>1368</ele>
        <time>2019-02-03T11:15:34.000Z</time>
      </trkpt>
      <trkpt lat="42.92595" lon="0.59412">
        <ele>1368</ele>
        <time>2019-02-03T11:15:35.000Z</time>
      </trkpt>
      <trkpt lat="42.92596" lon="0.59412">
        <ele>1368</ele>
        <time>2019-02-03T11:15:36.000Z</time>
      </trkpt>
      <trkpt lat="42.92596" lon="0.59412">
        <ele>1368</ele>
        <time>2019-02-03T11:15:37.000Z</time>
      </trkpt>
      <trkpt lat="42.92596" lon="0.59412">
        <ele>1368.5</ele>
        <time>2019-02-03T11:15:38.000Z</time>
      </trkpt>
      <trkpt lat="42.92596" lon="0.59412">
        <ele>1369</ele>
        <time>2019-02-03T11:15:39.000Z</time>
      </trkpt>
      <trkpt lat="42.92596" lon="0.59412">
        <ele>1369</ele>
        <time>2019-02-03T11:15:40.000Z</time>
      </trkpt>
      <trkpt lat="42.92596" lon="0.59412">
        <ele>1369</ele>
        <time>2019-02-03T11:15:41.000Z</time>
      </trkpt>
      <trkpt lat="42.92595" lon="0.59413">
        <ele>1369</ele>
        <time>2019-02-03T11:15:42.000Z</time>
      </trkpt>
      <trkpt lat="42.92595" lon="0.59413">
        <ele>1369</ele>
        <time>2019-02-03T11:15:43.000Z</time>
      </trkpt>
      <trkpt lat="42.92594" lon="0.59414">
        <ele>1369.5</ele>
        <time>2019-02-03T11:15:44.000Z</time>
      </trkpt>
      <trkpt lat="42.92594" lon="0.59414">
        <ele>1370</ele>
        <time>2019-02-03T11:15:45.000Z</time>
      </trkpt>
      <trkpt lat="42.92594" lon="0.59415">
        <ele>1370</ele>
        <time>2019-02-03T11:15:46.000Z</time>
      </trkpt>
      <trkpt lat="42.92594" lon="0.59415">
        <ele>1370</ele>
        <time>2019-02-03T11:15:47.000Z</time>
      </trkpt>
      <trkpt lat="42.92594" lon="0.59416">
        <ele>1370</ele>
        <time>2019-02-03T11:15:48.000Z</time>
      </trkpt>
      <trkpt lat="42.92594" lon="0.59417">
        <ele>1370</ele>
        <time>2019-02-03T11:15:49.000Z</time>
      </trkpt>
      <trkpt lat="42.92593" lon="0.59417">
        <ele>1370</ele>
        <time>2019-02-03T11:15:50.000Z</time>
      </trkpt>
      <trkpt lat="42.92593" lon="0.59418">
        <ele>1370</ele>
        <time>2019-02-03T11:15:51.000Z</time>
      </trkpt>
      <trkpt lat="42.92594" lon="0.59418">
        <ele>1370</ele>
        <time>2019-02-03T11:15:52.000Z</time>
      </trkpt>
      <trkpt lat="42.92594" lon="0.59419">
        <ele>1370</ele>
        <time>2019-02-03T11:15:53.000Z</time>
      </trkpt>
      <trkpt lat="42.92594" lon="0.59419">
        <ele>1370.3</ele>
        <time>2019-02-03T11:15:54.000Z</time>
      </trkpt>
      <trkpt lat="42.92594" lon="0.5942">
        <ele>1370.7</ele>
        <time>2019-02-03T11:15:55.000Z</time>
      </trkpt>
      <trkpt lat="42.92594" lon="0.5942">
        <ele>1371</ele>
        <time>2019-02-03T11:15:56.000Z</time>
      </trkpt>
      <trkpt lat="42.92595" lon="0.5942">
        <ele>1371</ele>
        <time>2019-02-03T11:15:57.000Z</time>
      </trkpt>
      <trkpt lat="42.92595" lon="0.59421">
        <ele>1371</ele>
        <time>2019-02-03T11:15:58.000Z</time>
      </trkpt>
      <trkpt lat="42.92595" lon="0.59421">
        <ele>1371</ele>
        <time>2019-02-03T11:15:59.000Z</time>
      </trkpt>
      <trkpt lat="42.92595" lon="0.59421">
        <ele>1371</ele>
        <time>2019-02-03T11:16:00.000Z</time>
      </trkpt>
      <trkpt lat="42.92595" lon="0.59421">
        <ele>1371</ele>
        <time>2019-02-03T11:16:01.000Z</time>
      </trkpt>
      <trkpt lat="42.92596" lon="0.59421">
        <ele>1371</ele>
        <time>2019-02-03T11:16:02.000Z</time>
      </trkpt>
      <trkpt lat="42.92596" lon="0.59421">
        <ele>1371</ele>
        <time>2019-02-03T11:16:03.000Z</time>
      </trkpt>
      <trkpt lat="42.92596" lon="0.59421">
        <ele>1371.5</ele>
        <time>2019-02-03T11:16:04.000Z</time>
      </trkpt>
      <trkpt lat="42.92596" lon="0.59421">
        <ele>1372</ele>
        <time>2019-02-03T11:16:05.000Z</time>
      </trkpt>
      <trkpt lat="42.92596" lon="0.59422">
        <ele>1372</ele>
        <time>2019-02-03T11:16:06.000Z</time>
      </trkpt>
      <trkpt lat="42.92596" lon="0.59422">
        <ele>1372</ele>
        <time>2019-02-03T11:16:07.000Z</time>
      </trkpt>
      <trkpt lat="42.92596" lon="0.59422">
        <ele>1372</ele>
        <time>2019-02-03T11:16:08.000Z</time>
      </trkpt>
      <trkpt lat="42.92596" lon="0.59423">
        <ele>1372</ele>
        <time>2019-02-03T11:16:09.000Z</time>
      </trkpt>
      <trkpt lat="42.92596" lon="0.59423">
        <ele>1372</ele>
        <time>2019-02-03T11:16:10.000Z</time>
      </trkpt>
      <trkpt lat="42.92596" lon="0.59423">
        <ele>1372</ele>
        <time>2019-02-03T11:16:11.000Z</time>
      </trkpt>
      <trkpt lat="42.92596" lon="0.59424">
        <ele>1372</ele>
        <time>2019-02-03T11:16:12.000Z</time>
      </trkpt>
      <trkpt lat="42.92596" lon="0.59424">
        <ele>1372</ele>
        <time>2019-02-03T11:16:13.000Z</time>
      </trkpt>
      <trkpt lat="42.92596" lon="0.59425">
        <ele>1372</ele>
        <time>2019-02-03T11:16:14.000Z</time>
      </trkpt>
      <trkpt lat="42.92596" lon="0.59425">
        <ele>1373</ele>
        <time>2019-02-03T11:16:15.000Z</time>
      </trkpt>
      <trkpt lat="42.92596" lon="0.59426">
        <ele>1373</ele>
        <time>2019-02-03T11:16:16.000Z</time>
      </trkpt>
      <trkpt lat="42.92596" lon="0.59426">
        <ele>1373</ele>
        <time>2019-02-03T11:16:17.000Z</time>
      </trkpt>
      <trkpt lat="42.92596" lon="0.59426">
        <ele>1373</ele>
        <time>2019-02-03T11:16:18.000Z</time>
      </trkpt>
      <trkpt lat="42.92596" lon="0.59427">
        <ele>1373</ele>
        <time>2019-02-03T11:16:19.000Z</time>
      </trkpt>
      <trkpt lat="42.92596" lon="0.59427">
        <ele>1373</ele>
        <time>2019-02-03T11:16:20.000Z</time>
      </trkpt>
      <trkpt lat="42.92596" lon="0.59427">
        <ele>1374</ele>
        <time>2019-02-03T11:16:21.000Z</time>
      </trkpt>
      <trkpt lat="42.92596" lon="0.59427">
        <ele>1374</ele>
        <time>2019-02-03T11:16:22.000Z</time>
      </trkpt>
      <trkpt lat="42.92596" lon="0.59428">
        <ele>1374</ele>
        <time>2019-02-03T11:16:23.000Z</time>
      </trkpt>
      <trkpt lat="42.92596" lon="0.59428">
        <ele>1374</ele>
        <time>2019-02-03T11:16:24.000Z</time>
      </trkpt>
      <trkpt lat="42.92596" lon="0.59428">
        <ele>1374</ele>
        <time>2019-02-03T11:16:25.000Z</time>
      </trkpt>
      <trkpt lat="42.92596" lon="0.59428">
        <ele>1374</ele>
        <time>2019-02-03T11:16:26.000Z</time>
      </trkpt>
      <trkpt lat="42.92596" lon="0.59428">
        <ele>1374</ele>
        <time>2019-02-03T11:16:27.000Z</time>
      </trkpt>
      <trkpt lat="42.92596" lon="0.59428">
        <ele>1374</ele>
        <time>2019-02-03T11:16:28.000Z</time>
      </trkpt>
      <trkpt lat="42.92596" lon="0.59428">
        <ele>1374</ele>
        <time>2019-02-03T11:16:29.000Z</time>
      </trkpt>
      <trkpt lat="42.92596" lon="0.59428">
        <ele>1374</ele>
        <time>2019-02-03T11:16:30.000Z</time>
      </trkpt>
      <trkpt lat="42.92596" lon="0.59428">
        <ele>1374</ele>
        <time>2019-02-03T11:16:31.000Z</time>
      </trkpt>
      <trkpt lat="42.92597" lon="0.59428">
        <ele>1374</ele>
        <time>2019-02-03T11:16:32.000Z</time>
      </trkpt>
      <trkpt lat="42.92597" lon="0.59428">
        <ele>1374</ele>
        <time>2019-02-03T11:16:33.000Z</time>
      </trkpt>
      <trkpt lat="42.92597" lon="0.59428">
        <ele>1374</ele>
        <time>2019-02-03T11:16:34.000Z</time>
      </trkpt>
      <trkpt lat="42.92597" lon="0.59428">
        <ele>1374.5</ele>
        <time>2019-02-03T11:16:35.000Z</time>
      </trkpt>
      <trkpt lat="42.92597" lon="0.59428">
        <ele>1375</ele>
        <time>2019-02-03T11:16:36.000Z</time>
      </trkpt>
      <trkpt lat="42.92597" lon="0.59429">
        <ele>1375</ele>
        <time>2019-02-03T11:16:37.000Z</time>
      </trkpt>
      <trkpt lat="42.92597" lon="0.59429">
        <ele>1375</ele>
        <time>2019-02-03T11:16:38.000Z</time>
      </trkpt>
      <trkpt lat="42.92597" lon="0.59429">
        <ele>1375</ele>
        <time>2019-02-03T11:16:39.000Z</time>
      </trkpt>
      <trkpt lat="42.92597" lon="0.5943">
        <ele>1375</ele>
        <time>2019-02-03T11:16:40.000Z</time>
      </trkpt>
      <trkpt lat="42.92597" lon="0.5943">
        <ele>1375</ele>
        <time>2019-02-03T11:16:41.000Z</time>
      </trkpt>
      <trkpt lat="42.92597" lon="0.59431">
        <ele>1375</ele>
        <time>2019-02-03T11:16:42.000Z</time>
      </trkpt>
      <trkpt lat="42.92597" lon="0.59431">
        <ele>1375</ele>
        <time>2019-02-03T11:16:43.000Z</time>
      </trkpt>
      <trkpt lat="42.92597" lon="0.59431">
        <ele>1375.5</ele>
        <time>2019-02-03T11:16:44.000Z</time>
      </trkpt>
      <trkpt lat="42.92597" lon="0.59432">
        <ele>1376</ele>
        <time>2019-02-03T11:16:45.000Z</time>
      </trkpt>
      <trkpt lat="42.92597" lon="0.59432">
        <ele>1376</ele>
        <time>2019-02-03T11:16:46.000Z</time>
      </trkpt>
      <trkpt lat="42.92597" lon="0.59432">
        <ele>1376</ele>
        <time>2019-02-03T11:16:47.000Z</time>
      </trkpt>
      <trkpt lat="42.92597" lon="0.59432">
        <ele>1376</ele>
        <time>2019-02-03T11:16:48.000Z</time>
      </trkpt>
      <trkpt lat="42.92597" lon="0.59432">
        <ele>1376.5</ele>
        <time>2019-02-03T11:16:49.000Z</time>
      </trkpt>
      <trkpt lat="42.92597" lon="0.59433">
        <ele>1377</ele>
        <time>2019-02-03T11:16:50.000Z</time>
      </trkpt>
      <trkpt lat="42.92597" lon="0.59433">
        <ele>1377</ele>
        <time>2019-02-03T11:16:51.000Z</time>
      </trkpt>
      <trkpt lat="42.92597" lon="0.59433">
        <ele>1377</ele>
        <time>2019-02-03T11:16:52.000Z</time>
      </trkpt>
      <trkpt lat="42.92597" lon="0.59433">
        <ele>1377</ele>
        <time>2019-02-03T11:16:53.000Z</time>
      </trkpt>
      <trkpt lat="42.92597" lon="0.59433">
        <ele>1377</ele>
        <time>2019-02-03T11:16:54.000Z</time>
      </trkpt>
      <trkpt lat="42.92597" lon="0.59433">
        <ele>1377</ele>
        <time>2019-02-03T11:16:55.000Z</time>
      </trkpt>
      <trkpt lat="42.92597" lon="0.59433">
        <ele>1377.5</ele>
        <time>2019-02-03T11:16:56.000Z</time>
      </trkpt>
      <trkpt lat="42.92597" lon="0.59433">
        <ele>1378</ele>
        <time>2019-02-03T11:16:57.000Z</time>
      </trkpt>
      <trkpt lat="42.92597" lon="0.59433">
        <ele>1378</ele>
        <time>2019-02-03T11:16:58.000Z</time>
      </trkpt>
      <trkpt lat="42.92597" lon="0.59433">
        <ele>1378</ele>
        <time>2019-02-03T11:16:59.000Z</time>
      </trkpt>
      <trkpt lat="42.92597" lon="0.59433">
        <ele>1378</ele>
        <time>2019-02-03T11:17:00.000Z</time>
      </trkpt>
      <trkpt lat="42.92597" lon="0.59433">
        <ele>1378</ele>
        <time>2019-02-03T11:17:01.000Z</time>
      </trkpt>
      <trkpt lat="42.92597" lon="0.59433">
        <ele>1378.5</ele>
        <time>2019-02-03T11:17:02.000Z</time>
      </trkpt>
      <trkpt lat="42.92597" lon="0.59433">
        <ele>1379</ele>
        <time>2019-02-03T11:17:03.000Z</time>
      </trkpt>
      <trkpt lat="42.92597" lon="0.59433">
        <ele>1379</ele>
        <time>2019-02-03T11:17:04.000Z</time>
      </trkpt>
      <trkpt lat="42.92597" lon="0.59433">
        <ele>1379</ele>
        <time>2019-02-03T11:17:05.000Z</time>
      </trkpt>
      <trkpt lat="42.92597" lon="0.59433">
        <ele>1379</ele>
        <time>2019-02-03T11:17:06.000Z</time>
      </trkpt>
      <trkpt lat="42.92597" lon="0.59433">
        <ele>1379</ele>
        <time>2019-02-03T11:17:07.000Z</time>
      </trkpt>
      <trkpt lat="42.92597" lon="0.59433">
        <ele>1379</ele>
        <time>2019-02-03T11:17:08.000Z</time>
      </trkpt>
      <trkpt lat="42.92597" lon="0.59433">
        <ele>1379</ele>
        <time>2019-02-03T11:17:09.000Z</time>
      </trkpt>
      <trkpt lat="42.92597" lon="0.59433">
        <ele>1379</ele>
        <time>2019-02-03T11:17:10.000Z</time>
      </trkpt>
      <trkpt lat="42.92597" lon="0.59433">
        <ele>1379</ele>
        <time>2019-02-03T11:17:11.000Z</time>
      </trkpt>
      <trkpt lat="42.92597" lon="0.59433">
        <ele>1379</ele>
        <time>2019-02-03T11:17:12.000Z</time>
      </trkpt>
      <trkpt lat="42.92597" lon="0.59433">
        <ele>1379</ele>
        <time>2019-02-03T11:17:13.000Z</time>
      </trkpt>
      <trkpt lat="42.92597" lon="0.59433">
        <ele>1379</ele>
        <time>2019-02-03T11:17:14.000Z</time>
      </trkpt>
      <trkpt lat="42.92597" lon="0.59434">
        <ele>1379.5</ele>
        <time>2019-02-03T11:17:15.000Z</time>
      </trkpt>
      <trkpt lat="42.92597" lon="0.59434">
        <ele>1380</ele>
        <time>2019-02-03T11:17:16.000Z</time>
      </trkpt>
      <trkpt lat="42.92596" lon="0.59435">
        <ele>1380</ele>
        <time>2019-02-03T11:17:17.000Z</time>
      </trkpt>
      <trkpt lat="42.92596" lon="0.59436">
        <ele>1380</ele>
        <time>2019-02-03T11:17:18.000Z</time>
      </trkpt>
      <trkpt lat="42.92596" lon="0.59436">
        <ele>1380</ele>
        <time>2019-02-03T11:17:19.000Z</time>
      </trkpt>
      <trkpt lat="42.92595" lon="0.59437">
        <ele>1380</ele>
        <time>2019-02-03T11:17:20.000Z</time>
      </trkpt>
      <trkpt lat="42.92595" lon="0.59437">
        <ele>1380</ele>
        <time>2019-02-03T11:17:21.000Z</time>
      </trkpt>
      <trkpt lat="42.92595" lon="0.59438">
        <ele>1380.3</ele>
        <time>2019-02-03T11:17:22.000Z</time>
      </trkpt>
      <trkpt lat="42.92595" lon="0.59439">
        <ele>1380.7</ele>
        <time>2019-02-03T11:17:23.000Z</time>
      </trkpt>
      <trkpt lat="42.92595" lon="0.59439">
        <ele>1381</ele>
        <time>2019-02-03T11:17:24.000Z</time>
      </trkpt>
      <trkpt lat="42.92595" lon="0.5944">
        <ele>1381</ele>
        <time>2019-02-03T11:17:25.000Z</time>
      </trkpt>
      <trkpt lat="42.92595" lon="0.59441">
        <ele>1381</ele>
        <time>2019-02-03T11:17:26.000Z</time>
      </trkpt>
      <trkpt lat="42.92595" lon="0.59442">
        <ele>1381</ele>
        <time>2019-02-03T11:17:27.000Z</time>
      </trkpt>
      <trkpt lat="42.92595" lon="0.59442">
        <ele>1381</ele>
        <time>2019-02-03T11:17:28.000Z</time>
      </trkpt>
      <trkpt lat="42.92595" lon="0.59443">
        <ele>1381</ele>
        <time>2019-02-03T11:17:29.000Z</time>
      </trkpt>
      <trkpt lat="42.92595" lon="0.59443">
        <ele>1381</ele>
        <time>2019-02-03T11:17:30.000Z</time>
      </trkpt>
      <trkpt lat="42.92595" lon="0.59444">
        <ele>1382</ele>
        <time>2019-02-03T11:17:31.000Z</time>
      </trkpt>
      <trkpt lat="42.92595" lon="0.59444">
        <ele>1382</ele>
        <time>2019-02-03T11:17:32.000Z</time>
      </trkpt>
      <trkpt lat="42.92595" lon="0.59445">
        <ele>1382</ele>
        <time>2019-02-03T11:17:33.000Z</time>
      </trkpt>
      <trkpt lat="42.92595" lon="0.59445">
        <ele>1382</ele>
        <time>2019-02-03T11:17:34.000Z</time>
      </trkpt>
      <trkpt lat="42.92595" lon="0.59446">
        <ele>1382</ele>
        <time>2019-02-03T11:17:35.000Z</time>
      </trkpt>
      <trkpt lat="42.92596" lon="0.59446">
        <ele>1382</ele>
        <time>2019-02-03T11:17:36.000Z</time>
      </trkpt>
      <trkpt lat="42.92596" lon="0.59447">
        <ele>1382</ele>
        <time>2019-02-03T11:17:37.000Z</time>
      </trkpt>
      <trkpt lat="42.92596" lon="0.59448">
        <ele>1382</ele>
        <time>2019-02-03T11:17:38.000Z</time>
      </trkpt>
      <trkpt lat="42.92596" lon="0.59448">
        <ele>1382.5</ele>
        <time>2019-02-03T11:17:39.000Z</time>
      </trkpt>
      <trkpt lat="42.92596" lon="0.59449">
        <ele>1383</ele>
        <time>2019-02-03T11:17:40.000Z</time>
      </trkpt>
      <trkpt lat="42.92596" lon="0.59449">
        <ele>1383</ele>
        <time>2019-02-03T11:17:41.000Z</time>
      </trkpt>
      <trkpt lat="42.92595" lon="0.5945">
        <ele>1383</ele>
        <time>2019-02-03T11:17:42.000Z</time>
      </trkpt>
      <trkpt lat="42.92595" lon="0.5945">
        <ele>1383</ele>
        <time>2019-02-03T11:17:43.000Z</time>
      </trkpt>
      <trkpt lat="42.92595" lon="0.5945">
        <ele>1383</ele>
        <time>2019-02-03T11:17:44.000Z</time>
      </trkpt>
      <trkpt lat="42.92594" lon="0.59451">
        <ele>1383</ele>
        <time>2019-02-03T11:17:45.000Z</time>
      </trkpt>
      <trkpt lat="42.92593" lon="0.59451">
        <ele>1383</ele>
        <time>2019-02-03T11:17:46.000Z</time>
      </trkpt>
      <trkpt lat="42.92592" lon="0.59451">
        <ele>1384</ele>
        <time>2019-02-03T11:17:47.000Z</time>
      </trkpt>
      <trkpt lat="42.92591" lon="0.59451">
        <ele>1384</ele>
        <time>2019-02-03T11:17:48.000Z</time>
      </trkpt>
      <trkpt lat="42.92591" lon="0.59452">
        <ele>1384</ele>
        <time>2019-02-03T11:17:49.000Z</time>
      </trkpt>
      <trkpt lat="42.9259" lon="0.59452">
        <ele>1384</ele>
        <time>2019-02-03T11:17:50.000Z</time>
      </trkpt>
      <trkpt lat="42.92589" lon="0.59452">
        <ele>1384</ele>
        <time>2019-02-03T11:17:51.000Z</time>
      </trkpt>
      <trkpt lat="42.92588" lon="0.59453">
        <ele>1384</ele>
        <time>2019-02-03T11:17:52.000Z</time>
      </trkpt>
      <trkpt lat="42.92588" lon="0.59453">
        <ele>1384</ele>
        <time>2019-02-03T11:17:53.000Z</time>
      </trkpt>
      <trkpt lat="42.92588" lon="0.59453">
        <ele>1384.3</ele>
        <time>2019-02-03T11:17:54.000Z</time>
      </trkpt>
      <trkpt lat="42.92587" lon="0.59454">
        <ele>1384.7</ele>
        <time>2019-02-03T11:17:55.000Z</time>
      </trkpt>
      <trkpt lat="42.92587" lon="0.59454">
        <ele>1385</ele>
        <time>2019-02-03T11:17:56.000Z</time>
      </trkpt>
      <trkpt lat="42.92587" lon="0.59454">
        <ele>1385</ele>
        <time>2019-02-03T11:17:57.000Z</time>
      </trkpt>
      <trkpt lat="42.92586" lon="0.59455">
        <ele>1385</ele>
        <time>2019-02-03T11:17:58.000Z</time>
      </trkpt>
      <trkpt lat="42.92586" lon="0.59455">
        <ele>1385</ele>
        <time>2019-02-03T11:17:59.000Z</time>
      </trkpt>
      <trkpt lat="42.92586" lon="0.59455">
        <ele>1385</ele>
        <time>2019-02-03T11:18:00.000Z</time>
      </trkpt>
      <trkpt lat="42.92585" lon="0.59455">
        <ele>1385</ele>
        <time>2019-02-03T11:18:01.000Z</time>
      </trkpt>
      <trkpt lat="42.92585" lon="0.59455">
        <ele>1385</ele>
        <time>2019-02-03T11:18:02.000Z</time>
      </trkpt>
      <trkpt lat="42.92585" lon="0.59455">
        <ele>1385</ele>
        <time>2019-02-03T11:18:03.000Z</time>
      </trkpt>
      <trkpt lat="42.92584" lon="0.59455">
        <ele>1385</ele>
        <time>2019-02-03T11:18:04.000Z</time>
      </trkpt>
      <trkpt lat="42.92584" lon="0.59455">
        <ele>1385</ele>
        <time>2019-02-03T11:18:05.000Z</time>
      </trkpt>
      <trkpt lat="42.92585" lon="0.59455">
        <ele>1385.3</ele>
        <time>2019-02-03T11:18:06.000Z</time>
      </trkpt>
      <trkpt lat="42.92585" lon="0.59455">
        <ele>1385.7</ele>
        <time>2019-02-03T11:18:07.000Z</time>
      </trkpt>
      <trkpt lat="42.92585" lon="0.59455">
        <ele>1386</ele>
        <time>2019-02-03T11:18:08.000Z</time>
      </trkpt>
      <trkpt lat="42.92585" lon="0.59455">
        <ele>1386</ele>
        <time>2019-02-03T11:18:09.000Z</time>
      </trkpt>
      <trkpt lat="42.92585" lon="0.59455">
        <ele>1386</ele>
        <time>2019-02-03T11:18:10.000Z</time>
      </trkpt>
      <trkpt lat="42.92585" lon="0.59456">
        <ele>1386</ele>
        <time>2019-02-03T11:18:11.000Z</time>
      </trkpt>
      <trkpt lat="42.92585" lon="0.59456">
        <ele>1386</ele>
        <time>2019-02-03T11:18:12.000Z</time>
      </trkpt>
      <trkpt lat="42.92585" lon="0.59456">
        <ele>1386</ele>
        <time>2019-02-03T11:18:13.000Z</time>
      </trkpt>
      <trkpt lat="42.92585" lon="0.59456">
        <ele>1386</ele>
        <time>2019-02-03T11:18:14.000Z</time>
      </trkpt>
      <trkpt lat="42.92585" lon="0.59456">
        <ele>1386</ele>
        <time>2019-02-03T11:18:15.000Z</time>
      </trkpt>
      <trkpt lat="42.92585" lon="0.59456">
        <ele>1386.3</ele>
        <time>2019-02-03T11:18:16.000Z</time>
      </trkpt>
      <trkpt lat="42.92585" lon="0.59457">
        <ele>1386.7</ele>
        <time>2019-02-03T11:18:17.000Z</time>
      </trkpt>
      <trkpt lat="42.92585" lon="0.59457">
        <ele>1387</ele>
        <time>2019-02-03T11:18:18.000Z</time>
      </trkpt>
      <trkpt lat="42.92584" lon="0.59457">
        <ele>1387</ele>
        <time>2019-02-03T11:18:19.000Z</time>
      </trkpt>
      <trkpt lat="42.92584" lon="0.59458">
        <ele>1387</ele>
        <time>2019-02-03T11:18:20.000Z</time>
      </trkpt>
      <trkpt lat="42.92584" lon="0.59458">
        <ele>1387</ele>
        <time>2019-02-03T11:18:21.000Z</time>
      </trkpt>
      <trkpt lat="42.92584" lon="0.59459">
        <ele>1387</ele>
        <time>2019-02-03T11:18:22.000Z</time>
      </trkpt>
      <trkpt lat="42.92583" lon="0.59459">
        <ele>1387</ele>
        <time>2019-02-03T11:18:23.000Z</time>
      </trkpt>
      <trkpt lat="42.92583" lon="0.59459">
        <ele>1387</ele>
        <time>2019-02-03T11:18:24.000Z</time>
      </trkpt>
      <trkpt lat="42.92583" lon="0.5946">
        <ele>1387.5</ele>
        <time>2019-02-03T11:18:25.000Z</time>
      </trkpt>
      <trkpt lat="42.92583" lon="0.5946">
        <ele>1388</ele>
        <time>2019-02-03T11:18:26.000Z</time>
      </trkpt>
      <trkpt lat="42.92583" lon="0.59461">
        <ele>1388</ele>
        <time>2019-02-03T11:18:27.000Z</time>
      </trkpt>
      <trkpt lat="42.92583" lon="0.59461">
        <ele>1388</ele>
        <time>2019-02-03T11:18:28.000Z</time>
      </trkpt>
      <trkpt lat="42.92583" lon="0.59461">
        <ele>1388</ele>
        <time>2019-02-03T11:18:29.000Z</time>
      </trkpt>
      <trkpt lat="42.92583" lon="0.59462">
        <ele>1388</ele>
        <time>2019-02-03T11:18:30.000Z</time>
      </trkpt>
      <trkpt lat="42.92583" lon="0.59462">
        <ele>1388</ele>
        <time>2019-02-03T11:18:31.000Z</time>
      </trkpt>
      <trkpt lat="42.92583" lon="0.59462">
        <ele>1388</ele>
        <time>2019-02-03T11:18:32.000Z</time>
      </trkpt>
      <trkpt lat="42.92583" lon="0.59463">
        <ele>1389</ele>
        <time>2019-02-03T11:18:33.000Z</time>
      </trkpt>
      <trkpt lat="42.92583" lon="0.59463">
        <ele>1389</ele>
        <time>2019-02-03T11:18:34.000Z</time>
      </trkpt>
      <trkpt lat="42.92584" lon="0.59463">
        <ele>1389</ele>
        <time>2019-02-03T11:18:35.000Z</time>
      </trkpt>
      <trkpt lat="42.92584" lon="0.59464">
        <ele>1389</ele>
        <time>2019-02-03T11:18:36.000Z</time>
      </trkpt>
      <trkpt lat="42.92584" lon="0.59464">
        <ele>1389</ele>
        <time>2019-02-03T11:18:37.000Z</time>
      </trkpt>
      <trkpt lat="42.92584" lon="0.59464">
        <ele>1389</ele>
        <time>2019-02-03T11:18:38.000Z</time>
      </trkpt>
      <trkpt lat="42.92584" lon="0.59465">
        <ele>1389</ele>
        <time>2019-02-03T11:18:39.000Z</time>
      </trkpt>
      <trkpt lat="42.92584" lon="0.59465">
        <ele>1389</ele>
        <time>2019-02-03T11:18:40.000Z</time>
      </trkpt>
      <trkpt lat="42.92585" lon="0.59465">
        <ele>1389</ele>
        <time>2019-02-03T11:18:41.000Z</time>
      </trkpt>
      <trkpt lat="42.92585" lon="0.59466">
        <ele>1389.3</ele>
        <time>2019-02-03T11:18:42.000Z</time>
      </trkpt>
      <trkpt lat="42.92585" lon="0.59466">
        <ele>1389.7</ele>
        <time>2019-02-03T11:18:43.000Z</time>
      </trkpt>
      <trkpt lat="42.92585" lon="0.59467">
        <ele>1390</ele>
        <time>2019-02-03T11:18:44.000Z</time>
      </trkpt>
      <trkpt lat="42.92585" lon="0.59467">
        <ele>1390</ele>
        <time>2019-02-03T11:18:45.000Z</time>
      </trkpt>
      <trkpt lat="42.92586" lon="0.59468">
        <ele>1390</ele>
        <time>2019-02-03T11:18:46.000Z</time>
      </trkpt>
      <trkpt lat="42.92586" lon="0.59468">
        <ele>1390</ele>
        <time>2019-02-03T11:18:47.000Z</time>
      </trkpt>
      <trkpt lat="42.92586" lon="0.59469">
        <ele>1390</ele>
        <time>2019-02-03T11:18:48.000Z</time>
      </trkpt>
      <trkpt lat="42.92586" lon="0.59469">
        <ele>1390</ele>
        <time>2019-02-03T11:18:49.000Z</time>
      </trkpt>
      <trkpt lat="42.92586" lon="0.5947">
        <ele>1390.5</ele>
        <time>2019-02-03T11:18:50.000Z</time>
      </trkpt>
      <trkpt lat="42.92586" lon="0.5947">
        <ele>1391</ele>
        <time>2019-02-03T11:18:51.000Z</time>
      </trkpt>
      <trkpt lat="42.92586" lon="0.5947">
        <ele>1391</ele>
        <time>2019-02-03T11:18:52.000Z</time>
      </trkpt>
      <trkpt lat="42.92586" lon="0.59471">
        <ele>1391</ele>
        <time>2019-02-03T11:18:53.000Z</time>
      </trkpt>
      <trkpt lat="42.92586" lon="0.59471">
        <ele>1391</ele>
        <time>2019-02-03T11:18:54.000Z</time>
      </trkpt>
      <trkpt lat="42.92586" lon="0.59471">
        <ele>1391</ele>
        <time>2019-02-03T11:18:55.000Z</time>
      </trkpt>
      <trkpt lat="42.92586" lon="0.59471">
        <ele>1391</ele>
        <time>2019-02-03T11:18:56.000Z</time>
      </trkpt>
      <trkpt lat="42.92585" lon="0.59472">
        <ele>1391</ele>
        <time>2019-02-03T11:18:57.000Z</time>
      </trkpt>
      <trkpt lat="42.92585" lon="0.59472">
        <ele>1391.5</ele>
        <time>2019-02-03T11:18:58.000Z</time>
      </trkpt>
      <trkpt lat="42.92585" lon="0.59472">
        <ele>1392</ele>
        <time>2019-02-03T11:18:59.000Z</time>
      </trkpt>
      <trkpt lat="42.92585" lon="0.59472">
        <ele>1392</ele>
        <time>2019-02-03T11:19:00.000Z</time>
      </trkpt>
      <trkpt lat="42.92585" lon="0.59472">
        <ele>1392</ele>
        <time>2019-02-03T11:19:01.000Z</time>
      </trkpt>
      <trkpt lat="42.92585" lon="0.59473">
        <ele>1392</ele>
        <time>2019-02-03T11:19:02.000Z</time>
      </trkpt>
      <trkpt lat="42.92584" lon="0.59473">
        <ele>1392</ele>
        <time>2019-02-03T11:19:03.000Z</time>
      </trkpt>
      <trkpt lat="42.92584" lon="0.59473">
        <ele>1392</ele>
        <time>2019-02-03T11:19:04.000Z</time>
      </trkpt>
      <trkpt lat="42.92584" lon="0.59473">
        <ele>1392</ele>
        <time>2019-02-03T11:19:05.000Z</time>
      </trkpt>
      <trkpt lat="42.92584" lon="0.59473">
        <ele>1392</ele>
        <time>2019-02-03T11:19:06.000Z</time>
      </trkpt>
      <trkpt lat="42.92583" lon="0.59473">
        <ele>1393</ele>
        <time>2019-02-03T11:19:07.000Z</time>
      </trkpt>
      <trkpt lat="42.92583" lon="0.59473">
        <ele>1393</ele>
        <time>2019-02-03T11:19:08.000Z</time>
      </trkpt>
      <trkpt lat="42.92583" lon="0.59474">
        <ele>1393</ele>
        <time>2019-02-03T11:19:09.000Z</time>
      </trkpt>
      <trkpt lat="42.92583" lon="0.59474">
        <ele>1393</ele>
        <time>2019-02-03T11:19:10.000Z</time>
      </trkpt>
      <trkpt lat="42.92583" lon="0.59474">
        <ele>1393</ele>
        <time>2019-02-03T11:19:11.000Z</time>
      </trkpt>
      <trkpt lat="42.92583" lon="0.59474">
        <ele>1393</ele>
        <time>2019-02-03T11:19:12.000Z</time>
      </trkpt>
      <trkpt lat="42.92583" lon="0.59474">
        <ele>1393</ele>
        <time>2019-02-03T11:19:13.000Z</time>
      </trkpt>
      <trkpt lat="42.92583" lon="0.59474">
        <ele>1393.5</ele>
        <time>2019-02-03T11:19:14.000Z</time>
      </trkpt>
      <trkpt lat="42.92583" lon="0.59475">
        <ele>1394</ele>
        <time>2019-02-03T11:19:15.000Z</time>
      </trkpt>
      <trkpt lat="42.92583" lon="0.59475">
        <ele>1394</ele>
        <time>2019-02-03T11:19:16.000Z</time>
      </trkpt>
      <trkpt lat="42.92583" lon="0.59475">
        <ele>1394</ele>
        <time>2019-02-03T11:19:17.000Z</time>
      </trkpt>
      <trkpt lat="42.92583" lon="0.59475">
        <ele>1394</ele>
        <time>2019-02-03T11:19:18.000Z</time>
      </trkpt>
      <trkpt lat="42.92583" lon="0.59476">
        <ele>1394</ele>
        <time>2019-02-03T11:19:19.000Z</time>
      </trkpt>
      <trkpt lat="42.92583" lon="0.59476">
        <ele>1394</ele>
        <time>2019-02-03T11:19:20.000Z</time>
      </trkpt>
      <trkpt lat="42.92583" lon="0.59476">
        <ele>1394</ele>
        <time>2019-02-03T11:19:21.000Z</time>
      </trkpt>
      <trkpt lat="42.92583" lon="0.59477">
        <ele>1394</ele>
        <time>2019-02-03T11:19:22.000Z</time>
      </trkpt>
      <trkpt lat="42.92583" lon="0.59477">
        <ele>1394</ele>
        <time>2019-02-03T11:19:23.000Z</time>
      </trkpt>
      <trkpt lat="42.92583" lon="0.59477">
        <ele>1394.3</ele>
        <time>2019-02-03T11:19:24.000Z</time>
      </trkpt>
      <trkpt lat="42.92584" lon="0.59478">
        <ele>1394.7</ele>
        <time>2019-02-03T11:19:25.000Z</time>
      </trkpt>
      <trkpt lat="42.92584" lon="0.59478">
        <ele>1395</ele>
        <time>2019-02-03T11:19:26.000Z</time>
      </trkpt>
      <trkpt lat="42.92584" lon="0.59478">
        <ele>1395</ele>
        <time>2019-02-03T11:19:27.000Z</time>
      </trkpt>
      <trkpt lat="42.92584" lon="0.59479">
        <ele>1395</ele>
        <time>2019-02-03T11:19:28.000Z</time>
      </trkpt>
      <trkpt lat="42.92584" lon="0.59479">
        <ele>1395</ele>
        <time>2019-02-03T11:19:29.000Z</time>
      </trkpt>
      <trkpt lat="42.92584" lon="0.5948">
        <ele>1395</ele>
        <time>2019-02-03T11:19:30.000Z</time>
      </trkpt>
      <trkpt lat="42.92584" lon="0.5948">
        <ele>1395</ele>
        <time>2019-02-03T11:19:31.000Z</time>
      </trkpt>
      <trkpt lat="42.92585" lon="0.5948">
        <ele>1395</ele>
        <time>2019-02-03T11:19:32.000Z</time>
      </trkpt>
      <trkpt lat="42.92585" lon="0.59481">
        <ele>1395</ele>
        <time>2019-02-03T11:19:33.000Z</time>
      </trkpt>
      <trkpt lat="42.92585" lon="0.59481">
        <ele>1395</ele>
        <time>2019-02-03T11:19:34.000Z</time>
      </trkpt>
      <trkpt lat="42.92585" lon="0.59482">
        <ele>1395</ele>
        <time>2019-02-03T11:19:35.000Z</time>
      </trkpt>
      <trkpt lat="42.92585" lon="0.59482">
        <ele>1395</ele>
        <time>2019-02-03T11:19:36.000Z</time>
      </trkpt>
      <trkpt lat="42.92585" lon="0.59483">
        <ele>1395.5</ele>
        <time>2019-02-03T11:19:37.000Z</time>
      </trkpt>
      <trkpt lat="42.92586" lon="0.59483">
        <ele>1396</ele>
        <time>2019-02-03T11:19:38.000Z</time>
      </trkpt>
      <trkpt lat="42.92586" lon="0.59484">
        <ele>1396</ele>
        <time>2019-02-03T11:19:39.000Z</time>
      </trkpt>
      <trkpt lat="42.92586" lon="0.59484">
        <ele>1396</ele>
        <time>2019-02-03T11:19:40.000Z</time>
      </trkpt>
      <trkpt lat="42.92586" lon="0.59484">
        <ele>1396</ele>
        <time>2019-02-03T11:19:41.000Z</time>
      </trkpt>
      <trkpt lat="42.92587" lon="0.59485">
        <ele>1396</ele>
        <time>2019-02-03T11:19:42.000Z</time>
      </trkpt>
      <trkpt lat="42.92587" lon="0.59485">
        <ele>1396</ele>
        <time>2019-02-03T11:19:43.000Z</time>
      </trkpt>
      <trkpt lat="42.92587" lon="0.59486">
        <ele>1396</ele>
        <time>2019-02-03T11:19:44.000Z</time>
      </trkpt>
      <trkpt lat="42.92587" lon="0.59487">
        <ele>1396.5</ele>
        <time>2019-02-03T11:19:45.000Z</time>
      </trkpt>
      <trkpt lat="42.92587" lon="0.59487">
        <ele>1397</ele>
        <time>2019-02-03T11:19:46.000Z</time>
      </trkpt>
      <trkpt lat="42.92587" lon="0.59488">
        <ele>1397</ele>
        <time>2019-02-03T11:19:47.000Z</time>
      </trkpt>
      <trkpt lat="42.92587" lon="0.59488">
        <ele>1397</ele>
        <time>2019-02-03T11:19:48.000Z</time>
      </trkpt>
      <trkpt lat="42.92587" lon="0.59489">
        <ele>1397</ele>
        <time>2019-02-03T11:19:49.000Z</time>
      </trkpt>
      <trkpt lat="42.92587" lon="0.59489">
        <ele>1397</ele>
        <time>2019-02-03T11:19:50.000Z</time>
      </trkpt>
      <trkpt lat="42.92587" lon="0.59489">
        <ele>1397</ele>
        <time>2019-02-03T11:19:51.000Z</time>
      </trkpt>
      <trkpt lat="42.92587" lon="0.59489">
        <ele>1397.3</ele>
        <time>2019-02-03T11:19:52.000Z</time>
      </trkpt>
      <trkpt lat="42.92587" lon="0.59489">
        <ele>1397.7</ele>
        <time>2019-02-03T11:19:53.000Z</time>
      </trkpt>
      <trkpt lat="42.92587" lon="0.5949">
        <ele>1398</ele>
        <time>2019-02-03T11:19:54.000Z</time>
      </trkpt>
      <trkpt lat="42.92586" lon="0.5949">
        <ele>1398</ele>
        <time>2019-02-03T11:19:55.000Z</time>
      </trkpt>
      <trkpt lat="42.92586" lon="0.5949">
        <ele>1398</ele>
        <time>2019-02-03T11:19:56.000Z</time>
      </trkpt>
      <trkpt lat="42.92586" lon="0.5949">
        <ele>1398</ele>
        <time>2019-02-03T11:19:57.000Z</time>
      </trkpt>
      <trkpt lat="42.92586" lon="0.5949">
        <ele>1398</ele>
        <time>2019-02-03T11:19:58.000Z</time>
      </trkpt>
      <trkpt lat="42.92586" lon="0.5949">
        <ele>1398</ele>
        <time>2019-02-03T11:19:59.000Z</time>
      </trkpt>
      <trkpt lat="42.92586" lon="0.5949">
        <ele>1398</ele>
        <time>2019-02-03T11:20:00.000Z</time>
      </trkpt>
      <trkpt lat="42.92586" lon="0.5949">
        <ele>1399</ele>
        <time>2019-02-03T11:20:01.000Z</time>
      </trkpt>
      <trkpt lat="42.92586" lon="0.5949">
        <ele>1399</ele>
        <time>2019-02-03T11:20:02.000Z</time>
      </trkpt>
      <trkpt lat="42.92586" lon="0.5949">
        <ele>1399</ele>
        <time>2019-02-03T11:20:03.000Z</time>
      </trkpt>
      <trkpt lat="42.92585" lon="0.5949">
        <ele>1399</ele>
        <time>2019-02-03T11:20:04.000Z</time>
      </trkpt>
      <trkpt lat="42.92585" lon="0.5949">
        <ele>1399</ele>
        <time>2019-02-03T11:20:05.000Z</time>
      </trkpt>
      <trkpt lat="42.92585" lon="0.5949">
        <ele>1399.5</ele>
        <time>2019-02-03T11:20:06.000Z</time>
      </trkpt>
      <trkpt lat="42.92585" lon="0.5949">
        <ele>1400</ele>
        <time>2019-02-03T11:20:07.000Z</time>
      </trkpt>
      <trkpt lat="42.92585" lon="0.5949">
        <ele>1400</ele>
        <time>2019-02-03T11:20:08.000Z</time>
      </trkpt>
      <trkpt lat="42.92585" lon="0.59491">
        <ele>1400</ele>
        <time>2019-02-03T11:20:09.000Z</time>
      </trkpt>
      <trkpt lat="42.92585" lon="0.59491">
        <ele>1400</ele>
        <time>2019-02-03T11:20:10.000Z</time>
      </trkpt>
      <trkpt lat="42.92585" lon="0.59491">
        <ele>1400</ele>
        <time>2019-02-03T11:20:11.000Z</time>
      </trkpt>
      <trkpt lat="42.92584" lon="0.59491">
        <ele>1400</ele>
        <time>2019-02-03T11:20:12.000Z</time>
      </trkpt>
      <trkpt lat="42.92584" lon="0.59491">
        <ele>1400</ele>
        <time>2019-02-03T11:20:13.000Z</time>
      </trkpt>
      <trkpt lat="42.92584" lon="0.59491">
        <ele>1400</ele>
        <time>2019-02-03T11:20:14.000Z</time>
      </trkpt>
      <trkpt lat="42.92584" lon="0.59491">
        <ele>1401</ele>
        <time>2019-02-03T11:20:15.000Z</time>
      </trkpt>
      <trkpt lat="42.92584" lon="0.59491">
        <ele>1401</ele>
        <time>2019-02-03T11:20:16.000Z</time>
      </trkpt>
      <trkpt lat="42.92584" lon="0.59491">
        <ele>1401</ele>
        <time>2019-02-03T11:20:17.000Z</time>
      </trkpt>
      <trkpt lat="42.92584" lon="0.59491">
        <ele>1401</ele>
        <time>2019-02-03T11:20:18.000Z</time>
      </trkpt>
      <trkpt lat="42.92585" lon="0.59491">
        <ele>1401</ele>
        <time>2019-02-03T11:20:19.000Z</time>
      </trkpt>
      <trkpt lat="42.92584" lon="0.59491">
        <ele>1401</ele>
        <time>2019-02-03T11:20:20.000Z</time>
      </trkpt>
      <trkpt lat="42.92584" lon="0.59491">
        <ele>1401</ele>
        <time>2019-02-03T11:20:21.000Z</time>
      </trkpt>
      <trkpt lat="42.92584" lon="0.59491">
        <ele>1401</ele>
        <time>2019-02-03T11:20:22.000Z</time>
      </trkpt>
      <trkpt lat="42.92584" lon="0.59492">
        <ele>1401</ele>
        <time>2019-02-03T11:20:23.000Z</time>
      </trkpt>
      <trkpt lat="42.92584" lon="0.59492">
        <ele>1401</ele>
        <time>2019-02-03T11:20:24.000Z</time>
      </trkpt>
      <trkpt lat="42.92584" lon="0.59493">
        <ele>1401</ele>
        <time>2019-02-03T11:20:25.000Z</time>
      </trkpt>
      <trkpt lat="42.92584" lon="0.59494">
        <ele>1401</ele>
        <time>2019-02-03T11:20:26.000Z</time>
      </trkpt>
      <trkpt lat="42.92584" lon="0.59494">
        <ele>1401</ele>
        <time>2019-02-03T11:20:27.000Z</time>
      </trkpt>
      <trkpt lat="42.92584" lon="0.59495">
        <ele>1401</ele>
        <time>2019-02-03T11:20:28.000Z</time>
      </trkpt>
      <trkpt lat="42.92584" lon="0.59496">
        <ele>1402</ele>
        <time>2019-02-03T11:20:29.000Z</time>
      </trkpt>
      <trkpt lat="42.92584" lon="0.59496">
        <ele>1402</ele>
        <time>2019-02-03T11:20:30.000Z</time>
      </trkpt>
      <trkpt lat="42.92584" lon="0.59497">
        <ele>1402</ele>
        <time>2019-02-03T11:20:31.000Z</time>
      </trkpt>
      <trkpt lat="42.92584" lon="0.59498">
        <ele>1402.3</ele>
        <time>2019-02-03T11:20:32.000Z</time>
      </trkpt>
      <trkpt lat="42.92584" lon="0.59498">
        <ele>1402.7</ele>
        <time>2019-02-03T11:20:33.000Z</time>
      </trkpt>
      <trkpt lat="42.92584" lon="0.59498">
        <ele>1403</ele>
        <time>2019-02-03T11:20:34.000Z</time>
      </trkpt>
      <trkpt lat="42.92584" lon="0.59499">
        <ele>1403</ele>
        <time>2019-02-03T11:20:35.000Z</time>
      </trkpt>
      <trkpt lat="42.92584" lon="0.59499">
        <ele>1403</ele>
        <time>2019-02-03T11:20:36.000Z</time>
      </trkpt>
      <trkpt lat="42.92584" lon="0.59499">
        <ele>1403</ele>
        <time>2019-02-03T11:20:37.000Z</time>
      </trkpt>
      <trkpt lat="42.92584" lon="0.59499">
        <ele>1403</ele>
        <time>2019-02-03T11:20:38.000Z</time>
      </trkpt>
      <trkpt lat="42.92584" lon="0.59499">
        <ele>1403</ele>
        <time>2019-02-03T11:20:39.000Z</time>
      </trkpt>
      <trkpt lat="42.92584" lon="0.59499">
        <ele>1403.3</ele>
        <time>2019-02-03T11:20:40.000Z</time>
      </trkpt>
      <trkpt lat="42.92583" lon="0.59499">
        <ele>1403.7</ele>
        <time>2019-02-03T11:20:41.000Z</time>
      </trkpt>
      <trkpt lat="42.92583" lon="0.59499">
        <ele>1404</ele>
        <time>2019-02-03T11:20:42.000Z</time>
      </trkpt>
      <trkpt lat="42.92583" lon="0.595">
        <ele>1404</ele>
        <time>2019-02-03T11:20:43.000Z</time>
      </trkpt>
      <trkpt lat="42.92583" lon="0.595">
        <ele>1404</ele>
        <time>2019-02-03T11:20:44.000Z</time>
      </trkpt>
      <trkpt lat="42.92583" lon="0.595">
        <ele>1404</ele>
        <time>2019-02-03T11:20:45.000Z</time>
      </trkpt>
      <trkpt lat="42.92582" lon="0.59501">
        <ele>1404</ele>
        <time>2019-02-03T11:20:46.000Z</time>
      </trkpt>
      <trkpt lat="42.92582" lon="0.59501">
        <ele>1404</ele>
        <time>2019-02-03T11:20:47.000Z</time>
      </trkpt>
      <trkpt lat="42.92582" lon="0.59502">
        <ele>1404</ele>
        <time>2019-02-03T11:20:48.000Z</time>
      </trkpt>
      <trkpt lat="42.92582" lon="0.59502">
        <ele>1404.5</ele>
        <time>2019-02-03T11:20:49.000Z</time>
      </trkpt>
      <trkpt lat="42.92582" lon="0.59502">
        <ele>1405</ele>
        <time>2019-02-03T11:20:50.000Z</time>
      </trkpt>
      <trkpt lat="42.92581" lon="0.59503">
        <ele>1405</ele>
        <time>2019-02-03T11:20:51.000Z</time>
      </trkpt>
      <trkpt lat="42.92581" lon="0.59503">
        <ele>1405</ele>
        <time>2019-02-03T11:20:52.000Z</time>
      </trkpt>
      <trkpt lat="42.92581" lon="0.59503">
        <ele>1405</ele>
        <time>2019-02-03T11:20:53.000Z</time>
      </trkpt>
      <trkpt lat="42.92581" lon="0.59503">
        <ele>1405</ele>
        <time>2019-02-03T11:20:54.000Z</time>
      </trkpt>
      <trkpt lat="42.92581" lon="0.59504">
        <ele>1405</ele>
        <time>2019-02-03T11:20:55.000Z</time>
      </trkpt>
      <trkpt lat="42.92581" lon="0.59504">
        <ele>1405</ele>
        <time>2019-02-03T11:20:56.000Z</time>
      </trkpt>
      <trkpt lat="42.92581" lon="0.59504">
        <ele>1405</ele>
        <time>2019-02-03T11:20:57.000Z</time>
      </trkpt>
      <trkpt lat="42.9258" lon="0.59504">
        <ele>1405.3</ele>
        <time>2019-02-03T11:20:58.000Z</time>
      </trkpt>
      <trkpt lat="42.9258" lon="0.59505">
        <ele>1405.7</ele>
        <time>2019-02-03T11:20:59.000Z</time>
      </trkpt>
      <trkpt lat="42.9258" lon="0.59505">
        <ele>1406</ele>
        <time>2019-02-03T11:21:00.000Z</time>
      </trkpt>
      <trkpt lat="42.92579" lon="0.59506">
        <ele>1406</ele>
        <time>2019-02-03T11:21:01.000Z</time>
      </trkpt>
      <trkpt lat="42.92579" lon="0.59506">
        <ele>1406</ele>
        <time>2019-02-03T11:21:02.000Z</time>
      </trkpt>
      <trkpt lat="42.92579" lon="0.59507">
        <ele>1406</ele>
        <time>2019-02-03T11:21:03.000Z</time>
      </trkpt>
      <trkpt lat="42.92578" lon="0.59507">
        <ele>1406</ele>
        <time>2019-02-03T11:21:04.000Z</time>
      </trkpt>
      <trkpt lat="42.92578" lon="0.59507">
        <ele>1406</ele>
        <time>2019-02-03T11:21:05.000Z</time>
      </trkpt>
      <trkpt lat="42.92577" lon="0.59507">
        <ele>1406</ele>
        <time>2019-02-03T11:21:06.000Z</time>
      </trkpt>
      <trkpt lat="42.92577" lon="0.59507">
        <ele>1406.5</ele>
        <time>2019-02-03T11:21:07.000Z</time>
      </trkpt>
      <trkpt lat="42.92577" lon="0.59507">
        <ele>1407</ele>
        <time>2019-02-03T11:21:08.000Z</time>
      </trkpt>
      <trkpt lat="42.92576" lon="0.59507">
        <ele>1407</ele>
        <time>2019-02-03T11:21:09.000Z</time>
      </trkpt>
      <trkpt lat="42.92576" lon="0.59507">
        <ele>1407</ele>
        <time>2019-02-03T11:21:10.000Z</time>
      </trkpt>
      <trkpt lat="42.92576" lon="0.59507">
        <ele>1407</ele>
        <time>2019-02-03T11:21:11.000Z</time>
      </trkpt>
      <trkpt lat="42.92576" lon="0.59507">
        <ele>1407</ele>
        <time>2019-02-03T11:21:12.000Z</time>
      </trkpt>
      <trkpt lat="42.92575" lon="0.59508">
        <ele>1407</ele>
        <time>2019-02-03T11:21:13.000Z</time>
      </trkpt>
      <trkpt lat="42.92575" lon="0.59508">
        <ele>1407</ele>
        <time>2019-02-03T11:21:14.000Z</time>
      </trkpt>
      <trkpt lat="42.92575" lon="0.59508">
        <ele>1407</ele>
        <time>2019-02-03T11:21:15.000Z</time>
      </trkpt>
      <trkpt lat="42.92575" lon="0.59508">
        <ele>1407.5</ele>
        <time>2019-02-03T11:21:16.000Z</time>
      </trkpt>
      <trkpt lat="42.92574" lon="0.59508">
        <ele>1408</ele>
        <time>2019-02-03T11:21:17.000Z</time>
      </trkpt>
      <trkpt lat="42.92574" lon="0.59508">
        <ele>1408</ele>
        <time>2019-02-03T11:21:18.000Z</time>
      </trkpt>
      <trkpt lat="42.92573" lon="0.59508">
        <ele>1408</ele>
        <time>2019-02-03T11:21:19.000Z</time>
      </trkpt>
      <trkpt lat="42.92573" lon="0.59508">
        <ele>1408</ele>
        <time>2019-02-03T11:21:20.000Z</time>
      </trkpt>
      <trkpt lat="42.92572" lon="0.59508">
        <ele>1408</ele>
        <time>2019-02-03T11:21:21.000Z</time>
      </trkpt>
      <trkpt lat="42.92572" lon="0.59508">
        <ele>1408</ele>
        <time>2019-02-03T11:21:22.000Z</time>
      </trkpt>
      <trkpt lat="42.92572" lon="0.59507">
        <ele>1408</ele>
        <time>2019-02-03T11:21:23.000Z</time>
      </trkpt>
      <trkpt lat="42.92572" lon="0.59507">
        <ele>1408</ele>
        <time>2019-02-03T11:21:24.000Z</time>
      </trkpt>
      <trkpt lat="42.92572" lon="0.59507">
        <ele>1408</ele>
        <time>2019-02-03T11:21:25.000Z</time>
      </trkpt>
      <trkpt lat="42.92572" lon="0.59507">
        <ele>1408</ele>
        <time>2019-02-03T11:21:26.000Z</time>
      </trkpt>
      <trkpt lat="42.92572" lon="0.59507">
        <ele>1409</ele>
        <time>2019-02-03T11:21:27.000Z</time>
      </trkpt>
      <trkpt lat="42.92572" lon="0.59507">
        <ele>1409</ele>
        <time>2019-02-03T11:21:28.000Z</time>
      </trkpt>
      <trkpt lat="42.92572" lon="0.59507">
        <ele>1409</ele>
        <time>2019-02-03T11:21:29.000Z</time>
      </trkpt>
      <trkpt lat="42.92572" lon="0.59507">
        <ele>1409</ele>
        <time>2019-02-03T11:21:30.000Z</time>
      </trkpt>
      <trkpt lat="42.92572" lon="0.59507">
        <ele>1409</ele>
        <time>2019-02-03T11:21:31.000Z</time>
      </trkpt>
      <trkpt lat="42.92572" lon="0.59507">
        <ele>1409</ele>
        <time>2019-02-03T11:21:32.000Z</time>
      </trkpt>
      <trkpt lat="42.92572" lon="0.59507">
        <ele>1410</ele>
        <time>2019-02-03T11:21:33.000Z</time>
      </trkpt>
      <trkpt lat="42.92572" lon="0.59507">
        <ele>1410</ele>
        <time>2019-02-03T11:21:34.000Z</time>
      </trkpt>
      <trkpt lat="42.92572" lon="0.59507">
        <ele>1410</ele>
        <time>2019-02-03T11:21:35.000Z</time>
      </trkpt>
      <trkpt lat="42.92572" lon="0.59507">
        <ele>1410</ele>
        <time>2019-02-03T11:21:36.000Z</time>
      </trkpt>
      <trkpt lat="42.92572" lon="0.59507">
        <ele>1410</ele>
        <time>2019-02-03T11:21:37.000Z</time>
      </trkpt>
      <trkpt lat="42.92572" lon="0.59507">
        <ele>1410</ele>
        <time>2019-02-03T11:21:38.000Z</time>
      </trkpt>
      <trkpt lat="42.92572" lon="0.59507">
        <ele>1410</ele>
        <time>2019-02-03T11:21:39.000Z</time>
      </trkpt>
      <trkpt lat="42.92572" lon="0.59507">
        <ele>1410</ele>
        <time>2019-02-03T11:21:40.000Z</time>
      </trkpt>
      <trkpt lat="42.92572" lon="0.59507">
        <ele>1410</ele>
        <time>2019-02-03T11:21:41.000Z</time>
      </trkpt>
      <trkpt lat="42.92572" lon="0.59507">
        <ele>1410</ele>
        <time>2019-02-03T11:21:42.000Z</time>
      </trkpt>
      <trkpt lat="42.92572" lon="0.59508">
        <ele>1410</ele>
        <time>2019-02-03T11:21:43.000Z</time>
      </trkpt>
      <trkpt lat="42.92571" lon="0.59508">
        <ele>1410</ele>
        <time>2019-02-03T11:21:44.000Z</time>
      </trkpt>
      <trkpt lat="42.9257" lon="0.59508">
        <ele>1410</ele>
        <time>2019-02-03T11:21:45.000Z</time>
      </trkpt>
      <trkpt lat="42.9257" lon="0.59508">
        <ele>1410</ele>
        <time>2019-02-03T11:21:46.000Z</time>
      </trkpt>
      <trkpt lat="42.92569" lon="0.59508">
        <ele>1410.5</ele>
        <time>2019-02-03T11:21:47.000Z</time>
      </trkpt>
      <trkpt lat="42.92568" lon="0.59508">
        <ele>1411</ele>
        <time>2019-02-03T11:21:48.000Z</time>
      </trkpt>
      <trkpt lat="42.92568" lon="0.59508">
        <ele>1411</ele>
        <time>2019-02-03T11:21:49.000Z</time>
      </trkpt>
      <trkpt lat="42.92567" lon="0.59509">
        <ele>1411</ele>
        <time>2019-02-03T11:21:50.000Z</time>
      </trkpt>
      <trkpt lat="42.92567" lon="0.59509">
        <ele>1411</ele>
        <time>2019-02-03T11:21:51.000Z</time>
      </trkpt>
      <trkpt lat="42.92566" lon="0.59509">
        <ele>1411</ele>
        <time>2019-02-03T11:21:52.000Z</time>
      </trkpt>
      <trkpt lat="42.92566" lon="0.59509">
        <ele>1411</ele>
        <time>2019-02-03T11:21:53.000Z</time>
      </trkpt>
      <trkpt lat="42.92566" lon="0.59509">
        <ele>1411</ele>
        <time>2019-02-03T11:21:54.000Z</time>
      </trkpt>
      <trkpt lat="42.92566" lon="0.5951">
        <ele>1411</ele>
        <time>2019-02-03T11:21:55.000Z</time>
      </trkpt>
      <trkpt lat="42.92566" lon="0.5951">
        <ele>1411</ele>
        <time>2019-02-03T11:21:56.000Z</time>
      </trkpt>
      <trkpt lat="42.92566" lon="0.5951">
        <ele>1412</ele>
        <time>2019-02-03T11:21:57.000Z</time>
      </trkpt>
      <trkpt lat="42.92566" lon="0.5951">
        <ele>1412</ele>
        <time>2019-02-03T11:21:58.000Z</time>
      </trkpt>
      <trkpt lat="42.92566" lon="0.5951">
        <ele>1412</ele>
        <time>2019-02-03T11:21:59.000Z</time>
      </trkpt>
      <trkpt lat="42.92566" lon="0.5951">
        <ele>1412</ele>
        <time>2019-02-03T11:22:00.000Z</time>
      </trkpt>
      <trkpt lat="42.92565" lon="0.5951">
        <ele>1412</ele>
        <time>2019-02-03T11:22:01.000Z</time>
      </trkpt>
      <trkpt lat="42.92565" lon="0.59511">
        <ele>1412</ele>
        <time>2019-02-03T11:22:02.000Z</time>
      </trkpt>
      <trkpt lat="42.92565" lon="0.59511">
        <ele>1412</ele>
        <time>2019-02-03T11:22:03.000Z</time>
      </trkpt>
      <trkpt lat="42.92564" lon="0.59511">
        <ele>1412.3</ele>
        <time>2019-02-03T11:22:04.000Z</time>
      </trkpt>
      <trkpt lat="42.92564" lon="0.59511">
        <ele>1412.7</ele>
        <time>2019-02-03T11:22:05.000Z</time>
      </trkpt>
      <trkpt lat="42.92563" lon="0.59512">
        <ele>1413</ele>
        <time>2019-02-03T11:22:06.000Z</time>
      </trkpt>
      <trkpt lat="42.92563" lon="0.59512">
        <ele>1413</ele>
        <time>2019-02-03T11:22:07.000Z</time>
      </trkpt>
      <trkpt lat="42.92562" lon="0.59511">
        <ele>1413</ele>
        <time>2019-02-03T11:22:08.000Z</time>
      </trkpt>
      <trkpt lat="42.92562" lon="0.59511">
        <ele>1413</ele>
        <time>2019-02-03T11:22:09.000Z</time>
      </trkpt>
      <trkpt lat="42.92562" lon="0.59511">
        <ele>1413</ele>
        <time>2019-02-03T11:22:10.000Z</time>
      </trkpt>
      <trkpt lat="42.92562" lon="0.59511">
        <ele>1413</ele>
        <time>2019-02-03T11:22:11.000Z</time>
      </trkpt>
      <trkpt lat="42.92561" lon="0.59511">
        <ele>1413.3</ele>
        <time>2019-02-03T11:22:12.000Z</time>
      </trkpt>
      <trkpt lat="42.92561" lon="0.59512">
        <ele>1413.7</ele>
        <time>2019-02-03T11:22:13.000Z</time>
      </trkpt>
      <trkpt lat="42.92561" lon="0.59512">
        <ele>1414</ele>
        <time>2019-02-03T11:22:14.000Z</time>
      </trkpt>
      <trkpt lat="42.9256" lon="0.59512">
        <ele>1414</ele>
        <time>2019-02-03T11:22:15.000Z</time>
      </trkpt>
      <trkpt lat="42.9256" lon="0.59513">
        <ele>1414</ele>
        <time>2019-02-03T11:22:16.000Z</time>
      </trkpt>
      <trkpt lat="42.9256" lon="0.59513">
        <ele>1414</ele>
        <time>2019-02-03T11:22:17.000Z</time>
      </trkpt>
      <trkpt lat="42.9256" lon="0.59514">
        <ele>1414</ele>
        <time>2019-02-03T11:22:18.000Z</time>
      </trkpt>
      <trkpt lat="42.9256" lon="0.59514">
        <ele>1415</ele>
        <time>2019-02-03T11:22:19.000Z</time>
      </trkpt>
      <trkpt lat="42.92559" lon="0.59515">
        <ele>1415</ele>
        <time>2019-02-03T11:22:20.000Z</time>
      </trkpt>
      <trkpt lat="42.92559" lon="0.59515">
        <ele>1415</ele>
        <time>2019-02-03T11:22:21.000Z</time>
      </trkpt>
      <trkpt lat="42.92559" lon="0.59515">
        <ele>1415</ele>
        <time>2019-02-03T11:22:22.000Z</time>
      </trkpt>
      <trkpt lat="42.92559" lon="0.59515">
        <ele>1415</ele>
        <time>2019-02-03T11:22:23.000Z</time>
      </trkpt>
      <trkpt lat="42.92559" lon="0.59515">
        <ele>1415</ele>
        <time>2019-02-03T11:22:24.000Z</time>
      </trkpt>
      <trkpt lat="42.92559" lon="0.59515">
        <ele>1415</ele>
        <time>2019-02-03T11:22:25.000Z</time>
      </trkpt>
      <trkpt lat="42.92559" lon="0.59515">
        <ele>1415.3</ele>
        <time>2019-02-03T11:22:26.000Z</time>
      </trkpt>
      <trkpt lat="42.92559" lon="0.59515">
        <ele>1415.7</ele>
        <time>2019-02-03T11:22:27.000Z</time>
      </trkpt>
      <trkpt lat="42.92559" lon="0.59515">
        <ele>1416</ele>
        <time>2019-02-03T11:22:28.000Z</time>
      </trkpt>
      <trkpt lat="42.92559" lon="0.59515">
        <ele>1416</ele>
        <time>2019-02-03T11:22:29.000Z</time>
      </trkpt>
      <trkpt lat="42.92559" lon="0.59515">
        <ele>1416</ele>
        <time>2019-02-03T11:22:30.000Z</time>
      </trkpt>
      <trkpt lat="42.92559" lon="0.59515">
        <ele>1416</ele>
        <time>2019-02-03T11:22:31.000Z</time>
      </trkpt>
      <trkpt lat="42.92559" lon="0.59515">
        <ele>1416</ele>
        <time>2019-02-03T11:22:32.000Z</time>
      </trkpt>
      <trkpt lat="42.92559" lon="0.59516">
        <ele>1415</ele>
        <time>2019-02-03T11:22:33.000Z</time>
      </trkpt>
      <trkpt lat="42.92559" lon="0.59516">
        <ele>1415.5</ele>
        <time>2019-02-03T11:22:34.000Z</time>
      </trkpt>
      <trkpt lat="42.92558" lon="0.59517">
        <ele>1416</ele>
        <time>2019-02-03T11:22:35.000Z</time>
      </trkpt>
      <trkpt lat="42.92558" lon="0.59517">
        <ele>1416</ele>
        <time>2019-02-03T11:22:36.000Z</time>
      </trkpt>
      <trkpt lat="42.92557" lon="0.59518">
        <ele>1416</ele>
        <time>2019-02-03T11:22:37.000Z</time>
      </trkpt>
      <trkpt lat="42.92556" lon="0.59519">
        <ele>1416</ele>
        <time>2019-02-03T11:22:38.000Z</time>
      </trkpt>
      <trkpt lat="42.92556" lon="0.5952">
        <ele>1416</ele>
        <time>2019-02-03T11:22:39.000Z</time>
      </trkpt>
      <trkpt lat="42.92556" lon="0.5952">
        <ele>1416</ele>
        <time>2019-02-03T11:22:40.000Z</time>
      </trkpt>
      <trkpt lat="42.92556" lon="0.59521">
        <ele>1416</ele>
        <time>2019-02-03T11:22:41.000Z</time>
      </trkpt>
      <trkpt lat="42.92556" lon="0.59521">
        <ele>1416</ele>
        <time>2019-02-03T11:22:42.000Z</time>
      </trkpt>
      <trkpt lat="42.92556" lon="0.59521">
        <ele>1416</ele>
        <time>2019-02-03T11:22:43.000Z</time>
      </trkpt>
      <trkpt lat="42.92556" lon="0.59521">
        <ele>1416.3</ele>
        <time>2019-02-03T11:22:44.000Z</time>
      </trkpt>
      <trkpt lat="42.92556" lon="0.59521">
        <ele>1416.7</ele>
        <time>2019-02-03T11:22:45.000Z</time>
      </trkpt>
      <trkpt lat="42.92555" lon="0.59521">
        <ele>1417</ele>
        <time>2019-02-03T11:22:46.000Z</time>
      </trkpt>
      <trkpt lat="42.92555" lon="0.59521">
        <ele>1417</ele>
        <time>2019-02-03T11:22:47.000Z</time>
      </trkpt>
      <trkpt lat="42.92555" lon="0.59521">
        <ele>1417</ele>
        <time>2019-02-03T11:22:48.000Z</time>
      </trkpt>
      <trkpt lat="42.92554" lon="0.59522">
        <ele>1417</ele>
        <time>2019-02-03T11:22:49.000Z</time>
      </trkpt>
      <trkpt lat="42.92554" lon="0.59522">
        <ele>1417</ele>
        <time>2019-02-03T11:22:50.000Z</time>
      </trkpt>
      <trkpt lat="42.92554" lon="0.59522">
        <ele>1417</ele>
        <time>2019-02-03T11:22:51.000Z</time>
      </trkpt>
      <trkpt lat="42.92554" lon="0.59522">
        <ele>1417.3</ele>
        <time>2019-02-03T11:22:52.000Z</time>
      </trkpt>
      <trkpt lat="42.92553" lon="0.59522">
        <ele>1417.7</ele>
        <time>2019-02-03T11:22:53.000Z</time>
      </trkpt>
      <trkpt lat="42.92553" lon="0.59523">
        <ele>1418</ele>
        <time>2019-02-03T11:22:54.000Z</time>
      </trkpt>
      <trkpt lat="42.92553" lon="0.59523">
        <ele>1418</ele>
        <time>2019-02-03T11:22:55.000Z</time>
      </trkpt>
      <trkpt lat="42.92552" lon="0.59523">
        <ele>1418</ele>
        <time>2019-02-03T11:22:56.000Z</time>
      </trkpt>
      <trkpt lat="42.92552" lon="0.59524">
        <ele>1418</ele>
        <time>2019-02-03T11:22:57.000Z</time>
      </trkpt>
      <trkpt lat="42.92551" lon="0.59524">
        <ele>1418.3</ele>
        <time>2019-02-03T11:22:58.000Z</time>
      </trkpt>
      <trkpt lat="42.92551" lon="0.59524">
        <ele>1418.7</ele>
        <time>2019-02-03T11:22:59.000Z</time>
      </trkpt>
      <trkpt lat="42.9255" lon="0.59524">
        <ele>1419</ele>
        <time>2019-02-03T11:23:00.000Z</time>
      </trkpt>
      <trkpt lat="42.9255" lon="0.59524">
        <ele>1419</ele>
        <time>2019-02-03T11:23:01.000Z</time>
      </trkpt>
      <trkpt lat="42.9255" lon="0.59524">
        <ele>1419</ele>
        <time>2019-02-03T11:23:02.000Z</time>
      </trkpt>
      <trkpt lat="42.92549" lon="0.59524">
        <ele>1419</ele>
        <time>2019-02-03T11:23:03.000Z</time>
      </trkpt>
      <trkpt lat="42.92549" lon="0.59524">
        <ele>1419</ele>
        <time>2019-02-03T11:23:04.000Z</time>
      </trkpt>
      <trkpt lat="42.92549" lon="0.59524">
        <ele>1419</ele>
        <time>2019-02-03T11:23:05.000Z</time>
      </trkpt>
      <trkpt lat="42.92549" lon="0.59524">
        <ele>1419</ele>
        <time>2019-02-03T11:23:06.000Z</time>
      </trkpt>
      <trkpt lat="42.9255" lon="0.59524">
        <ele>1419</ele>
        <time>2019-02-03T11:23:07.000Z</time>
      </trkpt>
      <trkpt lat="42.9255" lon="0.59524">
        <ele>1419</ele>
        <time>2019-02-03T11:23:08.000Z</time>
      </trkpt>
      <trkpt lat="42.92549" lon="0.59524">
        <ele>1420</ele>
        <time>2019-02-03T11:23:09.000Z</time>
      </trkpt>
      <trkpt lat="42.92549" lon="0.59524">
        <ele>1420</ele>
        <time>2019-02-03T11:23:10.000Z</time>
      </trkpt>
      <trkpt lat="42.92549" lon="0.59524">
        <ele>1420</ele>
        <time>2019-02-03T11:23:11.000Z</time>
      </trkpt>
      <trkpt lat="42.92548" lon="0.59524">
        <ele>1420.3</ele>
        <time>2019-02-03T11:23:12.000Z</time>
      </trkpt>
      <trkpt lat="42.92548" lon="0.59525">
        <ele>1420.7</ele>
        <time>2019-02-03T11:23:13.000Z</time>
      </trkpt>
      <trkpt lat="42.92548" lon="0.59525">
        <ele>1421</ele>
        <time>2019-02-03T11:23:14.000Z</time>
      </trkpt>
      <trkpt lat="42.92548" lon="0.59526">
        <ele>1421</ele>
        <time>2019-02-03T11:23:15.000Z</time>
      </trkpt>
      <trkpt lat="42.92548" lon="0.59526">
        <ele>1421</ele>
        <time>2019-02-03T11:23:16.000Z</time>
      </trkpt>
      <trkpt lat="42.92548" lon="0.59527">
        <ele>1421</ele>
        <time>2019-02-03T11:23:17.000Z</time>
      </trkpt>
      <trkpt lat="42.92549" lon="0.59527">
        <ele>1421</ele>
        <time>2019-02-03T11:23:18.000Z</time>
      </trkpt>
      <trkpt lat="42.92549" lon="0.59527">
        <ele>1421</ele>
        <time>2019-02-03T11:23:19.000Z</time>
      </trkpt>
      <trkpt lat="42.92549" lon="0.59527">
        <ele>1421</ele>
        <time>2019-02-03T11:23:20.000Z</time>
      </trkpt>
      <trkpt lat="42.9255" lon="0.59528">
        <ele>1421</ele>
        <time>2019-02-03T11:23:21.000Z</time>
      </trkpt>
      <trkpt lat="42.9255" lon="0.59528">
        <ele>1421</ele>
        <time>2019-02-03T11:23:22.000Z</time>
      </trkpt>
      <trkpt lat="42.92549" lon="0.59527">
        <ele>1421</ele>
        <time>2019-02-03T11:23:23.000Z</time>
      </trkpt>
      <trkpt lat="42.9255" lon="0.59527">
        <ele>1421</ele>
        <time>2019-02-03T11:23:24.000Z</time>
      </trkpt>
      <trkpt lat="42.9255" lon="0.59527">
        <ele>1421</ele>
        <time>2019-02-03T11:23:25.000Z</time>
      </trkpt>
      <trkpt lat="42.9255" lon="0.59527">
        <ele>1421</ele>
        <time>2019-02-03T11:23:26.000Z</time>
      </trkpt>
      <trkpt lat="42.92551" lon="0.59527">
        <ele>1421</ele>
        <time>2019-02-03T11:23:27.000Z</time>
      </trkpt>
      <trkpt lat="42.92551" lon="0.59528">
        <ele>1421</ele>
        <time>2019-02-03T11:23:28.000Z</time>
      </trkpt>
      <trkpt lat="42.92551" lon="0.59528">
        <ele>1421</ele>
        <time>2019-02-03T11:23:29.000Z</time>
      </trkpt>
      <trkpt lat="42.9255" lon="0.59529">
        <ele>1421.3</ele>
        <time>2019-02-03T11:23:30.000Z</time>
      </trkpt>
      <trkpt lat="42.9255" lon="0.5953">
        <ele>1421.7</ele>
        <time>2019-02-03T11:23:31.000Z</time>
      </trkpt>
      <trkpt lat="42.9255" lon="0.5953">
        <ele>1422</ele>
        <time>2019-02-03T11:23:32.000Z</time>
      </trkpt>
      <trkpt lat="42.9255" lon="0.5953">
        <ele>1422</ele>
        <time>2019-02-03T11:23:33.000Z</time>
      </trkpt>
      <trkpt lat="42.92549" lon="0.59531">
        <ele>1422</ele>
        <time>2019-02-03T11:23:36.000Z</time>
      </trkpt>
      <trkpt lat="42.92549" lon="0.59531">
        <ele>1423</ele>
        <time>2019-02-03T11:23:37.000Z</time>
      </trkpt>
      <trkpt lat="42.92549" lon="0.59532">
        <ele>1423</ele>
        <time>2019-02-03T11:23:38.000Z</time>
      </trkpt>
      <trkpt lat="42.92549" lon="0.59532">
        <ele>1423</ele>
        <time>2019-02-03T11:23:39.000Z</time>
      </trkpt>
      <trkpt lat="42.92549" lon="0.59533">
        <ele>1423</ele>
        <time>2019-02-03T11:23:40.000Z</time>
      </trkpt>
      <trkpt lat="42.92549" lon="0.59533">
        <ele>1423</ele>
        <time>2019-02-03T11:23:41.000Z</time>
      </trkpt>
      <trkpt lat="42.92549" lon="0.59533">
        <ele>1423</ele>
        <time>2019-02-03T11:23:42.000Z</time>
      </trkpt>
      <trkpt lat="42.92549" lon="0.59533">
        <ele>1423</ele>
        <time>2019-02-03T11:23:43.000Z</time>
      </trkpt>
      <trkpt lat="42.92549" lon="0.59533">
        <ele>1424</ele>
        <time>2019-02-03T11:23:44.000Z</time>
      </trkpt>
      <trkpt lat="42.92549" lon="0.59533">
        <ele>1424</ele>
        <time>2019-02-03T11:23:45.000Z</time>
      </trkpt>
      <trkpt lat="42.92549" lon="0.59533">
        <ele>1424</ele>
        <time>2019-02-03T11:23:46.000Z</time>
      </trkpt>
      <trkpt lat="42.9255" lon="0.59533">
        <ele>1424</ele>
        <time>2019-02-03T11:23:47.000Z</time>
      </trkpt>
      <trkpt lat="42.9255" lon="0.59533">
        <ele>1424</ele>
        <time>2019-02-03T11:23:48.000Z</time>
      </trkpt>
      <trkpt lat="42.9255" lon="0.59533">
        <ele>1424</ele>
        <time>2019-02-03T11:23:49.000Z</time>
      </trkpt>
      <trkpt lat="42.9255" lon="0.59534">
        <ele>1424.5</ele>
        <time>2019-02-03T11:23:50.000Z</time>
      </trkpt>
      <trkpt lat="42.9255" lon="0.59534">
        <ele>1425</ele>
        <time>2019-02-03T11:23:51.000Z</time>
      </trkpt>
      <trkpt lat="42.9255" lon="0.59534">
        <ele>1425</ele>
        <time>2019-02-03T11:23:52.000Z</time>
      </trkpt>
      <trkpt lat="42.9255" lon="0.59535">
        <ele>1425</ele>
        <time>2019-02-03T11:23:53.000Z</time>
      </trkpt>
      <trkpt lat="42.9255" lon="0.59535">
        <ele>1425</ele>
        <time>2019-02-03T11:23:54.000Z</time>
      </trkpt>
      <trkpt lat="42.9255" lon="0.59535">
        <ele>1425</ele>
        <time>2019-02-03T11:23:55.000Z</time>
      </trkpt>
      <trkpt lat="42.9255" lon="0.59536">
        <ele>1425</ele>
        <time>2019-02-03T11:23:56.000Z</time>
      </trkpt>
      <trkpt lat="42.9255" lon="0.59536">
        <ele>1425.5</ele>
        <time>2019-02-03T11:23:57.000Z</time>
      </trkpt>
      <trkpt lat="42.9255" lon="0.59536">
        <ele>1426</ele>
        <time>2019-02-03T11:23:58.000Z</time>
      </trkpt>
      <trkpt lat="42.9255" lon="0.59537">
        <ele>1426</ele>
        <time>2019-02-03T11:23:59.000Z</time>
      </trkpt>
      <trkpt lat="42.9255" lon="0.59537">
        <ele>1426</ele>
        <time>2019-02-03T11:24:00.000Z</time>
      </trkpt>
      <trkpt lat="42.9255" lon="0.59537">
        <ele>1426</ele>
        <time>2019-02-03T11:24:01.000Z</time>
      </trkpt>
      <trkpt lat="42.92551" lon="0.59538">
        <ele>1426</ele>
        <time>2019-02-03T11:24:02.000Z</time>
      </trkpt>
      <trkpt lat="42.92551" lon="0.59538">
        <ele>1426.5</ele>
        <time>2019-02-03T11:24:03.000Z</time>
      </trkpt>
      <trkpt lat="42.92552" lon="0.59539">
        <ele>1427</ele>
        <time>2019-02-03T11:24:04.000Z</time>
      </trkpt>
      <trkpt lat="42.92552" lon="0.59539">
        <ele>1427</ele>
        <time>2019-02-03T11:24:05.000Z</time>
      </trkpt>
      <trkpt lat="42.92553" lon="0.59539">
        <ele>1427</ele>
        <time>2019-02-03T11:24:06.000Z</time>
      </trkpt>
      <trkpt lat="42.92553" lon="0.5954">
        <ele>1427</ele>
        <time>2019-02-03T11:24:07.000Z</time>
      </trkpt>
      <trkpt lat="42.92553" lon="0.5954">
        <ele>1427</ele>
        <time>2019-02-03T11:24:08.000Z</time>
      </trkpt>
      <trkpt lat="42.92553" lon="0.59541">
        <ele>1427</ele>
        <time>2019-02-03T11:24:09.000Z</time>
      </trkpt>
      <trkpt lat="42.92553" lon="0.59541">
        <ele>1427</ele>
        <time>2019-02-03T11:24:10.000Z</time>
      </trkpt>
      <trkpt lat="42.92554" lon="0.59542">
        <ele>1427</ele>
        <time>2019-02-03T11:24:11.000Z</time>
      </trkpt>
      <trkpt lat="42.92554" lon="0.59543">
        <ele>1427</ele>
        <time>2019-02-03T11:24:12.000Z</time>
      </trkpt>
      <trkpt lat="42.92554" lon="0.59543">
        <ele>1427.3</ele>
        <time>2019-02-03T11:24:13.000Z</time>
      </trkpt>
      <trkpt lat="42.92554" lon="0.59544">
        <ele>1427.7</ele>
        <time>2019-02-03T11:24:14.000Z</time>
      </trkpt>
      <trkpt lat="42.92555" lon="0.59544">
        <ele>1428</ele>
        <time>2019-02-03T11:24:15.000Z</time>
      </trkpt>
      <trkpt lat="42.92555" lon="0.59545">
        <ele>1428</ele>
        <time>2019-02-03T11:24:16.000Z</time>
      </trkpt>
      <trkpt lat="42.92555" lon="0.59546">
        <ele>1428</ele>
        <time>2019-02-03T11:24:17.000Z</time>
      </trkpt>
      <trkpt lat="42.92556" lon="0.59546">
        <ele>1428</ele>
        <time>2019-02-03T11:24:18.000Z</time>
      </trkpt>
      <trkpt lat="42.92556" lon="0.59547">
        <ele>1428</ele>
        <time>2019-02-03T11:24:19.000Z</time>
      </trkpt>
      <trkpt lat="42.92556" lon="0.59547">
        <ele>1428</ele>
        <time>2019-02-03T11:24:20.000Z</time>
      </trkpt>
      <trkpt lat="42.92556" lon="0.59547">
        <ele>1428</ele>
        <time>2019-02-03T11:24:21.000Z</time>
      </trkpt>
      <trkpt lat="42.92556" lon="0.59548">
        <ele>1428</ele>
        <time>2019-02-03T11:24:22.000Z</time>
      </trkpt>
      <trkpt lat="42.92556" lon="0.59548">
        <ele>1428</ele>
        <time>2019-02-03T11:24:23.000Z</time>
      </trkpt>
      <trkpt lat="42.92556" lon="0.59548">
        <ele>1428.5</ele>
        <time>2019-02-03T11:24:24.000Z</time>
      </trkpt>
      <trkpt lat="42.92556" lon="0.59548">
        <ele>1429</ele>
        <time>2019-02-03T11:24:25.000Z</time>
      </trkpt>
      <trkpt lat="42.92556" lon="0.59548">
        <ele>1429</ele>
        <time>2019-02-03T11:24:26.000Z</time>
      </trkpt>
      <trkpt lat="42.92556" lon="0.59548">
        <ele>1429</ele>
        <time>2019-02-03T11:24:27.000Z</time>
      </trkpt>
      <trkpt lat="42.92556" lon="0.59548">
        <ele>1429</ele>
        <time>2019-02-03T11:24:28.000Z</time>
      </trkpt>
      <trkpt lat="42.92556" lon="0.59548">
        <ele>1429</ele>
        <time>2019-02-03T11:24:29.000Z</time>
      </trkpt>
      <trkpt lat="42.92556" lon="0.59549">
        <ele>1429</ele>
        <time>2019-02-03T11:24:30.000Z</time>
      </trkpt>
      <trkpt lat="42.92556" lon="0.59549">
        <ele>1429</ele>
        <time>2019-02-03T11:24:31.000Z</time>
      </trkpt>
      <trkpt lat="42.92556" lon="0.59549">
        <ele>1430</ele>
        <time>2019-02-03T11:24:32.000Z</time>
      </trkpt>
      <trkpt lat="42.92556" lon="0.5955">
        <ele>1430</ele>
        <time>2019-02-03T11:24:33.000Z</time>
      </trkpt>
      <trkpt lat="42.92556" lon="0.59551">
        <ele>1430</ele>
        <time>2019-02-03T11:24:34.000Z</time>
      </trkpt>
      <trkpt lat="42.92556" lon="0.59551">
        <ele>1430</ele>
        <time>2019-02-03T11:24:35.000Z</time>
      </trkpt>
      <trkpt lat="42.92556" lon="0.59552">
        <ele>1430</ele>
        <time>2019-02-03T11:24:36.000Z</time>
      </trkpt>
      <trkpt lat="42.92556" lon="0.59553">
        <ele>1430</ele>
        <time>2019-02-03T11:24:37.000Z</time>
      </trkpt>
      <trkpt lat="42.92555" lon="0.59554">
        <ele>1430</ele>
        <time>2019-02-03T11:24:38.000Z</time>
      </trkpt>
      <trkpt lat="42.92554" lon="0.59554">
        <ele>1430.3</ele>
        <time>2019-02-03T11:24:39.000Z</time>
      </trkpt>
      <trkpt lat="42.92554" lon="0.59555">
        <ele>1430.7</ele>
        <time>2019-02-03T11:24:40.000Z</time>
      </trkpt>
      <trkpt lat="42.92553" lon="0.59555">
        <ele>1431</ele>
        <time>2019-02-03T11:24:41.000Z</time>
      </trkpt>
      <trkpt lat="42.92552" lon="0.59556">
        <ele>1431</ele>
        <time>2019-02-03T11:24:42.000Z</time>
      </trkpt>
      <trkpt lat="42.92552" lon="0.59556">
        <ele>1431</ele>
        <time>2019-02-03T11:24:43.000Z</time>
      </trkpt>
      <trkpt lat="42.92551" lon="0.59556">
        <ele>1431</ele>
        <time>2019-02-03T11:24:44.000Z</time>
      </trkpt>
      <trkpt lat="42.9255" lon="0.59556">
        <ele>1431</ele>
        <time>2019-02-03T11:24:45.000Z</time>
      </trkpt>
      <trkpt lat="42.9255" lon="0.59556">
        <ele>1431</ele>
        <time>2019-02-03T11:24:46.000Z</time>
      </trkpt>
      <trkpt lat="42.92549" lon="0.59557">
        <ele>1431.3</ele>
        <time>2019-02-03T11:24:47.000Z</time>
      </trkpt>
      <trkpt lat="42.92549" lon="0.59557">
        <ele>1431.7</ele>
        <time>2019-02-03T11:24:48.000Z</time>
      </trkpt>
      <trkpt lat="42.92549" lon="0.59557">
        <ele>1432</ele>
        <time>2019-02-03T11:24:49.000Z</time>
      </trkpt>
      <trkpt lat="42.92548" lon="0.59557">
        <ele>1432</ele>
        <time>2019-02-03T11:24:50.000Z</time>
      </trkpt>
      <trkpt lat="42.92548" lon="0.59557">
        <ele>1432</ele>
        <time>2019-02-03T11:24:51.000Z</time>
      </trkpt>
      <trkpt lat="42.92547" lon="0.59558">
        <ele>1432</ele>
        <time>2019-02-03T11:24:52.000Z</time>
      </trkpt>
      <trkpt lat="42.92547" lon="0.59558">
        <ele>1432</ele>
        <time>2019-02-03T11:24:53.000Z</time>
      </trkpt>
      <trkpt lat="42.92547" lon="0.59558">
        <ele>1432</ele>
        <time>2019-02-03T11:24:54.000Z</time>
      </trkpt>
      <trkpt lat="42.92546" lon="0.59559">
        <ele>1432</ele>
        <time>2019-02-03T11:24:55.000Z</time>
      </trkpt>
      <trkpt lat="42.92546" lon="0.59559">
        <ele>1433</ele>
        <time>2019-02-03T11:24:56.000Z</time>
      </trkpt>
      <trkpt lat="42.92545" lon="0.5956">
        <ele>1433</ele>
        <time>2019-02-03T11:24:57.000Z</time>
      </trkpt>
      <trkpt lat="42.92545" lon="0.5956">
        <ele>1433</ele>
        <time>2019-02-03T11:24:58.000Z</time>
      </trkpt>
      <trkpt lat="42.92545" lon="0.5956">
        <ele>1433</ele>
        <time>2019-02-03T11:24:59.000Z</time>
      </trkpt>
      <trkpt lat="42.92545" lon="0.59561">
        <ele>1433</ele>
        <time>2019-02-03T11:25:00.000Z</time>
      </trkpt>
      <trkpt lat="42.92545" lon="0.59561">
        <ele>1433.3</ele>
        <time>2019-02-03T11:25:01.000Z</time>
      </trkpt>
      <trkpt lat="42.92544" lon="0.59561">
        <ele>1433.7</ele>
        <time>2019-02-03T11:25:02.000Z</time>
      </trkpt>
      <trkpt lat="42.92544" lon="0.59562">
        <ele>1434</ele>
        <time>2019-02-03T11:25:03.000Z</time>
      </trkpt>
      <trkpt lat="42.92545" lon="0.59562">
        <ele>1434</ele>
        <time>2019-02-03T11:25:04.000Z</time>
      </trkpt>
      <trkpt lat="42.92545" lon="0.59562">
        <ele>1434</ele>
        <time>2019-02-03T11:25:05.000Z</time>
      </trkpt>
      <trkpt lat="42.92545" lon="0.59562">
        <ele>1434</ele>
        <time>2019-02-03T11:25:06.000Z</time>
      </trkpt>
      <trkpt lat="42.92545" lon="0.59562">
        <ele>1434</ele>
        <time>2019-02-03T11:25:07.000Z</time>
      </trkpt>
      <trkpt lat="42.92545" lon="0.59562">
        <ele>1434</ele>
        <time>2019-02-03T11:25:08.000Z</time>
      </trkpt>
      <trkpt lat="42.92545" lon="0.59562">
        <ele>1434</ele>
        <time>2019-02-03T11:25:09.000Z</time>
      </trkpt>
      <trkpt lat="42.92545" lon="0.59562">
        <ele>1434</ele>
        <time>2019-02-03T11:25:10.000Z</time>
      </trkpt>
      <trkpt lat="42.92545" lon="0.59562">
        <ele>1434</ele>
        <time>2019-02-03T11:25:11.000Z</time>
      </trkpt>
      <trkpt lat="42.92545" lon="0.59562">
        <ele>1434.5</ele>
        <time>2019-02-03T11:25:12.000Z</time>
      </trkpt>
      <trkpt lat="42.92545" lon="0.59562">
        <ele>1435</ele>
        <time>2019-02-03T11:25:13.000Z</time>
      </trkpt>
      <trkpt lat="42.92545" lon="0.59562">
        <ele>1435</ele>
        <time>2019-02-03T11:25:14.000Z</time>
      </trkpt>
      <trkpt lat="42.92545" lon="0.59563">
        <ele>1435</ele>
        <time>2019-02-03T11:25:15.000Z</time>
      </trkpt>
      <trkpt lat="42.92545" lon="0.59563">
        <ele>1435</ele>
        <time>2019-02-03T11:25:16.000Z</time>
      </trkpt>
      <trkpt lat="42.92545" lon="0.59563">
        <ele>1435</ele>
        <time>2019-02-03T11:25:17.000Z</time>
      </trkpt>
      <trkpt lat="42.92545" lon="0.59564">
        <ele>1435</ele>
        <time>2019-02-03T11:25:18.000Z</time>
      </trkpt>
      <trkpt lat="42.92546" lon="0.59564">
        <ele>1435.5</ele>
        <time>2019-02-03T11:25:19.000Z</time>
      </trkpt>
      <trkpt lat="42.92546" lon="0.59565">
        <ele>1436</ele>
        <time>2019-02-03T11:25:20.000Z</time>
      </trkpt>
      <trkpt lat="42.92546" lon="0.59566">
        <ele>1436</ele>
        <time>2019-02-03T11:25:21.000Z</time>
      </trkpt>
      <trkpt lat="42.92546" lon="0.59566">
        <ele>1436</ele>
        <time>2019-02-03T11:25:22.000Z</time>
      </trkpt>
      <trkpt lat="42.92546" lon="0.59566">
        <ele>1436</ele>
        <time>2019-02-03T11:25:23.000Z</time>
      </trkpt>
      <trkpt lat="42.92546" lon="0.59567">
        <ele>1436</ele>
        <time>2019-02-03T11:25:24.000Z</time>
      </trkpt>
      <trkpt lat="42.92546" lon="0.59567">
        <ele>1436.5</ele>
        <time>2019-02-03T11:25:25.000Z</time>
      </trkpt>
      <trkpt lat="42.92546" lon="0.59568">
        <ele>1437</ele>
        <time>2019-02-03T11:25:26.000Z</time>
      </trkpt>
      <trkpt lat="42.92546" lon="0.59568">
        <ele>1437</ele>
        <time>2019-02-03T11:25:27.000Z</time>
      </trkpt>
      <trkpt lat="42.92545" lon="0.59568">
        <ele>1437</ele>
        <time>2019-02-03T11:25:28.000Z</time>
      </trkpt>
      <trkpt lat="42.92545" lon="0.59568">
        <ele>1437</ele>
        <time>2019-02-03T11:25:29.000Z</time>
      </trkpt>
      <trkpt lat="42.92545" lon="0.59569">
        <ele>1437</ele>
        <time>2019-02-03T11:25:30.000Z</time>
      </trkpt>
      <trkpt lat="42.92544" lon="0.59569">
        <ele>1437</ele>
        <time>2019-02-03T11:25:31.000Z</time>
      </trkpt>
      <trkpt lat="42.92544" lon="0.59569">
        <ele>1438</ele>
        <time>2019-02-03T11:25:32.000Z</time>
      </trkpt>
      <trkpt lat="42.92544" lon="0.59569">
        <ele>1438</ele>
        <time>2019-02-03T11:25:33.000Z</time>
      </trkpt>
      <trkpt lat="42.92543" lon="0.59569">
        <ele>1438</ele>
        <time>2019-02-03T11:25:34.000Z</time>
      </trkpt>
      <trkpt lat="42.92543" lon="0.59569">
        <ele>1438</ele>
        <time>2019-02-03T11:25:35.000Z</time>
      </trkpt>
      <trkpt lat="42.92543" lon="0.59569">
        <ele>1438</ele>
        <time>2019-02-03T11:25:36.000Z</time>
      </trkpt>
      <trkpt lat="42.92543" lon="0.59569">
        <ele>1438</ele>
        <time>2019-02-03T11:25:37.000Z</time>
      </trkpt>
      <trkpt lat="42.92543" lon="0.59569">
        <ele>1438</ele>
        <time>2019-02-03T11:25:38.000Z</time>
      </trkpt>
      <trkpt lat="42.92543" lon="0.59569">
        <ele>1438</ele>
        <time>2019-02-03T11:25:39.000Z</time>
      </trkpt>
      <trkpt lat="42.92543" lon="0.5957">
        <ele>1438.5</ele>
        <time>2019-02-03T11:25:40.000Z</time>
      </trkpt>
      <trkpt lat="42.92543" lon="0.5957">
        <ele>1439</ele>
        <time>2019-02-03T11:25:41.000Z</time>
      </trkpt>
      <trkpt lat="42.92543" lon="0.59571">
        <ele>1439</ele>
        <time>2019-02-03T11:25:42.000Z</time>
      </trkpt>
      <trkpt lat="42.92544" lon="0.59571">
        <ele>1439</ele>
        <time>2019-02-03T11:25:43.000Z</time>
      </trkpt>
      <trkpt lat="42.92544" lon="0.59571">
        <ele>1439</ele>
        <time>2019-02-03T11:25:44.000Z</time>
      </trkpt>
      <trkpt lat="42.92544" lon="0.59571">
        <ele>1439</ele>
        <time>2019-02-03T11:25:45.000Z</time>
      </trkpt>
      <trkpt lat="42.92544" lon="0.59572">
        <ele>1439</ele>
        <time>2019-02-03T11:25:46.000Z</time>
      </trkpt>
      <trkpt lat="42.92544" lon="0.59572">
        <ele>1439</ele>
        <time>2019-02-03T11:25:47.000Z</time>
      </trkpt>
      <trkpt lat="42.92544" lon="0.59572">
        <ele>1439</ele>
        <time>2019-02-03T11:25:48.000Z</time>
      </trkpt>
      <trkpt lat="42.92544" lon="0.59573">
        <ele>1439</ele>
        <time>2019-02-03T11:25:49.000Z</time>
      </trkpt>
      <trkpt lat="42.92544" lon="0.59573">
        <ele>1439.5</ele>
        <time>2019-02-03T11:25:50.000Z</time>
      </trkpt>
      <trkpt lat="42.92545" lon="0.59573">
        <ele>1440</ele>
        <time>2019-02-03T11:25:51.000Z</time>
      </trkpt>
      <trkpt lat="42.92545" lon="0.59573">
        <ele>1440</ele>
        <time>2019-02-03T11:25:52.000Z</time>
      </trkpt>
      <trkpt lat="42.92545" lon="0.59573">
        <ele>1440</ele>
        <time>2019-02-03T11:25:53.000Z</time>
      </trkpt>
      <trkpt lat="42.92545" lon="0.59573">
        <ele>1440</ele>
        <time>2019-02-03T11:25:54.000Z</time>
      </trkpt>
      <trkpt lat="42.92545" lon="0.59574">
        <ele>1440</ele>
        <time>2019-02-03T11:25:55.000Z</time>
      </trkpt>
      <trkpt lat="42.92545" lon="0.59574">
        <ele>1440</ele>
        <time>2019-02-03T11:25:56.000Z</time>
      </trkpt>
      <trkpt lat="42.92545" lon="0.59574">
        <ele>1440</ele>
        <time>2019-02-03T11:25:57.000Z</time>
      </trkpt>
      <trkpt lat="42.92545" lon="0.59574">
        <ele>1440.5</ele>
        <time>2019-02-03T11:25:58.000Z</time>
      </trkpt>
      <trkpt lat="42.92545" lon="0.59574">
        <ele>1441</ele>
        <time>2019-02-03T11:25:59.000Z</time>
      </trkpt>
      <trkpt lat="42.92544" lon="0.59574">
        <ele>1441</ele>
        <time>2019-02-03T11:26:00.000Z</time>
      </trkpt>
      <trkpt lat="42.92544" lon="0.59574">
        <ele>1441</ele>
        <time>2019-02-03T11:26:01.000Z</time>
      </trkpt>
      <trkpt lat="42.92544" lon="0.59574">
        <ele>1441</ele>
        <time>2019-02-03T11:26:02.000Z</time>
      </trkpt>
      <trkpt lat="42.92544" lon="0.59574">
        <ele>1441</ele>
        <time>2019-02-03T11:26:03.000Z</time>
      </trkpt>
      <trkpt lat="42.92544" lon="0.59575">
        <ele>1441</ele>
        <time>2019-02-03T11:26:04.000Z</time>
      </trkpt>
      <trkpt lat="42.92544" lon="0.59575">
        <ele>1441</ele>
        <time>2019-02-03T11:26:05.000Z</time>
      </trkpt>
      <trkpt lat="42.92543" lon="0.59575">
        <ele>1441</ele>
        <time>2019-02-03T11:26:06.000Z</time>
      </trkpt>
      <trkpt lat="42.92543" lon="0.59575">
        <ele>1441</ele>
        <time>2019-02-03T11:26:07.000Z</time>
      </trkpt>
      <trkpt lat="42.92543" lon="0.59576">
        <ele>1442</ele>
        <time>2019-02-03T11:26:08.000Z</time>
      </trkpt>
      <trkpt lat="42.92543" lon="0.59576">
        <ele>1442</ele>
        <time>2019-02-03T11:26:09.000Z</time>
      </trkpt>
      <trkpt lat="42.92543" lon="0.59576">
        <ele>1442</ele>
        <time>2019-02-03T11:26:10.000Z</time>
      </trkpt>
      <trkpt lat="42.92543" lon="0.59577">
        <ele>1442</ele>
        <time>2019-02-03T11:26:11.000Z</time>
      </trkpt>
      <trkpt lat="42.92543" lon="0.59577">
        <ele>1442</ele>
        <time>2019-02-03T11:26:12.000Z</time>
      </trkpt>
      <trkpt lat="42.92543" lon="0.59578">
        <ele>1442</ele>
        <time>2019-02-03T11:26:13.000Z</time>
      </trkpt>
      <trkpt lat="42.92543" lon="0.59579">
        <ele>1442</ele>
        <time>2019-02-03T11:26:14.000Z</time>
      </trkpt>
      <trkpt lat="42.92544" lon="0.5958">
        <ele>1442</ele>
        <time>2019-02-03T11:26:15.000Z</time>
      </trkpt>
      <trkpt lat="42.92544" lon="0.59581">
        <ele>1443</ele>
        <time>2019-02-03T11:26:16.000Z</time>
      </trkpt>
      <trkpt lat="42.92545" lon="0.59581">
        <ele>1443</ele>
        <time>2019-02-03T11:26:17.000Z</time>
      </trkpt>
      <trkpt lat="42.92546" lon="0.59582">
        <ele>1443</ele>
        <time>2019-02-03T11:26:18.000Z</time>
      </trkpt>
      <trkpt lat="42.92547" lon="0.59583">
        <ele>1443</ele>
        <time>2019-02-03T11:26:19.000Z</time>
      </trkpt>
      <trkpt lat="42.92548" lon="0.59583">
        <ele>1443</ele>
        <time>2019-02-03T11:26:20.000Z</time>
      </trkpt>
      <trkpt lat="42.92549" lon="0.59584">
        <ele>1443</ele>
        <time>2019-02-03T11:26:21.000Z</time>
      </trkpt>
      <trkpt lat="42.92549" lon="0.59585">
        <ele>1444</ele>
        <time>2019-02-03T11:26:22.000Z</time>
      </trkpt>
      <trkpt lat="42.92549" lon="0.59585">
        <ele>1444</ele>
        <time>2019-02-03T11:26:23.000Z</time>
      </trkpt>
      <trkpt lat="42.92549" lon="0.59586">
        <ele>1444</ele>
        <time>2019-02-03T11:26:24.000Z</time>
      </trkpt>
      <trkpt lat="42.92548" lon="0.59586">
        <ele>1444</ele>
        <time>2019-02-03T11:26:25.000Z</time>
      </trkpt>
      <trkpt lat="42.92548" lon="0.59587">
        <ele>1444</ele>
        <time>2019-02-03T11:26:26.000Z</time>
      </trkpt>
      <trkpt lat="42.92548" lon="0.59588">
        <ele>1444</ele>
        <time>2019-02-03T11:26:27.000Z</time>
      </trkpt>
      <trkpt lat="42.92547" lon="0.59589">
        <ele>1444</ele>
        <time>2019-02-03T11:26:28.000Z</time>
      </trkpt>
      <trkpt lat="42.92547" lon="0.59589">
        <ele>1444</ele>
        <time>2019-02-03T11:26:29.000Z</time>
      </trkpt>
      <trkpt lat="42.92546" lon="0.5959">
        <ele>1444</ele>
        <time>2019-02-03T11:26:30.000Z</time>
      </trkpt>
      <trkpt lat="42.92546" lon="0.5959">
        <ele>1444</ele>
        <time>2019-02-03T11:26:31.000Z</time>
      </trkpt>
      <trkpt lat="42.92545" lon="0.5959">
        <ele>1444.5</ele>
        <time>2019-02-03T11:26:32.000Z</time>
      </trkpt>
      <trkpt lat="42.92544" lon="0.5959">
        <ele>1445</ele>
        <time>2019-02-03T11:26:33.000Z</time>
      </trkpt>
      <trkpt lat="42.92543" lon="0.5959">
        <ele>1445</ele>
        <time>2019-02-03T11:26:34.000Z</time>
      </trkpt>
      <trkpt lat="42.92542" lon="0.59589">
        <ele>1445</ele>
        <time>2019-02-03T11:26:35.000Z</time>
      </trkpt>
      <trkpt lat="42.92542" lon="0.59589">
        <ele>1445</ele>
        <time>2019-02-03T11:26:36.000Z</time>
      </trkpt>
      <trkpt lat="42.92541" lon="0.59589">
        <ele>1445</ele>
        <time>2019-02-03T11:26:37.000Z</time>
      </trkpt>
      <trkpt lat="42.92541" lon="0.59589">
        <ele>1445.5</ele>
        <time>2019-02-03T11:26:38.000Z</time>
      </trkpt>
      <trkpt lat="42.92541" lon="0.59589">
        <ele>1446</ele>
        <time>2019-02-03T11:26:39.000Z</time>
      </trkpt>
      <trkpt lat="42.92541" lon="0.59589">
        <ele>1446</ele>
        <time>2019-02-03T11:26:40.000Z</time>
      </trkpt>
      <trkpt lat="42.92541" lon="0.59589">
        <ele>1446</ele>
        <time>2019-02-03T11:26:41.000Z</time>
      </trkpt>
      <trkpt lat="42.92541" lon="0.59589">
        <ele>1446</ele>
        <time>2019-02-03T11:26:42.000Z</time>
      </trkpt>
      <trkpt lat="42.92541" lon="0.59589">
        <ele>1446</ele>
        <time>2019-02-03T11:26:43.000Z</time>
      </trkpt>
      <trkpt lat="42.92541" lon="0.59589">
        <ele>1446</ele>
        <time>2019-02-03T11:26:44.000Z</time>
      </trkpt>
      <trkpt lat="42.9254" lon="0.59589">
        <ele>1446</ele>
        <time>2019-02-03T11:26:45.000Z</time>
      </trkpt>
      <trkpt lat="42.9254" lon="0.59589">
        <ele>1446</ele>
        <time>2019-02-03T11:26:46.000Z</time>
      </trkpt>
      <trkpt lat="42.9254" lon="0.59589">
        <ele>1446.3</ele>
        <time>2019-02-03T11:26:47.000Z</time>
      </trkpt>
      <trkpt lat="42.9254" lon="0.59589">
        <ele>1446.7</ele>
        <time>2019-02-03T11:26:48.000Z</time>
      </trkpt>
      <trkpt lat="42.92539" lon="0.59589">
        <ele>1447</ele>
        <time>2019-02-03T11:26:49.000Z</time>
      </trkpt>
      <trkpt lat="42.92539" lon="0.59589">
        <ele>1447</ele>
        <time>2019-02-03T11:26:50.000Z</time>
      </trkpt>
      <trkpt lat="42.92539" lon="0.59589">
        <ele>1447</ele>
        <time>2019-02-03T11:26:51.000Z</time>
      </trkpt>
      <trkpt lat="42.92539" lon="0.59589">
        <ele>1447</ele>
        <time>2019-02-03T11:26:52.000Z</time>
      </trkpt>
      <trkpt lat="42.92539" lon="0.59589">
        <ele>1447</ele>
        <time>2019-02-03T11:26:53.000Z</time>
      </trkpt>
      <trkpt lat="42.92538" lon="0.59589">
        <ele>1447</ele>
        <time>2019-02-03T11:26:54.000Z</time>
      </trkpt>
      <trkpt lat="42.92538" lon="0.59589">
        <ele>1447</ele>
        <time>2019-02-03T11:26:55.000Z</time>
      </trkpt>
      <trkpt lat="42.92538" lon="0.5959">
        <ele>1448</ele>
        <time>2019-02-03T11:26:56.000Z</time>
      </trkpt>
      <trkpt lat="42.92538" lon="0.5959">
        <ele>1448</ele>
        <time>2019-02-03T11:26:57.000Z</time>
      </trkpt>
      <trkpt lat="42.92537" lon="0.5959">
        <ele>1448</ele>
        <time>2019-02-03T11:26:58.000Z</time>
      </trkpt>
      <trkpt lat="42.92537" lon="0.59591">
        <ele>1448</ele>
        <time>2019-02-03T11:26:59.000Z</time>
      </trkpt>
      <trkpt lat="42.92536" lon="0.59591">
        <ele>1448</ele>
        <time>2019-02-03T11:27:00.000Z</time>
      </trkpt>
      <trkpt lat="42.92536" lon="0.59592">
        <ele>1448</ele>
        <time>2019-02-03T11:27:01.000Z</time>
      </trkpt>
      <trkpt lat="42.92536" lon="0.59592">
        <ele>1448</ele>
        <time>2019-02-03T11:27:02.000Z</time>
      </trkpt>
      <trkpt lat="42.92535" lon="0.59592">
        <ele>1448</ele>
        <time>2019-02-03T11:27:03.000Z</time>
      </trkpt>
      <trkpt lat="42.92535" lon="0.59593">
        <ele>1448.5</ele>
        <time>2019-02-03T11:27:04.000Z</time>
      </trkpt>
      <trkpt lat="42.92535" lon="0.59593">
        <ele>1449</ele>
        <time>2019-02-03T11:27:05.000Z</time>
      </trkpt>
      <trkpt lat="42.92534" lon="0.59593">
        <ele>1449</ele>
        <time>2019-02-03T11:27:06.000Z</time>
      </trkpt>
      <trkpt lat="42.92534" lon="0.59594">
        <ele>1449</ele>
        <time>2019-02-03T11:27:07.000Z</time>
      </trkpt>
      <trkpt lat="42.92534" lon="0.59594">
        <ele>1449</ele>
        <time>2019-02-03T11:27:08.000Z</time>
      </trkpt>
      <trkpt lat="42.92534" lon="0.59594">
        <ele>1449</ele>
        <time>2019-02-03T11:27:09.000Z</time>
      </trkpt>
      <trkpt lat="42.92534" lon="0.59594">
        <ele>1449</ele>
        <time>2019-02-03T11:27:10.000Z</time>
      </trkpt>
      <trkpt lat="42.92534" lon="0.59594">
        <ele>1449.3</ele>
        <time>2019-02-03T11:27:11.000Z</time>
      </trkpt>
      <trkpt lat="42.92534" lon="0.59594">
        <ele>1449.7</ele>
        <time>2019-02-03T11:27:12.000Z</time>
      </trkpt>
      <trkpt lat="42.92534" lon="0.59594">
        <ele>1450</ele>
        <time>2019-02-03T11:27:13.000Z</time>
      </trkpt>
      <trkpt lat="42.92534" lon="0.59594">
        <ele>1450</ele>
        <time>2019-02-03T11:27:14.000Z</time>
      </trkpt>
      <trkpt lat="42.92534" lon="0.59594">
        <ele>1450</ele>
        <time>2019-02-03T11:27:15.000Z</time>
      </trkpt>
      <trkpt lat="42.92534" lon="0.59594">
        <ele>1450</ele>
        <time>2019-02-03T11:27:16.000Z</time>
      </trkpt>
      <trkpt lat="42.92534" lon="0.59594">
        <ele>1450</ele>
        <time>2019-02-03T11:27:17.000Z</time>
      </trkpt>
      <trkpt lat="42.92534" lon="0.59594">
        <ele>1450</ele>
        <time>2019-02-03T11:27:18.000Z</time>
      </trkpt>
      <trkpt lat="42.92534" lon="0.59594">
        <ele>1450</ele>
        <time>2019-02-03T11:27:19.000Z</time>
      </trkpt>
      <trkpt lat="42.92534" lon="0.59594">
        <ele>1450.5</ele>
        <time>2019-02-03T11:27:20.000Z</time>
      </trkpt>
      <trkpt lat="42.92534" lon="0.59594">
        <ele>1451</ele>
        <time>2019-02-03T11:27:21.000Z</time>
      </trkpt>
      <trkpt lat="42.92533" lon="0.59594">
        <ele>1451</ele>
        <time>2019-02-03T11:27:22.000Z</time>
      </trkpt>
      <trkpt lat="42.92533" lon="0.59594">
        <ele>1451</ele>
        <time>2019-02-03T11:27:23.000Z</time>
      </trkpt>
      <trkpt lat="42.92533" lon="0.59594">
        <ele>1451</ele>
        <time>2019-02-03T11:27:24.000Z</time>
      </trkpt>
      <trkpt lat="42.92533" lon="0.59595">
        <ele>1451</ele>
        <time>2019-02-03T11:27:25.000Z</time>
      </trkpt>
      <trkpt lat="42.92533" lon="0.59596">
        <ele>1451</ele>
        <time>2019-02-03T11:27:26.000Z</time>
      </trkpt>
      <trkpt lat="42.92533" lon="0.59596">
        <ele>1451.3</ele>
        <time>2019-02-03T11:27:27.000Z</time>
      </trkpt>
      <trkpt lat="42.92533" lon="0.59597">
        <ele>1451.7</ele>
        <time>2019-02-03T11:27:28.000Z</time>
      </trkpt>
      <trkpt lat="42.92533" lon="0.59598">
        <ele>1452</ele>
        <time>2019-02-03T11:27:29.000Z</time>
      </trkpt>
      <trkpt lat="42.92534" lon="0.59599">
        <ele>1452</ele>
        <time>2019-02-03T11:27:30.000Z</time>
      </trkpt>
      <trkpt lat="42.92534" lon="0.596">
        <ele>1452</ele>
        <time>2019-02-03T11:27:31.000Z</time>
      </trkpt>
      <trkpt lat="42.92534" lon="0.59601">
        <ele>1452</ele>
        <time>2019-02-03T11:27:32.000Z</time>
      </trkpt>
      <trkpt lat="42.92534" lon="0.59601">
        <ele>1452</ele>
        <time>2019-02-03T11:27:33.000Z</time>
      </trkpt>
      <trkpt lat="42.92534" lon="0.59602">
        <ele>1452</ele>
        <time>2019-02-03T11:27:34.000Z</time>
      </trkpt>
      <trkpt lat="42.92534" lon="0.59602">
        <ele>1452</ele>
        <time>2019-02-03T11:27:35.000Z</time>
      </trkpt>
      <trkpt lat="42.92534" lon="0.59602">
        <ele>1452</ele>
        <time>2019-02-03T11:27:36.000Z</time>
      </trkpt>
      <trkpt lat="42.92534" lon="0.59602">
        <ele>1452.3</ele>
        <time>2019-02-03T11:27:37.000Z</time>
      </trkpt>
      <trkpt lat="42.92534" lon="0.59602">
        <ele>1452.7</ele>
        <time>2019-02-03T11:27:38.000Z</time>
      </trkpt>
      <trkpt lat="42.92534" lon="0.59602">
        <ele>1453</ele>
        <time>2019-02-03T11:27:39.000Z</time>
      </trkpt>
      <trkpt lat="42.92534" lon="0.59602">
        <ele>1453</ele>
        <time>2019-02-03T11:27:40.000Z</time>
      </trkpt>
      <trkpt lat="42.92534" lon="0.59603">
        <ele>1453</ele>
        <time>2019-02-03T11:27:41.000Z</time>
      </trkpt>
      <trkpt lat="42.92534" lon="0.59603">
        <ele>1453</ele>
        <time>2019-02-03T11:27:42.000Z</time>
      </trkpt>
      <trkpt lat="42.92535" lon="0.59603">
        <ele>1453</ele>
        <time>2019-02-03T11:27:43.000Z</time>
      </trkpt>
      <trkpt lat="42.92535" lon="0.59604">
        <ele>1453.5</ele>
        <time>2019-02-03T11:27:44.000Z</time>
      </trkpt>
      <trkpt lat="42.92535" lon="0.59604">
        <ele>1454</ele>
        <time>2019-02-03T11:27:45.000Z</time>
      </trkpt>
      <trkpt lat="42.92535" lon="0.59605">
        <ele>1454</ele>
        <time>2019-02-03T11:27:46.000Z</time>
      </trkpt>
      <trkpt lat="42.92535" lon="0.59606">
        <ele>1454</ele>
        <time>2019-02-03T11:27:47.000Z</time>
      </trkpt>
      <trkpt lat="42.92535" lon="0.59607">
        <ele>1454</ele>
        <time>2019-02-03T11:27:48.000Z</time>
      </trkpt>
      <trkpt lat="42.92536" lon="0.59608">
        <ele>1454</ele>
        <time>2019-02-03T11:27:49.000Z</time>
      </trkpt>
      <trkpt lat="42.92536" lon="0.59608">
        <ele>1454</ele>
        <time>2019-02-03T11:27:50.000Z</time>
      </trkpt>
      <trkpt lat="42.92536" lon="0.59609">
        <ele>1454</ele>
        <time>2019-02-03T11:27:51.000Z</time>
      </trkpt>
      <trkpt lat="42.92536" lon="0.59609">
        <ele>1454.5</ele>
        <time>2019-02-03T11:27:52.000Z</time>
      </trkpt>
      <trkpt lat="42.92537" lon="0.5961">
        <ele>1455</ele>
        <time>2019-02-03T11:27:53.000Z</time>
      </trkpt>
      <trkpt lat="42.92537" lon="0.5961">
        <ele>1455</ele>
        <time>2019-02-03T11:27:54.000Z</time>
      </trkpt>
      <trkpt lat="42.92537" lon="0.5961">
        <ele>1455</ele>
        <time>2019-02-03T11:27:55.000Z</time>
      </trkpt>
      <trkpt lat="42.92537" lon="0.59611">
        <ele>1455</ele>
        <time>2019-02-03T11:27:56.000Z</time>
      </trkpt>
      <trkpt lat="42.92537" lon="0.59611">
        <ele>1455</ele>
        <time>2019-02-03T11:27:57.000Z</time>
      </trkpt>
      <trkpt lat="42.92537" lon="0.59612">
        <ele>1455</ele>
        <time>2019-02-03T11:27:58.000Z</time>
      </trkpt>
      <trkpt lat="42.92536" lon="0.59612">
        <ele>1455</ele>
        <time>2019-02-03T11:27:59.000Z</time>
      </trkpt>
      <trkpt lat="42.92536" lon="0.59613">
        <ele>1456</ele>
        <time>2019-02-03T11:28:00.000Z</time>
      </trkpt>
      <trkpt lat="42.92536" lon="0.59613">
        <ele>1456</ele>
        <time>2019-02-03T11:28:01.000Z</time>
      </trkpt>
      <trkpt lat="42.92536" lon="0.59613">
        <ele>1456</ele>
        <time>2019-02-03T11:28:02.000Z</time>
      </trkpt>
      <trkpt lat="42.92536" lon="0.59614">
        <ele>1456</ele>
        <time>2019-02-03T11:28:03.000Z</time>
      </trkpt>
      <trkpt lat="42.92536" lon="0.59614">
        <ele>1456</ele>
        <time>2019-02-03T11:28:04.000Z</time>
      </trkpt>
      <trkpt lat="42.92536" lon="0.59614">
        <ele>1456</ele>
        <time>2019-02-03T11:28:05.000Z</time>
      </trkpt>
      <trkpt lat="42.92536" lon="0.59614">
        <ele>1456</ele>
        <time>2019-02-03T11:28:06.000Z</time>
      </trkpt>
      <trkpt lat="42.92536" lon="0.59614">
        <ele>1456</ele>
        <time>2019-02-03T11:28:07.000Z</time>
      </trkpt>
      <trkpt lat="42.92536" lon="0.59614">
        <ele>1456.5</ele>
        <time>2019-02-03T11:28:08.000Z</time>
      </trkpt>
      <trkpt lat="42.92536" lon="0.59614">
        <ele>1457</ele>
        <time>2019-02-03T11:28:09.000Z</time>
      </trkpt>
      <trkpt lat="42.92535" lon="0.59614">
        <ele>1457</ele>
        <time>2019-02-03T11:28:10.000Z</time>
      </trkpt>
      <trkpt lat="42.92535" lon="0.59615">
        <ele>1457</ele>
        <time>2019-02-03T11:28:11.000Z</time>
      </trkpt>
      <trkpt lat="42.92535" lon="0.59615">
        <ele>1457</ele>
        <time>2019-02-03T11:28:12.000Z</time>
      </trkpt>
      <trkpt lat="42.92534" lon="0.59615">
        <ele>1457</ele>
        <time>2019-02-03T11:28:13.000Z</time>
      </trkpt>
      <trkpt lat="42.92534" lon="0.59616">
        <ele>1457</ele>
        <time>2019-02-03T11:28:14.000Z</time>
      </trkpt>
      <trkpt lat="42.92533" lon="0.59616">
        <ele>1457</ele>
        <time>2019-02-03T11:28:15.000Z</time>
      </trkpt>
      <trkpt lat="42.92533" lon="0.59616">
        <ele>1457.5</ele>
        <time>2019-02-03T11:28:16.000Z</time>
      </trkpt>
      <trkpt lat="42.92532" lon="0.59616">
        <ele>1458</ele>
        <time>2019-02-03T11:28:17.000Z</time>
      </trkpt>
      <trkpt lat="42.92532" lon="0.59616">
        <ele>1458</ele>
        <time>2019-02-03T11:28:18.000Z</time>
      </trkpt>
      <trkpt lat="42.92532" lon="0.59617">
        <ele>1458</ele>
        <time>2019-02-03T11:28:19.000Z</time>
      </trkpt>
      <trkpt lat="42.92532" lon="0.59618">
        <ele>1458</ele>
        <time>2019-02-03T11:28:20.000Z</time>
      </trkpt>
      <trkpt lat="42.92532" lon="0.59619">
        <ele>1458</ele>
        <time>2019-02-03T11:28:21.000Z</time>
      </trkpt>
      <trkpt lat="42.92532" lon="0.59619">
        <ele>1458</ele>
        <time>2019-02-03T11:28:22.000Z</time>
      </trkpt>
      <trkpt lat="42.92532" lon="0.5962">
        <ele>1458</ele>
        <time>2019-02-03T11:28:23.000Z</time>
      </trkpt>
      <trkpt lat="42.92532" lon="0.5962">
        <ele>1458.5</ele>
        <time>2019-02-03T11:28:24.000Z</time>
      </trkpt>
      <trkpt lat="42.92532" lon="0.5962">
        <ele>1459</ele>
        <time>2019-02-03T11:28:25.000Z</time>
      </trkpt>
      <trkpt lat="42.92532" lon="0.5962">
        <ele>1459</ele>
        <time>2019-02-03T11:28:26.000Z</time>
      </trkpt>
      <trkpt lat="42.92532" lon="0.5962">
        <ele>1459</ele>
        <time>2019-02-03T11:28:27.000Z</time>
      </trkpt>
      <trkpt lat="42.92532" lon="0.5962">
        <ele>1459.5</ele>
        <time>2019-02-03T11:28:28.000Z</time>
      </trkpt>
      <trkpt lat="42.92532" lon="0.5962">
        <ele>1460</ele>
        <time>2019-02-03T11:28:29.000Z</time>
      </trkpt>
      <trkpt lat="42.92532" lon="0.5962">
        <ele>1460</ele>
        <time>2019-02-03T11:28:30.000Z</time>
      </trkpt>
      <trkpt lat="42.92531" lon="0.5962">
        <ele>1460</ele>
        <time>2019-02-03T11:28:31.000Z</time>
      </trkpt>
      <trkpt lat="42.92531" lon="0.5962">
        <ele>1460</ele>
        <time>2019-02-03T11:28:32.000Z</time>
      </trkpt>
      <trkpt lat="42.92531" lon="0.5962">
        <ele>1460</ele>
        <time>2019-02-03T11:28:33.000Z</time>
      </trkpt>
      <trkpt lat="42.92531" lon="0.5962">
        <ele>1461</ele>
        <time>2019-02-03T11:28:34.000Z</time>
      </trkpt>
      <trkpt lat="42.92531" lon="0.5962">
        <ele>1461</ele>
        <time>2019-02-03T11:28:35.000Z</time>
      </trkpt>
      <trkpt lat="42.92531" lon="0.5962">
        <ele>1461</ele>
        <time>2019-02-03T11:28:36.000Z</time>
      </trkpt>
      <trkpt lat="42.92531" lon="0.59621">
        <ele>1461</ele>
        <time>2019-02-03T11:28:37.000Z</time>
      </trkpt>
      <trkpt lat="42.92531" lon="0.59621">
        <ele>1461</ele>
        <time>2019-02-03T11:28:38.000Z</time>
      </trkpt>
      <trkpt lat="42.9253" lon="0.59621">
        <ele>1461</ele>
        <time>2019-02-03T11:28:39.000Z</time>
      </trkpt>
      <trkpt lat="42.9253" lon="0.59622">
        <ele>1461</ele>
        <time>2019-02-03T11:28:40.000Z</time>
      </trkpt>
      <trkpt lat="42.9253" lon="0.59622">
        <ele>1461</ele>
        <time>2019-02-03T11:28:41.000Z</time>
      </trkpt>
      <trkpt lat="42.9253" lon="0.59622">
        <ele>1461</ele>
        <time>2019-02-03T11:28:42.000Z</time>
      </trkpt>
      <trkpt lat="42.9253" lon="0.59623">
        <ele>1461</ele>
        <time>2019-02-03T11:28:43.000Z</time>
      </trkpt>
      <trkpt lat="42.92529" lon="0.59623">
        <ele>1461.5</ele>
        <time>2019-02-03T11:28:44.000Z</time>
      </trkpt>
      <trkpt lat="42.92529" lon="0.59624">
        <ele>1462</ele>
        <time>2019-02-03T11:28:45.000Z</time>
      </trkpt>
      <trkpt lat="42.92529" lon="0.59624">
        <ele>1462</ele>
        <time>2019-02-03T11:28:46.000Z</time>
      </trkpt>
      <trkpt lat="42.92529" lon="0.59624">
        <ele>1462</ele>
        <time>2019-02-03T11:28:47.000Z</time>
      </trkpt>
      <trkpt lat="42.92528" lon="0.59624">
        <ele>1462</ele>
        <time>2019-02-03T11:28:48.000Z</time>
      </trkpt>
      <trkpt lat="42.92528" lon="0.59625">
        <ele>1462</ele>
        <time>2019-02-03T11:28:49.000Z</time>
      </trkpt>
      <trkpt lat="42.92527" lon="0.59625">
        <ele>1462</ele>
        <time>2019-02-03T11:28:50.000Z</time>
      </trkpt>
      <trkpt lat="42.92527" lon="0.59625">
        <ele>1462</ele>
        <time>2019-02-03T11:28:51.000Z</time>
      </trkpt>
      <trkpt lat="42.92526" lon="0.59625">
        <ele>1462</ele>
        <time>2019-02-03T11:28:52.000Z</time>
      </trkpt>
      <trkpt lat="42.92526" lon="0.59626">
        <ele>1462</ele>
        <time>2019-02-03T11:28:53.000Z</time>
      </trkpt>
      <trkpt lat="42.92525" lon="0.59626">
        <ele>1462</ele>
        <time>2019-02-03T11:28:54.000Z</time>
      </trkpt>
      <trkpt lat="42.92525" lon="0.59626">
        <ele>1462</ele>
        <time>2019-02-03T11:28:55.000Z</time>
      </trkpt>
      <trkpt lat="42.92524" lon="0.59626">
        <ele>1462.5</ele>
        <time>2019-02-03T11:28:56.000Z</time>
      </trkpt>
      <trkpt lat="42.92524" lon="0.59626">
        <ele>1463</ele>
        <time>2019-02-03T11:28:57.000Z</time>
      </trkpt>
      <trkpt lat="42.92523" lon="0.59626">
        <ele>1463</ele>
        <time>2019-02-03T11:28:58.000Z</time>
      </trkpt>
      <trkpt lat="42.92523" lon="0.59626">
        <ele>1463</ele>
        <time>2019-02-03T11:28:59.000Z</time>
      </trkpt>
      <trkpt lat="42.92522" lon="0.59626">
        <ele>1463</ele>
        <time>2019-02-03T11:29:00.000Z</time>
      </trkpt>
      <trkpt lat="42.92522" lon="0.59626">
        <ele>1463</ele>
        <time>2019-02-03T11:29:01.000Z</time>
      </trkpt>
      <trkpt lat="42.92522" lon="0.59626">
        <ele>1463</ele>
        <time>2019-02-03T11:29:02.000Z</time>
      </trkpt>
      <trkpt lat="42.92522" lon="0.59626">
        <ele>1463</ele>
        <time>2019-02-03T11:29:03.000Z</time>
      </trkpt>
      <trkpt lat="42.92521" lon="0.59626">
        <ele>1464</ele>
        <time>2019-02-03T11:29:04.000Z</time>
      </trkpt>
      <trkpt lat="42.92521" lon="0.59626">
        <ele>1464</ele>
        <time>2019-02-03T11:29:05.000Z</time>
      </trkpt>
      <trkpt lat="42.92521" lon="0.59626">
        <ele>1464</ele>
        <time>2019-02-03T11:29:06.000Z</time>
      </trkpt>
      <trkpt lat="42.92521" lon="0.59626">
        <ele>1464</ele>
        <time>2019-02-03T11:29:07.000Z</time>
      </trkpt>
      <trkpt lat="42.92521" lon="0.59626">
        <ele>1464</ele>
        <time>2019-02-03T11:29:08.000Z</time>
      </trkpt>
      <trkpt lat="42.92521" lon="0.59626">
        <ele>1464</ele>
        <time>2019-02-03T11:29:09.000Z</time>
      </trkpt>
      <trkpt lat="42.92521" lon="0.59626">
        <ele>1464</ele>
        <time>2019-02-03T11:29:10.000Z</time>
      </trkpt>
      <trkpt lat="42.92521" lon="0.59626">
        <ele>1464</ele>
        <time>2019-02-03T11:29:11.000Z</time>
      </trkpt>
      <trkpt lat="42.92521" lon="0.59626">
        <ele>1464.5</ele>
        <time>2019-02-03T11:29:12.000Z</time>
      </trkpt>
      <trkpt lat="42.92521" lon="0.59626">
        <ele>1465</ele>
        <time>2019-02-03T11:29:13.000Z</time>
      </trkpt>
      <trkpt lat="42.92521" lon="0.59626">
        <ele>1465</ele>
        <time>2019-02-03T11:29:14.000Z</time>
      </trkpt>
      <trkpt lat="42.92521" lon="0.59626">
        <ele>1465</ele>
        <time>2019-02-03T11:29:15.000Z</time>
      </trkpt>
      <trkpt lat="42.92521" lon="0.59626">
        <ele>1465</ele>
        <time>2019-02-03T11:29:16.000Z</time>
      </trkpt>
      <trkpt lat="42.92521" lon="0.59626">
        <ele>1465</ele>
        <time>2019-02-03T11:29:17.000Z</time>
      </trkpt>
      <trkpt lat="42.92521" lon="0.59626">
        <ele>1465</ele>
        <time>2019-02-03T11:29:18.000Z</time>
      </trkpt>
      <trkpt lat="42.92521" lon="0.59626">
        <ele>1465</ele>
        <time>2019-02-03T11:29:19.000Z</time>
      </trkpt>
      <trkpt lat="42.92521" lon="0.59626">
        <ele>1465.5</ele>
        <time>2019-02-03T11:29:20.000Z</time>
      </trkpt>
      <trkpt lat="42.9252" lon="0.59626">
        <ele>1466</ele>
        <time>2019-02-03T11:29:21.000Z</time>
      </trkpt>
      <trkpt lat="42.9252" lon="0.59627">
        <ele>1466</ele>
        <time>2019-02-03T11:29:22.000Z</time>
      </trkpt>
      <trkpt lat="42.92519" lon="0.59627">
        <ele>1466</ele>
        <time>2019-02-03T11:29:23.000Z</time>
      </trkpt>
      <trkpt lat="42.92519" lon="0.59628">
        <ele>1466</ele>
        <time>2019-02-03T11:29:24.000Z</time>
      </trkpt>
      <trkpt lat="42.92518" lon="0.59628">
        <ele>1466</ele>
        <time>2019-02-03T11:29:25.000Z</time>
      </trkpt>
      <trkpt lat="42.92518" lon="0.59629">
        <ele>1466</ele>
        <time>2019-02-03T11:29:26.000Z</time>
      </trkpt>
      <trkpt lat="42.92518" lon="0.59629">
        <ele>1466</ele>
        <time>2019-02-03T11:29:27.000Z</time>
      </trkpt>
      <trkpt lat="42.92518" lon="0.59629">
        <ele>1467</ele>
        <time>2019-02-03T11:29:28.000Z</time>
      </trkpt>
      <trkpt lat="42.92518" lon="0.5963">
        <ele>1467</ele>
        <time>2019-02-03T11:29:29.000Z</time>
      </trkpt>
      <trkpt lat="42.92517" lon="0.5963">
        <ele>1467</ele>
        <time>2019-02-03T11:29:30.000Z</time>
      </trkpt>
      <trkpt lat="42.92517" lon="0.5963">
        <ele>1467</ele>
        <time>2019-02-03T11:29:31.000Z</time>
      </trkpt>
      <trkpt lat="42.92517" lon="0.5963">
        <ele>1467</ele>
        <time>2019-02-03T11:29:32.000Z</time>
      </trkpt>
      <trkpt lat="42.92517" lon="0.59631">
        <ele>1467</ele>
        <time>2019-02-03T11:29:33.000Z</time>
      </trkpt>
      <trkpt lat="42.92516" lon="0.59631">
        <ele>1467</ele>
        <time>2019-02-03T11:29:34.000Z</time>
      </trkpt>
      <trkpt lat="42.92516" lon="0.59631">
        <ele>1467.3</ele>
        <time>2019-02-03T11:29:35.000Z</time>
      </trkpt>
      <trkpt lat="42.92516" lon="0.59632">
        <ele>1467.7</ele>
        <time>2019-02-03T11:29:36.000Z</time>
      </trkpt>
      <trkpt lat="42.92515" lon="0.59632">
        <ele>1468</ele>
        <time>2019-02-03T11:29:37.000Z</time>
      </trkpt>
      <trkpt lat="42.92514" lon="0.59632">
        <ele>1468</ele>
        <time>2019-02-03T11:29:38.000Z</time>
      </trkpt>
      <trkpt lat="42.92514" lon="0.59633">
        <ele>1468</ele>
        <time>2019-02-03T11:29:39.000Z</time>
      </trkpt>
      <trkpt lat="42.92513" lon="0.59633">
        <ele>1468</ele>
        <time>2019-02-03T11:29:40.000Z</time>
      </trkpt>
      <trkpt lat="42.92512" lon="0.59633">
        <ele>1468</ele>
        <time>2019-02-03T11:29:41.000Z</time>
      </trkpt>
      <trkpt lat="42.92511" lon="0.59633">
        <ele>1468</ele>
        <time>2019-02-03T11:29:42.000Z</time>
      </trkpt>
      <trkpt lat="42.92511" lon="0.59633">
        <ele>1468</ele>
        <time>2019-02-03T11:29:43.000Z</time>
      </trkpt>
      <trkpt lat="42.9251" lon="0.59633">
        <ele>1468</ele>
        <time>2019-02-03T11:29:44.000Z</time>
      </trkpt>
      <trkpt lat="42.9251" lon="0.59633">
        <ele>1468</ele>
        <time>2019-02-03T11:29:45.000Z</time>
      </trkpt>
      <trkpt lat="42.92509" lon="0.59633">
        <ele>1468.5</ele>
        <time>2019-02-03T11:29:46.000Z</time>
      </trkpt>
      <trkpt lat="42.92509" lon="0.59634">
        <ele>1469</ele>
        <time>2019-02-03T11:29:47.000Z</time>
      </trkpt>
      <trkpt lat="42.92508" lon="0.59634">
        <ele>1469</ele>
        <time>2019-02-03T11:29:48.000Z</time>
      </trkpt>
      <trkpt lat="42.92508" lon="0.59634">
        <ele>1469</ele>
        <time>2019-02-03T11:29:49.000Z</time>
      </trkpt>
      <trkpt lat="42.92508" lon="0.59634">
        <ele>1469</ele>
        <time>2019-02-03T11:29:50.000Z</time>
      </trkpt>
      <trkpt lat="42.92507" lon="0.59634">
        <ele>1469</ele>
        <time>2019-02-03T11:29:51.000Z</time>
      </trkpt>
      <trkpt lat="42.92507" lon="0.59634">
        <ele>1469</ele>
        <time>2019-02-03T11:29:52.000Z</time>
      </trkpt>
      <trkpt lat="42.92506" lon="0.59634">
        <ele>1469</ele>
        <time>2019-02-03T11:29:53.000Z</time>
      </trkpt>
      <trkpt lat="42.92506" lon="0.59634">
        <ele>1469.5</ele>
        <time>2019-02-03T11:29:54.000Z</time>
      </trkpt>
      <trkpt lat="42.92505" lon="0.59635">
        <ele>1470</ele>
        <time>2019-02-03T11:29:55.000Z</time>
      </trkpt>
      <trkpt lat="42.92505" lon="0.59635">
        <ele>1470</ele>
        <time>2019-02-03T11:29:56.000Z</time>
      </trkpt>
      <trkpt lat="42.92504" lon="0.59635">
        <ele>1470</ele>
        <time>2019-02-03T11:29:57.000Z</time>
      </trkpt>
      <trkpt lat="42.92504" lon="0.59635">
        <ele>1470</ele>
        <time>2019-02-03T11:29:58.000Z</time>
      </trkpt>
      <trkpt lat="42.92503" lon="0.59635">
        <ele>1470.3</ele>
        <time>2019-02-03T11:29:59.000Z</time>
      </trkpt>
      <trkpt lat="42.92503" lon="0.59635">
        <ele>1470.7</ele>
        <time>2019-02-03T11:30:00.000Z</time>
      </trkpt>
      <trkpt lat="42.92503" lon="0.59636">
        <ele>1471</ele>
        <time>2019-02-03T11:30:01.000Z</time>
      </trkpt>
      <trkpt lat="42.92502" lon="0.59636">
        <ele>1471</ele>
        <time>2019-02-03T11:30:02.000Z</time>
      </trkpt>
      <trkpt lat="42.92502" lon="0.59636">
        <ele>1471</ele>
        <time>2019-02-03T11:30:03.000Z</time>
      </trkpt>
      <trkpt lat="42.92502" lon="0.59636">
        <ele>1471</ele>
        <time>2019-02-03T11:30:04.000Z</time>
      </trkpt>
      <trkpt lat="42.92502" lon="0.59636">
        <ele>1471</ele>
        <time>2019-02-03T11:30:05.000Z</time>
      </trkpt>
      <trkpt lat="42.92502" lon="0.59636">
        <ele>1471</ele>
        <time>2019-02-03T11:30:06.000Z</time>
      </trkpt>
      <trkpt lat="42.92502" lon="0.59636">
        <ele>1471</ele>
        <time>2019-02-03T11:30:07.000Z</time>
      </trkpt>
      <trkpt lat="42.92502" lon="0.59636">
        <ele>1471</ele>
        <time>2019-02-03T11:30:08.000Z</time>
      </trkpt>
      <trkpt lat="42.92502" lon="0.59636">
        <ele>1471.3</ele>
        <time>2019-02-03T11:30:09.000Z</time>
      </trkpt>
      <trkpt lat="42.92502" lon="0.59636">
        <ele>1471.7</ele>
        <time>2019-02-03T11:30:10.000Z</time>
      </trkpt>
      <trkpt lat="42.92501" lon="0.59636">
        <ele>1472</ele>
        <time>2019-02-03T11:30:11.000Z</time>
      </trkpt>
      <trkpt lat="42.92501" lon="0.59636">
        <ele>1472</ele>
        <time>2019-02-03T11:30:12.000Z</time>
      </trkpt>
      <trkpt lat="42.92501" lon="0.59636">
        <ele>1472</ele>
        <time>2019-02-03T11:30:13.000Z</time>
      </trkpt>
      <trkpt lat="42.92501" lon="0.59636">
        <ele>1472</ele>
        <time>2019-02-03T11:30:14.000Z</time>
      </trkpt>
      <trkpt lat="42.92501" lon="0.59636">
        <ele>1472.3</ele>
        <time>2019-02-03T11:30:15.000Z</time>
      </trkpt>
      <trkpt lat="42.925" lon="0.59636">
        <ele>1472.7</ele>
        <time>2019-02-03T11:30:16.000Z</time>
      </trkpt>
      <trkpt lat="42.925" lon="0.59636">
        <ele>1473</ele>
        <time>2019-02-03T11:30:17.000Z</time>
      </trkpt>
      <trkpt lat="42.925" lon="0.59636">
        <ele>1473</ele>
        <time>2019-02-03T11:30:18.000Z</time>
      </trkpt>
      <trkpt lat="42.92499" lon="0.59636">
        <ele>1473</ele>
        <time>2019-02-03T11:30:19.000Z</time>
      </trkpt>
      <trkpt lat="42.92499" lon="0.59636">
        <ele>1473</ele>
        <time>2019-02-03T11:30:20.000Z</time>
      </trkpt>
      <trkpt lat="42.92499" lon="0.59636">
        <ele>1473</ele>
        <time>2019-02-03T11:30:21.000Z</time>
      </trkpt>
      <trkpt lat="42.92499" lon="0.59636">
        <ele>1473</ele>
        <time>2019-02-03T11:30:22.000Z</time>
      </trkpt>
      <trkpt lat="42.92499" lon="0.59636">
        <ele>1473</ele>
        <time>2019-02-03T11:30:23.000Z</time>
      </trkpt>
      <trkpt lat="42.92499" lon="0.59636">
        <ele>1473.5</ele>
        <time>2019-02-03T11:30:24.000Z</time>
      </trkpt>
      <trkpt lat="42.92499" lon="0.59636">
        <ele>1474</ele>
        <time>2019-02-03T11:30:25.000Z</time>
      </trkpt>
      <trkpt lat="42.92498" lon="0.59636">
        <ele>1474</ele>
        <time>2019-02-03T11:30:26.000Z</time>
      </trkpt>
      <trkpt lat="42.92498" lon="0.59637">
        <ele>1474</ele>
        <time>2019-02-03T11:30:27.000Z</time>
      </trkpt>
      <trkpt lat="42.92497" lon="0.59637">
        <ele>1474</ele>
        <time>2019-02-03T11:30:28.000Z</time>
      </trkpt>
      <trkpt lat="42.92497" lon="0.59637">
        <ele>1474</ele>
        <time>2019-02-03T11:30:29.000Z</time>
      </trkpt>
      <trkpt lat="42.92496" lon="0.59637">
        <ele>1474</ele>
        <time>2019-02-03T11:30:30.000Z</time>
      </trkpt>
      <trkpt lat="42.92495" lon="0.59638">
        <ele>1474</ele>
        <time>2019-02-03T11:30:31.000Z</time>
      </trkpt>
      <trkpt lat="42.92495" lon="0.59638">
        <ele>1474</ele>
        <time>2019-02-03T11:30:32.000Z</time>
      </trkpt>
      <trkpt lat="42.92494" lon="0.59638">
        <ele>1474</ele>
        <time>2019-02-03T11:30:33.000Z</time>
      </trkpt>
      <trkpt lat="42.92494" lon="0.59638">
        <ele>1475</ele>
        <time>2019-02-03T11:30:34.000Z</time>
      </trkpt>
      <trkpt lat="42.92494" lon="0.59638">
        <ele>1475</ele>
        <time>2019-02-03T11:30:35.000Z</time>
      </trkpt>
      <trkpt lat="42.92494" lon="0.59638">
        <ele>1475</ele>
        <time>2019-02-03T11:30:36.000Z</time>
      </trkpt>
      <trkpt lat="42.92494" lon="0.59638">
        <ele>1475</ele>
        <time>2019-02-03T11:30:37.000Z</time>
      </trkpt>
      <trkpt lat="42.92494" lon="0.59638">
        <ele>1475</ele>
        <time>2019-02-03T11:30:38.000Z</time>
      </trkpt>
      <trkpt lat="42.92494" lon="0.59638">
        <ele>1475</ele>
        <time>2019-02-03T11:30:39.000Z</time>
      </trkpt>
      <trkpt lat="42.92494" lon="0.59638">
        <ele>1475.5</ele>
        <time>2019-02-03T11:30:40.000Z</time>
      </trkpt>
      <trkpt lat="42.92494" lon="0.59638">
        <ele>1476</ele>
        <time>2019-02-03T11:30:41.000Z</time>
      </trkpt>
      <trkpt lat="42.92494" lon="0.59638">
        <ele>1476</ele>
        <time>2019-02-03T11:30:42.000Z</time>
      </trkpt>
      <trkpt lat="42.92494" lon="0.59638">
        <ele>1476</ele>
        <time>2019-02-03T11:30:43.000Z</time>
      </trkpt>
      <trkpt lat="42.92494" lon="0.59639">
        <ele>1476</ele>
        <time>2019-02-03T11:30:44.000Z</time>
      </trkpt>
      <trkpt lat="42.92494" lon="0.59639">
        <ele>1476</ele>
        <time>2019-02-03T11:30:45.000Z</time>
      </trkpt>
      <trkpt lat="42.92493" lon="0.59639">
        <ele>1476</ele>
        <time>2019-02-03T11:30:46.000Z</time>
      </trkpt>
      <trkpt lat="42.92493" lon="0.59639">
        <ele>1476</ele>
        <time>2019-02-03T11:30:47.000Z</time>
      </trkpt>
      <trkpt lat="42.92493" lon="0.5964">
        <ele>1476.5</ele>
        <time>2019-02-03T11:30:48.000Z</time>
      </trkpt>
      <trkpt lat="42.92493" lon="0.5964">
        <ele>1477</ele>
        <time>2019-02-03T11:30:49.000Z</time>
      </trkpt>
      <trkpt lat="42.92493" lon="0.59641">
        <ele>1477</ele>
        <time>2019-02-03T11:30:50.000Z</time>
      </trkpt>
      <trkpt lat="42.92492" lon="0.59641">
        <ele>1477</ele>
        <time>2019-02-03T11:30:51.000Z</time>
      </trkpt>
      <trkpt lat="42.92492" lon="0.59641">
        <ele>1477</ele>
        <time>2019-02-03T11:30:52.000Z</time>
      </trkpt>
      <trkpt lat="42.92491" lon="0.59642">
        <ele>1477</ele>
        <time>2019-02-03T11:30:53.000Z</time>
      </trkpt>
      <trkpt lat="42.92491" lon="0.59642">
        <ele>1477</ele>
        <time>2019-02-03T11:30:54.000Z</time>
      </trkpt>
      <trkpt lat="42.9249" lon="0.59642">
        <ele>1477</ele>
        <time>2019-02-03T11:30:55.000Z</time>
      </trkpt>
      <trkpt lat="42.9249" lon="0.59643">
        <ele>1477</ele>
        <time>2019-02-03T11:30:56.000Z</time>
      </trkpt>
      <trkpt lat="42.92489" lon="0.59643">
        <ele>1477</ele>
        <time>2019-02-03T11:30:57.000Z</time>
      </trkpt>
      <trkpt lat="42.92489" lon="0.59643">
        <ele>1477.5</ele>
        <time>2019-02-03T11:30:58.000Z</time>
      </trkpt>
      <trkpt lat="42.92488" lon="0.59643">
        <ele>1478</ele>
        <time>2019-02-03T11:30:59.000Z</time>
      </trkpt>
      <trkpt lat="42.92488" lon="0.59643">
        <ele>1478</ele>
        <time>2019-02-03T11:31:00.000Z</time>
      </trkpt>
      <trkpt lat="42.92488" lon="0.59644">
        <ele>1478</ele>
        <time>2019-02-03T11:31:01.000Z</time>
      </trkpt>
      <trkpt lat="42.92487" lon="0.59644">
        <ele>1478</ele>
        <time>2019-02-03T11:31:02.000Z</time>
      </trkpt>
      <trkpt lat="42.92487" lon="0.59644">
        <ele>1478</ele>
        <time>2019-02-03T11:31:03.000Z</time>
      </trkpt>
      <trkpt lat="42.92487" lon="0.59644">
        <ele>1478</ele>
        <time>2019-02-03T11:31:04.000Z</time>
      </trkpt>
      <trkpt lat="42.92486" lon="0.59644">
        <ele>1478</ele>
        <time>2019-02-03T11:31:05.000Z</time>
      </trkpt>
      <trkpt lat="42.92486" lon="0.59644">
        <ele>1478.5</ele>
        <time>2019-02-03T11:31:06.000Z</time>
      </trkpt>
      <trkpt lat="42.92486" lon="0.59644">
        <ele>1479</ele>
        <time>2019-02-03T11:31:07.000Z</time>
      </trkpt>
      <trkpt lat="42.92486" lon="0.59644">
        <ele>1479</ele>
        <time>2019-02-03T11:31:08.000Z</time>
      </trkpt>
      <trkpt lat="42.92486" lon="0.59644">
        <ele>1479</ele>
        <time>2019-02-03T11:31:09.000Z</time>
      </trkpt>
      <trkpt lat="42.92485" lon="0.59644">
        <ele>1479</ele>
        <time>2019-02-03T11:31:10.000Z</time>
      </trkpt>
      <trkpt lat="42.92485" lon="0.59644">
        <ele>1479</ele>
        <time>2019-02-03T11:31:11.000Z</time>
      </trkpt>
      <trkpt lat="42.92485" lon="0.59644">
        <ele>1479.5</ele>
        <time>2019-02-03T11:31:12.000Z</time>
      </trkpt>
      <trkpt lat="42.92484" lon="0.59644">
        <ele>1480</ele>
        <time>2019-02-03T11:31:13.000Z</time>
      </trkpt>
      <trkpt lat="42.92484" lon="0.59644">
        <ele>1480</ele>
        <time>2019-02-03T11:31:14.000Z</time>
      </trkpt>
      <trkpt lat="42.92484" lon="0.59645">
        <ele>1480</ele>
        <time>2019-02-03T11:31:15.000Z</time>
      </trkpt>
      <trkpt lat="42.92483" lon="0.59645">
        <ele>1480</ele>
        <time>2019-02-03T11:31:16.000Z</time>
      </trkpt>
      <trkpt lat="42.92483" lon="0.59645">
        <ele>1480</ele>
        <time>2019-02-03T11:31:17.000Z</time>
      </trkpt>
      <trkpt lat="42.92482" lon="0.59645">
        <ele>1480</ele>
        <time>2019-02-03T11:31:18.000Z</time>
      </trkpt>
      <trkpt lat="42.92482" lon="0.59646">
        <ele>1480</ele>
        <time>2019-02-03T11:31:19.000Z</time>
      </trkpt>
      <trkpt lat="42.92481" lon="0.59646">
        <ele>1481</ele>
        <time>2019-02-03T11:31:20.000Z</time>
      </trkpt>
      <trkpt lat="42.92481" lon="0.59646">
        <ele>1481</ele>
        <time>2019-02-03T11:31:21.000Z</time>
      </trkpt>
      <trkpt lat="42.9248" lon="0.59646">
        <ele>1481</ele>
        <time>2019-02-03T11:31:22.000Z</time>
      </trkpt>
      <trkpt lat="42.9248" lon="0.59646">
        <ele>1481</ele>
        <time>2019-02-03T11:31:23.000Z</time>
      </trkpt>
      <trkpt lat="42.9248" lon="0.59646">
        <ele>1481</ele>
        <time>2019-02-03T11:31:24.000Z</time>
      </trkpt>
      <trkpt lat="42.9248" lon="0.59646">
        <ele>1481</ele>
        <time>2019-02-03T11:31:25.000Z</time>
      </trkpt>
      <trkpt lat="42.9248" lon="0.59646">
        <ele>1481</ele>
        <time>2019-02-03T11:31:26.000Z</time>
      </trkpt>
      <trkpt lat="42.9248" lon="0.59646">
        <ele>1481</ele>
        <time>2019-02-03T11:31:27.000Z</time>
      </trkpt>
      <trkpt lat="42.9248" lon="0.59646">
        <ele>1481</ele>
        <time>2019-02-03T11:31:28.000Z</time>
      </trkpt>
      <trkpt lat="42.9248" lon="0.59646">
        <ele>1481</ele>
        <time>2019-02-03T11:31:29.000Z</time>
      </trkpt>
      <trkpt lat="42.9248" lon="0.59646">
        <ele>1481</ele>
        <time>2019-02-03T11:31:30.000Z</time>
      </trkpt>
      <trkpt lat="42.9248" lon="0.59646">
        <ele>1481</ele>
        <time>2019-02-03T11:31:31.000Z</time>
      </trkpt>
      <trkpt lat="42.92479" lon="0.59647">
        <ele>1481</ele>
        <time>2019-02-03T11:31:32.000Z</time>
      </trkpt>
      <trkpt lat="42.92479" lon="0.59647">
        <ele>1481</ele>
        <time>2019-02-03T11:31:33.000Z</time>
      </trkpt>
      <trkpt lat="42.92478" lon="0.59647">
        <ele>1481</ele>
        <time>2019-02-03T11:31:34.000Z</time>
      </trkpt>
      <trkpt lat="42.92478" lon="0.59647">
        <ele>1481</ele>
        <time>2019-02-03T11:31:35.000Z</time>
      </trkpt>
      <trkpt lat="42.92478" lon="0.59647">
        <ele>1482</ele>
        <time>2019-02-03T11:31:36.000Z</time>
      </trkpt>
      <trkpt lat="42.92478" lon="0.59647">
        <ele>1482</ele>
        <time>2019-02-03T11:31:37.000Z</time>
      </trkpt>
      <trkpt lat="42.92478" lon="0.59647">
        <ele>1482</ele>
        <time>2019-02-03T11:31:38.000Z</time>
      </trkpt>
      <trkpt lat="42.92477" lon="0.59647">
        <ele>1482</ele>
        <time>2019-02-03T11:31:39.000Z</time>
      </trkpt>
      <trkpt lat="42.92477" lon="0.59647">
        <ele>1482</ele>
        <time>2019-02-03T11:31:40.000Z</time>
      </trkpt>
      <trkpt lat="42.92477" lon="0.59647">
        <ele>1482</ele>
        <time>2019-02-03T11:31:41.000Z</time>
      </trkpt>
      <trkpt lat="42.92477" lon="0.59647">
        <ele>1482</ele>
        <time>2019-02-03T11:31:42.000Z</time>
      </trkpt>
      <trkpt lat="42.92477" lon="0.59648">
        <ele>1482</ele>
        <time>2019-02-03T11:31:43.000Z</time>
      </trkpt>
      <trkpt lat="42.92477" lon="0.59648">
        <ele>1482</ele>
        <time>2019-02-03T11:31:44.000Z</time>
      </trkpt>
      <trkpt lat="42.92476" lon="0.59648">
        <ele>1482.5</ele>
        <time>2019-02-03T11:31:45.000Z</time>
      </trkpt>
      <trkpt lat="42.92476" lon="0.59648">
        <ele>1483</ele>
        <time>2019-02-03T11:31:46.000Z</time>
      </trkpt>
      <trkpt lat="42.92476" lon="0.59648">
        <ele>1483</ele>
        <time>2019-02-03T11:31:47.000Z</time>
      </trkpt>
      <trkpt lat="42.92475" lon="0.59649">
        <ele>1483</ele>
        <time>2019-02-03T11:31:48.000Z</time>
      </trkpt>
      <trkpt lat="42.92475" lon="0.59649">
        <ele>1483</ele>
        <time>2019-02-03T11:31:49.000Z</time>
      </trkpt>
      <trkpt lat="42.92474" lon="0.59649">
        <ele>1483</ele>
        <time>2019-02-03T11:31:50.000Z</time>
      </trkpt>
      <trkpt lat="42.92474" lon="0.59649">
        <ele>1483</ele>
        <time>2019-02-03T11:31:51.000Z</time>
      </trkpt>
      <trkpt lat="42.92474" lon="0.59649">
        <ele>1483.5</ele>
        <time>2019-02-03T11:31:52.000Z</time>
      </trkpt>
      <trkpt lat="42.92473" lon="0.5965">
        <ele>1484</ele>
        <time>2019-02-03T11:31:53.000Z</time>
      </trkpt>
      <trkpt lat="42.92473" lon="0.5965">
        <ele>1484</ele>
        <time>2019-02-03T11:31:54.000Z</time>
      </trkpt>
      <trkpt lat="42.92472" lon="0.5965">
        <ele>1484</ele>
        <time>2019-02-03T11:31:55.000Z</time>
      </trkpt>
      <trkpt lat="42.92472" lon="0.5965">
        <ele>1484</ele>
        <time>2019-02-03T11:31:56.000Z</time>
      </trkpt>
      <trkpt lat="42.92472" lon="0.59651">
        <ele>1484</ele>
        <time>2019-02-03T11:31:57.000Z</time>
      </trkpt>
      <trkpt lat="42.92471" lon="0.59651">
        <ele>1484</ele>
        <time>2019-02-03T11:31:58.000Z</time>
      </trkpt>
      <trkpt lat="42.92471" lon="0.59651">
        <ele>1484</ele>
        <time>2019-02-03T11:31:59.000Z</time>
      </trkpt>
      <trkpt lat="42.9247" lon="0.59652">
        <ele>1484.5</ele>
        <time>2019-02-03T11:32:00.000Z</time>
      </trkpt>
      <trkpt lat="42.9247" lon="0.59652">
        <ele>1485</ele>
        <time>2019-02-03T11:32:01.000Z</time>
      </trkpt>
      <trkpt lat="42.9247" lon="0.59652">
        <ele>1485</ele>
        <time>2019-02-03T11:32:02.000Z</time>
      </trkpt>
      <trkpt lat="42.92469" lon="0.59652">
        <ele>1485</ele>
        <time>2019-02-03T11:32:03.000Z</time>
      </trkpt>
      <trkpt lat="42.92469" lon="0.59653">
        <ele>1485</ele>
        <time>2019-02-03T11:32:04.000Z</time>
      </trkpt>
      <trkpt lat="42.92469" lon="0.59653">
        <ele>1485</ele>
        <time>2019-02-03T11:32:05.000Z</time>
      </trkpt>
      <trkpt lat="42.92469" lon="0.59653">
        <ele>1485</ele>
        <time>2019-02-03T11:32:06.000Z</time>
      </trkpt>
      <trkpt lat="42.92468" lon="0.59653">
        <ele>1485</ele>
        <time>2019-02-03T11:32:07.000Z</time>
      </trkpt>
      <trkpt lat="42.92468" lon="0.59653">
        <ele>1485.5</ele>
        <time>2019-02-03T11:32:08.000Z</time>
      </trkpt>
      <trkpt lat="42.92468" lon="0.59653">
        <ele>1486</ele>
        <time>2019-02-03T11:32:09.000Z</time>
      </trkpt>
      <trkpt lat="42.92468" lon="0.59653">
        <ele>1486</ele>
        <time>2019-02-03T11:32:10.000Z</time>
      </trkpt>
      <trkpt lat="42.92469" lon="0.59653">
        <ele>1486</ele>
        <time>2019-02-03T11:32:11.000Z</time>
      </trkpt>
      <trkpt lat="42.92469" lon="0.59654">
        <ele>1486</ele>
        <time>2019-02-03T11:32:12.000Z</time>
      </trkpt>
      <trkpt lat="42.92469" lon="0.59655">
        <ele>1486</ele>
        <time>2019-02-03T11:32:13.000Z</time>
      </trkpt>
      <trkpt lat="42.92469" lon="0.59656">
        <ele>1486</ele>
        <time>2019-02-03T11:32:14.000Z</time>
      </trkpt>
      <trkpt lat="42.92469" lon="0.59656">
        <ele>1486</ele>
        <time>2019-02-03T11:32:15.000Z</time>
      </trkpt>
      <trkpt lat="42.92469" lon="0.59657">
        <ele>1486</ele>
        <time>2019-02-03T11:32:16.000Z</time>
      </trkpt>
      <trkpt lat="42.92469" lon="0.59657">
        <ele>1486</ele>
        <time>2019-02-03T11:32:17.000Z</time>
      </trkpt>
      <trkpt lat="42.92469" lon="0.59658">
        <ele>1486.5</ele>
        <time>2019-02-03T11:32:18.000Z</time>
      </trkpt>
      <trkpt lat="42.9247" lon="0.59658">
        <ele>1487</ele>
        <time>2019-02-03T11:32:19.000Z</time>
      </trkpt>
      <trkpt lat="42.9247" lon="0.59659">
        <ele>1487</ele>
        <time>2019-02-03T11:32:20.000Z</time>
      </trkpt>
      <trkpt lat="42.9247" lon="0.59659">
        <ele>1487</ele>
        <time>2019-02-03T11:32:21.000Z</time>
      </trkpt>
      <trkpt lat="42.9247" lon="0.5966">
        <ele>1487</ele>
        <time>2019-02-03T11:32:22.000Z</time>
      </trkpt>
      <trkpt lat="42.9247" lon="0.59661">
        <ele>1487</ele>
        <time>2019-02-03T11:32:23.000Z</time>
      </trkpt>
      <trkpt lat="42.92471" lon="0.59661">
        <ele>1487</ele>
        <time>2019-02-03T11:32:24.000Z</time>
      </trkpt>
      <trkpt lat="42.92471" lon="0.59662">
        <ele>1487.5</ele>
        <time>2019-02-03T11:32:25.000Z</time>
      </trkpt>
      <trkpt lat="42.92471" lon="0.59663">
        <ele>1488</ele>
        <time>2019-02-03T11:32:26.000Z</time>
      </trkpt>
      <trkpt lat="42.92471" lon="0.59663">
        <ele>1488</ele>
        <time>2019-02-03T11:32:27.000Z</time>
      </trkpt>
      <trkpt lat="42.92472" lon="0.59663">
        <ele>1488</ele>
        <time>2019-02-03T11:32:28.000Z</time>
      </trkpt>
      <trkpt lat="42.92472" lon="0.59664">
        <ele>1488</ele>
        <time>2019-02-03T11:32:29.000Z</time>
      </trkpt>
      <trkpt lat="42.92472" lon="0.59664">
        <ele>1488</ele>
        <time>2019-02-03T11:32:30.000Z</time>
      </trkpt>
      <trkpt lat="42.92473" lon="0.59664">
        <ele>1488</ele>
        <time>2019-02-03T11:32:31.000Z</time>
      </trkpt>
      <trkpt lat="42.92473" lon="0.59664">
        <ele>1488</ele>
        <time>2019-02-03T11:32:32.000Z</time>
      </trkpt>
      <trkpt lat="42.92473" lon="0.59665">
        <ele>1488</ele>
        <time>2019-02-03T11:32:33.000Z</time>
      </trkpt>
      <trkpt lat="42.92473" lon="0.59665">
        <ele>1488.5</ele>
        <time>2019-02-03T11:32:34.000Z</time>
      </trkpt>
      <trkpt lat="42.92473" lon="0.59665">
        <ele>1489</ele>
        <time>2019-02-03T11:32:35.000Z</time>
      </trkpt>
      <trkpt lat="42.92473" lon="0.59665">
        <ele>1489</ele>
        <time>2019-02-03T11:32:36.000Z</time>
      </trkpt>
      <trkpt lat="42.92473" lon="0.59666">
        <ele>1489</ele>
        <time>2019-02-03T11:32:37.000Z</time>
      </trkpt>
      <trkpt lat="42.92473" lon="0.59666">
        <ele>1489</ele>
        <time>2019-02-03T11:32:38.000Z</time>
      </trkpt>
      <trkpt lat="42.92473" lon="0.59666">
        <ele>1489</ele>
        <time>2019-02-03T11:32:39.000Z</time>
      </trkpt>
      <trkpt lat="42.92473" lon="0.59666">
        <ele>1489</ele>
        <time>2019-02-03T11:32:40.000Z</time>
      </trkpt>
      <trkpt lat="42.92473" lon="0.59667">
        <ele>1489</ele>
        <time>2019-02-03T11:32:41.000Z</time>
      </trkpt>
      <trkpt lat="42.92473" lon="0.59667">
        <ele>1489</ele>
        <time>2019-02-03T11:32:42.000Z</time>
      </trkpt>
      <trkpt lat="42.92473" lon="0.59667">
        <ele>1489</ele>
        <time>2019-02-03T11:32:43.000Z</time>
      </trkpt>
      <trkpt lat="42.92473" lon="0.59668">
        <ele>1489</ele>
        <time>2019-02-03T11:32:44.000Z</time>
      </trkpt>
      <trkpt lat="42.92472" lon="0.59668">
        <ele>1489</ele>
        <time>2019-02-03T11:32:45.000Z</time>
      </trkpt>
      <trkpt lat="42.92472" lon="0.59669">
        <ele>1489.5</ele>
        <time>2019-02-03T11:32:46.000Z</time>
      </trkpt>
      <trkpt lat="42.92472" lon="0.59669">
        <ele>1490</ele>
        <time>2019-02-03T11:32:47.000Z</time>
      </trkpt>
      <trkpt lat="42.92472" lon="0.5967">
        <ele>1490</ele>
        <time>2019-02-03T11:32:48.000Z</time>
      </trkpt>
      <trkpt lat="42.92472" lon="0.5967">
        <ele>1490</ele>
        <time>2019-02-03T11:32:49.000Z</time>
      </trkpt>
      <trkpt lat="42.92472" lon="0.59671">
        <ele>1490</ele>
        <time>2019-02-03T11:32:50.000Z</time>
      </trkpt>
      <trkpt lat="42.92472" lon="0.59671">
        <ele>1490</ele>
        <time>2019-02-03T11:32:51.000Z</time>
      </trkpt>
      <trkpt lat="42.92473" lon="0.59671">
        <ele>1490</ele>
        <time>2019-02-03T11:32:52.000Z</time>
      </trkpt>
      <trkpt lat="42.92473" lon="0.59672">
        <ele>1490.5</ele>
        <time>2019-02-03T11:32:53.000Z</time>
      </trkpt>
      <trkpt lat="42.92473" lon="0.59672">
        <ele>1491</ele>
        <time>2019-02-03T11:32:54.000Z</time>
      </trkpt>
      <trkpt lat="42.92474" lon="0.59673">
        <ele>1491</ele>
        <time>2019-02-03T11:32:55.000Z</time>
      </trkpt>
      <trkpt lat="42.92474" lon="0.59673">
        <ele>1491</ele>
        <time>2019-02-03T11:32:56.000Z</time>
      </trkpt>
      <trkpt lat="42.92474" lon="0.59674">
        <ele>1491</ele>
        <time>2019-02-03T11:32:57.000Z</time>
      </trkpt>
      <trkpt lat="42.92474" lon="0.59675">
        <ele>1491</ele>
        <time>2019-02-03T11:32:58.000Z</time>
      </trkpt>
      <trkpt lat="42.92475" lon="0.59675">
        <ele>1491</ele>
        <time>2019-02-03T11:32:59.000Z</time>
      </trkpt>
      <trkpt lat="42.92475" lon="0.59676">
        <ele>1491</ele>
        <time>2019-02-03T11:33:00.000Z</time>
      </trkpt>
      <trkpt lat="42.92475" lon="0.59676">
        <ele>1491</ele>
        <time>2019-02-03T11:33:01.000Z</time>
      </trkpt>
      <trkpt lat="42.92475" lon="0.59677">
        <ele>1491.5</ele>
        <time>2019-02-03T11:33:02.000Z</time>
      </trkpt>
      <trkpt lat="42.92476" lon="0.59677">
        <ele>1492</ele>
        <time>2019-02-03T11:33:03.000Z</time>
      </trkpt>
      <trkpt lat="42.92476" lon="0.59678">
        <ele>1492</ele>
        <time>2019-02-03T11:33:04.000Z</time>
      </trkpt>
      <trkpt lat="42.92476" lon="0.59678">
        <ele>1492</ele>
        <time>2019-02-03T11:33:05.000Z</time>
      </trkpt>
      <trkpt lat="42.92476" lon="0.59678">
        <ele>1492</ele>
        <time>2019-02-03T11:33:06.000Z</time>
      </trkpt>
      <trkpt lat="42.92476" lon="0.59678">
        <ele>1492</ele>
        <time>2019-02-03T11:33:07.000Z</time>
      </trkpt>
      <trkpt lat="42.92476" lon="0.59678">
        <ele>1492</ele>
        <time>2019-02-03T11:33:08.000Z</time>
      </trkpt>
      <trkpt lat="42.92476" lon="0.59678">
        <ele>1492</ele>
        <time>2019-02-03T11:33:09.000Z</time>
      </trkpt>
      <trkpt lat="42.92475" lon="0.59679">
        <ele>1492.5</ele>
        <time>2019-02-03T11:33:10.000Z</time>
      </trkpt>
      <trkpt lat="42.92475" lon="0.59679">
        <ele>1493</ele>
        <time>2019-02-03T11:33:11.000Z</time>
      </trkpt>
      <trkpt lat="42.92475" lon="0.5968">
        <ele>1493</ele>
        <time>2019-02-03T11:33:12.000Z</time>
      </trkpt>
      <trkpt lat="42.92475" lon="0.5968">
        <ele>1493</ele>
        <time>2019-02-03T11:33:13.000Z</time>
      </trkpt>
      <trkpt lat="42.92475" lon="0.59681">
        <ele>1493</ele>
        <time>2019-02-03T11:33:14.000Z</time>
      </trkpt>
      <trkpt lat="42.92474" lon="0.59681">
        <ele>1493</ele>
        <time>2019-02-03T11:33:15.000Z</time>
      </trkpt>
      <trkpt lat="42.92474" lon="0.59681">
        <ele>1493</ele>
        <time>2019-02-03T11:33:16.000Z</time>
      </trkpt>
      <trkpt lat="42.92474" lon="0.59681">
        <ele>1493</ele>
        <time>2019-02-03T11:33:17.000Z</time>
      </trkpt>
      <trkpt lat="42.92474" lon="0.59681">
        <ele>1493.5</ele>
        <time>2019-02-03T11:33:18.000Z</time>
      </trkpt>
      <trkpt lat="42.92474" lon="0.59681">
        <ele>1494</ele>
        <time>2019-02-03T11:33:19.000Z</time>
      </trkpt>
      <trkpt lat="42.92474" lon="0.59681">
        <ele>1494</ele>
        <time>2019-02-03T11:33:20.000Z</time>
      </trkpt>
      <trkpt lat="42.92474" lon="0.59681">
        <ele>1494</ele>
        <time>2019-02-03T11:33:21.000Z</time>
      </trkpt>
      <trkpt lat="42.92474" lon="0.59682">
        <ele>1494</ele>
        <time>2019-02-03T11:33:22.000Z</time>
      </trkpt>
      <trkpt lat="42.92474" lon="0.59682">
        <ele>1494</ele>
        <time>2019-02-03T11:33:23.000Z</time>
      </trkpt>
      <trkpt lat="42.92473" lon="0.59683">
        <ele>1494.5</ele>
        <time>2019-02-03T11:33:24.000Z</time>
      </trkpt>
      <trkpt lat="42.92473" lon="0.59683">
        <ele>1495</ele>
        <time>2019-02-03T11:33:25.000Z</time>
      </trkpt>
      <trkpt lat="42.92472" lon="0.59683">
        <ele>1495</ele>
        <time>2019-02-03T11:33:26.000Z</time>
      </trkpt>
      <trkpt lat="42.92472" lon="0.59684">
        <ele>1495</ele>
        <time>2019-02-03T11:33:27.000Z</time>
      </trkpt>
      <trkpt lat="42.92471" lon="0.59684">
        <ele>1495</ele>
        <time>2019-02-03T11:33:28.000Z</time>
      </trkpt>
      <trkpt lat="42.9247" lon="0.59684">
        <ele>1495</ele>
        <time>2019-02-03T11:33:29.000Z</time>
      </trkpt>
      <trkpt lat="42.9247" lon="0.59684">
        <ele>1495</ele>
        <time>2019-02-03T11:33:30.000Z</time>
      </trkpt>
      <trkpt lat="42.92469" lon="0.59684">
        <ele>1495</ele>
        <time>2019-02-03T11:33:31.000Z</time>
      </trkpt>
      <trkpt lat="42.92469" lon="0.59684">
        <ele>1495.5</ele>
        <time>2019-02-03T11:33:32.000Z</time>
      </trkpt>
      <trkpt lat="42.92468" lon="0.59684">
        <ele>1496</ele>
        <time>2019-02-03T11:33:33.000Z</time>
      </trkpt>
      <trkpt lat="42.92468" lon="0.59685">
        <ele>1496</ele>
        <time>2019-02-03T11:33:34.000Z</time>
      </trkpt>
      <trkpt lat="42.92467" lon="0.59685">
        <ele>1496</ele>
        <time>2019-02-03T11:33:35.000Z</time>
      </trkpt>
      <trkpt lat="42.92467" lon="0.59686">
        <ele>1496</ele>
        <time>2019-02-03T11:33:36.000Z</time>
      </trkpt>
      <trkpt lat="42.92467" lon="0.59686">
        <ele>1496</ele>
        <time>2019-02-03T11:33:37.000Z</time>
      </trkpt>
      <trkpt lat="42.92466" lon="0.59686">
        <ele>1496</ele>
        <time>2019-02-03T11:33:38.000Z</time>
      </trkpt>
      <trkpt lat="42.92466" lon="0.59687">
        <ele>1496.3</ele>
        <time>2019-02-03T11:33:39.000Z</time>
      </trkpt>
      <trkpt lat="42.92466" lon="0.59687">
        <ele>1496.7</ele>
        <time>2019-02-03T11:33:40.000Z</time>
      </trkpt>
      <trkpt lat="42.92466" lon="0.59687">
        <ele>1497</ele>
        <time>2019-02-03T11:33:41.000Z</time>
      </trkpt>
      <trkpt lat="42.92465" lon="0.59688">
        <ele>1497</ele>
        <time>2019-02-03T11:33:42.000Z</time>
      </trkpt>
      <trkpt lat="42.92465" lon="0.59688">
        <ele>1497</ele>
        <time>2019-02-03T11:33:43.000Z</time>
      </trkpt>
      <trkpt lat="42.92465" lon="0.59688">
        <ele>1497</ele>
        <time>2019-02-03T11:33:44.000Z</time>
      </trkpt>
      <trkpt lat="42.92465" lon="0.59688">
        <ele>1497</ele>
        <time>2019-02-03T11:33:45.000Z</time>
      </trkpt>
      <trkpt lat="42.92465" lon="0.59688">
        <ele>1497</ele>
        <time>2019-02-03T11:33:46.000Z</time>
      </trkpt>
      <trkpt lat="42.92464" lon="0.59689">
        <ele>1497</ele>
        <time>2019-02-03T11:33:47.000Z</time>
      </trkpt>
      <trkpt lat="42.92464" lon="0.59689">
        <ele>1497</ele>
        <time>2019-02-03T11:33:48.000Z</time>
      </trkpt>
      <trkpt lat="42.92464" lon="0.5969">
        <ele>1497</ele>
        <time>2019-02-03T11:33:49.000Z</time>
      </trkpt>
      <trkpt lat="42.92463" lon="0.5969">
        <ele>1498</ele>
        <time>2019-02-03T11:33:50.000Z</time>
      </trkpt>
      <trkpt lat="42.92463" lon="0.5969">
        <ele>1498</ele>
        <time>2019-02-03T11:33:51.000Z</time>
      </trkpt>
      <trkpt lat="42.92463" lon="0.59691">
        <ele>1498</ele>
        <time>2019-02-03T11:33:52.000Z</time>
      </trkpt>
      <trkpt lat="42.92462" lon="0.59691">
        <ele>1498</ele>
        <time>2019-02-03T11:33:53.000Z</time>
      </trkpt>
      <trkpt lat="42.92462" lon="0.59692">
        <ele>1498</ele>
        <time>2019-02-03T11:33:54.000Z</time>
      </trkpt>
      <trkpt lat="42.92462" lon="0.59692">
        <ele>1498</ele>
        <time>2019-02-03T11:33:55.000Z</time>
      </trkpt>
      <trkpt lat="42.92462" lon="0.59693">
        <ele>1498.5</ele>
        <time>2019-02-03T11:33:56.000Z</time>
      </trkpt>
      <trkpt lat="42.92461" lon="0.59693">
        <ele>1499</ele>
        <time>2019-02-03T11:33:57.000Z</time>
      </trkpt>
      <trkpt lat="42.92461" lon="0.59693">
        <ele>1499</ele>
        <time>2019-02-03T11:33:58.000Z</time>
      </trkpt>
      <trkpt lat="42.92461" lon="0.59693">
        <ele>1499</ele>
        <time>2019-02-03T11:33:59.000Z</time>
      </trkpt>
      <trkpt lat="42.92461" lon="0.59693">
        <ele>1499</ele>
        <time>2019-02-03T11:34:00.000Z</time>
      </trkpt>
      <trkpt lat="42.92461" lon="0.59693">
        <ele>1499</ele>
        <time>2019-02-03T11:34:01.000Z</time>
      </trkpt>
      <trkpt lat="42.92461" lon="0.59693">
        <ele>1499</ele>
        <time>2019-02-03T11:34:02.000Z</time>
      </trkpt>
      <trkpt lat="42.92461" lon="0.59693">
        <ele>1499</ele>
        <time>2019-02-03T11:34:03.000Z</time>
      </trkpt>
      <trkpt lat="42.92461" lon="0.59693">
        <ele>1499</ele>
        <time>2019-02-03T11:34:04.000Z</time>
      </trkpt>
      <trkpt lat="42.92461" lon="0.59693">
        <ele>1499</ele>
        <time>2019-02-03T11:34:05.000Z</time>
      </trkpt>
      <trkpt lat="42.92461" lon="0.59693">
        <ele>1500</ele>
        <time>2019-02-03T11:34:06.000Z</time>
      </trkpt>
      <trkpt lat="42.92461" lon="0.59693">
        <ele>1500</ele>
        <time>2019-02-03T11:34:07.000Z</time>
      </trkpt>
      <trkpt lat="42.92461" lon="0.59694">
        <ele>1500</ele>
        <time>2019-02-03T11:34:08.000Z</time>
      </trkpt>
      <trkpt lat="42.92461" lon="0.59694">
        <ele>1500</ele>
        <time>2019-02-03T11:34:09.000Z</time>
      </trkpt>
      <trkpt lat="42.92461" lon="0.59694">
        <ele>1500</ele>
        <time>2019-02-03T11:34:10.000Z</time>
      </trkpt>
      <trkpt lat="42.92461" lon="0.59695">
        <ele>1500</ele>
        <time>2019-02-03T11:34:11.000Z</time>
      </trkpt>
      <trkpt lat="42.9246" lon="0.59695">
        <ele>1500</ele>
        <time>2019-02-03T11:34:12.000Z</time>
      </trkpt>
      <trkpt lat="42.92461" lon="0.59696">
        <ele>1500.3</ele>
        <time>2019-02-03T11:34:13.000Z</time>
      </trkpt>
      <trkpt lat="42.92461" lon="0.59697">
        <ele>1500.7</ele>
        <time>2019-02-03T11:34:14.000Z</time>
      </trkpt>
      <trkpt lat="42.92462" lon="0.59697">
        <ele>1501</ele>
        <time>2019-02-03T11:34:15.000Z</time>
      </trkpt>
      <trkpt lat="42.92463" lon="0.59698">
        <ele>1501</ele>
        <time>2019-02-03T11:34:16.000Z</time>
      </trkpt>
      <trkpt lat="42.92463" lon="0.59699">
        <ele>1501</ele>
        <time>2019-02-03T11:34:17.000Z</time>
      </trkpt>
      <trkpt lat="42.92464" lon="0.59699">
        <ele>1501</ele>
        <time>2019-02-03T11:34:18.000Z</time>
      </trkpt>
      <trkpt lat="42.92464" lon="0.59699">
        <ele>1501</ele>
        <time>2019-02-03T11:34:19.000Z</time>
      </trkpt>
      <trkpt lat="42.92463" lon="0.59699">
        <ele>1501</ele>
        <time>2019-02-03T11:34:20.000Z</time>
      </trkpt>
      <trkpt lat="42.92463" lon="0.59699">
        <ele>1501</ele>
        <time>2019-02-03T11:34:21.000Z</time>
      </trkpt>
      <trkpt lat="42.92463" lon="0.59699">
        <ele>1501.5</ele>
        <time>2019-02-03T11:34:22.000Z</time>
      </trkpt>
      <trkpt lat="42.92463" lon="0.59699">
        <ele>1502</ele>
        <time>2019-02-03T11:34:23.000Z</time>
      </trkpt>
      <trkpt lat="42.92463" lon="0.597">
        <ele>1502</ele>
        <time>2019-02-03T11:34:24.000Z</time>
      </trkpt>
      <trkpt lat="42.92463" lon="0.597">
        <ele>1502</ele>
        <time>2019-02-03T11:34:25.000Z</time>
      </trkpt>
      <trkpt lat="42.92463" lon="0.59701">
        <ele>1502</ele>
        <time>2019-02-03T11:34:26.000Z</time>
      </trkpt>
      <trkpt lat="42.92464" lon="0.59702">
        <ele>1502</ele>
        <time>2019-02-03T11:34:27.000Z</time>
      </trkpt>
      <trkpt lat="42.92464" lon="0.59703">
        <ele>1502.5</ele>
        <time>2019-02-03T11:34:28.000Z</time>
      </trkpt>
      <trkpt lat="42.92464" lon="0.59703">
        <ele>1503</ele>
        <time>2019-02-03T11:34:29.000Z</time>
      </trkpt>
      <trkpt lat="42.92464" lon="0.59704">
        <ele>1503</ele>
        <time>2019-02-03T11:34:30.000Z</time>
      </trkpt>
      <trkpt lat="42.92464" lon="0.59704">
        <ele>1503.3</ele>
        <time>2019-02-03T11:34:31.000Z</time>
      </trkpt>
      <trkpt lat="42.92464" lon="0.59704">
        <ele>1503.7</ele>
        <time>2019-02-03T11:34:32.000Z</time>
      </trkpt>
      <trkpt lat="42.92464" lon="0.59704">
        <ele>1504</ele>
        <time>2019-02-03T11:34:33.000Z</time>
      </trkpt>
      <trkpt lat="42.92464" lon="0.59705">
        <ele>1504</ele>
        <time>2019-02-03T11:34:34.000Z</time>
      </trkpt>
      <trkpt lat="42.92464" lon="0.59705">
        <ele>1504</ele>
        <time>2019-02-03T11:34:35.000Z</time>
      </trkpt>
      <trkpt lat="42.92463" lon="0.59705">
        <ele>1504</ele>
        <time>2019-02-03T11:34:36.000Z</time>
      </trkpt>
      <trkpt lat="42.92463" lon="0.59705">
        <ele>1504</ele>
        <time>2019-02-03T11:34:37.000Z</time>
      </trkpt>
      <trkpt lat="42.92463" lon="0.59706">
        <ele>1504</ele>
        <time>2019-02-03T11:34:38.000Z</time>
      </trkpt>
      <trkpt lat="42.92463" lon="0.59706">
        <ele>1504</ele>
        <time>2019-02-03T11:34:39.000Z</time>
      </trkpt>
      <trkpt lat="42.92463" lon="0.59706">
        <ele>1504</ele>
        <time>2019-02-03T11:34:40.000Z</time>
      </trkpt>
      <trkpt lat="42.92463" lon="0.59706">
        <ele>1504</ele>
        <time>2019-02-03T11:34:41.000Z</time>
      </trkpt>
      <trkpt lat="42.92463" lon="0.59706">
        <ele>1504.5</ele>
        <time>2019-02-03T11:34:42.000Z</time>
      </trkpt>
      <trkpt lat="42.92463" lon="0.59706">
        <ele>1505</ele>
        <time>2019-02-03T11:34:43.000Z</time>
      </trkpt>
      <trkpt lat="42.92463" lon="0.59706">
        <ele>1505</ele>
        <time>2019-02-03T11:34:44.000Z</time>
      </trkpt>
      <trkpt lat="42.92463" lon="0.59706">
        <ele>1505</ele>
        <time>2019-02-03T11:34:45.000Z</time>
      </trkpt>
      <trkpt lat="42.92463" lon="0.59706">
        <ele>1505</ele>
        <time>2019-02-03T11:34:46.000Z</time>
      </trkpt>
      <trkpt lat="42.92463" lon="0.59706">
        <ele>1505</ele>
        <time>2019-02-03T11:34:47.000Z</time>
      </trkpt>
      <trkpt lat="42.92463" lon="0.59706">
        <ele>1505</ele>
        <time>2019-02-03T11:34:48.000Z</time>
      </trkpt>
      <trkpt lat="42.92463" lon="0.59706">
        <ele>1505</ele>
        <time>2019-02-03T11:34:49.000Z</time>
      </trkpt>
      <trkpt lat="42.92463" lon="0.59706">
        <ele>1505</ele>
        <time>2019-02-03T11:34:50.000Z</time>
      </trkpt>
      <trkpt lat="42.92464" lon="0.59707">
        <ele>1505</ele>
        <time>2019-02-03T11:34:51.000Z</time>
      </trkpt>
      <trkpt lat="42.92464" lon="0.59707">
        <ele>1505</ele>
        <time>2019-02-03T11:34:52.000Z</time>
      </trkpt>
      <trkpt lat="42.92464" lon="0.59707">
        <ele>1505</ele>
        <time>2019-02-03T11:34:53.000Z</time>
      </trkpt>
      <trkpt lat="42.92464" lon="0.59707">
        <ele>1505</ele>
        <time>2019-02-03T11:34:54.000Z</time>
      </trkpt>
      <trkpt lat="42.92464" lon="0.59708">
        <ele>1505</ele>
        <time>2019-02-03T11:34:55.000Z</time>
      </trkpt>
      <trkpt lat="42.92464" lon="0.59708">
        <ele>1505</ele>
        <time>2019-02-03T11:34:56.000Z</time>
      </trkpt>
      <trkpt lat="42.92464" lon="0.59708">
        <ele>1505</ele>
        <time>2019-02-03T11:34:57.000Z</time>
      </trkpt>
      <trkpt lat="42.92465" lon="0.59708">
        <ele>1505</ele>
        <time>2019-02-03T11:34:58.000Z</time>
      </trkpt>
      <trkpt lat="42.92465" lon="0.59709">
        <ele>1505.3</ele>
        <time>2019-02-03T11:34:59.000Z</time>
      </trkpt>
      <trkpt lat="42.92465" lon="0.59709">
        <ele>1505.7</ele>
        <time>2019-02-03T11:35:00.000Z</time>
      </trkpt>
      <trkpt lat="42.92465" lon="0.5971">
        <ele>1506</ele>
        <time>2019-02-03T11:35:01.000Z</time>
      </trkpt>
      <trkpt lat="42.92464" lon="0.59711">
        <ele>1506</ele>
        <time>2019-02-03T11:35:02.000Z</time>
      </trkpt>
      <trkpt lat="42.92464" lon="0.59711">
        <ele>1506</ele>
        <time>2019-02-03T11:35:03.000Z</time>
      </trkpt>
      <trkpt lat="42.92464" lon="0.59712">
        <ele>1506</ele>
        <time>2019-02-03T11:35:04.000Z</time>
      </trkpt>
      <trkpt lat="42.92464" lon="0.59713">
        <ele>1506</ele>
        <time>2019-02-03T11:35:05.000Z</time>
      </trkpt>
      <trkpt lat="42.92464" lon="0.59714">
        <ele>1506</ele>
        <time>2019-02-03T11:35:06.000Z</time>
      </trkpt>
      <trkpt lat="42.92464" lon="0.59714">
        <ele>1506</ele>
        <time>2019-02-03T11:35:07.000Z</time>
      </trkpt>
      <trkpt lat="42.92464" lon="0.59715">
        <ele>1506</ele>
        <time>2019-02-03T11:35:08.000Z</time>
      </trkpt>
      <trkpt lat="42.92463" lon="0.59715">
        <ele>1506</ele>
        <time>2019-02-03T11:35:09.000Z</time>
      </trkpt>
      <trkpt lat="42.92463" lon="0.59715">
        <ele>1506.5</ele>
        <time>2019-02-03T11:35:10.000Z</time>
      </trkpt>
      <trkpt lat="42.92463" lon="0.59716">
        <ele>1507</ele>
        <time>2019-02-03T11:35:11.000Z</time>
      </trkpt>
      <trkpt lat="42.92463" lon="0.59716">
        <ele>1507</ele>
        <time>2019-02-03T11:35:12.000Z</time>
      </trkpt>
      <trkpt lat="42.92463" lon="0.59716">
        <ele>1507</ele>
        <time>2019-02-03T11:35:13.000Z</time>
      </trkpt>
      <trkpt lat="42.92464" lon="0.59716">
        <ele>1507</ele>
        <time>2019-02-03T11:35:14.000Z</time>
      </trkpt>
      <trkpt lat="42.92464" lon="0.59717">
        <ele>1507</ele>
        <time>2019-02-03T11:35:15.000Z</time>
      </trkpt>
      <trkpt lat="42.92464" lon="0.59717">
        <ele>1507</ele>
        <time>2019-02-03T11:35:16.000Z</time>
      </trkpt>
      <trkpt lat="42.92464" lon="0.59717">
        <ele>1507</ele>
        <time>2019-02-03T11:35:17.000Z</time>
      </trkpt>
      <trkpt lat="42.92465" lon="0.59718">
        <ele>1507.5</ele>
        <time>2019-02-03T11:35:18.000Z</time>
      </trkpt>
      <trkpt lat="42.92465" lon="0.59718">
        <ele>1508</ele>
        <time>2019-02-03T11:35:19.000Z</time>
      </trkpt>
      <trkpt lat="42.92465" lon="0.59718">
        <ele>1508</ele>
        <time>2019-02-03T11:35:20.000Z</time>
      </trkpt>
      <trkpt lat="42.92465" lon="0.59718">
        <ele>1508</ele>
        <time>2019-02-03T11:35:21.000Z</time>
      </trkpt>
      <trkpt lat="42.92466" lon="0.59719">
        <ele>1508</ele>
        <time>2019-02-03T11:35:22.000Z</time>
      </trkpt>
      <trkpt lat="42.92466" lon="0.59719">
        <ele>1508</ele>
        <time>2019-02-03T11:35:23.000Z</time>
      </trkpt>
      <trkpt lat="42.92466" lon="0.5972">
        <ele>1509</ele>
        <time>2019-02-03T11:35:24.000Z</time>
      </trkpt>
      <trkpt lat="42.92466" lon="0.5972">
        <ele>1509</ele>
        <time>2019-02-03T11:35:25.000Z</time>
      </trkpt>
      <trkpt lat="42.92467" lon="0.59721">
        <ele>1509</ele>
        <time>2019-02-03T11:35:26.000Z</time>
      </trkpt>
      <trkpt lat="42.92467" lon="0.59721">
        <ele>1509</ele>
        <time>2019-02-03T11:35:27.000Z</time>
      </trkpt>
      <trkpt lat="42.92467" lon="0.59722">
        <ele>1509</ele>
        <time>2019-02-03T11:35:28.000Z</time>
      </trkpt>
      <trkpt lat="42.92467" lon="0.59723">
        <ele>1509</ele>
        <time>2019-02-03T11:35:29.000Z</time>
      </trkpt>
      <trkpt lat="42.92467" lon="0.59723">
        <ele>1509</ele>
        <time>2019-02-03T11:35:30.000Z</time>
      </trkpt>
      <trkpt lat="42.92467" lon="0.59724">
        <ele>1509</ele>
        <time>2019-02-03T11:35:31.000Z</time>
      </trkpt>
      <trkpt lat="42.92467" lon="0.59725">
        <ele>1509</ele>
        <time>2019-02-03T11:35:32.000Z</time>
      </trkpt>
      <trkpt lat="42.92467" lon="0.59726">
        <ele>1509</ele>
        <time>2019-02-03T11:35:33.000Z</time>
      </trkpt>
      <trkpt lat="42.92467" lon="0.59726">
        <ele>1509.5</ele>
        <time>2019-02-03T11:35:34.000Z</time>
      </trkpt>
      <trkpt lat="42.92467" lon="0.59727">
        <ele>1510</ele>
        <time>2019-02-03T11:35:35.000Z</time>
      </trkpt>
      <trkpt lat="42.92466" lon="0.59728">
        <ele>1510</ele>
        <time>2019-02-03T11:35:36.000Z</time>
      </trkpt>
      <trkpt lat="42.92466" lon="0.59728">
        <ele>1510</ele>
        <time>2019-02-03T11:35:37.000Z</time>
      </trkpt>
      <trkpt lat="42.92466" lon="0.59729">
        <ele>1510</ele>
        <time>2019-02-03T11:35:38.000Z</time>
      </trkpt>
      <trkpt lat="42.92466" lon="0.59729">
        <ele>1510</ele>
        <time>2019-02-03T11:35:39.000Z</time>
      </trkpt>
      <trkpt lat="42.92465" lon="0.5973">
        <ele>1511</ele>
        <time>2019-02-03T11:35:40.000Z</time>
      </trkpt>
      <trkpt lat="42.92465" lon="0.5973">
        <ele>1511</ele>
        <time>2019-02-03T11:35:41.000Z</time>
      </trkpt>
      <trkpt lat="42.92465" lon="0.5973">
        <ele>1511</ele>
        <time>2019-02-03T11:35:42.000Z</time>
      </trkpt>
      <trkpt lat="42.92465" lon="0.5973">
        <ele>1511</ele>
        <time>2019-02-03T11:35:43.000Z</time>
      </trkpt>
      <trkpt lat="42.92465" lon="0.5973">
        <ele>1511</ele>
        <time>2019-02-03T11:35:44.000Z</time>
      </trkpt>
      <trkpt lat="42.92465" lon="0.59731">
        <ele>1511</ele>
        <time>2019-02-03T11:35:45.000Z</time>
      </trkpt>
      <trkpt lat="42.92465" lon="0.59731">
        <ele>1511.5</ele>
        <time>2019-02-03T11:35:46.000Z</time>
      </trkpt>
      <trkpt lat="42.92465" lon="0.59731">
        <ele>1512</ele>
        <time>2019-02-03T11:35:47.000Z</time>
      </trkpt>
      <trkpt lat="42.92465" lon="0.59731">
        <ele>1512</ele>
        <time>2019-02-03T11:35:48.000Z</time>
      </trkpt>
      <trkpt lat="42.92465" lon="0.59731">
        <ele>1512</ele>
        <time>2019-02-03T11:35:49.000Z</time>
      </trkpt>
      <trkpt lat="42.92465" lon="0.59732">
        <ele>1512</ele>
        <time>2019-02-03T11:35:50.000Z</time>
      </trkpt>
      <trkpt lat="42.92465" lon="0.59732">
        <ele>1512.3</ele>
        <time>2019-02-03T11:35:51.000Z</time>
      </trkpt>
      <trkpt lat="42.92465" lon="0.59733">
        <ele>1512.7</ele>
        <time>2019-02-03T11:35:52.000Z</time>
      </trkpt>
      <trkpt lat="42.92465" lon="0.59733">
        <ele>1513</ele>
        <time>2019-02-03T11:35:53.000Z</time>
      </trkpt>
      <trkpt lat="42.92465" lon="0.59733">
        <ele>1513</ele>
        <time>2019-02-03T11:35:54.000Z</time>
      </trkpt>
      <trkpt lat="42.92465" lon="0.59734">
        <ele>1513</ele>
        <time>2019-02-03T11:35:55.000Z</time>
      </trkpt>
      <trkpt lat="42.92465" lon="0.59734">
        <ele>1513</ele>
        <time>2019-02-03T11:35:56.000Z</time>
      </trkpt>
      <trkpt lat="42.92464" lon="0.59734">
        <ele>1513</ele>
        <time>2019-02-03T11:35:57.000Z</time>
      </trkpt>
      <trkpt lat="42.92463" lon="0.59734">
        <ele>1513</ele>
        <time>2019-02-03T11:35:58.000Z</time>
      </trkpt>
      <trkpt lat="42.92463" lon="0.59734">
        <ele>1513</ele>
        <time>2019-02-03T11:35:59.000Z</time>
      </trkpt>
      <trkpt lat="42.92462" lon="0.59734">
        <ele>1513.5</ele>
        <time>2019-02-03T11:36:00.000Z</time>
      </trkpt>
      <trkpt lat="42.92461" lon="0.59734">
        <ele>1514</ele>
        <time>2019-02-03T11:36:01.000Z</time>
      </trkpt>
      <trkpt lat="42.92461" lon="0.59734">
        <ele>1514</ele>
        <time>2019-02-03T11:36:02.000Z</time>
      </trkpt>
      <trkpt lat="42.9246" lon="0.59735">
        <ele>1514</ele>
        <time>2019-02-03T11:36:03.000Z</time>
      </trkpt>
      <trkpt lat="42.9246" lon="0.59735">
        <ele>1514</ele>
        <time>2019-02-03T11:36:04.000Z</time>
      </trkpt>
      <trkpt lat="42.9246" lon="0.59735">
        <ele>1514</ele>
        <time>2019-02-03T11:36:05.000Z</time>
      </trkpt>
      <trkpt lat="42.9246" lon="0.59736">
        <ele>1514</ele>
        <time>2019-02-03T11:36:06.000Z</time>
      </trkpt>
      <trkpt lat="42.9246" lon="0.59736">
        <ele>1514</ele>
        <time>2019-02-03T11:36:07.000Z</time>
      </trkpt>
      <trkpt lat="42.92459" lon="0.59736">
        <ele>1515</ele>
        <time>2019-02-03T11:36:08.000Z</time>
      </trkpt>
      <trkpt lat="42.92459" lon="0.59737">
        <ele>1515</ele>
        <time>2019-02-03T11:36:09.000Z</time>
      </trkpt>
      <trkpt lat="42.92459" lon="0.59737">
        <ele>1515</ele>
        <time>2019-02-03T11:36:10.000Z</time>
      </trkpt>
      <trkpt lat="42.9246" lon="0.59738">
        <ele>1515.3</ele>
        <time>2019-02-03T11:36:11.000Z</time>
      </trkpt>
      <trkpt lat="42.9246" lon="0.59738">
        <ele>1515.7</ele>
        <time>2019-02-03T11:36:12.000Z</time>
      </trkpt>
      <trkpt lat="42.9246" lon="0.59739">
        <ele>1516</ele>
        <time>2019-02-03T11:36:13.000Z</time>
      </trkpt>
      <trkpt lat="42.9246" lon="0.5974">
        <ele>1516</ele>
        <time>2019-02-03T11:36:14.000Z</time>
      </trkpt>
      <trkpt lat="42.92461" lon="0.59741">
        <ele>1516</ele>
        <time>2019-02-03T11:36:15.000Z</time>
      </trkpt>
      <trkpt lat="42.92461" lon="0.59741">
        <ele>1516</ele>
        <time>2019-02-03T11:36:16.000Z</time>
      </trkpt>
      <trkpt lat="42.92461" lon="0.59742">
        <ele>1516</ele>
        <time>2019-02-03T11:36:17.000Z</time>
      </trkpt>
      <trkpt lat="42.92462" lon="0.59742">
        <ele>1517</ele>
        <time>2019-02-03T11:36:18.000Z</time>
      </trkpt>
      <trkpt lat="42.92462" lon="0.59743">
        <ele>1517</ele>
        <time>2019-02-03T11:36:19.000Z</time>
      </trkpt>
      <trkpt lat="42.92462" lon="0.59743">
        <ele>1517</ele>
        <time>2019-02-03T11:36:20.000Z</time>
      </trkpt>
      <trkpt lat="42.92463" lon="0.59743">
        <ele>1517</ele>
        <time>2019-02-03T11:36:21.000Z</time>
      </trkpt>
      <trkpt lat="42.92463" lon="0.59744">
        <ele>1517</ele>
        <time>2019-02-03T11:36:22.000Z</time>
      </trkpt>
      <trkpt lat="42.92463" lon="0.59744">
        <ele>1517</ele>
        <time>2019-02-03T11:36:23.000Z</time>
      </trkpt>
      <trkpt lat="42.92463" lon="0.59745">
        <ele>1517</ele>
        <time>2019-02-03T11:36:24.000Z</time>
      </trkpt>
      <trkpt lat="42.92463" lon="0.59745">
        <ele>1517</ele>
        <time>2019-02-03T11:36:25.000Z</time>
      </trkpt>
      <trkpt lat="42.92463" lon="0.59745">
        <ele>1517</ele>
        <time>2019-02-03T11:36:26.000Z</time>
      </trkpt>
      <trkpt lat="42.92463" lon="0.59746">
        <ele>1517</ele>
        <time>2019-02-03T11:36:27.000Z</time>
      </trkpt>
      <trkpt lat="42.92463" lon="0.59746">
        <ele>1517</ele>
        <time>2019-02-03T11:36:28.000Z</time>
      </trkpt>
      <trkpt lat="42.92463" lon="0.59746">
        <ele>1517</ele>
        <time>2019-02-03T11:36:29.000Z</time>
      </trkpt>
      <trkpt lat="42.92463" lon="0.59747">
        <ele>1517</ele>
        <time>2019-02-03T11:36:30.000Z</time>
      </trkpt>
      <trkpt lat="42.92462" lon="0.59747">
        <ele>1517</ele>
        <time>2019-02-03T11:36:31.000Z</time>
      </trkpt>
      <trkpt lat="42.92462" lon="0.59748">
        <ele>1517.5</ele>
        <time>2019-02-03T11:36:32.000Z</time>
      </trkpt>
      <trkpt lat="42.92461" lon="0.59748">
        <ele>1518</ele>
        <time>2019-02-03T11:36:33.000Z</time>
      </trkpt>
      <trkpt lat="42.92461" lon="0.59748">
        <ele>1518</ele>
        <time>2019-02-03T11:36:34.000Z</time>
      </trkpt>
      <trkpt lat="42.92461" lon="0.59748">
        <ele>1518</ele>
        <time>2019-02-03T11:36:35.000Z</time>
      </trkpt>
      <trkpt lat="42.9246" lon="0.59748">
        <ele>1518</ele>
        <time>2019-02-03T11:36:36.000Z</time>
      </trkpt>
      <trkpt lat="42.9246" lon="0.59748">
        <ele>1518</ele>
        <time>2019-02-03T11:36:37.000Z</time>
      </trkpt>
      <trkpt lat="42.9246" lon="0.59749">
        <ele>1518</ele>
        <time>2019-02-03T11:36:38.000Z</time>
      </trkpt>
      <trkpt lat="42.9246" lon="0.59749">
        <ele>1518.5</ele>
        <time>2019-02-03T11:36:39.000Z</time>
      </trkpt>
      <trkpt lat="42.9246" lon="0.59749">
        <ele>1519</ele>
        <time>2019-02-03T11:36:40.000Z</time>
      </trkpt>
      <trkpt lat="42.92459" lon="0.5975">
        <ele>1519</ele>
        <time>2019-02-03T11:36:41.000Z</time>
      </trkpt>
      <trkpt lat="42.92459" lon="0.59751">
        <ele>1519</ele>
        <time>2019-02-03T11:36:42.000Z</time>
      </trkpt>
      <trkpt lat="42.92459" lon="0.59752">
        <ele>1519</ele>
        <time>2019-02-03T11:36:43.000Z</time>
      </trkpt>
      <trkpt lat="42.92458" lon="0.59753">
        <ele>1519</ele>
        <time>2019-02-03T11:36:44.000Z</time>
      </trkpt>
      <trkpt lat="42.92458" lon="0.59753">
        <ele>1519</ele>
        <time>2019-02-03T11:36:45.000Z</time>
      </trkpt>
      <trkpt lat="42.92458" lon="0.59754">
        <ele>1519</ele>
        <time>2019-02-03T11:36:46.000Z</time>
      </trkpt>
      <trkpt lat="42.92458" lon="0.59754">
        <ele>1519</ele>
        <time>2019-02-03T11:36:47.000Z</time>
      </trkpt>
      <trkpt lat="42.92458" lon="0.59755">
        <ele>1519</ele>
        <time>2019-02-03T11:36:48.000Z</time>
      </trkpt>
      <trkpt lat="42.92458" lon="0.59755">
        <ele>1519.3</ele>
        <time>2019-02-03T11:36:49.000Z</time>
      </trkpt>
      <trkpt lat="42.92458" lon="0.59755">
        <ele>1519.7</ele>
        <time>2019-02-03T11:36:50.000Z</time>
      </trkpt>
      <trkpt lat="42.92458" lon="0.59755">
        <ele>1520</ele>
        <time>2019-02-03T11:36:51.000Z</time>
      </trkpt>
      <trkpt lat="42.92458" lon="0.59755">
        <ele>1520</ele>
        <time>2019-02-03T11:36:52.000Z</time>
      </trkpt>
      <trkpt lat="42.92458" lon="0.59756">
        <ele>1520</ele>
        <time>2019-02-03T11:36:53.000Z</time>
      </trkpt>
      <trkpt lat="42.92458" lon="0.59757">
        <ele>1520</ele>
        <time>2019-02-03T11:36:54.000Z</time>
      </trkpt>
      <trkpt lat="42.92457" lon="0.59757">
        <ele>1520.3</ele>
        <time>2019-02-03T11:36:55.000Z</time>
      </trkpt>
      <trkpt lat="42.92457" lon="0.59757">
        <ele>1520.7</ele>
        <time>2019-02-03T11:36:56.000Z</time>
      </trkpt>
      <trkpt lat="42.92457" lon="0.59758">
        <ele>1521</ele>
        <time>2019-02-03T11:36:57.000Z</time>
      </trkpt>
      <trkpt lat="42.92457" lon="0.59758">
        <ele>1521</ele>
        <time>2019-02-03T11:36:58.000Z</time>
      </trkpt>
      <trkpt lat="42.92457" lon="0.59758">
        <ele>1521</ele>
        <time>2019-02-03T11:36:59.000Z</time>
      </trkpt>
      <trkpt lat="42.92457" lon="0.59758">
        <ele>1521</ele>
        <time>2019-02-03T11:37:00.000Z</time>
      </trkpt>
      <trkpt lat="42.92457" lon="0.59758">
        <ele>1521</ele>
        <time>2019-02-03T11:37:01.000Z</time>
      </trkpt>
      <trkpt lat="42.92457" lon="0.59759">
        <ele>1521.5</ele>
        <time>2019-02-03T11:37:02.000Z</time>
      </trkpt>
      <trkpt lat="42.92457" lon="0.59759">
        <ele>1522</ele>
        <time>2019-02-03T11:37:03.000Z</time>
      </trkpt>
      <trkpt lat="42.92457" lon="0.59759">
        <ele>1522</ele>
        <time>2019-02-03T11:37:04.000Z</time>
      </trkpt>
      <trkpt lat="42.92457" lon="0.5976">
        <ele>1522</ele>
        <time>2019-02-03T11:37:05.000Z</time>
      </trkpt>
      <trkpt lat="42.92457" lon="0.5976">
        <ele>1522</ele>
        <time>2019-02-03T11:37:06.000Z</time>
      </trkpt>
      <trkpt lat="42.92456" lon="0.59761">
        <ele>1522</ele>
        <time>2019-02-03T11:37:07.000Z</time>
      </trkpt>
      <trkpt lat="42.92456" lon="0.59761">
        <ele>1522.5</ele>
        <time>2019-02-03T11:37:08.000Z</time>
      </trkpt>
      <trkpt lat="42.92456" lon="0.59761">
        <ele>1523</ele>
        <time>2019-02-03T11:37:09.000Z</time>
      </trkpt>
      <trkpt lat="42.92456" lon="0.59762">
        <ele>1523</ele>
        <time>2019-02-03T11:37:10.000Z</time>
      </trkpt>
      <trkpt lat="42.92456" lon="0.59762">
        <ele>1523</ele>
        <time>2019-02-03T11:37:11.000Z</time>
      </trkpt>
      <trkpt lat="42.92455" lon="0.59762">
        <ele>1523</ele>
        <time>2019-02-03T11:37:12.000Z</time>
      </trkpt>
      <trkpt lat="42.92455" lon="0.59763">
        <ele>1523</ele>
        <time>2019-02-03T11:37:13.000Z</time>
      </trkpt>
      <trkpt lat="42.92455" lon="0.59763">
        <ele>1523.5</ele>
        <time>2019-02-03T11:37:14.000Z</time>
      </trkpt>
      <trkpt lat="42.92454" lon="0.59763">
        <ele>1524</ele>
        <time>2019-02-03T11:37:15.000Z</time>
      </trkpt>
      <trkpt lat="42.92454" lon="0.59763">
        <ele>1524</ele>
        <time>2019-02-03T11:37:16.000Z</time>
      </trkpt>
      <trkpt lat="42.92454" lon="0.59764">
        <ele>1524</ele>
        <time>2019-02-03T11:37:17.000Z</time>
      </trkpt>
      <trkpt lat="42.92453" lon="0.59764">
        <ele>1524</ele>
        <time>2019-02-03T11:37:18.000Z</time>
      </trkpt>
      <trkpt lat="42.92453" lon="0.59764">
        <ele>1524</ele>
        <time>2019-02-03T11:37:19.000Z</time>
      </trkpt>
      <trkpt lat="42.92452" lon="0.59764">
        <ele>1524</ele>
        <time>2019-02-03T11:37:20.000Z</time>
      </trkpt>
      <trkpt lat="42.92452" lon="0.59764">
        <ele>1524</ele>
        <time>2019-02-03T11:37:21.000Z</time>
      </trkpt>
      <trkpt lat="42.92452" lon="0.59764">
        <ele>1524.5</ele>
        <time>2019-02-03T11:37:22.000Z</time>
      </trkpt>
      <trkpt lat="42.92452" lon="0.59764">
        <ele>1525</ele>
        <time>2019-02-03T11:37:23.000Z</time>
      </trkpt>
      <trkpt lat="42.92452" lon="0.59764">
        <ele>1525</ele>
        <time>2019-02-03T11:37:24.000Z</time>
      </trkpt>
      <trkpt lat="42.92452" lon="0.59764">
        <ele>1525</ele>
        <time>2019-02-03T11:37:25.000Z</time>
      </trkpt>
      <trkpt lat="42.92452" lon="0.59764">
        <ele>1525</ele>
        <time>2019-02-03T11:37:26.000Z</time>
      </trkpt>
      <trkpt lat="42.92451" lon="0.59765">
        <ele>1525</ele>
        <time>2019-02-03T11:37:27.000Z</time>
      </trkpt>
      <trkpt lat="42.92451" lon="0.59765">
        <ele>1525</ele>
        <time>2019-02-03T11:37:28.000Z</time>
      </trkpt>
      <trkpt lat="42.92451" lon="0.59765">
        <ele>1525.3</ele>
        <time>2019-02-03T11:37:29.000Z</time>
      </trkpt>
      <trkpt lat="42.9245" lon="0.59766">
        <ele>1525.7</ele>
        <time>2019-02-03T11:37:30.000Z</time>
      </trkpt>
      <trkpt lat="42.9245" lon="0.59766">
        <ele>1526</ele>
        <time>2019-02-03T11:37:31.000Z</time>
      </trkpt>
      <trkpt lat="42.9245" lon="0.59767">
        <ele>1526</ele>
        <time>2019-02-03T11:37:32.000Z</time>
      </trkpt>
      <trkpt lat="42.9245" lon="0.59767">
        <ele>1526</ele>
        <time>2019-02-03T11:37:33.000Z</time>
      </trkpt>
      <trkpt lat="42.9245" lon="0.59767">
        <ele>1526</ele>
        <time>2019-02-03T11:37:34.000Z</time>
      </trkpt>
      <trkpt lat="42.92449" lon="0.59768">
        <ele>1526</ele>
        <time>2019-02-03T11:37:35.000Z</time>
      </trkpt>
      <trkpt lat="42.92449" lon="0.59768">
        <ele>1526</ele>
        <time>2019-02-03T11:37:36.000Z</time>
      </trkpt>
      <trkpt lat="42.92449" lon="0.59768">
        <ele>1526</ele>
        <time>2019-02-03T11:37:37.000Z</time>
      </trkpt>
      <trkpt lat="42.92449" lon="0.59768">
        <ele>1526.5</ele>
        <time>2019-02-03T11:37:38.000Z</time>
      </trkpt>
      <trkpt lat="42.92449" lon="0.59768">
        <ele>1527</ele>
        <time>2019-02-03T11:37:39.000Z</time>
      </trkpt>
      <trkpt lat="42.92449" lon="0.59768">
        <ele>1527</ele>
        <time>2019-02-03T11:37:40.000Z</time>
      </trkpt>
      <trkpt lat="42.92449" lon="0.59768">
        <ele>1527</ele>
        <time>2019-02-03T11:37:41.000Z</time>
      </trkpt>
      <trkpt lat="42.92449" lon="0.59768">
        <ele>1527</ele>
        <time>2019-02-03T11:37:42.000Z</time>
      </trkpt>
      <trkpt lat="42.92449" lon="0.59768">
        <ele>1527</ele>
        <time>2019-02-03T11:37:43.000Z</time>
      </trkpt>
      <trkpt lat="42.92449" lon="0.59768">
        <ele>1527</ele>
        <time>2019-02-03T11:37:44.000Z</time>
      </trkpt>
      <trkpt lat="42.92449" lon="0.59768">
        <ele>1527</ele>
        <time>2019-02-03T11:37:45.000Z</time>
      </trkpt>
      <trkpt lat="42.92449" lon="0.59768">
        <ele>1527.5</ele>
        <time>2019-02-03T11:37:46.000Z</time>
      </trkpt>
      <trkpt lat="42.92449" lon="0.59768">
        <ele>1528</ele>
        <time>2019-02-03T11:37:47.000Z</time>
      </trkpt>
      <trkpt lat="42.92449" lon="0.59768">
        <ele>1528</ele>
        <time>2019-02-03T11:37:48.000Z</time>
      </trkpt>
      <trkpt lat="42.92449" lon="0.59768">
        <ele>1528</ele>
        <time>2019-02-03T11:37:49.000Z</time>
      </trkpt>
      <trkpt lat="42.92449" lon="0.59769">
        <ele>1528</ele>
        <time>2019-02-03T11:37:50.000Z</time>
      </trkpt>
      <trkpt lat="42.92448" lon="0.5977">
        <ele>1528</ele>
        <time>2019-02-03T11:37:51.000Z</time>
      </trkpt>
      <trkpt lat="42.92447" lon="0.59772">
        <ele>1528</ele>
        <time>2019-02-03T11:37:52.000Z</time>
      </trkpt>
      <trkpt lat="42.92447" lon="0.59773">
        <ele>1528</ele>
        <time>2019-02-03T11:37:53.000Z</time>
      </trkpt>
      <trkpt lat="42.92446" lon="0.59773">
        <ele>1528.5</ele>
        <time>2019-02-03T11:37:54.000Z</time>
      </trkpt>
      <trkpt lat="42.92446" lon="0.59773">
        <ele>1529</ele>
        <time>2019-02-03T11:37:55.000Z</time>
      </trkpt>
      <trkpt lat="42.92446" lon="0.59773">
        <ele>1529</ele>
        <time>2019-02-03T11:37:56.000Z</time>
      </trkpt>
      <trkpt lat="42.92446" lon="0.59773">
        <ele>1529</ele>
        <time>2019-02-03T11:37:57.000Z</time>
      </trkpt>
      <trkpt lat="42.92446" lon="0.59773">
        <ele>1529</ele>
        <time>2019-02-03T11:37:58.000Z</time>
      </trkpt>
      <trkpt lat="42.92446" lon="0.59773">
        <ele>1529</ele>
        <time>2019-02-03T11:37:59.000Z</time>
      </trkpt>
      <trkpt lat="42.92446" lon="0.59773">
        <ele>1529</ele>
        <time>2019-02-03T11:38:00.000Z</time>
      </trkpt>
      <trkpt lat="42.92446" lon="0.59774">
        <ele>1529</ele>
        <time>2019-02-03T11:38:01.000Z</time>
      </trkpt>
      <trkpt lat="42.92446" lon="0.59774">
        <ele>1529.5</ele>
        <time>2019-02-03T11:38:02.000Z</time>
      </trkpt>
      <trkpt lat="42.92446" lon="0.59775">
        <ele>1530</ele>
        <time>2019-02-03T11:38:03.000Z</time>
      </trkpt>
      <trkpt lat="42.92445" lon="0.59775">
        <ele>1530</ele>
        <time>2019-02-03T11:38:04.000Z</time>
      </trkpt>
      <trkpt lat="42.92445" lon="0.59776">
        <ele>1530</ele>
        <time>2019-02-03T11:38:05.000Z</time>
      </trkpt>
      <trkpt lat="42.92444" lon="0.59777">
        <ele>1530</ele>
        <time>2019-02-03T11:38:06.000Z</time>
      </trkpt>
      <trkpt lat="42.92444" lon="0.59778">
        <ele>1530</ele>
        <time>2019-02-03T11:38:07.000Z</time>
      </trkpt>
      <trkpt lat="42.92444" lon="0.59779">
        <ele>1530</ele>
        <time>2019-02-03T11:38:08.000Z</time>
      </trkpt>
      <trkpt lat="42.92444" lon="0.59779">
        <ele>1530.3</ele>
        <time>2019-02-03T11:38:09.000Z</time>
      </trkpt>
      <trkpt lat="42.92443" lon="0.5978">
        <ele>1530.7</ele>
        <time>2019-02-03T11:38:10.000Z</time>
      </trkpt>
      <trkpt lat="42.92443" lon="0.59781">
        <ele>1531</ele>
        <time>2019-02-03T11:38:11.000Z</time>
      </trkpt>
      <trkpt lat="42.92443" lon="0.59782">
        <ele>1531</ele>
        <time>2019-02-03T11:38:12.000Z</time>
      </trkpt>
      <trkpt lat="42.92443" lon="0.59782">
        <ele>1531</ele>
        <time>2019-02-03T11:38:13.000Z</time>
      </trkpt>
      <trkpt lat="42.92443" lon="0.59782">
        <ele>1531</ele>
        <time>2019-02-03T11:38:14.000Z</time>
      </trkpt>
      <trkpt lat="42.92443" lon="0.59782">
        <ele>1531.3</ele>
        <time>2019-02-03T11:38:15.000Z</time>
      </trkpt>
      <trkpt lat="42.92443" lon="0.59783">
        <ele>1531.7</ele>
        <time>2019-02-03T11:38:16.000Z</time>
      </trkpt>
      <trkpt lat="42.92443" lon="0.59783">
        <ele>1532</ele>
        <time>2019-02-03T11:38:17.000Z</time>
      </trkpt>
      <trkpt lat="42.92443" lon="0.59782">
        <ele>1532</ele>
        <time>2019-02-03T11:38:18.000Z</time>
      </trkpt>
      <trkpt lat="42.92444" lon="0.59782">
        <ele>1532</ele>
        <time>2019-02-03T11:38:19.000Z</time>
      </trkpt>
      <trkpt lat="42.92444" lon="0.59782">
        <ele>1532</ele>
        <time>2019-02-03T11:38:20.000Z</time>
      </trkpt>
      <trkpt lat="42.92444" lon="0.59782">
        <ele>1532</ele>
        <time>2019-02-03T11:38:21.000Z</time>
      </trkpt>
      <trkpt lat="42.92444" lon="0.59782">
        <ele>1532</ele>
        <time>2019-02-03T11:38:22.000Z</time>
      </trkpt>
      <trkpt lat="42.92445" lon="0.59783">
        <ele>1532</ele>
        <time>2019-02-03T11:38:23.000Z</time>
      </trkpt>
      <trkpt lat="42.92445" lon="0.59783">
        <ele>1532</ele>
        <time>2019-02-03T11:38:24.000Z</time>
      </trkpt>
      <trkpt lat="42.92445" lon="0.59783">
        <ele>1532</ele>
        <time>2019-02-03T11:38:25.000Z</time>
      </trkpt>
      <trkpt lat="42.92445" lon="0.59783">
        <ele>1532</ele>
        <time>2019-02-03T11:38:26.000Z</time>
      </trkpt>
      <trkpt lat="42.92446" lon="0.59783">
        <ele>1532</ele>
        <time>2019-02-03T11:38:27.000Z</time>
      </trkpt>
      <trkpt lat="42.92446" lon="0.59784">
        <ele>1532</ele>
        <time>2019-02-03T11:38:28.000Z</time>
      </trkpt>
      <trkpt lat="42.92446" lon="0.59784">
        <ele>1532</ele>
        <time>2019-02-03T11:38:29.000Z</time>
      </trkpt>
      <trkpt lat="42.92446" lon="0.59785">
        <ele>1532</ele>
        <time>2019-02-03T11:38:30.000Z</time>
      </trkpt>
      <trkpt lat="42.92446" lon="0.59785">
        <ele>1532</ele>
        <time>2019-02-03T11:38:31.000Z</time>
      </trkpt>
      <trkpt lat="42.92447" lon="0.59786">
        <ele>1532</ele>
        <time>2019-02-03T11:38:32.000Z</time>
      </trkpt>
      <trkpt lat="42.92447" lon="0.59787">
        <ele>1532.5</ele>
        <time>2019-02-03T11:38:33.000Z</time>
      </trkpt>
      <trkpt lat="42.92447" lon="0.59788">
        <ele>1533</ele>
        <time>2019-02-03T11:38:34.000Z</time>
      </trkpt>
      <trkpt lat="42.92447" lon="0.59789">
        <ele>1533</ele>
        <time>2019-02-03T11:38:35.000Z</time>
      </trkpt>
      <trkpt lat="42.92447" lon="0.5979">
        <ele>1533</ele>
        <time>2019-02-03T11:38:36.000Z</time>
      </trkpt>
      <trkpt lat="42.92447" lon="0.5979">
        <ele>1533</ele>
        <time>2019-02-03T11:38:37.000Z</time>
      </trkpt>
      <trkpt lat="42.92447" lon="0.59791">
        <ele>1533</ele>
        <time>2019-02-03T11:38:38.000Z</time>
      </trkpt>
      <trkpt lat="42.92447" lon="0.59791">
        <ele>1533</ele>
        <time>2019-02-03T11:38:39.000Z</time>
      </trkpt>
      <trkpt lat="42.92447" lon="0.59791">
        <ele>1533.5</ele>
        <time>2019-02-03T11:38:40.000Z</time>
      </trkpt>
      <trkpt lat="42.92447" lon="0.59792">
        <ele>1534</ele>
        <time>2019-02-03T11:38:41.000Z</time>
      </trkpt>
      <trkpt lat="42.92447" lon="0.59792">
        <ele>1534</ele>
        <time>2019-02-03T11:38:42.000Z</time>
      </trkpt>
      <trkpt lat="42.92448" lon="0.59792">
        <ele>1534</ele>
        <time>2019-02-03T11:38:43.000Z</time>
      </trkpt>
      <trkpt lat="42.92448" lon="0.59792">
        <ele>1534</ele>
        <time>2019-02-03T11:38:44.000Z</time>
      </trkpt>
      <trkpt lat="42.92448" lon="0.59792">
        <ele>1534</ele>
        <time>2019-02-03T11:38:45.000Z</time>
      </trkpt>
      <trkpt lat="42.92448" lon="0.59792">
        <ele>1534</ele>
        <time>2019-02-03T11:38:46.000Z</time>
      </trkpt>
      <trkpt lat="42.92448" lon="0.59792">
        <ele>1534</ele>
        <time>2019-02-03T11:38:47.000Z</time>
      </trkpt>
      <trkpt lat="42.92448" lon="0.59793">
        <ele>1534</ele>
        <time>2019-02-03T11:38:48.000Z</time>
      </trkpt>
      <trkpt lat="42.92448" lon="0.59793">
        <ele>1534</ele>
        <time>2019-02-03T11:38:49.000Z</time>
      </trkpt>
      <trkpt lat="42.92448" lon="0.59794">
        <ele>1534</ele>
        <time>2019-02-03T11:38:50.000Z</time>
      </trkpt>
      <trkpt lat="42.92448" lon="0.59794">
        <ele>1534</ele>
        <time>2019-02-03T11:38:51.000Z</time>
      </trkpt>
      <trkpt lat="42.92448" lon="0.59794">
        <ele>1534</ele>
        <time>2019-02-03T11:38:52.000Z</time>
      </trkpt>
      <trkpt lat="42.92448" lon="0.59795">
        <ele>1534.3</ele>
        <time>2019-02-03T11:38:53.000Z</time>
      </trkpt>
      <trkpt lat="42.92448" lon="0.59795">
        <ele>1534.7</ele>
        <time>2019-02-03T11:38:54.000Z</time>
      </trkpt>
      <trkpt lat="42.92448" lon="0.59796">
        <ele>1535</ele>
        <time>2019-02-03T11:38:55.000Z</time>
      </trkpt>
      <trkpt lat="42.92448" lon="0.59796">
        <ele>1535</ele>
        <time>2019-02-03T11:38:56.000Z</time>
      </trkpt>
      <trkpt lat="42.92448" lon="0.59796">
        <ele>1535</ele>
        <time>2019-02-03T11:38:57.000Z</time>
      </trkpt>
      <trkpt lat="42.92448" lon="0.59797">
        <ele>1535</ele>
        <time>2019-02-03T11:38:58.000Z</time>
      </trkpt>
      <trkpt lat="42.92448" lon="0.59797">
        <ele>1535</ele>
        <time>2019-02-03T11:38:59.000Z</time>
      </trkpt>
      <trkpt lat="42.92448" lon="0.59797">
        <ele>1535</ele>
        <time>2019-02-03T11:39:00.000Z</time>
      </trkpt>
      <trkpt lat="42.92448" lon="0.59798">
        <ele>1535</ele>
        <time>2019-02-03T11:39:01.000Z</time>
      </trkpt>
      <trkpt lat="42.92448" lon="0.59798">
        <ele>1535</ele>
        <time>2019-02-03T11:39:02.000Z</time>
      </trkpt>
      <trkpt lat="42.92448" lon="0.59798">
        <ele>1535</ele>
        <time>2019-02-03T11:39:03.000Z</time>
      </trkpt>
      <trkpt lat="42.92448" lon="0.59798">
        <ele>1535</ele>
        <time>2019-02-03T11:39:04.000Z</time>
      </trkpt>
      <trkpt lat="42.92448" lon="0.59798">
        <ele>1535</ele>
        <time>2019-02-03T11:39:05.000Z</time>
      </trkpt>
      <trkpt lat="42.92448" lon="0.59798">
        <ele>1535</ele>
        <time>2019-02-03T11:39:06.000Z</time>
      </trkpt>
      <trkpt lat="42.92448" lon="0.59798">
        <ele>1535</ele>
        <time>2019-02-03T11:39:07.000Z</time>
      </trkpt>
      <trkpt lat="42.92449" lon="0.59798">
        <ele>1535</ele>
        <time>2019-02-03T11:39:08.000Z</time>
      </trkpt>
      <trkpt lat="42.92449" lon="0.59798">
        <ele>1535</ele>
        <time>2019-02-03T11:39:09.000Z</time>
      </trkpt>
      <trkpt lat="42.92449" lon="0.59798">
        <ele>1536</ele>
        <time>2019-02-03T11:39:10.000Z</time>
      </trkpt>
      <trkpt lat="42.92449" lon="0.59798">
        <ele>1536</ele>
        <time>2019-02-03T11:39:11.000Z</time>
      </trkpt>
      <trkpt lat="42.92449" lon="0.59798">
        <ele>1536</ele>
        <time>2019-02-03T11:39:12.000Z</time>
      </trkpt>
      <trkpt lat="42.92449" lon="0.59798">
        <ele>1536</ele>
        <time>2019-02-03T11:39:13.000Z</time>
      </trkpt>
      <trkpt lat="42.92449" lon="0.59798">
        <ele>1536</ele>
        <time>2019-02-03T11:39:14.000Z</time>
      </trkpt>
      <trkpt lat="42.92449" lon="0.59799">
        <ele>1536</ele>
        <time>2019-02-03T11:39:15.000Z</time>
      </trkpt>
      <trkpt lat="42.92449" lon="0.59799">
        <ele>1536</ele>
        <time>2019-02-03T11:39:16.000Z</time>
      </trkpt>
      <trkpt lat="42.92449" lon="0.598">
        <ele>1536</ele>
        <time>2019-02-03T11:39:17.000Z</time>
      </trkpt>
      <trkpt lat="42.92449" lon="0.59801">
        <ele>1536</ele>
        <time>2019-02-03T11:39:18.000Z</time>
      </trkpt>
      <trkpt lat="42.92449" lon="0.59802">
        <ele>1536</ele>
        <time>2019-02-03T11:39:19.000Z</time>
      </trkpt>
      <trkpt lat="42.92449" lon="0.59803">
        <ele>1536</ele>
        <time>2019-02-03T11:39:20.000Z</time>
      </trkpt>
      <trkpt lat="42.92449" lon="0.59804">
        <ele>1536.3</ele>
        <time>2019-02-03T11:39:21.000Z</time>
      </trkpt>
      <trkpt lat="42.92449" lon="0.59805">
        <ele>1536.7</ele>
        <time>2019-02-03T11:39:22.000Z</time>
      </trkpt>
      <trkpt lat="42.92449" lon="0.59806">
        <ele>1537</ele>
        <time>2019-02-03T11:39:23.000Z</time>
      </trkpt>
      <trkpt lat="42.92449" lon="0.59807">
        <ele>1537</ele>
        <time>2019-02-03T11:39:24.000Z</time>
      </trkpt>
      <trkpt lat="42.92449" lon="0.59808">
        <ele>1537.3</ele>
        <time>2019-02-03T11:39:25.000Z</time>
      </trkpt>
      <trkpt lat="42.92448" lon="0.59809">
        <ele>1537.7</ele>
        <time>2019-02-03T11:39:26.000Z</time>
      </trkpt>
      <trkpt lat="42.92448" lon="0.5981">
        <ele>1538</ele>
        <time>2019-02-03T11:39:27.000Z</time>
      </trkpt>
      <trkpt lat="42.92448" lon="0.59811">
        <ele>1538</ele>
        <time>2019-02-03T11:39:28.000Z</time>
      </trkpt>
      <trkpt lat="42.92448" lon="0.59812">
        <ele>1538</ele>
        <time>2019-02-03T11:39:29.000Z</time>
      </trkpt>
      <trkpt lat="42.92448" lon="0.59813">
        <ele>1538</ele>
        <time>2019-02-03T11:39:30.000Z</time>
      </trkpt>
      <trkpt lat="42.92448" lon="0.59813">
        <ele>1538</ele>
        <time>2019-02-03T11:39:31.000Z</time>
      </trkpt>
      <trkpt lat="42.92447" lon="0.59814">
        <ele>1538</ele>
        <time>2019-02-03T11:39:32.000Z</time>
      </trkpt>
      <trkpt lat="42.92447" lon="0.59815">
        <ele>1538</ele>
        <time>2019-02-03T11:39:33.000Z</time>
      </trkpt>
      <trkpt lat="42.92447" lon="0.59815">
        <ele>1539</ele>
        <time>2019-02-03T11:39:34.000Z</time>
      </trkpt>
      <trkpt lat="42.92447" lon="0.59816">
        <ele>1539</ele>
        <time>2019-02-03T11:39:35.000Z</time>
      </trkpt>
      <trkpt lat="42.92447" lon="0.59816">
        <ele>1539</ele>
        <time>2019-02-03T11:39:36.000Z</time>
      </trkpt>
      <trkpt lat="42.92447" lon="0.59817">
        <ele>1539</ele>
        <time>2019-02-03T11:39:37.000Z</time>
      </trkpt>
      <trkpt lat="42.92447" lon="0.59817">
        <ele>1539</ele>
        <time>2019-02-03T11:39:38.000Z</time>
      </trkpt>
      <trkpt lat="42.92447" lon="0.59817">
        <ele>1539</ele>
        <time>2019-02-03T11:39:39.000Z</time>
      </trkpt>
      <trkpt lat="42.92446" lon="0.59818">
        <ele>1539</ele>
        <time>2019-02-03T11:39:40.000Z</time>
      </trkpt>
      <trkpt lat="42.92446" lon="0.59818">
        <ele>1539.3</ele>
        <time>2019-02-03T11:39:41.000Z</time>
      </trkpt>
      <trkpt lat="42.92446" lon="0.59819">
        <ele>1539.7</ele>
        <time>2019-02-03T11:39:42.000Z</time>
      </trkpt>
      <trkpt lat="42.92446" lon="0.59819">
        <ele>1540</ele>
        <time>2019-02-03T11:39:43.000Z</time>
      </trkpt>
      <trkpt lat="42.92447" lon="0.59819">
        <ele>1540</ele>
        <time>2019-02-03T11:39:44.000Z</time>
      </trkpt>
      <trkpt lat="42.92447" lon="0.5982">
        <ele>1540</ele>
        <time>2019-02-03T11:39:45.000Z</time>
      </trkpt>
      <trkpt lat="42.92447" lon="0.5982">
        <ele>1540</ele>
        <time>2019-02-03T11:39:46.000Z</time>
      </trkpt>
      <trkpt lat="42.92447" lon="0.59821">
        <ele>1540</ele>
        <time>2019-02-03T11:39:47.000Z</time>
      </trkpt>
      <trkpt lat="42.92447" lon="0.59821">
        <ele>1540</ele>
        <time>2019-02-03T11:39:48.000Z</time>
      </trkpt>
      <trkpt lat="42.92447" lon="0.59822">
        <ele>1540</ele>
        <time>2019-02-03T11:39:49.000Z</time>
      </trkpt>
      <trkpt lat="42.92447" lon="0.59822">
        <ele>1540.5</ele>
        <time>2019-02-03T11:39:50.000Z</time>
      </trkpt>
      <trkpt lat="42.92448" lon="0.59823">
        <ele>1541</ele>
        <time>2019-02-03T11:39:51.000Z</time>
      </trkpt>
      <trkpt lat="42.92448" lon="0.59823">
        <ele>1541</ele>
        <time>2019-02-03T11:39:52.000Z</time>
      </trkpt>
      <trkpt lat="42.92448" lon="0.59824">
        <ele>1541</ele>
        <time>2019-02-03T11:39:53.000Z</time>
      </trkpt>
      <trkpt lat="42.92449" lon="0.59824">
        <ele>1541</ele>
        <time>2019-02-03T11:39:54.000Z</time>
      </trkpt>
      <trkpt lat="42.92449" lon="0.59825">
        <ele>1541</ele>
        <time>2019-02-03T11:39:55.000Z</time>
      </trkpt>
      <trkpt lat="42.92449" lon="0.59826">
        <ele>1541</ele>
        <time>2019-02-03T11:39:56.000Z</time>
      </trkpt>
      <trkpt lat="42.92449" lon="0.59826">
        <ele>1541</ele>
        <time>2019-02-03T11:39:57.000Z</time>
      </trkpt>
      <trkpt lat="42.9245" lon="0.59827">
        <ele>1541</ele>
        <time>2019-02-03T11:39:58.000Z</time>
      </trkpt>
      <trkpt lat="42.9245" lon="0.59827">
        <ele>1541</ele>
        <time>2019-02-03T11:39:59.000Z</time>
      </trkpt>
      <trkpt lat="42.9245" lon="0.59828">
        <ele>1541.5</ele>
        <time>2019-02-03T11:40:00.000Z</time>
      </trkpt>
      <trkpt lat="42.9245" lon="0.59828">
        <ele>1542</ele>
        <time>2019-02-03T11:40:01.000Z</time>
      </trkpt>
      <trkpt lat="42.9245" lon="0.59829">
        <ele>1542</ele>
        <time>2019-02-03T11:40:02.000Z</time>
      </trkpt>
      <trkpt lat="42.9245" lon="0.59829">
        <ele>1542</ele>
        <time>2019-02-03T11:40:03.000Z</time>
      </trkpt>
      <trkpt lat="42.9245" lon="0.5983">
        <ele>1542</ele>
        <time>2019-02-03T11:40:04.000Z</time>
      </trkpt>
      <trkpt lat="42.9245" lon="0.5983">
        <ele>1542</ele>
        <time>2019-02-03T11:40:05.000Z</time>
      </trkpt>
      <trkpt lat="42.9245" lon="0.59831">
        <ele>1543</ele>
        <time>2019-02-03T11:40:06.000Z</time>
      </trkpt>
      <trkpt lat="42.9245" lon="0.59831">
        <ele>1543</ele>
        <time>2019-02-03T11:40:07.000Z</time>
      </trkpt>
      <trkpt lat="42.9245" lon="0.59832">
        <ele>1543</ele>
        <time>2019-02-03T11:40:08.000Z</time>
      </trkpt>
      <trkpt lat="42.9245" lon="0.59832">
        <ele>1543</ele>
        <time>2019-02-03T11:40:09.000Z</time>
      </trkpt>
      <trkpt lat="42.9245" lon="0.59833">
        <ele>1543</ele>
        <time>2019-02-03T11:40:10.000Z</time>
      </trkpt>
      <trkpt lat="42.9245" lon="0.59833">
        <ele>1543</ele>
        <time>2019-02-03T11:40:11.000Z</time>
      </trkpt>
      <trkpt lat="42.92449" lon="0.59834">
        <ele>1543</ele>
        <time>2019-02-03T11:40:12.000Z</time>
      </trkpt>
      <trkpt lat="42.92449" lon="0.59835">
        <ele>1543</ele>
        <time>2019-02-03T11:40:13.000Z</time>
      </trkpt>
      <trkpt lat="42.92449" lon="0.59835">
        <ele>1543</ele>
        <time>2019-02-03T11:40:14.000Z</time>
      </trkpt>
      <trkpt lat="42.92449" lon="0.59836">
        <ele>1543</ele>
        <time>2019-02-03T11:40:15.000Z</time>
      </trkpt>
      <trkpt lat="42.92449" lon="0.59836">
        <ele>1543.5</ele>
        <time>2019-02-03T11:40:16.000Z</time>
      </trkpt>
      <trkpt lat="42.92449" lon="0.59837">
        <ele>1544</ele>
        <time>2019-02-03T11:40:17.000Z</time>
      </trkpt>
      <trkpt lat="42.92449" lon="0.59837">
        <ele>1544</ele>
        <time>2019-02-03T11:40:18.000Z</time>
      </trkpt>
      <trkpt lat="42.92449" lon="0.59838">
        <ele>1544</ele>
        <time>2019-02-03T11:40:19.000Z</time>
      </trkpt>
      <trkpt lat="42.92449" lon="0.59839">
        <ele>1544</ele>
        <time>2019-02-03T11:40:20.000Z</time>
      </trkpt>
      <trkpt lat="42.92449" lon="0.59839">
        <ele>1544.3</ele>
        <time>2019-02-03T11:40:21.000Z</time>
      </trkpt>
      <trkpt lat="42.92448" lon="0.5984">
        <ele>1544.7</ele>
        <time>2019-02-03T11:40:22.000Z</time>
      </trkpt>
      <trkpt lat="42.92448" lon="0.59841">
        <ele>1545</ele>
        <time>2019-02-03T11:40:23.000Z</time>
      </trkpt>
      <trkpt lat="42.92448" lon="0.59842">
        <ele>1545</ele>
        <time>2019-02-03T11:40:24.000Z</time>
      </trkpt>
      <trkpt lat="42.92448" lon="0.59843">
        <ele>1545</ele>
        <time>2019-02-03T11:40:25.000Z</time>
      </trkpt>
      <trkpt lat="42.92448" lon="0.59843">
        <ele>1545</ele>
        <time>2019-02-03T11:40:26.000Z</time>
      </trkpt>
      <trkpt lat="42.92448" lon="0.59844">
        <ele>1545.3</ele>
        <time>2019-02-03T11:40:27.000Z</time>
      </trkpt>
      <trkpt lat="42.92448" lon="0.59845">
        <ele>1545.7</ele>
        <time>2019-02-03T11:40:28.000Z</time>
      </trkpt>
      <trkpt lat="42.92448" lon="0.59845">
        <ele>1546</ele>
        <time>2019-02-03T11:40:29.000Z</time>
      </trkpt>
      <trkpt lat="42.92448" lon="0.59845">
        <ele>1546</ele>
        <time>2019-02-03T11:40:30.000Z</time>
      </trkpt>
      <trkpt lat="42.92448" lon="0.59845">
        <ele>1546</ele>
        <time>2019-02-03T11:40:31.000Z</time>
      </trkpt>
      <trkpt lat="42.92448" lon="0.59845">
        <ele>1546</ele>
        <time>2019-02-03T11:40:32.000Z</time>
      </trkpt>
      <trkpt lat="42.92448" lon="0.59845">
        <ele>1546</ele>
        <time>2019-02-03T11:40:33.000Z</time>
      </trkpt>
      <trkpt lat="42.92448" lon="0.59846">
        <ele>1546</ele>
        <time>2019-02-03T11:40:34.000Z</time>
      </trkpt>
      <trkpt lat="42.92447" lon="0.59847">
        <ele>1546</ele>
        <time>2019-02-03T11:40:35.000Z</time>
      </trkpt>
      <trkpt lat="42.92447" lon="0.59848">
        <ele>1546</ele>
        <time>2019-02-03T11:40:36.000Z</time>
      </trkpt>
      <trkpt lat="42.92447" lon="0.59848">
        <ele>1546</ele>
        <time>2019-02-03T11:40:37.000Z</time>
      </trkpt>
      <trkpt lat="42.92447" lon="0.59848">
        <ele>1546</ele>
        <time>2019-02-03T11:40:38.000Z</time>
      </trkpt>
      <trkpt lat="42.92447" lon="0.59848">
        <ele>1546</ele>
        <time>2019-02-03T11:40:39.000Z</time>
      </trkpt>
      <trkpt lat="42.92447" lon="0.59848">
        <ele>1546.5</ele>
        <time>2019-02-03T11:40:40.000Z</time>
      </trkpt>
      <trkpt lat="42.92447" lon="0.59848">
        <ele>1547</ele>
        <time>2019-02-03T11:40:41.000Z</time>
      </trkpt>
      <trkpt lat="42.92447" lon="0.59849">
        <ele>1547</ele>
        <time>2019-02-03T11:40:42.000Z</time>
      </trkpt>
      <trkpt lat="42.92447" lon="0.59849">
        <ele>1547</ele>
        <time>2019-02-03T11:40:43.000Z</time>
      </trkpt>
      <trkpt lat="42.92447" lon="0.5985">
        <ele>1547</ele>
        <time>2019-02-03T11:40:44.000Z</time>
      </trkpt>
      <trkpt lat="42.92447" lon="0.5985">
        <ele>1547</ele>
        <time>2019-02-03T11:40:45.000Z</time>
      </trkpt>
      <trkpt lat="42.92447" lon="0.59851">
        <ele>1547</ele>
        <time>2019-02-03T11:40:46.000Z</time>
      </trkpt>
      <trkpt lat="42.92447" lon="0.59852">
        <ele>1547</ele>
        <time>2019-02-03T11:40:47.000Z</time>
      </trkpt>
      <trkpt lat="42.92446" lon="0.59853">
        <ele>1547</ele>
        <time>2019-02-03T11:40:48.000Z</time>
      </trkpt>
      <trkpt lat="42.92446" lon="0.59854">
        <ele>1547</ele>
        <time>2019-02-03T11:40:49.000Z</time>
      </trkpt>
      <trkpt lat="42.92446" lon="0.59854">
        <ele>1547</ele>
        <time>2019-02-03T11:40:50.000Z</time>
      </trkpt>
      <trkpt lat="42.92446" lon="0.59855">
        <ele>1547</ele>
        <time>2019-02-03T11:40:51.000Z</time>
      </trkpt>
      <trkpt lat="42.92446" lon="0.59856">
        <ele>1547.5</ele>
        <time>2019-02-03T11:40:52.000Z</time>
      </trkpt>
      <trkpt lat="42.92446" lon="0.59857">
        <ele>1548</ele>
        <time>2019-02-03T11:40:53.000Z</time>
      </trkpt>
      <trkpt lat="42.92446" lon="0.59857">
        <ele>1548</ele>
        <time>2019-02-03T11:40:54.000Z</time>
      </trkpt>
      <trkpt lat="42.92446" lon="0.59858">
        <ele>1548</ele>
        <time>2019-02-03T11:40:55.000Z</time>
      </trkpt>
      <trkpt lat="42.92446" lon="0.59859">
        <ele>1548</ele>
        <time>2019-02-03T11:40:56.000Z</time>
      </trkpt>
      <trkpt lat="42.92446" lon="0.59859">
        <ele>1548</ele>
        <time>2019-02-03T11:40:57.000Z</time>
      </trkpt>
      <trkpt lat="42.92446" lon="0.5986">
        <ele>1549</ele>
        <time>2019-02-03T11:40:58.000Z</time>
      </trkpt>
      <trkpt lat="42.92446" lon="0.59861">
        <ele>1549</ele>
        <time>2019-02-03T11:40:59.000Z</time>
      </trkpt>
      <trkpt lat="42.92446" lon="0.59861">
        <ele>1549</ele>
        <time>2019-02-03T11:41:00.000Z</time>
      </trkpt>
      <trkpt lat="42.92446" lon="0.59862">
        <ele>1549</ele>
        <time>2019-02-03T11:41:01.000Z</time>
      </trkpt>
      <trkpt lat="42.92445" lon="0.59863">
        <ele>1549</ele>
        <time>2019-02-03T11:41:02.000Z</time>
      </trkpt>
      <trkpt lat="42.92445" lon="0.59864">
        <ele>1549</ele>
        <time>2019-02-03T11:41:03.000Z</time>
      </trkpt>
      <trkpt lat="42.92445" lon="0.59864">
        <ele>1549</ele>
        <time>2019-02-03T11:41:04.000Z</time>
      </trkpt>
      <trkpt lat="42.92445" lon="0.59865">
        <ele>1549</ele>
        <time>2019-02-03T11:41:05.000Z</time>
      </trkpt>
      <trkpt lat="42.92444" lon="0.59866">
        <ele>1549</ele>
        <time>2019-02-03T11:41:06.000Z</time>
      </trkpt>
      <trkpt lat="42.92444" lon="0.59866">
        <ele>1549.3</ele>
        <time>2019-02-03T11:41:07.000Z</time>
      </trkpt>
      <trkpt lat="42.92444" lon="0.59867">
        <ele>1549.7</ele>
        <time>2019-02-03T11:41:08.000Z</time>
      </trkpt>
      <trkpt lat="42.92444" lon="0.59868">
        <ele>1550</ele>
        <time>2019-02-03T11:41:09.000Z</time>
      </trkpt>
      <trkpt lat="42.92443" lon="0.59868">
        <ele>1550</ele>
        <time>2019-02-03T11:41:10.000Z</time>
      </trkpt>
      <trkpt lat="42.92443" lon="0.59869">
        <ele>1550</ele>
        <time>2019-02-03T11:41:11.000Z</time>
      </trkpt>
      <trkpt lat="42.92443" lon="0.59869">
        <ele>1550</ele>
        <time>2019-02-03T11:41:12.000Z</time>
      </trkpt>
      <trkpt lat="42.92443" lon="0.59869">
        <ele>1550</ele>
        <time>2019-02-03T11:41:13.000Z</time>
      </trkpt>
      <trkpt lat="42.92443" lon="0.59869">
        <ele>1550</ele>
        <time>2019-02-03T11:41:14.000Z</time>
      </trkpt>
      <trkpt lat="42.92443" lon="0.59869">
        <ele>1550</ele>
        <time>2019-02-03T11:41:15.000Z</time>
      </trkpt>
      <trkpt lat="42.92443" lon="0.59869">
        <ele>1550</ele>
        <time>2019-02-03T11:41:16.000Z</time>
      </trkpt>
      <trkpt lat="42.92443" lon="0.59869">
        <ele>1550</ele>
        <time>2019-02-03T11:41:17.000Z</time>
      </trkpt>
      <trkpt lat="42.92443" lon="0.59869">
        <ele>1550</ele>
        <time>2019-02-03T11:41:18.000Z</time>
      </trkpt>
      <trkpt lat="42.92443" lon="0.59869">
        <ele>1550</ele>
        <time>2019-02-03T11:41:19.000Z</time>
      </trkpt>
      <trkpt lat="42.92443" lon="0.59869">
        <ele>1550</ele>
        <time>2019-02-03T11:41:20.000Z</time>
      </trkpt>
      <trkpt lat="42.92443" lon="0.59869">
        <ele>1549.7</ele>
        <time>2019-02-03T11:41:21.000Z</time>
      </trkpt>
      <trkpt lat="42.92443" lon="0.5987">
        <ele>1549.3</ele>
        <time>2019-02-03T11:41:22.000Z</time>
      </trkpt>
      <trkpt lat="42.92443" lon="0.5987">
        <ele>1549</ele>
        <time>2019-02-03T11:41:23.000Z</time>
      </trkpt>
      <trkpt lat="42.92443" lon="0.5987">
        <ele>1549</ele>
        <time>2019-02-03T11:41:24.000Z</time>
      </trkpt>
      <trkpt lat="42.92443" lon="0.5987">
        <ele>1549</ele>
        <time>2019-02-03T11:41:25.000Z</time>
      </trkpt>
      <trkpt lat="42.92443" lon="0.5987">
        <ele>1549</ele>
        <time>2019-02-03T11:41:26.000Z</time>
      </trkpt>
      <trkpt lat="42.92443" lon="0.5987">
        <ele>1549</ele>
        <time>2019-02-03T11:41:27.000Z</time>
      </trkpt>
      <trkpt lat="42.92443" lon="0.5987">
        <ele>1549</ele>
        <time>2019-02-03T11:41:28.000Z</time>
      </trkpt>
      <trkpt lat="42.92444" lon="0.5987">
        <ele>1549</ele>
        <time>2019-02-03T11:41:29.000Z</time>
      </trkpt>
      <trkpt lat="42.92444" lon="0.5987">
        <ele>1549</ele>
        <time>2019-02-03T11:41:30.000Z</time>
      </trkpt>
      <trkpt lat="42.92444" lon="0.5987">
        <ele>1549</ele>
        <time>2019-02-03T11:41:31.000Z</time>
      </trkpt>
      <trkpt lat="42.92444" lon="0.5987">
        <ele>1549</ele>
        <time>2019-02-03T11:41:32.000Z</time>
      </trkpt>
      <trkpt lat="42.92444" lon="0.5987">
        <ele>1549</ele>
        <time>2019-02-03T11:41:33.000Z</time>
      </trkpt>
      <trkpt lat="42.92444" lon="0.5987">
        <ele>1549</ele>
        <time>2019-02-03T11:41:34.000Z</time>
      </trkpt>
      <trkpt lat="42.92444" lon="0.5987">
        <ele>1549</ele>
        <time>2019-02-03T11:41:35.000Z</time>
      </trkpt>
      <trkpt lat="42.92444" lon="0.5987">
        <ele>1549</ele>
        <time>2019-02-03T11:41:36.000Z</time>
      </trkpt>
      <trkpt lat="42.92444" lon="0.5987">
        <ele>1549.5</ele>
        <time>2019-02-03T11:41:37.000Z</time>
      </trkpt>
      <trkpt lat="42.92444" lon="0.5987">
        <ele>1550</ele>
        <time>2019-02-03T11:41:38.000Z</time>
      </trkpt>
      <trkpt lat="42.92444" lon="0.59869">
        <ele>1550</ele>
        <time>2019-02-03T11:41:39.000Z</time>
      </trkpt>
      <trkpt lat="42.92444" lon="0.59869">
        <ele>1550</ele>
        <time>2019-02-03T11:41:40.000Z</time>
      </trkpt>
      <trkpt lat="42.92444" lon="0.59869">
        <ele>1550</ele>
        <time>2019-02-03T11:41:41.000Z</time>
      </trkpt>
      <trkpt lat="42.92444" lon="0.59868">
        <ele>1550</ele>
        <time>2019-02-03T11:41:42.000Z</time>
      </trkpt>
      <trkpt lat="42.92444" lon="0.59868">
        <ele>1550</ele>
        <time>2019-02-03T11:41:43.000Z</time>
      </trkpt>
      <trkpt lat="42.92444" lon="0.59868">
        <ele>1550</ele>
        <time>2019-02-03T11:41:44.000Z</time>
      </trkpt>
      <trkpt lat="42.92444" lon="0.59868">
        <ele>1550</ele>
        <time>2019-02-03T11:41:45.000Z</time>
      </trkpt>
      <trkpt lat="42.92445" lon="0.59868">
        <ele>1550</ele>
        <time>2019-02-03T11:41:46.000Z</time>
      </trkpt>
      <trkpt lat="42.92445" lon="0.59868">
        <ele>1549.7</ele>
        <time>2019-02-03T11:41:47.000Z</time>
      </trkpt>
      <trkpt lat="42.92445" lon="0.59868">
        <ele>1549.3</ele>
        <time>2019-02-03T11:41:48.000Z</time>
      </trkpt>
      <trkpt lat="42.92445" lon="0.59869">
        <ele>1549</ele>
        <time>2019-02-03T11:41:49.000Z</time>
      </trkpt>
      <trkpt lat="42.92445" lon="0.59869">
        <ele>1549</ele>
        <time>2019-02-03T11:41:50.000Z</time>
      </trkpt>
      <trkpt lat="42.92445" lon="0.5987">
        <ele>1549</ele>
        <time>2019-02-03T11:41:51.000Z</time>
      </trkpt>
      <trkpt lat="42.92445" lon="0.5987">
        <ele>1549</ele>
        <time>2019-02-03T11:41:52.000Z</time>
      </trkpt>
      <trkpt lat="42.92445" lon="0.59871">
        <ele>1549</ele>
        <time>2019-02-03T11:41:53.000Z</time>
      </trkpt>
      <trkpt lat="42.92445" lon="0.59871">
        <ele>1549</ele>
        <time>2019-02-03T11:41:54.000Z</time>
      </trkpt>
      <trkpt lat="42.92445" lon="0.59872">
        <ele>1549</ele>
        <time>2019-02-03T11:41:55.000Z</time>
      </trkpt>
      <trkpt lat="42.92445" lon="0.59872">
        <ele>1549</ele>
        <time>2019-02-03T11:41:56.000Z</time>
      </trkpt>
      <trkpt lat="42.92444" lon="0.59872">
        <ele>1549</ele>
        <time>2019-02-03T11:41:57.000Z</time>
      </trkpt>
      <trkpt lat="42.92444" lon="0.59872">
        <ele>1549</ele>
        <time>2019-02-03T11:41:58.000Z</time>
      </trkpt>
      <trkpt lat="42.92444" lon="0.59872">
        <ele>1549</ele>
        <time>2019-02-03T11:41:59.000Z</time>
      </trkpt>
      <trkpt lat="42.92444" lon="0.59872">
        <ele>1549</ele>
        <time>2019-02-03T11:42:00.000Z</time>
      </trkpt>
      <trkpt lat="42.92445" lon="0.59871">
        <ele>1549</ele>
        <time>2019-02-03T11:42:01.000Z</time>
      </trkpt>
      <trkpt lat="42.92445" lon="0.59871">
        <ele>1549</ele>
        <time>2019-02-03T11:42:02.000Z</time>
      </trkpt>
      <trkpt lat="42.92445" lon="0.59871">
        <ele>1549</ele>
        <time>2019-02-03T11:42:03.000Z</time>
      </trkpt>
      <trkpt lat="42.92445" lon="0.59871">
        <ele>1550</ele>
        <time>2019-02-03T11:42:04.000Z</time>
      </trkpt>
      <trkpt lat="42.92445" lon="0.59871">
        <ele>1550</ele>
        <time>2019-02-03T11:42:05.000Z</time>
      </trkpt>
      <trkpt lat="42.92445" lon="0.59871">
        <ele>1550</ele>
        <time>2019-02-03T11:42:06.000Z</time>
      </trkpt>
      <trkpt lat="42.92445" lon="0.59871">
        <ele>1550</ele>
        <time>2019-02-03T11:42:07.000Z</time>
      </trkpt>
      <trkpt lat="42.92445" lon="0.59871">
        <ele>1550</ele>
        <time>2019-02-03T11:42:08.000Z</time>
      </trkpt>
      <trkpt lat="42.92445" lon="0.59872">
        <ele>1550</ele>
        <time>2019-02-03T11:42:09.000Z</time>
      </trkpt>
      <trkpt lat="42.92445" lon="0.59872">
        <ele>1550</ele>
        <time>2019-02-03T11:42:10.000Z</time>
      </trkpt>
      <trkpt lat="42.92445" lon="0.59872">
        <ele>1550</ele>
        <time>2019-02-03T11:42:11.000Z</time>
      </trkpt>
      <trkpt lat="42.92445" lon="0.59872">
        <ele>1550</ele>
        <time>2019-02-03T11:42:12.000Z</time>
      </trkpt>
      <trkpt lat="42.92445" lon="0.59872">
        <ele>1550</ele>
        <time>2019-02-03T11:42:13.000Z</time>
      </trkpt>
      <trkpt lat="42.92445" lon="0.59872">
        <ele>1550</ele>
        <time>2019-02-03T11:42:14.000Z</time>
      </trkpt>
      <trkpt lat="42.92445" lon="0.59872">
        <ele>1549.7</ele>
        <time>2019-02-03T11:42:15.000Z</time>
      </trkpt>
      <trkpt lat="42.92445" lon="0.59872">
        <ele>1549.3</ele>
        <time>2019-02-03T11:42:16.000Z</time>
      </trkpt>
      <trkpt lat="42.92445" lon="0.59872">
        <ele>1549</ele>
        <time>2019-02-03T11:42:17.000Z</time>
      </trkpt>
      <trkpt lat="42.92445" lon="0.59871">
        <ele>1549</ele>
        <time>2019-02-03T11:42:18.000Z</time>
      </trkpt>
      <trkpt lat="42.92445" lon="0.59871">
        <ele>1549</ele>
        <time>2019-02-03T11:42:19.000Z</time>
      </trkpt>
      <trkpt lat="42.92445" lon="0.59871">
        <ele>1549</ele>
        <time>2019-02-03T11:42:20.000Z</time>
      </trkpt>
      <trkpt lat="42.92445" lon="0.59871">
        <ele>1549</ele>
        <time>2019-02-03T11:42:21.000Z</time>
      </trkpt>
      <trkpt lat="42.92445" lon="0.59871">
        <ele>1549</ele>
        <time>2019-02-03T11:42:22.000Z</time>
      </trkpt>
      <trkpt lat="42.92445" lon="0.59871">
        <ele>1549</ele>
        <time>2019-02-03T11:42:23.000Z</time>
      </trkpt>
      <trkpt lat="42.92445" lon="0.59872">
        <ele>1549</ele>
        <time>2019-02-03T11:42:24.000Z</time>
      </trkpt>
      <trkpt lat="42.92445" lon="0.59872">
        <ele>1549</ele>
        <time>2019-02-03T11:42:25.000Z</time>
      </trkpt>
      <trkpt lat="42.92445" lon="0.59872">
        <ele>1549</ele>
        <time>2019-02-03T11:42:26.000Z</time>
      </trkpt>
      <trkpt lat="42.92445" lon="0.59873">
        <ele>1549</ele>
        <time>2019-02-03T11:42:27.000Z</time>
      </trkpt>
      <trkpt lat="42.92444" lon="0.59873">
        <ele>1549</ele>
        <time>2019-02-03T11:42:28.000Z</time>
      </trkpt>
      <trkpt lat="42.92444" lon="0.59873">
        <ele>1549</ele>
        <time>2019-02-03T11:42:29.000Z</time>
      </trkpt>
      <trkpt lat="42.92444" lon="0.59873">
        <ele>1549</ele>
        <time>2019-02-03T11:42:30.000Z</time>
      </trkpt>
      <trkpt lat="42.92444" lon="0.59872">
        <ele>1549</ele>
        <time>2019-02-03T11:42:31.000Z</time>
      </trkpt>
      <trkpt lat="42.92444" lon="0.59872">
        <ele>1549</ele>
        <time>2019-02-03T11:42:32.000Z</time>
      </trkpt>
      <trkpt lat="42.92445" lon="0.59872">
        <ele>1549</ele>
        <time>2019-02-03T11:42:33.000Z</time>
      </trkpt>
      <trkpt lat="42.92445" lon="0.59872">
        <ele>1549</ele>
        <time>2019-02-03T11:42:34.000Z</time>
      </trkpt>
      <trkpt lat="42.92445" lon="0.59872">
        <ele>1549</ele>
        <time>2019-02-03T11:42:35.000Z</time>
      </trkpt>
      <trkpt lat="42.92445" lon="0.59872">
        <ele>1549</ele>
        <time>2019-02-03T11:42:36.000Z</time>
      </trkpt>
      <trkpt lat="42.92445" lon="0.59872">
        <ele>1549</ele>
        <time>2019-02-03T11:42:37.000Z</time>
      </trkpt>
      <trkpt lat="42.92445" lon="0.59872">
        <ele>1549</ele>
        <time>2019-02-03T11:42:38.000Z</time>
      </trkpt>
      <trkpt lat="42.92445" lon="0.59871">
        <ele>1549</ele>
        <time>2019-02-03T11:42:39.000Z</time>
      </trkpt>
      <trkpt lat="42.92445" lon="0.59871">
        <ele>1549</ele>
        <time>2019-02-03T11:42:40.000Z</time>
      </trkpt>
      <trkpt lat="42.92445" lon="0.59871">
        <ele>1549</ele>
        <time>2019-02-03T11:42:41.000Z</time>
      </trkpt>
      <trkpt lat="42.92445" lon="0.59871">
        <ele>1549</ele>
        <time>2019-02-03T11:42:42.000Z</time>
      </trkpt>
      <trkpt lat="42.92445" lon="0.59871">
        <ele>1549</ele>
        <time>2019-02-03T11:42:43.000Z</time>
      </trkpt>
      <trkpt lat="42.92445" lon="0.59871">
        <ele>1549</ele>
        <time>2019-02-03T11:42:44.000Z</time>
      </trkpt>
      <trkpt lat="42.92445" lon="0.59872">
        <ele>1549.3</ele>
        <time>2019-02-03T11:42:45.000Z</time>
      </trkpt>
      <trkpt lat="42.92445" lon="0.59872">
        <ele>1549.7</ele>
        <time>2019-02-03T11:42:46.000Z</time>
      </trkpt>
      <trkpt lat="42.92445" lon="0.59872">
        <ele>1550</ele>
        <time>2019-02-03T11:42:47.000Z</time>
      </trkpt>
      <trkpt lat="42.92445" lon="0.59873">
        <ele>1549.5</ele>
        <time>2019-02-03T11:42:48.000Z</time>
      </trkpt>
      <trkpt lat="42.92445" lon="0.59873">
        <ele>1549</ele>
        <time>2019-02-03T11:42:49.000Z</time>
      </trkpt>
      <trkpt lat="42.92444" lon="0.59873">
        <ele>1549</ele>
        <time>2019-02-03T11:42:50.000Z</time>
      </trkpt>
      <trkpt lat="42.92444" lon="0.59873">
        <ele>1549</ele>
        <time>2019-02-03T11:42:51.000Z</time>
      </trkpt>
      <trkpt lat="42.92444" lon="0.59873">
        <ele>1549</ele>
        <time>2019-02-03T11:42:52.000Z</time>
      </trkpt>
      <trkpt lat="42.92443" lon="0.59873">
        <ele>1549</ele>
        <time>2019-02-03T11:42:53.000Z</time>
      </trkpt>
      <trkpt lat="42.92443" lon="0.59872">
        <ele>1549</ele>
        <time>2019-02-03T11:42:54.000Z</time>
      </trkpt>
      <trkpt lat="42.92443" lon="0.59872">
        <ele>1549</ele>
        <time>2019-02-03T11:42:55.000Z</time>
      </trkpt>
      <trkpt lat="42.92443" lon="0.59871">
        <ele>1549</ele>
        <time>2019-02-03T11:42:56.000Z</time>
      </trkpt>
      <trkpt lat="42.92443" lon="0.59871">
        <ele>1548.7</ele>
        <time>2019-02-03T11:42:57.000Z</time>
      </trkpt>
      <trkpt lat="42.92443" lon="0.59871">
        <ele>1548.3</ele>
        <time>2019-02-03T11:42:58.000Z</time>
      </trkpt>
      <trkpt lat="42.92443" lon="0.5987">
        <ele>1548</ele>
        <time>2019-02-03T11:42:59.000Z</time>
      </trkpt>
      <trkpt lat="42.92443" lon="0.5987">
        <ele>1548</ele>
        <time>2019-02-03T11:43:00.000Z</time>
      </trkpt>
      <trkpt lat="42.92443" lon="0.5987">
        <ele>1548</ele>
        <time>2019-02-03T11:43:01.000Z</time>
      </trkpt>
      <trkpt lat="42.92443" lon="0.5987">
        <ele>1548</ele>
        <time>2019-02-03T11:43:02.000Z</time>
      </trkpt>
      <trkpt lat="42.92443" lon="0.5987">
        <ele>1548</ele>
        <time>2019-02-03T11:43:03.000Z</time>
      </trkpt>
      <trkpt lat="42.92444" lon="0.5987">
        <ele>1548</ele>
        <time>2019-02-03T11:43:04.000Z</time>
      </trkpt>
      <trkpt lat="42.92444" lon="0.5987">
        <ele>1548</ele>
        <time>2019-02-03T11:43:05.000Z</time>
      </trkpt>
      <trkpt lat="42.92444" lon="0.5987">
        <ele>1548</ele>
        <time>2019-02-03T11:43:06.000Z</time>
      </trkpt>
      <trkpt lat="42.92444" lon="0.5987">
        <ele>1548</ele>
        <time>2019-02-03T11:43:07.000Z</time>
      </trkpt>
      <trkpt lat="42.92444" lon="0.5987">
        <ele>1548</ele>
        <time>2019-02-03T11:43:08.000Z</time>
      </trkpt>
      <trkpt lat="42.92444" lon="0.5987">
        <ele>1548</ele>
        <time>2019-02-03T11:43:09.000Z</time>
      </trkpt>
      <trkpt lat="42.92445" lon="0.5987">
        <ele>1548</ele>
        <time>2019-02-03T11:43:10.000Z</time>
      </trkpt>
      <trkpt lat="42.92445" lon="0.5987">
        <ele>1548</ele>
        <time>2019-02-03T11:43:11.000Z</time>
      </trkpt>
      <trkpt lat="42.92445" lon="0.5987">
        <ele>1548</ele>
        <time>2019-02-03T11:43:12.000Z</time>
      </trkpt>
      <trkpt lat="42.92445" lon="0.5987">
        <ele>1548</ele>
        <time>2019-02-03T11:43:13.000Z</time>
      </trkpt>
      <trkpt lat="42.92445" lon="0.59869">
        <ele>1548</ele>
        <time>2019-02-03T11:43:14.000Z</time>
      </trkpt>
      <trkpt lat="42.92445" lon="0.59869">
        <ele>1548</ele>
        <time>2019-02-03T11:43:15.000Z</time>
      </trkpt>
      <trkpt lat="42.92446" lon="0.59869">
        <ele>1548</ele>
        <time>2019-02-03T11:43:16.000Z</time>
      </trkpt>
      <trkpt lat="42.92446" lon="0.59869">
        <ele>1548</ele>
        <time>2019-02-03T11:43:17.000Z</time>
      </trkpt>
      <trkpt lat="42.92446" lon="0.59869">
        <ele>1548</ele>
        <time>2019-02-03T11:43:18.000Z</time>
      </trkpt>
      <trkpt lat="42.92446" lon="0.59869">
        <ele>1548.3</ele>
        <time>2019-02-03T11:43:19.000Z</time>
      </trkpt>
      <trkpt lat="42.92446" lon="0.59869">
        <ele>1548.7</ele>
        <time>2019-02-03T11:43:20.000Z</time>
      </trkpt>
      <trkpt lat="42.92446" lon="0.59869">
        <ele>1549</ele>
        <time>2019-02-03T11:43:21.000Z</time>
      </trkpt>
      <trkpt lat="42.92446" lon="0.59869">
        <ele>1549</ele>
        <time>2019-02-03T11:43:22.000Z</time>
      </trkpt>
      <trkpt lat="42.92446" lon="0.59869">
        <ele>1549</ele>
        <time>2019-02-03T11:43:23.000Z</time>
      </trkpt>
      <trkpt lat="42.92446" lon="0.59869">
        <ele>1549</ele>
        <time>2019-02-03T11:43:24.000Z</time>
      </trkpt>
      <trkpt lat="42.92446" lon="0.59869">
        <ele>1549</ele>
        <time>2019-02-03T11:43:25.000Z</time>
      </trkpt>
      <trkpt lat="42.92446" lon="0.59869">
        <ele>1549</ele>
        <time>2019-02-03T11:43:26.000Z</time>
      </trkpt>
      <trkpt lat="42.92446" lon="0.59869">
        <ele>1549</ele>
        <time>2019-02-03T11:43:27.000Z</time>
      </trkpt>
      <trkpt lat="42.92446" lon="0.59869">
        <ele>1549</ele>
        <time>2019-02-03T11:43:28.000Z</time>
      </trkpt>
      <trkpt lat="42.92446" lon="0.59869">
        <ele>1549</ele>
        <time>2019-02-03T11:43:29.000Z</time>
      </trkpt>
      <trkpt lat="42.92446" lon="0.59869">
        <ele>1549</ele>
        <time>2019-02-03T11:43:30.000Z</time>
      </trkpt>
      <trkpt lat="42.92446" lon="0.59869">
        <ele>1549</ele>
        <time>2019-02-03T11:43:31.000Z</time>
      </trkpt>
      <trkpt lat="42.92446" lon="0.59869">
        <ele>1549</ele>
        <time>2019-02-03T11:43:32.000Z</time>
      </trkpt>
      <trkpt lat="42.92446" lon="0.59869">
        <ele>1549</ele>
        <time>2019-02-03T11:43:33.000Z</time>
      </trkpt>
      <trkpt lat="42.92446" lon="0.59869">
        <ele>1549</ele>
        <time>2019-02-03T11:43:34.000Z</time>
      </trkpt>
      <trkpt lat="42.92447" lon="0.59869">
        <ele>1549</ele>
        <time>2019-02-03T11:43:35.000Z</time>
      </trkpt>
      <trkpt lat="42.92447" lon="0.59869">
        <ele>1548</ele>
        <time>2019-02-03T11:43:36.000Z</time>
      </trkpt>
      <trkpt lat="42.92447" lon="0.59869">
        <ele>1548</ele>
        <time>2019-02-03T11:43:37.000Z</time>
      </trkpt>
      <trkpt lat="42.92447" lon="0.59869">
        <ele>1548</ele>
        <time>2019-02-03T11:43:38.000Z</time>
      </trkpt>
      <trkpt lat="42.92447" lon="0.59869">
        <ele>1548</ele>
        <time>2019-02-03T11:43:39.000Z</time>
      </trkpt>
      <trkpt lat="42.92447" lon="0.59868">
        <ele>1548</ele>
        <time>2019-02-03T11:43:40.000Z</time>
      </trkpt>
      <trkpt lat="42.92447" lon="0.59868">
        <ele>1548</ele>
        <time>2019-02-03T11:43:41.000Z</time>
      </trkpt>
      <trkpt lat="42.92447" lon="0.59868">
        <ele>1549</ele>
        <time>2019-02-03T11:43:42.000Z</time>
      </trkpt>
      <trkpt lat="42.92447" lon="0.59868">
        <ele>1549</ele>
        <time>2019-02-03T11:43:43.000Z</time>
      </trkpt>
      <trkpt lat="42.92447" lon="0.59868">
        <ele>1549</ele>
        <time>2019-02-03T11:43:44.000Z</time>
      </trkpt>
      <trkpt lat="42.92447" lon="0.59868">
        <ele>1549</ele>
        <time>2019-02-03T11:43:45.000Z</time>
      </trkpt>
      <trkpt lat="42.92447" lon="0.59867">
        <ele>1549</ele>
        <time>2019-02-03T11:43:46.000Z</time>
      </trkpt>
      <trkpt lat="42.92447" lon="0.59867">
        <ele>1549</ele>
        <time>2019-02-03T11:43:47.000Z</time>
      </trkpt>
      <trkpt lat="42.92447" lon="0.59867">
        <ele>1549</ele>
        <time>2019-02-03T11:43:48.000Z</time>
      </trkpt>
      <trkpt lat="42.92447" lon="0.59867">
        <ele>1548.5</ele>
        <time>2019-02-03T11:43:49.000Z</time>
      </trkpt>
      <trkpt lat="42.92447" lon="0.59867">
        <ele>1548</ele>
        <time>2019-02-03T11:43:50.000Z</time>
      </trkpt>
      <trkpt lat="42.92447" lon="0.59867">
        <ele>1548</ele>
        <time>2019-02-03T11:43:51.000Z</time>
      </trkpt>
      <trkpt lat="42.92447" lon="0.59867">
        <ele>1548</ele>
        <time>2019-02-03T11:43:52.000Z</time>
      </trkpt>
      <trkpt lat="42.92447" lon="0.59867">
        <ele>1548</ele>
        <time>2019-02-03T11:43:53.000Z</time>
      </trkpt>
      <trkpt lat="42.92446" lon="0.59867">
        <ele>1548</ele>
        <time>2019-02-03T11:43:54.000Z</time>
      </trkpt>
      <trkpt lat="42.92446" lon="0.59867">
        <ele>1548</ele>
        <time>2019-02-03T11:43:55.000Z</time>
      </trkpt>
      <trkpt lat="42.92446" lon="0.59867">
        <ele>1548</ele>
        <time>2019-02-03T11:43:56.000Z</time>
      </trkpt>
      <trkpt lat="42.92446" lon="0.59867">
        <ele>1548</ele>
        <time>2019-02-03T11:43:57.000Z</time>
      </trkpt>
      <trkpt lat="42.92446" lon="0.59866">
        <ele>1548</ele>
        <time>2019-02-03T11:43:58.000Z</time>
      </trkpt>
      <trkpt lat="42.92446" lon="0.59866">
        <ele>1548</ele>
        <time>2019-02-03T11:43:59.000Z</time>
      </trkpt>
      <trkpt lat="42.92446" lon="0.59866">
        <ele>1548</ele>
        <time>2019-02-03T11:44:00.000Z</time>
      </trkpt>
      <trkpt lat="42.92446" lon="0.59866">
        <ele>1548</ele>
        <time>2019-02-03T11:44:01.000Z</time>
      </trkpt>
      <trkpt lat="42.92446" lon="0.59866">
        <ele>1548</ele>
        <time>2019-02-03T11:44:02.000Z</time>
      </trkpt>
      <trkpt lat="42.92446" lon="0.59866">
        <ele>1548.3</ele>
        <time>2019-02-03T11:44:03.000Z</time>
      </trkpt>
      <trkpt lat="42.92446" lon="0.59866">
        <ele>1548.7</ele>
        <time>2019-02-03T11:44:04.000Z</time>
      </trkpt>
      <trkpt lat="42.92446" lon="0.59866">
        <ele>1549</ele>
        <time>2019-02-03T11:44:05.000Z</time>
      </trkpt>
      <trkpt lat="42.92446" lon="0.59866">
        <ele>1549</ele>
        <time>2019-02-03T11:44:06.000Z</time>
      </trkpt>
      <trkpt lat="42.92446" lon="0.59866">
        <ele>1549</ele>
        <time>2019-02-03T11:44:07.000Z</time>
      </trkpt>
      <trkpt lat="42.92446" lon="0.59866">
        <ele>1549</ele>
        <time>2019-02-03T11:44:08.000Z</time>
      </trkpt>
      <trkpt lat="42.92446" lon="0.59866">
        <ele>1549</ele>
        <time>2019-02-03T11:44:09.000Z</time>
      </trkpt>
      <trkpt lat="42.92446" lon="0.59866">
        <ele>1549</ele>
        <time>2019-02-03T11:44:10.000Z</time>
      </trkpt>
      <trkpt lat="42.92446" lon="0.59866">
        <ele>1549</ele>
        <time>2019-02-03T11:44:11.000Z</time>
      </trkpt>
      <trkpt lat="42.92446" lon="0.59866">
        <ele>1549</ele>
        <time>2019-02-03T11:44:12.000Z</time>
      </trkpt>
      <trkpt lat="42.92446" lon="0.59866">
        <ele>1548.7</ele>
        <time>2019-02-03T11:44:13.000Z</time>
      </trkpt>
      <trkpt lat="42.92446" lon="0.59866">
        <ele>1548.3</ele>
        <time>2019-02-03T11:44:14.000Z</time>
      </trkpt>
      <trkpt lat="42.92446" lon="0.59866">
        <ele>1548</ele>
        <time>2019-02-03T11:44:15.000Z</time>
      </trkpt>
      <trkpt lat="42.92446" lon="0.59866">
        <ele>1548</ele>
        <time>2019-02-03T11:44:16.000Z</time>
      </trkpt>
      <trkpt lat="42.92446" lon="0.59867">
        <ele>1548.3</ele>
        <time>2019-02-03T11:44:17.000Z</time>
      </trkpt>
      <trkpt lat="42.92446" lon="0.59867">
        <ele>1548.7</ele>
        <time>2019-02-03T11:44:18.000Z</time>
      </trkpt>
      <trkpt lat="42.92446" lon="0.59867">
        <ele>1549</ele>
        <time>2019-02-03T11:44:19.000Z</time>
      </trkpt>
      <trkpt lat="42.92446" lon="0.59867">
        <ele>1549</ele>
        <time>2019-02-03T11:44:20.000Z</time>
      </trkpt>
      <trkpt lat="42.92446" lon="0.59867">
        <ele>1549</ele>
        <time>2019-02-03T11:44:21.000Z</time>
      </trkpt>
      <trkpt lat="42.92446" lon="0.59867">
        <ele>1549</ele>
        <time>2019-02-03T11:44:22.000Z</time>
      </trkpt>
      <trkpt lat="42.92446" lon="0.59867">
        <ele>1549</ele>
        <time>2019-02-03T11:44:23.000Z</time>
      </trkpt>
      <trkpt lat="42.92446" lon="0.59867">
        <ele>1549</ele>
        <time>2019-02-03T11:44:24.000Z</time>
      </trkpt>
      <trkpt lat="42.92446" lon="0.59867">
        <ele>1549</ele>
        <time>2019-02-03T11:44:25.000Z</time>
      </trkpt>
      <trkpt lat="42.92446" lon="0.59867">
        <ele>1549</ele>
        <time>2019-02-03T11:44:26.000Z</time>
      </trkpt>
      <trkpt lat="42.92446" lon="0.59866">
        <ele>1549</ele>
        <time>2019-02-03T11:44:27.000Z</time>
      </trkpt>
      <trkpt lat="42.92447" lon="0.59866">
        <ele>1549</ele>
        <time>2019-02-03T11:44:28.000Z</time>
      </trkpt>
      <trkpt lat="42.92447" lon="0.59867">
        <ele>1549</ele>
        <time>2019-02-03T11:44:29.000Z</time>
      </trkpt>
      <trkpt lat="42.92446" lon="0.59868">
        <ele>1549</ele>
        <time>2019-02-03T11:44:30.000Z</time>
      </trkpt>
      <trkpt lat="42.92446" lon="0.59869">
        <ele>1549</ele>
        <time>2019-02-03T11:44:31.000Z</time>
      </trkpt>
      <trkpt lat="42.92446" lon="0.59871">
        <ele>1549</ele>
        <time>2019-02-03T11:44:32.000Z</time>
      </trkpt>
      <trkpt lat="42.92445" lon="0.59872">
        <ele>1549</ele>
        <time>2019-02-03T11:44:33.000Z</time>
      </trkpt>
      <trkpt lat="42.92445" lon="0.59873">
        <ele>1549</ele>
        <time>2019-02-03T11:44:34.000Z</time>
      </trkpt>
      <trkpt lat="42.92445" lon="0.59873">
        <ele>1549</ele>
        <time>2019-02-03T11:44:35.000Z</time>
      </trkpt>
      <trkpt lat="42.92445" lon="0.59874">
        <ele>1549</ele>
        <time>2019-02-03T11:44:36.000Z</time>
      </trkpt>
      <trkpt lat="42.92445" lon="0.59874">
        <ele>1549</ele>
        <time>2019-02-03T11:44:37.000Z</time>
      </trkpt>
      <trkpt lat="42.92445" lon="0.59874">
        <ele>1549</ele>
        <time>2019-02-03T11:44:38.000Z</time>
      </trkpt>
      <trkpt lat="42.92445" lon="0.59874">
        <ele>1549</ele>
        <time>2019-02-03T11:44:39.000Z</time>
      </trkpt>
      <trkpt lat="42.92445" lon="0.59874">
        <ele>1549</ele>
        <time>2019-02-03T11:44:40.000Z</time>
      </trkpt>
      <trkpt lat="42.92445" lon="0.59874">
        <ele>1549</ele>
        <time>2019-02-03T11:44:41.000Z</time>
      </trkpt>
      <trkpt lat="42.92445" lon="0.59874">
        <ele>1549</ele>
        <time>2019-02-03T11:44:42.000Z</time>
      </trkpt>
      <trkpt lat="42.92445" lon="0.59874">
        <ele>1549.3</ele>
        <time>2019-02-03T11:44:43.000Z</time>
      </trkpt>
      <trkpt lat="42.92445" lon="0.59874">
        <ele>1549.7</ele>
        <time>2019-02-03T11:44:44.000Z</time>
      </trkpt>
      <trkpt lat="42.92445" lon="0.59874">
        <ele>1550</ele>
        <time>2019-02-03T11:44:45.000Z</time>
      </trkpt>
      <trkpt lat="42.92445" lon="0.59874">
        <ele>1550</ele>
        <time>2019-02-03T11:44:46.000Z</time>
      </trkpt>
      <trkpt lat="42.92445" lon="0.59874">
        <ele>1550</ele>
        <time>2019-02-03T11:44:47.000Z</time>
      </trkpt>
      <trkpt lat="42.92445" lon="0.59874">
        <ele>1550</ele>
        <time>2019-02-03T11:44:48.000Z</time>
      </trkpt>
      <trkpt lat="42.92445" lon="0.59874">
        <ele>1550</ele>
        <time>2019-02-03T11:44:49.000Z</time>
      </trkpt>
      <trkpt lat="42.92445" lon="0.59874">
        <ele>1550.5</ele>
        <time>2019-02-03T11:44:50.000Z</time>
      </trkpt>
      <trkpt lat="42.92445" lon="0.59874">
        <ele>1551</ele>
        <time>2019-02-03T11:44:51.000Z</time>
      </trkpt>
      <trkpt lat="42.92445" lon="0.59874">
        <ele>1551</ele>
        <time>2019-02-03T11:44:52.000Z</time>
      </trkpt>
      <trkpt lat="42.92445" lon="0.59874">
        <ele>1551</ele>
        <time>2019-02-03T11:44:53.000Z</time>
      </trkpt>
      <trkpt lat="42.92445" lon="0.59874">
        <ele>1551</ele>
        <time>2019-02-03T11:44:54.000Z</time>
      </trkpt>
      <trkpt lat="42.92445" lon="0.59874">
        <ele>1551</ele>
        <time>2019-02-03T11:44:55.000Z</time>
      </trkpt>
      <trkpt lat="42.92445" lon="0.59874">
        <ele>1551</ele>
        <time>2019-02-03T11:44:56.000Z</time>
      </trkpt>
      <trkpt lat="42.92445" lon="0.59874">
        <ele>1551</ele>
        <time>2019-02-03T11:44:57.000Z</time>
      </trkpt>
      <trkpt lat="42.92445" lon="0.59874">
        <ele>1551</ele>
        <time>2019-02-03T11:44:58.000Z</time>
      </trkpt>
      <trkpt lat="42.92445" lon="0.59874">
        <ele>1551</ele>
        <time>2019-02-03T11:44:59.000Z</time>
      </trkpt>
      <trkpt lat="42.92445" lon="0.59874">
        <ele>1551</ele>
        <time>2019-02-03T11:45:00.000Z</time>
      </trkpt>
      <trkpt lat="42.92445" lon="0.59874">
        <ele>1551</ele>
        <time>2019-02-03T11:45:01.000Z</time>
      </trkpt>
      <trkpt lat="42.92445" lon="0.59874">
        <ele>1551</ele>
        <time>2019-02-03T11:45:02.000Z</time>
      </trkpt>
      <trkpt lat="42.92445" lon="0.59874">
        <ele>1550.7</ele>
        <time>2019-02-03T11:45:03.000Z</time>
      </trkpt>
      <trkpt lat="42.92445" lon="0.59874">
        <ele>1550.3</ele>
        <time>2019-02-03T11:45:04.000Z</time>
      </trkpt>
      <trkpt lat="42.92445" lon="0.59874">
        <ele>1550</ele>
        <time>2019-02-03T11:45:05.000Z</time>
      </trkpt>
      <trkpt lat="42.92445" lon="0.59874">
        <ele>1550</ele>
        <time>2019-02-03T11:45:06.000Z</time>
      </trkpt>
      <trkpt lat="42.92445" lon="0.59875">
        <ele>1550</ele>
        <time>2019-02-03T11:45:07.000Z</time>
      </trkpt>
      <trkpt lat="42.92446" lon="0.59875">
        <ele>1550</ele>
        <time>2019-02-03T11:45:08.000Z</time>
      </trkpt>
      <trkpt lat="42.92446" lon="0.59875">
        <ele>1550</ele>
        <time>2019-02-03T11:45:09.000Z</time>
      </trkpt>
      <trkpt lat="42.92446" lon="0.59875">
        <ele>1550</ele>
        <time>2019-02-03T11:45:10.000Z</time>
      </trkpt>
      <trkpt lat="42.92446" lon="0.59875">
        <ele>1550</ele>
        <time>2019-02-03T11:45:11.000Z</time>
      </trkpt>
      <trkpt lat="42.92446" lon="0.59875">
        <ele>1550</ele>
        <time>2019-02-03T11:45:12.000Z</time>
      </trkpt>
      <trkpt lat="42.92446" lon="0.59875">
        <ele>1550</ele>
        <time>2019-02-03T11:45:13.000Z</time>
      </trkpt>
      <trkpt lat="42.92446" lon="0.59875">
        <ele>1550</ele>
        <time>2019-02-03T11:45:14.000Z</time>
      </trkpt>
      <trkpt lat="42.92446" lon="0.59875">
        <ele>1550</ele>
        <time>2019-02-03T11:45:15.000Z</time>
      </trkpt>
      <trkpt lat="42.92446" lon="0.59875">
        <ele>1550</ele>
        <time>2019-02-03T11:45:16.000Z</time>
      </trkpt>
      <trkpt lat="42.92446" lon="0.59875">
        <ele>1550</ele>
        <time>2019-02-03T11:45:17.000Z</time>
      </trkpt>
      <trkpt lat="42.92446" lon="0.59875">
        <ele>1550</ele>
        <time>2019-02-03T11:45:18.000Z</time>
      </trkpt>
      <trkpt lat="42.92445" lon="0.59874">
        <ele>1550</ele>
        <time>2019-02-03T11:45:19.000Z</time>
      </trkpt>
      <trkpt lat="42.92445" lon="0.59874">
        <ele>1549</ele>
        <time>2019-02-03T11:45:20.000Z</time>
      </trkpt>
      <trkpt lat="42.92445" lon="0.59874">
        <ele>1549</ele>
        <time>2019-02-03T11:45:21.000Z</time>
      </trkpt>
      <trkpt lat="42.92445" lon="0.59874">
        <ele>1549</ele>
        <time>2019-02-03T11:45:22.000Z</time>
      </trkpt>
      <trkpt lat="42.92445" lon="0.59874">
        <ele>1549.3</ele>
        <time>2019-02-03T11:45:23.000Z</time>
      </trkpt>
      <trkpt lat="42.92445" lon="0.59873">
        <ele>1549.7</ele>
        <time>2019-02-03T11:45:24.000Z</time>
      </trkpt>
      <trkpt lat="42.92445" lon="0.59873">
        <ele>1550</ele>
        <time>2019-02-03T11:45:25.000Z</time>
      </trkpt>
      <trkpt lat="42.92445" lon="0.59873">
        <ele>1550</ele>
        <time>2019-02-03T11:45:26.000Z</time>
      </trkpt>
      <trkpt lat="42.92445" lon="0.59873">
        <ele>1550</ele>
        <time>2019-02-03T11:45:27.000Z</time>
      </trkpt>
      <trkpt lat="42.92445" lon="0.59873">
        <ele>1550</ele>
        <time>2019-02-03T11:45:28.000Z</time>
      </trkpt>
      <trkpt lat="42.92445" lon="0.59873">
        <ele>1549.7</ele>
        <time>2019-02-03T11:45:29.000Z</time>
      </trkpt>
      <trkpt lat="42.92445" lon="0.59873">
        <ele>1549.3</ele>
        <time>2019-02-03T11:45:30.000Z</time>
      </trkpt>
      <trkpt lat="42.92445" lon="0.59873">
        <ele>1549</ele>
        <time>2019-02-03T11:45:31.000Z</time>
      </trkpt>
      <trkpt lat="42.92445" lon="0.59873">
        <ele>1549</ele>
        <time>2019-02-03T11:45:32.000Z</time>
      </trkpt>
      <trkpt lat="42.92445" lon="0.59873">
        <ele>1549</ele>
        <time>2019-02-03T11:45:33.000Z</time>
      </trkpt>
      <trkpt lat="42.92445" lon="0.59873">
        <ele>1549</ele>
        <time>2019-02-03T11:45:34.000Z</time>
      </trkpt>
      <trkpt lat="42.92445" lon="0.59873">
        <ele>1549</ele>
        <time>2019-02-03T11:45:35.000Z</time>
      </trkpt>
      <trkpt lat="42.92445" lon="0.59874">
        <ele>1549</ele>
        <time>2019-02-03T11:45:36.000Z</time>
      </trkpt>
      <trkpt lat="42.92445" lon="0.59874">
        <ele>1549</ele>
        <time>2019-02-03T11:45:37.000Z</time>
      </trkpt>
      <trkpt lat="42.92445" lon="0.59874">
        <ele>1549</ele>
        <time>2019-02-03T11:45:38.000Z</time>
      </trkpt>
      <trkpt lat="42.92445" lon="0.59874">
        <ele>1549</ele>
        <time>2019-02-03T11:45:39.000Z</time>
      </trkpt>
      <trkpt lat="42.92445" lon="0.59874">
        <ele>1549</ele>
        <time>2019-02-03T11:45:40.000Z</time>
      </trkpt>
      <trkpt lat="42.92445" lon="0.59874">
        <ele>1549.3</ele>
        <time>2019-02-03T11:45:41.000Z</time>
      </trkpt>
      <trkpt lat="42.92445" lon="0.59874">
        <ele>1549.7</ele>
        <time>2019-02-03T11:45:42.000Z</time>
      </trkpt>
      <trkpt lat="42.92445" lon="0.59874">
        <ele>1550</ele>
        <time>2019-02-03T11:45:43.000Z</time>
      </trkpt>
      <trkpt lat="42.92445" lon="0.59874">
        <ele>1550</ele>
        <time>2019-02-03T11:45:44.000Z</time>
      </trkpt>
      <trkpt lat="42.92445" lon="0.59874">
        <ele>1550</ele>
        <time>2019-02-03T11:45:45.000Z</time>
      </trkpt>
      <trkpt lat="42.92445" lon="0.59874">
        <ele>1550</ele>
        <time>2019-02-03T11:45:46.000Z</time>
      </trkpt>
      <trkpt lat="42.92445" lon="0.59874">
        <ele>1549.5</ele>
        <time>2019-02-03T11:45:47.000Z</time>
      </trkpt>
      <trkpt lat="42.92445" lon="0.59874">
        <ele>1549</ele>
        <time>2019-02-03T11:45:48.000Z</time>
      </trkpt>
      <trkpt lat="42.92445" lon="0.59874">
        <ele>1549.3</ele>
        <time>2019-02-03T11:45:49.000Z</time>
      </trkpt>
      <trkpt lat="42.92445" lon="0.59874">
        <ele>1549.7</ele>
        <time>2019-02-03T11:45:50.000Z</time>
      </trkpt>
      <trkpt lat="42.92445" lon="0.59874">
        <ele>1550</ele>
        <time>2019-02-03T11:45:51.000Z</time>
      </trkpt>
      <trkpt lat="42.92445" lon="0.59874">
        <ele>1550</ele>
        <time>2019-02-03T11:45:52.000Z</time>
      </trkpt>
      <trkpt lat="42.92445" lon="0.59874">
        <ele>1550</ele>
        <time>2019-02-03T11:45:53.000Z</time>
      </trkpt>
      <trkpt lat="42.92445" lon="0.59874">
        <ele>1550</ele>
        <time>2019-02-03T11:45:54.000Z</time>
      </trkpt>
      <trkpt lat="42.92445" lon="0.59874">
        <ele>1549.5</ele>
        <time>2019-02-03T11:45:55.000Z</time>
      </trkpt>
      <trkpt lat="42.92445" lon="0.59874">
        <ele>1549</ele>
        <time>2019-02-03T11:45:56.000Z</time>
      </trkpt>
      <trkpt lat="42.92445" lon="0.59874">
        <ele>1549.3</ele>
        <time>2019-02-03T11:45:57.000Z</time>
      </trkpt>
      <trkpt lat="42.92445" lon="0.59874">
        <ele>1549.7</ele>
        <time>2019-02-03T11:45:58.000Z</time>
      </trkpt>
      <trkpt lat="42.92445" lon="0.59874">
        <ele>1550</ele>
        <time>2019-02-03T11:45:59.000Z</time>
      </trkpt>
      <trkpt lat="42.92445" lon="0.59874">
        <ele>1549</ele>
        <time>2019-02-03T11:46:00.000Z</time>
      </trkpt>
      <trkpt lat="42.92445" lon="0.59874">
        <ele>1549</ele>
        <time>2019-02-03T11:46:01.000Z</time>
      </trkpt>
      <trkpt lat="42.92445" lon="0.59874">
        <ele>1549</ele>
        <time>2019-02-03T11:46:02.000Z</time>
      </trkpt>
      <trkpt lat="42.92445" lon="0.59874">
        <ele>1549</ele>
        <time>2019-02-03T11:46:03.000Z</time>
      </trkpt>
      <trkpt lat="42.92445" lon="0.59874">
        <ele>1549</ele>
        <time>2019-02-03T11:46:04.000Z</time>
      </trkpt>
      <trkpt lat="42.92445" lon="0.59874">
        <ele>1549</ele>
        <time>2019-02-03T11:46:05.000Z</time>
      </trkpt>
      <trkpt lat="42.92445" lon="0.59874">
        <ele>1549</ele>
        <time>2019-02-03T11:46:06.000Z</time>
      </trkpt>
      <trkpt lat="42.92445" lon="0.59874">
        <ele>1549</ele>
        <time>2019-02-03T11:46:07.000Z</time>
      </trkpt>
      <trkpt lat="42.92445" lon="0.59874">
        <ele>1550</ele>
        <time>2019-02-03T11:46:08.000Z</time>
      </trkpt>
      <trkpt lat="42.92445" lon="0.59874">
        <ele>1550</ele>
        <time>2019-02-03T11:46:09.000Z</time>
      </trkpt>
      <trkpt lat="42.92446" lon="0.59874">
        <ele>1550</ele>
        <time>2019-02-03T11:46:10.000Z</time>
      </trkpt>
      <trkpt lat="42.92446" lon="0.59874">
        <ele>1550</ele>
        <time>2019-02-03T11:46:11.000Z</time>
      </trkpt>
      <trkpt lat="42.92446" lon="0.59874">
        <ele>1550</ele>
        <time>2019-02-03T11:46:12.000Z</time>
      </trkpt>
      <trkpt lat="42.92446" lon="0.59874">
        <ele>1550</ele>
        <time>2019-02-03T11:46:13.000Z</time>
      </trkpt>
      <trkpt lat="42.92446" lon="0.59874">
        <ele>1549</ele>
        <time>2019-02-03T11:46:14.000Z</time>
      </trkpt>
      <trkpt lat="42.92446" lon="0.59874">
        <ele>1549.5</ele>
        <time>2019-02-03T11:46:15.000Z</time>
      </trkpt>
      <trkpt lat="42.92446" lon="0.59874">
        <ele>1550</ele>
        <time>2019-02-03T11:46:16.000Z</time>
      </trkpt>
      <trkpt lat="42.92446" lon="0.59873">
        <ele>1550</ele>
        <time>2019-02-03T11:46:17.000Z</time>
      </trkpt>
      <trkpt lat="42.92446" lon="0.59873">
        <ele>1550</ele>
        <time>2019-02-03T11:46:18.000Z</time>
      </trkpt>
      <trkpt lat="42.92446" lon="0.59873">
        <ele>1550</ele>
        <time>2019-02-03T11:46:19.000Z</time>
      </trkpt>
      <trkpt lat="42.92446" lon="0.59873">
        <ele>1549</ele>
        <time>2019-02-03T11:46:20.000Z</time>
      </trkpt>
      <trkpt lat="42.92446" lon="0.59873">
        <ele>1549</ele>
        <time>2019-02-03T11:46:21.000Z</time>
      </trkpt>
      <trkpt lat="42.92446" lon="0.59873">
        <ele>1549</ele>
        <time>2019-02-03T11:46:22.000Z</time>
      </trkpt>
      <trkpt lat="42.92446" lon="0.59873">
        <ele>1549</ele>
        <time>2019-02-03T11:46:23.000Z</time>
      </trkpt>
      <trkpt lat="42.92446" lon="0.59873">
        <ele>1549</ele>
        <time>2019-02-03T11:46:24.000Z</time>
      </trkpt>
      <trkpt lat="42.92446" lon="0.59873">
        <ele>1549</ele>
        <time>2019-02-03T11:46:25.000Z</time>
      </trkpt>
      <trkpt lat="42.92446" lon="0.59873">
        <ele>1549</ele>
        <time>2019-02-03T11:46:26.000Z</time>
      </trkpt>
      <trkpt lat="42.92446" lon="0.59873">
        <ele>1549</ele>
        <time>2019-02-03T11:46:27.000Z</time>
      </trkpt>
      <trkpt lat="42.92446" lon="0.59873">
        <ele>1549</ele>
        <time>2019-02-03T11:46:28.000Z</time>
      </trkpt>
      <trkpt lat="42.92446" lon="0.59873">
        <ele>1549</ele>
        <time>2019-02-03T11:46:29.000Z</time>
      </trkpt>
      <trkpt lat="42.92446" lon="0.59873">
        <ele>1549</ele>
        <time>2019-02-03T11:46:30.000Z</time>
      </trkpt>
      <trkpt lat="42.92446" lon="0.59873">
        <ele>1549</ele>
        <time>2019-02-03T11:46:31.000Z</time>
      </trkpt>
      <trkpt lat="42.92446" lon="0.59874">
        <ele>1549</ele>
        <time>2019-02-03T11:46:32.000Z</time>
      </trkpt>
      <trkpt lat="42.92446" lon="0.59874">
        <ele>1549</ele>
        <time>2019-02-03T11:46:33.000Z</time>
      </trkpt>
      <trkpt lat="42.92446" lon="0.59874">
        <ele>1549</ele>
        <time>2019-02-03T11:46:34.000Z</time>
      </trkpt>
      <trkpt lat="42.92446" lon="0.59874">
        <ele>1549</ele>
        <time>2019-02-03T11:46:35.000Z</time>
      </trkpt>
      <trkpt lat="42.92445" lon="0.59875">
        <ele>1549</ele>
        <time>2019-02-03T11:46:36.000Z</time>
      </trkpt>
      <trkpt lat="42.92445" lon="0.59875">
        <ele>1549</ele>
        <time>2019-02-03T11:46:37.000Z</time>
      </trkpt>
      <trkpt lat="42.92445" lon="0.59875">
        <ele>1549</ele>
        <time>2019-02-03T11:46:38.000Z</time>
      </trkpt>
      <trkpt lat="42.92445" lon="0.59875">
        <ele>1549</ele>
        <time>2019-02-03T11:46:39.000Z</time>
      </trkpt>
      <trkpt lat="42.92445" lon="0.59875">
        <ele>1549</ele>
        <time>2019-02-03T11:46:40.000Z</time>
      </trkpt>
      <trkpt lat="42.92445" lon="0.59875">
        <ele>1549</ele>
        <time>2019-02-03T11:46:41.000Z</time>
      </trkpt>
      <trkpt lat="42.92445" lon="0.59875">
        <ele>1549</ele>
        <time>2019-02-03T11:46:42.000Z</time>
      </trkpt>
      <trkpt lat="42.92445" lon="0.59875">
        <ele>1549</ele>
        <time>2019-02-03T11:46:43.000Z</time>
      </trkpt>
      <trkpt lat="42.92445" lon="0.59875">
        <ele>1549</ele>
        <time>2019-02-03T11:46:44.000Z</time>
      </trkpt>
      <trkpt lat="42.92445" lon="0.59875">
        <ele>1549.5</ele>
        <time>2019-02-03T11:46:45.000Z</time>
      </trkpt>
      <trkpt lat="42.92445" lon="0.59875">
        <ele>1550</ele>
        <time>2019-02-03T11:46:46.000Z</time>
      </trkpt>
      <trkpt lat="42.92445" lon="0.59875">
        <ele>1549.7</ele>
        <time>2019-02-03T11:46:47.000Z</time>
      </trkpt>
      <trkpt lat="42.92445" lon="0.59875">
        <ele>1549.3</ele>
        <time>2019-02-03T11:46:48.000Z</time>
      </trkpt>
      <trkpt lat="42.92445" lon="0.59875">
        <ele>1549</ele>
        <time>2019-02-03T11:46:49.000Z</time>
      </trkpt>
      <trkpt lat="42.92445" lon="0.59875">
        <ele>1549</ele>
        <time>2019-02-03T11:46:50.000Z</time>
      </trkpt>
      <trkpt lat="42.92445" lon="0.59875">
        <ele>1549</ele>
        <time>2019-02-03T11:46:51.000Z</time>
      </trkpt>
      <trkpt lat="42.92445" lon="0.59875">
        <ele>1549</ele>
        <time>2019-02-03T11:46:52.000Z</time>
      </trkpt>
      <trkpt lat="42.92445" lon="0.59875">
        <ele>1549</ele>
        <time>2019-02-03T11:46:53.000Z</time>
      </trkpt>
      <trkpt lat="42.92445" lon="0.59875">
        <ele>1548</ele>
        <time>2019-02-03T11:46:54.000Z</time>
      </trkpt>
      <trkpt lat="42.92445" lon="0.59875">
        <ele>1548</ele>
        <time>2019-02-03T11:46:55.000Z</time>
      </trkpt>
      <trkpt lat="42.92445" lon="0.59875">
        <ele>1548</ele>
        <time>2019-02-03T11:46:56.000Z</time>
      </trkpt>
      <trkpt lat="42.92445" lon="0.59875">
        <ele>1548</ele>
        <time>2019-02-03T11:46:57.000Z</time>
      </trkpt>
      <trkpt lat="42.92445" lon="0.59875">
        <ele>1548.5</ele>
        <time>2019-02-03T11:46:58.000Z</time>
      </trkpt>
      <trkpt lat="42.92445" lon="0.59875">
        <ele>1549</ele>
        <time>2019-02-03T11:46:59.000Z</time>
      </trkpt>
      <trkpt lat="42.92445" lon="0.59875">
        <ele>1549</ele>
        <time>2019-02-03T11:47:00.000Z</time>
      </trkpt>
      <trkpt lat="42.92445" lon="0.59875">
        <ele>1549</ele>
        <time>2019-02-03T11:47:01.000Z</time>
      </trkpt>
      <trkpt lat="42.92445" lon="0.59875">
        <ele>1549</ele>
        <time>2019-02-03T11:47:02.000Z</time>
      </trkpt>
      <trkpt lat="42.92445" lon="0.59875">
        <ele>1549</ele>
        <time>2019-02-03T11:47:03.000Z</time>
      </trkpt>
      <trkpt lat="42.92445" lon="0.59875">
        <ele>1550</ele>
        <time>2019-02-03T11:47:04.000Z</time>
      </trkpt>
      <trkpt lat="42.92445" lon="0.59875">
        <ele>1550</ele>
        <time>2019-02-03T11:47:05.000Z</time>
      </trkpt>
      <trkpt lat="42.92445" lon="0.59875">
        <ele>1550</ele>
        <time>2019-02-03T11:47:06.000Z</time>
      </trkpt>
      <trkpt lat="42.92445" lon="0.59875">
        <ele>1550</ele>
        <time>2019-02-03T11:47:07.000Z</time>
      </trkpt>
      <trkpt lat="42.92445" lon="0.59875">
        <ele>1550</ele>
        <time>2019-02-03T11:47:08.000Z</time>
      </trkpt>
      <trkpt lat="42.92445" lon="0.59875">
        <ele>1550</ele>
        <time>2019-02-03T11:47:09.000Z</time>
      </trkpt>
      <trkpt lat="42.92445" lon="0.59875">
        <ele>1549</ele>
        <time>2019-02-03T11:47:10.000Z</time>
      </trkpt>
      <trkpt lat="42.92445" lon="0.59875">
        <ele>1549.5</ele>
        <time>2019-02-03T11:47:11.000Z</time>
      </trkpt>
      <trkpt lat="42.92445" lon="0.59875">
        <ele>1550</ele>
        <time>2019-02-03T11:47:12.000Z</time>
      </trkpt>
      <trkpt lat="42.92445" lon="0.59875">
        <ele>1550</ele>
        <time>2019-02-03T11:47:13.000Z</time>
      </trkpt>
      <trkpt lat="42.92445" lon="0.59875">
        <ele>1550</ele>
        <time>2019-02-03T11:47:14.000Z</time>
      </trkpt>
      <trkpt lat="42.92445" lon="0.59875">
        <ele>1550</ele>
        <time>2019-02-03T11:47:15.000Z</time>
      </trkpt>
      <trkpt lat="42.92445" lon="0.59875">
        <ele>1550</ele>
        <time>2019-02-03T11:47:16.000Z</time>
      </trkpt>
      <trkpt lat="42.92445" lon="0.59875">
        <ele>1549.7</ele>
        <time>2019-02-03T11:47:17.000Z</time>
      </trkpt>
      <trkpt lat="42.92445" lon="0.59875">
        <ele>1549.3</ele>
        <time>2019-02-03T11:47:18.000Z</time>
      </trkpt>
      <trkpt lat="42.92445" lon="0.59875">
        <ele>1549</ele>
        <time>2019-02-03T11:47:19.000Z</time>
      </trkpt>
      <trkpt lat="42.92445" lon="0.59875">
        <ele>1550</ele>
        <time>2019-02-03T11:47:20.000Z</time>
      </trkpt>
      <trkpt lat="42.92445" lon="0.59875">
        <ele>1550</ele>
        <time>2019-02-03T11:47:21.000Z</time>
      </trkpt>
      <trkpt lat="42.92445" lon="0.59875">
        <ele>1550</ele>
        <time>2019-02-03T11:47:22.000Z</time>
      </trkpt>
      <trkpt lat="42.92445" lon="0.59875">
        <ele>1550</ele>
        <time>2019-02-03T11:47:23.000Z</time>
      </trkpt>
      <trkpt lat="42.92445" lon="0.59875">
        <ele>1550</ele>
        <time>2019-02-03T11:47:24.000Z</time>
      </trkpt>
      <trkpt lat="42.92445" lon="0.59875">
        <ele>1550</ele>
        <time>2019-02-03T11:47:25.000Z</time>
      </trkpt>
      <trkpt lat="42.92445" lon="0.59875">
        <ele>1550</ele>
        <time>2019-02-03T11:47:26.000Z</time>
      </trkpt>
      <trkpt lat="42.92445" lon="0.59875">
        <ele>1550</ele>
        <time>2019-02-03T11:47:27.000Z</time>
      </trkpt>
      <trkpt lat="42.92445" lon="0.59875">
        <ele>1550</ele>
        <time>2019-02-03T11:47:28.000Z</time>
      </trkpt>
      <trkpt lat="42.92445" lon="0.59875">
        <ele>1549.7</ele>
        <time>2019-02-03T11:47:29.000Z</time>
      </trkpt>
      <trkpt lat="42.92445" lon="0.59875">
        <ele>1549.3</ele>
        <time>2019-02-03T11:47:30.000Z</time>
      </trkpt>
      <trkpt lat="42.92445" lon="0.59875">
        <ele>1549</ele>
        <time>2019-02-03T11:47:31.000Z</time>
      </trkpt>
      <trkpt lat="42.92445" lon="0.59874">
        <ele>1549</ele>
        <time>2019-02-03T11:47:32.000Z</time>
      </trkpt>
      <trkpt lat="42.92445" lon="0.59874">
        <ele>1549</ele>
        <time>2019-02-03T11:47:33.000Z</time>
      </trkpt>
      <trkpt lat="42.92445" lon="0.59874">
        <ele>1549</ele>
        <time>2019-02-03T11:47:34.000Z</time>
      </trkpt>
      <trkpt lat="42.92445" lon="0.59874">
        <ele>1549</ele>
        <time>2019-02-03T11:47:35.000Z</time>
      </trkpt>
      <trkpt lat="42.92445" lon="0.59874">
        <ele>1549</ele>
        <time>2019-02-03T11:47:36.000Z</time>
      </trkpt>
      <trkpt lat="42.92445" lon="0.59874">
        <ele>1549</ele>
        <time>2019-02-03T11:47:37.000Z</time>
      </trkpt>
      <trkpt lat="42.92445" lon="0.59874">
        <ele>1549</ele>
        <time>2019-02-03T11:47:38.000Z</time>
      </trkpt>
      <trkpt lat="42.92445" lon="0.59874">
        <ele>1549.5</ele>
        <time>2019-02-03T11:47:39.000Z</time>
      </trkpt>
      <trkpt lat="42.92445" lon="0.59874">
        <ele>1550</ele>
        <time>2019-02-03T11:47:40.000Z</time>
      </trkpt>
      <trkpt lat="42.92445" lon="0.59874">
        <ele>1550</ele>
        <time>2019-02-03T11:47:41.000Z</time>
      </trkpt>
      <trkpt lat="42.92445" lon="0.59874">
        <ele>1550</ele>
        <time>2019-02-03T11:47:42.000Z</time>
      </trkpt>
      <trkpt lat="42.92445" lon="0.59874">
        <ele>1550</ele>
        <time>2019-02-03T11:47:43.000Z</time>
      </trkpt>
      <trkpt lat="42.92445" lon="0.59874">
        <ele>1550</ele>
        <time>2019-02-03T11:47:44.000Z</time>
      </trkpt>
      <trkpt lat="42.92445" lon="0.59874">
        <ele>1550</ele>
        <time>2019-02-03T11:47:45.000Z</time>
      </trkpt>
      <trkpt lat="42.92445" lon="0.59874">
        <ele>1550</ele>
        <time>2019-02-03T11:47:46.000Z</time>
      </trkpt>
      <trkpt lat="42.92445" lon="0.59874">
        <ele>1550</ele>
        <time>2019-02-03T11:47:47.000Z</time>
      </trkpt>
      <trkpt lat="42.92445" lon="0.59874">
        <ele>1550</ele>
        <time>2019-02-03T11:47:48.000Z</time>
      </trkpt>
      <trkpt lat="42.92445" lon="0.59875">
        <ele>1550</ele>
        <time>2019-02-03T11:47:49.000Z</time>
      </trkpt>
      <trkpt lat="42.92445" lon="0.59875">
        <ele>1550</ele>
        <time>2019-02-03T11:47:50.000Z</time>
      </trkpt>
      <trkpt lat="42.92445" lon="0.59875">
        <ele>1550</ele>
        <time>2019-02-03T11:47:51.000Z</time>
      </trkpt>
      <trkpt lat="42.92445" lon="0.59876">
        <ele>1550</ele>
        <time>2019-02-03T11:47:52.000Z</time>
      </trkpt>
      <trkpt lat="42.92445" lon="0.59877">
        <ele>1550</ele>
        <time>2019-02-03T11:47:53.000Z</time>
      </trkpt>
      <trkpt lat="42.92445" lon="0.59878">
        <ele>1550</ele>
        <time>2019-02-03T11:47:54.000Z</time>
      </trkpt>
      <trkpt lat="42.92445" lon="0.59878">
        <ele>1550</ele>
        <time>2019-02-03T11:47:55.000Z</time>
      </trkpt>
      <trkpt lat="42.92445" lon="0.59877">
        <ele>1550</ele>
        <time>2019-02-03T11:47:56.000Z</time>
      </trkpt>
      <trkpt lat="42.92445" lon="0.59877">
        <ele>1550</ele>
        <time>2019-02-03T11:47:57.000Z</time>
      </trkpt>
      <trkpt lat="42.92445" lon="0.59876">
        <ele>1550</ele>
        <time>2019-02-03T11:47:58.000Z</time>
      </trkpt>
      <trkpt lat="42.92446" lon="0.59876">
        <ele>1550</ele>
        <time>2019-02-03T11:47:59.000Z</time>
      </trkpt>
      <trkpt lat="42.92446" lon="0.59876">
        <ele>1550</ele>
        <time>2019-02-03T11:48:00.000Z</time>
      </trkpt>
      <trkpt lat="42.92446" lon="0.59875">
        <ele>1550</ele>
        <time>2019-02-03T11:48:01.000Z</time>
      </trkpt>
      <trkpt lat="42.92445" lon="0.59875">
        <ele>1550</ele>
        <time>2019-02-03T11:48:02.000Z</time>
      </trkpt>
      <trkpt lat="42.92445" lon="0.59875">
        <ele>1550</ele>
        <time>2019-02-03T11:48:03.000Z</time>
      </trkpt>
      <trkpt lat="42.92445" lon="0.59875">
        <ele>1550</ele>
        <time>2019-02-03T11:48:04.000Z</time>
      </trkpt>
      <trkpt lat="42.92445" lon="0.59875">
        <ele>1550</ele>
        <time>2019-02-03T11:48:05.000Z</time>
      </trkpt>
      <trkpt lat="42.92445" lon="0.59875">
        <ele>1550</ele>
        <time>2019-02-03T11:48:06.000Z</time>
      </trkpt>
      <trkpt lat="42.92445" lon="0.59875">
        <ele>1550</ele>
        <time>2019-02-03T11:48:07.000Z</time>
      </trkpt>
      <trkpt lat="42.92445" lon="0.59875">
        <ele>1551</ele>
        <time>2019-02-03T11:48:08.000Z</time>
      </trkpt>
      <trkpt lat="42.92445" lon="0.59875">
        <ele>1551</ele>
        <time>2019-02-03T11:48:09.000Z</time>
      </trkpt>
      <trkpt lat="42.92445" lon="0.59874">
        <ele>1551</ele>
        <time>2019-02-03T11:48:10.000Z</time>
      </trkpt>
      <trkpt lat="42.92445" lon="0.59874">
        <ele>1551</ele>
        <time>2019-02-03T11:48:11.000Z</time>
      </trkpt>
      <trkpt lat="42.92445" lon="0.59874">
        <ele>1551</ele>
        <time>2019-02-03T11:48:12.000Z</time>
      </trkpt>
      <trkpt lat="42.92445" lon="0.59874">
        <ele>1551</ele>
        <time>2019-02-03T11:48:13.000Z</time>
      </trkpt>
      <trkpt lat="42.92445" lon="0.59873">
        <ele>1551</ele>
        <time>2019-02-03T11:48:14.000Z</time>
      </trkpt>
      <trkpt lat="42.92445" lon="0.59873">
        <ele>1551</ele>
        <time>2019-02-03T11:48:15.000Z</time>
      </trkpt>
      <trkpt lat="42.92445" lon="0.59873">
        <ele>1551</ele>
        <time>2019-02-03T11:48:16.000Z</time>
      </trkpt>
      <trkpt lat="42.92445" lon="0.59873">
        <ele>1551</ele>
        <time>2019-02-03T11:48:17.000Z</time>
      </trkpt>
      <trkpt lat="42.92445" lon="0.59873">
        <ele>1551</ele>
        <time>2019-02-03T11:48:18.000Z</time>
      </trkpt>
      <trkpt lat="42.92445" lon="0.59872">
        <ele>1551</ele>
        <time>2019-02-03T11:48:19.000Z</time>
      </trkpt>
      <trkpt lat="42.92445" lon="0.59872">
        <ele>1551</ele>
        <time>2019-02-03T11:48:20.000Z</time>
      </trkpt>
      <trkpt lat="42.92445" lon="0.59872">
        <ele>1551</ele>
        <time>2019-02-03T11:48:21.000Z</time>
      </trkpt>
      <trkpt lat="42.92445" lon="0.59872">
        <ele>1551</ele>
        <time>2019-02-03T11:48:22.000Z</time>
      </trkpt>
      <trkpt lat="42.92445" lon="0.59872">
        <ele>1551</ele>
        <time>2019-02-03T11:48:23.000Z</time>
      </trkpt>
      <trkpt lat="42.92445" lon="0.59872">
        <ele>1551</ele>
        <time>2019-02-03T11:48:24.000Z</time>
      </trkpt>
      <trkpt lat="42.92445" lon="0.59872">
        <ele>1551</ele>
        <time>2019-02-03T11:48:25.000Z</time>
      </trkpt>
      <trkpt lat="42.92445" lon="0.59872">
        <ele>1551</ele>
        <time>2019-02-03T11:48:26.000Z</time>
      </trkpt>
      <trkpt lat="42.92445" lon="0.59872">
        <ele>1551</ele>
        <time>2019-02-03T11:48:27.000Z</time>
      </trkpt>
      <trkpt lat="42.92445" lon="0.59872">
        <ele>1551</ele>
        <time>2019-02-03T11:48:28.000Z</time>
      </trkpt>
      <trkpt lat="42.92445" lon="0.59872">
        <ele>1551</ele>
        <time>2019-02-03T11:48:29.000Z</time>
      </trkpt>
      <trkpt lat="42.92445" lon="0.59872">
        <ele>1551</ele>
        <time>2019-02-03T11:48:30.000Z</time>
      </trkpt>
      <trkpt lat="42.92445" lon="0.59872">
        <ele>1551</ele>
        <time>2019-02-03T11:48:31.000Z</time>
      </trkpt>
      <trkpt lat="42.92445" lon="0.59872">
        <ele>1551</ele>
        <time>2019-02-03T11:48:32.000Z</time>
      </trkpt>
      <trkpt lat="42.92445" lon="0.59872">
        <ele>1551</ele>
        <time>2019-02-03T11:48:33.000Z</time>
      </trkpt>
      <trkpt lat="42.92445" lon="0.59871">
        <ele>1551</ele>
        <time>2019-02-03T11:48:34.000Z</time>
      </trkpt>
      <trkpt lat="42.92445" lon="0.59871">
        <ele>1550.5</ele>
        <time>2019-02-03T11:48:35.000Z</time>
      </trkpt>
      <trkpt lat="42.92446" lon="0.59871">
        <ele>1550</ele>
        <time>2019-02-03T11:48:36.000Z</time>
      </trkpt>
      <trkpt lat="42.92446" lon="0.59871">
        <ele>1550</ele>
        <time>2019-02-03T11:48:37.000Z</time>
      </trkpt>
      <trkpt lat="42.92446" lon="0.59871">
        <ele>1550</ele>
        <time>2019-02-03T11:48:38.000Z</time>
      </trkpt>
      <trkpt lat="42.92446" lon="0.59871">
        <ele>1550</ele>
        <time>2019-02-03T11:48:39.000Z</time>
      </trkpt>
      <trkpt lat="42.92446" lon="0.59871">
        <ele>1550</ele>
        <time>2019-02-03T11:48:40.000Z</time>
      </trkpt>
      <trkpt lat="42.92446" lon="0.59871">
        <ele>1550</ele>
        <time>2019-02-03T11:48:41.000Z</time>
      </trkpt>
      <trkpt lat="42.92446" lon="0.59871">
        <ele>1550</ele>
        <time>2019-02-03T11:48:42.000Z</time>
      </trkpt>
      <trkpt lat="42.92446" lon="0.59871">
        <ele>1550</ele>
        <time>2019-02-03T11:48:43.000Z</time>
      </trkpt>
      <trkpt lat="42.92446" lon="0.59871">
        <ele>1550</ele>
        <time>2019-02-03T11:48:44.000Z</time>
      </trkpt>
      <trkpt lat="42.92446" lon="0.59871">
        <ele>1550</ele>
        <time>2019-02-03T11:48:45.000Z</time>
      </trkpt>
      <trkpt lat="42.92446" lon="0.59871">
        <ele>1550</ele>
        <time>2019-02-03T11:48:46.000Z</time>
      </trkpt>
      <trkpt lat="42.92445" lon="0.59872">
        <ele>1550</ele>
        <time>2019-02-03T11:48:47.000Z</time>
      </trkpt>
      <trkpt lat="42.92445" lon="0.59872">
        <ele>1550</ele>
        <time>2019-02-03T11:48:48.000Z</time>
      </trkpt>
      <trkpt lat="42.92445" lon="0.59872">
        <ele>1550</ele>
        <time>2019-02-03T11:48:49.000Z</time>
      </trkpt>
      <trkpt lat="42.92445" lon="0.59872">
        <ele>1550</ele>
        <time>2019-02-03T11:48:50.000Z</time>
      </trkpt>
      <trkpt lat="42.92445" lon="0.59872">
        <ele>1550</ele>
        <time>2019-02-03T11:48:51.000Z</time>
      </trkpt>
      <trkpt lat="42.92445" lon="0.59873">
        <ele>1550</ele>
        <time>2019-02-03T11:48:52.000Z</time>
      </trkpt>
      <trkpt lat="42.92445" lon="0.59873">
        <ele>1550</ele>
        <time>2019-02-03T11:48:53.000Z</time>
      </trkpt>
      <trkpt lat="42.92445" lon="0.59873">
        <ele>1550</ele>
        <time>2019-02-03T11:48:54.000Z</time>
      </trkpt>
      <trkpt lat="42.92445" lon="0.59874">
        <ele>1550</ele>
        <time>2019-02-03T11:48:55.000Z</time>
      </trkpt>
      <trkpt lat="42.92445" lon="0.59874">
        <ele>1550</ele>
        <time>2019-02-03T11:48:56.000Z</time>
      </trkpt>
      <trkpt lat="42.92445" lon="0.59874">
        <ele>1550</ele>
        <time>2019-02-03T11:48:57.000Z</time>
      </trkpt>
      <trkpt lat="42.92445" lon="0.59874">
        <ele>1550</ele>
        <time>2019-02-03T11:48:58.000Z</time>
      </trkpt>
      <trkpt lat="42.92445" lon="0.59875">
        <ele>1550</ele>
        <time>2019-02-03T11:48:59.000Z</time>
      </trkpt>
      <trkpt lat="42.92446" lon="0.59875">
        <ele>1551</ele>
        <time>2019-02-03T11:49:00.000Z</time>
      </trkpt>
      <trkpt lat="42.92446" lon="0.59875">
        <ele>1550.7</ele>
        <time>2019-02-03T11:49:01.000Z</time>
      </trkpt>
      <trkpt lat="42.92446" lon="0.59875">
        <ele>1550.3</ele>
        <time>2019-02-03T11:49:02.000Z</time>
      </trkpt>
      <trkpt lat="42.92446" lon="0.59876">
        <ele>1550</ele>
        <time>2019-02-03T11:49:03.000Z</time>
      </trkpt>
      <trkpt lat="42.92446" lon="0.59876">
        <ele>1550</ele>
        <time>2019-02-03T11:49:04.000Z</time>
      </trkpt>
      <trkpt lat="42.92447" lon="0.59876">
        <ele>1550</ele>
        <time>2019-02-03T11:49:05.000Z</time>
      </trkpt>
      <trkpt lat="42.92447" lon="0.59876">
        <ele>1550</ele>
        <time>2019-02-03T11:49:06.000Z</time>
      </trkpt>
      <trkpt lat="42.92447" lon="0.59876">
        <ele>1550.5</ele>
        <time>2019-02-03T11:49:07.000Z</time>
      </trkpt>
      <trkpt lat="42.92447" lon="0.59876">
        <ele>1551</ele>
        <time>2019-02-03T11:49:08.000Z</time>
      </trkpt>
      <trkpt lat="42.92447" lon="0.59876">
        <ele>1551</ele>
        <time>2019-02-03T11:49:09.000Z</time>
      </trkpt>
      <trkpt lat="42.92447" lon="0.59876">
        <ele>1551</ele>
        <time>2019-02-03T11:49:10.000Z</time>
      </trkpt>
      <trkpt lat="42.92447" lon="0.59876">
        <ele>1551</ele>
        <time>2019-02-03T11:49:11.000Z</time>
      </trkpt>
      <trkpt lat="42.92447" lon="0.59876">
        <ele>1550</ele>
        <time>2019-02-03T11:49:12.000Z</time>
      </trkpt>
      <trkpt lat="42.92447" lon="0.59876">
        <ele>1550</ele>
        <time>2019-02-03T11:49:13.000Z</time>
      </trkpt>
      <trkpt lat="42.92447" lon="0.59876">
        <ele>1550</ele>
        <time>2019-02-03T11:49:14.000Z</time>
      </trkpt>
      <trkpt lat="42.92447" lon="0.59876">
        <ele>1550</ele>
        <time>2019-02-03T11:49:15.000Z</time>
      </trkpt>
      <trkpt lat="42.92447" lon="0.59876">
        <ele>1550</ele>
        <time>2019-02-03T11:49:16.000Z</time>
      </trkpt>
      <trkpt lat="42.92447" lon="0.59876">
        <ele>1550</ele>
        <time>2019-02-03T11:49:17.000Z</time>
      </trkpt>
      <trkpt lat="42.92447" lon="0.59876">
        <ele>1550</ele>
        <time>2019-02-03T11:49:18.000Z</time>
      </trkpt>
      <trkpt lat="42.92447" lon="0.59876">
        <ele>1550</ele>
        <time>2019-02-03T11:49:19.000Z</time>
      </trkpt>
      <trkpt lat="42.92447" lon="0.59876">
        <ele>1549</ele>
        <time>2019-02-03T11:49:20.000Z</time>
      </trkpt>
      <trkpt lat="42.92447" lon="0.59876">
        <ele>1549</ele>
        <time>2019-02-03T11:49:21.000Z</time>
      </trkpt>
      <trkpt lat="42.92447" lon="0.59876">
        <ele>1549</ele>
        <time>2019-02-03T11:49:22.000Z</time>
      </trkpt>
      <trkpt lat="42.92447" lon="0.59876">
        <ele>1549</ele>
        <time>2019-02-03T11:49:23.000Z</time>
      </trkpt>
      <trkpt lat="42.92447" lon="0.59876">
        <ele>1549</ele>
        <time>2019-02-03T11:49:24.000Z</time>
      </trkpt>
      <trkpt lat="42.92447" lon="0.59876">
        <ele>1549</ele>
        <time>2019-02-03T11:49:25.000Z</time>
      </trkpt>
      <trkpt lat="42.92447" lon="0.59876">
        <ele>1549</ele>
        <time>2019-02-03T11:49:26.000Z</time>
      </trkpt>
      <trkpt lat="42.92446" lon="0.59876">
        <ele>1549</ele>
        <time>2019-02-03T11:49:27.000Z</time>
      </trkpt>
      <trkpt lat="42.92446" lon="0.59876">
        <ele>1549</ele>
        <time>2019-02-03T11:49:28.000Z</time>
      </trkpt>
      <trkpt lat="42.92446" lon="0.59876">
        <ele>1549</ele>
        <time>2019-02-03T11:49:29.000Z</time>
      </trkpt>
      <trkpt lat="42.92446" lon="0.59875">
        <ele>1549</ele>
        <time>2019-02-03T11:49:30.000Z</time>
      </trkpt>
      <trkpt lat="42.92446" lon="0.59875">
        <ele>1549</ele>
        <time>2019-02-03T11:49:31.000Z</time>
      </trkpt>
      <trkpt lat="42.92445" lon="0.59875">
        <ele>1549</ele>
        <time>2019-02-03T11:49:32.000Z</time>
      </trkpt>
      <trkpt lat="42.92445" lon="0.59875">
        <ele>1549</ele>
        <time>2019-02-03T11:49:33.000Z</time>
      </trkpt>
      <trkpt lat="42.92445" lon="0.59875">
        <ele>1549</ele>
        <time>2019-02-03T11:49:34.000Z</time>
      </trkpt>
      <trkpt lat="42.92445" lon="0.59875">
        <ele>1549</ele>
        <time>2019-02-03T11:49:35.000Z</time>
      </trkpt>
      <trkpt lat="42.92445" lon="0.59875">
        <ele>1549</ele>
        <time>2019-02-03T11:49:36.000Z</time>
      </trkpt>
      <trkpt lat="42.92445" lon="0.59875">
        <ele>1549</ele>
        <time>2019-02-03T11:49:37.000Z</time>
      </trkpt>
      <trkpt lat="42.92445" lon="0.59875">
        <ele>1550</ele>
        <time>2019-02-03T11:49:38.000Z</time>
      </trkpt>
      <trkpt lat="42.92445" lon="0.59875">
        <ele>1550</ele>
        <time>2019-02-03T11:49:39.000Z</time>
      </trkpt>
      <trkpt lat="42.92445" lon="0.59875">
        <ele>1550</ele>
        <time>2019-02-03T11:49:40.000Z</time>
      </trkpt>
      <trkpt lat="42.92445" lon="0.59875">
        <ele>1550</ele>
        <time>2019-02-03T11:49:41.000Z</time>
      </trkpt>
      <trkpt lat="42.92445" lon="0.59875">
        <ele>1550</ele>
        <time>2019-02-03T11:49:42.000Z</time>
      </trkpt>
      <trkpt lat="42.92444" lon="0.59875">
        <ele>1550</ele>
        <time>2019-02-03T11:49:43.000Z</time>
      </trkpt>
      <trkpt lat="42.92444" lon="0.59876">
        <ele>1550</ele>
        <time>2019-02-03T11:49:44.000Z</time>
      </trkpt>
      <trkpt lat="42.92444" lon="0.59876">
        <ele>1550</ele>
        <time>2019-02-03T11:49:45.000Z</time>
      </trkpt>
      <trkpt lat="42.92444" lon="0.59876">
        <ele>1550</ele>
        <time>2019-02-03T11:49:46.000Z</time>
      </trkpt>
      <trkpt lat="42.92444" lon="0.59876">
        <ele>1550</ele>
        <time>2019-02-03T11:49:47.000Z</time>
      </trkpt>
      <trkpt lat="42.92444" lon="0.59876">
        <ele>1550</ele>
        <time>2019-02-03T11:49:48.000Z</time>
      </trkpt>
      <trkpt lat="42.92444" lon="0.59876">
        <ele>1549.7</ele>
        <time>2019-02-03T11:49:49.000Z</time>
      </trkpt>
      <trkpt lat="42.92444" lon="0.59876">
        <ele>1549.3</ele>
        <time>2019-02-03T11:49:50.000Z</time>
      </trkpt>
      <trkpt lat="42.92444" lon="0.59876">
        <ele>1549</ele>
        <time>2019-02-03T11:49:51.000Z</time>
      </trkpt>
      <trkpt lat="42.92444" lon="0.59875">
        <ele>1549</ele>
        <time>2019-02-03T11:49:52.000Z</time>
      </trkpt>
      <trkpt lat="42.92444" lon="0.59875">
        <ele>1549</ele>
        <time>2019-02-03T11:49:53.000Z</time>
      </trkpt>
      <trkpt lat="42.92444" lon="0.59875">
        <ele>1549</ele>
        <time>2019-02-03T11:49:54.000Z</time>
      </trkpt>
      <trkpt lat="42.92444" lon="0.59875">
        <ele>1549.3</ele>
        <time>2019-02-03T11:49:55.000Z</time>
      </trkpt>
      <trkpt lat="42.92444" lon="0.59876">
        <ele>1549.7</ele>
        <time>2019-02-03T11:49:56.000Z</time>
      </trkpt>
      <trkpt lat="42.92444" lon="0.59876">
        <ele>1550</ele>
        <time>2019-02-03T11:49:57.000Z</time>
      </trkpt>
      <trkpt lat="42.92444" lon="0.59876">
        <ele>1550</ele>
        <time>2019-02-03T11:49:58.000Z</time>
      </trkpt>
      <trkpt lat="42.92444" lon="0.59877">
        <ele>1550</ele>
        <time>2019-02-03T11:49:59.000Z</time>
      </trkpt>
      <trkpt lat="42.92444" lon="0.59877">
        <ele>1550</ele>
        <time>2019-02-03T11:50:00.000Z</time>
      </trkpt>
      <trkpt lat="42.92443" lon="0.59878">
        <ele>1550</ele>
        <time>2019-02-03T11:50:01.000Z</time>
      </trkpt>
      <trkpt lat="42.92443" lon="0.59878">
        <ele>1550</ele>
        <time>2019-02-03T11:50:02.000Z</time>
      </trkpt>
      <trkpt lat="42.92442" lon="0.59879">
        <ele>1550</ele>
        <time>2019-02-03T11:50:03.000Z</time>
      </trkpt>
      <trkpt lat="42.92441" lon="0.59879">
        <ele>1550</ele>
        <time>2019-02-03T11:50:04.000Z</time>
      </trkpt>
      <trkpt lat="42.9244" lon="0.59879">
        <ele>1550</ele>
        <time>2019-02-03T11:50:05.000Z</time>
      </trkpt>
      <trkpt lat="42.92439" lon="0.59879">
        <ele>1550</ele>
        <time>2019-02-03T11:50:06.000Z</time>
      </trkpt>
      <trkpt lat="42.92438" lon="0.59878">
        <ele>1550</ele>
        <time>2019-02-03T11:50:07.000Z</time>
      </trkpt>
      <trkpt lat="42.92438" lon="0.59878">
        <ele>1550</ele>
        <time>2019-02-03T11:50:08.000Z</time>
      </trkpt>
      <trkpt lat="42.92437" lon="0.59877">
        <ele>1550</ele>
        <time>2019-02-03T11:50:09.000Z</time>
      </trkpt>
      <trkpt lat="42.92436" lon="0.59876">
        <ele>1550</ele>
        <time>2019-02-03T11:50:10.000Z</time>
      </trkpt>
      <trkpt lat="42.92435" lon="0.59876">
        <ele>1550</ele>
        <time>2019-02-03T11:50:11.000Z</time>
      </trkpt>
      <trkpt lat="42.92435" lon="0.59875">
        <ele>1551</ele>
        <time>2019-02-03T11:50:12.000Z</time>
      </trkpt>
      <trkpt lat="42.92434" lon="0.59874">
        <ele>1551</ele>
        <time>2019-02-03T11:50:13.000Z</time>
      </trkpt>
      <trkpt lat="42.92434" lon="0.59874">
        <ele>1551</ele>
        <time>2019-02-03T11:50:14.000Z</time>
      </trkpt>
      <trkpt lat="42.92434" lon="0.59873">
        <ele>1551</ele>
        <time>2019-02-03T11:50:15.000Z</time>
      </trkpt>
      <trkpt lat="42.92434" lon="0.59873">
        <ele>1551</ele>
        <time>2019-02-03T11:50:16.000Z</time>
      </trkpt>
      <trkpt lat="42.92433" lon="0.59873">
        <ele>1551</ele>
        <time>2019-02-03T11:50:17.000Z</time>
      </trkpt>
      <trkpt lat="42.92433" lon="0.59873">
        <ele>1551</ele>
        <time>2019-02-03T11:50:18.000Z</time>
      </trkpt>
      <trkpt lat="42.92433" lon="0.59873">
        <ele>1551</ele>
        <time>2019-02-03T11:50:19.000Z</time>
      </trkpt>
      <trkpt lat="42.92433" lon="0.59873">
        <ele>1551</ele>
        <time>2019-02-03T11:50:20.000Z</time>
      </trkpt>
      <trkpt lat="42.92433" lon="0.59873">
        <ele>1551</ele>
        <time>2019-02-03T11:50:21.000Z</time>
      </trkpt>
      <trkpt lat="42.92433" lon="0.59873">
        <ele>1551</ele>
        <time>2019-02-03T11:50:22.000Z</time>
      </trkpt>
      <trkpt lat="42.92433" lon="0.59873">
        <ele>1551</ele>
        <time>2019-02-03T11:50:23.000Z</time>
      </trkpt>
      <trkpt lat="42.92433" lon="0.59872">
        <ele>1551</ele>
        <time>2019-02-03T11:50:24.000Z</time>
      </trkpt>
      <trkpt lat="42.92433" lon="0.59872">
        <ele>1551</ele>
        <time>2019-02-03T11:50:25.000Z</time>
      </trkpt>
      <trkpt lat="42.92433" lon="0.59872">
        <ele>1551</ele>
        <time>2019-02-03T11:50:26.000Z</time>
      </trkpt>
      <trkpt lat="42.92433" lon="0.59872">
        <ele>1551.5</ele>
        <time>2019-02-03T11:50:27.000Z</time>
      </trkpt>
      <trkpt lat="42.92433" lon="0.59871">
        <ele>1552</ele>
        <time>2019-02-03T11:50:28.000Z</time>
      </trkpt>
      <trkpt lat="42.92433" lon="0.59871">
        <ele>1552</ele>
        <time>2019-02-03T11:50:29.000Z</time>
      </trkpt>
      <trkpt lat="42.92432" lon="0.59871">
        <ele>1552</ele>
        <time>2019-02-03T11:50:30.000Z</time>
      </trkpt>
      <trkpt lat="42.92432" lon="0.5987">
        <ele>1552</ele>
        <time>2019-02-03T11:50:31.000Z</time>
      </trkpt>
      <trkpt lat="42.92431" lon="0.5987">
        <ele>1552</ele>
        <time>2019-02-03T11:50:32.000Z</time>
      </trkpt>
      <trkpt lat="42.92431" lon="0.59869">
        <ele>1552</ele>
        <time>2019-02-03T11:50:33.000Z</time>
      </trkpt>
      <trkpt lat="42.9243" lon="0.59869">
        <ele>1552</ele>
        <time>2019-02-03T11:50:34.000Z</time>
      </trkpt>
      <trkpt lat="42.9243" lon="0.59869">
        <ele>1552</ele>
        <time>2019-02-03T11:50:35.000Z</time>
      </trkpt>
      <trkpt lat="42.92429" lon="0.59868">
        <ele>1552.5</ele>
        <time>2019-02-03T11:50:36.000Z</time>
      </trkpt>
      <trkpt lat="42.92428" lon="0.59868">
        <ele>1553</ele>
        <time>2019-02-03T11:50:37.000Z</time>
      </trkpt>
      <trkpt lat="42.92427" lon="0.59868">
        <ele>1553</ele>
        <time>2019-02-03T11:50:38.000Z</time>
      </trkpt>
      <trkpt lat="42.92427" lon="0.59868">
        <ele>1553</ele>
        <time>2019-02-03T11:50:39.000Z</time>
      </trkpt>
      <trkpt lat="42.92426" lon="0.59868">
        <ele>1553</ele>
        <time>2019-02-03T11:50:40.000Z</time>
      </trkpt>
      <trkpt lat="42.92425" lon="0.59868">
        <ele>1553</ele>
        <time>2019-02-03T11:50:41.000Z</time>
      </trkpt>
      <trkpt lat="42.92424" lon="0.59868">
        <ele>1553</ele>
        <time>2019-02-03T11:50:42.000Z</time>
      </trkpt>
      <trkpt lat="42.92424" lon="0.59869">
        <ele>1553</ele>
        <time>2019-02-03T11:50:43.000Z</time>
      </trkpt>
      <trkpt lat="42.92423" lon="0.59869">
        <ele>1553</ele>
        <time>2019-02-03T11:50:44.000Z</time>
      </trkpt>
      <trkpt lat="42.92422" lon="0.59869">
        <ele>1553.3</ele>
        <time>2019-02-03T11:50:45.000Z</time>
      </trkpt>
      <trkpt lat="42.92422" lon="0.59869">
        <ele>1553.7</ele>
        <time>2019-02-03T11:50:46.000Z</time>
      </trkpt>
      <trkpt lat="42.92421" lon="0.59869">
        <ele>1554</ele>
        <time>2019-02-03T11:50:47.000Z</time>
      </trkpt>
      <trkpt lat="42.92421" lon="0.59869">
        <ele>1554</ele>
        <time>2019-02-03T11:50:48.000Z</time>
      </trkpt>
      <trkpt lat="42.9242" lon="0.59869">
        <ele>1554</ele>
        <time>2019-02-03T11:50:49.000Z</time>
      </trkpt>
      <trkpt lat="42.9242" lon="0.59868">
        <ele>1554</ele>
        <time>2019-02-03T11:50:50.000Z</time>
      </trkpt>
      <trkpt lat="42.9242" lon="0.59868">
        <ele>1554</ele>
        <time>2019-02-03T11:50:51.000Z</time>
      </trkpt>
      <trkpt lat="42.92419" lon="0.59868">
        <ele>1554</ele>
        <time>2019-02-03T11:50:52.000Z</time>
      </trkpt>
      <trkpt lat="42.92419" lon="0.59867">
        <ele>1554.5</ele>
        <time>2019-02-03T11:50:53.000Z</time>
      </trkpt>
      <trkpt lat="42.92419" lon="0.59867">
        <ele>1555</ele>
        <time>2019-02-03T11:50:54.000Z</time>
      </trkpt>
      <trkpt lat="42.92418" lon="0.59867">
        <ele>1555</ele>
        <time>2019-02-03T11:50:55.000Z</time>
      </trkpt>
      <trkpt lat="42.92418" lon="0.59866">
        <ele>1555</ele>
        <time>2019-02-03T11:50:56.000Z</time>
      </trkpt>
      <trkpt lat="42.92417" lon="0.59866">
        <ele>1555</ele>
        <time>2019-02-03T11:50:57.000Z</time>
      </trkpt>
      <trkpt lat="42.92417" lon="0.59865">
        <ele>1555</ele>
        <time>2019-02-03T11:50:58.000Z</time>
      </trkpt>
      <trkpt lat="42.92416" lon="0.59865">
        <ele>1555</ele>
        <time>2019-02-03T11:50:59.000Z</time>
      </trkpt>
      <trkpt lat="42.92416" lon="0.59864">
        <ele>1555</ele>
        <time>2019-02-03T11:51:00.000Z</time>
      </trkpt>
      <trkpt lat="42.92415" lon="0.59864">
        <ele>1555</ele>
        <time>2019-02-03T11:51:01.000Z</time>
      </trkpt>
      <trkpt lat="42.92415" lon="0.59864">
        <ele>1555</ele>
        <time>2019-02-03T11:51:02.000Z</time>
      </trkpt>
      <trkpt lat="42.92414" lon="0.59863">
        <ele>1555</ele>
        <time>2019-02-03T11:51:03.000Z</time>
      </trkpt>
      <trkpt lat="42.92414" lon="0.59863">
        <ele>1555</ele>
        <time>2019-02-03T11:51:04.000Z</time>
      </trkpt>
      <trkpt lat="42.92413" lon="0.59862">
        <ele>1555</ele>
        <time>2019-02-03T11:51:05.000Z</time>
      </trkpt>
      <trkpt lat="42.92412" lon="0.59862">
        <ele>1555</ele>
        <time>2019-02-03T11:51:06.000Z</time>
      </trkpt>
      <trkpt lat="42.92412" lon="0.59862">
        <ele>1555.5</ele>
        <time>2019-02-03T11:51:07.000Z</time>
      </trkpt>
      <trkpt lat="42.92411" lon="0.59861">
        <ele>1556</ele>
        <time>2019-02-03T11:51:08.000Z</time>
      </trkpt>
      <trkpt lat="42.92411" lon="0.59861">
        <ele>1556.5</ele>
        <time>2019-02-03T11:51:09.000Z</time>
      </trkpt>
      <trkpt lat="42.9241" lon="0.59861">
        <ele>1557</ele>
        <time>2019-02-03T11:51:10.000Z</time>
      </trkpt>
      <trkpt lat="42.9241" lon="0.59861">
        <ele>1557</ele>
        <time>2019-02-03T11:51:11.000Z</time>
      </trkpt>
      <trkpt lat="42.92409" lon="0.5986">
        <ele>1557</ele>
        <time>2019-02-03T11:51:12.000Z</time>
      </trkpt>
      <trkpt lat="42.92409" lon="0.5986">
        <ele>1557</ele>
        <time>2019-02-03T11:51:13.000Z</time>
      </trkpt>
      <trkpt lat="42.92409" lon="0.5986">
        <ele>1557</ele>
        <time>2019-02-03T11:51:14.000Z</time>
      </trkpt>
      <trkpt lat="42.92408" lon="0.5986">
        <ele>1557.3</ele>
        <time>2019-02-03T11:51:15.000Z</time>
      </trkpt>
      <trkpt lat="42.92408" lon="0.5986">
        <ele>1557.7</ele>
        <time>2019-02-03T11:51:16.000Z</time>
      </trkpt>
      <trkpt lat="42.92408" lon="0.5986">
        <ele>1558</ele>
        <time>2019-02-03T11:51:17.000Z</time>
      </trkpt>
      <trkpt lat="42.92407" lon="0.5986">
        <ele>1558</ele>
        <time>2019-02-03T11:51:18.000Z</time>
      </trkpt>
      <trkpt lat="42.92407" lon="0.5986">
        <ele>1558</ele>
        <time>2019-02-03T11:51:19.000Z</time>
      </trkpt>
      <trkpt lat="42.92406" lon="0.5986">
        <ele>1558</ele>
        <time>2019-02-03T11:51:20.000Z</time>
      </trkpt>
      <trkpt lat="42.92405" lon="0.59861">
        <ele>1558</ele>
        <time>2019-02-03T11:51:21.000Z</time>
      </trkpt>
      <trkpt lat="42.92405" lon="0.59861">
        <ele>1558</ele>
        <time>2019-02-03T11:51:22.000Z</time>
      </trkpt>
      <trkpt lat="42.92404" lon="0.59861">
        <ele>1558</ele>
        <time>2019-02-03T11:51:23.000Z</time>
      </trkpt>
      <trkpt lat="42.92404" lon="0.59861">
        <ele>1558</ele>
        <time>2019-02-03T11:51:24.000Z</time>
      </trkpt>
      <trkpt lat="42.92403" lon="0.59861">
        <ele>1558</ele>
        <time>2019-02-03T11:51:25.000Z</time>
      </trkpt>
      <trkpt lat="42.92402" lon="0.59861">
        <ele>1558</ele>
        <time>2019-02-03T11:51:26.000Z</time>
      </trkpt>
      <trkpt lat="42.92401" lon="0.59861">
        <ele>1558.5</ele>
        <time>2019-02-03T11:51:27.000Z</time>
      </trkpt>
      <trkpt lat="42.92401" lon="0.59861">
        <ele>1559</ele>
        <time>2019-02-03T11:51:28.000Z</time>
      </trkpt>
      <trkpt lat="42.924" lon="0.59861">
        <ele>1559</ele>
        <time>2019-02-03T11:51:29.000Z</time>
      </trkpt>
      <trkpt lat="42.92399" lon="0.5986">
        <ele>1559</ele>
        <time>2019-02-03T11:51:30.000Z</time>
      </trkpt>
      <trkpt lat="42.92399" lon="0.5986">
        <ele>1559</ele>
        <time>2019-02-03T11:51:31.000Z</time>
      </trkpt>
      <trkpt lat="42.92398" lon="0.59859">
        <ele>1560</ele>
        <time>2019-02-03T11:51:32.000Z</time>
      </trkpt>
      <trkpt lat="42.92398" lon="0.59859">
        <ele>1560</ele>
        <time>2019-02-03T11:51:33.000Z</time>
      </trkpt>
      <trkpt lat="42.92398" lon="0.59859">
        <ele>1560</ele>
        <time>2019-02-03T11:51:34.000Z</time>
      </trkpt>
      <trkpt lat="42.92398" lon="0.59859">
        <ele>1560</ele>
        <time>2019-02-03T11:51:35.000Z</time>
      </trkpt>
      <trkpt lat="42.92398" lon="0.59859">
        <ele>1560</ele>
        <time>2019-02-03T11:51:36.000Z</time>
      </trkpt>
      <trkpt lat="42.92398" lon="0.59859">
        <ele>1560</ele>
        <time>2019-02-03T11:51:37.000Z</time>
      </trkpt>
      <trkpt lat="42.92398" lon="0.59859">
        <ele>1560</ele>
        <time>2019-02-03T11:51:38.000Z</time>
      </trkpt>
      <trkpt lat="42.92398" lon="0.59859">
        <ele>1560</ele>
        <time>2019-02-03T11:51:39.000Z</time>
      </trkpt>
      <trkpt lat="42.92397" lon="0.59859">
        <ele>1560</ele>
        <time>2019-02-03T11:51:40.000Z</time>
      </trkpt>
      <trkpt lat="42.92397" lon="0.59859">
        <ele>1560</ele>
        <time>2019-02-03T11:51:41.000Z</time>
      </trkpt>
      <trkpt lat="42.92397" lon="0.59858">
        <ele>1560</ele>
        <time>2019-02-03T11:51:42.000Z</time>
      </trkpt>
      <trkpt lat="42.92396" lon="0.59858">
        <ele>1560</ele>
        <time>2019-02-03T11:51:43.000Z</time>
      </trkpt>
      <trkpt lat="42.92396" lon="0.59858">
        <ele>1560</ele>
        <time>2019-02-03T11:51:44.000Z</time>
      </trkpt>
      <trkpt lat="42.92396" lon="0.59858">
        <ele>1560</ele>
        <time>2019-02-03T11:51:45.000Z</time>
      </trkpt>
      <trkpt lat="42.92396" lon="0.59858">
        <ele>1560</ele>
        <time>2019-02-03T11:51:46.000Z</time>
      </trkpt>
      <trkpt lat="42.92396" lon="0.59858">
        <ele>1560.5</ele>
        <time>2019-02-03T11:51:47.000Z</time>
      </trkpt>
      <trkpt lat="42.92396" lon="0.59858">
        <ele>1561</ele>
        <time>2019-02-03T11:51:48.000Z</time>
      </trkpt>
      <trkpt lat="42.92396" lon="0.59858">
        <ele>1561</ele>
        <time>2019-02-03T11:51:49.000Z</time>
      </trkpt>
      <trkpt lat="42.92396" lon="0.59858">
        <ele>1561</ele>
        <time>2019-02-03T11:51:50.000Z</time>
      </trkpt>
      <trkpt lat="42.92396" lon="0.59858">
        <ele>1561.3</ele>
        <time>2019-02-03T11:51:51.000Z</time>
      </trkpt>
      <trkpt lat="42.92396" lon="0.59857">
        <ele>1561.7</ele>
        <time>2019-02-03T11:51:52.000Z</time>
      </trkpt>
      <trkpt lat="42.92395" lon="0.59857">
        <ele>1562</ele>
        <time>2019-02-03T11:51:53.000Z</time>
      </trkpt>
      <trkpt lat="42.92395" lon="0.59857">
        <ele>1563</ele>
        <time>2019-02-03T11:51:54.000Z</time>
      </trkpt>
      <trkpt lat="42.92395" lon="0.59857">
        <ele>1563</ele>
        <time>2019-02-03T11:51:55.000Z</time>
      </trkpt>
      <trkpt lat="42.92395" lon="0.59857">
        <ele>1563</ele>
        <time>2019-02-03T11:51:56.000Z</time>
      </trkpt>
      <trkpt lat="42.92394" lon="0.59857">
        <ele>1563.5</ele>
        <time>2019-02-03T11:51:57.000Z</time>
      </trkpt>
      <trkpt lat="42.92394" lon="0.59856">
        <ele>1564</ele>
        <time>2019-02-03T11:51:58.000Z</time>
      </trkpt>
      <trkpt lat="42.92394" lon="0.59856">
        <ele>1564</ele>
        <time>2019-02-03T11:51:59.000Z</time>
      </trkpt>
      <trkpt lat="42.92393" lon="0.59856">
        <ele>1564</ele>
        <time>2019-02-03T11:52:00.000Z</time>
      </trkpt>
      <trkpt lat="42.92393" lon="0.59856">
        <ele>1564</ele>
        <time>2019-02-03T11:52:01.000Z</time>
      </trkpt>
      <trkpt lat="42.92393" lon="0.59855">
        <ele>1564</ele>
        <time>2019-02-03T11:52:02.000Z</time>
      </trkpt>
      <trkpt lat="42.92392" lon="0.59855">
        <ele>1564</ele>
        <time>2019-02-03T11:52:03.000Z</time>
      </trkpt>
      <trkpt lat="42.92392" lon="0.59855">
        <ele>1564</ele>
        <time>2019-02-03T11:52:04.000Z</time>
      </trkpt>
      <trkpt lat="42.92391" lon="0.59855">
        <ele>1564</ele>
        <time>2019-02-03T11:52:05.000Z</time>
      </trkpt>
      <trkpt lat="42.92391" lon="0.59854">
        <ele>1564</ele>
        <time>2019-02-03T11:52:06.000Z</time>
      </trkpt>
      <trkpt lat="42.92391" lon="0.59854">
        <ele>1564</ele>
        <time>2019-02-03T11:52:07.000Z</time>
      </trkpt>
      <trkpt lat="42.9239" lon="0.59854">
        <ele>1564</ele>
        <time>2019-02-03T11:52:08.000Z</time>
      </trkpt>
      <trkpt lat="42.9239" lon="0.59854">
        <ele>1564</ele>
        <time>2019-02-03T11:52:09.000Z</time>
      </trkpt>
      <trkpt lat="42.92389" lon="0.59853">
        <ele>1565</ele>
        <time>2019-02-03T11:52:10.000Z</time>
      </trkpt>
      <trkpt lat="42.92389" lon="0.59853">
        <ele>1565</ele>
        <time>2019-02-03T11:52:11.000Z</time>
      </trkpt>
      <trkpt lat="42.92389" lon="0.59853">
        <ele>1565</ele>
        <time>2019-02-03T11:52:12.000Z</time>
      </trkpt>
      <trkpt lat="42.92388" lon="0.59853">
        <ele>1565</ele>
        <time>2019-02-03T11:52:13.000Z</time>
      </trkpt>
      <trkpt lat="42.92388" lon="0.59852">
        <ele>1565</ele>
        <time>2019-02-03T11:52:14.000Z</time>
      </trkpt>
      <trkpt lat="42.92388" lon="0.59852">
        <ele>1565</ele>
        <time>2019-02-03T11:52:15.000Z</time>
      </trkpt>
      <trkpt lat="42.92388" lon="0.59852">
        <ele>1565</ele>
        <time>2019-02-03T11:52:16.000Z</time>
      </trkpt>
      <trkpt lat="42.92387" lon="0.59852">
        <ele>1565</ele>
        <time>2019-02-03T11:52:17.000Z</time>
      </trkpt>
      <trkpt lat="42.92387" lon="0.59852">
        <ele>1565</ele>
        <time>2019-02-03T11:52:18.000Z</time>
      </trkpt>
      <trkpt lat="42.92387" lon="0.59852">
        <ele>1565</ele>
        <time>2019-02-03T11:52:19.000Z</time>
      </trkpt>
      <trkpt lat="42.92387" lon="0.59852">
        <ele>1565</ele>
        <time>2019-02-03T11:52:20.000Z</time>
      </trkpt>
      <trkpt lat="42.92387" lon="0.59852">
        <ele>1565</ele>
        <time>2019-02-03T11:52:21.000Z</time>
      </trkpt>
      <trkpt lat="42.92387" lon="0.59852">
        <ele>1565</ele>
        <time>2019-02-03T11:52:22.000Z</time>
      </trkpt>
      <trkpt lat="42.92387" lon="0.59852">
        <ele>1565</ele>
        <time>2019-02-03T11:52:23.000Z</time>
      </trkpt>
      <trkpt lat="42.92386" lon="0.59852">
        <ele>1566</ele>
        <time>2019-02-03T11:52:24.000Z</time>
      </trkpt>
      <trkpt lat="42.92385" lon="0.59852">
        <ele>1566</ele>
        <time>2019-02-03T11:52:25.000Z</time>
      </trkpt>
      <trkpt lat="42.92384" lon="0.59851">
        <ele>1566</ele>
        <time>2019-02-03T11:52:26.000Z</time>
      </trkpt>
      <trkpt lat="42.92384" lon="0.59851">
        <ele>1566</ele>
        <time>2019-02-03T11:52:27.000Z</time>
      </trkpt>
      <trkpt lat="42.92384" lon="0.59851">
        <ele>1566</ele>
        <time>2019-02-03T11:52:28.000Z</time>
      </trkpt>
      <trkpt lat="42.92384" lon="0.59851">
        <ele>1566</ele>
        <time>2019-02-03T11:52:29.000Z</time>
      </trkpt>
      <trkpt lat="42.92383" lon="0.59851">
        <ele>1566</ele>
        <time>2019-02-03T11:52:30.000Z</time>
      </trkpt>
      <trkpt lat="42.92383" lon="0.59851">
        <ele>1566</ele>
        <time>2019-02-03T11:52:31.000Z</time>
      </trkpt>
      <trkpt lat="42.92383" lon="0.59851">
        <ele>1566</ele>
        <time>2019-02-03T11:52:32.000Z</time>
      </trkpt>
      <trkpt lat="42.92383" lon="0.59851">
        <ele>1566.3</ele>
        <time>2019-02-03T11:52:33.000Z</time>
      </trkpt>
      <trkpt lat="42.92383" lon="0.59851">
        <ele>1566.7</ele>
        <time>2019-02-03T11:52:34.000Z</time>
      </trkpt>
      <trkpt lat="42.92383" lon="0.59851">
        <ele>1567</ele>
        <time>2019-02-03T11:52:35.000Z</time>
      </trkpt>
      <trkpt lat="42.92382" lon="0.59851">
        <ele>1567</ele>
        <time>2019-02-03T11:52:36.000Z</time>
      </trkpt>
      <trkpt lat="42.92382" lon="0.59851">
        <ele>1567</ele>
        <time>2019-02-03T11:52:37.000Z</time>
      </trkpt>
      <trkpt lat="42.92381" lon="0.59851">
        <ele>1567</ele>
        <time>2019-02-03T11:52:38.000Z</time>
      </trkpt>
      <trkpt lat="42.92381" lon="0.59851">
        <ele>1567</ele>
        <time>2019-02-03T11:52:39.000Z</time>
      </trkpt>
      <trkpt lat="42.9238" lon="0.5985">
        <ele>1567</ele>
        <time>2019-02-03T11:52:40.000Z</time>
      </trkpt>
      <trkpt lat="42.92379" lon="0.5985">
        <ele>1567</ele>
        <time>2019-02-03T11:52:41.000Z</time>
      </trkpt>
      <trkpt lat="42.92379" lon="0.5985">
        <ele>1567</ele>
        <time>2019-02-03T11:52:42.000Z</time>
      </trkpt>
      <trkpt lat="42.92378" lon="0.5985">
        <ele>1567</ele>
        <time>2019-02-03T11:52:43.000Z</time>
      </trkpt>
      <trkpt lat="42.92377" lon="0.59849">
        <ele>1567</ele>
        <time>2019-02-03T11:52:44.000Z</time>
      </trkpt>
      <trkpt lat="42.92377" lon="0.59849">
        <ele>1567</ele>
        <time>2019-02-03T11:52:45.000Z</time>
      </trkpt>
      <trkpt lat="42.92376" lon="0.59849">
        <ele>1567</ele>
        <time>2019-02-03T11:52:46.000Z</time>
      </trkpt>
      <trkpt lat="42.92376" lon="0.59849">
        <ele>1567.5</ele>
        <time>2019-02-03T11:52:47.000Z</time>
      </trkpt>
      <trkpt lat="42.92375" lon="0.59848">
        <ele>1568</ele>
        <time>2019-02-03T11:52:48.000Z</time>
      </trkpt>
      <trkpt lat="42.92375" lon="0.59848">
        <ele>1568</ele>
        <time>2019-02-03T11:52:49.000Z</time>
      </trkpt>
      <trkpt lat="42.92374" lon="0.59848">
        <ele>1568</ele>
        <time>2019-02-03T11:52:50.000Z</time>
      </trkpt>
      <trkpt lat="42.92374" lon="0.59848">
        <ele>1568</ele>
        <time>2019-02-03T11:52:51.000Z</time>
      </trkpt>
      <trkpt lat="42.92373" lon="0.59848">
        <ele>1568</ele>
        <time>2019-02-03T11:52:52.000Z</time>
      </trkpt>
      <trkpt lat="42.92373" lon="0.59848">
        <ele>1568</ele>
        <time>2019-02-03T11:52:53.000Z</time>
      </trkpt>
      <trkpt lat="42.92373" lon="0.59848">
        <ele>1568</ele>
        <time>2019-02-03T11:52:54.000Z</time>
      </trkpt>
      <trkpt lat="42.92373" lon="0.59848">
        <ele>1568.5</ele>
        <time>2019-02-03T11:52:55.000Z</time>
      </trkpt>
      <trkpt lat="42.92372" lon="0.59848">
        <ele>1569</ele>
        <time>2019-02-03T11:52:56.000Z</time>
      </trkpt>
      <trkpt lat="42.92372" lon="0.59848">
        <ele>1569</ele>
        <time>2019-02-03T11:52:57.000Z</time>
      </trkpt>
      <trkpt lat="42.92371" lon="0.59848">
        <ele>1569</ele>
        <time>2019-02-03T11:52:58.000Z</time>
      </trkpt>
      <trkpt lat="42.92371" lon="0.59847">
        <ele>1569</ele>
        <time>2019-02-03T11:52:59.000Z</time>
      </trkpt>
      <trkpt lat="42.9237" lon="0.59847">
        <ele>1569</ele>
        <time>2019-02-03T11:53:00.000Z</time>
      </trkpt>
      <trkpt lat="42.92369" lon="0.59847">
        <ele>1569</ele>
        <time>2019-02-03T11:53:01.000Z</time>
      </trkpt>
      <trkpt lat="42.92369" lon="0.59847">
        <ele>1569</ele>
        <time>2019-02-03T11:53:02.000Z</time>
      </trkpt>
      <trkpt lat="42.92368" lon="0.59847">
        <ele>1569.5</ele>
        <time>2019-02-03T11:53:03.000Z</time>
      </trkpt>
      <trkpt lat="42.92368" lon="0.59847">
        <ele>1570</ele>
        <time>2019-02-03T11:53:04.000Z</time>
      </trkpt>
      <trkpt lat="42.92368" lon="0.59847">
        <ele>1570</ele>
        <time>2019-02-03T11:53:05.000Z</time>
      </trkpt>
      <trkpt lat="42.92367" lon="0.59847">
        <ele>1570</ele>
        <time>2019-02-03T11:53:06.000Z</time>
      </trkpt>
      <trkpt lat="42.92367" lon="0.59847">
        <ele>1570</ele>
        <time>2019-02-03T11:53:07.000Z</time>
      </trkpt>
      <trkpt lat="42.92367" lon="0.59847">
        <ele>1570</ele>
        <time>2019-02-03T11:53:08.000Z</time>
      </trkpt>
      <trkpt lat="42.92367" lon="0.59847">
        <ele>1570</ele>
        <time>2019-02-03T11:53:09.000Z</time>
      </trkpt>
      <trkpt lat="42.92367" lon="0.59847">
        <ele>1570</ele>
        <time>2019-02-03T11:53:10.000Z</time>
      </trkpt>
      <trkpt lat="42.92367" lon="0.59847">
        <ele>1570</ele>
        <time>2019-02-03T11:53:11.000Z</time>
      </trkpt>
      <trkpt lat="42.92367" lon="0.59847">
        <ele>1570.5</ele>
        <time>2019-02-03T11:53:12.000Z</time>
      </trkpt>
      <trkpt lat="42.92367" lon="0.59847">
        <ele>1571</ele>
        <time>2019-02-03T11:53:13.000Z</time>
      </trkpt>
      <trkpt lat="42.92367" lon="0.59847">
        <ele>1571</ele>
        <time>2019-02-03T11:53:14.000Z</time>
      </trkpt>
      <trkpt lat="42.92367" lon="0.59847">
        <ele>1571</ele>
        <time>2019-02-03T11:53:15.000Z</time>
      </trkpt>
      <trkpt lat="42.92366" lon="0.59847">
        <ele>1571</ele>
        <time>2019-02-03T11:53:16.000Z</time>
      </trkpt>
      <trkpt lat="42.92366" lon="0.59847">
        <ele>1570.7</ele>
        <time>2019-02-03T11:53:17.000Z</time>
      </trkpt>
      <trkpt lat="42.92365" lon="0.59847">
        <ele>1570.3</ele>
        <time>2019-02-03T11:53:18.000Z</time>
      </trkpt>
      <trkpt lat="42.92365" lon="0.59846">
        <ele>1570</ele>
        <time>2019-02-03T11:53:19.000Z</time>
      </trkpt>
      <trkpt lat="42.92364" lon="0.59846">
        <ele>1571</ele>
        <time>2019-02-03T11:53:20.000Z</time>
      </trkpt>
      <trkpt lat="42.92364" lon="0.59846">
        <ele>1571</ele>
        <time>2019-02-03T11:53:21.000Z</time>
      </trkpt>
      <trkpt lat="42.92363" lon="0.59846">
        <ele>1571</ele>
        <time>2019-02-03T11:53:22.000Z</time>
      </trkpt>
      <trkpt lat="42.92363" lon="0.59845">
        <ele>1571</ele>
        <time>2019-02-03T11:53:23.000Z</time>
      </trkpt>
      <trkpt lat="42.92363" lon="0.59845">
        <ele>1571</ele>
        <time>2019-02-03T11:53:24.000Z</time>
      </trkpt>
      <trkpt lat="42.92362" lon="0.59844">
        <ele>1571</ele>
        <time>2019-02-03T11:53:25.000Z</time>
      </trkpt>
      <trkpt lat="42.92362" lon="0.59844">
        <ele>1571</ele>
        <time>2019-02-03T11:53:26.000Z</time>
      </trkpt>
      <trkpt lat="42.92361" lon="0.59843">
        <ele>1571</ele>
        <time>2019-02-03T11:53:27.000Z</time>
      </trkpt>
      <trkpt lat="42.9236" lon="0.59843">
        <ele>1571</ele>
        <time>2019-02-03T11:53:28.000Z</time>
      </trkpt>
      <trkpt lat="42.9236" lon="0.59843">
        <ele>1571.3</ele>
        <time>2019-02-03T11:53:29.000Z</time>
      </trkpt>
      <trkpt lat="42.92359" lon="0.59843">
        <ele>1571.7</ele>
        <time>2019-02-03T11:53:30.000Z</time>
      </trkpt>
      <trkpt lat="42.92358" lon="0.59842">
        <ele>1572</ele>
        <time>2019-02-03T11:53:31.000Z</time>
      </trkpt>
      <trkpt lat="42.92357" lon="0.59842">
        <ele>1572</ele>
        <time>2019-02-03T11:53:32.000Z</time>
      </trkpt>
      <trkpt lat="42.92357" lon="0.59842">
        <ele>1572</ele>
        <time>2019-02-03T11:53:33.000Z</time>
      </trkpt>
      <trkpt lat="42.92356" lon="0.59842">
        <ele>1572</ele>
        <time>2019-02-03T11:53:34.000Z</time>
      </trkpt>
      <trkpt lat="42.92356" lon="0.59842">
        <ele>1572</ele>
        <time>2019-02-03T11:53:35.000Z</time>
      </trkpt>
      <trkpt lat="42.92355" lon="0.59842">
        <ele>1572</ele>
        <time>2019-02-03T11:53:36.000Z</time>
      </trkpt>
      <trkpt lat="42.92354" lon="0.59842">
        <ele>1572</ele>
        <time>2019-02-03T11:53:37.000Z</time>
      </trkpt>
      <trkpt lat="42.92354" lon="0.59842">
        <ele>1572</ele>
        <time>2019-02-03T11:53:38.000Z</time>
      </trkpt>
      <trkpt lat="42.92353" lon="0.59841">
        <ele>1572</ele>
        <time>2019-02-03T11:53:39.000Z</time>
      </trkpt>
      <trkpt lat="42.92353" lon="0.59841">
        <ele>1573</ele>
        <time>2019-02-03T11:53:40.000Z</time>
      </trkpt>
      <trkpt lat="42.92352" lon="0.59841">
        <ele>1573</ele>
        <time>2019-02-03T11:53:41.000Z</time>
      </trkpt>
      <trkpt lat="42.92352" lon="0.59841">
        <ele>1573</ele>
        <time>2019-02-03T11:53:42.000Z</time>
      </trkpt>
      <trkpt lat="42.92351" lon="0.59841">
        <ele>1573</ele>
        <time>2019-02-03T11:53:43.000Z</time>
      </trkpt>
      <trkpt lat="42.92351" lon="0.59841">
        <ele>1573</ele>
        <time>2019-02-03T11:53:44.000Z</time>
      </trkpt>
      <trkpt lat="42.9235" lon="0.59841">
        <ele>1573</ele>
        <time>2019-02-03T11:53:45.000Z</time>
      </trkpt>
      <trkpt lat="42.92349" lon="0.59841">
        <ele>1573</ele>
        <time>2019-02-03T11:53:46.000Z</time>
      </trkpt>
      <trkpt lat="42.92349" lon="0.59841">
        <ele>1573</ele>
        <time>2019-02-03T11:53:47.000Z</time>
      </trkpt>
      <trkpt lat="42.92348" lon="0.5984">
        <ele>1573</ele>
        <time>2019-02-03T11:53:48.000Z</time>
      </trkpt>
      <trkpt lat="42.92348" lon="0.5984">
        <ele>1573</ele>
        <time>2019-02-03T11:53:49.000Z</time>
      </trkpt>
      <trkpt lat="42.92347" lon="0.5984">
        <ele>1573</ele>
        <time>2019-02-03T11:53:50.000Z</time>
      </trkpt>
      <trkpt lat="42.92347" lon="0.5984">
        <ele>1573</ele>
        <time>2019-02-03T11:53:51.000Z</time>
      </trkpt>
      <trkpt lat="42.92346" lon="0.5984">
        <ele>1573</ele>
        <time>2019-02-03T11:53:52.000Z</time>
      </trkpt>
      <trkpt lat="42.92346" lon="0.5984">
        <ele>1573</ele>
        <time>2019-02-03T11:53:53.000Z</time>
      </trkpt>
      <trkpt lat="42.92345" lon="0.5984">
        <ele>1573</ele>
        <time>2019-02-03T11:53:54.000Z</time>
      </trkpt>
      <trkpt lat="42.92345" lon="0.59839">
        <ele>1573</ele>
        <time>2019-02-03T11:53:55.000Z</time>
      </trkpt>
      <trkpt lat="42.92345" lon="0.59839">
        <ele>1573</ele>
        <time>2019-02-03T11:53:56.000Z</time>
      </trkpt>
      <trkpt lat="42.92344" lon="0.59839">
        <ele>1573</ele>
        <time>2019-02-03T11:53:57.000Z</time>
      </trkpt>
      <trkpt lat="42.92344" lon="0.59839">
        <ele>1573</ele>
        <time>2019-02-03T11:53:58.000Z</time>
      </trkpt>
      <trkpt lat="42.92343" lon="0.59839">
        <ele>1573</ele>
        <time>2019-02-03T11:53:59.000Z</time>
      </trkpt>
      <trkpt lat="42.92343" lon="0.59838">
        <ele>1574</ele>
        <time>2019-02-03T11:54:00.000Z</time>
      </trkpt>
      <trkpt lat="42.92342" lon="0.59838">
        <ele>1574</ele>
        <time>2019-02-03T11:54:01.000Z</time>
      </trkpt>
      <trkpt lat="42.92342" lon="0.59838">
        <ele>1574</ele>
        <time>2019-02-03T11:54:02.000Z</time>
      </trkpt>
      <trkpt lat="42.92341" lon="0.59838">
        <ele>1574</ele>
        <time>2019-02-03T11:54:03.000Z</time>
      </trkpt>
      <trkpt lat="42.92341" lon="0.59838">
        <ele>1574</ele>
        <time>2019-02-03T11:54:04.000Z</time>
      </trkpt>
      <trkpt lat="42.9234" lon="0.59837">
        <ele>1574</ele>
        <time>2019-02-03T11:54:05.000Z</time>
      </trkpt>
      <trkpt lat="42.92339" lon="0.59837">
        <ele>1574.5</ele>
        <time>2019-02-03T11:54:06.000Z</time>
      </trkpt>
      <trkpt lat="42.92338" lon="0.59837">
        <ele>1575</ele>
        <time>2019-02-03T11:54:07.000Z</time>
      </trkpt>
      <trkpt lat="42.92338" lon="0.59837">
        <ele>1575</ele>
        <time>2019-02-03T11:54:08.000Z</time>
      </trkpt>
      <trkpt lat="42.92337" lon="0.59837">
        <ele>1575</ele>
        <time>2019-02-03T11:54:09.000Z</time>
      </trkpt>
      <trkpt lat="42.92336" lon="0.59837">
        <ele>1575</ele>
        <time>2019-02-03T11:54:10.000Z</time>
      </trkpt>
      <trkpt lat="42.92335" lon="0.59837">
        <ele>1575</ele>
        <time>2019-02-03T11:54:11.000Z</time>
      </trkpt>
      <trkpt lat="42.92335" lon="0.59836">
        <ele>1575</ele>
        <time>2019-02-03T11:54:12.000Z</time>
      </trkpt>
      <trkpt lat="42.92334" lon="0.59836">
        <ele>1575</ele>
        <time>2019-02-03T11:54:13.000Z</time>
      </trkpt>
      <trkpt lat="42.92333" lon="0.59836">
        <ele>1575</ele>
        <time>2019-02-03T11:54:14.000Z</time>
      </trkpt>
      <trkpt lat="42.92333" lon="0.59836">
        <ele>1575</ele>
        <time>2019-02-03T11:54:15.000Z</time>
      </trkpt>
      <trkpt lat="42.92333" lon="0.59836">
        <ele>1575</ele>
        <time>2019-02-03T11:54:16.000Z</time>
      </trkpt>
      <trkpt lat="42.92332" lon="0.59836">
        <ele>1575</ele>
        <time>2019-02-03T11:54:17.000Z</time>
      </trkpt>
      <trkpt lat="42.92332" lon="0.59835">
        <ele>1575</ele>
        <time>2019-02-03T11:54:18.000Z</time>
      </trkpt>
      <trkpt lat="42.92332" lon="0.59835">
        <ele>1575</ele>
        <time>2019-02-03T11:54:19.000Z</time>
      </trkpt>
      <trkpt lat="42.92332" lon="0.59835">
        <ele>1575.5</ele>
        <time>2019-02-03T11:54:20.000Z</time>
      </trkpt>
      <trkpt lat="42.92331" lon="0.59835">
        <ele>1576</ele>
        <time>2019-02-03T11:54:21.000Z</time>
      </trkpt>
      <trkpt lat="42.92331" lon="0.59834">
        <ele>1576</ele>
        <time>2019-02-03T11:54:22.000Z</time>
      </trkpt>
      <trkpt lat="42.92331" lon="0.59834">
        <ele>1576</ele>
        <time>2019-02-03T11:54:23.000Z</time>
      </trkpt>
      <trkpt lat="42.9233" lon="0.59833">
        <ele>1576</ele>
        <time>2019-02-03T11:54:24.000Z</time>
      </trkpt>
      <trkpt lat="42.9233" lon="0.59833">
        <ele>1576</ele>
        <time>2019-02-03T11:54:25.000Z</time>
      </trkpt>
      <trkpt lat="42.92329" lon="0.59832">
        <ele>1576</ele>
        <time>2019-02-03T11:54:26.000Z</time>
      </trkpt>
      <trkpt lat="42.92329" lon="0.59831">
        <ele>1576</ele>
        <time>2019-02-03T11:54:27.000Z</time>
      </trkpt>
      <trkpt lat="42.92328" lon="0.59831">
        <ele>1576</ele>
        <time>2019-02-03T11:54:28.000Z</time>
      </trkpt>
      <trkpt lat="42.92327" lon="0.5983">
        <ele>1576</ele>
        <time>2019-02-03T11:54:29.000Z</time>
      </trkpt>
      <trkpt lat="42.92327" lon="0.5983">
        <ele>1576</ele>
        <time>2019-02-03T11:54:30.000Z</time>
      </trkpt>
      <trkpt lat="42.92326" lon="0.59829">
        <ele>1576</ele>
        <time>2019-02-03T11:54:31.000Z</time>
      </trkpt>
      <trkpt lat="42.92326" lon="0.59829">
        <ele>1576.5</ele>
        <time>2019-02-03T11:54:32.000Z</time>
      </trkpt>
      <trkpt lat="42.92325" lon="0.59829">
        <ele>1577</ele>
        <time>2019-02-03T11:54:33.000Z</time>
      </trkpt>
      <trkpt lat="42.92325" lon="0.59828">
        <ele>1577</ele>
        <time>2019-02-03T11:54:34.000Z</time>
      </trkpt>
      <trkpt lat="42.92325" lon="0.59828">
        <ele>1577</ele>
        <time>2019-02-03T11:54:35.000Z</time>
      </trkpt>
      <trkpt lat="42.92324" lon="0.59828">
        <ele>1577</ele>
        <time>2019-02-03T11:54:36.000Z</time>
      </trkpt>
      <trkpt lat="42.92323" lon="0.59827">
        <ele>1577</ele>
        <time>2019-02-03T11:54:37.000Z</time>
      </trkpt>
      <trkpt lat="42.92323" lon="0.59827">
        <ele>1577</ele>
        <time>2019-02-03T11:54:38.000Z</time>
      </trkpt>
      <trkpt lat="42.92322" lon="0.59827">
        <ele>1577</ele>
        <time>2019-02-03T11:54:39.000Z</time>
      </trkpt>
      <trkpt lat="42.92322" lon="0.59826">
        <ele>1577</ele>
        <time>2019-02-03T11:54:40.000Z</time>
      </trkpt>
      <trkpt lat="42.92321" lon="0.59826">
        <ele>1577</ele>
        <time>2019-02-03T11:54:41.000Z</time>
      </trkpt>
      <trkpt lat="42.92321" lon="0.59825">
        <ele>1577</ele>
        <time>2019-02-03T11:54:42.000Z</time>
      </trkpt>
      <trkpt lat="42.9232" lon="0.59825">
        <ele>1577</ele>
        <time>2019-02-03T11:54:43.000Z</time>
      </trkpt>
      <trkpt lat="42.9232" lon="0.59824">
        <ele>1577</ele>
        <time>2019-02-03T11:54:44.000Z</time>
      </trkpt>
      <trkpt lat="42.92319" lon="0.59824">
        <ele>1577</ele>
        <time>2019-02-03T11:54:45.000Z</time>
      </trkpt>
      <trkpt lat="42.92319" lon="0.59823">
        <ele>1577</ele>
        <time>2019-02-03T11:54:46.000Z</time>
      </trkpt>
      <trkpt lat="42.92319" lon="0.59823">
        <ele>1577</ele>
        <time>2019-02-03T11:54:47.000Z</time>
      </trkpt>
      <trkpt lat="42.92318" lon="0.59822">
        <ele>1577</ele>
        <time>2019-02-03T11:54:48.000Z</time>
      </trkpt>
      <trkpt lat="42.92318" lon="0.59822">
        <ele>1577</ele>
        <time>2019-02-03T11:54:49.000Z</time>
      </trkpt>
      <trkpt lat="42.92317" lon="0.59821">
        <ele>1577</ele>
        <time>2019-02-03T11:54:50.000Z</time>
      </trkpt>
      <trkpt lat="42.92317" lon="0.5982">
        <ele>1577</ele>
        <time>2019-02-03T11:54:51.000Z</time>
      </trkpt>
      <trkpt lat="42.92316" lon="0.5982">
        <ele>1577</ele>
        <time>2019-02-03T11:54:52.000Z</time>
      </trkpt>
      <trkpt lat="42.92316" lon="0.59819">
        <ele>1577</ele>
        <time>2019-02-03T11:54:53.000Z</time>
      </trkpt>
      <trkpt lat="42.92315" lon="0.59819">
        <ele>1577</ele>
        <time>2019-02-03T11:54:54.000Z</time>
      </trkpt>
      <trkpt lat="42.92315" lon="0.59818">
        <ele>1577</ele>
        <time>2019-02-03T11:54:55.000Z</time>
      </trkpt>
      <trkpt lat="42.92314" lon="0.59817">
        <ele>1577</ele>
        <time>2019-02-03T11:54:56.000Z</time>
      </trkpt>
      <trkpt lat="42.92313" lon="0.59817">
        <ele>1577.3</ele>
        <time>2019-02-03T11:54:57.000Z</time>
      </trkpt>
      <trkpt lat="42.92312" lon="0.59816">
        <ele>1577.7</ele>
        <time>2019-02-03T11:54:58.000Z</time>
      </trkpt>
      <trkpt lat="42.92312" lon="0.59816">
        <ele>1578</ele>
        <time>2019-02-03T11:54:59.000Z</time>
      </trkpt>
      <trkpt lat="42.92311" lon="0.59815">
        <ele>1578</ele>
        <time>2019-02-03T11:55:00.000Z</time>
      </trkpt>
      <trkpt lat="42.9231" lon="0.59815">
        <ele>1578</ele>
        <time>2019-02-03T11:55:01.000Z</time>
      </trkpt>
      <trkpt lat="42.92309" lon="0.59814">
        <ele>1578</ele>
        <time>2019-02-03T11:55:02.000Z</time>
      </trkpt>
      <trkpt lat="42.92308" lon="0.59814">
        <ele>1578</ele>
        <time>2019-02-03T11:55:03.000Z</time>
      </trkpt>
      <trkpt lat="42.92307" lon="0.59814">
        <ele>1578</ele>
        <time>2019-02-03T11:55:04.000Z</time>
      </trkpt>
      <trkpt lat="42.92306" lon="0.59813">
        <ele>1578</ele>
        <time>2019-02-03T11:55:05.000Z</time>
      </trkpt>
      <trkpt lat="42.92305" lon="0.59813">
        <ele>1578</ele>
        <time>2019-02-03T11:55:06.000Z</time>
      </trkpt>
      <trkpt lat="42.92305" lon="0.59812">
        <ele>1578</ele>
        <time>2019-02-03T11:55:07.000Z</time>
      </trkpt>
      <trkpt lat="42.92304" lon="0.59811">
        <ele>1578</ele>
        <time>2019-02-03T11:55:08.000Z</time>
      </trkpt>
      <trkpt lat="42.92303" lon="0.59811">
        <ele>1578</ele>
        <time>2019-02-03T11:55:09.000Z</time>
      </trkpt>
      <trkpt lat="42.92302" lon="0.5981">
        <ele>1578</ele>
        <time>2019-02-03T11:55:10.000Z</time>
      </trkpt>
      <trkpt lat="42.92302" lon="0.5981">
        <ele>1578</ele>
        <time>2019-02-03T11:55:11.000Z</time>
      </trkpt>
      <trkpt lat="42.92301" lon="0.59809">
        <ele>1578</ele>
        <time>2019-02-03T11:55:12.000Z</time>
      </trkpt>
      <trkpt lat="42.923" lon="0.59809">
        <ele>1578</ele>
        <time>2019-02-03T11:55:13.000Z</time>
      </trkpt>
      <trkpt lat="42.923" lon="0.59808">
        <ele>1578</ele>
        <time>2019-02-03T11:55:14.000Z</time>
      </trkpt>
      <trkpt lat="42.92299" lon="0.59808">
        <ele>1578</ele>
        <time>2019-02-03T11:55:15.000Z</time>
      </trkpt>
      <trkpt lat="42.92298" lon="0.59807">
        <ele>1578</ele>
        <time>2019-02-03T11:55:16.000Z</time>
      </trkpt>
      <trkpt lat="42.92298" lon="0.59807">
        <ele>1578</ele>
        <time>2019-02-03T11:55:17.000Z</time>
      </trkpt>
      <trkpt lat="42.92297" lon="0.59806">
        <ele>1578</ele>
        <time>2019-02-03T11:55:18.000Z</time>
      </trkpt>
      <trkpt lat="42.92296" lon="0.59806">
        <ele>1578</ele>
        <time>2019-02-03T11:55:19.000Z</time>
      </trkpt>
      <trkpt lat="42.92295" lon="0.59806">
        <ele>1578</ele>
        <time>2019-02-03T11:55:20.000Z</time>
      </trkpt>
      <trkpt lat="42.92295" lon="0.59805">
        <ele>1578</ele>
        <time>2019-02-03T11:55:21.000Z</time>
      </trkpt>
      <trkpt lat="42.92294" lon="0.59805">
        <ele>1578</ele>
        <time>2019-02-03T11:55:22.000Z</time>
      </trkpt>
      <trkpt lat="42.92293" lon="0.59804">
        <ele>1578</ele>
        <time>2019-02-03T11:55:23.000Z</time>
      </trkpt>
      <trkpt lat="42.92293" lon="0.59804">
        <ele>1578</ele>
        <time>2019-02-03T11:55:24.000Z</time>
      </trkpt>
      <trkpt lat="42.92292" lon="0.59804">
        <ele>1578</ele>
        <time>2019-02-03T11:55:25.000Z</time>
      </trkpt>
      <trkpt lat="42.92291" lon="0.59803">
        <ele>1578</ele>
        <time>2019-02-03T11:55:26.000Z</time>
      </trkpt>
      <trkpt lat="42.92291" lon="0.59803">
        <ele>1578</ele>
        <time>2019-02-03T11:55:27.000Z</time>
      </trkpt>
      <trkpt lat="42.9229" lon="0.59802">
        <ele>1578.5</ele>
        <time>2019-02-03T11:55:28.000Z</time>
      </trkpt>
      <trkpt lat="42.9229" lon="0.59802">
        <ele>1579</ele>
        <time>2019-02-03T11:55:29.000Z</time>
      </trkpt>
      <trkpt lat="42.92289" lon="0.59801">
        <ele>1578</ele>
        <time>2019-02-03T11:55:30.000Z</time>
      </trkpt>
      <trkpt lat="42.92289" lon="0.59801">
        <ele>1578</ele>
        <time>2019-02-03T11:55:31.000Z</time>
      </trkpt>
      <trkpt lat="42.92288" lon="0.598">
        <ele>1578</ele>
        <time>2019-02-03T11:55:32.000Z</time>
      </trkpt>
      <trkpt lat="42.92288" lon="0.598">
        <ele>1578</ele>
        <time>2019-02-03T11:55:33.000Z</time>
      </trkpt>
      <trkpt lat="42.92288" lon="0.59799">
        <ele>1578.5</ele>
        <time>2019-02-03T11:55:34.000Z</time>
      </trkpt>
      <trkpt lat="42.92287" lon="0.59799">
        <ele>1579</ele>
        <time>2019-02-03T11:55:35.000Z</time>
      </trkpt>
      <trkpt lat="42.92287" lon="0.59798">
        <ele>1579</ele>
        <time>2019-02-03T11:55:36.000Z</time>
      </trkpt>
      <trkpt lat="42.92286" lon="0.59798">
        <ele>1579</ele>
        <time>2019-02-03T11:55:37.000Z</time>
      </trkpt>
      <trkpt lat="42.92286" lon="0.59798">
        <ele>1579</ele>
        <time>2019-02-03T11:55:38.000Z</time>
      </trkpt>
      <trkpt lat="42.92285" lon="0.59797">
        <ele>1579</ele>
        <time>2019-02-03T11:55:39.000Z</time>
      </trkpt>
      <trkpt lat="42.92285" lon="0.59797">
        <ele>1579</ele>
        <time>2019-02-03T11:55:40.000Z</time>
      </trkpt>
      <trkpt lat="42.92284" lon="0.59797">
        <ele>1579</ele>
        <time>2019-02-03T11:55:41.000Z</time>
      </trkpt>
      <trkpt lat="42.92284" lon="0.59796">
        <ele>1579</ele>
        <time>2019-02-03T11:55:42.000Z</time>
      </trkpt>
      <trkpt lat="42.92283" lon="0.59796">
        <ele>1579</ele>
        <time>2019-02-03T11:55:43.000Z</time>
      </trkpt>
      <trkpt lat="42.92283" lon="0.59795">
        <ele>1579</ele>
        <time>2019-02-03T11:55:44.000Z</time>
      </trkpt>
      <trkpt lat="42.92282" lon="0.59795">
        <ele>1579</ele>
        <time>2019-02-03T11:55:45.000Z</time>
      </trkpt>
      <trkpt lat="42.92282" lon="0.59794">
        <ele>1579</ele>
        <time>2019-02-03T11:55:46.000Z</time>
      </trkpt>
      <trkpt lat="42.92281" lon="0.59794">
        <ele>1579</ele>
        <time>2019-02-03T11:55:47.000Z</time>
      </trkpt>
      <trkpt lat="42.92281" lon="0.59793">
        <ele>1579</ele>
        <time>2019-02-03T11:55:48.000Z</time>
      </trkpt>
      <trkpt lat="42.9228" lon="0.59793">
        <ele>1579</ele>
        <time>2019-02-03T11:55:49.000Z</time>
      </trkpt>
      <trkpt lat="42.92279" lon="0.59792">
        <ele>1579</ele>
        <time>2019-02-03T11:55:50.000Z</time>
      </trkpt>
      <trkpt lat="42.92279" lon="0.59792">
        <ele>1579</ele>
        <time>2019-02-03T11:55:51.000Z</time>
      </trkpt>
      <trkpt lat="42.92278" lon="0.59791">
        <ele>1579</ele>
        <time>2019-02-03T11:55:52.000Z</time>
      </trkpt>
      <trkpt lat="42.92278" lon="0.5979">
        <ele>1579</ele>
        <time>2019-02-03T11:55:53.000Z</time>
      </trkpt>
      <trkpt lat="42.92277" lon="0.5979">
        <ele>1579</ele>
        <time>2019-02-03T11:55:54.000Z</time>
      </trkpt>
      <trkpt lat="42.92276" lon="0.59789">
        <ele>1579</ele>
        <time>2019-02-03T11:55:55.000Z</time>
      </trkpt>
      <trkpt lat="42.92276" lon="0.59789">
        <ele>1579.5</ele>
        <time>2019-02-03T11:55:56.000Z</time>
      </trkpt>
      <trkpt lat="42.92275" lon="0.59788">
        <ele>1580</ele>
        <time>2019-02-03T11:55:57.000Z</time>
      </trkpt>
      <trkpt lat="42.92275" lon="0.59788">
        <ele>1580</ele>
        <time>2019-02-03T11:55:58.000Z</time>
      </trkpt>
      <trkpt lat="42.92274" lon="0.59787">
        <ele>1580</ele>
        <time>2019-02-03T11:55:59.000Z</time>
      </trkpt>
      <trkpt lat="42.92273" lon="0.59787">
        <ele>1580</ele>
        <time>2019-02-03T11:56:00.000Z</time>
      </trkpt>
      <trkpt lat="42.92273" lon="0.59786">
        <ele>1580</ele>
        <time>2019-02-03T11:56:01.000Z</time>
      </trkpt>
      <trkpt lat="42.92272" lon="0.59786">
        <ele>1580</ele>
        <time>2019-02-03T11:56:02.000Z</time>
      </trkpt>
      <trkpt lat="42.92272" lon="0.59786">
        <ele>1580</ele>
        <time>2019-02-03T11:56:03.000Z</time>
      </trkpt>
      <trkpt lat="42.92271" lon="0.59785">
        <ele>1580</ele>
        <time>2019-02-03T11:56:04.000Z</time>
      </trkpt>
      <trkpt lat="42.92271" lon="0.59785">
        <ele>1580</ele>
        <time>2019-02-03T11:56:05.000Z</time>
      </trkpt>
      <trkpt lat="42.9227" lon="0.59785">
        <ele>1580</ele>
        <time>2019-02-03T11:56:06.000Z</time>
      </trkpt>
      <trkpt lat="42.92269" lon="0.59784">
        <ele>1580</ele>
        <time>2019-02-03T11:56:07.000Z</time>
      </trkpt>
      <trkpt lat="42.92269" lon="0.59784">
        <ele>1580</ele>
        <time>2019-02-03T11:56:08.000Z</time>
      </trkpt>
      <trkpt lat="42.92268" lon="0.59783">
        <ele>1580</ele>
        <time>2019-02-03T11:56:09.000Z</time>
      </trkpt>
      <trkpt lat="42.92268" lon="0.59783">
        <ele>1580</ele>
        <time>2019-02-03T11:56:10.000Z</time>
      </trkpt>
      <trkpt lat="42.92267" lon="0.59783">
        <ele>1580</ele>
        <time>2019-02-03T11:56:11.000Z</time>
      </trkpt>
      <trkpt lat="42.92266" lon="0.59782">
        <ele>1580</ele>
        <time>2019-02-03T11:56:12.000Z</time>
      </trkpt>
      <trkpt lat="42.92266" lon="0.59782">
        <ele>1580</ele>
        <time>2019-02-03T11:56:13.000Z</time>
      </trkpt>
      <trkpt lat="42.92265" lon="0.59781">
        <ele>1580</ele>
        <time>2019-02-03T11:56:14.000Z</time>
      </trkpt>
      <trkpt lat="42.92265" lon="0.59781">
        <ele>1580</ele>
        <time>2019-02-03T11:56:15.000Z</time>
      </trkpt>
      <trkpt lat="42.92264" lon="0.5978">
        <ele>1580</ele>
        <time>2019-02-03T11:56:16.000Z</time>
      </trkpt>
      <trkpt lat="42.92263" lon="0.5978">
        <ele>1580.3</ele>
        <time>2019-02-03T11:56:17.000Z</time>
      </trkpt>
      <trkpt lat="42.92263" lon="0.59779">
        <ele>1580.7</ele>
        <time>2019-02-03T11:56:18.000Z</time>
      </trkpt>
      <trkpt lat="42.92262" lon="0.59779">
        <ele>1581</ele>
        <time>2019-02-03T11:56:19.000Z</time>
      </trkpt>
      <trkpt lat="42.92262" lon="0.59779">
        <ele>1581</ele>
        <time>2019-02-03T11:56:20.000Z</time>
      </trkpt>
      <trkpt lat="42.92261" lon="0.59778">
        <ele>1581</ele>
        <time>2019-02-03T11:56:21.000Z</time>
      </trkpt>
      <trkpt lat="42.92261" lon="0.59778">
        <ele>1581</ele>
        <time>2019-02-03T11:56:22.000Z</time>
      </trkpt>
      <trkpt lat="42.9226" lon="0.59777">
        <ele>1581.3</ele>
        <time>2019-02-03T11:56:23.000Z</time>
      </trkpt>
      <trkpt lat="42.9226" lon="0.59777">
        <ele>1581.7</ele>
        <time>2019-02-03T11:56:24.000Z</time>
      </trkpt>
      <trkpt lat="42.9226" lon="0.59777">
        <ele>1582</ele>
        <time>2019-02-03T11:56:25.000Z</time>
      </trkpt>
      <trkpt lat="42.92259" lon="0.59776">
        <ele>1582</ele>
        <time>2019-02-03T11:56:26.000Z</time>
      </trkpt>
      <trkpt lat="42.92259" lon="0.59776">
        <ele>1582</ele>
        <time>2019-02-03T11:56:27.000Z</time>
      </trkpt>
      <trkpt lat="42.92259" lon="0.59776">
        <ele>1582</ele>
        <time>2019-02-03T11:56:28.000Z</time>
      </trkpt>
      <trkpt lat="42.92258" lon="0.59775">
        <ele>1582</ele>
        <time>2019-02-03T11:56:29.000Z</time>
      </trkpt>
      <trkpt lat="42.92258" lon="0.59775">
        <ele>1582</ele>
        <time>2019-02-03T11:56:30.000Z</time>
      </trkpt>
      <trkpt lat="42.92258" lon="0.59775">
        <ele>1582</ele>
        <time>2019-02-03T11:56:31.000Z</time>
      </trkpt>
      <trkpt lat="42.92257" lon="0.59775">
        <ele>1582</ele>
        <time>2019-02-03T11:56:32.000Z</time>
      </trkpt>
      <trkpt lat="42.92257" lon="0.59774">
        <ele>1582</ele>
        <time>2019-02-03T11:56:33.000Z</time>
      </trkpt>
      <trkpt lat="42.92257" lon="0.59774">
        <ele>1582</ele>
        <time>2019-02-03T11:56:34.000Z</time>
      </trkpt>
      <trkpt lat="42.92256" lon="0.59773">
        <ele>1582</ele>
        <time>2019-02-03T11:56:35.000Z</time>
      </trkpt>
      <trkpt lat="42.92256" lon="0.59773">
        <ele>1582</ele>
        <time>2019-02-03T11:56:36.000Z</time>
      </trkpt>
      <trkpt lat="42.92255" lon="0.59773">
        <ele>1582</ele>
        <time>2019-02-03T11:56:37.000Z</time>
      </trkpt>
      <trkpt lat="42.92255" lon="0.59772">
        <ele>1582</ele>
        <time>2019-02-03T11:56:38.000Z</time>
      </trkpt>
      <trkpt lat="42.92254" lon="0.59772">
        <ele>1582.3</ele>
        <time>2019-02-03T11:56:39.000Z</time>
      </trkpt>
      <trkpt lat="42.92254" lon="0.59771">
        <ele>1582.7</ele>
        <time>2019-02-03T11:56:40.000Z</time>
      </trkpt>
      <trkpt lat="42.92254" lon="0.59771">
        <ele>1583</ele>
        <time>2019-02-03T11:56:41.000Z</time>
      </trkpt>
      <trkpt lat="42.92253" lon="0.5977">
        <ele>1583</ele>
        <time>2019-02-03T11:56:42.000Z</time>
      </trkpt>
      <trkpt lat="42.92253" lon="0.5977">
        <ele>1583</ele>
        <time>2019-02-03T11:56:43.000Z</time>
      </trkpt>
      <trkpt lat="42.92253" lon="0.5977">
        <ele>1583</ele>
        <time>2019-02-03T11:56:44.000Z</time>
      </trkpt>
      <trkpt lat="42.92252" lon="0.59769">
        <ele>1583</ele>
        <time>2019-02-03T11:56:45.000Z</time>
      </trkpt>
      <trkpt lat="42.92251" lon="0.59769">
        <ele>1583</ele>
        <time>2019-02-03T11:56:46.000Z</time>
      </trkpt>
      <trkpt lat="42.92251" lon="0.59768">
        <ele>1583</ele>
        <time>2019-02-03T11:56:47.000Z</time>
      </trkpt>
      <trkpt lat="42.9225" lon="0.59768">
        <ele>1583</ele>
        <time>2019-02-03T11:56:48.000Z</time>
      </trkpt>
      <trkpt lat="42.92249" lon="0.59768">
        <ele>1583.3</ele>
        <time>2019-02-03T11:56:49.000Z</time>
      </trkpt>
      <trkpt lat="42.92249" lon="0.59767">
        <ele>1583.7</ele>
        <time>2019-02-03T11:56:50.000Z</time>
      </trkpt>
      <trkpt lat="42.92248" lon="0.59767">
        <ele>1584</ele>
        <time>2019-02-03T11:56:51.000Z</time>
      </trkpt>
      <trkpt lat="42.92248" lon="0.59766">
        <ele>1584</ele>
        <time>2019-02-03T11:56:52.000Z</time>
      </trkpt>
      <trkpt lat="42.92247" lon="0.59766">
        <ele>1584</ele>
        <time>2019-02-03T11:56:53.000Z</time>
      </trkpt>
      <trkpt lat="42.92247" lon="0.59766">
        <ele>1584</ele>
        <time>2019-02-03T11:56:54.000Z</time>
      </trkpt>
      <trkpt lat="42.92246" lon="0.59765">
        <ele>1584</ele>
        <time>2019-02-03T11:56:55.000Z</time>
      </trkpt>
      <trkpt lat="42.92246" lon="0.59765">
        <ele>1584</ele>
        <time>2019-02-03T11:56:56.000Z</time>
      </trkpt>
      <trkpt lat="42.92245" lon="0.59765">
        <ele>1584</ele>
        <time>2019-02-03T11:56:57.000Z</time>
      </trkpt>
      <trkpt lat="42.92245" lon="0.59764">
        <ele>1584.5</ele>
        <time>2019-02-03T11:56:58.000Z</time>
      </trkpt>
      <trkpt lat="42.92245" lon="0.59764">
        <ele>1585</ele>
        <time>2019-02-03T11:56:59.000Z</time>
      </trkpt>
      <trkpt lat="42.92244" lon="0.59764">
        <ele>1585</ele>
        <time>2019-02-03T11:57:00.000Z</time>
      </trkpt>
      <trkpt lat="42.92244" lon="0.59764">
        <ele>1585</ele>
        <time>2019-02-03T11:57:01.000Z</time>
      </trkpt>
      <trkpt lat="42.92244" lon="0.59763">
        <ele>1585</ele>
        <time>2019-02-03T11:57:02.000Z</time>
      </trkpt>
      <trkpt lat="42.92244" lon="0.59763">
        <ele>1585</ele>
        <time>2019-02-03T11:57:03.000Z</time>
      </trkpt>
      <trkpt lat="42.92244" lon="0.59763">
        <ele>1585</ele>
        <time>2019-02-03T11:57:04.000Z</time>
      </trkpt>
      <trkpt lat="42.92243" lon="0.59763">
        <ele>1585</ele>
        <time>2019-02-03T11:57:05.000Z</time>
      </trkpt>
      <trkpt lat="42.92243" lon="0.59762">
        <ele>1585</ele>
        <time>2019-02-03T11:57:06.000Z</time>
      </trkpt>
      <trkpt lat="42.92243" lon="0.59762">
        <ele>1585</ele>
        <time>2019-02-03T11:57:07.000Z</time>
      </trkpt>
      <trkpt lat="42.92243" lon="0.59762">
        <ele>1585</ele>
        <time>2019-02-03T11:57:08.000Z</time>
      </trkpt>
      <trkpt lat="42.92243" lon="0.59761">
        <ele>1585</ele>
        <time>2019-02-03T11:57:09.000Z</time>
      </trkpt>
      <trkpt lat="42.92242" lon="0.59761">
        <ele>1585.5</ele>
        <time>2019-02-03T11:57:10.000Z</time>
      </trkpt>
      <trkpt lat="42.92242" lon="0.5976">
        <ele>1586</ele>
        <time>2019-02-03T11:57:11.000Z</time>
      </trkpt>
      <trkpt lat="42.92241" lon="0.5976">
        <ele>1586</ele>
        <time>2019-02-03T11:57:12.000Z</time>
      </trkpt>
      <trkpt lat="42.92241" lon="0.59759">
        <ele>1586</ele>
        <time>2019-02-03T11:57:13.000Z</time>
      </trkpt>
      <trkpt lat="42.9224" lon="0.59759">
        <ele>1586</ele>
        <time>2019-02-03T11:57:14.000Z</time>
      </trkpt>
      <trkpt lat="42.9224" lon="0.59758">
        <ele>1586</ele>
        <time>2019-02-03T11:57:15.000Z</time>
      </trkpt>
      <trkpt lat="42.92239" lon="0.59757">
        <ele>1586</ele>
        <time>2019-02-03T11:57:16.000Z</time>
      </trkpt>
      <trkpt lat="42.92239" lon="0.59757">
        <ele>1586</ele>
        <time>2019-02-03T11:57:17.000Z</time>
      </trkpt>
      <trkpt lat="42.92238" lon="0.59756">
        <ele>1586</ele>
        <time>2019-02-03T11:57:18.000Z</time>
      </trkpt>
      <trkpt lat="42.92238" lon="0.59756">
        <ele>1586</ele>
        <time>2019-02-03T11:57:19.000Z</time>
      </trkpt>
      <trkpt lat="42.92238" lon="0.59756">
        <ele>1586</ele>
        <time>2019-02-03T11:57:20.000Z</time>
      </trkpt>
      <trkpt lat="42.92237" lon="0.59756">
        <ele>1586</ele>
        <time>2019-02-03T11:57:21.000Z</time>
      </trkpt>
      <trkpt lat="42.92237" lon="0.59756">
        <ele>1586</ele>
        <time>2019-02-03T11:57:22.000Z</time>
      </trkpt>
      <trkpt lat="42.92237" lon="0.59755">
        <ele>1586</ele>
        <time>2019-02-03T11:57:23.000Z</time>
      </trkpt>
      <trkpt lat="42.92236" lon="0.59755">
        <ele>1586.5</ele>
        <time>2019-02-03T11:57:24.000Z</time>
      </trkpt>
      <trkpt lat="42.92236" lon="0.59755">
        <ele>1587</ele>
        <time>2019-02-03T11:57:25.000Z</time>
      </trkpt>
      <trkpt lat="42.92236" lon="0.59755">
        <ele>1587</ele>
        <time>2019-02-03T11:57:26.000Z</time>
      </trkpt>
      <trkpt lat="42.92235" lon="0.59754">
        <ele>1587</ele>
        <time>2019-02-03T11:57:27.000Z</time>
      </trkpt>
      <trkpt lat="42.92235" lon="0.59754">
        <ele>1587</ele>
        <time>2019-02-03T11:57:28.000Z</time>
      </trkpt>
      <trkpt lat="42.92234" lon="0.59753">
        <ele>1587</ele>
        <time>2019-02-03T11:57:29.000Z</time>
      </trkpt>
      <trkpt lat="42.92234" lon="0.59753">
        <ele>1587</ele>
        <time>2019-02-03T11:57:30.000Z</time>
      </trkpt>
      <trkpt lat="42.92234" lon="0.59752">
        <ele>1587</ele>
        <time>2019-02-03T11:57:31.000Z</time>
      </trkpt>
      <trkpt lat="42.92233" lon="0.59752">
        <ele>1587</ele>
        <time>2019-02-03T11:57:32.000Z</time>
      </trkpt>
      <trkpt lat="42.92233" lon="0.59751">
        <ele>1587</ele>
        <time>2019-02-03T11:57:33.000Z</time>
      </trkpt>
      <trkpt lat="42.92233" lon="0.59751">
        <ele>1587</ele>
        <time>2019-02-03T11:57:34.000Z</time>
      </trkpt>
      <trkpt lat="42.92232" lon="0.5975">
        <ele>1587.3</ele>
        <time>2019-02-03T11:57:35.000Z</time>
      </trkpt>
      <trkpt lat="42.92232" lon="0.59749">
        <ele>1587.7</ele>
        <time>2019-02-03T11:57:36.000Z</time>
      </trkpt>
      <trkpt lat="42.92232" lon="0.59749">
        <ele>1588</ele>
        <time>2019-02-03T11:57:37.000Z</time>
      </trkpt>
      <trkpt lat="42.92231" lon="0.59748">
        <ele>1588</ele>
        <time>2019-02-03T11:57:38.000Z</time>
      </trkpt>
      <trkpt lat="42.92231" lon="0.59748">
        <ele>1588</ele>
        <time>2019-02-03T11:57:39.000Z</time>
      </trkpt>
      <trkpt lat="42.92231" lon="0.59748">
        <ele>1588</ele>
        <time>2019-02-03T11:57:40.000Z</time>
      </trkpt>
      <trkpt lat="42.9223" lon="0.59747">
        <ele>1588</ele>
        <time>2019-02-03T11:57:41.000Z</time>
      </trkpt>
      <trkpt lat="42.9223" lon="0.59747">
        <ele>1588</ele>
        <time>2019-02-03T11:57:42.000Z</time>
      </trkpt>
      <trkpt lat="42.9223" lon="0.59746">
        <ele>1588</ele>
        <time>2019-02-03T11:57:43.000Z</time>
      </trkpt>
      <trkpt lat="42.9223" lon="0.59746">
        <ele>1588</ele>
        <time>2019-02-03T11:57:44.000Z</time>
      </trkpt>
      <trkpt lat="42.92229" lon="0.59746">
        <ele>1588</ele>
        <time>2019-02-03T11:57:45.000Z</time>
      </trkpt>
      <trkpt lat="42.92229" lon="0.59745">
        <ele>1588</ele>
        <time>2019-02-03T11:57:46.000Z</time>
      </trkpt>
      <trkpt lat="42.92229" lon="0.59745">
        <ele>1588.3</ele>
        <time>2019-02-03T11:57:47.000Z</time>
      </trkpt>
      <trkpt lat="42.92228" lon="0.59744">
        <ele>1588.7</ele>
        <time>2019-02-03T11:57:48.000Z</time>
      </trkpt>
      <trkpt lat="42.92228" lon="0.59744">
        <ele>1589</ele>
        <time>2019-02-03T11:57:49.000Z</time>
      </trkpt>
      <trkpt lat="42.92228" lon="0.59743">
        <ele>1589</ele>
        <time>2019-02-03T11:57:50.000Z</time>
      </trkpt>
      <trkpt lat="42.92227" lon="0.59743">
        <ele>1589.5</ele>
        <time>2019-02-03T11:57:51.000Z</time>
      </trkpt>
      <trkpt lat="42.92227" lon="0.59742">
        <ele>1590</ele>
        <time>2019-02-03T11:57:52.000Z</time>
      </trkpt>
      <trkpt lat="42.92227" lon="0.59742">
        <ele>1590</ele>
        <time>2019-02-03T11:57:53.000Z</time>
      </trkpt>
      <trkpt lat="42.92226" lon="0.59741">
        <ele>1590</ele>
        <time>2019-02-03T11:57:54.000Z</time>
      </trkpt>
      <trkpt lat="42.92226" lon="0.59741">
        <ele>1590</ele>
        <time>2019-02-03T11:57:55.000Z</time>
      </trkpt>
      <trkpt lat="42.92225" lon="0.5974">
        <ele>1590.5</ele>
        <time>2019-02-03T11:57:56.000Z</time>
      </trkpt>
      <trkpt lat="42.92225" lon="0.59739">
        <ele>1591</ele>
        <time>2019-02-03T11:57:57.000Z</time>
      </trkpt>
      <trkpt lat="42.92225" lon="0.59739">
        <ele>1591</ele>
        <time>2019-02-03T11:57:58.000Z</time>
      </trkpt>
      <trkpt lat="42.92224" lon="0.59738">
        <ele>1591</ele>
        <time>2019-02-03T11:57:59.000Z</time>
      </trkpt>
      <trkpt lat="42.92224" lon="0.59738">
        <ele>1591</ele>
        <time>2019-02-03T11:58:00.000Z</time>
      </trkpt>
      <trkpt lat="42.92224" lon="0.59737">
        <ele>1591</ele>
        <time>2019-02-03T11:58:01.000Z</time>
      </trkpt>
      <trkpt lat="42.92223" lon="0.59737">
        <ele>1591.5</ele>
        <time>2019-02-03T11:58:02.000Z</time>
      </trkpt>
      <trkpt lat="42.92223" lon="0.59737">
        <ele>1592</ele>
        <time>2019-02-03T11:58:03.000Z</time>
      </trkpt>
      <trkpt lat="42.92223" lon="0.59736">
        <ele>1591.5</ele>
        <time>2019-02-03T11:58:04.000Z</time>
      </trkpt>
      <trkpt lat="42.92223" lon="0.59736">
        <ele>1591</ele>
        <time>2019-02-03T11:58:05.000Z</time>
      </trkpt>
      <trkpt lat="42.92222" lon="0.59736">
        <ele>1591</ele>
        <time>2019-02-03T11:58:06.000Z</time>
      </trkpt>
      <trkpt lat="42.92222" lon="0.59735">
        <ele>1591</ele>
        <time>2019-02-03T11:58:07.000Z</time>
      </trkpt>
      <trkpt lat="42.92222" lon="0.59735">
        <ele>1591</ele>
        <time>2019-02-03T11:58:08.000Z</time>
      </trkpt>
      <trkpt lat="42.92222" lon="0.59735">
        <ele>1591</ele>
        <time>2019-02-03T11:58:09.000Z</time>
      </trkpt>
      <trkpt lat="42.92221" lon="0.59735">
        <ele>1591</ele>
        <time>2019-02-03T11:58:10.000Z</time>
      </trkpt>
      <trkpt lat="42.92221" lon="0.59734">
        <ele>1591</ele>
        <time>2019-02-03T11:58:11.000Z</time>
      </trkpt>
      <trkpt lat="42.92221" lon="0.59734">
        <ele>1591.5</ele>
        <time>2019-02-03T11:58:12.000Z</time>
      </trkpt>
      <trkpt lat="42.9222" lon="0.59734">
        <ele>1592</ele>
        <time>2019-02-03T11:58:13.000Z</time>
      </trkpt>
      <trkpt lat="42.9222" lon="0.59733">
        <ele>1592</ele>
        <time>2019-02-03T11:58:14.000Z</time>
      </trkpt>
      <trkpt lat="42.9222" lon="0.59733">
        <ele>1592</ele>
        <time>2019-02-03T11:58:15.000Z</time>
      </trkpt>
      <trkpt lat="42.9222" lon="0.59732">
        <ele>1592</ele>
        <time>2019-02-03T11:58:16.000Z</time>
      </trkpt>
      <trkpt lat="42.9222" lon="0.59732">
        <ele>1592</ele>
        <time>2019-02-03T11:58:17.000Z</time>
      </trkpt>
      <trkpt lat="42.92219" lon="0.59732">
        <ele>1592</ele>
        <time>2019-02-03T11:58:18.000Z</time>
      </trkpt>
      <trkpt lat="42.92219" lon="0.59731">
        <ele>1592</ele>
        <time>2019-02-03T11:58:19.000Z</time>
      </trkpt>
      <trkpt lat="42.92219" lon="0.59731">
        <ele>1592.5</ele>
        <time>2019-02-03T11:58:20.000Z</time>
      </trkpt>
      <trkpt lat="42.92218" lon="0.59731">
        <ele>1593</ele>
        <time>2019-02-03T11:58:21.000Z</time>
      </trkpt>
      <trkpt lat="42.92218" lon="0.59731">
        <ele>1593</ele>
        <time>2019-02-03T11:58:22.000Z</time>
      </trkpt>
      <trkpt lat="42.92217" lon="0.5973">
        <ele>1593</ele>
        <time>2019-02-03T11:58:23.000Z</time>
      </trkpt>
      <trkpt lat="42.92216" lon="0.5973">
        <ele>1593</ele>
        <time>2019-02-03T11:58:24.000Z</time>
      </trkpt>
      <trkpt lat="42.92215" lon="0.59731">
        <ele>1593</ele>
        <time>2019-02-03T11:58:25.000Z</time>
      </trkpt>
      <trkpt lat="42.92214" lon="0.59731">
        <ele>1593</ele>
        <time>2019-02-03T11:58:26.000Z</time>
      </trkpt>
      <trkpt lat="42.92214" lon="0.59731">
        <ele>1593</ele>
        <time>2019-02-03T11:58:27.000Z</time>
      </trkpt>
      <trkpt lat="42.92213" lon="0.59731">
        <ele>1593</ele>
        <time>2019-02-03T11:58:28.000Z</time>
      </trkpt>
      <trkpt lat="42.92213" lon="0.59731">
        <ele>1593</ele>
        <time>2019-02-03T11:58:29.000Z</time>
      </trkpt>
      <trkpt lat="42.92212" lon="0.59731">
        <ele>1593</ele>
        <time>2019-02-03T11:58:30.000Z</time>
      </trkpt>
      <trkpt lat="42.92212" lon="0.59731">
        <ele>1593.3</ele>
        <time>2019-02-03T11:58:31.000Z</time>
      </trkpt>
      <trkpt lat="42.92212" lon="0.59731">
        <ele>1593.7</ele>
        <time>2019-02-03T11:58:32.000Z</time>
      </trkpt>
      <trkpt lat="42.92212" lon="0.59731">
        <ele>1594</ele>
        <time>2019-02-03T11:58:33.000Z</time>
      </trkpt>
      <trkpt lat="42.92212" lon="0.59731">
        <ele>1594</ele>
        <time>2019-02-03T11:58:34.000Z</time>
      </trkpt>
      <trkpt lat="42.92212" lon="0.59731">
        <ele>1594</ele>
        <time>2019-02-03T11:58:35.000Z</time>
      </trkpt>
      <trkpt lat="42.92212" lon="0.59731">
        <ele>1594</ele>
        <time>2019-02-03T11:58:36.000Z</time>
      </trkpt>
      <trkpt lat="42.92211" lon="0.59731">
        <ele>1594</ele>
        <time>2019-02-03T11:58:37.000Z</time>
      </trkpt>
      <trkpt lat="42.92211" lon="0.59731">
        <ele>1594</ele>
        <time>2019-02-03T11:58:38.000Z</time>
      </trkpt>
      <trkpt lat="42.92211" lon="0.59731">
        <ele>1594</ele>
        <time>2019-02-03T11:58:39.000Z</time>
      </trkpt>
      <trkpt lat="42.92211" lon="0.59731">
        <ele>1594.5</ele>
        <time>2019-02-03T11:58:40.000Z</time>
      </trkpt>
      <trkpt lat="42.9221" lon="0.59731">
        <ele>1595</ele>
        <time>2019-02-03T11:58:41.000Z</time>
      </trkpt>
      <trkpt lat="42.9221" lon="0.59731">
        <ele>1595</ele>
        <time>2019-02-03T11:58:42.000Z</time>
      </trkpt>
      <trkpt lat="42.92209" lon="0.59731">
        <ele>1595</ele>
        <time>2019-02-03T11:58:43.000Z</time>
      </trkpt>
      <trkpt lat="42.92209" lon="0.59731">
        <ele>1595</ele>
        <time>2019-02-03T11:58:44.000Z</time>
      </trkpt>
      <trkpt lat="42.92208" lon="0.59732">
        <ele>1595</ele>
        <time>2019-02-03T11:58:45.000Z</time>
      </trkpt>
      <trkpt lat="42.92208" lon="0.59732">
        <ele>1595</ele>
        <time>2019-02-03T11:58:46.000Z</time>
      </trkpt>
      <trkpt lat="42.92207" lon="0.59732">
        <ele>1595</ele>
        <time>2019-02-03T11:58:47.000Z</time>
      </trkpt>
      <trkpt lat="42.92207" lon="0.59732">
        <ele>1595</ele>
        <time>2019-02-03T11:58:48.000Z</time>
      </trkpt>
      <trkpt lat="42.92206" lon="0.59732">
        <ele>1595</ele>
        <time>2019-02-03T11:58:49.000Z</time>
      </trkpt>
      <trkpt lat="42.92206" lon="0.59732">
        <ele>1595</ele>
        <time>2019-02-03T11:58:50.000Z</time>
      </trkpt>
      <trkpt lat="42.92205" lon="0.59732">
        <ele>1595</ele>
        <time>2019-02-03T11:58:51.000Z</time>
      </trkpt>
      <trkpt lat="42.92205" lon="0.59732">
        <ele>1595</ele>
        <time>2019-02-03T11:58:52.000Z</time>
      </trkpt>
      <trkpt lat="42.92204" lon="0.59732">
        <ele>1595.3</ele>
        <time>2019-02-03T11:58:53.000Z</time>
      </trkpt>
      <trkpt lat="42.92204" lon="0.59732">
        <ele>1595.7</ele>
        <time>2019-02-03T11:58:54.000Z</time>
      </trkpt>
      <trkpt lat="42.92204" lon="0.59732">
        <ele>1596</ele>
        <time>2019-02-03T11:58:55.000Z</time>
      </trkpt>
      <trkpt lat="42.92204" lon="0.59732">
        <ele>1596</ele>
        <time>2019-02-03T11:58:56.000Z</time>
      </trkpt>
      <trkpt lat="42.92204" lon="0.59732">
        <ele>1596</ele>
        <time>2019-02-03T11:58:57.000Z</time>
      </trkpt>
      <trkpt lat="42.92204" lon="0.59732">
        <ele>1596</ele>
        <time>2019-02-03T11:58:58.000Z</time>
      </trkpt>
      <trkpt lat="42.92203" lon="0.59732">
        <ele>1596</ele>
        <time>2019-02-03T11:58:59.000Z</time>
      </trkpt>
      <trkpt lat="42.92203" lon="0.59732">
        <ele>1596</ele>
        <time>2019-02-03T11:59:00.000Z</time>
      </trkpt>
      <trkpt lat="42.92203" lon="0.59732">
        <ele>1596</ele>
        <time>2019-02-03T11:59:01.000Z</time>
      </trkpt>
      <trkpt lat="42.92203" lon="0.59732">
        <ele>1596</ele>
        <time>2019-02-03T11:59:02.000Z</time>
      </trkpt>
      <trkpt lat="42.92202" lon="0.59732">
        <ele>1596</ele>
        <time>2019-02-03T11:59:03.000Z</time>
      </trkpt>
      <trkpt lat="42.92202" lon="0.59732">
        <ele>1596</ele>
        <time>2019-02-03T11:59:04.000Z</time>
      </trkpt>
      <trkpt lat="42.92202" lon="0.59732">
        <ele>1596</ele>
        <time>2019-02-03T11:59:05.000Z</time>
      </trkpt>
      <trkpt lat="42.92201" lon="0.59733">
        <ele>1596.5</ele>
        <time>2019-02-03T11:59:06.000Z</time>
      </trkpt>
      <trkpt lat="42.92201" lon="0.59733">
        <ele>1597</ele>
        <time>2019-02-03T11:59:07.000Z</time>
      </trkpt>
      <trkpt lat="42.922" lon="0.59733">
        <ele>1597</ele>
        <time>2019-02-03T11:59:08.000Z</time>
      </trkpt>
      <trkpt lat="42.922" lon="0.59733">
        <ele>1597</ele>
        <time>2019-02-03T11:59:09.000Z</time>
      </trkpt>
      <trkpt lat="42.92199" lon="0.59734">
        <ele>1597</ele>
        <time>2019-02-03T11:59:10.000Z</time>
      </trkpt>
      <trkpt lat="42.92199" lon="0.59734">
        <ele>1597.3</ele>
        <time>2019-02-03T11:59:11.000Z</time>
      </trkpt>
      <trkpt lat="42.92199" lon="0.59734">
        <ele>1597.7</ele>
        <time>2019-02-03T11:59:12.000Z</time>
      </trkpt>
      <trkpt lat="42.92199" lon="0.59734">
        <ele>1598</ele>
        <time>2019-02-03T11:59:13.000Z</time>
      </trkpt>
      <trkpt lat="42.92199" lon="0.59733">
        <ele>1598</ele>
        <time>2019-02-03T11:59:14.000Z</time>
      </trkpt>
      <trkpt lat="42.92199" lon="0.59733">
        <ele>1598</ele>
        <time>2019-02-03T11:59:15.000Z</time>
      </trkpt>
      <trkpt lat="42.92199" lon="0.59733">
        <ele>1598</ele>
        <time>2019-02-03T11:59:16.000Z</time>
      </trkpt>
      <trkpt lat="42.92198" lon="0.59733">
        <ele>1598</ele>
        <time>2019-02-03T11:59:17.000Z</time>
      </trkpt>
      <trkpt lat="42.92198" lon="0.59733">
        <ele>1598.5</ele>
        <time>2019-02-03T11:59:18.000Z</time>
      </trkpt>
      <trkpt lat="42.92198" lon="0.59733">
        <ele>1599</ele>
        <time>2019-02-03T11:59:19.000Z</time>
      </trkpt>
      <trkpt lat="42.92198" lon="0.59733">
        <ele>1599</ele>
        <time>2019-02-03T11:59:20.000Z</time>
      </trkpt>
      <trkpt lat="42.92197" lon="0.59733">
        <ele>1599</ele>
        <time>2019-02-03T11:59:21.000Z</time>
      </trkpt>
      <trkpt lat="42.92197" lon="0.59733">
        <ele>1599</ele>
        <time>2019-02-03T11:59:22.000Z</time>
      </trkpt>
      <trkpt lat="42.92197" lon="0.59733">
        <ele>1599</ele>
        <time>2019-02-03T11:59:23.000Z</time>
      </trkpt>
      <trkpt lat="42.92196" lon="0.59733">
        <ele>1599</ele>
        <time>2019-02-03T11:59:24.000Z</time>
      </trkpt>
      <trkpt lat="42.92196" lon="0.59733">
        <ele>1599</ele>
        <time>2019-02-03T11:59:25.000Z</time>
      </trkpt>
      <trkpt lat="42.92195" lon="0.59733">
        <ele>1600</ele>
        <time>2019-02-03T11:59:26.000Z</time>
      </trkpt>
      <trkpt lat="42.92195" lon="0.59734">
        <ele>1600</ele>
        <time>2019-02-03T11:59:27.000Z</time>
      </trkpt>
      <trkpt lat="42.92194" lon="0.59734">
        <ele>1600</ele>
        <time>2019-02-03T11:59:28.000Z</time>
      </trkpt>
      <trkpt lat="42.92194" lon="0.59734">
        <ele>1600</ele>
        <time>2019-02-03T11:59:29.000Z</time>
      </trkpt>
      <trkpt lat="42.92194" lon="0.59734">
        <ele>1600</ele>
        <time>2019-02-03T11:59:30.000Z</time>
      </trkpt>
      <trkpt lat="42.92193" lon="0.59734">
        <ele>1600.5</ele>
        <time>2019-02-03T11:59:31.000Z</time>
      </trkpt>
      <trkpt lat="42.92193" lon="0.59734">
        <ele>1601</ele>
        <time>2019-02-03T11:59:32.000Z</time>
      </trkpt>
      <trkpt lat="42.92193" lon="0.59734">
        <ele>1601</ele>
        <time>2019-02-03T11:59:33.000Z</time>
      </trkpt>
      <trkpt lat="42.92193" lon="0.59734">
        <ele>1601</ele>
        <time>2019-02-03T11:59:34.000Z</time>
      </trkpt>
      <trkpt lat="42.92192" lon="0.59734">
        <ele>1601</ele>
        <time>2019-02-03T11:59:35.000Z</time>
      </trkpt>
      <trkpt lat="42.92192" lon="0.59734">
        <ele>1601</ele>
        <time>2019-02-03T11:59:36.000Z</time>
      </trkpt>
      <trkpt lat="42.92192" lon="0.59734">
        <ele>1601</ele>
        <time>2019-02-03T11:59:37.000Z</time>
      </trkpt>
      <trkpt lat="42.92192" lon="0.59734">
        <ele>1601</ele>
        <time>2019-02-03T11:59:38.000Z</time>
      </trkpt>
      <trkpt lat="42.92192" lon="0.59734">
        <ele>1601</ele>
        <time>2019-02-03T11:59:39.000Z</time>
      </trkpt>
      <trkpt lat="42.92191" lon="0.59734">
        <ele>1601</ele>
        <time>2019-02-03T11:59:40.000Z</time>
      </trkpt>
      <trkpt lat="42.92191" lon="0.59734">
        <ele>1601</ele>
        <time>2019-02-03T11:59:41.000Z</time>
      </trkpt>
      <trkpt lat="42.92191" lon="0.59734">
        <ele>1601</ele>
        <time>2019-02-03T11:59:42.000Z</time>
      </trkpt>
      <trkpt lat="42.9219" lon="0.59734">
        <ele>1601</ele>
        <time>2019-02-03T11:59:43.000Z</time>
      </trkpt>
      <trkpt lat="42.9219" lon="0.59734">
        <ele>1601.5</ele>
        <time>2019-02-03T11:59:44.000Z</time>
      </trkpt>
      <trkpt lat="42.92189" lon="0.59734">
        <ele>1602</ele>
        <time>2019-02-03T11:59:45.000Z</time>
      </trkpt>
      <trkpt lat="42.92189" lon="0.59734">
        <ele>1602</ele>
        <time>2019-02-03T11:59:46.000Z</time>
      </trkpt>
      <trkpt lat="42.92188" lon="0.59734">
        <ele>1602</ele>
        <time>2019-02-03T11:59:47.000Z</time>
      </trkpt>
      <trkpt lat="42.92188" lon="0.59734">
        <ele>1602</ele>
        <time>2019-02-03T11:59:48.000Z</time>
      </trkpt>
      <trkpt lat="42.92188" lon="0.59734">
        <ele>1602</ele>
        <time>2019-02-03T11:59:49.000Z</time>
      </trkpt>
      <trkpt lat="42.92188" lon="0.59735">
        <ele>1602</ele>
        <time>2019-02-03T11:59:50.000Z</time>
      </trkpt>
      <trkpt lat="42.92188" lon="0.59735">
        <ele>1602</ele>
        <time>2019-02-03T11:59:51.000Z</time>
      </trkpt>
      <trkpt lat="42.92188" lon="0.59735">
        <ele>1602</ele>
        <time>2019-02-03T11:59:52.000Z</time>
      </trkpt>
      <trkpt lat="42.92187" lon="0.59735">
        <ele>1602</ele>
        <time>2019-02-03T11:59:53.000Z</time>
      </trkpt>
      <trkpt lat="42.92187" lon="0.59736">
        <ele>1602</ele>
        <time>2019-02-03T11:59:54.000Z</time>
      </trkpt>
      <trkpt lat="42.92186" lon="0.59736">
        <ele>1602</ele>
        <time>2019-02-03T11:59:55.000Z</time>
      </trkpt>
      <trkpt lat="42.92185" lon="0.59737">
        <ele>1602.5</ele>
        <time>2019-02-03T11:59:56.000Z</time>
      </trkpt>
      <trkpt lat="42.92185" lon="0.59737">
        <ele>1603</ele>
        <time>2019-02-03T11:59:57.000Z</time>
      </trkpt>
      <trkpt lat="42.92184" lon="0.59737">
        <ele>1603</ele>
        <time>2019-02-03T11:59:58.000Z</time>
      </trkpt>
      <trkpt lat="42.92184" lon="0.59737">
        <ele>1603</ele>
        <time>2019-02-03T11:59:59.000Z</time>
      </trkpt>
      <trkpt lat="42.92184" lon="0.59737">
        <ele>1603</ele>
        <time>2019-02-03T12:00:00.000Z</time>
      </trkpt>
      <trkpt lat="42.92184" lon="0.59738">
        <ele>1603</ele>
        <time>2019-02-03T12:00:01.000Z</time>
      </trkpt>
      <trkpt lat="42.92184" lon="0.59738">
        <ele>1603</ele>
        <time>2019-02-03T12:00:02.000Z</time>
      </trkpt>
      <trkpt lat="42.92183" lon="0.59738">
        <ele>1603</ele>
        <time>2019-02-03T12:00:03.000Z</time>
      </trkpt>
      <trkpt lat="42.92183" lon="0.59738">
        <ele>1603</ele>
        <time>2019-02-03T12:00:04.000Z</time>
      </trkpt>
      <trkpt lat="42.92183" lon="0.59738">
        <ele>1603</ele>
        <time>2019-02-03T12:00:05.000Z</time>
      </trkpt>
      <trkpt lat="42.92182" lon="0.59738">
        <ele>1603</ele>
        <time>2019-02-03T12:00:06.000Z</time>
      </trkpt>
      <trkpt lat="42.92182" lon="0.59738">
        <ele>1603</ele>
        <time>2019-02-03T12:00:07.000Z</time>
      </trkpt>
      <trkpt lat="42.92182" lon="0.59738">
        <ele>1603.5</ele>
        <time>2019-02-03T12:00:08.000Z</time>
      </trkpt>
      <trkpt lat="42.92181" lon="0.59739">
        <ele>1604</ele>
        <time>2019-02-03T12:00:09.000Z</time>
      </trkpt>
      <trkpt lat="42.92181" lon="0.59739">
        <ele>1604</ele>
        <time>2019-02-03T12:00:10.000Z</time>
      </trkpt>
      <trkpt lat="42.92181" lon="0.59739">
        <ele>1604</ele>
        <time>2019-02-03T12:00:11.000Z</time>
      </trkpt>
      <trkpt lat="42.92181" lon="0.59739">
        <ele>1604</ele>
        <time>2019-02-03T12:00:12.000Z</time>
      </trkpt>
      <trkpt lat="42.92181" lon="0.59739">
        <ele>1604</ele>
        <time>2019-02-03T12:00:13.000Z</time>
      </trkpt>
      <trkpt lat="42.92181" lon="0.59739">
        <ele>1604.5</ele>
        <time>2019-02-03T12:00:14.000Z</time>
      </trkpt>
      <trkpt lat="42.9218" lon="0.59739">
        <ele>1605</ele>
        <time>2019-02-03T12:00:15.000Z</time>
      </trkpt>
      <trkpt lat="42.9218" lon="0.59739">
        <ele>1605</ele>
        <time>2019-02-03T12:00:16.000Z</time>
      </trkpt>
      <trkpt lat="42.9218" lon="0.59739">
        <ele>1605</ele>
        <time>2019-02-03T12:00:17.000Z</time>
      </trkpt>
      <trkpt lat="42.9218" lon="0.59739">
        <ele>1605</ele>
        <time>2019-02-03T12:00:18.000Z</time>
      </trkpt>
      <trkpt lat="42.9218" lon="0.59739">
        <ele>1605</ele>
        <time>2019-02-03T12:00:19.000Z</time>
      </trkpt>
      <trkpt lat="42.9218" lon="0.59739">
        <ele>1605</ele>
        <time>2019-02-03T12:00:20.000Z</time>
      </trkpt>
      <trkpt lat="42.9218" lon="0.59739">
        <ele>1605</ele>
        <time>2019-02-03T12:00:21.000Z</time>
      </trkpt>
      <trkpt lat="42.9218" lon="0.59739">
        <ele>1605</ele>
        <time>2019-02-03T12:00:22.000Z</time>
      </trkpt>
      <trkpt lat="42.9218" lon="0.5974">
        <ele>1605</ele>
        <time>2019-02-03T12:00:23.000Z</time>
      </trkpt>
      <trkpt lat="42.9218" lon="0.5974">
        <ele>1605</ele>
        <time>2019-02-03T12:00:24.000Z</time>
      </trkpt>
      <trkpt lat="42.92179" lon="0.59741">
        <ele>1605</ele>
        <time>2019-02-03T12:00:25.000Z</time>
      </trkpt>
      <trkpt lat="42.92178" lon="0.59742">
        <ele>1605</ele>
        <time>2019-02-03T12:00:26.000Z</time>
      </trkpt>
      <trkpt lat="42.92177" lon="0.59743">
        <ele>1605</ele>
        <time>2019-02-03T12:00:27.000Z</time>
      </trkpt>
      <trkpt lat="42.92177" lon="0.59743">
        <ele>1605</ele>
        <time>2019-02-03T12:00:28.000Z</time>
      </trkpt>
      <trkpt lat="42.92177" lon="0.59743">
        <ele>1605</ele>
        <time>2019-02-03T12:00:29.000Z</time>
      </trkpt>
      <trkpt lat="42.92177" lon="0.59743">
        <ele>1605</ele>
        <time>2019-02-03T12:00:30.000Z</time>
      </trkpt>
      <trkpt lat="42.92177" lon="0.59743">
        <ele>1605</ele>
        <time>2019-02-03T12:00:31.000Z</time>
      </trkpt>
      <trkpt lat="42.92176" lon="0.59743">
        <ele>1605</ele>
        <time>2019-02-03T12:00:32.000Z</time>
      </trkpt>
      <trkpt lat="42.92176" lon="0.59743">
        <ele>1605</ele>
        <time>2019-02-03T12:00:33.000Z</time>
      </trkpt>
      <trkpt lat="42.92176" lon="0.59744">
        <ele>1605</ele>
        <time>2019-02-03T12:00:34.000Z</time>
      </trkpt>
      <trkpt lat="42.92176" lon="0.59744">
        <ele>1605</ele>
        <time>2019-02-03T12:00:35.000Z</time>
      </trkpt>
      <trkpt lat="42.92176" lon="0.59744">
        <ele>1605</ele>
        <time>2019-02-03T12:00:36.000Z</time>
      </trkpt>
      <trkpt lat="42.92176" lon="0.59744">
        <ele>1605</ele>
        <time>2019-02-03T12:00:37.000Z</time>
      </trkpt>
      <trkpt lat="42.92176" lon="0.59744">
        <ele>1605</ele>
        <time>2019-02-03T12:00:38.000Z</time>
      </trkpt>
      <trkpt lat="42.92176" lon="0.59744">
        <ele>1605</ele>
        <time>2019-02-03T12:00:39.000Z</time>
      </trkpt>
      <trkpt lat="42.92176" lon="0.59744">
        <ele>1605</ele>
        <time>2019-02-03T12:00:40.000Z</time>
      </trkpt>
      <trkpt lat="42.92176" lon="0.59744">
        <ele>1605</ele>
        <time>2019-02-03T12:00:41.000Z</time>
      </trkpt>
      <trkpt lat="42.92176" lon="0.59744">
        <ele>1604.5</ele>
        <time>2019-02-03T12:00:42.000Z</time>
      </trkpt>
      <trkpt lat="42.92176" lon="0.59744">
        <ele>1604</ele>
        <time>2019-02-03T12:00:43.000Z</time>
      </trkpt>
      <trkpt lat="42.92176" lon="0.59744">
        <ele>1604</ele>
        <time>2019-02-03T12:00:44.000Z</time>
      </trkpt>
      <trkpt lat="42.92176" lon="0.59744">
        <ele>1604.3</ele>
        <time>2019-02-03T12:00:45.000Z</time>
      </trkpt>
      <trkpt lat="42.92175" lon="0.59744">
        <ele>1604.7</ele>
        <time>2019-02-03T12:00:46.000Z</time>
      </trkpt>
      <trkpt lat="42.92175" lon="0.59745">
        <ele>1605</ele>
        <time>2019-02-03T12:00:47.000Z</time>
      </trkpt>
      <trkpt lat="42.92174" lon="0.59745">
        <ele>1605</ele>
        <time>2019-02-03T12:00:48.000Z</time>
      </trkpt>
      <trkpt lat="42.92174" lon="0.59745">
        <ele>1605</ele>
        <time>2019-02-03T12:00:49.000Z</time>
      </trkpt>
      <trkpt lat="42.92174" lon="0.59745">
        <ele>1605</ele>
        <time>2019-02-03T12:00:50.000Z</time>
      </trkpt>
      <trkpt lat="42.92173" lon="0.59745">
        <ele>1605</ele>
        <time>2019-02-03T12:00:51.000Z</time>
      </trkpt>
      <trkpt lat="42.92173" lon="0.59746">
        <ele>1605</ele>
        <time>2019-02-03T12:00:52.000Z</time>
      </trkpt>
      <trkpt lat="42.92172" lon="0.59746">
        <ele>1605</ele>
        <time>2019-02-03T12:00:53.000Z</time>
      </trkpt>
      <trkpt lat="42.92172" lon="0.59746">
        <ele>1605</ele>
        <time>2019-02-03T12:00:54.000Z</time>
      </trkpt>
      <trkpt lat="42.92172" lon="0.59746">
        <ele>1605</ele>
        <time>2019-02-03T12:00:55.000Z</time>
      </trkpt>
      <trkpt lat="42.92171" lon="0.59746">
        <ele>1605</ele>
        <time>2019-02-03T12:00:56.000Z</time>
      </trkpt>
      <trkpt lat="42.92171" lon="0.59746">
        <ele>1605</ele>
        <time>2019-02-03T12:00:57.000Z</time>
      </trkpt>
      <trkpt lat="42.92171" lon="0.59746">
        <ele>1605</ele>
        <time>2019-02-03T12:00:58.000Z</time>
      </trkpt>
      <trkpt lat="42.92171" lon="0.59746">
        <ele>1605.3</ele>
        <time>2019-02-03T12:00:59.000Z</time>
      </trkpt>
      <trkpt lat="42.9217" lon="0.59746">
        <ele>1605.7</ele>
        <time>2019-02-03T12:01:00.000Z</time>
      </trkpt>
      <trkpt lat="42.9217" lon="0.59747">
        <ele>1606</ele>
        <time>2019-02-03T12:01:01.000Z</time>
      </trkpt>
      <trkpt lat="42.9217" lon="0.59747">
        <ele>1606</ele>
        <time>2019-02-03T12:01:02.000Z</time>
      </trkpt>
      <trkpt lat="42.92171" lon="0.59747">
        <ele>1606</ele>
        <time>2019-02-03T12:01:03.000Z</time>
      </trkpt>
      <trkpt lat="42.92171" lon="0.59747">
        <ele>1606</ele>
        <time>2019-02-03T12:01:04.000Z</time>
      </trkpt>
      <trkpt lat="42.9217" lon="0.59747">
        <ele>1606</ele>
        <time>2019-02-03T12:01:05.000Z</time>
      </trkpt>
      <trkpt lat="42.9217" lon="0.59747">
        <ele>1606</ele>
        <time>2019-02-03T12:01:06.000Z</time>
      </trkpt>
      <trkpt lat="42.9217" lon="0.59748">
        <ele>1606.3</ele>
        <time>2019-02-03T12:01:07.000Z</time>
      </trkpt>
      <trkpt lat="42.92169" lon="0.59748">
        <ele>1606.7</ele>
        <time>2019-02-03T12:01:08.000Z</time>
      </trkpt>
      <trkpt lat="42.92169" lon="0.59748">
        <ele>1607</ele>
        <time>2019-02-03T12:01:09.000Z</time>
      </trkpt>
      <trkpt lat="42.92168" lon="0.59749">
        <ele>1607</ele>
        <time>2019-02-03T12:01:10.000Z</time>
      </trkpt>
      <trkpt lat="42.92168" lon="0.59749">
        <ele>1607</ele>
        <time>2019-02-03T12:01:11.000Z</time>
      </trkpt>
      <trkpt lat="42.92167" lon="0.5975">
        <ele>1607</ele>
        <time>2019-02-03T12:01:12.000Z</time>
      </trkpt>
      <trkpt lat="42.92167" lon="0.5975">
        <ele>1607.3</ele>
        <time>2019-02-03T12:01:13.000Z</time>
      </trkpt>
      <trkpt lat="42.92167" lon="0.5975">
        <ele>1607.7</ele>
        <time>2019-02-03T12:01:14.000Z</time>
      </trkpt>
      <trkpt lat="42.92166" lon="0.59751">
        <ele>1608</ele>
        <time>2019-02-03T12:01:15.000Z</time>
      </trkpt>
      <trkpt lat="42.92166" lon="0.59751">
        <ele>1608</ele>
        <time>2019-02-03T12:01:16.000Z</time>
      </trkpt>
      <trkpt lat="42.92166" lon="0.59751">
        <ele>1608</ele>
        <time>2019-02-03T12:01:17.000Z</time>
      </trkpt>
      <trkpt lat="42.92165" lon="0.59752">
        <ele>1608</ele>
        <time>2019-02-03T12:01:18.000Z</time>
      </trkpt>
      <trkpt lat="42.92165" lon="0.59752">
        <ele>1608</ele>
        <time>2019-02-03T12:01:19.000Z</time>
      </trkpt>
      <trkpt lat="42.92165" lon="0.59752">
        <ele>1608</ele>
        <time>2019-02-03T12:01:20.000Z</time>
      </trkpt>
      <trkpt lat="42.92164" lon="0.59753">
        <ele>1608</ele>
        <time>2019-02-03T12:01:21.000Z</time>
      </trkpt>
      <trkpt lat="42.92164" lon="0.59753">
        <ele>1608.5</ele>
        <time>2019-02-03T12:01:22.000Z</time>
      </trkpt>
      <trkpt lat="42.92163" lon="0.59753">
        <ele>1609</ele>
        <time>2019-02-03T12:01:23.000Z</time>
      </trkpt>
      <trkpt lat="42.92163" lon="0.59753">
        <ele>1609</ele>
        <time>2019-02-03T12:01:24.000Z</time>
      </trkpt>
      <trkpt lat="42.92162" lon="0.59754">
        <ele>1609</ele>
        <time>2019-02-03T12:01:25.000Z</time>
      </trkpt>
      <trkpt lat="42.92162" lon="0.59754">
        <ele>1609</ele>
        <time>2019-02-03T12:01:26.000Z</time>
      </trkpt>
      <trkpt lat="42.92162" lon="0.59754">
        <ele>1609</ele>
        <time>2019-02-03T12:01:27.000Z</time>
      </trkpt>
      <trkpt lat="42.92161" lon="0.59754">
        <ele>1609</ele>
        <time>2019-02-03T12:01:28.000Z</time>
      </trkpt>
      <trkpt lat="42.92161" lon="0.59755">
        <ele>1609</ele>
        <time>2019-02-03T12:01:29.000Z</time>
      </trkpt>
      <trkpt lat="42.9216" lon="0.59755">
        <ele>1609.5</ele>
        <time>2019-02-03T12:01:30.000Z</time>
      </trkpt>
      <trkpt lat="42.9216" lon="0.59755">
        <ele>1610</ele>
        <time>2019-02-03T12:01:31.000Z</time>
      </trkpt>
      <trkpt lat="42.92159" lon="0.59755">
        <ele>1610</ele>
        <time>2019-02-03T12:01:32.000Z</time>
      </trkpt>
      <trkpt lat="42.92159" lon="0.59755">
        <ele>1610</ele>
        <time>2019-02-03T12:01:33.000Z</time>
      </trkpt>
      <trkpt lat="42.92158" lon="0.59756">
        <ele>1610</ele>
        <time>2019-02-03T12:01:34.000Z</time>
      </trkpt>
      <trkpt lat="42.92158" lon="0.59756">
        <ele>1610</ele>
        <time>2019-02-03T12:01:35.000Z</time>
      </trkpt>
      <trkpt lat="42.92158" lon="0.59756">
        <ele>1610</ele>
        <time>2019-02-03T12:01:36.000Z</time>
      </trkpt>
      <trkpt lat="42.92157" lon="0.59756">
        <ele>1610</ele>
        <time>2019-02-03T12:01:37.000Z</time>
      </trkpt>
      <trkpt lat="42.92157" lon="0.59756">
        <ele>1610</ele>
        <time>2019-02-03T12:01:38.000Z</time>
      </trkpt>
      <trkpt lat="42.92157" lon="0.59756">
        <ele>1610</ele>
        <time>2019-02-03T12:01:39.000Z</time>
      </trkpt>
      <trkpt lat="42.92156" lon="0.59756">
        <ele>1610.5</ele>
        <time>2019-02-03T12:01:40.000Z</time>
      </trkpt>
      <trkpt lat="42.92156" lon="0.59756">
        <ele>1611</ele>
        <time>2019-02-03T12:01:41.000Z</time>
      </trkpt>
      <trkpt lat="42.92156" lon="0.59756">
        <ele>1611</ele>
        <time>2019-02-03T12:01:42.000Z</time>
      </trkpt>
      <trkpt lat="42.92156" lon="0.59756">
        <ele>1611</ele>
        <time>2019-02-03T12:01:43.000Z</time>
      </trkpt>
      <trkpt lat="42.92155" lon="0.59756">
        <ele>1611</ele>
        <time>2019-02-03T12:01:44.000Z</time>
      </trkpt>
      <trkpt lat="42.92155" lon="0.59756">
        <ele>1611</ele>
        <time>2019-02-03T12:01:45.000Z</time>
      </trkpt>
      <trkpt lat="42.92155" lon="0.59756">
        <ele>1611</ele>
        <time>2019-02-03T12:01:46.000Z</time>
      </trkpt>
      <trkpt lat="42.92155" lon="0.59756">
        <ele>1611</ele>
        <time>2019-02-03T12:01:47.000Z</time>
      </trkpt>
      <trkpt lat="42.92155" lon="0.59756">
        <ele>1611</ele>
        <time>2019-02-03T12:01:48.000Z</time>
      </trkpt>
      <trkpt lat="42.92155" lon="0.59756">
        <ele>1611</ele>
        <time>2019-02-03T12:01:49.000Z</time>
      </trkpt>
      <trkpt lat="42.92155" lon="0.59756">
        <ele>1611.5</ele>
        <time>2019-02-03T12:01:50.000Z</time>
      </trkpt>
      <trkpt lat="42.92154" lon="0.59756">
        <ele>1612</ele>
        <time>2019-02-03T12:01:51.000Z</time>
      </trkpt>
      <trkpt lat="42.92154" lon="0.59756">
        <ele>1612</ele>
        <time>2019-02-03T12:01:52.000Z</time>
      </trkpt>
      <trkpt lat="42.92154" lon="0.59756">
        <ele>1612</ele>
        <time>2019-02-03T12:01:53.000Z</time>
      </trkpt>
      <trkpt lat="42.92154" lon="0.59756">
        <ele>1612</ele>
        <time>2019-02-03T12:01:54.000Z</time>
      </trkpt>
      <trkpt lat="42.92154" lon="0.59756">
        <ele>1612</ele>
        <time>2019-02-03T12:01:55.000Z</time>
      </trkpt>
      <trkpt lat="42.92154" lon="0.59756">
        <ele>1612</ele>
        <time>2019-02-03T12:01:56.000Z</time>
      </trkpt>
      <trkpt lat="42.92154" lon="0.59756">
        <ele>1612</ele>
        <time>2019-02-03T12:01:57.000Z</time>
      </trkpt>
      <trkpt lat="42.92154" lon="0.59756">
        <ele>1612.5</ele>
        <time>2019-02-03T12:01:58.000Z</time>
      </trkpt>
      <trkpt lat="42.92154" lon="0.59756">
        <ele>1613</ele>
        <time>2019-02-03T12:01:59.000Z</time>
      </trkpt>
      <trkpt lat="42.92154" lon="0.59756">
        <ele>1613</ele>
        <time>2019-02-03T12:02:00.000Z</time>
      </trkpt>
      <trkpt lat="42.92154" lon="0.59756">
        <ele>1613</ele>
        <time>2019-02-03T12:02:01.000Z</time>
      </trkpt>
      <trkpt lat="42.92154" lon="0.59756">
        <ele>1613</ele>
        <time>2019-02-03T12:02:02.000Z</time>
      </trkpt>
      <trkpt lat="42.92154" lon="0.59756">
        <ele>1613</ele>
        <time>2019-02-03T12:02:03.000Z</time>
      </trkpt>
      <trkpt lat="42.92154" lon="0.59756">
        <ele>1613</ele>
        <time>2019-02-03T12:02:04.000Z</time>
      </trkpt>
      <trkpt lat="42.92154" lon="0.59756">
        <ele>1613</ele>
        <time>2019-02-03T12:02:05.000Z</time>
      </trkpt>
      <trkpt lat="42.92154" lon="0.59756">
        <ele>1613</ele>
        <time>2019-02-03T12:02:06.000Z</time>
      </trkpt>
      <trkpt lat="42.92154" lon="0.59756">
        <ele>1613</ele>
        <time>2019-02-03T12:02:07.000Z</time>
      </trkpt>
      <trkpt lat="42.92153" lon="0.59757">
        <ele>1613.5</ele>
        <time>2019-02-03T12:02:08.000Z</time>
      </trkpt>
      <trkpt lat="42.92152" lon="0.59758">
        <ele>1614</ele>
        <time>2019-02-03T12:02:09.000Z</time>
      </trkpt>
      <trkpt lat="42.92151" lon="0.59759">
        <ele>1614</ele>
        <time>2019-02-03T12:02:10.000Z</time>
      </trkpt>
      <trkpt lat="42.92149" lon="0.59759">
        <ele>1614</ele>
        <time>2019-02-03T12:02:11.000Z</time>
      </trkpt>
      <trkpt lat="42.92148" lon="0.5976">
        <ele>1614</ele>
        <time>2019-02-03T12:02:12.000Z</time>
      </trkpt>
      <trkpt lat="42.92147" lon="0.59761">
        <ele>1614</ele>
        <time>2019-02-03T12:02:13.000Z</time>
      </trkpt>
      <trkpt lat="42.92146" lon="0.59761">
        <ele>1614</ele>
        <time>2019-02-03T12:02:14.000Z</time>
      </trkpt>
      <trkpt lat="42.92146" lon="0.59761">
        <ele>1614</ele>
        <time>2019-02-03T12:02:15.000Z</time>
      </trkpt>
      <trkpt lat="42.92145" lon="0.59762">
        <ele>1614</ele>
        <time>2019-02-03T12:02:16.000Z</time>
      </trkpt>
      <trkpt lat="42.92145" lon="0.59762">
        <ele>1614</ele>
        <time>2019-02-03T12:02:17.000Z</time>
      </trkpt>
      <trkpt lat="42.92145" lon="0.59762">
        <ele>1614</ele>
        <time>2019-02-03T12:02:18.000Z</time>
      </trkpt>
      <trkpt lat="42.92145" lon="0.59762">
        <ele>1614</ele>
        <time>2019-02-03T12:02:19.000Z</time>
      </trkpt>
      <trkpt lat="42.92145" lon="0.59762">
        <ele>1614.5</ele>
        <time>2019-02-03T12:02:20.000Z</time>
      </trkpt>
      <trkpt lat="42.92144" lon="0.59762">
        <ele>1615</ele>
        <time>2019-02-03T12:02:21.000Z</time>
      </trkpt>
      <trkpt lat="42.92144" lon="0.59762">
        <ele>1615</ele>
        <time>2019-02-03T12:02:22.000Z</time>
      </trkpt>
      <trkpt lat="42.92144" lon="0.59762">
        <ele>1615</ele>
        <time>2019-02-03T12:02:23.000Z</time>
      </trkpt>
      <trkpt lat="42.92144" lon="0.59762">
        <ele>1615</ele>
        <time>2019-02-03T12:02:24.000Z</time>
      </trkpt>
      <trkpt lat="42.92144" lon="0.59762">
        <ele>1615</ele>
        <time>2019-02-03T12:02:25.000Z</time>
      </trkpt>
      <trkpt lat="42.92144" lon="0.59762">
        <ele>1615.5</ele>
        <time>2019-02-03T12:02:26.000Z</time>
      </trkpt>
      <trkpt lat="42.92144" lon="0.59762">
        <ele>1616</ele>
        <time>2019-02-03T12:02:27.000Z</time>
      </trkpt>
      <trkpt lat="42.92144" lon="0.59762">
        <ele>1616</ele>
        <time>2019-02-03T12:02:28.000Z</time>
      </trkpt>
      <trkpt lat="42.92144" lon="0.59763">
        <ele>1616</ele>
        <time>2019-02-03T12:02:29.000Z</time>
      </trkpt>
      <trkpt lat="42.92143" lon="0.59763">
        <ele>1616</ele>
        <time>2019-02-03T12:02:30.000Z</time>
      </trkpt>
      <trkpt lat="42.92142" lon="0.59763">
        <ele>1616.3</ele>
        <time>2019-02-03T12:02:31.000Z</time>
      </trkpt>
      <trkpt lat="42.92141" lon="0.59764">
        <ele>1616.7</ele>
        <time>2019-02-03T12:02:32.000Z</time>
      </trkpt>
      <trkpt lat="42.9214" lon="0.59764">
        <ele>1617</ele>
        <time>2019-02-03T12:02:33.000Z</time>
      </trkpt>
      <trkpt lat="42.9214" lon="0.59764">
        <ele>1617</ele>
        <time>2019-02-03T12:02:34.000Z</time>
      </trkpt>
      <trkpt lat="42.92139" lon="0.59765">
        <ele>1617</ele>
        <time>2019-02-03T12:02:35.000Z</time>
      </trkpt>
      <trkpt lat="42.92138" lon="0.59765">
        <ele>1617</ele>
        <time>2019-02-03T12:02:36.000Z</time>
      </trkpt>
      <trkpt lat="42.92138" lon="0.59765">
        <ele>1617</ele>
        <time>2019-02-03T12:02:37.000Z</time>
      </trkpt>
      <trkpt lat="42.92138" lon="0.59765">
        <ele>1617</ele>
        <time>2019-02-03T12:02:38.000Z</time>
      </trkpt>
      <trkpt lat="42.92138" lon="0.59765">
        <ele>1617</ele>
        <time>2019-02-03T12:02:39.000Z</time>
      </trkpt>
      <trkpt lat="42.92137" lon="0.59765">
        <ele>1617</ele>
        <time>2019-02-03T12:02:40.000Z</time>
      </trkpt>
      <trkpt lat="42.92137" lon="0.59765">
        <ele>1617.5</ele>
        <time>2019-02-03T12:02:41.000Z</time>
      </trkpt>
      <trkpt lat="42.92136" lon="0.59766">
        <ele>1618</ele>
        <time>2019-02-03T12:02:42.000Z</time>
      </trkpt>
      <trkpt lat="42.92136" lon="0.59766">
        <ele>1618</ele>
        <time>2019-02-03T12:02:43.000Z</time>
      </trkpt>
      <trkpt lat="42.92135" lon="0.59766">
        <ele>1618</ele>
        <time>2019-02-03T12:02:44.000Z</time>
      </trkpt>
      <trkpt lat="42.92135" lon="0.59766">
        <ele>1618</ele>
        <time>2019-02-03T12:02:45.000Z</time>
      </trkpt>
      <trkpt lat="42.92135" lon="0.59766">
        <ele>1618.5</ele>
        <time>2019-02-03T12:02:46.000Z</time>
      </trkpt>
      <trkpt lat="42.92134" lon="0.59766">
        <ele>1619</ele>
        <time>2019-02-03T12:02:47.000Z</time>
      </trkpt>
      <trkpt lat="42.92134" lon="0.59766">
        <ele>1619</ele>
        <time>2019-02-03T12:02:48.000Z</time>
      </trkpt>
      <trkpt lat="42.92134" lon="0.59766">
        <ele>1619</ele>
        <time>2019-02-03T12:02:49.000Z</time>
      </trkpt>
      <trkpt lat="42.92134" lon="0.59766">
        <ele>1619</ele>
        <time>2019-02-03T12:02:50.000Z</time>
      </trkpt>
      <trkpt lat="42.92134" lon="0.59766">
        <ele>1619</ele>
        <time>2019-02-03T12:02:51.000Z</time>
      </trkpt>
      <trkpt lat="42.92134" lon="0.59766">
        <ele>1619</ele>
        <time>2019-02-03T12:02:52.000Z</time>
      </trkpt>
      <trkpt lat="42.92134" lon="0.59766">
        <ele>1619</ele>
        <time>2019-02-03T12:02:53.000Z</time>
      </trkpt>
      <trkpt lat="42.92134" lon="0.59766">
        <ele>1619</ele>
        <time>2019-02-03T12:02:54.000Z</time>
      </trkpt>
      <trkpt lat="42.92133" lon="0.59766">
        <ele>1619</ele>
        <time>2019-02-03T12:02:55.000Z</time>
      </trkpt>
      <trkpt lat="42.92133" lon="0.59766">
        <ele>1619</ele>
        <time>2019-02-03T12:02:56.000Z</time>
      </trkpt>
      <trkpt lat="42.92132" lon="0.59766">
        <ele>1619</ele>
        <time>2019-02-03T12:02:57.000Z</time>
      </trkpt>
      <trkpt lat="42.92131" lon="0.59766">
        <ele>1619</ele>
        <time>2019-02-03T12:02:58.000Z</time>
      </trkpt>
      <trkpt lat="42.92131" lon="0.59765">
        <ele>1619</ele>
        <time>2019-02-03T12:02:59.000Z</time>
      </trkpt>
      <trkpt lat="42.9213" lon="0.59765">
        <ele>1619</ele>
        <time>2019-02-03T12:03:00.000Z</time>
      </trkpt>
      <trkpt lat="42.92129" lon="0.59765">
        <ele>1619</ele>
        <time>2019-02-03T12:03:01.000Z</time>
      </trkpt>
      <trkpt lat="42.92129" lon="0.59765">
        <ele>1620</ele>
        <time>2019-02-03T12:03:02.000Z</time>
      </trkpt>
      <trkpt lat="42.92128" lon="0.59765">
        <ele>1620</ele>
        <time>2019-02-03T12:03:03.000Z</time>
      </trkpt>
      <trkpt lat="42.92128" lon="0.59765">
        <ele>1620</ele>
        <time>2019-02-03T12:03:04.000Z</time>
      </trkpt>
      <trkpt lat="42.92128" lon="0.59765">
        <ele>1620</ele>
        <time>2019-02-03T12:03:05.000Z</time>
      </trkpt>
      <trkpt lat="42.92128" lon="0.59764">
        <ele>1620</ele>
        <time>2019-02-03T12:03:06.000Z</time>
      </trkpt>
      <trkpt lat="42.92128" lon="0.59764">
        <ele>1620</ele>
        <time>2019-02-03T12:03:07.000Z</time>
      </trkpt>
      <trkpt lat="42.92127" lon="0.59765">
        <ele>1620.5</ele>
        <time>2019-02-03T12:03:08.000Z</time>
      </trkpt>
      <trkpt lat="42.92127" lon="0.59765">
        <ele>1621</ele>
        <time>2019-02-03T12:03:09.000Z</time>
      </trkpt>
      <trkpt lat="42.92127" lon="0.59765">
        <ele>1621</ele>
        <time>2019-02-03T12:03:10.000Z</time>
      </trkpt>
      <trkpt lat="42.92127" lon="0.59765">
        <ele>1621</ele>
        <time>2019-02-03T12:03:11.000Z</time>
      </trkpt>
      <trkpt lat="42.92127" lon="0.59765">
        <ele>1621</ele>
        <time>2019-02-03T12:03:12.000Z</time>
      </trkpt>
      <trkpt lat="42.92126" lon="0.59765">
        <ele>1621</ele>
        <time>2019-02-03T12:03:13.000Z</time>
      </trkpt>
      <trkpt lat="42.92126" lon="0.59765">
        <ele>1622</ele>
        <time>2019-02-03T12:03:14.000Z</time>
      </trkpt>
      <trkpt lat="42.92126" lon="0.59765">
        <ele>1622</ele>
        <time>2019-02-03T12:03:15.000Z</time>
      </trkpt>
      <trkpt lat="42.92126" lon="0.59765">
        <ele>1622</ele>
        <time>2019-02-03T12:03:16.000Z</time>
      </trkpt>
      <trkpt lat="42.92126" lon="0.59765">
        <ele>1622</ele>
        <time>2019-02-03T12:03:17.000Z</time>
      </trkpt>
      <trkpt lat="42.92125" lon="0.59765">
        <ele>1622</ele>
        <time>2019-02-03T12:03:18.000Z</time>
      </trkpt>
      <trkpt lat="42.92125" lon="0.59765">
        <ele>1622</ele>
        <time>2019-02-03T12:03:19.000Z</time>
      </trkpt>
      <trkpt lat="42.92125" lon="0.59764">
        <ele>1622</ele>
        <time>2019-02-03T12:03:20.000Z</time>
      </trkpt>
      <trkpt lat="42.92125" lon="0.59764">
        <ele>1622</ele>
        <time>2019-02-03T12:03:21.000Z</time>
      </trkpt>
      <trkpt lat="42.92124" lon="0.59764">
        <ele>1622</ele>
        <time>2019-02-03T12:03:22.000Z</time>
      </trkpt>
      <trkpt lat="42.92124" lon="0.59764">
        <ele>1622</ele>
        <time>2019-02-03T12:03:23.000Z</time>
      </trkpt>
      <trkpt lat="42.92124" lon="0.59764">
        <ele>1622.5</ele>
        <time>2019-02-03T12:03:24.000Z</time>
      </trkpt>
      <trkpt lat="42.92124" lon="0.59764">
        <ele>1623</ele>
        <time>2019-02-03T12:03:25.000Z</time>
      </trkpt>
      <trkpt lat="42.92123" lon="0.59763">
        <ele>1623</ele>
        <time>2019-02-03T12:03:26.000Z</time>
      </trkpt>
      <trkpt lat="42.92123" lon="0.59763">
        <ele>1623</ele>
        <time>2019-02-03T12:03:27.000Z</time>
      </trkpt>
      <trkpt lat="42.92123" lon="0.59763">
        <ele>1623</ele>
        <time>2019-02-03T12:03:28.000Z</time>
      </trkpt>
      <trkpt lat="42.92123" lon="0.59763">
        <ele>1623</ele>
        <time>2019-02-03T12:03:29.000Z</time>
      </trkpt>
      <trkpt lat="42.92123" lon="0.59763">
        <ele>1623.5</ele>
        <time>2019-02-03T12:03:30.000Z</time>
      </trkpt>
      <trkpt lat="42.92122" lon="0.59763">
        <ele>1624</ele>
        <time>2019-02-03T12:03:31.000Z</time>
      </trkpt>
      <trkpt lat="42.92122" lon="0.59763">
        <ele>1624</ele>
        <time>2019-02-03T12:03:32.000Z</time>
      </trkpt>
      <trkpt lat="42.92122" lon="0.59763">
        <ele>1624</ele>
        <time>2019-02-03T12:03:33.000Z</time>
      </trkpt>
      <trkpt lat="42.92122" lon="0.59763">
        <ele>1624</ele>
        <time>2019-02-03T12:03:34.000Z</time>
      </trkpt>
      <trkpt lat="42.92122" lon="0.59763">
        <ele>1624</ele>
        <time>2019-02-03T12:03:35.000Z</time>
      </trkpt>
      <trkpt lat="42.92122" lon="0.59763">
        <ele>1624</ele>
        <time>2019-02-03T12:03:36.000Z</time>
      </trkpt>
      <trkpt lat="42.92122" lon="0.59763">
        <ele>1624</ele>
        <time>2019-02-03T12:03:37.000Z</time>
      </trkpt>
      <trkpt lat="42.92122" lon="0.59763">
        <ele>1624</ele>
        <time>2019-02-03T12:03:38.000Z</time>
      </trkpt>
      <trkpt lat="42.92122" lon="0.59763">
        <ele>1624</ele>
        <time>2019-02-03T12:03:39.000Z</time>
      </trkpt>
      <trkpt lat="42.92122" lon="0.59763">
        <ele>1624</ele>
        <time>2019-02-03T12:03:40.000Z</time>
      </trkpt>
      <trkpt lat="42.92122" lon="0.59763">
        <ele>1624</ele>
        <time>2019-02-03T12:03:41.000Z</time>
      </trkpt>
      <trkpt lat="42.92121" lon="0.59762">
        <ele>1625</ele>
        <time>2019-02-03T12:03:42.000Z</time>
      </trkpt>
      <trkpt lat="42.92121" lon="0.59762">
        <ele>1625</ele>
        <time>2019-02-03T12:03:43.000Z</time>
      </trkpt>
      <trkpt lat="42.92121" lon="0.59761">
        <ele>1625</ele>
        <time>2019-02-03T12:03:44.000Z</time>
      </trkpt>
      <trkpt lat="42.9212" lon="0.59761">
        <ele>1625</ele>
        <time>2019-02-03T12:03:45.000Z</time>
      </trkpt>
      <trkpt lat="42.9212" lon="0.5976">
        <ele>1625</ele>
        <time>2019-02-03T12:03:46.000Z</time>
      </trkpt>
      <trkpt lat="42.9212" lon="0.5976">
        <ele>1625</ele>
        <time>2019-02-03T12:03:47.000Z</time>
      </trkpt>
      <trkpt lat="42.92119" lon="0.59759">
        <ele>1625</ele>
        <time>2019-02-03T12:03:48.000Z</time>
      </trkpt>
      <trkpt lat="42.92119" lon="0.59759">
        <ele>1625</ele>
        <time>2019-02-03T12:03:49.000Z</time>
      </trkpt>
      <trkpt lat="42.92119" lon="0.59758">
        <ele>1625</ele>
        <time>2019-02-03T12:03:50.000Z</time>
      </trkpt>
      <trkpt lat="42.92119" lon="0.59758">
        <ele>1625</ele>
        <time>2019-02-03T12:03:51.000Z</time>
      </trkpt>
      <trkpt lat="42.92119" lon="0.59758">
        <ele>1625</ele>
        <time>2019-02-03T12:03:52.000Z</time>
      </trkpt>
      <trkpt lat="42.92118" lon="0.59758">
        <ele>1625</ele>
        <time>2019-02-03T12:03:53.000Z</time>
      </trkpt>
      <trkpt lat="42.92118" lon="0.59758">
        <ele>1625.5</ele>
        <time>2019-02-03T12:03:54.000Z</time>
      </trkpt>
      <trkpt lat="42.92118" lon="0.59758">
        <ele>1626</ele>
        <time>2019-02-03T12:03:55.000Z</time>
      </trkpt>
      <trkpt lat="42.92118" lon="0.59758">
        <ele>1626</ele>
        <time>2019-02-03T12:03:56.000Z</time>
      </trkpt>
      <trkpt lat="42.92118" lon="0.59757">
        <ele>1626</ele>
        <time>2019-02-03T12:03:57.000Z</time>
      </trkpt>
      <trkpt lat="42.92118" lon="0.59757">
        <ele>1626</ele>
        <time>2019-02-03T12:03:58.000Z</time>
      </trkpt>
      <trkpt lat="42.92118" lon="0.59757">
        <ele>1626</ele>
        <time>2019-02-03T12:03:59.000Z</time>
      </trkpt>
      <trkpt lat="42.92118" lon="0.59757">
        <ele>1626</ele>
        <time>2019-02-03T12:04:00.000Z</time>
      </trkpt>
      <trkpt lat="42.92118" lon="0.59757">
        <ele>1626.3</ele>
        <time>2019-02-03T12:04:01.000Z</time>
      </trkpt>
      <trkpt lat="42.92118" lon="0.59757">
        <ele>1626.7</ele>
        <time>2019-02-03T12:04:02.000Z</time>
      </trkpt>
      <trkpt lat="42.92118" lon="0.59757">
        <ele>1627</ele>
        <time>2019-02-03T12:04:03.000Z</time>
      </trkpt>
      <trkpt lat="42.92118" lon="0.59757">
        <ele>1627</ele>
        <time>2019-02-03T12:04:04.000Z</time>
      </trkpt>
      <trkpt lat="42.92118" lon="0.59757">
        <ele>1627</ele>
        <time>2019-02-03T12:04:05.000Z</time>
      </trkpt>
      <trkpt lat="42.92118" lon="0.59757">
        <ele>1627</ele>
        <time>2019-02-03T12:04:06.000Z</time>
      </trkpt>
      <trkpt lat="42.92118" lon="0.59757">
        <ele>1627</ele>
        <time>2019-02-03T12:04:07.000Z</time>
      </trkpt>
      <trkpt lat="42.92118" lon="0.59757">
        <ele>1627</ele>
        <time>2019-02-03T12:04:08.000Z</time>
      </trkpt>
      <trkpt lat="42.92117" lon="0.59756">
        <ele>1627</ele>
        <time>2019-02-03T12:04:09.000Z</time>
      </trkpt>
      <trkpt lat="42.92117" lon="0.59756">
        <ele>1627</ele>
        <time>2019-02-03T12:04:10.000Z</time>
      </trkpt>
      <trkpt lat="42.92117" lon="0.59755">
        <ele>1627.3</ele>
        <time>2019-02-03T12:04:11.000Z</time>
      </trkpt>
      <trkpt lat="42.92116" lon="0.59754">
        <ele>1627.7</ele>
        <time>2019-02-03T12:04:12.000Z</time>
      </trkpt>
      <trkpt lat="42.92116" lon="0.59754">
        <ele>1628</ele>
        <time>2019-02-03T12:04:13.000Z</time>
      </trkpt>
      <trkpt lat="42.92116" lon="0.59754">
        <ele>1628</ele>
        <time>2019-02-03T12:04:14.000Z</time>
      </trkpt>
      <trkpt lat="42.92116" lon="0.59753">
        <ele>1628</ele>
        <time>2019-02-03T12:04:15.000Z</time>
      </trkpt>
      <trkpt lat="42.92115" lon="0.59753">
        <ele>1628</ele>
        <time>2019-02-03T12:04:16.000Z</time>
      </trkpt>
      <trkpt lat="42.92115" lon="0.59753">
        <ele>1628</ele>
        <time>2019-02-03T12:04:17.000Z</time>
      </trkpt>
      <trkpt lat="42.92115" lon="0.59753">
        <ele>1628</ele>
        <time>2019-02-03T12:04:18.000Z</time>
      </trkpt>
      <trkpt lat="42.92115" lon="0.59753">
        <ele>1628</ele>
        <time>2019-02-03T12:04:19.000Z</time>
      </trkpt>
      <trkpt lat="42.92115" lon="0.59753">
        <ele>1628</ele>
        <time>2019-02-03T12:04:20.000Z</time>
      </trkpt>
      <trkpt lat="42.92115" lon="0.59753">
        <ele>1628</ele>
        <time>2019-02-03T12:04:21.000Z</time>
      </trkpt>
      <trkpt lat="42.92115" lon="0.59752">
        <ele>1629</ele>
        <time>2019-02-03T12:04:22.000Z</time>
      </trkpt>
      <trkpt lat="42.92115" lon="0.59752">
        <ele>1629</ele>
        <time>2019-02-03T12:04:23.000Z</time>
      </trkpt>
      <trkpt lat="42.92114" lon="0.59751">
        <ele>1629</ele>
        <time>2019-02-03T12:04:24.000Z</time>
      </trkpt>
      <trkpt lat="42.92114" lon="0.59751">
        <ele>1629</ele>
        <time>2019-02-03T12:04:25.000Z</time>
      </trkpt>
      <trkpt lat="42.92114" lon="0.5975">
        <ele>1629</ele>
        <time>2019-02-03T12:04:26.000Z</time>
      </trkpt>
      <trkpt lat="42.92113" lon="0.59749">
        <ele>1629</ele>
        <time>2019-02-03T12:04:27.000Z</time>
      </trkpt>
      <trkpt lat="42.92113" lon="0.59749">
        <ele>1629</ele>
        <time>2019-02-03T12:04:28.000Z</time>
      </trkpt>
      <trkpt lat="42.92113" lon="0.59749">
        <ele>1629</ele>
        <time>2019-02-03T12:04:29.000Z</time>
      </trkpt>
      <trkpt lat="42.92113" lon="0.59748">
        <ele>1629</ele>
        <time>2019-02-03T12:04:30.000Z</time>
      </trkpt>
      <trkpt lat="42.92112" lon="0.59748">
        <ele>1629</ele>
        <time>2019-02-03T12:04:31.000Z</time>
      </trkpt>
      <trkpt lat="42.92112" lon="0.59748">
        <ele>1629.5</ele>
        <time>2019-02-03T12:04:32.000Z</time>
      </trkpt>
      <trkpt lat="42.92112" lon="0.59747">
        <ele>1630</ele>
        <time>2019-02-03T12:04:33.000Z</time>
      </trkpt>
      <trkpt lat="42.92112" lon="0.59747">
        <ele>1630</ele>
        <time>2019-02-03T12:04:34.000Z</time>
      </trkpt>
      <trkpt lat="42.92112" lon="0.59747">
        <ele>1630</ele>
        <time>2019-02-03T12:04:35.000Z</time>
      </trkpt>
      <trkpt lat="42.92112" lon="0.59747">
        <ele>1630</ele>
        <time>2019-02-03T12:04:36.000Z</time>
      </trkpt>
      <trkpt lat="42.92112" lon="0.59747">
        <ele>1630</ele>
        <time>2019-02-03T12:04:37.000Z</time>
      </trkpt>
      <trkpt lat="42.92112" lon="0.59747">
        <ele>1630</ele>
        <time>2019-02-03T12:04:38.000Z</time>
      </trkpt>
      <trkpt lat="42.92112" lon="0.59747">
        <ele>1630</ele>
        <time>2019-02-03T12:04:39.000Z</time>
      </trkpt>
      <trkpt lat="42.92112" lon="0.59747">
        <ele>1630</ele>
        <time>2019-02-03T12:04:40.000Z</time>
      </trkpt>
      <trkpt lat="42.92112" lon="0.59747">
        <ele>1630</ele>
        <time>2019-02-03T12:04:41.000Z</time>
      </trkpt>
      <trkpt lat="42.92112" lon="0.59746">
        <ele>1630.5</ele>
        <time>2019-02-03T12:04:42.000Z</time>
      </trkpt>
      <trkpt lat="42.92112" lon="0.59746">
        <ele>1631</ele>
        <time>2019-02-03T12:04:43.000Z</time>
      </trkpt>
      <trkpt lat="42.92112" lon="0.59745">
        <ele>1631</ele>
        <time>2019-02-03T12:04:44.000Z</time>
      </trkpt>
      <trkpt lat="42.92111" lon="0.59745">
        <ele>1631</ele>
        <time>2019-02-03T12:04:45.000Z</time>
      </trkpt>
      <trkpt lat="42.92111" lon="0.59744">
        <ele>1631</ele>
        <time>2019-02-03T12:04:46.000Z</time>
      </trkpt>
      <trkpt lat="42.92111" lon="0.59744">
        <ele>1631.3</ele>
        <time>2019-02-03T12:04:47.000Z</time>
      </trkpt>
      <trkpt lat="42.92111" lon="0.59744">
        <ele>1631.7</ele>
        <time>2019-02-03T12:04:48.000Z</time>
      </trkpt>
      <trkpt lat="42.92111" lon="0.59744">
        <ele>1632</ele>
        <time>2019-02-03T12:04:49.000Z</time>
      </trkpt>
      <trkpt lat="42.92111" lon="0.59744">
        <ele>1632</ele>
        <time>2019-02-03T12:04:50.000Z</time>
      </trkpt>
      <trkpt lat="42.92111" lon="0.59744">
        <ele>1632</ele>
        <time>2019-02-03T12:04:51.000Z</time>
      </trkpt>
      <trkpt lat="42.92111" lon="0.59744">
        <ele>1632</ele>
        <time>2019-02-03T12:04:52.000Z</time>
      </trkpt>
      <trkpt lat="42.92111" lon="0.59743">
        <ele>1632</ele>
        <time>2019-02-03T12:04:53.000Z</time>
      </trkpt>
      <trkpt lat="42.92111" lon="0.59743">
        <ele>1632</ele>
        <time>2019-02-03T12:04:54.000Z</time>
      </trkpt>
      <trkpt lat="42.92111" lon="0.59742">
        <ele>1632</ele>
        <time>2019-02-03T12:04:55.000Z</time>
      </trkpt>
      <trkpt lat="42.9211" lon="0.59742">
        <ele>1632</ele>
        <time>2019-02-03T12:04:56.000Z</time>
      </trkpt>
      <trkpt lat="42.9211" lon="0.59741">
        <ele>1632</ele>
        <time>2019-02-03T12:04:57.000Z</time>
      </trkpt>
      <trkpt lat="42.9211" lon="0.5974">
        <ele>1632</ele>
        <time>2019-02-03T12:04:58.000Z</time>
      </trkpt>
      <trkpt lat="42.9211" lon="0.5974">
        <ele>1632</ele>
        <time>2019-02-03T12:04:59.000Z</time>
      </trkpt>
      <trkpt lat="42.92109" lon="0.5974">
        <ele>1632</ele>
        <time>2019-02-03T12:05:00.000Z</time>
      </trkpt>
      <trkpt lat="42.92109" lon="0.59739">
        <ele>1632</ele>
        <time>2019-02-03T12:05:01.000Z</time>
      </trkpt>
      <trkpt lat="42.92109" lon="0.59739">
        <ele>1632</ele>
        <time>2019-02-03T12:05:02.000Z</time>
      </trkpt>
      <trkpt lat="42.92109" lon="0.59739">
        <ele>1632</ele>
        <time>2019-02-03T12:05:03.000Z</time>
      </trkpt>
      <trkpt lat="42.92109" lon="0.59739">
        <ele>1633</ele>
        <time>2019-02-03T12:05:04.000Z</time>
      </trkpt>
      <trkpt lat="42.92109" lon="0.59739">
        <ele>1633</ele>
        <time>2019-02-03T12:05:05.000Z</time>
      </trkpt>
      <trkpt lat="42.92109" lon="0.59739">
        <ele>1633</ele>
        <time>2019-02-03T12:05:06.000Z</time>
      </trkpt>
      <trkpt lat="42.92109" lon="0.59739">
        <ele>1633</ele>
        <time>2019-02-03T12:05:07.000Z</time>
      </trkpt>
      <trkpt lat="42.92109" lon="0.59739">
        <ele>1633</ele>
        <time>2019-02-03T12:05:08.000Z</time>
      </trkpt>
      <trkpt lat="42.92109" lon="0.59739">
        <ele>1633</ele>
        <time>2019-02-03T12:05:09.000Z</time>
      </trkpt>
      <trkpt lat="42.92109" lon="0.59739">
        <ele>1633.5</ele>
        <time>2019-02-03T12:05:10.000Z</time>
      </trkpt>
      <trkpt lat="42.92109" lon="0.59738">
        <ele>1634</ele>
        <time>2019-02-03T12:05:11.000Z</time>
      </trkpt>
      <trkpt lat="42.92109" lon="0.59737">
        <ele>1634</ele>
        <time>2019-02-03T12:05:12.000Z</time>
      </trkpt>
      <trkpt lat="42.92109" lon="0.59736">
        <ele>1634</ele>
        <time>2019-02-03T12:05:13.000Z</time>
      </trkpt>
      <trkpt lat="42.92109" lon="0.59736">
        <ele>1634</ele>
        <time>2019-02-03T12:05:14.000Z</time>
      </trkpt>
      <trkpt lat="42.92109" lon="0.59735">
        <ele>1634</ele>
        <time>2019-02-03T12:05:15.000Z</time>
      </trkpt>
      <trkpt lat="42.92109" lon="0.59734">
        <ele>1634</ele>
        <time>2019-02-03T12:05:16.000Z</time>
      </trkpt>
      <trkpt lat="42.92109" lon="0.59733">
        <ele>1634</ele>
        <time>2019-02-03T12:05:17.000Z</time>
      </trkpt>
      <trkpt lat="42.92109" lon="0.59733">
        <ele>1634</ele>
        <time>2019-02-03T12:05:18.000Z</time>
      </trkpt>
      <trkpt lat="42.92109" lon="0.59732">
        <ele>1634</ele>
        <time>2019-02-03T12:05:19.000Z</time>
      </trkpt>
      <trkpt lat="42.92109" lon="0.59731">
        <ele>1634.5</ele>
        <time>2019-02-03T12:05:20.000Z</time>
      </trkpt>
      <trkpt lat="42.92108" lon="0.59731">
        <ele>1635</ele>
        <time>2019-02-03T12:05:21.000Z</time>
      </trkpt>
      <trkpt lat="42.92108" lon="0.5973">
        <ele>1635</ele>
        <time>2019-02-03T12:05:22.000Z</time>
      </trkpt>
      <trkpt lat="42.92108" lon="0.5973">
        <ele>1635</ele>
        <time>2019-02-03T12:05:23.000Z</time>
      </trkpt>
      <trkpt lat="42.92108" lon="0.59729">
        <ele>1635</ele>
        <time>2019-02-03T12:05:24.000Z</time>
      </trkpt>
      <trkpt lat="42.92108" lon="0.59729">
        <ele>1635</ele>
        <time>2019-02-03T12:05:25.000Z</time>
      </trkpt>
      <trkpt lat="42.92107" lon="0.59729">
        <ele>1635</ele>
        <time>2019-02-03T12:05:26.000Z</time>
      </trkpt>
      <trkpt lat="42.92107" lon="0.59728">
        <ele>1635.3</ele>
        <time>2019-02-03T12:05:27.000Z</time>
      </trkpt>
      <trkpt lat="42.92107" lon="0.59728">
        <ele>1635.7</ele>
        <time>2019-02-03T12:05:28.000Z</time>
      </trkpt>
      <trkpt lat="42.92107" lon="0.59728">
        <ele>1636</ele>
        <time>2019-02-03T12:05:29.000Z</time>
      </trkpt>
      <trkpt lat="42.92106" lon="0.59727">
        <ele>1636</ele>
        <time>2019-02-03T12:05:30.000Z</time>
      </trkpt>
      <trkpt lat="42.92106" lon="0.59727">
        <ele>1636</ele>
        <time>2019-02-03T12:05:31.000Z</time>
      </trkpt>
      <trkpt lat="42.92106" lon="0.59726">
        <ele>1636</ele>
        <time>2019-02-03T12:05:32.000Z</time>
      </trkpt>
      <trkpt lat="42.92106" lon="0.59726">
        <ele>1636</ele>
        <time>2019-02-03T12:05:33.000Z</time>
      </trkpt>
      <trkpt lat="42.92106" lon="0.59725">
        <ele>1636</ele>
        <time>2019-02-03T12:05:34.000Z</time>
      </trkpt>
      <trkpt lat="42.92105" lon="0.59725">
        <ele>1636</ele>
        <time>2019-02-03T12:05:35.000Z</time>
      </trkpt>
      <trkpt lat="42.92105" lon="0.59724">
        <ele>1636.5</ele>
        <time>2019-02-03T12:05:36.000Z</time>
      </trkpt>
      <trkpt lat="42.92105" lon="0.59724">
        <ele>1637</ele>
        <time>2019-02-03T12:05:37.000Z</time>
      </trkpt>
      <trkpt lat="42.92105" lon="0.59724">
        <ele>1637</ele>
        <time>2019-02-03T12:05:38.000Z</time>
      </trkpt>
      <trkpt lat="42.92105" lon="0.59724">
        <ele>1637</ele>
        <time>2019-02-03T12:05:39.000Z</time>
      </trkpt>
      <trkpt lat="42.92105" lon="0.59724">
        <ele>1637</ele>
        <time>2019-02-03T12:05:40.000Z</time>
      </trkpt>
      <trkpt lat="42.92105" lon="0.59724">
        <ele>1637</ele>
        <time>2019-02-03T12:05:41.000Z</time>
      </trkpt>
      <trkpt lat="42.92105" lon="0.59724">
        <ele>1637</ele>
        <time>2019-02-03T12:05:42.000Z</time>
      </trkpt>
      <trkpt lat="42.92105" lon="0.59723">
        <ele>1637</ele>
        <time>2019-02-03T12:05:43.000Z</time>
      </trkpt>
      <trkpt lat="42.92105" lon="0.59723">
        <ele>1637</ele>
        <time>2019-02-03T12:05:44.000Z</time>
      </trkpt>
      <trkpt lat="42.92104" lon="0.59722">
        <ele>1637</ele>
        <time>2019-02-03T12:05:45.000Z</time>
      </trkpt>
      <trkpt lat="42.92104" lon="0.59722">
        <ele>1637.5</ele>
        <time>2019-02-03T12:05:46.000Z</time>
      </trkpt>
      <trkpt lat="42.92104" lon="0.59721">
        <ele>1638</ele>
        <time>2019-02-03T12:05:47.000Z</time>
      </trkpt>
      <trkpt lat="42.92104" lon="0.5972">
        <ele>1638</ele>
        <time>2019-02-03T12:05:48.000Z</time>
      </trkpt>
      <trkpt lat="42.92104" lon="0.5972">
        <ele>1638</ele>
        <time>2019-02-03T12:05:49.000Z</time>
      </trkpt>
      <trkpt lat="42.92104" lon="0.5972">
        <ele>1638</ele>
        <time>2019-02-03T12:05:50.000Z</time>
      </trkpt>
      <trkpt lat="42.92104" lon="0.5972">
        <ele>1638</ele>
        <time>2019-02-03T12:05:51.000Z</time>
      </trkpt>
      <trkpt lat="42.92104" lon="0.59719">
        <ele>1639</ele>
        <time>2019-02-03T12:05:52.000Z</time>
      </trkpt>
      <trkpt lat="42.92104" lon="0.59719">
        <ele>1639</ele>
        <time>2019-02-03T12:05:53.000Z</time>
      </trkpt>
      <trkpt lat="42.92104" lon="0.59719">
        <ele>1639</ele>
        <time>2019-02-03T12:05:54.000Z</time>
      </trkpt>
      <trkpt lat="42.92103" lon="0.59719">
        <ele>1639</ele>
        <time>2019-02-03T12:05:55.000Z</time>
      </trkpt>
      <trkpt lat="42.92103" lon="0.59719">
        <ele>1639</ele>
        <time>2019-02-03T12:05:56.000Z</time>
      </trkpt>
      <trkpt lat="42.92103" lon="0.59718">
        <ele>1639</ele>
        <time>2019-02-03T12:05:57.000Z</time>
      </trkpt>
      <trkpt lat="42.92103" lon="0.59718">
        <ele>1639</ele>
        <time>2019-02-03T12:05:58.000Z</time>
      </trkpt>
      <trkpt lat="42.92102" lon="0.59717">
        <ele>1639</ele>
        <time>2019-02-03T12:05:59.000Z</time>
      </trkpt>
      <trkpt lat="42.92102" lon="0.59717">
        <ele>1639</ele>
        <time>2019-02-03T12:06:00.000Z</time>
      </trkpt>
      <trkpt lat="42.92102" lon="0.59717">
        <ele>1639</ele>
        <time>2019-02-03T12:06:01.000Z</time>
      </trkpt>
      <trkpt lat="42.92102" lon="0.59716">
        <ele>1639.5</ele>
        <time>2019-02-03T12:06:02.000Z</time>
      </trkpt>
      <trkpt lat="42.92102" lon="0.59716">
        <ele>1640</ele>
        <time>2019-02-03T12:06:03.000Z</time>
      </trkpt>
      <trkpt lat="42.92102" lon="0.59716">
        <ele>1640</ele>
        <time>2019-02-03T12:06:04.000Z</time>
      </trkpt>
      <trkpt lat="42.92102" lon="0.59716">
        <ele>1640</ele>
        <time>2019-02-03T12:06:05.000Z</time>
      </trkpt>
      <trkpt lat="42.92102" lon="0.59716">
        <ele>1640</ele>
        <time>2019-02-03T12:06:06.000Z</time>
      </trkpt>
      <trkpt lat="42.92101" lon="0.59716">
        <ele>1640</ele>
        <time>2019-02-03T12:06:07.000Z</time>
      </trkpt>
      <trkpt lat="42.92101" lon="0.59716">
        <ele>1640</ele>
        <time>2019-02-03T12:06:08.000Z</time>
      </trkpt>
      <trkpt lat="42.92101" lon="0.59716">
        <ele>1640</ele>
        <time>2019-02-03T12:06:09.000Z</time>
      </trkpt>
      <trkpt lat="42.92101" lon="0.59716">
        <ele>1640</ele>
        <time>2019-02-03T12:06:10.000Z</time>
      </trkpt>
      <trkpt lat="42.92101" lon="0.59715">
        <ele>1640</ele>
        <time>2019-02-03T12:06:11.000Z</time>
      </trkpt>
      <trkpt lat="42.92101" lon="0.59715">
        <ele>1640</ele>
        <time>2019-02-03T12:06:12.000Z</time>
      </trkpt>
      <trkpt lat="42.921" lon="0.59715">
        <ele>1640</ele>
        <time>2019-02-03T12:06:13.000Z</time>
      </trkpt>
      <trkpt lat="42.921" lon="0.59715">
        <ele>1640.5</ele>
        <time>2019-02-03T12:06:14.000Z</time>
      </trkpt>
      <trkpt lat="42.921" lon="0.59714">
        <ele>1641</ele>
        <time>2019-02-03T12:06:15.000Z</time>
      </trkpt>
      <trkpt lat="42.921" lon="0.59714">
        <ele>1641</ele>
        <time>2019-02-03T12:06:16.000Z</time>
      </trkpt>
      <trkpt lat="42.92099" lon="0.59714">
        <ele>1641</ele>
        <time>2019-02-03T12:06:17.000Z</time>
      </trkpt>
      <trkpt lat="42.92099" lon="0.59713">
        <ele>1641</ele>
        <time>2019-02-03T12:06:18.000Z</time>
      </trkpt>
      <trkpt lat="42.92099" lon="0.59713">
        <ele>1641</ele>
        <time>2019-02-03T12:06:19.000Z</time>
      </trkpt>
      <trkpt lat="42.92098" lon="0.59712">
        <ele>1641</ele>
        <time>2019-02-03T12:06:20.000Z</time>
      </trkpt>
      <trkpt lat="42.92098" lon="0.59712">
        <ele>1641</ele>
        <time>2019-02-03T12:06:21.000Z</time>
      </trkpt>
      <trkpt lat="42.92098" lon="0.59712">
        <ele>1641.5</ele>
        <time>2019-02-03T12:06:22.000Z</time>
      </trkpt>
      <trkpt lat="42.92098" lon="0.59711">
        <ele>1642</ele>
        <time>2019-02-03T12:06:23.000Z</time>
      </trkpt>
      <trkpt lat="42.92097" lon="0.59711">
        <ele>1642</ele>
        <time>2019-02-03T12:06:24.000Z</time>
      </trkpt>
      <trkpt lat="42.92097" lon="0.5971">
        <ele>1642</ele>
        <time>2019-02-03T12:06:25.000Z</time>
      </trkpt>
      <trkpt lat="42.92097" lon="0.5971">
        <ele>1642</ele>
        <time>2019-02-03T12:06:26.000Z</time>
      </trkpt>
      <trkpt lat="42.92097" lon="0.5971">
        <ele>1642</ele>
        <time>2019-02-03T12:06:27.000Z</time>
      </trkpt>
      <trkpt lat="42.92097" lon="0.59709">
        <ele>1642</ele>
        <time>2019-02-03T12:06:28.000Z</time>
      </trkpt>
      <trkpt lat="42.92096" lon="0.59709">
        <ele>1642</ele>
        <time>2019-02-03T12:06:29.000Z</time>
      </trkpt>
      <trkpt lat="42.92096" lon="0.59709">
        <ele>1642</ele>
        <time>2019-02-03T12:06:30.000Z</time>
      </trkpt>
      <trkpt lat="42.92096" lon="0.59709">
        <ele>1642</ele>
        <time>2019-02-03T12:06:31.000Z</time>
      </trkpt>
      <trkpt lat="42.92096" lon="0.59709">
        <ele>1642.5</ele>
        <time>2019-02-03T12:06:32.000Z</time>
      </trkpt>
      <trkpt lat="42.92096" lon="0.59709">
        <ele>1643</ele>
        <time>2019-02-03T12:06:33.000Z</time>
      </trkpt>
      <trkpt lat="42.92096" lon="0.59709">
        <ele>1643</ele>
        <time>2019-02-03T12:06:34.000Z</time>
      </trkpt>
      <trkpt lat="42.92096" lon="0.59709">
        <ele>1643</ele>
        <time>2019-02-03T12:06:35.000Z</time>
      </trkpt>
      <trkpt lat="42.92096" lon="0.59709">
        <ele>1643</ele>
        <time>2019-02-03T12:06:36.000Z</time>
      </trkpt>
      <trkpt lat="42.92096" lon="0.59708">
        <ele>1643</ele>
        <time>2019-02-03T12:06:37.000Z</time>
      </trkpt>
      <trkpt lat="42.92096" lon="0.59708">
        <ele>1643</ele>
        <time>2019-02-03T12:06:38.000Z</time>
      </trkpt>
      <trkpt lat="42.92096" lon="0.59708">
        <ele>1643</ele>
        <time>2019-02-03T12:06:39.000Z</time>
      </trkpt>
      <trkpt lat="42.92095" lon="0.59707">
        <ele>1643</ele>
        <time>2019-02-03T12:06:40.000Z</time>
      </trkpt>
      <trkpt lat="42.92095" lon="0.59706">
        <ele>1643</ele>
        <time>2019-02-03T12:06:41.000Z</time>
      </trkpt>
      <trkpt lat="42.92095" lon="0.59706">
        <ele>1643.5</ele>
        <time>2019-02-03T12:06:42.000Z</time>
      </trkpt>
      <trkpt lat="42.92094" lon="0.59705">
        <ele>1644</ele>
        <time>2019-02-03T12:06:43.000Z</time>
      </trkpt>
      <trkpt lat="42.92094" lon="0.59704">
        <ele>1644</ele>
        <time>2019-02-03T12:06:44.000Z</time>
      </trkpt>
      <trkpt lat="42.92094" lon="0.59704">
        <ele>1644</ele>
        <time>2019-02-03T12:06:45.000Z</time>
      </trkpt>
      <trkpt lat="42.92094" lon="0.59704">
        <ele>1644</ele>
        <time>2019-02-03T12:06:46.000Z</time>
      </trkpt>
      <trkpt lat="42.92093" lon="0.59703">
        <ele>1644</ele>
        <time>2019-02-03T12:06:47.000Z</time>
      </trkpt>
      <trkpt lat="42.92093" lon="0.59703">
        <ele>1644</ele>
        <time>2019-02-03T12:06:48.000Z</time>
      </trkpt>
      <trkpt lat="42.92093" lon="0.59703">
        <ele>1644</ele>
        <time>2019-02-03T12:06:49.000Z</time>
      </trkpt>
      <trkpt lat="42.92093" lon="0.59703">
        <ele>1644.5</ele>
        <time>2019-02-03T12:06:50.000Z</time>
      </trkpt>
      <trkpt lat="42.92093" lon="0.59703">
        <ele>1645</ele>
        <time>2019-02-03T12:06:51.000Z</time>
      </trkpt>
      <trkpt lat="42.92093" lon="0.59703">
        <ele>1645</ele>
        <time>2019-02-03T12:06:52.000Z</time>
      </trkpt>
      <trkpt lat="42.92093" lon="0.59703">
        <ele>1645</ele>
        <time>2019-02-03T12:06:53.000Z</time>
      </trkpt>
      <trkpt lat="42.92093" lon="0.59703">
        <ele>1645</ele>
        <time>2019-02-03T12:06:54.000Z</time>
      </trkpt>
      <trkpt lat="42.92093" lon="0.59703">
        <ele>1645</ele>
        <time>2019-02-03T12:06:55.000Z</time>
      </trkpt>
      <trkpt lat="42.92093" lon="0.59703">
        <ele>1645</ele>
        <time>2019-02-03T12:06:56.000Z</time>
      </trkpt>
      <trkpt lat="42.92093" lon="0.59703">
        <ele>1645</ele>
        <time>2019-02-03T12:06:57.000Z</time>
      </trkpt>
      <trkpt lat="42.92093" lon="0.59703">
        <ele>1645.5</ele>
        <time>2019-02-03T12:06:58.000Z</time>
      </trkpt>
      <trkpt lat="42.92093" lon="0.59703">
        <ele>1646</ele>
        <time>2019-02-03T12:06:59.000Z</time>
      </trkpt>
      <trkpt lat="42.92093" lon="0.59703">
        <ele>1646</ele>
        <time>2019-02-03T12:07:00.000Z</time>
      </trkpt>
      <trkpt lat="42.92092" lon="0.59703">
        <ele>1646</ele>
        <time>2019-02-03T12:07:01.000Z</time>
      </trkpt>
      <trkpt lat="42.92092" lon="0.59703">
        <ele>1646</ele>
        <time>2019-02-03T12:07:02.000Z</time>
      </trkpt>
      <trkpt lat="42.92092" lon="0.59703">
        <ele>1646</ele>
        <time>2019-02-03T12:07:03.000Z</time>
      </trkpt>
      <trkpt lat="42.92092" lon="0.59703">
        <ele>1646.5</ele>
        <time>2019-02-03T12:07:04.000Z</time>
      </trkpt>
      <trkpt lat="42.92092" lon="0.59703">
        <ele>1647</ele>
        <time>2019-02-03T12:07:05.000Z</time>
      </trkpt>
      <trkpt lat="42.92092" lon="0.59702">
        <ele>1647</ele>
        <time>2019-02-03T12:07:06.000Z</time>
      </trkpt>
      <trkpt lat="42.92092" lon="0.59702">
        <ele>1647</ele>
        <time>2019-02-03T12:07:07.000Z</time>
      </trkpt>
      <trkpt lat="42.92092" lon="0.59702">
        <ele>1647</ele>
        <time>2019-02-03T12:07:08.000Z</time>
      </trkpt>
      <trkpt lat="42.92092" lon="0.59701">
        <ele>1647</ele>
        <time>2019-02-03T12:07:09.000Z</time>
      </trkpt>
      <trkpt lat="42.92092" lon="0.59701">
        <ele>1647</ele>
        <time>2019-02-03T12:07:10.000Z</time>
      </trkpt>
      <trkpt lat="42.92091" lon="0.59701">
        <ele>1647</ele>
        <time>2019-02-03T12:07:11.000Z</time>
      </trkpt>
      <trkpt lat="42.92091" lon="0.597">
        <ele>1648</ele>
        <time>2019-02-03T12:07:12.000Z</time>
      </trkpt>
      <trkpt lat="42.92091" lon="0.597">
        <ele>1648</ele>
        <time>2019-02-03T12:07:13.000Z</time>
      </trkpt>
      <trkpt lat="42.9209" lon="0.597">
        <ele>1648</ele>
        <time>2019-02-03T12:07:14.000Z</time>
      </trkpt>
      <trkpt lat="42.9209" lon="0.59699">
        <ele>1648</ele>
        <time>2019-02-03T12:07:15.000Z</time>
      </trkpt>
      <trkpt lat="42.92089" lon="0.59699">
        <ele>1648</ele>
        <time>2019-02-03T12:07:16.000Z</time>
      </trkpt>
      <trkpt lat="42.92089" lon="0.59699">
        <ele>1648</ele>
        <time>2019-02-03T12:07:17.000Z</time>
      </trkpt>
      <trkpt lat="42.92088" lon="0.59699">
        <ele>1648</ele>
        <time>2019-02-03T12:07:18.000Z</time>
      </trkpt>
      <trkpt lat="42.92088" lon="0.59699">
        <ele>1648</ele>
        <time>2019-02-03T12:07:19.000Z</time>
      </trkpt>
      <trkpt lat="42.92088" lon="0.59699">
        <ele>1648.5</ele>
        <time>2019-02-03T12:07:20.000Z</time>
      </trkpt>
      <trkpt lat="42.92087" lon="0.59698">
        <ele>1649</ele>
        <time>2019-02-03T12:07:21.000Z</time>
      </trkpt>
      <trkpt lat="42.92087" lon="0.59698">
        <ele>1649</ele>
        <time>2019-02-03T12:07:22.000Z</time>
      </trkpt>
      <trkpt lat="42.92087" lon="0.59698">
        <ele>1649</ele>
        <time>2019-02-03T12:07:23.000Z</time>
      </trkpt>
      <trkpt lat="42.92087" lon="0.59698">
        <ele>1649</ele>
        <time>2019-02-03T12:07:24.000Z</time>
      </trkpt>
      <trkpt lat="42.92086" lon="0.59699">
        <ele>1649</ele>
        <time>2019-02-03T12:07:25.000Z</time>
      </trkpt>
      <trkpt lat="42.92086" lon="0.59699">
        <ele>1649</ele>
        <time>2019-02-03T12:07:26.000Z</time>
      </trkpt>
      <trkpt lat="42.92086" lon="0.59699">
        <ele>1649</ele>
        <time>2019-02-03T12:07:27.000Z</time>
      </trkpt>
      <trkpt lat="42.92086" lon="0.59699">
        <ele>1649</ele>
        <time>2019-02-03T12:07:28.000Z</time>
      </trkpt>
      <trkpt lat="42.92086" lon="0.59699">
        <ele>1649</ele>
        <time>2019-02-03T12:07:29.000Z</time>
      </trkpt>
      <trkpt lat="42.92086" lon="0.59699">
        <ele>1649</ele>
        <time>2019-02-03T12:07:30.000Z</time>
      </trkpt>
      <trkpt lat="42.92086" lon="0.59699">
        <ele>1649</ele>
        <time>2019-02-03T12:07:31.000Z</time>
      </trkpt>
      <trkpt lat="42.92086" lon="0.59699">
        <ele>1649</ele>
        <time>2019-02-03T12:07:32.000Z</time>
      </trkpt>
      <trkpt lat="42.92086" lon="0.597">
        <ele>1649</ele>
        <time>2019-02-03T12:07:33.000Z</time>
      </trkpt>
      <trkpt lat="42.92086" lon="0.597">
        <ele>1649</ele>
        <time>2019-02-03T12:07:34.000Z</time>
      </trkpt>
      <trkpt lat="42.92086" lon="0.597">
        <ele>1649</ele>
        <time>2019-02-03T12:07:35.000Z</time>
      </trkpt>
      <trkpt lat="42.92086" lon="0.597">
        <ele>1649.5</ele>
        <time>2019-02-03T12:07:36.000Z</time>
      </trkpt>
      <trkpt lat="42.92086" lon="0.597">
        <ele>1650</ele>
        <time>2019-02-03T12:07:37.000Z</time>
      </trkpt>
      <trkpt lat="42.92086" lon="0.597">
        <ele>1650</ele>
        <time>2019-02-03T12:07:38.000Z</time>
      </trkpt>
      <trkpt lat="42.92086" lon="0.597">
        <ele>1650</ele>
        <time>2019-02-03T12:07:39.000Z</time>
      </trkpt>
      <trkpt lat="42.92086" lon="0.597">
        <ele>1650</ele>
        <time>2019-02-03T12:07:40.000Z</time>
      </trkpt>
      <trkpt lat="42.92086" lon="0.597">
        <ele>1650</ele>
        <time>2019-02-03T12:07:41.000Z</time>
      </trkpt>
      <trkpt lat="42.92086" lon="0.597">
        <ele>1650</ele>
        <time>2019-02-03T12:07:42.000Z</time>
      </trkpt>
      <trkpt lat="42.92086" lon="0.597">
        <ele>1650</ele>
        <time>2019-02-03T12:07:43.000Z</time>
      </trkpt>
      <trkpt lat="42.92086" lon="0.597">
        <ele>1650.5</ele>
        <time>2019-02-03T12:07:44.000Z</time>
      </trkpt>
      <trkpt lat="42.92086" lon="0.597">
        <ele>1651</ele>
        <time>2019-02-03T12:07:45.000Z</time>
      </trkpt>
      <trkpt lat="42.92086" lon="0.597">
        <ele>1651</ele>
        <time>2019-02-03T12:07:46.000Z</time>
      </trkpt>
      <trkpt lat="42.92086" lon="0.597">
        <ele>1651</ele>
        <time>2019-02-03T12:07:47.000Z</time>
      </trkpt>
      <trkpt lat="42.92086" lon="0.597">
        <ele>1651</ele>
        <time>2019-02-03T12:07:48.000Z</time>
      </trkpt>
      <trkpt lat="42.92086" lon="0.597">
        <ele>1651</ele>
        <time>2019-02-03T12:07:49.000Z</time>
      </trkpt>
      <trkpt lat="42.92086" lon="0.597">
        <ele>1651</ele>
        <time>2019-02-03T12:07:50.000Z</time>
      </trkpt>
      <trkpt lat="42.92085" lon="0.597">
        <ele>1651</ele>
        <time>2019-02-03T12:07:51.000Z</time>
      </trkpt>
      <trkpt lat="42.92085" lon="0.59701">
        <ele>1651.5</ele>
        <time>2019-02-03T12:07:52.000Z</time>
      </trkpt>
      <trkpt lat="42.92084" lon="0.59701">
        <ele>1652</ele>
        <time>2019-02-03T12:07:53.000Z</time>
      </trkpt>
      <trkpt lat="42.92084" lon="0.59701">
        <ele>1652</ele>
        <time>2019-02-03T12:07:54.000Z</time>
      </trkpt>
      <trkpt lat="42.92084" lon="0.597">
        <ele>1652</ele>
        <time>2019-02-03T12:07:55.000Z</time>
      </trkpt>
      <trkpt lat="42.92083" lon="0.59701">
        <ele>1652</ele>
        <time>2019-02-03T12:07:56.000Z</time>
      </trkpt>
      <trkpt lat="42.92083" lon="0.59701">
        <ele>1652</ele>
        <time>2019-02-03T12:07:57.000Z</time>
      </trkpt>
      <trkpt lat="42.92083" lon="0.59701">
        <ele>1652</ele>
        <time>2019-02-03T12:07:58.000Z</time>
      </trkpt>
      <trkpt lat="42.92082" lon="0.59701">
        <ele>1652</ele>
        <time>2019-02-03T12:07:59.000Z</time>
      </trkpt>
      <trkpt lat="42.92082" lon="0.59701">
        <ele>1652</ele>
        <time>2019-02-03T12:08:00.000Z</time>
      </trkpt>
      <trkpt lat="42.92082" lon="0.59701">
        <ele>1652</ele>
        <time>2019-02-03T12:08:01.000Z</time>
      </trkpt>
      <trkpt lat="42.92082" lon="0.59701">
        <ele>1652</ele>
        <time>2019-02-03T12:08:02.000Z</time>
      </trkpt>
      <trkpt lat="42.92082" lon="0.59701">
        <ele>1652</ele>
        <time>2019-02-03T12:08:03.000Z</time>
      </trkpt>
      <trkpt lat="42.92082" lon="0.59701">
        <ele>1652</ele>
        <time>2019-02-03T12:08:04.000Z</time>
      </trkpt>
      <trkpt lat="42.92082" lon="0.59702">
        <ele>1652</ele>
        <time>2019-02-03T12:08:05.000Z</time>
      </trkpt>
      <trkpt lat="42.92082" lon="0.59702">
        <ele>1652.5</ele>
        <time>2019-02-03T12:08:06.000Z</time>
      </trkpt>
      <trkpt lat="42.92082" lon="0.59702">
        <ele>1653</ele>
        <time>2019-02-03T12:08:07.000Z</time>
      </trkpt>
      <trkpt lat="42.92082" lon="0.59702">
        <ele>1652.5</ele>
        <time>2019-02-03T12:08:08.000Z</time>
      </trkpt>
      <trkpt lat="42.92082" lon="0.59702">
        <ele>1652</ele>
        <time>2019-02-03T12:08:09.000Z</time>
      </trkpt>
      <trkpt lat="42.92082" lon="0.59702">
        <ele>1652.5</ele>
        <time>2019-02-03T12:08:10.000Z</time>
      </trkpt>
      <trkpt lat="42.92081" lon="0.59701">
        <ele>1653</ele>
        <time>2019-02-03T12:08:11.000Z</time>
      </trkpt>
      <trkpt lat="42.92081" lon="0.59701">
        <ele>1653</ele>
        <time>2019-02-03T12:08:12.000Z</time>
      </trkpt>
      <trkpt lat="42.92081" lon="0.59701">
        <ele>1653</ele>
        <time>2019-02-03T12:08:13.000Z</time>
      </trkpt>
      <trkpt lat="42.9208" lon="0.597">
        <ele>1653</ele>
        <time>2019-02-03T12:08:14.000Z</time>
      </trkpt>
      <trkpt lat="42.9208" lon="0.597">
        <ele>1653</ele>
        <time>2019-02-03T12:08:15.000Z</time>
      </trkpt>
      <trkpt lat="42.9208" lon="0.597">
        <ele>1653</ele>
        <time>2019-02-03T12:08:16.000Z</time>
      </trkpt>
      <trkpt lat="42.92079" lon="0.59699">
        <ele>1653</ele>
        <time>2019-02-03T12:08:17.000Z</time>
      </trkpt>
      <trkpt lat="42.92079" lon="0.59699">
        <ele>1653</ele>
        <time>2019-02-03T12:08:18.000Z</time>
      </trkpt>
      <trkpt lat="42.92079" lon="0.59699">
        <ele>1653</ele>
        <time>2019-02-03T12:08:19.000Z</time>
      </trkpt>
      <trkpt lat="42.92079" lon="0.59699">
        <ele>1653.5</ele>
        <time>2019-02-03T12:08:20.000Z</time>
      </trkpt>
      <trkpt lat="42.92078" lon="0.59699">
        <ele>1654</ele>
        <time>2019-02-03T12:08:21.000Z</time>
      </trkpt>
      <trkpt lat="42.92078" lon="0.59699">
        <ele>1654</ele>
        <time>2019-02-03T12:08:22.000Z</time>
      </trkpt>
      <trkpt lat="42.92078" lon="0.59699">
        <ele>1654</ele>
        <time>2019-02-03T12:08:23.000Z</time>
      </trkpt>
      <trkpt lat="42.92078" lon="0.59699">
        <ele>1654</ele>
        <time>2019-02-03T12:08:24.000Z</time>
      </trkpt>
      <trkpt lat="42.92078" lon="0.59699">
        <ele>1654</ele>
        <time>2019-02-03T12:08:25.000Z</time>
      </trkpt>
      <trkpt lat="42.92078" lon="0.59698">
        <ele>1654.5</ele>
        <time>2019-02-03T12:08:26.000Z</time>
      </trkpt>
      <trkpt lat="42.92078" lon="0.59698">
        <ele>1655</ele>
        <time>2019-02-03T12:08:27.000Z</time>
      </trkpt>
      <trkpt lat="42.92078" lon="0.59698">
        <ele>1655</ele>
        <time>2019-02-03T12:08:28.000Z</time>
      </trkpt>
      <trkpt lat="42.92077" lon="0.59697">
        <ele>1655</ele>
        <time>2019-02-03T12:08:29.000Z</time>
      </trkpt>
      <trkpt lat="42.92077" lon="0.59697">
        <ele>1655</ele>
        <time>2019-02-03T12:08:30.000Z</time>
      </trkpt>
      <trkpt lat="42.92077" lon="0.59697">
        <ele>1655.3</ele>
        <time>2019-02-03T12:08:31.000Z</time>
      </trkpt>
      <trkpt lat="42.92077" lon="0.59697">
        <ele>1655.7</ele>
        <time>2019-02-03T12:08:32.000Z</time>
      </trkpt>
      <trkpt lat="42.92077" lon="0.59697">
        <ele>1656</ele>
        <time>2019-02-03T12:08:33.000Z</time>
      </trkpt>
      <trkpt lat="42.92077" lon="0.59697">
        <ele>1655.5</ele>
        <time>2019-02-03T12:08:34.000Z</time>
      </trkpt>
      <trkpt lat="42.92077" lon="0.59697">
        <ele>1655</ele>
        <time>2019-02-03T12:08:35.000Z</time>
      </trkpt>
      <trkpt lat="42.92077" lon="0.59697">
        <ele>1655</ele>
        <time>2019-02-03T12:08:36.000Z</time>
      </trkpt>
      <trkpt lat="42.92077" lon="0.59697">
        <ele>1655</ele>
        <time>2019-02-03T12:08:37.000Z</time>
      </trkpt>
      <trkpt lat="42.92077" lon="0.59697">
        <ele>1655.5</ele>
        <time>2019-02-03T12:08:38.000Z</time>
      </trkpt>
      <trkpt lat="42.92077" lon="0.59697">
        <ele>1656</ele>
        <time>2019-02-03T12:08:39.000Z</time>
      </trkpt>
      <trkpt lat="42.92077" lon="0.59697">
        <ele>1656</ele>
        <time>2019-02-03T12:08:40.000Z</time>
      </trkpt>
      <trkpt lat="42.92077" lon="0.59696">
        <ele>1656</ele>
        <time>2019-02-03T12:08:41.000Z</time>
      </trkpt>
      <trkpt lat="42.92077" lon="0.59696">
        <ele>1656</ele>
        <time>2019-02-03T12:08:42.000Z</time>
      </trkpt>
      <trkpt lat="42.92077" lon="0.59696">
        <ele>1656</ele>
        <time>2019-02-03T12:08:43.000Z</time>
      </trkpt>
      <trkpt lat="42.92077" lon="0.59695">
        <ele>1656</ele>
        <time>2019-02-03T12:08:44.000Z</time>
      </trkpt>
      <trkpt lat="42.92076" lon="0.59695">
        <ele>1656</ele>
        <time>2019-02-03T12:08:45.000Z</time>
      </trkpt>
      <trkpt lat="42.92076" lon="0.59694">
        <ele>1656</ele>
        <time>2019-02-03T12:08:46.000Z</time>
      </trkpt>
      <trkpt lat="42.92076" lon="0.59693">
        <ele>1656</ele>
        <time>2019-02-03T12:08:47.000Z</time>
      </trkpt>
      <trkpt lat="42.92076" lon="0.59693">
        <ele>1656</ele>
        <time>2019-02-03T12:08:48.000Z</time>
      </trkpt>
      <trkpt lat="42.92076" lon="0.59692">
        <ele>1656</ele>
        <time>2019-02-03T12:08:49.000Z</time>
      </trkpt>
      <trkpt lat="42.92075" lon="0.59691">
        <ele>1656</ele>
        <time>2019-02-03T12:08:50.000Z</time>
      </trkpt>
      <trkpt lat="42.92075" lon="0.59691">
        <ele>1656</ele>
        <time>2019-02-03T12:08:51.000Z</time>
      </trkpt>
      <trkpt lat="42.92075" lon="0.5969">
        <ele>1656</ele>
        <time>2019-02-03T12:08:52.000Z</time>
      </trkpt>
      <trkpt lat="42.92075" lon="0.59689">
        <ele>1656</ele>
        <time>2019-02-03T12:08:53.000Z</time>
      </trkpt>
      <trkpt lat="42.92075" lon="0.59689">
        <ele>1656.5</ele>
        <time>2019-02-03T12:08:54.000Z</time>
      </trkpt>
      <trkpt lat="42.92075" lon="0.59688">
        <ele>1657</ele>
        <time>2019-02-03T12:08:55.000Z</time>
      </trkpt>
      <trkpt lat="42.92075" lon="0.59688">
        <ele>1657</ele>
        <time>2019-02-03T12:08:56.000Z</time>
      </trkpt>
      <trkpt lat="42.92075" lon="0.59688">
        <ele>1657</ele>
        <time>2019-02-03T12:08:57.000Z</time>
      </trkpt>
      <trkpt lat="42.92075" lon="0.59687">
        <ele>1657.5</ele>
        <time>2019-02-03T12:08:58.000Z</time>
      </trkpt>
      <trkpt lat="42.92074" lon="0.59687">
        <ele>1658</ele>
        <time>2019-02-03T12:08:59.000Z</time>
      </trkpt>
      <trkpt lat="42.92074" lon="0.59687">
        <ele>1658</ele>
        <time>2019-02-03T12:09:00.000Z</time>
      </trkpt>
      <trkpt lat="42.92074" lon="0.59687">
        <ele>1658</ele>
        <time>2019-02-03T12:09:01.000Z</time>
      </trkpt>
      <trkpt lat="42.92074" lon="0.59686">
        <ele>1658</ele>
        <time>2019-02-03T12:09:02.000Z</time>
      </trkpt>
      <trkpt lat="42.92074" lon="0.59686">
        <ele>1658.3</ele>
        <time>2019-02-03T12:09:03.000Z</time>
      </trkpt>
      <trkpt lat="42.92074" lon="0.59685">
        <ele>1658.7</ele>
        <time>2019-02-03T12:09:04.000Z</time>
      </trkpt>
      <trkpt lat="42.92073" lon="0.59685">
        <ele>1659</ele>
        <time>2019-02-03T12:09:05.000Z</time>
      </trkpt>
      <trkpt lat="42.92073" lon="0.59684">
        <ele>1659</ele>
        <time>2019-02-03T12:09:06.000Z</time>
      </trkpt>
      <trkpt lat="42.92073" lon="0.59684">
        <ele>1659</ele>
        <time>2019-02-03T12:09:07.000Z</time>
      </trkpt>
      <trkpt lat="42.92073" lon="0.59683">
        <ele>1659</ele>
        <time>2019-02-03T12:09:08.000Z</time>
      </trkpt>
      <trkpt lat="42.92073" lon="0.59683">
        <ele>1659</ele>
        <time>2019-02-03T12:09:09.000Z</time>
      </trkpt>
      <trkpt lat="42.92073" lon="0.59683">
        <ele>1659</ele>
        <time>2019-02-03T12:09:10.000Z</time>
      </trkpt>
      <trkpt lat="42.92073" lon="0.59683">
        <ele>1659</ele>
        <time>2019-02-03T12:09:11.000Z</time>
      </trkpt>
      <trkpt lat="42.92073" lon="0.59683">
        <ele>1659</ele>
        <time>2019-02-03T12:09:12.000Z</time>
      </trkpt>
      <trkpt lat="42.92073" lon="0.59683">
        <ele>1659.3</ele>
        <time>2019-02-03T12:09:13.000Z</time>
      </trkpt>
      <trkpt lat="42.92073" lon="0.59683">
        <ele>1659.7</ele>
        <time>2019-02-03T12:09:14.000Z</time>
      </trkpt>
      <trkpt lat="42.92073" lon="0.59683">
        <ele>1660</ele>
        <time>2019-02-03T12:09:15.000Z</time>
      </trkpt>
      <trkpt lat="42.92073" lon="0.59683">
        <ele>1660</ele>
        <time>2019-02-03T12:09:16.000Z</time>
      </trkpt>
      <trkpt lat="42.92073" lon="0.59684">
        <ele>1660</ele>
        <time>2019-02-03T12:09:17.000Z</time>
      </trkpt>
      <trkpt lat="42.92073" lon="0.59684">
        <ele>1660.5</ele>
        <time>2019-02-03T12:09:18.000Z</time>
      </trkpt>
      <trkpt lat="42.92072" lon="0.59684">
        <ele>1661</ele>
        <time>2019-02-03T12:09:19.000Z</time>
      </trkpt>
      <trkpt lat="42.92072" lon="0.59684">
        <ele>1660.5</ele>
        <time>2019-02-03T12:09:20.000Z</time>
      </trkpt>
      <trkpt lat="42.92072" lon="0.59684">
        <ele>1660</ele>
        <time>2019-02-03T12:09:21.000Z</time>
      </trkpt>
      <trkpt lat="42.92072" lon="0.59685">
        <ele>1660</ele>
        <time>2019-02-03T12:09:22.000Z</time>
      </trkpt>
      <trkpt lat="42.92071" lon="0.59685">
        <ele>1660.3</ele>
        <time>2019-02-03T12:09:23.000Z</time>
      </trkpt>
      <trkpt lat="42.92071" lon="0.59685">
        <ele>1660.7</ele>
        <time>2019-02-03T12:09:24.000Z</time>
      </trkpt>
      <trkpt lat="42.9207" lon="0.59685">
        <ele>1661</ele>
        <time>2019-02-03T12:09:25.000Z</time>
      </trkpt>
      <trkpt lat="42.9207" lon="0.59686">
        <ele>1661</ele>
        <time>2019-02-03T12:09:26.000Z</time>
      </trkpt>
      <trkpt lat="42.92069" lon="0.59686">
        <ele>1661</ele>
        <time>2019-02-03T12:09:27.000Z</time>
      </trkpt>
      <trkpt lat="42.92069" lon="0.59686">
        <ele>1661</ele>
        <time>2019-02-03T12:09:28.000Z</time>
      </trkpt>
      <trkpt lat="42.92069" lon="0.59686">
        <ele>1661</ele>
        <time>2019-02-03T12:09:29.000Z</time>
      </trkpt>
      <trkpt lat="42.92069" lon="0.59686">
        <ele>1661</ele>
        <time>2019-02-03T12:09:30.000Z</time>
      </trkpt>
      <trkpt lat="42.92068" lon="0.59687">
        <ele>1661.3</ele>
        <time>2019-02-03T12:09:31.000Z</time>
      </trkpt>
      <trkpt lat="42.92068" lon="0.59687">
        <ele>1661.7</ele>
        <time>2019-02-03T12:09:32.000Z</time>
      </trkpt>
      <trkpt lat="42.92068" lon="0.59687">
        <ele>1662</ele>
        <time>2019-02-03T12:09:33.000Z</time>
      </trkpt>
      <trkpt lat="42.92068" lon="0.59687">
        <ele>1662</ele>
        <time>2019-02-03T12:09:34.000Z</time>
      </trkpt>
      <trkpt lat="42.92067" lon="0.59687">
        <ele>1662</ele>
        <time>2019-02-03T12:09:35.000Z</time>
      </trkpt>
      <trkpt lat="42.92067" lon="0.59687">
        <ele>1662</ele>
        <time>2019-02-03T12:09:36.000Z</time>
      </trkpt>
      <trkpt lat="42.92067" lon="0.59688">
        <ele>1662.3</ele>
        <time>2019-02-03T12:09:37.000Z</time>
      </trkpt>
      <trkpt lat="42.92067" lon="0.59688">
        <ele>1662.7</ele>
        <time>2019-02-03T12:09:38.000Z</time>
      </trkpt>
      <trkpt lat="42.92067" lon="0.59688">
        <ele>1663</ele>
        <time>2019-02-03T12:09:39.000Z</time>
      </trkpt>
      <trkpt lat="42.92066" lon="0.59688">
        <ele>1663</ele>
        <time>2019-02-03T12:09:40.000Z</time>
      </trkpt>
      <trkpt lat="42.92066" lon="0.59688">
        <ele>1663</ele>
        <time>2019-02-03T12:09:41.000Z</time>
      </trkpt>
      <trkpt lat="42.92066" lon="0.59688">
        <ele>1663</ele>
        <time>2019-02-03T12:09:42.000Z</time>
      </trkpt>
      <trkpt lat="42.92065" lon="0.59688">
        <ele>1663</ele>
        <time>2019-02-03T12:09:43.000Z</time>
      </trkpt>
      <trkpt lat="42.92065" lon="0.59688">
        <ele>1663</ele>
        <time>2019-02-03T12:09:44.000Z</time>
      </trkpt>
      <trkpt lat="42.92065" lon="0.59688">
        <ele>1663.3</ele>
        <time>2019-02-03T12:09:45.000Z</time>
      </trkpt>
      <trkpt lat="42.92065" lon="0.59688">
        <ele>1663.7</ele>
        <time>2019-02-03T12:09:46.000Z</time>
      </trkpt>
      <trkpt lat="42.92064" lon="0.59688">
        <ele>1664</ele>
        <time>2019-02-03T12:09:47.000Z</time>
      </trkpt>
      <trkpt lat="42.92064" lon="0.59688">
        <ele>1664</ele>
        <time>2019-02-03T12:09:48.000Z</time>
      </trkpt>
      <trkpt lat="42.92064" lon="0.59688">
        <ele>1664</ele>
        <time>2019-02-03T12:09:49.000Z</time>
      </trkpt>
      <trkpt lat="42.92064" lon="0.59688">
        <ele>1664</ele>
        <time>2019-02-03T12:09:50.000Z</time>
      </trkpt>
      <trkpt lat="42.92064" lon="0.59688">
        <ele>1664</ele>
        <time>2019-02-03T12:09:51.000Z</time>
      </trkpt>
      <trkpt lat="42.92063" lon="0.59688">
        <ele>1664</ele>
        <time>2019-02-03T12:09:52.000Z</time>
      </trkpt>
      <trkpt lat="42.92063" lon="0.59688">
        <ele>1664</ele>
        <time>2019-02-03T12:09:53.000Z</time>
      </trkpt>
      <trkpt lat="42.92063" lon="0.59688">
        <ele>1664</ele>
        <time>2019-02-03T12:09:54.000Z</time>
      </trkpt>
      <trkpt lat="42.92063" lon="0.59688">
        <ele>1664</ele>
        <time>2019-02-03T12:09:55.000Z</time>
      </trkpt>
      <trkpt lat="42.92063" lon="0.59688">
        <ele>1664</ele>
        <time>2019-02-03T12:09:56.000Z</time>
      </trkpt>
      <trkpt lat="42.92063" lon="0.59688">
        <ele>1664</ele>
        <time>2019-02-03T12:09:57.000Z</time>
      </trkpt>
      <trkpt lat="42.92063" lon="0.59688">
        <ele>1664</ele>
        <time>2019-02-03T12:09:58.000Z</time>
      </trkpt>
      <trkpt lat="42.92063" lon="0.59688">
        <ele>1664</ele>
        <time>2019-02-03T12:09:59.000Z</time>
      </trkpt>
      <trkpt lat="42.92063" lon="0.59688">
        <ele>1663.5</ele>
        <time>2019-02-03T12:10:00.000Z</time>
      </trkpt>
      <trkpt lat="42.92063" lon="0.59688">
        <ele>1663</ele>
        <time>2019-02-03T12:10:01.000Z</time>
      </trkpt>
      <trkpt lat="42.92063" lon="0.59688">
        <ele>1663.5</ele>
        <time>2019-02-03T12:10:02.000Z</time>
      </trkpt>
      <trkpt lat="42.92063" lon="0.59688">
        <ele>1664</ele>
        <time>2019-02-03T12:10:03.000Z</time>
      </trkpt>
      <trkpt lat="42.92063" lon="0.59688">
        <ele>1664.5</ele>
        <time>2019-02-03T12:10:04.000Z</time>
      </trkpt>
      <trkpt lat="42.92063" lon="0.59688">
        <ele>1665</ele>
        <time>2019-02-03T12:10:05.000Z</time>
      </trkpt>
      <trkpt lat="42.92063" lon="0.59688">
        <ele>1665.5</ele>
        <time>2019-02-03T12:10:06.000Z</time>
      </trkpt>
      <trkpt lat="42.92063" lon="0.59688">
        <ele>1666</ele>
        <time>2019-02-03T12:10:07.000Z</time>
      </trkpt>
      <trkpt lat="42.92063" lon="0.59688">
        <ele>1666</ele>
        <time>2019-02-03T12:10:08.000Z</time>
      </trkpt>
      <trkpt lat="42.92063" lon="0.59688">
        <ele>1666</ele>
        <time>2019-02-03T12:10:09.000Z</time>
      </trkpt>
      <trkpt lat="42.92063" lon="0.59688">
        <ele>1665.5</ele>
        <time>2019-02-03T12:10:10.000Z</time>
      </trkpt>
      <trkpt lat="42.92063" lon="0.59688">
        <ele>1665</ele>
        <time>2019-02-03T12:10:11.000Z</time>
      </trkpt>
      <trkpt lat="42.92063" lon="0.59688">
        <ele>1665.5</ele>
        <time>2019-02-03T12:10:12.000Z</time>
      </trkpt>
      <trkpt lat="42.92063" lon="0.59688">
        <ele>1666</ele>
        <time>2019-02-03T12:10:13.000Z</time>
      </trkpt>
      <trkpt lat="42.92063" lon="0.59688">
        <ele>1666</ele>
        <time>2019-02-03T12:10:14.000Z</time>
      </trkpt>
      <trkpt lat="42.92063" lon="0.59688">
        <ele>1666</ele>
        <time>2019-02-03T12:10:15.000Z</time>
      </trkpt>
      <trkpt lat="42.92063" lon="0.59688">
        <ele>1666</ele>
        <time>2019-02-03T12:10:16.000Z</time>
      </trkpt>
      <trkpt lat="42.92063" lon="0.59688">
        <ele>1666</ele>
        <time>2019-02-03T12:10:17.000Z</time>
      </trkpt>
      <trkpt lat="42.92063" lon="0.59688">
        <ele>1666</ele>
        <time>2019-02-03T12:10:18.000Z</time>
      </trkpt>
      <trkpt lat="42.92062" lon="0.59688">
        <ele>1666</ele>
        <time>2019-02-03T12:10:19.000Z</time>
      </trkpt>
      <trkpt lat="42.92062" lon="0.59688">
        <ele>1666</ele>
        <time>2019-02-03T12:10:20.000Z</time>
      </trkpt>
      <trkpt lat="42.92062" lon="0.59688">
        <ele>1666</ele>
        <time>2019-02-03T12:10:21.000Z</time>
      </trkpt>
      <trkpt lat="42.92062" lon="0.59688">
        <ele>1666.5</ele>
        <time>2019-02-03T12:10:22.000Z</time>
      </trkpt>
      <trkpt lat="42.92061" lon="0.59687">
        <ele>1667</ele>
        <time>2019-02-03T12:10:23.000Z</time>
      </trkpt>
      <trkpt lat="42.9206" lon="0.59685">
        <ele>1667</ele>
        <time>2019-02-03T12:10:24.000Z</time>
      </trkpt>
      <trkpt lat="42.9206" lon="0.59684">
        <ele>1667</ele>
        <time>2019-02-03T12:10:25.000Z</time>
      </trkpt>
      <trkpt lat="42.92059" lon="0.59682">
        <ele>1667</ele>
        <time>2019-02-03T12:10:26.000Z</time>
      </trkpt>
      <trkpt lat="42.92059" lon="0.59681">
        <ele>1667</ele>
        <time>2019-02-03T12:10:27.000Z</time>
      </trkpt>
      <trkpt lat="42.92059" lon="0.59681">
        <ele>1667</ele>
        <time>2019-02-03T12:10:28.000Z</time>
      </trkpt>
      <trkpt lat="42.92059" lon="0.59681">
        <ele>1667.3</ele>
        <time>2019-02-03T12:10:29.000Z</time>
      </trkpt>
      <trkpt lat="42.92059" lon="0.59681">
        <ele>1667.7</ele>
        <time>2019-02-03T12:10:30.000Z</time>
      </trkpt>
      <trkpt lat="42.92059" lon="0.59681">
        <ele>1668</ele>
        <time>2019-02-03T12:10:31.000Z</time>
      </trkpt>
      <trkpt lat="42.92059" lon="0.59681">
        <ele>1668</ele>
        <time>2019-02-03T12:10:32.000Z</time>
      </trkpt>
      <trkpt lat="42.92059" lon="0.59681">
        <ele>1668</ele>
        <time>2019-02-03T12:10:33.000Z</time>
      </trkpt>
      <trkpt lat="42.92059" lon="0.59681">
        <ele>1668</ele>
        <time>2019-02-03T12:10:34.000Z</time>
      </trkpt>
      <trkpt lat="42.92059" lon="0.59681">
        <ele>1668</ele>
        <time>2019-02-03T12:10:35.000Z</time>
      </trkpt>
      <trkpt lat="42.92059" lon="0.59681">
        <ele>1668</ele>
        <time>2019-02-03T12:10:36.000Z</time>
      </trkpt>
      <trkpt lat="42.92059" lon="0.59681">
        <ele>1668</ele>
        <time>2019-02-03T12:10:37.000Z</time>
      </trkpt>
      <trkpt lat="42.92059" lon="0.59681">
        <ele>1668</ele>
        <time>2019-02-03T12:10:38.000Z</time>
      </trkpt>
      <trkpt lat="42.92059" lon="0.59681">
        <ele>1668</ele>
        <time>2019-02-03T12:10:39.000Z</time>
      </trkpt>
      <trkpt lat="42.92059" lon="0.59681">
        <ele>1668</ele>
        <time>2019-02-03T12:10:40.000Z</time>
      </trkpt>
      <trkpt lat="42.92059" lon="0.59681">
        <ele>1668</ele>
        <time>2019-02-03T12:10:41.000Z</time>
      </trkpt>
      <trkpt lat="42.92059" lon="0.59681">
        <ele>1669</ele>
        <time>2019-02-03T12:10:42.000Z</time>
      </trkpt>
      <trkpt lat="42.92058" lon="0.59681">
        <ele>1669</ele>
        <time>2019-02-03T12:10:43.000Z</time>
      </trkpt>
      <trkpt lat="42.92058" lon="0.59681">
        <ele>1669</ele>
        <time>2019-02-03T12:10:44.000Z</time>
      </trkpt>
      <trkpt lat="42.92058" lon="0.59681">
        <ele>1669</ele>
        <time>2019-02-03T12:10:45.000Z</time>
      </trkpt>
      <trkpt lat="42.92058" lon="0.59681">
        <ele>1669</ele>
        <time>2019-02-03T12:10:46.000Z</time>
      </trkpt>
      <trkpt lat="42.92058" lon="0.59681">
        <ele>1669</ele>
        <time>2019-02-03T12:10:47.000Z</time>
      </trkpt>
      <trkpt lat="42.92058" lon="0.59681">
        <ele>1669</ele>
        <time>2019-02-03T12:10:48.000Z</time>
      </trkpt>
      <trkpt lat="42.92058" lon="0.59681">
        <ele>1669</ele>
        <time>2019-02-03T12:10:49.000Z</time>
      </trkpt>
      <trkpt lat="42.92058" lon="0.59681">
        <ele>1669</ele>
        <time>2019-02-03T12:10:50.000Z</time>
      </trkpt>
      <trkpt lat="42.92058" lon="0.59681">
        <ele>1669</ele>
        <time>2019-02-03T12:10:51.000Z</time>
      </trkpt>
      <trkpt lat="42.92058" lon="0.59681">
        <ele>1669.5</ele>
        <time>2019-02-03T12:10:52.000Z</time>
      </trkpt>
      <trkpt lat="42.92058" lon="0.59681">
        <ele>1670</ele>
        <time>2019-02-03T12:10:53.000Z</time>
      </trkpt>
      <trkpt lat="42.92058" lon="0.59681">
        <ele>1670</ele>
        <time>2019-02-03T12:10:54.000Z</time>
      </trkpt>
      <trkpt lat="42.92058" lon="0.59681">
        <ele>1670</ele>
        <time>2019-02-03T12:10:55.000Z</time>
      </trkpt>
      <trkpt lat="42.92058" lon="0.5968">
        <ele>1670.5</ele>
        <time>2019-02-03T12:10:56.000Z</time>
      </trkpt>
      <trkpt lat="42.92058" lon="0.59679">
        <ele>1671</ele>
        <time>2019-02-03T12:10:57.000Z</time>
      </trkpt>
      <trkpt lat="42.92058" lon="0.59679">
        <ele>1671</ele>
        <time>2019-02-03T12:10:58.000Z</time>
      </trkpt>
      <trkpt lat="42.92057" lon="0.59679">
        <ele>1671</ele>
        <time>2019-02-03T12:10:59.000Z</time>
      </trkpt>
      <trkpt lat="42.92057" lon="0.59679">
        <ele>1671</ele>
        <time>2019-02-03T12:11:00.000Z</time>
      </trkpt>
      <trkpt lat="42.92057" lon="0.59678">
        <ele>1671</ele>
        <time>2019-02-03T12:11:01.000Z</time>
      </trkpt>
      <trkpt lat="42.92057" lon="0.59678">
        <ele>1671</ele>
        <time>2019-02-03T12:11:02.000Z</time>
      </trkpt>
      <trkpt lat="42.92057" lon="0.59677">
        <ele>1671</ele>
        <time>2019-02-03T12:11:03.000Z</time>
      </trkpt>
      <trkpt lat="42.92057" lon="0.59676">
        <ele>1671</ele>
        <time>2019-02-03T12:11:04.000Z</time>
      </trkpt>
      <trkpt lat="42.92056" lon="0.59675">
        <ele>1671.3</ele>
        <time>2019-02-03T12:11:05.000Z</time>
      </trkpt>
      <trkpt lat="42.92056" lon="0.59675">
        <ele>1671.7</ele>
        <time>2019-02-03T12:11:06.000Z</time>
      </trkpt>
      <trkpt lat="42.92056" lon="0.59674">
        <ele>1672</ele>
        <time>2019-02-03T12:11:07.000Z</time>
      </trkpt>
      <trkpt lat="42.92055" lon="0.59674">
        <ele>1672</ele>
        <time>2019-02-03T12:11:08.000Z</time>
      </trkpt>
      <trkpt lat="42.92055" lon="0.59674">
        <ele>1672</ele>
        <time>2019-02-03T12:11:09.000Z</time>
      </trkpt>
      <trkpt lat="42.92054" lon="0.59674">
        <ele>1673</ele>
        <time>2019-02-03T12:11:10.000Z</time>
      </trkpt>
      <trkpt lat="42.92054" lon="0.59674">
        <ele>1673</ele>
        <time>2019-02-03T12:11:11.000Z</time>
      </trkpt>
      <trkpt lat="42.92053" lon="0.59674">
        <ele>1673</ele>
        <time>2019-02-03T12:11:12.000Z</time>
      </trkpt>
      <trkpt lat="42.92053" lon="0.59674">
        <ele>1673</ele>
        <time>2019-02-03T12:11:13.000Z</time>
      </trkpt>
      <trkpt lat="42.92053" lon="0.59674">
        <ele>1673</ele>
        <time>2019-02-03T12:11:14.000Z</time>
      </trkpt>
      <trkpt lat="42.92052" lon="0.59674">
        <ele>1673</ele>
        <time>2019-02-03T12:11:15.000Z</time>
      </trkpt>
      <trkpt lat="42.92052" lon="0.59674">
        <ele>1673</ele>
        <time>2019-02-03T12:11:16.000Z</time>
      </trkpt>
      <trkpt lat="42.92052" lon="0.59674">
        <ele>1673</ele>
        <time>2019-02-03T12:11:17.000Z</time>
      </trkpt>
      <trkpt lat="42.92052" lon="0.59674">
        <ele>1673</ele>
        <time>2019-02-03T12:11:18.000Z</time>
      </trkpt>
      <trkpt lat="42.92052" lon="0.59674">
        <ele>1673</ele>
        <time>2019-02-03T12:11:19.000Z</time>
      </trkpt>
      <trkpt lat="42.92052" lon="0.59674">
        <ele>1673</ele>
        <time>2019-02-03T12:11:20.000Z</time>
      </trkpt>
      <trkpt lat="42.92052" lon="0.59674">
        <ele>1673</ele>
        <time>2019-02-03T12:11:21.000Z</time>
      </trkpt>
      <trkpt lat="42.92052" lon="0.59674">
        <ele>1673</ele>
        <time>2019-02-03T12:11:22.000Z</time>
      </trkpt>
      <trkpt lat="42.92052" lon="0.59674">
        <ele>1673</ele>
        <time>2019-02-03T12:11:23.000Z</time>
      </trkpt>
      <trkpt lat="42.92052" lon="0.59674">
        <ele>1673</ele>
        <time>2019-02-03T12:11:24.000Z</time>
      </trkpt>
      <trkpt lat="42.92052" lon="0.59674">
        <ele>1673</ele>
        <time>2019-02-03T12:11:25.000Z</time>
      </trkpt>
      <trkpt lat="42.92052" lon="0.59674">
        <ele>1673</ele>
        <time>2019-02-03T12:11:26.000Z</time>
      </trkpt>
      <trkpt lat="42.92052" lon="0.59674">
        <ele>1673</ele>
        <time>2019-02-03T12:11:27.000Z</time>
      </trkpt>
      <trkpt lat="42.92052" lon="0.59674">
        <ele>1673</ele>
        <time>2019-02-03T12:11:28.000Z</time>
      </trkpt>
      <trkpt lat="42.92052" lon="0.59674">
        <ele>1673.3</ele>
        <time>2019-02-03T12:11:29.000Z</time>
      </trkpt>
      <trkpt lat="42.92051" lon="0.59674">
        <ele>1673.7</ele>
        <time>2019-02-03T12:11:30.000Z</time>
      </trkpt>
      <trkpt lat="42.92051" lon="0.59674">
        <ele>1674</ele>
        <time>2019-02-03T12:11:31.000Z</time>
      </trkpt>
      <trkpt lat="42.9205" lon="0.59674">
        <ele>1674</ele>
        <time>2019-02-03T12:11:32.000Z</time>
      </trkpt>
      <trkpt lat="42.9205" lon="0.59674">
        <ele>1674</ele>
        <time>2019-02-03T12:11:33.000Z</time>
      </trkpt>
      <trkpt lat="42.92049" lon="0.59674">
        <ele>1674</ele>
        <time>2019-02-03T12:11:34.000Z</time>
      </trkpt>
      <trkpt lat="42.92049" lon="0.59674">
        <ele>1674</ele>
        <time>2019-02-03T12:11:35.000Z</time>
      </trkpt>
      <trkpt lat="42.92049" lon="0.59674">
        <ele>1674</ele>
        <time>2019-02-03T12:11:36.000Z</time>
      </trkpt>
      <trkpt lat="42.92049" lon="0.59674">
        <ele>1674</ele>
        <time>2019-02-03T12:11:37.000Z</time>
      </trkpt>
      <trkpt lat="42.92049" lon="0.59674">
        <ele>1674</ele>
        <time>2019-02-03T12:11:38.000Z</time>
      </trkpt>
      <trkpt lat="42.92049" lon="0.59674">
        <ele>1674</ele>
        <time>2019-02-03T12:11:39.000Z</time>
      </trkpt>
      <trkpt lat="42.92048" lon="0.59673">
        <ele>1674.5</ele>
        <time>2019-02-03T12:11:40.000Z</time>
      </trkpt>
      <trkpt lat="42.92048" lon="0.59673">
        <ele>1675</ele>
        <time>2019-02-03T12:11:41.000Z</time>
      </trkpt>
      <trkpt lat="42.92048" lon="0.59673">
        <ele>1675</ele>
        <time>2019-02-03T12:11:42.000Z</time>
      </trkpt>
      <trkpt lat="42.92047" lon="0.59673">
        <ele>1675</ele>
        <time>2019-02-03T12:11:43.000Z</time>
      </trkpt>
      <trkpt lat="42.92047" lon="0.59673">
        <ele>1675</ele>
        <time>2019-02-03T12:11:44.000Z</time>
      </trkpt>
      <trkpt lat="42.92047" lon="0.59673">
        <ele>1675</ele>
        <time>2019-02-03T12:11:45.000Z</time>
      </trkpt>
      <trkpt lat="42.92046" lon="0.59673">
        <ele>1675.5</ele>
        <time>2019-02-03T12:11:46.000Z</time>
      </trkpt>
      <trkpt lat="42.92046" lon="0.59673">
        <ele>1676</ele>
        <time>2019-02-03T12:11:47.000Z</time>
      </trkpt>
      <trkpt lat="42.92046" lon="0.59673">
        <ele>1676</ele>
        <time>2019-02-03T12:11:48.000Z</time>
      </trkpt>
      <trkpt lat="42.92046" lon="0.59673">
        <ele>1676</ele>
        <time>2019-02-03T12:11:49.000Z</time>
      </trkpt>
      <trkpt lat="42.92046" lon="0.59673">
        <ele>1676</ele>
        <time>2019-02-03T12:11:50.000Z</time>
      </trkpt>
      <trkpt lat="42.92046" lon="0.59673">
        <ele>1676</ele>
        <time>2019-02-03T12:11:51.000Z</time>
      </trkpt>
      <trkpt lat="42.92046" lon="0.59673">
        <ele>1676.5</ele>
        <time>2019-02-03T12:11:52.000Z</time>
      </trkpt>
      <trkpt lat="42.92046" lon="0.59673">
        <ele>1677</ele>
        <time>2019-02-03T12:11:53.000Z</time>
      </trkpt>
      <trkpt lat="42.92046" lon="0.59673">
        <ele>1678</ele>
        <time>2019-02-03T12:11:54.000Z</time>
      </trkpt>
      <trkpt lat="42.92045" lon="0.59673">
        <ele>1678</ele>
        <time>2019-02-03T12:11:55.000Z</time>
      </trkpt>
      <trkpt lat="42.92045" lon="0.59673">
        <ele>1678</ele>
        <time>2019-02-03T12:11:56.000Z</time>
      </trkpt>
      <trkpt lat="42.92045" lon="0.59673">
        <ele>1678</ele>
        <time>2019-02-03T12:11:57.000Z</time>
      </trkpt>
      <trkpt lat="42.92045" lon="0.59673">
        <ele>1677</ele>
        <time>2019-02-03T12:11:58.000Z</time>
      </trkpt>
      <trkpt lat="42.92045" lon="0.59673">
        <ele>1677</ele>
        <time>2019-02-03T12:11:59.000Z</time>
      </trkpt>
      <trkpt lat="42.92044" lon="0.59673">
        <ele>1677</ele>
        <time>2019-02-03T12:12:00.000Z</time>
      </trkpt>
      <trkpt lat="42.92044" lon="0.59673">
        <ele>1677</ele>
        <time>2019-02-03T12:12:01.000Z</time>
      </trkpt>
      <trkpt lat="42.92044" lon="0.59673">
        <ele>1677</ele>
        <time>2019-02-03T12:12:02.000Z</time>
      </trkpt>
      <trkpt lat="42.92043" lon="0.59673">
        <ele>1677</ele>
        <time>2019-02-03T12:12:03.000Z</time>
      </trkpt>
      <trkpt lat="42.92043" lon="0.59673">
        <ele>1677.5</ele>
        <time>2019-02-03T12:12:04.000Z</time>
      </trkpt>
      <trkpt lat="42.92043" lon="0.59672">
        <ele>1678</ele>
        <time>2019-02-03T12:12:05.000Z</time>
      </trkpt>
      <trkpt lat="42.92042" lon="0.59672">
        <ele>1678</ele>
        <time>2019-02-03T12:12:06.000Z</time>
      </trkpt>
      <trkpt lat="42.92042" lon="0.59672">
        <ele>1678</ele>
        <time>2019-02-03T12:12:07.000Z</time>
      </trkpt>
      <trkpt lat="42.92041" lon="0.59672">
        <ele>1678</ele>
        <time>2019-02-03T12:12:08.000Z</time>
      </trkpt>
      <trkpt lat="42.92041" lon="0.59672">
        <ele>1678</ele>
        <time>2019-02-03T12:12:09.000Z</time>
      </trkpt>
      <trkpt lat="42.92041" lon="0.59672">
        <ele>1678</ele>
        <time>2019-02-03T12:12:10.000Z</time>
      </trkpt>
      <trkpt lat="42.92041" lon="0.59672">
        <ele>1678</ele>
        <time>2019-02-03T12:12:11.000Z</time>
      </trkpt>
      <trkpt lat="42.9204" lon="0.59672">
        <ele>1678</ele>
        <time>2019-02-03T12:12:12.000Z</time>
      </trkpt>
      <trkpt lat="42.9204" lon="0.59672">
        <ele>1678.5</ele>
        <time>2019-02-03T12:12:13.000Z</time>
      </trkpt>
      <trkpt lat="42.9204" lon="0.59672">
        <ele>1679</ele>
        <time>2019-02-03T12:12:14.000Z</time>
      </trkpt>
      <trkpt lat="42.9204" lon="0.59672">
        <ele>1679</ele>
        <time>2019-02-03T12:12:15.000Z</time>
      </trkpt>
      <trkpt lat="42.9204" lon="0.59671">
        <ele>1679</ele>
        <time>2019-02-03T12:12:16.000Z</time>
      </trkpt>
      <trkpt lat="42.9204" lon="0.59671">
        <ele>1679</ele>
        <time>2019-02-03T12:12:17.000Z</time>
      </trkpt>
      <trkpt lat="42.9204" lon="0.59671">
        <ele>1679.5</ele>
        <time>2019-02-03T12:12:18.000Z</time>
      </trkpt>
      <trkpt lat="42.92039" lon="0.59671">
        <ele>1680</ele>
        <time>2019-02-03T12:12:19.000Z</time>
      </trkpt>
      <trkpt lat="42.92039" lon="0.59671">
        <ele>1680</ele>
        <time>2019-02-03T12:12:20.000Z</time>
      </trkpt>
      <trkpt lat="42.92039" lon="0.59671">
        <ele>1680</ele>
        <time>2019-02-03T12:12:21.000Z</time>
      </trkpt>
      <trkpt lat="42.92039" lon="0.59671">
        <ele>1680</ele>
        <time>2019-02-03T12:12:22.000Z</time>
      </trkpt>
      <trkpt lat="42.92039" lon="0.59671">
        <ele>1680</ele>
        <time>2019-02-03T12:12:23.000Z</time>
      </trkpt>
      <trkpt lat="42.92039" lon="0.59671">
        <ele>1680</ele>
        <time>2019-02-03T12:12:24.000Z</time>
      </trkpt>
      <trkpt lat="42.92039" lon="0.59671">
        <ele>1680</ele>
        <time>2019-02-03T12:12:25.000Z</time>
      </trkpt>
      <trkpt lat="42.92039" lon="0.59671">
        <ele>1680</ele>
        <time>2019-02-03T12:12:26.000Z</time>
      </trkpt>
      <trkpt lat="42.92039" lon="0.59671">
        <ele>1680</ele>
        <time>2019-02-03T12:12:27.000Z</time>
      </trkpt>
      <trkpt lat="42.92039" lon="0.59671">
        <ele>1680</ele>
        <time>2019-02-03T12:12:28.000Z</time>
      </trkpt>
      <trkpt lat="42.92039" lon="0.59671">
        <ele>1680.3</ele>
        <time>2019-02-03T12:12:29.000Z</time>
      </trkpt>
      <trkpt lat="42.92039" lon="0.59671">
        <ele>1680.7</ele>
        <time>2019-02-03T12:12:30.000Z</time>
      </trkpt>
      <trkpt lat="42.92039" lon="0.59671">
        <ele>1681</ele>
        <time>2019-02-03T12:12:31.000Z</time>
      </trkpt>
      <trkpt lat="42.92039" lon="0.59671">
        <ele>1681</ele>
        <time>2019-02-03T12:12:32.000Z</time>
      </trkpt>
      <trkpt lat="42.92039" lon="0.59671">
        <ele>1681</ele>
        <time>2019-02-03T12:12:33.000Z</time>
      </trkpt>
      <trkpt lat="42.92039" lon="0.59671">
        <ele>1681</ele>
        <time>2019-02-03T12:12:34.000Z</time>
      </trkpt>
      <trkpt lat="42.92039" lon="0.59671">
        <ele>1681</ele>
        <time>2019-02-03T12:12:35.000Z</time>
      </trkpt>
      <trkpt lat="42.92039" lon="0.59671">
        <ele>1681</ele>
        <time>2019-02-03T12:12:36.000Z</time>
      </trkpt>
      <trkpt lat="42.92039" lon="0.59672">
        <ele>1681</ele>
        <time>2019-02-03T12:12:37.000Z</time>
      </trkpt>
      <trkpt lat="42.92039" lon="0.59672">
        <ele>1681</ele>
        <time>2019-02-03T12:12:38.000Z</time>
      </trkpt>
      <trkpt lat="42.92038" lon="0.59672">
        <ele>1681</ele>
        <time>2019-02-03T12:12:39.000Z</time>
      </trkpt>
      <trkpt lat="42.92038" lon="0.59672">
        <ele>1681</ele>
        <time>2019-02-03T12:12:40.000Z</time>
      </trkpt>
      <trkpt lat="42.92038" lon="0.59672">
        <ele>1681</ele>
        <time>2019-02-03T12:12:41.000Z</time>
      </trkpt>
      <trkpt lat="42.92038" lon="0.59672">
        <ele>1681</ele>
        <time>2019-02-03T12:12:42.000Z</time>
      </trkpt>
      <trkpt lat="42.92038" lon="0.59672">
        <ele>1681</ele>
        <time>2019-02-03T12:12:43.000Z</time>
      </trkpt>
      <trkpt lat="42.92038" lon="0.59672">
        <ele>1681.5</ele>
        <time>2019-02-03T12:12:44.000Z</time>
      </trkpt>
      <trkpt lat="42.92037" lon="0.59672">
        <ele>1682</ele>
        <time>2019-02-03T12:12:45.000Z</time>
      </trkpt>
      <trkpt lat="42.92037" lon="0.59672">
        <ele>1682</ele>
        <time>2019-02-03T12:12:46.000Z</time>
      </trkpt>
      <trkpt lat="42.92037" lon="0.59671">
        <ele>1682</ele>
        <time>2019-02-03T12:12:47.000Z</time>
      </trkpt>
      <trkpt lat="42.92037" lon="0.59671">
        <ele>1682</ele>
        <time>2019-02-03T12:12:48.000Z</time>
      </trkpt>
      <trkpt lat="42.92037" lon="0.59671">
        <ele>1682.3</ele>
        <time>2019-02-03T12:12:49.000Z</time>
      </trkpt>
      <trkpt lat="42.92037" lon="0.5967">
        <ele>1682.7</ele>
        <time>2019-02-03T12:12:50.000Z</time>
      </trkpt>
      <trkpt lat="42.92037" lon="0.5967">
        <ele>1683</ele>
        <time>2019-02-03T12:12:51.000Z</time>
      </trkpt>
      <trkpt lat="42.92037" lon="0.5967">
        <ele>1683</ele>
        <time>2019-02-03T12:12:52.000Z</time>
      </trkpt>
      <trkpt lat="42.92037" lon="0.5967">
        <ele>1683</ele>
        <time>2019-02-03T12:12:53.000Z</time>
      </trkpt>
      <trkpt lat="42.92037" lon="0.5967">
        <ele>1683</ele>
        <time>2019-02-03T12:12:54.000Z</time>
      </trkpt>
      <trkpt lat="42.92037" lon="0.5967">
        <ele>1683</ele>
        <time>2019-02-03T12:12:55.000Z</time>
      </trkpt>
      <trkpt lat="42.92037" lon="0.5967">
        <ele>1683</ele>
        <time>2019-02-03T12:12:56.000Z</time>
      </trkpt>
      <trkpt lat="42.92036" lon="0.5967">
        <ele>1683</ele>
        <time>2019-02-03T12:12:57.000Z</time>
      </trkpt>
      <trkpt lat="42.92036" lon="0.59671">
        <ele>1683</ele>
        <time>2019-02-03T12:12:58.000Z</time>
      </trkpt>
      <trkpt lat="42.92036" lon="0.59671">
        <ele>1682.7</ele>
        <time>2019-02-03T12:12:59.000Z</time>
      </trkpt>
      <trkpt lat="42.92036" lon="0.59671">
        <ele>1682.3</ele>
        <time>2019-02-03T12:13:00.000Z</time>
      </trkpt>
      <trkpt lat="42.92036" lon="0.59671">
        <ele>1682</ele>
        <time>2019-02-03T12:13:01.000Z</time>
      </trkpt>
      <trkpt lat="42.92035" lon="0.59671">
        <ele>1682</ele>
        <time>2019-02-03T12:13:02.000Z</time>
      </trkpt>
      <trkpt lat="42.92035" lon="0.59671">
        <ele>1682</ele>
        <time>2019-02-03T12:13:03.000Z</time>
      </trkpt>
      <trkpt lat="42.92034" lon="0.59671">
        <ele>1683</ele>
        <time>2019-02-03T12:13:04.000Z</time>
      </trkpt>
      <trkpt lat="42.92034" lon="0.59671">
        <ele>1683</ele>
        <time>2019-02-03T12:13:05.000Z</time>
      </trkpt>
      <trkpt lat="42.92034" lon="0.59671">
        <ele>1683</ele>
        <time>2019-02-03T12:13:06.000Z</time>
      </trkpt>
      <trkpt lat="42.92033" lon="0.59671">
        <ele>1683</ele>
        <time>2019-02-03T12:13:07.000Z</time>
      </trkpt>
      <trkpt lat="42.92033" lon="0.59671">
        <ele>1683</ele>
        <time>2019-02-03T12:13:08.000Z</time>
      </trkpt>
      <trkpt lat="42.92032" lon="0.59671">
        <ele>1683</ele>
        <time>2019-02-03T12:13:09.000Z</time>
      </trkpt>
      <trkpt lat="42.92032" lon="0.59671">
        <ele>1683</ele>
        <time>2019-02-03T12:13:10.000Z</time>
      </trkpt>
      <trkpt lat="42.92031" lon="0.59671">
        <ele>1683</ele>
        <time>2019-02-03T12:13:11.000Z</time>
      </trkpt>
      <trkpt lat="42.92031" lon="0.59671">
        <ele>1683</ele>
        <time>2019-02-03T12:13:12.000Z</time>
      </trkpt>
      <trkpt lat="42.9203" lon="0.5967">
        <ele>1683</ele>
        <time>2019-02-03T12:13:13.000Z</time>
      </trkpt>
      <trkpt lat="42.9203" lon="0.5967">
        <ele>1683</ele>
        <time>2019-02-03T12:13:14.000Z</time>
      </trkpt>
      <trkpt lat="42.92029" lon="0.5967">
        <ele>1683</ele>
        <time>2019-02-03T12:13:15.000Z</time>
      </trkpt>
      <trkpt lat="42.92029" lon="0.5967">
        <ele>1683.5</ele>
        <time>2019-02-03T12:13:16.000Z</time>
      </trkpt>
      <trkpt lat="42.92028" lon="0.5967">
        <ele>1684</ele>
        <time>2019-02-03T12:13:17.000Z</time>
      </trkpt>
      <trkpt lat="42.92028" lon="0.5967">
        <ele>1684</ele>
        <time>2019-02-03T12:13:18.000Z</time>
      </trkpt>
      <trkpt lat="42.92027" lon="0.5967">
        <ele>1684</ele>
        <time>2019-02-03T12:13:19.000Z</time>
      </trkpt>
      <trkpt lat="42.92027" lon="0.5967">
        <ele>1684</ele>
        <time>2019-02-03T12:13:20.000Z</time>
      </trkpt>
      <trkpt lat="42.92026" lon="0.5967">
        <ele>1684</ele>
        <time>2019-02-03T12:13:21.000Z</time>
      </trkpt>
      <trkpt lat="42.92025" lon="0.59669">
        <ele>1684</ele>
        <time>2019-02-03T12:13:22.000Z</time>
      </trkpt>
      <trkpt lat="42.92025" lon="0.59669">
        <ele>1684</ele>
        <time>2019-02-03T12:13:23.000Z</time>
      </trkpt>
      <trkpt lat="42.92024" lon="0.59669">
        <ele>1684.5</ele>
        <time>2019-02-03T12:13:24.000Z</time>
      </trkpt>
      <trkpt lat="42.92024" lon="0.59669">
        <ele>1685</ele>
        <time>2019-02-03T12:13:25.000Z</time>
      </trkpt>
      <trkpt lat="42.92023" lon="0.59669">
        <ele>1685</ele>
        <time>2019-02-03T12:13:26.000Z</time>
      </trkpt>
      <trkpt lat="42.92022" lon="0.59669">
        <ele>1685</ele>
        <time>2019-02-03T12:13:27.000Z</time>
      </trkpt>
      <trkpt lat="42.92022" lon="0.59669">
        <ele>1686</ele>
        <time>2019-02-03T12:13:28.000Z</time>
      </trkpt>
      <trkpt lat="42.92021" lon="0.59669">
        <ele>1686</ele>
        <time>2019-02-03T12:13:29.000Z</time>
      </trkpt>
      <trkpt lat="42.92021" lon="0.59669">
        <ele>1686</ele>
        <time>2019-02-03T12:13:30.000Z</time>
      </trkpt>
      <trkpt lat="42.9202" lon="0.59669">
        <ele>1686</ele>
        <time>2019-02-03T12:13:31.000Z</time>
      </trkpt>
      <trkpt lat="42.9202" lon="0.59669">
        <ele>1686</ele>
        <time>2019-02-03T12:13:32.000Z</time>
      </trkpt>
      <trkpt lat="42.92019" lon="0.59669">
        <ele>1686</ele>
        <time>2019-02-03T12:13:33.000Z</time>
      </trkpt>
      <trkpt lat="42.92019" lon="0.59669">
        <ele>1686</ele>
        <time>2019-02-03T12:13:34.000Z</time>
      </trkpt>
      <trkpt lat="42.92018" lon="0.59668">
        <ele>1686</ele>
        <time>2019-02-03T12:13:35.000Z</time>
      </trkpt>
      <trkpt lat="42.92018" lon="0.59668">
        <ele>1686.5</ele>
        <time>2019-02-03T12:13:36.000Z</time>
      </trkpt>
      <trkpt lat="42.92017" lon="0.59668">
        <ele>1687</ele>
        <time>2019-02-03T12:13:37.000Z</time>
      </trkpt>
      <trkpt lat="42.92017" lon="0.59668">
        <ele>1687</ele>
        <time>2019-02-03T12:13:38.000Z</time>
      </trkpt>
      <trkpt lat="42.92017" lon="0.59668">
        <ele>1687</ele>
        <time>2019-02-03T12:13:39.000Z</time>
      </trkpt>
      <trkpt lat="42.92017" lon="0.59668">
        <ele>1687</ele>
        <time>2019-02-03T12:13:40.000Z</time>
      </trkpt>
      <trkpt lat="42.92016" lon="0.59668">
        <ele>1687</ele>
        <time>2019-02-03T12:13:41.000Z</time>
      </trkpt>
      <trkpt lat="42.92016" lon="0.59667">
        <ele>1687</ele>
        <time>2019-02-03T12:13:42.000Z</time>
      </trkpt>
      <trkpt lat="42.92016" lon="0.59667">
        <ele>1687</ele>
        <time>2019-02-03T12:13:43.000Z</time>
      </trkpt>
      <trkpt lat="42.92015" lon="0.59667">
        <ele>1687</ele>
        <time>2019-02-03T12:13:44.000Z</time>
      </trkpt>
      <trkpt lat="42.92015" lon="0.59667">
        <ele>1687</ele>
        <time>2019-02-03T12:13:45.000Z</time>
      </trkpt>
      <trkpt lat="42.92014" lon="0.59667">
        <ele>1687</ele>
        <time>2019-02-03T12:13:46.000Z</time>
      </trkpt>
      <trkpt lat="42.92014" lon="0.59667">
        <ele>1687</ele>
        <time>2019-02-03T12:13:47.000Z</time>
      </trkpt>
      <trkpt lat="42.92013" lon="0.59667">
        <ele>1687</ele>
        <time>2019-02-03T12:13:48.000Z</time>
      </trkpt>
      <trkpt lat="42.92013" lon="0.59668">
        <ele>1687</ele>
        <time>2019-02-03T12:13:49.000Z</time>
      </trkpt>
      <trkpt lat="42.92012" lon="0.59668">
        <ele>1687</ele>
        <time>2019-02-03T12:13:50.000Z</time>
      </trkpt>
      <trkpt lat="42.92011" lon="0.59669">
        <ele>1687</ele>
        <time>2019-02-03T12:13:51.000Z</time>
      </trkpt>
      <trkpt lat="42.92011" lon="0.5967">
        <ele>1687</ele>
        <time>2019-02-03T12:13:52.000Z</time>
      </trkpt>
      <trkpt lat="42.9201" lon="0.5967">
        <ele>1687.3</ele>
        <time>2019-02-03T12:13:53.000Z</time>
      </trkpt>
      <trkpt lat="42.92009" lon="0.59671">
        <ele>1687.7</ele>
        <time>2019-02-03T12:13:54.000Z</time>
      </trkpt>
      <trkpt lat="42.92008" lon="0.59672">
        <ele>1688</ele>
        <time>2019-02-03T12:13:55.000Z</time>
      </trkpt>
      <trkpt lat="42.92007" lon="0.59672">
        <ele>1688</ele>
        <time>2019-02-03T12:13:56.000Z</time>
      </trkpt>
      <trkpt lat="42.92007" lon="0.59672">
        <ele>1688</ele>
        <time>2019-02-03T12:13:57.000Z</time>
      </trkpt>
      <trkpt lat="42.92006" lon="0.59672">
        <ele>1688</ele>
        <time>2019-02-03T12:13:58.000Z</time>
      </trkpt>
      <trkpt lat="42.92005" lon="0.59673">
        <ele>1688</ele>
        <time>2019-02-03T12:13:59.000Z</time>
      </trkpt>
      <trkpt lat="42.92005" lon="0.59673">
        <ele>1688</ele>
        <time>2019-02-03T12:14:00.000Z</time>
      </trkpt>
      <trkpt lat="42.92004" lon="0.59673">
        <ele>1688</ele>
        <time>2019-02-03T12:14:01.000Z</time>
      </trkpt>
      <trkpt lat="42.92004" lon="0.59673">
        <ele>1688.5</ele>
        <time>2019-02-03T12:14:02.000Z</time>
      </trkpt>
      <trkpt lat="42.92004" lon="0.59673">
        <ele>1689</ele>
        <time>2019-02-03T12:14:03.000Z</time>
      </trkpt>
      <trkpt lat="42.92004" lon="0.59673">
        <ele>1689</ele>
        <time>2019-02-03T12:14:04.000Z</time>
      </trkpt>
      <trkpt lat="42.92004" lon="0.59673">
        <ele>1689</ele>
        <time>2019-02-03T12:14:05.000Z</time>
      </trkpt>
      <trkpt lat="42.92004" lon="0.59673">
        <ele>1689</ele>
        <time>2019-02-03T12:14:06.000Z</time>
      </trkpt>
      <trkpt lat="42.92004" lon="0.59673">
        <ele>1689</ele>
        <time>2019-02-03T12:14:07.000Z</time>
      </trkpt>
      <trkpt lat="42.92004" lon="0.59673">
        <ele>1689</ele>
        <time>2019-02-03T12:14:08.000Z</time>
      </trkpt>
      <trkpt lat="42.92003" lon="0.59673">
        <ele>1689</ele>
        <time>2019-02-03T12:14:09.000Z</time>
      </trkpt>
      <trkpt lat="42.92003" lon="0.59673">
        <ele>1689</ele>
        <time>2019-02-03T12:14:10.000Z</time>
      </trkpt>
      <trkpt lat="42.92002" lon="0.59673">
        <ele>1689</ele>
        <time>2019-02-03T12:14:11.000Z</time>
      </trkpt>
      <trkpt lat="42.92001" lon="0.59673">
        <ele>1689</ele>
        <time>2019-02-03T12:14:12.000Z</time>
      </trkpt>
      <trkpt lat="42.92001" lon="0.59673">
        <ele>1689</ele>
        <time>2019-02-03T12:14:13.000Z</time>
      </trkpt>
      <trkpt lat="42.92" lon="0.59673">
        <ele>1689</ele>
        <time>2019-02-03T12:14:14.000Z</time>
      </trkpt>
      <trkpt lat="42.92" lon="0.59673">
        <ele>1689</ele>
        <time>2019-02-03T12:14:15.000Z</time>
      </trkpt>
      <trkpt lat="42.91999" lon="0.59673">
        <ele>1689</ele>
        <time>2019-02-03T12:14:16.000Z</time>
      </trkpt>
      <trkpt lat="42.91998" lon="0.59673">
        <ele>1689</ele>
        <time>2019-02-03T12:14:17.000Z</time>
      </trkpt>
      <trkpt lat="42.91998" lon="0.59673">
        <ele>1689</ele>
        <time>2019-02-03T12:14:18.000Z</time>
      </trkpt>
      <trkpt lat="42.91997" lon="0.59673">
        <ele>1689</ele>
        <time>2019-02-03T12:14:19.000Z</time>
      </trkpt>
      <trkpt lat="42.91997" lon="0.59673">
        <ele>1689</ele>
        <time>2019-02-03T12:14:20.000Z</time>
      </trkpt>
      <trkpt lat="42.91996" lon="0.59673">
        <ele>1689</ele>
        <time>2019-02-03T12:14:21.000Z</time>
      </trkpt>
      <trkpt lat="42.91996" lon="0.59673">
        <ele>1689.5</ele>
        <time>2019-02-03T12:14:22.000Z</time>
      </trkpt>
      <trkpt lat="42.91995" lon="0.59673">
        <ele>1690</ele>
        <time>2019-02-03T12:14:23.000Z</time>
      </trkpt>
      <trkpt lat="42.91995" lon="0.59673">
        <ele>1690</ele>
        <time>2019-02-03T12:14:24.000Z</time>
      </trkpt>
      <trkpt lat="42.91995" lon="0.59673">
        <ele>1690</ele>
        <time>2019-02-03T12:14:25.000Z</time>
      </trkpt>
      <trkpt lat="42.91994" lon="0.59673">
        <ele>1690</ele>
        <time>2019-02-03T12:14:26.000Z</time>
      </trkpt>
      <trkpt lat="42.91994" lon="0.59672">
        <ele>1690</ele>
        <time>2019-02-03T12:14:27.000Z</time>
      </trkpt>
      <trkpt lat="42.91994" lon="0.59672">
        <ele>1690.5</ele>
        <time>2019-02-03T12:14:28.000Z</time>
      </trkpt>
      <trkpt lat="42.91994" lon="0.59672">
        <ele>1691</ele>
        <time>2019-02-03T12:14:29.000Z</time>
      </trkpt>
      <trkpt lat="42.91993" lon="0.59672">
        <ele>1691</ele>
        <time>2019-02-03T12:14:30.000Z</time>
      </trkpt>
      <trkpt lat="42.91993" lon="0.59672">
        <ele>1691</ele>
        <time>2019-02-03T12:14:31.000Z</time>
      </trkpt>
      <trkpt lat="42.91992" lon="0.59671">
        <ele>1691</ele>
        <time>2019-02-03T12:14:32.000Z</time>
      </trkpt>
      <trkpt lat="42.91992" lon="0.59671">
        <ele>1691</ele>
        <time>2019-02-03T12:14:33.000Z</time>
      </trkpt>
      <trkpt lat="42.91992" lon="0.59671">
        <ele>1691</ele>
        <time>2019-02-03T12:14:34.000Z</time>
      </trkpt>
      <trkpt lat="42.91991" lon="0.59671">
        <ele>1691</ele>
        <time>2019-02-03T12:14:35.000Z</time>
      </trkpt>
      <trkpt lat="42.9199" lon="0.5967">
        <ele>1691</ele>
        <time>2019-02-03T12:14:36.000Z</time>
      </trkpt>
      <trkpt lat="42.9199" lon="0.5967">
        <ele>1691</ele>
        <time>2019-02-03T12:14:37.000Z</time>
      </trkpt>
      <trkpt lat="42.91989" lon="0.5967">
        <ele>1691</ele>
        <time>2019-02-03T12:14:38.000Z</time>
      </trkpt>
      <trkpt lat="42.91988" lon="0.5967">
        <ele>1691</ele>
        <time>2019-02-03T12:14:39.000Z</time>
      </trkpt>
      <trkpt lat="42.91988" lon="0.5967">
        <ele>1691</ele>
        <time>2019-02-03T12:14:40.000Z</time>
      </trkpt>
      <trkpt lat="42.91987" lon="0.5967">
        <ele>1691.3</ele>
        <time>2019-02-03T12:14:41.000Z</time>
      </trkpt>
      <trkpt lat="42.91987" lon="0.5967">
        <ele>1691.7</ele>
        <time>2019-02-03T12:14:42.000Z</time>
      </trkpt>
      <trkpt lat="42.91987" lon="0.59669">
        <ele>1692</ele>
        <time>2019-02-03T12:14:43.000Z</time>
      </trkpt>
      <trkpt lat="42.91987" lon="0.59669">
        <ele>1692</ele>
        <time>2019-02-03T12:14:44.000Z</time>
      </trkpt>
      <trkpt lat="42.91986" lon="0.59669">
        <ele>1692</ele>
        <time>2019-02-03T12:14:45.000Z</time>
      </trkpt>
      <trkpt lat="42.91986" lon="0.5967">
        <ele>1692</ele>
        <time>2019-02-03T12:14:46.000Z</time>
      </trkpt>
      <trkpt lat="42.91986" lon="0.5967">
        <ele>1692</ele>
        <time>2019-02-03T12:14:47.000Z</time>
      </trkpt>
      <trkpt lat="42.91986" lon="0.5967">
        <ele>1692</ele>
        <time>2019-02-03T12:14:48.000Z</time>
      </trkpt>
      <trkpt lat="42.91986" lon="0.5967">
        <ele>1692</ele>
        <time>2019-02-03T12:14:49.000Z</time>
      </trkpt>
      <trkpt lat="42.91986" lon="0.5967">
        <ele>1692</ele>
        <time>2019-02-03T12:14:50.000Z</time>
      </trkpt>
      <trkpt lat="42.91985" lon="0.5967">
        <ele>1692</ele>
        <time>2019-02-03T12:14:51.000Z</time>
      </trkpt>
      <trkpt lat="42.91985" lon="0.5967">
        <ele>1692</ele>
        <time>2019-02-03T12:14:52.000Z</time>
      </trkpt>
      <trkpt lat="42.91985" lon="0.5967">
        <ele>1692</ele>
        <time>2019-02-03T12:14:53.000Z</time>
      </trkpt>
      <trkpt lat="42.91984" lon="0.59671">
        <ele>1692</ele>
        <time>2019-02-03T12:14:54.000Z</time>
      </trkpt>
      <trkpt lat="42.91984" lon="0.59671">
        <ele>1692</ele>
        <time>2019-02-03T12:14:55.000Z</time>
      </trkpt>
      <trkpt lat="42.91983" lon="0.59671">
        <ele>1692</ele>
        <time>2019-02-03T12:14:56.000Z</time>
      </trkpt>
      <trkpt lat="42.91983" lon="0.59671">
        <ele>1692</ele>
        <time>2019-02-03T12:14:57.000Z</time>
      </trkpt>
      <trkpt lat="42.91982" lon="0.59671">
        <ele>1692</ele>
        <time>2019-02-03T12:14:58.000Z</time>
      </trkpt>
      <trkpt lat="42.91982" lon="0.59671">
        <ele>1692</ele>
        <time>2019-02-03T12:14:59.000Z</time>
      </trkpt>
      <trkpt lat="42.91982" lon="0.59671">
        <ele>1692</ele>
        <time>2019-02-03T12:15:00.000Z</time>
      </trkpt>
      <trkpt lat="42.91981" lon="0.59671">
        <ele>1692</ele>
        <time>2019-02-03T12:15:01.000Z</time>
      </trkpt>
      <trkpt lat="42.91981" lon="0.59671">
        <ele>1692</ele>
        <time>2019-02-03T12:15:02.000Z</time>
      </trkpt>
      <trkpt lat="42.91981" lon="0.59671">
        <ele>1692</ele>
        <time>2019-02-03T12:15:03.000Z</time>
      </trkpt>
      <trkpt lat="42.91981" lon="0.59671">
        <ele>1692</ele>
        <time>2019-02-03T12:15:04.000Z</time>
      </trkpt>
      <trkpt lat="42.91981" lon="0.59671">
        <ele>1692</ele>
        <time>2019-02-03T12:15:05.000Z</time>
      </trkpt>
      <trkpt lat="42.9198" lon="0.59671">
        <ele>1692</ele>
        <time>2019-02-03T12:15:06.000Z</time>
      </trkpt>
      <trkpt lat="42.91979" lon="0.59671">
        <ele>1692.3</ele>
        <time>2019-02-03T12:15:07.000Z</time>
      </trkpt>
      <trkpt lat="42.91979" lon="0.59671">
        <ele>1692.7</ele>
        <time>2019-02-03T12:15:08.000Z</time>
      </trkpt>
      <trkpt lat="42.91978" lon="0.59671">
        <ele>1693</ele>
        <time>2019-02-03T12:15:09.000Z</time>
      </trkpt>
      <trkpt lat="42.91977" lon="0.59671">
        <ele>1693</ele>
        <time>2019-02-03T12:15:10.000Z</time>
      </trkpt>
      <trkpt lat="42.91977" lon="0.59671">
        <ele>1693</ele>
        <time>2019-02-03T12:15:11.000Z</time>
      </trkpt>
      <trkpt lat="42.91977" lon="0.59671">
        <ele>1693</ele>
        <time>2019-02-03T12:15:12.000Z</time>
      </trkpt>
      <trkpt lat="42.91976" lon="0.59671">
        <ele>1693</ele>
        <time>2019-02-03T12:15:13.000Z</time>
      </trkpt>
      <trkpt lat="42.91976" lon="0.59671">
        <ele>1693</ele>
        <time>2019-02-03T12:15:14.000Z</time>
      </trkpt>
      <trkpt lat="42.91976" lon="0.59671">
        <ele>1693</ele>
        <time>2019-02-03T12:15:15.000Z</time>
      </trkpt>
      <trkpt lat="42.91975" lon="0.59672">
        <ele>1693</ele>
        <time>2019-02-03T12:15:16.000Z</time>
      </trkpt>
      <trkpt lat="42.91975" lon="0.59672">
        <ele>1693</ele>
        <time>2019-02-03T12:15:17.000Z</time>
      </trkpt>
      <trkpt lat="42.91974" lon="0.59672">
        <ele>1693</ele>
        <time>2019-02-03T12:15:18.000Z</time>
      </trkpt>
      <trkpt lat="42.91974" lon="0.59673">
        <ele>1693</ele>
        <time>2019-02-03T12:15:19.000Z</time>
      </trkpt>
      <trkpt lat="42.91973" lon="0.59673">
        <ele>1693</ele>
        <time>2019-02-03T12:15:20.000Z</time>
      </trkpt>
      <trkpt lat="42.91973" lon="0.59673">
        <ele>1693</ele>
        <time>2019-02-03T12:15:21.000Z</time>
      </trkpt>
      <trkpt lat="42.91972" lon="0.59673">
        <ele>1693</ele>
        <time>2019-02-03T12:15:22.000Z</time>
      </trkpt>
      <trkpt lat="42.91972" lon="0.59673">
        <ele>1693</ele>
        <time>2019-02-03T12:15:23.000Z</time>
      </trkpt>
      <trkpt lat="42.91972" lon="0.59673">
        <ele>1693</ele>
        <time>2019-02-03T12:15:24.000Z</time>
      </trkpt>
      <trkpt lat="42.91973" lon="0.59672">
        <ele>1693</ele>
        <time>2019-02-03T12:15:25.000Z</time>
      </trkpt>
      <trkpt lat="42.91973" lon="0.59672">
        <ele>1693</ele>
        <time>2019-02-03T12:15:26.000Z</time>
      </trkpt>
      <trkpt lat="42.91973" lon="0.59671">
        <ele>1693</ele>
        <time>2019-02-03T12:15:27.000Z</time>
      </trkpt>
      <trkpt lat="42.91973" lon="0.59671">
        <ele>1693</ele>
        <time>2019-02-03T12:15:28.000Z</time>
      </trkpt>
      <trkpt lat="42.91973" lon="0.59671">
        <ele>1693</ele>
        <time>2019-02-03T12:15:29.000Z</time>
      </trkpt>
      <trkpt lat="42.91973" lon="0.59671">
        <ele>1693</ele>
        <time>2019-02-03T12:15:30.000Z</time>
      </trkpt>
      <trkpt lat="42.91973" lon="0.59671">
        <ele>1693</ele>
        <time>2019-02-03T12:15:31.000Z</time>
      </trkpt>
      <trkpt lat="42.91973" lon="0.59671">
        <ele>1693</ele>
        <time>2019-02-03T12:15:32.000Z</time>
      </trkpt>
      <trkpt lat="42.91973" lon="0.59671">
        <ele>1693</ele>
        <time>2019-02-03T12:15:33.000Z</time>
      </trkpt>
      <trkpt lat="42.91972" lon="0.59672">
        <ele>1693</ele>
        <time>2019-02-03T12:15:34.000Z</time>
      </trkpt>
      <trkpt lat="42.91972" lon="0.59672">
        <ele>1693</ele>
        <time>2019-02-03T12:15:35.000Z</time>
      </trkpt>
      <trkpt lat="42.91972" lon="0.59672">
        <ele>1693</ele>
        <time>2019-02-03T12:15:36.000Z</time>
      </trkpt>
      <trkpt lat="42.91971" lon="0.59672">
        <ele>1693</ele>
        <time>2019-02-03T12:15:37.000Z</time>
      </trkpt>
      <trkpt lat="42.91971" lon="0.59672">
        <ele>1693</ele>
        <time>2019-02-03T12:15:38.000Z</time>
      </trkpt>
      <trkpt lat="42.9197" lon="0.59672">
        <ele>1693</ele>
        <time>2019-02-03T12:15:39.000Z</time>
      </trkpt>
      <trkpt lat="42.91969" lon="0.59673">
        <ele>1693</ele>
        <time>2019-02-03T12:15:40.000Z</time>
      </trkpt>
      <trkpt lat="42.91969" lon="0.59673">
        <ele>1693</ele>
        <time>2019-02-03T12:15:41.000Z</time>
      </trkpt>
      <trkpt lat="42.91968" lon="0.59673">
        <ele>1694</ele>
        <time>2019-02-03T12:15:42.000Z</time>
      </trkpt>
      <trkpt lat="42.91967" lon="0.59674">
        <ele>1694</ele>
        <time>2019-02-03T12:15:43.000Z</time>
      </trkpt>
      <trkpt lat="42.91966" lon="0.59674">
        <ele>1694</ele>
        <time>2019-02-03T12:15:44.000Z</time>
      </trkpt>
      <trkpt lat="42.91965" lon="0.59674">
        <ele>1694</ele>
        <time>2019-02-03T12:15:45.000Z</time>
      </trkpt>
      <trkpt lat="42.91965" lon="0.59675">
        <ele>1694</ele>
        <time>2019-02-03T12:15:46.000Z</time>
      </trkpt>
      <trkpt lat="42.91964" lon="0.59675">
        <ele>1694</ele>
        <time>2019-02-03T12:15:47.000Z</time>
      </trkpt>
      <trkpt lat="42.91964" lon="0.59675">
        <ele>1694</ele>
        <time>2019-02-03T12:15:48.000Z</time>
      </trkpt>
      <trkpt lat="42.91963" lon="0.59675">
        <ele>1694.3</ele>
        <time>2019-02-03T12:15:49.000Z</time>
      </trkpt>
      <trkpt lat="42.91963" lon="0.59675">
        <ele>1694.7</ele>
        <time>2019-02-03T12:15:50.000Z</time>
      </trkpt>
      <trkpt lat="42.91962" lon="0.59675">
        <ele>1695</ele>
        <time>2019-02-03T12:15:51.000Z</time>
      </trkpt>
      <trkpt lat="42.91962" lon="0.59675">
        <ele>1695</ele>
        <time>2019-02-03T12:15:52.000Z</time>
      </trkpt>
      <trkpt lat="42.91961" lon="0.59675">
        <ele>1695</ele>
        <time>2019-02-03T12:15:53.000Z</time>
      </trkpt>
      <trkpt lat="42.91961" lon="0.59675">
        <ele>1695</ele>
        <time>2019-02-03T12:15:54.000Z</time>
      </trkpt>
      <trkpt lat="42.9196" lon="0.59675">
        <ele>1695</ele>
        <time>2019-02-03T12:15:55.000Z</time>
      </trkpt>
      <trkpt lat="42.91959" lon="0.59675">
        <ele>1695</ele>
        <time>2019-02-03T12:15:56.000Z</time>
      </trkpt>
      <trkpt lat="42.91959" lon="0.59675">
        <ele>1695</ele>
        <time>2019-02-03T12:15:57.000Z</time>
      </trkpt>
      <trkpt lat="42.91958" lon="0.59675">
        <ele>1695</ele>
        <time>2019-02-03T12:15:58.000Z</time>
      </trkpt>
      <trkpt lat="42.91957" lon="0.59675">
        <ele>1695</ele>
        <time>2019-02-03T12:15:59.000Z</time>
      </trkpt>
      <trkpt lat="42.91957" lon="0.59675">
        <ele>1695</ele>
        <time>2019-02-03T12:16:00.000Z</time>
      </trkpt>
      <trkpt lat="42.91956" lon="0.59675">
        <ele>1695</ele>
        <time>2019-02-03T12:16:01.000Z</time>
      </trkpt>
      <trkpt lat="42.91956" lon="0.59675">
        <ele>1695</ele>
        <time>2019-02-03T12:16:02.000Z</time>
      </trkpt>
      <trkpt lat="42.91955" lon="0.59675">
        <ele>1695</ele>
        <time>2019-02-03T12:16:03.000Z</time>
      </trkpt>
      <trkpt lat="42.91954" lon="0.59674">
        <ele>1695</ele>
        <time>2019-02-03T12:16:04.000Z</time>
      </trkpt>
      <trkpt lat="42.91953" lon="0.59674">
        <ele>1695.3</ele>
        <time>2019-02-03T12:16:05.000Z</time>
      </trkpt>
      <trkpt lat="42.91953" lon="0.59674">
        <ele>1695.7</ele>
        <time>2019-02-03T12:16:06.000Z</time>
      </trkpt>
      <trkpt lat="42.91952" lon="0.59674">
        <ele>1696</ele>
        <time>2019-02-03T12:16:07.000Z</time>
      </trkpt>
      <trkpt lat="42.91952" lon="0.59674">
        <ele>1696</ele>
        <time>2019-02-03T12:16:08.000Z</time>
      </trkpt>
      <trkpt lat="42.91952" lon="0.59673">
        <ele>1696</ele>
        <time>2019-02-03T12:16:09.000Z</time>
      </trkpt>
      <trkpt lat="42.91951" lon="0.59673">
        <ele>1696.5</ele>
        <time>2019-02-03T12:16:10.000Z</time>
      </trkpt>
      <trkpt lat="42.9195" lon="0.59673">
        <ele>1697</ele>
        <time>2019-02-03T12:16:11.000Z</time>
      </trkpt>
      <trkpt lat="42.9195" lon="0.59673">
        <ele>1697</ele>
        <time>2019-02-03T12:16:12.000Z</time>
      </trkpt>
      <trkpt lat="42.91949" lon="0.59673">
        <ele>1697</ele>
        <time>2019-02-03T12:16:13.000Z</time>
      </trkpt>
      <trkpt lat="42.91948" lon="0.59674">
        <ele>1697</ele>
        <time>2019-02-03T12:16:14.000Z</time>
      </trkpt>
      <trkpt lat="42.91948" lon="0.59674">
        <ele>1697</ele>
        <time>2019-02-03T12:16:15.000Z</time>
      </trkpt>
      <trkpt lat="42.91947" lon="0.59674">
        <ele>1697</ele>
        <time>2019-02-03T12:16:16.000Z</time>
      </trkpt>
      <trkpt lat="42.91947" lon="0.59675">
        <ele>1697</ele>
        <time>2019-02-03T12:16:17.000Z</time>
      </trkpt>
      <trkpt lat="42.91946" lon="0.59675">
        <ele>1697</ele>
        <time>2019-02-03T12:16:18.000Z</time>
      </trkpt>
      <trkpt lat="42.91946" lon="0.59675">
        <ele>1697</ele>
        <time>2019-02-03T12:16:19.000Z</time>
      </trkpt>
      <trkpt lat="42.91946" lon="0.59675">
        <ele>1697</ele>
        <time>2019-02-03T12:16:20.000Z</time>
      </trkpt>
      <trkpt lat="42.91945" lon="0.59675">
        <ele>1697</ele>
        <time>2019-02-03T12:16:21.000Z</time>
      </trkpt>
      <trkpt lat="42.91945" lon="0.59675">
        <ele>1697</ele>
        <time>2019-02-03T12:16:22.000Z</time>
      </trkpt>
      <trkpt lat="42.91945" lon="0.59675">
        <ele>1697</ele>
        <time>2019-02-03T12:16:23.000Z</time>
      </trkpt>
      <trkpt lat="42.91944" lon="0.59675">
        <ele>1697</ele>
        <time>2019-02-03T12:16:24.000Z</time>
      </trkpt>
      <trkpt lat="42.91944" lon="0.59675">
        <ele>1697</ele>
        <time>2019-02-03T12:16:25.000Z</time>
      </trkpt>
      <trkpt lat="42.91943" lon="0.59675">
        <ele>1697</ele>
        <time>2019-02-03T12:16:26.000Z</time>
      </trkpt>
      <trkpt lat="42.91942" lon="0.59675">
        <ele>1697</ele>
        <time>2019-02-03T12:16:27.000Z</time>
      </trkpt>
      <trkpt lat="42.91941" lon="0.59675">
        <ele>1697</ele>
        <time>2019-02-03T12:16:28.000Z</time>
      </trkpt>
      <trkpt lat="42.9194" lon="0.59675">
        <ele>1697</ele>
        <time>2019-02-03T12:16:29.000Z</time>
      </trkpt>
      <trkpt lat="42.9194" lon="0.59675">
        <ele>1697.5</ele>
        <time>2019-02-03T12:16:30.000Z</time>
      </trkpt>
      <trkpt lat="42.91939" lon="0.59675">
        <ele>1698</ele>
        <time>2019-02-03T12:16:31.000Z</time>
      </trkpt>
      <trkpt lat="42.91938" lon="0.59676">
        <ele>1698</ele>
        <time>2019-02-03T12:16:32.000Z</time>
      </trkpt>
      <trkpt lat="42.91937" lon="0.59676">
        <ele>1698</ele>
        <time>2019-02-03T12:16:33.000Z</time>
      </trkpt>
      <trkpt lat="42.91937" lon="0.59676">
        <ele>1698</ele>
        <time>2019-02-03T12:16:34.000Z</time>
      </trkpt>
      <trkpt lat="42.91936" lon="0.59676">
        <ele>1698</ele>
        <time>2019-02-03T12:16:35.000Z</time>
      </trkpt>
      <trkpt lat="42.91935" lon="0.59676">
        <ele>1698</ele>
        <time>2019-02-03T12:16:36.000Z</time>
      </trkpt>
      <trkpt lat="42.91934" lon="0.59676">
        <ele>1698</ele>
        <time>2019-02-03T12:16:37.000Z</time>
      </trkpt>
      <trkpt lat="42.91933" lon="0.59676">
        <ele>1698</ele>
        <time>2019-02-03T12:16:38.000Z</time>
      </trkpt>
      <trkpt lat="42.91932" lon="0.59676">
        <ele>1698</ele>
        <time>2019-02-03T12:16:39.000Z</time>
      </trkpt>
      <trkpt lat="42.91931" lon="0.59676">
        <ele>1698</ele>
        <time>2019-02-03T12:16:40.000Z</time>
      </trkpt>
      <trkpt lat="42.91931" lon="0.59676">
        <ele>1698</ele>
        <time>2019-02-03T12:16:41.000Z</time>
      </trkpt>
      <trkpt lat="42.9193" lon="0.59676">
        <ele>1698</ele>
        <time>2019-02-03T12:16:42.000Z</time>
      </trkpt>
      <trkpt lat="42.91929" lon="0.59676">
        <ele>1698</ele>
        <time>2019-02-03T12:16:43.000Z</time>
      </trkpt>
      <trkpt lat="42.91928" lon="0.59677">
        <ele>1698</ele>
        <time>2019-02-03T12:16:44.000Z</time>
      </trkpt>
      <trkpt lat="42.91928" lon="0.59677">
        <ele>1698</ele>
        <time>2019-02-03T12:16:45.000Z</time>
      </trkpt>
      <trkpt lat="42.91927" lon="0.59677">
        <ele>1699</ele>
        <time>2019-02-03T12:16:46.000Z</time>
      </trkpt>
      <trkpt lat="42.91926" lon="0.59677">
        <ele>1699</ele>
        <time>2019-02-03T12:16:47.000Z</time>
      </trkpt>
      <trkpt lat="42.91926" lon="0.59677">
        <ele>1699</ele>
        <time>2019-02-03T12:16:48.000Z</time>
      </trkpt>
      <trkpt lat="42.91925" lon="0.59677">
        <ele>1699</ele>
        <time>2019-02-03T12:16:49.000Z</time>
      </trkpt>
      <trkpt lat="42.91924" lon="0.59677">
        <ele>1699</ele>
        <time>2019-02-03T12:16:50.000Z</time>
      </trkpt>
      <trkpt lat="42.91923" lon="0.59677">
        <ele>1699</ele>
        <time>2019-02-03T12:16:51.000Z</time>
      </trkpt>
      <trkpt lat="42.91922" lon="0.59678">
        <ele>1699</ele>
        <time>2019-02-03T12:16:52.000Z</time>
      </trkpt>
      <trkpt lat="42.91921" lon="0.59678">
        <ele>1699</ele>
        <time>2019-02-03T12:16:53.000Z</time>
      </trkpt>
      <trkpt lat="42.9192" lon="0.59679">
        <ele>1699</ele>
        <time>2019-02-03T12:16:54.000Z</time>
      </trkpt>
      <trkpt lat="42.91919" lon="0.59679">
        <ele>1699</ele>
        <time>2019-02-03T12:16:55.000Z</time>
      </trkpt>
      <trkpt lat="42.91918" lon="0.59679">
        <ele>1699</ele>
        <time>2019-02-03T12:16:56.000Z</time>
      </trkpt>
      <trkpt lat="42.91917" lon="0.5968">
        <ele>1699</ele>
        <time>2019-02-03T12:16:57.000Z</time>
      </trkpt>
      <trkpt lat="42.91917" lon="0.5968">
        <ele>1699</ele>
        <time>2019-02-03T12:16:58.000Z</time>
      </trkpt>
      <trkpt lat="42.91916" lon="0.59681">
        <ele>1699.3</ele>
        <time>2019-02-03T12:16:59.000Z</time>
      </trkpt>
      <trkpt lat="42.91915" lon="0.59681">
        <ele>1699.7</ele>
        <time>2019-02-03T12:17:00.000Z</time>
      </trkpt>
      <trkpt lat="42.91915" lon="0.59682">
        <ele>1700</ele>
        <time>2019-02-03T12:17:01.000Z</time>
      </trkpt>
      <trkpt lat="42.91914" lon="0.59682">
        <ele>1700</ele>
        <time>2019-02-03T12:17:02.000Z</time>
      </trkpt>
      <trkpt lat="42.91914" lon="0.59682">
        <ele>1700</ele>
        <time>2019-02-03T12:17:03.000Z</time>
      </trkpt>
      <trkpt lat="42.91913" lon="0.59682">
        <ele>1700</ele>
        <time>2019-02-03T12:17:04.000Z</time>
      </trkpt>
      <trkpt lat="42.91912" lon="0.59683">
        <ele>1700</ele>
        <time>2019-02-03T12:17:05.000Z</time>
      </trkpt>
      <trkpt lat="42.91912" lon="0.59683">
        <ele>1700</ele>
        <time>2019-02-03T12:17:06.000Z</time>
      </trkpt>
      <trkpt lat="42.91911" lon="0.59683">
        <ele>1700</ele>
        <time>2019-02-03T12:17:07.000Z</time>
      </trkpt>
      <trkpt lat="42.9191" lon="0.59684">
        <ele>1700</ele>
        <time>2019-02-03T12:17:08.000Z</time>
      </trkpt>
      <trkpt lat="42.9191" lon="0.59684">
        <ele>1700</ele>
        <time>2019-02-03T12:17:09.000Z</time>
      </trkpt>
      <trkpt lat="42.91909" lon="0.59684">
        <ele>1700</ele>
        <time>2019-02-03T12:17:10.000Z</time>
      </trkpt>
      <trkpt lat="42.91908" lon="0.59685">
        <ele>1700</ele>
        <time>2019-02-03T12:17:11.000Z</time>
      </trkpt>
      <trkpt lat="42.91907" lon="0.59685">
        <ele>1700</ele>
        <time>2019-02-03T12:17:12.000Z</time>
      </trkpt>
      <trkpt lat="42.91907" lon="0.59686">
        <ele>1700</ele>
        <time>2019-02-03T12:17:13.000Z</time>
      </trkpt>
      <trkpt lat="42.91906" lon="0.59686">
        <ele>1700</ele>
        <time>2019-02-03T12:17:14.000Z</time>
      </trkpt>
      <trkpt lat="42.91905" lon="0.59687">
        <ele>1700</ele>
        <time>2019-02-03T12:17:15.000Z</time>
      </trkpt>
      <trkpt lat="42.91905" lon="0.59688">
        <ele>1701</ele>
        <time>2019-02-03T12:17:16.000Z</time>
      </trkpt>
      <trkpt lat="42.91904" lon="0.59688">
        <ele>1701</ele>
        <time>2019-02-03T12:17:17.000Z</time>
      </trkpt>
      <trkpt lat="42.91904" lon="0.59689">
        <ele>1701</ele>
        <time>2019-02-03T12:17:18.000Z</time>
      </trkpt>
      <trkpt lat="42.91903" lon="0.59689">
        <ele>1701</ele>
        <time>2019-02-03T12:17:19.000Z</time>
      </trkpt>
      <trkpt lat="42.91902" lon="0.5969">
        <ele>1701</ele>
        <time>2019-02-03T12:17:20.000Z</time>
      </trkpt>
      <trkpt lat="42.91902" lon="0.59691">
        <ele>1701</ele>
        <time>2019-02-03T12:17:21.000Z</time>
      </trkpt>
      <trkpt lat="42.91901" lon="0.59691">
        <ele>1701</ele>
        <time>2019-02-03T12:17:22.000Z</time>
      </trkpt>
      <trkpt lat="42.91901" lon="0.59691">
        <ele>1701</ele>
        <time>2019-02-03T12:17:23.000Z</time>
      </trkpt>
      <trkpt lat="42.91901" lon="0.59691">
        <ele>1702</ele>
        <time>2019-02-03T12:17:24.000Z</time>
      </trkpt>
      <trkpt lat="42.91901" lon="0.59691">
        <ele>1702</ele>
        <time>2019-02-03T12:17:25.000Z</time>
      </trkpt>
      <trkpt lat="42.91901" lon="0.59692">
        <ele>1702</ele>
        <time>2019-02-03T12:17:26.000Z</time>
      </trkpt>
      <trkpt lat="42.91901" lon="0.59692">
        <ele>1702</ele>
        <time>2019-02-03T12:17:27.000Z</time>
      </trkpt>
      <trkpt lat="42.919" lon="0.59693">
        <ele>1702</ele>
        <time>2019-02-03T12:17:28.000Z</time>
      </trkpt>
      <trkpt lat="42.91898" lon="0.59694">
        <ele>1702</ele>
        <time>2019-02-03T12:17:29.000Z</time>
      </trkpt>
      <trkpt lat="42.91898" lon="0.59694">
        <ele>1702</ele>
        <time>2019-02-03T12:17:30.000Z</time>
      </trkpt>
      <trkpt lat="42.91897" lon="0.59694">
        <ele>1702</ele>
        <time>2019-02-03T12:17:31.000Z</time>
      </trkpt>
      <trkpt lat="42.91897" lon="0.59694">
        <ele>1702</ele>
        <time>2019-02-03T12:17:32.000Z</time>
      </trkpt>
      <trkpt lat="42.91896" lon="0.59694">
        <ele>1701.7</ele>
        <time>2019-02-03T12:17:33.000Z</time>
      </trkpt>
      <trkpt lat="42.91896" lon="0.59695">
        <ele>1701.3</ele>
        <time>2019-02-03T12:17:34.000Z</time>
      </trkpt>
      <trkpt lat="42.91895" lon="0.59695">
        <ele>1701</ele>
        <time>2019-02-03T12:17:35.000Z</time>
      </trkpt>
      <trkpt lat="42.91894" lon="0.59695">
        <ele>1701</ele>
        <time>2019-02-03T12:17:36.000Z</time>
      </trkpt>
      <trkpt lat="42.91894" lon="0.59696">
        <ele>1701</ele>
        <time>2019-02-03T12:17:37.000Z</time>
      </trkpt>
      <trkpt lat="42.91893" lon="0.59696">
        <ele>1702</ele>
        <time>2019-02-03T12:17:38.000Z</time>
      </trkpt>
      <trkpt lat="42.91892" lon="0.59696">
        <ele>1702</ele>
        <time>2019-02-03T12:17:39.000Z</time>
      </trkpt>
      <trkpt lat="42.91892" lon="0.59697">
        <ele>1702</ele>
        <time>2019-02-03T12:17:40.000Z</time>
      </trkpt>
      <trkpt lat="42.91891" lon="0.59697">
        <ele>1702</ele>
        <time>2019-02-03T12:17:41.000Z</time>
      </trkpt>
      <trkpt lat="42.9189" lon="0.59697">
        <ele>1702</ele>
        <time>2019-02-03T12:17:42.000Z</time>
      </trkpt>
      <trkpt lat="42.91889" lon="0.59698">
        <ele>1702</ele>
        <time>2019-02-03T12:17:43.000Z</time>
      </trkpt>
      <trkpt lat="42.91889" lon="0.59698">
        <ele>1702</ele>
        <time>2019-02-03T12:17:44.000Z</time>
      </trkpt>
      <trkpt lat="42.91888" lon="0.59698">
        <ele>1702</ele>
        <time>2019-02-03T12:17:45.000Z</time>
      </trkpt>
      <trkpt lat="42.91887" lon="0.59698">
        <ele>1702</ele>
        <time>2019-02-03T12:17:46.000Z</time>
      </trkpt>
      <trkpt lat="42.91886" lon="0.59698">
        <ele>1702</ele>
        <time>2019-02-03T12:17:47.000Z</time>
      </trkpt>
      <trkpt lat="42.91886" lon="0.59699">
        <ele>1702</ele>
        <time>2019-02-03T12:17:48.000Z</time>
      </trkpt>
      <trkpt lat="42.91885" lon="0.59699">
        <ele>1702</ele>
        <time>2019-02-03T12:17:49.000Z</time>
      </trkpt>
      <trkpt lat="42.91884" lon="0.59699">
        <ele>1702</ele>
        <time>2019-02-03T12:17:50.000Z</time>
      </trkpt>
      <trkpt lat="42.91883" lon="0.59699">
        <ele>1702</ele>
        <time>2019-02-03T12:17:51.000Z</time>
      </trkpt>
      <trkpt lat="42.91882" lon="0.597">
        <ele>1702</ele>
        <time>2019-02-03T12:17:52.000Z</time>
      </trkpt>
      <trkpt lat="42.91881" lon="0.597">
        <ele>1702</ele>
        <time>2019-02-03T12:17:53.000Z</time>
      </trkpt>
      <trkpt lat="42.91881" lon="0.59701">
        <ele>1702</ele>
        <time>2019-02-03T12:17:54.000Z</time>
      </trkpt>
      <trkpt lat="42.9188" lon="0.59701">
        <ele>1702</ele>
        <time>2019-02-03T12:17:55.000Z</time>
      </trkpt>
      <trkpt lat="42.9188" lon="0.59701">
        <ele>1702</ele>
        <time>2019-02-03T12:17:56.000Z</time>
      </trkpt>
      <trkpt lat="42.9188" lon="0.59702">
        <ele>1702</ele>
        <time>2019-02-03T12:17:57.000Z</time>
      </trkpt>
      <trkpt lat="42.9188" lon="0.59702">
        <ele>1702</ele>
        <time>2019-02-03T12:17:58.000Z</time>
      </trkpt>
      <trkpt lat="42.91879" lon="0.59702">
        <ele>1702</ele>
        <time>2019-02-03T12:17:59.000Z</time>
      </trkpt>
      <trkpt lat="42.91879" lon="0.59703">
        <ele>1702</ele>
        <time>2019-02-03T12:18:00.000Z</time>
      </trkpt>
      <trkpt lat="42.91878" lon="0.59703">
        <ele>1702</ele>
        <time>2019-02-03T12:18:01.000Z</time>
      </trkpt>
      <trkpt lat="42.91877" lon="0.59704">
        <ele>1703</ele>
        <time>2019-02-03T12:18:02.000Z</time>
      </trkpt>
      <trkpt lat="42.91876" lon="0.59704">
        <ele>1703</ele>
        <time>2019-02-03T12:18:03.000Z</time>
      </trkpt>
      <trkpt lat="42.91876" lon="0.59704">
        <ele>1703</ele>
        <time>2019-02-03T12:18:04.000Z</time>
      </trkpt>
      <trkpt lat="42.91875" lon="0.59705">
        <ele>1703</ele>
        <time>2019-02-03T12:18:05.000Z</time>
      </trkpt>
      <trkpt lat="42.91874" lon="0.59705">
        <ele>1702</ele>
        <time>2019-02-03T12:18:06.000Z</time>
      </trkpt>
      <trkpt lat="42.91873" lon="0.59705">
        <ele>1702.3</ele>
        <time>2019-02-03T12:18:07.000Z</time>
      </trkpt>
      <trkpt lat="42.91873" lon="0.59705">
        <ele>1702.7</ele>
        <time>2019-02-03T12:18:08.000Z</time>
      </trkpt>
      <trkpt lat="42.91872" lon="0.59706">
        <ele>1703</ele>
        <time>2019-02-03T12:18:09.000Z</time>
      </trkpt>
      <trkpt lat="42.91871" lon="0.59706">
        <ele>1702</ele>
        <time>2019-02-03T12:18:10.000Z</time>
      </trkpt>
      <trkpt lat="42.9187" lon="0.59706">
        <ele>1702</ele>
        <time>2019-02-03T12:18:11.000Z</time>
      </trkpt>
      <trkpt lat="42.91869" lon="0.59707">
        <ele>1702</ele>
        <time>2019-02-03T12:18:12.000Z</time>
      </trkpt>
      <trkpt lat="42.91869" lon="0.59707">
        <ele>1702</ele>
        <time>2019-02-03T12:18:13.000Z</time>
      </trkpt>
      <trkpt lat="42.91868" lon="0.59707">
        <ele>1702</ele>
        <time>2019-02-03T12:18:14.000Z</time>
      </trkpt>
      <trkpt lat="42.91867" lon="0.59708">
        <ele>1702</ele>
        <time>2019-02-03T12:18:15.000Z</time>
      </trkpt>
      <trkpt lat="42.91866" lon="0.59708">
        <ele>1702</ele>
        <time>2019-02-03T12:18:16.000Z</time>
      </trkpt>
      <trkpt lat="42.91865" lon="0.59709">
        <ele>1702</ele>
        <time>2019-02-03T12:18:17.000Z</time>
      </trkpt>
      <trkpt lat="42.91864" lon="0.59709">
        <ele>1702</ele>
        <time>2019-02-03T12:18:18.000Z</time>
      </trkpt>
      <trkpt lat="42.91863" lon="0.5971">
        <ele>1702.3</ele>
        <time>2019-02-03T12:18:19.000Z</time>
      </trkpt>
      <trkpt lat="42.91863" lon="0.5971">
        <ele>1702.7</ele>
        <time>2019-02-03T12:18:20.000Z</time>
      </trkpt>
      <trkpt lat="42.91862" lon="0.5971">
        <ele>1703</ele>
        <time>2019-02-03T12:18:21.000Z</time>
      </trkpt>
      <trkpt lat="42.91861" lon="0.59711">
        <ele>1703</ele>
        <time>2019-02-03T12:18:22.000Z</time>
      </trkpt>
      <trkpt lat="42.91861" lon="0.59711">
        <ele>1703</ele>
        <time>2019-02-03T12:18:23.000Z</time>
      </trkpt>
      <trkpt lat="42.9186" lon="0.59712">
        <ele>1703</ele>
        <time>2019-02-03T12:18:24.000Z</time>
      </trkpt>
      <trkpt lat="42.9186" lon="0.59712">
        <ele>1703</ele>
        <time>2019-02-03T12:18:25.000Z</time>
      </trkpt>
      <trkpt lat="42.91859" lon="0.59712">
        <ele>1703</ele>
        <time>2019-02-03T12:18:26.000Z</time>
      </trkpt>
      <trkpt lat="42.91859" lon="0.59713">
        <ele>1703</ele>
        <time>2019-02-03T12:18:27.000Z</time>
      </trkpt>
      <trkpt lat="42.91858" lon="0.59713">
        <ele>1703.5</ele>
        <time>2019-02-03T12:18:28.000Z</time>
      </trkpt>
      <trkpt lat="42.91858" lon="0.59713">
        <ele>1704</ele>
        <time>2019-02-03T12:18:29.000Z</time>
      </trkpt>
      <trkpt lat="42.91858" lon="0.59714">
        <ele>1704</ele>
        <time>2019-02-03T12:18:30.000Z</time>
      </trkpt>
      <trkpt lat="42.91857" lon="0.59714">
        <ele>1704</ele>
        <time>2019-02-03T12:18:31.000Z</time>
      </trkpt>
      <trkpt lat="42.91857" lon="0.59714">
        <ele>1704</ele>
        <time>2019-02-03T12:18:32.000Z</time>
      </trkpt>
      <trkpt lat="42.91856" lon="0.59715">
        <ele>1704</ele>
        <time>2019-02-03T12:18:33.000Z</time>
      </trkpt>
      <trkpt lat="42.91856" lon="0.59715">
        <ele>1704</ele>
        <time>2019-02-03T12:18:34.000Z</time>
      </trkpt>
      <trkpt lat="42.91855" lon="0.59715">
        <ele>1704</ele>
        <time>2019-02-03T12:18:35.000Z</time>
      </trkpt>
      <trkpt lat="42.91855" lon="0.59716">
        <ele>1704</ele>
        <time>2019-02-03T12:18:36.000Z</time>
      </trkpt>
      <trkpt lat="42.91854" lon="0.59716">
        <ele>1704</ele>
        <time>2019-02-03T12:18:37.000Z</time>
      </trkpt>
      <trkpt lat="42.91853" lon="0.59716">
        <ele>1705</ele>
        <time>2019-02-03T12:18:38.000Z</time>
      </trkpt>
      <trkpt lat="42.91853" lon="0.59717">
        <ele>1705</ele>
        <time>2019-02-03T12:18:39.000Z</time>
      </trkpt>
      <trkpt lat="42.91852" lon="0.59717">
        <ele>1705</ele>
        <time>2019-02-03T12:18:40.000Z</time>
      </trkpt>
      <trkpt lat="42.91851" lon="0.59717">
        <ele>1705</ele>
        <time>2019-02-03T12:18:41.000Z</time>
      </trkpt>
      <trkpt lat="42.9185" lon="0.59717">
        <ele>1705</ele>
        <time>2019-02-03T12:18:42.000Z</time>
      </trkpt>
      <trkpt lat="42.91849" lon="0.59718">
        <ele>1705</ele>
        <time>2019-02-03T12:18:43.000Z</time>
      </trkpt>
      <trkpt lat="42.91849" lon="0.59718">
        <ele>1705</ele>
        <time>2019-02-03T12:18:44.000Z</time>
      </trkpt>
      <trkpt lat="42.91848" lon="0.59718">
        <ele>1705</ele>
        <time>2019-02-03T12:18:45.000Z</time>
      </trkpt>
      <trkpt lat="42.91847" lon="0.59718">
        <ele>1705</ele>
        <time>2019-02-03T12:18:46.000Z</time>
      </trkpt>
      <trkpt lat="42.91847" lon="0.59718">
        <ele>1705</ele>
        <time>2019-02-03T12:18:47.000Z</time>
      </trkpt>
      <trkpt lat="42.91846" lon="0.59719">
        <ele>1705</ele>
        <time>2019-02-03T12:18:48.000Z</time>
      </trkpt>
      <trkpt lat="42.91846" lon="0.59719">
        <ele>1705</ele>
        <time>2019-02-03T12:18:49.000Z</time>
      </trkpt>
      <trkpt lat="42.91846" lon="0.59719">
        <ele>1705</ele>
        <time>2019-02-03T12:18:50.000Z</time>
      </trkpt>
      <trkpt lat="42.91846" lon="0.59719">
        <ele>1705</ele>
        <time>2019-02-03T12:18:51.000Z</time>
      </trkpt>
      <trkpt lat="42.91846" lon="0.59719">
        <ele>1705</ele>
        <time>2019-02-03T12:18:52.000Z</time>
      </trkpt>
      <trkpt lat="42.91846" lon="0.59719">
        <ele>1705</ele>
        <time>2019-02-03T12:18:53.000Z</time>
      </trkpt>
      <trkpt lat="42.91846" lon="0.59719">
        <ele>1705</ele>
        <time>2019-02-03T12:18:54.000Z</time>
      </trkpt>
      <trkpt lat="42.91846" lon="0.59719">
        <ele>1705</ele>
        <time>2019-02-03T12:18:55.000Z</time>
      </trkpt>
      <trkpt lat="42.91846" lon="0.59719">
        <ele>1705</ele>
        <time>2019-02-03T12:18:56.000Z</time>
      </trkpt>
      <trkpt lat="42.91846" lon="0.59719">
        <ele>1705</ele>
        <time>2019-02-03T12:18:57.000Z</time>
      </trkpt>
      <trkpt lat="42.91846" lon="0.59719">
        <ele>1705</ele>
        <time>2019-02-03T12:18:58.000Z</time>
      </trkpt>
      <trkpt lat="42.91846" lon="0.59719">
        <ele>1705</ele>
        <time>2019-02-03T12:18:59.000Z</time>
      </trkpt>
      <trkpt lat="42.91846" lon="0.59719">
        <ele>1705</ele>
        <time>2019-02-03T12:19:00.000Z</time>
      </trkpt>
      <trkpt lat="42.91846" lon="0.59719">
        <ele>1705</ele>
        <time>2019-02-03T12:19:01.000Z</time>
      </trkpt>
      <trkpt lat="42.91846" lon="0.59719">
        <ele>1705</ele>
        <time>2019-02-03T12:19:02.000Z</time>
      </trkpt>
      <trkpt lat="42.91846" lon="0.59719">
        <ele>1705</ele>
        <time>2019-02-03T12:19:03.000Z</time>
      </trkpt>
      <trkpt lat="42.91846" lon="0.59719">
        <ele>1704</ele>
        <time>2019-02-03T12:19:04.000Z</time>
      </trkpt>
      <trkpt lat="42.91846" lon="0.59719">
        <ele>1704</ele>
        <time>2019-02-03T12:19:05.000Z</time>
      </trkpt>
      <trkpt lat="42.91846" lon="0.59719">
        <ele>1704</ele>
        <time>2019-02-03T12:19:06.000Z</time>
      </trkpt>
      <trkpt lat="42.91846" lon="0.59719">
        <ele>1704</ele>
        <time>2019-02-03T12:19:07.000Z</time>
      </trkpt>
      <trkpt lat="42.91846" lon="0.59719">
        <ele>1704</ele>
        <time>2019-02-03T12:19:08.000Z</time>
      </trkpt>
      <trkpt lat="42.91846" lon="0.59719">
        <ele>1704</ele>
        <time>2019-02-03T12:19:09.000Z</time>
      </trkpt>
      <trkpt lat="42.91846" lon="0.59719">
        <ele>1704</ele>
        <time>2019-02-03T12:19:10.000Z</time>
      </trkpt>
      <trkpt lat="42.91846" lon="0.59719">
        <ele>1704</ele>
        <time>2019-02-03T12:19:11.000Z</time>
      </trkpt>
      <trkpt lat="42.91846" lon="0.59719">
        <ele>1704</ele>
        <time>2019-02-03T12:19:12.000Z</time>
      </trkpt>
      <trkpt lat="42.91846" lon="0.59719">
        <ele>1704</ele>
        <time>2019-02-03T12:19:13.000Z</time>
      </trkpt>
      <trkpt lat="42.91846" lon="0.59719">
        <ele>1704</ele>
        <time>2019-02-03T12:19:14.000Z</time>
      </trkpt>
      <trkpt lat="42.91846" lon="0.59719">
        <ele>1704</ele>
        <time>2019-02-03T12:19:15.000Z</time>
      </trkpt>
      <trkpt lat="42.91846" lon="0.59719">
        <ele>1704</ele>
        <time>2019-02-03T12:19:16.000Z</time>
      </trkpt>
      <trkpt lat="42.91846" lon="0.59719">
        <ele>1704</ele>
        <time>2019-02-03T12:19:17.000Z</time>
      </trkpt>
      <trkpt lat="42.91846" lon="0.59719">
        <ele>1704</ele>
        <time>2019-02-03T12:19:18.000Z</time>
      </trkpt>
      <trkpt lat="42.91845" lon="0.59719">
        <ele>1704</ele>
        <time>2019-02-03T12:19:19.000Z</time>
      </trkpt>
      <trkpt lat="42.91845" lon="0.59719">
        <ele>1704</ele>
        <time>2019-02-03T12:19:20.000Z</time>
      </trkpt>
      <trkpt lat="42.91845" lon="0.59719">
        <ele>1704</ele>
        <time>2019-02-03T12:19:21.000Z</time>
      </trkpt>
      <trkpt lat="42.91845" lon="0.59719">
        <ele>1704</ele>
        <time>2019-02-03T12:19:22.000Z</time>
      </trkpt>
      <trkpt lat="42.91845" lon="0.59719">
        <ele>1704</ele>
        <time>2019-02-03T12:19:23.000Z</time>
      </trkpt>
      <trkpt lat="42.91846" lon="0.59719">
        <ele>1704</ele>
        <time>2019-02-03T12:19:24.000Z</time>
      </trkpt>
      <trkpt lat="42.91846" lon="0.59719">
        <ele>1704.3</ele>
        <time>2019-02-03T12:19:25.000Z</time>
      </trkpt>
      <trkpt lat="42.91846" lon="0.59719">
        <ele>1704.7</ele>
        <time>2019-02-03T12:19:26.000Z</time>
      </trkpt>
      <trkpt lat="42.91846" lon="0.59719">
        <ele>1705</ele>
        <time>2019-02-03T12:19:27.000Z</time>
      </trkpt>
      <trkpt lat="42.91846" lon="0.59719">
        <ele>1705</ele>
        <time>2019-02-03T12:19:28.000Z</time>
      </trkpt>
      <trkpt lat="42.91846" lon="0.59719">
        <ele>1705</ele>
        <time>2019-02-03T12:19:29.000Z</time>
      </trkpt>
      <trkpt lat="42.91846" lon="0.59719">
        <ele>1705</ele>
        <time>2019-02-03T12:19:30.000Z</time>
      </trkpt>
      <trkpt lat="42.91846" lon="0.59719">
        <ele>1705</ele>
        <time>2019-02-03T12:19:31.000Z</time>
      </trkpt>
      <trkpt lat="42.91846" lon="0.59719">
        <ele>1705</ele>
        <time>2019-02-03T12:19:32.000Z</time>
      </trkpt>
      <trkpt lat="42.91845" lon="0.59719">
        <ele>1705</ele>
        <time>2019-02-03T12:19:33.000Z</time>
      </trkpt>
      <trkpt lat="42.91845" lon="0.59719">
        <ele>1705</ele>
        <time>2019-02-03T12:19:34.000Z</time>
      </trkpt>
      <trkpt lat="42.91845" lon="0.59719">
        <ele>1705</ele>
        <time>2019-02-03T12:19:35.000Z</time>
      </trkpt>
      <trkpt lat="42.91845" lon="0.59719">
        <ele>1705</ele>
        <time>2019-02-03T12:19:36.000Z</time>
      </trkpt>
      <trkpt lat="42.91845" lon="0.59719">
        <ele>1705</ele>
        <time>2019-02-03T12:19:37.000Z</time>
      </trkpt>
      <trkpt lat="42.91844" lon="0.5972">
        <ele>1705</ele>
        <time>2019-02-03T12:19:38.000Z</time>
      </trkpt>
      <trkpt lat="42.91844" lon="0.5972">
        <ele>1705</ele>
        <time>2019-02-03T12:19:39.000Z</time>
      </trkpt>
      <trkpt lat="42.91844" lon="0.59721">
        <ele>1705</ele>
        <time>2019-02-03T12:19:40.000Z</time>
      </trkpt>
      <trkpt lat="42.91843" lon="0.59722">
        <ele>1705</ele>
        <time>2019-02-03T12:19:41.000Z</time>
      </trkpt>
      <trkpt lat="42.91843" lon="0.59723">
        <ele>1705</ele>
        <time>2019-02-03T12:19:42.000Z</time>
      </trkpt>
      <trkpt lat="42.91843" lon="0.59723">
        <ele>1705</ele>
        <time>2019-02-03T12:19:43.000Z</time>
      </trkpt>
      <trkpt lat="42.91843" lon="0.59724">
        <ele>1705</ele>
        <time>2019-02-03T12:19:44.000Z</time>
      </trkpt>
      <trkpt lat="42.91842" lon="0.59724">
        <ele>1705</ele>
        <time>2019-02-03T12:19:45.000Z</time>
      </trkpt>
      <trkpt lat="42.91842" lon="0.59724">
        <ele>1705</ele>
        <time>2019-02-03T12:19:46.000Z</time>
      </trkpt>
      <trkpt lat="42.91842" lon="0.59724">
        <ele>1705</ele>
        <time>2019-02-03T12:19:47.000Z</time>
      </trkpt>
      <trkpt lat="42.91842" lon="0.59724">
        <ele>1705</ele>
        <time>2019-02-03T12:19:48.000Z</time>
      </trkpt>
      <trkpt lat="42.91842" lon="0.59724">
        <ele>1705</ele>
        <time>2019-02-03T12:19:49.000Z</time>
      </trkpt>
      <trkpt lat="42.91842" lon="0.59724">
        <ele>1705</ele>
        <time>2019-02-03T12:19:50.000Z</time>
      </trkpt>
      <trkpt lat="42.91842" lon="0.59724">
        <ele>1705</ele>
        <time>2019-02-03T12:19:51.000Z</time>
      </trkpt>
      <trkpt lat="42.91842" lon="0.59724">
        <ele>1705</ele>
        <time>2019-02-03T12:19:52.000Z</time>
      </trkpt>
      <trkpt lat="42.91842" lon="0.59724">
        <ele>1705</ele>
        <time>2019-02-03T12:19:53.000Z</time>
      </trkpt>
      <trkpt lat="42.91842" lon="0.59724">
        <ele>1705</ele>
        <time>2019-02-03T12:19:54.000Z</time>
      </trkpt>
      <trkpt lat="42.91842" lon="0.59724">
        <ele>1705</ele>
        <time>2019-02-03T12:19:55.000Z</time>
      </trkpt>
      <trkpt lat="42.91842" lon="0.59724">
        <ele>1705</ele>
        <time>2019-02-03T12:19:56.000Z</time>
      </trkpt>
      <trkpt lat="42.91842" lon="0.59724">
        <ele>1705</ele>
        <time>2019-02-03T12:19:57.000Z</time>
      </trkpt>
      <trkpt lat="42.91842" lon="0.59724">
        <ele>1705</ele>
        <time>2019-02-03T12:19:58.000Z</time>
      </trkpt>
      <trkpt lat="42.91842" lon="0.59724">
        <ele>1705</ele>
        <time>2019-02-03T12:19:59.000Z</time>
      </trkpt>
      <trkpt lat="42.91842" lon="0.59724">
        <ele>1706</ele>
        <time>2019-02-03T12:20:00.000Z</time>
      </trkpt>
      <trkpt lat="42.91842" lon="0.59724">
        <ele>1705.7</ele>
        <time>2019-02-03T12:20:01.000Z</time>
      </trkpt>
      <trkpt lat="42.91842" lon="0.59724">
        <ele>1705.3</ele>
        <time>2019-02-03T12:20:02.000Z</time>
      </trkpt>
      <trkpt lat="42.91842" lon="0.59724">
        <ele>1705</ele>
        <time>2019-02-03T12:20:03.000Z</time>
      </trkpt>
      <trkpt lat="42.91842" lon="0.59724">
        <ele>1705</ele>
        <time>2019-02-03T12:20:04.000Z</time>
      </trkpt>
      <trkpt lat="42.91842" lon="0.59724">
        <ele>1705</ele>
        <time>2019-02-03T12:20:05.000Z</time>
      </trkpt>
      <trkpt lat="42.91842" lon="0.59724">
        <ele>1704</ele>
        <time>2019-02-03T12:20:06.000Z</time>
      </trkpt>
      <trkpt lat="42.91842" lon="0.59724">
        <ele>1704</ele>
        <time>2019-02-03T12:20:07.000Z</time>
      </trkpt>
      <trkpt lat="42.91842" lon="0.59724">
        <ele>1704</ele>
        <time>2019-02-03T12:20:08.000Z</time>
      </trkpt>
      <trkpt lat="42.91842" lon="0.59724">
        <ele>1704</ele>
        <time>2019-02-03T12:20:09.000Z</time>
      </trkpt>
      <trkpt lat="42.91842" lon="0.59725">
        <ele>1704</ele>
        <time>2019-02-03T12:20:10.000Z</time>
      </trkpt>
      <trkpt lat="42.91841" lon="0.59725">
        <ele>1704</ele>
        <time>2019-02-03T12:20:11.000Z</time>
      </trkpt>
      <trkpt lat="42.91841" lon="0.59725">
        <ele>1704</ele>
        <time>2019-02-03T12:20:12.000Z</time>
      </trkpt>
      <trkpt lat="42.91841" lon="0.59725">
        <ele>1704</ele>
        <time>2019-02-03T12:20:13.000Z</time>
      </trkpt>
      <trkpt lat="42.91841" lon="0.59725">
        <ele>1704</ele>
        <time>2019-02-03T12:20:14.000Z</time>
      </trkpt>
      <trkpt lat="42.91841" lon="0.59725">
        <ele>1704</ele>
        <time>2019-02-03T12:20:15.000Z</time>
      </trkpt>
      <trkpt lat="42.91841" lon="0.59725">
        <ele>1704</ele>
        <time>2019-02-03T12:20:16.000Z</time>
      </trkpt>
      <trkpt lat="42.91841" lon="0.59725">
        <ele>1704</ele>
        <time>2019-02-03T12:20:17.000Z</time>
      </trkpt>
      <trkpt lat="42.91841" lon="0.59725">
        <ele>1704</ele>
        <time>2019-02-03T12:20:18.000Z</time>
      </trkpt>
      <trkpt lat="42.91841" lon="0.59725">
        <ele>1704.5</ele>
        <time>2019-02-03T12:20:19.000Z</time>
      </trkpt>
      <trkpt lat="42.91841" lon="0.59725">
        <ele>1705</ele>
        <time>2019-02-03T12:20:20.000Z</time>
      </trkpt>
      <trkpt lat="42.91841" lon="0.59725">
        <ele>1705</ele>
        <time>2019-02-03T12:20:21.000Z</time>
      </trkpt>
      <trkpt lat="42.91841" lon="0.59725">
        <ele>1705</ele>
        <time>2019-02-03T12:20:22.000Z</time>
      </trkpt>
      <trkpt lat="42.91841" lon="0.59725">
        <ele>1705</ele>
        <time>2019-02-03T12:20:23.000Z</time>
      </trkpt>
      <trkpt lat="42.9184" lon="0.59725">
        <ele>1705</ele>
        <time>2019-02-03T12:20:24.000Z</time>
      </trkpt>
      <trkpt lat="42.9184" lon="0.59725">
        <ele>1705</ele>
        <time>2019-02-03T12:20:25.000Z</time>
      </trkpt>
      <trkpt lat="42.9184" lon="0.59725">
        <ele>1705</ele>
        <time>2019-02-03T12:20:26.000Z</time>
      </trkpt>
      <trkpt lat="42.9184" lon="0.59725">
        <ele>1705</ele>
        <time>2019-02-03T12:20:27.000Z</time>
      </trkpt>
      <trkpt lat="42.9184" lon="0.59725">
        <ele>1705</ele>
        <time>2019-02-03T12:20:28.000Z</time>
      </trkpt>
      <trkpt lat="42.9184" lon="0.59725">
        <ele>1705</ele>
        <time>2019-02-03T12:20:29.000Z</time>
      </trkpt>
      <trkpt lat="42.9184" lon="0.59725">
        <ele>1705.5</ele>
        <time>2019-02-03T12:20:30.000Z</time>
      </trkpt>
      <trkpt lat="42.9184" lon="0.59725">
        <ele>1706</ele>
        <time>2019-02-03T12:20:31.000Z</time>
      </trkpt>
      <trkpt lat="42.9184" lon="0.59725">
        <ele>1706</ele>
        <time>2019-02-03T12:20:32.000Z</time>
      </trkpt>
      <trkpt lat="42.9184" lon="0.59725">
        <ele>1706</ele>
        <time>2019-02-03T12:20:33.000Z</time>
      </trkpt>
      <trkpt lat="42.9184" lon="0.59725">
        <ele>1706</ele>
        <time>2019-02-03T12:20:34.000Z</time>
      </trkpt>
      <trkpt lat="42.9184" lon="0.59725">
        <ele>1706</ele>
        <time>2019-02-03T12:20:35.000Z</time>
      </trkpt>
      <trkpt lat="42.9184" lon="0.59725">
        <ele>1705.5</ele>
        <time>2019-02-03T12:20:36.000Z</time>
      </trkpt>
      <trkpt lat="42.9184" lon="0.59725">
        <ele>1705</ele>
        <time>2019-02-03T12:20:37.000Z</time>
      </trkpt>
      <trkpt lat="42.9184" lon="0.59725">
        <ele>1704.5</ele>
        <time>2019-02-03T12:20:38.000Z</time>
      </trkpt>
      <trkpt lat="42.9184" lon="0.59725">
        <ele>1704</ele>
        <time>2019-02-03T12:20:39.000Z</time>
      </trkpt>
      <trkpt lat="42.9184" lon="0.59726">
        <ele>1704.5</ele>
        <time>2019-02-03T12:20:40.000Z</time>
      </trkpt>
      <trkpt lat="42.9184" lon="0.59726">
        <ele>1705</ele>
        <time>2019-02-03T12:20:41.000Z</time>
      </trkpt>
      <trkpt lat="42.91839" lon="0.59726">
        <ele>1705</ele>
        <time>2019-02-03T12:20:42.000Z</time>
      </trkpt>
      <trkpt lat="42.91839" lon="0.59726">
        <ele>1705</ele>
        <time>2019-02-03T12:20:43.000Z</time>
      </trkpt>
      <trkpt lat="42.91839" lon="0.59727">
        <ele>1705</ele>
        <time>2019-02-03T12:20:44.000Z</time>
      </trkpt>
      <trkpt lat="42.91839" lon="0.59727">
        <ele>1705</ele>
        <time>2019-02-03T12:20:45.000Z</time>
      </trkpt>
      <trkpt lat="42.91838" lon="0.59728">
        <ele>1705</ele>
        <time>2019-02-03T12:20:46.000Z</time>
      </trkpt>
      <trkpt lat="42.91838" lon="0.59728">
        <ele>1705</ele>
        <time>2019-02-03T12:20:47.000Z</time>
      </trkpt>
      <trkpt lat="42.91838" lon="0.59728">
        <ele>1705</ele>
        <time>2019-02-03T12:20:48.000Z</time>
      </trkpt>
      <trkpt lat="42.91838" lon="0.59728">
        <ele>1705</ele>
        <time>2019-02-03T12:20:49.000Z</time>
      </trkpt>
      <trkpt lat="42.91838" lon="0.59728">
        <ele>1705</ele>
        <time>2019-02-03T12:20:50.000Z</time>
      </trkpt>
      <trkpt lat="42.91838" lon="0.59728">
        <ele>1705</ele>
        <time>2019-02-03T12:20:51.000Z</time>
      </trkpt>
      <trkpt lat="42.91838" lon="0.59727">
        <ele>1705</ele>
        <time>2019-02-03T12:20:52.000Z</time>
      </trkpt>
      <trkpt lat="42.91839" lon="0.59726">
        <ele>1705</ele>
        <time>2019-02-03T12:20:53.000Z</time>
      </trkpt>
      <trkpt lat="42.91839" lon="0.59726">
        <ele>1705</ele>
        <time>2019-02-03T12:20:54.000Z</time>
      </trkpt>
      <trkpt lat="42.91839" lon="0.59725">
        <ele>1705</ele>
        <time>2019-02-03T12:20:55.000Z</time>
      </trkpt>
      <trkpt lat="42.91839" lon="0.59725">
        <ele>1705</ele>
        <time>2019-02-03T12:20:56.000Z</time>
      </trkpt>
      <trkpt lat="42.91838" lon="0.59724">
        <ele>1705</ele>
        <time>2019-02-03T12:20:57.000Z</time>
      </trkpt>
      <trkpt lat="42.91838" lon="0.59724">
        <ele>1705</ele>
        <time>2019-02-03T12:20:58.000Z</time>
      </trkpt>
      <trkpt lat="42.91838" lon="0.59724">
        <ele>1705</ele>
        <time>2019-02-03T12:20:59.000Z</time>
      </trkpt>
      <trkpt lat="42.91838" lon="0.59724">
        <ele>1705</ele>
        <time>2019-02-03T12:21:00.000Z</time>
      </trkpt>
      <trkpt lat="42.91838" lon="0.59723">
        <ele>1705</ele>
        <time>2019-02-03T12:21:01.000Z</time>
      </trkpt>
      <trkpt lat="42.91838" lon="0.59723">
        <ele>1705</ele>
        <time>2019-02-03T12:21:02.000Z</time>
      </trkpt>
      <trkpt lat="42.91837" lon="0.59723">
        <ele>1705</ele>
        <time>2019-02-03T12:21:03.000Z</time>
      </trkpt>
      <trkpt lat="42.91837" lon="0.59723">
        <ele>1705</ele>
        <time>2019-02-03T12:21:04.000Z</time>
      </trkpt>
      <trkpt lat="42.91837" lon="0.59723">
        <ele>1705</ele>
        <time>2019-02-03T12:21:05.000Z</time>
      </trkpt>
      <trkpt lat="42.91837" lon="0.59723">
        <ele>1705</ele>
        <time>2019-02-03T12:21:06.000Z</time>
      </trkpt>
      <trkpt lat="42.91837" lon="0.59723">
        <ele>1705</ele>
        <time>2019-02-03T12:21:07.000Z</time>
      </trkpt>
      <trkpt lat="42.91837" lon="0.59723">
        <ele>1705</ele>
        <time>2019-02-03T12:21:08.000Z</time>
      </trkpt>
      <trkpt lat="42.91837" lon="0.59723">
        <ele>1705</ele>
        <time>2019-02-03T12:21:09.000Z</time>
      </trkpt>
      <trkpt lat="42.91837" lon="0.59723">
        <ele>1705</ele>
        <time>2019-02-03T12:21:10.000Z</time>
      </trkpt>
      <trkpt lat="42.91837" lon="0.59723">
        <ele>1705</ele>
        <time>2019-02-03T12:21:11.000Z</time>
      </trkpt>
      <trkpt lat="42.91837" lon="0.59723">
        <ele>1705</ele>
        <time>2019-02-03T12:21:12.000Z</time>
      </trkpt>
      <trkpt lat="42.91837" lon="0.59723">
        <ele>1705</ele>
        <time>2019-02-03T12:21:13.000Z</time>
      </trkpt>
      <trkpt lat="42.91837" lon="0.59723">
        <ele>1705</ele>
        <time>2019-02-03T12:21:14.000Z</time>
      </trkpt>
      <trkpt lat="42.91837" lon="0.59723">
        <ele>1705</ele>
        <time>2019-02-03T12:21:15.000Z</time>
      </trkpt>
      <trkpt lat="42.91837" lon="0.59723">
        <ele>1705</ele>
        <time>2019-02-03T12:21:16.000Z</time>
      </trkpt>
      <trkpt lat="42.91837" lon="0.59723">
        <ele>1705</ele>
        <time>2019-02-03T12:21:17.000Z</time>
      </trkpt>
      <trkpt lat="42.91837" lon="0.59723">
        <ele>1704.5</ele>
        <time>2019-02-03T12:21:18.000Z</time>
      </trkpt>
      <trkpt lat="42.91837" lon="0.59723">
        <ele>1704</ele>
        <time>2019-02-03T12:21:19.000Z</time>
      </trkpt>
      <trkpt lat="42.91837" lon="0.59723">
        <ele>1704</ele>
        <time>2019-02-03T12:21:20.000Z</time>
      </trkpt>
      <trkpt lat="42.91837" lon="0.59723">
        <ele>1704</ele>
        <time>2019-02-03T12:21:21.000Z</time>
      </trkpt>
      <trkpt lat="42.91837" lon="0.59723">
        <ele>1704</ele>
        <time>2019-02-03T12:21:22.000Z</time>
      </trkpt>
      <trkpt lat="42.91837" lon="0.59723">
        <ele>1704</ele>
        <time>2019-02-03T12:21:23.000Z</time>
      </trkpt>
      <trkpt lat="42.91837" lon="0.59723">
        <ele>1704</ele>
        <time>2019-02-03T12:21:24.000Z</time>
      </trkpt>
      <trkpt lat="42.91837" lon="0.59723">
        <ele>1704</ele>
        <time>2019-02-03T12:21:25.000Z</time>
      </trkpt>
      <trkpt lat="42.91838" lon="0.59722">
        <ele>1704</ele>
        <time>2019-02-03T12:21:26.000Z</time>
      </trkpt>
      <trkpt lat="42.91838" lon="0.59722">
        <ele>1704</ele>
        <time>2019-02-03T12:21:27.000Z</time>
      </trkpt>
      <trkpt lat="42.91838" lon="0.59722">
        <ele>1704</ele>
        <time>2019-02-03T12:21:28.000Z</time>
      </trkpt>
      <trkpt lat="42.91839" lon="0.59721">
        <ele>1704</ele>
        <time>2019-02-03T12:21:29.000Z</time>
      </trkpt>
      <trkpt lat="42.91839" lon="0.59721">
        <ele>1704</ele>
        <time>2019-02-03T12:21:30.000Z</time>
      </trkpt>
      <trkpt lat="42.9184" lon="0.5972">
        <ele>1704</ele>
        <time>2019-02-03T12:21:31.000Z</time>
      </trkpt>
      <trkpt lat="42.9184" lon="0.5972">
        <ele>1704</ele>
        <time>2019-02-03T12:21:32.000Z</time>
      </trkpt>
      <trkpt lat="42.91841" lon="0.59719">
        <ele>1704</ele>
        <time>2019-02-03T12:21:33.000Z</time>
      </trkpt>
      <trkpt lat="42.91841" lon="0.59719">
        <ele>1703.5</ele>
        <time>2019-02-03T12:21:34.000Z</time>
      </trkpt>
      <trkpt lat="42.91842" lon="0.59718">
        <ele>1703</ele>
        <time>2019-02-03T12:21:35.000Z</time>
      </trkpt>
      <trkpt lat="42.91842" lon="0.59718">
        <ele>1703</ele>
        <time>2019-02-03T12:21:36.000Z</time>
      </trkpt>
      <trkpt lat="42.91842" lon="0.59718">
        <ele>1703</ele>
        <time>2019-02-03T12:21:37.000Z</time>
      </trkpt>
      <trkpt lat="42.91843" lon="0.59718">
        <ele>1703</ele>
        <time>2019-02-03T12:21:38.000Z</time>
      </trkpt>
      <trkpt lat="42.91843" lon="0.59717">
        <ele>1703</ele>
        <time>2019-02-03T12:21:39.000Z</time>
      </trkpt>
      <trkpt lat="42.91843" lon="0.59717">
        <ele>1703</ele>
        <time>2019-02-03T12:21:40.000Z</time>
      </trkpt>
      <trkpt lat="42.91843" lon="0.59717">
        <ele>1703</ele>
        <time>2019-02-03T12:21:41.000Z</time>
      </trkpt>
      <trkpt lat="42.91844" lon="0.59717">
        <ele>1703</ele>
        <time>2019-02-03T12:21:42.000Z</time>
      </trkpt>
      <trkpt lat="42.91844" lon="0.59717">
        <ele>1703</ele>
        <time>2019-02-03T12:21:43.000Z</time>
      </trkpt>
      <trkpt lat="42.91844" lon="0.59717">
        <ele>1703</ele>
        <time>2019-02-03T12:21:44.000Z</time>
      </trkpt>
      <trkpt lat="42.91844" lon="0.59717">
        <ele>1702.7</ele>
        <time>2019-02-03T12:21:45.000Z</time>
      </trkpt>
      <trkpt lat="42.91845" lon="0.59717">
        <ele>1702.3</ele>
        <time>2019-02-03T12:21:46.000Z</time>
      </trkpt>
      <trkpt lat="42.91845" lon="0.59717">
        <ele>1702</ele>
        <time>2019-02-03T12:21:47.000Z</time>
      </trkpt>
      <trkpt lat="42.91845" lon="0.59716">
        <ele>1702</ele>
        <time>2019-02-03T12:21:48.000Z</time>
      </trkpt>
      <trkpt lat="42.91846" lon="0.59716">
        <ele>1702</ele>
        <time>2019-02-03T12:21:49.000Z</time>
      </trkpt>
      <trkpt lat="42.91846" lon="0.59715">
        <ele>1702</ele>
        <time>2019-02-03T12:21:50.000Z</time>
      </trkpt>
      <trkpt lat="42.91847" lon="0.59715">
        <ele>1701.7</ele>
        <time>2019-02-03T12:21:51.000Z</time>
      </trkpt>
      <trkpt lat="42.91848" lon="0.59714">
        <ele>1701.3</ele>
        <time>2019-02-03T12:21:52.000Z</time>
      </trkpt>
      <trkpt lat="42.91849" lon="0.59714">
        <ele>1701</ele>
        <time>2019-02-03T12:21:53.000Z</time>
      </trkpt>
      <trkpt lat="42.9185" lon="0.59713">
        <ele>1701</ele>
        <time>2019-02-03T12:21:54.000Z</time>
      </trkpt>
      <trkpt lat="42.91851" lon="0.59713">
        <ele>1701</ele>
        <time>2019-02-03T12:21:55.000Z</time>
      </trkpt>
      <trkpt lat="42.91852" lon="0.59712">
        <ele>1701</ele>
        <time>2019-02-03T12:21:56.000Z</time>
      </trkpt>
      <trkpt lat="42.91852" lon="0.59712">
        <ele>1701</ele>
        <time>2019-02-03T12:21:57.000Z</time>
      </trkpt>
      <trkpt lat="42.91853" lon="0.59711">
        <ele>1701</ele>
        <time>2019-02-03T12:21:58.000Z</time>
      </trkpt>
      <trkpt lat="42.91853" lon="0.5971">
        <ele>1701</ele>
        <time>2019-02-03T12:21:59.000Z</time>
      </trkpt>
      <trkpt lat="42.91854" lon="0.59709">
        <ele>1701</ele>
        <time>2019-02-03T12:22:00.000Z</time>
      </trkpt>
      <trkpt lat="42.91854" lon="0.59708">
        <ele>1701</ele>
        <time>2019-02-03T12:22:01.000Z</time>
      </trkpt>
      <trkpt lat="42.91855" lon="0.59707">
        <ele>1701</ele>
        <time>2019-02-03T12:22:02.000Z</time>
      </trkpt>
      <trkpt lat="42.91855" lon="0.59706">
        <ele>1700.7</ele>
        <time>2019-02-03T12:22:03.000Z</time>
      </trkpt>
      <trkpt lat="42.91855" lon="0.59705">
        <ele>1700.3</ele>
        <time>2019-02-03T12:22:04.000Z</time>
      </trkpt>
      <trkpt lat="42.91856" lon="0.59704">
        <ele>1700</ele>
        <time>2019-02-03T12:22:05.000Z</time>
      </trkpt>
      <trkpt lat="42.91856" lon="0.59703">
        <ele>1700</ele>
        <time>2019-02-03T12:22:06.000Z</time>
      </trkpt>
      <trkpt lat="42.91857" lon="0.59702">
        <ele>1699.7</ele>
        <time>2019-02-03T12:22:07.000Z</time>
      </trkpt>
      <trkpt lat="42.91857" lon="0.59701">
        <ele>1699.3</ele>
        <time>2019-02-03T12:22:08.000Z</time>
      </trkpt>
      <trkpt lat="42.91858" lon="0.597">
        <ele>1699</ele>
        <time>2019-02-03T12:22:09.000Z</time>
      </trkpt>
      <trkpt lat="42.91859" lon="0.59699">
        <ele>1698</ele>
        <time>2019-02-03T12:22:10.000Z</time>
      </trkpt>
      <trkpt lat="42.91859" lon="0.59698">
        <ele>1698</ele>
        <time>2019-02-03T12:22:11.000Z</time>
      </trkpt>
      <trkpt lat="42.9186" lon="0.59697">
        <ele>1698</ele>
        <time>2019-02-03T12:22:12.000Z</time>
      </trkpt>
      <trkpt lat="42.91861" lon="0.59696">
        <ele>1697.7</ele>
        <time>2019-02-03T12:22:13.000Z</time>
      </trkpt>
      <trkpt lat="42.91861" lon="0.59694">
        <ele>1697.3</ele>
        <time>2019-02-03T12:22:14.000Z</time>
      </trkpt>
      <trkpt lat="42.91862" lon="0.59693">
        <ele>1697</ele>
        <time>2019-02-03T12:22:15.000Z</time>
      </trkpt>
      <trkpt lat="42.91863" lon="0.59692">
        <ele>1697</ele>
        <time>2019-02-03T12:22:16.000Z</time>
      </trkpt>
      <trkpt lat="42.91863" lon="0.59691">
        <ele>1697</ele>
        <time>2019-02-03T12:22:17.000Z</time>
      </trkpt>
      <trkpt lat="42.91864" lon="0.5969">
        <ele>1697</ele>
        <time>2019-02-03T12:22:18.000Z</time>
      </trkpt>
      <trkpt lat="42.91865" lon="0.5969">
        <ele>1697</ele>
        <time>2019-02-03T12:22:19.000Z</time>
      </trkpt>
      <trkpt lat="42.91866" lon="0.59689">
        <ele>1697</ele>
        <time>2019-02-03T12:22:20.000Z</time>
      </trkpt>
      <trkpt lat="42.91866" lon="0.59688">
        <ele>1696.5</ele>
        <time>2019-02-03T12:22:21.000Z</time>
      </trkpt>
      <trkpt lat="42.91867" lon="0.59687">
        <ele>1696</ele>
        <time>2019-02-03T12:22:22.000Z</time>
      </trkpt>
      <trkpt lat="42.91868" lon="0.59686">
        <ele>1696.3</ele>
        <time>2019-02-03T12:22:23.000Z</time>
      </trkpt>
      <trkpt lat="42.91869" lon="0.59685">
        <ele>1696.7</ele>
        <time>2019-02-03T12:22:24.000Z</time>
      </trkpt>
      <trkpt lat="42.91869" lon="0.59684">
        <ele>1697</ele>
        <time>2019-02-03T12:22:25.000Z</time>
      </trkpt>
      <trkpt lat="42.9187" lon="0.59684">
        <ele>1696</ele>
        <time>2019-02-03T12:22:26.000Z</time>
      </trkpt>
      <trkpt lat="42.91871" lon="0.59683">
        <ele>1696</ele>
        <time>2019-02-03T12:22:27.000Z</time>
      </trkpt>
      <trkpt lat="42.91871" lon="0.59682">
        <ele>1696</ele>
        <time>2019-02-03T12:22:28.000Z</time>
      </trkpt>
      <trkpt lat="42.91872" lon="0.59681">
        <ele>1696</ele>
        <time>2019-02-03T12:22:29.000Z</time>
      </trkpt>
      <trkpt lat="42.91873" lon="0.5968">
        <ele>1695</ele>
        <time>2019-02-03T12:22:30.000Z</time>
      </trkpt>
      <trkpt lat="42.91873" lon="0.59679">
        <ele>1695</ele>
        <time>2019-02-03T12:22:31.000Z</time>
      </trkpt>
      <trkpt lat="42.91874" lon="0.59678">
        <ele>1695</ele>
        <time>2019-02-03T12:22:32.000Z</time>
      </trkpt>
      <trkpt lat="42.91874" lon="0.59677">
        <ele>1695</ele>
        <time>2019-02-03T12:22:33.000Z</time>
      </trkpt>
      <trkpt lat="42.91875" lon="0.59676">
        <ele>1694</ele>
        <time>2019-02-03T12:22:34.000Z</time>
      </trkpt>
      <trkpt lat="42.91876" lon="0.59675">
        <ele>1694</ele>
        <time>2019-02-03T12:22:35.000Z</time>
      </trkpt>
      <trkpt lat="42.91876" lon="0.59674">
        <ele>1694</ele>
        <time>2019-02-03T12:22:36.000Z</time>
      </trkpt>
      <trkpt lat="42.91877" lon="0.59673">
        <ele>1694</ele>
        <time>2019-02-03T12:22:37.000Z</time>
      </trkpt>
      <trkpt lat="42.91877" lon="0.59672">
        <ele>1694</ele>
        <time>2019-02-03T12:22:38.000Z</time>
      </trkpt>
      <trkpt lat="42.91878" lon="0.5967">
        <ele>1694</ele>
        <time>2019-02-03T12:22:39.000Z</time>
      </trkpt>
      <trkpt lat="42.91878" lon="0.59669">
        <ele>1694</ele>
        <time>2019-02-03T12:22:40.000Z</time>
      </trkpt>
      <trkpt lat="42.91879" lon="0.59668">
        <ele>1693.5</ele>
        <time>2019-02-03T12:22:41.000Z</time>
      </trkpt>
      <trkpt lat="42.91879" lon="0.59667">
        <ele>1693</ele>
        <time>2019-02-03T12:22:42.000Z</time>
      </trkpt>
      <trkpt lat="42.9188" lon="0.59666">
        <ele>1693</ele>
        <time>2019-02-03T12:22:43.000Z</time>
      </trkpt>
      <trkpt lat="42.9188" lon="0.59665">
        <ele>1693</ele>
        <time>2019-02-03T12:22:44.000Z</time>
      </trkpt>
      <trkpt lat="42.91881" lon="0.59664">
        <ele>1693</ele>
        <time>2019-02-03T12:22:45.000Z</time>
      </trkpt>
      <trkpt lat="42.91881" lon="0.59663">
        <ele>1693</ele>
        <time>2019-02-03T12:22:46.000Z</time>
      </trkpt>
      <trkpt lat="42.91881" lon="0.59662">
        <ele>1693</ele>
        <time>2019-02-03T12:22:47.000Z</time>
      </trkpt>
      <trkpt lat="42.91882" lon="0.59661">
        <ele>1693</ele>
        <time>2019-02-03T12:22:48.000Z</time>
      </trkpt>
      <trkpt lat="42.91883" lon="0.59659">
        <ele>1693</ele>
        <time>2019-02-03T12:22:49.000Z</time>
      </trkpt>
      <trkpt lat="42.91883" lon="0.59658">
        <ele>1692</ele>
        <time>2019-02-03T12:22:50.000Z</time>
      </trkpt>
      <trkpt lat="42.91884" lon="0.59657">
        <ele>1692</ele>
        <time>2019-02-03T12:22:51.000Z</time>
      </trkpt>
      <trkpt lat="42.91885" lon="0.59655">
        <ele>1692</ele>
        <time>2019-02-03T12:22:52.000Z</time>
      </trkpt>
      <trkpt lat="42.91885" lon="0.59654">
        <ele>1692</ele>
        <time>2019-02-03T12:22:53.000Z</time>
      </trkpt>
      <trkpt lat="42.91886" lon="0.59653">
        <ele>1692</ele>
        <time>2019-02-03T12:22:54.000Z</time>
      </trkpt>
      <trkpt lat="42.91887" lon="0.59652">
        <ele>1692</ele>
        <time>2019-02-03T12:22:55.000Z</time>
      </trkpt>
      <trkpt lat="42.91887" lon="0.59652">
        <ele>1692</ele>
        <time>2019-02-03T12:22:56.000Z</time>
      </trkpt>
      <trkpt lat="42.91888" lon="0.5965">
        <ele>1692</ele>
        <time>2019-02-03T12:22:57.000Z</time>
      </trkpt>
      <trkpt lat="42.91889" lon="0.59649">
        <ele>1692</ele>
        <time>2019-02-03T12:22:58.000Z</time>
      </trkpt>
      <trkpt lat="42.9189" lon="0.59648">
        <ele>1691.5</ele>
        <time>2019-02-03T12:22:59.000Z</time>
      </trkpt>
      <trkpt lat="42.9189" lon="0.59647">
        <ele>1691</ele>
        <time>2019-02-03T12:23:00.000Z</time>
      </trkpt>
      <trkpt lat="42.91891" lon="0.59646">
        <ele>1691</ele>
        <time>2019-02-03T12:23:01.000Z</time>
      </trkpt>
      <trkpt lat="42.91892" lon="0.59645">
        <ele>1691</ele>
        <time>2019-02-03T12:23:02.000Z</time>
      </trkpt>
      <trkpt lat="42.91892" lon="0.59644">
        <ele>1690.7</ele>
        <time>2019-02-03T12:23:03.000Z</time>
      </trkpt>
      <trkpt lat="42.91893" lon="0.59643">
        <ele>1690.3</ele>
        <time>2019-02-03T12:23:04.000Z</time>
      </trkpt>
      <trkpt lat="42.91893" lon="0.59642">
        <ele>1690</ele>
        <time>2019-02-03T12:23:05.000Z</time>
      </trkpt>
      <trkpt lat="42.91894" lon="0.59642">
        <ele>1689</ele>
        <time>2019-02-03T12:23:06.000Z</time>
      </trkpt>
      <trkpt lat="42.91894" lon="0.59641">
        <ele>1689</ele>
        <time>2019-02-03T12:23:07.000Z</time>
      </trkpt>
      <trkpt lat="42.91894" lon="0.5964">
        <ele>1689</ele>
        <time>2019-02-03T12:23:08.000Z</time>
      </trkpt>
      <trkpt lat="42.91894" lon="0.5964">
        <ele>1689</ele>
        <time>2019-02-03T12:23:09.000Z</time>
      </trkpt>
      <trkpt lat="42.91894" lon="0.5964">
        <ele>1689</ele>
        <time>2019-02-03T12:23:10.000Z</time>
      </trkpt>
      <trkpt lat="42.91894" lon="0.5964">
        <ele>1689</ele>
        <time>2019-02-03T12:23:11.000Z</time>
      </trkpt>
      <trkpt lat="42.91894" lon="0.5964">
        <ele>1689</ele>
        <time>2019-02-03T12:23:12.000Z</time>
      </trkpt>
      <trkpt lat="42.91894" lon="0.5964">
        <ele>1689</ele>
        <time>2019-02-03T12:23:13.000Z</time>
      </trkpt>
      <trkpt lat="42.91894" lon="0.5964">
        <ele>1689</ele>
        <time>2019-02-03T12:23:14.000Z</time>
      </trkpt>
      <trkpt lat="42.91894" lon="0.5964">
        <ele>1689</ele>
        <time>2019-02-03T12:23:15.000Z</time>
      </trkpt>
      <trkpt lat="42.91894" lon="0.59639">
        <ele>1689</ele>
        <time>2019-02-03T12:23:16.000Z</time>
      </trkpt>
      <trkpt lat="42.91894" lon="0.59639">
        <ele>1689</ele>
        <time>2019-02-03T12:23:17.000Z</time>
      </trkpt>
      <trkpt lat="42.91894" lon="0.59639">
        <ele>1689</ele>
        <time>2019-02-03T12:23:18.000Z</time>
      </trkpt>
      <trkpt lat="42.91894" lon="0.59639">
        <ele>1689</ele>
        <time>2019-02-03T12:23:19.000Z</time>
      </trkpt>
      <trkpt lat="42.91894" lon="0.59638">
        <ele>1689</ele>
        <time>2019-02-03T12:23:20.000Z</time>
      </trkpt>
      <trkpt lat="42.91894" lon="0.59638">
        <ele>1689</ele>
        <time>2019-02-03T12:23:21.000Z</time>
      </trkpt>
      <trkpt lat="42.91895" lon="0.59637">
        <ele>1689</ele>
        <time>2019-02-03T12:23:22.000Z</time>
      </trkpt>
      <trkpt lat="42.91895" lon="0.59636">
        <ele>1689</ele>
        <time>2019-02-03T12:23:23.000Z</time>
      </trkpt>
      <trkpt lat="42.91896" lon="0.59634">
        <ele>1689</ele>
        <time>2019-02-03T12:23:24.000Z</time>
      </trkpt>
      <trkpt lat="42.91896" lon="0.59633">
        <ele>1689</ele>
        <time>2019-02-03T12:23:25.000Z</time>
      </trkpt>
      <trkpt lat="42.91897" lon="0.59632">
        <ele>1689</ele>
        <time>2019-02-03T12:23:26.000Z</time>
      </trkpt>
      <trkpt lat="42.91898" lon="0.59631">
        <ele>1688.7</ele>
        <time>2019-02-03T12:23:27.000Z</time>
      </trkpt>
      <trkpt lat="42.91898" lon="0.59629">
        <ele>1688.3</ele>
        <time>2019-02-03T12:23:28.000Z</time>
      </trkpt>
      <trkpt lat="42.91899" lon="0.59628">
        <ele>1688</ele>
        <time>2019-02-03T12:23:29.000Z</time>
      </trkpt>
      <trkpt lat="42.919" lon="0.59627">
        <ele>1688</ele>
        <time>2019-02-03T12:23:30.000Z</time>
      </trkpt>
      <trkpt lat="42.919" lon="0.59626">
        <ele>1688</ele>
        <time>2019-02-03T12:23:31.000Z</time>
      </trkpt>
      <trkpt lat="42.91901" lon="0.59625">
        <ele>1688</ele>
        <time>2019-02-03T12:23:32.000Z</time>
      </trkpt>
      <trkpt lat="42.91901" lon="0.59624">
        <ele>1687.5</ele>
        <time>2019-02-03T12:23:33.000Z</time>
      </trkpt>
      <trkpt lat="42.91902" lon="0.59623">
        <ele>1687</ele>
        <time>2019-02-03T12:23:34.000Z</time>
      </trkpt>
      <trkpt lat="42.91902" lon="0.59622">
        <ele>1687</ele>
        <time>2019-02-03T12:23:35.000Z</time>
      </trkpt>
      <trkpt lat="42.91903" lon="0.59621">
        <ele>1687</ele>
        <time>2019-02-03T12:23:36.000Z</time>
      </trkpt>
      <trkpt lat="42.91904" lon="0.5962">
        <ele>1687</ele>
        <time>2019-02-03T12:23:37.000Z</time>
      </trkpt>
      <trkpt lat="42.91904" lon="0.59619">
        <ele>1687</ele>
        <time>2019-02-03T12:23:38.000Z</time>
      </trkpt>
      <trkpt lat="42.91905" lon="0.59618">
        <ele>1686.5</ele>
        <time>2019-02-03T12:23:39.000Z</time>
      </trkpt>
      <trkpt lat="42.91905" lon="0.59617">
        <ele>1686</ele>
        <time>2019-02-03T12:23:40.000Z</time>
      </trkpt>
      <trkpt lat="42.91906" lon="0.59617">
        <ele>1686</ele>
        <time>2019-02-03T12:23:41.000Z</time>
      </trkpt>
      <trkpt lat="42.91906" lon="0.59616">
        <ele>1686</ele>
        <time>2019-02-03T12:23:42.000Z</time>
      </trkpt>
      <trkpt lat="42.91907" lon="0.59616">
        <ele>1686</ele>
        <time>2019-02-03T12:23:43.000Z</time>
      </trkpt>
      <trkpt lat="42.91907" lon="0.59615">
        <ele>1686</ele>
        <time>2019-02-03T12:23:44.000Z</time>
      </trkpt>
      <trkpt lat="42.91907" lon="0.59615">
        <ele>1685.7</ele>
        <time>2019-02-03T12:23:45.000Z</time>
      </trkpt>
      <trkpt lat="42.91908" lon="0.59614">
        <ele>1685.3</ele>
        <time>2019-02-03T12:23:46.000Z</time>
      </trkpt>
      <trkpt lat="42.91908" lon="0.59613">
        <ele>1685</ele>
        <time>2019-02-03T12:23:47.000Z</time>
      </trkpt>
      <trkpt lat="42.91909" lon="0.59613">
        <ele>1685</ele>
        <time>2019-02-03T12:23:48.000Z</time>
      </trkpt>
      <trkpt lat="42.91909" lon="0.59612">
        <ele>1685</ele>
        <time>2019-02-03T12:23:49.000Z</time>
      </trkpt>
      <trkpt lat="42.9191" lon="0.5961">
        <ele>1685</ele>
        <time>2019-02-03T12:23:50.000Z</time>
      </trkpt>
      <trkpt lat="42.91911" lon="0.59609">
        <ele>1685</ele>
        <time>2019-02-03T12:23:51.000Z</time>
      </trkpt>
      <trkpt lat="42.91911" lon="0.59608">
        <ele>1685</ele>
        <time>2019-02-03T12:23:52.000Z</time>
      </trkpt>
      <trkpt lat="42.91912" lon="0.59607">
        <ele>1684.7</ele>
        <time>2019-02-03T12:23:53.000Z</time>
      </trkpt>
      <trkpt lat="42.91912" lon="0.59607">
        <ele>1684.3</ele>
        <time>2019-02-03T12:23:54.000Z</time>
      </trkpt>
      <trkpt lat="42.91912" lon="0.59606">
        <ele>1684</ele>
        <time>2019-02-03T12:23:55.000Z</time>
      </trkpt>
      <trkpt lat="42.91913" lon="0.59605">
        <ele>1683</ele>
        <time>2019-02-03T12:23:56.000Z</time>
      </trkpt>
      <trkpt lat="42.91913" lon="0.59603">
        <ele>1683</ele>
        <time>2019-02-03T12:23:57.000Z</time>
      </trkpt>
      <trkpt lat="42.91913" lon="0.59602">
        <ele>1683</ele>
        <time>2019-02-03T12:23:58.000Z</time>
      </trkpt>
      <trkpt lat="42.91914" lon="0.59601">
        <ele>1683</ele>
        <time>2019-02-03T12:23:59.000Z</time>
      </trkpt>
      <trkpt lat="42.91914" lon="0.59599">
        <ele>1683</ele>
        <time>2019-02-03T12:24:00.000Z</time>
      </trkpt>
      <trkpt lat="42.91914" lon="0.59597">
        <ele>1683</ele>
        <time>2019-02-03T12:24:01.000Z</time>
      </trkpt>
      <trkpt lat="42.91914" lon="0.59596">
        <ele>1683</ele>
        <time>2019-02-03T12:24:02.000Z</time>
      </trkpt>
      <trkpt lat="42.91915" lon="0.59594">
        <ele>1683</ele>
        <time>2019-02-03T12:24:03.000Z</time>
      </trkpt>
      <trkpt lat="42.91915" lon="0.59593">
        <ele>1683</ele>
        <time>2019-02-03T12:24:04.000Z</time>
      </trkpt>
      <trkpt lat="42.91915" lon="0.59592">
        <ele>1683</ele>
        <time>2019-02-03T12:24:05.000Z</time>
      </trkpt>
      <trkpt lat="42.91916" lon="0.59591">
        <ele>1683</ele>
        <time>2019-02-03T12:24:06.000Z</time>
      </trkpt>
      <trkpt lat="42.91916" lon="0.59591">
        <ele>1683</ele>
        <time>2019-02-03T12:24:07.000Z</time>
      </trkpt>
      <trkpt lat="42.91916" lon="0.5959">
        <ele>1683</ele>
        <time>2019-02-03T12:24:08.000Z</time>
      </trkpt>
      <trkpt lat="42.91917" lon="0.59589">
        <ele>1683</ele>
        <time>2019-02-03T12:24:09.000Z</time>
      </trkpt>
      <trkpt lat="42.91917" lon="0.59588">
        <ele>1682</ele>
        <time>2019-02-03T12:24:10.000Z</time>
      </trkpt>
      <trkpt lat="42.91917" lon="0.59587">
        <ele>1682</ele>
        <time>2019-02-03T12:24:11.000Z</time>
      </trkpt>
      <trkpt lat="42.91918" lon="0.59585">
        <ele>1682</ele>
        <time>2019-02-03T12:24:12.000Z</time>
      </trkpt>
      <trkpt lat="42.91918" lon="0.59584">
        <ele>1681.7</ele>
        <time>2019-02-03T12:24:13.000Z</time>
      </trkpt>
      <trkpt lat="42.91918" lon="0.59583">
        <ele>1681.3</ele>
        <time>2019-02-03T12:24:14.000Z</time>
      </trkpt>
      <trkpt lat="42.91919" lon="0.59582">
        <ele>1681</ele>
        <time>2019-02-03T12:24:15.000Z</time>
      </trkpt>
      <trkpt lat="42.91919" lon="0.59581">
        <ele>1681</ele>
        <time>2019-02-03T12:24:16.000Z</time>
      </trkpt>
      <trkpt lat="42.91919" lon="0.5958">
        <ele>1680.5</ele>
        <time>2019-02-03T12:24:17.000Z</time>
      </trkpt>
      <trkpt lat="42.9192" lon="0.59579">
        <ele>1680</ele>
        <time>2019-02-03T12:24:18.000Z</time>
      </trkpt>
      <trkpt lat="42.9192" lon="0.59578">
        <ele>1680</ele>
        <time>2019-02-03T12:24:19.000Z</time>
      </trkpt>
      <trkpt lat="42.91921" lon="0.59577">
        <ele>1680</ele>
        <time>2019-02-03T12:24:20.000Z</time>
      </trkpt>
      <trkpt lat="42.91921" lon="0.59576">
        <ele>1680</ele>
        <time>2019-02-03T12:24:21.000Z</time>
      </trkpt>
      <trkpt lat="42.91921" lon="0.59574">
        <ele>1680</ele>
        <time>2019-02-03T12:24:22.000Z</time>
      </trkpt>
      <trkpt lat="42.91922" lon="0.59573">
        <ele>1680</ele>
        <time>2019-02-03T12:24:23.000Z</time>
      </trkpt>
      <trkpt lat="42.91922" lon="0.59572">
        <ele>1679</ele>
        <time>2019-02-03T12:24:24.000Z</time>
      </trkpt>
      <trkpt lat="42.91922" lon="0.59571">
        <ele>1679</ele>
        <time>2019-02-03T12:24:25.000Z</time>
      </trkpt>
      <trkpt lat="42.91923" lon="0.5957">
        <ele>1679</ele>
        <time>2019-02-03T12:24:26.000Z</time>
      </trkpt>
      <trkpt lat="42.91923" lon="0.59569">
        <ele>1678.5</ele>
        <time>2019-02-03T12:24:27.000Z</time>
      </trkpt>
      <trkpt lat="42.91924" lon="0.59569">
        <ele>1678</ele>
        <time>2019-02-03T12:24:28.000Z</time>
      </trkpt>
      <trkpt lat="42.91924" lon="0.59568">
        <ele>1678</ele>
        <time>2019-02-03T12:24:29.000Z</time>
      </trkpt>
      <trkpt lat="42.91924" lon="0.59567">
        <ele>1678</ele>
        <time>2019-02-03T12:24:30.000Z</time>
      </trkpt>
      <trkpt lat="42.91924" lon="0.59566">
        <ele>1678</ele>
        <time>2019-02-03T12:24:31.000Z</time>
      </trkpt>
      <trkpt lat="42.91925" lon="0.59565">
        <ele>1677</ele>
        <time>2019-02-03T12:24:32.000Z</time>
      </trkpt>
      <trkpt lat="42.91925" lon="0.59564">
        <ele>1677</ele>
        <time>2019-02-03T12:24:33.000Z</time>
      </trkpt>
      <trkpt lat="42.91925" lon="0.59562">
        <ele>1677</ele>
        <time>2019-02-03T12:24:34.000Z</time>
      </trkpt>
      <trkpt lat="42.91925" lon="0.59561">
        <ele>1676.5</ele>
        <time>2019-02-03T12:24:35.000Z</time>
      </trkpt>
      <trkpt lat="42.91924" lon="0.5956">
        <ele>1676</ele>
        <time>2019-02-03T12:24:36.000Z</time>
      </trkpt>
      <trkpt lat="42.91924" lon="0.59559">
        <ele>1676</ele>
        <time>2019-02-03T12:24:37.000Z</time>
      </trkpt>
      <trkpt lat="42.91924" lon="0.59558">
        <ele>1676</ele>
        <time>2019-02-03T12:24:38.000Z</time>
      </trkpt>
      <trkpt lat="42.91924" lon="0.59557">
        <ele>1676</ele>
        <time>2019-02-03T12:24:39.000Z</time>
      </trkpt>
      <trkpt lat="42.91925" lon="0.59556">
        <ele>1675</ele>
        <time>2019-02-03T12:24:40.000Z</time>
      </trkpt>
      <trkpt lat="42.91925" lon="0.59555">
        <ele>1675</ele>
        <time>2019-02-03T12:24:41.000Z</time>
      </trkpt>
      <trkpt lat="42.91925" lon="0.59554">
        <ele>1675</ele>
        <time>2019-02-03T12:24:42.000Z</time>
      </trkpt>
      <trkpt lat="42.91925" lon="0.59553">
        <ele>1674</ele>
        <time>2019-02-03T12:24:43.000Z</time>
      </trkpt>
      <trkpt lat="42.91925" lon="0.59552">
        <ele>1674</ele>
        <time>2019-02-03T12:24:44.000Z</time>
      </trkpt>
      <trkpt lat="42.91925" lon="0.59551">
        <ele>1674</ele>
        <time>2019-02-03T12:24:45.000Z</time>
      </trkpt>
      <trkpt lat="42.91925" lon="0.5955">
        <ele>1674</ele>
        <time>2019-02-03T12:24:46.000Z</time>
      </trkpt>
      <trkpt lat="42.91926" lon="0.59549">
        <ele>1674</ele>
        <time>2019-02-03T12:24:47.000Z</time>
      </trkpt>
      <trkpt lat="42.91926" lon="0.59548">
        <ele>1673</ele>
        <time>2019-02-03T12:24:48.000Z</time>
      </trkpt>
      <trkpt lat="42.91926" lon="0.59546">
        <ele>1673</ele>
        <time>2019-02-03T12:24:49.000Z</time>
      </trkpt>
      <trkpt lat="42.91926" lon="0.59545">
        <ele>1673</ele>
        <time>2019-02-03T12:24:50.000Z</time>
      </trkpt>
      <trkpt lat="42.91926" lon="0.59544">
        <ele>1673</ele>
        <time>2019-02-03T12:24:51.000Z</time>
      </trkpt>
      <trkpt lat="42.91926" lon="0.59543">
        <ele>1672</ele>
        <time>2019-02-03T12:24:52.000Z</time>
      </trkpt>
      <trkpt lat="42.91926" lon="0.59542">
        <ele>1672</ele>
        <time>2019-02-03T12:24:53.000Z</time>
      </trkpt>
      <trkpt lat="42.91926" lon="0.59541">
        <ele>1672</ele>
        <time>2019-02-03T12:24:54.000Z</time>
      </trkpt>
      <trkpt lat="42.91926" lon="0.5954">
        <ele>1672</ele>
        <time>2019-02-03T12:24:55.000Z</time>
      </trkpt>
      <trkpt lat="42.91927" lon="0.59539">
        <ele>1671</ele>
        <time>2019-02-03T12:24:56.000Z</time>
      </trkpt>
      <trkpt lat="42.91927" lon="0.59538">
        <ele>1671</ele>
        <time>2019-02-03T12:24:57.000Z</time>
      </trkpt>
      <trkpt lat="42.91927" lon="0.59537">
        <ele>1671</ele>
        <time>2019-02-03T12:24:58.000Z</time>
      </trkpt>
      <trkpt lat="42.91927" lon="0.59536">
        <ele>1671</ele>
        <time>2019-02-03T12:24:59.000Z</time>
      </trkpt>
      <trkpt lat="42.91927" lon="0.59535">
        <ele>1670</ele>
        <time>2019-02-03T12:25:00.000Z</time>
      </trkpt>
      <trkpt lat="42.91927" lon="0.59534">
        <ele>1670</ele>
        <time>2019-02-03T12:25:01.000Z</time>
      </trkpt>
      <trkpt lat="42.91927" lon="0.59533">
        <ele>1670</ele>
        <time>2019-02-03T12:25:02.000Z</time>
      </trkpt>
      <trkpt lat="42.91927" lon="0.59531">
        <ele>1670</ele>
        <time>2019-02-03T12:25:03.000Z</time>
      </trkpt>
      <trkpt lat="42.91927" lon="0.5953">
        <ele>1669</ele>
        <time>2019-02-03T12:25:04.000Z</time>
      </trkpt>
      <trkpt lat="42.91928" lon="0.59529">
        <ele>1669</ele>
        <time>2019-02-03T12:25:05.000Z</time>
      </trkpt>
      <trkpt lat="42.91928" lon="0.59527">
        <ele>1669</ele>
        <time>2019-02-03T12:25:06.000Z</time>
      </trkpt>
      <trkpt lat="42.91928" lon="0.59526">
        <ele>1668.5</ele>
        <time>2019-02-03T12:25:07.000Z</time>
      </trkpt>
      <trkpt lat="42.91928" lon="0.59526">
        <ele>1668</ele>
        <time>2019-02-03T12:25:08.000Z</time>
      </trkpt>
      <trkpt lat="42.91928" lon="0.59525">
        <ele>1668</ele>
        <time>2019-02-03T12:25:09.000Z</time>
      </trkpt>
      <trkpt lat="42.91928" lon="0.59524">
        <ele>1668</ele>
        <time>2019-02-03T12:25:10.000Z</time>
      </trkpt>
      <trkpt lat="42.91928" lon="0.59524">
        <ele>1668</ele>
        <time>2019-02-03T12:25:11.000Z</time>
      </trkpt>
      <trkpt lat="42.91928" lon="0.59524">
        <ele>1667</ele>
        <time>2019-02-03T12:25:12.000Z</time>
      </trkpt>
      <trkpt lat="42.91928" lon="0.59524">
        <ele>1667</ele>
        <time>2019-02-03T12:25:13.000Z</time>
      </trkpt>
      <trkpt lat="42.91928" lon="0.59524">
        <ele>1667</ele>
        <time>2019-02-03T12:25:14.000Z</time>
      </trkpt>
      <trkpt lat="42.91928" lon="0.59523">
        <ele>1667</ele>
        <time>2019-02-03T12:25:15.000Z</time>
      </trkpt>
      <trkpt lat="42.91928" lon="0.59523">
        <ele>1667</ele>
        <time>2019-02-03T12:25:16.000Z</time>
      </trkpt>
      <trkpt lat="42.91928" lon="0.59523">
        <ele>1667</ele>
        <time>2019-02-03T12:25:17.000Z</time>
      </trkpt>
      <trkpt lat="42.91928" lon="0.59523">
        <ele>1667</ele>
        <time>2019-02-03T12:25:18.000Z</time>
      </trkpt>
      <trkpt lat="42.91928" lon="0.59523">
        <ele>1667</ele>
        <time>2019-02-03T12:25:19.000Z</time>
      </trkpt>
      <trkpt lat="42.91928" lon="0.59523">
        <ele>1666</ele>
        <time>2019-02-03T12:25:20.000Z</time>
      </trkpt>
      <trkpt lat="42.91928" lon="0.59523">
        <ele>1666</ele>
        <time>2019-02-03T12:25:21.000Z</time>
      </trkpt>
      <trkpt lat="42.91928" lon="0.59522">
        <ele>1666</ele>
        <time>2019-02-03T12:25:22.000Z</time>
      </trkpt>
      <trkpt lat="42.91928" lon="0.59522">
        <ele>1666</ele>
        <time>2019-02-03T12:25:23.000Z</time>
      </trkpt>
      <trkpt lat="42.91928" lon="0.59522">
        <ele>1666</ele>
        <time>2019-02-03T12:25:24.000Z</time>
      </trkpt>
      <trkpt lat="42.91928" lon="0.59522">
        <ele>1666</ele>
        <time>2019-02-03T12:25:25.000Z</time>
      </trkpt>
      <trkpt lat="42.91928" lon="0.59522">
        <ele>1666</ele>
        <time>2019-02-03T12:25:26.000Z</time>
      </trkpt>
      <trkpt lat="42.91928" lon="0.59522">
        <ele>1666</ele>
        <time>2019-02-03T12:25:27.000Z</time>
      </trkpt>
      <trkpt lat="42.91928" lon="0.59522">
        <ele>1666</ele>
        <time>2019-02-03T12:25:28.000Z</time>
      </trkpt>
      <trkpt lat="42.91928" lon="0.59522">
        <ele>1666</ele>
        <time>2019-02-03T12:25:29.000Z</time>
      </trkpt>
      <trkpt lat="42.91928" lon="0.59522">
        <ele>1666</ele>
        <time>2019-02-03T12:25:30.000Z</time>
      </trkpt>
      <trkpt lat="42.91928" lon="0.59522">
        <ele>1666</ele>
        <time>2019-02-03T12:25:31.000Z</time>
      </trkpt>
      <trkpt lat="42.91928" lon="0.59522">
        <ele>1666</ele>
        <time>2019-02-03T12:25:32.000Z</time>
      </trkpt>
      <trkpt lat="42.91928" lon="0.59522">
        <ele>1666</ele>
        <time>2019-02-03T12:25:33.000Z</time>
      </trkpt>
      <trkpt lat="42.91928" lon="0.59521">
        <ele>1666</ele>
        <time>2019-02-03T12:25:34.000Z</time>
      </trkpt>
      <trkpt lat="42.91928" lon="0.59521">
        <ele>1666</ele>
        <time>2019-02-03T12:25:35.000Z</time>
      </trkpt>
      <trkpt lat="42.91928" lon="0.59521">
        <ele>1666</ele>
        <time>2019-02-03T12:25:36.000Z</time>
      </trkpt>
      <trkpt lat="42.91927" lon="0.59521">
        <ele>1666</ele>
        <time>2019-02-03T12:25:37.000Z</time>
      </trkpt>
      <trkpt lat="42.91927" lon="0.59521">
        <ele>1667</ele>
        <time>2019-02-03T12:25:38.000Z</time>
      </trkpt>
      <trkpt lat="42.91927" lon="0.59521">
        <ele>1666.7</ele>
        <time>2019-02-03T12:25:39.000Z</time>
      </trkpt>
      <trkpt lat="42.91927" lon="0.59521">
        <ele>1666.3</ele>
        <time>2019-02-03T12:25:40.000Z</time>
      </trkpt>
      <trkpt lat="42.91927" lon="0.59521">
        <ele>1666</ele>
        <time>2019-02-03T12:25:41.000Z</time>
      </trkpt>
      <trkpt lat="42.91927" lon="0.59521">
        <ele>1667</ele>
        <time>2019-02-03T12:25:42.000Z</time>
      </trkpt>
      <trkpt lat="42.91927" lon="0.59521">
        <ele>1667</ele>
        <time>2019-02-03T12:25:43.000Z</time>
      </trkpt>
      <trkpt lat="42.91927" lon="0.59521">
        <ele>1667</ele>
        <time>2019-02-03T12:25:44.000Z</time>
      </trkpt>
      <trkpt lat="42.91927" lon="0.59521">
        <ele>1667</ele>
        <time>2019-02-03T12:25:45.000Z</time>
      </trkpt>
      <trkpt lat="42.91927" lon="0.59521">
        <ele>1667</ele>
        <time>2019-02-03T12:25:46.000Z</time>
      </trkpt>
      <trkpt lat="42.91927" lon="0.59521">
        <ele>1667</ele>
        <time>2019-02-03T12:25:47.000Z</time>
      </trkpt>
      <trkpt lat="42.91927" lon="0.59521">
        <ele>1667</ele>
        <time>2019-02-03T12:25:48.000Z</time>
      </trkpt>
      <trkpt lat="42.91927" lon="0.59521">
        <ele>1667</ele>
        <time>2019-02-03T12:25:49.000Z</time>
      </trkpt>
      <trkpt lat="42.91927" lon="0.59521">
        <ele>1667</ele>
        <time>2019-02-03T12:25:50.000Z</time>
      </trkpt>
      <trkpt lat="42.91927" lon="0.59521">
        <ele>1667</ele>
        <time>2019-02-03T12:25:51.000Z</time>
      </trkpt>
      <trkpt lat="42.91927" lon="0.59521">
        <ele>1667</ele>
        <time>2019-02-03T12:25:52.000Z</time>
      </trkpt>
      <trkpt lat="42.91927" lon="0.59521">
        <ele>1667</ele>
        <time>2019-02-03T12:25:53.000Z</time>
      </trkpt>
      <trkpt lat="42.91927" lon="0.59521">
        <ele>1667</ele>
        <time>2019-02-03T12:25:54.000Z</time>
      </trkpt>
      <trkpt lat="42.91927" lon="0.59521">
        <ele>1667</ele>
        <time>2019-02-03T12:25:55.000Z</time>
      </trkpt>
      <trkpt lat="42.91927" lon="0.59521">
        <ele>1667</ele>
        <time>2019-02-03T12:25:56.000Z</time>
      </trkpt>
      <trkpt lat="42.91927" lon="0.59521">
        <ele>1667</ele>
        <time>2019-02-03T12:25:57.000Z</time>
      </trkpt>
      <trkpt lat="42.91927" lon="0.59521">
        <ele>1667</ele>
        <time>2019-02-03T12:25:58.000Z</time>
      </trkpt>
      <trkpt lat="42.91927" lon="0.59521">
        <ele>1667</ele>
        <time>2019-02-03T12:25:59.000Z</time>
      </trkpt>
      <trkpt lat="42.91927" lon="0.59521">
        <ele>1667</ele>
        <time>2019-02-03T12:26:00.000Z</time>
      </trkpt>
      <trkpt lat="42.91927" lon="0.59521">
        <ele>1667</ele>
        <time>2019-02-03T12:26:01.000Z</time>
      </trkpt>
      <trkpt lat="42.91927" lon="0.59521">
        <ele>1666</ele>
        <time>2019-02-03T12:26:02.000Z</time>
      </trkpt>
      <trkpt lat="42.91927" lon="0.59521">
        <ele>1666</ele>
        <time>2019-02-03T12:26:03.000Z</time>
      </trkpt>
      <trkpt lat="42.91927" lon="0.59521">
        <ele>1666</ele>
        <time>2019-02-03T12:26:04.000Z</time>
      </trkpt>
      <trkpt lat="42.91927" lon="0.59521">
        <ele>1666</ele>
        <time>2019-02-03T12:26:05.000Z</time>
      </trkpt>
      <trkpt lat="42.91927" lon="0.59521">
        <ele>1666</ele>
        <time>2019-02-03T12:26:06.000Z</time>
      </trkpt>
      <trkpt lat="42.91927" lon="0.59521">
        <ele>1666</ele>
        <time>2019-02-03T12:26:07.000Z</time>
      </trkpt>
      <trkpt lat="42.91927" lon="0.59521">
        <ele>1666</ele>
        <time>2019-02-03T12:26:08.000Z</time>
      </trkpt>
      <trkpt lat="42.91927" lon="0.59521">
        <ele>1666</ele>
        <time>2019-02-03T12:26:09.000Z</time>
      </trkpt>
      <trkpt lat="42.91927" lon="0.59521">
        <ele>1666</ele>
        <time>2019-02-03T12:26:10.000Z</time>
      </trkpt>
      <trkpt lat="42.91927" lon="0.59521">
        <ele>1666</ele>
        <time>2019-02-03T12:26:11.000Z</time>
      </trkpt>
      <trkpt lat="42.91927" lon="0.59521">
        <ele>1666</ele>
        <time>2019-02-03T12:26:12.000Z</time>
      </trkpt>
      <trkpt lat="42.91927" lon="0.59521">
        <ele>1666</ele>
        <time>2019-02-03T12:26:13.000Z</time>
      </trkpt>
      <trkpt lat="42.91927" lon="0.59521">
        <ele>1666</ele>
        <time>2019-02-03T12:26:14.000Z</time>
      </trkpt>
      <trkpt lat="42.91927" lon="0.59521">
        <ele>1666</ele>
        <time>2019-02-03T12:26:15.000Z</time>
      </trkpt>
      <trkpt lat="42.91927" lon="0.59521">
        <ele>1666</ele>
        <time>2019-02-03T12:26:16.000Z</time>
      </trkpt>
      <trkpt lat="42.91927" lon="0.5952">
        <ele>1666</ele>
        <time>2019-02-03T12:26:17.000Z</time>
      </trkpt>
      <trkpt lat="42.91927" lon="0.5952">
        <ele>1666</ele>
        <time>2019-02-03T12:26:18.000Z</time>
      </trkpt>
      <trkpt lat="42.91927" lon="0.5952">
        <ele>1666</ele>
        <time>2019-02-03T12:26:19.000Z</time>
      </trkpt>
      <trkpt lat="42.91928" lon="0.5952">
        <ele>1666</ele>
        <time>2019-02-03T12:26:20.000Z</time>
      </trkpt>
      <trkpt lat="42.91928" lon="0.59519">
        <ele>1666</ele>
        <time>2019-02-03T12:26:21.000Z</time>
      </trkpt>
      <trkpt lat="42.91928" lon="0.59519">
        <ele>1666</ele>
        <time>2019-02-03T12:26:22.000Z</time>
      </trkpt>
      <trkpt lat="42.91928" lon="0.59518">
        <ele>1666</ele>
        <time>2019-02-03T12:26:23.000Z</time>
      </trkpt>
      <trkpt lat="42.91928" lon="0.59517">
        <ele>1666</ele>
        <time>2019-02-03T12:26:24.000Z</time>
      </trkpt>
      <trkpt lat="42.91928" lon="0.59516">
        <ele>1666</ele>
        <time>2019-02-03T12:26:25.000Z</time>
      </trkpt>
      <trkpt lat="42.91928" lon="0.59515">
        <ele>1665</ele>
        <time>2019-02-03T12:26:26.000Z</time>
      </trkpt>
      <trkpt lat="42.91929" lon="0.59514">
        <ele>1665</ele>
        <time>2019-02-03T12:26:27.000Z</time>
      </trkpt>
      <trkpt lat="42.91929" lon="0.59513">
        <ele>1665</ele>
        <time>2019-02-03T12:26:28.000Z</time>
      </trkpt>
      <trkpt lat="42.91929" lon="0.59512">
        <ele>1665</ele>
        <time>2019-02-03T12:26:29.000Z</time>
      </trkpt>
      <trkpt lat="42.91929" lon="0.59511">
        <ele>1665</ele>
        <time>2019-02-03T12:26:30.000Z</time>
      </trkpt>
      <trkpt lat="42.91929" lon="0.5951">
        <ele>1664.5</ele>
        <time>2019-02-03T12:26:31.000Z</time>
      </trkpt>
      <trkpt lat="42.91929" lon="0.59509">
        <ele>1664</ele>
        <time>2019-02-03T12:26:32.000Z</time>
      </trkpt>
      <trkpt lat="42.91929" lon="0.59508">
        <ele>1663.7</ele>
        <time>2019-02-03T12:26:33.000Z</time>
      </trkpt>
      <trkpt lat="42.91929" lon="0.59507">
        <ele>1663.3</ele>
        <time>2019-02-03T12:26:34.000Z</time>
      </trkpt>
      <trkpt lat="42.91929" lon="0.59506">
        <ele>1663</ele>
        <time>2019-02-03T12:26:35.000Z</time>
      </trkpt>
      <trkpt lat="42.91929" lon="0.59505">
        <ele>1663</ele>
        <time>2019-02-03T12:26:36.000Z</time>
      </trkpt>
      <trkpt lat="42.91929" lon="0.59503">
        <ele>1662.5</ele>
        <time>2019-02-03T12:26:37.000Z</time>
      </trkpt>
      <trkpt lat="42.91929" lon="0.59502">
        <ele>1662</ele>
        <time>2019-02-03T12:26:38.000Z</time>
      </trkpt>
      <trkpt lat="42.91929" lon="0.59501">
        <ele>1661.7</ele>
        <time>2019-02-03T12:26:39.000Z</time>
      </trkpt>
      <trkpt lat="42.9193" lon="0.595">
        <ele>1661.3</ele>
        <time>2019-02-03T12:26:40.000Z</time>
      </trkpt>
      <trkpt lat="42.9193" lon="0.59499">
        <ele>1661</ele>
        <time>2019-02-03T12:26:41.000Z</time>
      </trkpt>
      <trkpt lat="42.91931" lon="0.59498">
        <ele>1660</ele>
        <time>2019-02-03T12:26:42.000Z</time>
      </trkpt>
      <trkpt lat="42.91931" lon="0.59497">
        <ele>1659.5</ele>
        <time>2019-02-03T12:26:43.000Z</time>
      </trkpt>
      <trkpt lat="42.91932" lon="0.59496">
        <ele>1659</ele>
        <time>2019-02-03T12:26:44.000Z</time>
      </trkpt>
      <trkpt lat="42.91932" lon="0.59495">
        <ele>1659</ele>
        <time>2019-02-03T12:26:45.000Z</time>
      </trkpt>
      <trkpt lat="42.91933" lon="0.59495">
        <ele>1659</ele>
        <time>2019-02-03T12:26:46.000Z</time>
      </trkpt>
      <trkpt lat="42.91934" lon="0.59494">
        <ele>1658.7</ele>
        <time>2019-02-03T12:26:47.000Z</time>
      </trkpt>
      <trkpt lat="42.91934" lon="0.59493">
        <ele>1658.3</ele>
        <time>2019-02-03T12:26:48.000Z</time>
      </trkpt>
      <trkpt lat="42.91934" lon="0.59492">
        <ele>1658</ele>
        <time>2019-02-03T12:26:49.000Z</time>
      </trkpt>
      <trkpt lat="42.91935" lon="0.59491">
        <ele>1657</ele>
        <time>2019-02-03T12:26:50.000Z</time>
      </trkpt>
      <trkpt lat="42.91935" lon="0.5949">
        <ele>1657</ele>
        <time>2019-02-03T12:26:51.000Z</time>
      </trkpt>
      <trkpt lat="42.91935" lon="0.59489">
        <ele>1657</ele>
        <time>2019-02-03T12:26:52.000Z</time>
      </trkpt>
      <trkpt lat="42.91936" lon="0.59488">
        <ele>1656.5</ele>
        <time>2019-02-03T12:26:53.000Z</time>
      </trkpt>
      <trkpt lat="42.91936" lon="0.59487">
        <ele>1656</ele>
        <time>2019-02-03T12:26:54.000Z</time>
      </trkpt>
      <trkpt lat="42.91936" lon="0.59486">
        <ele>1656</ele>
        <time>2019-02-03T12:26:55.000Z</time>
      </trkpt>
      <trkpt lat="42.91937" lon="0.59485">
        <ele>1656</ele>
        <time>2019-02-03T12:26:56.000Z</time>
      </trkpt>
      <trkpt lat="42.91937" lon="0.59484">
        <ele>1656</ele>
        <time>2019-02-03T12:26:57.000Z</time>
      </trkpt>
      <trkpt lat="42.91937" lon="0.59483">
        <ele>1656</ele>
        <time>2019-02-03T12:26:58.000Z</time>
      </trkpt>
      <trkpt lat="42.91938" lon="0.59482">
        <ele>1656</ele>
        <time>2019-02-03T12:26:59.000Z</time>
      </trkpt>
      <trkpt lat="42.91938" lon="0.59481">
        <ele>1656</ele>
        <time>2019-02-03T12:27:00.000Z</time>
      </trkpt>
      <trkpt lat="42.91938" lon="0.5948">
        <ele>1655.5</ele>
        <time>2019-02-03T12:27:01.000Z</time>
      </trkpt>
      <trkpt lat="42.91938" lon="0.59479">
        <ele>1655</ele>
        <time>2019-02-03T12:27:02.000Z</time>
      </trkpt>
      <trkpt lat="42.91939" lon="0.59478">
        <ele>1655</ele>
        <time>2019-02-03T12:27:03.000Z</time>
      </trkpt>
      <trkpt lat="42.91939" lon="0.59477">
        <ele>1655</ele>
        <time>2019-02-03T12:27:04.000Z</time>
      </trkpt>
      <trkpt lat="42.91939" lon="0.59476">
        <ele>1654.7</ele>
        <time>2019-02-03T12:27:05.000Z</time>
      </trkpt>
      <trkpt lat="42.91939" lon="0.59475">
        <ele>1654.3</ele>
        <time>2019-02-03T12:27:06.000Z</time>
      </trkpt>
      <trkpt lat="42.9194" lon="0.59474">
        <ele>1654</ele>
        <time>2019-02-03T12:27:07.000Z</time>
      </trkpt>
      <trkpt lat="42.9194" lon="0.59472">
        <ele>1653</ele>
        <time>2019-02-03T12:27:08.000Z</time>
      </trkpt>
      <trkpt lat="42.9194" lon="0.59471">
        <ele>1652.5</ele>
        <time>2019-02-03T12:27:09.000Z</time>
      </trkpt>
      <trkpt lat="42.91941" lon="0.5947">
        <ele>1652</ele>
        <time>2019-02-03T12:27:10.000Z</time>
      </trkpt>
      <trkpt lat="42.91941" lon="0.59469">
        <ele>1652</ele>
        <time>2019-02-03T12:27:11.000Z</time>
      </trkpt>
      <trkpt lat="42.91941" lon="0.59468">
        <ele>1652</ele>
        <time>2019-02-03T12:27:12.000Z</time>
      </trkpt>
      <trkpt lat="42.91941" lon="0.59467">
        <ele>1652</ele>
        <time>2019-02-03T12:27:13.000Z</time>
      </trkpt>
      <trkpt lat="42.91941" lon="0.59467">
        <ele>1652</ele>
        <time>2019-02-03T12:27:14.000Z</time>
      </trkpt>
      <trkpt lat="42.91941" lon="0.59466">
        <ele>1651.5</ele>
        <time>2019-02-03T12:27:15.000Z</time>
      </trkpt>
      <trkpt lat="42.91941" lon="0.59465">
        <ele>1651</ele>
        <time>2019-02-03T12:27:16.000Z</time>
      </trkpt>
      <trkpt lat="42.9194" lon="0.59464">
        <ele>1650.7</ele>
        <time>2019-02-03T12:27:17.000Z</time>
      </trkpt>
      <trkpt lat="42.9194" lon="0.59463">
        <ele>1650.3</ele>
        <time>2019-02-03T12:27:18.000Z</time>
      </trkpt>
      <trkpt lat="42.9194" lon="0.59462">
        <ele>1650</ele>
        <time>2019-02-03T12:27:19.000Z</time>
      </trkpt>
      <trkpt lat="42.9194" lon="0.59461">
        <ele>1650</ele>
        <time>2019-02-03T12:27:20.000Z</time>
      </trkpt>
      <trkpt lat="42.91941" lon="0.5946">
        <ele>1649.5</ele>
        <time>2019-02-03T12:27:21.000Z</time>
      </trkpt>
      <trkpt lat="42.91941" lon="0.59459">
        <ele>1649</ele>
        <time>2019-02-03T12:27:22.000Z</time>
      </trkpt>
      <trkpt lat="42.91941" lon="0.59458">
        <ele>1649</ele>
        <time>2019-02-03T12:27:23.000Z</time>
      </trkpt>
      <trkpt lat="42.91941" lon="0.59457">
        <ele>1649</ele>
        <time>2019-02-03T12:27:24.000Z</time>
      </trkpt>
      <trkpt lat="42.91941" lon="0.59456">
        <ele>1648.7</ele>
        <time>2019-02-03T12:27:25.000Z</time>
      </trkpt>
      <trkpt lat="42.91941" lon="0.59456">
        <ele>1648.3</ele>
        <time>2019-02-03T12:27:26.000Z</time>
      </trkpt>
      <trkpt lat="42.91941" lon="0.59455">
        <ele>1648</ele>
        <time>2019-02-03T12:27:27.000Z</time>
      </trkpt>
      <trkpt lat="42.91942" lon="0.59454">
        <ele>1648</ele>
        <time>2019-02-03T12:27:28.000Z</time>
      </trkpt>
      <trkpt lat="42.91942" lon="0.59453">
        <ele>1648</ele>
        <time>2019-02-03T12:27:29.000Z</time>
      </trkpt>
      <trkpt lat="42.91942" lon="0.59452">
        <ele>1647</ele>
        <time>2019-02-03T12:27:30.000Z</time>
      </trkpt>
      <trkpt lat="42.91942" lon="0.59451">
        <ele>1647</ele>
        <time>2019-02-03T12:27:31.000Z</time>
      </trkpt>
      <trkpt lat="42.91943" lon="0.5945">
        <ele>1647</ele>
        <time>2019-02-03T12:27:32.000Z</time>
      </trkpt>
      <trkpt lat="42.91943" lon="0.59449">
        <ele>1647</ele>
        <time>2019-02-03T12:27:33.000Z</time>
      </trkpt>
      <trkpt lat="42.91943" lon="0.59448">
        <ele>1646</ele>
        <time>2019-02-03T12:27:34.000Z</time>
      </trkpt>
      <trkpt lat="42.91943" lon="0.59447">
        <ele>1645.5</ele>
        <time>2019-02-03T12:27:35.000Z</time>
      </trkpt>
      <trkpt lat="42.91943" lon="0.59447">
        <ele>1645</ele>
        <time>2019-02-03T12:27:36.000Z</time>
      </trkpt>
      <trkpt lat="42.91944" lon="0.59446">
        <ele>1645</ele>
        <time>2019-02-03T12:27:37.000Z</time>
      </trkpt>
      <trkpt lat="42.91944" lon="0.59445">
        <ele>1645</ele>
        <time>2019-02-03T12:27:38.000Z</time>
      </trkpt>
      <trkpt lat="42.91944" lon="0.59444">
        <ele>1645</ele>
        <time>2019-02-03T12:27:39.000Z</time>
      </trkpt>
      <trkpt lat="42.91944" lon="0.59444">
        <ele>1644</ele>
        <time>2019-02-03T12:27:40.000Z</time>
      </trkpt>
      <trkpt lat="42.91945" lon="0.59443">
        <ele>1643.5</ele>
        <time>2019-02-03T12:27:41.000Z</time>
      </trkpt>
      <trkpt lat="42.91945" lon="0.59442">
        <ele>1643</ele>
        <time>2019-02-03T12:27:42.000Z</time>
      </trkpt>
      <trkpt lat="42.91946" lon="0.59441">
        <ele>1643</ele>
        <time>2019-02-03T12:27:43.000Z</time>
      </trkpt>
      <trkpt lat="42.91946" lon="0.5944">
        <ele>1643</ele>
        <time>2019-02-03T12:27:44.000Z</time>
      </trkpt>
      <trkpt lat="42.91946" lon="0.5944">
        <ele>1643</ele>
        <time>2019-02-03T12:27:45.000Z</time>
      </trkpt>
      <trkpt lat="42.91947" lon="0.59439">
        <ele>1642</ele>
        <time>2019-02-03T12:27:46.000Z</time>
      </trkpt>
      <trkpt lat="42.91947" lon="0.59438">
        <ele>1642</ele>
        <time>2019-02-03T12:27:47.000Z</time>
      </trkpt>
      <trkpt lat="42.91947" lon="0.59437">
        <ele>1642</ele>
        <time>2019-02-03T12:27:48.000Z</time>
      </trkpt>
      <trkpt lat="42.91947" lon="0.59436">
        <ele>1642</ele>
        <time>2019-02-03T12:27:49.000Z</time>
      </trkpt>
      <trkpt lat="42.91947" lon="0.59435">
        <ele>1642</ele>
        <time>2019-02-03T12:27:50.000Z</time>
      </trkpt>
      <trkpt lat="42.91948" lon="0.59433">
        <ele>1642</ele>
        <time>2019-02-03T12:27:51.000Z</time>
      </trkpt>
      <trkpt lat="42.91948" lon="0.59432">
        <ele>1641</ele>
        <time>2019-02-03T12:27:52.000Z</time>
      </trkpt>
      <trkpt lat="42.91948" lon="0.59432">
        <ele>1640.5</ele>
        <time>2019-02-03T12:27:53.000Z</time>
      </trkpt>
      <trkpt lat="42.91948" lon="0.59431">
        <ele>1640</ele>
        <time>2019-02-03T12:27:54.000Z</time>
      </trkpt>
      <trkpt lat="42.91948" lon="0.5943">
        <ele>1640</ele>
        <time>2019-02-03T12:27:55.000Z</time>
      </trkpt>
      <trkpt lat="42.91949" lon="0.59429">
        <ele>1640</ele>
        <time>2019-02-03T12:27:56.000Z</time>
      </trkpt>
      <trkpt lat="42.91949" lon="0.59428">
        <ele>1640</ele>
        <time>2019-02-03T12:27:57.000Z</time>
      </trkpt>
      <trkpt lat="42.91949" lon="0.59428">
        <ele>1639</ele>
        <time>2019-02-03T12:27:58.000Z</time>
      </trkpt>
      <trkpt lat="42.9195" lon="0.59427">
        <ele>1639</ele>
        <time>2019-02-03T12:27:59.000Z</time>
      </trkpt>
      <trkpt lat="42.9195" lon="0.59426">
        <ele>1639</ele>
        <time>2019-02-03T12:28:00.000Z</time>
      </trkpt>
      <trkpt lat="42.9195" lon="0.59425">
        <ele>1638.7</ele>
        <time>2019-02-03T12:28:01.000Z</time>
      </trkpt>
      <trkpt lat="42.91951" lon="0.59424">
        <ele>1638.3</ele>
        <time>2019-02-03T12:28:02.000Z</time>
      </trkpt>
      <trkpt lat="42.91951" lon="0.59423">
        <ele>1638</ele>
        <time>2019-02-03T12:28:03.000Z</time>
      </trkpt>
      <trkpt lat="42.91951" lon="0.59423">
        <ele>1638</ele>
        <time>2019-02-03T12:28:04.000Z</time>
      </trkpt>
      <trkpt lat="42.91951" lon="0.59422">
        <ele>1637.5</ele>
        <time>2019-02-03T12:28:05.000Z</time>
      </trkpt>
      <trkpt lat="42.91952" lon="0.59421">
        <ele>1637</ele>
        <time>2019-02-03T12:28:06.000Z</time>
      </trkpt>
      <trkpt lat="42.91952" lon="0.5942">
        <ele>1636.7</ele>
        <time>2019-02-03T12:28:07.000Z</time>
      </trkpt>
      <trkpt lat="42.91952" lon="0.59419">
        <ele>1636.3</ele>
        <time>2019-02-03T12:28:08.000Z</time>
      </trkpt>
      <trkpt lat="42.91953" lon="0.59418">
        <ele>1636</ele>
        <time>2019-02-03T12:28:09.000Z</time>
      </trkpt>
      <trkpt lat="42.91953" lon="0.59417">
        <ele>1636</ele>
        <time>2019-02-03T12:28:10.000Z</time>
      </trkpt>
      <trkpt lat="42.91953" lon="0.59416">
        <ele>1635.5</ele>
        <time>2019-02-03T12:28:11.000Z</time>
      </trkpt>
      <trkpt lat="42.91954" lon="0.59415">
        <ele>1635</ele>
        <time>2019-02-03T12:28:12.000Z</time>
      </trkpt>
      <trkpt lat="42.91954" lon="0.59414">
        <ele>1635</ele>
        <time>2019-02-03T12:28:13.000Z</time>
      </trkpt>
      <trkpt lat="42.91954" lon="0.59414">
        <ele>1635</ele>
        <time>2019-02-03T12:28:14.000Z</time>
      </trkpt>
      <trkpt lat="42.91954" lon="0.59413">
        <ele>1635</ele>
        <time>2019-02-03T12:28:15.000Z</time>
      </trkpt>
      <trkpt lat="42.91954" lon="0.59413">
        <ele>1634</ele>
        <time>2019-02-03T12:28:16.000Z</time>
      </trkpt>
      <trkpt lat="42.91954" lon="0.59412">
        <ele>1634</ele>
        <time>2019-02-03T12:28:17.000Z</time>
      </trkpt>
      <trkpt lat="42.91955" lon="0.59412">
        <ele>1634</ele>
        <time>2019-02-03T12:28:18.000Z</time>
      </trkpt>
      <trkpt lat="42.91955" lon="0.59411">
        <ele>1634</ele>
        <time>2019-02-03T12:28:19.000Z</time>
      </trkpt>
      <trkpt lat="42.91955" lon="0.5941">
        <ele>1634</ele>
        <time>2019-02-03T12:28:20.000Z</time>
      </trkpt>
      <trkpt lat="42.91956" lon="0.5941">
        <ele>1634</ele>
        <time>2019-02-03T12:28:21.000Z</time>
      </trkpt>
      <trkpt lat="42.91956" lon="0.59409">
        <ele>1633</ele>
        <time>2019-02-03T12:28:22.000Z</time>
      </trkpt>
      <trkpt lat="42.91957" lon="0.59408">
        <ele>1633</ele>
        <time>2019-02-03T12:28:23.000Z</time>
      </trkpt>
      <trkpt lat="42.91958" lon="0.59407">
        <ele>1633</ele>
        <time>2019-02-03T12:28:24.000Z</time>
      </trkpt>
      <trkpt lat="42.91958" lon="0.59406">
        <ele>1633</ele>
        <time>2019-02-03T12:28:25.000Z</time>
      </trkpt>
      <trkpt lat="42.91959" lon="0.59405">
        <ele>1632</ele>
        <time>2019-02-03T12:28:26.000Z</time>
      </trkpt>
      <trkpt lat="42.91959" lon="0.59404">
        <ele>1631.5</ele>
        <time>2019-02-03T12:28:27.000Z</time>
      </trkpt>
      <trkpt lat="42.91959" lon="0.59403">
        <ele>1631</ele>
        <time>2019-02-03T12:28:28.000Z</time>
      </trkpt>
      <trkpt lat="42.91959" lon="0.59402">
        <ele>1631</ele>
        <time>2019-02-03T12:28:29.000Z</time>
      </trkpt>
      <trkpt lat="42.91959" lon="0.59401">
        <ele>1631</ele>
        <time>2019-02-03T12:28:30.000Z</time>
      </trkpt>
      <trkpt lat="42.91959" lon="0.59401">
        <ele>1630.7</ele>
        <time>2019-02-03T12:28:31.000Z</time>
      </trkpt>
      <trkpt lat="42.91959" lon="0.594">
        <ele>1630.3</ele>
        <time>2019-02-03T12:28:32.000Z</time>
      </trkpt>
      <trkpt lat="42.91959" lon="0.59399">
        <ele>1630</ele>
        <time>2019-02-03T12:28:33.000Z</time>
      </trkpt>
      <trkpt lat="42.91959" lon="0.59398">
        <ele>1629</ele>
        <time>2019-02-03T12:28:34.000Z</time>
      </trkpt>
      <trkpt lat="42.91959" lon="0.59398">
        <ele>1629</ele>
        <time>2019-02-03T12:28:35.000Z</time>
      </trkpt>
      <trkpt lat="42.91959" lon="0.59397">
        <ele>1629</ele>
        <time>2019-02-03T12:28:36.000Z</time>
      </trkpt>
      <trkpt lat="42.91959" lon="0.59396">
        <ele>1629</ele>
        <time>2019-02-03T12:28:37.000Z</time>
      </trkpt>
      <trkpt lat="42.91959" lon="0.59395">
        <ele>1629</ele>
        <time>2019-02-03T12:28:38.000Z</time>
      </trkpt>
      <trkpt lat="42.91959" lon="0.59394">
        <ele>1628.7</ele>
        <time>2019-02-03T12:28:39.000Z</time>
      </trkpt>
      <trkpt lat="42.9196" lon="0.59393">
        <ele>1628.3</ele>
        <time>2019-02-03T12:28:40.000Z</time>
      </trkpt>
      <trkpt lat="42.9196" lon="0.59392">
        <ele>1628</ele>
        <time>2019-02-03T12:28:41.000Z</time>
      </trkpt>
      <trkpt lat="42.9196" lon="0.5939">
        <ele>1627</ele>
        <time>2019-02-03T12:28:42.000Z</time>
      </trkpt>
      <trkpt lat="42.9196" lon="0.59389">
        <ele>1627</ele>
        <time>2019-02-03T12:28:43.000Z</time>
      </trkpt>
      <trkpt lat="42.9196" lon="0.59388">
        <ele>1627</ele>
        <time>2019-02-03T12:28:44.000Z</time>
      </trkpt>
      <trkpt lat="42.9196" lon="0.59388">
        <ele>1626.5</ele>
        <time>2019-02-03T12:28:45.000Z</time>
      </trkpt>
      <trkpt lat="42.9196" lon="0.59387">
        <ele>1626</ele>
        <time>2019-02-03T12:28:46.000Z</time>
      </trkpt>
      <trkpt lat="42.91961" lon="0.59386">
        <ele>1625.7</ele>
        <time>2019-02-03T12:28:47.000Z</time>
      </trkpt>
      <trkpt lat="42.91961" lon="0.59386">
        <ele>1625.3</ele>
        <time>2019-02-03T12:28:48.000Z</time>
      </trkpt>
      <trkpt lat="42.91961" lon="0.59386">
        <ele>1625</ele>
        <time>2019-02-03T12:28:49.000Z</time>
      </trkpt>
      <trkpt lat="42.91961" lon="0.59385">
        <ele>1624</ele>
        <time>2019-02-03T12:28:50.000Z</time>
      </trkpt>
      <trkpt lat="42.91962" lon="0.59385">
        <ele>1624</ele>
        <time>2019-02-03T12:28:51.000Z</time>
      </trkpt>
      <trkpt lat="42.91962" lon="0.59385">
        <ele>1624</ele>
        <time>2019-02-03T12:28:52.000Z</time>
      </trkpt>
      <trkpt lat="42.91962" lon="0.59385">
        <ele>1623.7</ele>
        <time>2019-02-03T12:28:53.000Z</time>
      </trkpt>
      <trkpt lat="42.91962" lon="0.59385">
        <ele>1623.3</ele>
        <time>2019-02-03T12:28:54.000Z</time>
      </trkpt>
      <trkpt lat="42.91962" lon="0.59385">
        <ele>1623</ele>
        <time>2019-02-03T12:28:55.000Z</time>
      </trkpt>
      <trkpt lat="42.91962" lon="0.59385">
        <ele>1623</ele>
        <time>2019-02-03T12:28:56.000Z</time>
      </trkpt>
      <trkpt lat="42.91962" lon="0.59385">
        <ele>1622.7</ele>
        <time>2019-02-03T12:28:57.000Z</time>
      </trkpt>
      <trkpt lat="42.91962" lon="0.59385">
        <ele>1622.3</ele>
        <time>2019-02-03T12:28:58.000Z</time>
      </trkpt>
      <trkpt lat="42.91962" lon="0.59385">
        <ele>1622</ele>
        <time>2019-02-03T12:28:59.000Z</time>
      </trkpt>
      <trkpt lat="42.91962" lon="0.59385">
        <ele>1622</ele>
        <time>2019-02-03T12:29:00.000Z</time>
      </trkpt>
      <trkpt lat="42.91962" lon="0.59385">
        <ele>1622</ele>
        <time>2019-02-03T12:29:01.000Z</time>
      </trkpt>
      <trkpt lat="42.91962" lon="0.59384">
        <ele>1622</ele>
        <time>2019-02-03T12:29:02.000Z</time>
      </trkpt>
      <trkpt lat="42.91962" lon="0.59384">
        <ele>1622</ele>
        <time>2019-02-03T12:29:03.000Z</time>
      </trkpt>
      <trkpt lat="42.91962" lon="0.59384">
        <ele>1622</ele>
        <time>2019-02-03T12:29:04.000Z</time>
      </trkpt>
      <trkpt lat="42.91963" lon="0.59383">
        <ele>1621.5</ele>
        <time>2019-02-03T12:29:05.000Z</time>
      </trkpt>
      <trkpt lat="42.91963" lon="0.59382">
        <ele>1621</ele>
        <time>2019-02-03T12:29:06.000Z</time>
      </trkpt>
      <trkpt lat="42.91963" lon="0.59382">
        <ele>1621</ele>
        <time>2019-02-03T12:29:07.000Z</time>
      </trkpt>
      <trkpt lat="42.91963" lon="0.59381">
        <ele>1621</ele>
        <time>2019-02-03T12:29:08.000Z</time>
      </trkpt>
      <trkpt lat="42.91963" lon="0.59381">
        <ele>1621</ele>
        <time>2019-02-03T12:29:09.000Z</time>
      </trkpt>
      <trkpt lat="42.91963" lon="0.59381">
        <ele>1621</ele>
        <time>2019-02-03T12:29:10.000Z</time>
      </trkpt>
      <trkpt lat="42.91963" lon="0.5938">
        <ele>1620.5</ele>
        <time>2019-02-03T12:29:11.000Z</time>
      </trkpt>
      <trkpt lat="42.91964" lon="0.5938">
        <ele>1620</ele>
        <time>2019-02-03T12:29:12.000Z</time>
      </trkpt>
      <trkpt lat="42.91964" lon="0.59379">
        <ele>1620</ele>
        <time>2019-02-03T12:29:13.000Z</time>
      </trkpt>
      <trkpt lat="42.91964" lon="0.59378">
        <ele>1620</ele>
        <time>2019-02-03T12:29:14.000Z</time>
      </trkpt>
      <trkpt lat="42.91964" lon="0.59377">
        <ele>1620</ele>
        <time>2019-02-03T12:29:15.000Z</time>
      </trkpt>
      <trkpt lat="42.91965" lon="0.59376">
        <ele>1620</ele>
        <time>2019-02-03T12:29:16.000Z</time>
      </trkpt>
      <trkpt lat="42.91965" lon="0.59375">
        <ele>1619.5</ele>
        <time>2019-02-03T12:29:17.000Z</time>
      </trkpt>
      <trkpt lat="42.91965" lon="0.59374">
        <ele>1619</ele>
        <time>2019-02-03T12:29:18.000Z</time>
      </trkpt>
      <trkpt lat="42.91966" lon="0.59373">
        <ele>1618.7</ele>
        <time>2019-02-03T12:29:19.000Z</time>
      </trkpt>
      <trkpt lat="42.91966" lon="0.59372">
        <ele>1618.3</ele>
        <time>2019-02-03T12:29:20.000Z</time>
      </trkpt>
      <trkpt lat="42.91966" lon="0.59371">
        <ele>1618</ele>
        <time>2019-02-03T12:29:21.000Z</time>
      </trkpt>
      <trkpt lat="42.91966" lon="0.5937">
        <ele>1617</ele>
        <time>2019-02-03T12:29:22.000Z</time>
      </trkpt>
      <trkpt lat="42.91966" lon="0.59369">
        <ele>1616.5</ele>
        <time>2019-02-03T12:29:23.000Z</time>
      </trkpt>
      <trkpt lat="42.91967" lon="0.59368">
        <ele>1616</ele>
        <time>2019-02-03T12:29:24.000Z</time>
      </trkpt>
      <trkpt lat="42.91967" lon="0.59367">
        <ele>1616</ele>
        <time>2019-02-03T12:29:25.000Z</time>
      </trkpt>
      <trkpt lat="42.91967" lon="0.59366">
        <ele>1616</ele>
        <time>2019-02-03T12:29:26.000Z</time>
      </trkpt>
      <trkpt lat="42.91967" lon="0.59365">
        <ele>1615.7</ele>
        <time>2019-02-03T12:29:27.000Z</time>
      </trkpt>
      <trkpt lat="42.91967" lon="0.59364">
        <ele>1615.3</ele>
        <time>2019-02-03T12:29:28.000Z</time>
      </trkpt>
      <trkpt lat="42.91967" lon="0.59363">
        <ele>1615</ele>
        <time>2019-02-03T12:29:29.000Z</time>
      </trkpt>
      <trkpt lat="42.91967" lon="0.59362">
        <ele>1614</ele>
        <time>2019-02-03T12:29:30.000Z</time>
      </trkpt>
      <trkpt lat="42.91967" lon="0.59361">
        <ele>1614</ele>
        <time>2019-02-03T12:29:31.000Z</time>
      </trkpt>
      <trkpt lat="42.91967" lon="0.5936">
        <ele>1614</ele>
        <time>2019-02-03T12:29:32.000Z</time>
      </trkpt>
      <trkpt lat="42.91967" lon="0.59359">
        <ele>1613.7</ele>
        <time>2019-02-03T12:29:33.000Z</time>
      </trkpt>
      <trkpt lat="42.91967" lon="0.59358">
        <ele>1613.3</ele>
        <time>2019-02-03T12:29:34.000Z</time>
      </trkpt>
      <trkpt lat="42.91967" lon="0.59357">
        <ele>1613</ele>
        <time>2019-02-03T12:29:35.000Z</time>
      </trkpt>
      <trkpt lat="42.91967" lon="0.59356">
        <ele>1612</ele>
        <time>2019-02-03T12:29:36.000Z</time>
      </trkpt>
      <trkpt lat="42.91967" lon="0.59355">
        <ele>1612</ele>
        <time>2019-02-03T12:29:37.000Z</time>
      </trkpt>
      <trkpt lat="42.91967" lon="0.59354">
        <ele>1612</ele>
        <time>2019-02-03T12:29:38.000Z</time>
      </trkpt>
      <trkpt lat="42.91967" lon="0.59352">
        <ele>1612</ele>
        <time>2019-02-03T12:29:39.000Z</time>
      </trkpt>
      <trkpt lat="42.91967" lon="0.59351">
        <ele>1611</ele>
        <time>2019-02-03T12:29:40.000Z</time>
      </trkpt>
      <trkpt lat="42.91967" lon="0.5935">
        <ele>1610.7</ele>
        <time>2019-02-03T12:29:41.000Z</time>
      </trkpt>
      <trkpt lat="42.91968" lon="0.59348">
        <ele>1610.3</ele>
        <time>2019-02-03T12:29:42.000Z</time>
      </trkpt>
      <trkpt lat="42.91968" lon="0.59347">
        <ele>1610</ele>
        <time>2019-02-03T12:29:43.000Z</time>
      </trkpt>
      <trkpt lat="42.91968" lon="0.59345">
        <ele>1609</ele>
        <time>2019-02-03T12:29:44.000Z</time>
      </trkpt>
      <trkpt lat="42.91968" lon="0.59344">
        <ele>1608.5</ele>
        <time>2019-02-03T12:29:45.000Z</time>
      </trkpt>
      <trkpt lat="42.91968" lon="0.59343">
        <ele>1608</ele>
        <time>2019-02-03T12:29:46.000Z</time>
      </trkpt>
      <trkpt lat="42.91968" lon="0.59341">
        <ele>1607.5</ele>
        <time>2019-02-03T12:29:47.000Z</time>
      </trkpt>
      <trkpt lat="42.91968" lon="0.5934">
        <ele>1607</ele>
        <time>2019-02-03T12:29:48.000Z</time>
      </trkpt>
      <trkpt lat="42.91968" lon="0.59339">
        <ele>1606.7</ele>
        <time>2019-02-03T12:29:49.000Z</time>
      </trkpt>
      <trkpt lat="42.91968" lon="0.59338">
        <ele>1606.3</ele>
        <time>2019-02-03T12:29:50.000Z</time>
      </trkpt>
      <trkpt lat="42.91968" lon="0.59336">
        <ele>1606</ele>
        <time>2019-02-03T12:29:51.000Z</time>
      </trkpt>
      <trkpt lat="42.91968" lon="0.59335">
        <ele>1606</ele>
        <time>2019-02-03T12:29:52.000Z</time>
      </trkpt>
      <trkpt lat="42.91968" lon="0.59334">
        <ele>1606</ele>
        <time>2019-02-03T12:29:53.000Z</time>
      </trkpt>
      <trkpt lat="42.91968" lon="0.59332">
        <ele>1605.5</ele>
        <time>2019-02-03T12:29:54.000Z</time>
      </trkpt>
      <trkpt lat="42.91968" lon="0.59331">
        <ele>1605</ele>
        <time>2019-02-03T12:29:55.000Z</time>
      </trkpt>
      <trkpt lat="42.91968" lon="0.59329">
        <ele>1604</ele>
        <time>2019-02-03T12:29:56.000Z</time>
      </trkpt>
      <trkpt lat="42.91969" lon="0.59327">
        <ele>1603.5</ele>
        <time>2019-02-03T12:29:57.000Z</time>
      </trkpt>
      <trkpt lat="42.91969" lon="0.59326">
        <ele>1603</ele>
        <time>2019-02-03T12:29:58.000Z</time>
      </trkpt>
      <trkpt lat="42.91969" lon="0.59324">
        <ele>1603</ele>
        <time>2019-02-03T12:29:59.000Z</time>
      </trkpt>
      <trkpt lat="42.91969" lon="0.59323">
        <ele>1603</ele>
        <time>2019-02-03T12:30:00.000Z</time>
      </trkpt>
      <trkpt lat="42.91969" lon="0.59322">
        <ele>1603</ele>
        <time>2019-02-03T12:30:01.000Z</time>
      </trkpt>
      <trkpt lat="42.91969" lon="0.5932">
        <ele>1602</ele>
        <time>2019-02-03T12:30:02.000Z</time>
      </trkpt>
      <trkpt lat="42.91969" lon="0.59318">
        <ele>1601.5</ele>
        <time>2019-02-03T12:30:03.000Z</time>
      </trkpt>
      <trkpt lat="42.91969" lon="0.59317">
        <ele>1601</ele>
        <time>2019-02-03T12:30:04.000Z</time>
      </trkpt>
      <trkpt lat="42.91969" lon="0.59315">
        <ele>1600.5</ele>
        <time>2019-02-03T12:30:05.000Z</time>
      </trkpt>
      <trkpt lat="42.91969" lon="0.59314">
        <ele>1600</ele>
        <time>2019-02-03T12:30:06.000Z</time>
      </trkpt>
      <trkpt lat="42.91969" lon="0.59313">
        <ele>1600</ele>
        <time>2019-02-03T12:30:07.000Z</time>
      </trkpt>
      <trkpt lat="42.91969" lon="0.59311">
        <ele>1600</ele>
        <time>2019-02-03T12:30:08.000Z</time>
      </trkpt>
      <trkpt lat="42.91969" lon="0.5931">
        <ele>1600</ele>
        <time>2019-02-03T12:30:09.000Z</time>
      </trkpt>
      <trkpt lat="42.91969" lon="0.59308">
        <ele>1599</ele>
        <time>2019-02-03T12:30:10.000Z</time>
      </trkpt>
      <trkpt lat="42.91969" lon="0.59307">
        <ele>1598.5</ele>
        <time>2019-02-03T12:30:11.000Z</time>
      </trkpt>
      <trkpt lat="42.9197" lon="0.59305">
        <ele>1598</ele>
        <time>2019-02-03T12:30:12.000Z</time>
      </trkpt>
      <trkpt lat="42.9197" lon="0.59304">
        <ele>1597.7</ele>
        <time>2019-02-03T12:30:13.000Z</time>
      </trkpt>
      <trkpt lat="42.9197" lon="0.59303">
        <ele>1597.3</ele>
        <time>2019-02-03T12:30:14.000Z</time>
      </trkpt>
      <trkpt lat="42.91969" lon="0.59303">
        <ele>1597</ele>
        <time>2019-02-03T12:30:15.000Z</time>
      </trkpt>
      <trkpt lat="42.91969" lon="0.59302">
        <ele>1597</ele>
        <time>2019-02-03T12:30:16.000Z</time>
      </trkpt>
      <trkpt lat="42.91969" lon="0.59302">
        <ele>1597</ele>
        <time>2019-02-03T12:30:17.000Z</time>
      </trkpt>
      <trkpt lat="42.91969" lon="0.59301">
        <ele>1597</ele>
        <time>2019-02-03T12:30:18.000Z</time>
      </trkpt>
      <trkpt lat="42.91969" lon="0.59301">
        <ele>1596.7</ele>
        <time>2019-02-03T12:30:19.000Z</time>
      </trkpt>
      <trkpt lat="42.91969" lon="0.59301">
        <ele>1596.3</ele>
        <time>2019-02-03T12:30:20.000Z</time>
      </trkpt>
      <trkpt lat="42.91969" lon="0.593">
        <ele>1596</ele>
        <time>2019-02-03T12:30:21.000Z</time>
      </trkpt>
      <trkpt lat="42.91969" lon="0.59299">
        <ele>1596</ele>
        <time>2019-02-03T12:30:22.000Z</time>
      </trkpt>
      <trkpt lat="42.91969" lon="0.59298">
        <ele>1596</ele>
        <time>2019-02-03T12:30:23.000Z</time>
      </trkpt>
      <trkpt lat="42.91969" lon="0.59296">
        <ele>1596</ele>
        <time>2019-02-03T12:30:24.000Z</time>
      </trkpt>
      <trkpt lat="42.91969" lon="0.59295">
        <ele>1596</ele>
        <time>2019-02-03T12:30:25.000Z</time>
      </trkpt>
      <trkpt lat="42.91969" lon="0.59294">
        <ele>1595</ele>
        <time>2019-02-03T12:30:26.000Z</time>
      </trkpt>
      <trkpt lat="42.91969" lon="0.59294">
        <ele>1594.7</ele>
        <time>2019-02-03T12:30:27.000Z</time>
      </trkpt>
      <trkpt lat="42.91968" lon="0.59293">
        <ele>1594.3</ele>
        <time>2019-02-03T12:30:28.000Z</time>
      </trkpt>
      <trkpt lat="42.91968" lon="0.59292">
        <ele>1594</ele>
        <time>2019-02-03T12:30:29.000Z</time>
      </trkpt>
      <trkpt lat="42.91968" lon="0.59291">
        <ele>1594</ele>
        <time>2019-02-03T12:30:30.000Z</time>
      </trkpt>
      <trkpt lat="42.91967" lon="0.5929">
        <ele>1594</ele>
        <time>2019-02-03T12:30:31.000Z</time>
      </trkpt>
      <trkpt lat="42.91967" lon="0.59288">
        <ele>1594</ele>
        <time>2019-02-03T12:30:32.000Z</time>
      </trkpt>
      <trkpt lat="42.91967" lon="0.59287">
        <ele>1593.7</ele>
        <time>2019-02-03T12:30:33.000Z</time>
      </trkpt>
      <trkpt lat="42.91967" lon="0.59285">
        <ele>1593.3</ele>
        <time>2019-02-03T12:30:34.000Z</time>
      </trkpt>
      <trkpt lat="42.91967" lon="0.59284">
        <ele>1593</ele>
        <time>2019-02-03T12:30:35.000Z</time>
      </trkpt>
      <trkpt lat="42.91967" lon="0.59283">
        <ele>1592</ele>
        <time>2019-02-03T12:30:36.000Z</time>
      </trkpt>
      <trkpt lat="42.91967" lon="0.59281">
        <ele>1592</ele>
        <time>2019-02-03T12:30:37.000Z</time>
      </trkpt>
      <trkpt lat="42.91967" lon="0.5928">
        <ele>1592</ele>
        <time>2019-02-03T12:30:38.000Z</time>
      </trkpt>
      <trkpt lat="42.91967" lon="0.59278">
        <ele>1591.7</ele>
        <time>2019-02-03T12:30:39.000Z</time>
      </trkpt>
      <trkpt lat="42.91967" lon="0.59277">
        <ele>1591.3</ele>
        <time>2019-02-03T12:30:40.000Z</time>
      </trkpt>
      <trkpt lat="42.91967" lon="0.59275">
        <ele>1591</ele>
        <time>2019-02-03T12:30:41.000Z</time>
      </trkpt>
      <trkpt lat="42.91967" lon="0.59274">
        <ele>1590</ele>
        <time>2019-02-03T12:30:42.000Z</time>
      </trkpt>
      <trkpt lat="42.91966" lon="0.59273">
        <ele>1590</ele>
        <time>2019-02-03T12:30:43.000Z</time>
      </trkpt>
      <trkpt lat="42.91966" lon="0.59271">
        <ele>1590</ele>
        <time>2019-02-03T12:30:44.000Z</time>
      </trkpt>
      <trkpt lat="42.91966" lon="0.5927">
        <ele>1590</ele>
        <time>2019-02-03T12:30:45.000Z</time>
      </trkpt>
      <trkpt lat="42.91966" lon="0.59268">
        <ele>1589.5</ele>
        <time>2019-02-03T12:30:46.000Z</time>
      </trkpt>
      <trkpt lat="42.91965" lon="0.59267">
        <ele>1589</ele>
        <time>2019-02-03T12:30:47.000Z</time>
      </trkpt>
      <trkpt lat="42.91965" lon="0.59265">
        <ele>1589</ele>
        <time>2019-02-03T12:30:48.000Z</time>
      </trkpt>
      <trkpt lat="42.91965" lon="0.59264">
        <ele>1588.5</ele>
        <time>2019-02-03T12:30:49.000Z</time>
      </trkpt>
      <trkpt lat="42.91965" lon="0.59262">
        <ele>1588</ele>
        <time>2019-02-03T12:30:50.000Z</time>
      </trkpt>
      <trkpt lat="42.91965" lon="0.59261">
        <ele>1587.7</ele>
        <time>2019-02-03T12:30:51.000Z</time>
      </trkpt>
      <trkpt lat="42.91964" lon="0.5926">
        <ele>1587.3</ele>
        <time>2019-02-03T12:30:52.000Z</time>
      </trkpt>
      <trkpt lat="42.91964" lon="0.59258">
        <ele>1587</ele>
        <time>2019-02-03T12:30:53.000Z</time>
      </trkpt>
      <trkpt lat="42.91965" lon="0.59257">
        <ele>1586</ele>
        <time>2019-02-03T12:30:54.000Z</time>
      </trkpt>
      <trkpt lat="42.91965" lon="0.59256">
        <ele>1586</ele>
        <time>2019-02-03T12:30:55.000Z</time>
      </trkpt>
      <trkpt lat="42.91965" lon="0.59255">
        <ele>1586</ele>
        <time>2019-02-03T12:30:56.000Z</time>
      </trkpt>
      <trkpt lat="42.91965" lon="0.59254">
        <ele>1585.7</ele>
        <time>2019-02-03T12:30:57.000Z</time>
      </trkpt>
      <trkpt lat="42.91965" lon="0.59252">
        <ele>1585.3</ele>
        <time>2019-02-03T12:30:58.000Z</time>
      </trkpt>
      <trkpt lat="42.91965" lon="0.59251">
        <ele>1585</ele>
        <time>2019-02-03T12:30:59.000Z</time>
      </trkpt>
      <trkpt lat="42.91965" lon="0.5925">
        <ele>1585</ele>
        <time>2019-02-03T12:31:00.000Z</time>
      </trkpt>
      <trkpt lat="42.91964" lon="0.59249">
        <ele>1585</ele>
        <time>2019-02-03T12:31:01.000Z</time>
      </trkpt>
      <trkpt lat="42.91964" lon="0.59248">
        <ele>1584</ele>
        <time>2019-02-03T12:31:02.000Z</time>
      </trkpt>
      <trkpt lat="42.91964" lon="0.59247">
        <ele>1583.5</ele>
        <time>2019-02-03T12:31:03.000Z</time>
      </trkpt>
      <trkpt lat="42.91964" lon="0.59245">
        <ele>1583</ele>
        <time>2019-02-03T12:31:04.000Z</time>
      </trkpt>
      <trkpt lat="42.91964" lon="0.59244">
        <ele>1582.7</ele>
        <time>2019-02-03T12:31:05.000Z</time>
      </trkpt>
      <trkpt lat="42.91964" lon="0.59242">
        <ele>1582.3</ele>
        <time>2019-02-03T12:31:06.000Z</time>
      </trkpt>
      <trkpt lat="42.91964" lon="0.59241">
        <ele>1582</ele>
        <time>2019-02-03T12:31:07.000Z</time>
      </trkpt>
      <trkpt lat="42.91964" lon="0.5924">
        <ele>1582</ele>
        <time>2019-02-03T12:31:08.000Z</time>
      </trkpt>
      <trkpt lat="42.91964" lon="0.59238">
        <ele>1581.7</ele>
        <time>2019-02-03T12:31:09.000Z</time>
      </trkpt>
      <trkpt lat="42.91964" lon="0.59237">
        <ele>1581.3</ele>
        <time>2019-02-03T12:31:10.000Z</time>
      </trkpt>
      <trkpt lat="42.91964" lon="0.59235">
        <ele>1581</ele>
        <time>2019-02-03T12:31:11.000Z</time>
      </trkpt>
      <trkpt lat="42.91964" lon="0.59234">
        <ele>1581</ele>
        <time>2019-02-03T12:31:12.000Z</time>
      </trkpt>
      <trkpt lat="42.91963" lon="0.59232">
        <ele>1580.7</ele>
        <time>2019-02-03T12:31:13.000Z</time>
      </trkpt>
      <trkpt lat="42.91963" lon="0.5923">
        <ele>1580.3</ele>
        <time>2019-02-03T12:31:14.000Z</time>
      </trkpt>
      <trkpt lat="42.91963" lon="0.59229">
        <ele>1580</ele>
        <time>2019-02-03T12:31:15.000Z</time>
      </trkpt>
      <trkpt lat="42.91963" lon="0.59228">
        <ele>1580</ele>
        <time>2019-02-03T12:31:16.000Z</time>
      </trkpt>
      <trkpt lat="42.91963" lon="0.59226">
        <ele>1580</ele>
        <time>2019-02-03T12:31:17.000Z</time>
      </trkpt>
      <trkpt lat="42.91963" lon="0.59225">
        <ele>1580</ele>
        <time>2019-02-03T12:31:18.000Z</time>
      </trkpt>
      <trkpt lat="42.91963" lon="0.59224">
        <ele>1579.5</ele>
        <time>2019-02-03T12:31:19.000Z</time>
      </trkpt>
      <trkpt lat="42.91963" lon="0.59222">
        <ele>1579</ele>
        <time>2019-02-03T12:31:20.000Z</time>
      </trkpt>
      <trkpt lat="42.91963" lon="0.59221">
        <ele>1578.7</ele>
        <time>2019-02-03T12:31:21.000Z</time>
      </trkpt>
      <trkpt lat="42.91963" lon="0.59221">
        <ele>1578.3</ele>
        <time>2019-02-03T12:31:22.000Z</time>
      </trkpt>
      <trkpt lat="42.91963" lon="0.5922">
        <ele>1578</ele>
        <time>2019-02-03T12:31:23.000Z</time>
      </trkpt>
      <trkpt lat="42.91963" lon="0.59219">
        <ele>1577.5</ele>
        <time>2019-02-03T12:31:24.000Z</time>
      </trkpt>
      <trkpt lat="42.91963" lon="0.59217">
        <ele>1577</ele>
        <time>2019-02-03T12:31:25.000Z</time>
      </trkpt>
      <trkpt lat="42.91963" lon="0.59216">
        <ele>1576</ele>
        <time>2019-02-03T12:31:26.000Z</time>
      </trkpt>
      <trkpt lat="42.91963" lon="0.59214">
        <ele>1575.7</ele>
        <time>2019-02-03T12:31:27.000Z</time>
      </trkpt>
      <trkpt lat="42.91962" lon="0.59213">
        <ele>1575.3</ele>
        <time>2019-02-03T12:31:28.000Z</time>
      </trkpt>
      <trkpt lat="42.91962" lon="0.59211">
        <ele>1575</ele>
        <time>2019-02-03T12:31:29.000Z</time>
      </trkpt>
      <trkpt lat="42.91962" lon="0.59209">
        <ele>1575</ele>
        <time>2019-02-03T12:31:30.000Z</time>
      </trkpt>
      <trkpt lat="42.91961" lon="0.59208">
        <ele>1574.5</ele>
        <time>2019-02-03T12:31:31.000Z</time>
      </trkpt>
      <trkpt lat="42.91961" lon="0.59206">
        <ele>1574</ele>
        <time>2019-02-03T12:31:32.000Z</time>
      </trkpt>
      <trkpt lat="42.91961" lon="0.59204">
        <ele>1574</ele>
        <time>2019-02-03T12:31:33.000Z</time>
      </trkpt>
      <trkpt lat="42.9196" lon="0.59203">
        <ele>1574</ele>
        <time>2019-02-03T12:31:34.000Z</time>
      </trkpt>
      <trkpt lat="42.9196" lon="0.59201">
        <ele>1574</ele>
        <time>2019-02-03T12:31:35.000Z</time>
      </trkpt>
      <trkpt lat="42.9196" lon="0.592">
        <ele>1573</ele>
        <time>2019-02-03T12:31:36.000Z</time>
      </trkpt>
      <trkpt lat="42.9196" lon="0.59199">
        <ele>1572.7</ele>
        <time>2019-02-03T12:31:37.000Z</time>
      </trkpt>
      <trkpt lat="42.9196" lon="0.59198">
        <ele>1572.3</ele>
        <time>2019-02-03T12:31:38.000Z</time>
      </trkpt>
      <trkpt lat="42.9196" lon="0.59197">
        <ele>1572</ele>
        <time>2019-02-03T12:31:39.000Z</time>
      </trkpt>
      <trkpt lat="42.9196" lon="0.59195">
        <ele>1572</ele>
        <time>2019-02-03T12:31:40.000Z</time>
      </trkpt>
      <trkpt lat="42.9196" lon="0.59194">
        <ele>1572</ele>
        <time>2019-02-03T12:31:41.000Z</time>
      </trkpt>
      <trkpt lat="42.9196" lon="0.59193">
        <ele>1571.5</ele>
        <time>2019-02-03T12:31:42.000Z</time>
      </trkpt>
      <trkpt lat="42.9196" lon="0.59191">
        <ele>1571</ele>
        <time>2019-02-03T12:31:43.000Z</time>
      </trkpt>
      <trkpt lat="42.91959" lon="0.5919">
        <ele>1570.5</ele>
        <time>2019-02-03T12:31:44.000Z</time>
      </trkpt>
      <trkpt lat="42.91959" lon="0.59189">
        <ele>1570</ele>
        <time>2019-02-03T12:31:45.000Z</time>
      </trkpt>
      <trkpt lat="42.91959" lon="0.59187">
        <ele>1570</ele>
        <time>2019-02-03T12:31:46.000Z</time>
      </trkpt>
      <trkpt lat="42.91958" lon="0.59186">
        <ele>1570</ele>
        <time>2019-02-03T12:31:47.000Z</time>
      </trkpt>
      <trkpt lat="42.91958" lon="0.59185">
        <ele>1570</ele>
        <time>2019-02-03T12:31:48.000Z</time>
      </trkpt>
      <trkpt lat="42.91958" lon="0.59183">
        <ele>1569.7</ele>
        <time>2019-02-03T12:31:49.000Z</time>
      </trkpt>
      <trkpt lat="42.91957" lon="0.59182">
        <ele>1569.3</ele>
        <time>2019-02-03T12:31:50.000Z</time>
      </trkpt>
      <trkpt lat="42.91957" lon="0.59181">
        <ele>1569</ele>
        <time>2019-02-03T12:31:51.000Z</time>
      </trkpt>
      <trkpt lat="42.91956" lon="0.59179">
        <ele>1568.5</ele>
        <time>2019-02-03T12:31:52.000Z</time>
      </trkpt>
      <trkpt lat="42.91956" lon="0.59178">
        <ele>1568</ele>
        <time>2019-02-03T12:31:53.000Z</time>
      </trkpt>
      <trkpt lat="42.91956" lon="0.59177">
        <ele>1568</ele>
        <time>2019-02-03T12:31:54.000Z</time>
      </trkpt>
      <trkpt lat="42.91955" lon="0.59176">
        <ele>1567.7</ele>
        <time>2019-02-03T12:31:55.000Z</time>
      </trkpt>
      <trkpt lat="42.91955" lon="0.59175">
        <ele>1567.3</ele>
        <time>2019-02-03T12:31:56.000Z</time>
      </trkpt>
      <trkpt lat="42.91955" lon="0.59174">
        <ele>1567</ele>
        <time>2019-02-03T12:31:57.000Z</time>
      </trkpt>
      <trkpt lat="42.91955" lon="0.59172">
        <ele>1567</ele>
        <time>2019-02-03T12:31:58.000Z</time>
      </trkpt>
      <trkpt lat="42.91955" lon="0.59171">
        <ele>1566.7</ele>
        <time>2019-02-03T12:31:59.000Z</time>
      </trkpt>
      <trkpt lat="42.91954" lon="0.5917">
        <ele>1566.3</ele>
        <time>2019-02-03T12:32:00.000Z</time>
      </trkpt>
      <trkpt lat="42.91954" lon="0.59169">
        <ele>1566</ele>
        <time>2019-02-03T12:32:01.000Z</time>
      </trkpt>
      <trkpt lat="42.91954" lon="0.59168">
        <ele>1565.5</ele>
        <time>2019-02-03T12:32:02.000Z</time>
      </trkpt>
      <trkpt lat="42.91954" lon="0.59166">
        <ele>1565</ele>
        <time>2019-02-03T12:32:03.000Z</time>
      </trkpt>
      <trkpt lat="42.91954" lon="0.59165">
        <ele>1565</ele>
        <time>2019-02-03T12:32:04.000Z</time>
      </trkpt>
      <trkpt lat="42.91954" lon="0.59164">
        <ele>1565</ele>
        <time>2019-02-03T12:32:05.000Z</time>
      </trkpt>
      <trkpt lat="42.91954" lon="0.59162">
        <ele>1565</ele>
        <time>2019-02-03T12:32:06.000Z</time>
      </trkpt>
      <trkpt lat="42.91954" lon="0.59161">
        <ele>1564.5</ele>
        <time>2019-02-03T12:32:07.000Z</time>
      </trkpt>
      <trkpt lat="42.91954" lon="0.59159">
        <ele>1564</ele>
        <time>2019-02-03T12:32:08.000Z</time>
      </trkpt>
      <trkpt lat="42.91954" lon="0.59158">
        <ele>1563.7</ele>
        <time>2019-02-03T12:32:09.000Z</time>
      </trkpt>
      <trkpt lat="42.91954" lon="0.59157">
        <ele>1563.3</ele>
        <time>2019-02-03T12:32:10.000Z</time>
      </trkpt>
      <trkpt lat="42.91954" lon="0.59155">
        <ele>1563</ele>
        <time>2019-02-03T12:32:11.000Z</time>
      </trkpt>
      <trkpt lat="42.91953" lon="0.59154">
        <ele>1563</ele>
        <time>2019-02-03T12:32:12.000Z</time>
      </trkpt>
      <trkpt lat="42.91953" lon="0.59153">
        <ele>1562.7</ele>
        <time>2019-02-03T12:32:13.000Z</time>
      </trkpt>
      <trkpt lat="42.91952" lon="0.59152">
        <ele>1562.3</ele>
        <time>2019-02-03T12:32:14.000Z</time>
      </trkpt>
      <trkpt lat="42.91952" lon="0.5915">
        <ele>1562</ele>
        <time>2019-02-03T12:32:15.000Z</time>
      </trkpt>
      <trkpt lat="42.91952" lon="0.59149">
        <ele>1562</ele>
        <time>2019-02-03T12:32:16.000Z</time>
      </trkpt>
      <trkpt lat="42.91951" lon="0.59148">
        <ele>1561.7</ele>
        <time>2019-02-03T12:32:17.000Z</time>
      </trkpt>
      <trkpt lat="42.91951" lon="0.59147">
        <ele>1561.3</ele>
        <time>2019-02-03T12:32:18.000Z</time>
      </trkpt>
      <trkpt lat="42.91951" lon="0.59145">
        <ele>1561</ele>
        <time>2019-02-03T12:32:19.000Z</time>
      </trkpt>
      <trkpt lat="42.91951" lon="0.59143">
        <ele>1561</ele>
        <time>2019-02-03T12:32:20.000Z</time>
      </trkpt>
      <trkpt lat="42.91951" lon="0.59141">
        <ele>1560.5</ele>
        <time>2019-02-03T12:32:21.000Z</time>
      </trkpt>
      <trkpt lat="42.91951" lon="0.5914">
        <ele>1560</ele>
        <time>2019-02-03T12:32:22.000Z</time>
      </trkpt>
      <trkpt lat="42.91951" lon="0.59138">
        <ele>1560</ele>
        <time>2019-02-03T12:32:23.000Z</time>
      </trkpt>
      <trkpt lat="42.91951" lon="0.59137">
        <ele>1560</ele>
        <time>2019-02-03T12:32:24.000Z</time>
      </trkpt>
      <trkpt lat="42.91951" lon="0.59135">
        <ele>1560</ele>
        <time>2019-02-03T12:32:25.000Z</time>
      </trkpt>
      <trkpt lat="42.91951" lon="0.59134">
        <ele>1559.5</ele>
        <time>2019-02-03T12:32:26.000Z</time>
      </trkpt>
      <trkpt lat="42.91951" lon="0.59133">
        <ele>1559</ele>
        <time>2019-02-03T12:32:27.000Z</time>
      </trkpt>
      <trkpt lat="42.91951" lon="0.59132">
        <ele>1559</ele>
        <time>2019-02-03T12:32:28.000Z</time>
      </trkpt>
      <trkpt lat="42.91951" lon="0.59131">
        <ele>1559</ele>
        <time>2019-02-03T12:32:29.000Z</time>
      </trkpt>
      <trkpt lat="42.91951" lon="0.5913">
        <ele>1559</ele>
        <time>2019-02-03T12:32:30.000Z</time>
      </trkpt>
      <trkpt lat="42.91951" lon="0.59129">
        <ele>1559</ele>
        <time>2019-02-03T12:32:31.000Z</time>
      </trkpt>
      <trkpt lat="42.9195" lon="0.59127">
        <ele>1558.5</ele>
        <time>2019-02-03T12:32:32.000Z</time>
      </trkpt>
      <trkpt lat="42.9195" lon="0.59126">
        <ele>1558</ele>
        <time>2019-02-03T12:32:33.000Z</time>
      </trkpt>
      <trkpt lat="42.9195" lon="0.59124">
        <ele>1558</ele>
        <time>2019-02-03T12:32:34.000Z</time>
      </trkpt>
      <trkpt lat="42.9195" lon="0.59123">
        <ele>1557.5</ele>
        <time>2019-02-03T12:32:35.000Z</time>
      </trkpt>
      <trkpt lat="42.9195" lon="0.59121">
        <ele>1557</ele>
        <time>2019-02-03T12:32:36.000Z</time>
      </trkpt>
      <trkpt lat="42.9195" lon="0.59119">
        <ele>1557</ele>
        <time>2019-02-03T12:32:37.000Z</time>
      </trkpt>
      <trkpt lat="42.91949" lon="0.59118">
        <ele>1557</ele>
        <time>2019-02-03T12:32:38.000Z</time>
      </trkpt>
      <trkpt lat="42.91949" lon="0.59116">
        <ele>1557</ele>
        <time>2019-02-03T12:32:39.000Z</time>
      </trkpt>
      <trkpt lat="42.91949" lon="0.59115">
        <ele>1556</ele>
        <time>2019-02-03T12:32:40.000Z</time>
      </trkpt>
      <trkpt lat="42.91949" lon="0.59113">
        <ele>1556</ele>
        <time>2019-02-03T12:32:41.000Z</time>
      </trkpt>
      <trkpt lat="42.91949" lon="0.59112">
        <ele>1556</ele>
        <time>2019-02-03T12:32:42.000Z</time>
      </trkpt>
      <trkpt lat="42.91949" lon="0.59111">
        <ele>1555.7</ele>
        <time>2019-02-03T12:32:43.000Z</time>
      </trkpt>
      <trkpt lat="42.91949" lon="0.59109">
        <ele>1555.3</ele>
        <time>2019-02-03T12:32:44.000Z</time>
      </trkpt>
      <trkpt lat="42.91949" lon="0.59108">
        <ele>1555</ele>
        <time>2019-02-03T12:32:45.000Z</time>
      </trkpt>
      <trkpt lat="42.91949" lon="0.59106">
        <ele>1554.5</ele>
        <time>2019-02-03T12:32:46.000Z</time>
      </trkpt>
      <trkpt lat="42.91949" lon="0.59105">
        <ele>1554</ele>
        <time>2019-02-03T12:32:47.000Z</time>
      </trkpt>
      <trkpt lat="42.91949" lon="0.59104">
        <ele>1554</ele>
        <time>2019-02-03T12:32:48.000Z</time>
      </trkpt>
      <trkpt lat="42.91949" lon="0.59102">
        <ele>1554</ele>
        <time>2019-02-03T12:32:49.000Z</time>
      </trkpt>
      <trkpt lat="42.91949" lon="0.59101">
        <ele>1554</ele>
        <time>2019-02-03T12:32:50.000Z</time>
      </trkpt>
      <trkpt lat="42.91949" lon="0.59099">
        <ele>1554</ele>
        <time>2019-02-03T12:32:51.000Z</time>
      </trkpt>
      <trkpt lat="42.91948" lon="0.59098">
        <ele>1553</ele>
        <time>2019-02-03T12:32:52.000Z</time>
      </trkpt>
      <trkpt lat="42.91948" lon="0.59096">
        <ele>1553</ele>
        <time>2019-02-03T12:32:53.000Z</time>
      </trkpt>
      <trkpt lat="42.91948" lon="0.59095">
        <ele>1553</ele>
        <time>2019-02-03T12:32:54.000Z</time>
      </trkpt>
      <trkpt lat="42.91948" lon="0.59094">
        <ele>1552.7</ele>
        <time>2019-02-03T12:32:55.000Z</time>
      </trkpt>
      <trkpt lat="42.91948" lon="0.59092">
        <ele>1552.3</ele>
        <time>2019-02-03T12:32:56.000Z</time>
      </trkpt>
      <trkpt lat="42.91948" lon="0.59091">
        <ele>1552</ele>
        <time>2019-02-03T12:32:57.000Z</time>
      </trkpt>
      <trkpt lat="42.91948" lon="0.5909">
        <ele>1552</ele>
        <time>2019-02-03T12:32:58.000Z</time>
      </trkpt>
      <trkpt lat="42.91948" lon="0.59088">
        <ele>1551.7</ele>
        <time>2019-02-03T12:32:59.000Z</time>
      </trkpt>
      <trkpt lat="42.91948" lon="0.59087">
        <ele>1551.3</ele>
        <time>2019-02-03T12:33:00.000Z</time>
      </trkpt>
      <trkpt lat="42.91947" lon="0.59085">
        <ele>1551</ele>
        <time>2019-02-03T12:33:01.000Z</time>
      </trkpt>
      <trkpt lat="42.91947" lon="0.59084">
        <ele>1551</ele>
        <time>2019-02-03T12:33:02.000Z</time>
      </trkpt>
      <trkpt lat="42.91947" lon="0.59082">
        <ele>1551</ele>
        <time>2019-02-03T12:33:03.000Z</time>
      </trkpt>
      <trkpt lat="42.91947" lon="0.59081">
        <ele>1551</ele>
        <time>2019-02-03T12:33:04.000Z</time>
      </trkpt>
      <trkpt lat="42.91946" lon="0.59079">
        <ele>1551</ele>
        <time>2019-02-03T12:33:05.000Z</time>
      </trkpt>
      <trkpt lat="42.91946" lon="0.59078">
        <ele>1551</ele>
        <time>2019-02-03T12:33:06.000Z</time>
      </trkpt>
      <trkpt lat="42.91946" lon="0.59077">
        <ele>1550.5</ele>
        <time>2019-02-03T12:33:07.000Z</time>
      </trkpt>
      <trkpt lat="42.91945" lon="0.59075">
        <ele>1550</ele>
        <time>2019-02-03T12:33:08.000Z</time>
      </trkpt>
      <trkpt lat="42.91945" lon="0.59074">
        <ele>1550</ele>
        <time>2019-02-03T12:33:09.000Z</time>
      </trkpt>
      <trkpt lat="42.91945" lon="0.59073">
        <ele>1550</ele>
        <time>2019-02-03T12:33:10.000Z</time>
      </trkpt>
      <trkpt lat="42.91945" lon="0.59071">
        <ele>1550</ele>
        <time>2019-02-03T12:33:11.000Z</time>
      </trkpt>
      <trkpt lat="42.91944" lon="0.5907">
        <ele>1550</ele>
        <time>2019-02-03T12:33:12.000Z</time>
      </trkpt>
      <trkpt lat="42.91944" lon="0.59069">
        <ele>1550</ele>
        <time>2019-02-03T12:33:13.000Z</time>
      </trkpt>
      <trkpt lat="42.91944" lon="0.59068">
        <ele>1550</ele>
        <time>2019-02-03T12:33:14.000Z</time>
      </trkpt>
      <trkpt lat="42.91943" lon="0.59067">
        <ele>1550</ele>
        <time>2019-02-03T12:33:15.000Z</time>
      </trkpt>
      <trkpt lat="42.91943" lon="0.59065">
        <ele>1549.5</ele>
        <time>2019-02-03T12:33:16.000Z</time>
      </trkpt>
      <trkpt lat="42.91943" lon="0.59064">
        <ele>1549</ele>
        <time>2019-02-03T12:33:17.000Z</time>
      </trkpt>
      <trkpt lat="42.91943" lon="0.59063">
        <ele>1549</ele>
        <time>2019-02-03T12:33:18.000Z</time>
      </trkpt>
      <trkpt lat="42.91942" lon="0.59062">
        <ele>1549</ele>
        <time>2019-02-03T12:33:19.000Z</time>
      </trkpt>
      <trkpt lat="42.91942" lon="0.5906">
        <ele>1549</ele>
        <time>2019-02-03T12:33:20.000Z</time>
      </trkpt>
      <trkpt lat="42.91941" lon="0.59059">
        <ele>1549</ele>
        <time>2019-02-03T12:33:21.000Z</time>
      </trkpt>
      <trkpt lat="42.91941" lon="0.59058">
        <ele>1549</ele>
        <time>2019-02-03T12:33:22.000Z</time>
      </trkpt>
      <trkpt lat="42.91941" lon="0.59056">
        <ele>1549</ele>
        <time>2019-02-03T12:33:23.000Z</time>
      </trkpt>
      <trkpt lat="42.9194" lon="0.59055">
        <ele>1548</ele>
        <time>2019-02-03T12:33:24.000Z</time>
      </trkpt>
      <trkpt lat="42.9194" lon="0.59053">
        <ele>1548</ele>
        <time>2019-02-03T12:33:25.000Z</time>
      </trkpt>
      <trkpt lat="42.9194" lon="0.59052">
        <ele>1548</ele>
        <time>2019-02-03T12:33:26.000Z</time>
      </trkpt>
      <trkpt lat="42.9194" lon="0.5905">
        <ele>1548</ele>
        <time>2019-02-03T12:33:27.000Z</time>
      </trkpt>
      <trkpt lat="42.91939" lon="0.59049">
        <ele>1548</ele>
        <time>2019-02-03T12:33:28.000Z</time>
      </trkpt>
      <trkpt lat="42.91939" lon="0.59047">
        <ele>1548</ele>
        <time>2019-02-03T12:33:29.000Z</time>
      </trkpt>
      <trkpt lat="42.91939" lon="0.59045">
        <ele>1548</ele>
        <time>2019-02-03T12:33:30.000Z</time>
      </trkpt>
      <trkpt lat="42.91939" lon="0.59044">
        <ele>1548</ele>
        <time>2019-02-03T12:33:31.000Z</time>
      </trkpt>
      <trkpt lat="42.91939" lon="0.59043">
        <ele>1547.5</ele>
        <time>2019-02-03T12:33:32.000Z</time>
      </trkpt>
      <trkpt lat="42.91938" lon="0.59041">
        <ele>1547</ele>
        <time>2019-02-03T12:33:33.000Z</time>
      </trkpt>
      <trkpt lat="42.91938" lon="0.5904">
        <ele>1547</ele>
        <time>2019-02-03T12:33:34.000Z</time>
      </trkpt>
      <trkpt lat="42.91938" lon="0.59039">
        <ele>1547</ele>
        <time>2019-02-03T12:33:35.000Z</time>
      </trkpt>
      <trkpt lat="42.91938" lon="0.59038">
        <ele>1546.5</ele>
        <time>2019-02-03T12:33:36.000Z</time>
      </trkpt>
      <trkpt lat="42.91938" lon="0.59037">
        <ele>1546</ele>
        <time>2019-02-03T12:33:37.000Z</time>
      </trkpt>
      <trkpt lat="42.91938" lon="0.59036">
        <ele>1546</ele>
        <time>2019-02-03T12:33:38.000Z</time>
      </trkpt>
      <trkpt lat="42.91938" lon="0.59035">
        <ele>1546</ele>
        <time>2019-02-03T12:33:39.000Z</time>
      </trkpt>
      <trkpt lat="42.91937" lon="0.59033">
        <ele>1546</ele>
        <time>2019-02-03T12:33:40.000Z</time>
      </trkpt>
      <trkpt lat="42.91937" lon="0.59032">
        <ele>1546</ele>
        <time>2019-02-03T12:33:41.000Z</time>
      </trkpt>
      <trkpt lat="42.91937" lon="0.5903">
        <ele>1546</ele>
        <time>2019-02-03T12:33:42.000Z</time>
      </trkpt>
      <trkpt lat="42.91936" lon="0.59029">
        <ele>1546</ele>
        <time>2019-02-03T12:33:43.000Z</time>
      </trkpt>
      <trkpt lat="42.91936" lon="0.59027">
        <ele>1546</ele>
        <time>2019-02-03T12:33:44.000Z</time>
      </trkpt>
      <trkpt lat="42.91935" lon="0.59026">
        <ele>1546</ele>
        <time>2019-02-03T12:33:45.000Z</time>
      </trkpt>
      <trkpt lat="42.91934" lon="0.59024">
        <ele>1545</ele>
        <time>2019-02-03T12:33:46.000Z</time>
      </trkpt>
      <trkpt lat="42.91934" lon="0.59023">
        <ele>1545</ele>
        <time>2019-02-03T12:33:47.000Z</time>
      </trkpt>
      <trkpt lat="42.91933" lon="0.59022">
        <ele>1545</ele>
        <time>2019-02-03T12:33:48.000Z</time>
      </trkpt>
      <trkpt lat="42.91933" lon="0.5902">
        <ele>1545</ele>
        <time>2019-02-03T12:33:49.000Z</time>
      </trkpt>
      <trkpt lat="42.91932" lon="0.59019">
        <ele>1545</ele>
        <time>2019-02-03T12:33:50.000Z</time>
      </trkpt>
      <trkpt lat="42.91932" lon="0.59017">
        <ele>1545</ele>
        <time>2019-02-03T12:33:51.000Z</time>
      </trkpt>
      <trkpt lat="42.91932" lon="0.59016">
        <ele>1544</ele>
        <time>2019-02-03T12:33:52.000Z</time>
      </trkpt>
      <trkpt lat="42.91931" lon="0.59015">
        <ele>1544</ele>
        <time>2019-02-03T12:33:53.000Z</time>
      </trkpt>
      <trkpt lat="42.91931" lon="0.59013">
        <ele>1544</ele>
        <time>2019-02-03T12:33:54.000Z</time>
      </trkpt>
      <trkpt lat="42.9193" lon="0.59012">
        <ele>1544</ele>
        <time>2019-02-03T12:33:55.000Z</time>
      </trkpt>
      <trkpt lat="42.9193" lon="0.5901">
        <ele>1543.5</ele>
        <time>2019-02-03T12:33:56.000Z</time>
      </trkpt>
      <trkpt lat="42.91929" lon="0.59009">
        <ele>1543</ele>
        <time>2019-02-03T12:33:57.000Z</time>
      </trkpt>
      <trkpt lat="42.91929" lon="0.59008">
        <ele>1543</ele>
        <time>2019-02-03T12:33:58.000Z</time>
      </trkpt>
      <trkpt lat="42.91928" lon="0.59007">
        <ele>1543</ele>
        <time>2019-02-03T12:33:59.000Z</time>
      </trkpt>
      <trkpt lat="42.91928" lon="0.59005">
        <ele>1543</ele>
        <time>2019-02-03T12:34:00.000Z</time>
      </trkpt>
      <trkpt lat="42.91927" lon="0.59004">
        <ele>1543</ele>
        <time>2019-02-03T12:34:01.000Z</time>
      </trkpt>
      <trkpt lat="42.91927" lon="0.59003">
        <ele>1542.5</ele>
        <time>2019-02-03T12:34:02.000Z</time>
      </trkpt>
      <trkpt lat="42.91927" lon="0.59001">
        <ele>1542</ele>
        <time>2019-02-03T12:34:03.000Z</time>
      </trkpt>
      <trkpt lat="42.91927" lon="0.59">
        <ele>1542</ele>
        <time>2019-02-03T12:34:04.000Z</time>
      </trkpt>
      <trkpt lat="42.91927" lon="0.58998">
        <ele>1542</ele>
        <time>2019-02-03T12:34:05.000Z</time>
      </trkpt>
      <trkpt lat="42.91926" lon="0.58997">
        <ele>1542</ele>
        <time>2019-02-03T12:34:06.000Z</time>
      </trkpt>
      <trkpt lat="42.91926" lon="0.58996">
        <ele>1542</ele>
        <time>2019-02-03T12:34:07.000Z</time>
      </trkpt>
      <trkpt lat="42.91926" lon="0.58995">
        <ele>1541</ele>
        <time>2019-02-03T12:34:08.000Z</time>
      </trkpt>
      <trkpt lat="42.91926" lon="0.58994">
        <ele>1541</ele>
        <time>2019-02-03T12:34:09.000Z</time>
      </trkpt>
      <trkpt lat="42.91925" lon="0.58992">
        <ele>1541</ele>
        <time>2019-02-03T12:34:10.000Z</time>
      </trkpt>
      <trkpt lat="42.91924" lon="0.58991">
        <ele>1541</ele>
        <time>2019-02-03T12:34:11.000Z</time>
      </trkpt>
      <trkpt lat="42.91924" lon="0.5899">
        <ele>1541</ele>
        <time>2019-02-03T12:34:12.000Z</time>
      </trkpt>
      <trkpt lat="42.91923" lon="0.58989">
        <ele>1540.7</ele>
        <time>2019-02-03T12:34:13.000Z</time>
      </trkpt>
      <trkpt lat="42.91922" lon="0.58987">
        <ele>1540.3</ele>
        <time>2019-02-03T12:34:14.000Z</time>
      </trkpt>
      <trkpt lat="42.91922" lon="0.58986">
        <ele>1540</ele>
        <time>2019-02-03T12:34:15.000Z</time>
      </trkpt>
      <trkpt lat="42.91921" lon="0.58985">
        <ele>1540</ele>
        <time>2019-02-03T12:34:16.000Z</time>
      </trkpt>
      <trkpt lat="42.91921" lon="0.58983">
        <ele>1540</ele>
        <time>2019-02-03T12:34:17.000Z</time>
      </trkpt>
      <trkpt lat="42.91921" lon="0.58982">
        <ele>1540</ele>
        <time>2019-02-03T12:34:18.000Z</time>
      </trkpt>
      <trkpt lat="42.9192" lon="0.58981">
        <ele>1540</ele>
        <time>2019-02-03T12:34:19.000Z</time>
      </trkpt>
      <trkpt lat="42.9192" lon="0.5898">
        <ele>1539.5</ele>
        <time>2019-02-03T12:34:20.000Z</time>
      </trkpt>
      <trkpt lat="42.9192" lon="0.58979">
        <ele>1539</ele>
        <time>2019-02-03T12:34:21.000Z</time>
      </trkpt>
      <trkpt lat="42.91919" lon="0.58977">
        <ele>1539</ele>
        <time>2019-02-03T12:34:22.000Z</time>
      </trkpt>
      <trkpt lat="42.91919" lon="0.58976">
        <ele>1539</ele>
        <time>2019-02-03T12:34:23.000Z</time>
      </trkpt>
      <trkpt lat="42.91919" lon="0.58975">
        <ele>1539</ele>
        <time>2019-02-03T12:34:24.000Z</time>
      </trkpt>
      <trkpt lat="42.91918" lon="0.58974">
        <ele>1539</ele>
        <time>2019-02-03T12:34:25.000Z</time>
      </trkpt>
      <trkpt lat="42.91918" lon="0.58973">
        <ele>1538</ele>
        <time>2019-02-03T12:34:26.000Z</time>
      </trkpt>
      <trkpt lat="42.91918" lon="0.58971">
        <ele>1538</ele>
        <time>2019-02-03T12:34:27.000Z</time>
      </trkpt>
      <trkpt lat="42.91918" lon="0.5897">
        <ele>1538</ele>
        <time>2019-02-03T12:34:28.000Z</time>
      </trkpt>
      <trkpt lat="42.91917" lon="0.58969">
        <ele>1538</ele>
        <time>2019-02-03T12:34:29.000Z</time>
      </trkpt>
      <trkpt lat="42.91917" lon="0.58968">
        <ele>1537.5</ele>
        <time>2019-02-03T12:34:30.000Z</time>
      </trkpt>
      <trkpt lat="42.91917" lon="0.58966">
        <ele>1537</ele>
        <time>2019-02-03T12:34:31.000Z</time>
      </trkpt>
      <trkpt lat="42.91917" lon="0.58965">
        <ele>1537</ele>
        <time>2019-02-03T12:34:32.000Z</time>
      </trkpt>
      <trkpt lat="42.91916" lon="0.58964">
        <ele>1537</ele>
        <time>2019-02-03T12:34:33.000Z</time>
      </trkpt>
      <trkpt lat="42.91916" lon="0.58962">
        <ele>1536</ele>
        <time>2019-02-03T12:34:34.000Z</time>
      </trkpt>
      <trkpt lat="42.91916" lon="0.58961">
        <ele>1536</ele>
        <time>2019-02-03T12:34:35.000Z</time>
      </trkpt>
      <trkpt lat="42.91916" lon="0.58959">
        <ele>1536</ele>
        <time>2019-02-03T12:34:36.000Z</time>
      </trkpt>
      <trkpt lat="42.91916" lon="0.58958">
        <ele>1536</ele>
        <time>2019-02-03T12:34:37.000Z</time>
      </trkpt>
      <trkpt lat="42.91915" lon="0.58957">
        <ele>1535</ele>
        <time>2019-02-03T12:34:38.000Z</time>
      </trkpt>
      <trkpt lat="42.91915" lon="0.58955">
        <ele>1534.7</ele>
        <time>2019-02-03T12:34:39.000Z</time>
      </trkpt>
      <trkpt lat="42.91915" lon="0.58954">
        <ele>1534.3</ele>
        <time>2019-02-03T12:34:40.000Z</time>
      </trkpt>
      <trkpt lat="42.91915" lon="0.58953">
        <ele>1534</ele>
        <time>2019-02-03T12:34:41.000Z</time>
      </trkpt>
      <trkpt lat="42.91915" lon="0.58952">
        <ele>1534</ele>
        <time>2019-02-03T12:34:42.000Z</time>
      </trkpt>
      <trkpt lat="42.91914" lon="0.5895">
        <ele>1534</ele>
        <time>2019-02-03T12:34:43.000Z</time>
      </trkpt>
      <trkpt lat="42.91914" lon="0.58949">
        <ele>1534</ele>
        <time>2019-02-03T12:34:44.000Z</time>
      </trkpt>
      <trkpt lat="42.91914" lon="0.58948">
        <ele>1534</ele>
        <time>2019-02-03T12:34:45.000Z</time>
      </trkpt>
      <trkpt lat="42.91914" lon="0.58946">
        <ele>1533</ele>
        <time>2019-02-03T12:34:46.000Z</time>
      </trkpt>
      <trkpt lat="42.91914" lon="0.58944">
        <ele>1533</ele>
        <time>2019-02-03T12:34:47.000Z</time>
      </trkpt>
      <trkpt lat="42.91914" lon="0.58943">
        <ele>1533</ele>
        <time>2019-02-03T12:34:48.000Z</time>
      </trkpt>
      <trkpt lat="42.91913" lon="0.58941">
        <ele>1533</ele>
        <time>2019-02-03T12:34:49.000Z</time>
      </trkpt>
      <trkpt lat="42.91913" lon="0.58939">
        <ele>1532</ele>
        <time>2019-02-03T12:34:50.000Z</time>
      </trkpt>
      <trkpt lat="42.91913" lon="0.58938">
        <ele>1532</ele>
        <time>2019-02-03T12:34:51.000Z</time>
      </trkpt>
      <trkpt lat="42.91913" lon="0.58936">
        <ele>1532</ele>
        <time>2019-02-03T12:34:52.000Z</time>
      </trkpt>
      <trkpt lat="42.91913" lon="0.58934">
        <ele>1532</ele>
        <time>2019-02-03T12:34:53.000Z</time>
      </trkpt>
      <trkpt lat="42.91913" lon="0.58933">
        <ele>1531.5</ele>
        <time>2019-02-03T12:34:54.000Z</time>
      </trkpt>
      <trkpt lat="42.91912" lon="0.58932">
        <ele>1531</ele>
        <time>2019-02-03T12:34:55.000Z</time>
      </trkpt>
      <trkpt lat="42.91912" lon="0.5893">
        <ele>1531</ele>
        <time>2019-02-03T12:34:56.000Z</time>
      </trkpt>
      <trkpt lat="42.91912" lon="0.58929">
        <ele>1531</ele>
        <time>2019-02-03T12:34:57.000Z</time>
      </trkpt>
      <trkpt lat="42.91911" lon="0.58927">
        <ele>1530.5</ele>
        <time>2019-02-03T12:34:58.000Z</time>
      </trkpt>
      <trkpt lat="42.91911" lon="0.58926">
        <ele>1530</ele>
        <time>2019-02-03T12:34:59.000Z</time>
      </trkpt>
      <trkpt lat="42.91911" lon="0.58924">
        <ele>1529</ele>
        <time>2019-02-03T12:35:00.000Z</time>
      </trkpt>
      <trkpt lat="42.9191" lon="0.58922">
        <ele>1529</ele>
        <time>2019-02-03T12:35:01.000Z</time>
      </trkpt>
      <trkpt lat="42.9191" lon="0.58921">
        <ele>1529</ele>
        <time>2019-02-03T12:35:02.000Z</time>
      </trkpt>
      <trkpt lat="42.9191" lon="0.5892">
        <ele>1529</ele>
        <time>2019-02-03T12:35:03.000Z</time>
      </trkpt>
      <trkpt lat="42.9191" lon="0.58919">
        <ele>1528.5</ele>
        <time>2019-02-03T12:35:04.000Z</time>
      </trkpt>
      <trkpt lat="42.9191" lon="0.58917">
        <ele>1528</ele>
        <time>2019-02-03T12:35:05.000Z</time>
      </trkpt>
      <trkpt lat="42.9191" lon="0.58916">
        <ele>1527</ele>
        <time>2019-02-03T12:35:06.000Z</time>
      </trkpt>
      <trkpt lat="42.91909" lon="0.58915">
        <ele>1527</ele>
        <time>2019-02-03T12:35:07.000Z</time>
      </trkpt>
      <trkpt lat="42.91909" lon="0.58913">
        <ele>1527</ele>
        <time>2019-02-03T12:35:08.000Z</time>
      </trkpt>
      <trkpt lat="42.91909" lon="0.58912">
        <ele>1527</ele>
        <time>2019-02-03T12:35:09.000Z</time>
      </trkpt>
      <trkpt lat="42.91908" lon="0.58911">
        <ele>1526</ele>
        <time>2019-02-03T12:35:10.000Z</time>
      </trkpt>
      <trkpt lat="42.91908" lon="0.5891">
        <ele>1526</ele>
        <time>2019-02-03T12:35:11.000Z</time>
      </trkpt>
      <trkpt lat="42.91908" lon="0.58909">
        <ele>1526</ele>
        <time>2019-02-03T12:35:12.000Z</time>
      </trkpt>
      <trkpt lat="42.91908" lon="0.58908">
        <ele>1526</ele>
        <time>2019-02-03T12:35:13.000Z</time>
      </trkpt>
      <trkpt lat="42.91908" lon="0.58907">
        <ele>1526</ele>
        <time>2019-02-03T12:35:14.000Z</time>
      </trkpt>
      <trkpt lat="42.91908" lon="0.58906">
        <ele>1526</ele>
        <time>2019-02-03T12:35:15.000Z</time>
      </trkpt>
      <trkpt lat="42.91908" lon="0.58905">
        <ele>1525.5</ele>
        <time>2019-02-03T12:35:16.000Z</time>
      </trkpt>
      <trkpt lat="42.91907" lon="0.58903">
        <ele>1525</ele>
        <time>2019-02-03T12:35:17.000Z</time>
      </trkpt>
      <trkpt lat="42.91907" lon="0.58902">
        <ele>1525</ele>
        <time>2019-02-03T12:35:18.000Z</time>
      </trkpt>
      <trkpt lat="42.91907" lon="0.58901">
        <ele>1525</ele>
        <time>2019-02-03T12:35:19.000Z</time>
      </trkpt>
      <trkpt lat="42.91907" lon="0.58899">
        <ele>1524</ele>
        <time>2019-02-03T12:35:20.000Z</time>
      </trkpt>
      <trkpt lat="42.91906" lon="0.58898">
        <ele>1524</ele>
        <time>2019-02-03T12:35:21.000Z</time>
      </trkpt>
      <trkpt lat="42.91906" lon="0.58897">
        <ele>1524</ele>
        <time>2019-02-03T12:35:22.000Z</time>
      </trkpt>
      <trkpt lat="42.91906" lon="0.58895">
        <ele>1524</ele>
        <time>2019-02-03T12:35:23.000Z</time>
      </trkpt>
      <trkpt lat="42.91906" lon="0.58894">
        <ele>1523.5</ele>
        <time>2019-02-03T12:35:24.000Z</time>
      </trkpt>
      <trkpt lat="42.91906" lon="0.58893">
        <ele>1523</ele>
        <time>2019-02-03T12:35:25.000Z</time>
      </trkpt>
      <trkpt lat="42.91905" lon="0.58891">
        <ele>1523</ele>
        <time>2019-02-03T12:35:26.000Z</time>
      </trkpt>
      <trkpt lat="42.91905" lon="0.5889">
        <ele>1523</ele>
        <time>2019-02-03T12:35:27.000Z</time>
      </trkpt>
      <trkpt lat="42.91905" lon="0.58889">
        <ele>1523</ele>
        <time>2019-02-03T12:35:28.000Z</time>
      </trkpt>
      <trkpt lat="42.91905" lon="0.58887">
        <ele>1522.5</ele>
        <time>2019-02-03T12:35:29.000Z</time>
      </trkpt>
      <trkpt lat="42.91904" lon="0.58886">
        <ele>1522</ele>
        <time>2019-02-03T12:35:30.000Z</time>
      </trkpt>
      <trkpt lat="42.91904" lon="0.58885">
        <ele>1522</ele>
        <time>2019-02-03T12:35:31.000Z</time>
      </trkpt>
      <trkpt lat="42.91904" lon="0.58883">
        <ele>1522</ele>
        <time>2019-02-03T12:35:32.000Z</time>
      </trkpt>
      <trkpt lat="42.91904" lon="0.58882">
        <ele>1522</ele>
        <time>2019-02-03T12:35:33.000Z</time>
      </trkpt>
      <trkpt lat="42.91904" lon="0.58881">
        <ele>1522</ele>
        <time>2019-02-03T12:35:34.000Z</time>
      </trkpt>
      <trkpt lat="42.91904" lon="0.5888">
        <ele>1521.7</ele>
        <time>2019-02-03T12:35:35.000Z</time>
      </trkpt>
      <trkpt lat="42.91904" lon="0.58879">
        <ele>1521.3</ele>
        <time>2019-02-03T12:35:36.000Z</time>
      </trkpt>
      <trkpt lat="42.91904" lon="0.58878">
        <ele>1521</ele>
        <time>2019-02-03T12:35:37.000Z</time>
      </trkpt>
      <trkpt lat="42.91903" lon="0.58877">
        <ele>1520.5</ele>
        <time>2019-02-03T12:35:38.000Z</time>
      </trkpt>
      <trkpt lat="42.91903" lon="0.58877">
        <ele>1520</ele>
        <time>2019-02-03T12:35:39.000Z</time>
      </trkpt>
      <trkpt lat="42.91903" lon="0.58876">
        <ele>1520</ele>
        <time>2019-02-03T12:35:40.000Z</time>
      </trkpt>
      <trkpt lat="42.91903" lon="0.58876">
        <ele>1520</ele>
        <time>2019-02-03T12:35:41.000Z</time>
      </trkpt>
      <trkpt lat="42.91903" lon="0.58876">
        <ele>1520</ele>
        <time>2019-02-03T12:35:42.000Z</time>
      </trkpt>
      <trkpt lat="42.91903" lon="0.58876">
        <ele>1520</ele>
        <time>2019-02-03T12:35:43.000Z</time>
      </trkpt>
      <trkpt lat="42.91903" lon="0.58876">
        <ele>1520</ele>
        <time>2019-02-03T12:35:44.000Z</time>
      </trkpt>
      <trkpt lat="42.91903" lon="0.58876">
        <ele>1520</ele>
        <time>2019-02-03T12:35:45.000Z</time>
      </trkpt>
      <trkpt lat="42.91903" lon="0.58876">
        <ele>1519</ele>
        <time>2019-02-03T12:35:46.000Z</time>
      </trkpt>
      <trkpt lat="42.91903" lon="0.58876">
        <ele>1519</ele>
        <time>2019-02-03T12:35:47.000Z</time>
      </trkpt>
      <trkpt lat="42.91903" lon="0.58875">
        <ele>1519</ele>
        <time>2019-02-03T12:35:48.000Z</time>
      </trkpt>
      <trkpt lat="42.91903" lon="0.58874">
        <ele>1519</ele>
        <time>2019-02-03T12:35:49.000Z</time>
      </trkpt>
      <trkpt lat="42.91903" lon="0.58873">
        <ele>1519</ele>
        <time>2019-02-03T12:35:50.000Z</time>
      </trkpt>
      <trkpt lat="42.91902" lon="0.58872">
        <ele>1519</ele>
        <time>2019-02-03T12:35:51.000Z</time>
      </trkpt>
      <trkpt lat="42.91902" lon="0.58871">
        <ele>1519</ele>
        <time>2019-02-03T12:35:52.000Z</time>
      </trkpt>
      <trkpt lat="42.91902" lon="0.5887">
        <ele>1518.7</ele>
        <time>2019-02-03T12:35:53.000Z</time>
      </trkpt>
      <trkpt lat="42.91902" lon="0.58869">
        <ele>1518.3</ele>
        <time>2019-02-03T12:35:54.000Z</time>
      </trkpt>
      <trkpt lat="42.91902" lon="0.58868">
        <ele>1518</ele>
        <time>2019-02-03T12:35:55.000Z</time>
      </trkpt>
      <trkpt lat="42.91902" lon="0.58867">
        <ele>1518</ele>
        <time>2019-02-03T12:35:56.000Z</time>
      </trkpt>
      <trkpt lat="42.91902" lon="0.58866">
        <ele>1518</ele>
        <time>2019-02-03T12:35:57.000Z</time>
      </trkpt>
      <trkpt lat="42.91902" lon="0.58866">
        <ele>1518</ele>
        <time>2019-02-03T12:35:58.000Z</time>
      </trkpt>
      <trkpt lat="42.91902" lon="0.58865">
        <ele>1518</ele>
        <time>2019-02-03T12:35:59.000Z</time>
      </trkpt>
      <trkpt lat="42.91902" lon="0.58865">
        <ele>1517</ele>
        <time>2019-02-03T12:36:00.000Z</time>
      </trkpt>
      <trkpt lat="42.91902" lon="0.58864">
        <ele>1517</ele>
        <time>2019-02-03T12:36:01.000Z</time>
      </trkpt>
      <trkpt lat="42.91902" lon="0.58863">
        <ele>1517</ele>
        <time>2019-02-03T12:36:02.000Z</time>
      </trkpt>
      <trkpt lat="42.91902" lon="0.58863">
        <ele>1516.7</ele>
        <time>2019-02-03T12:36:03.000Z</time>
      </trkpt>
      <trkpt lat="42.91902" lon="0.58862">
        <ele>1516.3</ele>
        <time>2019-02-03T12:36:04.000Z</time>
      </trkpt>
      <trkpt lat="42.91902" lon="0.58862">
        <ele>1516</ele>
        <time>2019-02-03T12:36:05.000Z</time>
      </trkpt>
      <trkpt lat="42.91902" lon="0.58861">
        <ele>1516</ele>
        <time>2019-02-03T12:36:06.000Z</time>
      </trkpt>
      <trkpt lat="42.91902" lon="0.5886">
        <ele>1515.7</ele>
        <time>2019-02-03T12:36:07.000Z</time>
      </trkpt>
      <trkpt lat="42.91902" lon="0.5886">
        <ele>1515.3</ele>
        <time>2019-02-03T12:36:08.000Z</time>
      </trkpt>
      <trkpt lat="42.91902" lon="0.58859">
        <ele>1515</ele>
        <time>2019-02-03T12:36:09.000Z</time>
      </trkpt>
      <trkpt lat="42.91901" lon="0.58858">
        <ele>1515</ele>
        <time>2019-02-03T12:36:10.000Z</time>
      </trkpt>
      <trkpt lat="42.91901" lon="0.58857">
        <ele>1515</ele>
        <time>2019-02-03T12:36:11.000Z</time>
      </trkpt>
      <trkpt lat="42.91901" lon="0.58856">
        <ele>1514.5</ele>
        <time>2019-02-03T12:36:12.000Z</time>
      </trkpt>
      <trkpt lat="42.91901" lon="0.58855">
        <ele>1514</ele>
        <time>2019-02-03T12:36:13.000Z</time>
      </trkpt>
      <trkpt lat="42.91901" lon="0.58854">
        <ele>1514</ele>
        <time>2019-02-03T12:36:14.000Z</time>
      </trkpt>
      <trkpt lat="42.91901" lon="0.58854">
        <ele>1513.7</ele>
        <time>2019-02-03T12:36:15.000Z</time>
      </trkpt>
      <trkpt lat="42.91901" lon="0.58853">
        <ele>1513.3</ele>
        <time>2019-02-03T12:36:16.000Z</time>
      </trkpt>
      <trkpt lat="42.91901" lon="0.58852">
        <ele>1513</ele>
        <time>2019-02-03T12:36:17.000Z</time>
      </trkpt>
      <trkpt lat="42.91901" lon="0.58852">
        <ele>1513</ele>
        <time>2019-02-03T12:36:18.000Z</time>
      </trkpt>
      <trkpt lat="42.91901" lon="0.58851">
        <ele>1513</ele>
        <time>2019-02-03T12:36:19.000Z</time>
      </trkpt>
      <trkpt lat="42.91901" lon="0.58851">
        <ele>1513</ele>
        <time>2019-02-03T12:36:20.000Z</time>
      </trkpt>
      <trkpt lat="42.91901" lon="0.58851">
        <ele>1513</ele>
        <time>2019-02-03T12:36:21.000Z</time>
      </trkpt>
      <trkpt lat="42.91901" lon="0.5885">
        <ele>1513</ele>
        <time>2019-02-03T12:36:22.000Z</time>
      </trkpt>
      <trkpt lat="42.91901" lon="0.5885">
        <ele>1513</ele>
        <time>2019-02-03T12:36:23.000Z</time>
      </trkpt>
      <trkpt lat="42.91901" lon="0.5885">
        <ele>1513</ele>
        <time>2019-02-03T12:36:24.000Z</time>
      </trkpt>
      <trkpt lat="42.91901" lon="0.5885">
        <ele>1513</ele>
        <time>2019-02-03T12:36:25.000Z</time>
      </trkpt>
      <trkpt lat="42.91901" lon="0.5885">
        <ele>1513</ele>
        <time>2019-02-03T12:36:26.000Z</time>
      </trkpt>
      <trkpt lat="42.919" lon="0.5885">
        <ele>1513</ele>
        <time>2019-02-03T12:36:27.000Z</time>
      </trkpt>
      <trkpt lat="42.919" lon="0.5885">
        <ele>1513</ele>
        <time>2019-02-03T12:36:28.000Z</time>
      </trkpt>
      <trkpt lat="42.919" lon="0.5885">
        <ele>1513</ele>
        <time>2019-02-03T12:36:29.000Z</time>
      </trkpt>
      <trkpt lat="42.919" lon="0.5885">
        <ele>1513</ele>
        <time>2019-02-03T12:36:30.000Z</time>
      </trkpt>
      <trkpt lat="42.919" lon="0.58849">
        <ele>1513</ele>
        <time>2019-02-03T12:36:31.000Z</time>
      </trkpt>
      <trkpt lat="42.919" lon="0.58849">
        <ele>1512</ele>
        <time>2019-02-03T12:36:32.000Z</time>
      </trkpt>
      <trkpt lat="42.919" lon="0.58848">
        <ele>1512</ele>
        <time>2019-02-03T12:36:33.000Z</time>
      </trkpt>
      <trkpt lat="42.919" lon="0.58847">
        <ele>1512</ele>
        <time>2019-02-03T12:36:34.000Z</time>
      </trkpt>
      <trkpt lat="42.919" lon="0.58847">
        <ele>1512</ele>
        <time>2019-02-03T12:36:35.000Z</time>
      </trkpt>
      <trkpt lat="42.919" lon="0.58847">
        <ele>1513</ele>
        <time>2019-02-03T12:36:36.000Z</time>
      </trkpt>
      <trkpt lat="42.919" lon="0.58847">
        <ele>1513</ele>
        <time>2019-02-03T12:36:37.000Z</time>
      </trkpt>
      <trkpt lat="42.919" lon="0.58847">
        <ele>1513</ele>
        <time>2019-02-03T12:36:38.000Z</time>
      </trkpt>
      <trkpt lat="42.919" lon="0.58847">
        <ele>1513</ele>
        <time>2019-02-03T12:36:39.000Z</time>
      </trkpt>
      <trkpt lat="42.919" lon="0.58847">
        <ele>1513</ele>
        <time>2019-02-03T12:36:40.000Z</time>
      </trkpt>
      <trkpt lat="42.919" lon="0.58847">
        <ele>1513</ele>
        <time>2019-02-03T12:36:41.000Z</time>
      </trkpt>
      <trkpt lat="42.919" lon="0.58847">
        <ele>1513</ele>
        <time>2019-02-03T12:36:42.000Z</time>
      </trkpt>
      <trkpt lat="42.919" lon="0.58847">
        <ele>1513</ele>
        <time>2019-02-03T12:36:43.000Z</time>
      </trkpt>
      <trkpt lat="42.919" lon="0.58847">
        <ele>1513</ele>
        <time>2019-02-03T12:36:44.000Z</time>
      </trkpt>
      <trkpt lat="42.919" lon="0.58847">
        <ele>1513</ele>
        <time>2019-02-03T12:36:45.000Z</time>
      </trkpt>
      <trkpt lat="42.919" lon="0.58847">
        <ele>1513</ele>
        <time>2019-02-03T12:36:46.000Z</time>
      </trkpt>
      <trkpt lat="42.919" lon="0.58847">
        <ele>1513</ele>
        <time>2019-02-03T12:36:47.000Z</time>
      </trkpt>
      <trkpt lat="42.919" lon="0.58847">
        <ele>1513</ele>
        <time>2019-02-03T12:36:48.000Z</time>
      </trkpt>
      <trkpt lat="42.919" lon="0.58847">
        <ele>1513</ele>
        <time>2019-02-03T12:36:49.000Z</time>
      </trkpt>
      <trkpt lat="42.919" lon="0.58847">
        <ele>1513</ele>
        <time>2019-02-03T12:36:50.000Z</time>
      </trkpt>
      <trkpt lat="42.919" lon="0.58847">
        <ele>1513</ele>
        <time>2019-02-03T12:36:51.000Z</time>
      </trkpt>
      <trkpt lat="42.919" lon="0.58847">
        <ele>1513</ele>
        <time>2019-02-03T12:36:52.000Z</time>
      </trkpt>
      <trkpt lat="42.919" lon="0.58847">
        <ele>1513</ele>
        <time>2019-02-03T12:36:53.000Z</time>
      </trkpt>
      <trkpt lat="42.919" lon="0.58847">
        <ele>1513</ele>
        <time>2019-02-03T12:36:54.000Z</time>
      </trkpt>
      <trkpt lat="42.919" lon="0.58847">
        <ele>1513</ele>
        <time>2019-02-03T12:36:55.000Z</time>
      </trkpt>
      <trkpt lat="42.919" lon="0.58847">
        <ele>1513</ele>
        <time>2019-02-03T12:36:56.000Z</time>
      </trkpt>
      <trkpt lat="42.919" lon="0.58847">
        <ele>1513</ele>
        <time>2019-02-03T12:36:57.000Z</time>
      </trkpt>
      <trkpt lat="42.919" lon="0.58847">
        <ele>1513</ele>
        <time>2019-02-03T12:36:58.000Z</time>
      </trkpt>
      <trkpt lat="42.919" lon="0.58847">
        <ele>1513</ele>
        <time>2019-02-03T12:36:59.000Z</time>
      </trkpt>
      <trkpt lat="42.919" lon="0.58847">
        <ele>1513</ele>
        <time>2019-02-03T12:37:00.000Z</time>
      </trkpt>
      <trkpt lat="42.919" lon="0.58847">
        <ele>1513</ele>
        <time>2019-02-03T12:37:01.000Z</time>
      </trkpt>
      <trkpt lat="42.919" lon="0.58847">
        <ele>1513</ele>
        <time>2019-02-03T12:37:02.000Z</time>
      </trkpt>
      <trkpt lat="42.919" lon="0.58847">
        <ele>1513</ele>
        <time>2019-02-03T12:37:03.000Z</time>
      </trkpt>
      <trkpt lat="42.919" lon="0.58847">
        <ele>1513</ele>
        <time>2019-02-03T12:37:04.000Z</time>
      </trkpt>
      <trkpt lat="42.919" lon="0.58847">
        <ele>1513</ele>
        <time>2019-02-03T12:37:05.000Z</time>
      </trkpt>
      <trkpt lat="42.919" lon="0.58847">
        <ele>1513</ele>
        <time>2019-02-03T12:37:06.000Z</time>
      </trkpt>
      <trkpt lat="42.919" lon="0.58847">
        <ele>1513</ele>
        <time>2019-02-03T12:37:07.000Z</time>
      </trkpt>
      <trkpt lat="42.919" lon="0.58847">
        <ele>1513</ele>
        <time>2019-02-03T12:37:08.000Z</time>
      </trkpt>
      <trkpt lat="42.919" lon="0.58847">
        <ele>1513</ele>
        <time>2019-02-03T12:37:09.000Z</time>
      </trkpt>
      <trkpt lat="42.919" lon="0.58847">
        <ele>1513</ele>
        <time>2019-02-03T12:37:10.000Z</time>
      </trkpt>
      <trkpt lat="42.919" lon="0.58847">
        <ele>1513</ele>
        <time>2019-02-03T12:37:11.000Z</time>
      </trkpt>
      <trkpt lat="42.919" lon="0.58846">
        <ele>1513</ele>
        <time>2019-02-03T12:37:12.000Z</time>
      </trkpt>
      <trkpt lat="42.919" lon="0.58846">
        <ele>1513</ele>
        <time>2019-02-03T12:37:13.000Z</time>
      </trkpt>
      <trkpt lat="42.919" lon="0.58846">
        <ele>1513</ele>
        <time>2019-02-03T12:37:14.000Z</time>
      </trkpt>
      <trkpt lat="42.919" lon="0.58846">
        <ele>1513</ele>
        <time>2019-02-03T12:37:15.000Z</time>
      </trkpt>
      <trkpt lat="42.919" lon="0.58845">
        <ele>1513</ele>
        <time>2019-02-03T12:37:16.000Z</time>
      </trkpt>
      <trkpt lat="42.919" lon="0.58845">
        <ele>1513</ele>
        <time>2019-02-03T12:37:17.000Z</time>
      </trkpt>
      <trkpt lat="42.919" lon="0.58844">
        <ele>1513</ele>
        <time>2019-02-03T12:37:18.000Z</time>
      </trkpt>
      <trkpt lat="42.91899" lon="0.58844">
        <ele>1513</ele>
        <time>2019-02-03T12:37:19.000Z</time>
      </trkpt>
      <trkpt lat="42.91899" lon="0.58844">
        <ele>1513</ele>
        <time>2019-02-03T12:37:20.000Z</time>
      </trkpt>
      <trkpt lat="42.919" lon="0.58843">
        <ele>1513</ele>
        <time>2019-02-03T12:37:21.000Z</time>
      </trkpt>
      <trkpt lat="42.919" lon="0.58843">
        <ele>1513</ele>
        <time>2019-02-03T12:37:22.000Z</time>
      </trkpt>
      <trkpt lat="42.919" lon="0.58842">
        <ele>1513</ele>
        <time>2019-02-03T12:37:23.000Z</time>
      </trkpt>
      <trkpt lat="42.919" lon="0.58842">
        <ele>1513</ele>
        <time>2019-02-03T12:37:24.000Z</time>
      </trkpt>
      <trkpt lat="42.919" lon="0.58841">
        <ele>1512.7</ele>
        <time>2019-02-03T12:37:25.000Z</time>
      </trkpt>
      <trkpt lat="42.91901" lon="0.58841">
        <ele>1512.3</ele>
        <time>2019-02-03T12:37:26.000Z</time>
      </trkpt>
      <trkpt lat="42.91901" lon="0.58841">
        <ele>1512</ele>
        <time>2019-02-03T12:37:27.000Z</time>
      </trkpt>
      <trkpt lat="42.91901" lon="0.5884">
        <ele>1512</ele>
        <time>2019-02-03T12:37:28.000Z</time>
      </trkpt>
      <trkpt lat="42.91901" lon="0.5884">
        <ele>1512</ele>
        <time>2019-02-03T12:37:29.000Z</time>
      </trkpt>
      <trkpt lat="42.91901" lon="0.5884">
        <ele>1512</ele>
        <time>2019-02-03T12:37:30.000Z</time>
      </trkpt>
      <trkpt lat="42.91901" lon="0.5884">
        <ele>1512</ele>
        <time>2019-02-03T12:37:31.000Z</time>
      </trkpt>
      <trkpt lat="42.91901" lon="0.5884">
        <ele>1512</ele>
        <time>2019-02-03T12:37:32.000Z</time>
      </trkpt>
      <trkpt lat="42.91901" lon="0.5884">
        <ele>1512</ele>
        <time>2019-02-03T12:37:33.000Z</time>
      </trkpt>
      <trkpt lat="42.91901" lon="0.5884">
        <ele>1512</ele>
        <time>2019-02-03T12:37:34.000Z</time>
      </trkpt>
      <trkpt lat="42.91901" lon="0.5884">
        <ele>1512</ele>
        <time>2019-02-03T12:37:35.000Z</time>
      </trkpt>
      <trkpt lat="42.91901" lon="0.5884">
        <ele>1512</ele>
        <time>2019-02-03T12:37:36.000Z</time>
      </trkpt>
      <trkpt lat="42.919" lon="0.5884">
        <ele>1512</ele>
        <time>2019-02-03T12:37:37.000Z</time>
      </trkpt>
      <trkpt lat="42.919" lon="0.5884">
        <ele>1512</ele>
        <time>2019-02-03T12:37:38.000Z</time>
      </trkpt>
      <trkpt lat="42.919" lon="0.58839">
        <ele>1512</ele>
        <time>2019-02-03T12:37:39.000Z</time>
      </trkpt>
      <trkpt lat="42.919" lon="0.58839">
        <ele>1512</ele>
        <time>2019-02-03T12:37:40.000Z</time>
      </trkpt>
      <trkpt lat="42.919" lon="0.58839">
        <ele>1512</ele>
        <time>2019-02-03T12:37:41.000Z</time>
      </trkpt>
      <trkpt lat="42.919" lon="0.58838">
        <ele>1512</ele>
        <time>2019-02-03T12:37:42.000Z</time>
      </trkpt>
      <trkpt lat="42.919" lon="0.58838">
        <ele>1512</ele>
        <time>2019-02-03T12:37:43.000Z</time>
      </trkpt>
      <trkpt lat="42.919" lon="0.58837">
        <ele>1512</ele>
        <time>2019-02-03T12:37:44.000Z</time>
      </trkpt>
      <trkpt lat="42.91899" lon="0.58837">
        <ele>1512</ele>
        <time>2019-02-03T12:37:45.000Z</time>
      </trkpt>
      <trkpt lat="42.91899" lon="0.58836">
        <ele>1512</ele>
        <time>2019-02-03T12:37:46.000Z</time>
      </trkpt>
      <trkpt lat="42.91899" lon="0.58836">
        <ele>1512</ele>
        <time>2019-02-03T12:37:47.000Z</time>
      </trkpt>
      <trkpt lat="42.91899" lon="0.58835">
        <ele>1512</ele>
        <time>2019-02-03T12:37:48.000Z</time>
      </trkpt>
      <trkpt lat="42.91899" lon="0.58835">
        <ele>1512</ele>
        <time>2019-02-03T12:37:49.000Z</time>
      </trkpt>
      <trkpt lat="42.91899" lon="0.58835">
        <ele>1512</ele>
        <time>2019-02-03T12:37:50.000Z</time>
      </trkpt>
      <trkpt lat="42.91899" lon="0.58835">
        <ele>1512</ele>
        <time>2019-02-03T12:37:51.000Z</time>
      </trkpt>
      <trkpt lat="42.91899" lon="0.58834">
        <ele>1512</ele>
        <time>2019-02-03T12:37:52.000Z</time>
      </trkpt>
      <trkpt lat="42.91899" lon="0.58834">
        <ele>1512</ele>
        <time>2019-02-03T12:37:53.000Z</time>
      </trkpt>
      <trkpt lat="42.91899" lon="0.58834">
        <ele>1512</ele>
        <time>2019-02-03T12:37:54.000Z</time>
      </trkpt>
      <trkpt lat="42.91899" lon="0.58834">
        <ele>1512</ele>
        <time>2019-02-03T12:37:55.000Z</time>
      </trkpt>
      <trkpt lat="42.91899" lon="0.58834">
        <ele>1511.5</ele>
        <time>2019-02-03T12:37:56.000Z</time>
      </trkpt>
      <trkpt lat="42.91899" lon="0.58834">
        <ele>1511</ele>
        <time>2019-02-03T12:37:57.000Z</time>
      </trkpt>
      <trkpt lat="42.91899" lon="0.58834">
        <ele>1511</ele>
        <time>2019-02-03T12:37:58.000Z</time>
      </trkpt>
      <trkpt lat="42.91899" lon="0.58833">
        <ele>1511</ele>
        <time>2019-02-03T12:37:59.000Z</time>
      </trkpt>
      <trkpt lat="42.91898" lon="0.58833">
        <ele>1511</ele>
        <time>2019-02-03T12:38:00.000Z</time>
      </trkpt>
      <trkpt lat="42.91898" lon="0.58833">
        <ele>1511</ele>
        <time>2019-02-03T12:38:01.000Z</time>
      </trkpt>
      <trkpt lat="42.91898" lon="0.58833">
        <ele>1511</ele>
        <time>2019-02-03T12:38:02.000Z</time>
      </trkpt>
      <trkpt lat="42.91898" lon="0.58833">
        <ele>1511</ele>
        <time>2019-02-03T12:38:03.000Z</time>
      </trkpt>
      <trkpt lat="42.91898" lon="0.58833">
        <ele>1511</ele>
        <time>2019-02-03T12:38:04.000Z</time>
      </trkpt>
      <trkpt lat="42.91898" lon="0.58833">
        <ele>1511</ele>
        <time>2019-02-03T12:38:05.000Z</time>
      </trkpt>
      <trkpt lat="42.91898" lon="0.58833">
        <ele>1511</ele>
        <time>2019-02-03T12:38:06.000Z</time>
      </trkpt>
      <trkpt lat="42.91898" lon="0.58833">
        <ele>1511</ele>
        <time>2019-02-03T12:38:07.000Z</time>
      </trkpt>
      <trkpt lat="42.91898" lon="0.58833">
        <ele>1511</ele>
        <time>2019-02-03T12:38:08.000Z</time>
      </trkpt>
      <trkpt lat="42.91898" lon="0.58833">
        <ele>1511</ele>
        <time>2019-02-03T12:38:09.000Z</time>
      </trkpt>
      <trkpt lat="42.91898" lon="0.58832">
        <ele>1511</ele>
        <time>2019-02-03T12:38:10.000Z</time>
      </trkpt>
      <trkpt lat="42.91898" lon="0.58832">
        <ele>1511</ele>
        <time>2019-02-03T12:38:11.000Z</time>
      </trkpt>
      <trkpt lat="42.91898" lon="0.58832">
        <ele>1511</ele>
        <time>2019-02-03T12:38:12.000Z</time>
      </trkpt>
      <trkpt lat="42.91898" lon="0.58832">
        <ele>1511</ele>
        <time>2019-02-03T12:38:13.000Z</time>
      </trkpt>
      <trkpt lat="42.91898" lon="0.58832">
        <ele>1511</ele>
        <time>2019-02-03T12:38:14.000Z</time>
      </trkpt>
      <trkpt lat="42.91898" lon="0.58832">
        <ele>1511</ele>
        <time>2019-02-03T12:38:15.000Z</time>
      </trkpt>
      <trkpt lat="42.91898" lon="0.58832">
        <ele>1511</ele>
        <time>2019-02-03T12:38:16.000Z</time>
      </trkpt>
      <trkpt lat="42.91898" lon="0.58832">
        <ele>1511</ele>
        <time>2019-02-03T12:38:17.000Z</time>
      </trkpt>
      <trkpt lat="42.91898" lon="0.58832">
        <ele>1511</ele>
        <time>2019-02-03T12:38:18.000Z</time>
      </trkpt>
      <trkpt lat="42.91898" lon="0.58832">
        <ele>1511</ele>
        <time>2019-02-03T12:38:19.000Z</time>
      </trkpt>
      <trkpt lat="42.91898" lon="0.58832">
        <ele>1511</ele>
        <time>2019-02-03T12:38:20.000Z</time>
      </trkpt>
      <trkpt lat="42.91899" lon="0.58832">
        <ele>1511</ele>
        <time>2019-02-03T12:38:21.000Z</time>
      </trkpt>
      <trkpt lat="42.91899" lon="0.58832">
        <ele>1511</ele>
        <time>2019-02-03T12:38:22.000Z</time>
      </trkpt>
      <trkpt lat="42.91899" lon="0.58832">
        <ele>1511</ele>
        <time>2019-02-03T12:38:23.000Z</time>
      </trkpt>
      <trkpt lat="42.91899" lon="0.58832">
        <ele>1511</ele>
        <time>2019-02-03T12:38:24.000Z</time>
      </trkpt>
      <trkpt lat="42.91899" lon="0.58832">
        <ele>1511</ele>
        <time>2019-02-03T12:38:25.000Z</time>
      </trkpt>
      <trkpt lat="42.91899" lon="0.58832">
        <ele>1511</ele>
        <time>2019-02-03T12:38:26.000Z</time>
      </trkpt>
      <trkpt lat="42.91899" lon="0.58832">
        <ele>1511</ele>
        <time>2019-02-03T12:38:27.000Z</time>
      </trkpt>
      <trkpt lat="42.91899" lon="0.58832">
        <ele>1511</ele>
        <time>2019-02-03T12:38:28.000Z</time>
      </trkpt>
      <trkpt lat="42.91899" lon="0.58832">
        <ele>1511</ele>
        <time>2019-02-03T12:38:29.000Z</time>
      </trkpt>
      <trkpt lat="42.91899" lon="0.58832">
        <ele>1511</ele>
        <time>2019-02-03T12:38:30.000Z</time>
      </trkpt>
      <trkpt lat="42.91899" lon="0.58832">
        <ele>1511</ele>
        <time>2019-02-03T12:38:31.000Z</time>
      </trkpt>
      <trkpt lat="42.91899" lon="0.58832">
        <ele>1511</ele>
        <time>2019-02-03T12:38:32.000Z</time>
      </trkpt>
      <trkpt lat="42.91899" lon="0.58832">
        <ele>1511</ele>
        <time>2019-02-03T12:38:33.000Z</time>
      </trkpt>
      <trkpt lat="42.91899" lon="0.58832">
        <ele>1511</ele>
        <time>2019-02-03T12:38:34.000Z</time>
      </trkpt>
      <trkpt lat="42.91899" lon="0.58832">
        <ele>1511</ele>
        <time>2019-02-03T12:38:35.000Z</time>
      </trkpt>
      <trkpt lat="42.91899" lon="0.58832">
        <ele>1511</ele>
        <time>2019-02-03T12:38:36.000Z</time>
      </trkpt>
      <trkpt lat="42.91899" lon="0.58832">
        <ele>1511</ele>
        <time>2019-02-03T12:38:37.000Z</time>
      </trkpt>
      <trkpt lat="42.91899" lon="0.58832">
        <ele>1511.5</ele>
        <time>2019-02-03T12:38:38.000Z</time>
      </trkpt>
      <trkpt lat="42.91899" lon="0.58832">
        <ele>1512</ele>
        <time>2019-02-03T12:38:39.000Z</time>
      </trkpt>
      <trkpt lat="42.91899" lon="0.58832">
        <ele>1512</ele>
        <time>2019-02-03T12:38:40.000Z</time>
      </trkpt>
      <trkpt lat="42.91899" lon="0.58832">
        <ele>1512</ele>
        <time>2019-02-03T12:38:41.000Z</time>
      </trkpt>
      <trkpt lat="42.91899" lon="0.58832">
        <ele>1512</ele>
        <time>2019-02-03T12:38:42.000Z</time>
      </trkpt>
      <trkpt lat="42.91899" lon="0.58832">
        <ele>1512</ele>
        <time>2019-02-03T12:38:43.000Z</time>
      </trkpt>
      <trkpt lat="42.91899" lon="0.58832">
        <ele>1512</ele>
        <time>2019-02-03T12:38:44.000Z</time>
      </trkpt>
      <trkpt lat="42.91899" lon="0.58833">
        <ele>1512</ele>
        <time>2019-02-03T12:38:45.000Z</time>
      </trkpt>
      <trkpt lat="42.919" lon="0.58833">
        <ele>1512</ele>
        <time>2019-02-03T12:38:46.000Z</time>
      </trkpt>
      <trkpt lat="42.919" lon="0.58833">
        <ele>1512</ele>
        <time>2019-02-03T12:38:47.000Z</time>
      </trkpt>
      <trkpt lat="42.919" lon="0.58833">
        <ele>1512</ele>
        <time>2019-02-03T12:38:48.000Z</time>
      </trkpt>
      <trkpt lat="42.919" lon="0.58833">
        <ele>1512</ele>
        <time>2019-02-03T12:38:49.000Z</time>
      </trkpt>
      <trkpt lat="42.919" lon="0.58833">
        <ele>1512</ele>
        <time>2019-02-03T12:38:50.000Z</time>
      </trkpt>
      <trkpt lat="42.919" lon="0.58833">
        <ele>1512</ele>
        <time>2019-02-03T12:38:51.000Z</time>
      </trkpt>
      <trkpt lat="42.919" lon="0.58833">
        <ele>1512</ele>
        <time>2019-02-03T12:38:52.000Z</time>
      </trkpt>
      <trkpt lat="42.91901" lon="0.58833">
        <ele>1512</ele>
        <time>2019-02-03T12:38:53.000Z</time>
      </trkpt>
      <trkpt lat="42.91901" lon="0.58833">
        <ele>1512</ele>
        <time>2019-02-03T12:38:54.000Z</time>
      </trkpt>
      <trkpt lat="42.91901" lon="0.58833">
        <ele>1512</ele>
        <time>2019-02-03T12:38:55.000Z</time>
      </trkpt>
      <trkpt lat="42.91901" lon="0.58833">
        <ele>1512</ele>
        <time>2019-02-03T12:38:56.000Z</time>
      </trkpt>
      <trkpt lat="42.91901" lon="0.58833">
        <ele>1512</ele>
        <time>2019-02-03T12:38:57.000Z</time>
      </trkpt>
      <trkpt lat="42.91901" lon="0.58833">
        <ele>1512</ele>
        <time>2019-02-03T12:38:58.000Z</time>
      </trkpt>
      <trkpt lat="42.91901" lon="0.58833">
        <ele>1511.7</ele>
        <time>2019-02-03T12:38:59.000Z</time>
      </trkpt>
      <trkpt lat="42.91901" lon="0.58833">
        <ele>1511.3</ele>
        <time>2019-02-03T12:39:00.000Z</time>
      </trkpt>
      <trkpt lat="42.91901" lon="0.58833">
        <ele>1511</ele>
        <time>2019-02-03T12:39:01.000Z</time>
      </trkpt>
      <trkpt lat="42.91901" lon="0.58833">
        <ele>1511</ele>
        <time>2019-02-03T12:39:02.000Z</time>
      </trkpt>
      <trkpt lat="42.91901" lon="0.58833">
        <ele>1511</ele>
        <time>2019-02-03T12:39:03.000Z</time>
      </trkpt>
      <trkpt lat="42.919" lon="0.58833">
        <ele>1511</ele>
        <time>2019-02-03T12:39:04.000Z</time>
      </trkpt>
      <trkpt lat="42.919" lon="0.58833">
        <ele>1510.7</ele>
        <time>2019-02-03T12:39:05.000Z</time>
      </trkpt>
      <trkpt lat="42.919" lon="0.58833">
        <ele>1510.3</ele>
        <time>2019-02-03T12:39:06.000Z</time>
      </trkpt>
      <trkpt lat="42.919" lon="0.58833">
        <ele>1510</ele>
        <time>2019-02-03T12:39:07.000Z</time>
      </trkpt>
      <trkpt lat="42.919" lon="0.58833">
        <ele>1510</ele>
        <time>2019-02-03T12:39:08.000Z</time>
      </trkpt>
      <trkpt lat="42.919" lon="0.58833">
        <ele>1510</ele>
        <time>2019-02-03T12:39:09.000Z</time>
      </trkpt>
      <trkpt lat="42.91899" lon="0.58833">
        <ele>1510</ele>
        <time>2019-02-03T12:39:10.000Z</time>
      </trkpt>
      <trkpt lat="42.91899" lon="0.58833">
        <ele>1510</ele>
        <time>2019-02-03T12:39:11.000Z</time>
      </trkpt>
      <trkpt lat="42.91899" lon="0.58833">
        <ele>1510</ele>
        <time>2019-02-03T12:39:12.000Z</time>
      </trkpt>
      <trkpt lat="42.91899" lon="0.58833">
        <ele>1510</ele>
        <time>2019-02-03T12:39:13.000Z</time>
      </trkpt>
      <trkpt lat="42.91899" lon="0.58833">
        <ele>1511</ele>
        <time>2019-02-03T12:39:14.000Z</time>
      </trkpt>
      <trkpt lat="42.91899" lon="0.58833">
        <ele>1511</ele>
        <time>2019-02-03T12:39:15.000Z</time>
      </trkpt>
      <trkpt lat="42.91899" lon="0.58833">
        <ele>1511</ele>
        <time>2019-02-03T12:39:16.000Z</time>
      </trkpt>
      <trkpt lat="42.91899" lon="0.58833">
        <ele>1511</ele>
        <time>2019-02-03T12:39:17.000Z</time>
      </trkpt>
      <trkpt lat="42.91899" lon="0.58833">
        <ele>1511</ele>
        <time>2019-02-03T12:39:18.000Z</time>
      </trkpt>
      <trkpt lat="42.91899" lon="0.58833">
        <ele>1511</ele>
        <time>2019-02-03T12:39:19.000Z</time>
      </trkpt>
      <trkpt lat="42.91899" lon="0.58833">
        <ele>1511</ele>
        <time>2019-02-03T12:39:20.000Z</time>
      </trkpt>
      <trkpt lat="42.91899" lon="0.58833">
        <ele>1511</ele>
        <time>2019-02-03T12:39:21.000Z</time>
      </trkpt>
      <trkpt lat="42.91899" lon="0.58833">
        <ele>1511</ele>
        <time>2019-02-03T12:39:22.000Z</time>
      </trkpt>
      <trkpt lat="42.91898" lon="0.58833">
        <ele>1511</ele>
        <time>2019-02-03T12:39:23.000Z</time>
      </trkpt>
      <trkpt lat="42.91898" lon="0.58833">
        <ele>1511</ele>
        <time>2019-02-03T12:39:24.000Z</time>
      </trkpt>
      <trkpt lat="42.91898" lon="0.58833">
        <ele>1511</ele>
        <time>2019-02-03T12:39:25.000Z</time>
      </trkpt>
      <trkpt lat="42.91898" lon="0.58833">
        <ele>1512</ele>
        <time>2019-02-03T12:39:26.000Z</time>
      </trkpt>
      <trkpt lat="42.91898" lon="0.58833">
        <ele>1511.7</ele>
        <time>2019-02-03T12:39:27.000Z</time>
      </trkpt>
      <trkpt lat="42.91898" lon="0.58833">
        <ele>1511.3</ele>
        <time>2019-02-03T12:39:28.000Z</time>
      </trkpt>
      <trkpt lat="42.91898" lon="0.58833">
        <ele>1511</ele>
        <time>2019-02-03T12:39:29.000Z</time>
      </trkpt>
      <trkpt lat="42.91898" lon="0.58833">
        <ele>1511</ele>
        <time>2019-02-03T12:39:30.000Z</time>
      </trkpt>
      <trkpt lat="42.91898" lon="0.58833">
        <ele>1511</ele>
        <time>2019-02-03T12:39:31.000Z</time>
      </trkpt>
      <trkpt lat="42.91898" lon="0.58833">
        <ele>1511</ele>
        <time>2019-02-03T12:39:32.000Z</time>
      </trkpt>
      <trkpt lat="42.91898" lon="0.58833">
        <ele>1511</ele>
        <time>2019-02-03T12:39:33.000Z</time>
      </trkpt>
      <trkpt lat="42.91898" lon="0.58833">
        <ele>1511</ele>
        <time>2019-02-03T12:39:34.000Z</time>
      </trkpt>
      <trkpt lat="42.91898" lon="0.58833">
        <ele>1511</ele>
        <time>2019-02-03T12:39:35.000Z</time>
      </trkpt>
      <trkpt lat="42.91898" lon="0.58833">
        <ele>1511</ele>
        <time>2019-02-03T12:39:36.000Z</time>
      </trkpt>
      <trkpt lat="42.91898" lon="0.58833">
        <ele>1511</ele>
        <time>2019-02-03T12:39:37.000Z</time>
      </trkpt>
      <trkpt lat="42.91898" lon="0.58833">
        <ele>1512</ele>
        <time>2019-02-03T12:39:38.000Z</time>
      </trkpt>
      <trkpt lat="42.91898" lon="0.58833">
        <ele>1512</ele>
        <time>2019-02-03T12:39:39.000Z</time>
      </trkpt>
      <trkpt lat="42.91898" lon="0.58833">
        <ele>1512</ele>
        <time>2019-02-03T12:39:40.000Z</time>
      </trkpt>
      <trkpt lat="42.91898" lon="0.58833">
        <ele>1512</ele>
        <time>2019-02-03T12:39:41.000Z</time>
      </trkpt>
      <trkpt lat="42.91898" lon="0.58833">
        <ele>1511.5</ele>
        <time>2019-02-03T12:39:42.000Z</time>
      </trkpt>
      <trkpt lat="42.91898" lon="0.58833">
        <ele>1511</ele>
        <time>2019-02-03T12:39:43.000Z</time>
      </trkpt>
      <trkpt lat="42.91898" lon="0.58833">
        <ele>1511</ele>
        <time>2019-02-03T12:39:44.000Z</time>
      </trkpt>
      <trkpt lat="42.91898" lon="0.58833">
        <ele>1511</ele>
        <time>2019-02-03T12:39:45.000Z</time>
      </trkpt>
      <trkpt lat="42.91898" lon="0.58833">
        <ele>1511.5</ele>
        <time>2019-02-03T12:39:46.000Z</time>
      </trkpt>
      <trkpt lat="42.91898" lon="0.58833">
        <ele>1512</ele>
        <time>2019-02-03T12:39:47.000Z</time>
      </trkpt>
      <trkpt lat="42.91898" lon="0.58833">
        <ele>1512</ele>
        <time>2019-02-03T12:39:48.000Z</time>
      </trkpt>
      <trkpt lat="42.91898" lon="0.58833">
        <ele>1512</ele>
        <time>2019-02-03T12:39:49.000Z</time>
      </trkpt>
      <trkpt lat="42.91898" lon="0.58833">
        <ele>1512</ele>
        <time>2019-02-03T12:39:50.000Z</time>
      </trkpt>
      <trkpt lat="42.91898" lon="0.58833">
        <ele>1512</ele>
        <time>2019-02-03T12:39:51.000Z</time>
      </trkpt>
      <trkpt lat="42.91898" lon="0.58833">
        <ele>1512</ele>
        <time>2019-02-03T12:39:52.000Z</time>
      </trkpt>
      <trkpt lat="42.91898" lon="0.58833">
        <ele>1512</ele>
        <time>2019-02-03T12:39:53.000Z</time>
      </trkpt>
      <trkpt lat="42.91898" lon="0.58833">
        <ele>1512</ele>
        <time>2019-02-03T12:39:54.000Z</time>
      </trkpt>
      <trkpt lat="42.91898" lon="0.58833">
        <ele>1512</ele>
        <time>2019-02-03T12:39:55.000Z</time>
      </trkpt>
      <trkpt lat="42.91898" lon="0.58833">
        <ele>1512</ele>
        <time>2019-02-03T12:39:56.000Z</time>
      </trkpt>
      <trkpt lat="42.91898" lon="0.58833">
        <ele>1512</ele>
        <time>2019-02-03T12:39:57.000Z</time>
      </trkpt>
      <trkpt lat="42.91898" lon="0.58833">
        <ele>1512</ele>
        <time>2019-02-03T12:39:58.000Z</time>
      </trkpt>
      <trkpt lat="42.91898" lon="0.58833">
        <ele>1512</ele>
        <time>2019-02-03T12:39:59.000Z</time>
      </trkpt>
      <trkpt lat="42.91898" lon="0.58833">
        <ele>1511.5</ele>
        <time>2019-02-03T12:40:00.000Z</time>
      </trkpt>
      <trkpt lat="42.91898" lon="0.58833">
        <ele>1511</ele>
        <time>2019-02-03T12:40:01.000Z</time>
      </trkpt>
      <trkpt lat="42.91898" lon="0.58833">
        <ele>1511</ele>
        <time>2019-02-03T12:40:02.000Z</time>
      </trkpt>
      <trkpt lat="42.91898" lon="0.58833">
        <ele>1511</ele>
        <time>2019-02-03T12:40:03.000Z</time>
      </trkpt>
      <trkpt lat="42.91898" lon="0.58833">
        <ele>1511</ele>
        <time>2019-02-03T12:40:04.000Z</time>
      </trkpt>
      <trkpt lat="42.91898" lon="0.58833">
        <ele>1511</ele>
        <time>2019-02-03T12:40:05.000Z</time>
      </trkpt>
      <trkpt lat="42.91898" lon="0.58833">
        <ele>1511</ele>
        <time>2019-02-03T12:40:06.000Z</time>
      </trkpt>
      <trkpt lat="42.91898" lon="0.58833">
        <ele>1511</ele>
        <time>2019-02-03T12:40:07.000Z</time>
      </trkpt>
      <trkpt lat="42.91898" lon="0.58833">
        <ele>1511</ele>
        <time>2019-02-03T12:40:08.000Z</time>
      </trkpt>
      <trkpt lat="42.91898" lon="0.58833">
        <ele>1511</ele>
        <time>2019-02-03T12:40:09.000Z</time>
      </trkpt>
      <trkpt lat="42.91898" lon="0.58833">
        <ele>1512</ele>
        <time>2019-02-03T12:40:10.000Z</time>
      </trkpt>
      <trkpt lat="42.91898" lon="0.58833">
        <ele>1512</ele>
        <time>2019-02-03T12:40:11.000Z</time>
      </trkpt>
      <trkpt lat="42.91898" lon="0.58833">
        <ele>1512</ele>
        <time>2019-02-03T12:40:12.000Z</time>
      </trkpt>
      <trkpt lat="42.91898" lon="0.58833">
        <ele>1512</ele>
        <time>2019-02-03T12:40:13.000Z</time>
      </trkpt>
      <trkpt lat="42.91899" lon="0.58833">
        <ele>1512</ele>
        <time>2019-02-03T12:40:14.000Z</time>
      </trkpt>
      <trkpt lat="42.91899" lon="0.58833">
        <ele>1512</ele>
        <time>2019-02-03T12:40:15.000Z</time>
      </trkpt>
      <trkpt lat="42.91899" lon="0.58833">
        <ele>1512</ele>
        <time>2019-02-03T12:40:16.000Z</time>
      </trkpt>
      <trkpt lat="42.91899" lon="0.58833">
        <ele>1512</ele>
        <time>2019-02-03T12:40:17.000Z</time>
      </trkpt>
      <trkpt lat="42.91899" lon="0.58833">
        <ele>1512</ele>
        <time>2019-02-03T12:40:18.000Z</time>
      </trkpt>
      <trkpt lat="42.91899" lon="0.58833">
        <ele>1512</ele>
        <time>2019-02-03T12:40:19.000Z</time>
      </trkpt>
      <trkpt lat="42.91899" lon="0.58833">
        <ele>1511</ele>
        <time>2019-02-03T12:40:20.000Z</time>
      </trkpt>
      <trkpt lat="42.91899" lon="0.58833">
        <ele>1511</ele>
        <time>2019-02-03T12:40:21.000Z</time>
      </trkpt>
      <trkpt lat="42.91899" lon="0.58833">
        <ele>1511</ele>
        <time>2019-02-03T12:40:22.000Z</time>
      </trkpt>
      <trkpt lat="42.91899" lon="0.58833">
        <ele>1511</ele>
        <time>2019-02-03T12:40:23.000Z</time>
      </trkpt>
      <trkpt lat="42.91899" lon="0.58833">
        <ele>1511.5</ele>
        <time>2019-02-03T12:40:24.000Z</time>
      </trkpt>
      <trkpt lat="42.91899" lon="0.58833">
        <ele>1512</ele>
        <time>2019-02-03T12:40:25.000Z</time>
      </trkpt>
      <trkpt lat="42.91899" lon="0.58833">
        <ele>1512</ele>
        <time>2019-02-03T12:40:26.000Z</time>
      </trkpt>
      <trkpt lat="42.91899" lon="0.58833">
        <ele>1512</ele>
        <time>2019-02-03T12:40:27.000Z</time>
      </trkpt>
      <trkpt lat="42.91899" lon="0.58833">
        <ele>1512</ele>
        <time>2019-02-03T12:40:28.000Z</time>
      </trkpt>
      <trkpt lat="42.91899" lon="0.58833">
        <ele>1512</ele>
        <time>2019-02-03T12:40:29.000Z</time>
      </trkpt>
      <trkpt lat="42.91899" lon="0.58833">
        <ele>1511</ele>
        <time>2019-02-03T12:40:30.000Z</time>
      </trkpt>
      <trkpt lat="42.91899" lon="0.58833">
        <ele>1511</ele>
        <time>2019-02-03T12:40:31.000Z</time>
      </trkpt>
      <trkpt lat="42.91899" lon="0.58833">
        <ele>1511</ele>
        <time>2019-02-03T12:40:32.000Z</time>
      </trkpt>
      <trkpt lat="42.91899" lon="0.58833">
        <ele>1511</ele>
        <time>2019-02-03T12:40:33.000Z</time>
      </trkpt>
      <trkpt lat="42.91899" lon="0.58833">
        <ele>1511</ele>
        <time>2019-02-03T12:40:34.000Z</time>
      </trkpt>
      <trkpt lat="42.91899" lon="0.58832">
        <ele>1511</ele>
        <time>2019-02-03T12:40:35.000Z</time>
      </trkpt>
      <trkpt lat="42.919" lon="0.58832">
        <ele>1511</ele>
        <time>2019-02-03T12:40:36.000Z</time>
      </trkpt>
      <trkpt lat="42.919" lon="0.58832">
        <ele>1511</ele>
        <time>2019-02-03T12:40:37.000Z</time>
      </trkpt>
      <trkpt lat="42.919" lon="0.58832">
        <ele>1511</ele>
        <time>2019-02-03T12:40:38.000Z</time>
      </trkpt>
      <trkpt lat="42.919" lon="0.58832">
        <ele>1511</ele>
        <time>2019-02-03T12:40:39.000Z</time>
      </trkpt>
      <trkpt lat="42.919" lon="0.58832">
        <ele>1511</ele>
        <time>2019-02-03T12:40:40.000Z</time>
      </trkpt>
      <trkpt lat="42.919" lon="0.58832">
        <ele>1511</ele>
        <time>2019-02-03T12:40:41.000Z</time>
      </trkpt>
      <trkpt lat="42.919" lon="0.58832">
        <ele>1511</ele>
        <time>2019-02-03T12:40:42.000Z</time>
      </trkpt>
      <trkpt lat="42.919" lon="0.58831">
        <ele>1511</ele>
        <time>2019-02-03T12:40:43.000Z</time>
      </trkpt>
      <trkpt lat="42.919" lon="0.58831">
        <ele>1511</ele>
        <time>2019-02-03T12:40:44.000Z</time>
      </trkpt>
      <trkpt lat="42.919" lon="0.58831">
        <ele>1511</ele>
        <time>2019-02-03T12:40:45.000Z</time>
      </trkpt>
      <trkpt lat="42.919" lon="0.58831">
        <ele>1511</ele>
        <time>2019-02-03T12:40:46.000Z</time>
      </trkpt>
      <trkpt lat="42.919" lon="0.58831">
        <ele>1511</ele>
        <time>2019-02-03T12:40:47.000Z</time>
      </trkpt>
      <trkpt lat="42.919" lon="0.5883">
        <ele>1511</ele>
        <time>2019-02-03T12:40:48.000Z</time>
      </trkpt>
      <trkpt lat="42.919" lon="0.5883">
        <ele>1511</ele>
        <time>2019-02-03T12:40:49.000Z</time>
      </trkpt>
      <trkpt lat="42.919" lon="0.5883">
        <ele>1511</ele>
        <time>2019-02-03T12:40:50.000Z</time>
      </trkpt>
      <trkpt lat="42.919" lon="0.58829">
        <ele>1511</ele>
        <time>2019-02-03T12:40:51.000Z</time>
      </trkpt>
      <trkpt lat="42.919" lon="0.58829">
        <ele>1511</ele>
        <time>2019-02-03T12:40:52.000Z</time>
      </trkpt>
      <trkpt lat="42.919" lon="0.58829">
        <ele>1511.3</ele>
        <time>2019-02-03T12:40:53.000Z</time>
      </trkpt>
      <trkpt lat="42.919" lon="0.58828">
        <ele>1511.7</ele>
        <time>2019-02-03T12:40:54.000Z</time>
      </trkpt>
      <trkpt lat="42.919" lon="0.58828">
        <ele>1512</ele>
        <time>2019-02-03T12:40:55.000Z</time>
      </trkpt>
      <trkpt lat="42.919" lon="0.58828">
        <ele>1511.5</ele>
        <time>2019-02-03T12:40:56.000Z</time>
      </trkpt>
      <trkpt lat="42.919" lon="0.58828">
        <ele>1511</ele>
        <time>2019-02-03T12:40:57.000Z</time>
      </trkpt>
      <trkpt lat="42.919" lon="0.58828">
        <ele>1511</ele>
        <time>2019-02-03T12:40:58.000Z</time>
      </trkpt>
      <trkpt lat="42.919" lon="0.58828">
        <ele>1511</ele>
        <time>2019-02-03T12:40:59.000Z</time>
      </trkpt>
      <trkpt lat="42.919" lon="0.58828">
        <ele>1511</ele>
        <time>2019-02-03T12:41:00.000Z</time>
      </trkpt>
      <trkpt lat="42.919" lon="0.58828">
        <ele>1511</ele>
        <time>2019-02-03T12:41:01.000Z</time>
      </trkpt>
      <trkpt lat="42.919" lon="0.58828">
        <ele>1511</ele>
        <time>2019-02-03T12:41:02.000Z</time>
      </trkpt>
      <trkpt lat="42.919" lon="0.58828">
        <ele>1511</ele>
        <time>2019-02-03T12:41:03.000Z</time>
      </trkpt>
      <trkpt lat="42.919" lon="0.58828">
        <ele>1511</ele>
        <time>2019-02-03T12:41:04.000Z</time>
      </trkpt>
      <trkpt lat="42.919" lon="0.58828">
        <ele>1511</ele>
        <time>2019-02-03T12:41:05.000Z</time>
      </trkpt>
      <trkpt lat="42.919" lon="0.58828">
        <ele>1511</ele>
        <time>2019-02-03T12:41:06.000Z</time>
      </trkpt>
      <trkpt lat="42.919" lon="0.58828">
        <ele>1511</ele>
        <time>2019-02-03T12:41:07.000Z</time>
      </trkpt>
      <trkpt lat="42.919" lon="0.58828">
        <ele>1511</ele>
        <time>2019-02-03T12:41:08.000Z</time>
      </trkpt>
      <trkpt lat="42.91899" lon="0.58828">
        <ele>1511</ele>
        <time>2019-02-03T12:41:09.000Z</time>
      </trkpt>
      <trkpt lat="42.91899" lon="0.58828">
        <ele>1511</ele>
        <time>2019-02-03T12:41:10.000Z</time>
      </trkpt>
      <trkpt lat="42.91899" lon="0.58829">
        <ele>1511</ele>
        <time>2019-02-03T12:41:11.000Z</time>
      </trkpt>
      <trkpt lat="42.91899" lon="0.58829">
        <ele>1511</ele>
        <time>2019-02-03T12:41:12.000Z</time>
      </trkpt>
      <trkpt lat="42.91899" lon="0.58829">
        <ele>1511</ele>
        <time>2019-02-03T12:41:13.000Z</time>
      </trkpt>
      <trkpt lat="42.91899" lon="0.58829">
        <ele>1511.5</ele>
        <time>2019-02-03T12:41:14.000Z</time>
      </trkpt>
      <trkpt lat="42.91899" lon="0.58829">
        <ele>1512</ele>
        <time>2019-02-03T12:41:15.000Z</time>
      </trkpt>
      <trkpt lat="42.919" lon="0.58829">
        <ele>1512</ele>
        <time>2019-02-03T12:41:16.000Z</time>
      </trkpt>
      <trkpt lat="42.919" lon="0.58829">
        <ele>1512</ele>
        <time>2019-02-03T12:41:17.000Z</time>
      </trkpt>
      <trkpt lat="42.919" lon="0.58828">
        <ele>1512</ele>
        <time>2019-02-03T12:41:18.000Z</time>
      </trkpt>
      <trkpt lat="42.919" lon="0.58828">
        <ele>1512</ele>
        <time>2019-02-03T12:41:19.000Z</time>
      </trkpt>
      <trkpt lat="42.919" lon="0.58828">
        <ele>1512</ele>
        <time>2019-02-03T12:41:20.000Z</time>
      </trkpt>
      <trkpt lat="42.919" lon="0.58828">
        <ele>1512</ele>
        <time>2019-02-03T12:41:21.000Z</time>
      </trkpt>
      <trkpt lat="42.919" lon="0.58828">
        <ele>1512.5</ele>
        <time>2019-02-03T12:41:22.000Z</time>
      </trkpt>
      <trkpt lat="42.919" lon="0.58828">
        <ele>1513</ele>
        <time>2019-02-03T12:41:23.000Z</time>
      </trkpt>
      <trkpt lat="42.919" lon="0.58828">
        <ele>1512</ele>
        <time>2019-02-03T12:41:24.000Z</time>
      </trkpt>
      <trkpt lat="42.91899" lon="0.58828">
        <ele>1511.5</ele>
        <time>2019-02-03T12:41:25.000Z</time>
      </trkpt>
      <trkpt lat="42.91899" lon="0.58828">
        <ele>1511</ele>
        <time>2019-02-03T12:41:26.000Z</time>
      </trkpt>
      <trkpt lat="42.91898" lon="0.58829">
        <ele>1511</ele>
        <time>2019-02-03T12:41:27.000Z</time>
      </trkpt>
      <trkpt lat="42.91898" lon="0.58829">
        <ele>1511</ele>
        <time>2019-02-03T12:41:28.000Z</time>
      </trkpt>
      <trkpt lat="42.91897" lon="0.58829">
        <ele>1511</ele>
        <time>2019-02-03T12:41:29.000Z</time>
      </trkpt>
      <trkpt lat="42.91897" lon="0.5883">
        <ele>1511</ele>
        <time>2019-02-03T12:41:30.000Z</time>
      </trkpt>
      <trkpt lat="42.91897" lon="0.5883">
        <ele>1511</ele>
        <time>2019-02-03T12:41:31.000Z</time>
      </trkpt>
      <trkpt lat="42.91896" lon="0.58831">
        <ele>1511</ele>
        <time>2019-02-03T12:41:32.000Z</time>
      </trkpt>
      <trkpt lat="42.91896" lon="0.58831">
        <ele>1511</ele>
        <time>2019-02-03T12:41:33.000Z</time>
      </trkpt>
      <trkpt lat="42.91896" lon="0.58832">
        <ele>1510.5</ele>
        <time>2019-02-03T12:41:34.000Z</time>
      </trkpt>
      <trkpt lat="42.91896" lon="0.58832">
        <ele>1510</ele>
        <time>2019-02-03T12:41:35.000Z</time>
      </trkpt>
      <trkpt lat="42.91896" lon="0.58832">
        <ele>1510.5</ele>
        <time>2019-02-03T12:41:36.000Z</time>
      </trkpt>
      <trkpt lat="42.91896" lon="0.58832">
        <ele>1511</ele>
        <time>2019-02-03T12:41:37.000Z</time>
      </trkpt>
      <trkpt lat="42.91896" lon="0.58832">
        <ele>1511</ele>
        <time>2019-02-03T12:41:38.000Z</time>
      </trkpt>
      <trkpt lat="42.91896" lon="0.58832">
        <ele>1511.5</ele>
        <time>2019-02-03T12:41:39.000Z</time>
      </trkpt>
      <trkpt lat="42.91896" lon="0.58832">
        <ele>1512</ele>
        <time>2019-02-03T12:41:40.000Z</time>
      </trkpt>
      <trkpt lat="42.91896" lon="0.58832">
        <ele>1512</ele>
        <time>2019-02-03T12:41:41.000Z</time>
      </trkpt>
      <trkpt lat="42.91896" lon="0.58832">
        <ele>1512</ele>
        <time>2019-02-03T12:41:42.000Z</time>
      </trkpt>
      <trkpt lat="42.91897" lon="0.58832">
        <ele>1512</ele>
        <time>2019-02-03T12:41:43.000Z</time>
      </trkpt>
      <trkpt lat="42.91897" lon="0.58833">
        <ele>1512</ele>
        <time>2019-02-03T12:41:44.000Z</time>
      </trkpt>
      <trkpt lat="42.91897" lon="0.58833">
        <ele>1512</ele>
        <time>2019-02-03T12:41:45.000Z</time>
      </trkpt>
      <trkpt lat="42.91898" lon="0.58833">
        <ele>1512</ele>
        <time>2019-02-03T12:41:46.000Z</time>
      </trkpt>
      <trkpt lat="42.91898" lon="0.58833">
        <ele>1512</ele>
        <time>2019-02-03T12:41:47.000Z</time>
      </trkpt>
      <trkpt lat="42.91899" lon="0.58833">
        <ele>1512</ele>
        <time>2019-02-03T12:41:48.000Z</time>
      </trkpt>
      <trkpt lat="42.91899" lon="0.58833">
        <ele>1512</ele>
        <time>2019-02-03T12:41:49.000Z</time>
      </trkpt>
      <trkpt lat="42.919" lon="0.58833">
        <ele>1511.5</ele>
        <time>2019-02-03T12:41:50.000Z</time>
      </trkpt>
      <trkpt lat="42.919" lon="0.58832">
        <ele>1511</ele>
        <time>2019-02-03T12:41:51.000Z</time>
      </trkpt>
      <trkpt lat="42.919" lon="0.58832">
        <ele>1511</ele>
        <time>2019-02-03T12:41:52.000Z</time>
      </trkpt>
      <trkpt lat="42.919" lon="0.58832">
        <ele>1511</ele>
        <time>2019-02-03T12:41:53.000Z</time>
      </trkpt>
      <trkpt lat="42.919" lon="0.58832">
        <ele>1511</ele>
        <time>2019-02-03T12:41:54.000Z</time>
      </trkpt>
      <trkpt lat="42.91901" lon="0.58832">
        <ele>1511</ele>
        <time>2019-02-03T12:41:55.000Z</time>
      </trkpt>
      <trkpt lat="42.91901" lon="0.58832">
        <ele>1511</ele>
        <time>2019-02-03T12:41:56.000Z</time>
      </trkpt>
      <trkpt lat="42.91901" lon="0.58832">
        <ele>1511</ele>
        <time>2019-02-03T12:41:57.000Z</time>
      </trkpt>
      <trkpt lat="42.91901" lon="0.58832">
        <ele>1511</ele>
        <time>2019-02-03T12:41:58.000Z</time>
      </trkpt>
      <trkpt lat="42.91901" lon="0.58831">
        <ele>1511.3</ele>
        <time>2019-02-03T12:41:59.000Z</time>
      </trkpt>
      <trkpt lat="42.91901" lon="0.58831">
        <ele>1511.7</ele>
        <time>2019-02-03T12:42:00.000Z</time>
      </trkpt>
      <trkpt lat="42.91901" lon="0.58831">
        <ele>1512</ele>
        <time>2019-02-03T12:42:01.000Z</time>
      </trkpt>
      <trkpt lat="42.91901" lon="0.58831">
        <ele>1512</ele>
        <time>2019-02-03T12:42:02.000Z</time>
      </trkpt>
      <trkpt lat="42.91901" lon="0.58831">
        <ele>1512</ele>
        <time>2019-02-03T12:42:03.000Z</time>
      </trkpt>
      <trkpt lat="42.91901" lon="0.58831">
        <ele>1511.5</ele>
        <time>2019-02-03T12:42:04.000Z</time>
      </trkpt>
      <trkpt lat="42.91901" lon="0.5883">
        <ele>1511</ele>
        <time>2019-02-03T12:42:05.000Z</time>
      </trkpt>
      <trkpt lat="42.91901" lon="0.5883">
        <ele>1512</ele>
        <time>2019-02-03T12:42:06.000Z</time>
      </trkpt>
      <trkpt lat="42.91901" lon="0.5883">
        <ele>1511.7</ele>
        <time>2019-02-03T12:42:07.000Z</time>
      </trkpt>
      <trkpt lat="42.91901" lon="0.5883">
        <ele>1511.3</ele>
        <time>2019-02-03T12:42:08.000Z</time>
      </trkpt>
      <trkpt lat="42.91901" lon="0.5883">
        <ele>1511</ele>
        <time>2019-02-03T12:42:09.000Z</time>
      </trkpt>
      <trkpt lat="42.91901" lon="0.5883">
        <ele>1511</ele>
        <time>2019-02-03T12:42:10.000Z</time>
      </trkpt>
      <trkpt lat="42.91901" lon="0.5883">
        <ele>1511</ele>
        <time>2019-02-03T12:42:11.000Z</time>
      </trkpt>
      <trkpt lat="42.91901" lon="0.5883">
        <ele>1512</ele>
        <time>2019-02-03T12:42:12.000Z</time>
      </trkpt>
      <trkpt lat="42.91901" lon="0.5883">
        <ele>1512</ele>
        <time>2019-02-03T12:42:13.000Z</time>
      </trkpt>
      <trkpt lat="42.91901" lon="0.5883">
        <ele>1512</ele>
        <time>2019-02-03T12:42:14.000Z</time>
      </trkpt>
      <trkpt lat="42.91902" lon="0.5883">
        <ele>1512</ele>
        <time>2019-02-03T12:42:15.000Z</time>
      </trkpt>
      <trkpt lat="42.91902" lon="0.5883">
        <ele>1512</ele>
        <time>2019-02-03T12:42:16.000Z</time>
      </trkpt>
      <trkpt lat="42.91902" lon="0.5883">
        <ele>1512</ele>
        <time>2019-02-03T12:42:17.000Z</time>
      </trkpt>
      <trkpt lat="42.91902" lon="0.5883">
        <ele>1511.5</ele>
        <time>2019-02-03T12:42:18.000Z</time>
      </trkpt>
      <trkpt lat="42.91902" lon="0.5883">
        <ele>1511</ele>
        <time>2019-02-03T12:42:19.000Z</time>
      </trkpt>
      <trkpt lat="42.91902" lon="0.5883">
        <ele>1511</ele>
        <time>2019-02-03T12:42:20.000Z</time>
      </trkpt>
      <trkpt lat="42.91902" lon="0.5883">
        <ele>1511</ele>
        <time>2019-02-03T12:42:21.000Z</time>
      </trkpt>
      <trkpt lat="42.91902" lon="0.5883">
        <ele>1511</ele>
        <time>2019-02-03T12:42:22.000Z</time>
      </trkpt>
      <trkpt lat="42.91902" lon="0.5883">
        <ele>1511</ele>
        <time>2019-02-03T12:42:23.000Z</time>
      </trkpt>
      <trkpt lat="42.91902" lon="0.5883">
        <ele>1511</ele>
        <time>2019-02-03T12:42:24.000Z</time>
      </trkpt>
      <trkpt lat="42.91902" lon="0.5883">
        <ele>1511</ele>
        <time>2019-02-03T12:42:25.000Z</time>
      </trkpt>
      <trkpt lat="42.91902" lon="0.5883">
        <ele>1511</ele>
        <time>2019-02-03T12:42:26.000Z</time>
      </trkpt>
      <trkpt lat="42.91902" lon="0.5883">
        <ele>1511</ele>
        <time>2019-02-03T12:42:27.000Z</time>
      </trkpt>
      <trkpt lat="42.91902" lon="0.5883">
        <ele>1511</ele>
        <time>2019-02-03T12:42:28.000Z</time>
      </trkpt>
      <trkpt lat="42.91902" lon="0.5883">
        <ele>1511</ele>
        <time>2019-02-03T12:42:29.000Z</time>
      </trkpt>
      <trkpt lat="42.91902" lon="0.5883">
        <ele>1511</ele>
        <time>2019-02-03T12:42:30.000Z</time>
      </trkpt>
      <trkpt lat="42.91902" lon="0.5883">
        <ele>1511</ele>
        <time>2019-02-03T12:42:31.000Z</time>
      </trkpt>
      <trkpt lat="42.91902" lon="0.5883">
        <ele>1511</ele>
        <time>2019-02-03T12:42:32.000Z</time>
      </trkpt>
      <trkpt lat="42.91902" lon="0.5883">
        <ele>1511.3</ele>
        <time>2019-02-03T12:42:33.000Z</time>
      </trkpt>
      <trkpt lat="42.91901" lon="0.5883">
        <ele>1511.7</ele>
        <time>2019-02-03T12:42:34.000Z</time>
      </trkpt>
      <trkpt lat="42.91901" lon="0.5883">
        <ele>1512</ele>
        <time>2019-02-03T12:42:35.000Z</time>
      </trkpt>
      <trkpt lat="42.91901" lon="0.5883">
        <ele>1512</ele>
        <time>2019-02-03T12:42:36.000Z</time>
      </trkpt>
      <trkpt lat="42.91901" lon="0.5883">
        <ele>1512</ele>
        <time>2019-02-03T12:42:37.000Z</time>
      </trkpt>
      <trkpt lat="42.91901" lon="0.5883">
        <ele>1512</ele>
        <time>2019-02-03T12:42:38.000Z</time>
      </trkpt>
      <trkpt lat="42.91901" lon="0.5883">
        <ele>1512</ele>
        <time>2019-02-03T12:42:39.000Z</time>
      </trkpt>
      <trkpt lat="42.91901" lon="0.5883">
        <ele>1512</ele>
        <time>2019-02-03T12:42:40.000Z</time>
      </trkpt>
      <trkpt lat="42.91901" lon="0.58829">
        <ele>1512</ele>
        <time>2019-02-03T12:42:41.000Z</time>
      </trkpt>
      <trkpt lat="42.91901" lon="0.58829">
        <ele>1512</ele>
        <time>2019-02-03T12:42:42.000Z</time>
      </trkpt>
      <trkpt lat="42.91901" lon="0.58829">
        <ele>1512</ele>
        <time>2019-02-03T12:42:43.000Z</time>
      </trkpt>
      <trkpt lat="42.91901" lon="0.58829">
        <ele>1512</ele>
        <time>2019-02-03T12:42:44.000Z</time>
      </trkpt>
      <trkpt lat="42.91901" lon="0.58829">
        <ele>1512</ele>
        <time>2019-02-03T12:42:45.000Z</time>
      </trkpt>
      <trkpt lat="42.91901" lon="0.5883">
        <ele>1512</ele>
        <time>2019-02-03T12:42:46.000Z</time>
      </trkpt>
      <trkpt lat="42.91901" lon="0.5883">
        <ele>1512</ele>
        <time>2019-02-03T12:42:47.000Z</time>
      </trkpt>
      <trkpt lat="42.91901" lon="0.5883">
        <ele>1511</ele>
        <time>2019-02-03T12:42:48.000Z</time>
      </trkpt>
      <trkpt lat="42.91901" lon="0.5883">
        <ele>1511</ele>
        <time>2019-02-03T12:42:49.000Z</time>
      </trkpt>
      <trkpt lat="42.91901" lon="0.5883">
        <ele>1511</ele>
        <time>2019-02-03T12:42:50.000Z</time>
      </trkpt>
      <trkpt lat="42.91901" lon="0.5883">
        <ele>1511</ele>
        <time>2019-02-03T12:42:51.000Z</time>
      </trkpt>
      <trkpt lat="42.91901" lon="0.5883">
        <ele>1511</ele>
        <time>2019-02-03T12:42:52.000Z</time>
      </trkpt>
      <trkpt lat="42.91901" lon="0.5883">
        <ele>1511.3</ele>
        <time>2019-02-03T12:42:53.000Z</time>
      </trkpt>
      <trkpt lat="42.91901" lon="0.58831">
        <ele>1511.7</ele>
        <time>2019-02-03T12:42:54.000Z</time>
      </trkpt>
      <trkpt lat="42.91901" lon="0.58831">
        <ele>1512</ele>
        <time>2019-02-03T12:42:55.000Z</time>
      </trkpt>
      <trkpt lat="42.91901" lon="0.58831">
        <ele>1512</ele>
        <time>2019-02-03T12:42:56.000Z</time>
      </trkpt>
      <trkpt lat="42.91901" lon="0.58831">
        <ele>1512</ele>
        <time>2019-02-03T12:42:57.000Z</time>
      </trkpt>
      <trkpt lat="42.91901" lon="0.58832">
        <ele>1512</ele>
        <time>2019-02-03T12:42:58.000Z</time>
      </trkpt>
      <trkpt lat="42.91901" lon="0.58832">
        <ele>1512</ele>
        <time>2019-02-03T12:42:59.000Z</time>
      </trkpt>
      <trkpt lat="42.91901" lon="0.58832">
        <ele>1512</ele>
        <time>2019-02-03T12:43:00.000Z</time>
      </trkpt>
      <trkpt lat="42.91901" lon="0.58833">
        <ele>1512</ele>
        <time>2019-02-03T12:43:01.000Z</time>
      </trkpt>
      <trkpt lat="42.91901" lon="0.58833">
        <ele>1512</ele>
        <time>2019-02-03T12:43:02.000Z</time>
      </trkpt>
      <trkpt lat="42.91901" lon="0.58833">
        <ele>1512</ele>
        <time>2019-02-03T12:43:03.000Z</time>
      </trkpt>
      <trkpt lat="42.91901" lon="0.58833">
        <ele>1512</ele>
        <time>2019-02-03T12:43:04.000Z</time>
      </trkpt>
      <trkpt lat="42.91901" lon="0.58833">
        <ele>1512</ele>
        <time>2019-02-03T12:43:05.000Z</time>
      </trkpt>
      <trkpt lat="42.91901" lon="0.58834">
        <ele>1512</ele>
        <time>2019-02-03T12:43:06.000Z</time>
      </trkpt>
      <trkpt lat="42.91901" lon="0.58834">
        <ele>1512</ele>
        <time>2019-02-03T12:43:07.000Z</time>
      </trkpt>
      <trkpt lat="42.91901" lon="0.58834">
        <ele>1511</ele>
        <time>2019-02-03T12:43:08.000Z</time>
      </trkpt>
      <trkpt lat="42.91901" lon="0.58834">
        <ele>1511</ele>
        <time>2019-02-03T12:43:09.000Z</time>
      </trkpt>
      <trkpt lat="42.91901" lon="0.58834">
        <ele>1511</ele>
        <time>2019-02-03T12:43:10.000Z</time>
      </trkpt>
      <trkpt lat="42.91901" lon="0.58834">
        <ele>1511</ele>
        <time>2019-02-03T12:43:11.000Z</time>
      </trkpt>
      <trkpt lat="42.91901" lon="0.58834">
        <ele>1511</ele>
        <time>2019-02-03T12:43:12.000Z</time>
      </trkpt>
      <trkpt lat="42.91901" lon="0.58834">
        <ele>1511</ele>
        <time>2019-02-03T12:43:13.000Z</time>
      </trkpt>
      <trkpt lat="42.91901" lon="0.58834">
        <ele>1511</ele>
        <time>2019-02-03T12:43:14.000Z</time>
      </trkpt>
      <trkpt lat="42.91901" lon="0.58834">
        <ele>1511</ele>
        <time>2019-02-03T12:43:15.000Z</time>
      </trkpt>
      <trkpt lat="42.91901" lon="0.58834">
        <ele>1512</ele>
        <time>2019-02-03T12:43:16.000Z</time>
      </trkpt>
      <trkpt lat="42.91902" lon="0.58835">
        <ele>1511.7</ele>
        <time>2019-02-03T12:43:17.000Z</time>
      </trkpt>
      <trkpt lat="42.91902" lon="0.58835">
        <ele>1511.3</ele>
        <time>2019-02-03T12:43:18.000Z</time>
      </trkpt>
      <trkpt lat="42.91902" lon="0.58835">
        <ele>1511</ele>
        <time>2019-02-03T12:43:19.000Z</time>
      </trkpt>
      <trkpt lat="42.91902" lon="0.58836">
        <ele>1511</ele>
        <time>2019-02-03T12:43:20.000Z</time>
      </trkpt>
      <trkpt lat="42.91903" lon="0.58836">
        <ele>1511</ele>
        <time>2019-02-03T12:43:21.000Z</time>
      </trkpt>
      <trkpt lat="42.91903" lon="0.58836">
        <ele>1511</ele>
        <time>2019-02-03T12:43:22.000Z</time>
      </trkpt>
      <trkpt lat="42.91903" lon="0.58836">
        <ele>1511</ele>
        <time>2019-02-03T12:43:23.000Z</time>
      </trkpt>
      <trkpt lat="42.91903" lon="0.58837">
        <ele>1511</ele>
        <time>2019-02-03T12:43:24.000Z</time>
      </trkpt>
      <trkpt lat="42.91903" lon="0.58837">
        <ele>1511</ele>
        <time>2019-02-03T12:43:25.000Z</time>
      </trkpt>
      <trkpt lat="42.91903" lon="0.58836">
        <ele>1511</ele>
        <time>2019-02-03T12:43:26.000Z</time>
      </trkpt>
      <trkpt lat="42.91903" lon="0.58836">
        <ele>1511.3</ele>
        <time>2019-02-03T12:43:27.000Z</time>
      </trkpt>
      <trkpt lat="42.91903" lon="0.58836">
        <ele>1511.7</ele>
        <time>2019-02-03T12:43:28.000Z</time>
      </trkpt>
      <trkpt lat="42.91903" lon="0.58836">
        <ele>1512</ele>
        <time>2019-02-03T12:43:29.000Z</time>
      </trkpt>
      <trkpt lat="42.91903" lon="0.58836">
        <ele>1512</ele>
        <time>2019-02-03T12:43:30.000Z</time>
      </trkpt>
      <trkpt lat="42.91903" lon="0.58836">
        <ele>1512</ele>
        <time>2019-02-03T12:43:31.000Z</time>
      </trkpt>
      <trkpt lat="42.91903" lon="0.58836">
        <ele>1512</ele>
        <time>2019-02-03T12:43:32.000Z</time>
      </trkpt>
      <trkpt lat="42.91903" lon="0.58836">
        <ele>1512</ele>
        <time>2019-02-03T12:43:33.000Z</time>
      </trkpt>
      <trkpt lat="42.91903" lon="0.58836">
        <ele>1512</ele>
        <time>2019-02-03T12:43:34.000Z</time>
      </trkpt>
      <trkpt lat="42.91903" lon="0.58836">
        <ele>1512</ele>
        <time>2019-02-03T12:43:35.000Z</time>
      </trkpt>
      <trkpt lat="42.91903" lon="0.58836">
        <ele>1512</ele>
        <time>2019-02-03T12:43:36.000Z</time>
      </trkpt>
      <trkpt lat="42.91903" lon="0.58836">
        <ele>1512</ele>
        <time>2019-02-03T12:43:37.000Z</time>
      </trkpt>
      <trkpt lat="42.91903" lon="0.58835">
        <ele>1512</ele>
        <time>2019-02-03T12:43:38.000Z</time>
      </trkpt>
      <trkpt lat="42.91903" lon="0.58835">
        <ele>1512</ele>
        <time>2019-02-03T12:43:39.000Z</time>
      </trkpt>
      <trkpt lat="42.91903" lon="0.58834">
        <ele>1512</ele>
        <time>2019-02-03T12:43:40.000Z</time>
      </trkpt>
      <trkpt lat="42.91903" lon="0.58834">
        <ele>1512</ele>
        <time>2019-02-03T12:43:41.000Z</time>
      </trkpt>
      <trkpt lat="42.91903" lon="0.58833">
        <ele>1512</ele>
        <time>2019-02-03T12:43:42.000Z</time>
      </trkpt>
      <trkpt lat="42.91903" lon="0.58832">
        <ele>1511.7</ele>
        <time>2019-02-03T12:43:43.000Z</time>
      </trkpt>
      <trkpt lat="42.91903" lon="0.58832">
        <ele>1511.3</ele>
        <time>2019-02-03T12:43:44.000Z</time>
      </trkpt>
      <trkpt lat="42.91903" lon="0.58832">
        <ele>1511</ele>
        <time>2019-02-03T12:43:45.000Z</time>
      </trkpt>
      <trkpt lat="42.91903" lon="0.58831">
        <ele>1511</ele>
        <time>2019-02-03T12:43:46.000Z</time>
      </trkpt>
      <trkpt lat="42.91903" lon="0.58831">
        <ele>1511</ele>
        <time>2019-02-03T12:43:47.000Z</time>
      </trkpt>
      <trkpt lat="42.91903" lon="0.58831">
        <ele>1511</ele>
        <time>2019-02-03T12:43:48.000Z</time>
      </trkpt>
      <trkpt lat="42.91903" lon="0.58831">
        <ele>1511.3</ele>
        <time>2019-02-03T12:43:49.000Z</time>
      </trkpt>
      <trkpt lat="42.91903" lon="0.58831">
        <ele>1511.7</ele>
        <time>2019-02-03T12:43:50.000Z</time>
      </trkpt>
      <trkpt lat="42.91903" lon="0.58831">
        <ele>1512</ele>
        <time>2019-02-03T12:43:51.000Z</time>
      </trkpt>
      <trkpt lat="42.91903" lon="0.58831">
        <ele>1512</ele>
        <time>2019-02-03T12:43:52.000Z</time>
      </trkpt>
      <trkpt lat="42.91903" lon="0.58831">
        <ele>1512</ele>
        <time>2019-02-03T12:43:53.000Z</time>
      </trkpt>
      <trkpt lat="42.91903" lon="0.58831">
        <ele>1512</ele>
        <time>2019-02-03T12:43:54.000Z</time>
      </trkpt>
      <trkpt lat="42.91903" lon="0.58831">
        <ele>1512</ele>
        <time>2019-02-03T12:43:55.000Z</time>
      </trkpt>
      <trkpt lat="42.91903" lon="0.58831">
        <ele>1511</ele>
        <time>2019-02-03T12:43:56.000Z</time>
      </trkpt>
      <trkpt lat="42.91903" lon="0.58831">
        <ele>1511</ele>
        <time>2019-02-03T12:43:57.000Z</time>
      </trkpt>
      <trkpt lat="42.91903" lon="0.58831">
        <ele>1511</ele>
        <time>2019-02-03T12:43:58.000Z</time>
      </trkpt>
      <trkpt lat="42.91903" lon="0.58831">
        <ele>1511</ele>
        <time>2019-02-03T12:43:59.000Z</time>
      </trkpt>
      <trkpt lat="42.91903" lon="0.58831">
        <ele>1511</ele>
        <time>2019-02-03T12:44:00.000Z</time>
      </trkpt>
      <trkpt lat="42.91903" lon="0.5883">
        <ele>1511</ele>
        <time>2019-02-03T12:44:01.000Z</time>
      </trkpt>
      <trkpt lat="42.91902" lon="0.5883">
        <ele>1511</ele>
        <time>2019-02-03T12:44:02.000Z</time>
      </trkpt>
      <trkpt lat="42.91902" lon="0.5883">
        <ele>1511</ele>
        <time>2019-02-03T12:44:03.000Z</time>
      </trkpt>
      <trkpt lat="42.91902" lon="0.5883">
        <ele>1511</ele>
        <time>2019-02-03T12:44:04.000Z</time>
      </trkpt>
      <trkpt lat="42.91902" lon="0.58829">
        <ele>1511</ele>
        <time>2019-02-03T12:44:05.000Z</time>
      </trkpt>
      <trkpt lat="42.91902" lon="0.58829">
        <ele>1511</ele>
        <time>2019-02-03T12:44:06.000Z</time>
      </trkpt>
      <trkpt lat="42.91902" lon="0.58829">
        <ele>1511</ele>
        <time>2019-02-03T12:44:07.000Z</time>
      </trkpt>
      <trkpt lat="42.91902" lon="0.58829">
        <ele>1511</ele>
        <time>2019-02-03T12:44:08.000Z</time>
      </trkpt>
      <trkpt lat="42.91901" lon="0.58829">
        <ele>1511</ele>
        <time>2019-02-03T12:44:09.000Z</time>
      </trkpt>
      <trkpt lat="42.91901" lon="0.58829">
        <ele>1511</ele>
        <time>2019-02-03T12:44:10.000Z</time>
      </trkpt>
      <trkpt lat="42.91901" lon="0.58829">
        <ele>1511</ele>
        <time>2019-02-03T12:44:11.000Z</time>
      </trkpt>
      <trkpt lat="42.91901" lon="0.58829">
        <ele>1511</ele>
        <time>2019-02-03T12:44:12.000Z</time>
      </trkpt>
      <trkpt lat="42.91901" lon="0.58829">
        <ele>1511</ele>
        <time>2019-02-03T12:44:13.000Z</time>
      </trkpt>
      <trkpt lat="42.91901" lon="0.58829">
        <ele>1511</ele>
        <time>2019-02-03T12:44:14.000Z</time>
      </trkpt>
      <trkpt lat="42.91901" lon="0.58829">
        <ele>1511</ele>
        <time>2019-02-03T12:44:15.000Z</time>
      </trkpt>
      <trkpt lat="42.91901" lon="0.58829">
        <ele>1511</ele>
        <time>2019-02-03T12:44:16.000Z</time>
      </trkpt>
      <trkpt lat="42.91901" lon="0.58829">
        <ele>1511</ele>
        <time>2019-02-03T12:44:17.000Z</time>
      </trkpt>
      <trkpt lat="42.91901" lon="0.58829">
        <ele>1511</ele>
        <time>2019-02-03T12:44:18.000Z</time>
      </trkpt>
      <trkpt lat="42.91901" lon="0.58829">
        <ele>1511</ele>
        <time>2019-02-03T12:44:19.000Z</time>
      </trkpt>
      <trkpt lat="42.91901" lon="0.58829">
        <ele>1511</ele>
        <time>2019-02-03T12:44:20.000Z</time>
      </trkpt>
      <trkpt lat="42.91901" lon="0.58829">
        <ele>1511</ele>
        <time>2019-02-03T12:44:21.000Z</time>
      </trkpt>
      <trkpt lat="42.91901" lon="0.58829">
        <ele>1511</ele>
        <time>2019-02-03T12:44:22.000Z</time>
      </trkpt>
      <trkpt lat="42.91901" lon="0.58829">
        <ele>1511</ele>
        <time>2019-02-03T12:44:23.000Z</time>
      </trkpt>
      <trkpt lat="42.91901" lon="0.58829">
        <ele>1512</ele>
        <time>2019-02-03T12:44:24.000Z</time>
      </trkpt>
      <trkpt lat="42.91901" lon="0.58829">
        <ele>1511.5</ele>
        <time>2019-02-03T12:44:25.000Z</time>
      </trkpt>
      <trkpt lat="42.91901" lon="0.58829">
        <ele>1511</ele>
        <time>2019-02-03T12:44:26.000Z</time>
      </trkpt>
      <trkpt lat="42.91901" lon="0.58829">
        <ele>1511</ele>
        <time>2019-02-03T12:44:27.000Z</time>
      </trkpt>
      <trkpt lat="42.91901" lon="0.58829">
        <ele>1511</ele>
        <time>2019-02-03T12:44:28.000Z</time>
      </trkpt>
      <trkpt lat="42.91901" lon="0.58829">
        <ele>1511</ele>
        <time>2019-02-03T12:44:29.000Z</time>
      </trkpt>
      <trkpt lat="42.91901" lon="0.58829">
        <ele>1511</ele>
        <time>2019-02-03T12:44:30.000Z</time>
      </trkpt>
      <trkpt lat="42.91901" lon="0.58829">
        <ele>1511</ele>
        <time>2019-02-03T12:44:31.000Z</time>
      </trkpt>
      <trkpt lat="42.91901" lon="0.58829">
        <ele>1511</ele>
        <time>2019-02-03T12:44:32.000Z</time>
      </trkpt>
      <trkpt lat="42.91901" lon="0.58829">
        <ele>1511</ele>
        <time>2019-02-03T12:44:33.000Z</time>
      </trkpt>
      <trkpt lat="42.91902" lon="0.58829">
        <ele>1511</ele>
        <time>2019-02-03T12:44:34.000Z</time>
      </trkpt>
      <trkpt lat="42.91902" lon="0.58829">
        <ele>1511</ele>
        <time>2019-02-03T12:44:35.000Z</time>
      </trkpt>
      <trkpt lat="42.91902" lon="0.58829">
        <ele>1511</ele>
        <time>2019-02-03T12:44:36.000Z</time>
      </trkpt>
      <trkpt lat="42.91902" lon="0.58829">
        <ele>1511</ele>
        <time>2019-02-03T12:44:37.000Z</time>
      </trkpt>
      <trkpt lat="42.91902" lon="0.58829">
        <ele>1511</ele>
        <time>2019-02-03T12:44:38.000Z</time>
      </trkpt>
      <trkpt lat="42.91902" lon="0.58829">
        <ele>1510.7</ele>
        <time>2019-02-03T12:44:39.000Z</time>
      </trkpt>
      <trkpt lat="42.91902" lon="0.58829">
        <ele>1510.3</ele>
        <time>2019-02-03T12:44:40.000Z</time>
      </trkpt>
      <trkpt lat="42.91902" lon="0.58829">
        <ele>1510</ele>
        <time>2019-02-03T12:44:41.000Z</time>
      </trkpt>
      <trkpt lat="42.91902" lon="0.58829">
        <ele>1510</ele>
        <time>2019-02-03T12:44:42.000Z</time>
      </trkpt>
      <trkpt lat="42.91902" lon="0.58829">
        <ele>1510</ele>
        <time>2019-02-03T12:44:43.000Z</time>
      </trkpt>
      <trkpt lat="42.91902" lon="0.58829">
        <ele>1510</ele>
        <time>2019-02-03T12:44:44.000Z</time>
      </trkpt>
      <trkpt lat="42.91902" lon="0.58829">
        <ele>1510</ele>
        <time>2019-02-03T12:44:45.000Z</time>
      </trkpt>
      <trkpt lat="42.91902" lon="0.58829">
        <ele>1510</ele>
        <time>2019-02-03T12:44:46.000Z</time>
      </trkpt>
      <trkpt lat="42.91902" lon="0.58829">
        <ele>1510</ele>
        <time>2019-02-03T12:44:47.000Z</time>
      </trkpt>
      <trkpt lat="42.91902" lon="0.58829">
        <ele>1511</ele>
        <time>2019-02-03T12:44:48.000Z</time>
      </trkpt>
      <trkpt lat="42.91902" lon="0.58829">
        <ele>1511</ele>
        <time>2019-02-03T12:44:49.000Z</time>
      </trkpt>
      <trkpt lat="42.91902" lon="0.58829">
        <ele>1511</ele>
        <time>2019-02-03T12:44:50.000Z</time>
      </trkpt>
      <trkpt lat="42.91902" lon="0.58829">
        <ele>1511</ele>
        <time>2019-02-03T12:44:51.000Z</time>
      </trkpt>
      <trkpt lat="42.91902" lon="0.58829">
        <ele>1511</ele>
        <time>2019-02-03T12:44:52.000Z</time>
      </trkpt>
      <trkpt lat="42.91902" lon="0.58829">
        <ele>1511</ele>
        <time>2019-02-03T12:44:53.000Z</time>
      </trkpt>
      <trkpt lat="42.91902" lon="0.58829">
        <ele>1511</ele>
        <time>2019-02-03T12:44:54.000Z</time>
      </trkpt>
      <trkpt lat="42.91902" lon="0.58829">
        <ele>1511</ele>
        <time>2019-02-03T12:44:55.000Z</time>
      </trkpt>
      <trkpt lat="42.91902" lon="0.58829">
        <ele>1511</ele>
        <time>2019-02-03T12:44:56.000Z</time>
      </trkpt>
      <trkpt lat="42.91902" lon="0.58829">
        <ele>1511</ele>
        <time>2019-02-03T12:44:57.000Z</time>
      </trkpt>
      <trkpt lat="42.91902" lon="0.58829">
        <ele>1511</ele>
        <time>2019-02-03T12:44:58.000Z</time>
      </trkpt>
      <trkpt lat="42.91902" lon="0.58829">
        <ele>1511</ele>
        <time>2019-02-03T12:44:59.000Z</time>
      </trkpt>
      <trkpt lat="42.91902" lon="0.58829">
        <ele>1511</ele>
        <time>2019-02-03T12:45:00.000Z</time>
      </trkpt>
      <trkpt lat="42.91902" lon="0.58829">
        <ele>1511</ele>
        <time>2019-02-03T12:45:01.000Z</time>
      </trkpt>
      <trkpt lat="42.91902" lon="0.58829">
        <ele>1511</ele>
        <time>2019-02-03T12:45:02.000Z</time>
      </trkpt>
      <trkpt lat="42.91902" lon="0.58829">
        <ele>1511</ele>
        <time>2019-02-03T12:45:03.000Z</time>
      </trkpt>
      <trkpt lat="42.91902" lon="0.58829">
        <ele>1511</ele>
        <time>2019-02-03T12:45:04.000Z</time>
      </trkpt>
      <trkpt lat="42.91902" lon="0.58829">
        <ele>1511</ele>
        <time>2019-02-03T12:45:05.000Z</time>
      </trkpt>
      <trkpt lat="42.91902" lon="0.58829">
        <ele>1510.5</ele>
        <time>2019-02-03T12:45:06.000Z</time>
      </trkpt>
      <trkpt lat="42.91902" lon="0.58829">
        <ele>1510</ele>
        <time>2019-02-03T12:45:07.000Z</time>
      </trkpt>
      <trkpt lat="42.91902" lon="0.58829">
        <ele>1510</ele>
        <time>2019-02-03T12:45:08.000Z</time>
      </trkpt>
      <trkpt lat="42.91902" lon="0.58829">
        <ele>1510.3</ele>
        <time>2019-02-03T12:45:09.000Z</time>
      </trkpt>
      <trkpt lat="42.91902" lon="0.58829">
        <ele>1510.7</ele>
        <time>2019-02-03T12:45:10.000Z</time>
      </trkpt>
      <trkpt lat="42.91902" lon="0.58829">
        <ele>1511</ele>
        <time>2019-02-03T12:45:11.000Z</time>
      </trkpt>
      <trkpt lat="42.91902" lon="0.58829">
        <ele>1511</ele>
        <time>2019-02-03T12:45:12.000Z</time>
      </trkpt>
      <trkpt lat="42.91902" lon="0.58829">
        <ele>1511</ele>
        <time>2019-02-03T12:45:13.000Z</time>
      </trkpt>
      <trkpt lat="42.91902" lon="0.58829">
        <ele>1511</ele>
        <time>2019-02-03T12:45:14.000Z</time>
      </trkpt>
      <trkpt lat="42.91902" lon="0.58829">
        <ele>1511</ele>
        <time>2019-02-03T12:45:15.000Z</time>
      </trkpt>
      <trkpt lat="42.91902" lon="0.58829">
        <ele>1511</ele>
        <time>2019-02-03T12:45:16.000Z</time>
      </trkpt>
      <trkpt lat="42.91902" lon="0.58829">
        <ele>1511</ele>
        <time>2019-02-03T12:45:17.000Z</time>
      </trkpt>
      <trkpt lat="42.91902" lon="0.58829">
        <ele>1511</ele>
        <time>2019-02-03T12:45:18.000Z</time>
      </trkpt>
      <trkpt lat="42.91902" lon="0.58829">
        <ele>1511</ele>
        <time>2019-02-03T12:45:19.000Z</time>
      </trkpt>
      <trkpt lat="42.91902" lon="0.58829">
        <ele>1511</ele>
        <time>2019-02-03T12:45:20.000Z</time>
      </trkpt>
      <trkpt lat="42.91902" lon="0.58829">
        <ele>1511</ele>
        <time>2019-02-03T12:45:21.000Z</time>
      </trkpt>
      <trkpt lat="42.91902" lon="0.58829">
        <ele>1511</ele>
        <time>2019-02-03T12:45:22.000Z</time>
      </trkpt>
      <trkpt lat="42.91902" lon="0.58829">
        <ele>1511</ele>
        <time>2019-02-03T12:45:23.000Z</time>
      </trkpt>
      <trkpt lat="42.91902" lon="0.58829">
        <ele>1511</ele>
        <time>2019-02-03T12:45:24.000Z</time>
      </trkpt>
      <trkpt lat="42.91902" lon="0.58829">
        <ele>1511</ele>
        <time>2019-02-03T12:45:25.000Z</time>
      </trkpt>
      <trkpt lat="42.91902" lon="0.58829">
        <ele>1511</ele>
        <time>2019-02-03T12:45:26.000Z</time>
      </trkpt>
      <trkpt lat="42.91902" lon="0.58829">
        <ele>1511</ele>
        <time>2019-02-03T12:45:27.000Z</time>
      </trkpt>
      <trkpt lat="42.91902" lon="0.58829">
        <ele>1511</ele>
        <time>2019-02-03T12:45:28.000Z</time>
      </trkpt>
      <trkpt lat="42.91902" lon="0.58829">
        <ele>1511</ele>
        <time>2019-02-03T12:45:29.000Z</time>
      </trkpt>
      <trkpt lat="42.91902" lon="0.58829">
        <ele>1511</ele>
        <time>2019-02-03T12:45:30.000Z</time>
      </trkpt>
      <trkpt lat="42.91902" lon="0.58829">
        <ele>1511</ele>
        <time>2019-02-03T12:45:31.000Z</time>
      </trkpt>
      <trkpt lat="42.91902" lon="0.58829">
        <ele>1511</ele>
        <time>2019-02-03T12:45:32.000Z</time>
      </trkpt>
      <trkpt lat="42.91902" lon="0.58829">
        <ele>1511</ele>
        <time>2019-02-03T12:45:33.000Z</time>
      </trkpt>
      <trkpt lat="42.91902" lon="0.58829">
        <ele>1510.5</ele>
        <time>2019-02-03T12:45:34.000Z</time>
      </trkpt>
      <trkpt lat="42.91902" lon="0.58829">
        <ele>1510</ele>
        <time>2019-02-03T12:45:35.000Z</time>
      </trkpt>
      <trkpt lat="42.91902" lon="0.58828">
        <ele>1511</ele>
        <time>2019-02-03T12:45:36.000Z</time>
      </trkpt>
      <trkpt lat="42.91902" lon="0.58828">
        <ele>1510.5</ele>
        <time>2019-02-03T12:45:37.000Z</time>
      </trkpt>
      <trkpt lat="42.91902" lon="0.58828">
        <ele>1510</ele>
        <time>2019-02-03T12:45:38.000Z</time>
      </trkpt>
      <trkpt lat="42.91902" lon="0.58828">
        <ele>1510</ele>
        <time>2019-02-03T12:45:39.000Z</time>
      </trkpt>
      <trkpt lat="42.91902" lon="0.58828">
        <ele>1510</ele>
        <time>2019-02-03T12:45:40.000Z</time>
      </trkpt>
      <trkpt lat="42.91902" lon="0.58828">
        <ele>1510</ele>
        <time>2019-02-03T12:45:41.000Z</time>
      </trkpt>
      <trkpt lat="42.91903" lon="0.58828">
        <ele>1510</ele>
        <time>2019-02-03T12:45:42.000Z</time>
      </trkpt>
      <trkpt lat="42.91903" lon="0.58828">
        <ele>1510</ele>
        <time>2019-02-03T12:45:43.000Z</time>
      </trkpt>
      <trkpt lat="42.91903" lon="0.58827">
        <ele>1510</ele>
        <time>2019-02-03T12:45:44.000Z</time>
      </trkpt>
      <trkpt lat="42.91903" lon="0.58827">
        <ele>1510</ele>
        <time>2019-02-03T12:45:45.000Z</time>
      </trkpt>
      <trkpt lat="42.91903" lon="0.58827">
        <ele>1510</ele>
        <time>2019-02-03T12:45:46.000Z</time>
      </trkpt>
      <trkpt lat="42.91903" lon="0.58827">
        <ele>1510</ele>
        <time>2019-02-03T12:45:47.000Z</time>
      </trkpt>
      <trkpt lat="42.91903" lon="0.58827">
        <ele>1510</ele>
        <time>2019-02-03T12:45:48.000Z</time>
      </trkpt>
      <trkpt lat="42.91903" lon="0.58827">
        <ele>1510</ele>
        <time>2019-02-03T12:45:49.000Z</time>
      </trkpt>
      <trkpt lat="42.91904" lon="0.58827">
        <ele>1510</ele>
        <time>2019-02-03T12:45:50.000Z</time>
      </trkpt>
      <trkpt lat="42.91904" lon="0.58827">
        <ele>1510</ele>
        <time>2019-02-03T12:45:51.000Z</time>
      </trkpt>
      <trkpt lat="42.91904" lon="0.58826">
        <ele>1510</ele>
        <time>2019-02-03T12:45:52.000Z</time>
      </trkpt>
      <trkpt lat="42.91904" lon="0.58826">
        <ele>1510</ele>
        <time>2019-02-03T12:45:53.000Z</time>
      </trkpt>
      <trkpt lat="42.91904" lon="0.58826">
        <ele>1510</ele>
        <time>2019-02-03T12:45:54.000Z</time>
      </trkpt>
      <trkpt lat="42.91904" lon="0.58826">
        <ele>1510</ele>
        <time>2019-02-03T12:45:55.000Z</time>
      </trkpt>
      <trkpt lat="42.91904" lon="0.58826">
        <ele>1510</ele>
        <time>2019-02-03T12:45:56.000Z</time>
      </trkpt>
      <trkpt lat="42.91904" lon="0.58826">
        <ele>1510</ele>
        <time>2019-02-03T12:45:57.000Z</time>
      </trkpt>
      <trkpt lat="42.91904" lon="0.58826">
        <ele>1510</ele>
        <time>2019-02-03T12:45:58.000Z</time>
      </trkpt>
      <trkpt lat="42.91904" lon="0.58826">
        <ele>1510</ele>
        <time>2019-02-03T12:45:59.000Z</time>
      </trkpt>
      <trkpt lat="42.91904" lon="0.58826">
        <ele>1510</ele>
        <time>2019-02-03T12:46:00.000Z</time>
      </trkpt>
      <trkpt lat="42.91904" lon="0.58826">
        <ele>1510</ele>
        <time>2019-02-03T12:46:01.000Z</time>
      </trkpt>
      <trkpt lat="42.91904" lon="0.58826">
        <ele>1510</ele>
        <time>2019-02-03T12:46:02.000Z</time>
      </trkpt>
      <trkpt lat="42.91904" lon="0.58826">
        <ele>1510</ele>
        <time>2019-02-03T12:46:03.000Z</time>
      </trkpt>
      <trkpt lat="42.91904" lon="0.58826">
        <ele>1510</ele>
        <time>2019-02-03T12:46:04.000Z</time>
      </trkpt>
      <trkpt lat="42.91904" lon="0.58826">
        <ele>1510</ele>
        <time>2019-02-03T12:46:05.000Z</time>
      </trkpt>
      <trkpt lat="42.91904" lon="0.58826">
        <ele>1510</ele>
        <time>2019-02-03T12:46:06.000Z</time>
      </trkpt>
      <trkpt lat="42.91904" lon="0.58826">
        <ele>1510</ele>
        <time>2019-02-03T12:46:07.000Z</time>
      </trkpt>
      <trkpt lat="42.91904" lon="0.58826">
        <ele>1510</ele>
        <time>2019-02-03T12:46:08.000Z</time>
      </trkpt>
      <trkpt lat="42.91904" lon="0.58826">
        <ele>1510.3</ele>
        <time>2019-02-03T12:46:09.000Z</time>
      </trkpt>
      <trkpt lat="42.91904" lon="0.58826">
        <ele>1510.7</ele>
        <time>2019-02-03T12:46:10.000Z</time>
      </trkpt>
      <trkpt lat="42.91904" lon="0.58826">
        <ele>1511</ele>
        <time>2019-02-03T12:46:11.000Z</time>
      </trkpt>
      <trkpt lat="42.91904" lon="0.58826">
        <ele>1511</ele>
        <time>2019-02-03T12:46:12.000Z</time>
      </trkpt>
      <trkpt lat="42.91904" lon="0.58826">
        <ele>1511</ele>
        <time>2019-02-03T12:46:13.000Z</time>
      </trkpt>
      <trkpt lat="42.91904" lon="0.58826">
        <ele>1511</ele>
        <time>2019-02-03T12:46:14.000Z</time>
      </trkpt>
      <trkpt lat="42.91904" lon="0.58826">
        <ele>1511</ele>
        <time>2019-02-03T12:46:15.000Z</time>
      </trkpt>
      <trkpt lat="42.91904" lon="0.58826">
        <ele>1511</ele>
        <time>2019-02-03T12:46:16.000Z</time>
      </trkpt>
      <trkpt lat="42.91904" lon="0.58826">
        <ele>1511</ele>
        <time>2019-02-03T12:46:17.000Z</time>
      </trkpt>
      <trkpt lat="42.91904" lon="0.58826">
        <ele>1511</ele>
        <time>2019-02-03T12:46:18.000Z</time>
      </trkpt>
      <trkpt lat="42.91904" lon="0.58826">
        <ele>1511</ele>
        <time>2019-02-03T12:46:19.000Z</time>
      </trkpt>
      <trkpt lat="42.91904" lon="0.58826">
        <ele>1511</ele>
        <time>2019-02-03T12:46:20.000Z</time>
      </trkpt>
      <trkpt lat="42.91904" lon="0.58826">
        <ele>1511</ele>
        <time>2019-02-03T12:46:21.000Z</time>
      </trkpt>
      <trkpt lat="42.91904" lon="0.58826">
        <ele>1511</ele>
        <time>2019-02-03T12:46:22.000Z</time>
      </trkpt>
      <trkpt lat="42.91904" lon="0.58826">
        <ele>1511</ele>
        <time>2019-02-03T12:46:23.000Z</time>
      </trkpt>
      <trkpt lat="42.91904" lon="0.58826">
        <ele>1511</ele>
        <time>2019-02-03T12:46:24.000Z</time>
      </trkpt>
      <trkpt lat="42.91904" lon="0.58826">
        <ele>1511</ele>
        <time>2019-02-03T12:46:25.000Z</time>
      </trkpt>
      <trkpt lat="42.91904" lon="0.58826">
        <ele>1511</ele>
        <time>2019-02-03T12:46:26.000Z</time>
      </trkpt>
      <trkpt lat="42.91904" lon="0.58826">
        <ele>1510.7</ele>
        <time>2019-02-03T12:46:27.000Z</time>
      </trkpt>
      <trkpt lat="42.91904" lon="0.58826">
        <ele>1510.3</ele>
        <time>2019-02-03T12:46:28.000Z</time>
      </trkpt>
      <trkpt lat="42.91904" lon="0.58826">
        <ele>1510</ele>
        <time>2019-02-03T12:46:29.000Z</time>
      </trkpt>
      <trkpt lat="42.91904" lon="0.58826">
        <ele>1510</ele>
        <time>2019-02-03T12:46:30.000Z</time>
      </trkpt>
      <trkpt lat="42.91904" lon="0.58826">
        <ele>1510</ele>
        <time>2019-02-03T12:46:31.000Z</time>
      </trkpt>
      <trkpt lat="42.91904" lon="0.58826">
        <ele>1510</ele>
        <time>2019-02-03T12:46:32.000Z</time>
      </trkpt>
      <trkpt lat="42.91904" lon="0.58826">
        <ele>1510</ele>
        <time>2019-02-03T12:46:33.000Z</time>
      </trkpt>
      <trkpt lat="42.91904" lon="0.58826">
        <ele>1510</ele>
        <time>2019-02-03T12:46:34.000Z</time>
      </trkpt>
      <trkpt lat="42.91904" lon="0.58826">
        <ele>1510</ele>
        <time>2019-02-03T12:46:35.000Z</time>
      </trkpt>
      <trkpt lat="42.91904" lon="0.58826">
        <ele>1510</ele>
        <time>2019-02-03T12:46:36.000Z</time>
      </trkpt>
      <trkpt lat="42.91904" lon="0.58826">
        <ele>1510</ele>
        <time>2019-02-03T12:46:37.000Z</time>
      </trkpt>
      <trkpt lat="42.91904" lon="0.58826">
        <ele>1510</ele>
        <time>2019-02-03T12:46:38.000Z</time>
      </trkpt>
      <trkpt lat="42.91904" lon="0.58826">
        <ele>1510</ele>
        <time>2019-02-03T12:46:39.000Z</time>
      </trkpt>
      <trkpt lat="42.91904" lon="0.58826">
        <ele>1510</ele>
        <time>2019-02-03T12:46:40.000Z</time>
      </trkpt>
      <trkpt lat="42.91904" lon="0.58826">
        <ele>1510</ele>
        <time>2019-02-03T12:46:41.000Z</time>
      </trkpt>
      <trkpt lat="42.91904" lon="0.58826">
        <ele>1510</ele>
        <time>2019-02-03T12:46:42.000Z</time>
      </trkpt>
      <trkpt lat="42.91904" lon="0.58826">
        <ele>1510</ele>
        <time>2019-02-03T12:46:43.000Z</time>
      </trkpt>
      <trkpt lat="42.91904" lon="0.58826">
        <ele>1510</ele>
        <time>2019-02-03T12:46:44.000Z</time>
      </trkpt>
      <trkpt lat="42.91904" lon="0.58826">
        <ele>1510</ele>
        <time>2019-02-03T12:46:45.000Z</time>
      </trkpt>
      <trkpt lat="42.91904" lon="0.58826">
        <ele>1510</ele>
        <time>2019-02-03T12:46:46.000Z</time>
      </trkpt>
      <trkpt lat="42.91904" lon="0.58826">
        <ele>1510</ele>
        <time>2019-02-03T12:46:47.000Z</time>
      </trkpt>
      <trkpt lat="42.91904" lon="0.58826">
        <ele>1510</ele>
        <time>2019-02-03T12:46:48.000Z</time>
      </trkpt>
      <trkpt lat="42.91904" lon="0.58826">
        <ele>1510</ele>
        <time>2019-02-03T12:46:49.000Z</time>
      </trkpt>
      <trkpt lat="42.91904" lon="0.58826">
        <ele>1510</ele>
        <time>2019-02-03T12:46:50.000Z</time>
      </trkpt>
      <trkpt lat="42.91904" lon="0.58826">
        <ele>1510</ele>
        <time>2019-02-03T12:46:51.000Z</time>
      </trkpt>
      <trkpt lat="42.91904" lon="0.58826">
        <ele>1510</ele>
        <time>2019-02-03T12:46:52.000Z</time>
      </trkpt>
      <trkpt lat="42.91904" lon="0.58826">
        <ele>1510</ele>
        <time>2019-02-03T12:46:53.000Z</time>
      </trkpt>
      <trkpt lat="42.91904" lon="0.58826">
        <ele>1510</ele>
        <time>2019-02-03T12:46:54.000Z</time>
      </trkpt>
      <trkpt lat="42.91904" lon="0.58826">
        <ele>1510</ele>
        <time>2019-02-03T12:46:55.000Z</time>
      </trkpt>
      <trkpt lat="42.91904" lon="0.58826">
        <ele>1510</ele>
        <time>2019-02-03T12:46:56.000Z</time>
      </trkpt>
      <trkpt lat="42.91904" lon="0.58826">
        <ele>1510</ele>
        <time>2019-02-03T12:46:57.000Z</time>
      </trkpt>
      <trkpt lat="42.91904" lon="0.58826">
        <ele>1510</ele>
        <time>2019-02-03T12:46:58.000Z</time>
      </trkpt>
      <trkpt lat="42.91904" lon="0.58826">
        <ele>1510</ele>
        <time>2019-02-03T12:46:59.000Z</time>
      </trkpt>
      <trkpt lat="42.91904" lon="0.58826">
        <ele>1510</ele>
        <time>2019-02-03T12:47:00.000Z</time>
      </trkpt>
      <trkpt lat="42.91904" lon="0.58826">
        <ele>1510</ele>
        <time>2019-02-03T12:47:01.000Z</time>
      </trkpt>
      <trkpt lat="42.91904" lon="0.58826">
        <ele>1510</ele>
        <time>2019-02-03T12:47:02.000Z</time>
      </trkpt>
      <trkpt lat="42.91904" lon="0.58826">
        <ele>1510</ele>
        <time>2019-02-03T12:47:03.000Z</time>
      </trkpt>
      <trkpt lat="42.91904" lon="0.58826">
        <ele>1510</ele>
        <time>2019-02-03T12:47:04.000Z</time>
      </trkpt>
      <trkpt lat="42.91904" lon="0.58826">
        <ele>1510</ele>
        <time>2019-02-03T12:47:05.000Z</time>
      </trkpt>
      <trkpt lat="42.91904" lon="0.58826">
        <ele>1511</ele>
        <time>2019-02-03T12:47:06.000Z</time>
      </trkpt>
      <trkpt lat="42.91904" lon="0.58826">
        <ele>1511</ele>
        <time>2019-02-03T12:47:07.000Z</time>
      </trkpt>
      <trkpt lat="42.91904" lon="0.58826">
        <ele>1511</ele>
        <time>2019-02-03T12:47:08.000Z</time>
      </trkpt>
      <trkpt lat="42.91904" lon="0.58826">
        <ele>1511</ele>
        <time>2019-02-03T12:47:09.000Z</time>
      </trkpt>
      <trkpt lat="42.91904" lon="0.58826">
        <ele>1510</ele>
        <time>2019-02-03T12:47:10.000Z</time>
      </trkpt>
      <trkpt lat="42.91904" lon="0.58826">
        <ele>1510</ele>
        <time>2019-02-03T12:47:11.000Z</time>
      </trkpt>
      <trkpt lat="42.91904" lon="0.58826">
        <ele>1510</ele>
        <time>2019-02-03T12:47:12.000Z</time>
      </trkpt>
      <trkpt lat="42.91904" lon="0.58826">
        <ele>1510</ele>
        <time>2019-02-03T12:47:13.000Z</time>
      </trkpt>
      <trkpt lat="42.91904" lon="0.58826">
        <ele>1510</ele>
        <time>2019-02-03T12:47:14.000Z</time>
      </trkpt>
      <trkpt lat="42.91904" lon="0.58826">
        <ele>1510</ele>
        <time>2019-02-03T12:47:15.000Z</time>
      </trkpt>
      <trkpt lat="42.91904" lon="0.58826">
        <ele>1510</ele>
        <time>2019-02-03T12:47:16.000Z</time>
      </trkpt>
      <trkpt lat="42.91904" lon="0.58826">
        <ele>1510</ele>
        <time>2019-02-03T12:47:17.000Z</time>
      </trkpt>
      <trkpt lat="42.91904" lon="0.58826">
        <ele>1510</ele>
        <time>2019-02-03T12:47:18.000Z</time>
      </trkpt>
      <trkpt lat="42.91904" lon="0.58826">
        <ele>1510</ele>
        <time>2019-02-03T12:47:19.000Z</time>
      </trkpt>
      <trkpt lat="42.91904" lon="0.58826">
        <ele>1510</ele>
        <time>2019-02-03T12:47:20.000Z</time>
      </trkpt>
      <trkpt lat="42.91904" lon="0.58826">
        <ele>1510</ele>
        <time>2019-02-03T12:47:21.000Z</time>
      </trkpt>
      <trkpt lat="42.91904" lon="0.58826">
        <ele>1510</ele>
        <time>2019-02-03T12:47:22.000Z</time>
      </trkpt>
      <trkpt lat="42.91904" lon="0.58826">
        <ele>1510</ele>
        <time>2019-02-03T12:47:23.000Z</time>
      </trkpt>
      <trkpt lat="42.91904" lon="0.58826">
        <ele>1510</ele>
        <time>2019-02-03T12:47:24.000Z</time>
      </trkpt>
      <trkpt lat="42.91904" lon="0.58826">
        <ele>1510</ele>
        <time>2019-02-03T12:47:25.000Z</time>
      </trkpt>
      <trkpt lat="42.91904" lon="0.58827">
        <ele>1510</ele>
        <time>2019-02-03T12:47:26.000Z</time>
      </trkpt>
      <trkpt lat="42.91904" lon="0.58827">
        <ele>1510</ele>
        <time>2019-02-03T12:47:27.000Z</time>
      </trkpt>
      <trkpt lat="42.91904" lon="0.58827">
        <ele>1510</ele>
        <time>2019-02-03T12:47:28.000Z</time>
      </trkpt>
      <trkpt lat="42.91904" lon="0.58827">
        <ele>1510</ele>
        <time>2019-02-03T12:47:29.000Z</time>
      </trkpt>
      <trkpt lat="42.91904" lon="0.58827">
        <ele>1510</ele>
        <time>2019-02-03T12:47:30.000Z</time>
      </trkpt>
      <trkpt lat="42.91904" lon="0.58827">
        <ele>1510</ele>
        <time>2019-02-03T12:47:31.000Z</time>
      </trkpt>
      <trkpt lat="42.91904" lon="0.58827">
        <ele>1510</ele>
        <time>2019-02-03T12:47:32.000Z</time>
      </trkpt>
      <trkpt lat="42.91904" lon="0.58827">
        <ele>1510</ele>
        <time>2019-02-03T12:47:33.000Z</time>
      </trkpt>
      <trkpt lat="42.91904" lon="0.58827">
        <ele>1510</ele>
        <time>2019-02-03T12:47:34.000Z</time>
      </trkpt>
      <trkpt lat="42.91904" lon="0.58827">
        <ele>1510</ele>
        <time>2019-02-03T12:47:35.000Z</time>
      </trkpt>
      <trkpt lat="42.91904" lon="0.58827">
        <ele>1510</ele>
        <time>2019-02-03T12:47:36.000Z</time>
      </trkpt>
      <trkpt lat="42.91904" lon="0.58827">
        <ele>1510</ele>
        <time>2019-02-03T12:47:37.000Z</time>
      </trkpt>
      <trkpt lat="42.91904" lon="0.58827">
        <ele>1510</ele>
        <time>2019-02-03T12:47:38.000Z</time>
      </trkpt>
      <trkpt lat="42.91904" lon="0.58827">
        <ele>1510.3</ele>
        <time>2019-02-03T12:47:39.000Z</time>
      </trkpt>
      <trkpt lat="42.91904" lon="0.58827">
        <ele>1510.7</ele>
        <time>2019-02-03T12:47:40.000Z</time>
      </trkpt>
      <trkpt lat="42.91904" lon="0.58827">
        <ele>1511</ele>
        <time>2019-02-03T12:47:41.000Z</time>
      </trkpt>
      <trkpt lat="42.91904" lon="0.58827">
        <ele>1511</ele>
        <time>2019-02-03T12:47:42.000Z</time>
      </trkpt>
      <trkpt lat="42.91904" lon="0.58827">
        <ele>1511</ele>
        <time>2019-02-03T12:47:43.000Z</time>
      </trkpt>
      <trkpt lat="42.91904" lon="0.58827">
        <ele>1511</ele>
        <time>2019-02-03T12:47:44.000Z</time>
      </trkpt>
      <trkpt lat="42.91904" lon="0.58827">
        <ele>1511</ele>
        <time>2019-02-03T12:47:45.000Z</time>
      </trkpt>
      <trkpt lat="42.91904" lon="0.58827">
        <ele>1511</ele>
        <time>2019-02-03T12:47:46.000Z</time>
      </trkpt>
      <trkpt lat="42.91904" lon="0.58827">
        <ele>1511</ele>
        <time>2019-02-03T12:47:47.000Z</time>
      </trkpt>
      <trkpt lat="42.91904" lon="0.58827">
        <ele>1511</ele>
        <time>2019-02-03T12:47:48.000Z</time>
      </trkpt>
      <trkpt lat="42.91904" lon="0.58827">
        <ele>1511</ele>
        <time>2019-02-03T12:47:49.000Z</time>
      </trkpt>
      <trkpt lat="42.91904" lon="0.58827">
        <ele>1511</ele>
        <time>2019-02-03T12:47:50.000Z</time>
      </trkpt>
      <trkpt lat="42.91904" lon="0.58827">
        <ele>1511</ele>
        <time>2019-02-03T12:47:51.000Z</time>
      </trkpt>
      <trkpt lat="42.91904" lon="0.58827">
        <ele>1511</ele>
        <time>2019-02-03T12:47:52.000Z</time>
      </trkpt>
      <trkpt lat="42.91904" lon="0.58827">
        <ele>1511</ele>
        <time>2019-02-03T12:47:53.000Z</time>
      </trkpt>
      <trkpt lat="42.91904" lon="0.58827">
        <ele>1511</ele>
        <time>2019-02-03T12:47:54.000Z</time>
      </trkpt>
      <trkpt lat="42.91904" lon="0.58827">
        <ele>1511</ele>
        <time>2019-02-03T12:47:55.000Z</time>
      </trkpt>
      <trkpt lat="42.91904" lon="0.58827">
        <ele>1511</ele>
        <time>2019-02-03T12:47:56.000Z</time>
      </trkpt>
      <trkpt lat="42.91904" lon="0.58827">
        <ele>1511</ele>
        <time>2019-02-03T12:47:57.000Z</time>
      </trkpt>
      <trkpt lat="42.91904" lon="0.58827">
        <ele>1511</ele>
        <time>2019-02-03T12:47:58.000Z</time>
      </trkpt>
      <trkpt lat="42.91904" lon="0.58827">
        <ele>1511</ele>
        <time>2019-02-03T12:47:59.000Z</time>
      </trkpt>
      <trkpt lat="42.91904" lon="0.58827">
        <ele>1511</ele>
        <time>2019-02-03T12:48:00.000Z</time>
      </trkpt>
      <trkpt lat="42.91904" lon="0.58827">
        <ele>1511</ele>
        <time>2019-02-03T12:48:01.000Z</time>
      </trkpt>
      <trkpt lat="42.91904" lon="0.58827">
        <ele>1511</ele>
        <time>2019-02-03T12:48:02.000Z</time>
      </trkpt>
      <trkpt lat="42.91904" lon="0.58827">
        <ele>1511</ele>
        <time>2019-02-03T12:48:03.000Z</time>
      </trkpt>
      <trkpt lat="42.91904" lon="0.58827">
        <ele>1511</ele>
        <time>2019-02-03T12:48:04.000Z</time>
      </trkpt>
      <trkpt lat="42.91904" lon="0.58827">
        <ele>1511</ele>
        <time>2019-02-03T12:48:05.000Z</time>
      </trkpt>
      <trkpt lat="42.91904" lon="0.58827">
        <ele>1511</ele>
        <time>2019-02-03T12:48:06.000Z</time>
      </trkpt>
      <trkpt lat="42.91904" lon="0.58827">
        <ele>1511</ele>
        <time>2019-02-03T12:48:07.000Z</time>
      </trkpt>
      <trkpt lat="42.91904" lon="0.58827">
        <ele>1511</ele>
        <time>2019-02-03T12:48:08.000Z</time>
      </trkpt>
      <trkpt lat="42.91904" lon="0.58827">
        <ele>1511</ele>
        <time>2019-02-03T12:48:09.000Z</time>
      </trkpt>
      <trkpt lat="42.91904" lon="0.58827">
        <ele>1511</ele>
        <time>2019-02-03T12:48:10.000Z</time>
      </trkpt>
      <trkpt lat="42.91904" lon="0.58827">
        <ele>1511</ele>
        <time>2019-02-03T12:48:11.000Z</time>
      </trkpt>
      <trkpt lat="42.91904" lon="0.58827">
        <ele>1511</ele>
        <time>2019-02-03T12:48:12.000Z</time>
      </trkpt>
      <trkpt lat="42.91904" lon="0.58827">
        <ele>1511</ele>
        <time>2019-02-03T12:48:13.000Z</time>
      </trkpt>
      <trkpt lat="42.91904" lon="0.58827">
        <ele>1510.5</ele>
        <time>2019-02-03T12:48:14.000Z</time>
      </trkpt>
      <trkpt lat="42.91904" lon="0.58827">
        <ele>1510</ele>
        <time>2019-02-03T12:48:15.000Z</time>
      </trkpt>
      <trkpt lat="42.91904" lon="0.58828">
        <ele>1510</ele>
        <time>2019-02-03T12:48:16.000Z</time>
      </trkpt>
      <trkpt lat="42.91904" lon="0.58828">
        <ele>1510</ele>
        <time>2019-02-03T12:48:17.000Z</time>
      </trkpt>
      <trkpt lat="42.91904" lon="0.58828">
        <ele>1510</ele>
        <time>2019-02-03T12:48:18.000Z</time>
      </trkpt>
      <trkpt lat="42.91904" lon="0.58828">
        <ele>1510</ele>
        <time>2019-02-03T12:48:19.000Z</time>
      </trkpt>
      <trkpt lat="42.91904" lon="0.58828">
        <ele>1510</ele>
        <time>2019-02-03T12:48:20.000Z</time>
      </trkpt>
      <trkpt lat="42.91904" lon="0.58828">
        <ele>1510.3</ele>
        <time>2019-02-03T12:48:21.000Z</time>
      </trkpt>
      <trkpt lat="42.91904" lon="0.58829">
        <ele>1510.7</ele>
        <time>2019-02-03T12:48:22.000Z</time>
      </trkpt>
      <trkpt lat="42.91904" lon="0.58829">
        <ele>1511</ele>
        <time>2019-02-03T12:48:23.000Z</time>
      </trkpt>
      <trkpt lat="42.91904" lon="0.58829">
        <ele>1511</ele>
        <time>2019-02-03T12:48:24.000Z</time>
      </trkpt>
      <trkpt lat="42.91904" lon="0.58829">
        <ele>1511</ele>
        <time>2019-02-03T12:48:25.000Z</time>
      </trkpt>
      <trkpt lat="42.91904" lon="0.58829">
        <ele>1511</ele>
        <time>2019-02-03T12:48:26.000Z</time>
      </trkpt>
      <trkpt lat="42.91904" lon="0.58829">
        <ele>1511</ele>
        <time>2019-02-03T12:48:27.000Z</time>
      </trkpt>
      <trkpt lat="42.91905" lon="0.58829">
        <ele>1511</ele>
        <time>2019-02-03T12:48:28.000Z</time>
      </trkpt>
      <trkpt lat="42.91905" lon="0.58829">
        <ele>1511</ele>
        <time>2019-02-03T12:48:29.000Z</time>
      </trkpt>
      <trkpt lat="42.91905" lon="0.5883">
        <ele>1511</ele>
        <time>2019-02-03T12:48:30.000Z</time>
      </trkpt>
      <trkpt lat="42.91905" lon="0.5883">
        <ele>1511</ele>
        <time>2019-02-03T12:48:31.000Z</time>
      </trkpt>
      <trkpt lat="42.91905" lon="0.5883">
        <ele>1511</ele>
        <time>2019-02-03T12:48:32.000Z</time>
      </trkpt>
      <trkpt lat="42.91906" lon="0.5883">
        <ele>1511</ele>
        <time>2019-02-03T12:48:33.000Z</time>
      </trkpt>
      <trkpt lat="42.91906" lon="0.5883">
        <ele>1511</ele>
        <time>2019-02-03T12:48:34.000Z</time>
      </trkpt>
      <trkpt lat="42.91906" lon="0.5883">
        <ele>1511</ele>
        <time>2019-02-03T12:48:35.000Z</time>
      </trkpt>
      <trkpt lat="42.91906" lon="0.5883">
        <ele>1511</ele>
        <time>2019-02-03T12:48:36.000Z</time>
      </trkpt>
      <trkpt lat="42.91906" lon="0.5883">
        <ele>1511</ele>
        <time>2019-02-03T12:48:37.000Z</time>
      </trkpt>
      <trkpt lat="42.91906" lon="0.5883">
        <ele>1511</ele>
        <time>2019-02-03T12:48:38.000Z</time>
      </trkpt>
      <trkpt lat="42.91906" lon="0.5883">
        <ele>1511</ele>
        <time>2019-02-03T12:48:39.000Z</time>
      </trkpt>
      <trkpt lat="42.91906" lon="0.5883">
        <ele>1511</ele>
        <time>2019-02-03T12:48:40.000Z</time>
      </trkpt>
      <trkpt lat="42.91905" lon="0.58829">
        <ele>1511</ele>
        <time>2019-02-03T12:48:41.000Z</time>
      </trkpt>
      <trkpt lat="42.91905" lon="0.58829">
        <ele>1511</ele>
        <time>2019-02-03T12:48:42.000Z</time>
      </trkpt>
      <trkpt lat="42.91905" lon="0.58829">
        <ele>1511</ele>
        <time>2019-02-03T12:48:43.000Z</time>
      </trkpt>
      <trkpt lat="42.91905" lon="0.58829">
        <ele>1511</ele>
        <time>2019-02-03T12:48:44.000Z</time>
      </trkpt>
      <trkpt lat="42.91905" lon="0.58829">
        <ele>1511</ele>
        <time>2019-02-03T12:48:45.000Z</time>
      </trkpt>
      <trkpt lat="42.91905" lon="0.58829">
        <ele>1511</ele>
        <time>2019-02-03T12:48:46.000Z</time>
      </trkpt>
      <trkpt lat="42.91905" lon="0.58829">
        <ele>1511</ele>
        <time>2019-02-03T12:48:47.000Z</time>
      </trkpt>
      <trkpt lat="42.91905" lon="0.58829">
        <ele>1511</ele>
        <time>2019-02-03T12:48:48.000Z</time>
      </trkpt>
      <trkpt lat="42.91905" lon="0.5883">
        <ele>1511</ele>
        <time>2019-02-03T12:48:49.000Z</time>
      </trkpt>
      <trkpt lat="42.91905" lon="0.5883">
        <ele>1511</ele>
        <time>2019-02-03T12:48:50.000Z</time>
      </trkpt>
      <trkpt lat="42.91905" lon="0.5883">
        <ele>1511</ele>
        <time>2019-02-03T12:48:51.000Z</time>
      </trkpt>
      <trkpt lat="42.91905" lon="0.5883">
        <ele>1511</ele>
        <time>2019-02-03T12:48:52.000Z</time>
      </trkpt>
      <trkpt lat="42.91905" lon="0.5883">
        <ele>1511</ele>
        <time>2019-02-03T12:48:53.000Z</time>
      </trkpt>
      <trkpt lat="42.91905" lon="0.5883">
        <ele>1511</ele>
        <time>2019-02-03T12:48:54.000Z</time>
      </trkpt>
      <trkpt lat="42.91905" lon="0.5883">
        <ele>1511</ele>
        <time>2019-02-03T12:48:55.000Z</time>
      </trkpt>
      <trkpt lat="42.91905" lon="0.5883">
        <ele>1511</ele>
        <time>2019-02-03T12:48:56.000Z</time>
      </trkpt>
      <trkpt lat="42.91905" lon="0.5883">
        <ele>1511</ele>
        <time>2019-02-03T12:48:57.000Z</time>
      </trkpt>
      <trkpt lat="42.91905" lon="0.5883">
        <ele>1511</ele>
        <time>2019-02-03T12:48:58.000Z</time>
      </trkpt>
      <trkpt lat="42.91905" lon="0.5883">
        <ele>1511</ele>
        <time>2019-02-03T12:48:59.000Z</time>
      </trkpt>
      <trkpt lat="42.91905" lon="0.5883">
        <ele>1511</ele>
        <time>2019-02-03T12:49:00.000Z</time>
      </trkpt>
      <trkpt lat="42.91905" lon="0.5883">
        <ele>1511</ele>
        <time>2019-02-03T12:49:01.000Z</time>
      </trkpt>
      <trkpt lat="42.91905" lon="0.5883">
        <ele>1511</ele>
        <time>2019-02-03T12:49:02.000Z</time>
      </trkpt>
      <trkpt lat="42.91905" lon="0.5883">
        <ele>1511</ele>
        <time>2019-02-03T12:49:03.000Z</time>
      </trkpt>
      <trkpt lat="42.91905" lon="0.5883">
        <ele>1512</ele>
        <time>2019-02-03T12:49:04.000Z</time>
      </trkpt>
      <trkpt lat="42.91905" lon="0.5883">
        <ele>1511.5</ele>
        <time>2019-02-03T12:49:05.000Z</time>
      </trkpt>
      <trkpt lat="42.91905" lon="0.5883">
        <ele>1511</ele>
        <time>2019-02-03T12:49:06.000Z</time>
      </trkpt>
      <trkpt lat="42.91905" lon="0.5883">
        <ele>1511</ele>
        <time>2019-02-03T12:49:07.000Z</time>
      </trkpt>
      <trkpt lat="42.91905" lon="0.5883">
        <ele>1511</ele>
        <time>2019-02-03T12:49:08.000Z</time>
      </trkpt>
      <trkpt lat="42.91905" lon="0.5883">
        <ele>1511</ele>
        <time>2019-02-03T12:49:09.000Z</time>
      </trkpt>
      <trkpt lat="42.91905" lon="0.5883">
        <ele>1511</ele>
        <time>2019-02-03T12:49:10.000Z</time>
      </trkpt>
      <trkpt lat="42.91905" lon="0.5883">
        <ele>1511</ele>
        <time>2019-02-03T12:49:11.000Z</time>
      </trkpt>
      <trkpt lat="42.91905" lon="0.5883">
        <ele>1511</ele>
        <time>2019-02-03T12:49:12.000Z</time>
      </trkpt>
      <trkpt lat="42.91905" lon="0.5883">
        <ele>1511</ele>
        <time>2019-02-03T12:49:13.000Z</time>
      </trkpt>
      <trkpt lat="42.91905" lon="0.5883">
        <ele>1511</ele>
        <time>2019-02-03T12:49:14.000Z</time>
      </trkpt>
      <trkpt lat="42.91905" lon="0.5883">
        <ele>1511</ele>
        <time>2019-02-03T12:49:15.000Z</time>
      </trkpt>
      <trkpt lat="42.91905" lon="0.5883">
        <ele>1511</ele>
        <time>2019-02-03T12:49:16.000Z</time>
      </trkpt>
      <trkpt lat="42.91905" lon="0.5883">
        <ele>1511</ele>
        <time>2019-02-03T12:49:17.000Z</time>
      </trkpt>
      <trkpt lat="42.91905" lon="0.5883">
        <ele>1511</ele>
        <time>2019-02-03T12:49:18.000Z</time>
      </trkpt>
      <trkpt lat="42.91905" lon="0.5883">
        <ele>1511</ele>
        <time>2019-02-03T12:49:19.000Z</time>
      </trkpt>
      <trkpt lat="42.91905" lon="0.5883">
        <ele>1511</ele>
        <time>2019-02-03T12:49:20.000Z</time>
      </trkpt>
      <trkpt lat="42.91905" lon="0.5883">
        <ele>1511</ele>
        <time>2019-02-03T12:49:21.000Z</time>
      </trkpt>
      <trkpt lat="42.91905" lon="0.5883">
        <ele>1511</ele>
        <time>2019-02-03T12:49:22.000Z</time>
      </trkpt>
      <trkpt lat="42.91905" lon="0.5883">
        <ele>1511</ele>
        <time>2019-02-03T12:49:23.000Z</time>
      </trkpt>
      <trkpt lat="42.91905" lon="0.5883">
        <ele>1511</ele>
        <time>2019-02-03T12:49:24.000Z</time>
      </trkpt>
      <trkpt lat="42.91905" lon="0.5883">
        <ele>1511</ele>
        <time>2019-02-03T12:49:25.000Z</time>
      </trkpt>
      <trkpt lat="42.91905" lon="0.5883">
        <ele>1511</ele>
        <time>2019-02-03T12:49:26.000Z</time>
      </trkpt>
      <trkpt lat="42.91905" lon="0.5883">
        <ele>1511</ele>
        <time>2019-02-03T12:49:27.000Z</time>
      </trkpt>
      <trkpt lat="42.91905" lon="0.5883">
        <ele>1511</ele>
        <time>2019-02-03T12:49:28.000Z</time>
      </trkpt>
      <trkpt lat="42.91905" lon="0.5883">
        <ele>1511</ele>
        <time>2019-02-03T12:49:29.000Z</time>
      </trkpt>
      <trkpt lat="42.91905" lon="0.5883">
        <ele>1511</ele>
        <time>2019-02-03T12:49:30.000Z</time>
      </trkpt>
      <trkpt lat="42.91905" lon="0.5883">
        <ele>1511</ele>
        <time>2019-02-03T12:49:31.000Z</time>
      </trkpt>
      <trkpt lat="42.91905" lon="0.5883">
        <ele>1511</ele>
        <time>2019-02-03T12:49:32.000Z</time>
      </trkpt>
      <trkpt lat="42.91905" lon="0.5883">
        <ele>1511</ele>
        <time>2019-02-03T12:49:33.000Z</time>
      </trkpt>
      <trkpt lat="42.91905" lon="0.5883">
        <ele>1511</ele>
        <time>2019-02-03T12:49:34.000Z</time>
      </trkpt>
      <trkpt lat="42.91905" lon="0.5883">
        <ele>1511</ele>
        <time>2019-02-03T12:49:35.000Z</time>
      </trkpt>
      <trkpt lat="42.91905" lon="0.5883">
        <ele>1511</ele>
        <time>2019-02-03T12:49:36.000Z</time>
      </trkpt>
      <trkpt lat="42.91905" lon="0.5883">
        <ele>1511</ele>
        <time>2019-02-03T12:49:37.000Z</time>
      </trkpt>
      <trkpt lat="42.91905" lon="0.5883">
        <ele>1511</ele>
        <time>2019-02-03T12:49:38.000Z</time>
      </trkpt>
      <trkpt lat="42.91905" lon="0.5883">
        <ele>1511</ele>
        <time>2019-02-03T12:49:39.000Z</time>
      </trkpt>
      <trkpt lat="42.91905" lon="0.5883">
        <ele>1511</ele>
        <time>2019-02-03T12:49:40.000Z</time>
      </trkpt>
      <trkpt lat="42.91905" lon="0.5883">
        <ele>1511</ele>
        <time>2019-02-03T12:49:41.000Z</time>
      </trkpt>
      <trkpt lat="42.91905" lon="0.5883">
        <ele>1511</ele>
        <time>2019-02-03T12:49:42.000Z</time>
      </trkpt>
      <trkpt lat="42.91905" lon="0.5883">
        <ele>1511</ele>
        <time>2019-02-03T12:49:43.000Z</time>
      </trkpt>
      <trkpt lat="42.91905" lon="0.5883">
        <ele>1511</ele>
        <time>2019-02-03T12:49:44.000Z</time>
      </trkpt>
      <trkpt lat="42.91905" lon="0.5883">
        <ele>1511</ele>
        <time>2019-02-03T12:49:45.000Z</time>
      </trkpt>
      <trkpt lat="42.91905" lon="0.5883">
        <ele>1511</ele>
        <time>2019-02-03T12:49:46.000Z</time>
      </trkpt>
      <trkpt lat="42.91905" lon="0.5883">
        <ele>1511</ele>
        <time>2019-02-03T12:49:47.000Z</time>
      </trkpt>
      <trkpt lat="42.91905" lon="0.5883">
        <ele>1511</ele>
        <time>2019-02-03T12:49:48.000Z</time>
      </trkpt>
      <trkpt lat="42.91905" lon="0.5883">
        <ele>1511</ele>
        <time>2019-02-03T12:49:49.000Z</time>
      </trkpt>
      <trkpt lat="42.91905" lon="0.5883">
        <ele>1511</ele>
        <time>2019-02-03T12:49:50.000Z</time>
      </trkpt>
      <trkpt lat="42.91905" lon="0.5883">
        <ele>1511</ele>
        <time>2019-02-03T12:49:51.000Z</time>
      </trkpt>
      <trkpt lat="42.91905" lon="0.5883">
        <ele>1511</ele>
        <time>2019-02-03T12:49:52.000Z</time>
      </trkpt>
      <trkpt lat="42.91905" lon="0.5883">
        <ele>1511</ele>
        <time>2019-02-03T12:49:53.000Z</time>
      </trkpt>
      <trkpt lat="42.91905" lon="0.5883">
        <ele>1511</ele>
        <time>2019-02-03T12:49:54.000Z</time>
      </trkpt>
      <trkpt lat="42.91905" lon="0.5883">
        <ele>1511</ele>
        <time>2019-02-03T12:49:55.000Z</time>
      </trkpt>
      <trkpt lat="42.91905" lon="0.5883">
        <ele>1511</ele>
        <time>2019-02-03T12:49:56.000Z</time>
      </trkpt>
      <trkpt lat="42.91905" lon="0.5883">
        <ele>1511</ele>
        <time>2019-02-03T12:49:57.000Z</time>
      </trkpt>
      <trkpt lat="42.91905" lon="0.5883">
        <ele>1511</ele>
        <time>2019-02-03T12:49:58.000Z</time>
      </trkpt>
      <trkpt lat="42.91905" lon="0.5883">
        <ele>1511</ele>
        <time>2019-02-03T12:49:59.000Z</time>
      </trkpt>
      <trkpt lat="42.91905" lon="0.5883">
        <ele>1511</ele>
        <time>2019-02-03T12:50:00.000Z</time>
      </trkpt>
      <trkpt lat="42.91905" lon="0.5883">
        <ele>1511</ele>
        <time>2019-02-03T12:50:01.000Z</time>
      </trkpt>
      <trkpt lat="42.91905" lon="0.5883">
        <ele>1511</ele>
        <time>2019-02-03T12:50:02.000Z</time>
      </trkpt>
      <trkpt lat="42.91905" lon="0.5883">
        <ele>1511</ele>
        <time>2019-02-03T12:50:03.000Z</time>
      </trkpt>
      <trkpt lat="42.91905" lon="0.5883">
        <ele>1511</ele>
        <time>2019-02-03T12:50:04.000Z</time>
      </trkpt>
      <trkpt lat="42.91905" lon="0.5883">
        <ele>1511</ele>
        <time>2019-02-03T12:50:05.000Z</time>
      </trkpt>
      <trkpt lat="42.91905" lon="0.5883">
        <ele>1511</ele>
        <time>2019-02-03T12:50:06.000Z</time>
      </trkpt>
      <trkpt lat="42.91905" lon="0.5883">
        <ele>1511</ele>
        <time>2019-02-03T12:50:07.000Z</time>
      </trkpt>
      <trkpt lat="42.91905" lon="0.5883">
        <ele>1511</ele>
        <time>2019-02-03T12:50:08.000Z</time>
      </trkpt>
      <trkpt lat="42.91905" lon="0.5883">
        <ele>1510.7</ele>
        <time>2019-02-03T12:50:09.000Z</time>
      </trkpt>
      <trkpt lat="42.91905" lon="0.5883">
        <ele>1510.3</ele>
        <time>2019-02-03T12:50:10.000Z</time>
      </trkpt>
      <trkpt lat="42.91905" lon="0.5883">
        <ele>1510</ele>
        <time>2019-02-03T12:50:11.000Z</time>
      </trkpt>
      <trkpt lat="42.91905" lon="0.5883">
        <ele>1510</ele>
        <time>2019-02-03T12:50:12.000Z</time>
      </trkpt>
      <trkpt lat="42.91905" lon="0.58829">
        <ele>1510</ele>
        <time>2019-02-03T12:50:13.000Z</time>
      </trkpt>
      <trkpt lat="42.91905" lon="0.58829">
        <ele>1510</ele>
        <time>2019-02-03T12:50:14.000Z</time>
      </trkpt>
      <trkpt lat="42.91905" lon="0.58829">
        <ele>1510</ele>
        <time>2019-02-03T12:50:15.000Z</time>
      </trkpt>
      <trkpt lat="42.91905" lon="0.58829">
        <ele>1511</ele>
        <time>2019-02-03T12:50:16.000Z</time>
      </trkpt>
      <trkpt lat="42.91905" lon="0.58829">
        <ele>1511</ele>
        <time>2019-02-03T12:50:17.000Z</time>
      </trkpt>
      <trkpt lat="42.91905" lon="0.58829">
        <ele>1511</ele>
        <time>2019-02-03T12:50:18.000Z</time>
      </trkpt>
      <trkpt lat="42.91905" lon="0.58829">
        <ele>1511</ele>
        <time>2019-02-03T12:50:19.000Z</time>
      </trkpt>
      <trkpt lat="42.91905" lon="0.58829">
        <ele>1511</ele>
        <time>2019-02-03T12:50:20.000Z</time>
      </trkpt>
      <trkpt lat="42.91905" lon="0.58829">
        <ele>1511</ele>
        <time>2019-02-03T12:50:21.000Z</time>
      </trkpt>
      <trkpt lat="42.91905" lon="0.58829">
        <ele>1511</ele>
        <time>2019-02-03T12:50:22.000Z</time>
      </trkpt>
      <trkpt lat="42.91905" lon="0.58829">
        <ele>1511</ele>
        <time>2019-02-03T12:50:23.000Z</time>
      </trkpt>
      <trkpt lat="42.91905" lon="0.58829">
        <ele>1511</ele>
        <time>2019-02-03T12:50:24.000Z</time>
      </trkpt>
      <trkpt lat="42.91905" lon="0.58829">
        <ele>1511</ele>
        <time>2019-02-03T12:50:25.000Z</time>
      </trkpt>
      <trkpt lat="42.91905" lon="0.58829">
        <ele>1511</ele>
        <time>2019-02-03T12:50:26.000Z</time>
      </trkpt>
      <trkpt lat="42.91905" lon="0.58829">
        <ele>1511</ele>
        <time>2019-02-03T12:50:27.000Z</time>
      </trkpt>
      <trkpt lat="42.91905" lon="0.58829">
        <ele>1511</ele>
        <time>2019-02-03T12:50:28.000Z</time>
      </trkpt>
      <trkpt lat="42.91905" lon="0.58829">
        <ele>1511</ele>
        <time>2019-02-03T12:50:29.000Z</time>
      </trkpt>
      <trkpt lat="42.91905" lon="0.58829">
        <ele>1511</ele>
        <time>2019-02-03T12:50:30.000Z</time>
      </trkpt>
      <trkpt lat="42.91905" lon="0.58829">
        <ele>1511</ele>
        <time>2019-02-03T12:50:31.000Z</time>
      </trkpt>
      <trkpt lat="42.91905" lon="0.58829">
        <ele>1511</ele>
        <time>2019-02-03T12:50:32.000Z</time>
      </trkpt>
      <trkpt lat="42.91905" lon="0.58829">
        <ele>1511</ele>
        <time>2019-02-03T12:50:33.000Z</time>
      </trkpt>
      <trkpt lat="42.91905" lon="0.58829">
        <ele>1511</ele>
        <time>2019-02-03T12:50:34.000Z</time>
      </trkpt>
      <trkpt lat="42.91905" lon="0.58829">
        <ele>1511</ele>
        <time>2019-02-03T12:50:35.000Z</time>
      </trkpt>
      <trkpt lat="42.91905" lon="0.58829">
        <ele>1510.5</ele>
        <time>2019-02-03T12:50:36.000Z</time>
      </trkpt>
      <trkpt lat="42.91905" lon="0.58829">
        <ele>1510</ele>
        <time>2019-02-03T12:50:37.000Z</time>
      </trkpt>
      <trkpt lat="42.91905" lon="0.58829">
        <ele>1510</ele>
        <time>2019-02-03T12:50:38.000Z</time>
      </trkpt>
      <trkpt lat="42.91905" lon="0.58829">
        <ele>1510</ele>
        <time>2019-02-03T12:50:39.000Z</time>
      </trkpt>
      <trkpt lat="42.91905" lon="0.58829">
        <ele>1510</ele>
        <time>2019-02-03T12:50:40.000Z</time>
      </trkpt>
      <trkpt lat="42.91905" lon="0.58829">
        <ele>1510</ele>
        <time>2019-02-03T12:50:41.000Z</time>
      </trkpt>
      <trkpt lat="42.91905" lon="0.58829">
        <ele>1510</ele>
        <time>2019-02-03T12:50:42.000Z</time>
      </trkpt>
      <trkpt lat="42.91905" lon="0.58829">
        <ele>1510</ele>
        <time>2019-02-03T12:50:43.000Z</time>
      </trkpt>
      <trkpt lat="42.91905" lon="0.58829">
        <ele>1510.5</ele>
        <time>2019-02-03T12:50:44.000Z</time>
      </trkpt>
      <trkpt lat="42.91905" lon="0.58829">
        <ele>1511</ele>
        <time>2019-02-03T12:50:45.000Z</time>
      </trkpt>
      <trkpt lat="42.91905" lon="0.58829">
        <ele>1511</ele>
        <time>2019-02-03T12:50:46.000Z</time>
      </trkpt>
      <trkpt lat="42.91905" lon="0.58829">
        <ele>1511</ele>
        <time>2019-02-03T12:50:47.000Z</time>
      </trkpt>
      <trkpt lat="42.91905" lon="0.58829">
        <ele>1511</ele>
        <time>2019-02-03T12:50:48.000Z</time>
      </trkpt>
      <trkpt lat="42.91905" lon="0.58829">
        <ele>1511</ele>
        <time>2019-02-03T12:50:49.000Z</time>
      </trkpt>
      <trkpt lat="42.91905" lon="0.58829">
        <ele>1511</ele>
        <time>2019-02-03T12:50:50.000Z</time>
      </trkpt>
      <trkpt lat="42.91905" lon="0.58829">
        <ele>1511</ele>
        <time>2019-02-03T12:50:51.000Z</time>
      </trkpt>
      <trkpt lat="42.91905" lon="0.58829">
        <ele>1511</ele>
        <time>2019-02-03T12:50:52.000Z</time>
      </trkpt>
      <trkpt lat="42.91905" lon="0.58829">
        <ele>1511</ele>
        <time>2019-02-03T12:50:53.000Z</time>
      </trkpt>
      <trkpt lat="42.91905" lon="0.58829">
        <ele>1511</ele>
        <time>2019-02-03T12:50:54.000Z</time>
      </trkpt>
      <trkpt lat="42.91905" lon="0.58829">
        <ele>1511</ele>
        <time>2019-02-03T12:50:55.000Z</time>
      </trkpt>
      <trkpt lat="42.91905" lon="0.58829">
        <ele>1511</ele>
        <time>2019-02-03T12:50:56.000Z</time>
      </trkpt>
      <trkpt lat="42.91905" lon="0.58829">
        <ele>1511</ele>
        <time>2019-02-03T12:50:57.000Z</time>
      </trkpt>
      <trkpt lat="42.91905" lon="0.58829">
        <ele>1511</ele>
        <time>2019-02-03T12:50:58.000Z</time>
      </trkpt>
      <trkpt lat="42.91905" lon="0.58829">
        <ele>1511</ele>
        <time>2019-02-03T12:50:59.000Z</time>
      </trkpt>
      <trkpt lat="42.91905" lon="0.58829">
        <ele>1511</ele>
        <time>2019-02-03T12:51:00.000Z</time>
      </trkpt>
      <trkpt lat="42.91905" lon="0.58829">
        <ele>1511</ele>
        <time>2019-02-03T12:51:01.000Z</time>
      </trkpt>
      <trkpt lat="42.91905" lon="0.58828">
        <ele>1511</ele>
        <time>2019-02-03T12:51:02.000Z</time>
      </trkpt>
      <trkpt lat="42.91904" lon="0.58828">
        <ele>1511</ele>
        <time>2019-02-03T12:51:03.000Z</time>
      </trkpt>
      <trkpt lat="42.91904" lon="0.58828">
        <ele>1511</ele>
        <time>2019-02-03T12:51:04.000Z</time>
      </trkpt>
      <trkpt lat="42.91904" lon="0.58828">
        <ele>1510.7</ele>
        <time>2019-02-03T12:51:05.000Z</time>
      </trkpt>
      <trkpt lat="42.91904" lon="0.58828">
        <ele>1510.3</ele>
        <time>2019-02-03T12:51:06.000Z</time>
      </trkpt>
      <trkpt lat="42.91904" lon="0.58828">
        <ele>1510</ele>
        <time>2019-02-03T12:51:07.000Z</time>
      </trkpt>
      <trkpt lat="42.91904" lon="0.58828">
        <ele>1510</ele>
        <time>2019-02-03T12:51:08.000Z</time>
      </trkpt>
      <trkpt lat="42.91904" lon="0.58828">
        <ele>1510</ele>
        <time>2019-02-03T12:51:09.000Z</time>
      </trkpt>
      <trkpt lat="42.91904" lon="0.58828">
        <ele>1511</ele>
        <time>2019-02-03T12:51:10.000Z</time>
      </trkpt>
      <trkpt lat="42.91904" lon="0.58828">
        <ele>1511</ele>
        <time>2019-02-03T12:51:11.000Z</time>
      </trkpt>
      <trkpt lat="42.91904" lon="0.58828">
        <ele>1511</ele>
        <time>2019-02-03T12:51:12.000Z</time>
      </trkpt>
      <trkpt lat="42.91904" lon="0.58828">
        <ele>1511</ele>
        <time>2019-02-03T12:51:13.000Z</time>
      </trkpt>
      <trkpt lat="42.91904" lon="0.58828">
        <ele>1511</ele>
        <time>2019-02-03T12:51:14.000Z</time>
      </trkpt>
      <trkpt lat="42.91904" lon="0.58828">
        <ele>1511</ele>
        <time>2019-02-03T12:51:15.000Z</time>
      </trkpt>
      <trkpt lat="42.91904" lon="0.58828">
        <ele>1511</ele>
        <time>2019-02-03T12:51:16.000Z</time>
      </trkpt>
      <trkpt lat="42.91904" lon="0.58828">
        <ele>1511</ele>
        <time>2019-02-03T12:51:17.000Z</time>
      </trkpt>
      <trkpt lat="42.91904" lon="0.58828">
        <ele>1510</ele>
        <time>2019-02-03T12:51:18.000Z</time>
      </trkpt>
      <trkpt lat="42.91904" lon="0.58827">
        <ele>1510</ele>
        <time>2019-02-03T12:51:19.000Z</time>
      </trkpt>
      <trkpt lat="42.91904" lon="0.58827">
        <ele>1510</ele>
        <time>2019-02-03T12:51:20.000Z</time>
      </trkpt>
      <trkpt lat="42.91904" lon="0.58827">
        <ele>1510</ele>
        <time>2019-02-03T12:51:21.000Z</time>
      </trkpt>
      <trkpt lat="42.91904" lon="0.58827">
        <ele>1510</ele>
        <time>2019-02-03T12:51:22.000Z</time>
      </trkpt>
      <trkpt lat="42.91904" lon="0.58827">
        <ele>1510</ele>
        <time>2019-02-03T12:51:23.000Z</time>
      </trkpt>
      <trkpt lat="42.91904" lon="0.58827">
        <ele>1510</ele>
        <time>2019-02-03T12:51:24.000Z</time>
      </trkpt>
      <trkpt lat="42.91904" lon="0.58827">
        <ele>1510</ele>
        <time>2019-02-03T12:51:25.000Z</time>
      </trkpt>
      <trkpt lat="42.91904" lon="0.58827">
        <ele>1510</ele>
        <time>2019-02-03T12:51:26.000Z</time>
      </trkpt>
      <trkpt lat="42.91904" lon="0.58827">
        <ele>1510</ele>
        <time>2019-02-03T12:51:27.000Z</time>
      </trkpt>
      <trkpt lat="42.91904" lon="0.58827">
        <ele>1510</ele>
        <time>2019-02-03T12:51:28.000Z</time>
      </trkpt>
      <trkpt lat="42.91904" lon="0.58827">
        <ele>1510</ele>
        <time>2019-02-03T12:51:29.000Z</time>
      </trkpt>
      <trkpt lat="42.91904" lon="0.58827">
        <ele>1510</ele>
        <time>2019-02-03T12:51:30.000Z</time>
      </trkpt>
      <trkpt lat="42.91904" lon="0.58827">
        <ele>1510</ele>
        <time>2019-02-03T12:51:31.000Z</time>
      </trkpt>
      <trkpt lat="42.91904" lon="0.58827">
        <ele>1510</ele>
        <time>2019-02-03T12:51:32.000Z</time>
      </trkpt>
      <trkpt lat="42.91904" lon="0.58826">
        <ele>1510</ele>
        <time>2019-02-03T12:51:33.000Z</time>
      </trkpt>
      <trkpt lat="42.91904" lon="0.58826">
        <ele>1510</ele>
        <time>2019-02-03T12:51:34.000Z</time>
      </trkpt>
      <trkpt lat="42.91904" lon="0.58826">
        <ele>1510</ele>
        <time>2019-02-03T12:51:35.000Z</time>
      </trkpt>
      <trkpt lat="42.91904" lon="0.58826">
        <ele>1510</ele>
        <time>2019-02-03T12:51:36.000Z</time>
      </trkpt>
      <trkpt lat="42.91905" lon="0.58826">
        <ele>1510</ele>
        <time>2019-02-03T12:51:37.000Z</time>
      </trkpt>
      <trkpt lat="42.91905" lon="0.58826">
        <ele>1511</ele>
        <time>2019-02-03T12:51:38.000Z</time>
      </trkpt>
      <trkpt lat="42.91905" lon="0.58826">
        <ele>1511</ele>
        <time>2019-02-03T12:51:39.000Z</time>
      </trkpt>
      <trkpt lat="42.91905" lon="0.58826">
        <ele>1511</ele>
        <time>2019-02-03T12:51:40.000Z</time>
      </trkpt>
      <trkpt lat="42.91905" lon="0.58826">
        <ele>1511</ele>
        <time>2019-02-03T12:51:41.000Z</time>
      </trkpt>
      <trkpt lat="42.91905" lon="0.58826">
        <ele>1511</ele>
        <time>2019-02-03T12:51:42.000Z</time>
      </trkpt>
      <trkpt lat="42.91905" lon="0.58826">
        <ele>1511</ele>
        <time>2019-02-03T12:51:43.000Z</time>
      </trkpt>
      <trkpt lat="42.91905" lon="0.58826">
        <ele>1511</ele>
        <time>2019-02-03T12:51:44.000Z</time>
      </trkpt>
      <trkpt lat="42.91905" lon="0.58826">
        <ele>1511</ele>
        <time>2019-02-03T12:51:45.000Z</time>
      </trkpt>
      <trkpt lat="42.91905" lon="0.58826">
        <ele>1511</ele>
        <time>2019-02-03T12:51:46.000Z</time>
      </trkpt>
      <trkpt lat="42.91905" lon="0.58826">
        <ele>1511</ele>
        <time>2019-02-03T12:51:47.000Z</time>
      </trkpt>
      <trkpt lat="42.91905" lon="0.58826">
        <ele>1511</ele>
        <time>2019-02-03T12:51:48.000Z</time>
      </trkpt>
      <trkpt lat="42.91905" lon="0.58826">
        <ele>1511</ele>
        <time>2019-02-03T12:51:49.000Z</time>
      </trkpt>
      <trkpt lat="42.91905" lon="0.58826">
        <ele>1511</ele>
        <time>2019-02-03T12:51:50.000Z</time>
      </trkpt>
      <trkpt lat="42.91905" lon="0.58826">
        <ele>1511</ele>
        <time>2019-02-03T12:51:51.000Z</time>
      </trkpt>
      <trkpt lat="42.91905" lon="0.58826">
        <ele>1511</ele>
        <time>2019-02-03T12:51:52.000Z</time>
      </trkpt>
      <trkpt lat="42.91905" lon="0.58826">
        <ele>1511</ele>
        <time>2019-02-03T12:51:53.000Z</time>
      </trkpt>
      <trkpt lat="42.91905" lon="0.58825">
        <ele>1511</ele>
        <time>2019-02-03T12:51:54.000Z</time>
      </trkpt>
      <trkpt lat="42.91905" lon="0.58825">
        <ele>1511</ele>
        <time>2019-02-03T12:51:55.000Z</time>
      </trkpt>
      <trkpt lat="42.91905" lon="0.58825">
        <ele>1511</ele>
        <time>2019-02-03T12:51:56.000Z</time>
      </trkpt>
      <trkpt lat="42.91905" lon="0.58825">
        <ele>1511</ele>
        <time>2019-02-03T12:51:57.000Z</time>
      </trkpt>
      <trkpt lat="42.91905" lon="0.58825">
        <ele>1511</ele>
        <time>2019-02-03T12:51:58.000Z</time>
      </trkpt>
      <trkpt lat="42.91905" lon="0.58825">
        <ele>1511</ele>
        <time>2019-02-03T12:51:59.000Z</time>
      </trkpt>
      <trkpt lat="42.91905" lon="0.58825">
        <ele>1511</ele>
        <time>2019-02-03T12:52:00.000Z</time>
      </trkpt>
      <trkpt lat="42.91905" lon="0.58825">
        <ele>1511</ele>
        <time>2019-02-03T12:52:01.000Z</time>
      </trkpt>
      <trkpt lat="42.91905" lon="0.58825">
        <ele>1511</ele>
        <time>2019-02-03T12:52:02.000Z</time>
      </trkpt>
      <trkpt lat="42.91905" lon="0.58825">
        <ele>1511</ele>
        <time>2019-02-03T12:52:03.000Z</time>
      </trkpt>
      <trkpt lat="42.91905" lon="0.58825">
        <ele>1511</ele>
        <time>2019-02-03T12:52:04.000Z</time>
      </trkpt>
      <trkpt lat="42.91905" lon="0.58825">
        <ele>1511</ele>
        <time>2019-02-03T12:52:05.000Z</time>
      </trkpt>
      <trkpt lat="42.91905" lon="0.58825">
        <ele>1511</ele>
        <time>2019-02-03T12:52:06.000Z</time>
      </trkpt>
      <trkpt lat="42.91905" lon="0.58825">
        <ele>1511</ele>
        <time>2019-02-03T12:52:07.000Z</time>
      </trkpt>
      <trkpt lat="42.91905" lon="0.58825">
        <ele>1511</ele>
        <time>2019-02-03T12:52:08.000Z</time>
      </trkpt>
      <trkpt lat="42.91905" lon="0.58825">
        <ele>1511</ele>
        <time>2019-02-03T12:52:09.000Z</time>
      </trkpt>
      <trkpt lat="42.91905" lon="0.58825">
        <ele>1511</ele>
        <time>2019-02-03T12:52:10.000Z</time>
      </trkpt>
      <trkpt lat="42.91905" lon="0.58825">
        <ele>1510.7</ele>
        <time>2019-02-03T12:52:11.000Z</time>
      </trkpt>
      <trkpt lat="42.91905" lon="0.58825">
        <ele>1510.3</ele>
        <time>2019-02-03T12:52:12.000Z</time>
      </trkpt>
      <trkpt lat="42.91905" lon="0.58825">
        <ele>1510</ele>
        <time>2019-02-03T12:52:13.000Z</time>
      </trkpt>
      <trkpt lat="42.91905" lon="0.58825">
        <ele>1510</ele>
        <time>2019-02-03T12:52:14.000Z</time>
      </trkpt>
      <trkpt lat="42.91905" lon="0.58825">
        <ele>1510</ele>
        <time>2019-02-03T12:52:15.000Z</time>
      </trkpt>
      <trkpt lat="42.91905" lon="0.58825">
        <ele>1510</ele>
        <time>2019-02-03T12:52:16.000Z</time>
      </trkpt>
      <trkpt lat="42.91905" lon="0.58825">
        <ele>1510</ele>
        <time>2019-02-03T12:52:17.000Z</time>
      </trkpt>
      <trkpt lat="42.91905" lon="0.58825">
        <ele>1510</ele>
        <time>2019-02-03T12:52:18.000Z</time>
      </trkpt>
      <trkpt lat="42.91905" lon="0.58825">
        <ele>1510.5</ele>
        <time>2019-02-03T12:52:19.000Z</time>
      </trkpt>
      <trkpt lat="42.91905" lon="0.58825">
        <ele>1511</ele>
        <time>2019-02-03T12:52:20.000Z</time>
      </trkpt>
      <trkpt lat="42.91905" lon="0.58825">
        <ele>1511</ele>
        <time>2019-02-03T12:52:21.000Z</time>
      </trkpt>
      <trkpt lat="42.91905" lon="0.58825">
        <ele>1511</ele>
        <time>2019-02-03T12:52:22.000Z</time>
      </trkpt>
      <trkpt lat="42.91905" lon="0.58825">
        <ele>1511</ele>
        <time>2019-02-03T12:52:23.000Z</time>
      </trkpt>
      <trkpt lat="42.91905" lon="0.58825">
        <ele>1511</ele>
        <time>2019-02-03T12:52:24.000Z</time>
      </trkpt>
      <trkpt lat="42.91905" lon="0.58825">
        <ele>1511</ele>
        <time>2019-02-03T12:52:25.000Z</time>
      </trkpt>
      <trkpt lat="42.91905" lon="0.58825">
        <ele>1511</ele>
        <time>2019-02-03T12:52:26.000Z</time>
      </trkpt>
      <trkpt lat="42.91905" lon="0.58825">
        <ele>1511</ele>
        <time>2019-02-03T12:52:27.000Z</time>
      </trkpt>
      <trkpt lat="42.91905" lon="0.58825">
        <ele>1510</ele>
        <time>2019-02-03T12:52:28.000Z</time>
      </trkpt>
      <trkpt lat="42.91905" lon="0.58825">
        <ele>1510</ele>
        <time>2019-02-03T12:52:29.000Z</time>
      </trkpt>
      <trkpt lat="42.91905" lon="0.58825">
        <ele>1510</ele>
        <time>2019-02-03T12:52:30.000Z</time>
      </trkpt>
      <trkpt lat="42.91905" lon="0.58825">
        <ele>1510</ele>
        <time>2019-02-03T12:52:31.000Z</time>
      </trkpt>
      <trkpt lat="42.91905" lon="0.58825">
        <ele>1510</ele>
        <time>2019-02-03T12:52:32.000Z</time>
      </trkpt>
      <trkpt lat="42.91905" lon="0.58825">
        <ele>1510</ele>
        <time>2019-02-03T12:52:33.000Z</time>
      </trkpt>
      <trkpt lat="42.91905" lon="0.58825">
        <ele>1510</ele>
        <time>2019-02-03T12:52:34.000Z</time>
      </trkpt>
      <trkpt lat="42.91905" lon="0.58825">
        <ele>1510</ele>
        <time>2019-02-03T12:52:35.000Z</time>
      </trkpt>
      <trkpt lat="42.91905" lon="0.58825">
        <ele>1510</ele>
        <time>2019-02-03T12:52:36.000Z</time>
      </trkpt>
      <trkpt lat="42.91905" lon="0.58825">
        <ele>1510</ele>
        <time>2019-02-03T12:52:37.000Z</time>
      </trkpt>
      <trkpt lat="42.91905" lon="0.58825">
        <ele>1510</ele>
        <time>2019-02-03T12:52:38.000Z</time>
      </trkpt>
      <trkpt lat="42.91905" lon="0.58825">
        <ele>1510</ele>
        <time>2019-02-03T12:52:39.000Z</time>
      </trkpt>
      <trkpt lat="42.91905" lon="0.58825">
        <ele>1510</ele>
        <time>2019-02-03T12:52:40.000Z</time>
      </trkpt>
      <trkpt lat="42.91905" lon="0.58825">
        <ele>1510</ele>
        <time>2019-02-03T12:52:41.000Z</time>
      </trkpt>
      <trkpt lat="42.91905" lon="0.58825">
        <ele>1510</ele>
        <time>2019-02-03T12:52:42.000Z</time>
      </trkpt>
      <trkpt lat="42.91905" lon="0.58825">
        <ele>1510</ele>
        <time>2019-02-03T12:52:43.000Z</time>
      </trkpt>
      <trkpt lat="42.91905" lon="0.58825">
        <ele>1510</ele>
        <time>2019-02-03T12:52:44.000Z</time>
      </trkpt>
      <trkpt lat="42.91905" lon="0.58825">
        <ele>1510</ele>
        <time>2019-02-03T12:52:45.000Z</time>
      </trkpt>
      <trkpt lat="42.91905" lon="0.58825">
        <ele>1510</ele>
        <time>2019-02-03T12:52:46.000Z</time>
      </trkpt>
      <trkpt lat="42.91905" lon="0.58825">
        <ele>1510</ele>
        <time>2019-02-03T12:52:47.000Z</time>
      </trkpt>
      <trkpt lat="42.91905" lon="0.58825">
        <ele>1510</ele>
        <time>2019-02-03T12:52:48.000Z</time>
      </trkpt>
      <trkpt lat="42.91905" lon="0.58824">
        <ele>1510</ele>
        <time>2019-02-03T12:52:49.000Z</time>
      </trkpt>
      <trkpt lat="42.91905" lon="0.58824">
        <ele>1510.5</ele>
        <time>2019-02-03T12:52:50.000Z</time>
      </trkpt>
      <trkpt lat="42.91905" lon="0.58824">
        <ele>1511</ele>
        <time>2019-02-03T12:52:51.000Z</time>
      </trkpt>
      <trkpt lat="42.91905" lon="0.58824">
        <ele>1511</ele>
        <time>2019-02-03T12:52:52.000Z</time>
      </trkpt>
      <trkpt lat="42.91905" lon="0.58824">
        <ele>1511</ele>
        <time>2019-02-03T12:52:53.000Z</time>
      </trkpt>
      <trkpt lat="42.91905" lon="0.58824">
        <ele>1511</ele>
        <time>2019-02-03T12:52:54.000Z</time>
      </trkpt>
      <trkpt lat="42.91905" lon="0.58824">
        <ele>1510.7</ele>
        <time>2019-02-03T12:52:55.000Z</time>
      </trkpt>
      <trkpt lat="42.91905" lon="0.58824">
        <ele>1510.3</ele>
        <time>2019-02-03T12:52:56.000Z</time>
      </trkpt>
      <trkpt lat="42.91904" lon="0.58824">
        <ele>1510</ele>
        <time>2019-02-03T12:52:57.000Z</time>
      </trkpt>
      <trkpt lat="42.91904" lon="0.58824">
        <ele>1511</ele>
        <time>2019-02-03T12:52:58.000Z</time>
      </trkpt>
      <trkpt lat="42.91904" lon="0.58825">
        <ele>1511</ele>
        <time>2019-02-03T12:52:59.000Z</time>
      </trkpt>
      <trkpt lat="42.91904" lon="0.58825">
        <ele>1511</ele>
        <time>2019-02-03T12:53:00.000Z</time>
      </trkpt>
      <trkpt lat="42.91904" lon="0.58825">
        <ele>1510.7</ele>
        <time>2019-02-03T12:53:01.000Z</time>
      </trkpt>
      <trkpt lat="42.91904" lon="0.58825">
        <ele>1510.3</ele>
        <time>2019-02-03T12:53:02.000Z</time>
      </trkpt>
      <trkpt lat="42.91904" lon="0.58825">
        <ele>1510</ele>
        <time>2019-02-03T12:53:03.000Z</time>
      </trkpt>
      <trkpt lat="42.91904" lon="0.58825">
        <ele>1510</ele>
        <time>2019-02-03T12:53:04.000Z</time>
      </trkpt>
      <trkpt lat="42.91904" lon="0.58826">
        <ele>1510</ele>
        <time>2019-02-03T12:53:05.000Z</time>
      </trkpt>
      <trkpt lat="42.91904" lon="0.58826">
        <ele>1510</ele>
        <time>2019-02-03T12:53:06.000Z</time>
      </trkpt>
      <trkpt lat="42.91904" lon="0.58826">
        <ele>1510</ele>
        <time>2019-02-03T12:53:07.000Z</time>
      </trkpt>
      <trkpt lat="42.91904" lon="0.58826">
        <ele>1510</ele>
        <time>2019-02-03T12:53:08.000Z</time>
      </trkpt>
      <trkpt lat="42.91904" lon="0.58826">
        <ele>1510</ele>
        <time>2019-02-03T12:53:09.000Z</time>
      </trkpt>
      <trkpt lat="42.91904" lon="0.58826">
        <ele>1510</ele>
        <time>2019-02-03T12:53:10.000Z</time>
      </trkpt>
      <trkpt lat="42.91904" lon="0.58826">
        <ele>1510</ele>
        <time>2019-02-03T12:53:11.000Z</time>
      </trkpt>
      <trkpt lat="42.91904" lon="0.58826">
        <ele>1510</ele>
        <time>2019-02-03T12:53:12.000Z</time>
      </trkpt>
      <trkpt lat="42.91904" lon="0.58826">
        <ele>1510</ele>
        <time>2019-02-03T12:53:13.000Z</time>
      </trkpt>
      <trkpt lat="42.91904" lon="0.58826">
        <ele>1510</ele>
        <time>2019-02-03T12:53:14.000Z</time>
      </trkpt>
      <trkpt lat="42.91904" lon="0.58826">
        <ele>1510</ele>
        <time>2019-02-03T12:53:15.000Z</time>
      </trkpt>
      <trkpt lat="42.91904" lon="0.58826">
        <ele>1510</ele>
        <time>2019-02-03T12:53:16.000Z</time>
      </trkpt>
      <trkpt lat="42.91904" lon="0.58826">
        <ele>1510</ele>
        <time>2019-02-03T12:53:17.000Z</time>
      </trkpt>
      <trkpt lat="42.91904" lon="0.58826">
        <ele>1510</ele>
        <time>2019-02-03T12:53:18.000Z</time>
      </trkpt>
      <trkpt lat="42.91904" lon="0.58826">
        <ele>1510</ele>
        <time>2019-02-03T12:53:19.000Z</time>
      </trkpt>
      <trkpt lat="42.91904" lon="0.58826">
        <ele>1510</ele>
        <time>2019-02-03T12:53:20.000Z</time>
      </trkpt>
      <trkpt lat="42.91904" lon="0.58826">
        <ele>1510</ele>
        <time>2019-02-03T12:53:21.000Z</time>
      </trkpt>
      <trkpt lat="42.91904" lon="0.58826">
        <ele>1510</ele>
        <time>2019-02-03T12:53:22.000Z</time>
      </trkpt>
      <trkpt lat="42.91904" lon="0.58826">
        <ele>1510</ele>
        <time>2019-02-03T12:53:23.000Z</time>
      </trkpt>
      <trkpt lat="42.91904" lon="0.58826">
        <ele>1510</ele>
        <time>2019-02-03T12:53:24.000Z</time>
      </trkpt>
      <trkpt lat="42.91904" lon="0.58826">
        <ele>1510</ele>
        <time>2019-02-03T12:53:25.000Z</time>
      </trkpt>
      <trkpt lat="42.91904" lon="0.58826">
        <ele>1510</ele>
        <time>2019-02-03T12:53:26.000Z</time>
      </trkpt>
      <trkpt lat="42.91904" lon="0.58826">
        <ele>1510</ele>
        <time>2019-02-03T12:53:27.000Z</time>
      </trkpt>
      <trkpt lat="42.91903" lon="0.58826">
        <ele>1510</ele>
        <time>2019-02-03T12:53:28.000Z</time>
      </trkpt>
      <trkpt lat="42.91903" lon="0.58826">
        <ele>1510</ele>
        <time>2019-02-03T12:53:29.000Z</time>
      </trkpt>
      <trkpt lat="42.91903" lon="0.58826">
        <ele>1510</ele>
        <time>2019-02-03T12:53:30.000Z</time>
      </trkpt>
      <trkpt lat="42.91903" lon="0.58826">
        <ele>1510</ele>
        <time>2019-02-03T12:53:31.000Z</time>
      </trkpt>
      <trkpt lat="42.91903" lon="0.58826">
        <ele>1510</ele>
        <time>2019-02-03T12:53:32.000Z</time>
      </trkpt>
      <trkpt lat="42.91903" lon="0.58826">
        <ele>1510</ele>
        <time>2019-02-03T12:53:33.000Z</time>
      </trkpt>
      <trkpt lat="42.91902" lon="0.58826">
        <ele>1510</ele>
        <time>2019-02-03T12:53:34.000Z</time>
      </trkpt>
      <trkpt lat="42.91902" lon="0.58826">
        <ele>1510.3</ele>
        <time>2019-02-03T12:53:35.000Z</time>
      </trkpt>
      <trkpt lat="42.91902" lon="0.58826">
        <ele>1510.7</ele>
        <time>2019-02-03T12:53:36.000Z</time>
      </trkpt>
      <trkpt lat="42.91902" lon="0.58826">
        <ele>1511</ele>
        <time>2019-02-03T12:53:37.000Z</time>
      </trkpt>
      <trkpt lat="42.91902" lon="0.58826">
        <ele>1511</ele>
        <time>2019-02-03T12:53:38.000Z</time>
      </trkpt>
      <trkpt lat="42.91902" lon="0.58826">
        <ele>1511</ele>
        <time>2019-02-03T12:53:39.000Z</time>
      </trkpt>
      <trkpt lat="42.91902" lon="0.58826">
        <ele>1511</ele>
        <time>2019-02-03T12:53:40.000Z</time>
      </trkpt>
      <trkpt lat="42.91902" lon="0.58826">
        <ele>1511</ele>
        <time>2019-02-03T12:53:41.000Z</time>
      </trkpt>
      <trkpt lat="42.91902" lon="0.58826">
        <ele>1511</ele>
        <time>2019-02-03T12:53:42.000Z</time>
      </trkpt>
      <trkpt lat="42.91902" lon="0.58826">
        <ele>1511</ele>
        <time>2019-02-03T12:53:43.000Z</time>
      </trkpt>
      <trkpt lat="42.91902" lon="0.58826">
        <ele>1511</ele>
        <time>2019-02-03T12:53:44.000Z</time>
      </trkpt>
      <trkpt lat="42.91902" lon="0.58826">
        <ele>1511</ele>
        <time>2019-02-03T12:53:45.000Z</time>
      </trkpt>
      <trkpt lat="42.91902" lon="0.58826">
        <ele>1511</ele>
        <time>2019-02-03T12:53:46.000Z</time>
      </trkpt>
      <trkpt lat="42.91902" lon="0.58826">
        <ele>1511</ele>
        <time>2019-02-03T12:53:47.000Z</time>
      </trkpt>
      <trkpt lat="42.91902" lon="0.58826">
        <ele>1511</ele>
        <time>2019-02-03T12:53:48.000Z</time>
      </trkpt>
      <trkpt lat="42.91902" lon="0.58826">
        <ele>1511</ele>
        <time>2019-02-03T12:53:49.000Z</time>
      </trkpt>
      <trkpt lat="42.91902" lon="0.58826">
        <ele>1511</ele>
        <time>2019-02-03T12:53:50.000Z</time>
      </trkpt>
      <trkpt lat="42.91902" lon="0.58826">
        <ele>1511</ele>
        <time>2019-02-03T12:53:51.000Z</time>
      </trkpt>
      <trkpt lat="42.91902" lon="0.58826">
        <ele>1511</ele>
        <time>2019-02-03T12:53:52.000Z</time>
      </trkpt>
      <trkpt lat="42.91902" lon="0.58826">
        <ele>1511</ele>
        <time>2019-02-03T12:53:53.000Z</time>
      </trkpt>
      <trkpt lat="42.91902" lon="0.58826">
        <ele>1511</ele>
        <time>2019-02-03T12:53:54.000Z</time>
      </trkpt>
      <trkpt lat="42.91902" lon="0.58826">
        <ele>1511</ele>
        <time>2019-02-03T12:53:55.000Z</time>
      </trkpt>
      <trkpt lat="42.91902" lon="0.58826">
        <ele>1511</ele>
        <time>2019-02-03T12:53:56.000Z</time>
      </trkpt>
      <trkpt lat="42.91902" lon="0.58826">
        <ele>1511</ele>
        <time>2019-02-03T12:53:57.000Z</time>
      </trkpt>
      <trkpt lat="42.91902" lon="0.58826">
        <ele>1511</ele>
        <time>2019-02-03T12:53:58.000Z</time>
      </trkpt>
      <trkpt lat="42.91902" lon="0.58827">
        <ele>1511</ele>
        <time>2019-02-03T12:53:59.000Z</time>
      </trkpt>
      <trkpt lat="42.91902" lon="0.58827">
        <ele>1511</ele>
        <time>2019-02-03T12:54:00.000Z</time>
      </trkpt>
      <trkpt lat="42.91902" lon="0.58827">
        <ele>1511</ele>
        <time>2019-02-03T12:54:01.000Z</time>
      </trkpt>
      <trkpt lat="42.91902" lon="0.58827">
        <ele>1511</ele>
        <time>2019-02-03T12:54:02.000Z</time>
      </trkpt>
      <trkpt lat="42.91902" lon="0.58827">
        <ele>1511</ele>
        <time>2019-02-03T12:54:03.000Z</time>
      </trkpt>
      <trkpt lat="42.91903" lon="0.58827">
        <ele>1511</ele>
        <time>2019-02-03T12:54:04.000Z</time>
      </trkpt>
      <trkpt lat="42.91903" lon="0.58827">
        <ele>1511</ele>
        <time>2019-02-03T12:54:05.000Z</time>
      </trkpt>
      <trkpt lat="42.91903" lon="0.58827">
        <ele>1511</ele>
        <time>2019-02-03T12:54:06.000Z</time>
      </trkpt>
      <trkpt lat="42.91903" lon="0.58828">
        <ele>1511</ele>
        <time>2019-02-03T12:54:07.000Z</time>
      </trkpt>
      <trkpt lat="42.91903" lon="0.58828">
        <ele>1511</ele>
        <time>2019-02-03T12:54:08.000Z</time>
      </trkpt>
      <trkpt lat="42.91903" lon="0.58828">
        <ele>1511</ele>
        <time>2019-02-03T12:54:09.000Z</time>
      </trkpt>
      <trkpt lat="42.91903" lon="0.58828">
        <ele>1511</ele>
        <time>2019-02-03T12:54:10.000Z</time>
      </trkpt>
      <trkpt lat="42.91903" lon="0.58829">
        <ele>1511</ele>
        <time>2019-02-03T12:54:11.000Z</time>
      </trkpt>
      <trkpt lat="42.91903" lon="0.58829">
        <ele>1511</ele>
        <time>2019-02-03T12:54:12.000Z</time>
      </trkpt>
      <trkpt lat="42.91903" lon="0.58829">
        <ele>1511</ele>
        <time>2019-02-03T12:54:13.000Z</time>
      </trkpt>
      <trkpt lat="42.91903" lon="0.58829">
        <ele>1511</ele>
        <time>2019-02-03T12:54:14.000Z</time>
      </trkpt>
      <trkpt lat="42.91903" lon="0.58829">
        <ele>1511</ele>
        <time>2019-02-03T12:54:15.000Z</time>
      </trkpt>
      <trkpt lat="42.91903" lon="0.58829">
        <ele>1511</ele>
        <time>2019-02-03T12:54:16.000Z</time>
      </trkpt>
      <trkpt lat="42.91903" lon="0.5883">
        <ele>1511</ele>
        <time>2019-02-03T12:54:17.000Z</time>
      </trkpt>
      <trkpt lat="42.91903" lon="0.5883">
        <ele>1511</ele>
        <time>2019-02-03T12:54:18.000Z</time>
      </trkpt>
      <trkpt lat="42.91903" lon="0.5883">
        <ele>1511</ele>
        <time>2019-02-03T12:54:19.000Z</time>
      </trkpt>
      <trkpt lat="42.91903" lon="0.5883">
        <ele>1511</ele>
        <time>2019-02-03T12:54:20.000Z</time>
      </trkpt>
      <trkpt lat="42.91903" lon="0.5883">
        <ele>1511</ele>
        <time>2019-02-03T12:54:21.000Z</time>
      </trkpt>
      <trkpt lat="42.91903" lon="0.5883">
        <ele>1510</ele>
        <time>2019-02-03T12:54:22.000Z</time>
      </trkpt>
      <trkpt lat="42.91903" lon="0.5883">
        <ele>1510</ele>
        <time>2019-02-03T12:54:23.000Z</time>
      </trkpt>
      <trkpt lat="42.91903" lon="0.5883">
        <ele>1510</ele>
        <time>2019-02-03T12:54:24.000Z</time>
      </trkpt>
      <trkpt lat="42.91903" lon="0.5883">
        <ele>1510</ele>
        <time>2019-02-03T12:54:25.000Z</time>
      </trkpt>
      <trkpt lat="42.91903" lon="0.5883">
        <ele>1510</ele>
        <time>2019-02-03T12:54:26.000Z</time>
      </trkpt>
      <trkpt lat="42.91903" lon="0.5883">
        <ele>1510</ele>
        <time>2019-02-03T12:54:27.000Z</time>
      </trkpt>
      <trkpt lat="42.91903" lon="0.5883">
        <ele>1510</ele>
        <time>2019-02-03T12:54:28.000Z</time>
      </trkpt>
      <trkpt lat="42.91903" lon="0.5883">
        <ele>1510</ele>
        <time>2019-02-03T12:54:29.000Z</time>
      </trkpt>
      <trkpt lat="42.91903" lon="0.5883">
        <ele>1510</ele>
        <time>2019-02-03T12:54:30.000Z</time>
      </trkpt>
      <trkpt lat="42.91903" lon="0.5883">
        <ele>1510</ele>
        <time>2019-02-03T12:54:31.000Z</time>
      </trkpt>
      <trkpt lat="42.91903" lon="0.5883">
        <ele>1510</ele>
        <time>2019-02-03T12:54:32.000Z</time>
      </trkpt>
      <trkpt lat="42.91903" lon="0.5883">
        <ele>1510</ele>
        <time>2019-02-03T12:54:33.000Z</time>
      </trkpt>
      <trkpt lat="42.91903" lon="0.5883">
        <ele>1510</ele>
        <time>2019-02-03T12:54:34.000Z</time>
      </trkpt>
      <trkpt lat="42.91903" lon="0.5883">
        <ele>1510</ele>
        <time>2019-02-03T12:54:35.000Z</time>
      </trkpt>
      <trkpt lat="42.91903" lon="0.5883">
        <ele>1510</ele>
        <time>2019-02-03T12:54:36.000Z</time>
      </trkpt>
      <trkpt lat="42.91903" lon="0.5883">
        <ele>1510</ele>
        <time>2019-02-03T12:54:37.000Z</time>
      </trkpt>
      <trkpt lat="42.91903" lon="0.5883">
        <ele>1510</ele>
        <time>2019-02-03T12:54:38.000Z</time>
      </trkpt>
      <trkpt lat="42.91903" lon="0.5883">
        <ele>1510</ele>
        <time>2019-02-03T12:54:39.000Z</time>
      </trkpt>
      <trkpt lat="42.91903" lon="0.5883">
        <ele>1510</ele>
        <time>2019-02-03T12:54:40.000Z</time>
      </trkpt>
      <trkpt lat="42.91903" lon="0.58831">
        <ele>1510</ele>
        <time>2019-02-03T12:54:41.000Z</time>
      </trkpt>
      <trkpt lat="42.91903" lon="0.58831">
        <ele>1510</ele>
        <time>2019-02-03T12:54:42.000Z</time>
      </trkpt>
      <trkpt lat="42.91903" lon="0.58831">
        <ele>1510</ele>
        <time>2019-02-03T12:54:43.000Z</time>
      </trkpt>
      <trkpt lat="42.91903" lon="0.58831">
        <ele>1510</ele>
        <time>2019-02-03T12:54:44.000Z</time>
      </trkpt>
      <trkpt lat="42.91903" lon="0.58831">
        <ele>1510</ele>
        <time>2019-02-03T12:54:45.000Z</time>
      </trkpt>
      <trkpt lat="42.91903" lon="0.58832">
        <ele>1510</ele>
        <time>2019-02-03T12:54:46.000Z</time>
      </trkpt>
      <trkpt lat="42.91902" lon="0.58832">
        <ele>1510</ele>
        <time>2019-02-03T12:54:47.000Z</time>
      </trkpt>
      <trkpt lat="42.91902" lon="0.58832">
        <ele>1510</ele>
        <time>2019-02-03T12:54:48.000Z</time>
      </trkpt>
      <trkpt lat="42.91902" lon="0.58832">
        <ele>1510</ele>
        <time>2019-02-03T12:54:49.000Z</time>
      </trkpt>
      <trkpt lat="42.91902" lon="0.58832">
        <ele>1510</ele>
        <time>2019-02-03T12:54:50.000Z</time>
      </trkpt>
      <trkpt lat="42.91902" lon="0.58832">
        <ele>1510</ele>
        <time>2019-02-03T12:54:51.000Z</time>
      </trkpt>
      <trkpt lat="42.91902" lon="0.58831">
        <ele>1510</ele>
        <time>2019-02-03T12:54:52.000Z</time>
      </trkpt>
      <trkpt lat="42.91901" lon="0.58831">
        <ele>1510</ele>
        <time>2019-02-03T12:54:53.000Z</time>
      </trkpt>
      <trkpt lat="42.91901" lon="0.58831">
        <ele>1510</ele>
        <time>2019-02-03T12:54:54.000Z</time>
      </trkpt>
      <trkpt lat="42.91901" lon="0.58831">
        <ele>1510</ele>
        <time>2019-02-03T12:54:55.000Z</time>
      </trkpt>
      <trkpt lat="42.91902" lon="0.58831">
        <ele>1510</ele>
        <time>2019-02-03T12:54:56.000Z</time>
      </trkpt>
      <trkpt lat="42.91902" lon="0.58831">
        <ele>1510</ele>
        <time>2019-02-03T12:54:57.000Z</time>
      </trkpt>
      <trkpt lat="42.91902" lon="0.5883">
        <ele>1510</ele>
        <time>2019-02-03T12:54:58.000Z</time>
      </trkpt>
      <trkpt lat="42.91902" lon="0.5883">
        <ele>1510</ele>
        <time>2019-02-03T12:54:59.000Z</time>
      </trkpt>
      <trkpt lat="42.91902" lon="0.5883">
        <ele>1510</ele>
        <time>2019-02-03T12:55:00.000Z</time>
      </trkpt>
      <trkpt lat="42.91903" lon="0.5883">
        <ele>1510</ele>
        <time>2019-02-03T12:55:01.000Z</time>
      </trkpt>
      <trkpt lat="42.91903" lon="0.5883">
        <ele>1510</ele>
        <time>2019-02-03T12:55:02.000Z</time>
      </trkpt>
      <trkpt lat="42.91903" lon="0.5883">
        <ele>1510</ele>
        <time>2019-02-03T12:55:03.000Z</time>
      </trkpt>
      <trkpt lat="42.91903" lon="0.5883">
        <ele>1510</ele>
        <time>2019-02-03T12:55:04.000Z</time>
      </trkpt>
      <trkpt lat="42.91903" lon="0.58829">
        <ele>1510</ele>
        <time>2019-02-03T12:55:05.000Z</time>
      </trkpt>
      <trkpt lat="42.91904" lon="0.58829">
        <ele>1510</ele>
        <time>2019-02-03T12:55:06.000Z</time>
      </trkpt>
      <trkpt lat="42.91904" lon="0.58829">
        <ele>1510</ele>
        <time>2019-02-03T12:55:07.000Z</time>
      </trkpt>
      <trkpt lat="42.91904" lon="0.58829">
        <ele>1510</ele>
        <time>2019-02-03T12:55:08.000Z</time>
      </trkpt>
      <trkpt lat="42.91904" lon="0.58829">
        <ele>1510</ele>
        <time>2019-02-03T12:55:09.000Z</time>
      </trkpt>
      <trkpt lat="42.91904" lon="0.58829">
        <ele>1510</ele>
        <time>2019-02-03T12:55:10.000Z</time>
      </trkpt>
      <trkpt lat="42.91904" lon="0.58829">
        <ele>1510</ele>
        <time>2019-02-03T12:55:11.000Z</time>
      </trkpt>
      <trkpt lat="42.91904" lon="0.58829">
        <ele>1510</ele>
        <time>2019-02-03T12:55:12.000Z</time>
      </trkpt>
      <trkpt lat="42.91904" lon="0.58829">
        <ele>1510</ele>
        <time>2019-02-03T12:55:13.000Z</time>
      </trkpt>
      <trkpt lat="42.91904" lon="0.58829">
        <ele>1510</ele>
        <time>2019-02-03T12:55:14.000Z</time>
      </trkpt>
      <trkpt lat="42.91904" lon="0.58829">
        <ele>1510</ele>
        <time>2019-02-03T12:55:15.000Z</time>
      </trkpt>
      <trkpt lat="42.91904" lon="0.58829">
        <ele>1510</ele>
        <time>2019-02-03T12:55:16.000Z</time>
      </trkpt>
      <trkpt lat="42.91904" lon="0.58829">
        <ele>1510</ele>
        <time>2019-02-03T12:55:17.000Z</time>
      </trkpt>
      <trkpt lat="42.91904" lon="0.58829">
        <ele>1510</ele>
        <time>2019-02-03T12:55:18.000Z</time>
      </trkpt>
      <trkpt lat="42.91904" lon="0.58829">
        <ele>1510</ele>
        <time>2019-02-03T12:55:19.000Z</time>
      </trkpt>
      <trkpt lat="42.91904" lon="0.58829">
        <ele>1510</ele>
        <time>2019-02-03T12:55:20.000Z</time>
      </trkpt>
      <trkpt lat="42.91904" lon="0.58829">
        <ele>1510</ele>
        <time>2019-02-03T12:55:21.000Z</time>
      </trkpt>
      <trkpt lat="42.91904" lon="0.58829">
        <ele>1510</ele>
        <time>2019-02-03T12:55:22.000Z</time>
      </trkpt>
      <trkpt lat="42.91904" lon="0.58829">
        <ele>1510</ele>
        <time>2019-02-03T12:55:23.000Z</time>
      </trkpt>
      <trkpt lat="42.91904" lon="0.58829">
        <ele>1510</ele>
        <time>2019-02-03T12:55:24.000Z</time>
      </trkpt>
      <trkpt lat="42.91904" lon="0.58829">
        <ele>1510</ele>
        <time>2019-02-03T12:55:25.000Z</time>
      </trkpt>
      <trkpt lat="42.91904" lon="0.58829">
        <ele>1510</ele>
        <time>2019-02-03T12:55:26.000Z</time>
      </trkpt>
      <trkpt lat="42.91904" lon="0.58829">
        <ele>1510</ele>
        <time>2019-02-03T12:55:27.000Z</time>
      </trkpt>
      <trkpt lat="42.91904" lon="0.58829">
        <ele>1510</ele>
        <time>2019-02-03T12:55:28.000Z</time>
      </trkpt>
      <trkpt lat="42.91904" lon="0.58829">
        <ele>1510</ele>
        <time>2019-02-03T12:55:29.000Z</time>
      </trkpt>
      <trkpt lat="42.91904" lon="0.58829">
        <ele>1510</ele>
        <time>2019-02-03T12:55:30.000Z</time>
      </trkpt>
      <trkpt lat="42.91904" lon="0.58829">
        <ele>1510</ele>
        <time>2019-02-03T12:55:31.000Z</time>
      </trkpt>
      <trkpt lat="42.91904" lon="0.58829">
        <ele>1510</ele>
        <time>2019-02-03T12:55:32.000Z</time>
      </trkpt>
      <trkpt lat="42.91904" lon="0.58829">
        <ele>1510</ele>
        <time>2019-02-03T12:55:33.000Z</time>
      </trkpt>
      <trkpt lat="42.91904" lon="0.58829">
        <ele>1510</ele>
        <time>2019-02-03T12:55:34.000Z</time>
      </trkpt>
      <trkpt lat="42.91904" lon="0.58829">
        <ele>1510</ele>
        <time>2019-02-03T12:55:35.000Z</time>
      </trkpt>
      <trkpt lat="42.91904" lon="0.58829">
        <ele>1510</ele>
        <time>2019-02-03T12:55:36.000Z</time>
      </trkpt>
      <trkpt lat="42.91904" lon="0.58829">
        <ele>1510</ele>
        <time>2019-02-03T12:55:37.000Z</time>
      </trkpt>
      <trkpt lat="42.91904" lon="0.58829">
        <ele>1510</ele>
        <time>2019-02-03T12:55:38.000Z</time>
      </trkpt>
      <trkpt lat="42.91904" lon="0.58829">
        <ele>1510</ele>
        <time>2019-02-03T12:55:39.000Z</time>
      </trkpt>
      <trkpt lat="42.91904" lon="0.58829">
        <ele>1510</ele>
        <time>2019-02-03T12:55:40.000Z</time>
      </trkpt>
      <trkpt lat="42.91904" lon="0.58829">
        <ele>1510</ele>
        <time>2019-02-03T12:55:41.000Z</time>
      </trkpt>
      <trkpt lat="42.91904" lon="0.58828">
        <ele>1510</ele>
        <time>2019-02-03T12:55:42.000Z</time>
      </trkpt>
      <trkpt lat="42.91904" lon="0.58828">
        <ele>1510</ele>
        <time>2019-02-03T12:55:43.000Z</time>
      </trkpt>
      <trkpt lat="42.91904" lon="0.58828">
        <ele>1509.7</ele>
        <time>2019-02-03T12:55:44.000Z</time>
      </trkpt>
      <trkpt lat="42.91904" lon="0.58828">
        <ele>1509.3</ele>
        <time>2019-02-03T12:55:45.000Z</time>
      </trkpt>
      <trkpt lat="42.91904" lon="0.58828">
        <ele>1509</ele>
        <time>2019-02-03T12:55:46.000Z</time>
      </trkpt>
      <trkpt lat="42.91904" lon="0.58828">
        <ele>1509</ele>
        <time>2019-02-03T12:55:47.000Z</time>
      </trkpt>
      <trkpt lat="42.91904" lon="0.58828">
        <ele>1509</ele>
        <time>2019-02-03T12:55:48.000Z</time>
      </trkpt>
      <trkpt lat="42.91904" lon="0.58828">
        <ele>1509</ele>
        <time>2019-02-03T12:55:49.000Z</time>
      </trkpt>
      <trkpt lat="42.91904" lon="0.58828">
        <ele>1509.5</ele>
        <time>2019-02-03T12:55:50.000Z</time>
      </trkpt>
      <trkpt lat="42.91904" lon="0.58828">
        <ele>1510</ele>
        <time>2019-02-03T12:55:51.000Z</time>
      </trkpt>
      <trkpt lat="42.91904" lon="0.58828">
        <ele>1510</ele>
        <time>2019-02-03T12:55:52.000Z</time>
      </trkpt>
      <trkpt lat="42.91904" lon="0.58828">
        <ele>1510</ele>
        <time>2019-02-03T12:55:53.000Z</time>
      </trkpt>
      <trkpt lat="42.91904" lon="0.58828">
        <ele>1510</ele>
        <time>2019-02-03T12:55:54.000Z</time>
      </trkpt>
      <trkpt lat="42.91904" lon="0.58828">
        <ele>1510</ele>
        <time>2019-02-03T12:55:55.000Z</time>
      </trkpt>
      <trkpt lat="42.91904" lon="0.58828">
        <ele>1510</ele>
        <time>2019-02-03T12:55:56.000Z</time>
      </trkpt>
      <trkpt lat="42.91904" lon="0.58828">
        <ele>1510</ele>
        <time>2019-02-03T12:55:57.000Z</time>
      </trkpt>
      <trkpt lat="42.91904" lon="0.58828">
        <ele>1510</ele>
        <time>2019-02-03T12:55:58.000Z</time>
      </trkpt>
      <trkpt lat="42.91904" lon="0.58828">
        <ele>1510</ele>
        <time>2019-02-03T12:55:59.000Z</time>
      </trkpt>
      <trkpt lat="42.91904" lon="0.58828">
        <ele>1510</ele>
        <time>2019-02-03T12:56:00.000Z</time>
      </trkpt>
      <trkpt lat="42.91904" lon="0.58828">
        <ele>1510</ele>
        <time>2019-02-03T12:56:01.000Z</time>
      </trkpt>
      <trkpt lat="42.91904" lon="0.58828">
        <ele>1510</ele>
        <time>2019-02-03T12:56:02.000Z</time>
      </trkpt>
      <trkpt lat="42.91904" lon="0.58828">
        <ele>1509</ele>
        <time>2019-02-03T12:56:03.000Z</time>
      </trkpt>
      <trkpt lat="42.91904" lon="0.58828">
        <ele>1509</ele>
        <time>2019-02-03T12:56:04.000Z</time>
      </trkpt>
      <trkpt lat="42.91904" lon="0.58828">
        <ele>1509</ele>
        <time>2019-02-03T12:56:05.000Z</time>
      </trkpt>
      <trkpt lat="42.91904" lon="0.58828">
        <ele>1509</ele>
        <time>2019-02-03T12:56:06.000Z</time>
      </trkpt>
      <trkpt lat="42.91905" lon="0.58828">
        <ele>1509</ele>
        <time>2019-02-03T12:56:07.000Z</time>
      </trkpt>
      <trkpt lat="42.91905" lon="0.58828">
        <ele>1509</ele>
        <time>2019-02-03T12:56:08.000Z</time>
      </trkpt>
      <trkpt lat="42.91905" lon="0.58828">
        <ele>1510</ele>
        <time>2019-02-03T12:56:09.000Z</time>
      </trkpt>
      <trkpt lat="42.91905" lon="0.58828">
        <ele>1510</ele>
        <time>2019-02-03T12:56:10.000Z</time>
      </trkpt>
      <trkpt lat="42.91905" lon="0.58828">
        <ele>1510</ele>
        <time>2019-02-03T12:56:11.000Z</time>
      </trkpt>
      <trkpt lat="42.91905" lon="0.58828">
        <ele>1510</ele>
        <time>2019-02-03T12:56:12.000Z</time>
      </trkpt>
      <trkpt lat="42.91905" lon="0.58828">
        <ele>1510</ele>
        <time>2019-02-03T12:56:13.000Z</time>
      </trkpt>
      <trkpt lat="42.91905" lon="0.58828">
        <ele>1510</ele>
        <time>2019-02-03T12:56:14.000Z</time>
      </trkpt>
      <trkpt lat="42.91905" lon="0.58828">
        <ele>1510</ele>
        <time>2019-02-03T12:56:15.000Z</time>
      </trkpt>
      <trkpt lat="42.91905" lon="0.58828">
        <ele>1510</ele>
        <time>2019-02-03T12:56:16.000Z</time>
      </trkpt>
      <trkpt lat="42.91905" lon="0.58828">
        <ele>1510</ele>
        <time>2019-02-03T12:56:17.000Z</time>
      </trkpt>
      <trkpt lat="42.91905" lon="0.58828">
        <ele>1510</ele>
        <time>2019-02-03T12:56:18.000Z</time>
      </trkpt>
      <trkpt lat="42.91905" lon="0.58828">
        <ele>1510</ele>
        <time>2019-02-03T12:56:19.000Z</time>
      </trkpt>
      <trkpt lat="42.91905" lon="0.58828">
        <ele>1510</ele>
        <time>2019-02-03T12:56:20.000Z</time>
      </trkpt>
      <trkpt lat="42.91905" lon="0.58828">
        <ele>1509</ele>
        <time>2019-02-03T12:56:21.000Z</time>
      </trkpt>
      <trkpt lat="42.91905" lon="0.58828">
        <ele>1509.3</ele>
        <time>2019-02-03T12:56:22.000Z</time>
      </trkpt>
      <trkpt lat="42.91905" lon="0.58828">
        <ele>1509.7</ele>
        <time>2019-02-03T12:56:23.000Z</time>
      </trkpt>
      <trkpt lat="42.91905" lon="0.58828">
        <ele>1510</ele>
        <time>2019-02-03T12:56:24.000Z</time>
      </trkpt>
      <trkpt lat="42.91905" lon="0.58828">
        <ele>1510</ele>
        <time>2019-02-03T12:56:25.000Z</time>
      </trkpt>
      <trkpt lat="42.91905" lon="0.58828">
        <ele>1510</ele>
        <time>2019-02-03T12:56:26.000Z</time>
      </trkpt>
      <trkpt lat="42.91905" lon="0.58828">
        <ele>1510</ele>
        <time>2019-02-03T12:56:27.000Z</time>
      </trkpt>
      <trkpt lat="42.91905" lon="0.58828">
        <ele>1510</ele>
        <time>2019-02-03T12:56:28.000Z</time>
      </trkpt>
      <trkpt lat="42.91905" lon="0.58828">
        <ele>1510</ele>
        <time>2019-02-03T12:56:29.000Z</time>
      </trkpt>
      <trkpt lat="42.91905" lon="0.58828">
        <ele>1510</ele>
        <time>2019-02-03T12:56:30.000Z</time>
      </trkpt>
      <trkpt lat="42.91905" lon="0.58828">
        <ele>1510</ele>
        <time>2019-02-03T12:56:31.000Z</time>
      </trkpt>
      <trkpt lat="42.91905" lon="0.58828">
        <ele>1510</ele>
        <time>2019-02-03T12:56:32.000Z</time>
      </trkpt>
      <trkpt lat="42.91905" lon="0.58828">
        <ele>1510</ele>
        <time>2019-02-03T12:56:33.000Z</time>
      </trkpt>
      <trkpt lat="42.91904" lon="0.58828">
        <ele>1510</ele>
        <time>2019-02-03T12:56:34.000Z</time>
      </trkpt>
      <trkpt lat="42.91904" lon="0.58828">
        <ele>1509</ele>
        <time>2019-02-03T12:56:35.000Z</time>
      </trkpt>
      <trkpt lat="42.91904" lon="0.58828">
        <ele>1509</ele>
        <time>2019-02-03T12:56:36.000Z</time>
      </trkpt>
      <trkpt lat="42.91904" lon="0.58828">
        <ele>1509</ele>
        <time>2019-02-03T12:56:37.000Z</time>
      </trkpt>
      <trkpt lat="42.91904" lon="0.58827">
        <ele>1509</ele>
        <time>2019-02-03T12:56:38.000Z</time>
      </trkpt>
      <trkpt lat="42.91904" lon="0.58827">
        <ele>1509</ele>
        <time>2019-02-03T12:56:39.000Z</time>
      </trkpt>
      <trkpt lat="42.91904" lon="0.58827">
        <ele>1509</ele>
        <time>2019-02-03T12:56:40.000Z</time>
      </trkpt>
      <trkpt lat="42.91904" lon="0.58827">
        <ele>1509</ele>
        <time>2019-02-03T12:56:41.000Z</time>
      </trkpt>
      <trkpt lat="42.91904" lon="0.58827">
        <ele>1509</ele>
        <time>2019-02-03T12:56:42.000Z</time>
      </trkpt>
      <trkpt lat="42.91904" lon="0.58827">
        <ele>1509</ele>
        <time>2019-02-03T12:56:43.000Z</time>
      </trkpt>
      <trkpt lat="42.91904" lon="0.58827">
        <ele>1509</ele>
        <time>2019-02-03T12:56:44.000Z</time>
      </trkpt>
      <trkpt lat="42.91904" lon="0.58827">
        <ele>1510</ele>
        <time>2019-02-03T12:56:45.000Z</time>
      </trkpt>
      <trkpt lat="42.91904" lon="0.58827">
        <ele>1510</ele>
        <time>2019-02-03T12:56:46.000Z</time>
      </trkpt>
      <trkpt lat="42.91904" lon="0.58827">
        <ele>1510</ele>
        <time>2019-02-03T12:56:47.000Z</time>
      </trkpt>
      <trkpt lat="42.91904" lon="0.58827">
        <ele>1510</ele>
        <time>2019-02-03T12:56:48.000Z</time>
      </trkpt>
      <trkpt lat="42.91904" lon="0.58827">
        <ele>1510</ele>
        <time>2019-02-03T12:56:49.000Z</time>
      </trkpt>
      <trkpt lat="42.91904" lon="0.58827">
        <ele>1510</ele>
        <time>2019-02-03T12:56:50.000Z</time>
      </trkpt>
      <trkpt lat="42.91904" lon="0.58827">
        <ele>1510</ele>
        <time>2019-02-03T12:56:51.000Z</time>
      </trkpt>
      <trkpt lat="42.91904" lon="0.58827">
        <ele>1510</ele>
        <time>2019-02-03T12:56:52.000Z</time>
      </trkpt>
      <trkpt lat="42.91904" lon="0.58827">
        <ele>1510</ele>
        <time>2019-02-03T12:56:53.000Z</time>
      </trkpt>
      <trkpt lat="42.91904" lon="0.58827">
        <ele>1510</ele>
        <time>2019-02-03T12:56:54.000Z</time>
      </trkpt>
      <trkpt lat="42.91904" lon="0.58827">
        <ele>1510</ele>
        <time>2019-02-03T12:56:55.000Z</time>
      </trkpt>
      <trkpt lat="42.91904" lon="0.58827">
        <ele>1510</ele>
        <time>2019-02-03T12:56:56.000Z</time>
      </trkpt>
      <trkpt lat="42.91904" lon="0.58827">
        <ele>1510</ele>
        <time>2019-02-03T12:56:57.000Z</time>
      </trkpt>
      <trkpt lat="42.91904" lon="0.58827">
        <ele>1510</ele>
        <time>2019-02-03T12:56:58.000Z</time>
      </trkpt>
      <trkpt lat="42.91904" lon="0.58827">
        <ele>1510</ele>
        <time>2019-02-03T12:56:59.000Z</time>
      </trkpt>
      <trkpt lat="42.91904" lon="0.58827">
        <ele>1510</ele>
        <time>2019-02-03T12:57:00.000Z</time>
      </trkpt>
      <trkpt lat="42.91904" lon="0.58828">
        <ele>1510</ele>
        <time>2019-02-03T12:57:01.000Z</time>
      </trkpt>
      <trkpt lat="42.91904" lon="0.58828">
        <ele>1510</ele>
        <time>2019-02-03T12:57:02.000Z</time>
      </trkpt>
      <trkpt lat="42.91904" lon="0.58828">
        <ele>1510</ele>
        <time>2019-02-03T12:57:03.000Z</time>
      </trkpt>
      <trkpt lat="42.91905" lon="0.58828">
        <ele>1510</ele>
        <time>2019-02-03T12:57:04.000Z</time>
      </trkpt>
      <trkpt lat="42.91905" lon="0.58828">
        <ele>1510</ele>
        <time>2019-02-03T12:57:05.000Z</time>
      </trkpt>
      <trkpt lat="42.91905" lon="0.58828">
        <ele>1510</ele>
        <time>2019-02-03T12:57:06.000Z</time>
      </trkpt>
      <trkpt lat="42.91905" lon="0.58828">
        <ele>1510</ele>
        <time>2019-02-03T12:57:07.000Z</time>
      </trkpt>
      <trkpt lat="42.91905" lon="0.58828">
        <ele>1510</ele>
        <time>2019-02-03T12:57:08.000Z</time>
      </trkpt>
      <trkpt lat="42.91905" lon="0.58828">
        <ele>1510</ele>
        <time>2019-02-03T12:57:09.000Z</time>
      </trkpt>
      <trkpt lat="42.91905" lon="0.58828">
        <ele>1510</ele>
        <time>2019-02-03T12:57:10.000Z</time>
      </trkpt>
      <trkpt lat="42.91905" lon="0.58828">
        <ele>1510</ele>
        <time>2019-02-03T12:57:11.000Z</time>
      </trkpt>
      <trkpt lat="42.91905" lon="0.58828">
        <ele>1510</ele>
        <time>2019-02-03T12:57:12.000Z</time>
      </trkpt>
      <trkpt lat="42.91905" lon="0.58829">
        <ele>1510</ele>
        <time>2019-02-03T12:57:13.000Z</time>
      </trkpt>
      <trkpt lat="42.91905" lon="0.58829">
        <ele>1510</ele>
        <time>2019-02-03T12:57:14.000Z</time>
      </trkpt>
      <trkpt lat="42.91905" lon="0.58829">
        <ele>1510</ele>
        <time>2019-02-03T12:57:15.000Z</time>
      </trkpt>
      <trkpt lat="42.91905" lon="0.58829">
        <ele>1510</ele>
        <time>2019-02-03T12:57:16.000Z</time>
      </trkpt>
      <trkpt lat="42.91905" lon="0.58829">
        <ele>1510</ele>
        <time>2019-02-03T12:57:17.000Z</time>
      </trkpt>
      <trkpt lat="42.91905" lon="0.58829">
        <ele>1510</ele>
        <time>2019-02-03T12:57:18.000Z</time>
      </trkpt>
      <trkpt lat="42.91905" lon="0.58829">
        <ele>1510</ele>
        <time>2019-02-03T12:57:19.000Z</time>
      </trkpt>
      <trkpt lat="42.91905" lon="0.58829">
        <ele>1510</ele>
        <time>2019-02-03T12:57:20.000Z</time>
      </trkpt>
      <trkpt lat="42.91905" lon="0.58829">
        <ele>1510</ele>
        <time>2019-02-03T12:57:21.000Z</time>
      </trkpt>
      <trkpt lat="42.91905" lon="0.58829">
        <ele>1510</ele>
        <time>2019-02-03T12:57:22.000Z</time>
      </trkpt>
      <trkpt lat="42.91905" lon="0.58829">
        <ele>1509</ele>
        <time>2019-02-03T12:57:23.000Z</time>
      </trkpt>
      <trkpt lat="42.91905" lon="0.58829">
        <ele>1509.3</ele>
        <time>2019-02-03T12:57:24.000Z</time>
      </trkpt>
      <trkpt lat="42.91905" lon="0.58829">
        <ele>1509.7</ele>
        <time>2019-02-03T12:57:25.000Z</time>
      </trkpt>
      <trkpt lat="42.91905" lon="0.58829">
        <ele>1510</ele>
        <time>2019-02-03T12:57:26.000Z</time>
      </trkpt>
      <trkpt lat="42.91905" lon="0.58829">
        <ele>1510</ele>
        <time>2019-02-03T12:57:27.000Z</time>
      </trkpt>
      <trkpt lat="42.91905" lon="0.58829">
        <ele>1510</ele>
        <time>2019-02-03T12:57:28.000Z</time>
      </trkpt>
      <trkpt lat="42.91905" lon="0.58829">
        <ele>1510</ele>
        <time>2019-02-03T12:57:29.000Z</time>
      </trkpt>
      <trkpt lat="42.91905" lon="0.58829">
        <ele>1510</ele>
        <time>2019-02-03T12:57:30.000Z</time>
      </trkpt>
      <trkpt lat="42.91905" lon="0.58829">
        <ele>1510</ele>
        <time>2019-02-03T12:57:31.000Z</time>
      </trkpt>
      <trkpt lat="42.91905" lon="0.58829">
        <ele>1510</ele>
        <time>2019-02-03T12:57:32.000Z</time>
      </trkpt>
      <trkpt lat="42.91905" lon="0.58829">
        <ele>1510</ele>
        <time>2019-02-03T12:57:33.000Z</time>
      </trkpt>
      <trkpt lat="42.91905" lon="0.58829">
        <ele>1510</ele>
        <time>2019-02-03T12:57:34.000Z</time>
      </trkpt>
      <trkpt lat="42.91905" lon="0.58829">
        <ele>1510</ele>
        <time>2019-02-03T12:57:35.000Z</time>
      </trkpt>
      <trkpt lat="42.91905" lon="0.58829">
        <ele>1510</ele>
        <time>2019-02-03T12:57:36.000Z</time>
      </trkpt>
      <trkpt lat="42.91905" lon="0.58829">
        <ele>1510</ele>
        <time>2019-02-03T12:57:37.000Z</time>
      </trkpt>
      <trkpt lat="42.91905" lon="0.58829">
        <ele>1510</ele>
        <time>2019-02-03T12:57:38.000Z</time>
      </trkpt>
      <trkpt lat="42.91905" lon="0.58829">
        <ele>1510</ele>
        <time>2019-02-03T12:57:39.000Z</time>
      </trkpt>
      <trkpt lat="42.91905" lon="0.58829">
        <ele>1510</ele>
        <time>2019-02-03T12:57:40.000Z</time>
      </trkpt>
      <trkpt lat="42.91905" lon="0.5883">
        <ele>1510</ele>
        <time>2019-02-03T12:57:41.000Z</time>
      </trkpt>
      <trkpt lat="42.91904" lon="0.5883">
        <ele>1510</ele>
        <time>2019-02-03T12:57:42.000Z</time>
      </trkpt>
      <trkpt lat="42.91904" lon="0.5883">
        <ele>1510.5</ele>
        <time>2019-02-03T12:57:43.000Z</time>
      </trkpt>
      <trkpt lat="42.91904" lon="0.5883">
        <ele>1511</ele>
        <time>2019-02-03T12:57:44.000Z</time>
      </trkpt>
      <trkpt lat="42.91904" lon="0.5883">
        <ele>1511</ele>
        <time>2019-02-03T12:57:45.000Z</time>
      </trkpt>
      <trkpt lat="42.91904" lon="0.5883">
        <ele>1510.7</ele>
        <time>2019-02-03T12:57:46.000Z</time>
      </trkpt>
      <trkpt lat="42.91904" lon="0.5883">
        <ele>1510.3</ele>
        <time>2019-02-03T12:57:47.000Z</time>
      </trkpt>
      <trkpt lat="42.91904" lon="0.5883">
        <ele>1510</ele>
        <time>2019-02-03T12:57:48.000Z</time>
      </trkpt>
      <trkpt lat="42.91904" lon="0.5883">
        <ele>1510</ele>
        <time>2019-02-03T12:57:49.000Z</time>
      </trkpt>
      <trkpt lat="42.91904" lon="0.5883">
        <ele>1510</ele>
        <time>2019-02-03T12:57:50.000Z</time>
      </trkpt>
      <trkpt lat="42.91904" lon="0.5883">
        <ele>1510</ele>
        <time>2019-02-03T12:57:51.000Z</time>
      </trkpt>
      <trkpt lat="42.91904" lon="0.5883">
        <ele>1510</ele>
        <time>2019-02-03T12:57:52.000Z</time>
      </trkpt>
      <trkpt lat="42.91904" lon="0.5883">
        <ele>1510</ele>
        <time>2019-02-03T12:57:53.000Z</time>
      </trkpt>
      <trkpt lat="42.91904" lon="0.5883">
        <ele>1510</ele>
        <time>2019-02-03T12:57:54.000Z</time>
      </trkpt>
      <trkpt lat="42.91904" lon="0.5883">
        <ele>1510</ele>
        <time>2019-02-03T12:57:55.000Z</time>
      </trkpt>
      <trkpt lat="42.91904" lon="0.5883">
        <ele>1510</ele>
        <time>2019-02-03T12:57:56.000Z</time>
      </trkpt>
      <trkpt lat="42.91904" lon="0.5883">
        <ele>1510</ele>
        <time>2019-02-03T12:57:57.000Z</time>
      </trkpt>
      <trkpt lat="42.91904" lon="0.5883">
        <ele>1510</ele>
        <time>2019-02-03T12:57:58.000Z</time>
      </trkpt>
      <trkpt lat="42.91904" lon="0.5883">
        <ele>1510</ele>
        <time>2019-02-03T12:57:59.000Z</time>
      </trkpt>
      <trkpt lat="42.91904" lon="0.5883">
        <ele>1510</ele>
        <time>2019-02-03T12:58:00.000Z</time>
      </trkpt>
      <trkpt lat="42.91904" lon="0.5883">
        <ele>1510</ele>
        <time>2019-02-03T12:58:01.000Z</time>
      </trkpt>
      <trkpt lat="42.91904" lon="0.5883">
        <ele>1510</ele>
        <time>2019-02-03T12:58:02.000Z</time>
      </trkpt>
      <trkpt lat="42.91904" lon="0.5883">
        <ele>1510</ele>
        <time>2019-02-03T12:58:03.000Z</time>
      </trkpt>
      <trkpt lat="42.91904" lon="0.5883">
        <ele>1510</ele>
        <time>2019-02-03T12:58:04.000Z</time>
      </trkpt>
      <trkpt lat="42.91904" lon="0.5883">
        <ele>1510</ele>
        <time>2019-02-03T12:58:05.000Z</time>
      </trkpt>
      <trkpt lat="42.91904" lon="0.5883">
        <ele>1510</ele>
        <time>2019-02-03T12:58:06.000Z</time>
      </trkpt>
      <trkpt lat="42.91904" lon="0.5883">
        <ele>1510</ele>
        <time>2019-02-03T12:58:07.000Z</time>
      </trkpt>
      <trkpt lat="42.91904" lon="0.5883">
        <ele>1510</ele>
        <time>2019-02-03T12:58:08.000Z</time>
      </trkpt>
      <trkpt lat="42.91904" lon="0.5883">
        <ele>1510</ele>
        <time>2019-02-03T12:58:09.000Z</time>
      </trkpt>
      <trkpt lat="42.91904" lon="0.5883">
        <ele>1510</ele>
        <time>2019-02-03T12:58:10.000Z</time>
      </trkpt>
      <trkpt lat="42.91904" lon="0.5883">
        <ele>1510</ele>
        <time>2019-02-03T12:58:11.000Z</time>
      </trkpt>
      <trkpt lat="42.91904" lon="0.5883">
        <ele>1510</ele>
        <time>2019-02-03T12:58:12.000Z</time>
      </trkpt>
      <trkpt lat="42.91904" lon="0.5883">
        <ele>1510</ele>
        <time>2019-02-03T12:58:13.000Z</time>
      </trkpt>
      <trkpt lat="42.91904" lon="0.5883">
        <ele>1510</ele>
        <time>2019-02-03T12:58:14.000Z</time>
      </trkpt>
      <trkpt lat="42.91904" lon="0.5883">
        <ele>1510</ele>
        <time>2019-02-03T12:58:15.000Z</time>
      </trkpt>
      <trkpt lat="42.91904" lon="0.5883">
        <ele>1510</ele>
        <time>2019-02-03T12:58:16.000Z</time>
      </trkpt>
      <trkpt lat="42.91904" lon="0.5883">
        <ele>1510</ele>
        <time>2019-02-03T12:58:17.000Z</time>
      </trkpt>
      <trkpt lat="42.91904" lon="0.5883">
        <ele>1510</ele>
        <time>2019-02-03T12:58:18.000Z</time>
      </trkpt>
      <trkpt lat="42.91904" lon="0.5883">
        <ele>1510</ele>
        <time>2019-02-03T12:58:19.000Z</time>
      </trkpt>
      <trkpt lat="42.91904" lon="0.5883">
        <ele>1510</ele>
        <time>2019-02-03T12:58:20.000Z</time>
      </trkpt>
      <trkpt lat="42.91904" lon="0.5883">
        <ele>1510</ele>
        <time>2019-02-03T12:58:21.000Z</time>
      </trkpt>
      <trkpt lat="42.91904" lon="0.58829">
        <ele>1510</ele>
        <time>2019-02-03T12:58:22.000Z</time>
      </trkpt>
      <trkpt lat="42.91904" lon="0.58829">
        <ele>1510</ele>
        <time>2019-02-03T12:58:23.000Z</time>
      </trkpt>
      <trkpt lat="42.91904" lon="0.58829">
        <ele>1510</ele>
        <time>2019-02-03T12:58:24.000Z</time>
      </trkpt>
      <trkpt lat="42.91904" lon="0.58829">
        <ele>1510</ele>
        <time>2019-02-03T12:58:25.000Z</time>
      </trkpt>
      <trkpt lat="42.91904" lon="0.58829">
        <ele>1510</ele>
        <time>2019-02-03T12:58:26.000Z</time>
      </trkpt>
      <trkpt lat="42.91904" lon="0.58828">
        <ele>1510</ele>
        <time>2019-02-03T12:58:27.000Z</time>
      </trkpt>
      <trkpt lat="42.91904" lon="0.58828">
        <ele>1510</ele>
        <time>2019-02-03T12:58:28.000Z</time>
      </trkpt>
      <trkpt lat="42.91904" lon="0.58828">
        <ele>1510</ele>
        <time>2019-02-03T12:58:29.000Z</time>
      </trkpt>
      <trkpt lat="42.91904" lon="0.58827">
        <ele>1510</ele>
        <time>2019-02-03T12:58:30.000Z</time>
      </trkpt>
      <trkpt lat="42.91904" lon="0.58827">
        <ele>1510</ele>
        <time>2019-02-03T12:58:31.000Z</time>
      </trkpt>
      <trkpt lat="42.91904" lon="0.58827">
        <ele>1510</ele>
        <time>2019-02-03T12:58:32.000Z</time>
      </trkpt>
      <trkpt lat="42.91904" lon="0.58827">
        <ele>1510</ele>
        <time>2019-02-03T12:58:33.000Z</time>
      </trkpt>
      <trkpt lat="42.91904" lon="0.58826">
        <ele>1510</ele>
        <time>2019-02-03T12:58:34.000Z</time>
      </trkpt>
      <trkpt lat="42.91904" lon="0.58826">
        <ele>1510</ele>
        <time>2019-02-03T12:58:35.000Z</time>
      </trkpt>
      <trkpt lat="42.91904" lon="0.58826">
        <ele>1510</ele>
        <time>2019-02-03T12:58:36.000Z</time>
      </trkpt>
      <trkpt lat="42.91904" lon="0.58826">
        <ele>1510</ele>
        <time>2019-02-03T12:58:37.000Z</time>
      </trkpt>
      <trkpt lat="42.91904" lon="0.58826">
        <ele>1510</ele>
        <time>2019-02-03T12:58:38.000Z</time>
      </trkpt>
      <trkpt lat="42.91904" lon="0.58826">
        <ele>1510</ele>
        <time>2019-02-03T12:58:39.000Z</time>
      </trkpt>
      <trkpt lat="42.91904" lon="0.58826">
        <ele>1510</ele>
        <time>2019-02-03T12:58:40.000Z</time>
      </trkpt>
      <trkpt lat="42.91904" lon="0.58826">
        <ele>1510</ele>
        <time>2019-02-03T12:58:41.000Z</time>
      </trkpt>
      <trkpt lat="42.91904" lon="0.58826">
        <ele>1510</ele>
        <time>2019-02-03T12:58:42.000Z</time>
      </trkpt>
      <trkpt lat="42.91904" lon="0.58826">
        <ele>1510</ele>
        <time>2019-02-03T12:58:43.000Z</time>
      </trkpt>
      <trkpt lat="42.91904" lon="0.58826">
        <ele>1510</ele>
        <time>2019-02-03T12:58:44.000Z</time>
      </trkpt>
      <trkpt lat="42.91904" lon="0.58826">
        <ele>1510</ele>
        <time>2019-02-03T12:58:45.000Z</time>
      </trkpt>
      <trkpt lat="42.91904" lon="0.58826">
        <ele>1510</ele>
        <time>2019-02-03T12:58:46.000Z</time>
      </trkpt>
      <trkpt lat="42.91904" lon="0.58826">
        <ele>1510</ele>
        <time>2019-02-03T12:58:47.000Z</time>
      </trkpt>
      <trkpt lat="42.91904" lon="0.58826">
        <ele>1510</ele>
        <time>2019-02-03T12:58:48.000Z</time>
      </trkpt>
      <trkpt lat="42.91904" lon="0.58826">
        <ele>1510</ele>
        <time>2019-02-03T12:58:49.000Z</time>
      </trkpt>
      <trkpt lat="42.91904" lon="0.58827">
        <ele>1510</ele>
        <time>2019-02-03T12:58:50.000Z</time>
      </trkpt>
      <trkpt lat="42.91904" lon="0.58827">
        <ele>1510</ele>
        <time>2019-02-03T12:58:51.000Z</time>
      </trkpt>
      <trkpt lat="42.91904" lon="0.58827">
        <ele>1510</ele>
        <time>2019-02-03T12:58:52.000Z</time>
      </trkpt>
      <trkpt lat="42.91904" lon="0.58827">
        <ele>1510</ele>
        <time>2019-02-03T12:58:53.000Z</time>
      </trkpt>
      <trkpt lat="42.91904" lon="0.58827">
        <ele>1510</ele>
        <time>2019-02-03T12:58:54.000Z</time>
      </trkpt>
      <trkpt lat="42.91903" lon="0.58828">
        <ele>1510</ele>
        <time>2019-02-03T12:58:55.000Z</time>
      </trkpt>
      <trkpt lat="42.91903" lon="0.58828">
        <ele>1510</ele>
        <time>2019-02-03T12:58:56.000Z</time>
      </trkpt>
      <trkpt lat="42.91903" lon="0.58828">
        <ele>1510</ele>
        <time>2019-02-03T12:58:57.000Z</time>
      </trkpt>
      <trkpt lat="42.91903" lon="0.58828">
        <ele>1510</ele>
        <time>2019-02-03T12:58:58.000Z</time>
      </trkpt>
      <trkpt lat="42.91903" lon="0.58829">
        <ele>1510</ele>
        <time>2019-02-03T12:58:59.000Z</time>
      </trkpt>
      <trkpt lat="42.91903" lon="0.58829">
        <ele>1510</ele>
        <time>2019-02-03T12:59:00.000Z</time>
      </trkpt>
      <trkpt lat="42.91903" lon="0.58829">
        <ele>1510</ele>
        <time>2019-02-03T12:59:01.000Z</time>
      </trkpt>
      <trkpt lat="42.91903" lon="0.58829">
        <ele>1510</ele>
        <time>2019-02-03T12:59:02.000Z</time>
      </trkpt>
      <trkpt lat="42.91902" lon="0.58829">
        <ele>1510</ele>
        <time>2019-02-03T12:59:03.000Z</time>
      </trkpt>
      <trkpt lat="42.91902" lon="0.58829">
        <ele>1510</ele>
        <time>2019-02-03T12:59:04.000Z</time>
      </trkpt>
      <trkpt lat="42.91902" lon="0.58829">
        <ele>1510</ele>
        <time>2019-02-03T12:59:05.000Z</time>
      </trkpt>
      <trkpt lat="42.91902" lon="0.58829">
        <ele>1510</ele>
        <time>2019-02-03T12:59:06.000Z</time>
      </trkpt>
      <trkpt lat="42.91902" lon="0.58829">
        <ele>1510</ele>
        <time>2019-02-03T12:59:07.000Z</time>
      </trkpt>
      <trkpt lat="42.91902" lon="0.58829">
        <ele>1510</ele>
        <time>2019-02-03T12:59:08.000Z</time>
      </trkpt>
      <trkpt lat="42.91902" lon="0.58829">
        <ele>1510</ele>
        <time>2019-02-03T12:59:09.000Z</time>
      </trkpt>
      <trkpt lat="42.91902" lon="0.58829">
        <ele>1510</ele>
        <time>2019-02-03T12:59:10.000Z</time>
      </trkpt>
      <trkpt lat="42.91902" lon="0.58829">
        <ele>1510</ele>
        <time>2019-02-03T12:59:11.000Z</time>
      </trkpt>
      <trkpt lat="42.91902" lon="0.58829">
        <ele>1510</ele>
        <time>2019-02-03T12:59:12.000Z</time>
      </trkpt>
      <trkpt lat="42.91902" lon="0.58829">
        <ele>1510</ele>
        <time>2019-02-03T12:59:13.000Z</time>
      </trkpt>
      <trkpt lat="42.91902" lon="0.58829">
        <ele>1510</ele>
        <time>2019-02-03T12:59:14.000Z</time>
      </trkpt>
      <trkpt lat="42.91902" lon="0.58829">
        <ele>1510</ele>
        <time>2019-02-03T12:59:15.000Z</time>
      </trkpt>
      <trkpt lat="42.91902" lon="0.58829">
        <ele>1510</ele>
        <time>2019-02-03T12:59:16.000Z</time>
      </trkpt>
      <trkpt lat="42.91902" lon="0.58829">
        <ele>1510</ele>
        <time>2019-02-03T12:59:17.000Z</time>
      </trkpt>
      <trkpt lat="42.91902" lon="0.58829">
        <ele>1510</ele>
        <time>2019-02-03T12:59:18.000Z</time>
      </trkpt>
      <trkpt lat="42.91902" lon="0.58829">
        <ele>1510</ele>
        <time>2019-02-03T12:59:19.000Z</time>
      </trkpt>
      <trkpt lat="42.91902" lon="0.58829">
        <ele>1510</ele>
        <time>2019-02-03T12:59:20.000Z</time>
      </trkpt>
      <trkpt lat="42.91902" lon="0.58829">
        <ele>1510</ele>
        <time>2019-02-03T12:59:21.000Z</time>
      </trkpt>
      <trkpt lat="42.91902" lon="0.58829">
        <ele>1510</ele>
        <time>2019-02-03T12:59:22.000Z</time>
      </trkpt>
      <trkpt lat="42.91902" lon="0.58829">
        <ele>1510</ele>
        <time>2019-02-03T12:59:23.000Z</time>
      </trkpt>
      <trkpt lat="42.91902" lon="0.58829">
        <ele>1510</ele>
        <time>2019-02-03T12:59:24.000Z</time>
      </trkpt>
      <trkpt lat="42.91902" lon="0.58829">
        <ele>1510</ele>
        <time>2019-02-03T12:59:25.000Z</time>
      </trkpt>
      <trkpt lat="42.91902" lon="0.58829">
        <ele>1510</ele>
        <time>2019-02-03T12:59:26.000Z</time>
      </trkpt>
      <trkpt lat="42.91902" lon="0.58829">
        <ele>1510</ele>
        <time>2019-02-03T12:59:27.000Z</time>
      </trkpt>
      <trkpt lat="42.91902" lon="0.58829">
        <ele>1510</ele>
        <time>2019-02-03T12:59:28.000Z</time>
      </trkpt>
      <trkpt lat="42.91902" lon="0.58829">
        <ele>1510</ele>
        <time>2019-02-03T12:59:29.000Z</time>
      </trkpt>
      <trkpt lat="42.91902" lon="0.5883">
        <ele>1510</ele>
        <time>2019-02-03T12:59:30.000Z</time>
      </trkpt>
      <trkpt lat="42.91902" lon="0.5883">
        <ele>1510</ele>
        <time>2019-02-03T12:59:31.000Z</time>
      </trkpt>
      <trkpt lat="42.91902" lon="0.5883">
        <ele>1510</ele>
        <time>2019-02-03T12:59:32.000Z</time>
      </trkpt>
      <trkpt lat="42.91901" lon="0.58831">
        <ele>1510</ele>
        <time>2019-02-03T12:59:33.000Z</time>
      </trkpt>
      <trkpt lat="42.91901" lon="0.58831">
        <ele>1510</ele>
        <time>2019-02-03T12:59:34.000Z</time>
      </trkpt>
      <trkpt lat="42.91901" lon="0.58831">
        <ele>1510</ele>
        <time>2019-02-03T12:59:35.000Z</time>
      </trkpt>
      <trkpt lat="42.91901" lon="0.58832">
        <ele>1510</ele>
        <time>2019-02-03T12:59:36.000Z</time>
      </trkpt>
      <trkpt lat="42.91901" lon="0.58832">
        <ele>1510</ele>
        <time>2019-02-03T12:59:37.000Z</time>
      </trkpt>
      <trkpt lat="42.91901" lon="0.58832">
        <ele>1510</ele>
        <time>2019-02-03T12:59:38.000Z</time>
      </trkpt>
      <trkpt lat="42.91901" lon="0.58832">
        <ele>1510.5</ele>
        <time>2019-02-03T12:59:39.000Z</time>
      </trkpt>
      <trkpt lat="42.91901" lon="0.58832">
        <ele>1511</ele>
        <time>2019-02-03T12:59:40.000Z</time>
      </trkpt>
      <trkpt lat="42.91901" lon="0.58832">
        <ele>1510.5</ele>
        <time>2019-02-03T12:59:41.000Z</time>
      </trkpt>
      <trkpt lat="42.91901" lon="0.58832">
        <ele>1510</ele>
        <time>2019-02-03T12:59:42.000Z</time>
      </trkpt>
      <trkpt lat="42.91901" lon="0.58832">
        <ele>1510</ele>
        <time>2019-02-03T12:59:43.000Z</time>
      </trkpt>
      <trkpt lat="42.91901" lon="0.58832">
        <ele>1510</ele>
        <time>2019-02-03T12:59:44.000Z</time>
      </trkpt>
      <trkpt lat="42.91901" lon="0.58832">
        <ele>1511</ele>
        <time>2019-02-03T12:59:45.000Z</time>
      </trkpt>
      <trkpt lat="42.91901" lon="0.58832">
        <ele>1510.7</ele>
        <time>2019-02-03T12:59:46.000Z</time>
      </trkpt>
      <trkpt lat="42.91901" lon="0.58832">
        <ele>1510.3</ele>
        <time>2019-02-03T12:59:47.000Z</time>
      </trkpt>
      <trkpt lat="42.91902" lon="0.58833">
        <ele>1510</ele>
        <time>2019-02-03T12:59:48.000Z</time>
      </trkpt>
      <trkpt lat="42.91902" lon="0.58833">
        <ele>1510</ele>
        <time>2019-02-03T12:59:49.000Z</time>
      </trkpt>
      <trkpt lat="42.91902" lon="0.58833">
        <ele>1510</ele>
        <time>2019-02-03T12:59:50.000Z</time>
      </trkpt>
      <trkpt lat="42.91902" lon="0.58833">
        <ele>1510</ele>
        <time>2019-02-03T12:59:51.000Z</time>
      </trkpt>
      <trkpt lat="42.91902" lon="0.58833">
        <ele>1510</ele>
        <time>2019-02-03T12:59:52.000Z</time>
      </trkpt>
      <trkpt lat="42.91902" lon="0.58833">
        <ele>1510</ele>
        <time>2019-02-03T12:59:53.000Z</time>
      </trkpt>
      <trkpt lat="42.91902" lon="0.58833">
        <ele>1510</ele>
        <time>2019-02-03T12:59:54.000Z</time>
      </trkpt>
      <trkpt lat="42.91902" lon="0.58833">
        <ele>1510</ele>
        <time>2019-02-03T12:59:55.000Z</time>
      </trkpt>
      <trkpt lat="42.91902" lon="0.58833">
        <ele>1510</ele>
        <time>2019-02-03T12:59:56.000Z</time>
      </trkpt>
      <trkpt lat="42.91902" lon="0.58833">
        <ele>1510</ele>
        <time>2019-02-03T12:59:57.000Z</time>
      </trkpt>
      <trkpt lat="42.91902" lon="0.58833">
        <ele>1510</ele>
        <time>2019-02-03T12:59:58.000Z</time>
      </trkpt>
      <trkpt lat="42.91902" lon="0.58833">
        <ele>1510</ele>
        <time>2019-02-03T12:59:59.000Z</time>
      </trkpt>
      <trkpt lat="42.91902" lon="0.58833">
        <ele>1510</ele>
        <time>2019-02-03T13:00:00.000Z</time>
      </trkpt>
      <trkpt lat="42.91902" lon="0.58833">
        <ele>1510</ele>
        <time>2019-02-03T13:00:01.000Z</time>
      </trkpt>
      <trkpt lat="42.91902" lon="0.58833">
        <ele>1510</ele>
        <time>2019-02-03T13:00:02.000Z</time>
      </trkpt>
      <trkpt lat="42.91902" lon="0.58833">
        <ele>1510</ele>
        <time>2019-02-03T13:00:03.000Z</time>
      </trkpt>
      <trkpt lat="42.91902" lon="0.58833">
        <ele>1510</ele>
        <time>2019-02-03T13:00:04.000Z</time>
      </trkpt>
      <trkpt lat="42.91902" lon="0.58834">
        <ele>1510</ele>
        <time>2019-02-03T13:00:05.000Z</time>
      </trkpt>
      <trkpt lat="42.91901" lon="0.58834">
        <ele>1510</ele>
        <time>2019-02-03T13:00:06.000Z</time>
      </trkpt>
      <trkpt lat="42.91901" lon="0.58834">
        <ele>1510</ele>
        <time>2019-02-03T13:00:07.000Z</time>
      </trkpt>
      <trkpt lat="42.91901" lon="0.58834">
        <ele>1510</ele>
        <time>2019-02-03T13:00:08.000Z</time>
      </trkpt>
      <trkpt lat="42.91901" lon="0.58835">
        <ele>1510</ele>
        <time>2019-02-03T13:00:09.000Z</time>
      </trkpt>
      <trkpt lat="42.91901" lon="0.58835">
        <ele>1510</ele>
        <time>2019-02-03T13:00:10.000Z</time>
      </trkpt>
      <trkpt lat="42.91901" lon="0.58835">
        <ele>1510</ele>
        <time>2019-02-03T13:00:11.000Z</time>
      </trkpt>
      <trkpt lat="42.91901" lon="0.58835">
        <ele>1510</ele>
        <time>2019-02-03T13:00:12.000Z</time>
      </trkpt>
      <trkpt lat="42.91901" lon="0.58835">
        <ele>1510</ele>
        <time>2019-02-03T13:00:13.000Z</time>
      </trkpt>
      <trkpt lat="42.91901" lon="0.58835">
        <ele>1510</ele>
        <time>2019-02-03T13:00:14.000Z</time>
      </trkpt>
      <trkpt lat="42.91901" lon="0.58835">
        <ele>1510</ele>
        <time>2019-02-03T13:00:15.000Z</time>
      </trkpt>
      <trkpt lat="42.91901" lon="0.58835">
        <ele>1510.3</ele>
        <time>2019-02-03T13:00:16.000Z</time>
      </trkpt>
      <trkpt lat="42.91901" lon="0.58835">
        <ele>1510.7</ele>
        <time>2019-02-03T13:00:17.000Z</time>
      </trkpt>
      <trkpt lat="42.91901" lon="0.58835">
        <ele>1511</ele>
        <time>2019-02-03T13:00:18.000Z</time>
      </trkpt>
      <trkpt lat="42.91901" lon="0.58835">
        <ele>1511</ele>
        <time>2019-02-03T13:00:19.000Z</time>
      </trkpt>
      <trkpt lat="42.91901" lon="0.58835">
        <ele>1511</ele>
        <time>2019-02-03T13:00:20.000Z</time>
      </trkpt>
      <trkpt lat="42.91901" lon="0.58835">
        <ele>1510</ele>
        <time>2019-02-03T13:00:21.000Z</time>
      </trkpt>
      <trkpt lat="42.91901" lon="0.58835">
        <ele>1510</ele>
        <time>2019-02-03T13:00:22.000Z</time>
      </trkpt>
      <trkpt lat="42.91901" lon="0.58835">
        <ele>1510</ele>
        <time>2019-02-03T13:00:23.000Z</time>
      </trkpt>
      <trkpt lat="42.91901" lon="0.58835">
        <ele>1510</ele>
        <time>2019-02-03T13:00:24.000Z</time>
      </trkpt>
      <trkpt lat="42.91901" lon="0.58835">
        <ele>1510</ele>
        <time>2019-02-03T13:00:25.000Z</time>
      </trkpt>
      <trkpt lat="42.91901" lon="0.58835">
        <ele>1510</ele>
        <time>2019-02-03T13:00:26.000Z</time>
      </trkpt>
      <trkpt lat="42.919" lon="0.58834">
        <ele>1510</ele>
        <time>2019-02-03T13:00:27.000Z</time>
      </trkpt>
      <trkpt lat="42.919" lon="0.58834">
        <ele>1510</ele>
        <time>2019-02-03T13:00:28.000Z</time>
      </trkpt>
      <trkpt lat="42.919" lon="0.58834">
        <ele>1510</ele>
        <time>2019-02-03T13:00:29.000Z</time>
      </trkpt>
      <trkpt lat="42.919" lon="0.58834">
        <ele>1510</ele>
        <time>2019-02-03T13:00:30.000Z</time>
      </trkpt>
      <trkpt lat="42.919" lon="0.58834">
        <ele>1510</ele>
        <time>2019-02-03T13:00:31.000Z</time>
      </trkpt>
      <trkpt lat="42.919" lon="0.58834">
        <ele>1510</ele>
        <time>2019-02-03T13:00:32.000Z</time>
      </trkpt>
      <trkpt lat="42.91899" lon="0.58834">
        <ele>1510</ele>
        <time>2019-02-03T13:00:33.000Z</time>
      </trkpt>
      <trkpt lat="42.91899" lon="0.58834">
        <ele>1510</ele>
        <time>2019-02-03T13:00:34.000Z</time>
      </trkpt>
      <trkpt lat="42.91899" lon="0.58834">
        <ele>1510</ele>
        <time>2019-02-03T13:00:35.000Z</time>
      </trkpt>
      <trkpt lat="42.91899" lon="0.58834">
        <ele>1510</ele>
        <time>2019-02-03T13:00:36.000Z</time>
      </trkpt>
      <trkpt lat="42.91899" lon="0.58834">
        <ele>1510</ele>
        <time>2019-02-03T13:00:37.000Z</time>
      </trkpt>
      <trkpt lat="42.91899" lon="0.58834">
        <ele>1510</ele>
        <time>2019-02-03T13:00:38.000Z</time>
      </trkpt>
      <trkpt lat="42.91899" lon="0.58834">
        <ele>1510</ele>
        <time>2019-02-03T13:00:39.000Z</time>
      </trkpt>
      <trkpt lat="42.91899" lon="0.58834">
        <ele>1510</ele>
        <time>2019-02-03T13:00:40.000Z</time>
      </trkpt>
      <trkpt lat="42.91899" lon="0.58834">
        <ele>1510</ele>
        <time>2019-02-03T13:00:41.000Z</time>
      </trkpt>
      <trkpt lat="42.91899" lon="0.58834">
        <ele>1510</ele>
        <time>2019-02-03T13:00:42.000Z</time>
      </trkpt>
      <trkpt lat="42.91899" lon="0.58834">
        <ele>1510</ele>
        <time>2019-02-03T13:00:43.000Z</time>
      </trkpt>
      <trkpt lat="42.91899" lon="0.58834">
        <ele>1510</ele>
        <time>2019-02-03T13:00:44.000Z</time>
      </trkpt>
      <trkpt lat="42.91899" lon="0.58834">
        <ele>1510</ele>
        <time>2019-02-03T13:00:45.000Z</time>
      </trkpt>
      <trkpt lat="42.91899" lon="0.58833">
        <ele>1510</ele>
        <time>2019-02-03T13:00:46.000Z</time>
      </trkpt>
      <trkpt lat="42.91899" lon="0.58833">
        <ele>1510</ele>
        <time>2019-02-03T13:00:47.000Z</time>
      </trkpt>
      <trkpt lat="42.91899" lon="0.58833">
        <ele>1510</ele>
        <time>2019-02-03T13:00:48.000Z</time>
      </trkpt>
      <trkpt lat="42.91899" lon="0.58833">
        <ele>1510</ele>
        <time>2019-02-03T13:00:49.000Z</time>
      </trkpt>
      <trkpt lat="42.91899" lon="0.58833">
        <ele>1510</ele>
        <time>2019-02-03T13:00:50.000Z</time>
      </trkpt>
      <trkpt lat="42.91899" lon="0.58833">
        <ele>1509.5</ele>
        <time>2019-02-03T13:00:51.000Z</time>
      </trkpt>
      <trkpt lat="42.91899" lon="0.58833">
        <ele>1509</ele>
        <time>2019-02-03T13:00:52.000Z</time>
      </trkpt>
      <trkpt lat="42.91899" lon="0.58833">
        <ele>1509</ele>
        <time>2019-02-03T13:00:53.000Z</time>
      </trkpt>
      <trkpt lat="42.91899" lon="0.58832">
        <ele>1509</ele>
        <time>2019-02-03T13:00:54.000Z</time>
      </trkpt>
      <trkpt lat="42.91899" lon="0.58832">
        <ele>1509</ele>
        <time>2019-02-03T13:00:55.000Z</time>
      </trkpt>
      <trkpt lat="42.91899" lon="0.58832">
        <ele>1509</ele>
        <time>2019-02-03T13:00:56.000Z</time>
      </trkpt>
      <trkpt lat="42.91899" lon="0.58832">
        <ele>1509</ele>
        <time>2019-02-03T13:00:57.000Z</time>
      </trkpt>
      <trkpt lat="42.91899" lon="0.58832">
        <ele>1509</ele>
        <time>2019-02-03T13:00:58.000Z</time>
      </trkpt>
      <trkpt lat="42.91899" lon="0.58832">
        <ele>1509</ele>
        <time>2019-02-03T13:00:59.000Z</time>
      </trkpt>
      <trkpt lat="42.91899" lon="0.58832">
        <ele>1509</ele>
        <time>2019-02-03T13:01:00.000Z</time>
      </trkpt>
      <trkpt lat="42.91899" lon="0.58832">
        <ele>1509</ele>
        <time>2019-02-03T13:01:01.000Z</time>
      </trkpt>
      <trkpt lat="42.91899" lon="0.58832">
        <ele>1509</ele>
        <time>2019-02-03T13:01:02.000Z</time>
      </trkpt>
      <trkpt lat="42.91899" lon="0.58832">
        <ele>1509</ele>
        <time>2019-02-03T13:01:03.000Z</time>
      </trkpt>
      <trkpt lat="42.91899" lon="0.58832">
        <ele>1509</ele>
        <time>2019-02-03T13:01:04.000Z</time>
      </trkpt>
      <trkpt lat="42.91899" lon="0.58832">
        <ele>1509</ele>
        <time>2019-02-03T13:01:05.000Z</time>
      </trkpt>
      <trkpt lat="42.91899" lon="0.58832">
        <ele>1509</ele>
        <time>2019-02-03T13:01:06.000Z</time>
      </trkpt>
      <trkpt lat="42.91899" lon="0.58832">
        <ele>1509</ele>
        <time>2019-02-03T13:01:07.000Z</time>
      </trkpt>
      <trkpt lat="42.91899" lon="0.58832">
        <ele>1509</ele>
        <time>2019-02-03T13:01:08.000Z</time>
      </trkpt>
      <trkpt lat="42.91899" lon="0.58832">
        <ele>1509</ele>
        <time>2019-02-03T13:01:09.000Z</time>
      </trkpt>
      <trkpt lat="42.91899" lon="0.58832">
        <ele>1509</ele>
        <time>2019-02-03T13:01:10.000Z</time>
      </trkpt>
      <trkpt lat="42.91899" lon="0.58832">
        <ele>1509</ele>
        <time>2019-02-03T13:01:11.000Z</time>
      </trkpt>
      <trkpt lat="42.91899" lon="0.58832">
        <ele>1509</ele>
        <time>2019-02-03T13:01:12.000Z</time>
      </trkpt>
      <trkpt lat="42.91899" lon="0.58831">
        <ele>1509</ele>
        <time>2019-02-03T13:01:13.000Z</time>
      </trkpt>
      <trkpt lat="42.91899" lon="0.58831">
        <ele>1509</ele>
        <time>2019-02-03T13:01:14.000Z</time>
      </trkpt>
      <trkpt lat="42.91899" lon="0.58831">
        <ele>1509</ele>
        <time>2019-02-03T13:01:15.000Z</time>
      </trkpt>
      <trkpt lat="42.91899" lon="0.58831">
        <ele>1509</ele>
        <time>2019-02-03T13:01:16.000Z</time>
      </trkpt>
      <trkpt lat="42.91899" lon="0.58832">
        <ele>1509</ele>
        <time>2019-02-03T13:01:17.000Z</time>
      </trkpt>
      <trkpt lat="42.91899" lon="0.58832">
        <ele>1509</ele>
        <time>2019-02-03T13:01:18.000Z</time>
      </trkpt>
      <trkpt lat="42.91899" lon="0.58832">
        <ele>1509</ele>
        <time>2019-02-03T13:01:19.000Z</time>
      </trkpt>
      <trkpt lat="42.91899" lon="0.58832">
        <ele>1509</ele>
        <time>2019-02-03T13:01:20.000Z</time>
      </trkpt>
      <trkpt lat="42.91899" lon="0.58832">
        <ele>1509</ele>
        <time>2019-02-03T13:01:21.000Z</time>
      </trkpt>
      <trkpt lat="42.91899" lon="0.58832">
        <ele>1509</ele>
        <time>2019-02-03T13:01:22.000Z</time>
      </trkpt>
      <trkpt lat="42.91899" lon="0.58832">
        <ele>1509</ele>
        <time>2019-02-03T13:01:23.000Z</time>
      </trkpt>
      <trkpt lat="42.91899" lon="0.58832">
        <ele>1509</ele>
        <time>2019-02-03T13:01:24.000Z</time>
      </trkpt>
      <trkpt lat="42.91899" lon="0.58832">
        <ele>1509</ele>
        <time>2019-02-03T13:01:25.000Z</time>
      </trkpt>
      <trkpt lat="42.91899" lon="0.58832">
        <ele>1509</ele>
        <time>2019-02-03T13:01:26.000Z</time>
      </trkpt>
      <trkpt lat="42.91899" lon="0.58832">
        <ele>1509</ele>
        <time>2019-02-03T13:01:27.000Z</time>
      </trkpt>
      <trkpt lat="42.91899" lon="0.58832">
        <ele>1509</ele>
        <time>2019-02-03T13:01:28.000Z</time>
      </trkpt>
      <trkpt lat="42.91899" lon="0.58832">
        <ele>1509.5</ele>
        <time>2019-02-03T13:01:29.000Z</time>
      </trkpt>
      <trkpt lat="42.91899" lon="0.58832">
        <ele>1510</ele>
        <time>2019-02-03T13:01:30.000Z</time>
      </trkpt>
      <trkpt lat="42.91899" lon="0.58832">
        <ele>1509.5</ele>
        <time>2019-02-03T13:01:31.000Z</time>
      </trkpt>
      <trkpt lat="42.91899" lon="0.58832">
        <ele>1509</ele>
        <time>2019-02-03T13:01:32.000Z</time>
      </trkpt>
      <trkpt lat="42.91899" lon="0.58832">
        <ele>1509</ele>
        <time>2019-02-03T13:01:33.000Z</time>
      </trkpt>
      <trkpt lat="42.91899" lon="0.58832">
        <ele>1509</ele>
        <time>2019-02-03T13:01:34.000Z</time>
      </trkpt>
      <trkpt lat="42.91899" lon="0.58832">
        <ele>1509</ele>
        <time>2019-02-03T13:01:35.000Z</time>
      </trkpt>
      <trkpt lat="42.91899" lon="0.58832">
        <ele>1509</ele>
        <time>2019-02-03T13:01:36.000Z</time>
      </trkpt>
      <trkpt lat="42.91899" lon="0.58832">
        <ele>1509</ele>
        <time>2019-02-03T13:01:37.000Z</time>
      </trkpt>
      <trkpt lat="42.91899" lon="0.58832">
        <ele>1509</ele>
        <time>2019-02-03T13:01:38.000Z</time>
      </trkpt>
      <trkpt lat="42.91899" lon="0.58832">
        <ele>1509</ele>
        <time>2019-02-03T13:01:39.000Z</time>
      </trkpt>
      <trkpt lat="42.91899" lon="0.58832">
        <ele>1509</ele>
        <time>2019-02-03T13:01:40.000Z</time>
      </trkpt>
      <trkpt lat="42.91899" lon="0.58832">
        <ele>1509</ele>
        <time>2019-02-03T13:01:41.000Z</time>
      </trkpt>
      <trkpt lat="42.91899" lon="0.58832">
        <ele>1509</ele>
        <time>2019-02-03T13:01:42.000Z</time>
      </trkpt>
      <trkpt lat="42.91899" lon="0.58832">
        <ele>1509</ele>
        <time>2019-02-03T13:01:43.000Z</time>
      </trkpt>
      <trkpt lat="42.91899" lon="0.58832">
        <ele>1509</ele>
        <time>2019-02-03T13:01:44.000Z</time>
      </trkpt>
      <trkpt lat="42.91899" lon="0.58832">
        <ele>1509</ele>
        <time>2019-02-03T13:01:45.000Z</time>
      </trkpt>
      <trkpt lat="42.91899" lon="0.58833">
        <ele>1509</ele>
        <time>2019-02-03T13:01:46.000Z</time>
      </trkpt>
      <trkpt lat="42.91899" lon="0.58833">
        <ele>1509</ele>
        <time>2019-02-03T13:01:47.000Z</time>
      </trkpt>
      <trkpt lat="42.91899" lon="0.58833">
        <ele>1509</ele>
        <time>2019-02-03T13:01:48.000Z</time>
      </trkpt>
      <trkpt lat="42.91899" lon="0.58833">
        <ele>1509</ele>
        <time>2019-02-03T13:01:49.000Z</time>
      </trkpt>
      <trkpt lat="42.91899" lon="0.58833">
        <ele>1509</ele>
        <time>2019-02-03T13:01:50.000Z</time>
      </trkpt>
      <trkpt lat="42.91899" lon="0.58833">
        <ele>1510</ele>
        <time>2019-02-03T13:01:51.000Z</time>
      </trkpt>
      <trkpt lat="42.91899" lon="0.58833">
        <ele>1510</ele>
        <time>2019-02-03T13:01:52.000Z</time>
      </trkpt>
      <trkpt lat="42.91899" lon="0.58833">
        <ele>1510</ele>
        <time>2019-02-03T13:01:53.000Z</time>
      </trkpt>
      <trkpt lat="42.91899" lon="0.58833">
        <ele>1510</ele>
        <time>2019-02-03T13:01:54.000Z</time>
      </trkpt>
      <trkpt lat="42.91899" lon="0.58833">
        <ele>1510</ele>
        <time>2019-02-03T13:01:55.000Z</time>
      </trkpt>
      <trkpt lat="42.91899" lon="0.58833">
        <ele>1510</ele>
        <time>2019-02-03T13:01:56.000Z</time>
      </trkpt>
      <trkpt lat="42.91899" lon="0.58833">
        <ele>1509</ele>
        <time>2019-02-03T13:01:57.000Z</time>
      </trkpt>
      <trkpt lat="42.91899" lon="0.58833">
        <ele>1509</ele>
        <time>2019-02-03T13:01:58.000Z</time>
      </trkpt>
      <trkpt lat="42.91899" lon="0.58833">
        <ele>1509</ele>
        <time>2019-02-03T13:01:59.000Z</time>
      </trkpt>
      <trkpt lat="42.91899" lon="0.58833">
        <ele>1509</ele>
        <time>2019-02-03T13:02:00.000Z</time>
      </trkpt>
      <trkpt lat="42.91899" lon="0.58833">
        <ele>1509</ele>
        <time>2019-02-03T13:02:01.000Z</time>
      </trkpt>
      <trkpt lat="42.91899" lon="0.58833">
        <ele>1509</ele>
        <time>2019-02-03T13:02:02.000Z</time>
      </trkpt>
      <trkpt lat="42.91899" lon="0.58833">
        <ele>1509</ele>
        <time>2019-02-03T13:02:03.000Z</time>
      </trkpt>
      <trkpt lat="42.91899" lon="0.58833">
        <ele>1509</ele>
        <time>2019-02-03T13:02:04.000Z</time>
      </trkpt>
      <trkpt lat="42.91899" lon="0.58833">
        <ele>1509</ele>
        <time>2019-02-03T13:02:05.000Z</time>
      </trkpt>
      <trkpt lat="42.91899" lon="0.58833">
        <ele>1509.5</ele>
        <time>2019-02-03T13:02:06.000Z</time>
      </trkpt>
      <trkpt lat="42.91899" lon="0.58833">
        <ele>1510</ele>
        <time>2019-02-03T13:02:07.000Z</time>
      </trkpt>
      <trkpt lat="42.91899" lon="0.58833">
        <ele>1510</ele>
        <time>2019-02-03T13:02:08.000Z</time>
      </trkpt>
      <trkpt lat="42.91899" lon="0.58833">
        <ele>1510</ele>
        <time>2019-02-03T13:02:09.000Z</time>
      </trkpt>
      <trkpt lat="42.91899" lon="0.58833">
        <ele>1510</ele>
        <time>2019-02-03T13:02:10.000Z</time>
      </trkpt>
      <trkpt lat="42.91899" lon="0.58833">
        <ele>1510</ele>
        <time>2019-02-03T13:02:11.000Z</time>
      </trkpt>
      <trkpt lat="42.91899" lon="0.58833">
        <ele>1510</ele>
        <time>2019-02-03T13:02:12.000Z</time>
      </trkpt>
      <trkpt lat="42.91899" lon="0.58833">
        <ele>1510</ele>
        <time>2019-02-03T13:02:13.000Z</time>
      </trkpt>
      <trkpt lat="42.91899" lon="0.58833">
        <ele>1510</ele>
        <time>2019-02-03T13:02:14.000Z</time>
      </trkpt>
      <trkpt lat="42.91899" lon="0.58833">
        <ele>1510</ele>
        <time>2019-02-03T13:02:15.000Z</time>
      </trkpt>
      <trkpt lat="42.91899" lon="0.58833">
        <ele>1510</ele>
        <time>2019-02-03T13:02:16.000Z</time>
      </trkpt>
      <trkpt lat="42.91899" lon="0.58833">
        <ele>1510</ele>
        <time>2019-02-03T13:02:17.000Z</time>
      </trkpt>
      <trkpt lat="42.91899" lon="0.58833">
        <ele>1510</ele>
        <time>2019-02-03T13:02:18.000Z</time>
      </trkpt>
      <trkpt lat="42.91899" lon="0.58833">
        <ele>1510</ele>
        <time>2019-02-03T13:02:19.000Z</time>
      </trkpt>
      <trkpt lat="42.91899" lon="0.58833">
        <ele>1510</ele>
        <time>2019-02-03T13:02:20.000Z</time>
      </trkpt>
      <trkpt lat="42.91899" lon="0.58833">
        <ele>1510</ele>
        <time>2019-02-03T13:02:21.000Z</time>
      </trkpt>
      <trkpt lat="42.91899" lon="0.58833">
        <ele>1510</ele>
        <time>2019-02-03T13:02:22.000Z</time>
      </trkpt>
      <trkpt lat="42.91899" lon="0.58833">
        <ele>1510</ele>
        <time>2019-02-03T13:02:23.000Z</time>
      </trkpt>
      <trkpt lat="42.91899" lon="0.58833">
        <ele>1509.7</ele>
        <time>2019-02-03T13:02:24.000Z</time>
      </trkpt>
      <trkpt lat="42.91899" lon="0.58833">
        <ele>1509.3</ele>
        <time>2019-02-03T13:02:25.000Z</time>
      </trkpt>
      <trkpt lat="42.91899" lon="0.58833">
        <ele>1509</ele>
        <time>2019-02-03T13:02:26.000Z</time>
      </trkpt>
      <trkpt lat="42.91899" lon="0.58833">
        <ele>1509</ele>
        <time>2019-02-03T13:02:27.000Z</time>
      </trkpt>
      <trkpt lat="42.91899" lon="0.58833">
        <ele>1509</ele>
        <time>2019-02-03T13:02:28.000Z</time>
      </trkpt>
      <trkpt lat="42.91899" lon="0.58833">
        <ele>1509</ele>
        <time>2019-02-03T13:02:29.000Z</time>
      </trkpt>
      <trkpt lat="42.91899" lon="0.58833">
        <ele>1509</ele>
        <time>2019-02-03T13:02:30.000Z</time>
      </trkpt>
      <trkpt lat="42.91899" lon="0.58833">
        <ele>1509</ele>
        <time>2019-02-03T13:02:31.000Z</time>
      </trkpt>
      <trkpt lat="42.91899" lon="0.58833">
        <ele>1509</ele>
        <time>2019-02-03T13:02:32.000Z</time>
      </trkpt>
      <trkpt lat="42.91899" lon="0.58833">
        <ele>1509.5</ele>
        <time>2019-02-03T13:02:33.000Z</time>
      </trkpt>
      <trkpt lat="42.91899" lon="0.58833">
        <ele>1510</ele>
        <time>2019-02-03T13:02:34.000Z</time>
      </trkpt>
      <trkpt lat="42.91899" lon="0.58833">
        <ele>1510</ele>
        <time>2019-02-03T13:02:35.000Z</time>
      </trkpt>
      <trkpt lat="42.91899" lon="0.58833">
        <ele>1510</ele>
        <time>2019-02-03T13:02:36.000Z</time>
      </trkpt>
      <trkpt lat="42.91899" lon="0.58833">
        <ele>1510</ele>
        <time>2019-02-03T13:02:37.000Z</time>
      </trkpt>
      <trkpt lat="42.91899" lon="0.58833">
        <ele>1510</ele>
        <time>2019-02-03T13:02:38.000Z</time>
      </trkpt>
      <trkpt lat="42.91899" lon="0.58833">
        <ele>1510</ele>
        <time>2019-02-03T13:02:39.000Z</time>
      </trkpt>
      <trkpt lat="42.91899" lon="0.58833">
        <ele>1510</ele>
        <time>2019-02-03T13:02:40.000Z</time>
      </trkpt>
      <trkpt lat="42.91899" lon="0.58833">
        <ele>1510</ele>
        <time>2019-02-03T13:02:41.000Z</time>
      </trkpt>
      <trkpt lat="42.91899" lon="0.58833">
        <ele>1510</ele>
        <time>2019-02-03T13:02:42.000Z</time>
      </trkpt>
      <trkpt lat="42.91899" lon="0.58833">
        <ele>1510</ele>
        <time>2019-02-03T13:02:43.000Z</time>
      </trkpt>
      <trkpt lat="42.91899" lon="0.58833">
        <ele>1510</ele>
        <time>2019-02-03T13:02:44.000Z</time>
      </trkpt>
      <trkpt lat="42.91899" lon="0.58833">
        <ele>1510</ele>
        <time>2019-02-03T13:02:45.000Z</time>
      </trkpt>
      <trkpt lat="42.91899" lon="0.58833">
        <ele>1510</ele>
        <time>2019-02-03T13:02:46.000Z</time>
      </trkpt>
      <trkpt lat="42.91899" lon="0.58833">
        <ele>1510</ele>
        <time>2019-02-03T13:02:47.000Z</time>
      </trkpt>
      <trkpt lat="42.91899" lon="0.58833">
        <ele>1510</ele>
        <time>2019-02-03T13:02:48.000Z</time>
      </trkpt>
      <trkpt lat="42.91899" lon="0.58833">
        <ele>1510</ele>
        <time>2019-02-03T13:02:49.000Z</time>
      </trkpt>
      <trkpt lat="42.91899" lon="0.58833">
        <ele>1510</ele>
        <time>2019-02-03T13:02:50.000Z</time>
      </trkpt>
      <trkpt lat="42.91899" lon="0.58833">
        <ele>1510</ele>
        <time>2019-02-03T13:02:51.000Z</time>
      </trkpt>
      <trkpt lat="42.91899" lon="0.58833">
        <ele>1510</ele>
        <time>2019-02-03T13:02:52.000Z</time>
      </trkpt>
      <trkpt lat="42.919" lon="0.58833">
        <ele>1510</ele>
        <time>2019-02-03T13:02:53.000Z</time>
      </trkpt>
      <trkpt lat="42.919" lon="0.58833">
        <ele>1510</ele>
        <time>2019-02-03T13:02:54.000Z</time>
      </trkpt>
      <trkpt lat="42.919" lon="0.58833">
        <ele>1510</ele>
        <time>2019-02-03T13:02:55.000Z</time>
      </trkpt>
      <trkpt lat="42.919" lon="0.58833">
        <ele>1510</ele>
        <time>2019-02-03T13:02:56.000Z</time>
      </trkpt>
      <trkpt lat="42.91901" lon="0.58834">
        <ele>1510</ele>
        <time>2019-02-03T13:02:57.000Z</time>
      </trkpt>
      <trkpt lat="42.91901" lon="0.58834">
        <ele>1510</ele>
        <time>2019-02-03T13:02:58.000Z</time>
      </trkpt>
      <trkpt lat="42.91902" lon="0.58834">
        <ele>1510</ele>
        <time>2019-02-03T13:02:59.000Z</time>
      </trkpt>
      <trkpt lat="42.91902" lon="0.58834">
        <ele>1510</ele>
        <time>2019-02-03T13:03:00.000Z</time>
      </trkpt>
      <trkpt lat="42.91902" lon="0.58834">
        <ele>1510</ele>
        <time>2019-02-03T13:03:01.000Z</time>
      </trkpt>
      <trkpt lat="42.91902" lon="0.58834">
        <ele>1510</ele>
        <time>2019-02-03T13:03:02.000Z</time>
      </trkpt>
      <trkpt lat="42.91902" lon="0.58834">
        <ele>1510</ele>
        <time>2019-02-03T13:03:03.000Z</time>
      </trkpt>
      <trkpt lat="42.91902" lon="0.58834">
        <ele>1510</ele>
        <time>2019-02-03T13:03:04.000Z</time>
      </trkpt>
      <trkpt lat="42.91902" lon="0.58834">
        <ele>1510</ele>
        <time>2019-02-03T13:03:05.000Z</time>
      </trkpt>
      <trkpt lat="42.91902" lon="0.58834">
        <ele>1510</ele>
        <time>2019-02-03T13:03:06.000Z</time>
      </trkpt>
      <trkpt lat="42.91902" lon="0.58833">
        <ele>1510</ele>
        <time>2019-02-03T13:03:07.000Z</time>
      </trkpt>
      <trkpt lat="42.91902" lon="0.58833">
        <ele>1510</ele>
        <time>2019-02-03T13:03:08.000Z</time>
      </trkpt>
      <trkpt lat="42.91902" lon="0.58833">
        <ele>1510</ele>
        <time>2019-02-03T13:03:09.000Z</time>
      </trkpt>
      <trkpt lat="42.91903" lon="0.58833">
        <ele>1510</ele>
        <time>2019-02-03T13:03:10.000Z</time>
      </trkpt>
      <trkpt lat="42.91903" lon="0.58832">
        <ele>1510</ele>
        <time>2019-02-03T13:03:11.000Z</time>
      </trkpt>
      <trkpt lat="42.91903" lon="0.58832">
        <ele>1510</ele>
        <time>2019-02-03T13:03:12.000Z</time>
      </trkpt>
      <trkpt lat="42.91903" lon="0.58832">
        <ele>1510</ele>
        <time>2019-02-03T13:03:13.000Z</time>
      </trkpt>
      <trkpt lat="42.91903" lon="0.58832">
        <ele>1510</ele>
        <time>2019-02-03T13:03:14.000Z</time>
      </trkpt>
      <trkpt lat="42.91903" lon="0.58832">
        <ele>1510</ele>
        <time>2019-02-03T13:03:15.000Z</time>
      </trkpt>
      <trkpt lat="42.91903" lon="0.58832">
        <ele>1510</ele>
        <time>2019-02-03T13:03:16.000Z</time>
      </trkpt>
      <trkpt lat="42.91903" lon="0.58832">
        <ele>1510</ele>
        <time>2019-02-03T13:03:17.000Z</time>
      </trkpt>
      <trkpt lat="42.91903" lon="0.58832">
        <ele>1510</ele>
        <time>2019-02-03T13:03:18.000Z</time>
      </trkpt>
      <trkpt lat="42.91903" lon="0.58832">
        <ele>1510</ele>
        <time>2019-02-03T13:03:19.000Z</time>
      </trkpt>
      <trkpt lat="42.91903" lon="0.58832">
        <ele>1510</ele>
        <time>2019-02-03T13:03:20.000Z</time>
      </trkpt>
      <trkpt lat="42.91903" lon="0.58832">
        <ele>1510</ele>
        <time>2019-02-03T13:03:21.000Z</time>
      </trkpt>
      <trkpt lat="42.91903" lon="0.58832">
        <ele>1510</ele>
        <time>2019-02-03T13:03:22.000Z</time>
      </trkpt>
      <trkpt lat="42.91903" lon="0.58832">
        <ele>1511</ele>
        <time>2019-02-03T13:03:23.000Z</time>
      </trkpt>
      <trkpt lat="42.91903" lon="0.58832">
        <ele>1511</ele>
        <time>2019-02-03T13:03:24.000Z</time>
      </trkpt>
      <trkpt lat="42.91903" lon="0.58832">
        <ele>1511</ele>
        <time>2019-02-03T13:03:25.000Z</time>
      </trkpt>
      <trkpt lat="42.91903" lon="0.58832">
        <ele>1511</ele>
        <time>2019-02-03T13:03:26.000Z</time>
      </trkpt>
      <trkpt lat="42.91903" lon="0.58832">
        <ele>1510.5</ele>
        <time>2019-02-03T13:03:27.000Z</time>
      </trkpt>
      <trkpt lat="42.91903" lon="0.58832">
        <ele>1510</ele>
        <time>2019-02-03T13:03:28.000Z</time>
      </trkpt>
      <trkpt lat="42.91903" lon="0.58832">
        <ele>1510</ele>
        <time>2019-02-03T13:03:29.000Z</time>
      </trkpt>
      <trkpt lat="42.91903" lon="0.58832">
        <ele>1510</ele>
        <time>2019-02-03T13:03:30.000Z</time>
      </trkpt>
      <trkpt lat="42.91903" lon="0.58832">
        <ele>1510</ele>
        <time>2019-02-03T13:03:31.000Z</time>
      </trkpt>
      <trkpt lat="42.91903" lon="0.58832">
        <ele>1510</ele>
        <time>2019-02-03T13:03:32.000Z</time>
      </trkpt>
      <trkpt lat="42.91903" lon="0.58832">
        <ele>1510</ele>
        <time>2019-02-03T13:03:33.000Z</time>
      </trkpt>
      <trkpt lat="42.91903" lon="0.58832">
        <ele>1510</ele>
        <time>2019-02-03T13:03:34.000Z</time>
      </trkpt>
      <trkpt lat="42.91903" lon="0.58832">
        <ele>1510</ele>
        <time>2019-02-03T13:03:35.000Z</time>
      </trkpt>
      <trkpt lat="42.91903" lon="0.58832">
        <ele>1510</ele>
        <time>2019-02-03T13:03:36.000Z</time>
      </trkpt>
      <trkpt lat="42.91903" lon="0.58832">
        <ele>1510</ele>
        <time>2019-02-03T13:03:37.000Z</time>
      </trkpt>
      <trkpt lat="42.91903" lon="0.58832">
        <ele>1510</ele>
        <time>2019-02-03T13:03:38.000Z</time>
      </trkpt>
      <trkpt lat="42.91903" lon="0.58832">
        <ele>1510</ele>
        <time>2019-02-03T13:03:39.000Z</time>
      </trkpt>
      <trkpt lat="42.91903" lon="0.58832">
        <ele>1510.3</ele>
        <time>2019-02-03T13:03:40.000Z</time>
      </trkpt>
      <trkpt lat="42.91903" lon="0.58832">
        <ele>1510.7</ele>
        <time>2019-02-03T13:03:41.000Z</time>
      </trkpt>
      <trkpt lat="42.91903" lon="0.58832">
        <ele>1511</ele>
        <time>2019-02-03T13:03:42.000Z</time>
      </trkpt>
      <trkpt lat="42.91903" lon="0.58832">
        <ele>1511</ele>
        <time>2019-02-03T13:03:43.000Z</time>
      </trkpt>
      <trkpt lat="42.91903" lon="0.58832">
        <ele>1511</ele>
        <time>2019-02-03T13:03:44.000Z</time>
      </trkpt>
      <trkpt lat="42.91903" lon="0.58832">
        <ele>1510.5</ele>
        <time>2019-02-03T13:03:45.000Z</time>
      </trkpt>
      <trkpt lat="42.91903" lon="0.58832">
        <ele>1510</ele>
        <time>2019-02-03T13:03:46.000Z</time>
      </trkpt>
      <trkpt lat="42.91903" lon="0.58832">
        <ele>1510</ele>
        <time>2019-02-03T13:03:47.000Z</time>
      </trkpt>
      <trkpt lat="42.91903" lon="0.58832">
        <ele>1510</ele>
        <time>2019-02-03T13:03:48.000Z</time>
      </trkpt>
      <trkpt lat="42.91903" lon="0.58832">
        <ele>1510</ele>
        <time>2019-02-03T13:03:49.000Z</time>
      </trkpt>
      <trkpt lat="42.91903" lon="0.58832">
        <ele>1510</ele>
        <time>2019-02-03T13:03:50.000Z</time>
      </trkpt>
      <trkpt lat="42.91903" lon="0.58832">
        <ele>1510</ele>
        <time>2019-02-03T13:03:51.000Z</time>
      </trkpt>
      <trkpt lat="42.91903" lon="0.58832">
        <ele>1510</ele>
        <time>2019-02-03T13:03:52.000Z</time>
      </trkpt>
      <trkpt lat="42.91903" lon="0.58832">
        <ele>1510</ele>
        <time>2019-02-03T13:03:53.000Z</time>
      </trkpt>
      <trkpt lat="42.91903" lon="0.58832">
        <ele>1510</ele>
        <time>2019-02-03T13:03:54.000Z</time>
      </trkpt>
      <trkpt lat="42.91903" lon="0.58832">
        <ele>1510</ele>
        <time>2019-02-03T13:03:55.000Z</time>
      </trkpt>
      <trkpt lat="42.91903" lon="0.58832">
        <ele>1510</ele>
        <time>2019-02-03T13:03:56.000Z</time>
      </trkpt>
      <trkpt lat="42.91903" lon="0.58832">
        <ele>1510</ele>
        <time>2019-02-03T13:03:57.000Z</time>
      </trkpt>
      <trkpt lat="42.91903" lon="0.58832">
        <ele>1510</ele>
        <time>2019-02-03T13:03:58.000Z</time>
      </trkpt>
      <trkpt lat="42.91903" lon="0.58832">
        <ele>1510</ele>
        <time>2019-02-03T13:03:59.000Z</time>
      </trkpt>
      <trkpt lat="42.91903" lon="0.58832">
        <ele>1510</ele>
        <time>2019-02-03T13:04:00.000Z</time>
      </trkpt>
      <trkpt lat="42.91903" lon="0.58832">
        <ele>1510</ele>
        <time>2019-02-03T13:04:01.000Z</time>
      </trkpt>
      <trkpt lat="42.91903" lon="0.58832">
        <ele>1510</ele>
        <time>2019-02-03T13:04:02.000Z</time>
      </trkpt>
      <trkpt lat="42.91903" lon="0.58832">
        <ele>1510</ele>
        <time>2019-02-03T13:04:03.000Z</time>
      </trkpt>
      <trkpt lat="42.91903" lon="0.58832">
        <ele>1510</ele>
        <time>2019-02-03T13:04:04.000Z</time>
      </trkpt>
      <trkpt lat="42.91903" lon="0.58832">
        <ele>1510</ele>
        <time>2019-02-03T13:04:05.000Z</time>
      </trkpt>
      <trkpt lat="42.91903" lon="0.58832">
        <ele>1510</ele>
        <time>2019-02-03T13:04:06.000Z</time>
      </trkpt>
      <trkpt lat="42.91903" lon="0.58832">
        <ele>1510</ele>
        <time>2019-02-03T13:04:07.000Z</time>
      </trkpt>
      <trkpt lat="42.91903" lon="0.58833">
        <ele>1510</ele>
        <time>2019-02-03T13:04:08.000Z</time>
      </trkpt>
      <trkpt lat="42.91903" lon="0.58833">
        <ele>1510</ele>
        <time>2019-02-03T13:04:09.000Z</time>
      </trkpt>
      <trkpt lat="42.91903" lon="0.58833">
        <ele>1510</ele>
        <time>2019-02-03T13:04:10.000Z</time>
      </trkpt>
      <trkpt lat="42.91903" lon="0.58833">
        <ele>1510</ele>
        <time>2019-02-03T13:04:11.000Z</time>
      </trkpt>
      <trkpt lat="42.91903" lon="0.58833">
        <ele>1510</ele>
        <time>2019-02-03T13:04:12.000Z</time>
      </trkpt>
      <trkpt lat="42.91903" lon="0.58833">
        <ele>1510</ele>
        <time>2019-02-03T13:04:13.000Z</time>
      </trkpt>
      <trkpt lat="42.91903" lon="0.58833">
        <ele>1510</ele>
        <time>2019-02-03T13:04:14.000Z</time>
      </trkpt>
      <trkpt lat="42.91903" lon="0.58833">
        <ele>1510</ele>
        <time>2019-02-03T13:04:15.000Z</time>
      </trkpt>
      <trkpt lat="42.91903" lon="0.58833">
        <ele>1510</ele>
        <time>2019-02-03T13:04:16.000Z</time>
      </trkpt>
      <trkpt lat="42.91903" lon="0.58833">
        <ele>1510</ele>
        <time>2019-02-03T13:04:17.000Z</time>
      </trkpt>
      <trkpt lat="42.91903" lon="0.58834">
        <ele>1510</ele>
        <time>2019-02-03T13:04:18.000Z</time>
      </trkpt>
      <trkpt lat="42.91903" lon="0.58834">
        <ele>1510</ele>
        <time>2019-02-03T13:04:19.000Z</time>
      </trkpt>
      <trkpt lat="42.91903" lon="0.58834">
        <ele>1510</ele>
        <time>2019-02-03T13:04:20.000Z</time>
      </trkpt>
      <trkpt lat="42.91903" lon="0.58834">
        <ele>1510</ele>
        <time>2019-02-03T13:04:21.000Z</time>
      </trkpt>
      <trkpt lat="42.91903" lon="0.58834">
        <ele>1510</ele>
        <time>2019-02-03T13:04:22.000Z</time>
      </trkpt>
      <trkpt lat="42.91903" lon="0.58834">
        <ele>1510</ele>
        <time>2019-02-03T13:04:23.000Z</time>
      </trkpt>
      <trkpt lat="42.91903" lon="0.58834">
        <ele>1510</ele>
        <time>2019-02-03T13:04:24.000Z</time>
      </trkpt>
      <trkpt lat="42.91903" lon="0.58834">
        <ele>1510</ele>
        <time>2019-02-03T13:04:25.000Z</time>
      </trkpt>
      <trkpt lat="42.91903" lon="0.58834">
        <ele>1510</ele>
        <time>2019-02-03T13:04:26.000Z</time>
      </trkpt>
      <trkpt lat="42.91902" lon="0.58834">
        <ele>1510</ele>
        <time>2019-02-03T13:04:27.000Z</time>
      </trkpt>
      <trkpt lat="42.91902" lon="0.58834">
        <ele>1510</ele>
        <time>2019-02-03T13:04:28.000Z</time>
      </trkpt>
      <trkpt lat="42.91902" lon="0.58835">
        <ele>1510</ele>
        <time>2019-02-03T13:04:29.000Z</time>
      </trkpt>
      <trkpt lat="42.91902" lon="0.58835">
        <ele>1510</ele>
        <time>2019-02-03T13:04:30.000Z</time>
      </trkpt>
      <trkpt lat="42.91902" lon="0.58835">
        <ele>1509</ele>
        <time>2019-02-03T13:04:31.000Z</time>
      </trkpt>
      <trkpt lat="42.91902" lon="0.58835">
        <ele>1509.3</ele>
        <time>2019-02-03T13:04:32.000Z</time>
      </trkpt>
      <trkpt lat="42.91902" lon="0.58835">
        <ele>1509.7</ele>
        <time>2019-02-03T13:04:33.000Z</time>
      </trkpt>
      <trkpt lat="42.91902" lon="0.58835">
        <ele>1510</ele>
        <time>2019-02-03T13:04:34.000Z</time>
      </trkpt>
      <trkpt lat="42.91902" lon="0.58835">
        <ele>1510</ele>
        <time>2019-02-03T13:04:35.000Z</time>
      </trkpt>
      <trkpt lat="42.91902" lon="0.58835">
        <ele>1510</ele>
        <time>2019-02-03T13:04:36.000Z</time>
      </trkpt>
      <trkpt lat="42.91902" lon="0.58835">
        <ele>1510</ele>
        <time>2019-02-03T13:04:37.000Z</time>
      </trkpt>
      <trkpt lat="42.91902" lon="0.58835">
        <ele>1510</ele>
        <time>2019-02-03T13:04:38.000Z</time>
      </trkpt>
      <trkpt lat="42.91902" lon="0.58834">
        <ele>1510</ele>
        <time>2019-02-03T13:04:39.000Z</time>
      </trkpt>
      <trkpt lat="42.91903" lon="0.58834">
        <ele>1510</ele>
        <time>2019-02-03T13:04:40.000Z</time>
      </trkpt>
      <trkpt lat="42.91903" lon="0.58834">
        <ele>1510</ele>
        <time>2019-02-03T13:04:41.000Z</time>
      </trkpt>
      <trkpt lat="42.91903" lon="0.58834">
        <ele>1510</ele>
        <time>2019-02-03T13:04:42.000Z</time>
      </trkpt>
      <trkpt lat="42.91903" lon="0.58834">
        <ele>1510</ele>
        <time>2019-02-03T13:04:43.000Z</time>
      </trkpt>
      <trkpt lat="42.91902" lon="0.58835">
        <ele>1510</ele>
        <time>2019-02-03T13:04:44.000Z</time>
      </trkpt>
      <trkpt lat="42.91902" lon="0.58835">
        <ele>1510</ele>
        <time>2019-02-03T13:04:45.000Z</time>
      </trkpt>
      <trkpt lat="42.91902" lon="0.58835">
        <ele>1510</ele>
        <time>2019-02-03T13:04:46.000Z</time>
      </trkpt>
      <trkpt lat="42.91902" lon="0.58835">
        <ele>1510</ele>
        <time>2019-02-03T13:04:47.000Z</time>
      </trkpt>
      <trkpt lat="42.91902" lon="0.58835">
        <ele>1510</ele>
        <time>2019-02-03T13:04:48.000Z</time>
      </trkpt>
      <trkpt lat="42.91902" lon="0.58835">
        <ele>1510</ele>
        <time>2019-02-03T13:04:49.000Z</time>
      </trkpt>
      <trkpt lat="42.91902" lon="0.58835">
        <ele>1510</ele>
        <time>2019-02-03T13:04:50.000Z</time>
      </trkpt>
      <trkpt lat="42.91902" lon="0.58835">
        <ele>1510</ele>
        <time>2019-02-03T13:04:51.000Z</time>
      </trkpt>
      <trkpt lat="42.91902" lon="0.58835">
        <ele>1510</ele>
        <time>2019-02-03T13:04:52.000Z</time>
      </trkpt>
      <trkpt lat="42.91902" lon="0.58835">
        <ele>1510</ele>
        <time>2019-02-03T13:04:53.000Z</time>
      </trkpt>
      <trkpt lat="42.91902" lon="0.58835">
        <ele>1510</ele>
        <time>2019-02-03T13:04:54.000Z</time>
      </trkpt>
      <trkpt lat="42.91902" lon="0.58835">
        <ele>1510</ele>
        <time>2019-02-03T13:04:55.000Z</time>
      </trkpt>
      <trkpt lat="42.91902" lon="0.58835">
        <ele>1510</ele>
        <time>2019-02-03T13:04:56.000Z</time>
      </trkpt>
      <trkpt lat="42.91902" lon="0.58835">
        <ele>1510</ele>
        <time>2019-02-03T13:04:57.000Z</time>
      </trkpt>
      <trkpt lat="42.91902" lon="0.58835">
        <ele>1510</ele>
        <time>2019-02-03T13:04:58.000Z</time>
      </trkpt>
      <trkpt lat="42.91902" lon="0.58835">
        <ele>1510</ele>
        <time>2019-02-03T13:04:59.000Z</time>
      </trkpt>
      <trkpt lat="42.91902" lon="0.58835">
        <ele>1510</ele>
        <time>2019-02-03T13:05:00.000Z</time>
      </trkpt>
      <trkpt lat="42.91902" lon="0.58835">
        <ele>1511</ele>
        <time>2019-02-03T13:05:01.000Z</time>
      </trkpt>
      <trkpt lat="42.91902" lon="0.58835">
        <ele>1510.7</ele>
        <time>2019-02-03T13:05:02.000Z</time>
      </trkpt>
      <trkpt lat="42.91902" lon="0.58835">
        <ele>1510.3</ele>
        <time>2019-02-03T13:05:03.000Z</time>
      </trkpt>
      <trkpt lat="42.91902" lon="0.58836">
        <ele>1510</ele>
        <time>2019-02-03T13:05:04.000Z</time>
      </trkpt>
      <trkpt lat="42.91902" lon="0.58836">
        <ele>1510</ele>
        <time>2019-02-03T13:05:05.000Z</time>
      </trkpt>
      <trkpt lat="42.91902" lon="0.58836">
        <ele>1510</ele>
        <time>2019-02-03T13:05:06.000Z</time>
      </trkpt>
      <trkpt lat="42.91902" lon="0.58836">
        <ele>1510</ele>
        <time>2019-02-03T13:05:07.000Z</time>
      </trkpt>
      <trkpt lat="42.91902" lon="0.58836">
        <ele>1510</ele>
        <time>2019-02-03T13:05:08.000Z</time>
      </trkpt>
      <trkpt lat="42.91902" lon="0.58836">
        <ele>1510</ele>
        <time>2019-02-03T13:05:09.000Z</time>
      </trkpt>
      <trkpt lat="42.91902" lon="0.58837">
        <ele>1510</ele>
        <time>2019-02-03T13:05:10.000Z</time>
      </trkpt>
      <trkpt lat="42.91902" lon="0.58837">
        <ele>1510</ele>
        <time>2019-02-03T13:05:11.000Z</time>
      </trkpt>
      <trkpt lat="42.91903" lon="0.58837">
        <ele>1510</ele>
        <time>2019-02-03T13:05:12.000Z</time>
      </trkpt>
      <trkpt lat="42.91903" lon="0.58837">
        <ele>1510</ele>
        <time>2019-02-03T13:05:13.000Z</time>
      </trkpt>
      <trkpt lat="42.91903" lon="0.58837">
        <ele>1510</ele>
        <time>2019-02-03T13:05:14.000Z</time>
      </trkpt>
      <trkpt lat="42.91903" lon="0.58837">
        <ele>1510</ele>
        <time>2019-02-03T13:05:15.000Z</time>
      </trkpt>
      <trkpt lat="42.91904" lon="0.58837">
        <ele>1510</ele>
        <time>2019-02-03T13:05:16.000Z</time>
      </trkpt>
      <trkpt lat="42.91904" lon="0.58837">
        <ele>1510</ele>
        <time>2019-02-03T13:05:17.000Z</time>
      </trkpt>
      <trkpt lat="42.91904" lon="0.58837">
        <ele>1510</ele>
        <time>2019-02-03T13:05:18.000Z</time>
      </trkpt>
      <trkpt lat="42.91904" lon="0.58837">
        <ele>1510</ele>
        <time>2019-02-03T13:05:19.000Z</time>
      </trkpt>
      <trkpt lat="42.91904" lon="0.58837">
        <ele>1510</ele>
        <time>2019-02-03T13:05:20.000Z</time>
      </trkpt>
      <trkpt lat="42.91904" lon="0.58837">
        <ele>1510</ele>
        <time>2019-02-03T13:05:21.000Z</time>
      </trkpt>
      <trkpt lat="42.91905" lon="0.58837">
        <ele>1510</ele>
        <time>2019-02-03T13:05:22.000Z</time>
      </trkpt>
      <trkpt lat="42.91905" lon="0.58837">
        <ele>1510</ele>
        <time>2019-02-03T13:05:23.000Z</time>
      </trkpt>
      <trkpt lat="42.91905" lon="0.58837">
        <ele>1510</ele>
        <time>2019-02-03T13:05:24.000Z</time>
      </trkpt>
      <trkpt lat="42.91905" lon="0.58837">
        <ele>1510</ele>
        <time>2019-02-03T13:05:25.000Z</time>
      </trkpt>
      <trkpt lat="42.91905" lon="0.58837">
        <ele>1510</ele>
        <time>2019-02-03T13:05:26.000Z</time>
      </trkpt>
      <trkpt lat="42.91905" lon="0.58837">
        <ele>1510</ele>
        <time>2019-02-03T13:05:27.000Z</time>
      </trkpt>
      <trkpt lat="42.91905" lon="0.58837">
        <ele>1510</ele>
        <time>2019-02-03T13:05:28.000Z</time>
      </trkpt>
      <trkpt lat="42.91905" lon="0.58837">
        <ele>1510</ele>
        <time>2019-02-03T13:05:29.000Z</time>
      </trkpt>
      <trkpt lat="42.91905" lon="0.58837">
        <ele>1510</ele>
        <time>2019-02-03T13:05:30.000Z</time>
      </trkpt>
      <trkpt lat="42.91905" lon="0.58837">
        <ele>1510</ele>
        <time>2019-02-03T13:05:31.000Z</time>
      </trkpt>
      <trkpt lat="42.91905" lon="0.58837">
        <ele>1510</ele>
        <time>2019-02-03T13:05:32.000Z</time>
      </trkpt>
      <trkpt lat="42.91905" lon="0.58837">
        <ele>1510</ele>
        <time>2019-02-03T13:05:33.000Z</time>
      </trkpt>
      <trkpt lat="42.91905" lon="0.58837">
        <ele>1510</ele>
        <time>2019-02-03T13:05:34.000Z</time>
      </trkpt>
      <trkpt lat="42.91905" lon="0.58837">
        <ele>1510</ele>
        <time>2019-02-03T13:05:35.000Z</time>
      </trkpt>
      <trkpt lat="42.91905" lon="0.58837">
        <ele>1510</ele>
        <time>2019-02-03T13:05:36.000Z</time>
      </trkpt>
      <trkpt lat="42.91905" lon="0.58837">
        <ele>1510</ele>
        <time>2019-02-03T13:05:37.000Z</time>
      </trkpt>
      <trkpt lat="42.91905" lon="0.58837">
        <ele>1510</ele>
        <time>2019-02-03T13:05:38.000Z</time>
      </trkpt>
      <trkpt lat="42.91905" lon="0.58837">
        <ele>1510</ele>
        <time>2019-02-03T13:05:39.000Z</time>
      </trkpt>
      <trkpt lat="42.91905" lon="0.58837">
        <ele>1510</ele>
        <time>2019-02-03T13:05:40.000Z</time>
      </trkpt>
      <trkpt lat="42.91905" lon="0.58837">
        <ele>1510</ele>
        <time>2019-02-03T13:05:41.000Z</time>
      </trkpt>
      <trkpt lat="42.91905" lon="0.58837">
        <ele>1510</ele>
        <time>2019-02-03T13:05:42.000Z</time>
      </trkpt>
      <trkpt lat="42.91905" lon="0.58837">
        <ele>1510</ele>
        <time>2019-02-03T13:05:43.000Z</time>
      </trkpt>
      <trkpt lat="42.91905" lon="0.58837">
        <ele>1509.7</ele>
        <time>2019-02-03T13:05:44.000Z</time>
      </trkpt>
      <trkpt lat="42.91905" lon="0.58837">
        <ele>1509.3</ele>
        <time>2019-02-03T13:05:45.000Z</time>
      </trkpt>
      <trkpt lat="42.91905" lon="0.58837">
        <ele>1509</ele>
        <time>2019-02-03T13:05:46.000Z</time>
      </trkpt>
      <trkpt lat="42.91905" lon="0.58837">
        <ele>1509</ele>
        <time>2019-02-03T13:05:47.000Z</time>
      </trkpt>
      <trkpt lat="42.91905" lon="0.58837">
        <ele>1509</ele>
        <time>2019-02-03T13:05:48.000Z</time>
      </trkpt>
      <trkpt lat="42.91905" lon="0.58837">
        <ele>1509</ele>
        <time>2019-02-03T13:05:49.000Z</time>
      </trkpt>
      <trkpt lat="42.91905" lon="0.58837">
        <ele>1509</ele>
        <time>2019-02-03T13:05:50.000Z</time>
      </trkpt>
      <trkpt lat="42.91905" lon="0.58837">
        <ele>1509</ele>
        <time>2019-02-03T13:05:51.000Z</time>
      </trkpt>
      <trkpt lat="42.91905" lon="0.58837">
        <ele>1509</ele>
        <time>2019-02-03T13:05:52.000Z</time>
      </trkpt>
      <trkpt lat="42.91905" lon="0.58837">
        <ele>1509</ele>
        <time>2019-02-03T13:05:53.000Z</time>
      </trkpt>
      <trkpt lat="42.91905" lon="0.58837">
        <ele>1509</ele>
        <time>2019-02-03T13:05:54.000Z</time>
      </trkpt>
      <trkpt lat="42.91905" lon="0.58837">
        <ele>1509</ele>
        <time>2019-02-03T13:05:55.000Z</time>
      </trkpt>
      <trkpt lat="42.91905" lon="0.58837">
        <ele>1509</ele>
        <time>2019-02-03T13:05:56.000Z</time>
      </trkpt>
      <trkpt lat="42.91905" lon="0.58837">
        <ele>1509</ele>
        <time>2019-02-03T13:05:57.000Z</time>
      </trkpt>
      <trkpt lat="42.91905" lon="0.58837">
        <ele>1509.3</ele>
        <time>2019-02-03T13:05:58.000Z</time>
      </trkpt>
      <trkpt lat="42.91905" lon="0.58837">
        <ele>1509.7</ele>
        <time>2019-02-03T13:05:59.000Z</time>
      </trkpt>
      <trkpt lat="42.91905" lon="0.58837">
        <ele>1510</ele>
        <time>2019-02-03T13:06:00.000Z</time>
      </trkpt>
      <trkpt lat="42.91905" lon="0.58837">
        <ele>1510</ele>
        <time>2019-02-03T13:06:01.000Z</time>
      </trkpt>
      <trkpt lat="42.91905" lon="0.58837">
        <ele>1510</ele>
        <time>2019-02-03T13:06:02.000Z</time>
      </trkpt>
      <trkpt lat="42.91905" lon="0.58837">
        <ele>1510</ele>
        <time>2019-02-03T13:06:03.000Z</time>
      </trkpt>
      <trkpt lat="42.91905" lon="0.58837">
        <ele>1510</ele>
        <time>2019-02-03T13:06:04.000Z</time>
      </trkpt>
      <trkpt lat="42.91905" lon="0.58837">
        <ele>1510</ele>
        <time>2019-02-03T13:06:05.000Z</time>
      </trkpt>
      <trkpt lat="42.91905" lon="0.58837">
        <ele>1510</ele>
        <time>2019-02-03T13:06:06.000Z</time>
      </trkpt>
      <trkpt lat="42.91905" lon="0.58837">
        <ele>1510</ele>
        <time>2019-02-03T13:06:07.000Z</time>
      </trkpt>
      <trkpt lat="42.91905" lon="0.58837">
        <ele>1510</ele>
        <time>2019-02-03T13:06:08.000Z</time>
      </trkpt>
      <trkpt lat="42.91905" lon="0.58837">
        <ele>1510</ele>
        <time>2019-02-03T13:06:09.000Z</time>
      </trkpt>
      <trkpt lat="42.91905" lon="0.58837">
        <ele>1510</ele>
        <time>2019-02-03T13:06:10.000Z</time>
      </trkpt>
      <trkpt lat="42.91905" lon="0.58837">
        <ele>1510</ele>
        <time>2019-02-03T13:06:11.000Z</time>
      </trkpt>
      <trkpt lat="42.91905" lon="0.58837">
        <ele>1510</ele>
        <time>2019-02-03T13:06:12.000Z</time>
      </trkpt>
      <trkpt lat="42.91905" lon="0.58837">
        <ele>1510</ele>
        <time>2019-02-03T13:06:13.000Z</time>
      </trkpt>
      <trkpt lat="42.91905" lon="0.58837">
        <ele>1510</ele>
        <time>2019-02-03T13:06:14.000Z</time>
      </trkpt>
      <trkpt lat="42.91905" lon="0.58837">
        <ele>1510</ele>
        <time>2019-02-03T13:06:15.000Z</time>
      </trkpt>
      <trkpt lat="42.91905" lon="0.58837">
        <ele>1510</ele>
        <time>2019-02-03T13:06:16.000Z</time>
      </trkpt>
      <trkpt lat="42.91905" lon="0.58837">
        <ele>1510</ele>
        <time>2019-02-03T13:06:17.000Z</time>
      </trkpt>
      <trkpt lat="42.91905" lon="0.58837">
        <ele>1510</ele>
        <time>2019-02-03T13:06:18.000Z</time>
      </trkpt>
      <trkpt lat="42.91905" lon="0.58837">
        <ele>1510</ele>
        <time>2019-02-03T13:06:19.000Z</time>
      </trkpt>
      <trkpt lat="42.91905" lon="0.58837">
        <ele>1510</ele>
        <time>2019-02-03T13:06:20.000Z</time>
      </trkpt>
      <trkpt lat="42.91905" lon="0.58837">
        <ele>1509.5</ele>
        <time>2019-02-03T13:06:21.000Z</time>
      </trkpt>
      <trkpt lat="42.91905" lon="0.58837">
        <ele>1509</ele>
        <time>2019-02-03T13:06:22.000Z</time>
      </trkpt>
      <trkpt lat="42.91905" lon="0.58837">
        <ele>1510</ele>
        <time>2019-02-03T13:06:23.000Z</time>
      </trkpt>
      <trkpt lat="42.91905" lon="0.58837">
        <ele>1509.5</ele>
        <time>2019-02-03T13:06:24.000Z</time>
      </trkpt>
      <trkpt lat="42.91905" lon="0.58837">
        <ele>1509</ele>
        <time>2019-02-03T13:06:25.000Z</time>
      </trkpt>
      <trkpt lat="42.91905" lon="0.58837">
        <ele>1509</ele>
        <time>2019-02-03T13:06:26.000Z</time>
      </trkpt>
      <trkpt lat="42.91905" lon="0.58837">
        <ele>1509</ele>
        <time>2019-02-03T13:06:27.000Z</time>
      </trkpt>
      <trkpt lat="42.91905" lon="0.58837">
        <ele>1509</ele>
        <time>2019-02-03T13:06:28.000Z</time>
      </trkpt>
      <trkpt lat="42.91905" lon="0.58837">
        <ele>1509</ele>
        <time>2019-02-03T13:06:29.000Z</time>
      </trkpt>
      <trkpt lat="42.91905" lon="0.58837">
        <ele>1509.3</ele>
        <time>2019-02-03T13:06:30.000Z</time>
      </trkpt>
      <trkpt lat="42.91905" lon="0.58837">
        <ele>1509.7</ele>
        <time>2019-02-03T13:06:31.000Z</time>
      </trkpt>
      <trkpt lat="42.91905" lon="0.58837">
        <ele>1510</ele>
        <time>2019-02-03T13:06:32.000Z</time>
      </trkpt>
      <trkpt lat="42.91905" lon="0.58837">
        <ele>1510</ele>
        <time>2019-02-03T13:06:33.000Z</time>
      </trkpt>
      <trkpt lat="42.91905" lon="0.58837">
        <ele>1510</ele>
        <time>2019-02-03T13:06:34.000Z</time>
      </trkpt>
      <trkpt lat="42.91905" lon="0.58837">
        <ele>1510</ele>
        <time>2019-02-03T13:06:35.000Z</time>
      </trkpt>
      <trkpt lat="42.91905" lon="0.58837">
        <ele>1510</ele>
        <time>2019-02-03T13:06:36.000Z</time>
      </trkpt>
      <trkpt lat="42.91905" lon="0.58837">
        <ele>1510</ele>
        <time>2019-02-03T13:06:37.000Z</time>
      </trkpt>
      <trkpt lat="42.91905" lon="0.58837">
        <ele>1510</ele>
        <time>2019-02-03T13:06:38.000Z</time>
      </trkpt>
      <trkpt lat="42.91905" lon="0.58837">
        <ele>1510</ele>
        <time>2019-02-03T13:06:39.000Z</time>
      </trkpt>
      <trkpt lat="42.91905" lon="0.58837">
        <ele>1510</ele>
        <time>2019-02-03T13:06:40.000Z</time>
      </trkpt>
      <trkpt lat="42.91905" lon="0.58837">
        <ele>1510</ele>
        <time>2019-02-03T13:06:41.000Z</time>
      </trkpt>
      <trkpt lat="42.91905" lon="0.58837">
        <ele>1510</ele>
        <time>2019-02-03T13:06:42.000Z</time>
      </trkpt>
      <trkpt lat="42.91905" lon="0.58837">
        <ele>1510</ele>
        <time>2019-02-03T13:06:43.000Z</time>
      </trkpt>
      <trkpt lat="42.91905" lon="0.58837">
        <ele>1510</ele>
        <time>2019-02-03T13:06:44.000Z</time>
      </trkpt>
      <trkpt lat="42.91905" lon="0.58837">
        <ele>1509.5</ele>
        <time>2019-02-03T13:06:45.000Z</time>
      </trkpt>
      <trkpt lat="42.91905" lon="0.58837">
        <ele>1509</ele>
        <time>2019-02-03T13:06:46.000Z</time>
      </trkpt>
      <trkpt lat="42.91905" lon="0.58837">
        <ele>1509</ele>
        <time>2019-02-03T13:06:47.000Z</time>
      </trkpt>
      <trkpt lat="42.91905" lon="0.58837">
        <ele>1509</ele>
        <time>2019-02-03T13:06:48.000Z</time>
      </trkpt>
      <trkpt lat="42.91905" lon="0.58837">
        <ele>1510</ele>
        <time>2019-02-03T13:06:49.000Z</time>
      </trkpt>
      <trkpt lat="42.91905" lon="0.58837">
        <ele>1510</ele>
        <time>2019-02-03T13:06:50.000Z</time>
      </trkpt>
      <trkpt lat="42.91905" lon="0.58837">
        <ele>1510</ele>
        <time>2019-02-03T13:06:51.000Z</time>
      </trkpt>
      <trkpt lat="42.91904" lon="0.58837">
        <ele>1510</ele>
        <time>2019-02-03T13:06:52.000Z</time>
      </trkpt>
      <trkpt lat="42.91904" lon="0.58837">
        <ele>1510</ele>
        <time>2019-02-03T13:06:53.000Z</time>
      </trkpt>
      <trkpt lat="42.91904" lon="0.58837">
        <ele>1510</ele>
        <time>2019-02-03T13:06:54.000Z</time>
      </trkpt>
      <trkpt lat="42.91904" lon="0.58837">
        <ele>1510</ele>
        <time>2019-02-03T13:06:55.000Z</time>
      </trkpt>
      <trkpt lat="42.91904" lon="0.58836">
        <ele>1510</ele>
        <time>2019-02-03T13:06:56.000Z</time>
      </trkpt>
      <trkpt lat="42.91904" lon="0.58836">
        <ele>1509</ele>
        <time>2019-02-03T13:06:57.000Z</time>
      </trkpt>
      <trkpt lat="42.91904" lon="0.58836">
        <ele>1509</ele>
        <time>2019-02-03T13:06:58.000Z</time>
      </trkpt>
      <trkpt lat="42.91904" lon="0.58836">
        <ele>1509</ele>
        <time>2019-02-03T13:06:59.000Z</time>
      </trkpt>
      <trkpt lat="42.91904" lon="0.58836">
        <ele>1509</ele>
        <time>2019-02-03T13:07:00.000Z</time>
      </trkpt>
      <trkpt lat="42.91904" lon="0.58836">
        <ele>1509</ele>
        <time>2019-02-03T13:07:01.000Z</time>
      </trkpt>
      <trkpt lat="42.91904" lon="0.58836">
        <ele>1509</ele>
        <time>2019-02-03T13:07:02.000Z</time>
      </trkpt>
      <trkpt lat="42.91904" lon="0.58836">
        <ele>1509</ele>
        <time>2019-02-03T13:07:03.000Z</time>
      </trkpt>
      <trkpt lat="42.91904" lon="0.58836">
        <ele>1509</ele>
        <time>2019-02-03T13:07:04.000Z</time>
      </trkpt>
      <trkpt lat="42.91904" lon="0.58835">
        <ele>1509</ele>
        <time>2019-02-03T13:07:05.000Z</time>
      </trkpt>
      <trkpt lat="42.91904" lon="0.58835">
        <ele>1509</ele>
        <time>2019-02-03T13:07:06.000Z</time>
      </trkpt>
      <trkpt lat="42.91904" lon="0.58835">
        <ele>1509</ele>
        <time>2019-02-03T13:07:07.000Z</time>
      </trkpt>
      <trkpt lat="42.91904" lon="0.58835">
        <ele>1509</ele>
        <time>2019-02-03T13:07:08.000Z</time>
      </trkpt>
      <trkpt lat="42.91904" lon="0.58835">
        <ele>1509</ele>
        <time>2019-02-03T13:07:09.000Z</time>
      </trkpt>
      <trkpt lat="42.91904" lon="0.58835">
        <ele>1509</ele>
        <time>2019-02-03T13:07:10.000Z</time>
      </trkpt>
      <trkpt lat="42.91904" lon="0.58835">
        <ele>1509</ele>
        <time>2019-02-03T13:07:11.000Z</time>
      </trkpt>
      <trkpt lat="42.91904" lon="0.58835">
        <ele>1509</ele>
        <time>2019-02-03T13:07:12.000Z</time>
      </trkpt>
      <trkpt lat="42.91904" lon="0.58835">
        <ele>1509</ele>
        <time>2019-02-03T13:07:13.000Z</time>
      </trkpt>
      <trkpt lat="42.91904" lon="0.58835">
        <ele>1509</ele>
        <time>2019-02-03T13:07:14.000Z</time>
      </trkpt>
      <trkpt lat="42.91904" lon="0.58835">
        <ele>1509</ele>
        <time>2019-02-03T13:07:15.000Z</time>
      </trkpt>
      <trkpt lat="42.91904" lon="0.58835">
        <ele>1509</ele>
        <time>2019-02-03T13:07:16.000Z</time>
      </trkpt>
      <trkpt lat="42.91904" lon="0.58835">
        <ele>1509</ele>
        <time>2019-02-03T13:07:17.000Z</time>
      </trkpt>
      <trkpt lat="42.91904" lon="0.58835">
        <ele>1509</ele>
        <time>2019-02-03T13:07:18.000Z</time>
      </trkpt>
      <trkpt lat="42.91904" lon="0.58835">
        <ele>1509</ele>
        <time>2019-02-03T13:07:19.000Z</time>
      </trkpt>
      <trkpt lat="42.91904" lon="0.58835">
        <ele>1509</ele>
        <time>2019-02-03T13:07:20.000Z</time>
      </trkpt>
      <trkpt lat="42.91904" lon="0.58835">
        <ele>1509</ele>
        <time>2019-02-03T13:07:21.000Z</time>
      </trkpt>
      <trkpt lat="42.91904" lon="0.58835">
        <ele>1509</ele>
        <time>2019-02-03T13:07:22.000Z</time>
      </trkpt>
      <trkpt lat="42.91904" lon="0.58835">
        <ele>1509</ele>
        <time>2019-02-03T13:07:23.000Z</time>
      </trkpt>
      <trkpt lat="42.91904" lon="0.58835">
        <ele>1509</ele>
        <time>2019-02-03T13:07:24.000Z</time>
      </trkpt>
      <trkpt lat="42.91904" lon="0.58835">
        <ele>1509</ele>
        <time>2019-02-03T13:07:25.000Z</time>
      </trkpt>
      <trkpt lat="42.91904" lon="0.58835">
        <ele>1509</ele>
        <time>2019-02-03T13:07:26.000Z</time>
      </trkpt>
      <trkpt lat="42.91904" lon="0.58835">
        <ele>1509</ele>
        <time>2019-02-03T13:07:27.000Z</time>
      </trkpt>
      <trkpt lat="42.91904" lon="0.58835">
        <ele>1509</ele>
        <time>2019-02-03T13:07:28.000Z</time>
      </trkpt>
      <trkpt lat="42.91904" lon="0.58835">
        <ele>1509</ele>
        <time>2019-02-03T13:07:29.000Z</time>
      </trkpt>
      <trkpt lat="42.91904" lon="0.58835">
        <ele>1509</ele>
        <time>2019-02-03T13:07:30.000Z</time>
      </trkpt>
      <trkpt lat="42.91904" lon="0.58835">
        <ele>1509</ele>
        <time>2019-02-03T13:07:31.000Z</time>
      </trkpt>
      <trkpt lat="42.91904" lon="0.58835">
        <ele>1509</ele>
        <time>2019-02-03T13:07:32.000Z</time>
      </trkpt>
      <trkpt lat="42.91904" lon="0.58835">
        <ele>1509</ele>
        <time>2019-02-03T13:07:33.000Z</time>
      </trkpt>
      <trkpt lat="42.91905" lon="0.58835">
        <ele>1509</ele>
        <time>2019-02-03T13:07:34.000Z</time>
      </trkpt>
      <trkpt lat="42.91905" lon="0.58835">
        <ele>1509</ele>
        <time>2019-02-03T13:07:35.000Z</time>
      </trkpt>
      <trkpt lat="42.91905" lon="0.58835">
        <ele>1509</ele>
        <time>2019-02-03T13:07:36.000Z</time>
      </trkpt>
      <trkpt lat="42.91905" lon="0.58835">
        <ele>1509</ele>
        <time>2019-02-03T13:07:37.000Z</time>
      </trkpt>
      <trkpt lat="42.91905" lon="0.58835">
        <ele>1509</ele>
        <time>2019-02-03T13:07:38.000Z</time>
      </trkpt>
      <trkpt lat="42.91905" lon="0.58835">
        <ele>1509</ele>
        <time>2019-02-03T13:07:39.000Z</time>
      </trkpt>
      <trkpt lat="42.91905" lon="0.58835">
        <ele>1509</ele>
        <time>2019-02-03T13:07:40.000Z</time>
      </trkpt>
      <trkpt lat="42.91905" lon="0.58835">
        <ele>1509</ele>
        <time>2019-02-03T13:07:41.000Z</time>
      </trkpt>
      <trkpt lat="42.91905" lon="0.58835">
        <ele>1509</ele>
        <time>2019-02-03T13:07:42.000Z</time>
      </trkpt>
      <trkpt lat="42.91905" lon="0.58835">
        <ele>1509</ele>
        <time>2019-02-03T13:07:43.000Z</time>
      </trkpt>
      <trkpt lat="42.91905" lon="0.58834">
        <ele>1509</ele>
        <time>2019-02-03T13:07:44.000Z</time>
      </trkpt>
      <trkpt lat="42.91905" lon="0.58834">
        <ele>1510</ele>
        <time>2019-02-03T13:07:45.000Z</time>
      </trkpt>
      <trkpt lat="42.91905" lon="0.58834">
        <ele>1509.7</ele>
        <time>2019-02-03T13:07:46.000Z</time>
      </trkpt>
      <trkpt lat="42.91905" lon="0.58834">
        <ele>1509.3</ele>
        <time>2019-02-03T13:07:47.000Z</time>
      </trkpt>
      <trkpt lat="42.91905" lon="0.58835">
        <ele>1509</ele>
        <time>2019-02-03T13:07:48.000Z</time>
      </trkpt>
      <trkpt lat="42.91905" lon="0.58835">
        <ele>1509</ele>
        <time>2019-02-03T13:07:49.000Z</time>
      </trkpt>
      <trkpt lat="42.91904" lon="0.58835">
        <ele>1509</ele>
        <time>2019-02-03T13:07:50.000Z</time>
      </trkpt>
      <trkpt lat="42.91904" lon="0.58835">
        <ele>1509</ele>
        <time>2019-02-03T13:07:51.000Z</time>
      </trkpt>
      <trkpt lat="42.91904" lon="0.58835">
        <ele>1509</ele>
        <time>2019-02-03T13:07:52.000Z</time>
      </trkpt>
      <trkpt lat="42.91904" lon="0.58835">
        <ele>1509</ele>
        <time>2019-02-03T13:07:53.000Z</time>
      </trkpt>
      <trkpt lat="42.91904" lon="0.58835">
        <ele>1509</ele>
        <time>2019-02-03T13:07:54.000Z</time>
      </trkpt>
      <trkpt lat="42.91904" lon="0.58835">
        <ele>1509</ele>
        <time>2019-02-03T13:07:55.000Z</time>
      </trkpt>
      <trkpt lat="42.91904" lon="0.58835">
        <ele>1509</ele>
        <time>2019-02-03T13:07:56.000Z</time>
      </trkpt>
      <trkpt lat="42.91904" lon="0.58835">
        <ele>1509</ele>
        <time>2019-02-03T13:07:57.000Z</time>
      </trkpt>
      <trkpt lat="42.91903" lon="0.58835">
        <ele>1509</ele>
        <time>2019-02-03T13:07:58.000Z</time>
      </trkpt>
      <trkpt lat="42.91903" lon="0.58835">
        <ele>1509</ele>
        <time>2019-02-03T13:07:59.000Z</time>
      </trkpt>
      <trkpt lat="42.91903" lon="0.58835">
        <ele>1509</ele>
        <time>2019-02-03T13:08:00.000Z</time>
      </trkpt>
      <trkpt lat="42.91903" lon="0.58835">
        <ele>1509</ele>
        <time>2019-02-03T13:08:01.000Z</time>
      </trkpt>
      <trkpt lat="42.91903" lon="0.58835">
        <ele>1509</ele>
        <time>2019-02-03T13:08:02.000Z</time>
      </trkpt>
      <trkpt lat="42.91903" lon="0.58835">
        <ele>1509</ele>
        <time>2019-02-03T13:08:03.000Z</time>
      </trkpt>
      <trkpt lat="42.91903" lon="0.58835">
        <ele>1509</ele>
        <time>2019-02-03T13:08:04.000Z</time>
      </trkpt>
      <trkpt lat="42.91903" lon="0.58835">
        <ele>1509</ele>
        <time>2019-02-03T13:08:05.000Z</time>
      </trkpt>
      <trkpt lat="42.91903" lon="0.58835">
        <ele>1509</ele>
        <time>2019-02-03T13:08:06.000Z</time>
      </trkpt>
      <trkpt lat="42.91903" lon="0.58835">
        <ele>1509</ele>
        <time>2019-02-03T13:08:07.000Z</time>
      </trkpt>
      <trkpt lat="42.91903" lon="0.58835">
        <ele>1509</ele>
        <time>2019-02-03T13:08:08.000Z</time>
      </trkpt>
      <trkpt lat="42.91903" lon="0.58835">
        <ele>1509</ele>
        <time>2019-02-03T13:08:09.000Z</time>
      </trkpt>
      <trkpt lat="42.91903" lon="0.58835">
        <ele>1509</ele>
        <time>2019-02-03T13:08:10.000Z</time>
      </trkpt>
      <trkpt lat="42.91903" lon="0.58835">
        <ele>1509</ele>
        <time>2019-02-03T13:08:11.000Z</time>
      </trkpt>
      <trkpt lat="42.91903" lon="0.58835">
        <ele>1509</ele>
        <time>2019-02-03T13:08:12.000Z</time>
      </trkpt>
      <trkpt lat="42.91903" lon="0.58835">
        <ele>1509</ele>
        <time>2019-02-03T13:08:13.000Z</time>
      </trkpt>
      <trkpt lat="42.91903" lon="0.58835">
        <ele>1509</ele>
        <time>2019-02-03T13:08:14.000Z</time>
      </trkpt>
      <trkpt lat="42.91903" lon="0.58835">
        <ele>1509</ele>
        <time>2019-02-03T13:08:15.000Z</time>
      </trkpt>
      <trkpt lat="42.91903" lon="0.58835">
        <ele>1509</ele>
        <time>2019-02-03T13:08:16.000Z</time>
      </trkpt>
      <trkpt lat="42.91904" lon="0.58835">
        <ele>1509</ele>
        <time>2019-02-03T13:08:17.000Z</time>
      </trkpt>
      <trkpt lat="42.91904" lon="0.58835">
        <ele>1509</ele>
        <time>2019-02-03T13:08:18.000Z</time>
      </trkpt>
      <trkpt lat="42.91904" lon="0.58835">
        <ele>1509</ele>
        <time>2019-02-03T13:08:19.000Z</time>
      </trkpt>
      <trkpt lat="42.91904" lon="0.58835">
        <ele>1509</ele>
        <time>2019-02-03T13:08:20.000Z</time>
      </trkpt>
      <trkpt lat="42.91903" lon="0.58835">
        <ele>1509</ele>
        <time>2019-02-03T13:08:21.000Z</time>
      </trkpt>
      <trkpt lat="42.91903" lon="0.58835">
        <ele>1509</ele>
        <time>2019-02-03T13:08:22.000Z</time>
      </trkpt>
      <trkpt lat="42.91903" lon="0.58835">
        <ele>1509</ele>
        <time>2019-02-03T13:08:23.000Z</time>
      </trkpt>
      <trkpt lat="42.91902" lon="0.58835">
        <ele>1509</ele>
        <time>2019-02-03T13:08:24.000Z</time>
      </trkpt>
      <trkpt lat="42.91902" lon="0.58835">
        <ele>1509</ele>
        <time>2019-02-03T13:08:25.000Z</time>
      </trkpt>
      <trkpt lat="42.91902" lon="0.58835">
        <ele>1509</ele>
        <time>2019-02-03T13:08:26.000Z</time>
      </trkpt>
      <trkpt lat="42.91902" lon="0.58835">
        <ele>1509</ele>
        <time>2019-02-03T13:08:27.000Z</time>
      </trkpt>
      <trkpt lat="42.91902" lon="0.58835">
        <ele>1509</ele>
        <time>2019-02-03T13:08:28.000Z</time>
      </trkpt>
      <trkpt lat="42.91902" lon="0.58835">
        <ele>1509</ele>
        <time>2019-02-03T13:08:29.000Z</time>
      </trkpt>
      <trkpt lat="42.91902" lon="0.58835">
        <ele>1509</ele>
        <time>2019-02-03T13:08:30.000Z</time>
      </trkpt>
      <trkpt lat="42.91902" lon="0.58835">
        <ele>1509</ele>
        <time>2019-02-03T13:08:31.000Z</time>
      </trkpt>
      <trkpt lat="42.91902" lon="0.58835">
        <ele>1509</ele>
        <time>2019-02-03T13:08:32.000Z</time>
      </trkpt>
      <trkpt lat="42.91902" lon="0.58835">
        <ele>1509</ele>
        <time>2019-02-03T13:08:33.000Z</time>
      </trkpt>
      <trkpt lat="42.91902" lon="0.58835">
        <ele>1509</ele>
        <time>2019-02-03T13:08:34.000Z</time>
      </trkpt>
      <trkpt lat="42.91902" lon="0.58835">
        <ele>1509</ele>
        <time>2019-02-03T13:08:35.000Z</time>
      </trkpt>
      <trkpt lat="42.91902" lon="0.58835">
        <ele>1509</ele>
        <time>2019-02-03T13:08:36.000Z</time>
      </trkpt>
      <trkpt lat="42.91902" lon="0.58835">
        <ele>1509</ele>
        <time>2019-02-03T13:08:37.000Z</time>
      </trkpt>
      <trkpt lat="42.91902" lon="0.58835">
        <ele>1509</ele>
        <time>2019-02-03T13:08:38.000Z</time>
      </trkpt>
      <trkpt lat="42.91902" lon="0.58835">
        <ele>1509</ele>
        <time>2019-02-03T13:08:39.000Z</time>
      </trkpt>
      <trkpt lat="42.91902" lon="0.58835">
        <ele>1509</ele>
        <time>2019-02-03T13:08:40.000Z</time>
      </trkpt>
      <trkpt lat="42.91902" lon="0.58835">
        <ele>1509</ele>
        <time>2019-02-03T13:08:41.000Z</time>
      </trkpt>
      <trkpt lat="42.91902" lon="0.58835">
        <ele>1509</ele>
        <time>2019-02-03T13:08:42.000Z</time>
      </trkpt>
      <trkpt lat="42.91902" lon="0.58835">
        <ele>1509</ele>
        <time>2019-02-03T13:08:43.000Z</time>
      </trkpt>
      <trkpt lat="42.91902" lon="0.58835">
        <ele>1509</ele>
        <time>2019-02-03T13:08:44.000Z</time>
      </trkpt>
      <trkpt lat="42.91902" lon="0.58835">
        <ele>1509</ele>
        <time>2019-02-03T13:08:45.000Z</time>
      </trkpt>
      <trkpt lat="42.91902" lon="0.58835">
        <ele>1509</ele>
        <time>2019-02-03T13:08:46.000Z</time>
      </trkpt>
      <trkpt lat="42.91902" lon="0.58835">
        <ele>1509</ele>
        <time>2019-02-03T13:08:47.000Z</time>
      </trkpt>
      <trkpt lat="42.91902" lon="0.58835">
        <ele>1509</ele>
        <time>2019-02-03T13:08:48.000Z</time>
      </trkpt>
      <trkpt lat="42.91902" lon="0.58835">
        <ele>1509</ele>
        <time>2019-02-03T13:08:49.000Z</time>
      </trkpt>
      <trkpt lat="42.91902" lon="0.58835">
        <ele>1509</ele>
        <time>2019-02-03T13:08:50.000Z</time>
      </trkpt>
      <trkpt lat="42.91902" lon="0.58835">
        <ele>1509</ele>
        <time>2019-02-03T13:08:51.000Z</time>
      </trkpt>
      <trkpt lat="42.91902" lon="0.58835">
        <ele>1509</ele>
        <time>2019-02-03T13:08:52.000Z</time>
      </trkpt>
      <trkpt lat="42.91902" lon="0.58834">
        <ele>1509</ele>
        <time>2019-02-03T13:08:53.000Z</time>
      </trkpt>
      <trkpt lat="42.91902" lon="0.58834">
        <ele>1509</ele>
        <time>2019-02-03T13:08:54.000Z</time>
      </trkpt>
      <trkpt lat="42.91902" lon="0.58834">
        <ele>1509</ele>
        <time>2019-02-03T13:08:55.000Z</time>
      </trkpt>
      <trkpt lat="42.91902" lon="0.58834">
        <ele>1509</ele>
        <time>2019-02-03T13:08:56.000Z</time>
      </trkpt>
      <trkpt lat="42.91902" lon="0.58834">
        <ele>1509</ele>
        <time>2019-02-03T13:08:57.000Z</time>
      </trkpt>
      <trkpt lat="42.91902" lon="0.58834">
        <ele>1509</ele>
        <time>2019-02-03T13:08:58.000Z</time>
      </trkpt>
      <trkpt lat="42.91902" lon="0.58833">
        <ele>1509</ele>
        <time>2019-02-03T13:08:59.000Z</time>
      </trkpt>
      <trkpt lat="42.91902" lon="0.58833">
        <ele>1509</ele>
        <time>2019-02-03T13:09:00.000Z</time>
      </trkpt>
      <trkpt lat="42.91902" lon="0.58833">
        <ele>1509.5</ele>
        <time>2019-02-03T13:09:01.000Z</time>
      </trkpt>
      <trkpt lat="42.91902" lon="0.58833">
        <ele>1510</ele>
        <time>2019-02-03T13:09:02.000Z</time>
      </trkpt>
      <trkpt lat="42.91902" lon="0.58833">
        <ele>1510</ele>
        <time>2019-02-03T13:09:03.000Z</time>
      </trkpt>
      <trkpt lat="42.91902" lon="0.58833">
        <ele>1510</ele>
        <time>2019-02-03T13:09:04.000Z</time>
      </trkpt>
      <trkpt lat="42.91902" lon="0.58832">
        <ele>1510</ele>
        <time>2019-02-03T13:09:05.000Z</time>
      </trkpt>
      <trkpt lat="42.91902" lon="0.58832">
        <ele>1510</ele>
        <time>2019-02-03T13:09:06.000Z</time>
      </trkpt>
      <trkpt lat="42.91902" lon="0.58832">
        <ele>1510</ele>
        <time>2019-02-03T13:09:07.000Z</time>
      </trkpt>
      <trkpt lat="42.91902" lon="0.58832">
        <ele>1510</ele>
        <time>2019-02-03T13:09:08.000Z</time>
      </trkpt>
      <trkpt lat="42.91902" lon="0.58832">
        <ele>1510</ele>
        <time>2019-02-03T13:09:09.000Z</time>
      </trkpt>
      <trkpt lat="42.91902" lon="0.58832">
        <ele>1510</ele>
        <time>2019-02-03T13:09:10.000Z</time>
      </trkpt>
      <trkpt lat="42.91902" lon="0.58832">
        <ele>1510</ele>
        <time>2019-02-03T13:09:11.000Z</time>
      </trkpt>
      <trkpt lat="42.91902" lon="0.58832">
        <ele>1510</ele>
        <time>2019-02-03T13:09:12.000Z</time>
      </trkpt>
      <trkpt lat="42.91902" lon="0.58832">
        <ele>1510</ele>
        <time>2019-02-03T13:09:13.000Z</time>
      </trkpt>
      <trkpt lat="42.91902" lon="0.58832">
        <ele>1510</ele>
        <time>2019-02-03T13:09:14.000Z</time>
      </trkpt>
      <trkpt lat="42.91902" lon="0.58832">
        <ele>1510</ele>
        <time>2019-02-03T13:09:15.000Z</time>
      </trkpt>
      <trkpt lat="42.91902" lon="0.58832">
        <ele>1510</ele>
        <time>2019-02-03T13:09:16.000Z</time>
      </trkpt>
      <trkpt lat="42.91902" lon="0.58832">
        <ele>1510</ele>
        <time>2019-02-03T13:09:17.000Z</time>
      </trkpt>
      <trkpt lat="42.91902" lon="0.58832">
        <ele>1509.7</ele>
        <time>2019-02-03T13:09:18.000Z</time>
      </trkpt>
      <trkpt lat="42.91902" lon="0.58832">
        <ele>1509.3</ele>
        <time>2019-02-03T13:09:19.000Z</time>
      </trkpt>
      <trkpt lat="42.91902" lon="0.58832">
        <ele>1509</ele>
        <time>2019-02-03T13:09:20.000Z</time>
      </trkpt>
      <trkpt lat="42.91902" lon="0.58832">
        <ele>1509</ele>
        <time>2019-02-03T13:09:21.000Z</time>
      </trkpt>
      <trkpt lat="42.91902" lon="0.58832">
        <ele>1509</ele>
        <time>2019-02-03T13:09:22.000Z</time>
      </trkpt>
      <trkpt lat="42.91902" lon="0.58832">
        <ele>1510</ele>
        <time>2019-02-03T13:09:23.000Z</time>
      </trkpt>
      <trkpt lat="42.91902" lon="0.58832">
        <ele>1509.7</ele>
        <time>2019-02-03T13:09:24.000Z</time>
      </trkpt>
      <trkpt lat="42.91902" lon="0.58832">
        <ele>1509.3</ele>
        <time>2019-02-03T13:09:25.000Z</time>
      </trkpt>
      <trkpt lat="42.91902" lon="0.58832">
        <ele>1509</ele>
        <time>2019-02-03T13:09:26.000Z</time>
      </trkpt>
      <trkpt lat="42.91902" lon="0.58832">
        <ele>1509</ele>
        <time>2019-02-03T13:09:27.000Z</time>
      </trkpt>
      <trkpt lat="42.91902" lon="0.58832">
        <ele>1509</ele>
        <time>2019-02-03T13:09:28.000Z</time>
      </trkpt>
      <trkpt lat="42.91902" lon="0.58832">
        <ele>1509</ele>
        <time>2019-02-03T13:09:29.000Z</time>
      </trkpt>
      <trkpt lat="42.91902" lon="0.58832">
        <ele>1509</ele>
        <time>2019-02-03T13:09:30.000Z</time>
      </trkpt>
      <trkpt lat="42.91902" lon="0.58832">
        <ele>1509</ele>
        <time>2019-02-03T13:09:31.000Z</time>
      </trkpt>
      <trkpt lat="42.91902" lon="0.58832">
        <ele>1509</ele>
        <time>2019-02-03T13:09:32.000Z</time>
      </trkpt>
      <trkpt lat="42.91902" lon="0.58832">
        <ele>1509</ele>
        <time>2019-02-03T13:09:33.000Z</time>
      </trkpt>
      <trkpt lat="42.91903" lon="0.58833">
        <ele>1509</ele>
        <time>2019-02-03T13:09:34.000Z</time>
      </trkpt>
      <trkpt lat="42.91903" lon="0.58833">
        <ele>1509</ele>
        <time>2019-02-03T13:09:35.000Z</time>
      </trkpt>
      <trkpt lat="42.91903" lon="0.58833">
        <ele>1509</ele>
        <time>2019-02-03T13:09:36.000Z</time>
      </trkpt>
      <trkpt lat="42.91903" lon="0.58833">
        <ele>1509</ele>
        <time>2019-02-03T13:09:37.000Z</time>
      </trkpt>
      <trkpt lat="42.91903" lon="0.58833">
        <ele>1509</ele>
        <time>2019-02-03T13:09:38.000Z</time>
      </trkpt>
      <trkpt lat="42.91903" lon="0.58833">
        <ele>1509</ele>
        <time>2019-02-03T13:09:39.000Z</time>
      </trkpt>
      <trkpt lat="42.91903" lon="0.58833">
        <ele>1509</ele>
        <time>2019-02-03T13:09:40.000Z</time>
      </trkpt>
      <trkpt lat="42.91904" lon="0.58833">
        <ele>1509.5</ele>
        <time>2019-02-03T13:09:41.000Z</time>
      </trkpt>
      <trkpt lat="42.91904" lon="0.58833">
        <ele>1510</ele>
        <time>2019-02-03T13:09:42.000Z</time>
      </trkpt>
      <trkpt lat="42.91904" lon="0.58834">
        <ele>1510</ele>
        <time>2019-02-03T13:09:43.000Z</time>
      </trkpt>
      <trkpt lat="42.91904" lon="0.58834">
        <ele>1510</ele>
        <time>2019-02-03T13:09:44.000Z</time>
      </trkpt>
      <trkpt lat="42.91905" lon="0.58835">
        <ele>1510</ele>
        <time>2019-02-03T13:09:45.000Z</time>
      </trkpt>
      <trkpt lat="42.91905" lon="0.58835">
        <ele>1510</ele>
        <time>2019-02-03T13:09:46.000Z</time>
      </trkpt>
      <trkpt lat="42.91906" lon="0.58836">
        <ele>1510</ele>
        <time>2019-02-03T13:09:47.000Z</time>
      </trkpt>
      <trkpt lat="42.91906" lon="0.58836">
        <ele>1510</ele>
        <time>2019-02-03T13:09:48.000Z</time>
      </trkpt>
      <trkpt lat="42.91906" lon="0.58836">
        <ele>1510</ele>
        <time>2019-02-03T13:09:49.000Z</time>
      </trkpt>
      <trkpt lat="42.91906" lon="0.58837">
        <ele>1510</ele>
        <time>2019-02-03T13:09:50.000Z</time>
      </trkpt>
      <trkpt lat="42.91906" lon="0.58837">
        <ele>1510</ele>
        <time>2019-02-03T13:09:51.000Z</time>
      </trkpt>
      <trkpt lat="42.91906" lon="0.58837">
        <ele>1510</ele>
        <time>2019-02-03T13:09:52.000Z</time>
      </trkpt>
      <trkpt lat="42.91906" lon="0.58837">
        <ele>1510</ele>
        <time>2019-02-03T13:09:53.000Z</time>
      </trkpt>
      <trkpt lat="42.91907" lon="0.58837">
        <ele>1510</ele>
        <time>2019-02-03T13:09:54.000Z</time>
      </trkpt>
      <trkpt lat="42.91907" lon="0.58837">
        <ele>1510</ele>
        <time>2019-02-03T13:09:55.000Z</time>
      </trkpt>
      <trkpt lat="42.91907" lon="0.58837">
        <ele>1510</ele>
        <time>2019-02-03T13:09:56.000Z</time>
      </trkpt>
      <trkpt lat="42.91907" lon="0.58837">
        <ele>1510</ele>
        <time>2019-02-03T13:09:59.000Z</time>
      </trkpt>
      <trkpt lat="42.91907" lon="0.58837">
        <ele>1510</ele>
        <time>2019-02-03T13:10:00.000Z</time>
      </trkpt>
      <trkpt lat="42.91907" lon="0.58837">
        <ele>1510</ele>
        <time>2019-02-03T13:10:01.000Z</time>
      </trkpt>
      <trkpt lat="42.91907" lon="0.58837">
        <ele>1510</ele>
        <time>2019-02-03T13:10:02.000Z</time>
      </trkpt>
      <trkpt lat="42.91907" lon="0.58837">
        <ele>1510</ele>
        <time>2019-02-03T13:10:03.000Z</time>
      </trkpt>
      <trkpt lat="42.91907" lon="0.58837">
        <ele>1510</ele>
        <time>2019-02-03T13:10:04.000Z</time>
      </trkpt>
      <trkpt lat="42.91907" lon="0.58837">
        <ele>1510</ele>
        <time>2019-02-03T13:10:05.000Z</time>
      </trkpt>
      <trkpt lat="42.91907" lon="0.58837">
        <ele>1509.5</ele>
        <time>2019-02-03T13:10:06.000Z</time>
      </trkpt>
      <trkpt lat="42.91907" lon="0.58837">
        <ele>1509</ele>
        <time>2019-02-03T13:10:07.000Z</time>
      </trkpt>
      <trkpt lat="42.91907" lon="0.58837">
        <ele>1509</ele>
        <time>2019-02-03T13:10:08.000Z</time>
      </trkpt>
      <trkpt lat="42.91907" lon="0.58837">
        <ele>1509</ele>
        <time>2019-02-03T13:10:09.000Z</time>
      </trkpt>
      <trkpt lat="42.91907" lon="0.58837">
        <ele>1509</ele>
        <time>2019-02-03T13:10:10.000Z</time>
      </trkpt>
      <trkpt lat="42.91907" lon="0.58837">
        <ele>1509</ele>
        <time>2019-02-03T13:10:11.000Z</time>
      </trkpt>
      <trkpt lat="42.91907" lon="0.58837">
        <ele>1509</ele>
        <time>2019-02-03T13:10:12.000Z</time>
      </trkpt>
      <trkpt lat="42.91907" lon="0.58837">
        <ele>1509</ele>
        <time>2019-02-03T13:10:13.000Z</time>
      </trkpt>
      <trkpt lat="42.91907" lon="0.58837">
        <ele>1509</ele>
        <time>2019-02-03T13:10:14.000Z</time>
      </trkpt>
      <trkpt lat="42.91907" lon="0.58837">
        <ele>1509</ele>
        <time>2019-02-03T13:10:15.000Z</time>
      </trkpt>
      <trkpt lat="42.91907" lon="0.58837">
        <ele>1509</ele>
        <time>2019-02-03T13:10:16.000Z</time>
      </trkpt>
      <trkpt lat="42.91907" lon="0.58837">
        <ele>1509</ele>
        <time>2019-02-03T13:10:17.000Z</time>
      </trkpt>
      <trkpt lat="42.91907" lon="0.58837">
        <ele>1509</ele>
        <time>2019-02-03T13:10:18.000Z</time>
      </trkpt>
      <trkpt lat="42.91906" lon="0.58836">
        <ele>1509</ele>
        <time>2019-02-03T13:10:19.000Z</time>
      </trkpt>
      <trkpt lat="42.91905" lon="0.58836">
        <ele>1509</ele>
        <time>2019-02-03T13:10:20.000Z</time>
      </trkpt>
      <trkpt lat="42.91904" lon="0.58836">
        <ele>1509</ele>
        <time>2019-02-03T13:10:21.000Z</time>
      </trkpt>
      <trkpt lat="42.91903" lon="0.58835">
        <ele>1509.5</ele>
        <time>2019-02-03T13:10:22.000Z</time>
      </trkpt>
      <trkpt lat="42.91903" lon="0.58835">
        <ele>1510</ele>
        <time>2019-02-03T13:10:23.000Z</time>
      </trkpt>
      <trkpt lat="42.91902" lon="0.58835">
        <ele>1509.5</ele>
        <time>2019-02-03T13:10:24.000Z</time>
      </trkpt>
      <trkpt lat="42.91902" lon="0.58835">
        <ele>1509</ele>
        <time>2019-02-03T13:10:25.000Z</time>
      </trkpt>
      <trkpt lat="42.91902" lon="0.58835">
        <ele>1509</ele>
        <time>2019-02-03T13:10:26.000Z</time>
      </trkpt>
      <trkpt lat="42.91902" lon="0.58835">
        <ele>1509</ele>
        <time>2019-02-03T13:10:27.000Z</time>
      </trkpt>
      <trkpt lat="42.91901" lon="0.58835">
        <ele>1509</ele>
        <time>2019-02-03T13:10:28.000Z</time>
      </trkpt>
      <trkpt lat="42.91901" lon="0.58835">
        <ele>1509</ele>
        <time>2019-02-03T13:10:29.000Z</time>
      </trkpt>
      <trkpt lat="42.91901" lon="0.58835">
        <ele>1509</ele>
        <time>2019-02-03T13:10:30.000Z</time>
      </trkpt>
      <trkpt lat="42.91901" lon="0.58835">
        <ele>1509</ele>
        <time>2019-02-03T13:10:31.000Z</time>
      </trkpt>
      <trkpt lat="42.91901" lon="0.58835">
        <ele>1509</ele>
        <time>2019-02-03T13:10:32.000Z</time>
      </trkpt>
      <trkpt lat="42.91901" lon="0.58835">
        <ele>1509</ele>
        <time>2019-02-03T13:10:33.000Z</time>
      </trkpt>
      <trkpt lat="42.91901" lon="0.58835">
        <ele>1509</ele>
        <time>2019-02-03T13:10:34.000Z</time>
      </trkpt>
      <trkpt lat="42.91901" lon="0.58835">
        <ele>1509</ele>
        <time>2019-02-03T13:10:35.000Z</time>
      </trkpt>
      <trkpt lat="42.91901" lon="0.58835">
        <ele>1509</ele>
        <time>2019-02-03T13:10:36.000Z</time>
      </trkpt>
      <trkpt lat="42.91901" lon="0.58835">
        <ele>1509</ele>
        <time>2019-02-03T13:10:37.000Z</time>
      </trkpt>
      <trkpt lat="42.91901" lon="0.58835">
        <ele>1509</ele>
        <time>2019-02-03T13:10:38.000Z</time>
      </trkpt>
      <trkpt lat="42.91901" lon="0.58835">
        <ele>1509</ele>
        <time>2019-02-03T13:10:39.000Z</time>
      </trkpt>
      <trkpt lat="42.91901" lon="0.58835">
        <ele>1509</ele>
        <time>2019-02-03T13:10:40.000Z</time>
      </trkpt>
      <trkpt lat="42.91901" lon="0.58835">
        <ele>1509</ele>
        <time>2019-02-03T13:10:41.000Z</time>
      </trkpt>
      <trkpt lat="42.91901" lon="0.58834">
        <ele>1509</ele>
        <time>2019-02-03T13:10:42.000Z</time>
      </trkpt>
      <trkpt lat="42.91901" lon="0.58834">
        <ele>1509</ele>
        <time>2019-02-03T13:10:43.000Z</time>
      </trkpt>
      <trkpt lat="42.91901" lon="0.58834">
        <ele>1509</ele>
        <time>2019-02-03T13:10:44.000Z</time>
      </trkpt>
      <trkpt lat="42.91901" lon="0.58834">
        <ele>1509</ele>
        <time>2019-02-03T13:10:45.000Z</time>
      </trkpt>
      <trkpt lat="42.91901" lon="0.58834">
        <ele>1509</ele>
        <time>2019-02-03T13:10:46.000Z</time>
      </trkpt>
      <trkpt lat="42.91901" lon="0.58834">
        <ele>1509</ele>
        <time>2019-02-03T13:10:47.000Z</time>
      </trkpt>
      <trkpt lat="42.91901" lon="0.58834">
        <ele>1509</ele>
        <time>2019-02-03T13:10:48.000Z</time>
      </trkpt>
      <trkpt lat="42.91901" lon="0.58834">
        <ele>1509</ele>
        <time>2019-02-03T13:10:49.000Z</time>
      </trkpt>
      <trkpt lat="42.91901" lon="0.58834">
        <ele>1509</ele>
        <time>2019-02-03T13:10:50.000Z</time>
      </trkpt>
      <trkpt lat="42.91901" lon="0.58834">
        <ele>1509</ele>
        <time>2019-02-03T13:10:51.000Z</time>
      </trkpt>
      <trkpt lat="42.91901" lon="0.58834">
        <ele>1509</ele>
        <time>2019-02-03T13:10:52.000Z</time>
      </trkpt>
      <trkpt lat="42.91901" lon="0.58834">
        <ele>1509</ele>
        <time>2019-02-03T13:10:53.000Z</time>
      </trkpt>
      <trkpt lat="42.91901" lon="0.58834">
        <ele>1509</ele>
        <time>2019-02-03T13:10:54.000Z</time>
      </trkpt>
      <trkpt lat="42.91901" lon="0.58834">
        <ele>1509</ele>
        <time>2019-02-03T13:10:55.000Z</time>
      </trkpt>
      <trkpt lat="42.91901" lon="0.58834">
        <ele>1509</ele>
        <time>2019-02-03T13:10:56.000Z</time>
      </trkpt>
      <trkpt lat="42.91901" lon="0.58834">
        <ele>1509</ele>
        <time>2019-02-03T13:10:57.000Z</time>
      </trkpt>
      <trkpt lat="42.91901" lon="0.58834">
        <ele>1509</ele>
        <time>2019-02-03T13:10:58.000Z</time>
      </trkpt>
      <trkpt lat="42.91901" lon="0.58834">
        <ele>1509</ele>
        <time>2019-02-03T13:10:59.000Z</time>
      </trkpt>
      <trkpt lat="42.91901" lon="0.58834">
        <ele>1509.5</ele>
        <time>2019-02-03T13:11:00.000Z</time>
      </trkpt>
      <trkpt lat="42.91901" lon="0.58834">
        <ele>1510</ele>
        <time>2019-02-03T13:11:01.000Z</time>
      </trkpt>
      <trkpt lat="42.91901" lon="0.58834">
        <ele>1509.5</ele>
        <time>2019-02-03T13:11:02.000Z</time>
      </trkpt>
      <trkpt lat="42.91901" lon="0.58834">
        <ele>1509</ele>
        <time>2019-02-03T13:11:03.000Z</time>
      </trkpt>
      <trkpt lat="42.91901" lon="0.58834">
        <ele>1509</ele>
        <time>2019-02-03T13:11:04.000Z</time>
      </trkpt>
      <trkpt lat="42.91901" lon="0.58833">
        <ele>1509</ele>
        <time>2019-02-03T13:11:05.000Z</time>
      </trkpt>
      <trkpt lat="42.91901" lon="0.58833">
        <ele>1509</ele>
        <time>2019-02-03T13:11:06.000Z</time>
      </trkpt>
      <trkpt lat="42.91901" lon="0.58833">
        <ele>1509</ele>
        <time>2019-02-03T13:11:07.000Z</time>
      </trkpt>
      <trkpt lat="42.91901" lon="0.58833">
        <ele>1509</ele>
        <time>2019-02-03T13:11:08.000Z</time>
      </trkpt>
      <trkpt lat="42.91901" lon="0.58833">
        <ele>1509</ele>
        <time>2019-02-03T13:11:09.000Z</time>
      </trkpt>
      <trkpt lat="42.91901" lon="0.58833">
        <ele>1509</ele>
        <time>2019-02-03T13:11:10.000Z</time>
      </trkpt>
      <trkpt lat="42.91901" lon="0.58833">
        <ele>1509</ele>
        <time>2019-02-03T13:11:11.000Z</time>
      </trkpt>
      <trkpt lat="42.91901" lon="0.58833">
        <ele>1509.5</ele>
        <time>2019-02-03T13:11:12.000Z</time>
      </trkpt>
      <trkpt lat="42.91901" lon="0.58833">
        <ele>1510</ele>
        <time>2019-02-03T13:11:13.000Z</time>
      </trkpt>
      <trkpt lat="42.91901" lon="0.58833">
        <ele>1510</ele>
        <time>2019-02-03T13:11:14.000Z</time>
      </trkpt>
      <trkpt lat="42.91901" lon="0.58833">
        <ele>1510</ele>
        <time>2019-02-03T13:11:15.000Z</time>
      </trkpt>
      <trkpt lat="42.91901" lon="0.58833">
        <ele>1510</ele>
        <time>2019-02-03T13:11:16.000Z</time>
      </trkpt>
      <trkpt lat="42.91901" lon="0.58833">
        <ele>1510</ele>
        <time>2019-02-03T13:11:17.000Z</time>
      </trkpt>
      <trkpt lat="42.91901" lon="0.58833">
        <ele>1510</ele>
        <time>2019-02-03T13:11:18.000Z</time>
      </trkpt>
      <trkpt lat="42.91901" lon="0.58833">
        <ele>1509.7</ele>
        <time>2019-02-03T13:11:19.000Z</time>
      </trkpt>
      <trkpt lat="42.91901" lon="0.58833">
        <ele>1509.3</ele>
        <time>2019-02-03T13:11:20.000Z</time>
      </trkpt>
      <trkpt lat="42.91901" lon="0.58833">
        <ele>1509</ele>
        <time>2019-02-03T13:11:21.000Z</time>
      </trkpt>
      <trkpt lat="42.91901" lon="0.58833">
        <ele>1509</ele>
        <time>2019-02-03T13:11:22.000Z</time>
      </trkpt>
      <trkpt lat="42.91901" lon="0.58833">
        <ele>1509</ele>
        <time>2019-02-03T13:11:23.000Z</time>
      </trkpt>
      <trkpt lat="42.91901" lon="0.58833">
        <ele>1509</ele>
        <time>2019-02-03T13:11:24.000Z</time>
      </trkpt>
      <trkpt lat="42.91901" lon="0.58833">
        <ele>1509</ele>
        <time>2019-02-03T13:11:25.000Z</time>
      </trkpt>
      <trkpt lat="42.91901" lon="0.58833">
        <ele>1509</ele>
        <time>2019-02-03T13:11:26.000Z</time>
      </trkpt>
      <trkpt lat="42.91901" lon="0.58833">
        <ele>1509</ele>
        <time>2019-02-03T13:11:27.000Z</time>
      </trkpt>
      <trkpt lat="42.919" lon="0.58833">
        <ele>1509</ele>
        <time>2019-02-03T13:11:28.000Z</time>
      </trkpt>
      <trkpt lat="42.919" lon="0.58833">
        <ele>1509</ele>
        <time>2019-02-03T13:11:29.000Z</time>
      </trkpt>
      <trkpt lat="42.919" lon="0.58833">
        <ele>1509</ele>
        <time>2019-02-03T13:11:30.000Z</time>
      </trkpt>
      <trkpt lat="42.919" lon="0.58833">
        <ele>1509</ele>
        <time>2019-02-03T13:11:31.000Z</time>
      </trkpt>
      <trkpt lat="42.919" lon="0.58833">
        <ele>1509.5</ele>
        <time>2019-02-03T13:11:32.000Z</time>
      </trkpt>
      <trkpt lat="42.919" lon="0.58833">
        <ele>1510</ele>
        <time>2019-02-03T13:11:33.000Z</time>
      </trkpt>
      <trkpt lat="42.919" lon="0.58833">
        <ele>1510</ele>
        <time>2019-02-03T13:11:34.000Z</time>
      </trkpt>
      <trkpt lat="42.919" lon="0.58833">
        <ele>1510</ele>
        <time>2019-02-03T13:11:35.000Z</time>
      </trkpt>
      <trkpt lat="42.919" lon="0.58833">
        <ele>1510</ele>
        <time>2019-02-03T13:11:36.000Z</time>
      </trkpt>
      <trkpt lat="42.919" lon="0.58833">
        <ele>1510</ele>
        <time>2019-02-03T13:11:37.000Z</time>
      </trkpt>
      <trkpt lat="42.919" lon="0.58833">
        <ele>1510</ele>
        <time>2019-02-03T13:11:38.000Z</time>
      </trkpt>
      <trkpt lat="42.919" lon="0.58833">
        <ele>1510</ele>
        <time>2019-02-03T13:11:39.000Z</time>
      </trkpt>
      <trkpt lat="42.919" lon="0.58833">
        <ele>1510</ele>
        <time>2019-02-03T13:11:40.000Z</time>
      </trkpt>
      <trkpt lat="42.919" lon="0.58833">
        <ele>1510</ele>
        <time>2019-02-03T13:11:41.000Z</time>
      </trkpt>
      <trkpt lat="42.919" lon="0.58833">
        <ele>1510</ele>
        <time>2019-02-03T13:11:42.000Z</time>
      </trkpt>
      <trkpt lat="42.919" lon="0.58833">
        <ele>1510</ele>
        <time>2019-02-03T13:11:43.000Z</time>
      </trkpt>
      <trkpt lat="42.919" lon="0.58833">
        <ele>1510</ele>
        <time>2019-02-03T13:11:44.000Z</time>
      </trkpt>
      <trkpt lat="42.919" lon="0.58833">
        <ele>1510</ele>
        <time>2019-02-03T13:11:45.000Z</time>
      </trkpt>
      <trkpt lat="42.919" lon="0.58833">
        <ele>1510</ele>
        <time>2019-02-03T13:11:46.000Z</time>
      </trkpt>
      <trkpt lat="42.919" lon="0.58833">
        <ele>1510</ele>
        <time>2019-02-03T13:11:47.000Z</time>
      </trkpt>
      <trkpt lat="42.919" lon="0.58833">
        <ele>1510</ele>
        <time>2019-02-03T13:11:48.000Z</time>
      </trkpt>
      <trkpt lat="42.919" lon="0.58833">
        <ele>1510</ele>
        <time>2019-02-03T13:11:49.000Z</time>
      </trkpt>
      <trkpt lat="42.919" lon="0.58833">
        <ele>1510</ele>
        <time>2019-02-03T13:11:50.000Z</time>
      </trkpt>
      <trkpt lat="42.91901" lon="0.58833">
        <ele>1510</ele>
        <time>2019-02-03T13:11:51.000Z</time>
      </trkpt>
      <trkpt lat="42.91901" lon="0.58833">
        <ele>1510</ele>
        <time>2019-02-03T13:11:52.000Z</time>
      </trkpt>
      <trkpt lat="42.91901" lon="0.58833">
        <ele>1510</ele>
        <time>2019-02-03T13:11:53.000Z</time>
      </trkpt>
      <trkpt lat="42.91901" lon="0.58833">
        <ele>1510</ele>
        <time>2019-02-03T13:11:54.000Z</time>
      </trkpt>
      <trkpt lat="42.91901" lon="0.58833">
        <ele>1510</ele>
        <time>2019-02-03T13:11:55.000Z</time>
      </trkpt>
      <trkpt lat="42.91901" lon="0.58833">
        <ele>1510</ele>
        <time>2019-02-03T13:11:56.000Z</time>
      </trkpt>
      <trkpt lat="42.91901" lon="0.58833">
        <ele>1510</ele>
        <time>2019-02-03T13:11:57.000Z</time>
      </trkpt>
      <trkpt lat="42.91901" lon="0.58833">
        <ele>1510</ele>
        <time>2019-02-03T13:11:58.000Z</time>
      </trkpt>
      <trkpt lat="42.91901" lon="0.58833">
        <ele>1510</ele>
        <time>2019-02-03T13:11:59.000Z</time>
      </trkpt>
      <trkpt lat="42.91901" lon="0.58833">
        <ele>1510</ele>
        <time>2019-02-03T13:12:00.000Z</time>
      </trkpt>
      <trkpt lat="42.91901" lon="0.58833">
        <ele>1510</ele>
        <time>2019-02-03T13:12:01.000Z</time>
      </trkpt>
      <trkpt lat="42.91901" lon="0.58833">
        <ele>1510</ele>
        <time>2019-02-03T13:12:02.000Z</time>
      </trkpt>
      <trkpt lat="42.91901" lon="0.58833">
        <ele>1510</ele>
        <time>2019-02-03T13:12:03.000Z</time>
      </trkpt>
      <trkpt lat="42.91901" lon="0.58833">
        <ele>1510</ele>
        <time>2019-02-03T13:12:04.000Z</time>
      </trkpt>
      <trkpt lat="42.91901" lon="0.58833">
        <ele>1510</ele>
        <time>2019-02-03T13:12:05.000Z</time>
      </trkpt>
      <trkpt lat="42.91901" lon="0.58834">
        <ele>1510</ele>
        <time>2019-02-03T13:12:06.000Z</time>
      </trkpt>
      <trkpt lat="42.91901" lon="0.58834">
        <ele>1510</ele>
        <time>2019-02-03T13:12:07.000Z</time>
      </trkpt>
      <trkpt lat="42.91901" lon="0.58834">
        <ele>1510</ele>
        <time>2019-02-03T13:12:08.000Z</time>
      </trkpt>
      <trkpt lat="42.91901" lon="0.58834">
        <ele>1510</ele>
        <time>2019-02-03T13:12:09.000Z</time>
      </trkpt>
      <trkpt lat="42.91901" lon="0.58835">
        <ele>1510</ele>
        <time>2019-02-03T13:12:10.000Z</time>
      </trkpt>
      <trkpt lat="42.91902" lon="0.58835">
        <ele>1510</ele>
        <time>2019-02-03T13:12:11.000Z</time>
      </trkpt>
      <trkpt lat="42.91902" lon="0.58836">
        <ele>1510</ele>
        <time>2019-02-03T13:12:12.000Z</time>
      </trkpt>
      <trkpt lat="42.91902" lon="0.58836">
        <ele>1510</ele>
        <time>2019-02-03T13:12:13.000Z</time>
      </trkpt>
      <trkpt lat="42.91902" lon="0.58836">
        <ele>1510</ele>
        <time>2019-02-03T13:12:14.000Z</time>
      </trkpt>
      <trkpt lat="42.91902" lon="0.58837">
        <ele>1510</ele>
        <time>2019-02-03T13:12:15.000Z</time>
      </trkpt>
      <trkpt lat="42.91902" lon="0.58837">
        <ele>1510</ele>
        <time>2019-02-03T13:12:16.000Z</time>
      </trkpt>
      <trkpt lat="42.91902" lon="0.58837">
        <ele>1510</ele>
        <time>2019-02-03T13:12:17.000Z</time>
      </trkpt>
      <trkpt lat="42.91902" lon="0.58837">
        <ele>1510</ele>
        <time>2019-02-03T13:12:18.000Z</time>
      </trkpt>
      <trkpt lat="42.91901" lon="0.58838">
        <ele>1510</ele>
        <time>2019-02-03T13:12:19.000Z</time>
      </trkpt>
      <trkpt lat="42.91901" lon="0.58838">
        <ele>1510</ele>
        <time>2019-02-03T13:12:20.000Z</time>
      </trkpt>
      <trkpt lat="42.91901" lon="0.58838">
        <ele>1510</ele>
        <time>2019-02-03T13:12:21.000Z</time>
      </trkpt>
      <trkpt lat="42.91901" lon="0.58838">
        <ele>1510</ele>
        <time>2019-02-03T13:12:22.000Z</time>
      </trkpt>
      <trkpt lat="42.91901" lon="0.58838">
        <ele>1510.5</ele>
        <time>2019-02-03T13:12:23.000Z</time>
      </trkpt>
      <trkpt lat="42.91901" lon="0.58838">
        <ele>1511</ele>
        <time>2019-02-03T13:12:24.000Z</time>
      </trkpt>
      <trkpt lat="42.91901" lon="0.58838">
        <ele>1510.5</ele>
        <time>2019-02-03T13:12:25.000Z</time>
      </trkpt>
      <trkpt lat="42.91901" lon="0.58838">
        <ele>1510</ele>
        <time>2019-02-03T13:12:26.000Z</time>
      </trkpt>
      <trkpt lat="42.919" lon="0.58838">
        <ele>1510</ele>
        <time>2019-02-03T13:12:27.000Z</time>
      </trkpt>
      <trkpt lat="42.919" lon="0.58838">
        <ele>1510</ele>
        <time>2019-02-03T13:12:28.000Z</time>
      </trkpt>
      <trkpt lat="42.919" lon="0.58838">
        <ele>1510</ele>
        <time>2019-02-03T13:12:29.000Z</time>
      </trkpt>
      <trkpt lat="42.919" lon="0.58838">
        <ele>1510</ele>
        <time>2019-02-03T13:12:30.000Z</time>
      </trkpt>
      <trkpt lat="42.919" lon="0.58838">
        <ele>1510</ele>
        <time>2019-02-03T13:12:31.000Z</time>
      </trkpt>
      <trkpt lat="42.919" lon="0.58838">
        <ele>1510</ele>
        <time>2019-02-03T13:12:32.000Z</time>
      </trkpt>
      <trkpt lat="42.919" lon="0.58838">
        <ele>1510</ele>
        <time>2019-02-03T13:12:33.000Z</time>
      </trkpt>
      <trkpt lat="42.919" lon="0.58838">
        <ele>1510</ele>
        <time>2019-02-03T13:12:34.000Z</time>
      </trkpt>
      <trkpt lat="42.919" lon="0.58838">
        <ele>1510</ele>
        <time>2019-02-03T13:12:35.000Z</time>
      </trkpt>
      <trkpt lat="42.919" lon="0.58838">
        <ele>1510</ele>
        <time>2019-02-03T13:12:36.000Z</time>
      </trkpt>
      <trkpt lat="42.919" lon="0.58838">
        <ele>1510</ele>
        <time>2019-02-03T13:12:37.000Z</time>
      </trkpt>
      <trkpt lat="42.919" lon="0.58838">
        <ele>1510</ele>
        <time>2019-02-03T13:12:38.000Z</time>
      </trkpt>
      <trkpt lat="42.919" lon="0.58838">
        <ele>1510</ele>
        <time>2019-02-03T13:12:39.000Z</time>
      </trkpt>
      <trkpt lat="42.919" lon="0.58838">
        <ele>1510</ele>
        <time>2019-02-03T13:12:40.000Z</time>
      </trkpt>
      <trkpt lat="42.919" lon="0.58838">
        <ele>1510</ele>
        <time>2019-02-03T13:12:41.000Z</time>
      </trkpt>
      <trkpt lat="42.919" lon="0.58838">
        <ele>1510</ele>
        <time>2019-02-03T13:12:42.000Z</time>
      </trkpt>
      <trkpt lat="42.919" lon="0.58838">
        <ele>1510</ele>
        <time>2019-02-03T13:12:43.000Z</time>
      </trkpt>
      <trkpt lat="42.919" lon="0.58838">
        <ele>1510</ele>
        <time>2019-02-03T13:12:44.000Z</time>
      </trkpt>
      <trkpt lat="42.919" lon="0.58838">
        <ele>1510</ele>
        <time>2019-02-03T13:12:45.000Z</time>
      </trkpt>
      <trkpt lat="42.919" lon="0.58838">
        <ele>1510</ele>
        <time>2019-02-03T13:12:46.000Z</time>
      </trkpt>
      <trkpt lat="42.919" lon="0.58838">
        <ele>1509</ele>
        <time>2019-02-03T13:12:47.000Z</time>
      </trkpt>
      <trkpt lat="42.919" lon="0.58838">
        <ele>1509.3</ele>
        <time>2019-02-03T13:12:48.000Z</time>
      </trkpt>
      <trkpt lat="42.919" lon="0.58838">
        <ele>1509.7</ele>
        <time>2019-02-03T13:12:49.000Z</time>
      </trkpt>
      <trkpt lat="42.919" lon="0.58838">
        <ele>1510</ele>
        <time>2019-02-03T13:12:50.000Z</time>
      </trkpt>
      <trkpt lat="42.919" lon="0.58838">
        <ele>1510</ele>
        <time>2019-02-03T13:12:51.000Z</time>
      </trkpt>
      <trkpt lat="42.919" lon="0.58838">
        <ele>1510</ele>
        <time>2019-02-03T13:12:52.000Z</time>
      </trkpt>
      <trkpt lat="42.919" lon="0.58838">
        <ele>1510</ele>
        <time>2019-02-03T13:12:53.000Z</time>
      </trkpt>
      <trkpt lat="42.919" lon="0.58838">
        <ele>1510</ele>
        <time>2019-02-03T13:12:54.000Z</time>
      </trkpt>
      <trkpt lat="42.919" lon="0.58838">
        <ele>1510</ele>
        <time>2019-02-03T13:12:55.000Z</time>
      </trkpt>
      <trkpt lat="42.919" lon="0.58837">
        <ele>1510</ele>
        <time>2019-02-03T13:12:56.000Z</time>
      </trkpt>
      <trkpt lat="42.919" lon="0.58837">
        <ele>1510</ele>
        <time>2019-02-03T13:12:57.000Z</time>
      </trkpt>
      <trkpt lat="42.919" lon="0.58837">
        <ele>1510</ele>
        <time>2019-02-03T13:12:58.000Z</time>
      </trkpt>
      <trkpt lat="42.919" lon="0.58836">
        <ele>1510</ele>
        <time>2019-02-03T13:12:59.000Z</time>
      </trkpt>
      <trkpt lat="42.919" lon="0.58836">
        <ele>1510</ele>
        <time>2019-02-03T13:13:00.000Z</time>
      </trkpt>
      <trkpt lat="42.919" lon="0.58835">
        <ele>1510</ele>
        <time>2019-02-03T13:13:01.000Z</time>
      </trkpt>
      <trkpt lat="42.919" lon="0.58835">
        <ele>1510</ele>
        <time>2019-02-03T13:13:02.000Z</time>
      </trkpt>
      <trkpt lat="42.919" lon="0.58835">
        <ele>1509</ele>
        <time>2019-02-03T13:13:03.000Z</time>
      </trkpt>
      <trkpt lat="42.919" lon="0.58835">
        <ele>1509</ele>
        <time>2019-02-03T13:13:04.000Z</time>
      </trkpt>
      <trkpt lat="42.91899" lon="0.58834">
        <ele>1509</ele>
        <time>2019-02-03T13:13:05.000Z</time>
      </trkpt>
      <trkpt lat="42.91899" lon="0.58834">
        <ele>1509</ele>
        <time>2019-02-03T13:13:06.000Z</time>
      </trkpt>
      <trkpt lat="42.91899" lon="0.58834">
        <ele>1510</ele>
        <time>2019-02-03T13:13:07.000Z</time>
      </trkpt>
      <trkpt lat="42.91899" lon="0.58834">
        <ele>1509.7</ele>
        <time>2019-02-03T13:13:08.000Z</time>
      </trkpt>
      <trkpt lat="42.91899" lon="0.58834">
        <ele>1509.3</ele>
        <time>2019-02-03T13:13:09.000Z</time>
      </trkpt>
      <trkpt lat="42.91899" lon="0.58834">
        <ele>1509</ele>
        <time>2019-02-03T13:13:10.000Z</time>
      </trkpt>
      <trkpt lat="42.91899" lon="0.58834">
        <ele>1509</ele>
        <time>2019-02-03T13:13:11.000Z</time>
      </trkpt>
      <trkpt lat="42.91899" lon="0.58834">
        <ele>1509.3</ele>
        <time>2019-02-03T13:13:12.000Z</time>
      </trkpt>
      <trkpt lat="42.91899" lon="0.58834">
        <ele>1509.7</ele>
        <time>2019-02-03T13:13:13.000Z</time>
      </trkpt>
      <trkpt lat="42.91899" lon="0.58834">
        <ele>1510</ele>
        <time>2019-02-03T13:13:14.000Z</time>
      </trkpt>
      <trkpt lat="42.91899" lon="0.58834">
        <ele>1510</ele>
        <time>2019-02-03T13:13:15.000Z</time>
      </trkpt>
      <trkpt lat="42.91899" lon="0.58834">
        <ele>1510</ele>
        <time>2019-02-03T13:13:16.000Z</time>
      </trkpt>
      <trkpt lat="42.91899" lon="0.58834">
        <ele>1510</ele>
        <time>2019-02-03T13:13:17.000Z</time>
      </trkpt>
      <trkpt lat="42.91899" lon="0.58834">
        <ele>1510</ele>
        <time>2019-02-03T13:13:18.000Z</time>
      </trkpt>
      <trkpt lat="42.91899" lon="0.58834">
        <ele>1510</ele>
        <time>2019-02-03T13:13:19.000Z</time>
      </trkpt>
      <trkpt lat="42.91899" lon="0.58834">
        <ele>1510</ele>
        <time>2019-02-03T13:13:20.000Z</time>
      </trkpt>
      <trkpt lat="42.91899" lon="0.58834">
        <ele>1510</ele>
        <time>2019-02-03T13:13:21.000Z</time>
      </trkpt>
      <trkpt lat="42.91899" lon="0.58834">
        <ele>1510</ele>
        <time>2019-02-03T13:13:22.000Z</time>
      </trkpt>
      <trkpt lat="42.91899" lon="0.58834">
        <ele>1510</ele>
        <time>2019-02-03T13:13:23.000Z</time>
      </trkpt>
      <trkpt lat="42.91899" lon="0.58834">
        <ele>1510</ele>
        <time>2019-02-03T13:13:24.000Z</time>
      </trkpt>
      <trkpt lat="42.91899" lon="0.58834">
        <ele>1510</ele>
        <time>2019-02-03T13:13:25.000Z</time>
      </trkpt>
      <trkpt lat="42.91899" lon="0.58834">
        <ele>1510</ele>
        <time>2019-02-03T13:13:26.000Z</time>
      </trkpt>
      <trkpt lat="42.91899" lon="0.58834">
        <ele>1510</ele>
        <time>2019-02-03T13:13:27.000Z</time>
      </trkpt>
      <trkpt lat="42.91899" lon="0.58834">
        <ele>1510</ele>
        <time>2019-02-03T13:13:28.000Z</time>
      </trkpt>
      <trkpt lat="42.91899" lon="0.58834">
        <ele>1510</ele>
        <time>2019-02-03T13:13:29.000Z</time>
      </trkpt>
      <trkpt lat="42.91899" lon="0.58834">
        <ele>1510</ele>
        <time>2019-02-03T13:13:30.000Z</time>
      </trkpt>
      <trkpt lat="42.91899" lon="0.58834">
        <ele>1510</ele>
        <time>2019-02-03T13:13:31.000Z</time>
      </trkpt>
      <trkpt lat="42.91899" lon="0.58834">
        <ele>1510</ele>
        <time>2019-02-03T13:13:32.000Z</time>
      </trkpt>
      <trkpt lat="42.91899" lon="0.58834">
        <ele>1510</ele>
        <time>2019-02-03T13:13:33.000Z</time>
      </trkpt>
      <trkpt lat="42.91899" lon="0.58834">
        <ele>1510</ele>
        <time>2019-02-03T13:13:34.000Z</time>
      </trkpt>
      <trkpt lat="42.91899" lon="0.58834">
        <ele>1510</ele>
        <time>2019-02-03T13:13:35.000Z</time>
      </trkpt>
      <trkpt lat="42.91899" lon="0.58834">
        <ele>1510</ele>
        <time>2019-02-03T13:13:36.000Z</time>
      </trkpt>
      <trkpt lat="42.91899" lon="0.58834">
        <ele>1510</ele>
        <time>2019-02-03T13:13:37.000Z</time>
      </trkpt>
      <trkpt lat="42.91899" lon="0.58834">
        <ele>1510</ele>
        <time>2019-02-03T13:13:38.000Z</time>
      </trkpt>
      <trkpt lat="42.91899" lon="0.58834">
        <ele>1510</ele>
        <time>2019-02-03T13:13:39.000Z</time>
      </trkpt>
      <trkpt lat="42.91899" lon="0.58834">
        <ele>1510</ele>
        <time>2019-02-03T13:13:40.000Z</time>
      </trkpt>
      <trkpt lat="42.91899" lon="0.58834">
        <ele>1510</ele>
        <time>2019-02-03T13:13:41.000Z</time>
      </trkpt>
      <trkpt lat="42.91899" lon="0.58834">
        <ele>1510</ele>
        <time>2019-02-03T13:13:42.000Z</time>
      </trkpt>
      <trkpt lat="42.91899" lon="0.58834">
        <ele>1510</ele>
        <time>2019-02-03T13:13:43.000Z</time>
      </trkpt>
      <trkpt lat="42.91899" lon="0.58834">
        <ele>1510</ele>
        <time>2019-02-03T13:13:44.000Z</time>
      </trkpt>
      <trkpt lat="42.91899" lon="0.58834">
        <ele>1510</ele>
        <time>2019-02-03T13:13:45.000Z</time>
      </trkpt>
      <trkpt lat="42.91899" lon="0.58834">
        <ele>1510</ele>
        <time>2019-02-03T13:13:46.000Z</time>
      </trkpt>
      <trkpt lat="42.91899" lon="0.58834">
        <ele>1510</ele>
        <time>2019-02-03T13:13:47.000Z</time>
      </trkpt>
      <trkpt lat="42.91899" lon="0.58834">
        <ele>1510</ele>
        <time>2019-02-03T13:13:48.000Z</time>
      </trkpt>
      <trkpt lat="42.91899" lon="0.58834">
        <ele>1510</ele>
        <time>2019-02-03T13:13:49.000Z</time>
      </trkpt>
      <trkpt lat="42.91899" lon="0.58834">
        <ele>1510</ele>
        <time>2019-02-03T13:13:50.000Z</time>
      </trkpt>
      <trkpt lat="42.91899" lon="0.58834">
        <ele>1510</ele>
        <time>2019-02-03T13:13:51.000Z</time>
      </trkpt>
      <trkpt lat="42.91899" lon="0.58834">
        <ele>1510</ele>
        <time>2019-02-03T13:13:52.000Z</time>
      </trkpt>
      <trkpt lat="42.91899" lon="0.58834">
        <ele>1510</ele>
        <time>2019-02-03T13:13:53.000Z</time>
      </trkpt>
      <trkpt lat="42.91898" lon="0.58835">
        <ele>1510</ele>
        <time>2019-02-03T13:13:54.000Z</time>
      </trkpt>
      <trkpt lat="42.91898" lon="0.58835">
        <ele>1510</ele>
        <time>2019-02-03T13:13:55.000Z</time>
      </trkpt>
      <trkpt lat="42.91898" lon="0.58835">
        <ele>1510</ele>
        <time>2019-02-03T13:13:56.000Z</time>
      </trkpt>
      <trkpt lat="42.91898" lon="0.58835">
        <ele>1510</ele>
        <time>2019-02-03T13:13:57.000Z</time>
      </trkpt>
      <trkpt lat="42.91898" lon="0.58835">
        <ele>1510</ele>
        <time>2019-02-03T13:13:58.000Z</time>
      </trkpt>
      <trkpt lat="42.91898" lon="0.58835">
        <ele>1510</ele>
        <time>2019-02-03T13:13:59.000Z</time>
      </trkpt>
      <trkpt lat="42.91898" lon="0.58835">
        <ele>1510</ele>
        <time>2019-02-03T13:14:00.000Z</time>
      </trkpt>
      <trkpt lat="42.91898" lon="0.58835">
        <ele>1510</ele>
        <time>2019-02-03T13:14:01.000Z</time>
      </trkpt>
      <trkpt lat="42.91898" lon="0.58835">
        <ele>1510</ele>
        <time>2019-02-03T13:14:02.000Z</time>
      </trkpt>
      <trkpt lat="42.91898" lon="0.58835">
        <ele>1510</ele>
        <time>2019-02-03T13:14:03.000Z</time>
      </trkpt>
      <trkpt lat="42.91898" lon="0.58835">
        <ele>1510</ele>
        <time>2019-02-03T13:14:04.000Z</time>
      </trkpt>
      <trkpt lat="42.91898" lon="0.58835">
        <ele>1510</ele>
        <time>2019-02-03T13:14:05.000Z</time>
      </trkpt>
      <trkpt lat="42.91898" lon="0.58835">
        <ele>1510</ele>
        <time>2019-02-03T13:14:06.000Z</time>
      </trkpt>
      <trkpt lat="42.91898" lon="0.58835">
        <ele>1510</ele>
        <time>2019-02-03T13:14:07.000Z</time>
      </trkpt>
      <trkpt lat="42.91898" lon="0.58835">
        <ele>1510</ele>
        <time>2019-02-03T13:14:08.000Z</time>
      </trkpt>
      <trkpt lat="42.91898" lon="0.58835">
        <ele>1510</ele>
        <time>2019-02-03T13:14:09.000Z</time>
      </trkpt>
      <trkpt lat="42.91898" lon="0.58834">
        <ele>1510</ele>
        <time>2019-02-03T13:14:10.000Z</time>
      </trkpt>
      <trkpt lat="42.91897" lon="0.58834">
        <ele>1509.5</ele>
        <time>2019-02-03T13:14:11.000Z</time>
      </trkpt>
      <trkpt lat="42.91897" lon="0.58834">
        <ele>1509</ele>
        <time>2019-02-03T13:14:12.000Z</time>
      </trkpt>
      <trkpt lat="42.91897" lon="0.58834">
        <ele>1509</ele>
        <time>2019-02-03T13:14:13.000Z</time>
      </trkpt>
      <trkpt lat="42.91897" lon="0.58834">
        <ele>1509</ele>
        <time>2019-02-03T13:14:14.000Z</time>
      </trkpt>
      <trkpt lat="42.91897" lon="0.58834">
        <ele>1509</ele>
        <time>2019-02-03T13:14:15.000Z</time>
      </trkpt>
      <trkpt lat="42.91897" lon="0.58834">
        <ele>1509</ele>
        <time>2019-02-03T13:14:16.000Z</time>
      </trkpt>
      <trkpt lat="42.91897" lon="0.58833">
        <ele>1509</ele>
        <time>2019-02-03T13:14:17.000Z</time>
      </trkpt>
      <trkpt lat="42.91897" lon="0.58833">
        <ele>1509</ele>
        <time>2019-02-03T13:14:18.000Z</time>
      </trkpt>
      <trkpt lat="42.91896" lon="0.58833">
        <ele>1509</ele>
        <time>2019-02-03T13:14:19.000Z</time>
      </trkpt>
      <trkpt lat="42.91896" lon="0.58833">
        <ele>1509</ele>
        <time>2019-02-03T13:14:20.000Z</time>
      </trkpt>
      <trkpt lat="42.91896" lon="0.58833">
        <ele>1509</ele>
        <time>2019-02-03T13:14:21.000Z</time>
      </trkpt>
      <trkpt lat="42.91897" lon="0.58833">
        <ele>1509</ele>
        <time>2019-02-03T13:14:22.000Z</time>
      </trkpt>
      <trkpt lat="42.91897" lon="0.58833">
        <ele>1510</ele>
        <time>2019-02-03T13:14:23.000Z</time>
      </trkpt>
      <trkpt lat="42.91897" lon="0.58833">
        <ele>1510.5</ele>
        <time>2019-02-03T13:14:24.000Z</time>
      </trkpt>
      <trkpt lat="42.91897" lon="0.58833">
        <ele>1511</ele>
        <time>2019-02-03T13:14:25.000Z</time>
      </trkpt>
      <trkpt lat="42.91897" lon="0.58833">
        <ele>1511</ele>
        <time>2019-02-03T13:14:26.000Z</time>
      </trkpt>
      <trkpt lat="42.91897" lon="0.58833">
        <ele>1511</ele>
        <time>2019-02-03T13:14:27.000Z</time>
      </trkpt>
      <trkpt lat="42.91897" lon="0.58832">
        <ele>1511</ele>
        <time>2019-02-03T13:14:28.000Z</time>
      </trkpt>
      <trkpt lat="42.91897" lon="0.58832">
        <ele>1511</ele>
        <time>2019-02-03T13:14:29.000Z</time>
      </trkpt>
      <trkpt lat="42.91897" lon="0.58832">
        <ele>1511</ele>
        <time>2019-02-03T13:14:30.000Z</time>
      </trkpt>
      <trkpt lat="42.91897" lon="0.58832">
        <ele>1511</ele>
        <time>2019-02-03T13:14:31.000Z</time>
      </trkpt>
      <trkpt lat="42.91897" lon="0.58832">
        <ele>1511</ele>
        <time>2019-02-03T13:14:32.000Z</time>
      </trkpt>
      <trkpt lat="42.91897" lon="0.58832">
        <ele>1511</ele>
        <time>2019-02-03T13:14:33.000Z</time>
      </trkpt>
      <trkpt lat="42.91897" lon="0.58832">
        <ele>1511</ele>
        <time>2019-02-03T13:14:34.000Z</time>
      </trkpt>
      <trkpt lat="42.91897" lon="0.58831">
        <ele>1511</ele>
        <time>2019-02-03T13:14:35.000Z</time>
      </trkpt>
      <trkpt lat="42.91897" lon="0.58831">
        <ele>1511</ele>
        <time>2019-02-03T13:14:36.000Z</time>
      </trkpt>
      <trkpt lat="42.91897" lon="0.58831">
        <ele>1511</ele>
        <time>2019-02-03T13:14:37.000Z</time>
      </trkpt>
      <trkpt lat="42.91897" lon="0.58831">
        <ele>1511</ele>
        <time>2019-02-03T13:14:38.000Z</time>
      </trkpt>
      <trkpt lat="42.91897" lon="0.58831">
        <ele>1511</ele>
        <time>2019-02-03T13:14:39.000Z</time>
      </trkpt>
      <trkpt lat="42.91897" lon="0.58831">
        <ele>1511</ele>
        <time>2019-02-03T13:14:40.000Z</time>
      </trkpt>
      <trkpt lat="42.91897" lon="0.58831">
        <ele>1511</ele>
        <time>2019-02-03T13:14:41.000Z</time>
      </trkpt>
      <trkpt lat="42.91897" lon="0.58831">
        <ele>1511</ele>
        <time>2019-02-03T13:14:42.000Z</time>
      </trkpt>
      <trkpt lat="42.91897" lon="0.58831">
        <ele>1511</ele>
        <time>2019-02-03T13:14:43.000Z</time>
      </trkpt>
      <trkpt lat="42.91897" lon="0.58831">
        <ele>1511</ele>
        <time>2019-02-03T13:14:44.000Z</time>
      </trkpt>
      <trkpt lat="42.91897" lon="0.58831">
        <ele>1510.5</ele>
        <time>2019-02-03T13:14:45.000Z</time>
      </trkpt>
      <trkpt lat="42.91897" lon="0.5883">
        <ele>1510</ele>
        <time>2019-02-03T13:14:46.000Z</time>
      </trkpt>
      <trkpt lat="42.91897" lon="0.5883">
        <ele>1510</ele>
        <time>2019-02-03T13:14:47.000Z</time>
      </trkpt>
      <trkpt lat="42.91897" lon="0.5883">
        <ele>1510</ele>
        <time>2019-02-03T13:14:48.000Z</time>
      </trkpt>
      <trkpt lat="42.91897" lon="0.5883">
        <ele>1510</ele>
        <time>2019-02-03T13:14:49.000Z</time>
      </trkpt>
      <trkpt lat="42.91897" lon="0.5883">
        <ele>1510</ele>
        <time>2019-02-03T13:14:50.000Z</time>
      </trkpt>
      <trkpt lat="42.91897" lon="0.5883">
        <ele>1509.5</ele>
        <time>2019-02-03T13:14:51.000Z</time>
      </trkpt>
      <trkpt lat="42.91897" lon="0.5883">
        <ele>1509</ele>
        <time>2019-02-03T13:14:52.000Z</time>
      </trkpt>
      <trkpt lat="42.91897" lon="0.5883">
        <ele>1509</ele>
        <time>2019-02-03T13:14:53.000Z</time>
      </trkpt>
      <trkpt lat="42.91897" lon="0.5883">
        <ele>1509</ele>
        <time>2019-02-03T13:14:54.000Z</time>
      </trkpt>
      <trkpt lat="42.91897" lon="0.5883">
        <ele>1509</ele>
        <time>2019-02-03T13:14:55.000Z</time>
      </trkpt>
      <trkpt lat="42.91897" lon="0.5883">
        <ele>1509</ele>
        <time>2019-02-03T13:14:56.000Z</time>
      </trkpt>
      <trkpt lat="42.91897" lon="0.58831">
        <ele>1509</ele>
        <time>2019-02-03T13:14:57.000Z</time>
      </trkpt>
      <trkpt lat="42.91897" lon="0.58831">
        <ele>1509</ele>
        <time>2019-02-03T13:14:58.000Z</time>
      </trkpt>
      <trkpt lat="42.91897" lon="0.58831">
        <ele>1509</ele>
        <time>2019-02-03T13:14:59.000Z</time>
      </trkpt>
      <trkpt lat="42.91897" lon="0.58831">
        <ele>1509.3</ele>
        <time>2019-02-03T13:15:00.000Z</time>
      </trkpt>
      <trkpt lat="42.91897" lon="0.58831">
        <ele>1509.7</ele>
        <time>2019-02-03T13:15:01.000Z</time>
      </trkpt>
      <trkpt lat="42.91897" lon="0.58831">
        <ele>1510</ele>
        <time>2019-02-03T13:15:02.000Z</time>
      </trkpt>
      <trkpt lat="42.91897" lon="0.58831">
        <ele>1510</ele>
        <time>2019-02-03T13:15:03.000Z</time>
      </trkpt>
      <trkpt lat="42.91897" lon="0.58831">
        <ele>1510</ele>
        <time>2019-02-03T13:15:04.000Z</time>
      </trkpt>
      <trkpt lat="42.91897" lon="0.58831">
        <ele>1510</ele>
        <time>2019-02-03T13:15:05.000Z</time>
      </trkpt>
      <trkpt lat="42.91897" lon="0.58831">
        <ele>1510</ele>
        <time>2019-02-03T13:15:06.000Z</time>
      </trkpt>
      <trkpt lat="42.91897" lon="0.58831">
        <ele>1510</ele>
        <time>2019-02-03T13:15:07.000Z</time>
      </trkpt>
      <trkpt lat="42.91897" lon="0.58831">
        <ele>1510</ele>
        <time>2019-02-03T13:15:08.000Z</time>
      </trkpt>
      <trkpt lat="42.91897" lon="0.58831">
        <ele>1510.5</ele>
        <time>2019-02-03T13:15:09.000Z</time>
      </trkpt>
      <trkpt lat="42.91897" lon="0.58831">
        <ele>1511</ele>
        <time>2019-02-03T13:15:10.000Z</time>
      </trkpt>
      <trkpt lat="42.91897" lon="0.58831">
        <ele>1510</ele>
        <time>2019-02-03T13:15:11.000Z</time>
      </trkpt>
      <trkpt lat="42.91897" lon="0.58831">
        <ele>1510</ele>
        <time>2019-02-03T13:15:12.000Z</time>
      </trkpt>
      <trkpt lat="42.91897" lon="0.58831">
        <ele>1510</ele>
        <time>2019-02-03T13:15:13.000Z</time>
      </trkpt>
      <trkpt lat="42.91897" lon="0.58831">
        <ele>1510</ele>
        <time>2019-02-03T13:15:14.000Z</time>
      </trkpt>
      <trkpt lat="42.91897" lon="0.58831">
        <ele>1510</ele>
        <time>2019-02-03T13:15:15.000Z</time>
      </trkpt>
      <trkpt lat="42.91897" lon="0.58831">
        <ele>1510</ele>
        <time>2019-02-03T13:15:16.000Z</time>
      </trkpt>
      <trkpt lat="42.91897" lon="0.58831">
        <ele>1510</ele>
        <time>2019-02-03T13:15:17.000Z</time>
      </trkpt>
      <trkpt lat="42.91897" lon="0.58831">
        <ele>1510</ele>
        <time>2019-02-03T13:15:18.000Z</time>
      </trkpt>
      <trkpt lat="42.91896" lon="0.58831">
        <ele>1510</ele>
        <time>2019-02-03T13:15:19.000Z</time>
      </trkpt>
      <trkpt lat="42.91896" lon="0.58831">
        <ele>1510</ele>
        <time>2019-02-03T13:15:20.000Z</time>
      </trkpt>
      <trkpt lat="42.91896" lon="0.58831">
        <ele>1510</ele>
        <time>2019-02-03T13:15:21.000Z</time>
      </trkpt>
      <trkpt lat="42.91896" lon="0.58831">
        <ele>1510.5</ele>
        <time>2019-02-03T13:15:22.000Z</time>
      </trkpt>
      <trkpt lat="42.91896" lon="0.58831">
        <ele>1511</ele>
        <time>2019-02-03T13:15:23.000Z</time>
      </trkpt>
      <trkpt lat="42.91895" lon="0.58831">
        <ele>1511</ele>
        <time>2019-02-03T13:15:24.000Z</time>
      </trkpt>
      <trkpt lat="42.91895" lon="0.58831">
        <ele>1511</ele>
        <time>2019-02-03T13:15:25.000Z</time>
      </trkpt>
      <trkpt lat="42.91895" lon="0.58831">
        <ele>1511</ele>
        <time>2019-02-03T13:15:26.000Z</time>
      </trkpt>
      <trkpt lat="42.91895" lon="0.58831">
        <ele>1511</ele>
        <time>2019-02-03T13:15:27.000Z</time>
      </trkpt>
      <trkpt lat="42.91894" lon="0.58832">
        <ele>1511</ele>
        <time>2019-02-03T13:15:28.000Z</time>
      </trkpt>
      <trkpt lat="42.91894" lon="0.58832">
        <ele>1510</ele>
        <time>2019-02-03T13:15:29.000Z</time>
      </trkpt>
      <trkpt lat="42.91894" lon="0.58832">
        <ele>1510</ele>
        <time>2019-02-03T13:15:30.000Z</time>
      </trkpt>
      <trkpt lat="42.91894" lon="0.58832">
        <ele>1510</ele>
        <time>2019-02-03T13:15:31.000Z</time>
      </trkpt>
      <trkpt lat="42.91894" lon="0.58832">
        <ele>1510</ele>
        <time>2019-02-03T13:15:32.000Z</time>
      </trkpt>
      <trkpt lat="42.91894" lon="0.58832">
        <ele>1510</ele>
        <time>2019-02-03T13:15:33.000Z</time>
      </trkpt>
      <trkpt lat="42.91894" lon="0.58832">
        <ele>1510</ele>
        <time>2019-02-03T13:15:34.000Z</time>
      </trkpt>
      <trkpt lat="42.91894" lon="0.58832">
        <ele>1510</ele>
        <time>2019-02-03T13:15:35.000Z</time>
      </trkpt>
      <trkpt lat="42.91894" lon="0.58832">
        <ele>1510</ele>
        <time>2019-02-03T13:15:36.000Z</time>
      </trkpt>
      <trkpt lat="42.91894" lon="0.58832">
        <ele>1510</ele>
        <time>2019-02-03T13:15:37.000Z</time>
      </trkpt>
      <trkpt lat="42.91894" lon="0.58832">
        <ele>1510</ele>
        <time>2019-02-03T13:15:38.000Z</time>
      </trkpt>
      <trkpt lat="42.91894" lon="0.58832">
        <ele>1510</ele>
        <time>2019-02-03T13:15:39.000Z</time>
      </trkpt>
      <trkpt lat="42.91894" lon="0.58832">
        <ele>1510</ele>
        <time>2019-02-03T13:15:40.000Z</time>
      </trkpt>
      <trkpt lat="42.91895" lon="0.58832">
        <ele>1510</ele>
        <time>2019-02-03T13:15:41.000Z</time>
      </trkpt>
      <trkpt lat="42.91895" lon="0.58833">
        <ele>1510.3</ele>
        <time>2019-02-03T13:15:42.000Z</time>
      </trkpt>
      <trkpt lat="42.91895" lon="0.58833">
        <ele>1510.7</ele>
        <time>2019-02-03T13:15:43.000Z</time>
      </trkpt>
      <trkpt lat="42.91895" lon="0.58833">
        <ele>1511</ele>
        <time>2019-02-03T13:15:44.000Z</time>
      </trkpt>
      <trkpt lat="42.91895" lon="0.58834">
        <ele>1511</ele>
        <time>2019-02-03T13:15:45.000Z</time>
      </trkpt>
      <trkpt lat="42.91896" lon="0.58834">
        <ele>1510.7</ele>
        <time>2019-02-03T13:15:46.000Z</time>
      </trkpt>
      <trkpt lat="42.91896" lon="0.58834">
        <ele>1510.3</ele>
        <time>2019-02-03T13:15:47.000Z</time>
      </trkpt>
      <trkpt lat="42.91896" lon="0.58834">
        <ele>1510</ele>
        <time>2019-02-03T13:15:48.000Z</time>
      </trkpt>
      <trkpt lat="42.91896" lon="0.58834">
        <ele>1510</ele>
        <time>2019-02-03T13:15:49.000Z</time>
      </trkpt>
      <trkpt lat="42.91896" lon="0.58834">
        <ele>1510</ele>
        <time>2019-02-03T13:15:50.000Z</time>
      </trkpt>
      <trkpt lat="42.91896" lon="0.58834">
        <ele>1510.5</ele>
        <time>2019-02-03T13:15:51.000Z</time>
      </trkpt>
      <trkpt lat="42.91896" lon="0.58834">
        <ele>1511</ele>
        <time>2019-02-03T13:15:52.000Z</time>
      </trkpt>
      <trkpt lat="42.91896" lon="0.58834">
        <ele>1511</ele>
        <time>2019-02-03T13:15:53.000Z</time>
      </trkpt>
      <trkpt lat="42.91896" lon="0.58834">
        <ele>1510.7</ele>
        <time>2019-02-03T13:15:54.000Z</time>
      </trkpt>
      <trkpt lat="42.91896" lon="0.58834">
        <ele>1510.3</ele>
        <time>2019-02-03T13:15:55.000Z</time>
      </trkpt>
      <trkpt lat="42.91896" lon="0.58834">
        <ele>1510</ele>
        <time>2019-02-03T13:15:56.000Z</time>
      </trkpt>
      <trkpt lat="42.91896" lon="0.58834">
        <ele>1510</ele>
        <time>2019-02-03T13:15:57.000Z</time>
      </trkpt>
      <trkpt lat="42.91896" lon="0.58834">
        <ele>1510</ele>
        <time>2019-02-03T13:15:58.000Z</time>
      </trkpt>
      <trkpt lat="42.91896" lon="0.58834">
        <ele>1510</ele>
        <time>2019-02-03T13:15:59.000Z</time>
      </trkpt>
      <trkpt lat="42.91896" lon="0.58834">
        <ele>1510</ele>
        <time>2019-02-03T13:16:00.000Z</time>
      </trkpt>
      <trkpt lat="42.91896" lon="0.58834">
        <ele>1510</ele>
        <time>2019-02-03T13:16:01.000Z</time>
      </trkpt>
      <trkpt lat="42.91896" lon="0.58834">
        <ele>1510</ele>
        <time>2019-02-03T13:16:02.000Z</time>
      </trkpt>
      <trkpt lat="42.91896" lon="0.58834">
        <ele>1510</ele>
        <time>2019-02-03T13:16:03.000Z</time>
      </trkpt>
      <trkpt lat="42.91896" lon="0.58834">
        <ele>1510</ele>
        <time>2019-02-03T13:16:04.000Z</time>
      </trkpt>
      <trkpt lat="42.91896" lon="0.58834">
        <ele>1510</ele>
        <time>2019-02-03T13:16:05.000Z</time>
      </trkpt>
      <trkpt lat="42.91896" lon="0.58834">
        <ele>1510</ele>
        <time>2019-02-03T13:16:06.000Z</time>
      </trkpt>
      <trkpt lat="42.91896" lon="0.58834">
        <ele>1510</ele>
        <time>2019-02-03T13:16:07.000Z</time>
      </trkpt>
      <trkpt lat="42.91896" lon="0.58834">
        <ele>1510</ele>
        <time>2019-02-03T13:16:08.000Z</time>
      </trkpt>
      <trkpt lat="42.91896" lon="0.58834">
        <ele>1510</ele>
        <time>2019-02-03T13:16:09.000Z</time>
      </trkpt>
      <trkpt lat="42.91896" lon="0.58834">
        <ele>1510</ele>
        <time>2019-02-03T13:16:10.000Z</time>
      </trkpt>
      <trkpt lat="42.91896" lon="0.58834">
        <ele>1510</ele>
        <time>2019-02-03T13:16:11.000Z</time>
      </trkpt>
      <trkpt lat="42.91896" lon="0.58834">
        <ele>1510</ele>
        <time>2019-02-03T13:16:12.000Z</time>
      </trkpt>
      <trkpt lat="42.91896" lon="0.58834">
        <ele>1510</ele>
        <time>2019-02-03T13:16:13.000Z</time>
      </trkpt>
      <trkpt lat="42.91896" lon="0.58834">
        <ele>1510</ele>
        <time>2019-02-03T13:16:14.000Z</time>
      </trkpt>
      <trkpt lat="42.91896" lon="0.58834">
        <ele>1510</ele>
        <time>2019-02-03T13:16:15.000Z</time>
      </trkpt>
      <trkpt lat="42.91896" lon="0.58834">
        <ele>1510</ele>
        <time>2019-02-03T13:16:16.000Z</time>
      </trkpt>
      <trkpt lat="42.91896" lon="0.58834">
        <ele>1510</ele>
        <time>2019-02-03T13:16:17.000Z</time>
      </trkpt>
      <trkpt lat="42.91896" lon="0.58834">
        <ele>1510</ele>
        <time>2019-02-03T13:16:18.000Z</time>
      </trkpt>
      <trkpt lat="42.91897" lon="0.58834">
        <ele>1510</ele>
        <time>2019-02-03T13:16:19.000Z</time>
      </trkpt>
      <trkpt lat="42.91897" lon="0.58834">
        <ele>1510</ele>
        <time>2019-02-03T13:16:20.000Z</time>
      </trkpt>
      <trkpt lat="42.91897" lon="0.58834">
        <ele>1510</ele>
        <time>2019-02-03T13:16:21.000Z</time>
      </trkpt>
      <trkpt lat="42.91897" lon="0.58834">
        <ele>1510</ele>
        <time>2019-02-03T13:16:22.000Z</time>
      </trkpt>
      <trkpt lat="42.91897" lon="0.58834">
        <ele>1510</ele>
        <time>2019-02-03T13:16:23.000Z</time>
      </trkpt>
      <trkpt lat="42.91897" lon="0.58834">
        <ele>1510</ele>
        <time>2019-02-03T13:16:24.000Z</time>
      </trkpt>
      <trkpt lat="42.91897" lon="0.58834">
        <ele>1510</ele>
        <time>2019-02-03T13:16:25.000Z</time>
      </trkpt>
      <trkpt lat="42.91897" lon="0.58834">
        <ele>1510</ele>
        <time>2019-02-03T13:16:26.000Z</time>
      </trkpt>
      <trkpt lat="42.91897" lon="0.58834">
        <ele>1510</ele>
        <time>2019-02-03T13:16:27.000Z</time>
      </trkpt>
      <trkpt lat="42.91897" lon="0.58834">
        <ele>1510</ele>
        <time>2019-02-03T13:16:28.000Z</time>
      </trkpt>
      <trkpt lat="42.91897" lon="0.58834">
        <ele>1510</ele>
        <time>2019-02-03T13:16:29.000Z</time>
      </trkpt>
      <trkpt lat="42.91897" lon="0.58834">
        <ele>1510</ele>
        <time>2019-02-03T13:16:30.000Z</time>
      </trkpt>
      <trkpt lat="42.91897" lon="0.58834">
        <ele>1510</ele>
        <time>2019-02-03T13:16:31.000Z</time>
      </trkpt>
      <trkpt lat="42.91897" lon="0.58834">
        <ele>1510</ele>
        <time>2019-02-03T13:16:32.000Z</time>
      </trkpt>
      <trkpt lat="42.91897" lon="0.58834">
        <ele>1510</ele>
        <time>2019-02-03T13:16:33.000Z</time>
      </trkpt>
      <trkpt lat="42.91897" lon="0.58834">
        <ele>1510</ele>
        <time>2019-02-03T13:16:34.000Z</time>
      </trkpt>
      <trkpt lat="42.91897" lon="0.58834">
        <ele>1510</ele>
        <time>2019-02-03T13:16:35.000Z</time>
      </trkpt>
      <trkpt lat="42.91897" lon="0.58834">
        <ele>1510</ele>
        <time>2019-02-03T13:16:36.000Z</time>
      </trkpt>
      <trkpt lat="42.91897" lon="0.58834">
        <ele>1510</ele>
        <time>2019-02-03T13:16:37.000Z</time>
      </trkpt>
      <trkpt lat="42.91897" lon="0.58834">
        <ele>1510</ele>
        <time>2019-02-03T13:16:38.000Z</time>
      </trkpt>
      <trkpt lat="42.91897" lon="0.58834">
        <ele>1510</ele>
        <time>2019-02-03T13:16:39.000Z</time>
      </trkpt>
      <trkpt lat="42.91897" lon="0.58834">
        <ele>1510</ele>
        <time>2019-02-03T13:16:40.000Z</time>
      </trkpt>
      <trkpt lat="42.91897" lon="0.58834">
        <ele>1510</ele>
        <time>2019-02-03T13:16:41.000Z</time>
      </trkpt>
      <trkpt lat="42.91897" lon="0.58834">
        <ele>1510</ele>
        <time>2019-02-03T13:16:42.000Z</time>
      </trkpt>
      <trkpt lat="42.91897" lon="0.58834">
        <ele>1510</ele>
        <time>2019-02-03T13:16:43.000Z</time>
      </trkpt>
      <trkpt lat="42.91897" lon="0.58834">
        <ele>1510</ele>
        <time>2019-02-03T13:16:44.000Z</time>
      </trkpt>
      <trkpt lat="42.91897" lon="0.58834">
        <ele>1510</ele>
        <time>2019-02-03T13:16:45.000Z</time>
      </trkpt>
      <trkpt lat="42.91897" lon="0.58834">
        <ele>1510</ele>
        <time>2019-02-03T13:16:46.000Z</time>
      </trkpt>
      <trkpt lat="42.91897" lon="0.58835">
        <ele>1510</ele>
        <time>2019-02-03T13:16:47.000Z</time>
      </trkpt>
      <trkpt lat="42.91897" lon="0.58835">
        <ele>1510</ele>
        <time>2019-02-03T13:16:48.000Z</time>
      </trkpt>
      <trkpt lat="42.91897" lon="0.58835">
        <ele>1510</ele>
        <time>2019-02-03T13:16:49.000Z</time>
      </trkpt>
      <trkpt lat="42.91897" lon="0.58835">
        <ele>1510</ele>
        <time>2019-02-03T13:16:50.000Z</time>
      </trkpt>
      <trkpt lat="42.91897" lon="0.58835">
        <ele>1510</ele>
        <time>2019-02-03T13:16:51.000Z</time>
      </trkpt>
      <trkpt lat="42.91897" lon="0.58835">
        <ele>1510</ele>
        <time>2019-02-03T13:16:52.000Z</time>
      </trkpt>
      <trkpt lat="42.91897" lon="0.58835">
        <ele>1510</ele>
        <time>2019-02-03T13:16:53.000Z</time>
      </trkpt>
      <trkpt lat="42.91897" lon="0.58835">
        <ele>1510</ele>
        <time>2019-02-03T13:16:54.000Z</time>
      </trkpt>
      <trkpt lat="42.91897" lon="0.58835">
        <ele>1510</ele>
        <time>2019-02-03T13:16:55.000Z</time>
      </trkpt>
      <trkpt lat="42.91897" lon="0.58835">
        <ele>1510</ele>
        <time>2019-02-03T13:16:56.000Z</time>
      </trkpt>
      <trkpt lat="42.91897" lon="0.58835">
        <ele>1510</ele>
        <time>2019-02-03T13:16:57.000Z</time>
      </trkpt>
      <trkpt lat="42.91897" lon="0.58835">
        <ele>1510</ele>
        <time>2019-02-03T13:16:58.000Z</time>
      </trkpt>
      <trkpt lat="42.91897" lon="0.58835">
        <ele>1510</ele>
        <time>2019-02-03T13:16:59.000Z</time>
      </trkpt>
      <trkpt lat="42.91897" lon="0.58835">
        <ele>1510</ele>
        <time>2019-02-03T13:17:00.000Z</time>
      </trkpt>
      <trkpt lat="42.91897" lon="0.58835">
        <ele>1510</ele>
        <time>2019-02-03T13:17:01.000Z</time>
      </trkpt>
      <trkpt lat="42.91897" lon="0.58835">
        <ele>1510</ele>
        <time>2019-02-03T13:17:02.000Z</time>
      </trkpt>
      <trkpt lat="42.91897" lon="0.58835">
        <ele>1510</ele>
        <time>2019-02-03T13:17:03.000Z</time>
      </trkpt>
      <trkpt lat="42.91897" lon="0.58834">
        <ele>1510</ele>
        <time>2019-02-03T13:17:04.000Z</time>
      </trkpt>
      <trkpt lat="42.91897" lon="0.58834">
        <ele>1510</ele>
        <time>2019-02-03T13:17:05.000Z</time>
      </trkpt>
      <trkpt lat="42.91897" lon="0.58834">
        <ele>1510</ele>
        <time>2019-02-03T13:17:06.000Z</time>
      </trkpt>
      <trkpt lat="42.91897" lon="0.58834">
        <ele>1510</ele>
        <time>2019-02-03T13:17:07.000Z</time>
      </trkpt>
      <trkpt lat="42.91897" lon="0.58834">
        <ele>1510</ele>
        <time>2019-02-03T13:17:08.000Z</time>
      </trkpt>
      <trkpt lat="42.91897" lon="0.58834">
        <ele>1510</ele>
        <time>2019-02-03T13:17:09.000Z</time>
      </trkpt>
      <trkpt lat="42.91896" lon="0.58834">
        <ele>1510</ele>
        <time>2019-02-03T13:17:10.000Z</time>
      </trkpt>
      <trkpt lat="42.91896" lon="0.58834">
        <ele>1510</ele>
        <time>2019-02-03T13:17:11.000Z</time>
      </trkpt>
      <trkpt lat="42.91896" lon="0.58834">
        <ele>1510</ele>
        <time>2019-02-03T13:17:12.000Z</time>
      </trkpt>
      <trkpt lat="42.91896" lon="0.58834">
        <ele>1509.5</ele>
        <time>2019-02-03T13:17:13.000Z</time>
      </trkpt>
      <trkpt lat="42.91896" lon="0.58834">
        <ele>1509</ele>
        <time>2019-02-03T13:17:14.000Z</time>
      </trkpt>
      <trkpt lat="42.91897" lon="0.58834">
        <ele>1509.5</ele>
        <time>2019-02-03T13:17:15.000Z</time>
      </trkpt>
      <trkpt lat="42.91897" lon="0.58834">
        <ele>1510</ele>
        <time>2019-02-03T13:17:16.000Z</time>
      </trkpt>
      <trkpt lat="42.91897" lon="0.58834">
        <ele>1510</ele>
        <time>2019-02-03T13:17:17.000Z</time>
      </trkpt>
      <trkpt lat="42.91897" lon="0.58834">
        <ele>1510</ele>
        <time>2019-02-03T13:17:18.000Z</time>
      </trkpt>
      <trkpt lat="42.91897" lon="0.58834">
        <ele>1510</ele>
        <time>2019-02-03T13:17:19.000Z</time>
      </trkpt>
      <trkpt lat="42.91897" lon="0.58834">
        <ele>1510</ele>
        <time>2019-02-03T13:17:20.000Z</time>
      </trkpt>
      <trkpt lat="42.91897" lon="0.58834">
        <ele>1510</ele>
        <time>2019-02-03T13:17:21.000Z</time>
      </trkpt>
      <trkpt lat="42.91897" lon="0.58834">
        <ele>1510</ele>
        <time>2019-02-03T13:17:22.000Z</time>
      </trkpt>
      <trkpt lat="42.91897" lon="0.58834">
        <ele>1510</ele>
        <time>2019-02-03T13:17:23.000Z</time>
      </trkpt>
      <trkpt lat="42.91898" lon="0.58834">
        <ele>1510</ele>
        <time>2019-02-03T13:17:24.000Z</time>
      </trkpt>
      <trkpt lat="42.91898" lon="0.58834">
        <ele>1510</ele>
        <time>2019-02-03T13:17:25.000Z</time>
      </trkpt>
      <trkpt lat="42.91898" lon="0.58834">
        <ele>1510</ele>
        <time>2019-02-03T13:17:26.000Z</time>
      </trkpt>
      <trkpt lat="42.91898" lon="0.58835">
        <ele>1510</ele>
        <time>2019-02-03T13:17:27.000Z</time>
      </trkpt>
      <trkpt lat="42.91899" lon="0.58835">
        <ele>1510</ele>
        <time>2019-02-03T13:17:28.000Z</time>
      </trkpt>
      <trkpt lat="42.91899" lon="0.58835">
        <ele>1510</ele>
        <time>2019-02-03T13:17:29.000Z</time>
      </trkpt>
      <trkpt lat="42.91899" lon="0.58835">
        <ele>1510</ele>
        <time>2019-02-03T13:17:30.000Z</time>
      </trkpt>
      <trkpt lat="42.91899" lon="0.58835">
        <ele>1510</ele>
        <time>2019-02-03T13:17:31.000Z</time>
      </trkpt>
      <trkpt lat="42.91899" lon="0.58835">
        <ele>1509.7</ele>
        <time>2019-02-03T13:17:32.000Z</time>
      </trkpt>
      <trkpt lat="42.91899" lon="0.58835">
        <ele>1509.3</ele>
        <time>2019-02-03T13:17:33.000Z</time>
      </trkpt>
      <trkpt lat="42.91899" lon="0.58835">
        <ele>1509</ele>
        <time>2019-02-03T13:17:34.000Z</time>
      </trkpt>
      <trkpt lat="42.91899" lon="0.58835">
        <ele>1509</ele>
        <time>2019-02-03T13:17:35.000Z</time>
      </trkpt>
      <trkpt lat="42.91899" lon="0.58835">
        <ele>1509</ele>
        <time>2019-02-03T13:17:36.000Z</time>
      </trkpt>
      <trkpt lat="42.91899" lon="0.58835">
        <ele>1509</ele>
        <time>2019-02-03T13:17:37.000Z</time>
      </trkpt>
      <trkpt lat="42.91899" lon="0.58835">
        <ele>1509</ele>
        <time>2019-02-03T13:17:38.000Z</time>
      </trkpt>
      <trkpt lat="42.91899" lon="0.58835">
        <ele>1509</ele>
        <time>2019-02-03T13:17:39.000Z</time>
      </trkpt>
      <trkpt lat="42.91899" lon="0.58835">
        <ele>1509</ele>
        <time>2019-02-03T13:17:40.000Z</time>
      </trkpt>
      <trkpt lat="42.91899" lon="0.58835">
        <ele>1509</ele>
        <time>2019-02-03T13:17:41.000Z</time>
      </trkpt>
      <trkpt lat="42.91899" lon="0.58835">
        <ele>1509</ele>
        <time>2019-02-03T13:17:42.000Z</time>
      </trkpt>
      <trkpt lat="42.91899" lon="0.58835">
        <ele>1509</ele>
        <time>2019-02-03T13:17:43.000Z</time>
      </trkpt>
      <trkpt lat="42.91899" lon="0.58835">
        <ele>1509</ele>
        <time>2019-02-03T13:17:44.000Z</time>
      </trkpt>
      <trkpt lat="42.91899" lon="0.58835">
        <ele>1509</ele>
        <time>2019-02-03T13:17:45.000Z</time>
      </trkpt>
      <trkpt lat="42.91899" lon="0.58835">
        <ele>1509</ele>
        <time>2019-02-03T13:17:46.000Z</time>
      </trkpt>
      <trkpt lat="42.91899" lon="0.58835">
        <ele>1509.5</ele>
        <time>2019-02-03T13:17:47.000Z</time>
      </trkpt>
      <trkpt lat="42.91899" lon="0.58835">
        <ele>1510</ele>
        <time>2019-02-03T13:17:48.000Z</time>
      </trkpt>
      <trkpt lat="42.91899" lon="0.58835">
        <ele>1510</ele>
        <time>2019-02-03T13:17:49.000Z</time>
      </trkpt>
      <trkpt lat="42.91899" lon="0.58835">
        <ele>1510</ele>
        <time>2019-02-03T13:17:50.000Z</time>
      </trkpt>
      <trkpt lat="42.91899" lon="0.58835">
        <ele>1509</ele>
        <time>2019-02-03T13:17:51.000Z</time>
      </trkpt>
      <trkpt lat="42.91899" lon="0.58835">
        <ele>1509</ele>
        <time>2019-02-03T13:17:52.000Z</time>
      </trkpt>
      <trkpt lat="42.91899" lon="0.58835">
        <ele>1509</ele>
        <time>2019-02-03T13:17:53.000Z</time>
      </trkpt>
      <trkpt lat="42.91899" lon="0.58835">
        <ele>1509</ele>
        <time>2019-02-03T13:17:54.000Z</time>
      </trkpt>
      <trkpt lat="42.91899" lon="0.58835">
        <ele>1509</ele>
        <time>2019-02-03T13:17:55.000Z</time>
      </trkpt>
      <trkpt lat="42.91899" lon="0.58835">
        <ele>1509</ele>
        <time>2019-02-03T13:17:56.000Z</time>
      </trkpt>
      <trkpt lat="42.91899" lon="0.58835">
        <ele>1509</ele>
        <time>2019-02-03T13:17:57.000Z</time>
      </trkpt>
      <trkpt lat="42.91899" lon="0.58835">
        <ele>1509</ele>
        <time>2019-02-03T13:17:58.000Z</time>
      </trkpt>
      <trkpt lat="42.91899" lon="0.58835">
        <ele>1509</ele>
        <time>2019-02-03T13:17:59.000Z</time>
      </trkpt>
      <trkpt lat="42.91898" lon="0.58834">
        <ele>1509</ele>
        <time>2019-02-03T13:18:00.000Z</time>
      </trkpt>
      <trkpt lat="42.91898" lon="0.58834">
        <ele>1509</ele>
        <time>2019-02-03T13:18:01.000Z</time>
      </trkpt>
      <trkpt lat="42.91897" lon="0.58833">
        <ele>1509</ele>
        <time>2019-02-03T13:18:02.000Z</time>
      </trkpt>
      <trkpt lat="42.91896" lon="0.58833">
        <ele>1509</ele>
        <time>2019-02-03T13:18:03.000Z</time>
      </trkpt>
      <trkpt lat="42.91896" lon="0.58833">
        <ele>1509</ele>
        <time>2019-02-03T13:18:04.000Z</time>
      </trkpt>
      <trkpt lat="42.91896" lon="0.58833">
        <ele>1509</ele>
        <time>2019-02-03T13:18:05.000Z</time>
      </trkpt>
      <trkpt lat="42.91896" lon="0.58833">
        <ele>1509</ele>
        <time>2019-02-03T13:18:06.000Z</time>
      </trkpt>
      <trkpt lat="42.91896" lon="0.58833">
        <ele>1509.5</ele>
        <time>2019-02-03T13:18:07.000Z</time>
      </trkpt>
      <trkpt lat="42.91896" lon="0.58833">
        <ele>1510</ele>
        <time>2019-02-03T13:18:08.000Z</time>
      </trkpt>
      <trkpt lat="42.91896" lon="0.58833">
        <ele>1510</ele>
        <time>2019-02-03T13:18:09.000Z</time>
      </trkpt>
      <trkpt lat="42.91896" lon="0.58833">
        <ele>1510</ele>
        <time>2019-02-03T13:18:10.000Z</time>
      </trkpt>
      <trkpt lat="42.91896" lon="0.58833">
        <ele>1510</ele>
        <time>2019-02-03T13:18:11.000Z</time>
      </trkpt>
      <trkpt lat="42.91896" lon="0.58833">
        <ele>1509.7</ele>
        <time>2019-02-03T13:18:12.000Z</time>
      </trkpt>
      <trkpt lat="42.91897" lon="0.58833">
        <ele>1509.3</ele>
        <time>2019-02-03T13:18:13.000Z</time>
      </trkpt>
      <trkpt lat="42.91897" lon="0.58833">
        <ele>1509</ele>
        <time>2019-02-03T13:18:14.000Z</time>
      </trkpt>
      <trkpt lat="42.91897" lon="0.58833">
        <ele>1509.5</ele>
        <time>2019-02-03T13:18:15.000Z</time>
      </trkpt>
      <trkpt lat="42.91897" lon="0.58834">
        <ele>1510</ele>
        <time>2019-02-03T13:18:16.000Z</time>
      </trkpt>
      <trkpt lat="42.91897" lon="0.58834">
        <ele>1510</ele>
        <time>2019-02-03T13:18:17.000Z</time>
      </trkpt>
      <trkpt lat="42.91897" lon="0.58834">
        <ele>1510</ele>
        <time>2019-02-03T13:18:18.000Z</time>
      </trkpt>
      <trkpt lat="42.91897" lon="0.58834">
        <ele>1510</ele>
        <time>2019-02-03T13:18:19.000Z</time>
      </trkpt>
      <trkpt lat="42.91897" lon="0.58834">
        <ele>1510</ele>
        <time>2019-02-03T13:18:20.000Z</time>
      </trkpt>
      <trkpt lat="42.91898" lon="0.58835">
        <ele>1510</ele>
        <time>2019-02-03T13:18:21.000Z</time>
      </trkpt>
      <trkpt lat="42.91898" lon="0.58835">
        <ele>1510</ele>
        <time>2019-02-03T13:18:22.000Z</time>
      </trkpt>
      <trkpt lat="42.91898" lon="0.58835">
        <ele>1510</ele>
        <time>2019-02-03T13:18:23.000Z</time>
      </trkpt>
      <trkpt lat="42.91898" lon="0.58835">
        <ele>1510</ele>
        <time>2019-02-03T13:18:24.000Z</time>
      </trkpt>
      <trkpt lat="42.91898" lon="0.58835">
        <ele>1510</ele>
        <time>2019-02-03T13:18:25.000Z</time>
      </trkpt>
      <trkpt lat="42.91898" lon="0.58835">
        <ele>1510</ele>
        <time>2019-02-03T13:18:26.000Z</time>
      </trkpt>
      <trkpt lat="42.91898" lon="0.58835">
        <ele>1510</ele>
        <time>2019-02-03T13:18:27.000Z</time>
      </trkpt>
      <trkpt lat="42.91898" lon="0.58836">
        <ele>1510</ele>
        <time>2019-02-03T13:18:28.000Z</time>
      </trkpt>
      <trkpt lat="42.91898" lon="0.58836">
        <ele>1510</ele>
        <time>2019-02-03T13:18:29.000Z</time>
      </trkpt>
      <trkpt lat="42.91898" lon="0.58836">
        <ele>1510</ele>
        <time>2019-02-03T13:18:30.000Z</time>
      </trkpt>
      <trkpt lat="42.91898" lon="0.58836">
        <ele>1509.5</ele>
        <time>2019-02-03T13:18:31.000Z</time>
      </trkpt>
      <trkpt lat="42.91898" lon="0.58836">
        <ele>1509</ele>
        <time>2019-02-03T13:18:32.000Z</time>
      </trkpt>
      <trkpt lat="42.91898" lon="0.58836">
        <ele>1509</ele>
        <time>2019-02-03T13:18:33.000Z</time>
      </trkpt>
      <trkpt lat="42.91898" lon="0.58836">
        <ele>1509</ele>
        <time>2019-02-03T13:18:34.000Z</time>
      </trkpt>
      <trkpt lat="42.91898" lon="0.58836">
        <ele>1509.5</ele>
        <time>2019-02-03T13:18:35.000Z</time>
      </trkpt>
      <trkpt lat="42.91898" lon="0.58836">
        <ele>1510</ele>
        <time>2019-02-03T13:18:36.000Z</time>
      </trkpt>
      <trkpt lat="42.91898" lon="0.58836">
        <ele>1510</ele>
        <time>2019-02-03T13:18:37.000Z</time>
      </trkpt>
      <trkpt lat="42.91898" lon="0.58836">
        <ele>1510</ele>
        <time>2019-02-03T13:18:38.000Z</time>
      </trkpt>
      <trkpt lat="42.91898" lon="0.58836">
        <ele>1510</ele>
        <time>2019-02-03T13:18:39.000Z</time>
      </trkpt>
      <trkpt lat="42.91898" lon="0.58836">
        <ele>1510</ele>
        <time>2019-02-03T13:18:40.000Z</time>
      </trkpt>
      <trkpt lat="42.91898" lon="0.58836">
        <ele>1510</ele>
        <time>2019-02-03T13:18:41.000Z</time>
      </trkpt>
      <trkpt lat="42.91898" lon="0.58836">
        <ele>1510</ele>
        <time>2019-02-03T13:18:42.000Z</time>
      </trkpt>
      <trkpt lat="42.91898" lon="0.58836">
        <ele>1510</ele>
        <time>2019-02-03T13:18:43.000Z</time>
      </trkpt>
      <trkpt lat="42.91898" lon="0.58836">
        <ele>1510</ele>
        <time>2019-02-03T13:18:44.000Z</time>
      </trkpt>
      <trkpt lat="42.91898" lon="0.58836">
        <ele>1510</ele>
        <time>2019-02-03T13:18:45.000Z</time>
      </trkpt>
      <trkpt lat="42.91898" lon="0.58836">
        <ele>1510</ele>
        <time>2019-02-03T13:18:46.000Z</time>
      </trkpt>
      <trkpt lat="42.91898" lon="0.58836">
        <ele>1510</ele>
        <time>2019-02-03T13:18:47.000Z</time>
      </trkpt>
      <trkpt lat="42.91898" lon="0.58836">
        <ele>1510</ele>
        <time>2019-02-03T13:18:48.000Z</time>
      </trkpt>
      <trkpt lat="42.91898" lon="0.58836">
        <ele>1510</ele>
        <time>2019-02-03T13:18:49.000Z</time>
      </trkpt>
      <trkpt lat="42.91898" lon="0.58836">
        <ele>1510</ele>
        <time>2019-02-03T13:18:50.000Z</time>
      </trkpt>
      <trkpt lat="42.91898" lon="0.58836">
        <ele>1510</ele>
        <time>2019-02-03T13:18:51.000Z</time>
      </trkpt>
      <trkpt lat="42.91898" lon="0.58836">
        <ele>1510</ele>
        <time>2019-02-03T13:18:52.000Z</time>
      </trkpt>
      <trkpt lat="42.91898" lon="0.58836">
        <ele>1510</ele>
        <time>2019-02-03T13:18:53.000Z</time>
      </trkpt>
      <trkpt lat="42.91898" lon="0.58836">
        <ele>1510</ele>
        <time>2019-02-03T13:18:54.000Z</time>
      </trkpt>
      <trkpt lat="42.91898" lon="0.58836">
        <ele>1510</ele>
        <time>2019-02-03T13:18:55.000Z</time>
      </trkpt>
      <trkpt lat="42.91898" lon="0.58836">
        <ele>1510</ele>
        <time>2019-02-03T13:18:56.000Z</time>
      </trkpt>
      <trkpt lat="42.91898" lon="0.58836">
        <ele>1510</ele>
        <time>2019-02-03T13:18:57.000Z</time>
      </trkpt>
      <trkpt lat="42.91898" lon="0.58836">
        <ele>1510</ele>
        <time>2019-02-03T13:18:58.000Z</time>
      </trkpt>
      <trkpt lat="42.91898" lon="0.58836">
        <ele>1510</ele>
        <time>2019-02-03T13:18:59.000Z</time>
      </trkpt>
      <trkpt lat="42.91898" lon="0.58836">
        <ele>1510</ele>
        <time>2019-02-03T13:19:00.000Z</time>
      </trkpt>
      <trkpt lat="42.91898" lon="0.58836">
        <ele>1509.5</ele>
        <time>2019-02-03T13:19:01.000Z</time>
      </trkpt>
      <trkpt lat="42.91898" lon="0.58835">
        <ele>1509</ele>
        <time>2019-02-03T13:19:02.000Z</time>
      </trkpt>
      <trkpt lat="42.91897" lon="0.58835">
        <ele>1509</ele>
        <time>2019-02-03T13:19:03.000Z</time>
      </trkpt>
      <trkpt lat="42.91897" lon="0.58835">
        <ele>1509</ele>
        <time>2019-02-03T13:19:04.000Z</time>
      </trkpt>
      <trkpt lat="42.91897" lon="0.58835">
        <ele>1509</ele>
        <time>2019-02-03T13:19:05.000Z</time>
      </trkpt>
      <trkpt lat="42.91897" lon="0.58835">
        <ele>1509</ele>
        <time>2019-02-03T13:19:06.000Z</time>
      </trkpt>
      <trkpt lat="42.91897" lon="0.58835">
        <ele>1509</ele>
        <time>2019-02-03T13:19:07.000Z</time>
      </trkpt>
      <trkpt lat="42.91897" lon="0.58835">
        <ele>1509</ele>
        <time>2019-02-03T13:19:08.000Z</time>
      </trkpt>
      <trkpt lat="42.91897" lon="0.58835">
        <ele>1509</ele>
        <time>2019-02-03T13:19:09.000Z</time>
      </trkpt>
      <trkpt lat="42.91897" lon="0.58835">
        <ele>1509</ele>
        <time>2019-02-03T13:19:10.000Z</time>
      </trkpt>
      <trkpt lat="42.91897" lon="0.58835">
        <ele>1509</ele>
        <time>2019-02-03T13:19:11.000Z</time>
      </trkpt>
      <trkpt lat="42.91897" lon="0.58835">
        <ele>1509</ele>
        <time>2019-02-03T13:19:12.000Z</time>
      </trkpt>
      <trkpt lat="42.91897" lon="0.58835">
        <ele>1509</ele>
        <time>2019-02-03T13:19:13.000Z</time>
      </trkpt>
      <trkpt lat="42.91897" lon="0.58835">
        <ele>1509.3</ele>
        <time>2019-02-03T13:19:14.000Z</time>
      </trkpt>
      <trkpt lat="42.91897" lon="0.58835">
        <ele>1509.7</ele>
        <time>2019-02-03T13:19:15.000Z</time>
      </trkpt>
      <trkpt lat="42.91896" lon="0.58835">
        <ele>1510</ele>
        <time>2019-02-03T13:19:16.000Z</time>
      </trkpt>
      <trkpt lat="42.91896" lon="0.58835">
        <ele>1510</ele>
        <time>2019-02-03T13:19:17.000Z</time>
      </trkpt>
      <trkpt lat="42.91896" lon="0.58835">
        <ele>1510</ele>
        <time>2019-02-03T13:19:18.000Z</time>
      </trkpt>
      <trkpt lat="42.91896" lon="0.58835">
        <ele>1510</ele>
        <time>2019-02-03T13:19:19.000Z</time>
      </trkpt>
      <trkpt lat="42.91896" lon="0.58835">
        <ele>1510</ele>
        <time>2019-02-03T13:19:20.000Z</time>
      </trkpt>
      <trkpt lat="42.91896" lon="0.58835">
        <ele>1510</ele>
        <time>2019-02-03T13:19:21.000Z</time>
      </trkpt>
      <trkpt lat="42.91896" lon="0.58835">
        <ele>1510</ele>
        <time>2019-02-03T13:19:22.000Z</time>
      </trkpt>
      <trkpt lat="42.91895" lon="0.58835">
        <ele>1510</ele>
        <time>2019-02-03T13:19:23.000Z</time>
      </trkpt>
      <trkpt lat="42.91895" lon="0.58835">
        <ele>1510</ele>
        <time>2019-02-03T13:19:24.000Z</time>
      </trkpt>
      <trkpt lat="42.91895" lon="0.58835">
        <ele>1510</ele>
        <time>2019-02-03T13:19:25.000Z</time>
      </trkpt>
      <trkpt lat="42.91895" lon="0.58835">
        <ele>1510</ele>
        <time>2019-02-03T13:19:26.000Z</time>
      </trkpt>
      <trkpt lat="42.91895" lon="0.58835">
        <ele>1510</ele>
        <time>2019-02-03T13:19:27.000Z</time>
      </trkpt>
      <trkpt lat="42.91895" lon="0.58835">
        <ele>1510</ele>
        <time>2019-02-03T13:19:28.000Z</time>
      </trkpt>
      <trkpt lat="42.91895" lon="0.58835">
        <ele>1510</ele>
        <time>2019-02-03T13:19:29.000Z</time>
      </trkpt>
      <trkpt lat="42.91895" lon="0.58835">
        <ele>1510</ele>
        <time>2019-02-03T13:19:30.000Z</time>
      </trkpt>
      <trkpt lat="42.91895" lon="0.58835">
        <ele>1510</ele>
        <time>2019-02-03T13:19:31.000Z</time>
      </trkpt>
      <trkpt lat="42.91895" lon="0.58835">
        <ele>1510</ele>
        <time>2019-02-03T13:19:32.000Z</time>
      </trkpt>
      <trkpt lat="42.91895" lon="0.58835">
        <ele>1510</ele>
        <time>2019-02-03T13:19:33.000Z</time>
      </trkpt>
      <trkpt lat="42.91895" lon="0.58835">
        <ele>1510</ele>
        <time>2019-02-03T13:19:34.000Z</time>
      </trkpt>
      <trkpt lat="42.91895" lon="0.58835">
        <ele>1510</ele>
        <time>2019-02-03T13:19:35.000Z</time>
      </trkpt>
      <trkpt lat="42.91895" lon="0.58835">
        <ele>1510</ele>
        <time>2019-02-03T13:19:36.000Z</time>
      </trkpt>
      <trkpt lat="42.91895" lon="0.58835">
        <ele>1510</ele>
        <time>2019-02-03T13:19:37.000Z</time>
      </trkpt>
      <trkpt lat="42.91895" lon="0.58835">
        <ele>1510</ele>
        <time>2019-02-03T13:19:38.000Z</time>
      </trkpt>
      <trkpt lat="42.91895" lon="0.58835">
        <ele>1510</ele>
        <time>2019-02-03T13:19:39.000Z</time>
      </trkpt>
      <trkpt lat="42.91895" lon="0.58835">
        <ele>1510</ele>
        <time>2019-02-03T13:19:40.000Z</time>
      </trkpt>
      <trkpt lat="42.91895" lon="0.58835">
        <ele>1510</ele>
        <time>2019-02-03T13:19:41.000Z</time>
      </trkpt>
      <trkpt lat="42.91895" lon="0.58835">
        <ele>1510</ele>
        <time>2019-02-03T13:19:42.000Z</time>
      </trkpt>
      <trkpt lat="42.91895" lon="0.58835">
        <ele>1510</ele>
        <time>2019-02-03T13:19:43.000Z</time>
      </trkpt>
      <trkpt lat="42.91895" lon="0.58835">
        <ele>1510</ele>
        <time>2019-02-03T13:19:44.000Z</time>
      </trkpt>
      <trkpt lat="42.91895" lon="0.58835">
        <ele>1510</ele>
        <time>2019-02-03T13:19:45.000Z</time>
      </trkpt>
      <trkpt lat="42.91895" lon="0.58835">
        <ele>1510</ele>
        <time>2019-02-03T13:19:46.000Z</time>
      </trkpt>
      <trkpt lat="42.91895" lon="0.58835">
        <ele>1510</ele>
        <time>2019-02-03T13:19:47.000Z</time>
      </trkpt>
      <trkpt lat="42.91895" lon="0.58835">
        <ele>1510</ele>
        <time>2019-02-03T13:19:48.000Z</time>
      </trkpt>
      <trkpt lat="42.91895" lon="0.58835">
        <ele>1510</ele>
        <time>2019-02-03T13:19:49.000Z</time>
      </trkpt>
      <trkpt lat="42.91895" lon="0.58835">
        <ele>1510</ele>
        <time>2019-02-03T13:19:50.000Z</time>
      </trkpt>
      <trkpt lat="42.91895" lon="0.58835">
        <ele>1510</ele>
        <time>2019-02-03T13:19:51.000Z</time>
      </trkpt>
      <trkpt lat="42.91895" lon="0.58835">
        <ele>1510</ele>
        <time>2019-02-03T13:19:52.000Z</time>
      </trkpt>
      <trkpt lat="42.91895" lon="0.58835">
        <ele>1510</ele>
        <time>2019-02-03T13:19:53.000Z</time>
      </trkpt>
      <trkpt lat="42.91895" lon="0.58835">
        <ele>1510</ele>
        <time>2019-02-03T13:19:54.000Z</time>
      </trkpt>
      <trkpt lat="42.91895" lon="0.58835">
        <ele>1510</ele>
        <time>2019-02-03T13:19:55.000Z</time>
      </trkpt>
      <trkpt lat="42.91895" lon="0.58835">
        <ele>1510</ele>
        <time>2019-02-03T13:19:56.000Z</time>
      </trkpt>
      <trkpt lat="42.91896" lon="0.58835">
        <ele>1510</ele>
        <time>2019-02-03T13:19:57.000Z</time>
      </trkpt>
      <trkpt lat="42.91896" lon="0.58835">
        <ele>1510</ele>
        <time>2019-02-03T13:19:58.000Z</time>
      </trkpt>
      <trkpt lat="42.91896" lon="0.58835">
        <ele>1510</ele>
        <time>2019-02-03T13:19:59.000Z</time>
      </trkpt>
      <trkpt lat="42.91896" lon="0.58835">
        <ele>1510</ele>
        <time>2019-02-03T13:20:00.000Z</time>
      </trkpt>
      <trkpt lat="42.91896" lon="0.58835">
        <ele>1510</ele>
        <time>2019-02-03T13:20:01.000Z</time>
      </trkpt>
      <trkpt lat="42.91896" lon="0.58835">
        <ele>1510</ele>
        <time>2019-02-03T13:20:02.000Z</time>
      </trkpt>
      <trkpt lat="42.91896" lon="0.58835">
        <ele>1510</ele>
        <time>2019-02-03T13:20:03.000Z</time>
      </trkpt>
      <trkpt lat="42.91896" lon="0.58835">
        <ele>1510</ele>
        <time>2019-02-03T13:20:04.000Z</time>
      </trkpt>
      <trkpt lat="42.91896" lon="0.58835">
        <ele>1510</ele>
        <time>2019-02-03T13:20:05.000Z</time>
      </trkpt>
      <trkpt lat="42.91896" lon="0.58835">
        <ele>1510</ele>
        <time>2019-02-03T13:20:06.000Z</time>
      </trkpt>
      <trkpt lat="42.91896" lon="0.58835">
        <ele>1510</ele>
        <time>2019-02-03T13:20:07.000Z</time>
      </trkpt>
      <trkpt lat="42.91896" lon="0.58835">
        <ele>1510</ele>
        <time>2019-02-03T13:20:08.000Z</time>
      </trkpt>
      <trkpt lat="42.91896" lon="0.58835">
        <ele>1510</ele>
        <time>2019-02-03T13:20:09.000Z</time>
      </trkpt>
      <trkpt lat="42.91896" lon="0.58835">
        <ele>1510</ele>
        <time>2019-02-03T13:20:10.000Z</time>
      </trkpt>
      <trkpt lat="42.91896" lon="0.58835">
        <ele>1510</ele>
        <time>2019-02-03T13:20:11.000Z</time>
      </trkpt>
      <trkpt lat="42.91896" lon="0.58835">
        <ele>1510</ele>
        <time>2019-02-03T13:20:12.000Z</time>
      </trkpt>
      <trkpt lat="42.91896" lon="0.58835">
        <ele>1509.5</ele>
        <time>2019-02-03T13:20:13.000Z</time>
      </trkpt>
      <trkpt lat="42.91896" lon="0.58835">
        <ele>1509</ele>
        <time>2019-02-03T13:20:14.000Z</time>
      </trkpt>
      <trkpt lat="42.91896" lon="0.58835">
        <ele>1509.5</ele>
        <time>2019-02-03T13:20:15.000Z</time>
      </trkpt>
      <trkpt lat="42.91896" lon="0.58835">
        <ele>1510</ele>
        <time>2019-02-03T13:20:16.000Z</time>
      </trkpt>
      <trkpt lat="42.91896" lon="0.58836">
        <ele>1510</ele>
        <time>2019-02-03T13:20:17.000Z</time>
      </trkpt>
      <trkpt lat="42.91897" lon="0.58836">
        <ele>1510</ele>
        <time>2019-02-03T13:20:18.000Z</time>
      </trkpt>
      <trkpt lat="42.91897" lon="0.58836">
        <ele>1510</ele>
        <time>2019-02-03T13:20:19.000Z</time>
      </trkpt>
      <trkpt lat="42.91897" lon="0.58836">
        <ele>1510</ele>
        <time>2019-02-03T13:20:20.000Z</time>
      </trkpt>
      <trkpt lat="42.91897" lon="0.58837">
        <ele>1509</ele>
        <time>2019-02-03T13:20:21.000Z</time>
      </trkpt>
      <trkpt lat="42.91898" lon="0.58837">
        <ele>1509</ele>
        <time>2019-02-03T13:20:22.000Z</time>
      </trkpt>
      <trkpt lat="42.91898" lon="0.58837">
        <ele>1509</ele>
        <time>2019-02-03T13:20:23.000Z</time>
      </trkpt>
      <trkpt lat="42.91898" lon="0.58838">
        <ele>1509</ele>
        <time>2019-02-03T13:20:24.000Z</time>
      </trkpt>
      <trkpt lat="42.91899" lon="0.58838">
        <ele>1509</ele>
        <time>2019-02-03T13:20:25.000Z</time>
      </trkpt>
      <trkpt lat="42.91899" lon="0.58838">
        <ele>1509</ele>
        <time>2019-02-03T13:20:26.000Z</time>
      </trkpt>
      <trkpt lat="42.91899" lon="0.58839">
        <ele>1509</ele>
        <time>2019-02-03T13:20:27.000Z</time>
      </trkpt>
      <trkpt lat="42.919" lon="0.58839">
        <ele>1509</ele>
        <time>2019-02-03T13:20:28.000Z</time>
      </trkpt>
      <trkpt lat="42.919" lon="0.58839">
        <ele>1509</ele>
        <time>2019-02-03T13:20:29.000Z</time>
      </trkpt>
      <trkpt lat="42.919" lon="0.58839">
        <ele>1509</ele>
        <time>2019-02-03T13:20:30.000Z</time>
      </trkpt>
      <trkpt lat="42.919" lon="0.58839">
        <ele>1509.5</ele>
        <time>2019-02-03T13:20:31.000Z</time>
      </trkpt>
      <trkpt lat="42.919" lon="0.58839">
        <ele>1510</ele>
        <time>2019-02-03T13:20:32.000Z</time>
      </trkpt>
      <trkpt lat="42.919" lon="0.58839">
        <ele>1510</ele>
        <time>2019-02-03T13:20:33.000Z</time>
      </trkpt>
      <trkpt lat="42.919" lon="0.58839">
        <ele>1510</ele>
        <time>2019-02-03T13:20:34.000Z</time>
      </trkpt>
      <trkpt lat="42.919" lon="0.58839">
        <ele>1510</ele>
        <time>2019-02-03T13:20:35.000Z</time>
      </trkpt>
      <trkpt lat="42.919" lon="0.58839">
        <ele>1510</ele>
        <time>2019-02-03T13:20:36.000Z</time>
      </trkpt>
      <trkpt lat="42.919" lon="0.58839">
        <ele>1510</ele>
        <time>2019-02-03T13:20:37.000Z</time>
      </trkpt>
      <trkpt lat="42.91901" lon="0.58839">
        <ele>1510</ele>
        <time>2019-02-03T13:20:38.000Z</time>
      </trkpt>
      <trkpt lat="42.91901" lon="0.58839">
        <ele>1511</ele>
        <time>2019-02-03T13:20:39.000Z</time>
      </trkpt>
      <trkpt lat="42.91902" lon="0.58839">
        <ele>1511</ele>
        <time>2019-02-03T13:20:40.000Z</time>
      </trkpt>
      <trkpt lat="42.91902" lon="0.58839">
        <ele>1511</ele>
        <time>2019-02-03T13:20:41.000Z</time>
      </trkpt>
      <trkpt lat="42.91903" lon="0.58838">
        <ele>1511</ele>
        <time>2019-02-03T13:20:42.000Z</time>
      </trkpt>
      <trkpt lat="42.91903" lon="0.58838">
        <ele>1511</ele>
        <time>2019-02-03T13:20:43.000Z</time>
      </trkpt>
      <trkpt lat="42.91904" lon="0.58838">
        <ele>1511</ele>
        <time>2019-02-03T13:20:44.000Z</time>
      </trkpt>
      <trkpt lat="42.91904" lon="0.58838">
        <ele>1511</ele>
        <time>2019-02-03T13:20:45.000Z</time>
      </trkpt>
      <trkpt lat="42.91904" lon="0.58838">
        <ele>1511</ele>
        <time>2019-02-03T13:20:46.000Z</time>
      </trkpt>
      <trkpt lat="42.91905" lon="0.58838">
        <ele>1511.5</ele>
        <time>2019-02-03T13:20:47.000Z</time>
      </trkpt>
      <trkpt lat="42.91905" lon="0.58837">
        <ele>1512</ele>
        <time>2019-02-03T13:20:48.000Z</time>
      </trkpt>
      <trkpt lat="42.91906" lon="0.58837">
        <ele>1512</ele>
        <time>2019-02-03T13:20:49.000Z</time>
      </trkpt>
      <trkpt lat="42.91906" lon="0.58837">
        <ele>1512</ele>
        <time>2019-02-03T13:20:50.000Z</time>
      </trkpt>
      <trkpt lat="42.91907" lon="0.58836">
        <ele>1512</ele>
        <time>2019-02-03T13:20:51.000Z</time>
      </trkpt>
      <trkpt lat="42.91908" lon="0.58836">
        <ele>1512</ele>
        <time>2019-02-03T13:20:52.000Z</time>
      </trkpt>
      <trkpt lat="42.91908" lon="0.58836">
        <ele>1512</ele>
        <time>2019-02-03T13:20:53.000Z</time>
      </trkpt>
      <trkpt lat="42.91909" lon="0.58835">
        <ele>1512</ele>
        <time>2019-02-03T13:20:54.000Z</time>
      </trkpt>
      <trkpt lat="42.91909" lon="0.58835">
        <ele>1512.5</ele>
        <time>2019-02-03T13:20:55.000Z</time>
      </trkpt>
      <trkpt lat="42.9191" lon="0.58834">
        <ele>1513</ele>
        <time>2019-02-03T13:20:56.000Z</time>
      </trkpt>
      <trkpt lat="42.91911" lon="0.58833">
        <ele>1513</ele>
        <time>2019-02-03T13:20:57.000Z</time>
      </trkpt>
      <trkpt lat="42.91911" lon="0.58833">
        <ele>1513</ele>
        <time>2019-02-03T13:20:58.000Z</time>
      </trkpt>
      <trkpt lat="42.91912" lon="0.58832">
        <ele>1513</ele>
        <time>2019-02-03T13:20:59.000Z</time>
      </trkpt>
      <trkpt lat="42.91912" lon="0.58832">
        <ele>1513</ele>
        <time>2019-02-03T13:21:00.000Z</time>
      </trkpt>
      <trkpt lat="42.91913" lon="0.58831">
        <ele>1513.5</ele>
        <time>2019-02-03T13:21:01.000Z</time>
      </trkpt>
      <trkpt lat="42.91913" lon="0.58831">
        <ele>1514</ele>
        <time>2019-02-03T13:21:02.000Z</time>
      </trkpt>
      <trkpt lat="42.91914" lon="0.5883">
        <ele>1514</ele>
        <time>2019-02-03T13:21:03.000Z</time>
      </trkpt>
      <trkpt lat="42.91915" lon="0.5883">
        <ele>1514</ele>
        <time>2019-02-03T13:21:04.000Z</time>
      </trkpt>
      <trkpt lat="42.91915" lon="0.58829">
        <ele>1514</ele>
        <time>2019-02-03T13:21:05.000Z</time>
      </trkpt>
      <trkpt lat="42.91916" lon="0.58829">
        <ele>1514</ele>
        <time>2019-02-03T13:21:06.000Z</time>
      </trkpt>
      <trkpt lat="42.91916" lon="0.58828">
        <ele>1514</ele>
        <time>2019-02-03T13:21:07.000Z</time>
      </trkpt>
      <trkpt lat="42.91917" lon="0.58828">
        <ele>1514</ele>
        <time>2019-02-03T13:21:08.000Z</time>
      </trkpt>
      <trkpt lat="42.91918" lon="0.58828">
        <ele>1514</ele>
        <time>2019-02-03T13:21:09.000Z</time>
      </trkpt>
      <trkpt lat="42.91918" lon="0.58828">
        <ele>1514</ele>
        <time>2019-02-03T13:21:10.000Z</time>
      </trkpt>
      <trkpt lat="42.91919" lon="0.58827">
        <ele>1514.5</ele>
        <time>2019-02-03T13:21:11.000Z</time>
      </trkpt>
      <trkpt lat="42.91919" lon="0.58827">
        <ele>1515</ele>
        <time>2019-02-03T13:21:12.000Z</time>
      </trkpt>
      <trkpt lat="42.9192" lon="0.58827">
        <ele>1515</ele>
        <time>2019-02-03T13:21:13.000Z</time>
      </trkpt>
      <trkpt lat="42.9192" lon="0.58826">
        <ele>1515</ele>
        <time>2019-02-03T13:21:14.000Z</time>
      </trkpt>
      <trkpt lat="42.91921" lon="0.58826">
        <ele>1515</ele>
        <time>2019-02-03T13:21:15.000Z</time>
      </trkpt>
      <trkpt lat="42.91921" lon="0.58826">
        <ele>1515</ele>
        <time>2019-02-03T13:21:16.000Z</time>
      </trkpt>
      <trkpt lat="42.91922" lon="0.58825">
        <ele>1515</ele>
        <time>2019-02-03T13:21:17.000Z</time>
      </trkpt>
      <trkpt lat="42.91922" lon="0.58825">
        <ele>1515</ele>
        <time>2019-02-03T13:21:18.000Z</time>
      </trkpt>
      <trkpt lat="42.91923" lon="0.58824">
        <ele>1515</ele>
        <time>2019-02-03T13:21:19.000Z</time>
      </trkpt>
      <trkpt lat="42.91923" lon="0.58824">
        <ele>1515</ele>
        <time>2019-02-03T13:21:20.000Z</time>
      </trkpt>
      <trkpt lat="42.91923" lon="0.58823">
        <ele>1515.5</ele>
        <time>2019-02-03T13:21:21.000Z</time>
      </trkpt>
      <trkpt lat="42.91924" lon="0.58823">
        <ele>1516</ele>
        <time>2019-02-03T13:21:22.000Z</time>
      </trkpt>
      <trkpt lat="42.91924" lon="0.58822">
        <ele>1516</ele>
        <time>2019-02-03T13:21:23.000Z</time>
      </trkpt>
      <trkpt lat="42.91924" lon="0.58822">
        <ele>1516</ele>
        <time>2019-02-03T13:21:24.000Z</time>
      </trkpt>
      <trkpt lat="42.91925" lon="0.58822">
        <ele>1516</ele>
        <time>2019-02-03T13:21:25.000Z</time>
      </trkpt>
      <trkpt lat="42.91925" lon="0.58821">
        <ele>1516</ele>
        <time>2019-02-03T13:21:26.000Z</time>
      </trkpt>
      <trkpt lat="42.91925" lon="0.58821">
        <ele>1516</ele>
        <time>2019-02-03T13:21:27.000Z</time>
      </trkpt>
      <trkpt lat="42.91925" lon="0.5882">
        <ele>1516</ele>
        <time>2019-02-03T13:21:28.000Z</time>
      </trkpt>
      <trkpt lat="42.91925" lon="0.5882">
        <ele>1516</ele>
        <time>2019-02-03T13:21:29.000Z</time>
      </trkpt>
      <trkpt lat="42.91926" lon="0.58819">
        <ele>1516</ele>
        <time>2019-02-03T13:21:30.000Z</time>
      </trkpt>
      <trkpt lat="42.91926" lon="0.58818">
        <ele>1516</ele>
        <time>2019-02-03T13:21:31.000Z</time>
      </trkpt>
      <trkpt lat="42.91926" lon="0.58818">
        <ele>1516</ele>
        <time>2019-02-03T13:21:32.000Z</time>
      </trkpt>
      <trkpt lat="42.91926" lon="0.58817">
        <ele>1516</ele>
        <time>2019-02-03T13:21:33.000Z</time>
      </trkpt>
      <trkpt lat="42.91927" lon="0.58816">
        <ele>1516</ele>
        <time>2019-02-03T13:21:34.000Z</time>
      </trkpt>
      <trkpt lat="42.91927" lon="0.58816">
        <ele>1516</ele>
        <time>2019-02-03T13:21:35.000Z</time>
      </trkpt>
      <trkpt lat="42.91927" lon="0.58815">
        <ele>1516</ele>
        <time>2019-02-03T13:21:36.000Z</time>
      </trkpt>
      <trkpt lat="42.91928" lon="0.58814">
        <ele>1516</ele>
        <time>2019-02-03T13:21:37.000Z</time>
      </trkpt>
      <trkpt lat="42.91928" lon="0.58814">
        <ele>1516</ele>
        <time>2019-02-03T13:21:38.000Z</time>
      </trkpt>
      <trkpt lat="42.91929" lon="0.58814">
        <ele>1516</ele>
        <time>2019-02-03T13:21:39.000Z</time>
      </trkpt>
      <trkpt lat="42.91929" lon="0.58813">
        <ele>1516</ele>
        <time>2019-02-03T13:21:40.000Z</time>
      </trkpt>
      <trkpt lat="42.9193" lon="0.58813">
        <ele>1516.5</ele>
        <time>2019-02-03T13:21:41.000Z</time>
      </trkpt>
      <trkpt lat="42.9193" lon="0.58812">
        <ele>1517</ele>
        <time>2019-02-03T13:21:42.000Z</time>
      </trkpt>
      <trkpt lat="42.91931" lon="0.58812">
        <ele>1517</ele>
        <time>2019-02-03T13:21:43.000Z</time>
      </trkpt>
      <trkpt lat="42.91932" lon="0.58811">
        <ele>1517</ele>
        <time>2019-02-03T13:21:44.000Z</time>
      </trkpt>
      <trkpt lat="42.91932" lon="0.58811">
        <ele>1517</ele>
        <time>2019-02-03T13:21:45.000Z</time>
      </trkpt>
      <trkpt lat="42.91933" lon="0.58811">
        <ele>1517</ele>
        <time>2019-02-03T13:21:46.000Z</time>
      </trkpt>
      <trkpt lat="42.91934" lon="0.5881">
        <ele>1517</ele>
        <time>2019-02-03T13:21:47.000Z</time>
      </trkpt>
      <trkpt lat="42.91934" lon="0.5881">
        <ele>1517</ele>
        <time>2019-02-03T13:21:48.000Z</time>
      </trkpt>
      <trkpt lat="42.91935" lon="0.5881">
        <ele>1517</ele>
        <time>2019-02-03T13:21:49.000Z</time>
      </trkpt>
      <trkpt lat="42.91936" lon="0.58809">
        <ele>1517</ele>
        <time>2019-02-03T13:21:50.000Z</time>
      </trkpt>
      <trkpt lat="42.91937" lon="0.58809">
        <ele>1517</ele>
        <time>2019-02-03T13:21:51.000Z</time>
      </trkpt>
      <trkpt lat="42.91937" lon="0.58809">
        <ele>1517</ele>
        <time>2019-02-03T13:21:52.000Z</time>
      </trkpt>
      <trkpt lat="42.91938" lon="0.58808">
        <ele>1517</ele>
        <time>2019-02-03T13:21:53.000Z</time>
      </trkpt>
      <trkpt lat="42.91939" lon="0.58808">
        <ele>1517</ele>
        <time>2019-02-03T13:21:54.000Z</time>
      </trkpt>
      <trkpt lat="42.91939" lon="0.58808">
        <ele>1517</ele>
        <time>2019-02-03T13:21:55.000Z</time>
      </trkpt>
      <trkpt lat="42.9194" lon="0.58807">
        <ele>1517</ele>
        <time>2019-02-03T13:21:56.000Z</time>
      </trkpt>
      <trkpt lat="42.91941" lon="0.58807">
        <ele>1517</ele>
        <time>2019-02-03T13:21:57.000Z</time>
      </trkpt>
      <trkpt lat="42.91941" lon="0.58807">
        <ele>1517</ele>
        <time>2019-02-03T13:21:58.000Z</time>
      </trkpt>
      <trkpt lat="42.91942" lon="0.58806">
        <ele>1517</ele>
        <time>2019-02-03T13:21:59.000Z</time>
      </trkpt>
      <trkpt lat="42.91942" lon="0.58806">
        <ele>1517</ele>
        <time>2019-02-03T13:22:00.000Z</time>
      </trkpt>
      <trkpt lat="42.91943" lon="0.58806">
        <ele>1517</ele>
        <time>2019-02-03T13:22:01.000Z</time>
      </trkpt>
      <trkpt lat="42.91944" lon="0.58806">
        <ele>1517</ele>
        <time>2019-02-03T13:22:02.000Z</time>
      </trkpt>
      <trkpt lat="42.91944" lon="0.58806">
        <ele>1517</ele>
        <time>2019-02-03T13:22:03.000Z</time>
      </trkpt>
      <trkpt lat="42.91945" lon="0.58805">
        <ele>1517</ele>
        <time>2019-02-03T13:22:04.000Z</time>
      </trkpt>
      <trkpt lat="42.91945" lon="0.58805">
        <ele>1516.5</ele>
        <time>2019-02-03T13:22:05.000Z</time>
      </trkpt>
      <trkpt lat="42.91946" lon="0.58805">
        <ele>1516</ele>
        <time>2019-02-03T13:22:06.000Z</time>
      </trkpt>
      <trkpt lat="42.91946" lon="0.58805">
        <ele>1516</ele>
        <time>2019-02-03T13:22:07.000Z</time>
      </trkpt>
      <trkpt lat="42.91947" lon="0.58805">
        <ele>1516</ele>
        <time>2019-02-03T13:22:08.000Z</time>
      </trkpt>
      <trkpt lat="42.91947" lon="0.58805">
        <ele>1516</ele>
        <time>2019-02-03T13:22:09.000Z</time>
      </trkpt>
      <trkpt lat="42.91948" lon="0.58804">
        <ele>1516</ele>
        <time>2019-02-03T13:22:10.000Z</time>
      </trkpt>
      <trkpt lat="42.91948" lon="0.58804">
        <ele>1516</ele>
        <time>2019-02-03T13:22:11.000Z</time>
      </trkpt>
      <trkpt lat="42.91949" lon="0.58804">
        <ele>1515.7</ele>
        <time>2019-02-03T13:22:12.000Z</time>
      </trkpt>
      <trkpt lat="42.91949" lon="0.58804">
        <ele>1515.3</ele>
        <time>2019-02-03T13:22:13.000Z</time>
      </trkpt>
      <trkpt lat="42.9195" lon="0.58803">
        <ele>1515</ele>
        <time>2019-02-03T13:22:14.000Z</time>
      </trkpt>
      <trkpt lat="42.91951" lon="0.58803">
        <ele>1515</ele>
        <time>2019-02-03T13:22:15.000Z</time>
      </trkpt>
      <trkpt lat="42.91952" lon="0.58802">
        <ele>1515</ele>
        <time>2019-02-03T13:22:16.000Z</time>
      </trkpt>
      <trkpt lat="42.91952" lon="0.58802">
        <ele>1515</ele>
        <time>2019-02-03T13:22:17.000Z</time>
      </trkpt>
      <trkpt lat="42.91953" lon="0.58802">
        <ele>1515</ele>
        <time>2019-02-03T13:22:18.000Z</time>
      </trkpt>
      <trkpt lat="42.91954" lon="0.58801">
        <ele>1515</ele>
        <time>2019-02-03T13:22:19.000Z</time>
      </trkpt>
      <trkpt lat="42.91954" lon="0.58801">
        <ele>1515</ele>
        <time>2019-02-03T13:22:20.000Z</time>
      </trkpt>
      <trkpt lat="42.91955" lon="0.588">
        <ele>1515</ele>
        <time>2019-02-03T13:22:21.000Z</time>
      </trkpt>
      <trkpt lat="42.91955" lon="0.588">
        <ele>1515</ele>
        <time>2019-02-03T13:22:22.000Z</time>
      </trkpt>
      <trkpt lat="42.91955" lon="0.588">
        <ele>1515</ele>
        <time>2019-02-03T13:22:23.000Z</time>
      </trkpt>
      <trkpt lat="42.91955" lon="0.588">
        <ele>1515</ele>
        <time>2019-02-03T13:22:24.000Z</time>
      </trkpt>
      <trkpt lat="42.91956" lon="0.588">
        <ele>1515</ele>
        <time>2019-02-03T13:22:25.000Z</time>
      </trkpt>
      <trkpt lat="42.91957" lon="0.588">
        <ele>1515</ele>
        <time>2019-02-03T13:22:26.000Z</time>
      </trkpt>
      <trkpt lat="42.91957" lon="0.588">
        <ele>1515</ele>
        <time>2019-02-03T13:22:27.000Z</time>
      </trkpt>
      <trkpt lat="42.91957" lon="0.588">
        <ele>1515</ele>
        <time>2019-02-03T13:22:28.000Z</time>
      </trkpt>
      <trkpt lat="42.91957" lon="0.588">
        <ele>1515</ele>
        <time>2019-02-03T13:22:29.000Z</time>
      </trkpt>
      <trkpt lat="42.91957" lon="0.588">
        <ele>1515</ele>
        <time>2019-02-03T13:22:30.000Z</time>
      </trkpt>
      <trkpt lat="42.91957" lon="0.588">
        <ele>1515</ele>
        <time>2019-02-03T13:22:31.000Z</time>
      </trkpt>
      <trkpt lat="42.91957" lon="0.588">
        <ele>1515</ele>
        <time>2019-02-03T13:22:32.000Z</time>
      </trkpt>
      <trkpt lat="42.91957" lon="0.588">
        <ele>1515</ele>
        <time>2019-02-03T13:22:33.000Z</time>
      </trkpt>
      <trkpt lat="42.91957" lon="0.588">
        <ele>1515</ele>
        <time>2019-02-03T13:22:34.000Z</time>
      </trkpt>
      <trkpt lat="42.91957" lon="0.588">
        <ele>1514.5</ele>
        <time>2019-02-03T13:22:35.000Z</time>
      </trkpt>
      <trkpt lat="42.91957" lon="0.588">
        <ele>1514</ele>
        <time>2019-02-03T13:22:36.000Z</time>
      </trkpt>
      <trkpt lat="42.91957" lon="0.588">
        <ele>1514</ele>
        <time>2019-02-03T13:22:37.000Z</time>
      </trkpt>
      <trkpt lat="42.91957" lon="0.588">
        <ele>1514</ele>
        <time>2019-02-03T13:22:38.000Z</time>
      </trkpt>
      <trkpt lat="42.91957" lon="0.588">
        <ele>1514</ele>
        <time>2019-02-03T13:22:39.000Z</time>
      </trkpt>
      <trkpt lat="42.91957" lon="0.588">
        <ele>1514</ele>
        <time>2019-02-03T13:22:40.000Z</time>
      </trkpt>
      <trkpt lat="42.91957" lon="0.588">
        <ele>1514</ele>
        <time>2019-02-03T13:22:41.000Z</time>
      </trkpt>
      <trkpt lat="42.91957" lon="0.588">
        <ele>1514</ele>
        <time>2019-02-03T13:22:42.000Z</time>
      </trkpt>
      <trkpt lat="42.91957" lon="0.588">
        <ele>1514</ele>
        <time>2019-02-03T13:22:43.000Z</time>
      </trkpt>
      <trkpt lat="42.91957" lon="0.588">
        <ele>1514</ele>
        <time>2019-02-03T13:22:44.000Z</time>
      </trkpt>
      <trkpt lat="42.91957" lon="0.588">
        <ele>1514</ele>
        <time>2019-02-03T13:22:45.000Z</time>
      </trkpt>
      <trkpt lat="42.91957" lon="0.588">
        <ele>1514</ele>
        <time>2019-02-03T13:22:46.000Z</time>
      </trkpt>
      <trkpt lat="42.91957" lon="0.588">
        <ele>1514</ele>
        <time>2019-02-03T13:22:47.000Z</time>
      </trkpt>
      <trkpt lat="42.91957" lon="0.588">
        <ele>1514</ele>
        <time>2019-02-03T13:22:48.000Z</time>
      </trkpt>
      <trkpt lat="42.91957" lon="0.588">
        <ele>1514</ele>
        <time>2019-02-03T13:22:49.000Z</time>
      </trkpt>
      <trkpt lat="42.91957" lon="0.588">
        <ele>1514</ele>
        <time>2019-02-03T13:22:50.000Z</time>
      </trkpt>
      <trkpt lat="42.91957" lon="0.588">
        <ele>1514</ele>
        <time>2019-02-03T13:22:51.000Z</time>
      </trkpt>
      <trkpt lat="42.91957" lon="0.588">
        <ele>1514</ele>
        <time>2019-02-03T13:22:52.000Z</time>
      </trkpt>
      <trkpt lat="42.91957" lon="0.588">
        <ele>1514</ele>
        <time>2019-02-03T13:22:53.000Z</time>
      </trkpt>
      <trkpt lat="42.91957" lon="0.588">
        <ele>1514</ele>
        <time>2019-02-03T13:22:54.000Z</time>
      </trkpt>
      <trkpt lat="42.91957" lon="0.588">
        <ele>1514</ele>
        <time>2019-02-03T13:22:55.000Z</time>
      </trkpt>
      <trkpt lat="42.91957" lon="0.588">
        <ele>1514</ele>
        <time>2019-02-03T13:22:56.000Z</time>
      </trkpt>
      <trkpt lat="42.91957" lon="0.588">
        <ele>1514</ele>
        <time>2019-02-03T13:22:57.000Z</time>
      </trkpt>
      <trkpt lat="42.91957" lon="0.588">
        <ele>1514</ele>
        <time>2019-02-03T13:22:58.000Z</time>
      </trkpt>
      <trkpt lat="42.91957" lon="0.588">
        <ele>1514.5</ele>
        <time>2019-02-03T13:22:59.000Z</time>
      </trkpt>
      <trkpt lat="42.91957" lon="0.588">
        <ele>1515</ele>
        <time>2019-02-03T13:23:00.000Z</time>
      </trkpt>
      <trkpt lat="42.91957" lon="0.588">
        <ele>1515</ele>
        <time>2019-02-03T13:23:01.000Z</time>
      </trkpt>
      <trkpt lat="42.91957" lon="0.588">
        <ele>1514.5</ele>
        <time>2019-02-03T13:23:02.000Z</time>
      </trkpt>
      <trkpt lat="42.91957" lon="0.588">
        <ele>1514</ele>
        <time>2019-02-03T13:23:03.000Z</time>
      </trkpt>
      <trkpt lat="42.91957" lon="0.588">
        <ele>1514</ele>
        <time>2019-02-03T13:23:04.000Z</time>
      </trkpt>
      <trkpt lat="42.91957" lon="0.588">
        <ele>1514</ele>
        <time>2019-02-03T13:23:05.000Z</time>
      </trkpt>
      <trkpt lat="42.91958" lon="0.588">
        <ele>1514</ele>
        <time>2019-02-03T13:23:06.000Z</time>
      </trkpt>
      <trkpt lat="42.91958" lon="0.58799">
        <ele>1514</ele>
        <time>2019-02-03T13:23:07.000Z</time>
      </trkpt>
      <trkpt lat="42.91959" lon="0.58799">
        <ele>1514</ele>
        <time>2019-02-03T13:23:08.000Z</time>
      </trkpt>
      <trkpt lat="42.91959" lon="0.58798">
        <ele>1514</ele>
        <time>2019-02-03T13:23:09.000Z</time>
      </trkpt>
      <trkpt lat="42.9196" lon="0.58797">
        <ele>1514</ele>
        <time>2019-02-03T13:23:10.000Z</time>
      </trkpt>
      <trkpt lat="42.9196" lon="0.58796">
        <ele>1514</ele>
        <time>2019-02-03T13:23:11.000Z</time>
      </trkpt>
      <trkpt lat="42.91961" lon="0.58795">
        <ele>1514</ele>
        <time>2019-02-03T13:23:12.000Z</time>
      </trkpt>
      <trkpt lat="42.91961" lon="0.58795">
        <ele>1514</ele>
        <time>2019-02-03T13:23:13.000Z</time>
      </trkpt>
      <trkpt lat="42.91962" lon="0.58794">
        <ele>1514</ele>
        <time>2019-02-03T13:23:14.000Z</time>
      </trkpt>
      <trkpt lat="42.91963" lon="0.58793">
        <ele>1514</ele>
        <time>2019-02-03T13:23:15.000Z</time>
      </trkpt>
      <trkpt lat="42.91963" lon="0.58792">
        <ele>1514</ele>
        <time>2019-02-03T13:23:16.000Z</time>
      </trkpt>
      <trkpt lat="42.91964" lon="0.58792">
        <ele>1514</ele>
        <time>2019-02-03T13:23:17.000Z</time>
      </trkpt>
      <trkpt lat="42.91965" lon="0.58791">
        <ele>1514</ele>
        <time>2019-02-03T13:23:18.000Z</time>
      </trkpt>
      <trkpt lat="42.91966" lon="0.5879">
        <ele>1514</ele>
        <time>2019-02-03T13:23:19.000Z</time>
      </trkpt>
      <trkpt lat="42.91966" lon="0.5879">
        <ele>1514</ele>
        <time>2019-02-03T13:23:20.000Z</time>
      </trkpt>
      <trkpt lat="42.91967" lon="0.58789">
        <ele>1513.5</ele>
        <time>2019-02-03T13:23:21.000Z</time>
      </trkpt>
      <trkpt lat="42.91968" lon="0.58788">
        <ele>1513</ele>
        <time>2019-02-03T13:23:22.000Z</time>
      </trkpt>
      <trkpt lat="42.91969" lon="0.58788">
        <ele>1513</ele>
        <time>2019-02-03T13:23:23.000Z</time>
      </trkpt>
      <trkpt lat="42.91969" lon="0.58787">
        <ele>1513</ele>
        <time>2019-02-03T13:23:24.000Z</time>
      </trkpt>
      <trkpt lat="42.9197" lon="0.58787">
        <ele>1513</ele>
        <time>2019-02-03T13:23:25.000Z</time>
      </trkpt>
      <trkpt lat="42.91971" lon="0.58786">
        <ele>1513</ele>
        <time>2019-02-03T13:23:26.000Z</time>
      </trkpt>
      <trkpt lat="42.91972" lon="0.58785">
        <ele>1513</ele>
        <time>2019-02-03T13:23:27.000Z</time>
      </trkpt>
      <trkpt lat="42.91973" lon="0.58785">
        <ele>1513</ele>
        <time>2019-02-03T13:23:28.000Z</time>
      </trkpt>
      <trkpt lat="42.91973" lon="0.58784">
        <ele>1513</ele>
        <time>2019-02-03T13:23:29.000Z</time>
      </trkpt>
      <trkpt lat="42.91974" lon="0.58783">
        <ele>1513</ele>
        <time>2019-02-03T13:23:30.000Z</time>
      </trkpt>
      <trkpt lat="42.91975" lon="0.58783">
        <ele>1512.5</ele>
        <time>2019-02-03T13:23:31.000Z</time>
      </trkpt>
      <trkpt lat="42.91975" lon="0.58782">
        <ele>1512</ele>
        <time>2019-02-03T13:23:32.000Z</time>
      </trkpt>
      <trkpt lat="42.91976" lon="0.58781">
        <ele>1512</ele>
        <time>2019-02-03T13:23:33.000Z</time>
      </trkpt>
      <trkpt lat="42.91976" lon="0.5878">
        <ele>1512</ele>
        <time>2019-02-03T13:23:34.000Z</time>
      </trkpt>
      <trkpt lat="42.91976" lon="0.58779">
        <ele>1512</ele>
        <time>2019-02-03T13:23:35.000Z</time>
      </trkpt>
      <trkpt lat="42.91977" lon="0.58778">
        <ele>1512</ele>
        <time>2019-02-03T13:23:36.000Z</time>
      </trkpt>
      <trkpt lat="42.91977" lon="0.58777">
        <ele>1512</ele>
        <time>2019-02-03T13:23:37.000Z</time>
      </trkpt>
      <trkpt lat="42.91977" lon="0.58776">
        <ele>1512</ele>
        <time>2019-02-03T13:23:38.000Z</time>
      </trkpt>
      <trkpt lat="42.91978" lon="0.58775">
        <ele>1512</ele>
        <time>2019-02-03T13:23:39.000Z</time>
      </trkpt>
      <trkpt lat="42.91978" lon="0.58774">
        <ele>1512</ele>
        <time>2019-02-03T13:23:40.000Z</time>
      </trkpt>
      <trkpt lat="42.91979" lon="0.58772">
        <ele>1512</ele>
        <time>2019-02-03T13:23:41.000Z</time>
      </trkpt>
      <trkpt lat="42.91979" lon="0.58771">
        <ele>1512</ele>
        <time>2019-02-03T13:23:42.000Z</time>
      </trkpt>
      <trkpt lat="42.91979" lon="0.5877">
        <ele>1511</ele>
        <time>2019-02-03T13:23:43.000Z</time>
      </trkpt>
      <trkpt lat="42.9198" lon="0.58769">
        <ele>1511</ele>
        <time>2019-02-03T13:23:44.000Z</time>
      </trkpt>
      <trkpt lat="42.9198" lon="0.58768">
        <ele>1511</ele>
        <time>2019-02-03T13:23:45.000Z</time>
      </trkpt>
      <trkpt lat="42.91981" lon="0.58767">
        <ele>1511</ele>
        <time>2019-02-03T13:23:46.000Z</time>
      </trkpt>
      <trkpt lat="42.91981" lon="0.58766">
        <ele>1511</ele>
        <time>2019-02-03T13:23:47.000Z</time>
      </trkpt>
      <trkpt lat="42.91982" lon="0.58765">
        <ele>1511</ele>
        <time>2019-02-03T13:23:48.000Z</time>
      </trkpt>
      <trkpt lat="42.91982" lon="0.58764">
        <ele>1510.5</ele>
        <time>2019-02-03T13:23:49.000Z</time>
      </trkpt>
      <trkpt lat="42.91983" lon="0.58764">
        <ele>1510</ele>
        <time>2019-02-03T13:23:50.000Z</time>
      </trkpt>
      <trkpt lat="42.91984" lon="0.58763">
        <ele>1510</ele>
        <time>2019-02-03T13:23:51.000Z</time>
      </trkpt>
      <trkpt lat="42.91984" lon="0.58762">
        <ele>1510</ele>
        <time>2019-02-03T13:23:52.000Z</time>
      </trkpt>
      <trkpt lat="42.91985" lon="0.58761">
        <ele>1510</ele>
        <time>2019-02-03T13:23:53.000Z</time>
      </trkpt>
      <trkpt lat="42.91985" lon="0.5876">
        <ele>1510</ele>
        <time>2019-02-03T13:23:54.000Z</time>
      </trkpt>
      <trkpt lat="42.91986" lon="0.5876">
        <ele>1510</ele>
        <time>2019-02-03T13:23:55.000Z</time>
      </trkpt>
      <trkpt lat="42.91987" lon="0.58759">
        <ele>1510</ele>
        <time>2019-02-03T13:23:56.000Z</time>
      </trkpt>
      <trkpt lat="42.91987" lon="0.58758">
        <ele>1509.5</ele>
        <time>2019-02-03T13:23:57.000Z</time>
      </trkpt>
      <trkpt lat="42.91988" lon="0.58757">
        <ele>1509</ele>
        <time>2019-02-03T13:23:58.000Z</time>
      </trkpt>
      <trkpt lat="42.91989" lon="0.58756">
        <ele>1509</ele>
        <time>2019-02-03T13:23:59.000Z</time>
      </trkpt>
      <trkpt lat="42.91989" lon="0.58755">
        <ele>1509</ele>
        <time>2019-02-03T13:24:00.000Z</time>
      </trkpt>
      <trkpt lat="42.9199" lon="0.58754">
        <ele>1509</ele>
        <time>2019-02-03T13:24:01.000Z</time>
      </trkpt>
      <trkpt lat="42.91991" lon="0.58753">
        <ele>1509</ele>
        <time>2019-02-03T13:24:02.000Z</time>
      </trkpt>
      <trkpt lat="42.91991" lon="0.58752">
        <ele>1509</ele>
        <time>2019-02-03T13:24:03.000Z</time>
      </trkpt>
      <trkpt lat="42.91991" lon="0.58751">
        <ele>1509</ele>
        <time>2019-02-03T13:24:04.000Z</time>
      </trkpt>
      <trkpt lat="42.91991" lon="0.5875">
        <ele>1509</ele>
        <time>2019-02-03T13:24:05.000Z</time>
      </trkpt>
      <trkpt lat="42.91991" lon="0.58749">
        <ele>1509</ele>
        <time>2019-02-03T13:24:06.000Z</time>
      </trkpt>
      <trkpt lat="42.91992" lon="0.58748">
        <ele>1509</ele>
        <time>2019-02-03T13:24:07.000Z</time>
      </trkpt>
      <trkpt lat="42.91992" lon="0.58747">
        <ele>1509</ele>
        <time>2019-02-03T13:24:08.000Z</time>
      </trkpt>
      <trkpt lat="42.91993" lon="0.58746">
        <ele>1509</ele>
        <time>2019-02-03T13:24:09.000Z</time>
      </trkpt>
      <trkpt lat="42.91993" lon="0.58745">
        <ele>1509</ele>
        <time>2019-02-03T13:24:10.000Z</time>
      </trkpt>
      <trkpt lat="42.91994" lon="0.58744">
        <ele>1509</ele>
        <time>2019-02-03T13:24:11.000Z</time>
      </trkpt>
      <trkpt lat="42.91994" lon="0.58743">
        <ele>1508.7</ele>
        <time>2019-02-03T13:24:12.000Z</time>
      </trkpt>
      <trkpt lat="42.91994" lon="0.58742">
        <ele>1508.3</ele>
        <time>2019-02-03T13:24:13.000Z</time>
      </trkpt>
      <trkpt lat="42.91995" lon="0.58741">
        <ele>1508</ele>
        <time>2019-02-03T13:24:14.000Z</time>
      </trkpt>
      <trkpt lat="42.91995" lon="0.5874">
        <ele>1508</ele>
        <time>2019-02-03T13:24:15.000Z</time>
      </trkpt>
      <trkpt lat="42.91995" lon="0.58739">
        <ele>1508</ele>
        <time>2019-02-03T13:24:16.000Z</time>
      </trkpt>
      <trkpt lat="42.91996" lon="0.58738">
        <ele>1508</ele>
        <time>2019-02-03T13:24:17.000Z</time>
      </trkpt>
      <trkpt lat="42.91996" lon="0.58737">
        <ele>1508</ele>
        <time>2019-02-03T13:24:18.000Z</time>
      </trkpt>
      <trkpt lat="42.91996" lon="0.58736">
        <ele>1508</ele>
        <time>2019-02-03T13:24:19.000Z</time>
      </trkpt>
      <trkpt lat="42.91997" lon="0.58735">
        <ele>1508</ele>
        <time>2019-02-03T13:24:20.000Z</time>
      </trkpt>
      <trkpt lat="42.91997" lon="0.58734">
        <ele>1508</ele>
        <time>2019-02-03T13:24:21.000Z</time>
      </trkpt>
      <trkpt lat="42.91998" lon="0.58733">
        <ele>1508</ele>
        <time>2019-02-03T13:24:22.000Z</time>
      </trkpt>
      <trkpt lat="42.91998" lon="0.58732">
        <ele>1507</ele>
        <time>2019-02-03T13:24:23.000Z</time>
      </trkpt>
      <trkpt lat="42.91998" lon="0.58731">
        <ele>1507</ele>
        <time>2019-02-03T13:24:24.000Z</time>
      </trkpt>
      <trkpt lat="42.91998" lon="0.58731">
        <ele>1507</ele>
        <time>2019-02-03T13:24:25.000Z</time>
      </trkpt>
      <trkpt lat="42.91999" lon="0.5873">
        <ele>1507</ele>
        <time>2019-02-03T13:24:26.000Z</time>
      </trkpt>
      <trkpt lat="42.91999" lon="0.58729">
        <ele>1507</ele>
        <time>2019-02-03T13:24:27.000Z</time>
      </trkpt>
      <trkpt lat="42.91999" lon="0.58728">
        <ele>1507</ele>
        <time>2019-02-03T13:24:28.000Z</time>
      </trkpt>
      <trkpt lat="42.92" lon="0.58727">
        <ele>1506.5</ele>
        <time>2019-02-03T13:24:29.000Z</time>
      </trkpt>
      <trkpt lat="42.92" lon="0.58726">
        <ele>1506</ele>
        <time>2019-02-03T13:24:30.000Z</time>
      </trkpt>
      <trkpt lat="42.92001" lon="0.58726">
        <ele>1506</ele>
        <time>2019-02-03T13:24:31.000Z</time>
      </trkpt>
      <trkpt lat="42.92001" lon="0.58725">
        <ele>1506</ele>
        <time>2019-02-03T13:24:32.000Z</time>
      </trkpt>
      <trkpt lat="42.92002" lon="0.58724">
        <ele>1505.5</ele>
        <time>2019-02-03T13:24:33.000Z</time>
      </trkpt>
      <trkpt lat="42.92002" lon="0.58723">
        <ele>1505</ele>
        <time>2019-02-03T13:24:34.000Z</time>
      </trkpt>
      <trkpt lat="42.92003" lon="0.58722">
        <ele>1505</ele>
        <time>2019-02-03T13:24:35.000Z</time>
      </trkpt>
      <trkpt lat="42.92003" lon="0.58721">
        <ele>1505</ele>
        <time>2019-02-03T13:24:36.000Z</time>
      </trkpt>
      <trkpt lat="42.92003" lon="0.5872">
        <ele>1504.5</ele>
        <time>2019-02-03T13:24:37.000Z</time>
      </trkpt>
      <trkpt lat="42.92003" lon="0.58718">
        <ele>1504</ele>
        <time>2019-02-03T13:24:38.000Z</time>
      </trkpt>
      <trkpt lat="42.92003" lon="0.58717">
        <ele>1504</ele>
        <time>2019-02-03T13:24:39.000Z</time>
      </trkpt>
      <trkpt lat="42.92003" lon="0.58715">
        <ele>1504</ele>
        <time>2019-02-03T13:24:40.000Z</time>
      </trkpt>
      <trkpt lat="42.92004" lon="0.58714">
        <ele>1504</ele>
        <time>2019-02-03T13:24:41.000Z</time>
      </trkpt>
      <trkpt lat="42.92004" lon="0.58712">
        <ele>1504</ele>
        <time>2019-02-03T13:24:42.000Z</time>
      </trkpt>
      <trkpt lat="42.92004" lon="0.58711">
        <ele>1504</ele>
        <time>2019-02-03T13:24:43.000Z</time>
      </trkpt>
      <trkpt lat="42.92004" lon="0.5871">
        <ele>1504</ele>
        <time>2019-02-03T13:24:44.000Z</time>
      </trkpt>
      <trkpt lat="42.92004" lon="0.58709">
        <ele>1503.5</ele>
        <time>2019-02-03T13:24:45.000Z</time>
      </trkpt>
      <trkpt lat="42.92004" lon="0.58708">
        <ele>1503</ele>
        <time>2019-02-03T13:24:46.000Z</time>
      </trkpt>
      <trkpt lat="42.92004" lon="0.58707">
        <ele>1503</ele>
        <time>2019-02-03T13:24:47.000Z</time>
      </trkpt>
      <trkpt lat="42.92004" lon="0.58707">
        <ele>1503</ele>
        <time>2019-02-03T13:24:48.000Z</time>
      </trkpt>
      <trkpt lat="42.92004" lon="0.58706">
        <ele>1502.5</ele>
        <time>2019-02-03T13:24:49.000Z</time>
      </trkpt>
      <trkpt lat="42.92004" lon="0.58705">
        <ele>1502</ele>
        <time>2019-02-03T13:24:50.000Z</time>
      </trkpt>
      <trkpt lat="42.92004" lon="0.58704">
        <ele>1502</ele>
        <time>2019-02-03T13:24:51.000Z</time>
      </trkpt>
      <trkpt lat="42.92004" lon="0.58703">
        <ele>1502</ele>
        <time>2019-02-03T13:24:52.000Z</time>
      </trkpt>
      <trkpt lat="42.92004" lon="0.58701">
        <ele>1502</ele>
        <time>2019-02-03T13:24:53.000Z</time>
      </trkpt>
      <trkpt lat="42.92004" lon="0.587">
        <ele>1502</ele>
        <time>2019-02-03T13:24:54.000Z</time>
      </trkpt>
      <trkpt lat="42.92004" lon="0.58699">
        <ele>1502</ele>
        <time>2019-02-03T13:24:55.000Z</time>
      </trkpt>
      <trkpt lat="42.92004" lon="0.58697">
        <ele>1502</ele>
        <time>2019-02-03T13:24:56.000Z</time>
      </trkpt>
      <trkpt lat="42.92003" lon="0.58696">
        <ele>1501</ele>
        <time>2019-02-03T13:24:57.000Z</time>
      </trkpt>
      <trkpt lat="42.92003" lon="0.58695">
        <ele>1501</ele>
        <time>2019-02-03T13:24:58.000Z</time>
      </trkpt>
      <trkpt lat="42.92003" lon="0.58694">
        <ele>1501</ele>
        <time>2019-02-03T13:24:59.000Z</time>
      </trkpt>
      <trkpt lat="42.92004" lon="0.58693">
        <ele>1501</ele>
        <time>2019-02-03T13:25:00.000Z</time>
      </trkpt>
      <trkpt lat="42.92003" lon="0.58692">
        <ele>1500.5</ele>
        <time>2019-02-03T13:25:01.000Z</time>
      </trkpt>
      <trkpt lat="42.92003" lon="0.58691">
        <ele>1500</ele>
        <time>2019-02-03T13:25:02.000Z</time>
      </trkpt>
      <trkpt lat="42.92003" lon="0.5869">
        <ele>1500</ele>
        <time>2019-02-03T13:25:03.000Z</time>
      </trkpt>
      <trkpt lat="42.92003" lon="0.58689">
        <ele>1500</ele>
        <time>2019-02-03T13:25:04.000Z</time>
      </trkpt>
      <trkpt lat="42.92003" lon="0.58688">
        <ele>1499.5</ele>
        <time>2019-02-03T13:25:05.000Z</time>
      </trkpt>
      <trkpt lat="42.92003" lon="0.58687">
        <ele>1499</ele>
        <time>2019-02-03T13:25:06.000Z</time>
      </trkpt>
      <trkpt lat="42.92002" lon="0.58686">
        <ele>1499</ele>
        <time>2019-02-03T13:25:07.000Z</time>
      </trkpt>
      <trkpt lat="42.92002" lon="0.58685">
        <ele>1499</ele>
        <time>2019-02-03T13:25:08.000Z</time>
      </trkpt>
      <trkpt lat="42.92002" lon="0.58683">
        <ele>1498.5</ele>
        <time>2019-02-03T13:25:09.000Z</time>
      </trkpt>
      <trkpt lat="42.92002" lon="0.58682">
        <ele>1498</ele>
        <time>2019-02-03T13:25:10.000Z</time>
      </trkpt>
      <trkpt lat="42.92002" lon="0.58681">
        <ele>1497.5</ele>
        <time>2019-02-03T13:25:11.000Z</time>
      </trkpt>
      <trkpt lat="42.92002" lon="0.5868">
        <ele>1497</ele>
        <time>2019-02-03T13:25:12.000Z</time>
      </trkpt>
      <trkpt lat="42.92003" lon="0.58679">
        <ele>1497</ele>
        <time>2019-02-03T13:25:13.000Z</time>
      </trkpt>
      <trkpt lat="42.92003" lon="0.58678">
        <ele>1497</ele>
        <time>2019-02-03T13:25:14.000Z</time>
      </trkpt>
      <trkpt lat="42.92003" lon="0.58677">
        <ele>1496.5</ele>
        <time>2019-02-03T13:25:15.000Z</time>
      </trkpt>
      <trkpt lat="42.92004" lon="0.58676">
        <ele>1496</ele>
        <time>2019-02-03T13:25:16.000Z</time>
      </trkpt>
      <trkpt lat="42.92004" lon="0.58675">
        <ele>1495.5</ele>
        <time>2019-02-03T13:25:17.000Z</time>
      </trkpt>
      <trkpt lat="42.92005" lon="0.58674">
        <ele>1495</ele>
        <time>2019-02-03T13:25:18.000Z</time>
      </trkpt>
      <trkpt lat="42.92005" lon="0.58673">
        <ele>1495</ele>
        <time>2019-02-03T13:25:19.000Z</time>
      </trkpt>
      <trkpt lat="42.92006" lon="0.58672">
        <ele>1495</ele>
        <time>2019-02-03T13:25:20.000Z</time>
      </trkpt>
      <trkpt lat="42.92006" lon="0.58671">
        <ele>1495</ele>
        <time>2019-02-03T13:25:21.000Z</time>
      </trkpt>
      <trkpt lat="42.92006" lon="0.58671">
        <ele>1495</ele>
        <time>2019-02-03T13:25:22.000Z</time>
      </trkpt>
      <trkpt lat="42.92007" lon="0.5867">
        <ele>1494.5</ele>
        <time>2019-02-03T13:25:23.000Z</time>
      </trkpt>
      <trkpt lat="42.92007" lon="0.58669">
        <ele>1494</ele>
        <time>2019-02-03T13:25:24.000Z</time>
      </trkpt>
      <trkpt lat="42.92007" lon="0.58669">
        <ele>1494</ele>
        <time>2019-02-03T13:25:25.000Z</time>
      </trkpt>
      <trkpt lat="42.92007" lon="0.58668">
        <ele>1494</ele>
        <time>2019-02-03T13:25:26.000Z</time>
      </trkpt>
      <trkpt lat="42.92007" lon="0.58667">
        <ele>1494</ele>
        <time>2019-02-03T13:25:27.000Z</time>
      </trkpt>
      <trkpt lat="42.92007" lon="0.58667">
        <ele>1494</ele>
        <time>2019-02-03T13:25:28.000Z</time>
      </trkpt>
      <trkpt lat="42.92007" lon="0.58666">
        <ele>1494</ele>
        <time>2019-02-03T13:25:29.000Z</time>
      </trkpt>
      <trkpt lat="42.92006" lon="0.58665">
        <ele>1494</ele>
        <time>2019-02-03T13:25:30.000Z</time>
      </trkpt>
      <trkpt lat="42.92006" lon="0.58665">
        <ele>1493.5</ele>
        <time>2019-02-03T13:25:31.000Z</time>
      </trkpt>
      <trkpt lat="42.92006" lon="0.58664">
        <ele>1493</ele>
        <time>2019-02-03T13:25:32.000Z</time>
      </trkpt>
      <trkpt lat="42.92006" lon="0.58663">
        <ele>1493</ele>
        <time>2019-02-03T13:25:33.000Z</time>
      </trkpt>
      <trkpt lat="42.92005" lon="0.58662">
        <ele>1493</ele>
        <time>2019-02-03T13:25:34.000Z</time>
      </trkpt>
      <trkpt lat="42.92005" lon="0.58662">
        <ele>1492.5</ele>
        <time>2019-02-03T13:25:35.000Z</time>
      </trkpt>
      <trkpt lat="42.92005" lon="0.58661">
        <ele>1492</ele>
        <time>2019-02-03T13:25:36.000Z</time>
      </trkpt>
      <trkpt lat="42.92004" lon="0.5866">
        <ele>1492</ele>
        <time>2019-02-03T13:25:37.000Z</time>
      </trkpt>
      <trkpt lat="42.92004" lon="0.58659">
        <ele>1492</ele>
        <time>2019-02-03T13:25:38.000Z</time>
      </trkpt>
      <trkpt lat="42.92004" lon="0.58658">
        <ele>1492</ele>
        <time>2019-02-03T13:25:39.000Z</time>
      </trkpt>
      <trkpt lat="42.92003" lon="0.58658">
        <ele>1492</ele>
        <time>2019-02-03T13:25:40.000Z</time>
      </trkpt>
      <trkpt lat="42.92003" lon="0.58657">
        <ele>1492</ele>
        <time>2019-02-03T13:25:41.000Z</time>
      </trkpt>
      <trkpt lat="42.92002" lon="0.58656">
        <ele>1492</ele>
        <time>2019-02-03T13:25:42.000Z</time>
      </trkpt>
      <trkpt lat="42.92002" lon="0.58655">
        <ele>1491</ele>
        <time>2019-02-03T13:25:43.000Z</time>
      </trkpt>
      <trkpt lat="42.92002" lon="0.58654">
        <ele>1491</ele>
        <time>2019-02-03T13:25:44.000Z</time>
      </trkpt>
      <trkpt lat="42.92002" lon="0.58653">
        <ele>1491</ele>
        <time>2019-02-03T13:25:45.000Z</time>
      </trkpt>
      <trkpt lat="42.92002" lon="0.58652">
        <ele>1491</ele>
        <time>2019-02-03T13:25:46.000Z</time>
      </trkpt>
      <trkpt lat="42.92002" lon="0.58651">
        <ele>1490.5</ele>
        <time>2019-02-03T13:25:47.000Z</time>
      </trkpt>
      <trkpt lat="42.92002" lon="0.58649">
        <ele>1490</ele>
        <time>2019-02-03T13:25:48.000Z</time>
      </trkpt>
      <trkpt lat="42.92002" lon="0.58648">
        <ele>1489.5</ele>
        <time>2019-02-03T13:25:49.000Z</time>
      </trkpt>
      <trkpt lat="42.92002" lon="0.58647">
        <ele>1489</ele>
        <time>2019-02-03T13:25:50.000Z</time>
      </trkpt>
      <trkpt lat="42.92001" lon="0.58645">
        <ele>1489</ele>
        <time>2019-02-03T13:25:51.000Z</time>
      </trkpt>
      <trkpt lat="42.92001" lon="0.58644">
        <ele>1489</ele>
        <time>2019-02-03T13:25:52.000Z</time>
      </trkpt>
      <trkpt lat="42.92001" lon="0.58643">
        <ele>1488.5</ele>
        <time>2019-02-03T13:25:53.000Z</time>
      </trkpt>
      <trkpt lat="42.92001" lon="0.58642">
        <ele>1488</ele>
        <time>2019-02-03T13:25:54.000Z</time>
      </trkpt>
      <trkpt lat="42.92001" lon="0.58641">
        <ele>1488</ele>
        <time>2019-02-03T13:25:55.000Z</time>
      </trkpt>
      <trkpt lat="42.92" lon="0.5864">
        <ele>1488</ele>
        <time>2019-02-03T13:25:56.000Z</time>
      </trkpt>
      <trkpt lat="42.92" lon="0.58639">
        <ele>1488</ele>
        <time>2019-02-03T13:25:57.000Z</time>
      </trkpt>
      <trkpt lat="42.92" lon="0.58638">
        <ele>1488</ele>
        <time>2019-02-03T13:25:58.000Z</time>
      </trkpt>
      <trkpt lat="42.92" lon="0.58637">
        <ele>1487.5</ele>
        <time>2019-02-03T13:25:59.000Z</time>
      </trkpt>
      <trkpt lat="42.91999" lon="0.58636">
        <ele>1487</ele>
        <time>2019-02-03T13:26:00.000Z</time>
      </trkpt>
      <trkpt lat="42.91999" lon="0.58635">
        <ele>1487</ele>
        <time>2019-02-03T13:26:01.000Z</time>
      </trkpt>
      <trkpt lat="42.91999" lon="0.58635">
        <ele>1487</ele>
        <time>2019-02-03T13:26:02.000Z</time>
      </trkpt>
      <trkpt lat="42.91998" lon="0.58634">
        <ele>1486</ele>
        <time>2019-02-03T13:26:03.000Z</time>
      </trkpt>
      <trkpt lat="42.91998" lon="0.58633">
        <ele>1486</ele>
        <time>2019-02-03T13:26:04.000Z</time>
      </trkpt>
      <trkpt lat="42.91998" lon="0.58632">
        <ele>1486</ele>
        <time>2019-02-03T13:26:05.000Z</time>
      </trkpt>
      <trkpt lat="42.91997" lon="0.58631">
        <ele>1486</ele>
        <time>2019-02-03T13:26:06.000Z</time>
      </trkpt>
      <trkpt lat="42.91997" lon="0.5863">
        <ele>1485.5</ele>
        <time>2019-02-03T13:26:07.000Z</time>
      </trkpt>
      <trkpt lat="42.91996" lon="0.58629">
        <ele>1485</ele>
        <time>2019-02-03T13:26:08.000Z</time>
      </trkpt>
      <trkpt lat="42.91996" lon="0.58628">
        <ele>1485</ele>
        <time>2019-02-03T13:26:09.000Z</time>
      </trkpt>
      <trkpt lat="42.91995" lon="0.58627">
        <ele>1485</ele>
        <time>2019-02-03T13:26:10.000Z</time>
      </trkpt>
      <trkpt lat="42.91995" lon="0.58627">
        <ele>1484.5</ele>
        <time>2019-02-03T13:26:11.000Z</time>
      </trkpt>
      <trkpt lat="42.91994" lon="0.58626">
        <ele>1484</ele>
        <time>2019-02-03T13:26:12.000Z</time>
      </trkpt>
      <trkpt lat="42.91994" lon="0.58625">
        <ele>1484</ele>
        <time>2019-02-03T13:26:13.000Z</time>
      </trkpt>
      <trkpt lat="42.91993" lon="0.58624">
        <ele>1484</ele>
        <time>2019-02-03T13:26:14.000Z</time>
      </trkpt>
      <trkpt lat="42.91993" lon="0.58623">
        <ele>1484</ele>
        <time>2019-02-03T13:26:15.000Z</time>
      </trkpt>
      <trkpt lat="42.91992" lon="0.58622">
        <ele>1484</ele>
        <time>2019-02-03T13:26:16.000Z</time>
      </trkpt>
      <trkpt lat="42.91991" lon="0.58622">
        <ele>1483.5</ele>
        <time>2019-02-03T13:26:17.000Z</time>
      </trkpt>
      <trkpt lat="42.9199" lon="0.58621">
        <ele>1483</ele>
        <time>2019-02-03T13:26:18.000Z</time>
      </trkpt>
      <trkpt lat="42.9199" lon="0.5862">
        <ele>1483</ele>
        <time>2019-02-03T13:26:19.000Z</time>
      </trkpt>
      <trkpt lat="42.91989" lon="0.58619">
        <ele>1483</ele>
        <time>2019-02-03T13:26:20.000Z</time>
      </trkpt>
      <trkpt lat="42.91989" lon="0.58619">
        <ele>1483</ele>
        <time>2019-02-03T13:26:21.000Z</time>
      </trkpt>
      <trkpt lat="42.91988" lon="0.58618">
        <ele>1483</ele>
        <time>2019-02-03T13:26:22.000Z</time>
      </trkpt>
      <trkpt lat="42.91988" lon="0.58617">
        <ele>1483</ele>
        <time>2019-02-03T13:26:23.000Z</time>
      </trkpt>
      <trkpt lat="42.91988" lon="0.58616">
        <ele>1483</ele>
        <time>2019-02-03T13:26:24.000Z</time>
      </trkpt>
      <trkpt lat="42.91988" lon="0.58615">
        <ele>1482.5</ele>
        <time>2019-02-03T13:26:25.000Z</time>
      </trkpt>
      <trkpt lat="42.91987" lon="0.58614">
        <ele>1482</ele>
        <time>2019-02-03T13:26:26.000Z</time>
      </trkpt>
      <trkpt lat="42.91987" lon="0.58614">
        <ele>1482</ele>
        <time>2019-02-03T13:26:27.000Z</time>
      </trkpt>
      <trkpt lat="42.91986" lon="0.58613">
        <ele>1482</ele>
        <time>2019-02-03T13:26:28.000Z</time>
      </trkpt>
      <trkpt lat="42.91986" lon="0.58612">
        <ele>1482</ele>
        <time>2019-02-03T13:26:29.000Z</time>
      </trkpt>
      <trkpt lat="42.91985" lon="0.58612">
        <ele>1482</ele>
        <time>2019-02-03T13:26:30.000Z</time>
      </trkpt>
      <trkpt lat="42.91984" lon="0.58611">
        <ele>1482</ele>
        <time>2019-02-03T13:26:31.000Z</time>
      </trkpt>
      <trkpt lat="42.91983" lon="0.58611">
        <ele>1482</ele>
        <time>2019-02-03T13:26:32.000Z</time>
      </trkpt>
      <trkpt lat="42.91983" lon="0.58611">
        <ele>1482</ele>
        <time>2019-02-03T13:26:33.000Z</time>
      </trkpt>
      <trkpt lat="42.91982" lon="0.5861">
        <ele>1482</ele>
        <time>2019-02-03T13:26:34.000Z</time>
      </trkpt>
      <trkpt lat="42.91982" lon="0.5861">
        <ele>1481.5</ele>
        <time>2019-02-03T13:26:35.000Z</time>
      </trkpt>
      <trkpt lat="42.91981" lon="0.5861">
        <ele>1481</ele>
        <time>2019-02-03T13:26:36.000Z</time>
      </trkpt>
      <trkpt lat="42.91981" lon="0.5861">
        <ele>1481</ele>
        <time>2019-02-03T13:26:37.000Z</time>
      </trkpt>
      <trkpt lat="42.9198" lon="0.58609">
        <ele>1481</ele>
        <time>2019-02-03T13:26:38.000Z</time>
      </trkpt>
      <trkpt lat="42.9198" lon="0.58609">
        <ele>1481</ele>
        <time>2019-02-03T13:26:39.000Z</time>
      </trkpt>
      <trkpt lat="42.9198" lon="0.58609">
        <ele>1481</ele>
        <time>2019-02-03T13:26:40.000Z</time>
      </trkpt>
      <trkpt lat="42.9198" lon="0.58609">
        <ele>1481</ele>
        <time>2019-02-03T13:26:41.000Z</time>
      </trkpt>
      <trkpt lat="42.91979" lon="0.58608">
        <ele>1481</ele>
        <time>2019-02-03T13:26:42.000Z</time>
      </trkpt>
      <trkpt lat="42.91979" lon="0.58608">
        <ele>1481</ele>
        <time>2019-02-03T13:26:43.000Z</time>
      </trkpt>
      <trkpt lat="42.91979" lon="0.58608">
        <ele>1480.7</ele>
        <time>2019-02-03T13:26:44.000Z</time>
      </trkpt>
      <trkpt lat="42.91978" lon="0.58607">
        <ele>1480.3</ele>
        <time>2019-02-03T13:26:45.000Z</time>
      </trkpt>
      <trkpt lat="42.91978" lon="0.58606">
        <ele>1480</ele>
        <time>2019-02-03T13:26:46.000Z</time>
      </trkpt>
      <trkpt lat="42.91978" lon="0.58606">
        <ele>1480</ele>
        <time>2019-02-03T13:26:47.000Z</time>
      </trkpt>
      <trkpt lat="42.91977" lon="0.58605">
        <ele>1480</ele>
        <time>2019-02-03T13:26:48.000Z</time>
      </trkpt>
      <trkpt lat="42.91977" lon="0.58604">
        <ele>1480</ele>
        <time>2019-02-03T13:26:49.000Z</time>
      </trkpt>
      <trkpt lat="42.91976" lon="0.58603">
        <ele>1480</ele>
        <time>2019-02-03T13:26:50.000Z</time>
      </trkpt>
      <trkpt lat="42.91976" lon="0.58602">
        <ele>1479</ele>
        <time>2019-02-03T13:26:51.000Z</time>
      </trkpt>
      <trkpt lat="42.91976" lon="0.58601">
        <ele>1479</ele>
        <time>2019-02-03T13:26:52.000Z</time>
      </trkpt>
      <trkpt lat="42.91975" lon="0.586">
        <ele>1479</ele>
        <time>2019-02-03T13:26:53.000Z</time>
      </trkpt>
      <trkpt lat="42.91975" lon="0.58599">
        <ele>1479</ele>
        <time>2019-02-03T13:26:54.000Z</time>
      </trkpt>
      <trkpt lat="42.91975" lon="0.58597">
        <ele>1478.5</ele>
        <time>2019-02-03T13:26:55.000Z</time>
      </trkpt>
      <trkpt lat="42.91975" lon="0.58596">
        <ele>1478</ele>
        <time>2019-02-03T13:26:56.000Z</time>
      </trkpt>
      <trkpt lat="42.91974" lon="0.58594">
        <ele>1478</ele>
        <time>2019-02-03T13:26:57.000Z</time>
      </trkpt>
      <trkpt lat="42.91974" lon="0.58593">
        <ele>1478</ele>
        <time>2019-02-03T13:26:58.000Z</time>
      </trkpt>
      <trkpt lat="42.91974" lon="0.58592">
        <ele>1478</ele>
        <time>2019-02-03T13:26:59.000Z</time>
      </trkpt>
      <trkpt lat="42.91974" lon="0.5859">
        <ele>1478</ele>
        <time>2019-02-03T13:27:00.000Z</time>
      </trkpt>
      <trkpt lat="42.91974" lon="0.58589">
        <ele>1477</ele>
        <time>2019-02-03T13:27:01.000Z</time>
      </trkpt>
      <trkpt lat="42.91974" lon="0.58588">
        <ele>1476.7</ele>
        <time>2019-02-03T13:27:02.000Z</time>
      </trkpt>
      <trkpt lat="42.91974" lon="0.58587">
        <ele>1476.3</ele>
        <time>2019-02-03T13:27:03.000Z</time>
      </trkpt>
      <trkpt lat="42.91974" lon="0.58586">
        <ele>1476</ele>
        <time>2019-02-03T13:27:04.000Z</time>
      </trkpt>
      <trkpt lat="42.91974" lon="0.58585">
        <ele>1476</ele>
        <time>2019-02-03T13:27:05.000Z</time>
      </trkpt>
      <trkpt lat="42.91973" lon="0.58584">
        <ele>1476</ele>
        <time>2019-02-03T13:27:06.000Z</time>
      </trkpt>
      <trkpt lat="42.91973" lon="0.58583">
        <ele>1475.5</ele>
        <time>2019-02-03T13:27:07.000Z</time>
      </trkpt>
      <trkpt lat="42.91973" lon="0.58583">
        <ele>1475</ele>
        <time>2019-02-03T13:27:08.000Z</time>
      </trkpt>
      <trkpt lat="42.91974" lon="0.58582">
        <ele>1474.5</ele>
        <time>2019-02-03T13:27:09.000Z</time>
      </trkpt>
      <trkpt lat="42.91974" lon="0.58581">
        <ele>1474</ele>
        <time>2019-02-03T13:27:10.000Z</time>
      </trkpt>
      <trkpt lat="42.91974" lon="0.58581">
        <ele>1474</ele>
        <time>2019-02-03T13:27:11.000Z</time>
      </trkpt>
      <trkpt lat="42.91974" lon="0.5858">
        <ele>1474</ele>
        <time>2019-02-03T13:27:12.000Z</time>
      </trkpt>
      <trkpt lat="42.91975" lon="0.5858">
        <ele>1473.5</ele>
        <time>2019-02-03T13:27:13.000Z</time>
      </trkpt>
      <trkpt lat="42.91975" lon="0.58579">
        <ele>1473</ele>
        <time>2019-02-03T13:27:14.000Z</time>
      </trkpt>
      <trkpt lat="42.91976" lon="0.58579">
        <ele>1473</ele>
        <time>2019-02-03T13:27:15.000Z</time>
      </trkpt>
      <trkpt lat="42.91977" lon="0.58579">
        <ele>1472.7</ele>
        <time>2019-02-03T13:27:16.000Z</time>
      </trkpt>
      <trkpt lat="42.91978" lon="0.58579">
        <ele>1472.3</ele>
        <time>2019-02-03T13:27:17.000Z</time>
      </trkpt>
      <trkpt lat="42.91978" lon="0.58579">
        <ele>1472</ele>
        <time>2019-02-03T13:27:18.000Z</time>
      </trkpt>
      <trkpt lat="42.91979" lon="0.58578">
        <ele>1472</ele>
        <time>2019-02-03T13:27:19.000Z</time>
      </trkpt>
      <trkpt lat="42.9198" lon="0.58577">
        <ele>1472</ele>
        <time>2019-02-03T13:27:20.000Z</time>
      </trkpt>
      <trkpt lat="42.9198" lon="0.58576">
        <ele>1471.5</ele>
        <time>2019-02-03T13:27:21.000Z</time>
      </trkpt>
      <trkpt lat="42.91981" lon="0.58575">
        <ele>1471</ele>
        <time>2019-02-03T13:27:22.000Z</time>
      </trkpt>
      <trkpt lat="42.91982" lon="0.58574">
        <ele>1470.5</ele>
        <time>2019-02-03T13:27:23.000Z</time>
      </trkpt>
      <trkpt lat="42.91982" lon="0.58573">
        <ele>1470</ele>
        <time>2019-02-03T13:27:24.000Z</time>
      </trkpt>
      <trkpt lat="42.91983" lon="0.58572">
        <ele>1470</ele>
        <time>2019-02-03T13:27:25.000Z</time>
      </trkpt>
      <trkpt lat="42.91983" lon="0.58572">
        <ele>1469.7</ele>
        <time>2019-02-03T13:27:26.000Z</time>
      </trkpt>
      <trkpt lat="42.91983" lon="0.58571">
        <ele>1469.3</ele>
        <time>2019-02-03T13:27:27.000Z</time>
      </trkpt>
      <trkpt lat="42.91983" lon="0.58571">
        <ele>1469</ele>
        <time>2019-02-03T13:27:28.000Z</time>
      </trkpt>
      <trkpt lat="42.91983" lon="0.5857">
        <ele>1469</ele>
        <time>2019-02-03T13:27:29.000Z</time>
      </trkpt>
      <trkpt lat="42.91983" lon="0.5857">
        <ele>1469</ele>
        <time>2019-02-03T13:27:30.000Z</time>
      </trkpt>
      <trkpt lat="42.91983" lon="0.58569">
        <ele>1469</ele>
        <time>2019-02-03T13:27:31.000Z</time>
      </trkpt>
      <trkpt lat="42.91984" lon="0.58569">
        <ele>1469</ele>
        <time>2019-02-03T13:27:32.000Z</time>
      </trkpt>
      <trkpt lat="42.91984" lon="0.58569">
        <ele>1468.5</ele>
        <time>2019-02-03T13:27:33.000Z</time>
      </trkpt>
      <trkpt lat="42.91984" lon="0.58568">
        <ele>1468</ele>
        <time>2019-02-03T13:27:34.000Z</time>
      </trkpt>
      <trkpt lat="42.91984" lon="0.58568">
        <ele>1468</ele>
        <time>2019-02-03T13:27:35.000Z</time>
      </trkpt>
      <trkpt lat="42.91984" lon="0.58567">
        <ele>1468</ele>
        <time>2019-02-03T13:27:36.000Z</time>
      </trkpt>
      <trkpt lat="42.91984" lon="0.58567">
        <ele>1467</ele>
        <time>2019-02-03T13:27:37.000Z</time>
      </trkpt>
      <trkpt lat="42.91984" lon="0.58566">
        <ele>1467</ele>
        <time>2019-02-03T13:27:38.000Z</time>
      </trkpt>
      <trkpt lat="42.91984" lon="0.58565">
        <ele>1467</ele>
        <time>2019-02-03T13:27:39.000Z</time>
      </trkpt>
      <trkpt lat="42.91984" lon="0.58564">
        <ele>1467</ele>
        <time>2019-02-03T13:27:40.000Z</time>
      </trkpt>
      <trkpt lat="42.91984" lon="0.58564">
        <ele>1466.5</ele>
        <time>2019-02-03T13:27:41.000Z</time>
      </trkpt>
      <trkpt lat="42.91984" lon="0.58563">
        <ele>1466</ele>
        <time>2019-02-03T13:27:42.000Z</time>
      </trkpt>
      <trkpt lat="42.91984" lon="0.58562">
        <ele>1465</ele>
        <time>2019-02-03T13:27:43.000Z</time>
      </trkpt>
      <trkpt lat="42.91984" lon="0.58561">
        <ele>1465</ele>
        <time>2019-02-03T13:27:44.000Z</time>
      </trkpt>
      <trkpt lat="42.91984" lon="0.58561">
        <ele>1465</ele>
        <time>2019-02-03T13:27:45.000Z</time>
      </trkpt>
      <trkpt lat="42.91984" lon="0.5856">
        <ele>1465</ele>
        <time>2019-02-03T13:27:46.000Z</time>
      </trkpt>
      <trkpt lat="42.91984" lon="0.58559">
        <ele>1464.5</ele>
        <time>2019-02-03T13:27:47.000Z</time>
      </trkpt>
      <trkpt lat="42.91985" lon="0.58558">
        <ele>1464</ele>
        <time>2019-02-03T13:27:48.000Z</time>
      </trkpt>
      <trkpt lat="42.91985" lon="0.58558">
        <ele>1464</ele>
        <time>2019-02-03T13:27:49.000Z</time>
      </trkpt>
      <trkpt lat="42.91985" lon="0.58557">
        <ele>1463.7</ele>
        <time>2019-02-03T13:27:50.000Z</time>
      </trkpt>
      <trkpt lat="42.91986" lon="0.58556">
        <ele>1463.3</ele>
        <time>2019-02-03T13:27:51.000Z</time>
      </trkpt>
      <trkpt lat="42.91986" lon="0.58555">
        <ele>1463</ele>
        <time>2019-02-03T13:27:52.000Z</time>
      </trkpt>
      <trkpt lat="42.91987" lon="0.58553">
        <ele>1462.5</ele>
        <time>2019-02-03T13:27:53.000Z</time>
      </trkpt>
      <trkpt lat="42.91987" lon="0.58552">
        <ele>1462</ele>
        <time>2019-02-03T13:27:54.000Z</time>
      </trkpt>
      <trkpt lat="42.91988" lon="0.58551">
        <ele>1462</ele>
        <time>2019-02-03T13:27:55.000Z</time>
      </trkpt>
      <trkpt lat="42.91989" lon="0.5855">
        <ele>1461.7</ele>
        <time>2019-02-03T13:27:56.000Z</time>
      </trkpt>
      <trkpt lat="42.91989" lon="0.58549">
        <ele>1461.3</ele>
        <time>2019-02-03T13:27:57.000Z</time>
      </trkpt>
      <trkpt lat="42.9199" lon="0.58548">
        <ele>1461</ele>
        <time>2019-02-03T13:27:58.000Z</time>
      </trkpt>
      <trkpt lat="42.9199" lon="0.58547">
        <ele>1461</ele>
        <time>2019-02-03T13:27:59.000Z</time>
      </trkpt>
      <trkpt lat="42.91991" lon="0.58546">
        <ele>1460.5</ele>
        <time>2019-02-03T13:28:00.000Z</time>
      </trkpt>
      <trkpt lat="42.91991" lon="0.58545">
        <ele>1460</ele>
        <time>2019-02-03T13:28:01.000Z</time>
      </trkpt>
      <trkpt lat="42.91991" lon="0.58544">
        <ele>1459.7</ele>
        <time>2019-02-03T13:28:02.000Z</time>
      </trkpt>
      <trkpt lat="42.91991" lon="0.58543">
        <ele>1459.3</ele>
        <time>2019-02-03T13:28:03.000Z</time>
      </trkpt>
      <trkpt lat="42.91992" lon="0.58542">
        <ele>1459</ele>
        <time>2019-02-03T13:28:04.000Z</time>
      </trkpt>
      <trkpt lat="42.91992" lon="0.58541">
        <ele>1459</ele>
        <time>2019-02-03T13:28:05.000Z</time>
      </trkpt>
      <trkpt lat="42.91992" lon="0.5854">
        <ele>1458.7</ele>
        <time>2019-02-03T13:28:06.000Z</time>
      </trkpt>
      <trkpt lat="42.91992" lon="0.58539">
        <ele>1458.3</ele>
        <time>2019-02-03T13:28:07.000Z</time>
      </trkpt>
      <trkpt lat="42.91992" lon="0.58538">
        <ele>1458</ele>
        <time>2019-02-03T13:28:08.000Z</time>
      </trkpt>
      <trkpt lat="42.91992" lon="0.58538">
        <ele>1457.5</ele>
        <time>2019-02-03T13:28:09.000Z</time>
      </trkpt>
      <trkpt lat="42.91993" lon="0.58537">
        <ele>1457</ele>
        <time>2019-02-03T13:28:10.000Z</time>
      </trkpt>
      <trkpt lat="42.91993" lon="0.58536">
        <ele>1457</ele>
        <time>2019-02-03T13:28:11.000Z</time>
      </trkpt>
      <trkpt lat="42.91993" lon="0.58535">
        <ele>1456.5</ele>
        <time>2019-02-03T13:28:12.000Z</time>
      </trkpt>
      <trkpt lat="42.91994" lon="0.58534">
        <ele>1456</ele>
        <time>2019-02-03T13:28:13.000Z</time>
      </trkpt>
      <trkpt lat="42.91994" lon="0.58533">
        <ele>1455.7</ele>
        <time>2019-02-03T13:28:14.000Z</time>
      </trkpt>
      <trkpt lat="42.91995" lon="0.58532">
        <ele>1455.3</ele>
        <time>2019-02-03T13:28:15.000Z</time>
      </trkpt>
      <trkpt lat="42.91995" lon="0.58531">
        <ele>1455</ele>
        <time>2019-02-03T13:28:16.000Z</time>
      </trkpt>
      <trkpt lat="42.91996" lon="0.5853">
        <ele>1455</ele>
        <time>2019-02-03T13:28:17.000Z</time>
      </trkpt>
      <trkpt lat="42.91996" lon="0.58529">
        <ele>1454.7</ele>
        <time>2019-02-03T13:28:18.000Z</time>
      </trkpt>
      <trkpt lat="42.91997" lon="0.58528">
        <ele>1454.3</ele>
        <time>2019-02-03T13:28:19.000Z</time>
      </trkpt>
      <trkpt lat="42.91997" lon="0.58527">
        <ele>1454</ele>
        <time>2019-02-03T13:28:20.000Z</time>
      </trkpt>
      <trkpt lat="42.91998" lon="0.58526">
        <ele>1453.5</ele>
        <time>2019-02-03T13:28:21.000Z</time>
      </trkpt>
      <trkpt lat="42.91998" lon="0.58525">
        <ele>1453</ele>
        <time>2019-02-03T13:28:22.000Z</time>
      </trkpt>
      <trkpt lat="42.91998" lon="0.58524">
        <ele>1453</ele>
        <time>2019-02-03T13:28:23.000Z</time>
      </trkpt>
      <trkpt lat="42.91999" lon="0.58523">
        <ele>1453</ele>
        <time>2019-02-03T13:28:24.000Z</time>
      </trkpt>
      <trkpt lat="42.91999" lon="0.58522">
        <ele>1452</ele>
        <time>2019-02-03T13:28:25.000Z</time>
      </trkpt>
      <trkpt lat="42.92" lon="0.58521">
        <ele>1452</ele>
        <time>2019-02-03T13:28:26.000Z</time>
      </trkpt>
      <trkpt lat="42.92" lon="0.5852">
        <ele>1452</ele>
        <time>2019-02-03T13:28:27.000Z</time>
      </trkpt>
      <trkpt lat="42.92" lon="0.58519">
        <ele>1452</ele>
        <time>2019-02-03T13:28:28.000Z</time>
      </trkpt>
      <trkpt lat="42.92001" lon="0.58518">
        <ele>1451.5</ele>
        <time>2019-02-03T13:28:29.000Z</time>
      </trkpt>
      <trkpt lat="42.92001" lon="0.58518">
        <ele>1451</ele>
        <time>2019-02-03T13:28:30.000Z</time>
      </trkpt>
      <trkpt lat="42.92002" lon="0.58517">
        <ele>1450</ele>
        <time>2019-02-03T13:28:31.000Z</time>
      </trkpt>
      <trkpt lat="42.92002" lon="0.58516">
        <ele>1450</ele>
        <time>2019-02-03T13:28:32.000Z</time>
      </trkpt>
      <trkpt lat="42.92002" lon="0.58515">
        <ele>1450</ele>
        <time>2019-02-03T13:28:33.000Z</time>
      </trkpt>
      <trkpt lat="42.92003" lon="0.58515">
        <ele>1450</ele>
        <time>2019-02-03T13:28:34.000Z</time>
      </trkpt>
      <trkpt lat="42.92003" lon="0.58514">
        <ele>1449</ele>
        <time>2019-02-03T13:28:35.000Z</time>
      </trkpt>
      <trkpt lat="42.92003" lon="0.58514">
        <ele>1449</ele>
        <time>2019-02-03T13:28:36.000Z</time>
      </trkpt>
      <trkpt lat="42.92004" lon="0.58513">
        <ele>1449</ele>
        <time>2019-02-03T13:28:37.000Z</time>
      </trkpt>
      <trkpt lat="42.92004" lon="0.58513">
        <ele>1448.7</ele>
        <time>2019-02-03T13:28:38.000Z</time>
      </trkpt>
      <trkpt lat="42.92005" lon="0.58512">
        <ele>1448.3</ele>
        <time>2019-02-03T13:28:39.000Z</time>
      </trkpt>
      <trkpt lat="42.92005" lon="0.58512">
        <ele>1448</ele>
        <time>2019-02-03T13:28:40.000Z</time>
      </trkpt>
      <trkpt lat="42.92006" lon="0.58511">
        <ele>1448</ele>
        <time>2019-02-03T13:28:41.000Z</time>
      </trkpt>
      <trkpt lat="42.92006" lon="0.58511">
        <ele>1448</ele>
        <time>2019-02-03T13:28:42.000Z</time>
      </trkpt>
      <trkpt lat="42.92007" lon="0.5851">
        <ele>1447.5</ele>
        <time>2019-02-03T13:28:43.000Z</time>
      </trkpt>
      <trkpt lat="42.92007" lon="0.58509">
        <ele>1447</ele>
        <time>2019-02-03T13:28:44.000Z</time>
      </trkpt>
      <trkpt lat="42.92008" lon="0.58509">
        <ele>1446.5</ele>
        <time>2019-02-03T13:28:45.000Z</time>
      </trkpt>
      <trkpt lat="42.92009" lon="0.58508">
        <ele>1446</ele>
        <time>2019-02-03T13:28:46.000Z</time>
      </trkpt>
      <trkpt lat="42.92009" lon="0.58507">
        <ele>1446</ele>
        <time>2019-02-03T13:28:47.000Z</time>
      </trkpt>
      <trkpt lat="42.9201" lon="0.58507">
        <ele>1446</ele>
        <time>2019-02-03T13:28:48.000Z</time>
      </trkpt>
      <trkpt lat="42.92011" lon="0.58506">
        <ele>1445</ele>
        <time>2019-02-03T13:28:49.000Z</time>
      </trkpt>
      <trkpt lat="42.92011" lon="0.58505">
        <ele>1444.7</ele>
        <time>2019-02-03T13:28:50.000Z</time>
      </trkpt>
      <trkpt lat="42.92012" lon="0.58505">
        <ele>1444.3</ele>
        <time>2019-02-03T13:28:51.000Z</time>
      </trkpt>
      <trkpt lat="42.92012" lon="0.58504">
        <ele>1444</ele>
        <time>2019-02-03T13:28:52.000Z</time>
      </trkpt>
      <trkpt lat="42.92013" lon="0.58503">
        <ele>1444</ele>
        <time>2019-02-03T13:28:53.000Z</time>
      </trkpt>
      <trkpt lat="42.92014" lon="0.58503">
        <ele>1443.7</ele>
        <time>2019-02-03T13:28:54.000Z</time>
      </trkpt>
      <trkpt lat="42.92014" lon="0.58502">
        <ele>1443.3</ele>
        <time>2019-02-03T13:28:55.000Z</time>
      </trkpt>
      <trkpt lat="42.92015" lon="0.58501">
        <ele>1443</ele>
        <time>2019-02-03T13:28:56.000Z</time>
      </trkpt>
      <trkpt lat="42.92015" lon="0.58501">
        <ele>1442.5</ele>
        <time>2019-02-03T13:28:57.000Z</time>
      </trkpt>
      <trkpt lat="42.92016" lon="0.585">
        <ele>1442</ele>
        <time>2019-02-03T13:28:58.000Z</time>
      </trkpt>
      <trkpt lat="42.92016" lon="0.585">
        <ele>1442</ele>
        <time>2019-02-03T13:28:59.000Z</time>
      </trkpt>
      <trkpt lat="42.92017" lon="0.585">
        <ele>1441.7</ele>
        <time>2019-02-03T13:29:00.000Z</time>
      </trkpt>
      <trkpt lat="42.92017" lon="0.58499">
        <ele>1441.3</ele>
        <time>2019-02-03T13:29:01.000Z</time>
      </trkpt>
      <trkpt lat="42.92017" lon="0.58499">
        <ele>1441</ele>
        <time>2019-02-03T13:29:02.000Z</time>
      </trkpt>
      <trkpt lat="42.92018" lon="0.58498">
        <ele>1440.5</ele>
        <time>2019-02-03T13:29:03.000Z</time>
      </trkpt>
      <trkpt lat="42.92018" lon="0.58498">
        <ele>1440</ele>
        <time>2019-02-03T13:29:04.000Z</time>
      </trkpt>
      <trkpt lat="42.92019" lon="0.58497">
        <ele>1440</ele>
        <time>2019-02-03T13:29:05.000Z</time>
      </trkpt>
      <trkpt lat="42.92019" lon="0.58497">
        <ele>1440</ele>
        <time>2019-02-03T13:29:06.000Z</time>
      </trkpt>
      <trkpt lat="42.92019" lon="0.58496">
        <ele>1440</ele>
        <time>2019-02-03T13:29:07.000Z</time>
      </trkpt>
      <trkpt lat="42.9202" lon="0.58495">
        <ele>1440</ele>
        <time>2019-02-03T13:29:08.000Z</time>
      </trkpt>
      <trkpt lat="42.92021" lon="0.58495">
        <ele>1439.5</ele>
        <time>2019-02-03T13:29:09.000Z</time>
      </trkpt>
      <trkpt lat="42.92021" lon="0.58494">
        <ele>1439</ele>
        <time>2019-02-03T13:29:10.000Z</time>
      </trkpt>
      <trkpt lat="42.92022" lon="0.58494">
        <ele>1439</ele>
        <time>2019-02-03T13:29:11.000Z</time>
      </trkpt>
      <trkpt lat="42.92022" lon="0.58493">
        <ele>1438.7</ele>
        <time>2019-02-03T13:29:12.000Z</time>
      </trkpt>
      <trkpt lat="42.92023" lon="0.58493">
        <ele>1438.3</ele>
        <time>2019-02-03T13:29:13.000Z</time>
      </trkpt>
      <trkpt lat="42.92024" lon="0.58493">
        <ele>1438</ele>
        <time>2019-02-03T13:29:14.000Z</time>
      </trkpt>
      <trkpt lat="42.92024" lon="0.58492">
        <ele>1438</ele>
        <time>2019-02-03T13:29:15.000Z</time>
      </trkpt>
      <trkpt lat="42.92024" lon="0.58492">
        <ele>1438</ele>
        <time>2019-02-03T13:29:16.000Z</time>
      </trkpt>
      <trkpt lat="42.92024" lon="0.58491">
        <ele>1437.5</ele>
        <time>2019-02-03T13:29:17.000Z</time>
      </trkpt>
      <trkpt lat="42.92024" lon="0.58491">
        <ele>1437</ele>
        <time>2019-02-03T13:29:18.000Z</time>
      </trkpt>
      <trkpt lat="42.92024" lon="0.58491">
        <ele>1437</ele>
        <time>2019-02-03T13:29:19.000Z</time>
      </trkpt>
      <trkpt lat="42.92024" lon="0.58491">
        <ele>1437</ele>
        <time>2019-02-03T13:29:20.000Z</time>
      </trkpt>
      <trkpt lat="42.92024" lon="0.5849">
        <ele>1436.5</ele>
        <time>2019-02-03T13:29:21.000Z</time>
      </trkpt>
      <trkpt lat="42.92024" lon="0.5849">
        <ele>1436</ele>
        <time>2019-02-03T13:29:22.000Z</time>
      </trkpt>
      <trkpt lat="42.92024" lon="0.5849">
        <ele>1436</ele>
        <time>2019-02-03T13:29:23.000Z</time>
      </trkpt>
      <trkpt lat="42.92024" lon="0.58489">
        <ele>1435.5</ele>
        <time>2019-02-03T13:29:24.000Z</time>
      </trkpt>
      <trkpt lat="42.92024" lon="0.58488">
        <ele>1435</ele>
        <time>2019-02-03T13:29:25.000Z</time>
      </trkpt>
      <trkpt lat="42.92024" lon="0.58486">
        <ele>1435</ele>
        <time>2019-02-03T13:29:26.000Z</time>
      </trkpt>
      <trkpt lat="42.92024" lon="0.58486">
        <ele>1435</ele>
        <time>2019-02-03T13:29:27.000Z</time>
      </trkpt>
      <trkpt lat="42.92024" lon="0.58486">
        <ele>1435</ele>
        <time>2019-02-03T13:29:28.000Z</time>
      </trkpt>
      <trkpt lat="42.92024" lon="0.58485">
        <ele>1435</ele>
        <time>2019-02-03T13:29:29.000Z</time>
      </trkpt>
      <trkpt lat="42.92024" lon="0.58485">
        <ele>1434.7</ele>
        <time>2019-02-03T13:29:30.000Z</time>
      </trkpt>
      <trkpt lat="42.92025" lon="0.58484">
        <ele>1434.3</ele>
        <time>2019-02-03T13:29:31.000Z</time>
      </trkpt>
      <trkpt lat="42.92025" lon="0.58483">
        <ele>1434</ele>
        <time>2019-02-03T13:29:32.000Z</time>
      </trkpt>
      <trkpt lat="42.92025" lon="0.58482">
        <ele>1433</ele>
        <time>2019-02-03T13:29:33.000Z</time>
      </trkpt>
      <trkpt lat="42.92025" lon="0.58481">
        <ele>1433</ele>
        <time>2019-02-03T13:29:34.000Z</time>
      </trkpt>
      <trkpt lat="42.92025" lon="0.5848">
        <ele>1433</ele>
        <time>2019-02-03T13:29:35.000Z</time>
      </trkpt>
      <trkpt lat="42.92025" lon="0.58479">
        <ele>1433</ele>
        <time>2019-02-03T13:29:36.000Z</time>
      </trkpt>
      <trkpt lat="42.92025" lon="0.58478">
        <ele>1432.5</ele>
        <time>2019-02-03T13:29:37.000Z</time>
      </trkpt>
      <trkpt lat="42.92025" lon="0.58478">
        <ele>1432</ele>
        <time>2019-02-03T13:29:38.000Z</time>
      </trkpt>
      <trkpt lat="42.92025" lon="0.58477">
        <ele>1431.5</ele>
        <time>2019-02-03T13:29:39.000Z</time>
      </trkpt>
      <trkpt lat="42.92025" lon="0.58476">
        <ele>1431</ele>
        <time>2019-02-03T13:29:40.000Z</time>
      </trkpt>
      <trkpt lat="42.92025" lon="0.58475">
        <ele>1431</ele>
        <time>2019-02-03T13:29:41.000Z</time>
      </trkpt>
      <trkpt lat="42.92025" lon="0.58474">
        <ele>1431</ele>
        <time>2019-02-03T13:29:42.000Z</time>
      </trkpt>
      <trkpt lat="42.92024" lon="0.58473">
        <ele>1431</ele>
        <time>2019-02-03T13:29:43.000Z</time>
      </trkpt>
      <trkpt lat="42.92024" lon="0.58472">
        <ele>1431</ele>
        <time>2019-02-03T13:29:44.000Z</time>
      </trkpt>
      <trkpt lat="42.92024" lon="0.58472">
        <ele>1430.5</ele>
        <time>2019-02-03T13:29:45.000Z</time>
      </trkpt>
      <trkpt lat="42.92023" lon="0.58471">
        <ele>1430</ele>
        <time>2019-02-03T13:29:46.000Z</time>
      </trkpt>
      <trkpt lat="42.92022" lon="0.58471">
        <ele>1430</ele>
        <time>2019-02-03T13:29:47.000Z</time>
      </trkpt>
      <trkpt lat="42.92022" lon="0.58471">
        <ele>1430</ele>
        <time>2019-02-03T13:29:48.000Z</time>
      </trkpt>
      <trkpt lat="42.92021" lon="0.58471">
        <ele>1430</ele>
        <time>2019-02-03T13:29:49.000Z</time>
      </trkpt>
      <trkpt lat="42.92021" lon="0.5847">
        <ele>1430</ele>
        <time>2019-02-03T13:29:50.000Z</time>
      </trkpt>
      <trkpt lat="42.92021" lon="0.58469">
        <ele>1430</ele>
        <time>2019-02-03T13:29:51.000Z</time>
      </trkpt>
      <trkpt lat="42.92021" lon="0.58469">
        <ele>1430</ele>
        <time>2019-02-03T13:29:52.000Z</time>
      </trkpt>
      <trkpt lat="42.92021" lon="0.58468">
        <ele>1430</ele>
        <time>2019-02-03T13:29:53.000Z</time>
      </trkpt>
      <trkpt lat="42.92021" lon="0.58467">
        <ele>1430</ele>
        <time>2019-02-03T13:29:54.000Z</time>
      </trkpt>
      <trkpt lat="42.92021" lon="0.58467">
        <ele>1430</ele>
        <time>2019-02-03T13:29:55.000Z</time>
      </trkpt>
      <trkpt lat="42.92021" lon="0.58466">
        <ele>1430</ele>
        <time>2019-02-03T13:29:56.000Z</time>
      </trkpt>
      <trkpt lat="42.92021" lon="0.58466">
        <ele>1429.5</ele>
        <time>2019-02-03T13:29:57.000Z</time>
      </trkpt>
      <trkpt lat="42.92021" lon="0.58465">
        <ele>1429</ele>
        <time>2019-02-03T13:29:58.000Z</time>
      </trkpt>
      <trkpt lat="42.9202" lon="0.58465">
        <ele>1429</ele>
        <time>2019-02-03T13:29:59.000Z</time>
      </trkpt>
      <trkpt lat="42.9202" lon="0.58464">
        <ele>1429</ele>
        <time>2019-02-03T13:30:00.000Z</time>
      </trkpt>
      <trkpt lat="42.9202" lon="0.58464">
        <ele>1429</ele>
        <time>2019-02-03T13:30:01.000Z</time>
      </trkpt>
      <trkpt lat="42.9202" lon="0.58464">
        <ele>1429</ele>
        <time>2019-02-03T13:30:02.000Z</time>
      </trkpt>
      <trkpt lat="42.9202" lon="0.58463">
        <ele>1429</ele>
        <time>2019-02-03T13:30:03.000Z</time>
      </trkpt>
      <trkpt lat="42.9202" lon="0.58463">
        <ele>1429</ele>
        <time>2019-02-03T13:30:04.000Z</time>
      </trkpt>
      <trkpt lat="42.9202" lon="0.58463">
        <ele>1428.5</ele>
        <time>2019-02-03T13:30:05.000Z</time>
      </trkpt>
      <trkpt lat="42.9202" lon="0.58463">
        <ele>1428</ele>
        <time>2019-02-03T13:30:06.000Z</time>
      </trkpt>
      <trkpt lat="42.9202" lon="0.58463">
        <ele>1428</ele>
        <time>2019-02-03T13:30:07.000Z</time>
      </trkpt>
      <trkpt lat="42.9202" lon="0.58463">
        <ele>1428</ele>
        <time>2019-02-03T13:30:08.000Z</time>
      </trkpt>
      <trkpt lat="42.9202" lon="0.58463">
        <ele>1428</ele>
        <time>2019-02-03T13:30:09.000Z</time>
      </trkpt>
      <trkpt lat="42.9202" lon="0.58463">
        <ele>1428</ele>
        <time>2019-02-03T13:30:10.000Z</time>
      </trkpt>
      <trkpt lat="42.9202" lon="0.58463">
        <ele>1428</ele>
        <time>2019-02-03T13:30:11.000Z</time>
      </trkpt>
      <trkpt lat="42.9202" lon="0.58463">
        <ele>1428</ele>
        <time>2019-02-03T13:30:12.000Z</time>
      </trkpt>
      <trkpt lat="42.9202" lon="0.58463">
        <ele>1428</ele>
        <time>2019-02-03T13:30:13.000Z</time>
      </trkpt>
      <trkpt lat="42.9202" lon="0.58463">
        <ele>1428</ele>
        <time>2019-02-03T13:30:14.000Z</time>
      </trkpt>
      <trkpt lat="42.9202" lon="0.58463">
        <ele>1428</ele>
        <time>2019-02-03T13:30:15.000Z</time>
      </trkpt>
      <trkpt lat="42.9202" lon="0.58463">
        <ele>1428</ele>
        <time>2019-02-03T13:30:16.000Z</time>
      </trkpt>
      <trkpt lat="42.9202" lon="0.58463">
        <ele>1428</ele>
        <time>2019-02-03T13:30:17.000Z</time>
      </trkpt>
      <trkpt lat="42.9202" lon="0.58463">
        <ele>1428</ele>
        <time>2019-02-03T13:30:18.000Z</time>
      </trkpt>
      <trkpt lat="42.9202" lon="0.58463">
        <ele>1428</ele>
        <time>2019-02-03T13:30:19.000Z</time>
      </trkpt>
      <trkpt lat="42.9202" lon="0.58463">
        <ele>1428</ele>
        <time>2019-02-03T13:30:20.000Z</time>
      </trkpt>
      <trkpt lat="42.92019" lon="0.58463">
        <ele>1428</ele>
        <time>2019-02-03T13:30:21.000Z</time>
      </trkpt>
      <trkpt lat="42.92019" lon="0.58463">
        <ele>1428</ele>
        <time>2019-02-03T13:30:22.000Z</time>
      </trkpt>
      <trkpt lat="42.92019" lon="0.58462">
        <ele>1428</ele>
        <time>2019-02-03T13:30:23.000Z</time>
      </trkpt>
      <trkpt lat="42.92019" lon="0.58462">
        <ele>1428</ele>
        <time>2019-02-03T13:30:24.000Z</time>
      </trkpt>
      <trkpt lat="42.92019" lon="0.58462">
        <ele>1427</ele>
        <time>2019-02-03T13:30:25.000Z</time>
      </trkpt>
      <trkpt lat="42.92018" lon="0.58461">
        <ele>1427</ele>
        <time>2019-02-03T13:30:26.000Z</time>
      </trkpt>
      <trkpt lat="42.92017" lon="0.58461">
        <ele>1427</ele>
        <time>2019-02-03T13:30:27.000Z</time>
      </trkpt>
      <trkpt lat="42.92016" lon="0.5846">
        <ele>1427</ele>
        <time>2019-02-03T13:30:28.000Z</time>
      </trkpt>
      <trkpt lat="42.92015" lon="0.58459">
        <ele>1427</ele>
        <time>2019-02-03T13:30:29.000Z</time>
      </trkpt>
      <trkpt lat="42.92014" lon="0.58458">
        <ele>1427</ele>
        <time>2019-02-03T13:30:30.000Z</time>
      </trkpt>
      <trkpt lat="42.92013" lon="0.58457">
        <ele>1426.5</ele>
        <time>2019-02-03T13:30:31.000Z</time>
      </trkpt>
      <trkpt lat="42.92013" lon="0.58456">
        <ele>1426</ele>
        <time>2019-02-03T13:30:32.000Z</time>
      </trkpt>
      <trkpt lat="42.92012" lon="0.58455">
        <ele>1426</ele>
        <time>2019-02-03T13:30:33.000Z</time>
      </trkpt>
      <trkpt lat="42.92012" lon="0.58455">
        <ele>1426</ele>
        <time>2019-02-03T13:30:34.000Z</time>
      </trkpt>
      <trkpt lat="42.92012" lon="0.58455">
        <ele>1426</ele>
        <time>2019-02-03T13:30:35.000Z</time>
      </trkpt>
      <trkpt lat="42.92011" lon="0.58454">
        <ele>1426</ele>
        <time>2019-02-03T13:30:36.000Z</time>
      </trkpt>
      <trkpt lat="42.92011" lon="0.58454">
        <ele>1426</ele>
        <time>2019-02-03T13:30:37.000Z</time>
      </trkpt>
      <trkpt lat="42.92011" lon="0.58454">
        <ele>1426</ele>
        <time>2019-02-03T13:30:38.000Z</time>
      </trkpt>
      <trkpt lat="42.9201" lon="0.58454">
        <ele>1425</ele>
        <time>2019-02-03T13:30:39.000Z</time>
      </trkpt>
      <trkpt lat="42.9201" lon="0.58453">
        <ele>1425</ele>
        <time>2019-02-03T13:30:40.000Z</time>
      </trkpt>
      <trkpt lat="42.92009" lon="0.58453">
        <ele>1425</ele>
        <time>2019-02-03T13:30:41.000Z</time>
      </trkpt>
      <trkpt lat="42.92008" lon="0.58453">
        <ele>1425</ele>
        <time>2019-02-03T13:30:42.000Z</time>
      </trkpt>
      <trkpt lat="42.92008" lon="0.58452">
        <ele>1425</ele>
        <time>2019-02-03T13:30:43.000Z</time>
      </trkpt>
      <trkpt lat="42.92007" lon="0.58451">
        <ele>1425</ele>
        <time>2019-02-03T13:30:44.000Z</time>
      </trkpt>
      <trkpt lat="42.92007" lon="0.5845">
        <ele>1425</ele>
        <time>2019-02-03T13:30:45.000Z</time>
      </trkpt>
      <trkpt lat="42.92006" lon="0.58449">
        <ele>1425</ele>
        <time>2019-02-03T13:30:46.000Z</time>
      </trkpt>
      <trkpt lat="42.92005" lon="0.58448">
        <ele>1424.5</ele>
        <time>2019-02-03T13:30:47.000Z</time>
      </trkpt>
      <trkpt lat="42.92005" lon="0.58447">
        <ele>1424</ele>
        <time>2019-02-03T13:30:48.000Z</time>
      </trkpt>
      <trkpt lat="42.92005" lon="0.58447">
        <ele>1424</ele>
        <time>2019-02-03T13:30:49.000Z</time>
      </trkpt>
      <trkpt lat="42.92005" lon="0.58446">
        <ele>1424</ele>
        <time>2019-02-03T13:30:50.000Z</time>
      </trkpt>
      <trkpt lat="42.92004" lon="0.58445">
        <ele>1424</ele>
        <time>2019-02-03T13:30:51.000Z</time>
      </trkpt>
      <trkpt lat="42.92004" lon="0.58445">
        <ele>1424</ele>
        <time>2019-02-03T13:30:52.000Z</time>
      </trkpt>
      <trkpt lat="42.92004" lon="0.58444">
        <ele>1424</ele>
        <time>2019-02-03T13:30:53.000Z</time>
      </trkpt>
      <trkpt lat="42.92004" lon="0.58443">
        <ele>1424</ele>
        <time>2019-02-03T13:30:54.000Z</time>
      </trkpt>
      <trkpt lat="42.92004" lon="0.58443">
        <ele>1423.5</ele>
        <time>2019-02-03T13:30:55.000Z</time>
      </trkpt>
      <trkpt lat="42.92004" lon="0.58442">
        <ele>1423</ele>
        <time>2019-02-03T13:30:56.000Z</time>
      </trkpt>
      <trkpt lat="42.92004" lon="0.58441">
        <ele>1423</ele>
        <time>2019-02-03T13:30:57.000Z</time>
      </trkpt>
      <trkpt lat="42.92004" lon="0.5844">
        <ele>1423</ele>
        <time>2019-02-03T13:30:58.000Z</time>
      </trkpt>
      <trkpt lat="42.92004" lon="0.5844">
        <ele>1423</ele>
        <time>2019-02-03T13:30:59.000Z</time>
      </trkpt>
      <trkpt lat="42.92004" lon="0.58439">
        <ele>1423</ele>
        <time>2019-02-03T13:31:00.000Z</time>
      </trkpt>
      <trkpt lat="42.92004" lon="0.58437">
        <ele>1422.5</ele>
        <time>2019-02-03T13:31:01.000Z</time>
      </trkpt>
      <trkpt lat="42.92003" lon="0.58436">
        <ele>1422</ele>
        <time>2019-02-03T13:31:02.000Z</time>
      </trkpt>
      <trkpt lat="42.92003" lon="0.58435">
        <ele>1422</ele>
        <time>2019-02-03T13:31:03.000Z</time>
      </trkpt>
      <trkpt lat="42.92003" lon="0.58434">
        <ele>1422</ele>
        <time>2019-02-03T13:31:04.000Z</time>
      </trkpt>
      <trkpt lat="42.92002" lon="0.58432">
        <ele>1422</ele>
        <time>2019-02-03T13:31:05.000Z</time>
      </trkpt>
      <trkpt lat="42.92002" lon="0.58431">
        <ele>1422</ele>
        <time>2019-02-03T13:31:06.000Z</time>
      </trkpt>
      <trkpt lat="42.92001" lon="0.5843">
        <ele>1422</ele>
        <time>2019-02-03T13:31:07.000Z</time>
      </trkpt>
      <trkpt lat="42.92001" lon="0.58429">
        <ele>1422</ele>
        <time>2019-02-03T13:31:08.000Z</time>
      </trkpt>
      <trkpt lat="42.92001" lon="0.58428">
        <ele>1422</ele>
        <time>2019-02-03T13:31:09.000Z</time>
      </trkpt>
      <trkpt lat="42.92" lon="0.58427">
        <ele>1422</ele>
        <time>2019-02-03T13:31:10.000Z</time>
      </trkpt>
      <trkpt lat="42.92" lon="0.58427">
        <ele>1421</ele>
        <time>2019-02-03T13:31:11.000Z</time>
      </trkpt>
      <trkpt lat="42.92" lon="0.58426">
        <ele>1421</ele>
        <time>2019-02-03T13:31:12.000Z</time>
      </trkpt>
      <trkpt lat="42.92" lon="0.58425">
        <ele>1421</ele>
        <time>2019-02-03T13:31:13.000Z</time>
      </trkpt>
      <trkpt lat="42.92" lon="0.58424">
        <ele>1421</ele>
        <time>2019-02-03T13:31:14.000Z</time>
      </trkpt>
      <trkpt lat="42.91999" lon="0.58424">
        <ele>1421</ele>
        <time>2019-02-03T13:31:15.000Z</time>
      </trkpt>
      <trkpt lat="42.91999" lon="0.58423">
        <ele>1421</ele>
        <time>2019-02-03T13:31:16.000Z</time>
      </trkpt>
      <trkpt lat="42.91999" lon="0.58422">
        <ele>1421</ele>
        <time>2019-02-03T13:31:17.000Z</time>
      </trkpt>
      <trkpt lat="42.91998" lon="0.58421">
        <ele>1421</ele>
        <time>2019-02-03T13:31:18.000Z</time>
      </trkpt>
      <trkpt lat="42.91998" lon="0.5842">
        <ele>1420.5</ele>
        <time>2019-02-03T13:31:19.000Z</time>
      </trkpt>
      <trkpt lat="42.91998" lon="0.58419">
        <ele>1420</ele>
        <time>2019-02-03T13:31:20.000Z</time>
      </trkpt>
      <trkpt lat="42.91998" lon="0.58418">
        <ele>1420</ele>
        <time>2019-02-03T13:31:21.000Z</time>
      </trkpt>
      <trkpt lat="42.91997" lon="0.58418">
        <ele>1420</ele>
        <time>2019-02-03T13:31:22.000Z</time>
      </trkpt>
      <trkpt lat="42.91997" lon="0.58417">
        <ele>1420</ele>
        <time>2019-02-03T13:31:23.000Z</time>
      </trkpt>
      <trkpt lat="42.91997" lon="0.58416">
        <ele>1420</ele>
        <time>2019-02-03T13:31:24.000Z</time>
      </trkpt>
      <trkpt lat="42.91996" lon="0.58416">
        <ele>1420</ele>
        <time>2019-02-03T13:31:25.000Z</time>
      </trkpt>
      <trkpt lat="42.91996" lon="0.58415">
        <ele>1420</ele>
        <time>2019-02-03T13:31:26.000Z</time>
      </trkpt>
      <trkpt lat="42.91996" lon="0.58415">
        <ele>1420</ele>
        <time>2019-02-03T13:31:27.000Z</time>
      </trkpt>
      <trkpt lat="42.91995" lon="0.58414">
        <ele>1420</ele>
        <time>2019-02-03T13:31:28.000Z</time>
      </trkpt>
      <trkpt lat="42.91995" lon="0.58414">
        <ele>1420</ele>
        <time>2019-02-03T13:31:29.000Z</time>
      </trkpt>
      <trkpt lat="42.91994" lon="0.58413">
        <ele>1420</ele>
        <time>2019-02-03T13:31:30.000Z</time>
      </trkpt>
      <trkpt lat="42.91993" lon="0.58412">
        <ele>1420</ele>
        <time>2019-02-03T13:31:31.000Z</time>
      </trkpt>
      <trkpt lat="42.91992" lon="0.58412">
        <ele>1420.3</ele>
        <time>2019-02-03T13:31:32.000Z</time>
      </trkpt>
      <trkpt lat="42.91991" lon="0.58411">
        <ele>1420.7</ele>
        <time>2019-02-03T13:31:33.000Z</time>
      </trkpt>
      <trkpt lat="42.91991" lon="0.5841">
        <ele>1421</ele>
        <time>2019-02-03T13:31:34.000Z</time>
      </trkpt>
      <trkpt lat="42.9199" lon="0.5841">
        <ele>1421</ele>
        <time>2019-02-03T13:31:35.000Z</time>
      </trkpt>
      <trkpt lat="42.91989" lon="0.58409">
        <ele>1421</ele>
        <time>2019-02-03T13:31:36.000Z</time>
      </trkpt>
      <trkpt lat="42.91989" lon="0.58409">
        <ele>1421</ele>
        <time>2019-02-03T13:31:37.000Z</time>
      </trkpt>
      <trkpt lat="42.91988" lon="0.58408">
        <ele>1421</ele>
        <time>2019-02-03T13:31:38.000Z</time>
      </trkpt>
      <trkpt lat="42.91987" lon="0.58408">
        <ele>1420.5</ele>
        <time>2019-02-03T13:31:39.000Z</time>
      </trkpt>
      <trkpt lat="42.91987" lon="0.58407">
        <ele>1420</ele>
        <time>2019-02-03T13:31:40.000Z</time>
      </trkpt>
      <trkpt lat="42.91986" lon="0.58407">
        <ele>1420</ele>
        <time>2019-02-03T13:31:41.000Z</time>
      </trkpt>
      <trkpt lat="42.91985" lon="0.58406">
        <ele>1420</ele>
        <time>2019-02-03T13:31:42.000Z</time>
      </trkpt>
      <trkpt lat="42.91984" lon="0.58406">
        <ele>1420</ele>
        <time>2019-02-03T13:31:43.000Z</time>
      </trkpt>
      <trkpt lat="42.91983" lon="0.58405">
        <ele>1420</ele>
        <time>2019-02-03T13:31:44.000Z</time>
      </trkpt>
      <trkpt lat="42.91983" lon="0.58405">
        <ele>1420</ele>
        <time>2019-02-03T13:31:45.000Z</time>
      </trkpt>
      <trkpt lat="42.91982" lon="0.58404">
        <ele>1420</ele>
        <time>2019-02-03T13:31:46.000Z</time>
      </trkpt>
      <trkpt lat="42.91981" lon="0.58404">
        <ele>1420</ele>
        <time>2019-02-03T13:31:47.000Z</time>
      </trkpt>
      <trkpt lat="42.9198" lon="0.58403">
        <ele>1420</ele>
        <time>2019-02-03T13:31:48.000Z</time>
      </trkpt>
      <trkpt lat="42.91979" lon="0.58403">
        <ele>1420</ele>
        <time>2019-02-03T13:31:49.000Z</time>
      </trkpt>
      <trkpt lat="42.91979" lon="0.58402">
        <ele>1420</ele>
        <time>2019-02-03T13:31:50.000Z</time>
      </trkpt>
      <trkpt lat="42.91978" lon="0.58402">
        <ele>1420.5</ele>
        <time>2019-02-03T13:31:51.000Z</time>
      </trkpt>
      <trkpt lat="42.91977" lon="0.58401">
        <ele>1421</ele>
        <time>2019-02-03T13:31:52.000Z</time>
      </trkpt>
      <trkpt lat="42.91977" lon="0.58401">
        <ele>1421</ele>
        <time>2019-02-03T13:31:53.000Z</time>
      </trkpt>
      <trkpt lat="42.91976" lon="0.58401">
        <ele>1421</ele>
        <time>2019-02-03T13:31:54.000Z</time>
      </trkpt>
      <trkpt lat="42.91975" lon="0.584">
        <ele>1421</ele>
        <time>2019-02-03T13:31:55.000Z</time>
      </trkpt>
      <trkpt lat="42.91975" lon="0.584">
        <ele>1421</ele>
        <time>2019-02-03T13:31:56.000Z</time>
      </trkpt>
      <trkpt lat="42.91974" lon="0.584">
        <ele>1421</ele>
        <time>2019-02-03T13:31:57.000Z</time>
      </trkpt>
      <trkpt lat="42.91974" lon="0.584">
        <ele>1421</ele>
        <time>2019-02-03T13:31:58.000Z</time>
      </trkpt>
      <trkpt lat="42.91973" lon="0.584">
        <ele>1421</ele>
        <time>2019-02-03T13:31:59.000Z</time>
      </trkpt>
      <trkpt lat="42.91973" lon="0.584">
        <ele>1421</ele>
        <time>2019-02-03T13:32:00.000Z</time>
      </trkpt>
      <trkpt lat="42.91973" lon="0.584">
        <ele>1421</ele>
        <time>2019-02-03T13:32:01.000Z</time>
      </trkpt>
      <trkpt lat="42.91973" lon="0.584">
        <ele>1421</ele>
        <time>2019-02-03T13:32:02.000Z</time>
      </trkpt>
      <trkpt lat="42.91973" lon="0.584">
        <ele>1421</ele>
        <time>2019-02-03T13:32:03.000Z</time>
      </trkpt>
      <trkpt lat="42.91973" lon="0.584">
        <ele>1421</ele>
        <time>2019-02-03T13:32:04.000Z</time>
      </trkpt>
      <trkpt lat="42.91973" lon="0.584">
        <ele>1421</ele>
        <time>2019-02-03T13:32:05.000Z</time>
      </trkpt>
      <trkpt lat="42.91973" lon="0.584">
        <ele>1421</ele>
        <time>2019-02-03T13:32:06.000Z</time>
      </trkpt>
      <trkpt lat="42.91973" lon="0.584">
        <ele>1421</ele>
        <time>2019-02-03T13:32:07.000Z</time>
      </trkpt>
      <trkpt lat="42.91973" lon="0.584">
        <ele>1421</ele>
        <time>2019-02-03T13:32:08.000Z</time>
      </trkpt>
      <trkpt lat="42.91973" lon="0.58399">
        <ele>1421</ele>
        <time>2019-02-03T13:32:09.000Z</time>
      </trkpt>
      <trkpt lat="42.91973" lon="0.58399">
        <ele>1421</ele>
        <time>2019-02-03T13:32:10.000Z</time>
      </trkpt>
      <trkpt lat="42.91973" lon="0.58399">
        <ele>1421</ele>
        <time>2019-02-03T13:32:11.000Z</time>
      </trkpt>
      <trkpt lat="42.91972" lon="0.58399">
        <ele>1421</ele>
        <time>2019-02-03T13:32:12.000Z</time>
      </trkpt>
      <trkpt lat="42.91972" lon="0.58399">
        <ele>1421</ele>
        <time>2019-02-03T13:32:13.000Z</time>
      </trkpt>
      <trkpt lat="42.91972" lon="0.58399">
        <ele>1421</ele>
        <time>2019-02-03T13:32:14.000Z</time>
      </trkpt>
      <trkpt lat="42.91972" lon="0.58399">
        <ele>1421</ele>
        <time>2019-02-03T13:32:15.000Z</time>
      </trkpt>
      <trkpt lat="42.91971" lon="0.58399">
        <ele>1421</ele>
        <time>2019-02-03T13:32:16.000Z</time>
      </trkpt>
      <trkpt lat="42.91971" lon="0.58399">
        <ele>1421</ele>
        <time>2019-02-03T13:32:17.000Z</time>
      </trkpt>
      <trkpt lat="42.91971" lon="0.58398">
        <ele>1421</ele>
        <time>2019-02-03T13:32:18.000Z</time>
      </trkpt>
      <trkpt lat="42.91971" lon="0.58398">
        <ele>1421</ele>
        <time>2019-02-03T13:32:19.000Z</time>
      </trkpt>
      <trkpt lat="42.91971" lon="0.58398">
        <ele>1420.7</ele>
        <time>2019-02-03T13:32:20.000Z</time>
      </trkpt>
      <trkpt lat="42.91971" lon="0.58398">
        <ele>1420.3</ele>
        <time>2019-02-03T13:32:21.000Z</time>
      </trkpt>
      <trkpt lat="42.91971" lon="0.58398">
        <ele>1420</ele>
        <time>2019-02-03T13:32:22.000Z</time>
      </trkpt>
      <trkpt lat="42.91971" lon="0.58398">
        <ele>1420</ele>
        <time>2019-02-03T13:32:23.000Z</time>
      </trkpt>
      <trkpt lat="42.91971" lon="0.58398">
        <ele>1420</ele>
        <time>2019-02-03T13:32:24.000Z</time>
      </trkpt>
      <trkpt lat="42.91971" lon="0.58398">
        <ele>1420.5</ele>
        <time>2019-02-03T13:32:25.000Z</time>
      </trkpt>
      <trkpt lat="42.91971" lon="0.58398">
        <ele>1421</ele>
        <time>2019-02-03T13:32:26.000Z</time>
      </trkpt>
      <trkpt lat="42.9197" lon="0.58398">
        <ele>1421</ele>
        <time>2019-02-03T13:32:27.000Z</time>
      </trkpt>
      <trkpt lat="42.9197" lon="0.58398">
        <ele>1421</ele>
        <time>2019-02-03T13:32:28.000Z</time>
      </trkpt>
      <trkpt lat="42.9197" lon="0.58398">
        <ele>1421</ele>
        <time>2019-02-03T13:32:29.000Z</time>
      </trkpt>
      <trkpt lat="42.9197" lon="0.58398">
        <ele>1421</ele>
        <time>2019-02-03T13:32:30.000Z</time>
      </trkpt>
      <trkpt lat="42.9197" lon="0.58398">
        <ele>1421</ele>
        <time>2019-02-03T13:32:31.000Z</time>
      </trkpt>
      <trkpt lat="42.9197" lon="0.58398">
        <ele>1421</ele>
        <time>2019-02-03T13:32:32.000Z</time>
      </trkpt>
      <trkpt lat="42.9197" lon="0.58398">
        <ele>1421</ele>
        <time>2019-02-03T13:32:33.000Z</time>
      </trkpt>
      <trkpt lat="42.9197" lon="0.58398">
        <ele>1421</ele>
        <time>2019-02-03T13:32:34.000Z</time>
      </trkpt>
      <trkpt lat="42.9197" lon="0.58398">
        <ele>1421</ele>
        <time>2019-02-03T13:32:35.000Z</time>
      </trkpt>
      <trkpt lat="42.9197" lon="0.58398">
        <ele>1421</ele>
        <time>2019-02-03T13:32:36.000Z</time>
      </trkpt>
      <trkpt lat="42.91969" lon="0.58398">
        <ele>1421</ele>
        <time>2019-02-03T13:32:37.000Z</time>
      </trkpt>
      <trkpt lat="42.91969" lon="0.58398">
        <ele>1421</ele>
        <time>2019-02-03T13:32:38.000Z</time>
      </trkpt>
      <trkpt lat="42.91969" lon="0.58398">
        <ele>1421</ele>
        <time>2019-02-03T13:32:39.000Z</time>
      </trkpt>
      <trkpt lat="42.91969" lon="0.58398">
        <ele>1421</ele>
        <time>2019-02-03T13:32:40.000Z</time>
      </trkpt>
      <trkpt lat="42.9197" lon="0.58398">
        <ele>1421</ele>
        <time>2019-02-03T13:32:41.000Z</time>
      </trkpt>
      <trkpt lat="42.9197" lon="0.58398">
        <ele>1421</ele>
        <time>2019-02-03T13:32:42.000Z</time>
      </trkpt>
      <trkpt lat="42.9197" lon="0.58398">
        <ele>1421</ele>
        <time>2019-02-03T13:32:43.000Z</time>
      </trkpt>
      <trkpt lat="42.9197" lon="0.58398">
        <ele>1421</ele>
        <time>2019-02-03T13:32:44.000Z</time>
      </trkpt>
      <trkpt lat="42.9197" lon="0.58398">
        <ele>1421</ele>
        <time>2019-02-03T13:32:45.000Z</time>
      </trkpt>
      <trkpt lat="42.9197" lon="0.58398">
        <ele>1421</ele>
        <time>2019-02-03T13:32:46.000Z</time>
      </trkpt>
      <trkpt lat="42.9197" lon="0.58398">
        <ele>1421</ele>
        <time>2019-02-03T13:32:47.000Z</time>
      </trkpt>
      <trkpt lat="42.9197" lon="0.58398">
        <ele>1421</ele>
        <time>2019-02-03T13:32:48.000Z</time>
      </trkpt>
      <trkpt lat="42.9197" lon="0.58398">
        <ele>1421</ele>
        <time>2019-02-03T13:32:49.000Z</time>
      </trkpt>
      <trkpt lat="42.9197" lon="0.58398">
        <ele>1421</ele>
        <time>2019-02-03T13:32:50.000Z</time>
      </trkpt>
      <trkpt lat="42.9197" lon="0.58398">
        <ele>1421</ele>
        <time>2019-02-03T13:32:51.000Z</time>
      </trkpt>
      <trkpt lat="42.9197" lon="0.58398">
        <ele>1421</ele>
        <time>2019-02-03T13:32:52.000Z</time>
      </trkpt>
      <trkpt lat="42.9197" lon="0.58398">
        <ele>1421</ele>
        <time>2019-02-03T13:32:53.000Z</time>
      </trkpt>
      <trkpt lat="42.9197" lon="0.58398">
        <ele>1421</ele>
        <time>2019-02-03T13:32:54.000Z</time>
      </trkpt>
      <trkpt lat="42.9197" lon="0.58398">
        <ele>1421</ele>
        <time>2019-02-03T13:32:55.000Z</time>
      </trkpt>
      <trkpt lat="42.9197" lon="0.58398">
        <ele>1421</ele>
        <time>2019-02-03T13:32:56.000Z</time>
      </trkpt>
      <trkpt lat="42.9197" lon="0.58398">
        <ele>1421</ele>
        <time>2019-02-03T13:32:57.000Z</time>
      </trkpt>
      <trkpt lat="42.9197" lon="0.58398">
        <ele>1421</ele>
        <time>2019-02-03T13:32:58.000Z</time>
      </trkpt>
      <trkpt lat="42.9197" lon="0.58398">
        <ele>1421</ele>
        <time>2019-02-03T13:32:59.000Z</time>
      </trkpt>
      <trkpt lat="42.9197" lon="0.58398">
        <ele>1421</ele>
        <time>2019-02-03T13:33:00.000Z</time>
      </trkpt>
      <trkpt lat="42.9197" lon="0.58398">
        <ele>1421.5</ele>
        <time>2019-02-03T13:33:01.000Z</time>
      </trkpt>
      <trkpt lat="42.9197" lon="0.58399">
        <ele>1422</ele>
        <time>2019-02-03T13:33:02.000Z</time>
      </trkpt>
      <trkpt lat="42.9197" lon="0.58399">
        <ele>1421.5</ele>
        <time>2019-02-03T13:33:03.000Z</time>
      </trkpt>
      <trkpt lat="42.9197" lon="0.58399">
        <ele>1421</ele>
        <time>2019-02-03T13:33:04.000Z</time>
      </trkpt>
      <trkpt lat="42.9197" lon="0.58399">
        <ele>1421</ele>
        <time>2019-02-03T13:33:05.000Z</time>
      </trkpt>
      <trkpt lat="42.9197" lon="0.58399">
        <ele>1421</ele>
        <time>2019-02-03T13:33:06.000Z</time>
      </trkpt>
      <trkpt lat="42.9197" lon="0.58399">
        <ele>1421</ele>
        <time>2019-02-03T13:33:07.000Z</time>
      </trkpt>
      <trkpt lat="42.9197" lon="0.58399">
        <ele>1421</ele>
        <time>2019-02-03T13:33:08.000Z</time>
      </trkpt>
      <trkpt lat="42.9197" lon="0.58399">
        <ele>1421</ele>
        <time>2019-02-03T13:33:09.000Z</time>
      </trkpt>
      <trkpt lat="42.9197" lon="0.58399">
        <ele>1421</ele>
        <time>2019-02-03T13:33:10.000Z</time>
      </trkpt>
      <trkpt lat="42.9197" lon="0.58399">
        <ele>1421</ele>
        <time>2019-02-03T13:33:11.000Z</time>
      </trkpt>
      <trkpt lat="42.9197" lon="0.58399">
        <ele>1421</ele>
        <time>2019-02-03T13:33:12.000Z</time>
      </trkpt>
      <trkpt lat="42.9197" lon="0.58399">
        <ele>1421</ele>
        <time>2019-02-03T13:33:13.000Z</time>
      </trkpt>
      <trkpt lat="42.9197" lon="0.58399">
        <ele>1421</ele>
        <time>2019-02-03T13:33:14.000Z</time>
      </trkpt>
      <trkpt lat="42.9197" lon="0.58399">
        <ele>1421</ele>
        <time>2019-02-03T13:33:15.000Z</time>
      </trkpt>
      <trkpt lat="42.9197" lon="0.58399">
        <ele>1421</ele>
        <time>2019-02-03T13:33:16.000Z</time>
      </trkpt>
      <trkpt lat="42.9197" lon="0.58399">
        <ele>1421</ele>
        <time>2019-02-03T13:33:17.000Z</time>
      </trkpt>
      <trkpt lat="42.9197" lon="0.58399">
        <ele>1421</ele>
        <time>2019-02-03T13:33:18.000Z</time>
      </trkpt>
      <trkpt lat="42.9197" lon="0.58399">
        <ele>1421</ele>
        <time>2019-02-03T13:33:19.000Z</time>
      </trkpt>
      <trkpt lat="42.9197" lon="0.58399">
        <ele>1421</ele>
        <time>2019-02-03T13:33:20.000Z</time>
      </trkpt>
      <trkpt lat="42.9197" lon="0.58399">
        <ele>1421</ele>
        <time>2019-02-03T13:33:21.000Z</time>
      </trkpt>
      <trkpt lat="42.9197" lon="0.58399">
        <ele>1421</ele>
        <time>2019-02-03T13:33:22.000Z</time>
      </trkpt>
      <trkpt lat="42.9197" lon="0.58399">
        <ele>1421</ele>
        <time>2019-02-03T13:33:23.000Z</time>
      </trkpt>
      <trkpt lat="42.91971" lon="0.58399">
        <ele>1421</ele>
        <time>2019-02-03T13:33:24.000Z</time>
      </trkpt>
      <trkpt lat="42.91971" lon="0.584">
        <ele>1421</ele>
        <time>2019-02-03T13:33:25.000Z</time>
      </trkpt>
      <trkpt lat="42.91971" lon="0.584">
        <ele>1421</ele>
        <time>2019-02-03T13:33:26.000Z</time>
      </trkpt>
      <trkpt lat="42.91971" lon="0.584">
        <ele>1421</ele>
        <time>2019-02-03T13:33:27.000Z</time>
      </trkpt>
      <trkpt lat="42.91971" lon="0.584">
        <ele>1421</ele>
        <time>2019-02-03T13:33:28.000Z</time>
      </trkpt>
      <trkpt lat="42.91971" lon="0.584">
        <ele>1421</ele>
        <time>2019-02-03T13:33:29.000Z</time>
      </trkpt>
      <trkpt lat="42.91971" lon="0.584">
        <ele>1421</ele>
        <time>2019-02-03T13:33:30.000Z</time>
      </trkpt>
      <trkpt lat="42.91971" lon="0.584">
        <ele>1421</ele>
        <time>2019-02-03T13:33:31.000Z</time>
      </trkpt>
      <trkpt lat="42.91971" lon="0.584">
        <ele>1421</ele>
        <time>2019-02-03T13:33:32.000Z</time>
      </trkpt>
      <trkpt lat="42.91971" lon="0.584">
        <ele>1421</ele>
        <time>2019-02-03T13:33:33.000Z</time>
      </trkpt>
      <trkpt lat="42.91971" lon="0.584">
        <ele>1421</ele>
        <time>2019-02-03T13:33:34.000Z</time>
      </trkpt>
      <trkpt lat="42.91971" lon="0.584">
        <ele>1421</ele>
        <time>2019-02-03T13:33:35.000Z</time>
      </trkpt>
      <trkpt lat="42.91971" lon="0.584">
        <ele>1421</ele>
        <time>2019-02-03T13:33:36.000Z</time>
      </trkpt>
      <trkpt lat="42.91971" lon="0.584">
        <ele>1421</ele>
        <time>2019-02-03T13:33:37.000Z</time>
      </trkpt>
      <trkpt lat="42.91971" lon="0.584">
        <ele>1421</ele>
        <time>2019-02-03T13:33:38.000Z</time>
      </trkpt>
      <trkpt lat="42.91971" lon="0.584">
        <ele>1421</ele>
        <time>2019-02-03T13:33:39.000Z</time>
      </trkpt>
      <trkpt lat="42.91971" lon="0.584">
        <ele>1421</ele>
        <time>2019-02-03T13:33:40.000Z</time>
      </trkpt>
      <trkpt lat="42.91971" lon="0.584">
        <ele>1421</ele>
        <time>2019-02-03T13:33:41.000Z</time>
      </trkpt>
      <trkpt lat="42.91971" lon="0.584">
        <ele>1421</ele>
        <time>2019-02-03T13:33:42.000Z</time>
      </trkpt>
      <trkpt lat="42.91971" lon="0.584">
        <ele>1421</ele>
        <time>2019-02-03T13:33:43.000Z</time>
      </trkpt>
      <trkpt lat="42.91971" lon="0.584">
        <ele>1421</ele>
        <time>2019-02-03T13:33:44.000Z</time>
      </trkpt>
      <trkpt lat="42.91971" lon="0.584">
        <ele>1421</ele>
        <time>2019-02-03T13:33:45.000Z</time>
      </trkpt>
      <trkpt lat="42.91971" lon="0.584">
        <ele>1421</ele>
        <time>2019-02-03T13:33:46.000Z</time>
      </trkpt>
      <trkpt lat="42.91971" lon="0.584">
        <ele>1421</ele>
        <time>2019-02-03T13:33:47.000Z</time>
      </trkpt>
      <trkpt lat="42.91971" lon="0.584">
        <ele>1421</ele>
        <time>2019-02-03T13:33:48.000Z</time>
      </trkpt>
      <trkpt lat="42.91971" lon="0.584">
        <ele>1421</ele>
        <time>2019-02-03T13:33:49.000Z</time>
      </trkpt>
      <trkpt lat="42.91971" lon="0.584">
        <ele>1421</ele>
        <time>2019-02-03T13:33:50.000Z</time>
      </trkpt>
      <trkpt lat="42.91971" lon="0.584">
        <ele>1421</ele>
        <time>2019-02-03T13:33:51.000Z</time>
      </trkpt>
      <trkpt lat="42.91971" lon="0.584">
        <ele>1421</ele>
        <time>2019-02-03T13:33:52.000Z</time>
      </trkpt>
      <trkpt lat="42.91971" lon="0.584">
        <ele>1421</ele>
        <time>2019-02-03T13:33:53.000Z</time>
      </trkpt>
      <trkpt lat="42.91971" lon="0.584">
        <ele>1421</ele>
        <time>2019-02-03T13:33:54.000Z</time>
      </trkpt>
      <trkpt lat="42.91971" lon="0.584">
        <ele>1421</ele>
        <time>2019-02-03T13:33:55.000Z</time>
      </trkpt>
      <trkpt lat="42.91971" lon="0.584">
        <ele>1421</ele>
        <time>2019-02-03T13:33:56.000Z</time>
      </trkpt>
      <trkpt lat="42.91971" lon="0.584">
        <ele>1421</ele>
        <time>2019-02-03T13:33:57.000Z</time>
      </trkpt>
      <trkpt lat="42.91971" lon="0.584">
        <ele>1421</ele>
        <time>2019-02-03T13:33:58.000Z</time>
      </trkpt>
      <trkpt lat="42.91971" lon="0.584">
        <ele>1421</ele>
        <time>2019-02-03T13:33:59.000Z</time>
      </trkpt>
      <trkpt lat="42.91971" lon="0.584">
        <ele>1421</ele>
        <time>2019-02-03T13:34:00.000Z</time>
      </trkpt>
      <trkpt lat="42.91971" lon="0.584">
        <ele>1421</ele>
        <time>2019-02-03T13:34:01.000Z</time>
      </trkpt>
      <trkpt lat="42.91971" lon="0.584">
        <ele>1421</ele>
        <time>2019-02-03T13:34:02.000Z</time>
      </trkpt>
      <trkpt lat="42.91971" lon="0.584">
        <ele>1421</ele>
        <time>2019-02-03T13:34:03.000Z</time>
      </trkpt>
      <trkpt lat="42.91971" lon="0.584">
        <ele>1421</ele>
        <time>2019-02-03T13:34:04.000Z</time>
      </trkpt>
      <trkpt lat="42.91971" lon="0.584">
        <ele>1422</ele>
        <time>2019-02-03T13:34:05.000Z</time>
      </trkpt>
      <trkpt lat="42.91971" lon="0.584">
        <ele>1422</ele>
        <time>2019-02-03T13:34:06.000Z</time>
      </trkpt>
      <trkpt lat="42.91971" lon="0.584">
        <ele>1422</ele>
        <time>2019-02-03T13:34:07.000Z</time>
      </trkpt>
      <trkpt lat="42.91971" lon="0.584">
        <ele>1422</ele>
        <time>2019-02-03T13:34:08.000Z</time>
      </trkpt>
      <trkpt lat="42.91971" lon="0.584">
        <ele>1422</ele>
        <time>2019-02-03T13:34:09.000Z</time>
      </trkpt>
      <trkpt lat="42.91971" lon="0.584">
        <ele>1422</ele>
        <time>2019-02-03T13:34:10.000Z</time>
      </trkpt>
      <trkpt lat="42.91971" lon="0.584">
        <ele>1422</ele>
        <time>2019-02-03T13:34:11.000Z</time>
      </trkpt>
      <trkpt lat="42.91971" lon="0.584">
        <ele>1422</ele>
        <time>2019-02-03T13:34:12.000Z</time>
      </trkpt>
      <trkpt lat="42.91971" lon="0.584">
        <ele>1422</ele>
        <time>2019-02-03T13:34:13.000Z</time>
      </trkpt>
      <trkpt lat="42.9197" lon="0.584">
        <ele>1422</ele>
        <time>2019-02-03T13:34:14.000Z</time>
      </trkpt>
      <trkpt lat="42.9197" lon="0.584">
        <ele>1422</ele>
        <time>2019-02-03T13:34:15.000Z</time>
      </trkpt>
      <trkpt lat="42.9197" lon="0.584">
        <ele>1422</ele>
        <time>2019-02-03T13:34:16.000Z</time>
      </trkpt>
      <trkpt lat="42.9197" lon="0.584">
        <ele>1422</ele>
        <time>2019-02-03T13:34:17.000Z</time>
      </trkpt>
      <trkpt lat="42.9197" lon="0.584">
        <ele>1422</ele>
        <time>2019-02-03T13:34:18.000Z</time>
      </trkpt>
      <trkpt lat="42.9197" lon="0.584">
        <ele>1422</ele>
        <time>2019-02-03T13:34:19.000Z</time>
      </trkpt>
      <trkpt lat="42.91969" lon="0.584">
        <ele>1422</ele>
        <time>2019-02-03T13:34:20.000Z</time>
      </trkpt>
      <trkpt lat="42.91969" lon="0.584">
        <ele>1421.5</ele>
        <time>2019-02-03T13:34:21.000Z</time>
      </trkpt>
      <trkpt lat="42.9197" lon="0.584">
        <ele>1421</ele>
        <time>2019-02-03T13:34:22.000Z</time>
      </trkpt>
      <trkpt lat="42.9197" lon="0.584">
        <ele>1421</ele>
        <time>2019-02-03T13:34:23.000Z</time>
      </trkpt>
      <trkpt lat="42.91969" lon="0.584">
        <ele>1421</ele>
        <time>2019-02-03T13:34:24.000Z</time>
      </trkpt>
      <trkpt lat="42.91969" lon="0.584">
        <ele>1421</ele>
        <time>2019-02-03T13:34:25.000Z</time>
      </trkpt>
      <trkpt lat="42.91969" lon="0.584">
        <ele>1421</ele>
        <time>2019-02-03T13:34:26.000Z</time>
      </trkpt>
      <trkpt lat="42.91969" lon="0.584">
        <ele>1421</ele>
        <time>2019-02-03T13:34:27.000Z</time>
      </trkpt>
      <trkpt lat="42.91969" lon="0.584">
        <ele>1421</ele>
        <time>2019-02-03T13:34:28.000Z</time>
      </trkpt>
      <trkpt lat="42.91968" lon="0.584">
        <ele>1421</ele>
        <time>2019-02-03T13:34:29.000Z</time>
      </trkpt>
      <trkpt lat="42.91968" lon="0.584">
        <ele>1421</ele>
        <time>2019-02-03T13:34:30.000Z</time>
      </trkpt>
      <trkpt lat="42.91967" lon="0.584">
        <ele>1421</ele>
        <time>2019-02-03T13:34:31.000Z</time>
      </trkpt>
      <trkpt lat="42.91967" lon="0.58401">
        <ele>1421</ele>
        <time>2019-02-03T13:34:32.000Z</time>
      </trkpt>
      <trkpt lat="42.91967" lon="0.584">
        <ele>1421</ele>
        <time>2019-02-03T13:34:33.000Z</time>
      </trkpt>
      <trkpt lat="42.91966" lon="0.584">
        <ele>1421</ele>
        <time>2019-02-03T13:34:34.000Z</time>
      </trkpt>
      <trkpt lat="42.91966" lon="0.584">
        <ele>1421</ele>
        <time>2019-02-03T13:34:35.000Z</time>
      </trkpt>
      <trkpt lat="42.91965" lon="0.584">
        <ele>1421</ele>
        <time>2019-02-03T13:34:36.000Z</time>
      </trkpt>
      <trkpt lat="42.91965" lon="0.584">
        <ele>1420.5</ele>
        <time>2019-02-03T13:34:37.000Z</time>
      </trkpt>
      <trkpt lat="42.91964" lon="0.58399">
        <ele>1420</ele>
        <time>2019-02-03T13:34:38.000Z</time>
      </trkpt>
      <trkpt lat="42.91964" lon="0.58399">
        <ele>1420</ele>
        <time>2019-02-03T13:34:39.000Z</time>
      </trkpt>
      <trkpt lat="42.91963" lon="0.58399">
        <ele>1420</ele>
        <time>2019-02-03T13:34:40.000Z</time>
      </trkpt>
      <trkpt lat="42.91963" lon="0.58398">
        <ele>1420</ele>
        <time>2019-02-03T13:34:41.000Z</time>
      </trkpt>
      <trkpt lat="42.91962" lon="0.58398">
        <ele>1420</ele>
        <time>2019-02-03T13:34:42.000Z</time>
      </trkpt>
      <trkpt lat="42.91962" lon="0.58398">
        <ele>1419.5</ele>
        <time>2019-02-03T13:34:43.000Z</time>
      </trkpt>
      <trkpt lat="42.91961" lon="0.58398">
        <ele>1419</ele>
        <time>2019-02-03T13:34:44.000Z</time>
      </trkpt>
      <trkpt lat="42.91961" lon="0.58398">
        <ele>1419</ele>
        <time>2019-02-03T13:34:45.000Z</time>
      </trkpt>
      <trkpt lat="42.9196" lon="0.58398">
        <ele>1419</ele>
        <time>2019-02-03T13:34:46.000Z</time>
      </trkpt>
      <trkpt lat="42.91959" lon="0.58398">
        <ele>1419</ele>
        <time>2019-02-03T13:34:47.000Z</time>
      </trkpt>
      <trkpt lat="42.91959" lon="0.58398">
        <ele>1419</ele>
        <time>2019-02-03T13:34:48.000Z</time>
      </trkpt>
      <trkpt lat="42.91958" lon="0.58398">
        <ele>1419</ele>
        <time>2019-02-03T13:34:49.000Z</time>
      </trkpt>
      <trkpt lat="42.91958" lon="0.58398">
        <ele>1419</ele>
        <time>2019-02-03T13:34:50.000Z</time>
      </trkpt>
      <trkpt lat="42.91957" lon="0.58399">
        <ele>1419</ele>
        <time>2019-02-03T13:34:51.000Z</time>
      </trkpt>
      <trkpt lat="42.91956" lon="0.58399">
        <ele>1419</ele>
        <time>2019-02-03T13:34:52.000Z</time>
      </trkpt>
      <trkpt lat="42.91956" lon="0.58399">
        <ele>1419</ele>
        <time>2019-02-03T13:34:53.000Z</time>
      </trkpt>
      <trkpt lat="42.91955" lon="0.58399">
        <ele>1419</ele>
        <time>2019-02-03T13:34:54.000Z</time>
      </trkpt>
      <trkpt lat="42.91954" lon="0.584">
        <ele>1419</ele>
        <time>2019-02-03T13:34:55.000Z</time>
      </trkpt>
      <trkpt lat="42.91954" lon="0.584">
        <ele>1419</ele>
        <time>2019-02-03T13:34:56.000Z</time>
      </trkpt>
      <trkpt lat="42.91953" lon="0.584">
        <ele>1418.5</ele>
        <time>2019-02-03T13:34:57.000Z</time>
      </trkpt>
      <trkpt lat="42.91952" lon="0.584">
        <ele>1418</ele>
        <time>2019-02-03T13:34:58.000Z</time>
      </trkpt>
      <trkpt lat="42.91951" lon="0.584">
        <ele>1418</ele>
        <time>2019-02-03T13:34:59.000Z</time>
      </trkpt>
      <trkpt lat="42.9195" lon="0.584">
        <ele>1418</ele>
        <time>2019-02-03T13:35:00.000Z</time>
      </trkpt>
      <trkpt lat="42.9195" lon="0.58401">
        <ele>1418</ele>
        <time>2019-02-03T13:35:01.000Z</time>
      </trkpt>
      <trkpt lat="42.91949" lon="0.58401">
        <ele>1418</ele>
        <time>2019-02-03T13:35:02.000Z</time>
      </trkpt>
      <trkpt lat="42.91947" lon="0.58401">
        <ele>1418</ele>
        <time>2019-02-03T13:35:03.000Z</time>
      </trkpt>
      <trkpt lat="42.91946" lon="0.58402">
        <ele>1417.7</ele>
        <time>2019-02-03T13:35:04.000Z</time>
      </trkpt>
      <trkpt lat="42.91945" lon="0.58402">
        <ele>1417.3</ele>
        <time>2019-02-03T13:35:05.000Z</time>
      </trkpt>
      <trkpt lat="42.91944" lon="0.58402">
        <ele>1417</ele>
        <time>2019-02-03T13:35:06.000Z</time>
      </trkpt>
      <trkpt lat="42.91944" lon="0.58402">
        <ele>1417</ele>
        <time>2019-02-03T13:35:07.000Z</time>
      </trkpt>
      <trkpt lat="42.91943" lon="0.58403">
        <ele>1417</ele>
        <time>2019-02-03T13:35:08.000Z</time>
      </trkpt>
      <trkpt lat="42.91942" lon="0.58403">
        <ele>1417</ele>
        <time>2019-02-03T13:35:09.000Z</time>
      </trkpt>
      <trkpt lat="42.91941" lon="0.58403">
        <ele>1417</ele>
        <time>2019-02-03T13:35:10.000Z</time>
      </trkpt>
      <trkpt lat="42.9194" lon="0.58403">
        <ele>1417</ele>
        <time>2019-02-03T13:35:11.000Z</time>
      </trkpt>
      <trkpt lat="42.91939" lon="0.58403">
        <ele>1417</ele>
        <time>2019-02-03T13:35:12.000Z</time>
      </trkpt>
      <trkpt lat="42.91938" lon="0.58403">
        <ele>1417</ele>
        <time>2019-02-03T13:35:13.000Z</time>
      </trkpt>
      <trkpt lat="42.91937" lon="0.58404">
        <ele>1417</ele>
        <time>2019-02-03T13:35:14.000Z</time>
      </trkpt>
      <trkpt lat="42.91936" lon="0.58405">
        <ele>1416.5</ele>
        <time>2019-02-03T13:35:15.000Z</time>
      </trkpt>
      <trkpt lat="42.91935" lon="0.58405">
        <ele>1416</ele>
        <time>2019-02-03T13:35:16.000Z</time>
      </trkpt>
      <trkpt lat="42.91934" lon="0.58406">
        <ele>1416</ele>
        <time>2019-02-03T13:35:17.000Z</time>
      </trkpt>
      <trkpt lat="42.91934" lon="0.58407">
        <ele>1416</ele>
        <time>2019-02-03T13:35:18.000Z</time>
      </trkpt>
      <trkpt lat="42.91933" lon="0.58408">
        <ele>1416</ele>
        <time>2019-02-03T13:35:19.000Z</time>
      </trkpt>
      <trkpt lat="42.91932" lon="0.58408">
        <ele>1416</ele>
        <time>2019-02-03T13:35:20.000Z</time>
      </trkpt>
      <trkpt lat="42.91932" lon="0.58409">
        <ele>1416</ele>
        <time>2019-02-03T13:35:21.000Z</time>
      </trkpt>
      <trkpt lat="42.91931" lon="0.58409">
        <ele>1416</ele>
        <time>2019-02-03T13:35:22.000Z</time>
      </trkpt>
      <trkpt lat="42.91931" lon="0.5841">
        <ele>1416</ele>
        <time>2019-02-03T13:35:23.000Z</time>
      </trkpt>
      <trkpt lat="42.91931" lon="0.5841">
        <ele>1416</ele>
        <time>2019-02-03T13:35:24.000Z</time>
      </trkpt>
      <trkpt lat="42.91931" lon="0.5841">
        <ele>1416</ele>
        <time>2019-02-03T13:35:25.000Z</time>
      </trkpt>
      <trkpt lat="42.9193" lon="0.5841">
        <ele>1416</ele>
        <time>2019-02-03T13:35:26.000Z</time>
      </trkpt>
      <trkpt lat="42.9193" lon="0.5841">
        <ele>1416</ele>
        <time>2019-02-03T13:35:27.000Z</time>
      </trkpt>
      <trkpt lat="42.9193" lon="0.5841">
        <ele>1416</ele>
        <time>2019-02-03T13:35:28.000Z</time>
      </trkpt>
      <trkpt lat="42.9193" lon="0.5841">
        <ele>1416</ele>
        <time>2019-02-03T13:35:29.000Z</time>
      </trkpt>
      <trkpt lat="42.9193" lon="0.5841">
        <ele>1416</ele>
        <time>2019-02-03T13:35:30.000Z</time>
      </trkpt>
      <trkpt lat="42.9193" lon="0.58409">
        <ele>1416</ele>
        <time>2019-02-03T13:35:31.000Z</time>
      </trkpt>
      <trkpt lat="42.91931" lon="0.58409">
        <ele>1416</ele>
        <time>2019-02-03T13:35:32.000Z</time>
      </trkpt>
      <trkpt lat="42.91931" lon="0.58409">
        <ele>1417</ele>
        <time>2019-02-03T13:35:33.000Z</time>
      </trkpt>
      <trkpt lat="42.9193" lon="0.58409">
        <ele>1417</ele>
        <time>2019-02-03T13:35:34.000Z</time>
      </trkpt>
      <trkpt lat="42.9193" lon="0.58409">
        <ele>1417</ele>
        <time>2019-02-03T13:35:35.000Z</time>
      </trkpt>
      <trkpt lat="42.9193" lon="0.58409">
        <ele>1417</ele>
        <time>2019-02-03T13:35:36.000Z</time>
      </trkpt>
      <trkpt lat="42.9193" lon="0.58409">
        <ele>1417</ele>
        <time>2019-02-03T13:35:37.000Z</time>
      </trkpt>
      <trkpt lat="42.9193" lon="0.58409">
        <ele>1417</ele>
        <time>2019-02-03T13:35:38.000Z</time>
      </trkpt>
      <trkpt lat="42.9193" lon="0.58409">
        <ele>1417</ele>
        <time>2019-02-03T13:35:39.000Z</time>
      </trkpt>
      <trkpt lat="42.91929" lon="0.58409">
        <ele>1417</ele>
        <time>2019-02-03T13:35:40.000Z</time>
      </trkpt>
      <trkpt lat="42.91929" lon="0.58409">
        <ele>1416.5</ele>
        <time>2019-02-03T13:35:41.000Z</time>
      </trkpt>
      <trkpt lat="42.91929" lon="0.58408">
        <ele>1416</ele>
        <time>2019-02-03T13:35:42.000Z</time>
      </trkpt>
      <trkpt lat="42.91929" lon="0.58408">
        <ele>1416</ele>
        <time>2019-02-03T13:35:43.000Z</time>
      </trkpt>
      <trkpt lat="42.91929" lon="0.58407">
        <ele>1416</ele>
        <time>2019-02-03T13:35:44.000Z</time>
      </trkpt>
      <trkpt lat="42.91929" lon="0.58406">
        <ele>1415.5</ele>
        <time>2019-02-03T13:35:45.000Z</time>
      </trkpt>
      <trkpt lat="42.91929" lon="0.58406">
        <ele>1415</ele>
        <time>2019-02-03T13:35:46.000Z</time>
      </trkpt>
      <trkpt lat="42.91929" lon="0.58405">
        <ele>1415</ele>
        <time>2019-02-03T13:35:47.000Z</time>
      </trkpt>
      <trkpt lat="42.91929" lon="0.58405">
        <ele>1415</ele>
        <time>2019-02-03T13:35:48.000Z</time>
      </trkpt>
      <trkpt lat="42.91929" lon="0.58404">
        <ele>1415</ele>
        <time>2019-02-03T13:35:49.000Z</time>
      </trkpt>
      <trkpt lat="42.91929" lon="0.58404">
        <ele>1415</ele>
        <time>2019-02-03T13:35:50.000Z</time>
      </trkpt>
      <trkpt lat="42.91929" lon="0.58404">
        <ele>1415</ele>
        <time>2019-02-03T13:35:51.000Z</time>
      </trkpt>
      <trkpt lat="42.91929" lon="0.58404">
        <ele>1414.7</ele>
        <time>2019-02-03T13:35:52.000Z</time>
      </trkpt>
      <trkpt lat="42.91929" lon="0.58404">
        <ele>1414.3</ele>
        <time>2019-02-03T13:35:53.000Z</time>
      </trkpt>
      <trkpt lat="42.91929" lon="0.58404">
        <ele>1414</ele>
        <time>2019-02-03T13:35:54.000Z</time>
      </trkpt>
      <trkpt lat="42.91929" lon="0.58403">
        <ele>1414</ele>
        <time>2019-02-03T13:35:55.000Z</time>
      </trkpt>
      <trkpt lat="42.91929" lon="0.58402">
        <ele>1413.5</ele>
        <time>2019-02-03T13:35:56.000Z</time>
      </trkpt>
      <trkpt lat="42.9193" lon="0.584">
        <ele>1413</ele>
        <time>2019-02-03T13:35:57.000Z</time>
      </trkpt>
      <trkpt lat="42.9193" lon="0.58398">
        <ele>1413</ele>
        <time>2019-02-03T13:35:58.000Z</time>
      </trkpt>
      <trkpt lat="42.9193" lon="0.58397">
        <ele>1413</ele>
        <time>2019-02-03T13:35:59.000Z</time>
      </trkpt>
      <trkpt lat="42.9193" lon="0.58395">
        <ele>1412.7</ele>
        <time>2019-02-03T13:36:00.000Z</time>
      </trkpt>
      <trkpt lat="42.9193" lon="0.58394">
        <ele>1412.3</ele>
        <time>2019-02-03T13:36:01.000Z</time>
      </trkpt>
      <trkpt lat="42.9193" lon="0.58392">
        <ele>1412</ele>
        <time>2019-02-03T13:36:02.000Z</time>
      </trkpt>
      <trkpt lat="42.9193" lon="0.58391">
        <ele>1412</ele>
        <time>2019-02-03T13:36:03.000Z</time>
      </trkpt>
      <trkpt lat="42.9193" lon="0.58391">
        <ele>1411.7</ele>
        <time>2019-02-03T13:36:04.000Z</time>
      </trkpt>
      <trkpt lat="42.9193" lon="0.5839">
        <ele>1411.3</ele>
        <time>2019-02-03T13:36:05.000Z</time>
      </trkpt>
      <trkpt lat="42.91929" lon="0.58389">
        <ele>1411</ele>
        <time>2019-02-03T13:36:06.000Z</time>
      </trkpt>
      <trkpt lat="42.91929" lon="0.58388">
        <ele>1411</ele>
        <time>2019-02-03T13:36:07.000Z</time>
      </trkpt>
      <trkpt lat="42.91929" lon="0.58388">
        <ele>1410.5</ele>
        <time>2019-02-03T13:36:08.000Z</time>
      </trkpt>
      <trkpt lat="42.91928" lon="0.58387">
        <ele>1410</ele>
        <time>2019-02-03T13:36:09.000Z</time>
      </trkpt>
      <trkpt lat="42.91928" lon="0.58386">
        <ele>1409.7</ele>
        <time>2019-02-03T13:36:10.000Z</time>
      </trkpt>
      <trkpt lat="42.91928" lon="0.58384">
        <ele>1409.3</ele>
        <time>2019-02-03T13:36:11.000Z</time>
      </trkpt>
      <trkpt lat="42.91928" lon="0.58383">
        <ele>1409</ele>
        <time>2019-02-03T13:36:12.000Z</time>
      </trkpt>
      <trkpt lat="42.91928" lon="0.58381">
        <ele>1409</ele>
        <time>2019-02-03T13:36:13.000Z</time>
      </trkpt>
      <trkpt lat="42.91928" lon="0.58379">
        <ele>1408.5</ele>
        <time>2019-02-03T13:36:14.000Z</time>
      </trkpt>
      <trkpt lat="42.91927" lon="0.58377">
        <ele>1408</ele>
        <time>2019-02-03T13:36:15.000Z</time>
      </trkpt>
      <trkpt lat="42.91927" lon="0.58375">
        <ele>1407.7</ele>
        <time>2019-02-03T13:36:16.000Z</time>
      </trkpt>
      <trkpt lat="42.91927" lon="0.58374">
        <ele>1407.3</ele>
        <time>2019-02-03T13:36:17.000Z</time>
      </trkpt>
      <trkpt lat="42.91927" lon="0.58373">
        <ele>1407</ele>
        <time>2019-02-03T13:36:18.000Z</time>
      </trkpt>
      <trkpt lat="42.91927" lon="0.58372">
        <ele>1407</ele>
        <time>2019-02-03T13:36:19.000Z</time>
      </trkpt>
      <trkpt lat="42.91927" lon="0.58371">
        <ele>1406.7</ele>
        <time>2019-02-03T13:36:20.000Z</time>
      </trkpt>
      <trkpt lat="42.91927" lon="0.5837">
        <ele>1406.3</ele>
        <time>2019-02-03T13:36:21.000Z</time>
      </trkpt>
      <trkpt lat="42.91927" lon="0.58369">
        <ele>1406</ele>
        <time>2019-02-03T13:36:22.000Z</time>
      </trkpt>
      <trkpt lat="42.91927" lon="0.58369">
        <ele>1405.5</ele>
        <time>2019-02-03T13:36:23.000Z</time>
      </trkpt>
      <trkpt lat="42.91927" lon="0.58367">
        <ele>1405</ele>
        <time>2019-02-03T13:36:24.000Z</time>
      </trkpt>
      <trkpt lat="42.91927" lon="0.58366">
        <ele>1404.5</ele>
        <time>2019-02-03T13:36:25.000Z</time>
      </trkpt>
      <trkpt lat="42.91927" lon="0.58365">
        <ele>1404</ele>
        <time>2019-02-03T13:36:26.000Z</time>
      </trkpt>
      <trkpt lat="42.91927" lon="0.58364">
        <ele>1404</ele>
        <time>2019-02-03T13:36:27.000Z</time>
      </trkpt>
      <trkpt lat="42.91927" lon="0.58363">
        <ele>1403.5</ele>
        <time>2019-02-03T13:36:28.000Z</time>
      </trkpt>
      <trkpt lat="42.91927" lon="0.58362">
        <ele>1403</ele>
        <time>2019-02-03T13:36:29.000Z</time>
      </trkpt>
      <trkpt lat="42.91926" lon="0.58361">
        <ele>1403</ele>
        <time>2019-02-03T13:36:30.000Z</time>
      </trkpt>
      <trkpt lat="42.91926" lon="0.58361">
        <ele>1403</ele>
        <time>2019-02-03T13:36:31.000Z</time>
      </trkpt>
      <trkpt lat="42.91926" lon="0.5836">
        <ele>1402.5</ele>
        <time>2019-02-03T13:36:32.000Z</time>
      </trkpt>
      <trkpt lat="42.91926" lon="0.5836">
        <ele>1402</ele>
        <time>2019-02-03T13:36:33.000Z</time>
      </trkpt>
      <trkpt lat="42.91926" lon="0.5836">
        <ele>1401.7</ele>
        <time>2019-02-03T13:36:34.000Z</time>
      </trkpt>
      <trkpt lat="42.91926" lon="0.5836">
        <ele>1401.3</ele>
        <time>2019-02-03T13:36:35.000Z</time>
      </trkpt>
      <trkpt lat="42.91927" lon="0.58359">
        <ele>1401</ele>
        <time>2019-02-03T13:36:36.000Z</time>
      </trkpt>
      <trkpt lat="42.91927" lon="0.58358">
        <ele>1401</ele>
        <time>2019-02-03T13:36:37.000Z</time>
      </trkpt>
      <trkpt lat="42.91927" lon="0.58356">
        <ele>1401</ele>
        <time>2019-02-03T13:36:38.000Z</time>
      </trkpt>
      <trkpt lat="42.91928" lon="0.58354">
        <ele>1400</ele>
        <time>2019-02-03T13:36:39.000Z</time>
      </trkpt>
      <trkpt lat="42.91928" lon="0.58352">
        <ele>1400</ele>
        <time>2019-02-03T13:36:40.000Z</time>
      </trkpt>
      <trkpt lat="42.91928" lon="0.5835">
        <ele>1400</ele>
        <time>2019-02-03T13:36:41.000Z</time>
      </trkpt>
      <trkpt lat="42.91929" lon="0.58348">
        <ele>1399.5</ele>
        <time>2019-02-03T13:36:42.000Z</time>
      </trkpt>
      <trkpt lat="42.91929" lon="0.58346">
        <ele>1399</ele>
        <time>2019-02-03T13:36:43.000Z</time>
      </trkpt>
      <trkpt lat="42.91929" lon="0.58344">
        <ele>1399</ele>
        <time>2019-02-03T13:36:44.000Z</time>
      </trkpt>
      <trkpt lat="42.91929" lon="0.58343">
        <ele>1399</ele>
        <time>2019-02-03T13:36:45.000Z</time>
      </trkpt>
      <trkpt lat="42.91929" lon="0.58342">
        <ele>1399</ele>
        <time>2019-02-03T13:36:46.000Z</time>
      </trkpt>
      <trkpt lat="42.91929" lon="0.58341">
        <ele>1399</ele>
        <time>2019-02-03T13:36:47.000Z</time>
      </trkpt>
      <trkpt lat="42.91929" lon="0.5834">
        <ele>1399</ele>
        <time>2019-02-03T13:36:48.000Z</time>
      </trkpt>
      <trkpt lat="42.91929" lon="0.58339">
        <ele>1399</ele>
        <time>2019-02-03T13:36:49.000Z</time>
      </trkpt>
      <trkpt lat="42.91929" lon="0.58338">
        <ele>1399</ele>
        <time>2019-02-03T13:36:50.000Z</time>
      </trkpt>
      <trkpt lat="42.91929" lon="0.58337">
        <ele>1398</ele>
        <time>2019-02-03T13:36:51.000Z</time>
      </trkpt>
      <trkpt lat="42.91929" lon="0.58336">
        <ele>1398</ele>
        <time>2019-02-03T13:36:52.000Z</time>
      </trkpt>
      <trkpt lat="42.91929" lon="0.58335">
        <ele>1398</ele>
        <time>2019-02-03T13:36:53.000Z</time>
      </trkpt>
      <trkpt lat="42.91929" lon="0.58334">
        <ele>1398</ele>
        <time>2019-02-03T13:36:54.000Z</time>
      </trkpt>
      <trkpt lat="42.9193" lon="0.58334">
        <ele>1398</ele>
        <time>2019-02-03T13:36:55.000Z</time>
      </trkpt>
      <trkpt lat="42.9193" lon="0.58333">
        <ele>1398</ele>
        <time>2019-02-03T13:36:56.000Z</time>
      </trkpt>
      <trkpt lat="42.9193" lon="0.58332">
        <ele>1398</ele>
        <time>2019-02-03T13:36:57.000Z</time>
      </trkpt>
      <trkpt lat="42.91931" lon="0.58332">
        <ele>1397.5</ele>
        <time>2019-02-03T13:36:58.000Z</time>
      </trkpt>
      <trkpt lat="42.91931" lon="0.58331">
        <ele>1397</ele>
        <time>2019-02-03T13:36:59.000Z</time>
      </trkpt>
      <trkpt lat="42.91932" lon="0.58331">
        <ele>1397</ele>
        <time>2019-02-03T13:37:00.000Z</time>
      </trkpt>
      <trkpt lat="42.91932" lon="0.5833">
        <ele>1397</ele>
        <time>2019-02-03T13:37:01.000Z</time>
      </trkpt>
      <trkpt lat="42.91932" lon="0.5833">
        <ele>1397</ele>
        <time>2019-02-03T13:37:02.000Z</time>
      </trkpt>
      <trkpt lat="42.91932" lon="0.5833">
        <ele>1397</ele>
        <time>2019-02-03T13:37:03.000Z</time>
      </trkpt>
      <trkpt lat="42.91931" lon="0.5833">
        <ele>1397</ele>
        <time>2019-02-03T13:37:04.000Z</time>
      </trkpt>
      <trkpt lat="42.91931" lon="0.5833">
        <ele>1397</ele>
        <time>2019-02-03T13:37:05.000Z</time>
      </trkpt>
      <trkpt lat="42.91932" lon="0.5833">
        <ele>1397</ele>
        <time>2019-02-03T13:37:06.000Z</time>
      </trkpt>
      <trkpt lat="42.91932" lon="0.58331">
        <ele>1397</ele>
        <time>2019-02-03T13:37:07.000Z</time>
      </trkpt>
      <trkpt lat="42.91932" lon="0.58331">
        <ele>1397</ele>
        <time>2019-02-03T13:37:08.000Z</time>
      </trkpt>
      <trkpt lat="42.91932" lon="0.58331">
        <ele>1396</ele>
        <time>2019-02-03T13:37:09.000Z</time>
      </trkpt>
      <trkpt lat="42.91933" lon="0.58331">
        <ele>1396</ele>
        <time>2019-02-03T13:37:10.000Z</time>
      </trkpt>
      <trkpt lat="42.91933" lon="0.58331">
        <ele>1396</ele>
        <time>2019-02-03T13:37:11.000Z</time>
      </trkpt>
      <trkpt lat="42.91933" lon="0.58331">
        <ele>1396</ele>
        <time>2019-02-03T13:37:12.000Z</time>
      </trkpt>
      <trkpt lat="42.91933" lon="0.58331">
        <ele>1396</ele>
        <time>2019-02-03T13:37:13.000Z</time>
      </trkpt>
      <trkpt lat="42.91933" lon="0.58331">
        <ele>1396</ele>
        <time>2019-02-03T13:37:14.000Z</time>
      </trkpt>
      <trkpt lat="42.91933" lon="0.5833">
        <ele>1396</ele>
        <time>2019-02-03T13:37:15.000Z</time>
      </trkpt>
      <trkpt lat="42.91933" lon="0.5833">
        <ele>1396</ele>
        <time>2019-02-03T13:37:16.000Z</time>
      </trkpt>
      <trkpt lat="42.91933" lon="0.5833">
        <ele>1396</ele>
        <time>2019-02-03T13:37:17.000Z</time>
      </trkpt>
      <trkpt lat="42.91933" lon="0.58329">
        <ele>1396</ele>
        <time>2019-02-03T13:37:18.000Z</time>
      </trkpt>
      <trkpt lat="42.91934" lon="0.58329">
        <ele>1396</ele>
        <time>2019-02-03T13:37:19.000Z</time>
      </trkpt>
      <trkpt lat="42.91934" lon="0.58328">
        <ele>1396</ele>
        <time>2019-02-03T13:37:20.000Z</time>
      </trkpt>
      <trkpt lat="42.91934" lon="0.58328">
        <ele>1396</ele>
        <time>2019-02-03T13:37:21.000Z</time>
      </trkpt>
      <trkpt lat="42.91934" lon="0.58327">
        <ele>1395.7</ele>
        <time>2019-02-03T13:37:22.000Z</time>
      </trkpt>
      <trkpt lat="42.91934" lon="0.58327">
        <ele>1395.3</ele>
        <time>2019-02-03T13:37:23.000Z</time>
      </trkpt>
      <trkpt lat="42.91934" lon="0.58326">
        <ele>1395</ele>
        <time>2019-02-03T13:37:24.000Z</time>
      </trkpt>
      <trkpt lat="42.91934" lon="0.58326">
        <ele>1395</ele>
        <time>2019-02-03T13:37:25.000Z</time>
      </trkpt>
      <trkpt lat="42.91934" lon="0.58325">
        <ele>1394.7</ele>
        <time>2019-02-03T13:37:26.000Z</time>
      </trkpt>
      <trkpt lat="42.91934" lon="0.58325">
        <ele>1394.3</ele>
        <time>2019-02-03T13:37:27.000Z</time>
      </trkpt>
      <trkpt lat="42.91934" lon="0.58325">
        <ele>1394</ele>
        <time>2019-02-03T13:37:28.000Z</time>
      </trkpt>
      <trkpt lat="42.91934" lon="0.58325">
        <ele>1394</ele>
        <time>2019-02-03T13:37:29.000Z</time>
      </trkpt>
      <trkpt lat="42.91934" lon="0.58325">
        <ele>1394</ele>
        <time>2019-02-03T13:37:30.000Z</time>
      </trkpt>
      <trkpt lat="42.91934" lon="0.58324">
        <ele>1393.5</ele>
        <time>2019-02-03T13:37:31.000Z</time>
      </trkpt>
      <trkpt lat="42.91934" lon="0.58324">
        <ele>1393</ele>
        <time>2019-02-03T13:37:32.000Z</time>
      </trkpt>
      <trkpt lat="42.91934" lon="0.58324">
        <ele>1393</ele>
        <time>2019-02-03T13:37:33.000Z</time>
      </trkpt>
      <trkpt lat="42.91935" lon="0.58323">
        <ele>1393</ele>
        <time>2019-02-03T13:37:34.000Z</time>
      </trkpt>
      <trkpt lat="42.91935" lon="0.58323">
        <ele>1392</ele>
        <time>2019-02-03T13:37:35.000Z</time>
      </trkpt>
      <trkpt lat="42.91935" lon="0.58322">
        <ele>1392</ele>
        <time>2019-02-03T13:37:36.000Z</time>
      </trkpt>
      <trkpt lat="42.91935" lon="0.58321">
        <ele>1392</ele>
        <time>2019-02-03T13:37:37.000Z</time>
      </trkpt>
      <trkpt lat="42.91935" lon="0.58321">
        <ele>1392</ele>
        <time>2019-02-03T13:37:38.000Z</time>
      </trkpt>
      <trkpt lat="42.91935" lon="0.5832">
        <ele>1392</ele>
        <time>2019-02-03T13:37:39.000Z</time>
      </trkpt>
      <trkpt lat="42.91935" lon="0.5832">
        <ele>1392</ele>
        <time>2019-02-03T13:37:40.000Z</time>
      </trkpt>
      <trkpt lat="42.91935" lon="0.5832">
        <ele>1392</ele>
        <time>2019-02-03T13:37:41.000Z</time>
      </trkpt>
      <trkpt lat="42.91935" lon="0.5832">
        <ele>1392</ele>
        <time>2019-02-03T13:37:42.000Z</time>
      </trkpt>
      <trkpt lat="42.91935" lon="0.5832">
        <ele>1392</ele>
        <time>2019-02-03T13:37:43.000Z</time>
      </trkpt>
      <trkpt lat="42.91935" lon="0.5832">
        <ele>1391.7</ele>
        <time>2019-02-03T13:37:44.000Z</time>
      </trkpt>
      <trkpt lat="42.91935" lon="0.5832">
        <ele>1391.3</ele>
        <time>2019-02-03T13:37:45.000Z</time>
      </trkpt>
      <trkpt lat="42.91935" lon="0.58319">
        <ele>1391</ele>
        <time>2019-02-03T13:37:46.000Z</time>
      </trkpt>
      <trkpt lat="42.91935" lon="0.58319">
        <ele>1391</ele>
        <time>2019-02-03T13:37:47.000Z</time>
      </trkpt>
      <trkpt lat="42.91935" lon="0.58319">
        <ele>1391</ele>
        <time>2019-02-03T13:37:48.000Z</time>
      </trkpt>
      <trkpt lat="42.91934" lon="0.58319">
        <ele>1391</ele>
        <time>2019-02-03T13:37:49.000Z</time>
      </trkpt>
      <trkpt lat="42.91934" lon="0.58319">
        <ele>1391</ele>
        <time>2019-02-03T13:37:50.000Z</time>
      </trkpt>
      <trkpt lat="42.91934" lon="0.58317">
        <ele>1390</ele>
        <time>2019-02-03T13:37:51.000Z</time>
      </trkpt>
      <trkpt lat="42.91934" lon="0.58316">
        <ele>1390</ele>
        <time>2019-02-03T13:37:52.000Z</time>
      </trkpt>
      <trkpt lat="42.91934" lon="0.58315">
        <ele>1390</ele>
        <time>2019-02-03T13:37:53.000Z</time>
      </trkpt>
      <trkpt lat="42.91934" lon="0.58315">
        <ele>1390</ele>
        <time>2019-02-03T13:37:54.000Z</time>
      </trkpt>
      <trkpt lat="42.91934" lon="0.58315">
        <ele>1389</ele>
        <time>2019-02-03T13:37:55.000Z</time>
      </trkpt>
      <trkpt lat="42.91933" lon="0.58314">
        <ele>1389</ele>
        <time>2019-02-03T13:37:56.000Z</time>
      </trkpt>
      <trkpt lat="42.91933" lon="0.58313">
        <ele>1389</ele>
        <time>2019-02-03T13:37:57.000Z</time>
      </trkpt>
      <trkpt lat="42.91933" lon="0.58312">
        <ele>1388.7</ele>
        <time>2019-02-03T13:37:58.000Z</time>
      </trkpt>
      <trkpt lat="42.91932" lon="0.58311">
        <ele>1388.3</ele>
        <time>2019-02-03T13:37:59.000Z</time>
      </trkpt>
      <trkpt lat="42.91932" lon="0.5831">
        <ele>1388</ele>
        <time>2019-02-03T13:38:00.000Z</time>
      </trkpt>
      <trkpt lat="42.91932" lon="0.58309">
        <ele>1388</ele>
        <time>2019-02-03T13:38:01.000Z</time>
      </trkpt>
      <trkpt lat="42.91932" lon="0.58309">
        <ele>1387.5</ele>
        <time>2019-02-03T13:38:02.000Z</time>
      </trkpt>
      <trkpt lat="42.91932" lon="0.58308">
        <ele>1387</ele>
        <time>2019-02-03T13:38:03.000Z</time>
      </trkpt>
      <trkpt lat="42.91931" lon="0.58308">
        <ele>1386.7</ele>
        <time>2019-02-03T13:38:04.000Z</time>
      </trkpt>
      <trkpt lat="42.91931" lon="0.58308">
        <ele>1386.3</ele>
        <time>2019-02-03T13:38:05.000Z</time>
      </trkpt>
      <trkpt lat="42.91931" lon="0.58308">
        <ele>1386</ele>
        <time>2019-02-03T13:38:06.000Z</time>
      </trkpt>
      <trkpt lat="42.91931" lon="0.58308">
        <ele>1386</ele>
        <time>2019-02-03T13:38:07.000Z</time>
      </trkpt>
      <trkpt lat="42.91931" lon="0.58308">
        <ele>1385.7</ele>
        <time>2019-02-03T13:38:08.000Z</time>
      </trkpt>
      <trkpt lat="42.91931" lon="0.58308">
        <ele>1385.3</ele>
        <time>2019-02-03T13:38:09.000Z</time>
      </trkpt>
      <trkpt lat="42.91931" lon="0.58308">
        <ele>1385</ele>
        <time>2019-02-03T13:38:10.000Z</time>
      </trkpt>
      <trkpt lat="42.91931" lon="0.58308">
        <ele>1385</ele>
        <time>2019-02-03T13:38:11.000Z</time>
      </trkpt>
      <trkpt lat="42.91931" lon="0.58307">
        <ele>1385</ele>
        <time>2019-02-03T13:38:12.000Z</time>
      </trkpt>
      <trkpt lat="42.91931" lon="0.58307">
        <ele>1384</ele>
        <time>2019-02-03T13:38:13.000Z</time>
      </trkpt>
      <trkpt lat="42.91931" lon="0.58307">
        <ele>1384</ele>
        <time>2019-02-03T13:38:14.000Z</time>
      </trkpt>
      <trkpt lat="42.91932" lon="0.58307">
        <ele>1384</ele>
        <time>2019-02-03T13:38:15.000Z</time>
      </trkpt>
      <trkpt lat="42.91932" lon="0.58306">
        <ele>1384</ele>
        <time>2019-02-03T13:38:16.000Z</time>
      </trkpt>
      <trkpt lat="42.91932" lon="0.58306">
        <ele>1383</ele>
        <time>2019-02-03T13:38:17.000Z</time>
      </trkpt>
      <trkpt lat="42.91932" lon="0.58305">
        <ele>1383</ele>
        <time>2019-02-03T13:38:18.000Z</time>
      </trkpt>
      <trkpt lat="42.91932" lon="0.58304">
        <ele>1383</ele>
        <time>2019-02-03T13:38:19.000Z</time>
      </trkpt>
      <trkpt lat="42.91933" lon="0.58304">
        <ele>1383</ele>
        <time>2019-02-03T13:38:20.000Z</time>
      </trkpt>
      <trkpt lat="42.91933" lon="0.58304">
        <ele>1383</ele>
        <time>2019-02-03T13:38:21.000Z</time>
      </trkpt>
      <trkpt lat="42.91933" lon="0.58304">
        <ele>1383</ele>
        <time>2019-02-03T13:38:22.000Z</time>
      </trkpt>
      <trkpt lat="42.91934" lon="0.58304">
        <ele>1383</ele>
        <time>2019-02-03T13:38:23.000Z</time>
      </trkpt>
      <trkpt lat="42.91934" lon="0.58305">
        <ele>1383</ele>
        <time>2019-02-03T13:38:24.000Z</time>
      </trkpt>
      <trkpt lat="42.91934" lon="0.58305">
        <ele>1383</ele>
        <time>2019-02-03T13:38:25.000Z</time>
      </trkpt>
      <trkpt lat="42.91934" lon="0.58305">
        <ele>1383</ele>
        <time>2019-02-03T13:38:26.000Z</time>
      </trkpt>
      <trkpt lat="42.91933" lon="0.58305">
        <ele>1383</ele>
        <time>2019-02-03T13:38:27.000Z</time>
      </trkpt>
      <trkpt lat="42.91933" lon="0.58305">
        <ele>1383</ele>
        <time>2019-02-03T13:38:28.000Z</time>
      </trkpt>
      <trkpt lat="42.91933" lon="0.58306">
        <ele>1383</ele>
        <time>2019-02-03T13:38:29.000Z</time>
      </trkpt>
      <trkpt lat="42.91933" lon="0.58306">
        <ele>1383</ele>
        <time>2019-02-03T13:38:30.000Z</time>
      </trkpt>
      <trkpt lat="42.91933" lon="0.58306">
        <ele>1383</ele>
        <time>2019-02-03T13:38:31.000Z</time>
      </trkpt>
      <trkpt lat="42.91933" lon="0.58306">
        <ele>1383</ele>
        <time>2019-02-03T13:38:32.000Z</time>
      </trkpt>
      <trkpt lat="42.91933" lon="0.58306">
        <ele>1383</ele>
        <time>2019-02-03T13:38:33.000Z</time>
      </trkpt>
      <trkpt lat="42.91934" lon="0.58306">
        <ele>1383</ele>
        <time>2019-02-03T13:38:34.000Z</time>
      </trkpt>
      <trkpt lat="42.91934" lon="0.58306">
        <ele>1383</ele>
        <time>2019-02-03T13:38:35.000Z</time>
      </trkpt>
      <trkpt lat="42.91934" lon="0.58306">
        <ele>1383</ele>
        <time>2019-02-03T13:38:36.000Z</time>
      </trkpt>
      <trkpt lat="42.91934" lon="0.58306">
        <ele>1383</ele>
        <time>2019-02-03T13:38:37.000Z</time>
      </trkpt>
      <trkpt lat="42.91935" lon="0.58306">
        <ele>1383</ele>
        <time>2019-02-03T13:38:38.000Z</time>
      </trkpt>
      <trkpt lat="42.91935" lon="0.58305">
        <ele>1383</ele>
        <time>2019-02-03T13:38:39.000Z</time>
      </trkpt>
      <trkpt lat="42.91935" lon="0.58305">
        <ele>1383</ele>
        <time>2019-02-03T13:38:40.000Z</time>
      </trkpt>
      <trkpt lat="42.91935" lon="0.58305">
        <ele>1383</ele>
        <time>2019-02-03T13:38:41.000Z</time>
      </trkpt>
      <trkpt lat="42.91935" lon="0.58305">
        <ele>1383</ele>
        <time>2019-02-03T13:38:42.000Z</time>
      </trkpt>
      <trkpt lat="42.91936" lon="0.58304">
        <ele>1383</ele>
        <time>2019-02-03T13:38:43.000Z</time>
      </trkpt>
      <trkpt lat="42.91936" lon="0.58304">
        <ele>1383</ele>
        <time>2019-02-03T13:38:44.000Z</time>
      </trkpt>
      <trkpt lat="42.91936" lon="0.58304">
        <ele>1383</ele>
        <time>2019-02-03T13:38:45.000Z</time>
      </trkpt>
      <trkpt lat="42.91936" lon="0.58303">
        <ele>1382.7</ele>
        <time>2019-02-03T13:38:46.000Z</time>
      </trkpt>
      <trkpt lat="42.91936" lon="0.58303">
        <ele>1382.3</ele>
        <time>2019-02-03T13:38:47.000Z</time>
      </trkpt>
      <trkpt lat="42.91936" lon="0.58303">
        <ele>1382</ele>
        <time>2019-02-03T13:38:48.000Z</time>
      </trkpt>
      <trkpt lat="42.91936" lon="0.58302">
        <ele>1382</ele>
        <time>2019-02-03T13:38:49.000Z</time>
      </trkpt>
      <trkpt lat="42.91936" lon="0.58302">
        <ele>1382</ele>
        <time>2019-02-03T13:38:50.000Z</time>
      </trkpt>
      <trkpt lat="42.91936" lon="0.58302">
        <ele>1382</ele>
        <time>2019-02-03T13:38:51.000Z</time>
      </trkpt>
      <trkpt lat="42.91937" lon="0.58302">
        <ele>1382</ele>
        <time>2019-02-03T13:38:52.000Z</time>
      </trkpt>
      <trkpt lat="42.91937" lon="0.58302">
        <ele>1382</ele>
        <time>2019-02-03T13:38:53.000Z</time>
      </trkpt>
      <trkpt lat="42.91937" lon="0.58302">
        <ele>1382</ele>
        <time>2019-02-03T13:38:54.000Z</time>
      </trkpt>
      <trkpt lat="42.91937" lon="0.58302">
        <ele>1382</ele>
        <time>2019-02-03T13:38:55.000Z</time>
      </trkpt>
      <trkpt lat="42.91937" lon="0.58302">
        <ele>1382</ele>
        <time>2019-02-03T13:38:56.000Z</time>
      </trkpt>
      <trkpt lat="42.91937" lon="0.58302">
        <ele>1382</ele>
        <time>2019-02-03T13:38:57.000Z</time>
      </trkpt>
      <trkpt lat="42.91937" lon="0.58302">
        <ele>1382</ele>
        <time>2019-02-03T13:38:58.000Z</time>
      </trkpt>
      <trkpt lat="42.91937" lon="0.58302">
        <ele>1382</ele>
        <time>2019-02-03T13:38:59.000Z</time>
      </trkpt>
      <trkpt lat="42.91938" lon="0.58302">
        <ele>1382</ele>
        <time>2019-02-03T13:39:00.000Z</time>
      </trkpt>
      <trkpt lat="42.91938" lon="0.58302">
        <ele>1382</ele>
        <time>2019-02-03T13:39:01.000Z</time>
      </trkpt>
      <trkpt lat="42.91938" lon="0.58302">
        <ele>1381.7</ele>
        <time>2019-02-03T13:39:02.000Z</time>
      </trkpt>
      <trkpt lat="42.91938" lon="0.58302">
        <ele>1381.3</ele>
        <time>2019-02-03T13:39:03.000Z</time>
      </trkpt>
      <trkpt lat="42.91938" lon="0.58302">
        <ele>1381</ele>
        <time>2019-02-03T13:39:04.000Z</time>
      </trkpt>
      <trkpt lat="42.91937" lon="0.58301">
        <ele>1381</ele>
        <time>2019-02-03T13:39:05.000Z</time>
      </trkpt>
      <trkpt lat="42.91937" lon="0.58301">
        <ele>1381</ele>
        <time>2019-02-03T13:39:06.000Z</time>
      </trkpt>
      <trkpt lat="42.91937" lon="0.583">
        <ele>1380</ele>
        <time>2019-02-03T13:39:07.000Z</time>
      </trkpt>
      <trkpt lat="42.91937" lon="0.583">
        <ele>1380</ele>
        <time>2019-02-03T13:39:08.000Z</time>
      </trkpt>
      <trkpt lat="42.91936" lon="0.58299">
        <ele>1380</ele>
        <time>2019-02-03T13:39:09.000Z</time>
      </trkpt>
      <trkpt lat="42.91936" lon="0.58299">
        <ele>1380</ele>
        <time>2019-02-03T13:39:10.000Z</time>
      </trkpt>
      <trkpt lat="42.91936" lon="0.58299">
        <ele>1380</ele>
        <time>2019-02-03T13:39:11.000Z</time>
      </trkpt>
      <trkpt lat="42.91936" lon="0.58299">
        <ele>1380</ele>
        <time>2019-02-03T13:39:12.000Z</time>
      </trkpt>
      <trkpt lat="42.91935" lon="0.58299">
        <ele>1380</ele>
        <time>2019-02-03T13:39:13.000Z</time>
      </trkpt>
      <trkpt lat="42.91935" lon="0.58299">
        <ele>1380</ele>
        <time>2019-02-03T13:39:14.000Z</time>
      </trkpt>
      <trkpt lat="42.91935" lon="0.58299">
        <ele>1380</ele>
        <time>2019-02-03T13:39:15.000Z</time>
      </trkpt>
      <trkpt lat="42.91935" lon="0.58298">
        <ele>1380</ele>
        <time>2019-02-03T13:39:16.000Z</time>
      </trkpt>
      <trkpt lat="42.91935" lon="0.58297">
        <ele>1380</ele>
        <time>2019-02-03T13:39:17.000Z</time>
      </trkpt>
      <trkpt lat="42.91934" lon="0.58296">
        <ele>1380</ele>
        <time>2019-02-03T13:39:18.000Z</time>
      </trkpt>
      <trkpt lat="42.91934" lon="0.58295">
        <ele>1380</ele>
        <time>2019-02-03T13:39:19.000Z</time>
      </trkpt>
      <trkpt lat="42.91933" lon="0.58295">
        <ele>1380</ele>
        <time>2019-02-03T13:39:20.000Z</time>
      </trkpt>
      <trkpt lat="42.91933" lon="0.58294">
        <ele>1379.5</ele>
        <time>2019-02-03T13:39:21.000Z</time>
      </trkpt>
      <trkpt lat="42.91933" lon="0.58294">
        <ele>1379</ele>
        <time>2019-02-03T13:39:22.000Z</time>
      </trkpt>
      <trkpt lat="42.91933" lon="0.58293">
        <ele>1379</ele>
        <time>2019-02-03T13:39:23.000Z</time>
      </trkpt>
      <trkpt lat="42.91933" lon="0.58293">
        <ele>1379</ele>
        <time>2019-02-03T13:39:24.000Z</time>
      </trkpt>
      <trkpt lat="42.91933" lon="0.58293">
        <ele>1379</ele>
        <time>2019-02-03T13:39:25.000Z</time>
      </trkpt>
      <trkpt lat="42.91933" lon="0.58293">
        <ele>1379</ele>
        <time>2019-02-03T13:39:26.000Z</time>
      </trkpt>
      <trkpt lat="42.91933" lon="0.58293">
        <ele>1379</ele>
        <time>2019-02-03T13:39:27.000Z</time>
      </trkpt>
      <trkpt lat="42.91933" lon="0.58293">
        <ele>1379</ele>
        <time>2019-02-03T13:39:28.000Z</time>
      </trkpt>
      <trkpt lat="42.91933" lon="0.58293">
        <ele>1378.5</ele>
        <time>2019-02-03T13:39:29.000Z</time>
      </trkpt>
      <trkpt lat="42.91933" lon="0.58293">
        <ele>1378</ele>
        <time>2019-02-03T13:39:30.000Z</time>
      </trkpt>
      <trkpt lat="42.91932" lon="0.58293">
        <ele>1378.5</ele>
        <time>2019-02-03T13:39:31.000Z</time>
      </trkpt>
      <trkpt lat="42.91932" lon="0.58292">
        <ele>1379</ele>
        <time>2019-02-03T13:39:32.000Z</time>
      </trkpt>
      <trkpt lat="42.91932" lon="0.58292">
        <ele>1379</ele>
        <time>2019-02-03T13:39:33.000Z</time>
      </trkpt>
      <trkpt lat="42.91931" lon="0.58291">
        <ele>1379</ele>
        <time>2019-02-03T13:39:34.000Z</time>
      </trkpt>
      <trkpt lat="42.91931" lon="0.58291">
        <ele>1379</ele>
        <time>2019-02-03T13:39:35.000Z</time>
      </trkpt>
      <trkpt lat="42.91931" lon="0.5829">
        <ele>1379</ele>
        <time>2019-02-03T13:39:36.000Z</time>
      </trkpt>
      <trkpt lat="42.91931" lon="0.5829">
        <ele>1379</ele>
        <time>2019-02-03T13:39:37.000Z</time>
      </trkpt>
      <trkpt lat="42.91931" lon="0.5829">
        <ele>1379</ele>
        <time>2019-02-03T13:39:38.000Z</time>
      </trkpt>
      <trkpt lat="42.91931" lon="0.5829">
        <ele>1378.5</ele>
        <time>2019-02-03T13:39:39.000Z</time>
      </trkpt>
      <trkpt lat="42.91931" lon="0.58289">
        <ele>1378</ele>
        <time>2019-02-03T13:39:40.000Z</time>
      </trkpt>
      <trkpt lat="42.91931" lon="0.58289">
        <ele>1378</ele>
        <time>2019-02-03T13:39:41.000Z</time>
      </trkpt>
      <trkpt lat="42.91931" lon="0.58289">
        <ele>1378</ele>
        <time>2019-02-03T13:39:42.000Z</time>
      </trkpt>
      <trkpt lat="42.91931" lon="0.58289">
        <ele>1378</ele>
        <time>2019-02-03T13:39:43.000Z</time>
      </trkpt>
      <trkpt lat="42.9193" lon="0.58289">
        <ele>1378</ele>
        <time>2019-02-03T13:39:44.000Z</time>
      </trkpt>
      <trkpt lat="42.9193" lon="0.58289">
        <ele>1377.5</ele>
        <time>2019-02-03T13:39:45.000Z</time>
      </trkpt>
      <trkpt lat="42.9193" lon="0.58289">
        <ele>1377</ele>
        <time>2019-02-03T13:39:46.000Z</time>
      </trkpt>
      <trkpt lat="42.9193" lon="0.58289">
        <ele>1377</ele>
        <time>2019-02-03T13:39:47.000Z</time>
      </trkpt>
      <trkpt lat="42.9193" lon="0.58289">
        <ele>1377</ele>
        <time>2019-02-03T13:39:48.000Z</time>
      </trkpt>
      <trkpt lat="42.91931" lon="0.58289">
        <ele>1377</ele>
        <time>2019-02-03T13:39:49.000Z</time>
      </trkpt>
      <trkpt lat="42.91931" lon="0.58289">
        <ele>1377</ele>
        <time>2019-02-03T13:39:50.000Z</time>
      </trkpt>
      <trkpt lat="42.91931" lon="0.58289">
        <ele>1377</ele>
        <time>2019-02-03T13:39:51.000Z</time>
      </trkpt>
      <trkpt lat="42.91931" lon="0.58288">
        <ele>1377</ele>
        <time>2019-02-03T13:39:52.000Z</time>
      </trkpt>
      <trkpt lat="42.91931" lon="0.58288">
        <ele>1377</ele>
        <time>2019-02-03T13:39:53.000Z</time>
      </trkpt>
      <trkpt lat="42.91931" lon="0.58288">
        <ele>1377</ele>
        <time>2019-02-03T13:39:54.000Z</time>
      </trkpt>
      <trkpt lat="42.91931" lon="0.58287">
        <ele>1377</ele>
        <time>2019-02-03T13:39:55.000Z</time>
      </trkpt>
      <trkpt lat="42.91931" lon="0.58287">
        <ele>1377</ele>
        <time>2019-02-03T13:39:56.000Z</time>
      </trkpt>
      <trkpt lat="42.91931" lon="0.58286">
        <ele>1376.5</ele>
        <time>2019-02-03T13:39:57.000Z</time>
      </trkpt>
      <trkpt lat="42.91931" lon="0.58286">
        <ele>1376</ele>
        <time>2019-02-03T13:39:58.000Z</time>
      </trkpt>
      <trkpt lat="42.91931" lon="0.58285">
        <ele>1376</ele>
        <time>2019-02-03T13:39:59.000Z</time>
      </trkpt>
      <trkpt lat="42.91931" lon="0.58285">
        <ele>1376</ele>
        <time>2019-02-03T13:40:00.000Z</time>
      </trkpt>
      <trkpt lat="42.91931" lon="0.58284">
        <ele>1375.5</ele>
        <time>2019-02-03T13:40:01.000Z</time>
      </trkpt>
      <trkpt lat="42.91931" lon="0.58283">
        <ele>1375</ele>
        <time>2019-02-03T13:40:02.000Z</time>
      </trkpt>
      <trkpt lat="42.91931" lon="0.58283">
        <ele>1375</ele>
        <time>2019-02-03T13:40:03.000Z</time>
      </trkpt>
      <trkpt lat="42.91931" lon="0.58283">
        <ele>1375</ele>
        <time>2019-02-03T13:40:04.000Z</time>
      </trkpt>
      <trkpt lat="42.91931" lon="0.58282">
        <ele>1375</ele>
        <time>2019-02-03T13:40:05.000Z</time>
      </trkpt>
      <trkpt lat="42.9193" lon="0.58282">
        <ele>1375</ele>
        <time>2019-02-03T13:40:06.000Z</time>
      </trkpt>
      <trkpt lat="42.9193" lon="0.58282">
        <ele>1374.5</ele>
        <time>2019-02-03T13:40:07.000Z</time>
      </trkpt>
      <trkpt lat="42.9193" lon="0.58281">
        <ele>1374</ele>
        <time>2019-02-03T13:40:08.000Z</time>
      </trkpt>
      <trkpt lat="42.9193" lon="0.58281">
        <ele>1374</ele>
        <time>2019-02-03T13:40:09.000Z</time>
      </trkpt>
      <trkpt lat="42.9193" lon="0.58281">
        <ele>1374</ele>
        <time>2019-02-03T13:40:10.000Z</time>
      </trkpt>
      <trkpt lat="42.9193" lon="0.58281">
        <ele>1374</ele>
        <time>2019-02-03T13:40:11.000Z</time>
      </trkpt>
      <trkpt lat="42.9193" lon="0.58281">
        <ele>1374</ele>
        <time>2019-02-03T13:40:12.000Z</time>
      </trkpt>
      <trkpt lat="42.91929" lon="0.58281">
        <ele>1374</ele>
        <time>2019-02-03T13:40:13.000Z</time>
      </trkpt>
      <trkpt lat="42.91929" lon="0.58281">
        <ele>1373.7</ele>
        <time>2019-02-03T13:40:14.000Z</time>
      </trkpt>
      <trkpt lat="42.91929" lon="0.5828">
        <ele>1373.3</ele>
        <time>2019-02-03T13:40:15.000Z</time>
      </trkpt>
      <trkpt lat="42.91929" lon="0.5828">
        <ele>1373</ele>
        <time>2019-02-03T13:40:16.000Z</time>
      </trkpt>
      <trkpt lat="42.91929" lon="0.5828">
        <ele>1373</ele>
        <time>2019-02-03T13:40:17.000Z</time>
      </trkpt>
      <trkpt lat="42.91929" lon="0.58279">
        <ele>1373</ele>
        <time>2019-02-03T13:40:18.000Z</time>
      </trkpt>
      <trkpt lat="42.91928" lon="0.58279">
        <ele>1372.5</ele>
        <time>2019-02-03T13:40:19.000Z</time>
      </trkpt>
      <trkpt lat="42.91928" lon="0.58278">
        <ele>1372</ele>
        <time>2019-02-03T13:40:20.000Z</time>
      </trkpt>
      <trkpt lat="42.91928" lon="0.58277">
        <ele>1371</ele>
        <time>2019-02-03T13:40:21.000Z</time>
      </trkpt>
      <trkpt lat="42.91927" lon="0.58277">
        <ele>1371</ele>
        <time>2019-02-03T13:40:22.000Z</time>
      </trkpt>
      <trkpt lat="42.91927" lon="0.58276">
        <ele>1371</ele>
        <time>2019-02-03T13:40:23.000Z</time>
      </trkpt>
      <trkpt lat="42.91927" lon="0.58275">
        <ele>1371</ele>
        <time>2019-02-03T13:40:24.000Z</time>
      </trkpt>
      <trkpt lat="42.91927" lon="0.58275">
        <ele>1370.5</ele>
        <time>2019-02-03T13:40:25.000Z</time>
      </trkpt>
      <trkpt lat="42.91926" lon="0.58274">
        <ele>1370</ele>
        <time>2019-02-03T13:40:26.000Z</time>
      </trkpt>
      <trkpt lat="42.91926" lon="0.58274">
        <ele>1369</ele>
        <time>2019-02-03T13:40:27.000Z</time>
      </trkpt>
      <trkpt lat="42.91926" lon="0.58274">
        <ele>1369</ele>
        <time>2019-02-03T13:40:28.000Z</time>
      </trkpt>
      <trkpt lat="42.91926" lon="0.58273">
        <ele>1369</ele>
        <time>2019-02-03T13:40:29.000Z</time>
      </trkpt>
      <trkpt lat="42.91926" lon="0.58273">
        <ele>1368.5</ele>
        <time>2019-02-03T13:40:30.000Z</time>
      </trkpt>
      <trkpt lat="42.91926" lon="0.58272">
        <ele>1368</ele>
        <time>2019-02-03T13:40:31.000Z</time>
      </trkpt>
      <trkpt lat="42.91926" lon="0.58271">
        <ele>1368</ele>
        <time>2019-02-03T13:40:32.000Z</time>
      </trkpt>
      <trkpt lat="42.91927" lon="0.58271">
        <ele>1368</ele>
        <time>2019-02-03T13:40:33.000Z</time>
      </trkpt>
      <trkpt lat="42.91927" lon="0.5827">
        <ele>1368</ele>
        <time>2019-02-03T13:40:34.000Z</time>
      </trkpt>
      <trkpt lat="42.91927" lon="0.5827">
        <ele>1367</ele>
        <time>2019-02-03T13:40:35.000Z</time>
      </trkpt>
      <trkpt lat="42.91927" lon="0.58269">
        <ele>1366.5</ele>
        <time>2019-02-03T13:40:36.000Z</time>
      </trkpt>
      <trkpt lat="42.91927" lon="0.58269">
        <ele>1366</ele>
        <time>2019-02-03T13:40:37.000Z</time>
      </trkpt>
      <trkpt lat="42.91927" lon="0.58269">
        <ele>1366</ele>
        <time>2019-02-03T13:40:38.000Z</time>
      </trkpt>
      <trkpt lat="42.91927" lon="0.58268">
        <ele>1366</ele>
        <time>2019-02-03T13:40:39.000Z</time>
      </trkpt>
      <trkpt lat="42.91927" lon="0.58268">
        <ele>1365.7</ele>
        <time>2019-02-03T13:40:40.000Z</time>
      </trkpt>
      <trkpt lat="42.91927" lon="0.58268">
        <ele>1365.3</ele>
        <time>2019-02-03T13:40:41.000Z</time>
      </trkpt>
      <trkpt lat="42.91927" lon="0.58268">
        <ele>1365</ele>
        <time>2019-02-03T13:40:42.000Z</time>
      </trkpt>
      <trkpt lat="42.91927" lon="0.58267">
        <ele>1365</ele>
        <time>2019-02-03T13:40:43.000Z</time>
      </trkpt>
      <trkpt lat="42.91927" lon="0.58267">
        <ele>1365</ele>
        <time>2019-02-03T13:40:44.000Z</time>
      </trkpt>
      <trkpt lat="42.91927" lon="0.58267">
        <ele>1364</ele>
        <time>2019-02-03T13:40:45.000Z</time>
      </trkpt>
      <trkpt lat="42.91927" lon="0.58267">
        <ele>1363.7</ele>
        <time>2019-02-03T13:40:46.000Z</time>
      </trkpt>
      <trkpt lat="42.91927" lon="0.58267">
        <ele>1363.3</ele>
        <time>2019-02-03T13:40:47.000Z</time>
      </trkpt>
      <trkpt lat="42.91927" lon="0.58267">
        <ele>1363</ele>
        <time>2019-02-03T13:40:48.000Z</time>
      </trkpt>
      <trkpt lat="42.91927" lon="0.58267">
        <ele>1363</ele>
        <time>2019-02-03T13:40:49.000Z</time>
      </trkpt>
      <trkpt lat="42.91927" lon="0.58267">
        <ele>1362.7</ele>
        <time>2019-02-03T13:40:50.000Z</time>
      </trkpt>
      <trkpt lat="42.91927" lon="0.58267">
        <ele>1362.3</ele>
        <time>2019-02-03T13:40:51.000Z</time>
      </trkpt>
      <trkpt lat="42.91928" lon="0.58266">
        <ele>1362</ele>
        <time>2019-02-03T13:40:52.000Z</time>
      </trkpt>
      <trkpt lat="42.91928" lon="0.58265">
        <ele>1362</ele>
        <time>2019-02-03T13:40:53.000Z</time>
      </trkpt>
      <trkpt lat="42.91928" lon="0.58264">
        <ele>1361.7</ele>
        <time>2019-02-03T13:40:54.000Z</time>
      </trkpt>
      <trkpt lat="42.91929" lon="0.58262">
        <ele>1361.3</ele>
        <time>2019-02-03T13:40:55.000Z</time>
      </trkpt>
      <trkpt lat="42.91929" lon="0.58261">
        <ele>1361</ele>
        <time>2019-02-03T13:40:56.000Z</time>
      </trkpt>
      <trkpt lat="42.91929" lon="0.5826">
        <ele>1360.5</ele>
        <time>2019-02-03T13:40:57.000Z</time>
      </trkpt>
      <trkpt lat="42.9193" lon="0.5826">
        <ele>1360</ele>
        <time>2019-02-03T13:40:58.000Z</time>
      </trkpt>
      <trkpt lat="42.9193" lon="0.5826">
        <ele>1360</ele>
        <time>2019-02-03T13:40:59.000Z</time>
      </trkpt>
      <trkpt lat="42.91931" lon="0.58259">
        <ele>1360</ele>
        <time>2019-02-03T13:41:00.000Z</time>
      </trkpt>
      <trkpt lat="42.91931" lon="0.58259">
        <ele>1359.5</ele>
        <time>2019-02-03T13:41:01.000Z</time>
      </trkpt>
      <trkpt lat="42.91931" lon="0.58258">
        <ele>1359</ele>
        <time>2019-02-03T13:41:02.000Z</time>
      </trkpt>
      <trkpt lat="42.91932" lon="0.58257">
        <ele>1359</ele>
        <time>2019-02-03T13:41:03.000Z</time>
      </trkpt>
      <trkpt lat="42.91932" lon="0.58257">
        <ele>1359</ele>
        <time>2019-02-03T13:41:04.000Z</time>
      </trkpt>
      <trkpt lat="42.91932" lon="0.58256">
        <ele>1359</ele>
        <time>2019-02-03T13:41:05.000Z</time>
      </trkpt>
      <trkpt lat="42.91932" lon="0.58255">
        <ele>1359</ele>
        <time>2019-02-03T13:41:06.000Z</time>
      </trkpt>
      <trkpt lat="42.91932" lon="0.58254">
        <ele>1358.5</ele>
        <time>2019-02-03T13:41:07.000Z</time>
      </trkpt>
      <trkpt lat="42.91931" lon="0.58253">
        <ele>1358</ele>
        <time>2019-02-03T13:41:08.000Z</time>
      </trkpt>
      <trkpt lat="42.91931" lon="0.58252">
        <ele>1358</ele>
        <time>2019-02-03T13:41:09.000Z</time>
      </trkpt>
      <trkpt lat="42.91931" lon="0.58251">
        <ele>1357.7</ele>
        <time>2019-02-03T13:41:10.000Z</time>
      </trkpt>
      <trkpt lat="42.91931" lon="0.5825">
        <ele>1357.3</ele>
        <time>2019-02-03T13:41:11.000Z</time>
      </trkpt>
      <trkpt lat="42.91931" lon="0.58249">
        <ele>1357</ele>
        <time>2019-02-03T13:41:12.000Z</time>
      </trkpt>
      <trkpt lat="42.91931" lon="0.58248">
        <ele>1357</ele>
        <time>2019-02-03T13:41:13.000Z</time>
      </trkpt>
      <trkpt lat="42.91931" lon="0.58248">
        <ele>1357</ele>
        <time>2019-02-03T13:41:14.000Z</time>
      </trkpt>
      <trkpt lat="42.91931" lon="0.58247">
        <ele>1356</ele>
        <time>2019-02-03T13:41:15.000Z</time>
      </trkpt>
      <trkpt lat="42.91931" lon="0.58247">
        <ele>1356</ele>
        <time>2019-02-03T13:41:16.000Z</time>
      </trkpt>
      <trkpt lat="42.91931" lon="0.58246">
        <ele>1356</ele>
        <time>2019-02-03T13:41:17.000Z</time>
      </trkpt>
      <trkpt lat="42.91931" lon="0.58246">
        <ele>1355.7</ele>
        <time>2019-02-03T13:41:18.000Z</time>
      </trkpt>
      <trkpt lat="42.91931" lon="0.58245">
        <ele>1355.3</ele>
        <time>2019-02-03T13:41:19.000Z</time>
      </trkpt>
      <trkpt lat="42.91931" lon="0.58245">
        <ele>1355</ele>
        <time>2019-02-03T13:41:20.000Z</time>
      </trkpt>
      <trkpt lat="42.91931" lon="0.58244">
        <ele>1355</ele>
        <time>2019-02-03T13:41:21.000Z</time>
      </trkpt>
      <trkpt lat="42.91931" lon="0.58244">
        <ele>1355</ele>
        <time>2019-02-03T13:41:22.000Z</time>
      </trkpt>
      <trkpt lat="42.91931" lon="0.58243">
        <ele>1354.5</ele>
        <time>2019-02-03T13:41:23.000Z</time>
      </trkpt>
      <trkpt lat="42.91931" lon="0.58242">
        <ele>1354</ele>
        <time>2019-02-03T13:41:24.000Z</time>
      </trkpt>
      <trkpt lat="42.91931" lon="0.58241">
        <ele>1353.5</ele>
        <time>2019-02-03T13:41:25.000Z</time>
      </trkpt>
      <trkpt lat="42.9193" lon="0.5824">
        <ele>1353</ele>
        <time>2019-02-03T13:41:26.000Z</time>
      </trkpt>
      <trkpt lat="42.9193" lon="0.58239">
        <ele>1353</ele>
        <time>2019-02-03T13:41:27.000Z</time>
      </trkpt>
      <trkpt lat="42.9193" lon="0.58238">
        <ele>1352.5</ele>
        <time>2019-02-03T13:41:28.000Z</time>
      </trkpt>
      <trkpt lat="42.91929" lon="0.58237">
        <ele>1352</ele>
        <time>2019-02-03T13:41:29.000Z</time>
      </trkpt>
      <trkpt lat="42.91929" lon="0.58236">
        <ele>1352</ele>
        <time>2019-02-03T13:41:30.000Z</time>
      </trkpt>
      <trkpt lat="42.91929" lon="0.58235">
        <ele>1352</ele>
        <time>2019-02-03T13:41:31.000Z</time>
      </trkpt>
      <trkpt lat="42.91929" lon="0.58234">
        <ele>1352</ele>
        <time>2019-02-03T13:41:32.000Z</time>
      </trkpt>
      <trkpt lat="42.91928" lon="0.58233">
        <ele>1351.5</ele>
        <time>2019-02-03T13:41:33.000Z</time>
      </trkpt>
      <trkpt lat="42.91928" lon="0.58232">
        <ele>1351</ele>
        <time>2019-02-03T13:41:34.000Z</time>
      </trkpt>
      <trkpt lat="42.91928" lon="0.58231">
        <ele>1350.5</ele>
        <time>2019-02-03T13:41:35.000Z</time>
      </trkpt>
      <trkpt lat="42.91928" lon="0.5823">
        <ele>1350</ele>
        <time>2019-02-03T13:41:36.000Z</time>
      </trkpt>
      <trkpt lat="42.91927" lon="0.5823">
        <ele>1350</ele>
        <time>2019-02-03T13:41:37.000Z</time>
      </trkpt>
      <trkpt lat="42.91927" lon="0.58229">
        <ele>1350</ele>
        <time>2019-02-03T13:41:38.000Z</time>
      </trkpt>
      <trkpt lat="42.91927" lon="0.58229">
        <ele>1349.5</ele>
        <time>2019-02-03T13:41:39.000Z</time>
      </trkpt>
      <trkpt lat="42.91926" lon="0.58228">
        <ele>1349</ele>
        <time>2019-02-03T13:41:40.000Z</time>
      </trkpt>
      <trkpt lat="42.91926" lon="0.58228">
        <ele>1348.5</ele>
        <time>2019-02-03T13:41:41.000Z</time>
      </trkpt>
      <trkpt lat="42.91926" lon="0.58227">
        <ele>1348</ele>
        <time>2019-02-03T13:41:42.000Z</time>
      </trkpt>
      <trkpt lat="42.91925" lon="0.58227">
        <ele>1348</ele>
        <time>2019-02-03T13:41:43.000Z</time>
      </trkpt>
      <trkpt lat="42.91925" lon="0.58226">
        <ele>1347.7</ele>
        <time>2019-02-03T13:41:44.000Z</time>
      </trkpt>
      <trkpt lat="42.91925" lon="0.58226">
        <ele>1347.3</ele>
        <time>2019-02-03T13:41:45.000Z</time>
      </trkpt>
      <trkpt lat="42.91925" lon="0.58225">
        <ele>1347</ele>
        <time>2019-02-03T13:41:46.000Z</time>
      </trkpt>
      <trkpt lat="42.91924" lon="0.58224">
        <ele>1346.5</ele>
        <time>2019-02-03T13:41:47.000Z</time>
      </trkpt>
      <trkpt lat="42.91924" lon="0.58224">
        <ele>1346</ele>
        <time>2019-02-03T13:41:48.000Z</time>
      </trkpt>
      <trkpt lat="42.91924" lon="0.58223">
        <ele>1346</ele>
        <time>2019-02-03T13:41:49.000Z</time>
      </trkpt>
      <trkpt lat="42.91924" lon="0.58221">
        <ele>1345.5</ele>
        <time>2019-02-03T13:41:50.000Z</time>
      </trkpt>
      <trkpt lat="42.91925" lon="0.5822">
        <ele>1345</ele>
        <time>2019-02-03T13:41:51.000Z</time>
      </trkpt>
      <trkpt lat="42.91925" lon="0.58219">
        <ele>1345</ele>
        <time>2019-02-03T13:41:52.000Z</time>
      </trkpt>
      <trkpt lat="42.91925" lon="0.58219">
        <ele>1345</ele>
        <time>2019-02-03T13:41:53.000Z</time>
      </trkpt>
      <trkpt lat="42.91925" lon="0.58218">
        <ele>1345</ele>
        <time>2019-02-03T13:41:54.000Z</time>
      </trkpt>
      <trkpt lat="42.91925" lon="0.58218">
        <ele>1344</ele>
        <time>2019-02-03T13:41:55.000Z</time>
      </trkpt>
      <trkpt lat="42.91925" lon="0.58218">
        <ele>1343.7</ele>
        <time>2019-02-03T13:41:56.000Z</time>
      </trkpt>
      <trkpt lat="42.91925" lon="0.58217">
        <ele>1343.3</ele>
        <time>2019-02-03T13:41:57.000Z</time>
      </trkpt>
      <trkpt lat="42.91924" lon="0.58217">
        <ele>1343</ele>
        <time>2019-02-03T13:41:58.000Z</time>
      </trkpt>
      <trkpt lat="42.91924" lon="0.58216">
        <ele>1343</ele>
        <time>2019-02-03T13:41:59.000Z</time>
      </trkpt>
      <trkpt lat="42.91924" lon="0.58215">
        <ele>1343</ele>
        <time>2019-02-03T13:42:00.000Z</time>
      </trkpt>
      <trkpt lat="42.91923" lon="0.58214">
        <ele>1343</ele>
        <time>2019-02-03T13:42:01.000Z</time>
      </trkpt>
      <trkpt lat="42.91923" lon="0.58213">
        <ele>1342.7</ele>
        <time>2019-02-03T13:42:02.000Z</time>
      </trkpt>
      <trkpt lat="42.91923" lon="0.58212">
        <ele>1342.3</ele>
        <time>2019-02-03T13:42:03.000Z</time>
      </trkpt>
      <trkpt lat="42.91922" lon="0.58211">
        <ele>1342</ele>
        <time>2019-02-03T13:42:04.000Z</time>
      </trkpt>
      <trkpt lat="42.91922" lon="0.5821">
        <ele>1342</ele>
        <time>2019-02-03T13:42:05.000Z</time>
      </trkpt>
      <trkpt lat="42.91922" lon="0.5821">
        <ele>1341.5</ele>
        <time>2019-02-03T13:42:06.000Z</time>
      </trkpt>
      <trkpt lat="42.91922" lon="0.58209">
        <ele>1341</ele>
        <time>2019-02-03T13:42:07.000Z</time>
      </trkpt>
      <trkpt lat="42.91921" lon="0.58208">
        <ele>1341</ele>
        <time>2019-02-03T13:42:08.000Z</time>
      </trkpt>
      <trkpt lat="42.91921" lon="0.58207">
        <ele>1341</ele>
        <time>2019-02-03T13:42:09.000Z</time>
      </trkpt>
      <trkpt lat="42.91921" lon="0.58207">
        <ele>1341</ele>
        <time>2019-02-03T13:42:10.000Z</time>
      </trkpt>
      <trkpt lat="42.91921" lon="0.58206">
        <ele>1340</ele>
        <time>2019-02-03T13:42:11.000Z</time>
      </trkpt>
      <trkpt lat="42.9192" lon="0.58206">
        <ele>1340</ele>
        <time>2019-02-03T13:42:12.000Z</time>
      </trkpt>
      <trkpt lat="42.9192" lon="0.58205">
        <ele>1340</ele>
        <time>2019-02-03T13:42:13.000Z</time>
      </trkpt>
      <trkpt lat="42.9192" lon="0.58205">
        <ele>1340</ele>
        <time>2019-02-03T13:42:14.000Z</time>
      </trkpt>
      <trkpt lat="42.91919" lon="0.58205">
        <ele>1339</ele>
        <time>2019-02-03T13:42:15.000Z</time>
      </trkpt>
      <trkpt lat="42.91919" lon="0.58205">
        <ele>1338.7</ele>
        <time>2019-02-03T13:42:16.000Z</time>
      </trkpt>
      <trkpt lat="42.91918" lon="0.58204">
        <ele>1338.3</ele>
        <time>2019-02-03T13:42:17.000Z</time>
      </trkpt>
      <trkpt lat="42.91918" lon="0.58204">
        <ele>1338</ele>
        <time>2019-02-03T13:42:18.000Z</time>
      </trkpt>
      <trkpt lat="42.91917" lon="0.58203">
        <ele>1338</ele>
        <time>2019-02-03T13:42:19.000Z</time>
      </trkpt>
      <trkpt lat="42.91917" lon="0.58203">
        <ele>1338</ele>
        <time>2019-02-03T13:42:20.000Z</time>
      </trkpt>
      <trkpt lat="42.91917" lon="0.58202">
        <ele>1338</ele>
        <time>2019-02-03T13:42:21.000Z</time>
      </trkpt>
      <trkpt lat="42.91917" lon="0.58201">
        <ele>1338</ele>
        <time>2019-02-03T13:42:22.000Z</time>
      </trkpt>
      <trkpt lat="42.91917" lon="0.582">
        <ele>1337</ele>
        <time>2019-02-03T13:42:23.000Z</time>
      </trkpt>
      <trkpt lat="42.91917" lon="0.58199">
        <ele>1336.5</ele>
        <time>2019-02-03T13:42:24.000Z</time>
      </trkpt>
      <trkpt lat="42.91917" lon="0.58199">
        <ele>1336</ele>
        <time>2019-02-03T13:42:25.000Z</time>
      </trkpt>
      <trkpt lat="42.91917" lon="0.58198">
        <ele>1336</ele>
        <time>2019-02-03T13:42:26.000Z</time>
      </trkpt>
      <trkpt lat="42.91917" lon="0.58198">
        <ele>1336</ele>
        <time>2019-02-03T13:42:27.000Z</time>
      </trkpt>
      <trkpt lat="42.91917" lon="0.58197">
        <ele>1336</ele>
        <time>2019-02-03T13:42:28.000Z</time>
      </trkpt>
      <trkpt lat="42.91917" lon="0.58197">
        <ele>1335</ele>
        <time>2019-02-03T13:42:29.000Z</time>
      </trkpt>
      <trkpt lat="42.91917" lon="0.58197">
        <ele>1334.7</ele>
        <time>2019-02-03T13:42:30.000Z</time>
      </trkpt>
      <trkpt lat="42.91917" lon="0.58197">
        <ele>1334.3</ele>
        <time>2019-02-03T13:42:31.000Z</time>
      </trkpt>
      <trkpt lat="42.91917" lon="0.58197">
        <ele>1334</ele>
        <time>2019-02-03T13:42:32.000Z</time>
      </trkpt>
      <trkpt lat="42.91917" lon="0.58197">
        <ele>1334</ele>
        <time>2019-02-03T13:42:33.000Z</time>
      </trkpt>
      <trkpt lat="42.91916" lon="0.58196">
        <ele>1334</ele>
        <time>2019-02-03T13:42:34.000Z</time>
      </trkpt>
      <trkpt lat="42.91916" lon="0.58196">
        <ele>1333.5</ele>
        <time>2019-02-03T13:42:35.000Z</time>
      </trkpt>
      <trkpt lat="42.91916" lon="0.58194">
        <ele>1333</ele>
        <time>2019-02-03T13:42:36.000Z</time>
      </trkpt>
      <trkpt lat="42.91916" lon="0.58192">
        <ele>1333</ele>
        <time>2019-02-03T13:42:37.000Z</time>
      </trkpt>
      <trkpt lat="42.91915" lon="0.5819">
        <ele>1333</ele>
        <time>2019-02-03T13:42:38.000Z</time>
      </trkpt>
      <trkpt lat="42.91915" lon="0.58189">
        <ele>1332.5</ele>
        <time>2019-02-03T13:42:39.000Z</time>
      </trkpt>
      <trkpt lat="42.91915" lon="0.58188">
        <ele>1332</ele>
        <time>2019-02-03T13:42:40.000Z</time>
      </trkpt>
      <trkpt lat="42.91915" lon="0.58187">
        <ele>1331</ele>
        <time>2019-02-03T13:42:41.000Z</time>
      </trkpt>
      <trkpt lat="42.91915" lon="0.58186">
        <ele>1330.7</ele>
        <time>2019-02-03T13:42:42.000Z</time>
      </trkpt>
      <trkpt lat="42.91915" lon="0.58186">
        <ele>1330.3</ele>
        <time>2019-02-03T13:42:43.000Z</time>
      </trkpt>
      <trkpt lat="42.91915" lon="0.58185">
        <ele>1330</ele>
        <time>2019-02-03T13:42:44.000Z</time>
      </trkpt>
      <trkpt lat="42.91915" lon="0.58184">
        <ele>1330</ele>
        <time>2019-02-03T13:42:45.000Z</time>
      </trkpt>
      <trkpt lat="42.91915" lon="0.58182">
        <ele>1329.7</ele>
        <time>2019-02-03T13:42:46.000Z</time>
      </trkpt>
      <trkpt lat="42.91915" lon="0.58181">
        <ele>1329.3</ele>
        <time>2019-02-03T13:42:47.000Z</time>
      </trkpt>
      <trkpt lat="42.91915" lon="0.58179">
        <ele>1329</ele>
        <time>2019-02-03T13:42:48.000Z</time>
      </trkpt>
      <trkpt lat="42.91915" lon="0.58178">
        <ele>1328.5</ele>
        <time>2019-02-03T13:42:49.000Z</time>
      </trkpt>
      <trkpt lat="42.91915" lon="0.58177">
        <ele>1328</ele>
        <time>2019-02-03T13:42:50.000Z</time>
      </trkpt>
      <trkpt lat="42.91915" lon="0.58176">
        <ele>1327.5</ele>
        <time>2019-02-03T13:42:51.000Z</time>
      </trkpt>
      <trkpt lat="42.91914" lon="0.58175">
        <ele>1327</ele>
        <time>2019-02-03T13:42:52.000Z</time>
      </trkpt>
      <trkpt lat="42.91914" lon="0.58174">
        <ele>1327</ele>
        <time>2019-02-03T13:42:53.000Z</time>
      </trkpt>
      <trkpt lat="42.91915" lon="0.58173">
        <ele>1327</ele>
        <time>2019-02-03T13:42:54.000Z</time>
      </trkpt>
      <trkpt lat="42.91915" lon="0.58173">
        <ele>1326.5</ele>
        <time>2019-02-03T13:42:55.000Z</time>
      </trkpt>
      <trkpt lat="42.91915" lon="0.58172">
        <ele>1326</ele>
        <time>2019-02-03T13:42:56.000Z</time>
      </trkpt>
      <trkpt lat="42.91915" lon="0.58172">
        <ele>1326</ele>
        <time>2019-02-03T13:42:57.000Z</time>
      </trkpt>
      <trkpt lat="42.91915" lon="0.58172">
        <ele>1325.7</ele>
        <time>2019-02-03T13:42:58.000Z</time>
      </trkpt>
      <trkpt lat="42.91915" lon="0.58172">
        <ele>1325.3</ele>
        <time>2019-02-03T13:42:59.000Z</time>
      </trkpt>
      <trkpt lat="42.91915" lon="0.58172">
        <ele>1325</ele>
        <time>2019-02-03T13:43:00.000Z</time>
      </trkpt>
      <trkpt lat="42.91915" lon="0.58172">
        <ele>1325</ele>
        <time>2019-02-03T13:43:01.000Z</time>
      </trkpt>
      <trkpt lat="42.91915" lon="0.58172">
        <ele>1324.7</ele>
        <time>2019-02-03T13:43:02.000Z</time>
      </trkpt>
      <trkpt lat="42.91915" lon="0.58172">
        <ele>1324.3</ele>
        <time>2019-02-03T13:43:03.000Z</time>
      </trkpt>
      <trkpt lat="42.91915" lon="0.58172">
        <ele>1324</ele>
        <time>2019-02-03T13:43:04.000Z</time>
      </trkpt>
      <trkpt lat="42.91915" lon="0.58172">
        <ele>1324</ele>
        <time>2019-02-03T13:43:05.000Z</time>
      </trkpt>
      <trkpt lat="42.91915" lon="0.58171">
        <ele>1324</ele>
        <time>2019-02-03T13:43:06.000Z</time>
      </trkpt>
      <trkpt lat="42.91915" lon="0.58171">
        <ele>1324</ele>
        <time>2019-02-03T13:43:07.000Z</time>
      </trkpt>
      <trkpt lat="42.91915" lon="0.5817">
        <ele>1323.7</ele>
        <time>2019-02-03T13:43:08.000Z</time>
      </trkpt>
      <trkpt lat="42.91915" lon="0.58169">
        <ele>1323.3</ele>
        <time>2019-02-03T13:43:09.000Z</time>
      </trkpt>
      <trkpt lat="42.91915" lon="0.58167">
        <ele>1323</ele>
        <time>2019-02-03T13:43:10.000Z</time>
      </trkpt>
      <trkpt lat="42.91916" lon="0.58166">
        <ele>1323</ele>
        <time>2019-02-03T13:43:11.000Z</time>
      </trkpt>
      <trkpt lat="42.91916" lon="0.58165">
        <ele>1323</ele>
        <time>2019-02-03T13:43:12.000Z</time>
      </trkpt>
      <trkpt lat="42.91916" lon="0.58163">
        <ele>1322.5</ele>
        <time>2019-02-03T13:43:13.000Z</time>
      </trkpt>
      <trkpt lat="42.91916" lon="0.58162">
        <ele>1322</ele>
        <time>2019-02-03T13:43:14.000Z</time>
      </trkpt>
      <trkpt lat="42.91916" lon="0.58161">
        <ele>1322</ele>
        <time>2019-02-03T13:43:15.000Z</time>
      </trkpt>
      <trkpt lat="42.91916" lon="0.5816">
        <ele>1321.7</ele>
        <time>2019-02-03T13:43:16.000Z</time>
      </trkpt>
      <trkpt lat="42.91916" lon="0.58159">
        <ele>1321.3</ele>
        <time>2019-02-03T13:43:17.000Z</time>
      </trkpt>
      <trkpt lat="42.91917" lon="0.58158">
        <ele>1321</ele>
        <time>2019-02-03T13:43:18.000Z</time>
      </trkpt>
      <trkpt lat="42.91917" lon="0.58157">
        <ele>1320.5</ele>
        <time>2019-02-03T13:43:19.000Z</time>
      </trkpt>
      <trkpt lat="42.91917" lon="0.58156">
        <ele>1320</ele>
        <time>2019-02-03T13:43:20.000Z</time>
      </trkpt>
      <trkpt lat="42.91917" lon="0.58155">
        <ele>1320</ele>
        <time>2019-02-03T13:43:21.000Z</time>
      </trkpt>
      <trkpt lat="42.91918" lon="0.58155">
        <ele>1320</ele>
        <time>2019-02-03T13:43:22.000Z</time>
      </trkpt>
      <trkpt lat="42.91918" lon="0.58154">
        <ele>1319</ele>
        <time>2019-02-03T13:43:23.000Z</time>
      </trkpt>
      <trkpt lat="42.91918" lon="0.58153">
        <ele>1319</ele>
        <time>2019-02-03T13:43:24.000Z</time>
      </trkpt>
      <trkpt lat="42.91918" lon="0.58153">
        <ele>1319</ele>
        <time>2019-02-03T13:43:25.000Z</time>
      </trkpt>
      <trkpt lat="42.91919" lon="0.58152">
        <ele>1319</ele>
        <time>2019-02-03T13:43:26.000Z</time>
      </trkpt>
      <trkpt lat="42.91919" lon="0.58152">
        <ele>1318.5</ele>
        <time>2019-02-03T13:43:27.000Z</time>
      </trkpt>
      <trkpt lat="42.91919" lon="0.58151">
        <ele>1318</ele>
        <time>2019-02-03T13:43:28.000Z</time>
      </trkpt>
      <trkpt lat="42.91919" lon="0.5815">
        <ele>1318</ele>
        <time>2019-02-03T13:43:29.000Z</time>
      </trkpt>
      <trkpt lat="42.91919" lon="0.5815">
        <ele>1318</ele>
        <time>2019-02-03T13:43:30.000Z</time>
      </trkpt>
      <trkpt lat="42.91918" lon="0.58149">
        <ele>1317.5</ele>
        <time>2019-02-03T13:43:31.000Z</time>
      </trkpt>
      <trkpt lat="42.91918" lon="0.58149">
        <ele>1317</ele>
        <time>2019-02-03T13:43:32.000Z</time>
      </trkpt>
      <trkpt lat="42.91918" lon="0.58148">
        <ele>1317</ele>
        <time>2019-02-03T13:43:33.000Z</time>
      </trkpt>
      <trkpt lat="42.91918" lon="0.58147">
        <ele>1317</ele>
        <time>2019-02-03T13:43:34.000Z</time>
      </trkpt>
      <trkpt lat="42.91917" lon="0.58147">
        <ele>1317</ele>
        <time>2019-02-03T13:43:35.000Z</time>
      </trkpt>
      <trkpt lat="42.91917" lon="0.58146">
        <ele>1317</ele>
        <time>2019-02-03T13:43:36.000Z</time>
      </trkpt>
      <trkpt lat="42.91917" lon="0.58145">
        <ele>1316.5</ele>
        <time>2019-02-03T13:43:37.000Z</time>
      </trkpt>
      <trkpt lat="42.91917" lon="0.58145">
        <ele>1316</ele>
        <time>2019-02-03T13:43:38.000Z</time>
      </trkpt>
      <trkpt lat="42.91916" lon="0.58144">
        <ele>1316</ele>
        <time>2019-02-03T13:43:39.000Z</time>
      </trkpt>
      <trkpt lat="42.91916" lon="0.58143">
        <ele>1316</ele>
        <time>2019-02-03T13:43:40.000Z</time>
      </trkpt>
      <trkpt lat="42.91916" lon="0.58143">
        <ele>1315.5</ele>
        <time>2019-02-03T13:43:41.000Z</time>
      </trkpt>
      <trkpt lat="42.91916" lon="0.58142">
        <ele>1315</ele>
        <time>2019-02-03T13:43:42.000Z</time>
      </trkpt>
      <trkpt lat="42.91916" lon="0.58141">
        <ele>1315</ele>
        <time>2019-02-03T13:43:43.000Z</time>
      </trkpt>
      <trkpt lat="42.91916" lon="0.58141">
        <ele>1315</ele>
        <time>2019-02-03T13:43:44.000Z</time>
      </trkpt>
      <trkpt lat="42.91916" lon="0.58141">
        <ele>1315</ele>
        <time>2019-02-03T13:43:45.000Z</time>
      </trkpt>
      <trkpt lat="42.91916" lon="0.5814">
        <ele>1315</ele>
        <time>2019-02-03T13:43:46.000Z</time>
      </trkpt>
      <trkpt lat="42.91916" lon="0.5814">
        <ele>1314</ele>
        <time>2019-02-03T13:43:47.000Z</time>
      </trkpt>
      <trkpt lat="42.91917" lon="0.5814">
        <ele>1313</ele>
        <time>2019-02-03T13:43:48.000Z</time>
      </trkpt>
      <trkpt lat="42.91917" lon="0.5814">
        <ele>1313</ele>
        <time>2019-02-03T13:43:49.000Z</time>
      </trkpt>
      <trkpt lat="42.91917" lon="0.5814">
        <ele>1313</ele>
        <time>2019-02-03T13:43:50.000Z</time>
      </trkpt>
      <trkpt lat="42.91917" lon="0.5814">
        <ele>1312</ele>
        <time>2019-02-03T13:43:51.000Z</time>
      </trkpt>
      <trkpt lat="42.91917" lon="0.5814">
        <ele>1312</ele>
        <time>2019-02-03T13:43:52.000Z</time>
      </trkpt>
      <trkpt lat="42.91917" lon="0.5814">
        <ele>1312</ele>
        <time>2019-02-03T13:43:53.000Z</time>
      </trkpt>
      <trkpt lat="42.91917" lon="0.5814">
        <ele>1312</ele>
        <time>2019-02-03T13:43:54.000Z</time>
      </trkpt>
      <trkpt lat="42.91917" lon="0.58141">
        <ele>1312</ele>
        <time>2019-02-03T13:43:55.000Z</time>
      </trkpt>
      <trkpt lat="42.91917" lon="0.58141">
        <ele>1312</ele>
        <time>2019-02-03T13:43:56.000Z</time>
      </trkpt>
      <trkpt lat="42.91917" lon="0.58141">
        <ele>1312</ele>
        <time>2019-02-03T13:43:57.000Z</time>
      </trkpt>
      <trkpt lat="42.91918" lon="0.58141">
        <ele>1312</ele>
        <time>2019-02-03T13:43:58.000Z</time>
      </trkpt>
      <trkpt lat="42.91918" lon="0.58141">
        <ele>1312</ele>
        <time>2019-02-03T13:43:59.000Z</time>
      </trkpt>
      <trkpt lat="42.91918" lon="0.58142">
        <ele>1312</ele>
        <time>2019-02-03T13:44:00.000Z</time>
      </trkpt>
      <trkpt lat="42.91918" lon="0.58142">
        <ele>1312</ele>
        <time>2019-02-03T13:44:01.000Z</time>
      </trkpt>
      <trkpt lat="42.91919" lon="0.58143">
        <ele>1312</ele>
        <time>2019-02-03T13:44:02.000Z</time>
      </trkpt>
      <trkpt lat="42.91919" lon="0.58143">
        <ele>1312</ele>
        <time>2019-02-03T13:44:03.000Z</time>
      </trkpt>
      <trkpt lat="42.9192" lon="0.58144">
        <ele>1312</ele>
        <time>2019-02-03T13:44:04.000Z</time>
      </trkpt>
      <trkpt lat="42.91921" lon="0.58145">
        <ele>1312</ele>
        <time>2019-02-03T13:44:05.000Z</time>
      </trkpt>
      <trkpt lat="42.91922" lon="0.58145">
        <ele>1312</ele>
        <time>2019-02-03T13:44:06.000Z</time>
      </trkpt>
      <trkpt lat="42.91923" lon="0.58146">
        <ele>1312</ele>
        <time>2019-02-03T13:44:07.000Z</time>
      </trkpt>
      <trkpt lat="42.91924" lon="0.58147">
        <ele>1312</ele>
        <time>2019-02-03T13:44:08.000Z</time>
      </trkpt>
      <trkpt lat="42.91926" lon="0.58148">
        <ele>1312</ele>
        <time>2019-02-03T13:44:09.000Z</time>
      </trkpt>
      <trkpt lat="42.91927" lon="0.58149">
        <ele>1312</ele>
        <time>2019-02-03T13:44:10.000Z</time>
      </trkpt>
      <trkpt lat="42.91928" lon="0.58149">
        <ele>1312</ele>
        <time>2019-02-03T13:44:11.000Z</time>
      </trkpt>
      <trkpt lat="42.91929" lon="0.5815">
        <ele>1312</ele>
        <time>2019-02-03T13:44:12.000Z</time>
      </trkpt>
      <trkpt lat="42.9193" lon="0.58151">
        <ele>1312</ele>
        <time>2019-02-03T13:44:13.000Z</time>
      </trkpt>
      <trkpt lat="42.9193" lon="0.58151">
        <ele>1312</ele>
        <time>2019-02-03T13:44:14.000Z</time>
      </trkpt>
      <trkpt lat="42.9193" lon="0.58152">
        <ele>1312</ele>
        <time>2019-02-03T13:44:15.000Z</time>
      </trkpt>
      <trkpt lat="42.9193" lon="0.58152">
        <ele>1312</ele>
        <time>2019-02-03T13:44:16.000Z</time>
      </trkpt>
      <trkpt lat="42.9193" lon="0.58153">
        <ele>1312</ele>
        <time>2019-02-03T13:44:17.000Z</time>
      </trkpt>
      <trkpt lat="42.9193" lon="0.58153">
        <ele>1312</ele>
        <time>2019-02-03T13:44:18.000Z</time>
      </trkpt>
      <trkpt lat="42.9193" lon="0.58153">
        <ele>1312</ele>
        <time>2019-02-03T13:44:19.000Z</time>
      </trkpt>
      <trkpt lat="42.9193" lon="0.58153">
        <ele>1312</ele>
        <time>2019-02-03T13:44:20.000Z</time>
      </trkpt>
      <trkpt lat="42.91929" lon="0.58154">
        <ele>1312</ele>
        <time>2019-02-03T13:44:21.000Z</time>
      </trkpt>
      <trkpt lat="42.91929" lon="0.58154">
        <ele>1312</ele>
        <time>2019-02-03T13:44:22.000Z</time>
      </trkpt>
      <trkpt lat="42.91929" lon="0.58154">
        <ele>1312.5</ele>
        <time>2019-02-03T13:44:23.000Z</time>
      </trkpt>
      <trkpt lat="42.91929" lon="0.58154">
        <ele>1313</ele>
        <time>2019-02-03T13:44:24.000Z</time>
      </trkpt>
      <trkpt lat="42.91929" lon="0.58155">
        <ele>1313</ele>
        <time>2019-02-03T13:44:25.000Z</time>
      </trkpt>
      <trkpt lat="42.91929" lon="0.58155">
        <ele>1313</ele>
        <time>2019-02-03T13:44:26.000Z</time>
      </trkpt>
      <trkpt lat="42.91928" lon="0.58155">
        <ele>1313</ele>
        <time>2019-02-03T13:44:27.000Z</time>
      </trkpt>
      <trkpt lat="42.91928" lon="0.58155">
        <ele>1313</ele>
        <time>2019-02-03T13:44:28.000Z</time>
      </trkpt>
      <trkpt lat="42.91928" lon="0.58154">
        <ele>1313</ele>
        <time>2019-02-03T13:44:29.000Z</time>
      </trkpt>
      <trkpt lat="42.91928" lon="0.58154">
        <ele>1313</ele>
        <time>2019-02-03T13:44:30.000Z</time>
      </trkpt>
      <trkpt lat="42.91928" lon="0.58154">
        <ele>1313</ele>
        <time>2019-02-03T13:44:31.000Z</time>
      </trkpt>
      <trkpt lat="42.91927" lon="0.58154">
        <ele>1313</ele>
        <time>2019-02-03T13:44:32.000Z</time>
      </trkpt>
      <trkpt lat="42.91927" lon="0.58153">
        <ele>1313</ele>
        <time>2019-02-03T13:44:33.000Z</time>
      </trkpt>
      <trkpt lat="42.91927" lon="0.58153">
        <ele>1313.3</ele>
        <time>2019-02-03T13:44:34.000Z</time>
      </trkpt>
      <trkpt lat="42.91927" lon="0.58153">
        <ele>1313.7</ele>
        <time>2019-02-03T13:44:35.000Z</time>
      </trkpt>
      <trkpt lat="42.91927" lon="0.58152">
        <ele>1314</ele>
        <time>2019-02-03T13:44:36.000Z</time>
      </trkpt>
      <trkpt lat="42.91927" lon="0.58152">
        <ele>1313.5</ele>
        <time>2019-02-03T13:44:37.000Z</time>
      </trkpt>
      <trkpt lat="42.91927" lon="0.58152">
        <ele>1313</ele>
        <time>2019-02-03T13:44:38.000Z</time>
      </trkpt>
      <trkpt lat="42.91926" lon="0.58151">
        <ele>1313.5</ele>
        <time>2019-02-03T13:44:39.000Z</time>
      </trkpt>
      <trkpt lat="42.91926" lon="0.58151">
        <ele>1314</ele>
        <time>2019-02-03T13:44:40.000Z</time>
      </trkpt>
      <trkpt lat="42.91926" lon="0.58151">
        <ele>1314</ele>
        <time>2019-02-03T13:44:41.000Z</time>
      </trkpt>
      <trkpt lat="42.91926" lon="0.58151">
        <ele>1314</ele>
        <time>2019-02-03T13:44:42.000Z</time>
      </trkpt>
      <trkpt lat="42.91926" lon="0.58151">
        <ele>1314</ele>
        <time>2019-02-03T13:44:43.000Z</time>
      </trkpt>
      <trkpt lat="42.91926" lon="0.5815">
        <ele>1314</ele>
        <time>2019-02-03T13:44:44.000Z</time>
      </trkpt>
      <trkpt lat="42.91926" lon="0.5815">
        <ele>1314</ele>
        <time>2019-02-03T13:44:45.000Z</time>
      </trkpt>
      <trkpt lat="42.91926" lon="0.5815">
        <ele>1314</ele>
        <time>2019-02-03T13:44:46.000Z</time>
      </trkpt>
      <trkpt lat="42.91926" lon="0.5815">
        <ele>1314</ele>
        <time>2019-02-03T13:44:47.000Z</time>
      </trkpt>
      <trkpt lat="42.91926" lon="0.5815">
        <ele>1314</ele>
        <time>2019-02-03T13:44:48.000Z</time>
      </trkpt>
      <trkpt lat="42.91925" lon="0.5815">
        <ele>1314</ele>
        <time>2019-02-03T13:44:49.000Z</time>
      </trkpt>
      <trkpt lat="42.91925" lon="0.58149">
        <ele>1314</ele>
        <time>2019-02-03T13:44:50.000Z</time>
      </trkpt>
      <trkpt lat="42.91924" lon="0.58148">
        <ele>1314</ele>
        <time>2019-02-03T13:44:51.000Z</time>
      </trkpt>
      <trkpt lat="42.91923" lon="0.58148">
        <ele>1314</ele>
        <time>2019-02-03T13:44:52.000Z</time>
      </trkpt>
      <trkpt lat="42.91923" lon="0.58147">
        <ele>1314</ele>
        <time>2019-02-03T13:44:53.000Z</time>
      </trkpt>
      <trkpt lat="42.91922" lon="0.58147">
        <ele>1314</ele>
        <time>2019-02-03T13:44:54.000Z</time>
      </trkpt>
      <trkpt lat="42.91922" lon="0.58146">
        <ele>1314</ele>
        <time>2019-02-03T13:44:55.000Z</time>
      </trkpt>
      <trkpt lat="42.91922" lon="0.58146">
        <ele>1314</ele>
        <time>2019-02-03T13:44:56.000Z</time>
      </trkpt>
      <trkpt lat="42.91921" lon="0.58146">
        <ele>1314</ele>
        <time>2019-02-03T13:44:57.000Z</time>
      </trkpt>
      <trkpt lat="42.91921" lon="0.58146">
        <ele>1314</ele>
        <time>2019-02-03T13:44:58.000Z</time>
      </trkpt>
      <trkpt lat="42.91921" lon="0.58145">
        <ele>1314</ele>
        <time>2019-02-03T13:44:59.000Z</time>
      </trkpt>
      <trkpt lat="42.91921" lon="0.58145">
        <ele>1314</ele>
        <time>2019-02-03T13:45:00.000Z</time>
      </trkpt>
      <trkpt lat="42.91921" lon="0.58145">
        <ele>1314</ele>
        <time>2019-02-03T13:45:01.000Z</time>
      </trkpt>
      <trkpt lat="42.91921" lon="0.58145">
        <ele>1314</ele>
        <time>2019-02-03T13:45:02.000Z</time>
      </trkpt>
      <trkpt lat="42.91921" lon="0.58144">
        <ele>1314</ele>
        <time>2019-02-03T13:45:03.000Z</time>
      </trkpt>
      <trkpt lat="42.9192" lon="0.58144">
        <ele>1314</ele>
        <time>2019-02-03T13:45:04.000Z</time>
      </trkpt>
      <trkpt lat="42.9192" lon="0.58144">
        <ele>1314</ele>
        <time>2019-02-03T13:45:05.000Z</time>
      </trkpt>
      <trkpt lat="42.9192" lon="0.58144">
        <ele>1314</ele>
        <time>2019-02-03T13:45:06.000Z</time>
      </trkpt>
      <trkpt lat="42.9192" lon="0.58144">
        <ele>1314</ele>
        <time>2019-02-03T13:45:07.000Z</time>
      </trkpt>
      <trkpt lat="42.9192" lon="0.58144">
        <ele>1314</ele>
        <time>2019-02-03T13:45:08.000Z</time>
      </trkpt>
      <trkpt lat="42.9192" lon="0.58144">
        <ele>1314</ele>
        <time>2019-02-03T13:45:09.000Z</time>
      </trkpt>
      <trkpt lat="42.9192" lon="0.58144">
        <ele>1314</ele>
        <time>2019-02-03T13:45:10.000Z</time>
      </trkpt>
      <trkpt lat="42.91919" lon="0.58144">
        <ele>1314</ele>
        <time>2019-02-03T13:45:11.000Z</time>
      </trkpt>
      <trkpt lat="42.91919" lon="0.58144">
        <ele>1314</ele>
        <time>2019-02-03T13:45:12.000Z</time>
      </trkpt>
      <trkpt lat="42.91918" lon="0.58144">
        <ele>1314</ele>
        <time>2019-02-03T13:45:13.000Z</time>
      </trkpt>
      <trkpt lat="42.91918" lon="0.58144">
        <ele>1314</ele>
        <time>2019-02-03T13:45:14.000Z</time>
      </trkpt>
      <trkpt lat="42.91917" lon="0.58143">
        <ele>1314</ele>
        <time>2019-02-03T13:45:15.000Z</time>
      </trkpt>
      <trkpt lat="42.91917" lon="0.58142">
        <ele>1314</ele>
        <time>2019-02-03T13:45:16.000Z</time>
      </trkpt>
      <trkpt lat="42.91916" lon="0.58142">
        <ele>1314</ele>
        <time>2019-02-03T13:45:17.000Z</time>
      </trkpt>
      <trkpt lat="42.91916" lon="0.58141">
        <ele>1314</ele>
        <time>2019-02-03T13:45:18.000Z</time>
      </trkpt>
      <trkpt lat="42.91916" lon="0.5814">
        <ele>1314</ele>
        <time>2019-02-03T13:45:19.000Z</time>
      </trkpt>
      <trkpt lat="42.91916" lon="0.58139">
        <ele>1314</ele>
        <time>2019-02-03T13:45:20.000Z</time>
      </trkpt>
      <trkpt lat="42.91916" lon="0.58138">
        <ele>1314</ele>
        <time>2019-02-03T13:45:21.000Z</time>
      </trkpt>
      <trkpt lat="42.91915" lon="0.58138">
        <ele>1314</ele>
        <time>2019-02-03T13:45:22.000Z</time>
      </trkpt>
      <trkpt lat="42.91916" lon="0.58137">
        <ele>1313.5</ele>
        <time>2019-02-03T13:45:23.000Z</time>
      </trkpt>
      <trkpt lat="42.91916" lon="0.58137">
        <ele>1313</ele>
        <time>2019-02-03T13:45:24.000Z</time>
      </trkpt>
      <trkpt lat="42.91916" lon="0.58136">
        <ele>1313</ele>
        <time>2019-02-03T13:45:25.000Z</time>
      </trkpt>
      <trkpt lat="42.91916" lon="0.58136">
        <ele>1313</ele>
        <time>2019-02-03T13:45:26.000Z</time>
      </trkpt>
      <trkpt lat="42.91916" lon="0.58136">
        <ele>1313</ele>
        <time>2019-02-03T13:45:27.000Z</time>
      </trkpt>
      <trkpt lat="42.91916" lon="0.58136">
        <ele>1313</ele>
        <time>2019-02-03T13:45:28.000Z</time>
      </trkpt>
      <trkpt lat="42.91917" lon="0.58136">
        <ele>1313</ele>
        <time>2019-02-03T13:45:29.000Z</time>
      </trkpt>
      <trkpt lat="42.91917" lon="0.58136">
        <ele>1313</ele>
        <time>2019-02-03T13:45:30.000Z</time>
      </trkpt>
      <trkpt lat="42.91917" lon="0.58136">
        <ele>1313</ele>
        <time>2019-02-03T13:45:31.000Z</time>
      </trkpt>
      <trkpt lat="42.91917" lon="0.58136">
        <ele>1313</ele>
        <time>2019-02-03T13:45:32.000Z</time>
      </trkpt>
      <trkpt lat="42.91917" lon="0.58136">
        <ele>1312</ele>
        <time>2019-02-03T13:45:33.000Z</time>
      </trkpt>
      <trkpt lat="42.91917" lon="0.58136">
        <ele>1312</ele>
        <time>2019-02-03T13:45:34.000Z</time>
      </trkpt>
      <trkpt lat="42.91917" lon="0.58136">
        <ele>1312</ele>
        <time>2019-02-03T13:45:35.000Z</time>
      </trkpt>
      <trkpt lat="42.91917" lon="0.58136">
        <ele>1312</ele>
        <time>2019-02-03T13:45:36.000Z</time>
      </trkpt>
      <trkpt lat="42.91917" lon="0.58136">
        <ele>1312.5</ele>
        <time>2019-02-03T13:45:37.000Z</time>
      </trkpt>
      <trkpt lat="42.91917" lon="0.58136">
        <ele>1313</ele>
        <time>2019-02-03T13:45:38.000Z</time>
      </trkpt>
      <trkpt lat="42.91917" lon="0.58136">
        <ele>1313</ele>
        <time>2019-02-03T13:45:39.000Z</time>
      </trkpt>
      <trkpt lat="42.91917" lon="0.58136">
        <ele>1313</ele>
        <time>2019-02-03T13:45:40.000Z</time>
      </trkpt>
      <trkpt lat="42.91917" lon="0.58136">
        <ele>1313</ele>
        <time>2019-02-03T13:45:41.000Z</time>
      </trkpt>
      <trkpt lat="42.91917" lon="0.58136">
        <ele>1313</ele>
        <time>2019-02-03T13:45:42.000Z</time>
      </trkpt>
      <trkpt lat="42.91917" lon="0.58136">
        <ele>1313</ele>
        <time>2019-02-03T13:45:43.000Z</time>
      </trkpt>
      <trkpt lat="42.91917" lon="0.58136">
        <ele>1313</ele>
        <time>2019-02-03T13:45:44.000Z</time>
      </trkpt>
      <trkpt lat="42.91917" lon="0.58137">
        <ele>1313</ele>
        <time>2019-02-03T13:45:45.000Z</time>
      </trkpt>
      <trkpt lat="42.91917" lon="0.58137">
        <ele>1313</ele>
        <time>2019-02-03T13:45:46.000Z</time>
      </trkpt>
      <trkpt lat="42.91917" lon="0.58137">
        <ele>1313</ele>
        <time>2019-02-03T13:45:47.000Z</time>
      </trkpt>
      <trkpt lat="42.91917" lon="0.58138">
        <ele>1313</ele>
        <time>2019-02-03T13:45:48.000Z</time>
      </trkpt>
      <trkpt lat="42.91918" lon="0.58138">
        <ele>1313</ele>
        <time>2019-02-03T13:45:49.000Z</time>
      </trkpt>
      <trkpt lat="42.91918" lon="0.58139">
        <ele>1313</ele>
        <time>2019-02-03T13:45:50.000Z</time>
      </trkpt>
      <trkpt lat="42.91918" lon="0.58139">
        <ele>1313</ele>
        <time>2019-02-03T13:45:51.000Z</time>
      </trkpt>
      <trkpt lat="42.91919" lon="0.5814">
        <ele>1313</ele>
        <time>2019-02-03T13:45:52.000Z</time>
      </trkpt>
      <trkpt lat="42.91919" lon="0.5814">
        <ele>1313</ele>
        <time>2019-02-03T13:45:53.000Z</time>
      </trkpt>
      <trkpt lat="42.91919" lon="0.58141">
        <ele>1313</ele>
        <time>2019-02-03T13:45:54.000Z</time>
      </trkpt>
      <trkpt lat="42.91919" lon="0.58141">
        <ele>1313</ele>
        <time>2019-02-03T13:45:55.000Z</time>
      </trkpt>
      <trkpt lat="42.91919" lon="0.58142">
        <ele>1313</ele>
        <time>2019-02-03T13:45:56.000Z</time>
      </trkpt>
      <trkpt lat="42.91919" lon="0.58142">
        <ele>1313</ele>
        <time>2019-02-03T13:45:57.000Z</time>
      </trkpt>
      <trkpt lat="42.91919" lon="0.58142">
        <ele>1313</ele>
        <time>2019-02-03T13:45:58.000Z</time>
      </trkpt>
      <trkpt lat="42.91919" lon="0.58143">
        <ele>1313</ele>
        <time>2019-02-03T13:45:59.000Z</time>
      </trkpt>
      <trkpt lat="42.91919" lon="0.58143">
        <ele>1313</ele>
        <time>2019-02-03T13:46:00.000Z</time>
      </trkpt>
      <trkpt lat="42.9192" lon="0.58143">
        <ele>1313</ele>
        <time>2019-02-03T13:46:01.000Z</time>
      </trkpt>
      <trkpt lat="42.9192" lon="0.58144">
        <ele>1313</ele>
        <time>2019-02-03T13:46:02.000Z</time>
      </trkpt>
      <trkpt lat="42.9192" lon="0.58144">
        <ele>1313</ele>
        <time>2019-02-03T13:46:03.000Z</time>
      </trkpt>
      <trkpt lat="42.9192" lon="0.58144">
        <ele>1313</ele>
        <time>2019-02-03T13:46:04.000Z</time>
      </trkpt>
      <trkpt lat="42.9192" lon="0.58145">
        <ele>1313.5</ele>
        <time>2019-02-03T13:46:05.000Z</time>
      </trkpt>
      <trkpt lat="42.9192" lon="0.58145">
        <ele>1314</ele>
        <time>2019-02-03T13:46:06.000Z</time>
      </trkpt>
      <trkpt lat="42.9192" lon="0.58145">
        <ele>1314</ele>
        <time>2019-02-03T13:46:07.000Z</time>
      </trkpt>
      <trkpt lat="42.91921" lon="0.58145">
        <ele>1314</ele>
        <time>2019-02-03T13:46:08.000Z</time>
      </trkpt>
      <trkpt lat="42.91921" lon="0.58145">
        <ele>1314</ele>
        <time>2019-02-03T13:46:09.000Z</time>
      </trkpt>
      <trkpt lat="42.9192" lon="0.58145">
        <ele>1313.7</ele>
        <time>2019-02-03T13:46:10.000Z</time>
      </trkpt>
      <trkpt lat="42.9192" lon="0.58145">
        <ele>1313.3</ele>
        <time>2019-02-03T13:46:11.000Z</time>
      </trkpt>
      <trkpt lat="42.9192" lon="0.58145">
        <ele>1313</ele>
        <time>2019-02-03T13:46:12.000Z</time>
      </trkpt>
      <trkpt lat="42.9192" lon="0.58145">
        <ele>1313</ele>
        <time>2019-02-03T13:46:13.000Z</time>
      </trkpt>
      <trkpt lat="42.9192" lon="0.58145">
        <ele>1313</ele>
        <time>2019-02-03T13:46:14.000Z</time>
      </trkpt>
      <trkpt lat="42.9192" lon="0.58145">
        <ele>1313</ele>
        <time>2019-02-03T13:46:15.000Z</time>
      </trkpt>
      <trkpt lat="42.91919" lon="0.58145">
        <ele>1313</ele>
        <time>2019-02-03T13:46:16.000Z</time>
      </trkpt>
      <trkpt lat="42.91919" lon="0.58144">
        <ele>1313</ele>
        <time>2019-02-03T13:46:17.000Z</time>
      </trkpt>
      <trkpt lat="42.91919" lon="0.58144">
        <ele>1313</ele>
        <time>2019-02-03T13:46:18.000Z</time>
      </trkpt>
      <trkpt lat="42.9192" lon="0.58143">
        <ele>1313</ele>
        <time>2019-02-03T13:46:19.000Z</time>
      </trkpt>
      <trkpt lat="42.9192" lon="0.58142">
        <ele>1313</ele>
        <time>2019-02-03T13:46:20.000Z</time>
      </trkpt>
      <trkpt lat="42.9192" lon="0.58142">
        <ele>1313</ele>
        <time>2019-02-03T13:46:21.000Z</time>
      </trkpt>
      <trkpt lat="42.91919" lon="0.58142">
        <ele>1313</ele>
        <time>2019-02-03T13:46:22.000Z</time>
      </trkpt>
      <trkpt lat="42.91919" lon="0.58141">
        <ele>1313</ele>
        <time>2019-02-03T13:46:23.000Z</time>
      </trkpt>
      <trkpt lat="42.91919" lon="0.58141">
        <ele>1313</ele>
        <time>2019-02-03T13:46:24.000Z</time>
      </trkpt>
      <trkpt lat="42.91919" lon="0.58141">
        <ele>1313</ele>
        <time>2019-02-03T13:46:25.000Z</time>
      </trkpt>
      <trkpt lat="42.91919" lon="0.58141">
        <ele>1313</ele>
        <time>2019-02-03T13:46:26.000Z</time>
      </trkpt>
      <trkpt lat="42.91919" lon="0.58141">
        <ele>1313</ele>
        <time>2019-02-03T13:46:27.000Z</time>
      </trkpt>
      <trkpt lat="42.91919" lon="0.58141">
        <ele>1313</ele>
        <time>2019-02-03T13:46:28.000Z</time>
      </trkpt>
      <trkpt lat="42.91919" lon="0.58141">
        <ele>1313</ele>
        <time>2019-02-03T13:46:29.000Z</time>
      </trkpt>
      <trkpt lat="42.91919" lon="0.58141">
        <ele>1313</ele>
        <time>2019-02-03T13:46:30.000Z</time>
      </trkpt>
      <trkpt lat="42.91919" lon="0.58141">
        <ele>1313</ele>
        <time>2019-02-03T13:46:31.000Z</time>
      </trkpt>
      <trkpt lat="42.91919" lon="0.58141">
        <ele>1313</ele>
        <time>2019-02-03T13:46:32.000Z</time>
      </trkpt>
      <trkpt lat="42.91919" lon="0.58141">
        <ele>1313</ele>
        <time>2019-02-03T13:46:33.000Z</time>
      </trkpt>
      <trkpt lat="42.91919" lon="0.58141">
        <ele>1313</ele>
        <time>2019-02-03T13:46:34.000Z</time>
      </trkpt>
      <trkpt lat="42.91918" lon="0.58141">
        <ele>1313</ele>
        <time>2019-02-03T13:46:35.000Z</time>
      </trkpt>
      <trkpt lat="42.91918" lon="0.5814">
        <ele>1313</ele>
        <time>2019-02-03T13:46:36.000Z</time>
      </trkpt>
      <trkpt lat="42.91918" lon="0.5814">
        <ele>1313</ele>
        <time>2019-02-03T13:46:37.000Z</time>
      </trkpt>
      <trkpt lat="42.91917" lon="0.5814">
        <ele>1313</ele>
        <time>2019-02-03T13:46:38.000Z</time>
      </trkpt>
      <trkpt lat="42.91917" lon="0.5814">
        <ele>1313</ele>
        <time>2019-02-03T13:46:39.000Z</time>
      </trkpt>
      <trkpt lat="42.91916" lon="0.5814">
        <ele>1313</ele>
        <time>2019-02-03T13:46:40.000Z</time>
      </trkpt>
      <trkpt lat="42.91916" lon="0.5814">
        <ele>1313</ele>
        <time>2019-02-03T13:46:41.000Z</time>
      </trkpt>
      <trkpt lat="42.91916" lon="0.5814">
        <ele>1313</ele>
        <time>2019-02-03T13:46:42.000Z</time>
      </trkpt>
      <trkpt lat="42.91915" lon="0.5814">
        <ele>1313</ele>
        <time>2019-02-03T13:46:43.000Z</time>
      </trkpt>
      <trkpt lat="42.91915" lon="0.5814">
        <ele>1313</ele>
        <time>2019-02-03T13:46:44.000Z</time>
      </trkpt>
      <trkpt lat="42.91914" lon="0.5814">
        <ele>1313</ele>
        <time>2019-02-03T13:46:45.000Z</time>
      </trkpt>
      <trkpt lat="42.91913" lon="0.5814">
        <ele>1313</ele>
        <time>2019-02-03T13:46:46.000Z</time>
      </trkpt>
      <trkpt lat="42.91913" lon="0.58139">
        <ele>1312.5</ele>
        <time>2019-02-03T13:46:47.000Z</time>
      </trkpt>
      <trkpt lat="42.91912" lon="0.58138">
        <ele>1312</ele>
        <time>2019-02-03T13:46:48.000Z</time>
      </trkpt>
      <trkpt lat="42.91912" lon="0.58137">
        <ele>1311</ele>
        <time>2019-02-03T13:46:49.000Z</time>
      </trkpt>
      <trkpt lat="42.91913" lon="0.58136">
        <ele>1311</ele>
        <time>2019-02-03T13:46:50.000Z</time>
      </trkpt>
      <trkpt lat="42.91914" lon="0.58135">
        <ele>1311</ele>
        <time>2019-02-03T13:46:51.000Z</time>
      </trkpt>
      <trkpt lat="42.91914" lon="0.58134">
        <ele>1311</ele>
        <time>2019-02-03T13:46:52.000Z</time>
      </trkpt>
      <trkpt lat="42.91915" lon="0.58134">
        <ele>1310</ele>
        <time>2019-02-03T13:46:53.000Z</time>
      </trkpt>
      <trkpt lat="42.91915" lon="0.58134">
        <ele>1309.7</ele>
        <time>2019-02-03T13:46:54.000Z</time>
      </trkpt>
      <trkpt lat="42.91915" lon="0.58134">
        <ele>1309.3</ele>
        <time>2019-02-03T13:46:55.000Z</time>
      </trkpt>
      <trkpt lat="42.91914" lon="0.58135">
        <ele>1309</ele>
        <time>2019-02-03T13:46:56.000Z</time>
      </trkpt>
      <trkpt lat="42.91914" lon="0.58135">
        <ele>1308.5</ele>
        <time>2019-02-03T13:46:57.000Z</time>
      </trkpt>
      <trkpt lat="42.91913" lon="0.58135">
        <ele>1308</ele>
        <time>2019-02-03T13:46:58.000Z</time>
      </trkpt>
      <trkpt lat="42.91913" lon="0.58135">
        <ele>1307.5</ele>
        <time>2019-02-03T13:46:59.000Z</time>
      </trkpt>
      <trkpt lat="42.91912" lon="0.58135">
        <ele>1307</ele>
        <time>2019-02-03T13:47:00.000Z</time>
      </trkpt>
      <trkpt lat="42.91912" lon="0.58134">
        <ele>1307</ele>
        <time>2019-02-03T13:47:01.000Z</time>
      </trkpt>
      <trkpt lat="42.91912" lon="0.58134">
        <ele>1307</ele>
        <time>2019-02-03T13:47:02.000Z</time>
      </trkpt>
      <trkpt lat="42.91912" lon="0.58132">
        <ele>1305</ele>
        <time>2019-02-03T13:47:03.000Z</time>
      </trkpt>
      <trkpt lat="42.91912" lon="0.58129">
        <ele>1304.7</ele>
        <time>2019-02-03T13:47:04.000Z</time>
      </trkpt>
      <trkpt lat="42.91912" lon="0.58127">
        <ele>1304.3</ele>
        <time>2019-02-03T13:47:05.000Z</time>
      </trkpt>
      <trkpt lat="42.91912" lon="0.58126">
        <ele>1304</ele>
        <time>2019-02-03T13:47:06.000Z</time>
      </trkpt>
      <trkpt lat="42.91912" lon="0.58125">
        <ele>1304</ele>
        <time>2019-02-03T13:47:07.000Z</time>
      </trkpt>
      <trkpt lat="42.91912" lon="0.58124">
        <ele>1304</ele>
        <time>2019-02-03T13:47:08.000Z</time>
      </trkpt>
      <trkpt lat="42.91912" lon="0.58124">
        <ele>1303</ele>
        <time>2019-02-03T13:47:09.000Z</time>
      </trkpt>
      <trkpt lat="42.91912" lon="0.58123">
        <ele>1303.3</ele>
        <time>2019-02-03T13:47:10.000Z</time>
      </trkpt>
      <trkpt lat="42.91912" lon="0.58123">
        <ele>1303.7</ele>
        <time>2019-02-03T13:47:11.000Z</time>
      </trkpt>
      <trkpt lat="42.91912" lon="0.58123">
        <ele>1304</ele>
        <time>2019-02-03T13:47:12.000Z</time>
      </trkpt>
      <trkpt lat="42.91912" lon="0.58123">
        <ele>1303.5</ele>
        <time>2019-02-03T13:47:13.000Z</time>
      </trkpt>
      <trkpt lat="42.91912" lon="0.58123">
        <ele>1303</ele>
        <time>2019-02-03T13:47:14.000Z</time>
      </trkpt>
      <trkpt lat="42.91912" lon="0.58123">
        <ele>1304</ele>
        <time>2019-02-03T13:47:15.000Z</time>
      </trkpt>
      <trkpt lat="42.91912" lon="0.58123">
        <ele>1304</ele>
        <time>2019-02-03T13:47:16.000Z</time>
      </trkpt>
      <trkpt lat="42.91912" lon="0.58122">
        <ele>1304</ele>
        <time>2019-02-03T13:47:17.000Z</time>
      </trkpt>
      <trkpt lat="42.91912" lon="0.58122">
        <ele>1304</ele>
        <time>2019-02-03T13:47:18.000Z</time>
      </trkpt>
      <trkpt lat="42.91912" lon="0.58122">
        <ele>1304</ele>
        <time>2019-02-03T13:47:19.000Z</time>
      </trkpt>
      <trkpt lat="42.91912" lon="0.58122">
        <ele>1304</ele>
        <time>2019-02-03T13:47:20.000Z</time>
      </trkpt>
      <trkpt lat="42.91912" lon="0.58122">
        <ele>1304</ele>
        <time>2019-02-03T13:47:21.000Z</time>
      </trkpt>
      <trkpt lat="42.91912" lon="0.58122">
        <ele>1304</ele>
        <time>2019-02-03T13:47:22.000Z</time>
      </trkpt>
      <trkpt lat="42.91912" lon="0.58122">
        <ele>1303</ele>
        <time>2019-02-03T13:47:23.000Z</time>
      </trkpt>
      <trkpt lat="42.91913" lon="0.58122">
        <ele>1303</ele>
        <time>2019-02-03T13:47:24.000Z</time>
      </trkpt>
      <trkpt lat="42.91913" lon="0.58122">
        <ele>1303</ele>
        <time>2019-02-03T13:47:25.000Z</time>
      </trkpt>
      <trkpt lat="42.91913" lon="0.58121">
        <ele>1303</ele>
        <time>2019-02-03T13:47:26.000Z</time>
      </trkpt>
      <trkpt lat="42.91913" lon="0.58121">
        <ele>1303</ele>
        <time>2019-02-03T13:47:27.000Z</time>
      </trkpt>
      <trkpt lat="42.91913" lon="0.5812">
        <ele>1303</ele>
        <time>2019-02-03T13:47:28.000Z</time>
      </trkpt>
      <trkpt lat="42.91913" lon="0.58119">
        <ele>1302.5</ele>
        <time>2019-02-03T13:47:29.000Z</time>
      </trkpt>
      <trkpt lat="42.91914" lon="0.58119">
        <ele>1302</ele>
        <time>2019-02-03T13:47:30.000Z</time>
      </trkpt>
      <trkpt lat="42.91914" lon="0.58118">
        <ele>1302</ele>
        <time>2019-02-03T13:47:31.000Z</time>
      </trkpt>
      <trkpt lat="42.91914" lon="0.58118">
        <ele>1302</ele>
        <time>2019-02-03T13:47:32.000Z</time>
      </trkpt>
      <trkpt lat="42.91914" lon="0.58118">
        <ele>1301.5</ele>
        <time>2019-02-03T13:47:33.000Z</time>
      </trkpt>
      <trkpt lat="42.91914" lon="0.58118">
        <ele>1301</ele>
        <time>2019-02-03T13:47:34.000Z</time>
      </trkpt>
      <trkpt lat="42.91914" lon="0.58117">
        <ele>1300.5</ele>
        <time>2019-02-03T13:47:35.000Z</time>
      </trkpt>
      <trkpt lat="42.91914" lon="0.58117">
        <ele>1300</ele>
        <time>2019-02-03T13:47:36.000Z</time>
      </trkpt>
      <trkpt lat="42.91914" lon="0.58116">
        <ele>1300</ele>
        <time>2019-02-03T13:47:37.000Z</time>
      </trkpt>
      <trkpt lat="42.91914" lon="0.58115">
        <ele>1300</ele>
        <time>2019-02-03T13:47:38.000Z</time>
      </trkpt>
      <trkpt lat="42.91914" lon="0.58114">
        <ele>1299</ele>
        <time>2019-02-03T13:47:39.000Z</time>
      </trkpt>
      <trkpt lat="42.91914" lon="0.58113">
        <ele>1299</ele>
        <time>2019-02-03T13:47:40.000Z</time>
      </trkpt>
      <trkpt lat="42.91914" lon="0.58112">
        <ele>1299</ele>
        <time>2019-02-03T13:47:41.000Z</time>
      </trkpt>
      <trkpt lat="42.91914" lon="0.58111">
        <ele>1299</ele>
        <time>2019-02-03T13:47:42.000Z</time>
      </trkpt>
      <trkpt lat="42.91914" lon="0.5811">
        <ele>1298</ele>
        <time>2019-02-03T13:47:43.000Z</time>
      </trkpt>
      <trkpt lat="42.91914" lon="0.5811">
        <ele>1297.7</ele>
        <time>2019-02-03T13:47:44.000Z</time>
      </trkpt>
      <trkpt lat="42.91914" lon="0.58109">
        <ele>1297.3</ele>
        <time>2019-02-03T13:47:45.000Z</time>
      </trkpt>
      <trkpt lat="42.91914" lon="0.58108">
        <ele>1297</ele>
        <time>2019-02-03T13:47:46.000Z</time>
      </trkpt>
      <trkpt lat="42.91914" lon="0.58108">
        <ele>1297</ele>
        <time>2019-02-03T13:47:47.000Z</time>
      </trkpt>
      <trkpt lat="42.91914" lon="0.58107">
        <ele>1296.7</ele>
        <time>2019-02-03T13:47:48.000Z</time>
      </trkpt>
      <trkpt lat="42.91914" lon="0.58107">
        <ele>1296.3</ele>
        <time>2019-02-03T13:47:49.000Z</time>
      </trkpt>
      <trkpt lat="42.91914" lon="0.58106">
        <ele>1296</ele>
        <time>2019-02-03T13:47:50.000Z</time>
      </trkpt>
      <trkpt lat="42.91914" lon="0.58106">
        <ele>1296</ele>
        <time>2019-02-03T13:47:51.000Z</time>
      </trkpt>
      <trkpt lat="42.91914" lon="0.58105">
        <ele>1296</ele>
        <time>2019-02-03T13:47:52.000Z</time>
      </trkpt>
      <trkpt lat="42.91914" lon="0.58104">
        <ele>1295.5</ele>
        <time>2019-02-03T13:47:53.000Z</time>
      </trkpt>
      <trkpt lat="42.91914" lon="0.58104">
        <ele>1295</ele>
        <time>2019-02-03T13:47:54.000Z</time>
      </trkpt>
      <trkpt lat="42.91913" lon="0.58103">
        <ele>1295</ele>
        <time>2019-02-03T13:47:55.000Z</time>
      </trkpt>
      <trkpt lat="42.91913" lon="0.58103">
        <ele>1295</ele>
        <time>2019-02-03T13:47:56.000Z</time>
      </trkpt>
      <trkpt lat="42.91913" lon="0.58102">
        <ele>1295</ele>
        <time>2019-02-03T13:47:57.000Z</time>
      </trkpt>
      <trkpt lat="42.91912" lon="0.58102">
        <ele>1294.5</ele>
        <time>2019-02-03T13:47:58.000Z</time>
      </trkpt>
      <trkpt lat="42.91912" lon="0.58101">
        <ele>1294</ele>
        <time>2019-02-03T13:47:59.000Z</time>
      </trkpt>
      <trkpt lat="42.91912" lon="0.58101">
        <ele>1293.7</ele>
        <time>2019-02-03T13:48:00.000Z</time>
      </trkpt>
      <trkpt lat="42.91911" lon="0.58101">
        <ele>1293.3</ele>
        <time>2019-02-03T13:48:01.000Z</time>
      </trkpt>
      <trkpt lat="42.91911" lon="0.581">
        <ele>1293</ele>
        <time>2019-02-03T13:48:02.000Z</time>
      </trkpt>
      <trkpt lat="42.9191" lon="0.581">
        <ele>1293</ele>
        <time>2019-02-03T13:48:03.000Z</time>
      </trkpt>
      <trkpt lat="42.9191" lon="0.58099">
        <ele>1293</ele>
        <time>2019-02-03T13:48:04.000Z</time>
      </trkpt>
      <trkpt lat="42.9191" lon="0.58099">
        <ele>1292.5</ele>
        <time>2019-02-03T13:48:05.000Z</time>
      </trkpt>
      <trkpt lat="42.9191" lon="0.58098">
        <ele>1292</ele>
        <time>2019-02-03T13:48:06.000Z</time>
      </trkpt>
      <trkpt lat="42.9191" lon="0.58098">
        <ele>1292</ele>
        <time>2019-02-03T13:48:07.000Z</time>
      </trkpt>
      <trkpt lat="42.91909" lon="0.58097">
        <ele>1292</ele>
        <time>2019-02-03T13:48:08.000Z</time>
      </trkpt>
      <trkpt lat="42.91909" lon="0.58097">
        <ele>1291.5</ele>
        <time>2019-02-03T13:48:09.000Z</time>
      </trkpt>
      <trkpt lat="42.91909" lon="0.58096">
        <ele>1291</ele>
        <time>2019-02-03T13:48:10.000Z</time>
      </trkpt>
      <trkpt lat="42.91909" lon="0.58096">
        <ele>1291</ele>
        <time>2019-02-03T13:48:11.000Z</time>
      </trkpt>
      <trkpt lat="42.91909" lon="0.58095">
        <ele>1291</ele>
        <time>2019-02-03T13:48:12.000Z</time>
      </trkpt>
      <trkpt lat="42.91909" lon="0.58095">
        <ele>1291</ele>
        <time>2019-02-03T13:48:13.000Z</time>
      </trkpt>
      <trkpt lat="42.91909" lon="0.58095">
        <ele>1291</ele>
        <time>2019-02-03T13:48:14.000Z</time>
      </trkpt>
      <trkpt lat="42.91909" lon="0.58095">
        <ele>1291</ele>
        <time>2019-02-03T13:48:15.000Z</time>
      </trkpt>
      <trkpt lat="42.91909" lon="0.58095">
        <ele>1291</ele>
        <time>2019-02-03T13:48:16.000Z</time>
      </trkpt>
      <trkpt lat="42.91909" lon="0.58095">
        <ele>1290.5</ele>
        <time>2019-02-03T13:48:17.000Z</time>
      </trkpt>
      <trkpt lat="42.91909" lon="0.58095">
        <ele>1290</ele>
        <time>2019-02-03T13:48:18.000Z</time>
      </trkpt>
      <trkpt lat="42.91909" lon="0.58095">
        <ele>1290</ele>
        <time>2019-02-03T13:48:19.000Z</time>
      </trkpt>
      <trkpt lat="42.91909" lon="0.58095">
        <ele>1290</ele>
        <time>2019-02-03T13:48:20.000Z</time>
      </trkpt>
      <trkpt lat="42.91909" lon="0.58095">
        <ele>1290</ele>
        <time>2019-02-03T13:48:21.000Z</time>
      </trkpt>
      <trkpt lat="42.91909" lon="0.58095">
        <ele>1290</ele>
        <time>2019-02-03T13:48:22.000Z</time>
      </trkpt>
      <trkpt lat="42.91909" lon="0.58094">
        <ele>1289</ele>
        <time>2019-02-03T13:48:23.000Z</time>
      </trkpt>
      <trkpt lat="42.91909" lon="0.58094">
        <ele>1288.7</ele>
        <time>2019-02-03T13:48:24.000Z</time>
      </trkpt>
      <trkpt lat="42.91909" lon="0.58094">
        <ele>1288.3</ele>
        <time>2019-02-03T13:48:25.000Z</time>
      </trkpt>
      <trkpt lat="42.91909" lon="0.58094">
        <ele>1288</ele>
        <time>2019-02-03T13:48:26.000Z</time>
      </trkpt>
      <trkpt lat="42.91909" lon="0.58093">
        <ele>1288</ele>
        <time>2019-02-03T13:48:27.000Z</time>
      </trkpt>
      <trkpt lat="42.9191" lon="0.58092">
        <ele>1287.7</ele>
        <time>2019-02-03T13:48:28.000Z</time>
      </trkpt>
      <trkpt lat="42.9191" lon="0.58091">
        <ele>1287.3</ele>
        <time>2019-02-03T13:48:29.000Z</time>
      </trkpt>
      <trkpt lat="42.9191" lon="0.58091">
        <ele>1287</ele>
        <time>2019-02-03T13:48:30.000Z</time>
      </trkpt>
      <trkpt lat="42.91909" lon="0.5809">
        <ele>1287</ele>
        <time>2019-02-03T13:48:31.000Z</time>
      </trkpt>
      <trkpt lat="42.91909" lon="0.58089">
        <ele>1286.7</ele>
        <time>2019-02-03T13:48:32.000Z</time>
      </trkpt>
      <trkpt lat="42.91908" lon="0.58088">
        <ele>1286.3</ele>
        <time>2019-02-03T13:48:33.000Z</time>
      </trkpt>
      <trkpt lat="42.91908" lon="0.58087">
        <ele>1286</ele>
        <time>2019-02-03T13:48:34.000Z</time>
      </trkpt>
      <trkpt lat="42.91907" lon="0.58086">
        <ele>1285.5</ele>
        <time>2019-02-03T13:48:35.000Z</time>
      </trkpt>
      <trkpt lat="42.91907" lon="0.58085">
        <ele>1285</ele>
        <time>2019-02-03T13:48:36.000Z</time>
      </trkpt>
      <trkpt lat="42.91906" lon="0.58084">
        <ele>1285</ele>
        <time>2019-02-03T13:48:37.000Z</time>
      </trkpt>
      <trkpt lat="42.91906" lon="0.58083">
        <ele>1285</ele>
        <time>2019-02-03T13:48:38.000Z</time>
      </trkpt>
      <trkpt lat="42.91905" lon="0.58082">
        <ele>1284.5</ele>
        <time>2019-02-03T13:48:39.000Z</time>
      </trkpt>
      <trkpt lat="42.91905" lon="0.58081">
        <ele>1284</ele>
        <time>2019-02-03T13:48:40.000Z</time>
      </trkpt>
      <trkpt lat="42.91905" lon="0.58081">
        <ele>1283</ele>
        <time>2019-02-03T13:48:41.000Z</time>
      </trkpt>
      <trkpt lat="42.91905" lon="0.5808">
        <ele>1282.7</ele>
        <time>2019-02-03T13:48:42.000Z</time>
      </trkpt>
      <trkpt lat="42.91905" lon="0.58079">
        <ele>1282.3</ele>
        <time>2019-02-03T13:48:43.000Z</time>
      </trkpt>
      <trkpt lat="42.91905" lon="0.58078">
        <ele>1282</ele>
        <time>2019-02-03T13:48:44.000Z</time>
      </trkpt>
      <trkpt lat="42.91905" lon="0.58077">
        <ele>1282</ele>
        <time>2019-02-03T13:48:45.000Z</time>
      </trkpt>
      <trkpt lat="42.91905" lon="0.58076">
        <ele>1282</ele>
        <time>2019-02-03T13:48:46.000Z</time>
      </trkpt>
      <trkpt lat="42.91905" lon="0.58075">
        <ele>1282</ele>
        <time>2019-02-03T13:48:47.000Z</time>
      </trkpt>
      <trkpt lat="42.91905" lon="0.58074">
        <ele>1282</ele>
        <time>2019-02-03T13:48:48.000Z</time>
      </trkpt>
      <trkpt lat="42.91905" lon="0.58074">
        <ele>1281.5</ele>
        <time>2019-02-03T13:48:49.000Z</time>
      </trkpt>
      <trkpt lat="42.91905" lon="0.58073">
        <ele>1281</ele>
        <time>2019-02-03T13:48:50.000Z</time>
      </trkpt>
      <trkpt lat="42.91906" lon="0.58072">
        <ele>1281</ele>
        <time>2019-02-03T13:48:51.000Z</time>
      </trkpt>
      <trkpt lat="42.91906" lon="0.58071">
        <ele>1280.7</ele>
        <time>2019-02-03T13:48:52.000Z</time>
      </trkpt>
      <trkpt lat="42.91906" lon="0.5807">
        <ele>1280.3</ele>
        <time>2019-02-03T13:48:53.000Z</time>
      </trkpt>
      <trkpt lat="42.91906" lon="0.58069">
        <ele>1280</ele>
        <time>2019-02-03T13:48:54.000Z</time>
      </trkpt>
      <trkpt lat="42.91906" lon="0.58069">
        <ele>1279.5</ele>
        <time>2019-02-03T13:48:55.000Z</time>
      </trkpt>
      <trkpt lat="42.91906" lon="0.58068">
        <ele>1279</ele>
        <time>2019-02-03T13:48:56.000Z</time>
      </trkpt>
      <trkpt lat="42.91906" lon="0.58067">
        <ele>1278.5</ele>
        <time>2019-02-03T13:48:57.000Z</time>
      </trkpt>
      <trkpt lat="42.91905" lon="0.58066">
        <ele>1278</ele>
        <time>2019-02-03T13:48:58.000Z</time>
      </trkpt>
      <trkpt lat="42.91905" lon="0.58066">
        <ele>1278</ele>
        <time>2019-02-03T13:48:59.000Z</time>
      </trkpt>
      <trkpt lat="42.91905" lon="0.58065">
        <ele>1277.7</ele>
        <time>2019-02-03T13:49:00.000Z</time>
      </trkpt>
      <trkpt lat="42.91905" lon="0.58064">
        <ele>1277.3</ele>
        <time>2019-02-03T13:49:01.000Z</time>
      </trkpt>
      <trkpt lat="42.91905" lon="0.58064">
        <ele>1277</ele>
        <time>2019-02-03T13:49:02.000Z</time>
      </trkpt>
      <trkpt lat="42.91905" lon="0.58063">
        <ele>1276.5</ele>
        <time>2019-02-03T13:49:03.000Z</time>
      </trkpt>
      <trkpt lat="42.91905" lon="0.58062">
        <ele>1276</ele>
        <time>2019-02-03T13:49:04.000Z</time>
      </trkpt>
      <trkpt lat="42.91905" lon="0.58062">
        <ele>1276</ele>
        <time>2019-02-03T13:49:05.000Z</time>
      </trkpt>
      <trkpt lat="42.91905" lon="0.58061">
        <ele>1276</ele>
        <time>2019-02-03T13:49:06.000Z</time>
      </trkpt>
      <trkpt lat="42.91905" lon="0.5806">
        <ele>1276</ele>
        <time>2019-02-03T13:49:07.000Z</time>
      </trkpt>
      <trkpt lat="42.91905" lon="0.58059">
        <ele>1275.7</ele>
        <time>2019-02-03T13:49:08.000Z</time>
      </trkpt>
      <trkpt lat="42.91905" lon="0.58058">
        <ele>1275.3</ele>
        <time>2019-02-03T13:49:09.000Z</time>
      </trkpt>
      <trkpt lat="42.91905" lon="0.58057">
        <ele>1275</ele>
        <time>2019-02-03T13:49:10.000Z</time>
      </trkpt>
      <trkpt lat="42.91905" lon="0.58056">
        <ele>1274</ele>
        <time>2019-02-03T13:49:11.000Z</time>
      </trkpt>
      <trkpt lat="42.91905" lon="0.58055">
        <ele>1274</ele>
        <time>2019-02-03T13:49:12.000Z</time>
      </trkpt>
      <trkpt lat="42.91905" lon="0.58054">
        <ele>1274</ele>
        <time>2019-02-03T13:49:13.000Z</time>
      </trkpt>
      <trkpt lat="42.91905" lon="0.58052">
        <ele>1274</ele>
        <time>2019-02-03T13:49:14.000Z</time>
      </trkpt>
      <trkpt lat="42.91905" lon="0.58052">
        <ele>1273</ele>
        <time>2019-02-03T13:49:15.000Z</time>
      </trkpt>
      <trkpt lat="42.91905" lon="0.58051">
        <ele>1272.7</ele>
        <time>2019-02-03T13:49:16.000Z</time>
      </trkpt>
      <trkpt lat="42.91905" lon="0.58051">
        <ele>1272.3</ele>
        <time>2019-02-03T13:49:17.000Z</time>
      </trkpt>
      <trkpt lat="42.91906" lon="0.5805">
        <ele>1272</ele>
        <time>2019-02-03T13:49:18.000Z</time>
      </trkpt>
      <trkpt lat="42.91906" lon="0.5805">
        <ele>1272</ele>
        <time>2019-02-03T13:49:19.000Z</time>
      </trkpt>
      <trkpt lat="42.91907" lon="0.58049">
        <ele>1271.7</ele>
        <time>2019-02-03T13:49:20.000Z</time>
      </trkpt>
      <trkpt lat="42.91907" lon="0.58049">
        <ele>1271.3</ele>
        <time>2019-02-03T13:49:21.000Z</time>
      </trkpt>
      <trkpt lat="42.91908" lon="0.58048">
        <ele>1271</ele>
        <time>2019-02-03T13:49:22.000Z</time>
      </trkpt>
      <trkpt lat="42.91909" lon="0.58048">
        <ele>1270.5</ele>
        <time>2019-02-03T13:49:23.000Z</time>
      </trkpt>
      <trkpt lat="42.91909" lon="0.58047">
        <ele>1270</ele>
        <time>2019-02-03T13:49:24.000Z</time>
      </trkpt>
      <trkpt lat="42.9191" lon="0.58047">
        <ele>1270</ele>
        <time>2019-02-03T13:49:25.000Z</time>
      </trkpt>
      <trkpt lat="42.9191" lon="0.58047">
        <ele>1270</ele>
        <time>2019-02-03T13:49:26.000Z</time>
      </trkpt>
      <trkpt lat="42.9191" lon="0.58046">
        <ele>1269.5</ele>
        <time>2019-02-03T13:49:27.000Z</time>
      </trkpt>
      <trkpt lat="42.91911" lon="0.58045">
        <ele>1269</ele>
        <time>2019-02-03T13:49:28.000Z</time>
      </trkpt>
      <trkpt lat="42.91911" lon="0.58044">
        <ele>1269</ele>
        <time>2019-02-03T13:49:29.000Z</time>
      </trkpt>
      <trkpt lat="42.91911" lon="0.58043">
        <ele>1268.7</ele>
        <time>2019-02-03T13:49:30.000Z</time>
      </trkpt>
      <trkpt lat="42.91911" lon="0.58042">
        <ele>1268.3</ele>
        <time>2019-02-03T13:49:31.000Z</time>
      </trkpt>
      <trkpt lat="42.91911" lon="0.58041">
        <ele>1268</ele>
        <time>2019-02-03T13:49:32.000Z</time>
      </trkpt>
      <trkpt lat="42.91911" lon="0.58039">
        <ele>1267.5</ele>
        <time>2019-02-03T13:49:33.000Z</time>
      </trkpt>
      <trkpt lat="42.91911" lon="0.58038">
        <ele>1267</ele>
        <time>2019-02-03T13:49:34.000Z</time>
      </trkpt>
      <trkpt lat="42.91911" lon="0.58037">
        <ele>1266</ele>
        <time>2019-02-03T13:49:35.000Z</time>
      </trkpt>
      <trkpt lat="42.91911" lon="0.58036">
        <ele>1266</ele>
        <time>2019-02-03T13:49:36.000Z</time>
      </trkpt>
      <trkpt lat="42.91911" lon="0.58034">
        <ele>1266</ele>
        <time>2019-02-03T13:49:37.000Z</time>
      </trkpt>
      <trkpt lat="42.91911" lon="0.58034">
        <ele>1266</ele>
        <time>2019-02-03T13:49:38.000Z</time>
      </trkpt>
      <trkpt lat="42.91912" lon="0.58033">
        <ele>1265.5</ele>
        <time>2019-02-03T13:49:39.000Z</time>
      </trkpt>
      <trkpt lat="42.91912" lon="0.58032">
        <ele>1265</ele>
        <time>2019-02-03T13:49:40.000Z</time>
      </trkpt>
      <trkpt lat="42.91912" lon="0.58032">
        <ele>1264</ele>
        <time>2019-02-03T13:49:41.000Z</time>
      </trkpt>
      <trkpt lat="42.91913" lon="0.58031">
        <ele>1263.7</ele>
        <time>2019-02-03T13:49:42.000Z</time>
      </trkpt>
      <trkpt lat="42.91913" lon="0.58031">
        <ele>1263.3</ele>
        <time>2019-02-03T13:49:43.000Z</time>
      </trkpt>
      <trkpt lat="42.91913" lon="0.58031">
        <ele>1263</ele>
        <time>2019-02-03T13:49:44.000Z</time>
      </trkpt>
      <trkpt lat="42.91914" lon="0.58031">
        <ele>1263</ele>
        <time>2019-02-03T13:49:45.000Z</time>
      </trkpt>
      <trkpt lat="42.91914" lon="0.58031">
        <ele>1262.7</ele>
        <time>2019-02-03T13:49:46.000Z</time>
      </trkpt>
      <trkpt lat="42.91915" lon="0.58031">
        <ele>1262.3</ele>
        <time>2019-02-03T13:49:47.000Z</time>
      </trkpt>
      <trkpt lat="42.91915" lon="0.58031">
        <ele>1262</ele>
        <time>2019-02-03T13:49:48.000Z</time>
      </trkpt>
      <trkpt lat="42.91916" lon="0.5803">
        <ele>1262</ele>
        <time>2019-02-03T13:49:49.000Z</time>
      </trkpt>
      <trkpt lat="42.91916" lon="0.5803">
        <ele>1261.7</ele>
        <time>2019-02-03T13:49:50.000Z</time>
      </trkpt>
      <trkpt lat="42.91916" lon="0.5803">
        <ele>1261.3</ele>
        <time>2019-02-03T13:49:51.000Z</time>
      </trkpt>
      <trkpt lat="42.91916" lon="0.5803">
        <ele>1261</ele>
        <time>2019-02-03T13:49:52.000Z</time>
      </trkpt>
      <trkpt lat="42.91916" lon="0.58029">
        <ele>1261</ele>
        <time>2019-02-03T13:49:53.000Z</time>
      </trkpt>
      <trkpt lat="42.91917" lon="0.58029">
        <ele>1261</ele>
        <time>2019-02-03T13:49:54.000Z</time>
      </trkpt>
      <trkpt lat="42.91917" lon="0.58028">
        <ele>1260.5</ele>
        <time>2019-02-03T13:49:55.000Z</time>
      </trkpt>
      <trkpt lat="42.91917" lon="0.58027">
        <ele>1260</ele>
        <time>2019-02-03T13:49:56.000Z</time>
      </trkpt>
      <trkpt lat="42.91917" lon="0.58026">
        <ele>1260</ele>
        <time>2019-02-03T13:49:57.000Z</time>
      </trkpt>
      <trkpt lat="42.91918" lon="0.58025">
        <ele>1260</ele>
        <time>2019-02-03T13:49:58.000Z</time>
      </trkpt>
      <trkpt lat="42.91918" lon="0.58023">
        <ele>1260</ele>
        <time>2019-02-03T13:49:59.000Z</time>
      </trkpt>
      <trkpt lat="42.91919" lon="0.58022">
        <ele>1259.7</ele>
        <time>2019-02-03T13:50:00.000Z</time>
      </trkpt>
      <trkpt lat="42.9192" lon="0.58021">
        <ele>1259.3</ele>
        <time>2019-02-03T13:50:01.000Z</time>
      </trkpt>
      <trkpt lat="42.9192" lon="0.58021">
        <ele>1259</ele>
        <time>2019-02-03T13:50:02.000Z</time>
      </trkpt>
      <trkpt lat="42.91921" lon="0.5802">
        <ele>1259</ele>
        <time>2019-02-03T13:50:03.000Z</time>
      </trkpt>
      <trkpt lat="42.91921" lon="0.58019">
        <ele>1259</ele>
        <time>2019-02-03T13:50:04.000Z</time>
      </trkpt>
      <trkpt lat="42.91921" lon="0.58019">
        <ele>1258</ele>
        <time>2019-02-03T13:50:05.000Z</time>
      </trkpt>
      <trkpt lat="42.91921" lon="0.58018">
        <ele>1258</ele>
        <time>2019-02-03T13:50:06.000Z</time>
      </trkpt>
      <trkpt lat="42.91921" lon="0.58017">
        <ele>1258</ele>
        <time>2019-02-03T13:50:07.000Z</time>
      </trkpt>
      <trkpt lat="42.91921" lon="0.58016">
        <ele>1258</ele>
        <time>2019-02-03T13:50:08.000Z</time>
      </trkpt>
      <trkpt lat="42.91921" lon="0.58015">
        <ele>1257</ele>
        <time>2019-02-03T13:50:09.000Z</time>
      </trkpt>
      <trkpt lat="42.91921" lon="0.58014">
        <ele>1257</ele>
        <time>2019-02-03T13:50:10.000Z</time>
      </trkpt>
      <trkpt lat="42.91921" lon="0.58013">
        <ele>1257</ele>
        <time>2019-02-03T13:50:11.000Z</time>
      </trkpt>
      <trkpt lat="42.91921" lon="0.58012">
        <ele>1257</ele>
        <time>2019-02-03T13:50:12.000Z</time>
      </trkpt>
      <trkpt lat="42.91921" lon="0.58011">
        <ele>1256</ele>
        <time>2019-02-03T13:50:13.000Z</time>
      </trkpt>
      <trkpt lat="42.91921" lon="0.5801">
        <ele>1255.7</ele>
        <time>2019-02-03T13:50:14.000Z</time>
      </trkpt>
      <trkpt lat="42.91921" lon="0.5801">
        <ele>1255.3</ele>
        <time>2019-02-03T13:50:15.000Z</time>
      </trkpt>
      <trkpt lat="42.91921" lon="0.58009">
        <ele>1255</ele>
        <time>2019-02-03T13:50:16.000Z</time>
      </trkpt>
      <trkpt lat="42.91921" lon="0.58009">
        <ele>1255</ele>
        <time>2019-02-03T13:50:17.000Z</time>
      </trkpt>
      <trkpt lat="42.91921" lon="0.58009">
        <ele>1254.7</ele>
        <time>2019-02-03T13:50:18.000Z</time>
      </trkpt>
      <trkpt lat="42.91921" lon="0.58009">
        <ele>1254.3</ele>
        <time>2019-02-03T13:50:19.000Z</time>
      </trkpt>
      <trkpt lat="42.91921" lon="0.58009">
        <ele>1254</ele>
        <time>2019-02-03T13:50:20.000Z</time>
      </trkpt>
      <trkpt lat="42.91921" lon="0.58009">
        <ele>1253</ele>
        <time>2019-02-03T13:50:21.000Z</time>
      </trkpt>
      <trkpt lat="42.91921" lon="0.58009">
        <ele>1253</ele>
        <time>2019-02-03T13:50:22.000Z</time>
      </trkpt>
      <trkpt lat="42.91921" lon="0.58008">
        <ele>1253</ele>
        <time>2019-02-03T13:50:23.000Z</time>
      </trkpt>
      <trkpt lat="42.91921" lon="0.58007">
        <ele>1253</ele>
        <time>2019-02-03T13:50:24.000Z</time>
      </trkpt>
      <trkpt lat="42.9192" lon="0.58004">
        <ele>1252</ele>
        <time>2019-02-03T13:50:25.000Z</time>
      </trkpt>
      <trkpt lat="42.91919" lon="0.58001">
        <ele>1252</ele>
        <time>2019-02-03T13:50:26.000Z</time>
      </trkpt>
      <trkpt lat="42.91918" lon="0.57999">
        <ele>1252</ele>
        <time>2019-02-03T13:50:27.000Z</time>
      </trkpt>
      <trkpt lat="42.91917" lon="0.57997">
        <ele>1252</ele>
        <time>2019-02-03T13:50:28.000Z</time>
      </trkpt>
      <trkpt lat="42.91917" lon="0.57995">
        <ele>1251.5</ele>
        <time>2019-02-03T13:50:29.000Z</time>
      </trkpt>
      <trkpt lat="42.91917" lon="0.57994">
        <ele>1251</ele>
        <time>2019-02-03T13:50:30.000Z</time>
      </trkpt>
      <trkpt lat="42.91917" lon="0.57992">
        <ele>1251</ele>
        <time>2019-02-03T13:50:31.000Z</time>
      </trkpt>
      <trkpt lat="42.91917" lon="0.57992">
        <ele>1251</ele>
        <time>2019-02-03T13:50:32.000Z</time>
      </trkpt>
      <trkpt lat="42.91917" lon="0.57991">
        <ele>1251</ele>
        <time>2019-02-03T13:50:33.000Z</time>
      </trkpt>
      <trkpt lat="42.91917" lon="0.57991">
        <ele>1251</ele>
        <time>2019-02-03T13:50:34.000Z</time>
      </trkpt>
      <trkpt lat="42.91917" lon="0.57991">
        <ele>1250</ele>
        <time>2019-02-03T13:50:35.000Z</time>
      </trkpt>
      <trkpt lat="42.91917" lon="0.57991">
        <ele>1250</ele>
        <time>2019-02-03T13:50:36.000Z</time>
      </trkpt>
      <trkpt lat="42.91917" lon="0.5799">
        <ele>1250</ele>
        <time>2019-02-03T13:50:37.000Z</time>
      </trkpt>
      <trkpt lat="42.91917" lon="0.5799">
        <ele>1250</ele>
        <time>2019-02-03T13:50:38.000Z</time>
      </trkpt>
      <trkpt lat="42.91917" lon="0.57989">
        <ele>1250</ele>
        <time>2019-02-03T13:50:39.000Z</time>
      </trkpt>
      <trkpt lat="42.91917" lon="0.57988">
        <ele>1249.7</ele>
        <time>2019-02-03T13:50:40.000Z</time>
      </trkpt>
      <trkpt lat="42.91917" lon="0.57987">
        <ele>1249.3</ele>
        <time>2019-02-03T13:50:41.000Z</time>
      </trkpt>
      <trkpt lat="42.91918" lon="0.57986">
        <ele>1249</ele>
        <time>2019-02-03T13:50:42.000Z</time>
      </trkpt>
      <trkpt lat="42.91918" lon="0.57985">
        <ele>1249</ele>
        <time>2019-02-03T13:50:43.000Z</time>
      </trkpt>
      <trkpt lat="42.91919" lon="0.57985">
        <ele>1249</ele>
        <time>2019-02-03T13:50:44.000Z</time>
      </trkpt>
      <trkpt lat="42.91919" lon="0.57985">
        <ele>1249</ele>
        <time>2019-02-03T13:50:45.000Z</time>
      </trkpt>
      <trkpt lat="42.9192" lon="0.57984">
        <ele>1249</ele>
        <time>2019-02-03T13:50:46.000Z</time>
      </trkpt>
      <trkpt lat="42.9192" lon="0.57984">
        <ele>1248.5</ele>
        <time>2019-02-03T13:50:47.000Z</time>
      </trkpt>
      <trkpt lat="42.91921" lon="0.57984">
        <ele>1248</ele>
        <time>2019-02-03T13:50:48.000Z</time>
      </trkpt>
      <trkpt lat="42.91922" lon="0.57983">
        <ele>1248</ele>
        <time>2019-02-03T13:50:49.000Z</time>
      </trkpt>
      <trkpt lat="42.91923" lon="0.57983">
        <ele>1247.7</ele>
        <time>2019-02-03T13:50:50.000Z</time>
      </trkpt>
      <trkpt lat="42.91923" lon="0.57982">
        <ele>1247.3</ele>
        <time>2019-02-03T13:50:51.000Z</time>
      </trkpt>
      <trkpt lat="42.91923" lon="0.57981">
        <ele>1247</ele>
        <time>2019-02-03T13:50:52.000Z</time>
      </trkpt>
      <trkpt lat="42.91924" lon="0.57981">
        <ele>1247</ele>
        <time>2019-02-03T13:50:53.000Z</time>
      </trkpt>
      <trkpt lat="42.91924" lon="0.5798">
        <ele>1247</ele>
        <time>2019-02-03T13:50:54.000Z</time>
      </trkpt>
      <trkpt lat="42.91924" lon="0.57979">
        <ele>1246</ele>
        <time>2019-02-03T13:50:55.000Z</time>
      </trkpt>
      <trkpt lat="42.91924" lon="0.57978">
        <ele>1245.7</ele>
        <time>2019-02-03T13:50:56.000Z</time>
      </trkpt>
      <trkpt lat="42.91924" lon="0.57977">
        <ele>1245.3</ele>
        <time>2019-02-03T13:50:57.000Z</time>
      </trkpt>
      <trkpt lat="42.91924" lon="0.57976">
        <ele>1245</ele>
        <time>2019-02-03T13:50:58.000Z</time>
      </trkpt>
      <trkpt lat="42.91924" lon="0.57975">
        <ele>1245</ele>
        <time>2019-02-03T13:50:59.000Z</time>
      </trkpt>
      <trkpt lat="42.91924" lon="0.57975">
        <ele>1245</ele>
        <time>2019-02-03T13:51:00.000Z</time>
      </trkpt>
      <trkpt lat="42.91924" lon="0.57974">
        <ele>1245</ele>
        <time>2019-02-03T13:51:01.000Z</time>
      </trkpt>
      <trkpt lat="42.91924" lon="0.57973">
        <ele>1245</ele>
        <time>2019-02-03T13:51:02.000Z</time>
      </trkpt>
      <trkpt lat="42.91924" lon="0.57972">
        <ele>1244</ele>
        <time>2019-02-03T13:51:03.000Z</time>
      </trkpt>
      <trkpt lat="42.91924" lon="0.57971">
        <ele>1244</ele>
        <time>2019-02-03T13:51:04.000Z</time>
      </trkpt>
      <trkpt lat="42.91924" lon="0.57971">
        <ele>1244</ele>
        <time>2019-02-03T13:51:05.000Z</time>
      </trkpt>
      <trkpt lat="42.91925" lon="0.5797">
        <ele>1244</ele>
        <time>2019-02-03T13:51:06.000Z</time>
      </trkpt>
      <trkpt lat="42.91925" lon="0.5797">
        <ele>1243.5</ele>
        <time>2019-02-03T13:51:07.000Z</time>
      </trkpt>
      <trkpt lat="42.91925" lon="0.57969">
        <ele>1243</ele>
        <time>2019-02-03T13:51:08.000Z</time>
      </trkpt>
      <trkpt lat="42.91925" lon="0.57969">
        <ele>1242.5</ele>
        <time>2019-02-03T13:51:09.000Z</time>
      </trkpt>
      <trkpt lat="42.91925" lon="0.57968">
        <ele>1242</ele>
        <time>2019-02-03T13:51:10.000Z</time>
      </trkpt>
      <trkpt lat="42.91926" lon="0.57968">
        <ele>1242</ele>
        <time>2019-02-03T13:51:11.000Z</time>
      </trkpt>
      <trkpt lat="42.91926" lon="0.57968">
        <ele>1242</ele>
        <time>2019-02-03T13:51:12.000Z</time>
      </trkpt>
      <trkpt lat="42.91926" lon="0.57968">
        <ele>1242</ele>
        <time>2019-02-03T13:51:13.000Z</time>
      </trkpt>
      <trkpt lat="42.91926" lon="0.57968">
        <ele>1242</ele>
        <time>2019-02-03T13:51:14.000Z</time>
      </trkpt>
      <trkpt lat="42.91927" lon="0.57968">
        <ele>1242</ele>
        <time>2019-02-03T13:51:15.000Z</time>
      </trkpt>
      <trkpt lat="42.91927" lon="0.57968">
        <ele>1242</ele>
        <time>2019-02-03T13:51:16.000Z</time>
      </trkpt>
      <trkpt lat="42.91927" lon="0.57968">
        <ele>1242</ele>
        <time>2019-02-03T13:51:17.000Z</time>
      </trkpt>
      <trkpt lat="42.91927" lon="0.57968">
        <ele>1242</ele>
        <time>2019-02-03T13:51:18.000Z</time>
      </trkpt>
      <trkpt lat="42.91927" lon="0.57968">
        <ele>1242</ele>
        <time>2019-02-03T13:51:19.000Z</time>
      </trkpt>
      <trkpt lat="42.91927" lon="0.57968">
        <ele>1241.7</ele>
        <time>2019-02-03T13:51:20.000Z</time>
      </trkpt>
      <trkpt lat="42.91927" lon="0.57967">
        <ele>1241.3</ele>
        <time>2019-02-03T13:51:21.000Z</time>
      </trkpt>
      <trkpt lat="42.91927" lon="0.57967">
        <ele>1241</ele>
        <time>2019-02-03T13:51:22.000Z</time>
      </trkpt>
      <trkpt lat="42.91927" lon="0.57967">
        <ele>1241</ele>
        <time>2019-02-03T13:51:23.000Z</time>
      </trkpt>
      <trkpt lat="42.91927" lon="0.57967">
        <ele>1241</ele>
        <time>2019-02-03T13:51:24.000Z</time>
      </trkpt>
      <trkpt lat="42.91927" lon="0.57967">
        <ele>1241</ele>
        <time>2019-02-03T13:51:25.000Z</time>
      </trkpt>
      <trkpt lat="42.91927" lon="0.57967">
        <ele>1241</ele>
        <time>2019-02-03T13:51:26.000Z</time>
      </trkpt>
      <trkpt lat="42.91927" lon="0.57967">
        <ele>1241</ele>
        <time>2019-02-03T13:51:27.000Z</time>
      </trkpt>
      <trkpt lat="42.91927" lon="0.57966">
        <ele>1240.7</ele>
        <time>2019-02-03T13:51:28.000Z</time>
      </trkpt>
      <trkpt lat="42.91927" lon="0.57966">
        <ele>1240.3</ele>
        <time>2019-02-03T13:51:29.000Z</time>
      </trkpt>
      <trkpt lat="42.91926" lon="0.57965">
        <ele>1240</ele>
        <time>2019-02-03T13:51:30.000Z</time>
      </trkpt>
      <trkpt lat="42.91926" lon="0.57965">
        <ele>1240</ele>
        <time>2019-02-03T13:51:31.000Z</time>
      </trkpt>
      <trkpt lat="42.91926" lon="0.57964">
        <ele>1240</ele>
        <time>2019-02-03T13:51:32.000Z</time>
      </trkpt>
      <trkpt lat="42.91926" lon="0.57963">
        <ele>1239.5</ele>
        <time>2019-02-03T13:51:33.000Z</time>
      </trkpt>
      <trkpt lat="42.91925" lon="0.57962">
        <ele>1239</ele>
        <time>2019-02-03T13:51:34.000Z</time>
      </trkpt>
      <trkpt lat="42.91925" lon="0.57961">
        <ele>1239</ele>
        <time>2019-02-03T13:51:35.000Z</time>
      </trkpt>
      <trkpt lat="42.91925" lon="0.57961">
        <ele>1239</ele>
        <time>2019-02-03T13:51:36.000Z</time>
      </trkpt>
      <trkpt lat="42.91925" lon="0.5796">
        <ele>1238.5</ele>
        <time>2019-02-03T13:51:37.000Z</time>
      </trkpt>
      <trkpt lat="42.91925" lon="0.5796">
        <ele>1238</ele>
        <time>2019-02-03T13:51:38.000Z</time>
      </trkpt>
      <trkpt lat="42.91925" lon="0.57959">
        <ele>1238</ele>
        <time>2019-02-03T13:51:39.000Z</time>
      </trkpt>
      <trkpt lat="42.91925" lon="0.57959">
        <ele>1238</ele>
        <time>2019-02-03T13:51:40.000Z</time>
      </trkpt>
      <trkpt lat="42.91925" lon="0.57959">
        <ele>1237</ele>
        <time>2019-02-03T13:51:41.000Z</time>
      </trkpt>
      <trkpt lat="42.91925" lon="0.57958">
        <ele>1237</ele>
        <time>2019-02-03T13:51:42.000Z</time>
      </trkpt>
      <trkpt lat="42.91924" lon="0.57957">
        <ele>1237</ele>
        <time>2019-02-03T13:51:43.000Z</time>
      </trkpt>
      <trkpt lat="42.91924" lon="0.57956">
        <ele>1237</ele>
        <time>2019-02-03T13:51:44.000Z</time>
      </trkpt>
      <trkpt lat="42.91924" lon="0.57955">
        <ele>1236.5</ele>
        <time>2019-02-03T13:51:45.000Z</time>
      </trkpt>
      <trkpt lat="42.91923" lon="0.57954">
        <ele>1236</ele>
        <time>2019-02-03T13:51:46.000Z</time>
      </trkpt>
      <trkpt lat="42.91923" lon="0.57953">
        <ele>1236</ele>
        <time>2019-02-03T13:51:47.000Z</time>
      </trkpt>
      <trkpt lat="42.91923" lon="0.57952">
        <ele>1236</ele>
        <time>2019-02-03T13:51:48.000Z</time>
      </trkpt>
      <trkpt lat="42.91923" lon="0.57952">
        <ele>1236</ele>
        <time>2019-02-03T13:51:49.000Z</time>
      </trkpt>
      <trkpt lat="42.91923" lon="0.57952">
        <ele>1236</ele>
        <time>2019-02-03T13:51:50.000Z</time>
      </trkpt>
      <trkpt lat="42.91923" lon="0.57951">
        <ele>1236</ele>
        <time>2019-02-03T13:51:51.000Z</time>
      </trkpt>
      <trkpt lat="42.91923" lon="0.57951">
        <ele>1236</ele>
        <time>2019-02-03T13:51:52.000Z</time>
      </trkpt>
      <trkpt lat="42.91923" lon="0.5795">
        <ele>1235.5</ele>
        <time>2019-02-03T13:51:53.000Z</time>
      </trkpt>
      <trkpt lat="42.91922" lon="0.5795">
        <ele>1235</ele>
        <time>2019-02-03T13:51:54.000Z</time>
      </trkpt>
      <trkpt lat="42.91922" lon="0.57949">
        <ele>1235</ele>
        <time>2019-02-03T13:51:55.000Z</time>
      </trkpt>
      <trkpt lat="42.91922" lon="0.57949">
        <ele>1235</ele>
        <time>2019-02-03T13:51:56.000Z</time>
      </trkpt>
      <trkpt lat="42.91921" lon="0.57949">
        <ele>1235</ele>
        <time>2019-02-03T13:51:57.000Z</time>
      </trkpt>
      <trkpt lat="42.91921" lon="0.57949">
        <ele>1235</ele>
        <time>2019-02-03T13:51:58.000Z</time>
      </trkpt>
      <trkpt lat="42.9192" lon="0.57949">
        <ele>1235</ele>
        <time>2019-02-03T13:51:59.000Z</time>
      </trkpt>
      <trkpt lat="42.9192" lon="0.57949">
        <ele>1234.7</ele>
        <time>2019-02-03T13:52:00.000Z</time>
      </trkpt>
      <trkpt lat="42.91919" lon="0.57949">
        <ele>1234.3</ele>
        <time>2019-02-03T13:52:01.000Z</time>
      </trkpt>
      <trkpt lat="42.91919" lon="0.57949">
        <ele>1234</ele>
        <time>2019-02-03T13:52:02.000Z</time>
      </trkpt>
      <trkpt lat="42.91918" lon="0.57949">
        <ele>1234</ele>
        <time>2019-02-03T13:52:03.000Z</time>
      </trkpt>
      <trkpt lat="42.91918" lon="0.57949">
        <ele>1234</ele>
        <time>2019-02-03T13:52:04.000Z</time>
      </trkpt>
      <trkpt lat="42.91917" lon="0.57948">
        <ele>1234</ele>
        <time>2019-02-03T13:52:05.000Z</time>
      </trkpt>
      <trkpt lat="42.91917" lon="0.57948">
        <ele>1234</ele>
        <time>2019-02-03T13:52:06.000Z</time>
      </trkpt>
      <trkpt lat="42.91917" lon="0.57948">
        <ele>1234</ele>
        <time>2019-02-03T13:52:07.000Z</time>
      </trkpt>
      <trkpt lat="42.91916" lon="0.57947">
        <ele>1234</ele>
        <time>2019-02-03T13:52:08.000Z</time>
      </trkpt>
      <trkpt lat="42.91916" lon="0.57946">
        <ele>1234</ele>
        <time>2019-02-03T13:52:09.000Z</time>
      </trkpt>
      <trkpt lat="42.91916" lon="0.57946">
        <ele>1234</ele>
        <time>2019-02-03T13:52:10.000Z</time>
      </trkpt>
      <trkpt lat="42.91917" lon="0.57945">
        <ele>1233.5</ele>
        <time>2019-02-03T13:52:11.000Z</time>
      </trkpt>
      <trkpt lat="42.91917" lon="0.57944">
        <ele>1233</ele>
        <time>2019-02-03T13:52:12.000Z</time>
      </trkpt>
      <trkpt lat="42.91917" lon="0.57944">
        <ele>1233</ele>
        <time>2019-02-03T13:52:13.000Z</time>
      </trkpt>
      <trkpt lat="42.91918" lon="0.57943">
        <ele>1233</ele>
        <time>2019-02-03T13:52:14.000Z</time>
      </trkpt>
      <trkpt lat="42.91918" lon="0.57942">
        <ele>1232.5</ele>
        <time>2019-02-03T13:52:15.000Z</time>
      </trkpt>
      <trkpt lat="42.91919" lon="0.57942">
        <ele>1232</ele>
        <time>2019-02-03T13:52:16.000Z</time>
      </trkpt>
      <trkpt lat="42.91919" lon="0.57941">
        <ele>1232</ele>
        <time>2019-02-03T13:52:17.000Z</time>
      </trkpt>
      <trkpt lat="42.91919" lon="0.5794">
        <ele>1231.7</ele>
        <time>2019-02-03T13:52:18.000Z</time>
      </trkpt>
      <trkpt lat="42.91919" lon="0.5794">
        <ele>1231.3</ele>
        <time>2019-02-03T13:52:19.000Z</time>
      </trkpt>
      <trkpt lat="42.91919" lon="0.57939">
        <ele>1231</ele>
        <time>2019-02-03T13:52:20.000Z</time>
      </trkpt>
      <trkpt lat="42.91919" lon="0.57938">
        <ele>1230.5</ele>
        <time>2019-02-03T13:52:21.000Z</time>
      </trkpt>
      <trkpt lat="42.91919" lon="0.57937">
        <ele>1230</ele>
        <time>2019-02-03T13:52:22.000Z</time>
      </trkpt>
      <trkpt lat="42.91919" lon="0.57937">
        <ele>1230</ele>
        <time>2019-02-03T13:52:23.000Z</time>
      </trkpt>
      <trkpt lat="42.9192" lon="0.57936">
        <ele>1230</ele>
        <time>2019-02-03T13:52:24.000Z</time>
      </trkpt>
      <trkpt lat="42.9192" lon="0.57935">
        <ele>1229</ele>
        <time>2019-02-03T13:52:25.000Z</time>
      </trkpt>
      <trkpt lat="42.9192" lon="0.57934">
        <ele>1229</ele>
        <time>2019-02-03T13:52:26.000Z</time>
      </trkpt>
      <trkpt lat="42.9192" lon="0.57934">
        <ele>1229</ele>
        <time>2019-02-03T13:52:27.000Z</time>
      </trkpt>
      <trkpt lat="42.9192" lon="0.57933">
        <ele>1229</ele>
        <time>2019-02-03T13:52:28.000Z</time>
      </trkpt>
      <trkpt lat="42.9192" lon="0.57932">
        <ele>1229</ele>
        <time>2019-02-03T13:52:29.000Z</time>
      </trkpt>
      <trkpt lat="42.9192" lon="0.57931">
        <ele>1229</ele>
        <time>2019-02-03T13:52:30.000Z</time>
      </trkpt>
      <trkpt lat="42.9192" lon="0.57931">
        <ele>1228.5</ele>
        <time>2019-02-03T13:52:31.000Z</time>
      </trkpt>
      <trkpt lat="42.9192" lon="0.5793">
        <ele>1228</ele>
        <time>2019-02-03T13:52:32.000Z</time>
      </trkpt>
      <trkpt lat="42.9192" lon="0.57929">
        <ele>1227.5</ele>
        <time>2019-02-03T13:52:33.000Z</time>
      </trkpt>
      <trkpt lat="42.9192" lon="0.57929">
        <ele>1227</ele>
        <time>2019-02-03T13:52:34.000Z</time>
      </trkpt>
      <trkpt lat="42.91921" lon="0.57928">
        <ele>1227</ele>
        <time>2019-02-03T13:52:35.000Z</time>
      </trkpt>
      <trkpt lat="42.91921" lon="0.57928">
        <ele>1227</ele>
        <time>2019-02-03T13:52:36.000Z</time>
      </trkpt>
      <trkpt lat="42.91921" lon="0.57928">
        <ele>1227</ele>
        <time>2019-02-03T13:52:37.000Z</time>
      </trkpt>
      <trkpt lat="42.91921" lon="0.57928">
        <ele>1227</ele>
        <time>2019-02-03T13:52:38.000Z</time>
      </trkpt>
      <trkpt lat="42.91921" lon="0.57928">
        <ele>1226.5</ele>
        <time>2019-02-03T13:52:39.000Z</time>
      </trkpt>
      <trkpt lat="42.91921" lon="0.57928">
        <ele>1226</ele>
        <time>2019-02-03T13:52:40.000Z</time>
      </trkpt>
      <trkpt lat="42.91921" lon="0.57928">
        <ele>1226</ele>
        <time>2019-02-03T13:52:41.000Z</time>
      </trkpt>
      <trkpt lat="42.91921" lon="0.57927">
        <ele>1226</ele>
        <time>2019-02-03T13:52:42.000Z</time>
      </trkpt>
      <trkpt lat="42.91921" lon="0.57927">
        <ele>1225.5</ele>
        <time>2019-02-03T13:52:43.000Z</time>
      </trkpt>
      <trkpt lat="42.91921" lon="0.57927">
        <ele>1225</ele>
        <time>2019-02-03T13:52:44.000Z</time>
      </trkpt>
      <trkpt lat="42.91922" lon="0.57926">
        <ele>1225</ele>
        <time>2019-02-03T13:52:45.000Z</time>
      </trkpt>
      <trkpt lat="42.91922" lon="0.57926">
        <ele>1225</ele>
        <time>2019-02-03T13:52:46.000Z</time>
      </trkpt>
      <trkpt lat="42.91923" lon="0.57925">
        <ele>1224.5</ele>
        <time>2019-02-03T13:52:47.000Z</time>
      </trkpt>
      <trkpt lat="42.91924" lon="0.57925">
        <ele>1224</ele>
        <time>2019-02-03T13:52:48.000Z</time>
      </trkpt>
      <trkpt lat="42.91924" lon="0.57924">
        <ele>1224</ele>
        <time>2019-02-03T13:52:49.000Z</time>
      </trkpt>
      <trkpt lat="42.91925" lon="0.57923">
        <ele>1223.7</ele>
        <time>2019-02-03T13:52:50.000Z</time>
      </trkpt>
      <trkpt lat="42.91925" lon="0.57923">
        <ele>1223.3</ele>
        <time>2019-02-03T13:52:51.000Z</time>
      </trkpt>
      <trkpt lat="42.91925" lon="0.57922">
        <ele>1223</ele>
        <time>2019-02-03T13:52:52.000Z</time>
      </trkpt>
      <trkpt lat="42.91925" lon="0.57921">
        <ele>1223</ele>
        <time>2019-02-03T13:52:53.000Z</time>
      </trkpt>
      <trkpt lat="42.91926" lon="0.5792">
        <ele>1223</ele>
        <time>2019-02-03T13:52:54.000Z</time>
      </trkpt>
      <trkpt lat="42.91926" lon="0.57919">
        <ele>1223</ele>
        <time>2019-02-03T13:52:55.000Z</time>
      </trkpt>
      <trkpt lat="42.91927" lon="0.57919">
        <ele>1223</ele>
        <time>2019-02-03T13:52:56.000Z</time>
      </trkpt>
      <trkpt lat="42.91927" lon="0.57918">
        <ele>1222</ele>
        <time>2019-02-03T13:52:57.000Z</time>
      </trkpt>
      <trkpt lat="42.91928" lon="0.57917">
        <ele>1222</ele>
        <time>2019-02-03T13:52:58.000Z</time>
      </trkpt>
      <trkpt lat="42.91928" lon="0.57916">
        <ele>1222</ele>
        <time>2019-02-03T13:52:59.000Z</time>
      </trkpt>
      <trkpt lat="42.91928" lon="0.57916">
        <ele>1222</ele>
        <time>2019-02-03T13:53:00.000Z</time>
      </trkpt>
      <trkpt lat="42.91928" lon="0.57915">
        <ele>1222</ele>
        <time>2019-02-03T13:53:01.000Z</time>
      </trkpt>
      <trkpt lat="42.91928" lon="0.57914">
        <ele>1222</ele>
        <time>2019-02-03T13:53:02.000Z</time>
      </trkpt>
      <trkpt lat="42.91928" lon="0.57913">
        <ele>1221.5</ele>
        <time>2019-02-03T13:53:03.000Z</time>
      </trkpt>
      <trkpt lat="42.91928" lon="0.57912">
        <ele>1221</ele>
        <time>2019-02-03T13:53:04.000Z</time>
      </trkpt>
      <trkpt lat="42.91928" lon="0.57912">
        <ele>1221.5</ele>
        <time>2019-02-03T13:53:05.000Z</time>
      </trkpt>
      <trkpt lat="42.91928" lon="0.57912">
        <ele>1222</ele>
        <time>2019-02-03T13:53:06.000Z</time>
      </trkpt>
      <trkpt lat="42.91929" lon="0.57912">
        <ele>1221.5</ele>
        <time>2019-02-03T13:53:07.000Z</time>
      </trkpt>
      <trkpt lat="42.91929" lon="0.57912">
        <ele>1221</ele>
        <time>2019-02-03T13:53:08.000Z</time>
      </trkpt>
      <trkpt lat="42.91929" lon="0.57912">
        <ele>1221</ele>
        <time>2019-02-03T13:53:09.000Z</time>
      </trkpt>
      <trkpt lat="42.91929" lon="0.57912">
        <ele>1221</ele>
        <time>2019-02-03T13:53:10.000Z</time>
      </trkpt>
      <trkpt lat="42.91929" lon="0.57912">
        <ele>1221</ele>
        <time>2019-02-03T13:53:11.000Z</time>
      </trkpt>
      <trkpt lat="42.91929" lon="0.57912">
        <ele>1221</ele>
        <time>2019-02-03T13:53:12.000Z</time>
      </trkpt>
      <trkpt lat="42.91929" lon="0.57911">
        <ele>1221</ele>
        <time>2019-02-03T13:53:13.000Z</time>
      </trkpt>
      <trkpt lat="42.91929" lon="0.57911">
        <ele>1221</ele>
        <time>2019-02-03T13:53:14.000Z</time>
      </trkpt>
      <trkpt lat="42.91928" lon="0.5791">
        <ele>1221</ele>
        <time>2019-02-03T13:53:15.000Z</time>
      </trkpt>
      <trkpt lat="42.91928" lon="0.5791">
        <ele>1221</ele>
        <time>2019-02-03T13:53:16.000Z</time>
      </trkpt>
      <trkpt lat="42.91928" lon="0.57909">
        <ele>1221</ele>
        <time>2019-02-03T13:53:17.000Z</time>
      </trkpt>
      <trkpt lat="42.91927" lon="0.57909">
        <ele>1221</ele>
        <time>2019-02-03T13:53:18.000Z</time>
      </trkpt>
      <trkpt lat="42.91927" lon="0.57908">
        <ele>1221</ele>
        <time>2019-02-03T13:53:19.000Z</time>
      </trkpt>
      <trkpt lat="42.91927" lon="0.57908">
        <ele>1221</ele>
        <time>2019-02-03T13:53:20.000Z</time>
      </trkpt>
      <trkpt lat="42.91927" lon="0.57908">
        <ele>1221</ele>
        <time>2019-02-03T13:53:21.000Z</time>
      </trkpt>
      <trkpt lat="42.91927" lon="0.57908">
        <ele>1221</ele>
        <time>2019-02-03T13:53:22.000Z</time>
      </trkpt>
      <trkpt lat="42.91927" lon="0.57908">
        <ele>1221</ele>
        <time>2019-02-03T13:53:23.000Z</time>
      </trkpt>
      <trkpt lat="42.91927" lon="0.57908">
        <ele>1221</ele>
        <time>2019-02-03T13:53:24.000Z</time>
      </trkpt>
      <trkpt lat="42.91927" lon="0.57908">
        <ele>1221</ele>
        <time>2019-02-03T13:53:25.000Z</time>
      </trkpt>
      <trkpt lat="42.91927" lon="0.57908">
        <ele>1221</ele>
        <time>2019-02-03T13:53:26.000Z</time>
      </trkpt>
      <trkpt lat="42.91927" lon="0.57908">
        <ele>1221</ele>
        <time>2019-02-03T13:53:27.000Z</time>
      </trkpt>
      <trkpt lat="42.91927" lon="0.57908">
        <ele>1221</ele>
        <time>2019-02-03T13:53:28.000Z</time>
      </trkpt>
      <trkpt lat="42.91927" lon="0.57907">
        <ele>1221</ele>
        <time>2019-02-03T13:53:29.000Z</time>
      </trkpt>
      <trkpt lat="42.91927" lon="0.57907">
        <ele>1221</ele>
        <time>2019-02-03T13:53:30.000Z</time>
      </trkpt>
      <trkpt lat="42.91927" lon="0.57908">
        <ele>1221</ele>
        <time>2019-02-03T13:53:31.000Z</time>
      </trkpt>
      <trkpt lat="42.91927" lon="0.57908">
        <ele>1221</ele>
        <time>2019-02-03T13:53:32.000Z</time>
      </trkpt>
      <trkpt lat="42.91927" lon="0.57907">
        <ele>1221</ele>
        <time>2019-02-03T13:53:33.000Z</time>
      </trkpt>
      <trkpt lat="42.91927" lon="0.57907">
        <ele>1221</ele>
        <time>2019-02-03T13:53:34.000Z</time>
      </trkpt>
      <trkpt lat="42.91927" lon="0.57907">
        <ele>1221</ele>
        <time>2019-02-03T13:53:35.000Z</time>
      </trkpt>
      <trkpt lat="42.91927" lon="0.57907">
        <ele>1221</ele>
        <time>2019-02-03T13:53:36.000Z</time>
      </trkpt>
      <trkpt lat="42.91927" lon="0.57907">
        <ele>1221</ele>
        <time>2019-02-03T13:53:37.000Z</time>
      </trkpt>
      <trkpt lat="42.91927" lon="0.57907">
        <ele>1221</ele>
        <time>2019-02-03T13:53:38.000Z</time>
      </trkpt>
      <trkpt lat="42.91927" lon="0.57907">
        <ele>1221</ele>
        <time>2019-02-03T13:53:39.000Z</time>
      </trkpt>
      <trkpt lat="42.91927" lon="0.57907">
        <ele>1221</ele>
        <time>2019-02-03T13:53:40.000Z</time>
      </trkpt>
      <trkpt lat="42.91927" lon="0.57907">
        <ele>1221</ele>
        <time>2019-02-03T13:53:41.000Z</time>
      </trkpt>
      <trkpt lat="42.91927" lon="0.57907">
        <ele>1221</ele>
        <time>2019-02-03T13:53:42.000Z</time>
      </trkpt>
      <trkpt lat="42.91927" lon="0.57907">
        <ele>1221</ele>
        <time>2019-02-03T13:53:43.000Z</time>
      </trkpt>
      <trkpt lat="42.91927" lon="0.57907">
        <ele>1221</ele>
        <time>2019-02-03T13:53:44.000Z</time>
      </trkpt>
      <trkpt lat="42.91927" lon="0.57907">
        <ele>1221</ele>
        <time>2019-02-03T13:53:45.000Z</time>
      </trkpt>
      <trkpt lat="42.91927" lon="0.57907">
        <ele>1221</ele>
        <time>2019-02-03T13:53:46.000Z</time>
      </trkpt>
      <trkpt lat="42.91927" lon="0.57907">
        <ele>1221</ele>
        <time>2019-02-03T13:53:47.000Z</time>
      </trkpt>
      <trkpt lat="42.91927" lon="0.57907">
        <ele>1221</ele>
        <time>2019-02-03T13:53:48.000Z</time>
      </trkpt>
      <trkpt lat="42.91927" lon="0.57907">
        <ele>1221</ele>
        <time>2019-02-03T13:53:49.000Z</time>
      </trkpt>
      <trkpt lat="42.91927" lon="0.57907">
        <ele>1221</ele>
        <time>2019-02-03T13:53:50.000Z</time>
      </trkpt>
      <trkpt lat="42.91927" lon="0.57907">
        <ele>1221</ele>
        <time>2019-02-03T13:53:51.000Z</time>
      </trkpt>
      <trkpt lat="42.91927" lon="0.57907">
        <ele>1221</ele>
        <time>2019-02-03T13:53:52.000Z</time>
      </trkpt>
      <trkpt lat="42.91927" lon="0.57907">
        <ele>1221</ele>
        <time>2019-02-03T13:53:53.000Z</time>
      </trkpt>
      <trkpt lat="42.91928" lon="0.57907">
        <ele>1221</ele>
        <time>2019-02-03T13:53:54.000Z</time>
      </trkpt>
      <trkpt lat="42.91928" lon="0.57907">
        <ele>1221</ele>
        <time>2019-02-03T13:53:55.000Z</time>
      </trkpt>
      <trkpt lat="42.91928" lon="0.57907">
        <ele>1221</ele>
        <time>2019-02-03T13:53:56.000Z</time>
      </trkpt>
      <trkpt lat="42.91928" lon="0.57907">
        <ele>1221</ele>
        <time>2019-02-03T13:53:57.000Z</time>
      </trkpt>
      <trkpt lat="42.91928" lon="0.57907">
        <ele>1221</ele>
        <time>2019-02-03T13:53:58.000Z</time>
      </trkpt>
      <trkpt lat="42.91928" lon="0.57908">
        <ele>1221</ele>
        <time>2019-02-03T13:53:59.000Z</time>
      </trkpt>
      <trkpt lat="42.91928" lon="0.57908">
        <ele>1221</ele>
        <time>2019-02-03T13:54:00.000Z</time>
      </trkpt>
      <trkpt lat="42.91928" lon="0.57908">
        <ele>1221</ele>
        <time>2019-02-03T13:54:01.000Z</time>
      </trkpt>
      <trkpt lat="42.91928" lon="0.57908">
        <ele>1221</ele>
        <time>2019-02-03T13:54:02.000Z</time>
      </trkpt>
      <trkpt lat="42.91928" lon="0.57908">
        <ele>1221</ele>
        <time>2019-02-03T13:54:03.000Z</time>
      </trkpt>
      <trkpt lat="42.91928" lon="0.57907">
        <ele>1221</ele>
        <time>2019-02-03T13:54:04.000Z</time>
      </trkpt>
      <trkpt lat="42.91929" lon="0.57907">
        <ele>1221</ele>
        <time>2019-02-03T13:54:05.000Z</time>
      </trkpt>
      <trkpt lat="42.91929" lon="0.57908">
        <ele>1221</ele>
        <time>2019-02-03T13:54:06.000Z</time>
      </trkpt>
      <trkpt lat="42.91929" lon="0.57908">
        <ele>1221</ele>
        <time>2019-02-03T13:54:07.000Z</time>
      </trkpt>
      <trkpt lat="42.9193" lon="0.57908">
        <ele>1221</ele>
        <time>2019-02-03T13:54:08.000Z</time>
      </trkpt>
      <trkpt lat="42.9193" lon="0.57908">
        <ele>1221</ele>
        <time>2019-02-03T13:54:09.000Z</time>
      </trkpt>
      <trkpt lat="42.91931" lon="0.57908">
        <ele>1221</ele>
        <time>2019-02-03T13:54:10.000Z</time>
      </trkpt>
      <trkpt lat="42.91932" lon="0.57908">
        <ele>1220.5</ele>
        <time>2019-02-03T13:54:11.000Z</time>
      </trkpt>
      <trkpt lat="42.91933" lon="0.57908">
        <ele>1220</ele>
        <time>2019-02-03T13:54:12.000Z</time>
      </trkpt>
      <trkpt lat="42.91933" lon="0.57908">
        <ele>1220</ele>
        <time>2019-02-03T13:54:13.000Z</time>
      </trkpt>
      <trkpt lat="42.91934" lon="0.57908">
        <ele>1220</ele>
        <time>2019-02-03T13:54:14.000Z</time>
      </trkpt>
      <trkpt lat="42.91934" lon="0.57908">
        <ele>1220</ele>
        <time>2019-02-03T13:54:15.000Z</time>
      </trkpt>
      <trkpt lat="42.91935" lon="0.57908">
        <ele>1220</ele>
        <time>2019-02-03T13:54:16.000Z</time>
      </trkpt>
      <trkpt lat="42.91935" lon="0.57908">
        <ele>1220</ele>
        <time>2019-02-03T13:54:17.000Z</time>
      </trkpt>
      <trkpt lat="42.91935" lon="0.57908">
        <ele>1220</ele>
        <time>2019-02-03T13:54:18.000Z</time>
      </trkpt>
      <trkpt lat="42.91935" lon="0.57908">
        <ele>1220</ele>
        <time>2019-02-03T13:54:19.000Z</time>
      </trkpt>
      <trkpt lat="42.91935" lon="0.57908">
        <ele>1220</ele>
        <time>2019-02-03T13:54:20.000Z</time>
      </trkpt>
      <trkpt lat="42.91935" lon="0.57908">
        <ele>1220</ele>
        <time>2019-02-03T13:54:21.000Z</time>
      </trkpt>
      <trkpt lat="42.91935" lon="0.57908">
        <ele>1219.7</ele>
        <time>2019-02-03T13:54:22.000Z</time>
      </trkpt>
      <trkpt lat="42.91935" lon="0.57908">
        <ele>1219.3</ele>
        <time>2019-02-03T13:54:23.000Z</time>
      </trkpt>
      <trkpt lat="42.91935" lon="0.57907">
        <ele>1219</ele>
        <time>2019-02-03T13:54:24.000Z</time>
      </trkpt>
      <trkpt lat="42.91935" lon="0.57907">
        <ele>1219</ele>
        <time>2019-02-03T13:54:25.000Z</time>
      </trkpt>
      <trkpt lat="42.91936" lon="0.57907">
        <ele>1219</ele>
        <time>2019-02-03T13:54:26.000Z</time>
      </trkpt>
      <trkpt lat="42.91936" lon="0.57906">
        <ele>1219</ele>
        <time>2019-02-03T13:54:27.000Z</time>
      </trkpt>
      <trkpt lat="42.91936" lon="0.57906">
        <ele>1219</ele>
        <time>2019-02-03T13:54:28.000Z</time>
      </trkpt>
      <trkpt lat="42.91936" lon="0.57906">
        <ele>1219</ele>
        <time>2019-02-03T13:54:29.000Z</time>
      </trkpt>
      <trkpt lat="42.91936" lon="0.57905">
        <ele>1219</ele>
        <time>2019-02-03T13:54:30.000Z</time>
      </trkpt>
      <trkpt lat="42.91937" lon="0.57905">
        <ele>1218.5</ele>
        <time>2019-02-03T13:54:31.000Z</time>
      </trkpt>
      <trkpt lat="42.91937" lon="0.57904">
        <ele>1218</ele>
        <time>2019-02-03T13:54:32.000Z</time>
      </trkpt>
      <trkpt lat="42.91938" lon="0.57903">
        <ele>1218</ele>
        <time>2019-02-03T13:54:33.000Z</time>
      </trkpt>
      <trkpt lat="42.91938" lon="0.57903">
        <ele>1217.7</ele>
        <time>2019-02-03T13:54:34.000Z</time>
      </trkpt>
      <trkpt lat="42.91938" lon="0.57902">
        <ele>1217.3</ele>
        <time>2019-02-03T13:54:35.000Z</time>
      </trkpt>
      <trkpt lat="42.91939" lon="0.57902">
        <ele>1217</ele>
        <time>2019-02-03T13:54:36.000Z</time>
      </trkpt>
      <trkpt lat="42.9194" lon="0.57901">
        <ele>1216.5</ele>
        <time>2019-02-03T13:54:37.000Z</time>
      </trkpt>
      <trkpt lat="42.9194" lon="0.57901">
        <ele>1216</ele>
        <time>2019-02-03T13:54:38.000Z</time>
      </trkpt>
      <trkpt lat="42.91941" lon="0.579">
        <ele>1216</ele>
        <time>2019-02-03T13:54:39.000Z</time>
      </trkpt>
      <trkpt lat="42.91941" lon="0.579">
        <ele>1216</ele>
        <time>2019-02-03T13:54:40.000Z</time>
      </trkpt>
      <trkpt lat="42.91942" lon="0.57899">
        <ele>1215.5</ele>
        <time>2019-02-03T13:54:41.000Z</time>
      </trkpt>
      <trkpt lat="42.91942" lon="0.57899">
        <ele>1215</ele>
        <time>2019-02-03T13:54:42.000Z</time>
      </trkpt>
      <trkpt lat="42.91943" lon="0.57898">
        <ele>1215</ele>
        <time>2019-02-03T13:54:43.000Z</time>
      </trkpt>
      <trkpt lat="42.91944" lon="0.57898">
        <ele>1215</ele>
        <time>2019-02-03T13:54:44.000Z</time>
      </trkpt>
      <trkpt lat="42.91944" lon="0.57898">
        <ele>1214.5</ele>
        <time>2019-02-03T13:54:45.000Z</time>
      </trkpt>
      <trkpt lat="42.91945" lon="0.57898">
        <ele>1214</ele>
        <time>2019-02-03T13:54:46.000Z</time>
      </trkpt>
      <trkpt lat="42.91945" lon="0.57898">
        <ele>1214</ele>
        <time>2019-02-03T13:54:47.000Z</time>
      </trkpt>
      <trkpt lat="42.91946" lon="0.57897">
        <ele>1213.7</ele>
        <time>2019-02-03T13:54:48.000Z</time>
      </trkpt>
      <trkpt lat="42.91946" lon="0.57897">
        <ele>1213.3</ele>
        <time>2019-02-03T13:54:49.000Z</time>
      </trkpt>
      <trkpt lat="42.91947" lon="0.57897">
        <ele>1213</ele>
        <time>2019-02-03T13:54:50.000Z</time>
      </trkpt>
      <trkpt lat="42.91947" lon="0.57896">
        <ele>1212</ele>
        <time>2019-02-03T13:54:51.000Z</time>
      </trkpt>
      <trkpt lat="42.91948" lon="0.57896">
        <ele>1212</ele>
        <time>2019-02-03T13:54:52.000Z</time>
      </trkpt>
      <trkpt lat="42.91948" lon="0.57895">
        <ele>1212</ele>
        <time>2019-02-03T13:54:53.000Z</time>
      </trkpt>
      <trkpt lat="42.91948" lon="0.57894">
        <ele>1212</ele>
        <time>2019-02-03T13:54:54.000Z</time>
      </trkpt>
      <trkpt lat="42.91948" lon="0.57893">
        <ele>1212</ele>
        <time>2019-02-03T13:54:55.000Z</time>
      </trkpt>
      <trkpt lat="42.91948" lon="0.57892">
        <ele>1212</ele>
        <time>2019-02-03T13:54:56.000Z</time>
      </trkpt>
      <trkpt lat="42.91948" lon="0.57891">
        <ele>1211.5</ele>
        <time>2019-02-03T13:54:57.000Z</time>
      </trkpt>
      <trkpt lat="42.91949" lon="0.5789">
        <ele>1211</ele>
        <time>2019-02-03T13:54:58.000Z</time>
      </trkpt>
      <trkpt lat="42.91949" lon="0.57889">
        <ele>1211</ele>
        <time>2019-02-03T13:54:59.000Z</time>
      </trkpt>
      <trkpt lat="42.91949" lon="0.57888">
        <ele>1211</ele>
        <time>2019-02-03T13:55:00.000Z</time>
      </trkpt>
      <trkpt lat="42.91949" lon="0.57888">
        <ele>1210.5</ele>
        <time>2019-02-03T13:55:01.000Z</time>
      </trkpt>
      <trkpt lat="42.91949" lon="0.57887">
        <ele>1210</ele>
        <time>2019-02-03T13:55:02.000Z</time>
      </trkpt>
      <trkpt lat="42.9195" lon="0.57886">
        <ele>1209.5</ele>
        <time>2019-02-03T13:55:03.000Z</time>
      </trkpt>
      <trkpt lat="42.9195" lon="0.57884">
        <ele>1209</ele>
        <time>2019-02-03T13:55:04.000Z</time>
      </trkpt>
      <trkpt lat="42.91951" lon="0.57882">
        <ele>1209</ele>
        <time>2019-02-03T13:55:05.000Z</time>
      </trkpt>
      <trkpt lat="42.91951" lon="0.5788">
        <ele>1208.7</ele>
        <time>2019-02-03T13:55:06.000Z</time>
      </trkpt>
      <trkpt lat="42.91951" lon="0.57878">
        <ele>1208.3</ele>
        <time>2019-02-03T13:55:07.000Z</time>
      </trkpt>
      <trkpt lat="42.91952" lon="0.57876">
        <ele>1208</ele>
        <time>2019-02-03T13:55:08.000Z</time>
      </trkpt>
      <trkpt lat="42.91952" lon="0.57875">
        <ele>1208</ele>
        <time>2019-02-03T13:55:09.000Z</time>
      </trkpt>
      <trkpt lat="42.91952" lon="0.57874">
        <ele>1208</ele>
        <time>2019-02-03T13:55:10.000Z</time>
      </trkpt>
      <trkpt lat="42.91952" lon="0.57872">
        <ele>1208</ele>
        <time>2019-02-03T13:55:11.000Z</time>
      </trkpt>
      <trkpt lat="42.91952" lon="0.57872">
        <ele>1208</ele>
        <time>2019-02-03T13:55:12.000Z</time>
      </trkpt>
      <trkpt lat="42.91952" lon="0.57871">
        <ele>1208</ele>
        <time>2019-02-03T13:55:13.000Z</time>
      </trkpt>
      <trkpt lat="42.91952" lon="0.57871">
        <ele>1208</ele>
        <time>2019-02-03T13:55:14.000Z</time>
      </trkpt>
      <trkpt lat="42.91952" lon="0.5787">
        <ele>1208</ele>
        <time>2019-02-03T13:55:15.000Z</time>
      </trkpt>
      <trkpt lat="42.91952" lon="0.5787">
        <ele>1208</ele>
        <time>2019-02-03T13:55:16.000Z</time>
      </trkpt>
      <trkpt lat="42.91952" lon="0.5787">
        <ele>1208</ele>
        <time>2019-02-03T13:55:17.000Z</time>
      </trkpt>
      <trkpt lat="42.91952" lon="0.5787">
        <ele>1208</ele>
        <time>2019-02-03T13:55:18.000Z</time>
      </trkpt>
      <trkpt lat="42.91952" lon="0.5787">
        <ele>1208</ele>
        <time>2019-02-03T13:55:19.000Z</time>
      </trkpt>
      <trkpt lat="42.91952" lon="0.5787">
        <ele>1208</ele>
        <time>2019-02-03T13:55:20.000Z</time>
      </trkpt>
      <trkpt lat="42.91952" lon="0.5787">
        <ele>1208</ele>
        <time>2019-02-03T13:55:21.000Z</time>
      </trkpt>
      <trkpt lat="42.91952" lon="0.5787">
        <ele>1208</ele>
        <time>2019-02-03T13:55:22.000Z</time>
      </trkpt>
      <trkpt lat="42.91952" lon="0.5787">
        <ele>1208</ele>
        <time>2019-02-03T13:55:23.000Z</time>
      </trkpt>
      <trkpt lat="42.91952" lon="0.5787">
        <ele>1208</ele>
        <time>2019-02-03T13:55:24.000Z</time>
      </trkpt>
      <trkpt lat="42.91952" lon="0.5787">
        <ele>1208</ele>
        <time>2019-02-03T13:55:25.000Z</time>
      </trkpt>
      <trkpt lat="42.91952" lon="0.5787">
        <ele>1208</ele>
        <time>2019-02-03T13:55:26.000Z</time>
      </trkpt>
      <trkpt lat="42.91952" lon="0.5787">
        <ele>1208</ele>
        <time>2019-02-03T13:55:27.000Z</time>
      </trkpt>
      <trkpt lat="42.91952" lon="0.5787">
        <ele>1208</ele>
        <time>2019-02-03T13:55:28.000Z</time>
      </trkpt>
      <trkpt lat="42.91952" lon="0.5787">
        <ele>1208</ele>
        <time>2019-02-03T13:55:29.000Z</time>
      </trkpt>
      <trkpt lat="42.91952" lon="0.5787">
        <ele>1208</ele>
        <time>2019-02-03T13:55:30.000Z</time>
      </trkpt>
      <trkpt lat="42.91952" lon="0.5787">
        <ele>1208</ele>
        <time>2019-02-03T13:55:31.000Z</time>
      </trkpt>
      <trkpt lat="42.91952" lon="0.5787">
        <ele>1208</ele>
        <time>2019-02-03T13:55:32.000Z</time>
      </trkpt>
      <trkpt lat="42.91952" lon="0.5787">
        <ele>1208</ele>
        <time>2019-02-03T13:55:33.000Z</time>
      </trkpt>
      <trkpt lat="42.91952" lon="0.5787">
        <ele>1208</ele>
        <time>2019-02-03T13:55:34.000Z</time>
      </trkpt>
      <trkpt lat="42.91952" lon="0.5787">
        <ele>1208</ele>
        <time>2019-02-03T13:55:35.000Z</time>
      </trkpt>
      <trkpt lat="42.91952" lon="0.5787">
        <ele>1208</ele>
        <time>2019-02-03T13:55:36.000Z</time>
      </trkpt>
      <trkpt lat="42.91952" lon="0.5787">
        <ele>1208</ele>
        <time>2019-02-03T13:55:37.000Z</time>
      </trkpt>
      <trkpt lat="42.91952" lon="0.5787">
        <ele>1208</ele>
        <time>2019-02-03T13:55:38.000Z</time>
      </trkpt>
      <trkpt lat="42.91952" lon="0.5787">
        <ele>1208</ele>
        <time>2019-02-03T13:55:39.000Z</time>
      </trkpt>
      <trkpt lat="42.91952" lon="0.5787">
        <ele>1208</ele>
        <time>2019-02-03T13:55:40.000Z</time>
      </trkpt>
      <trkpt lat="42.91951" lon="0.57869">
        <ele>1208</ele>
        <time>2019-02-03T13:55:41.000Z</time>
      </trkpt>
      <trkpt lat="42.91951" lon="0.57868">
        <ele>1208</ele>
        <time>2019-02-03T13:55:42.000Z</time>
      </trkpt>
      <trkpt lat="42.9195" lon="0.57867">
        <ele>1208</ele>
        <time>2019-02-03T13:55:43.000Z</time>
      </trkpt>
      <trkpt lat="42.9195" lon="0.57865">
        <ele>1208</ele>
        <time>2019-02-03T13:55:44.000Z</time>
      </trkpt>
      <trkpt lat="42.9195" lon="0.57864">
        <ele>1208</ele>
        <time>2019-02-03T13:55:45.000Z</time>
      </trkpt>
      <trkpt lat="42.91949" lon="0.57863">
        <ele>1208</ele>
        <time>2019-02-03T13:55:46.000Z</time>
      </trkpt>
      <trkpt lat="42.91949" lon="0.57863">
        <ele>1208</ele>
        <time>2019-02-03T13:55:47.000Z</time>
      </trkpt>
      <trkpt lat="42.9195" lon="0.57863">
        <ele>1208</ele>
        <time>2019-02-03T13:55:48.000Z</time>
      </trkpt>
      <trkpt lat="42.9195" lon="0.57863">
        <ele>1208</ele>
        <time>2019-02-03T13:55:49.000Z</time>
      </trkpt>
      <trkpt lat="42.91951" lon="0.57863">
        <ele>1208</ele>
        <time>2019-02-03T13:55:50.000Z</time>
      </trkpt>
      <trkpt lat="42.91951" lon="0.57862">
        <ele>1208</ele>
        <time>2019-02-03T13:55:51.000Z</time>
      </trkpt>
      <trkpt lat="42.91952" lon="0.57862">
        <ele>1208</ele>
        <time>2019-02-03T13:55:52.000Z</time>
      </trkpt>
      <trkpt lat="42.91952" lon="0.57861">
        <ele>1208</ele>
        <time>2019-02-03T13:55:53.000Z</time>
      </trkpt>
      <trkpt lat="42.91952" lon="0.5786">
        <ele>1208</ele>
        <time>2019-02-03T13:55:54.000Z</time>
      </trkpt>
      <trkpt lat="42.91952" lon="0.5786">
        <ele>1208</ele>
        <time>2019-02-03T13:55:55.000Z</time>
      </trkpt>
      <trkpt lat="42.91951" lon="0.57859">
        <ele>1208</ele>
        <time>2019-02-03T13:55:56.000Z</time>
      </trkpt>
      <trkpt lat="42.91951" lon="0.57859">
        <ele>1208</ele>
        <time>2019-02-03T13:55:57.000Z</time>
      </trkpt>
      <trkpt lat="42.91951" lon="0.57858">
        <ele>1208</ele>
        <time>2019-02-03T13:55:58.000Z</time>
      </trkpt>
      <trkpt lat="42.91951" lon="0.57858">
        <ele>1208</ele>
        <time>2019-02-03T13:55:59.000Z</time>
      </trkpt>
      <trkpt lat="42.91951" lon="0.57858">
        <ele>1208</ele>
        <time>2019-02-03T13:56:00.000Z</time>
      </trkpt>
      <trkpt lat="42.91951" lon="0.57858">
        <ele>1208</ele>
        <time>2019-02-03T13:56:01.000Z</time>
      </trkpt>
      <trkpt lat="42.9195" lon="0.57858">
        <ele>1208</ele>
        <time>2019-02-03T13:56:02.000Z</time>
      </trkpt>
      <trkpt lat="42.9195" lon="0.57858">
        <ele>1208</ele>
        <time>2019-02-03T13:56:03.000Z</time>
      </trkpt>
      <trkpt lat="42.9195" lon="0.57858">
        <ele>1208</ele>
        <time>2019-02-03T13:56:04.000Z</time>
      </trkpt>
      <trkpt lat="42.9195" lon="0.57859">
        <ele>1208</ele>
        <time>2019-02-03T13:56:05.000Z</time>
      </trkpt>
      <trkpt lat="42.9195" lon="0.57859">
        <ele>1208</ele>
        <time>2019-02-03T13:56:06.000Z</time>
      </trkpt>
      <trkpt lat="42.9195" lon="0.57859">
        <ele>1208</ele>
        <time>2019-02-03T13:56:07.000Z</time>
      </trkpt>
      <trkpt lat="42.9195" lon="0.5786">
        <ele>1208</ele>
        <time>2019-02-03T13:56:08.000Z</time>
      </trkpt>
      <trkpt lat="42.9195" lon="0.5786">
        <ele>1208</ele>
        <time>2019-02-03T13:56:09.000Z</time>
      </trkpt>
      <trkpt lat="42.9195" lon="0.5786">
        <ele>1208</ele>
        <time>2019-02-03T13:56:10.000Z</time>
      </trkpt>
      <trkpt lat="42.9195" lon="0.5786">
        <ele>1208</ele>
        <time>2019-02-03T13:56:11.000Z</time>
      </trkpt>
      <trkpt lat="42.9195" lon="0.5786">
        <ele>1208</ele>
        <time>2019-02-03T13:56:12.000Z</time>
      </trkpt>
      <trkpt lat="42.9195" lon="0.5786">
        <ele>1208</ele>
        <time>2019-02-03T13:56:13.000Z</time>
      </trkpt>
      <trkpt lat="42.9195" lon="0.5786">
        <ele>1209</ele>
        <time>2019-02-03T13:56:14.000Z</time>
      </trkpt>
      <trkpt lat="42.9195" lon="0.5786">
        <ele>1208</ele>
        <time>2019-02-03T13:56:15.000Z</time>
      </trkpt>
      <trkpt lat="42.9195" lon="0.5786">
        <ele>1208</ele>
        <time>2019-02-03T13:56:16.000Z</time>
      </trkpt>
      <trkpt lat="42.9195" lon="0.5786">
        <ele>1208</ele>
        <time>2019-02-03T13:56:17.000Z</time>
      </trkpt>
      <trkpt lat="42.9195" lon="0.5786">
        <ele>1208</ele>
        <time>2019-02-03T13:56:18.000Z</time>
      </trkpt>
      <trkpt lat="42.9195" lon="0.5786">
        <ele>1208</ele>
        <time>2019-02-03T13:56:19.000Z</time>
      </trkpt>
      <trkpt lat="42.9195" lon="0.57861">
        <ele>1208</ele>
        <time>2019-02-03T13:56:20.000Z</time>
      </trkpt>
      <trkpt lat="42.9195" lon="0.57861">
        <ele>1208</ele>
        <time>2019-02-03T13:56:21.000Z</time>
      </trkpt>
      <trkpt lat="42.9195" lon="0.57861">
        <ele>1208</ele>
        <time>2019-02-03T13:56:22.000Z</time>
      </trkpt>
      <trkpt lat="42.9195" lon="0.57862">
        <ele>1208</ele>
        <time>2019-02-03T13:56:23.000Z</time>
      </trkpt>
      <trkpt lat="42.9195" lon="0.57862">
        <ele>1208</ele>
        <time>2019-02-03T13:56:24.000Z</time>
      </trkpt>
      <trkpt lat="42.9195" lon="0.57863">
        <ele>1208</ele>
        <time>2019-02-03T13:56:25.000Z</time>
      </trkpt>
      <trkpt lat="42.9195" lon="0.57863">
        <ele>1208</ele>
        <time>2019-02-03T13:56:26.000Z</time>
      </trkpt>
      <trkpt lat="42.9195" lon="0.57863">
        <ele>1208</ele>
        <time>2019-02-03T13:56:27.000Z</time>
      </trkpt>
      <trkpt lat="42.9195" lon="0.57863">
        <ele>1208</ele>
        <time>2019-02-03T13:56:28.000Z</time>
      </trkpt>
      <trkpt lat="42.9195" lon="0.57864">
        <ele>1208</ele>
        <time>2019-02-03T13:56:29.000Z</time>
      </trkpt>
      <trkpt lat="42.9195" lon="0.57864">
        <ele>1208</ele>
        <time>2019-02-03T13:56:30.000Z</time>
      </trkpt>
      <trkpt lat="42.9195" lon="0.57864">
        <ele>1208</ele>
        <time>2019-02-03T13:56:31.000Z</time>
      </trkpt>
      <trkpt lat="42.9195" lon="0.57864">
        <ele>1208</ele>
        <time>2019-02-03T13:56:32.000Z</time>
      </trkpt>
      <trkpt lat="42.9195" lon="0.57864">
        <ele>1208</ele>
        <time>2019-02-03T13:56:33.000Z</time>
      </trkpt>
      <trkpt lat="42.9195" lon="0.57864">
        <ele>1208</ele>
        <time>2019-02-03T13:56:34.000Z</time>
      </trkpt>
      <trkpt lat="42.9195" lon="0.57864">
        <ele>1208</ele>
        <time>2019-02-03T13:56:35.000Z</time>
      </trkpt>
      <trkpt lat="42.9195" lon="0.57864">
        <ele>1208</ele>
        <time>2019-02-03T13:56:36.000Z</time>
      </trkpt>
      <trkpt lat="42.9195" lon="0.57864">
        <ele>1208</ele>
        <time>2019-02-03T13:56:37.000Z</time>
      </trkpt>
      <trkpt lat="42.9195" lon="0.57864">
        <ele>1208</ele>
        <time>2019-02-03T13:56:38.000Z</time>
      </trkpt>
      <trkpt lat="42.9195" lon="0.57864">
        <ele>1208</ele>
        <time>2019-02-03T13:56:39.000Z</time>
      </trkpt>
      <trkpt lat="42.9195" lon="0.57864">
        <ele>1208</ele>
        <time>2019-02-03T13:56:40.000Z</time>
      </trkpt>
      <trkpt lat="42.9195" lon="0.57864">
        <ele>1208</ele>
        <time>2019-02-03T13:56:41.000Z</time>
      </trkpt>
      <trkpt lat="42.9195" lon="0.57864">
        <ele>1208</ele>
        <time>2019-02-03T13:56:42.000Z</time>
      </trkpt>
      <trkpt lat="42.9195" lon="0.57864">
        <ele>1208</ele>
        <time>2019-02-03T13:56:43.000Z</time>
      </trkpt>
      <trkpt lat="42.9195" lon="0.57864">
        <ele>1208</ele>
        <time>2019-02-03T13:56:44.000Z</time>
      </trkpt>
      <trkpt lat="42.9195" lon="0.57864">
        <ele>1208</ele>
        <time>2019-02-03T13:56:45.000Z</time>
      </trkpt>
      <trkpt lat="42.9195" lon="0.57864">
        <ele>1208</ele>
        <time>2019-02-03T13:56:46.000Z</time>
      </trkpt>
      <trkpt lat="42.9195" lon="0.57864">
        <ele>1208</ele>
        <time>2019-02-03T13:56:47.000Z</time>
      </trkpt>
      <trkpt lat="42.9195" lon="0.57864">
        <ele>1208</ele>
        <time>2019-02-03T13:56:48.000Z</time>
      </trkpt>
      <trkpt lat="42.9195" lon="0.57864">
        <ele>1208</ele>
        <time>2019-02-03T13:56:49.000Z</time>
      </trkpt>
      <trkpt lat="42.9195" lon="0.57864">
        <ele>1208</ele>
        <time>2019-02-03T13:56:50.000Z</time>
      </trkpt>
      <trkpt lat="42.9195" lon="0.57864">
        <ele>1208</ele>
        <time>2019-02-03T13:56:51.000Z</time>
      </trkpt>
      <trkpt lat="42.9195" lon="0.57864">
        <ele>1208</ele>
        <time>2019-02-03T13:56:52.000Z</time>
      </trkpt>
      <trkpt lat="42.9195" lon="0.57864">
        <ele>1208</ele>
        <time>2019-02-03T13:56:53.000Z</time>
      </trkpt>
      <trkpt lat="42.9195" lon="0.57864">
        <ele>1208</ele>
        <time>2019-02-03T13:56:54.000Z</time>
      </trkpt>
      <trkpt lat="42.9195" lon="0.57864">
        <ele>1208</ele>
        <time>2019-02-03T13:56:55.000Z</time>
      </trkpt>
      <trkpt lat="42.9195" lon="0.57864">
        <ele>1208</ele>
        <time>2019-02-03T13:56:56.000Z</time>
      </trkpt>
      <trkpt lat="42.9195" lon="0.57864">
        <ele>1208</ele>
        <time>2019-02-03T13:56:57.000Z</time>
      </trkpt>
      <trkpt lat="42.9195" lon="0.57864">
        <ele>1208</ele>
        <time>2019-02-03T13:56:58.000Z</time>
      </trkpt>
      <trkpt lat="42.9195" lon="0.57864">
        <ele>1208</ele>
        <time>2019-02-03T13:56:59.000Z</time>
      </trkpt>
      <trkpt lat="42.9195" lon="0.57864">
        <ele>1208</ele>
        <time>2019-02-03T13:57:00.000Z</time>
      </trkpt>
      <trkpt lat="42.9195" lon="0.57864">
        <ele>1208</ele>
        <time>2019-02-03T13:57:01.000Z</time>
      </trkpt>
      <trkpt lat="42.9195" lon="0.57864">
        <ele>1208</ele>
        <time>2019-02-03T13:57:02.000Z</time>
      </trkpt>
      <trkpt lat="42.9195" lon="0.57864">
        <ele>1208</ele>
        <time>2019-02-03T13:57:03.000Z</time>
      </trkpt>
      <trkpt lat="42.9195" lon="0.57864">
        <ele>1208</ele>
        <time>2019-02-03T13:57:04.000Z</time>
      </trkpt>
      <trkpt lat="42.9195" lon="0.57864">
        <ele>1208</ele>
        <time>2019-02-03T13:57:05.000Z</time>
      </trkpt>
      <trkpt lat="42.9195" lon="0.57864">
        <ele>1208</ele>
        <time>2019-02-03T13:57:06.000Z</time>
      </trkpt>
      <trkpt lat="42.9195" lon="0.57864">
        <ele>1208</ele>
        <time>2019-02-03T13:57:07.000Z</time>
      </trkpt>
      <trkpt lat="42.9195" lon="0.57864">
        <ele>1208</ele>
        <time>2019-02-03T13:57:08.000Z</time>
      </trkpt>
      <trkpt lat="42.9195" lon="0.57864">
        <ele>1208</ele>
        <time>2019-02-03T13:57:09.000Z</time>
      </trkpt>
      <trkpt lat="42.9195" lon="0.57864">
        <ele>1208</ele>
        <time>2019-02-03T13:57:10.000Z</time>
      </trkpt>
      <trkpt lat="42.9195" lon="0.57864">
        <ele>1208</ele>
        <time>2019-02-03T13:57:11.000Z</time>
      </trkpt>
      <trkpt lat="42.9195" lon="0.57864">
        <ele>1208</ele>
        <time>2019-02-03T13:57:12.000Z</time>
      </trkpt>
      <trkpt lat="42.9195" lon="0.57864">
        <ele>1208</ele>
        <time>2019-02-03T13:57:13.000Z</time>
      </trkpt>
      <trkpt lat="42.9195" lon="0.57864">
        <ele>1208</ele>
        <time>2019-02-03T13:57:14.000Z</time>
      </trkpt>
      <trkpt lat="42.9195" lon="0.57864">
        <ele>1208</ele>
        <time>2019-02-03T13:57:15.000Z</time>
      </trkpt>
      <trkpt lat="42.9195" lon="0.57864">
        <ele>1208</ele>
        <time>2019-02-03T13:57:16.000Z</time>
      </trkpt>
      <trkpt lat="42.9195" lon="0.57864">
        <ele>1208</ele>
        <time>2019-02-03T13:57:17.000Z</time>
      </trkpt>
      <trkpt lat="42.9195" lon="0.57864">
        <ele>1208</ele>
        <time>2019-02-03T13:57:18.000Z</time>
      </trkpt>
      <trkpt lat="42.9195" lon="0.57864">
        <ele>1208</ele>
        <time>2019-02-03T13:57:19.000Z</time>
      </trkpt>
      <trkpt lat="42.9195" lon="0.57864">
        <ele>1208</ele>
        <time>2019-02-03T13:57:20.000Z</time>
      </trkpt>
      <trkpt lat="42.9195" lon="0.57864">
        <ele>1208</ele>
        <time>2019-02-03T13:57:21.000Z</time>
      </trkpt>
      <trkpt lat="42.9195" lon="0.57864">
        <ele>1208</ele>
        <time>2019-02-03T13:57:22.000Z</time>
      </trkpt>
      <trkpt lat="42.9195" lon="0.57864">
        <ele>1208</ele>
        <time>2019-02-03T13:57:23.000Z</time>
      </trkpt>
      <trkpt lat="42.91949" lon="0.57863">
        <ele>1208</ele>
        <time>2019-02-03T13:57:24.000Z</time>
      </trkpt>
      <trkpt lat="42.91949" lon="0.57863">
        <ele>1208</ele>
        <time>2019-02-03T13:57:25.000Z</time>
      </trkpt>
      <trkpt lat="42.91949" lon="0.57863">
        <ele>1208</ele>
        <time>2019-02-03T13:57:26.000Z</time>
      </trkpt>
      <trkpt lat="42.91948" lon="0.57863">
        <ele>1208</ele>
        <time>2019-02-03T13:57:27.000Z</time>
      </trkpt>
      <trkpt lat="42.91948" lon="0.57863">
        <ele>1208</ele>
        <time>2019-02-03T13:57:28.000Z</time>
      </trkpt>
      <trkpt lat="42.91947" lon="0.57863">
        <ele>1208</ele>
        <time>2019-02-03T13:57:29.000Z</time>
      </trkpt>
      <trkpt lat="42.91947" lon="0.57863">
        <ele>1208</ele>
        <time>2019-02-03T13:57:30.000Z</time>
      </trkpt>
      <trkpt lat="42.91947" lon="0.57863">
        <ele>1208</ele>
        <time>2019-02-03T13:57:31.000Z</time>
      </trkpt>
      <trkpt lat="42.91947" lon="0.57864">
        <ele>1208</ele>
        <time>2019-02-03T13:57:32.000Z</time>
      </trkpt>
      <trkpt lat="42.91947" lon="0.57864">
        <ele>1208</ele>
        <time>2019-02-03T13:57:33.000Z</time>
      </trkpt>
      <trkpt lat="42.91947" lon="0.57865">
        <ele>1208</ele>
        <time>2019-02-03T13:57:34.000Z</time>
      </trkpt>
      <trkpt lat="42.91947" lon="0.57865">
        <ele>1208</ele>
        <time>2019-02-03T13:57:35.000Z</time>
      </trkpt>
      <trkpt lat="42.91948" lon="0.57865">
        <ele>1208</ele>
        <time>2019-02-03T13:57:36.000Z</time>
      </trkpt>
      <trkpt lat="42.91948" lon="0.57865">
        <ele>1208</ele>
        <time>2019-02-03T13:57:37.000Z</time>
      </trkpt>
      <trkpt lat="42.91948" lon="0.57866">
        <ele>1208</ele>
        <time>2019-02-03T13:57:38.000Z</time>
      </trkpt>
      <trkpt lat="42.91949" lon="0.57866">
        <ele>1208</ele>
        <time>2019-02-03T13:57:39.000Z</time>
      </trkpt>
      <trkpt lat="42.91949" lon="0.57866">
        <ele>1208</ele>
        <time>2019-02-03T13:57:40.000Z</time>
      </trkpt>
      <trkpt lat="42.91949" lon="0.57866">
        <ele>1208</ele>
        <time>2019-02-03T13:57:41.000Z</time>
      </trkpt>
      <trkpt lat="42.91949" lon="0.57866">
        <ele>1207</ele>
        <time>2019-02-03T13:57:42.000Z</time>
      </trkpt>
      <trkpt lat="42.91949" lon="0.57866">
        <ele>1207.3</ele>
        <time>2019-02-03T13:57:43.000Z</time>
      </trkpt>
      <trkpt lat="42.91949" lon="0.57866">
        <ele>1207.7</ele>
        <time>2019-02-03T13:57:44.000Z</time>
      </trkpt>
      <trkpt lat="42.91949" lon="0.57866">
        <ele>1208</ele>
        <time>2019-02-03T13:57:45.000Z</time>
      </trkpt>
      <trkpt lat="42.91949" lon="0.57866">
        <ele>1208</ele>
        <time>2019-02-03T13:57:46.000Z</time>
      </trkpt>
      <trkpt lat="42.91949" lon="0.57866">
        <ele>1208</ele>
        <time>2019-02-03T13:57:47.000Z</time>
      </trkpt>
      <trkpt lat="42.91949" lon="0.57865">
        <ele>1208</ele>
        <time>2019-02-03T13:57:48.000Z</time>
      </trkpt>
      <trkpt lat="42.91949" lon="0.57865">
        <ele>1208</ele>
        <time>2019-02-03T13:57:49.000Z</time>
      </trkpt>
      <trkpt lat="42.91949" lon="0.57865">
        <ele>1208</ele>
        <time>2019-02-03T13:57:50.000Z</time>
      </trkpt>
      <trkpt lat="42.91949" lon="0.57865">
        <ele>1208</ele>
        <time>2019-02-03T13:57:51.000Z</time>
      </trkpt>
      <trkpt lat="42.91949" lon="0.57866">
        <ele>1208</ele>
        <time>2019-02-03T13:57:52.000Z</time>
      </trkpt>
      <trkpt lat="42.91949" lon="0.57866">
        <ele>1208</ele>
        <time>2019-02-03T13:57:53.000Z</time>
      </trkpt>
      <trkpt lat="42.91949" lon="0.57866">
        <ele>1208</ele>
        <time>2019-02-03T13:57:54.000Z</time>
      </trkpt>
      <trkpt lat="42.91949" lon="0.57866">
        <ele>1208</ele>
        <time>2019-02-03T13:57:55.000Z</time>
      </trkpt>
      <trkpt lat="42.9195" lon="0.57866">
        <ele>1208</ele>
        <time>2019-02-03T13:57:56.000Z</time>
      </trkpt>
      <trkpt lat="42.9195" lon="0.57866">
        <ele>1208</ele>
        <time>2019-02-03T13:57:57.000Z</time>
      </trkpt>
      <trkpt lat="42.9195" lon="0.57866">
        <ele>1208</ele>
        <time>2019-02-03T13:57:58.000Z</time>
      </trkpt>
      <trkpt lat="42.9195" lon="0.57866">
        <ele>1208</ele>
        <time>2019-02-03T13:57:59.000Z</time>
      </trkpt>
      <trkpt lat="42.9195" lon="0.57866">
        <ele>1208</ele>
        <time>2019-02-03T13:58:00.000Z</time>
      </trkpt>
      <trkpt lat="42.9195" lon="0.57866">
        <ele>1208</ele>
        <time>2019-02-03T13:58:01.000Z</time>
      </trkpt>
      <trkpt lat="42.9195" lon="0.57866">
        <ele>1208</ele>
        <time>2019-02-03T13:58:02.000Z</time>
      </trkpt>
      <trkpt lat="42.9195" lon="0.57866">
        <ele>1208</ele>
        <time>2019-02-03T13:58:03.000Z</time>
      </trkpt>
      <trkpt lat="42.9195" lon="0.57866">
        <ele>1208</ele>
        <time>2019-02-03T13:58:04.000Z</time>
      </trkpt>
      <trkpt lat="42.9195" lon="0.57866">
        <ele>1208</ele>
        <time>2019-02-03T13:58:05.000Z</time>
      </trkpt>
      <trkpt lat="42.91949" lon="0.57866">
        <ele>1208</ele>
        <time>2019-02-03T13:58:06.000Z</time>
      </trkpt>
      <trkpt lat="42.91949" lon="0.57866">
        <ele>1208</ele>
        <time>2019-02-03T13:58:07.000Z</time>
      </trkpt>
      <trkpt lat="42.91949" lon="0.57866">
        <ele>1208</ele>
        <time>2019-02-03T13:58:08.000Z</time>
      </trkpt>
      <trkpt lat="42.9195" lon="0.57865">
        <ele>1208</ele>
        <time>2019-02-03T13:58:09.000Z</time>
      </trkpt>
      <trkpt lat="42.9195" lon="0.57865">
        <ele>1208</ele>
        <time>2019-02-03T13:58:10.000Z</time>
      </trkpt>
      <trkpt lat="42.91951" lon="0.57865">
        <ele>1208</ele>
        <time>2019-02-03T13:58:11.000Z</time>
      </trkpt>
      <trkpt lat="42.91951" lon="0.57864">
        <ele>1208</ele>
        <time>2019-02-03T13:58:12.000Z</time>
      </trkpt>
      <trkpt lat="42.91951" lon="0.57864">
        <ele>1208</ele>
        <time>2019-02-03T13:58:13.000Z</time>
      </trkpt>
      <trkpt lat="42.91951" lon="0.57864">
        <ele>1207.5</ele>
        <time>2019-02-03T13:58:14.000Z</time>
      </trkpt>
      <trkpt lat="42.91951" lon="0.57863">
        <ele>1207</ele>
        <time>2019-02-03T13:58:15.000Z</time>
      </trkpt>
      <trkpt lat="42.91951" lon="0.57863">
        <ele>1207</ele>
        <time>2019-02-03T13:58:16.000Z</time>
      </trkpt>
      <trkpt lat="42.91952" lon="0.57864">
        <ele>1207</ele>
        <time>2019-02-03T13:58:17.000Z</time>
      </trkpt>
      <trkpt lat="42.91953" lon="0.57864">
        <ele>1207</ele>
        <time>2019-02-03T13:58:18.000Z</time>
      </trkpt>
      <trkpt lat="42.91953" lon="0.57864">
        <ele>1207</ele>
        <time>2019-02-03T13:58:19.000Z</time>
      </trkpt>
      <trkpt lat="42.91954" lon="0.57865">
        <ele>1207</ele>
        <time>2019-02-03T13:58:20.000Z</time>
      </trkpt>
      <trkpt lat="42.91955" lon="0.57865">
        <ele>1206.7</ele>
        <time>2019-02-03T13:58:21.000Z</time>
      </trkpt>
      <trkpt lat="42.91956" lon="0.57866">
        <ele>1206.3</ele>
        <time>2019-02-03T13:58:22.000Z</time>
      </trkpt>
      <trkpt lat="42.91957" lon="0.57866">
        <ele>1206</ele>
        <time>2019-02-03T13:58:23.000Z</time>
      </trkpt>
      <trkpt lat="42.91958" lon="0.57866">
        <ele>1206</ele>
        <time>2019-02-03T13:58:24.000Z</time>
      </trkpt>
      <trkpt lat="42.91959" lon="0.57867">
        <ele>1206</ele>
        <time>2019-02-03T13:58:25.000Z</time>
      </trkpt>
      <trkpt lat="42.9196" lon="0.57867">
        <ele>1207</ele>
        <time>2019-02-03T13:58:26.000Z</time>
      </trkpt>
      <trkpt lat="42.91961" lon="0.57867">
        <ele>1207</ele>
        <time>2019-02-03T13:58:27.000Z</time>
      </trkpt>
      <trkpt lat="42.91961" lon="0.57867">
        <ele>1207</ele>
        <time>2019-02-03T13:58:28.000Z</time>
      </trkpt>
      <trkpt lat="42.91962" lon="0.57867">
        <ele>1206.7</ele>
        <time>2019-02-03T13:58:29.000Z</time>
      </trkpt>
      <trkpt lat="42.91963" lon="0.57867">
        <ele>1206.3</ele>
        <time>2019-02-03T13:58:30.000Z</time>
      </trkpt>
      <trkpt lat="42.91964" lon="0.57867">
        <ele>1206</ele>
        <time>2019-02-03T13:58:31.000Z</time>
      </trkpt>
      <trkpt lat="42.91965" lon="0.57867">
        <ele>1206</ele>
        <time>2019-02-03T13:58:32.000Z</time>
      </trkpt>
      <trkpt lat="42.91966" lon="0.57867">
        <ele>1206</ele>
        <time>2019-02-03T13:58:33.000Z</time>
      </trkpt>
      <trkpt lat="42.91967" lon="0.57867">
        <ele>1206</ele>
        <time>2019-02-03T13:58:34.000Z</time>
      </trkpt>
      <trkpt lat="42.91968" lon="0.57867">
        <ele>1206</ele>
        <time>2019-02-03T13:58:35.000Z</time>
      </trkpt>
      <trkpt lat="42.91969" lon="0.57867">
        <ele>1205.5</ele>
        <time>2019-02-03T13:58:36.000Z</time>
      </trkpt>
      <trkpt lat="42.9197" lon="0.57867">
        <ele>1205</ele>
        <time>2019-02-03T13:58:37.000Z</time>
      </trkpt>
      <trkpt lat="42.91971" lon="0.57867">
        <ele>1205</ele>
        <time>2019-02-03T13:58:38.000Z</time>
      </trkpt>
      <trkpt lat="42.91972" lon="0.57867">
        <ele>1205</ele>
        <time>2019-02-03T13:58:39.000Z</time>
      </trkpt>
      <trkpt lat="42.91973" lon="0.57866">
        <ele>1205</ele>
        <time>2019-02-03T13:58:40.000Z</time>
      </trkpt>
      <trkpt lat="42.91974" lon="0.57866">
        <ele>1204.7</ele>
        <time>2019-02-03T13:58:41.000Z</time>
      </trkpt>
      <trkpt lat="42.91975" lon="0.57865">
        <ele>1204.3</ele>
        <time>2019-02-03T13:58:42.000Z</time>
      </trkpt>
      <trkpt lat="42.91976" lon="0.57865">
        <ele>1204</ele>
        <time>2019-02-03T13:58:43.000Z</time>
      </trkpt>
      <trkpt lat="42.91977" lon="0.57865">
        <ele>1204</ele>
        <time>2019-02-03T13:58:44.000Z</time>
      </trkpt>
      <trkpt lat="42.91978" lon="0.57865">
        <ele>1204</ele>
        <time>2019-02-03T13:58:45.000Z</time>
      </trkpt>
      <trkpt lat="42.91979" lon="0.57865">
        <ele>1204</ele>
        <time>2019-02-03T13:58:46.000Z</time>
      </trkpt>
      <trkpt lat="42.9198" lon="0.57865">
        <ele>1204</ele>
        <time>2019-02-03T13:58:47.000Z</time>
      </trkpt>
      <trkpt lat="42.91981" lon="0.57865">
        <ele>1204</ele>
        <time>2019-02-03T13:58:48.000Z</time>
      </trkpt>
      <trkpt lat="42.91982" lon="0.57865">
        <ele>1204</ele>
        <time>2019-02-03T13:58:49.000Z</time>
      </trkpt>
      <trkpt lat="42.91982" lon="0.57865">
        <ele>1203.5</ele>
        <time>2019-02-03T13:58:50.000Z</time>
      </trkpt>
      <trkpt lat="42.91983" lon="0.57865">
        <ele>1203</ele>
        <time>2019-02-03T13:58:51.000Z</time>
      </trkpt>
      <trkpt lat="42.91984" lon="0.57865">
        <ele>1203</ele>
        <time>2019-02-03T13:58:52.000Z</time>
      </trkpt>
      <trkpt lat="42.91986" lon="0.57864">
        <ele>1203</ele>
        <time>2019-02-03T13:58:53.000Z</time>
      </trkpt>
      <trkpt lat="42.91987" lon="0.57864">
        <ele>1203</ele>
        <time>2019-02-03T13:58:54.000Z</time>
      </trkpt>
      <trkpt lat="42.91988" lon="0.57863">
        <ele>1203</ele>
        <time>2019-02-03T13:58:55.000Z</time>
      </trkpt>
      <trkpt lat="42.91989" lon="0.57863">
        <ele>1203</ele>
        <time>2019-02-03T13:58:56.000Z</time>
      </trkpt>
      <trkpt lat="42.9199" lon="0.57863">
        <ele>1202.7</ele>
        <time>2019-02-03T13:58:57.000Z</time>
      </trkpt>
      <trkpt lat="42.91992" lon="0.57863">
        <ele>1202.3</ele>
        <time>2019-02-03T13:58:58.000Z</time>
      </trkpt>
      <trkpt lat="42.91993" lon="0.57863">
        <ele>1202</ele>
        <time>2019-02-03T13:58:59.000Z</time>
      </trkpt>
      <trkpt lat="42.91994" lon="0.57863">
        <ele>1202</ele>
        <time>2019-02-03T13:59:00.000Z</time>
      </trkpt>
      <trkpt lat="42.91995" lon="0.57863">
        <ele>1202</ele>
        <time>2019-02-03T13:59:01.000Z</time>
      </trkpt>
      <trkpt lat="42.91995" lon="0.57863">
        <ele>1202</ele>
        <time>2019-02-03T13:59:02.000Z</time>
      </trkpt>
      <trkpt lat="42.91996" lon="0.57863">
        <ele>1202</ele>
        <time>2019-02-03T13:59:03.000Z</time>
      </trkpt>
      <trkpt lat="42.91997" lon="0.57863">
        <ele>1202</ele>
        <time>2019-02-03T13:59:04.000Z</time>
      </trkpt>
      <trkpt lat="42.91998" lon="0.57864">
        <ele>1202</ele>
        <time>2019-02-03T13:59:05.000Z</time>
      </trkpt>
      <trkpt lat="42.91999" lon="0.57864">
        <ele>1202</ele>
        <time>2019-02-03T13:59:06.000Z</time>
      </trkpt>
      <trkpt lat="42.92" lon="0.57864">
        <ele>1202</ele>
        <time>2019-02-03T13:59:07.000Z</time>
      </trkpt>
      <trkpt lat="42.92001" lon="0.57864">
        <ele>1201</ele>
        <time>2019-02-03T13:59:08.000Z</time>
      </trkpt>
      <trkpt lat="42.92002" lon="0.57864">
        <ele>1201</ele>
        <time>2019-02-03T13:59:09.000Z</time>
      </trkpt>
      <trkpt lat="42.92003" lon="0.57865">
        <ele>1201</ele>
        <time>2019-02-03T13:59:10.000Z</time>
      </trkpt>
      <trkpt lat="42.92005" lon="0.57865">
        <ele>1201</ele>
        <time>2019-02-03T13:59:11.000Z</time>
      </trkpt>
      <trkpt lat="42.92006" lon="0.57865">
        <ele>1201</ele>
        <time>2019-02-03T13:59:12.000Z</time>
      </trkpt>
      <trkpt lat="42.92007" lon="0.57866">
        <ele>1201</ele>
        <time>2019-02-03T13:59:13.000Z</time>
      </trkpt>
      <trkpt lat="42.92008" lon="0.57866">
        <ele>1201</ele>
        <time>2019-02-03T13:59:14.000Z</time>
      </trkpt>
      <trkpt lat="42.92009" lon="0.57867">
        <ele>1201</ele>
        <time>2019-02-03T13:59:15.000Z</time>
      </trkpt>
      <trkpt lat="42.9201" lon="0.57867">
        <ele>1201</ele>
        <time>2019-02-03T13:59:16.000Z</time>
      </trkpt>
      <trkpt lat="42.92011" lon="0.57868">
        <ele>1201</ele>
        <time>2019-02-03T13:59:17.000Z</time>
      </trkpt>
      <trkpt lat="42.92012" lon="0.57868">
        <ele>1201</ele>
        <time>2019-02-03T13:59:18.000Z</time>
      </trkpt>
      <trkpt lat="42.92012" lon="0.57868">
        <ele>1200.7</ele>
        <time>2019-02-03T13:59:19.000Z</time>
      </trkpt>
      <trkpt lat="42.92013" lon="0.57869">
        <ele>1200.3</ele>
        <time>2019-02-03T13:59:20.000Z</time>
      </trkpt>
      <trkpt lat="42.92014" lon="0.57869">
        <ele>1200</ele>
        <time>2019-02-03T13:59:21.000Z</time>
      </trkpt>
      <trkpt lat="42.92014" lon="0.57869">
        <ele>1200</ele>
        <time>2019-02-03T13:59:22.000Z</time>
      </trkpt>
      <trkpt lat="42.92015" lon="0.5787">
        <ele>1200</ele>
        <time>2019-02-03T13:59:23.000Z</time>
      </trkpt>
      <trkpt lat="42.92016" lon="0.5787">
        <ele>1200</ele>
        <time>2019-02-03T13:59:24.000Z</time>
      </trkpt>
      <trkpt lat="42.92016" lon="0.5787">
        <ele>1200</ele>
        <time>2019-02-03T13:59:25.000Z</time>
      </trkpt>
      <trkpt lat="42.92017" lon="0.5787">
        <ele>1200</ele>
        <time>2019-02-03T13:59:26.000Z</time>
      </trkpt>
      <trkpt lat="42.92018" lon="0.5787">
        <ele>1200</ele>
        <time>2019-02-03T13:59:27.000Z</time>
      </trkpt>
      <trkpt lat="42.92018" lon="0.5787">
        <ele>1200</ele>
        <time>2019-02-03T13:59:28.000Z</time>
      </trkpt>
      <trkpt lat="42.92019" lon="0.5787">
        <ele>1200</ele>
        <time>2019-02-03T13:59:29.000Z</time>
      </trkpt>
      <trkpt lat="42.9202" lon="0.5787">
        <ele>1199.5</ele>
        <time>2019-02-03T13:59:30.000Z</time>
      </trkpt>
      <trkpt lat="42.92021" lon="0.57869">
        <ele>1199</ele>
        <time>2019-02-03T13:59:31.000Z</time>
      </trkpt>
      <trkpt lat="42.92022" lon="0.57869">
        <ele>1199</ele>
        <time>2019-02-03T13:59:32.000Z</time>
      </trkpt>
      <trkpt lat="42.92023" lon="0.57869">
        <ele>1199</ele>
        <time>2019-02-03T13:59:33.000Z</time>
      </trkpt>
      <trkpt lat="42.92024" lon="0.57868">
        <ele>1199</ele>
        <time>2019-02-03T13:59:34.000Z</time>
      </trkpt>
      <trkpt lat="42.92026" lon="0.57868">
        <ele>1199</ele>
        <time>2019-02-03T13:59:35.000Z</time>
      </trkpt>
      <trkpt lat="42.92027" lon="0.57867">
        <ele>1198.5</ele>
        <time>2019-02-03T13:59:36.000Z</time>
      </trkpt>
      <trkpt lat="42.92028" lon="0.57867">
        <ele>1198</ele>
        <time>2019-02-03T13:59:37.000Z</time>
      </trkpt>
      <trkpt lat="42.92029" lon="0.57867">
        <ele>1198</ele>
        <time>2019-02-03T13:59:38.000Z</time>
      </trkpt>
      <trkpt lat="42.92031" lon="0.57867">
        <ele>1198</ele>
        <time>2019-02-03T13:59:39.000Z</time>
      </trkpt>
      <trkpt lat="42.92032" lon="0.57866">
        <ele>1198</ele>
        <time>2019-02-03T13:59:40.000Z</time>
      </trkpt>
      <trkpt lat="42.92033" lon="0.57866">
        <ele>1198</ele>
        <time>2019-02-03T13:59:41.000Z</time>
      </trkpt>
      <trkpt lat="42.92034" lon="0.57866">
        <ele>1197</ele>
        <time>2019-02-03T13:59:42.000Z</time>
      </trkpt>
      <trkpt lat="42.92035" lon="0.57866">
        <ele>1197</ele>
        <time>2019-02-03T13:59:43.000Z</time>
      </trkpt>
      <trkpt lat="42.92036" lon="0.57865">
        <ele>1197</ele>
        <time>2019-02-03T13:59:44.000Z</time>
      </trkpt>
      <trkpt lat="42.92037" lon="0.57865">
        <ele>1197</ele>
        <time>2019-02-03T13:59:45.000Z</time>
      </trkpt>
      <trkpt lat="42.92038" lon="0.57865">
        <ele>1197</ele>
        <time>2019-02-03T13:59:46.000Z</time>
      </trkpt>
      <trkpt lat="42.92039" lon="0.57864">
        <ele>1197</ele>
        <time>2019-02-03T13:59:47.000Z</time>
      </trkpt>
      <trkpt lat="42.92039" lon="0.57864">
        <ele>1197</ele>
        <time>2019-02-03T13:59:48.000Z</time>
      </trkpt>
      <trkpt lat="42.9204" lon="0.57864">
        <ele>1197</ele>
        <time>2019-02-03T13:59:49.000Z</time>
      </trkpt>
      <trkpt lat="42.9204" lon="0.57863">
        <ele>1197</ele>
        <time>2019-02-03T13:59:50.000Z</time>
      </trkpt>
      <trkpt lat="42.92041" lon="0.57863">
        <ele>1197</ele>
        <time>2019-02-03T13:59:51.000Z</time>
      </trkpt>
      <trkpt lat="42.92042" lon="0.57863">
        <ele>1197</ele>
        <time>2019-02-03T13:59:52.000Z</time>
      </trkpt>
      <trkpt lat="42.92042" lon="0.57863">
        <ele>1197</ele>
        <time>2019-02-03T13:59:53.000Z</time>
      </trkpt>
      <trkpt lat="42.92043" lon="0.57863">
        <ele>1196.5</ele>
        <time>2019-02-03T13:59:54.000Z</time>
      </trkpt>
      <trkpt lat="42.92044" lon="0.57863">
        <ele>1196</ele>
        <time>2019-02-03T13:59:55.000Z</time>
      </trkpt>
      <trkpt lat="42.92045" lon="0.57863">
        <ele>1196</ele>
        <time>2019-02-03T13:59:56.000Z</time>
      </trkpt>
      <trkpt lat="42.92045" lon="0.57864">
        <ele>1196</ele>
        <time>2019-02-03T13:59:57.000Z</time>
      </trkpt>
      <trkpt lat="42.92046" lon="0.57864">
        <ele>1196</ele>
        <time>2019-02-03T13:59:58.000Z</time>
      </trkpt>
      <trkpt lat="42.92047" lon="0.57864">
        <ele>1196</ele>
        <time>2019-02-03T13:59:59.000Z</time>
      </trkpt>
      <trkpt lat="42.92048" lon="0.57864">
        <ele>1196</ele>
        <time>2019-02-03T14:00:00.000Z</time>
      </trkpt>
      <trkpt lat="42.92049" lon="0.57864">
        <ele>1196</ele>
        <time>2019-02-03T14:00:01.000Z</time>
      </trkpt>
      <trkpt lat="42.9205" lon="0.57864">
        <ele>1196</ele>
        <time>2019-02-03T14:00:02.000Z</time>
      </trkpt>
      <trkpt lat="42.92051" lon="0.57864">
        <ele>1196</ele>
        <time>2019-02-03T14:00:03.000Z</time>
      </trkpt>
      <trkpt lat="42.92052" lon="0.57863">
        <ele>1196</ele>
        <time>2019-02-03T14:00:04.000Z</time>
      </trkpt>
      <trkpt lat="42.92053" lon="0.57863">
        <ele>1195.7</ele>
        <time>2019-02-03T14:00:05.000Z</time>
      </trkpt>
      <trkpt lat="42.92053" lon="0.57862">
        <ele>1195.3</ele>
        <time>2019-02-03T14:00:06.000Z</time>
      </trkpt>
      <trkpt lat="42.92054" lon="0.57862">
        <ele>1195</ele>
        <time>2019-02-03T14:00:07.000Z</time>
      </trkpt>
      <trkpt lat="42.92055" lon="0.57861">
        <ele>1195</ele>
        <time>2019-02-03T14:00:08.000Z</time>
      </trkpt>
      <trkpt lat="42.92055" lon="0.57861">
        <ele>1195</ele>
        <time>2019-02-03T14:00:09.000Z</time>
      </trkpt>
      <trkpt lat="42.92056" lon="0.5786">
        <ele>1195</ele>
        <time>2019-02-03T14:00:10.000Z</time>
      </trkpt>
      <trkpt lat="42.92057" lon="0.57859">
        <ele>1195</ele>
        <time>2019-02-03T14:00:11.000Z</time>
      </trkpt>
      <trkpt lat="42.92058" lon="0.57859">
        <ele>1194</ele>
        <time>2019-02-03T14:00:12.000Z</time>
      </trkpt>
      <trkpt lat="42.92059" lon="0.57859">
        <ele>1194</ele>
        <time>2019-02-03T14:00:13.000Z</time>
      </trkpt>
      <trkpt lat="42.9206" lon="0.57858">
        <ele>1194</ele>
        <time>2019-02-03T14:00:14.000Z</time>
      </trkpt>
      <trkpt lat="42.92061" lon="0.57858">
        <ele>1194</ele>
        <time>2019-02-03T14:00:15.000Z</time>
      </trkpt>
      <trkpt lat="42.92062" lon="0.57858">
        <ele>1194</ele>
        <time>2019-02-03T14:00:16.000Z</time>
      </trkpt>
      <trkpt lat="42.92063" lon="0.57858">
        <ele>1194</ele>
        <time>2019-02-03T14:00:17.000Z</time>
      </trkpt>
      <trkpt lat="42.92064" lon="0.57857">
        <ele>1194</ele>
        <time>2019-02-03T14:00:18.000Z</time>
      </trkpt>
      <trkpt lat="42.92065" lon="0.57857">
        <ele>1193.7</ele>
        <time>2019-02-03T14:00:19.000Z</time>
      </trkpt>
      <trkpt lat="42.92065" lon="0.57857">
        <ele>1193.3</ele>
        <time>2019-02-03T14:00:20.000Z</time>
      </trkpt>
      <trkpt lat="42.92066" lon="0.57857">
        <ele>1193</ele>
        <time>2019-02-03T14:00:21.000Z</time>
      </trkpt>
      <trkpt lat="42.92067" lon="0.57857">
        <ele>1193</ele>
        <time>2019-02-03T14:00:22.000Z</time>
      </trkpt>
      <trkpt lat="42.92068" lon="0.57857">
        <ele>1193</ele>
        <time>2019-02-03T14:00:23.000Z</time>
      </trkpt>
      <trkpt lat="42.92069" lon="0.57857">
        <ele>1193</ele>
        <time>2019-02-03T14:00:24.000Z</time>
      </trkpt>
      <trkpt lat="42.9207" lon="0.57856">
        <ele>1193</ele>
        <time>2019-02-03T14:00:25.000Z</time>
      </trkpt>
      <trkpt lat="42.92071" lon="0.57856">
        <ele>1192.5</ele>
        <time>2019-02-03T14:00:26.000Z</time>
      </trkpt>
      <trkpt lat="42.92072" lon="0.57856">
        <ele>1192</ele>
        <time>2019-02-03T14:00:27.000Z</time>
      </trkpt>
      <trkpt lat="42.92073" lon="0.57855">
        <ele>1192</ele>
        <time>2019-02-03T14:00:28.000Z</time>
      </trkpt>
      <trkpt lat="42.92074" lon="0.57854">
        <ele>1192</ele>
        <time>2019-02-03T14:00:29.000Z</time>
      </trkpt>
      <trkpt lat="42.92074" lon="0.57853">
        <ele>1192</ele>
        <time>2019-02-03T14:00:30.000Z</time>
      </trkpt>
      <trkpt lat="42.92075" lon="0.57852">
        <ele>1192</ele>
        <time>2019-02-03T14:00:31.000Z</time>
      </trkpt>
      <trkpt lat="42.92076" lon="0.5785">
        <ele>1192</ele>
        <time>2019-02-03T14:00:32.000Z</time>
      </trkpt>
      <trkpt lat="42.92077" lon="0.57849">
        <ele>1192</ele>
        <time>2019-02-03T14:00:33.000Z</time>
      </trkpt>
      <trkpt lat="42.92077" lon="0.57847">
        <ele>1191.5</ele>
        <time>2019-02-03T14:00:34.000Z</time>
      </trkpt>
      <trkpt lat="42.92078" lon="0.57846">
        <ele>1191</ele>
        <time>2019-02-03T14:00:35.000Z</time>
      </trkpt>
      <trkpt lat="42.92078" lon="0.57844">
        <ele>1191</ele>
        <time>2019-02-03T14:00:36.000Z</time>
      </trkpt>
      <trkpt lat="42.92079" lon="0.57843">
        <ele>1191</ele>
        <time>2019-02-03T14:00:37.000Z</time>
      </trkpt>
      <trkpt lat="42.92079" lon="0.57842">
        <ele>1191</ele>
        <time>2019-02-03T14:00:38.000Z</time>
      </trkpt>
      <trkpt lat="42.9208" lon="0.5784">
        <ele>1191</ele>
        <time>2019-02-03T14:00:39.000Z</time>
      </trkpt>
      <trkpt lat="42.9208" lon="0.57839">
        <ele>1190.5</ele>
        <time>2019-02-03T14:00:40.000Z</time>
      </trkpt>
      <trkpt lat="42.92081" lon="0.57837">
        <ele>1190</ele>
        <time>2019-02-03T14:00:41.000Z</time>
      </trkpt>
      <trkpt lat="42.92081" lon="0.57835">
        <ele>1190</ele>
        <time>2019-02-03T14:00:42.000Z</time>
      </trkpt>
      <trkpt lat="42.92082" lon="0.57833">
        <ele>1190</ele>
        <time>2019-02-03T14:00:43.000Z</time>
      </trkpt>
      <trkpt lat="42.92083" lon="0.57832">
        <ele>1190</ele>
        <time>2019-02-03T14:00:44.000Z</time>
      </trkpt>
      <trkpt lat="42.92083" lon="0.5783">
        <ele>1190</ele>
        <time>2019-02-03T14:00:45.000Z</time>
      </trkpt>
      <trkpt lat="42.92084" lon="0.57829">
        <ele>1190</ele>
        <time>2019-02-03T14:00:46.000Z</time>
      </trkpt>
      <trkpt lat="42.92084" lon="0.57829">
        <ele>1190</ele>
        <time>2019-02-03T14:00:47.000Z</time>
      </trkpt>
      <trkpt lat="42.92085" lon="0.57828">
        <ele>1190</ele>
        <time>2019-02-03T14:00:48.000Z</time>
      </trkpt>
      <trkpt lat="42.92085" lon="0.57827">
        <ele>1190</ele>
        <time>2019-02-03T14:00:49.000Z</time>
      </trkpt>
      <trkpt lat="42.92085" lon="0.57825">
        <ele>1190</ele>
        <time>2019-02-03T14:00:50.000Z</time>
      </trkpt>
      <trkpt lat="42.92086" lon="0.57824">
        <ele>1190</ele>
        <time>2019-02-03T14:00:51.000Z</time>
      </trkpt>
      <trkpt lat="42.92086" lon="0.57822">
        <ele>1189.5</ele>
        <time>2019-02-03T14:00:52.000Z</time>
      </trkpt>
      <trkpt lat="42.92087" lon="0.57821">
        <ele>1189</ele>
        <time>2019-02-03T14:00:53.000Z</time>
      </trkpt>
      <trkpt lat="42.92087" lon="0.5782">
        <ele>1189</ele>
        <time>2019-02-03T14:00:54.000Z</time>
      </trkpt>
      <trkpt lat="42.92088" lon="0.57818">
        <ele>1189</ele>
        <time>2019-02-03T14:00:55.000Z</time>
      </trkpt>
      <trkpt lat="42.92088" lon="0.57818">
        <ele>1189</ele>
        <time>2019-02-03T14:00:56.000Z</time>
      </trkpt>
      <trkpt lat="42.92089" lon="0.57817">
        <ele>1189</ele>
        <time>2019-02-03T14:00:57.000Z</time>
      </trkpt>
      <trkpt lat="42.9209" lon="0.57816">
        <ele>1189</ele>
        <time>2019-02-03T14:00:58.000Z</time>
      </trkpt>
      <trkpt lat="42.9209" lon="0.57816">
        <ele>1188.7</ele>
        <time>2019-02-03T14:00:59.000Z</time>
      </trkpt>
      <trkpt lat="42.92091" lon="0.57815">
        <ele>1188.3</ele>
        <time>2019-02-03T14:01:00.000Z</time>
      </trkpt>
      <trkpt lat="42.92092" lon="0.57814">
        <ele>1188</ele>
        <time>2019-02-03T14:01:01.000Z</time>
      </trkpt>
      <trkpt lat="42.92093" lon="0.57814">
        <ele>1188</ele>
        <time>2019-02-03T14:01:02.000Z</time>
      </trkpt>
      <trkpt lat="42.92093" lon="0.57813">
        <ele>1188</ele>
        <time>2019-02-03T14:01:03.000Z</time>
      </trkpt>
      <trkpt lat="42.92094" lon="0.57812">
        <ele>1188</ele>
        <time>2019-02-03T14:01:04.000Z</time>
      </trkpt>
      <trkpt lat="42.92095" lon="0.57811">
        <ele>1188</ele>
        <time>2019-02-03T14:01:05.000Z</time>
      </trkpt>
      <trkpt lat="42.92096" lon="0.57811">
        <ele>1188</ele>
        <time>2019-02-03T14:01:06.000Z</time>
      </trkpt>
      <trkpt lat="42.92097" lon="0.5781">
        <ele>1188</ele>
        <time>2019-02-03T14:01:07.000Z</time>
      </trkpt>
      <trkpt lat="42.92097" lon="0.57809">
        <ele>1187</ele>
        <time>2019-02-03T14:01:08.000Z</time>
      </trkpt>
      <trkpt lat="42.92098" lon="0.57809">
        <ele>1187</ele>
        <time>2019-02-03T14:01:09.000Z</time>
      </trkpt>
      <trkpt lat="42.92099" lon="0.57808">
        <ele>1187</ele>
        <time>2019-02-03T14:01:10.000Z</time>
      </trkpt>
      <trkpt lat="42.921" lon="0.57807">
        <ele>1187</ele>
        <time>2019-02-03T14:01:11.000Z</time>
      </trkpt>
      <trkpt lat="42.92101" lon="0.57806">
        <ele>1186.5</ele>
        <time>2019-02-03T14:01:12.000Z</time>
      </trkpt>
      <trkpt lat="42.92102" lon="0.57806">
        <ele>1186</ele>
        <time>2019-02-03T14:01:13.000Z</time>
      </trkpt>
      <trkpt lat="42.92103" lon="0.57805">
        <ele>1186</ele>
        <time>2019-02-03T14:01:14.000Z</time>
      </trkpt>
      <trkpt lat="42.92104" lon="0.57804">
        <ele>1186</ele>
        <time>2019-02-03T14:01:15.000Z</time>
      </trkpt>
      <trkpt lat="42.92104" lon="0.57804">
        <ele>1186</ele>
        <time>2019-02-03T14:01:16.000Z</time>
      </trkpt>
      <trkpt lat="42.92105" lon="0.57803">
        <ele>1186</ele>
        <time>2019-02-03T14:01:17.000Z</time>
      </trkpt>
      <trkpt lat="42.92106" lon="0.57802">
        <ele>1185.5</ele>
        <time>2019-02-03T14:01:18.000Z</time>
      </trkpt>
      <trkpt lat="42.92108" lon="0.57801">
        <ele>1185</ele>
        <time>2019-02-03T14:01:19.000Z</time>
      </trkpt>
      <trkpt lat="42.92109" lon="0.578">
        <ele>1185</ele>
        <time>2019-02-03T14:01:20.000Z</time>
      </trkpt>
      <trkpt lat="42.92111" lon="0.578">
        <ele>1185</ele>
        <time>2019-02-03T14:01:21.000Z</time>
      </trkpt>
      <trkpt lat="42.92112" lon="0.578">
        <ele>1185</ele>
        <time>2019-02-03T14:01:22.000Z</time>
      </trkpt>
      <trkpt lat="42.92113" lon="0.578">
        <ele>1185</ele>
        <time>2019-02-03T14:01:23.000Z</time>
      </trkpt>
      <trkpt lat="42.92114" lon="0.57801">
        <ele>1185</ele>
        <time>2019-02-03T14:01:24.000Z</time>
      </trkpt>
      <trkpt lat="42.92115" lon="0.57801">
        <ele>1185</ele>
        <time>2019-02-03T14:01:25.000Z</time>
      </trkpt>
      <trkpt lat="42.92116" lon="0.57801">
        <ele>1184</ele>
        <time>2019-02-03T14:01:26.000Z</time>
      </trkpt>
      <trkpt lat="42.92117" lon="0.57801">
        <ele>1184</ele>
        <time>2019-02-03T14:01:27.000Z</time>
      </trkpt>
      <trkpt lat="42.92118" lon="0.57801">
        <ele>1184</ele>
        <time>2019-02-03T14:01:28.000Z</time>
      </trkpt>
      <trkpt lat="42.92119" lon="0.57801">
        <ele>1183.7</ele>
        <time>2019-02-03T14:01:29.000Z</time>
      </trkpt>
      <trkpt lat="42.9212" lon="0.57801">
        <ele>1183.3</ele>
        <time>2019-02-03T14:01:30.000Z</time>
      </trkpt>
      <trkpt lat="42.92121" lon="0.57801">
        <ele>1183</ele>
        <time>2019-02-03T14:01:31.000Z</time>
      </trkpt>
      <trkpt lat="42.92122" lon="0.57801">
        <ele>1183</ele>
        <time>2019-02-03T14:01:32.000Z</time>
      </trkpt>
      <trkpt lat="42.92123" lon="0.578">
        <ele>1183</ele>
        <time>2019-02-03T14:01:33.000Z</time>
      </trkpt>
      <trkpt lat="42.92124" lon="0.578">
        <ele>1183</ele>
        <time>2019-02-03T14:01:34.000Z</time>
      </trkpt>
      <trkpt lat="42.92125" lon="0.578">
        <ele>1183</ele>
        <time>2019-02-03T14:01:35.000Z</time>
      </trkpt>
      <trkpt lat="42.92126" lon="0.57799">
        <ele>1183</ele>
        <time>2019-02-03T14:01:36.000Z</time>
      </trkpt>
      <trkpt lat="42.92127" lon="0.57799">
        <ele>1183</ele>
        <time>2019-02-03T14:01:37.000Z</time>
      </trkpt>
      <trkpt lat="42.92128" lon="0.57798">
        <ele>1182.5</ele>
        <time>2019-02-03T14:01:38.000Z</time>
      </trkpt>
      <trkpt lat="42.92129" lon="0.57798">
        <ele>1182</ele>
        <time>2019-02-03T14:01:39.000Z</time>
      </trkpt>
      <trkpt lat="42.9213" lon="0.57797">
        <ele>1182</ele>
        <time>2019-02-03T14:01:40.000Z</time>
      </trkpt>
      <trkpt lat="42.92131" lon="0.57797">
        <ele>1182</ele>
        <time>2019-02-03T14:01:41.000Z</time>
      </trkpt>
      <trkpt lat="42.92131" lon="0.57797">
        <ele>1182</ele>
        <time>2019-02-03T14:01:42.000Z</time>
      </trkpt>
      <trkpt lat="42.92132" lon="0.57797">
        <ele>1182</ele>
        <time>2019-02-03T14:01:43.000Z</time>
      </trkpt>
      <trkpt lat="42.92133" lon="0.57796">
        <ele>1182</ele>
        <time>2019-02-03T14:01:44.000Z</time>
      </trkpt>
      <trkpt lat="42.92133" lon="0.57796">
        <ele>1182</ele>
        <time>2019-02-03T14:01:45.000Z</time>
      </trkpt>
      <trkpt lat="42.92134" lon="0.57796">
        <ele>1182</ele>
        <time>2019-02-03T14:01:46.000Z</time>
      </trkpt>
      <trkpt lat="42.92135" lon="0.57796">
        <ele>1182</ele>
        <time>2019-02-03T14:01:47.000Z</time>
      </trkpt>
      <trkpt lat="42.92136" lon="0.57796">
        <ele>1182</ele>
        <time>2019-02-03T14:01:48.000Z</time>
      </trkpt>
      <trkpt lat="42.92136" lon="0.57796">
        <ele>1182</ele>
        <time>2019-02-03T14:01:49.000Z</time>
      </trkpt>
      <trkpt lat="42.92137" lon="0.57796">
        <ele>1182</ele>
        <time>2019-02-03T14:01:50.000Z</time>
      </trkpt>
      <trkpt lat="42.92138" lon="0.57796">
        <ele>1182</ele>
        <time>2019-02-03T14:01:51.000Z</time>
      </trkpt>
      <trkpt lat="42.92139" lon="0.57796">
        <ele>1182</ele>
        <time>2019-02-03T14:01:52.000Z</time>
      </trkpt>
      <trkpt lat="42.9214" lon="0.57796">
        <ele>1182</ele>
        <time>2019-02-03T14:01:53.000Z</time>
      </trkpt>
      <trkpt lat="42.92141" lon="0.57796">
        <ele>1182</ele>
        <time>2019-02-03T14:01:54.000Z</time>
      </trkpt>
      <trkpt lat="42.92142" lon="0.57796">
        <ele>1182</ele>
        <time>2019-02-03T14:01:55.000Z</time>
      </trkpt>
      <trkpt lat="42.92143" lon="0.57796">
        <ele>1182</ele>
        <time>2019-02-03T14:01:56.000Z</time>
      </trkpt>
      <trkpt lat="42.92144" lon="0.57797">
        <ele>1182</ele>
        <time>2019-02-03T14:01:57.000Z</time>
      </trkpt>
      <trkpt lat="42.92145" lon="0.57797">
        <ele>1181.5</ele>
        <time>2019-02-03T14:01:58.000Z</time>
      </trkpt>
      <trkpt lat="42.92146" lon="0.57797">
        <ele>1181</ele>
        <time>2019-02-03T14:01:59.000Z</time>
      </trkpt>
      <trkpt lat="42.92147" lon="0.57797">
        <ele>1181</ele>
        <time>2019-02-03T14:02:00.000Z</time>
      </trkpt>
      <trkpt lat="42.92148" lon="0.57797">
        <ele>1181</ele>
        <time>2019-02-03T14:02:01.000Z</time>
      </trkpt>
      <trkpt lat="42.92149" lon="0.57797">
        <ele>1180</ele>
        <time>2019-02-03T14:02:02.000Z</time>
      </trkpt>
      <trkpt lat="42.9215" lon="0.57797">
        <ele>1180</ele>
        <time>2019-02-03T14:02:03.000Z</time>
      </trkpt>
      <trkpt lat="42.92151" lon="0.57797">
        <ele>1180</ele>
        <time>2019-02-03T14:02:04.000Z</time>
      </trkpt>
      <trkpt lat="42.92152" lon="0.57797">
        <ele>1180</ele>
        <time>2019-02-03T14:02:05.000Z</time>
      </trkpt>
      <trkpt lat="42.92153" lon="0.57797">
        <ele>1180</ele>
        <time>2019-02-03T14:02:06.000Z</time>
      </trkpt>
      <trkpt lat="42.92154" lon="0.57797">
        <ele>1180</ele>
        <time>2019-02-03T14:02:07.000Z</time>
      </trkpt>
      <trkpt lat="42.92155" lon="0.57797">
        <ele>1180</ele>
        <time>2019-02-03T14:02:08.000Z</time>
      </trkpt>
      <trkpt lat="42.92156" lon="0.57796">
        <ele>1180</ele>
        <time>2019-02-03T14:02:09.000Z</time>
      </trkpt>
      <trkpt lat="42.92157" lon="0.57796">
        <ele>1180</ele>
        <time>2019-02-03T14:02:10.000Z</time>
      </trkpt>
      <trkpt lat="42.92158" lon="0.57796">
        <ele>1179.7</ele>
        <time>2019-02-03T14:02:11.000Z</time>
      </trkpt>
      <trkpt lat="42.92159" lon="0.57796">
        <ele>1179.3</ele>
        <time>2019-02-03T14:02:12.000Z</time>
      </trkpt>
      <trkpt lat="42.9216" lon="0.57795">
        <ele>1179</ele>
        <time>2019-02-03T14:02:13.000Z</time>
      </trkpt>
      <trkpt lat="42.92161" lon="0.57795">
        <ele>1179</ele>
        <time>2019-02-03T14:02:14.000Z</time>
      </trkpt>
      <trkpt lat="42.92162" lon="0.57795">
        <ele>1179</ele>
        <time>2019-02-03T14:02:15.000Z</time>
      </trkpt>
      <trkpt lat="42.92163" lon="0.57795">
        <ele>1179</ele>
        <time>2019-02-03T14:02:16.000Z</time>
      </trkpt>
      <trkpt lat="42.92164" lon="0.57795">
        <ele>1179</ele>
        <time>2019-02-03T14:02:17.000Z</time>
      </trkpt>
      <trkpt lat="42.92165" lon="0.57796">
        <ele>1178</ele>
        <time>2019-02-03T14:02:18.000Z</time>
      </trkpt>
      <trkpt lat="42.92167" lon="0.57796">
        <ele>1178</ele>
        <time>2019-02-03T14:02:19.000Z</time>
      </trkpt>
      <trkpt lat="42.92168" lon="0.57796">
        <ele>1178</ele>
        <time>2019-02-03T14:02:20.000Z</time>
      </trkpt>
      <trkpt lat="42.92169" lon="0.57796">
        <ele>1178</ele>
        <time>2019-02-03T14:02:21.000Z</time>
      </trkpt>
      <trkpt lat="42.9217" lon="0.57797">
        <ele>1178</ele>
        <time>2019-02-03T14:02:22.000Z</time>
      </trkpt>
      <trkpt lat="42.92171" lon="0.57797">
        <ele>1178</ele>
        <time>2019-02-03T14:02:23.000Z</time>
      </trkpt>
      <trkpt lat="42.92172" lon="0.57797">
        <ele>1178</ele>
        <time>2019-02-03T14:02:24.000Z</time>
      </trkpt>
      <trkpt lat="42.92173" lon="0.57797">
        <ele>1178</ele>
        <time>2019-02-03T14:02:25.000Z</time>
      </trkpt>
      <trkpt lat="42.92174" lon="0.57797">
        <ele>1178</ele>
        <time>2019-02-03T14:02:26.000Z</time>
      </trkpt>
      <trkpt lat="42.92175" lon="0.57797">
        <ele>1178</ele>
        <time>2019-02-03T14:02:27.000Z</time>
      </trkpt>
      <trkpt lat="42.92176" lon="0.57797">
        <ele>1178</ele>
        <time>2019-02-03T14:02:28.000Z</time>
      </trkpt>
      <trkpt lat="42.92178" lon="0.57797">
        <ele>1178</ele>
        <time>2019-02-03T14:02:29.000Z</time>
      </trkpt>
      <trkpt lat="42.92179" lon="0.57797">
        <ele>1177.5</ele>
        <time>2019-02-03T14:02:30.000Z</time>
      </trkpt>
      <trkpt lat="42.9218" lon="0.57797">
        <ele>1177</ele>
        <time>2019-02-03T14:02:31.000Z</time>
      </trkpt>
      <trkpt lat="42.92182" lon="0.57797">
        <ele>1177</ele>
        <time>2019-02-03T14:02:32.000Z</time>
      </trkpt>
      <trkpt lat="42.92183" lon="0.57797">
        <ele>1177</ele>
        <time>2019-02-03T14:02:33.000Z</time>
      </trkpt>
      <trkpt lat="42.92184" lon="0.57797">
        <ele>1176</ele>
        <time>2019-02-03T14:02:34.000Z</time>
      </trkpt>
      <trkpt lat="42.92185" lon="0.57797">
        <ele>1176</ele>
        <time>2019-02-03T14:02:35.000Z</time>
      </trkpt>
      <trkpt lat="42.92186" lon="0.57797">
        <ele>1176</ele>
        <time>2019-02-03T14:02:36.000Z</time>
      </trkpt>
      <trkpt lat="42.92187" lon="0.57797">
        <ele>1176</ele>
        <time>2019-02-03T14:02:37.000Z</time>
      </trkpt>
      <trkpt lat="42.92187" lon="0.57797">
        <ele>1176</ele>
        <time>2019-02-03T14:02:38.000Z</time>
      </trkpt>
      <trkpt lat="42.92188" lon="0.57798">
        <ele>1176</ele>
        <time>2019-02-03T14:02:39.000Z</time>
      </trkpt>
      <trkpt lat="42.92189" lon="0.57798">
        <ele>1176</ele>
        <time>2019-02-03T14:02:40.000Z</time>
      </trkpt>
      <trkpt lat="42.9219" lon="0.57798">
        <ele>1176</ele>
        <time>2019-02-03T14:02:41.000Z</time>
      </trkpt>
      <trkpt lat="42.92191" lon="0.57798">
        <ele>1176</ele>
        <time>2019-02-03T14:02:42.000Z</time>
      </trkpt>
      <trkpt lat="42.92192" lon="0.57799">
        <ele>1176</ele>
        <time>2019-02-03T14:02:43.000Z</time>
      </trkpt>
      <trkpt lat="42.92193" lon="0.57799">
        <ele>1176</ele>
        <time>2019-02-03T14:02:44.000Z</time>
      </trkpt>
      <trkpt lat="42.92194" lon="0.57799">
        <ele>1176</ele>
        <time>2019-02-03T14:02:45.000Z</time>
      </trkpt>
      <trkpt lat="42.92194" lon="0.578">
        <ele>1175.5</ele>
        <time>2019-02-03T14:02:46.000Z</time>
      </trkpt>
      <trkpt lat="42.92195" lon="0.578">
        <ele>1175</ele>
        <time>2019-02-03T14:02:47.000Z</time>
      </trkpt>
      <trkpt lat="42.92196" lon="0.578">
        <ele>1175</ele>
        <time>2019-02-03T14:02:48.000Z</time>
      </trkpt>
      <trkpt lat="42.92196" lon="0.57801">
        <ele>1175</ele>
        <time>2019-02-03T14:02:49.000Z</time>
      </trkpt>
      <trkpt lat="42.92197" lon="0.57801">
        <ele>1175.5</ele>
        <time>2019-02-03T14:02:50.000Z</time>
      </trkpt>
      <trkpt lat="42.92197" lon="0.57801">
        <ele>1176</ele>
        <time>2019-02-03T14:02:51.000Z</time>
      </trkpt>
      <trkpt lat="42.92197" lon="0.57801">
        <ele>1176</ele>
        <time>2019-02-03T14:02:52.000Z</time>
      </trkpt>
      <trkpt lat="42.92197" lon="0.57801">
        <ele>1176</ele>
        <time>2019-02-03T14:02:53.000Z</time>
      </trkpt>
      <trkpt lat="42.92197" lon="0.57801">
        <ele>1176</ele>
        <time>2019-02-03T14:02:54.000Z</time>
      </trkpt>
      <trkpt lat="42.92197" lon="0.578">
        <ele>1176</ele>
        <time>2019-02-03T14:02:55.000Z</time>
      </trkpt>
      <trkpt lat="42.92197" lon="0.578">
        <ele>1176</ele>
        <time>2019-02-03T14:02:56.000Z</time>
      </trkpt>
      <trkpt lat="42.92197" lon="0.578">
        <ele>1176</ele>
        <time>2019-02-03T14:02:57.000Z</time>
      </trkpt>
      <trkpt lat="42.92197" lon="0.57799">
        <ele>1176</ele>
        <time>2019-02-03T14:02:58.000Z</time>
      </trkpt>
      <trkpt lat="42.92197" lon="0.57799">
        <ele>1176</ele>
        <time>2019-02-03T14:02:59.000Z</time>
      </trkpt>
      <trkpt lat="42.92198" lon="0.57799">
        <ele>1176</ele>
        <time>2019-02-03T14:03:00.000Z</time>
      </trkpt>
      <trkpt lat="42.92198" lon="0.57799">
        <ele>1176</ele>
        <time>2019-02-03T14:03:01.000Z</time>
      </trkpt>
      <trkpt lat="42.92198" lon="0.57799">
        <ele>1176</ele>
        <time>2019-02-03T14:03:02.000Z</time>
      </trkpt>
      <trkpt lat="42.92199" lon="0.57799">
        <ele>1176</ele>
        <time>2019-02-03T14:03:03.000Z</time>
      </trkpt>
      <trkpt lat="42.92199" lon="0.578">
        <ele>1176</ele>
        <time>2019-02-03T14:03:04.000Z</time>
      </trkpt>
      <trkpt lat="42.92199" lon="0.578">
        <ele>1176</ele>
        <time>2019-02-03T14:03:05.000Z</time>
      </trkpt>
      <trkpt lat="42.92199" lon="0.578">
        <ele>1176</ele>
        <time>2019-02-03T14:03:06.000Z</time>
      </trkpt>
      <trkpt lat="42.922" lon="0.578">
        <ele>1176</ele>
        <time>2019-02-03T14:03:07.000Z</time>
      </trkpt>
      <trkpt lat="42.922" lon="0.578">
        <ele>1176</ele>
        <time>2019-02-03T14:03:08.000Z</time>
      </trkpt>
      <trkpt lat="42.922" lon="0.578">
        <ele>1176</ele>
        <time>2019-02-03T14:03:09.000Z</time>
      </trkpt>
      <trkpt lat="42.922" lon="0.578">
        <ele>1176</ele>
        <time>2019-02-03T14:03:10.000Z</time>
      </trkpt>
      <trkpt lat="42.922" lon="0.578">
        <ele>1176</ele>
        <time>2019-02-03T14:03:11.000Z</time>
      </trkpt>
      <trkpt lat="42.922" lon="0.578">
        <ele>1176</ele>
        <time>2019-02-03T14:03:12.000Z</time>
      </trkpt>
      <trkpt lat="42.922" lon="0.578">
        <ele>1176</ele>
        <time>2019-02-03T14:03:13.000Z</time>
      </trkpt>
      <trkpt lat="42.922" lon="0.578">
        <ele>1176</ele>
        <time>2019-02-03T14:03:14.000Z</time>
      </trkpt>
      <trkpt lat="42.922" lon="0.578">
        <ele>1176</ele>
        <time>2019-02-03T14:03:15.000Z</time>
      </trkpt>
      <trkpt lat="42.922" lon="0.578">
        <ele>1175</ele>
        <time>2019-02-03T14:03:16.000Z</time>
      </trkpt>
      <trkpt lat="42.922" lon="0.578">
        <ele>1175</ele>
        <time>2019-02-03T14:03:17.000Z</time>
      </trkpt>
      <trkpt lat="42.922" lon="0.578">
        <ele>1175</ele>
        <time>2019-02-03T14:03:18.000Z</time>
      </trkpt>
      <trkpt lat="42.922" lon="0.578">
        <ele>1175</ele>
        <time>2019-02-03T14:03:19.000Z</time>
      </trkpt>
      <trkpt lat="42.922" lon="0.578">
        <ele>1175</ele>
        <time>2019-02-03T14:03:20.000Z</time>
      </trkpt>
      <trkpt lat="42.922" lon="0.578">
        <ele>1175</ele>
        <time>2019-02-03T14:03:21.000Z</time>
      </trkpt>
      <trkpt lat="42.922" lon="0.578">
        <ele>1175</ele>
        <time>2019-02-03T14:03:22.000Z</time>
      </trkpt>
      <trkpt lat="42.922" lon="0.578">
        <ele>1175</ele>
        <time>2019-02-03T14:03:23.000Z</time>
      </trkpt>
      <trkpt lat="42.922" lon="0.578">
        <ele>1175</ele>
        <time>2019-02-03T14:03:24.000Z</time>
      </trkpt>
      <trkpt lat="42.922" lon="0.578">
        <ele>1175</ele>
        <time>2019-02-03T14:03:25.000Z</time>
      </trkpt>
      <trkpt lat="42.922" lon="0.578">
        <ele>1175</ele>
        <time>2019-02-03T14:03:26.000Z</time>
      </trkpt>
      <trkpt lat="42.922" lon="0.578">
        <ele>1175</ele>
        <time>2019-02-03T14:03:27.000Z</time>
      </trkpt>
      <trkpt lat="42.922" lon="0.578">
        <ele>1175</ele>
        <time>2019-02-03T14:03:28.000Z</time>
      </trkpt>
      <trkpt lat="42.922" lon="0.578">
        <ele>1175</ele>
        <time>2019-02-03T14:03:29.000Z</time>
      </trkpt>
      <trkpt lat="42.922" lon="0.578">
        <ele>1175</ele>
        <time>2019-02-03T14:03:30.000Z</time>
      </trkpt>
      <trkpt lat="42.922" lon="0.578">
        <ele>1175</ele>
        <time>2019-02-03T14:03:31.000Z</time>
      </trkpt>
      <trkpt lat="42.922" lon="0.578">
        <ele>1175</ele>
        <time>2019-02-03T14:03:32.000Z</time>
      </trkpt>
      <trkpt lat="42.922" lon="0.578">
        <ele>1175</ele>
        <time>2019-02-03T14:03:33.000Z</time>
      </trkpt>
      <trkpt lat="42.922" lon="0.578">
        <ele>1175</ele>
        <time>2019-02-03T14:03:34.000Z</time>
      </trkpt>
      <trkpt lat="42.922" lon="0.578">
        <ele>1175</ele>
        <time>2019-02-03T14:03:35.000Z</time>
      </trkpt>
      <trkpt lat="42.922" lon="0.578">
        <ele>1175</ele>
        <time>2019-02-03T14:03:36.000Z</time>
      </trkpt>
      <trkpt lat="42.922" lon="0.578">
        <ele>1175</ele>
        <time>2019-02-03T14:03:37.000Z</time>
      </trkpt>
      <trkpt lat="42.922" lon="0.578">
        <ele>1175</ele>
        <time>2019-02-03T14:03:38.000Z</time>
      </trkpt>
      <trkpt lat="42.922" lon="0.578">
        <ele>1175</ele>
        <time>2019-02-03T14:03:39.000Z</time>
      </trkpt>
      <trkpt lat="42.922" lon="0.578">
        <ele>1175</ele>
        <time>2019-02-03T14:03:40.000Z</time>
      </trkpt>
      <trkpt lat="42.922" lon="0.578">
        <ele>1175</ele>
        <time>2019-02-03T14:03:41.000Z</time>
      </trkpt>
      <trkpt lat="42.922" lon="0.578">
        <ele>1175</ele>
        <time>2019-02-03T14:03:42.000Z</time>
      </trkpt>
      <trkpt lat="42.922" lon="0.578">
        <ele>1175</ele>
        <time>2019-02-03T14:03:43.000Z</time>
      </trkpt>
      <trkpt lat="42.922" lon="0.578">
        <ele>1175</ele>
        <time>2019-02-03T14:03:44.000Z</time>
      </trkpt>
      <trkpt lat="42.922" lon="0.578">
        <ele>1175</ele>
        <time>2019-02-03T14:03:45.000Z</time>
      </trkpt>
      <trkpt lat="42.922" lon="0.578">
        <ele>1175</ele>
        <time>2019-02-03T14:03:46.000Z</time>
      </trkpt>
      <trkpt lat="42.922" lon="0.578">
        <ele>1175</ele>
        <time>2019-02-03T14:03:47.000Z</time>
      </trkpt>
      <trkpt lat="42.922" lon="0.578">
        <ele>1175</ele>
        <time>2019-02-03T14:03:48.000Z</time>
      </trkpt>
      <trkpt lat="42.922" lon="0.578">
        <ele>1175</ele>
        <time>2019-02-03T14:03:49.000Z</time>
      </trkpt>
      <trkpt lat="42.922" lon="0.578">
        <ele>1174</ele>
        <time>2019-02-03T14:03:50.000Z</time>
      </trkpt>
      <trkpt lat="42.922" lon="0.578">
        <ele>1174</ele>
        <time>2019-02-03T14:03:51.000Z</time>
      </trkpt>
      <trkpt lat="42.922" lon="0.578">
        <ele>1174</ele>
        <time>2019-02-03T14:03:52.000Z</time>
      </trkpt>
      <trkpt lat="42.922" lon="0.578">
        <ele>1174</ele>
        <time>2019-02-03T14:03:53.000Z</time>
      </trkpt>
      <trkpt lat="42.922" lon="0.578">
        <ele>1174</ele>
        <time>2019-02-03T14:03:54.000Z</time>
      </trkpt>
      <trkpt lat="42.922" lon="0.578">
        <ele>1174</ele>
        <time>2019-02-03T14:03:55.000Z</time>
      </trkpt>
      <trkpt lat="42.922" lon="0.578">
        <ele>1173</ele>
        <time>2019-02-03T14:03:56.000Z</time>
      </trkpt>
      <trkpt lat="42.922" lon="0.578">
        <ele>1173</ele>
        <time>2019-02-03T14:03:57.000Z</time>
      </trkpt>
      <trkpt lat="42.922" lon="0.578">
        <ele>1173</ele>
        <time>2019-02-03T14:03:58.000Z</time>
      </trkpt>
      <trkpt lat="42.922" lon="0.578">
        <ele>1173</ele>
        <time>2019-02-03T14:03:59.000Z</time>
      </trkpt>
      <trkpt lat="42.922" lon="0.578">
        <ele>1173</ele>
        <time>2019-02-03T14:04:00.000Z</time>
      </trkpt>
      <trkpt lat="42.922" lon="0.578">
        <ele>1173</ele>
        <time>2019-02-03T14:04:01.000Z</time>
      </trkpt>
      <trkpt lat="42.922" lon="0.578">
        <ele>1173</ele>
        <time>2019-02-03T14:04:02.000Z</time>
      </trkpt>
      <trkpt lat="42.922" lon="0.578">
        <ele>1173</ele>
        <time>2019-02-03T14:04:03.000Z</time>
      </trkpt>
      <trkpt lat="42.922" lon="0.578">
        <ele>1173</ele>
        <time>2019-02-03T14:04:04.000Z</time>
      </trkpt>
      <trkpt lat="42.922" lon="0.578">
        <ele>1173</ele>
        <time>2019-02-03T14:04:05.000Z</time>
      </trkpt>
      <trkpt lat="42.922" lon="0.578">
        <ele>1174</ele>
        <time>2019-02-03T14:04:06.000Z</time>
      </trkpt>
      <trkpt lat="42.922" lon="0.578">
        <ele>1174</ele>
        <time>2019-02-03T14:04:07.000Z</time>
      </trkpt>
      <trkpt lat="42.922" lon="0.578">
        <ele>1174</ele>
        <time>2019-02-03T14:04:08.000Z</time>
      </trkpt>
      <trkpt lat="42.922" lon="0.578">
        <ele>1174</ele>
        <time>2019-02-03T14:04:09.000Z</time>
      </trkpt>
      <trkpt lat="42.92201" lon="0.578">
        <ele>1174.5</ele>
        <time>2019-02-03T14:04:10.000Z</time>
      </trkpt>
      <trkpt lat="42.92201" lon="0.578">
        <ele>1175</ele>
        <time>2019-02-03T14:04:11.000Z</time>
      </trkpt>
      <trkpt lat="42.92201" lon="0.578">
        <ele>1175</ele>
        <time>2019-02-03T14:04:12.000Z</time>
      </trkpt>
      <trkpt lat="42.92201" lon="0.578">
        <ele>1175</ele>
        <time>2019-02-03T14:04:13.000Z</time>
      </trkpt>
      <trkpt lat="42.92202" lon="0.578">
        <ele>1175</ele>
        <time>2019-02-03T14:04:14.000Z</time>
      </trkpt>
      <trkpt lat="42.92202" lon="0.578">
        <ele>1175</ele>
        <time>2019-02-03T14:04:15.000Z</time>
      </trkpt>
      <trkpt lat="42.92202" lon="0.57801">
        <ele>1175</ele>
        <time>2019-02-03T14:04:16.000Z</time>
      </trkpt>
      <trkpt lat="42.92203" lon="0.57801">
        <ele>1175</ele>
        <time>2019-02-03T14:04:17.000Z</time>
      </trkpt>
      <trkpt lat="42.92203" lon="0.57801">
        <ele>1175</ele>
        <time>2019-02-03T14:04:18.000Z</time>
      </trkpt>
      <trkpt lat="42.92204" lon="0.57801">
        <ele>1175</ele>
        <time>2019-02-03T14:04:19.000Z</time>
      </trkpt>
      <trkpt lat="42.92205" lon="0.57802">
        <ele>1175</ele>
        <time>2019-02-03T14:04:20.000Z</time>
      </trkpt>
      <trkpt lat="42.92205" lon="0.57802">
        <ele>1175</ele>
        <time>2019-02-03T14:04:21.000Z</time>
      </trkpt>
      <trkpt lat="42.92206" lon="0.57802">
        <ele>1175</ele>
        <time>2019-02-03T14:04:22.000Z</time>
      </trkpt>
      <trkpt lat="42.92207" lon="0.57803">
        <ele>1175</ele>
        <time>2019-02-03T14:04:23.000Z</time>
      </trkpt>
      <trkpt lat="42.92208" lon="0.57803">
        <ele>1175</ele>
        <time>2019-02-03T14:04:24.000Z</time>
      </trkpt>
      <trkpt lat="42.92208" lon="0.57804">
        <ele>1174.5</ele>
        <time>2019-02-03T14:04:25.000Z</time>
      </trkpt>
      <trkpt lat="42.92209" lon="0.57805">
        <ele>1174</ele>
        <time>2019-02-03T14:04:26.000Z</time>
      </trkpt>
      <trkpt lat="42.9221" lon="0.57805">
        <ele>1174</ele>
        <time>2019-02-03T14:04:27.000Z</time>
      </trkpt>
      <trkpt lat="42.9221" lon="0.57806">
        <ele>1174</ele>
        <time>2019-02-03T14:04:28.000Z</time>
      </trkpt>
      <trkpt lat="42.92211" lon="0.57806">
        <ele>1174</ele>
        <time>2019-02-03T14:04:29.000Z</time>
      </trkpt>
      <trkpt lat="42.92212" lon="0.57807">
        <ele>1174</ele>
        <time>2019-02-03T14:04:30.000Z</time>
      </trkpt>
      <trkpt lat="42.92212" lon="0.57807">
        <ele>1174</ele>
        <time>2019-02-03T14:04:31.000Z</time>
      </trkpt>
      <trkpt lat="42.92213" lon="0.57807">
        <ele>1174</ele>
        <time>2019-02-03T14:04:32.000Z</time>
      </trkpt>
      <trkpt lat="42.92214" lon="0.57808">
        <ele>1173.7</ele>
        <time>2019-02-03T14:04:33.000Z</time>
      </trkpt>
      <trkpt lat="42.92215" lon="0.57808">
        <ele>1173.3</ele>
        <time>2019-02-03T14:04:34.000Z</time>
      </trkpt>
      <trkpt lat="42.92216" lon="0.57807">
        <ele>1173</ele>
        <time>2019-02-03T14:04:35.000Z</time>
      </trkpt>
      <trkpt lat="42.92217" lon="0.57807">
        <ele>1173</ele>
        <time>2019-02-03T14:04:36.000Z</time>
      </trkpt>
      <trkpt lat="42.92217" lon="0.57807">
        <ele>1173</ele>
        <time>2019-02-03T14:04:37.000Z</time>
      </trkpt>
      <trkpt lat="42.92218" lon="0.57807">
        <ele>1173</ele>
        <time>2019-02-03T14:04:38.000Z</time>
      </trkpt>
      <trkpt lat="42.92219" lon="0.57807">
        <ele>1173</ele>
        <time>2019-02-03T14:04:39.000Z</time>
      </trkpt>
      <trkpt lat="42.9222" lon="0.57806">
        <ele>1173</ele>
        <time>2019-02-03T14:04:40.000Z</time>
      </trkpt>
      <trkpt lat="42.92221" lon="0.57806">
        <ele>1173</ele>
        <time>2019-02-03T14:04:41.000Z</time>
      </trkpt>
      <trkpt lat="42.92222" lon="0.57806">
        <ele>1173</ele>
        <time>2019-02-03T14:04:42.000Z</time>
      </trkpt>
      <trkpt lat="42.92223" lon="0.57806">
        <ele>1173</ele>
        <time>2019-02-03T14:04:43.000Z</time>
      </trkpt>
      <trkpt lat="42.92224" lon="0.57806">
        <ele>1173</ele>
        <time>2019-02-03T14:04:44.000Z</time>
      </trkpt>
      <trkpt lat="42.92225" lon="0.57806">
        <ele>1173</ele>
        <time>2019-02-03T14:04:45.000Z</time>
      </trkpt>
      <trkpt lat="42.92226" lon="0.57806">
        <ele>1173</ele>
        <time>2019-02-03T14:04:46.000Z</time>
      </trkpt>
      <trkpt lat="42.92226" lon="0.57806">
        <ele>1173</ele>
        <time>2019-02-03T14:04:47.000Z</time>
      </trkpt>
      <trkpt lat="42.92227" lon="0.57806">
        <ele>1173</ele>
        <time>2019-02-03T14:04:48.000Z</time>
      </trkpt>
      <trkpt lat="42.92228" lon="0.57806">
        <ele>1173</ele>
        <time>2019-02-03T14:04:49.000Z</time>
      </trkpt>
      <trkpt lat="42.92229" lon="0.57806">
        <ele>1173</ele>
        <time>2019-02-03T14:04:50.000Z</time>
      </trkpt>
      <trkpt lat="42.9223" lon="0.57806">
        <ele>1173</ele>
        <time>2019-02-03T14:04:51.000Z</time>
      </trkpt>
      <trkpt lat="42.92231" lon="0.57806">
        <ele>1173</ele>
        <time>2019-02-03T14:04:52.000Z</time>
      </trkpt>
      <trkpt lat="42.92232" lon="0.57805">
        <ele>1173</ele>
        <time>2019-02-03T14:04:53.000Z</time>
      </trkpt>
      <trkpt lat="42.92233" lon="0.57805">
        <ele>1173</ele>
        <time>2019-02-03T14:04:54.000Z</time>
      </trkpt>
      <trkpt lat="42.92235" lon="0.57805">
        <ele>1173</ele>
        <time>2019-02-03T14:04:55.000Z</time>
      </trkpt>
      <trkpt lat="42.92236" lon="0.57806">
        <ele>1173</ele>
        <time>2019-02-03T14:04:56.000Z</time>
      </trkpt>
      <trkpt lat="42.92237" lon="0.57806">
        <ele>1173</ele>
        <time>2019-02-03T14:04:57.000Z</time>
      </trkpt>
      <trkpt lat="42.92238" lon="0.57807">
        <ele>1173</ele>
        <time>2019-02-03T14:04:58.000Z</time>
      </trkpt>
      <trkpt lat="42.92239" lon="0.57807">
        <ele>1173</ele>
        <time>2019-02-03T14:04:59.000Z</time>
      </trkpt>
      <trkpt lat="42.92239" lon="0.57808">
        <ele>1173</ele>
        <time>2019-02-03T14:05:00.000Z</time>
      </trkpt>
      <trkpt lat="42.9224" lon="0.57809">
        <ele>1173</ele>
        <time>2019-02-03T14:05:01.000Z</time>
      </trkpt>
      <trkpt lat="42.92241" lon="0.5781">
        <ele>1173</ele>
        <time>2019-02-03T14:05:02.000Z</time>
      </trkpt>
      <trkpt lat="42.92242" lon="0.57811">
        <ele>1173</ele>
        <time>2019-02-03T14:05:03.000Z</time>
      </trkpt>
      <trkpt lat="42.92242" lon="0.57812">
        <ele>1173</ele>
        <time>2019-02-03T14:05:04.000Z</time>
      </trkpt>
      <trkpt lat="42.92243" lon="0.57813">
        <ele>1173</ele>
        <time>2019-02-03T14:05:05.000Z</time>
      </trkpt>
      <trkpt lat="42.92243" lon="0.57813">
        <ele>1173</ele>
        <time>2019-02-03T14:05:06.000Z</time>
      </trkpt>
      <trkpt lat="42.92244" lon="0.57814">
        <ele>1173</ele>
        <time>2019-02-03T14:05:07.000Z</time>
      </trkpt>
      <trkpt lat="42.92245" lon="0.57814">
        <ele>1173</ele>
        <time>2019-02-03T14:05:08.000Z</time>
      </trkpt>
      <trkpt lat="42.92245" lon="0.57815">
        <ele>1173</ele>
        <time>2019-02-03T14:05:09.000Z</time>
      </trkpt>
      <trkpt lat="42.92246" lon="0.57815">
        <ele>1172.5</ele>
        <time>2019-02-03T14:05:10.000Z</time>
      </trkpt>
      <trkpt lat="42.92247" lon="0.57816">
        <ele>1172</ele>
        <time>2019-02-03T14:05:11.000Z</time>
      </trkpt>
      <trkpt lat="42.92248" lon="0.57816">
        <ele>1172</ele>
        <time>2019-02-03T14:05:12.000Z</time>
      </trkpt>
      <trkpt lat="42.92248" lon="0.57817">
        <ele>1172</ele>
        <time>2019-02-03T14:05:13.000Z</time>
      </trkpt>
      <trkpt lat="42.92249" lon="0.57818">
        <ele>1172</ele>
        <time>2019-02-03T14:05:14.000Z</time>
      </trkpt>
      <trkpt lat="42.9225" lon="0.57819">
        <ele>1172</ele>
        <time>2019-02-03T14:05:15.000Z</time>
      </trkpt>
      <trkpt lat="42.92251" lon="0.57819">
        <ele>1172</ele>
        <time>2019-02-03T14:05:16.000Z</time>
      </trkpt>
      <trkpt lat="42.92252" lon="0.5782">
        <ele>1172</ele>
        <time>2019-02-03T14:05:17.000Z</time>
      </trkpt>
      <trkpt lat="42.92252" lon="0.57821">
        <ele>1172</ele>
        <time>2019-02-03T14:05:18.000Z</time>
      </trkpt>
      <trkpt lat="42.92253" lon="0.57822">
        <ele>1172.3</ele>
        <time>2019-02-03T14:05:19.000Z</time>
      </trkpt>
      <trkpt lat="42.92254" lon="0.57823">
        <ele>1172.7</ele>
        <time>2019-02-03T14:05:20.000Z</time>
      </trkpt>
      <trkpt lat="42.92255" lon="0.57824">
        <ele>1173</ele>
        <time>2019-02-03T14:05:21.000Z</time>
      </trkpt>
      <trkpt lat="42.92255" lon="0.57825">
        <ele>1173</ele>
        <time>2019-02-03T14:05:22.000Z</time>
      </trkpt>
      <trkpt lat="42.92256" lon="0.57825">
        <ele>1173</ele>
        <time>2019-02-03T14:05:23.000Z</time>
      </trkpt>
      <trkpt lat="42.92257" lon="0.57826">
        <ele>1173</ele>
        <time>2019-02-03T14:05:24.000Z</time>
      </trkpt>
      <trkpt lat="42.92258" lon="0.57827">
        <ele>1173</ele>
        <time>2019-02-03T14:05:25.000Z</time>
      </trkpt>
      <trkpt lat="42.92259" lon="0.57828">
        <ele>1173</ele>
        <time>2019-02-03T14:05:26.000Z</time>
      </trkpt>
      <trkpt lat="42.92261" lon="0.57829">
        <ele>1173</ele>
        <time>2019-02-03T14:05:27.000Z</time>
      </trkpt>
      <trkpt lat="42.92262" lon="0.5783">
        <ele>1173</ele>
        <time>2019-02-03T14:05:28.000Z</time>
      </trkpt>
      <trkpt lat="42.92263" lon="0.57831">
        <ele>1173</ele>
        <time>2019-02-03T14:05:29.000Z</time>
      </trkpt>
      <trkpt lat="42.92264" lon="0.57832">
        <ele>1173</ele>
        <time>2019-02-03T14:05:30.000Z</time>
      </trkpt>
      <trkpt lat="42.92264" lon="0.57832">
        <ele>1173</ele>
        <time>2019-02-03T14:05:31.000Z</time>
      </trkpt>
      <trkpt lat="42.92265" lon="0.57833">
        <ele>1173</ele>
        <time>2019-02-03T14:05:32.000Z</time>
      </trkpt>
      <trkpt lat="42.92266" lon="0.57834">
        <ele>1173</ele>
        <time>2019-02-03T14:05:33.000Z</time>
      </trkpt>
      <trkpt lat="42.92267" lon="0.57835">
        <ele>1173</ele>
        <time>2019-02-03T14:05:34.000Z</time>
      </trkpt>
      <trkpt lat="42.92268" lon="0.57835">
        <ele>1173</ele>
        <time>2019-02-03T14:05:35.000Z</time>
      </trkpt>
      <trkpt lat="42.9227" lon="0.57836">
        <ele>1173</ele>
        <time>2019-02-03T14:05:36.000Z</time>
      </trkpt>
      <trkpt lat="42.92271" lon="0.57837">
        <ele>1173</ele>
        <time>2019-02-03T14:05:37.000Z</time>
      </trkpt>
      <trkpt lat="42.92272" lon="0.57838">
        <ele>1173</ele>
        <time>2019-02-03T14:05:38.000Z</time>
      </trkpt>
      <trkpt lat="42.92273" lon="0.57838">
        <ele>1173</ele>
        <time>2019-02-03T14:05:39.000Z</time>
      </trkpt>
      <trkpt lat="42.92274" lon="0.57839">
        <ele>1173</ele>
        <time>2019-02-03T14:05:40.000Z</time>
      </trkpt>
      <trkpt lat="42.92276" lon="0.5784">
        <ele>1173</ele>
        <time>2019-02-03T14:05:41.000Z</time>
      </trkpt>
      <trkpt lat="42.92277" lon="0.57841">
        <ele>1173</ele>
        <time>2019-02-03T14:05:42.000Z</time>
      </trkpt>
      <trkpt lat="42.92278" lon="0.57841">
        <ele>1173</ele>
        <time>2019-02-03T14:05:43.000Z</time>
      </trkpt>
      <trkpt lat="42.92279" lon="0.57842">
        <ele>1173</ele>
        <time>2019-02-03T14:05:44.000Z</time>
      </trkpt>
      <trkpt lat="42.9228" lon="0.57843">
        <ele>1173</ele>
        <time>2019-02-03T14:05:45.000Z</time>
      </trkpt>
      <trkpt lat="42.92281" lon="0.57843">
        <ele>1173</ele>
        <time>2019-02-03T14:05:46.000Z</time>
      </trkpt>
      <trkpt lat="42.92282" lon="0.57844">
        <ele>1173</ele>
        <time>2019-02-03T14:05:47.000Z</time>
      </trkpt>
      <trkpt lat="42.92283" lon="0.57844">
        <ele>1173</ele>
        <time>2019-02-03T14:05:48.000Z</time>
      </trkpt>
      <trkpt lat="42.92284" lon="0.57844">
        <ele>1173</ele>
        <time>2019-02-03T14:05:49.000Z</time>
      </trkpt>
      <trkpt lat="42.92285" lon="0.57844">
        <ele>1173</ele>
        <time>2019-02-03T14:05:50.000Z</time>
      </trkpt>
      <trkpt lat="42.92286" lon="0.57844">
        <ele>1173</ele>
        <time>2019-02-03T14:05:51.000Z</time>
      </trkpt>
      <trkpt lat="42.92287" lon="0.57845">
        <ele>1173</ele>
        <time>2019-02-03T14:05:52.000Z</time>
      </trkpt>
      <trkpt lat="42.92288" lon="0.57845">
        <ele>1173</ele>
        <time>2019-02-03T14:05:53.000Z</time>
      </trkpt>
      <trkpt lat="42.92289" lon="0.57845">
        <ele>1173</ele>
        <time>2019-02-03T14:05:54.000Z</time>
      </trkpt>
      <trkpt lat="42.9229" lon="0.57845">
        <ele>1173</ele>
        <time>2019-02-03T14:05:55.000Z</time>
      </trkpt>
      <trkpt lat="42.92291" lon="0.57846">
        <ele>1173.5</ele>
        <time>2019-02-03T14:05:56.000Z</time>
      </trkpt>
      <trkpt lat="42.92292" lon="0.57846">
        <ele>1174</ele>
        <time>2019-02-03T14:05:57.000Z</time>
      </trkpt>
      <trkpt lat="42.92293" lon="0.57846">
        <ele>1174</ele>
        <time>2019-02-03T14:05:58.000Z</time>
      </trkpt>
      <trkpt lat="42.92294" lon="0.57846">
        <ele>1174</ele>
        <time>2019-02-03T14:05:59.000Z</time>
      </trkpt>
      <trkpt lat="42.92295" lon="0.57846">
        <ele>1174</ele>
        <time>2019-02-03T14:06:00.000Z</time>
      </trkpt>
      <trkpt lat="42.92296" lon="0.57846">
        <ele>1174</ele>
        <time>2019-02-03T14:06:01.000Z</time>
      </trkpt>
      <trkpt lat="42.92297" lon="0.57846">
        <ele>1174</ele>
        <time>2019-02-03T14:06:02.000Z</time>
      </trkpt>
      <trkpt lat="42.92298" lon="0.57846">
        <ele>1174</ele>
        <time>2019-02-03T14:06:03.000Z</time>
      </trkpt>
      <trkpt lat="42.92299" lon="0.57846">
        <ele>1174</ele>
        <time>2019-02-03T14:06:04.000Z</time>
      </trkpt>
      <trkpt lat="42.923" lon="0.57847">
        <ele>1174</ele>
        <time>2019-02-03T14:06:05.000Z</time>
      </trkpt>
      <trkpt lat="42.92301" lon="0.57847">
        <ele>1174</ele>
        <time>2019-02-03T14:06:06.000Z</time>
      </trkpt>
      <trkpt lat="42.92302" lon="0.57847">
        <ele>1174</ele>
        <time>2019-02-03T14:06:07.000Z</time>
      </trkpt>
      <trkpt lat="42.92303" lon="0.57847">
        <ele>1174</ele>
        <time>2019-02-03T14:06:08.000Z</time>
      </trkpt>
      <trkpt lat="42.92304" lon="0.57848">
        <ele>1174</ele>
        <time>2019-02-03T14:06:09.000Z</time>
      </trkpt>
      <trkpt lat="42.92305" lon="0.57848">
        <ele>1174</ele>
        <time>2019-02-03T14:06:10.000Z</time>
      </trkpt>
      <trkpt lat="42.92306" lon="0.57848">
        <ele>1174</ele>
        <time>2019-02-03T14:06:11.000Z</time>
      </trkpt>
      <trkpt lat="42.92307" lon="0.57849">
        <ele>1174</ele>
        <time>2019-02-03T14:06:12.000Z</time>
      </trkpt>
      <trkpt lat="42.92308" lon="0.57849">
        <ele>1174</ele>
        <time>2019-02-03T14:06:13.000Z</time>
      </trkpt>
      <trkpt lat="42.92309" lon="0.57849">
        <ele>1174</ele>
        <time>2019-02-03T14:06:14.000Z</time>
      </trkpt>
      <trkpt lat="42.92311" lon="0.57848">
        <ele>1174</ele>
        <time>2019-02-03T14:06:15.000Z</time>
      </trkpt>
      <trkpt lat="42.92312" lon="0.57848">
        <ele>1174</ele>
        <time>2019-02-03T14:06:16.000Z</time>
      </trkpt>
      <trkpt lat="42.92313" lon="0.57848">
        <ele>1174</ele>
        <time>2019-02-03T14:06:17.000Z</time>
      </trkpt>
      <trkpt lat="42.92314" lon="0.57848">
        <ele>1174</ele>
        <time>2019-02-03T14:06:18.000Z</time>
      </trkpt>
      <trkpt lat="42.92315" lon="0.57847">
        <ele>1174</ele>
        <time>2019-02-03T14:06:19.000Z</time>
      </trkpt>
      <trkpt lat="42.92316" lon="0.57847">
        <ele>1174</ele>
        <time>2019-02-03T14:06:20.000Z</time>
      </trkpt>
      <trkpt lat="42.92317" lon="0.57847">
        <ele>1174</ele>
        <time>2019-02-03T14:06:21.000Z</time>
      </trkpt>
      <trkpt lat="42.92317" lon="0.57847">
        <ele>1174</ele>
        <time>2019-02-03T14:06:22.000Z</time>
      </trkpt>
      <trkpt lat="42.92318" lon="0.57847">
        <ele>1174</ele>
        <time>2019-02-03T14:06:23.000Z</time>
      </trkpt>
      <trkpt lat="42.92319" lon="0.57847">
        <ele>1174</ele>
        <time>2019-02-03T14:06:24.000Z</time>
      </trkpt>
      <trkpt lat="42.9232" lon="0.57847">
        <ele>1173.7</ele>
        <time>2019-02-03T14:06:25.000Z</time>
      </trkpt>
      <trkpt lat="42.92321" lon="0.57848">
        <ele>1173.3</ele>
        <time>2019-02-03T14:06:26.000Z</time>
      </trkpt>
      <trkpt lat="42.92322" lon="0.57848">
        <ele>1173</ele>
        <time>2019-02-03T14:06:27.000Z</time>
      </trkpt>
      <trkpt lat="42.92323" lon="0.57849">
        <ele>1173</ele>
        <time>2019-02-03T14:06:28.000Z</time>
      </trkpt>
      <trkpt lat="42.92323" lon="0.57849">
        <ele>1173</ele>
        <time>2019-02-03T14:06:29.000Z</time>
      </trkpt>
      <trkpt lat="42.92324" lon="0.5785">
        <ele>1173.5</ele>
        <time>2019-02-03T14:06:30.000Z</time>
      </trkpt>
      <trkpt lat="42.92325" lon="0.57851">
        <ele>1174</ele>
        <time>2019-02-03T14:06:31.000Z</time>
      </trkpt>
      <trkpt lat="42.92326" lon="0.57851">
        <ele>1174</ele>
        <time>2019-02-03T14:06:32.000Z</time>
      </trkpt>
      <trkpt lat="42.92327" lon="0.57851">
        <ele>1174</ele>
        <time>2019-02-03T14:06:33.000Z</time>
      </trkpt>
      <trkpt lat="42.92328" lon="0.57851">
        <ele>1174</ele>
        <time>2019-02-03T14:06:34.000Z</time>
      </trkpt>
      <trkpt lat="42.92329" lon="0.57852">
        <ele>1174</ele>
        <time>2019-02-03T14:06:35.000Z</time>
      </trkpt>
      <trkpt lat="42.9233" lon="0.57852">
        <ele>1174</ele>
        <time>2019-02-03T14:06:36.000Z</time>
      </trkpt>
      <trkpt lat="42.92331" lon="0.57852">
        <ele>1174</ele>
        <time>2019-02-03T14:06:37.000Z</time>
      </trkpt>
      <trkpt lat="42.92333" lon="0.57852">
        <ele>1174</ele>
        <time>2019-02-03T14:06:38.000Z</time>
      </trkpt>
      <trkpt lat="42.92334" lon="0.57852">
        <ele>1173.5</ele>
        <time>2019-02-03T14:06:39.000Z</time>
      </trkpt>
      <trkpt lat="42.92335" lon="0.57852">
        <ele>1173</ele>
        <time>2019-02-03T14:06:40.000Z</time>
      </trkpt>
      <trkpt lat="42.92336" lon="0.57852">
        <ele>1173</ele>
        <time>2019-02-03T14:06:41.000Z</time>
      </trkpt>
      <trkpt lat="42.92337" lon="0.57852">
        <ele>1173</ele>
        <time>2019-02-03T14:06:42.000Z</time>
      </trkpt>
      <trkpt lat="42.92338" lon="0.57852">
        <ele>1173</ele>
        <time>2019-02-03T14:06:43.000Z</time>
      </trkpt>
      <trkpt lat="42.92339" lon="0.57851">
        <ele>1173</ele>
        <time>2019-02-03T14:06:44.000Z</time>
      </trkpt>
      <trkpt lat="42.92341" lon="0.57851">
        <ele>1173</ele>
        <time>2019-02-03T14:06:45.000Z</time>
      </trkpt>
      <trkpt lat="42.92342" lon="0.57851">
        <ele>1173</ele>
        <time>2019-02-03T14:06:46.000Z</time>
      </trkpt>
      <trkpt lat="42.92343" lon="0.57851">
        <ele>1173</ele>
        <time>2019-02-03T14:06:47.000Z</time>
      </trkpt>
      <trkpt lat="42.92344" lon="0.57851">
        <ele>1173</ele>
        <time>2019-02-03T14:06:48.000Z</time>
      </trkpt>
      <trkpt lat="42.92345" lon="0.5785">
        <ele>1173</ele>
        <time>2019-02-03T14:06:49.000Z</time>
      </trkpt>
      <trkpt lat="42.92346" lon="0.57849">
        <ele>1173</ele>
        <time>2019-02-03T14:06:50.000Z</time>
      </trkpt>
      <trkpt lat="42.92347" lon="0.57849">
        <ele>1173</ele>
        <time>2019-02-03T14:06:51.000Z</time>
      </trkpt>
      <trkpt lat="42.92347" lon="0.57848">
        <ele>1173</ele>
        <time>2019-02-03T14:06:52.000Z</time>
      </trkpt>
      <trkpt lat="42.92348" lon="0.57847">
        <ele>1173</ele>
        <time>2019-02-03T14:06:53.000Z</time>
      </trkpt>
      <trkpt lat="42.92349" lon="0.57846">
        <ele>1173</ele>
        <time>2019-02-03T14:06:54.000Z</time>
      </trkpt>
      <trkpt lat="42.9235" lon="0.57845">
        <ele>1173</ele>
        <time>2019-02-03T14:06:55.000Z</time>
      </trkpt>
      <trkpt lat="42.92351" lon="0.57844">
        <ele>1173</ele>
        <time>2019-02-03T14:06:56.000Z</time>
      </trkpt>
      <trkpt lat="42.92352" lon="0.57843">
        <ele>1173</ele>
        <time>2019-02-03T14:06:57.000Z</time>
      </trkpt>
      <trkpt lat="42.92352" lon="0.57843">
        <ele>1173</ele>
        <time>2019-02-03T14:06:58.000Z</time>
      </trkpt>
      <trkpt lat="42.92353" lon="0.57842">
        <ele>1173</ele>
        <time>2019-02-03T14:06:59.000Z</time>
      </trkpt>
      <trkpt lat="42.92354" lon="0.57841">
        <ele>1173</ele>
        <time>2019-02-03T14:07:00.000Z</time>
      </trkpt>
      <trkpt lat="42.92355" lon="0.57841">
        <ele>1173</ele>
        <time>2019-02-03T14:07:01.000Z</time>
      </trkpt>
      <trkpt lat="42.92356" lon="0.5784">
        <ele>1173</ele>
        <time>2019-02-03T14:07:02.000Z</time>
      </trkpt>
      <trkpt lat="42.92356" lon="0.57839">
        <ele>1173</ele>
        <time>2019-02-03T14:07:03.000Z</time>
      </trkpt>
      <trkpt lat="42.92357" lon="0.57838">
        <ele>1173</ele>
        <time>2019-02-03T14:07:04.000Z</time>
      </trkpt>
      <trkpt lat="42.92358" lon="0.57838">
        <ele>1173</ele>
        <time>2019-02-03T14:07:05.000Z</time>
      </trkpt>
      <trkpt lat="42.92359" lon="0.57837">
        <ele>1173</ele>
        <time>2019-02-03T14:07:06.000Z</time>
      </trkpt>
      <trkpt lat="42.9236" lon="0.57836">
        <ele>1173</ele>
        <time>2019-02-03T14:07:07.000Z</time>
      </trkpt>
      <trkpt lat="42.92361" lon="0.57835">
        <ele>1173</ele>
        <time>2019-02-03T14:07:08.000Z</time>
      </trkpt>
      <trkpt lat="42.92362" lon="0.57834">
        <ele>1173</ele>
        <time>2019-02-03T14:07:09.000Z</time>
      </trkpt>
      <trkpt lat="42.92364" lon="0.57833">
        <ele>1173</ele>
        <time>2019-02-03T14:07:10.000Z</time>
      </trkpt>
      <trkpt lat="42.92365" lon="0.57831">
        <ele>1173</ele>
        <time>2019-02-03T14:07:11.000Z</time>
      </trkpt>
      <trkpt lat="42.92366" lon="0.5783">
        <ele>1173</ele>
        <time>2019-02-03T14:07:12.000Z</time>
      </trkpt>
      <trkpt lat="42.92368" lon="0.57829">
        <ele>1173</ele>
        <time>2019-02-03T14:07:13.000Z</time>
      </trkpt>
      <trkpt lat="42.92369" lon="0.57828">
        <ele>1173</ele>
        <time>2019-02-03T14:07:14.000Z</time>
      </trkpt>
      <trkpt lat="42.9237" lon="0.57827">
        <ele>1173</ele>
        <time>2019-02-03T14:07:15.000Z</time>
      </trkpt>
      <trkpt lat="42.92371" lon="0.57826">
        <ele>1173</ele>
        <time>2019-02-03T14:07:16.000Z</time>
      </trkpt>
      <trkpt lat="42.92372" lon="0.57825">
        <ele>1173</ele>
        <time>2019-02-03T14:07:17.000Z</time>
      </trkpt>
      <trkpt lat="42.92373" lon="0.57825">
        <ele>1173</ele>
        <time>2019-02-03T14:07:18.000Z</time>
      </trkpt>
      <trkpt lat="42.92373" lon="0.57824">
        <ele>1173</ele>
        <time>2019-02-03T14:07:19.000Z</time>
      </trkpt>
      <trkpt lat="42.92374" lon="0.57824">
        <ele>1173</ele>
        <time>2019-02-03T14:07:20.000Z</time>
      </trkpt>
      <trkpt lat="42.92375" lon="0.57823">
        <ele>1173</ele>
        <time>2019-02-03T14:07:21.000Z</time>
      </trkpt>
      <trkpt lat="42.92376" lon="0.57823">
        <ele>1173</ele>
        <time>2019-02-03T14:07:22.000Z</time>
      </trkpt>
      <trkpt lat="42.92377" lon="0.57823">
        <ele>1173</ele>
        <time>2019-02-03T14:07:23.000Z</time>
      </trkpt>
      <trkpt lat="42.92378" lon="0.57823">
        <ele>1173</ele>
        <time>2019-02-03T14:07:24.000Z</time>
      </trkpt>
      <trkpt lat="42.92379" lon="0.57823">
        <ele>1173</ele>
        <time>2019-02-03T14:07:25.000Z</time>
      </trkpt>
      <trkpt lat="42.9238" lon="0.57823">
        <ele>1173</ele>
        <time>2019-02-03T14:07:26.000Z</time>
      </trkpt>
      <trkpt lat="42.92381" lon="0.57823">
        <ele>1173</ele>
        <time>2019-02-03T14:07:27.000Z</time>
      </trkpt>
      <trkpt lat="42.92382" lon="0.57822">
        <ele>1173</ele>
        <time>2019-02-03T14:07:28.000Z</time>
      </trkpt>
      <trkpt lat="42.92384" lon="0.57822">
        <ele>1173</ele>
        <time>2019-02-03T14:07:29.000Z</time>
      </trkpt>
      <trkpt lat="42.92385" lon="0.57822">
        <ele>1173</ele>
        <time>2019-02-03T14:07:30.000Z</time>
      </trkpt>
      <trkpt lat="42.92387" lon="0.57822">
        <ele>1173</ele>
        <time>2019-02-03T14:07:31.000Z</time>
      </trkpt>
      <trkpt lat="42.92388" lon="0.57822">
        <ele>1173</ele>
        <time>2019-02-03T14:07:32.000Z</time>
      </trkpt>
      <trkpt lat="42.92389" lon="0.57822">
        <ele>1173</ele>
        <time>2019-02-03T14:07:33.000Z</time>
      </trkpt>
      <trkpt lat="42.9239" lon="0.57822">
        <ele>1173</ele>
        <time>2019-02-03T14:07:34.000Z</time>
      </trkpt>
      <trkpt lat="42.92391" lon="0.57822">
        <ele>1173</ele>
        <time>2019-02-03T14:07:35.000Z</time>
      </trkpt>
      <trkpt lat="42.92392" lon="0.57822">
        <ele>1173</ele>
        <time>2019-02-03T14:07:36.000Z</time>
      </trkpt>
      <trkpt lat="42.92392" lon="0.57823">
        <ele>1173</ele>
        <time>2019-02-03T14:07:37.000Z</time>
      </trkpt>
      <trkpt lat="42.92393" lon="0.57823">
        <ele>1173</ele>
        <time>2019-02-03T14:07:38.000Z</time>
      </trkpt>
      <trkpt lat="42.92394" lon="0.57823">
        <ele>1173</ele>
        <time>2019-02-03T14:07:39.000Z</time>
      </trkpt>
      <trkpt lat="42.92395" lon="0.57824">
        <ele>1173</ele>
        <time>2019-02-03T14:07:40.000Z</time>
      </trkpt>
      <trkpt lat="42.92396" lon="0.57824">
        <ele>1173</ele>
        <time>2019-02-03T14:07:41.000Z</time>
      </trkpt>
      <trkpt lat="42.92397" lon="0.57824">
        <ele>1173</ele>
        <time>2019-02-03T14:07:42.000Z</time>
      </trkpt>
      <trkpt lat="42.92398" lon="0.57824">
        <ele>1173</ele>
        <time>2019-02-03T14:07:43.000Z</time>
      </trkpt>
      <trkpt lat="42.92399" lon="0.57824">
        <ele>1173</ele>
        <time>2019-02-03T14:07:44.000Z</time>
      </trkpt>
      <trkpt lat="42.924" lon="0.57824">
        <ele>1173</ele>
        <time>2019-02-03T14:07:45.000Z</time>
      </trkpt>
      <trkpt lat="42.92402" lon="0.57824">
        <ele>1173</ele>
        <time>2019-02-03T14:07:46.000Z</time>
      </trkpt>
      <trkpt lat="42.92403" lon="0.57824">
        <ele>1173</ele>
        <time>2019-02-03T14:07:47.000Z</time>
      </trkpt>
      <trkpt lat="42.92404" lon="0.57825">
        <ele>1173</ele>
        <time>2019-02-03T14:07:48.000Z</time>
      </trkpt>
      <trkpt lat="42.92405" lon="0.57825">
        <ele>1173</ele>
        <time>2019-02-03T14:07:49.000Z</time>
      </trkpt>
      <trkpt lat="42.92406" lon="0.57825">
        <ele>1173</ele>
        <time>2019-02-03T14:07:50.000Z</time>
      </trkpt>
      <trkpt lat="42.92407" lon="0.57825">
        <ele>1173</ele>
        <time>2019-02-03T14:07:51.000Z</time>
      </trkpt>
      <trkpt lat="42.92408" lon="0.57825">
        <ele>1173</ele>
        <time>2019-02-03T14:07:52.000Z</time>
      </trkpt>
      <trkpt lat="42.9241" lon="0.57825">
        <ele>1173</ele>
        <time>2019-02-03T14:07:53.000Z</time>
      </trkpt>
      <trkpt lat="42.92411" lon="0.57825">
        <ele>1173</ele>
        <time>2019-02-03T14:07:54.000Z</time>
      </trkpt>
      <trkpt lat="42.92412" lon="0.57825">
        <ele>1173</ele>
        <time>2019-02-03T14:07:55.000Z</time>
      </trkpt>
      <trkpt lat="42.92413" lon="0.57825">
        <ele>1173</ele>
        <time>2019-02-03T14:07:56.000Z</time>
      </trkpt>
      <trkpt lat="42.92415" lon="0.57825">
        <ele>1173</ele>
        <time>2019-02-03T14:07:57.000Z</time>
      </trkpt>
      <trkpt lat="42.92416" lon="0.57825">
        <ele>1172</ele>
        <time>2019-02-03T14:07:58.000Z</time>
      </trkpt>
      <trkpt lat="42.92416" lon="0.57825">
        <ele>1172</ele>
        <time>2019-02-03T14:07:59.000Z</time>
      </trkpt>
      <trkpt lat="42.92417" lon="0.57825">
        <ele>1172</ele>
        <time>2019-02-03T14:08:00.000Z</time>
      </trkpt>
      <trkpt lat="42.92418" lon="0.57825">
        <ele>1172</ele>
        <time>2019-02-03T14:08:01.000Z</time>
      </trkpt>
      <trkpt lat="42.92419" lon="0.57825">
        <ele>1172</ele>
        <time>2019-02-03T14:08:02.000Z</time>
      </trkpt>
      <trkpt lat="42.9242" lon="0.57825">
        <ele>1172</ele>
        <time>2019-02-03T14:08:03.000Z</time>
      </trkpt>
      <trkpt lat="42.92421" lon="0.57825">
        <ele>1172</ele>
        <time>2019-02-03T14:08:04.000Z</time>
      </trkpt>
      <trkpt lat="42.92422" lon="0.57824">
        <ele>1172</ele>
        <time>2019-02-03T14:08:05.000Z</time>
      </trkpt>
      <trkpt lat="42.92423" lon="0.57824">
        <ele>1172</ele>
        <time>2019-02-03T14:08:06.000Z</time>
      </trkpt>
      <trkpt lat="42.92423" lon="0.57824">
        <ele>1172</ele>
        <time>2019-02-03T14:08:07.000Z</time>
      </trkpt>
      <trkpt lat="42.92424" lon="0.57824">
        <ele>1172</ele>
        <time>2019-02-03T14:08:08.000Z</time>
      </trkpt>
      <trkpt lat="42.92425" lon="0.57824">
        <ele>1172</ele>
        <time>2019-02-03T14:08:09.000Z</time>
      </trkpt>
      <trkpt lat="42.92426" lon="0.57824">
        <ele>1172</ele>
        <time>2019-02-03T14:08:10.000Z</time>
      </trkpt>
      <trkpt lat="42.92427" lon="0.57824">
        <ele>1172</ele>
        <time>2019-02-03T14:08:11.000Z</time>
      </trkpt>
      <trkpt lat="42.92427" lon="0.57824">
        <ele>1172</ele>
        <time>2019-02-03T14:08:12.000Z</time>
      </trkpt>
      <trkpt lat="42.92428" lon="0.57824">
        <ele>1172</ele>
        <time>2019-02-03T14:08:13.000Z</time>
      </trkpt>
      <trkpt lat="42.92429" lon="0.57824">
        <ele>1172</ele>
        <time>2019-02-03T14:08:14.000Z</time>
      </trkpt>
      <trkpt lat="42.9243" lon="0.57825">
        <ele>1172</ele>
        <time>2019-02-03T14:08:15.000Z</time>
      </trkpt>
      <trkpt lat="42.92431" lon="0.57825">
        <ele>1172</ele>
        <time>2019-02-03T14:08:16.000Z</time>
      </trkpt>
      <trkpt lat="42.92432" lon="0.57825">
        <ele>1172</ele>
        <time>2019-02-03T14:08:17.000Z</time>
      </trkpt>
      <trkpt lat="42.92433" lon="0.57826">
        <ele>1171</ele>
        <time>2019-02-03T14:08:18.000Z</time>
      </trkpt>
      <trkpt lat="42.92434" lon="0.57826">
        <ele>1171</ele>
        <time>2019-02-03T14:08:19.000Z</time>
      </trkpt>
      <trkpt lat="42.92435" lon="0.57827">
        <ele>1171</ele>
        <time>2019-02-03T14:08:20.000Z</time>
      </trkpt>
      <trkpt lat="42.92436" lon="0.57827">
        <ele>1171</ele>
        <time>2019-02-03T14:08:21.000Z</time>
      </trkpt>
      <trkpt lat="42.92437" lon="0.57828">
        <ele>1171</ele>
        <time>2019-02-03T14:08:22.000Z</time>
      </trkpt>
      <trkpt lat="42.92438" lon="0.57828">
        <ele>1171</ele>
        <time>2019-02-03T14:08:23.000Z</time>
      </trkpt>
      <trkpt lat="42.92439" lon="0.57829">
        <ele>1172</ele>
        <time>2019-02-03T14:08:24.000Z</time>
      </trkpt>
      <trkpt lat="42.9244" lon="0.57829">
        <ele>1172</ele>
        <time>2019-02-03T14:08:25.000Z</time>
      </trkpt>
      <trkpt lat="42.92441" lon="0.5783">
        <ele>1172</ele>
        <time>2019-02-03T14:08:26.000Z</time>
      </trkpt>
      <trkpt lat="42.92442" lon="0.5783">
        <ele>1172</ele>
        <time>2019-02-03T14:08:27.000Z</time>
      </trkpt>
      <trkpt lat="42.92443" lon="0.5783">
        <ele>1172</ele>
        <time>2019-02-03T14:08:28.000Z</time>
      </trkpt>
      <trkpt lat="42.92444" lon="0.5783">
        <ele>1172</ele>
        <time>2019-02-03T14:08:29.000Z</time>
      </trkpt>
      <trkpt lat="42.92445" lon="0.57831">
        <ele>1172</ele>
        <time>2019-02-03T14:08:30.000Z</time>
      </trkpt>
      <trkpt lat="42.92446" lon="0.57831">
        <ele>1172</ele>
        <time>2019-02-03T14:08:31.000Z</time>
      </trkpt>
      <trkpt lat="42.92447" lon="0.57832">
        <ele>1172</ele>
        <time>2019-02-03T14:08:32.000Z</time>
      </trkpt>
      <trkpt lat="42.92448" lon="0.57832">
        <ele>1172</ele>
        <time>2019-02-03T14:08:33.000Z</time>
      </trkpt>
      <trkpt lat="42.92449" lon="0.57833">
        <ele>1172</ele>
        <time>2019-02-03T14:08:34.000Z</time>
      </trkpt>
      <trkpt lat="42.9245" lon="0.57833">
        <ele>1172</ele>
        <time>2019-02-03T14:08:35.000Z</time>
      </trkpt>
      <trkpt lat="42.92451" lon="0.57834">
        <ele>1172</ele>
        <time>2019-02-03T14:08:36.000Z</time>
      </trkpt>
      <trkpt lat="42.92452" lon="0.57834">
        <ele>1172</ele>
        <time>2019-02-03T14:08:37.000Z</time>
      </trkpt>
      <trkpt lat="42.92453" lon="0.57835">
        <ele>1172</ele>
        <time>2019-02-03T14:08:38.000Z</time>
      </trkpt>
      <trkpt lat="42.92454" lon="0.57835">
        <ele>1172</ele>
        <time>2019-02-03T14:08:39.000Z</time>
      </trkpt>
      <trkpt lat="42.92455" lon="0.57835">
        <ele>1172</ele>
        <time>2019-02-03T14:08:40.000Z</time>
      </trkpt>
      <trkpt lat="42.92456" lon="0.57836">
        <ele>1172</ele>
        <time>2019-02-03T14:08:41.000Z</time>
      </trkpt>
      <trkpt lat="42.92457" lon="0.57836">
        <ele>1172.5</ele>
        <time>2019-02-03T14:08:42.000Z</time>
      </trkpt>
      <trkpt lat="42.92458" lon="0.57836">
        <ele>1173</ele>
        <time>2019-02-03T14:08:43.000Z</time>
      </trkpt>
      <trkpt lat="42.92459" lon="0.57837">
        <ele>1173</ele>
        <time>2019-02-03T14:08:44.000Z</time>
      </trkpt>
      <trkpt lat="42.92461" lon="0.57837">
        <ele>1173</ele>
        <time>2019-02-03T14:08:45.000Z</time>
      </trkpt>
      <trkpt lat="42.92462" lon="0.57838">
        <ele>1172</ele>
        <time>2019-02-03T14:08:46.000Z</time>
      </trkpt>
      <trkpt lat="42.92463" lon="0.57838">
        <ele>1172</ele>
        <time>2019-02-03T14:08:47.000Z</time>
      </trkpt>
      <trkpt lat="42.92464" lon="0.57839">
        <ele>1172</ele>
        <time>2019-02-03T14:08:48.000Z</time>
      </trkpt>
      <trkpt lat="42.92464" lon="0.57839">
        <ele>1172</ele>
        <time>2019-02-03T14:08:49.000Z</time>
      </trkpt>
      <trkpt lat="42.92465" lon="0.5784">
        <ele>1172</ele>
        <time>2019-02-03T14:08:50.000Z</time>
      </trkpt>
      <trkpt lat="42.92466" lon="0.57841">
        <ele>1172</ele>
        <time>2019-02-03T14:08:51.000Z</time>
      </trkpt>
      <trkpt lat="42.92467" lon="0.57842">
        <ele>1172</ele>
        <time>2019-02-03T14:08:52.000Z</time>
      </trkpt>
      <trkpt lat="42.92468" lon="0.57843">
        <ele>1172</ele>
        <time>2019-02-03T14:08:53.000Z</time>
      </trkpt>
      <trkpt lat="42.92469" lon="0.57844">
        <ele>1172</ele>
        <time>2019-02-03T14:08:54.000Z</time>
      </trkpt>
      <trkpt lat="42.92469" lon="0.57845">
        <ele>1172</ele>
        <time>2019-02-03T14:08:55.000Z</time>
      </trkpt>
      <trkpt lat="42.9247" lon="0.57846">
        <ele>1172</ele>
        <time>2019-02-03T14:08:56.000Z</time>
      </trkpt>
      <trkpt lat="42.92471" lon="0.57846">
        <ele>1172</ele>
        <time>2019-02-03T14:08:57.000Z</time>
      </trkpt>
      <trkpt lat="42.92472" lon="0.57847">
        <ele>1172</ele>
        <time>2019-02-03T14:08:58.000Z</time>
      </trkpt>
      <trkpt lat="42.92472" lon="0.57848">
        <ele>1172</ele>
        <time>2019-02-03T14:08:59.000Z</time>
      </trkpt>
      <trkpt lat="42.92473" lon="0.57849">
        <ele>1172</ele>
        <time>2019-02-03T14:09:00.000Z</time>
      </trkpt>
      <trkpt lat="42.92474" lon="0.57849">
        <ele>1172.3</ele>
        <time>2019-02-03T14:09:01.000Z</time>
      </trkpt>
      <trkpt lat="42.92474" lon="0.5785">
        <ele>1172.7</ele>
        <time>2019-02-03T14:09:02.000Z</time>
      </trkpt>
      <trkpt lat="42.92475" lon="0.57851">
        <ele>1173</ele>
        <time>2019-02-03T14:09:03.000Z</time>
      </trkpt>
      <trkpt lat="42.92476" lon="0.57851">
        <ele>1172.5</ele>
        <time>2019-02-03T14:09:04.000Z</time>
      </trkpt>
      <trkpt lat="42.92476" lon="0.57852">
        <ele>1172</ele>
        <time>2019-02-03T14:09:05.000Z</time>
      </trkpt>
      <trkpt lat="42.92477" lon="0.57853">
        <ele>1172.5</ele>
        <time>2019-02-03T14:09:06.000Z</time>
      </trkpt>
      <trkpt lat="42.92478" lon="0.57853">
        <ele>1173</ele>
        <time>2019-02-03T14:09:07.000Z</time>
      </trkpt>
      <trkpt lat="42.92479" lon="0.57854">
        <ele>1172.5</ele>
        <time>2019-02-03T14:09:08.000Z</time>
      </trkpt>
      <trkpt lat="42.9248" lon="0.57855">
        <ele>1172</ele>
        <time>2019-02-03T14:09:09.000Z</time>
      </trkpt>
      <trkpt lat="42.9248" lon="0.57856">
        <ele>1172</ele>
        <time>2019-02-03T14:09:10.000Z</time>
      </trkpt>
      <trkpt lat="42.92481" lon="0.57857">
        <ele>1172</ele>
        <time>2019-02-03T14:09:11.000Z</time>
      </trkpt>
      <trkpt lat="42.92482" lon="0.57858">
        <ele>1172</ele>
        <time>2019-02-03T14:09:12.000Z</time>
      </trkpt>
      <trkpt lat="42.92483" lon="0.57859">
        <ele>1172</ele>
        <time>2019-02-03T14:09:13.000Z</time>
      </trkpt>
      <trkpt lat="42.92485" lon="0.5786">
        <ele>1172</ele>
        <time>2019-02-03T14:09:14.000Z</time>
      </trkpt>
      <trkpt lat="42.92486" lon="0.57861">
        <ele>1172</ele>
        <time>2019-02-03T14:09:15.000Z</time>
      </trkpt>
      <trkpt lat="42.92487" lon="0.57862">
        <ele>1172</ele>
        <time>2019-02-03T14:09:16.000Z</time>
      </trkpt>
      <trkpt lat="42.92488" lon="0.57863">
        <ele>1172</ele>
        <time>2019-02-03T14:09:17.000Z</time>
      </trkpt>
      <trkpt lat="42.92489" lon="0.57864">
        <ele>1172</ele>
        <time>2019-02-03T14:09:18.000Z</time>
      </trkpt>
      <trkpt lat="42.9249" lon="0.57865">
        <ele>1172</ele>
        <time>2019-02-03T14:09:19.000Z</time>
      </trkpt>
      <trkpt lat="42.92491" lon="0.57866">
        <ele>1172</ele>
        <time>2019-02-03T14:09:20.000Z</time>
      </trkpt>
      <trkpt lat="42.92492" lon="0.57866">
        <ele>1172</ele>
        <time>2019-02-03T14:09:21.000Z</time>
      </trkpt>
      <trkpt lat="42.92493" lon="0.57867">
        <ele>1172</ele>
        <time>2019-02-03T14:09:22.000Z</time>
      </trkpt>
      <trkpt lat="42.92494" lon="0.57868">
        <ele>1172</ele>
        <time>2019-02-03T14:09:23.000Z</time>
      </trkpt>
      <trkpt lat="42.92495" lon="0.57869">
        <ele>1172</ele>
        <time>2019-02-03T14:09:24.000Z</time>
      </trkpt>
      <trkpt lat="42.92496" lon="0.57869">
        <ele>1172</ele>
        <time>2019-02-03T14:09:25.000Z</time>
      </trkpt>
      <trkpt lat="42.92496" lon="0.5787">
        <ele>1172</ele>
        <time>2019-02-03T14:09:26.000Z</time>
      </trkpt>
      <trkpt lat="42.92497" lon="0.57871">
        <ele>1172</ele>
        <time>2019-02-03T14:09:27.000Z</time>
      </trkpt>
      <trkpt lat="42.92498" lon="0.57872">
        <ele>1172</ele>
        <time>2019-02-03T14:09:28.000Z</time>
      </trkpt>
      <trkpt lat="42.92499" lon="0.57872">
        <ele>1172</ele>
        <time>2019-02-03T14:09:29.000Z</time>
      </trkpt>
      <trkpt lat="42.92499" lon="0.57873">
        <ele>1172</ele>
        <time>2019-02-03T14:09:30.000Z</time>
      </trkpt>
      <trkpt lat="42.925" lon="0.57874">
        <ele>1172</ele>
        <time>2019-02-03T14:09:31.000Z</time>
      </trkpt>
      <trkpt lat="42.92501" lon="0.57875">
        <ele>1172</ele>
        <time>2019-02-03T14:09:32.000Z</time>
      </trkpt>
      <trkpt lat="42.92502" lon="0.57876">
        <ele>1172</ele>
        <time>2019-02-03T14:09:33.000Z</time>
      </trkpt>
      <trkpt lat="42.92503" lon="0.57876">
        <ele>1172</ele>
        <time>2019-02-03T14:09:34.000Z</time>
      </trkpt>
      <trkpt lat="42.92504" lon="0.57877">
        <ele>1172</ele>
        <time>2019-02-03T14:09:35.000Z</time>
      </trkpt>
      <trkpt lat="42.92505" lon="0.57878">
        <ele>1172</ele>
        <time>2019-02-03T14:09:36.000Z</time>
      </trkpt>
      <trkpt lat="42.92506" lon="0.57879">
        <ele>1172</ele>
        <time>2019-02-03T14:09:37.000Z</time>
      </trkpt>
      <trkpt lat="42.92507" lon="0.5788">
        <ele>1172</ele>
        <time>2019-02-03T14:09:38.000Z</time>
      </trkpt>
      <trkpt lat="42.92508" lon="0.57881">
        <ele>1172</ele>
        <time>2019-02-03T14:09:39.000Z</time>
      </trkpt>
      <trkpt lat="42.92509" lon="0.57882">
        <ele>1172</ele>
        <time>2019-02-03T14:09:40.000Z</time>
      </trkpt>
      <trkpt lat="42.9251" lon="0.57883">
        <ele>1172</ele>
        <time>2019-02-03T14:09:41.000Z</time>
      </trkpt>
      <trkpt lat="42.92511" lon="0.57884">
        <ele>1172</ele>
        <time>2019-02-03T14:09:42.000Z</time>
      </trkpt>
      <trkpt lat="42.92512" lon="0.57885">
        <ele>1172</ele>
        <time>2019-02-03T14:09:43.000Z</time>
      </trkpt>
      <trkpt lat="42.92512" lon="0.57885">
        <ele>1172</ele>
        <time>2019-02-03T14:09:44.000Z</time>
      </trkpt>
      <trkpt lat="42.92513" lon="0.57886">
        <ele>1172</ele>
        <time>2019-02-03T14:09:45.000Z</time>
      </trkpt>
      <trkpt lat="42.92514" lon="0.57887">
        <ele>1172</ele>
        <time>2019-02-03T14:09:46.000Z</time>
      </trkpt>
      <trkpt lat="42.92514" lon="0.57888">
        <ele>1172</ele>
        <time>2019-02-03T14:09:47.000Z</time>
      </trkpt>
      <trkpt lat="42.92515" lon="0.57889">
        <ele>1172</ele>
        <time>2019-02-03T14:09:48.000Z</time>
      </trkpt>
      <trkpt lat="42.92516" lon="0.5789">
        <ele>1172</ele>
        <time>2019-02-03T14:09:49.000Z</time>
      </trkpt>
      <trkpt lat="42.92517" lon="0.57891">
        <ele>1172</ele>
        <time>2019-02-03T14:09:50.000Z</time>
      </trkpt>
      <trkpt lat="42.92518" lon="0.57891">
        <ele>1172</ele>
        <time>2019-02-03T14:09:51.000Z</time>
      </trkpt>
      <trkpt lat="42.92519" lon="0.57892">
        <ele>1172</ele>
        <time>2019-02-03T14:09:52.000Z</time>
      </trkpt>
      <trkpt lat="42.92519" lon="0.57893">
        <ele>1172</ele>
        <time>2019-02-03T14:09:53.000Z</time>
      </trkpt>
      <trkpt lat="42.9252" lon="0.57894">
        <ele>1172</ele>
        <time>2019-02-03T14:09:54.000Z</time>
      </trkpt>
      <trkpt lat="42.92521" lon="0.57895">
        <ele>1172</ele>
        <time>2019-02-03T14:09:55.000Z</time>
      </trkpt>
      <trkpt lat="42.92522" lon="0.57895">
        <ele>1172</ele>
        <time>2019-02-03T14:09:56.000Z</time>
      </trkpt>
      <trkpt lat="42.92523" lon="0.57896">
        <ele>1172</ele>
        <time>2019-02-03T14:09:57.000Z</time>
      </trkpt>
      <trkpt lat="42.92524" lon="0.57897">
        <ele>1172</ele>
        <time>2019-02-03T14:09:58.000Z</time>
      </trkpt>
      <trkpt lat="42.92525" lon="0.57898">
        <ele>1172</ele>
        <time>2019-02-03T14:09:59.000Z</time>
      </trkpt>
      <trkpt lat="42.92525" lon="0.57898">
        <ele>1172</ele>
        <time>2019-02-03T14:10:00.000Z</time>
      </trkpt>
      <trkpt lat="42.92526" lon="0.57899">
        <ele>1172</ele>
        <time>2019-02-03T14:10:01.000Z</time>
      </trkpt>
      <trkpt lat="42.92527" lon="0.579">
        <ele>1172</ele>
        <time>2019-02-03T14:10:02.000Z</time>
      </trkpt>
      <trkpt lat="42.92528" lon="0.579">
        <ele>1172</ele>
        <time>2019-02-03T14:10:03.000Z</time>
      </trkpt>
      <trkpt lat="42.92529" lon="0.57901">
        <ele>1172</ele>
        <time>2019-02-03T14:10:04.000Z</time>
      </trkpt>
      <trkpt lat="42.9253" lon="0.57902">
        <ele>1172</ele>
        <time>2019-02-03T14:10:05.000Z</time>
      </trkpt>
      <trkpt lat="42.92531" lon="0.57903">
        <ele>1172</ele>
        <time>2019-02-03T14:10:06.000Z</time>
      </trkpt>
      <trkpt lat="42.92532" lon="0.57904">
        <ele>1172</ele>
        <time>2019-02-03T14:10:07.000Z</time>
      </trkpt>
      <trkpt lat="42.92533" lon="0.57904">
        <ele>1172</ele>
        <time>2019-02-03T14:10:08.000Z</time>
      </trkpt>
      <trkpt lat="42.92534" lon="0.57905">
        <ele>1172</ele>
        <time>2019-02-03T14:10:09.000Z</time>
      </trkpt>
      <trkpt lat="42.92535" lon="0.57906">
        <ele>1172</ele>
        <time>2019-02-03T14:10:10.000Z</time>
      </trkpt>
      <trkpt lat="42.92536" lon="0.57906">
        <ele>1172</ele>
        <time>2019-02-03T14:10:11.000Z</time>
      </trkpt>
      <trkpt lat="42.92537" lon="0.57907">
        <ele>1172</ele>
        <time>2019-02-03T14:10:12.000Z</time>
      </trkpt>
      <trkpt lat="42.92538" lon="0.57908">
        <ele>1172</ele>
        <time>2019-02-03T14:10:13.000Z</time>
      </trkpt>
      <trkpt lat="42.92539" lon="0.57909">
        <ele>1172</ele>
        <time>2019-02-03T14:10:14.000Z</time>
      </trkpt>
      <trkpt lat="42.9254" lon="0.5791">
        <ele>1172</ele>
        <time>2019-02-03T14:10:15.000Z</time>
      </trkpt>
      <trkpt lat="42.92541" lon="0.57911">
        <ele>1172</ele>
        <time>2019-02-03T14:10:16.000Z</time>
      </trkpt>
      <trkpt lat="42.92541" lon="0.57912">
        <ele>1172</ele>
        <time>2019-02-03T14:10:17.000Z</time>
      </trkpt>
      <trkpt lat="42.92542" lon="0.57913">
        <ele>1172</ele>
        <time>2019-02-03T14:10:18.000Z</time>
      </trkpt>
      <trkpt lat="42.92543" lon="0.57913">
        <ele>1172</ele>
        <time>2019-02-03T14:10:19.000Z</time>
      </trkpt>
      <trkpt lat="42.92543" lon="0.57914">
        <ele>1172</ele>
        <time>2019-02-03T14:10:20.000Z</time>
      </trkpt>
      <trkpt lat="42.92544" lon="0.57915">
        <ele>1172</ele>
        <time>2019-02-03T14:10:21.000Z</time>
      </trkpt>
      <trkpt lat="42.92544" lon="0.57916">
        <ele>1172</ele>
        <time>2019-02-03T14:10:22.000Z</time>
      </trkpt>
      <trkpt lat="42.92545" lon="0.57917">
        <ele>1172</ele>
        <time>2019-02-03T14:10:23.000Z</time>
      </trkpt>
      <trkpt lat="42.92546" lon="0.57917">
        <ele>1172</ele>
        <time>2019-02-03T14:10:24.000Z</time>
      </trkpt>
      <trkpt lat="42.92547" lon="0.57918">
        <ele>1172</ele>
        <time>2019-02-03T14:10:25.000Z</time>
      </trkpt>
      <trkpt lat="42.92548" lon="0.57918">
        <ele>1172</ele>
        <time>2019-02-03T14:10:26.000Z</time>
      </trkpt>
      <trkpt lat="42.92549" lon="0.57919">
        <ele>1172</ele>
        <time>2019-02-03T14:10:27.000Z</time>
      </trkpt>
      <trkpt lat="42.9255" lon="0.57919">
        <ele>1172</ele>
        <time>2019-02-03T14:10:28.000Z</time>
      </trkpt>
      <trkpt lat="42.92551" lon="0.5792">
        <ele>1172</ele>
        <time>2019-02-03T14:10:29.000Z</time>
      </trkpt>
      <trkpt lat="42.92552" lon="0.5792">
        <ele>1172</ele>
        <time>2019-02-03T14:10:30.000Z</time>
      </trkpt>
      <trkpt lat="42.92553" lon="0.57921">
        <ele>1172</ele>
        <time>2019-02-03T14:10:31.000Z</time>
      </trkpt>
      <trkpt lat="42.92554" lon="0.57922">
        <ele>1172</ele>
        <time>2019-02-03T14:10:32.000Z</time>
      </trkpt>
      <trkpt lat="42.92555" lon="0.57923">
        <ele>1172</ele>
        <time>2019-02-03T14:10:33.000Z</time>
      </trkpt>
      <trkpt lat="42.92556" lon="0.57923">
        <ele>1172</ele>
        <time>2019-02-03T14:10:34.000Z</time>
      </trkpt>
      <trkpt lat="42.92556" lon="0.57924">
        <ele>1172</ele>
        <time>2019-02-03T14:10:35.000Z</time>
      </trkpt>
      <trkpt lat="42.92557" lon="0.57925">
        <ele>1172</ele>
        <time>2019-02-03T14:10:36.000Z</time>
      </trkpt>
      <trkpt lat="42.92558" lon="0.57926">
        <ele>1172</ele>
        <time>2019-02-03T14:10:37.000Z</time>
      </trkpt>
      <trkpt lat="42.92558" lon="0.57927">
        <ele>1172</ele>
        <time>2019-02-03T14:10:38.000Z</time>
      </trkpt>
      <trkpt lat="42.92559" lon="0.57928">
        <ele>1172</ele>
        <time>2019-02-03T14:10:39.000Z</time>
      </trkpt>
      <trkpt lat="42.9256" lon="0.57929">
        <ele>1172</ele>
        <time>2019-02-03T14:10:40.000Z</time>
      </trkpt>
      <trkpt lat="42.92561" lon="0.57929">
        <ele>1172</ele>
        <time>2019-02-03T14:10:41.000Z</time>
      </trkpt>
      <trkpt lat="42.92561" lon="0.5793">
        <ele>1172</ele>
        <time>2019-02-03T14:10:42.000Z</time>
      </trkpt>
      <trkpt lat="42.92562" lon="0.57931">
        <ele>1172</ele>
        <time>2019-02-03T14:10:43.000Z</time>
      </trkpt>
      <trkpt lat="42.92563" lon="0.57932">
        <ele>1172</ele>
        <time>2019-02-03T14:10:44.000Z</time>
      </trkpt>
      <trkpt lat="42.92563" lon="0.57932">
        <ele>1172</ele>
        <time>2019-02-03T14:10:45.000Z</time>
      </trkpt>
      <trkpt lat="42.92564" lon="0.57933">
        <ele>1172</ele>
        <time>2019-02-03T14:10:46.000Z</time>
      </trkpt>
      <trkpt lat="42.92565" lon="0.57934">
        <ele>1172</ele>
        <time>2019-02-03T14:10:47.000Z</time>
      </trkpt>
      <trkpt lat="42.92565" lon="0.57935">
        <ele>1171.5</ele>
        <time>2019-02-03T14:10:48.000Z</time>
      </trkpt>
      <trkpt lat="42.92565" lon="0.57937">
        <ele>1171</ele>
        <time>2019-02-03T14:10:49.000Z</time>
      </trkpt>
      <trkpt lat="42.92566" lon="0.57938">
        <ele>1171.5</ele>
        <time>2019-02-03T14:10:50.000Z</time>
      </trkpt>
      <trkpt lat="42.92566" lon="0.57939">
        <ele>1172</ele>
        <time>2019-02-03T14:10:51.000Z</time>
      </trkpt>
      <trkpt lat="42.92567" lon="0.5794">
        <ele>1171</ele>
        <time>2019-02-03T14:10:52.000Z</time>
      </trkpt>
      <trkpt lat="42.92567" lon="0.57941">
        <ele>1171.3</ele>
        <time>2019-02-03T14:10:53.000Z</time>
      </trkpt>
      <trkpt lat="42.92568" lon="0.57942">
        <ele>1171.7</ele>
        <time>2019-02-03T14:10:54.000Z</time>
      </trkpt>
      <trkpt lat="42.92568" lon="0.57943">
        <ele>1172</ele>
        <time>2019-02-03T14:10:55.000Z</time>
      </trkpt>
      <trkpt lat="42.92569" lon="0.57944">
        <ele>1172</ele>
        <time>2019-02-03T14:10:56.000Z</time>
      </trkpt>
      <trkpt lat="42.9257" lon="0.57945">
        <ele>1172</ele>
        <time>2019-02-03T14:10:57.000Z</time>
      </trkpt>
      <trkpt lat="42.9257" lon="0.57946">
        <ele>1172</ele>
        <time>2019-02-03T14:10:58.000Z</time>
      </trkpt>
      <trkpt lat="42.92571" lon="0.57947">
        <ele>1172</ele>
        <time>2019-02-03T14:10:59.000Z</time>
      </trkpt>
      <trkpt lat="42.92572" lon="0.57949">
        <ele>1172</ele>
        <time>2019-02-03T14:11:00.000Z</time>
      </trkpt>
      <trkpt lat="42.92572" lon="0.5795">
        <ele>1171.7</ele>
        <time>2019-02-03T14:11:01.000Z</time>
      </trkpt>
      <trkpt lat="42.92573" lon="0.57951">
        <ele>1171.3</ele>
        <time>2019-02-03T14:11:02.000Z</time>
      </trkpt>
      <trkpt lat="42.92574" lon="0.57953">
        <ele>1171</ele>
        <time>2019-02-03T14:11:03.000Z</time>
      </trkpt>
      <trkpt lat="42.92574" lon="0.57954">
        <ele>1171</ele>
        <time>2019-02-03T14:11:04.000Z</time>
      </trkpt>
      <trkpt lat="42.92575" lon="0.57955">
        <ele>1171</ele>
        <time>2019-02-03T14:11:05.000Z</time>
      </trkpt>
      <trkpt lat="42.92576" lon="0.57956">
        <ele>1171</ele>
        <time>2019-02-03T14:11:06.000Z</time>
      </trkpt>
      <trkpt lat="42.92576" lon="0.57957">
        <ele>1171</ele>
        <time>2019-02-03T14:11:07.000Z</time>
      </trkpt>
      <trkpt lat="42.92577" lon="0.57958">
        <ele>1171</ele>
        <time>2019-02-03T14:11:08.000Z</time>
      </trkpt>
      <trkpt lat="42.92577" lon="0.57959">
        <ele>1171</ele>
        <time>2019-02-03T14:11:09.000Z</time>
      </trkpt>
      <trkpt lat="42.92578" lon="0.5796">
        <ele>1171</ele>
        <time>2019-02-03T14:11:10.000Z</time>
      </trkpt>
      <trkpt lat="42.92578" lon="0.57962">
        <ele>1171</ele>
        <time>2019-02-03T14:11:11.000Z</time>
      </trkpt>
      <trkpt lat="42.92579" lon="0.57963">
        <ele>1171</ele>
        <time>2019-02-03T14:11:12.000Z</time>
      </trkpt>
      <trkpt lat="42.92579" lon="0.57964">
        <ele>1171</ele>
        <time>2019-02-03T14:11:13.000Z</time>
      </trkpt>
      <trkpt lat="42.92579" lon="0.57965">
        <ele>1171</ele>
        <time>2019-02-03T14:11:14.000Z</time>
      </trkpt>
      <trkpt lat="42.9258" lon="0.57967">
        <ele>1171</ele>
        <time>2019-02-03T14:11:15.000Z</time>
      </trkpt>
      <trkpt lat="42.9258" lon="0.57968">
        <ele>1171</ele>
        <time>2019-02-03T14:11:16.000Z</time>
      </trkpt>
      <trkpt lat="42.92581" lon="0.5797">
        <ele>1171</ele>
        <time>2019-02-03T14:11:17.000Z</time>
      </trkpt>
      <trkpt lat="42.92582" lon="0.57971">
        <ele>1170.5</ele>
        <time>2019-02-03T14:11:18.000Z</time>
      </trkpt>
      <trkpt lat="42.92582" lon="0.57973">
        <ele>1170</ele>
        <time>2019-02-03T14:11:19.000Z</time>
      </trkpt>
      <trkpt lat="42.92583" lon="0.57974">
        <ele>1170</ele>
        <time>2019-02-03T14:11:20.000Z</time>
      </trkpt>
      <trkpt lat="42.92584" lon="0.57975">
        <ele>1170</ele>
        <time>2019-02-03T14:11:21.000Z</time>
      </trkpt>
      <trkpt lat="42.92584" lon="0.57977">
        <ele>1170</ele>
        <time>2019-02-03T14:11:22.000Z</time>
      </trkpt>
      <trkpt lat="42.92585" lon="0.57978">
        <ele>1170</ele>
        <time>2019-02-03T14:11:23.000Z</time>
      </trkpt>
      <trkpt lat="42.92585" lon="0.57979">
        <ele>1170</ele>
        <time>2019-02-03T14:11:24.000Z</time>
      </trkpt>
      <trkpt lat="42.92586" lon="0.5798">
        <ele>1170</ele>
        <time>2019-02-03T14:11:25.000Z</time>
      </trkpt>
      <trkpt lat="42.92586" lon="0.57981">
        <ele>1170</ele>
        <time>2019-02-03T14:11:26.000Z</time>
      </trkpt>
      <trkpt lat="42.92586" lon="0.57982">
        <ele>1170</ele>
        <time>2019-02-03T14:11:27.000Z</time>
      </trkpt>
      <trkpt lat="42.92587" lon="0.57983">
        <ele>1170</ele>
        <time>2019-02-03T14:11:28.000Z</time>
      </trkpt>
      <trkpt lat="42.92587" lon="0.57984">
        <ele>1170</ele>
        <time>2019-02-03T14:11:29.000Z</time>
      </trkpt>
      <trkpt lat="42.92587" lon="0.57985">
        <ele>1170</ele>
        <time>2019-02-03T14:11:30.000Z</time>
      </trkpt>
      <trkpt lat="42.92588" lon="0.57987">
        <ele>1170</ele>
        <time>2019-02-03T14:11:31.000Z</time>
      </trkpt>
      <trkpt lat="42.92588" lon="0.57988">
        <ele>1170</ele>
        <time>2019-02-03T14:11:32.000Z</time>
      </trkpt>
      <trkpt lat="42.92588" lon="0.5799">
        <ele>1170</ele>
        <time>2019-02-03T14:11:33.000Z</time>
      </trkpt>
      <trkpt lat="42.92589" lon="0.57991">
        <ele>1170</ele>
        <time>2019-02-03T14:11:34.000Z</time>
      </trkpt>
      <trkpt lat="42.92589" lon="0.57993">
        <ele>1170</ele>
        <time>2019-02-03T14:11:35.000Z</time>
      </trkpt>
      <trkpt lat="42.92589" lon="0.57994">
        <ele>1170</ele>
        <time>2019-02-03T14:11:36.000Z</time>
      </trkpt>
      <trkpt lat="42.92589" lon="0.57996">
        <ele>1170</ele>
        <time>2019-02-03T14:11:37.000Z</time>
      </trkpt>
      <trkpt lat="42.9259" lon="0.57997">
        <ele>1170</ele>
        <time>2019-02-03T14:11:38.000Z</time>
      </trkpt>
      <trkpt lat="42.9259" lon="0.57999">
        <ele>1170</ele>
        <time>2019-02-03T14:11:39.000Z</time>
      </trkpt>
      <trkpt lat="42.9259" lon="0.58">
        <ele>1170</ele>
        <time>2019-02-03T14:11:40.000Z</time>
      </trkpt>
      <trkpt lat="42.9259" lon="0.58002">
        <ele>1170</ele>
        <time>2019-02-03T14:11:41.000Z</time>
      </trkpt>
      <trkpt lat="42.9259" lon="0.58003">
        <ele>1170</ele>
        <time>2019-02-03T14:11:42.000Z</time>
      </trkpt>
      <trkpt lat="42.9259" lon="0.58004">
        <ele>1170</ele>
        <time>2019-02-03T14:11:43.000Z</time>
      </trkpt>
      <trkpt lat="42.9259" lon="0.58005">
        <ele>1170</ele>
        <time>2019-02-03T14:11:44.000Z</time>
      </trkpt>
      <trkpt lat="42.9259" lon="0.58006">
        <ele>1170</ele>
        <time>2019-02-03T14:11:45.000Z</time>
      </trkpt>
      <trkpt lat="42.9259" lon="0.58008">
        <ele>1170</ele>
        <time>2019-02-03T14:11:46.000Z</time>
      </trkpt>
      <trkpt lat="42.9259" lon="0.58009">
        <ele>1170</ele>
        <time>2019-02-03T14:11:47.000Z</time>
      </trkpt>
      <trkpt lat="42.92591" lon="0.5801">
        <ele>1170</ele>
        <time>2019-02-03T14:11:48.000Z</time>
      </trkpt>
      <trkpt lat="42.92592" lon="0.58012">
        <ele>1170</ele>
        <time>2019-02-03T14:11:49.000Z</time>
      </trkpt>
      <trkpt lat="42.92592" lon="0.58013">
        <ele>1169.5</ele>
        <time>2019-02-03T14:11:50.000Z</time>
      </trkpt>
      <trkpt lat="42.92593" lon="0.58014">
        <ele>1169</ele>
        <time>2019-02-03T14:11:51.000Z</time>
      </trkpt>
      <trkpt lat="42.92594" lon="0.58016">
        <ele>1169</ele>
        <time>2019-02-03T14:11:52.000Z</time>
      </trkpt>
      <trkpt lat="42.92595" lon="0.58017">
        <ele>1169</ele>
        <time>2019-02-03T14:11:53.000Z</time>
      </trkpt>
      <trkpt lat="42.92596" lon="0.58019">
        <ele>1169</ele>
        <time>2019-02-03T14:11:54.000Z</time>
      </trkpt>
      <trkpt lat="42.92597" lon="0.5802">
        <ele>1169</ele>
        <time>2019-02-03T14:11:55.000Z</time>
      </trkpt>
      <trkpt lat="42.92597" lon="0.58021">
        <ele>1169</ele>
        <time>2019-02-03T14:11:56.000Z</time>
      </trkpt>
      <trkpt lat="42.92598" lon="0.58022">
        <ele>1169</ele>
        <time>2019-02-03T14:11:57.000Z</time>
      </trkpt>
      <trkpt lat="42.92598" lon="0.58023">
        <ele>1169</ele>
        <time>2019-02-03T14:11:58.000Z</time>
      </trkpt>
      <trkpt lat="42.92598" lon="0.58024">
        <ele>1169</ele>
        <time>2019-02-03T14:11:59.000Z</time>
      </trkpt>
      <trkpt lat="42.92599" lon="0.58025">
        <ele>1169</ele>
        <time>2019-02-03T14:12:00.000Z</time>
      </trkpt>
      <trkpt lat="42.92599" lon="0.58026">
        <ele>1169</ele>
        <time>2019-02-03T14:12:01.000Z</time>
      </trkpt>
      <trkpt lat="42.926" lon="0.58027">
        <ele>1168.5</ele>
        <time>2019-02-03T14:12:02.000Z</time>
      </trkpt>
      <trkpt lat="42.92601" lon="0.58028">
        <ele>1168</ele>
        <time>2019-02-03T14:12:03.000Z</time>
      </trkpt>
      <trkpt lat="42.92601" lon="0.58029">
        <ele>1168</ele>
        <time>2019-02-03T14:12:04.000Z</time>
      </trkpt>
      <trkpt lat="42.92602" lon="0.5803">
        <ele>1168</ele>
        <time>2019-02-03T14:12:05.000Z</time>
      </trkpt>
      <trkpt lat="42.92603" lon="0.58032">
        <ele>1168</ele>
        <time>2019-02-03T14:12:06.000Z</time>
      </trkpt>
      <trkpt lat="42.92603" lon="0.58033">
        <ele>1168</ele>
        <time>2019-02-03T14:12:07.000Z</time>
      </trkpt>
      <trkpt lat="42.92604" lon="0.58034">
        <ele>1168</ele>
        <time>2019-02-03T14:12:08.000Z</time>
      </trkpt>
      <trkpt lat="42.92604" lon="0.58036">
        <ele>1168</ele>
        <time>2019-02-03T14:12:09.000Z</time>
      </trkpt>
      <trkpt lat="42.92605" lon="0.58037">
        <ele>1168</ele>
        <time>2019-02-03T14:12:10.000Z</time>
      </trkpt>
      <trkpt lat="42.92605" lon="0.58038">
        <ele>1168</ele>
        <time>2019-02-03T14:12:11.000Z</time>
      </trkpt>
      <trkpt lat="42.92606" lon="0.5804">
        <ele>1169</ele>
        <time>2019-02-03T14:12:12.000Z</time>
      </trkpt>
      <trkpt lat="42.92606" lon="0.58041">
        <ele>1169</ele>
        <time>2019-02-03T14:12:13.000Z</time>
      </trkpt>
      <trkpt lat="42.92606" lon="0.58042">
        <ele>1169</ele>
        <time>2019-02-03T14:12:14.000Z</time>
      </trkpt>
      <trkpt lat="42.92607" lon="0.58043">
        <ele>1169</ele>
        <time>2019-02-03T14:12:15.000Z</time>
      </trkpt>
      <trkpt lat="42.92607" lon="0.58045">
        <ele>1169</ele>
        <time>2019-02-03T14:12:16.000Z</time>
      </trkpt>
      <trkpt lat="42.92608" lon="0.58046">
        <ele>1169</ele>
        <time>2019-02-03T14:12:17.000Z</time>
      </trkpt>
      <trkpt lat="42.92608" lon="0.58047">
        <ele>1169</ele>
        <time>2019-02-03T14:12:18.000Z</time>
      </trkpt>
      <trkpt lat="42.92609" lon="0.58048">
        <ele>1169</ele>
        <time>2019-02-03T14:12:19.000Z</time>
      </trkpt>
      <trkpt lat="42.92609" lon="0.58049">
        <ele>1169</ele>
        <time>2019-02-03T14:12:20.000Z</time>
      </trkpt>
      <trkpt lat="42.9261" lon="0.5805">
        <ele>1168.7</ele>
        <time>2019-02-03T14:12:21.000Z</time>
      </trkpt>
      <trkpt lat="42.92611" lon="0.58052">
        <ele>1168.3</ele>
        <time>2019-02-03T14:12:22.000Z</time>
      </trkpt>
      <trkpt lat="42.92611" lon="0.58053">
        <ele>1168</ele>
        <time>2019-02-03T14:12:23.000Z</time>
      </trkpt>
      <trkpt lat="42.92612" lon="0.58054">
        <ele>1168</ele>
        <time>2019-02-03T14:12:24.000Z</time>
      </trkpt>
      <trkpt lat="42.92613" lon="0.58055">
        <ele>1168</ele>
        <time>2019-02-03T14:12:25.000Z</time>
      </trkpt>
      <trkpt lat="42.92614" lon="0.58056">
        <ele>1168</ele>
        <time>2019-02-03T14:12:26.000Z</time>
      </trkpt>
      <trkpt lat="42.92615" lon="0.58058">
        <ele>1168</ele>
        <time>2019-02-03T14:12:27.000Z</time>
      </trkpt>
      <trkpt lat="42.92615" lon="0.58059">
        <ele>1168</ele>
        <time>2019-02-03T14:12:28.000Z</time>
      </trkpt>
      <trkpt lat="42.92616" lon="0.5806">
        <ele>1168</ele>
        <time>2019-02-03T14:12:29.000Z</time>
      </trkpt>
      <trkpt lat="42.92617" lon="0.58061">
        <ele>1168</ele>
        <time>2019-02-03T14:12:30.000Z</time>
      </trkpt>
      <trkpt lat="42.92618" lon="0.58063">
        <ele>1168</ele>
        <time>2019-02-03T14:12:31.000Z</time>
      </trkpt>
      <trkpt lat="42.92618" lon="0.58064">
        <ele>1168</ele>
        <time>2019-02-03T14:12:32.000Z</time>
      </trkpt>
      <trkpt lat="42.92619" lon="0.58065">
        <ele>1168</ele>
        <time>2019-02-03T14:12:33.000Z</time>
      </trkpt>
      <trkpt lat="42.9262" lon="0.58067">
        <ele>1168</ele>
        <time>2019-02-03T14:12:34.000Z</time>
      </trkpt>
      <trkpt lat="42.9262" lon="0.58068">
        <ele>1167.7</ele>
        <time>2019-02-03T14:12:35.000Z</time>
      </trkpt>
      <trkpt lat="42.9262" lon="0.5807">
        <ele>1167.3</ele>
        <time>2019-02-03T14:12:36.000Z</time>
      </trkpt>
      <trkpt lat="42.9262" lon="0.58071">
        <ele>1167</ele>
        <time>2019-02-03T14:12:37.000Z</time>
      </trkpt>
      <trkpt lat="42.92621" lon="0.58072">
        <ele>1167</ele>
        <time>2019-02-03T14:12:38.000Z</time>
      </trkpt>
      <trkpt lat="42.92621" lon="0.58074">
        <ele>1167</ele>
        <time>2019-02-03T14:12:39.000Z</time>
      </trkpt>
      <trkpt lat="42.9262" lon="0.58075">
        <ele>1167</ele>
        <time>2019-02-03T14:12:40.000Z</time>
      </trkpt>
      <trkpt lat="42.9262" lon="0.58076">
        <ele>1167</ele>
        <time>2019-02-03T14:12:41.000Z</time>
      </trkpt>
      <trkpt lat="42.9262" lon="0.58077">
        <ele>1167</ele>
        <time>2019-02-03T14:12:42.000Z</time>
      </trkpt>
      <trkpt lat="42.9262" lon="0.58079">
        <ele>1167</ele>
        <time>2019-02-03T14:12:43.000Z</time>
      </trkpt>
      <trkpt lat="42.9262" lon="0.5808">
        <ele>1167</ele>
        <time>2019-02-03T14:12:44.000Z</time>
      </trkpt>
      <trkpt lat="42.9262" lon="0.58081">
        <ele>1167</ele>
        <time>2019-02-03T14:12:45.000Z</time>
      </trkpt>
      <trkpt lat="42.9262" lon="0.58083">
        <ele>1167</ele>
        <time>2019-02-03T14:12:46.000Z</time>
      </trkpt>
      <trkpt lat="42.9262" lon="0.58084">
        <ele>1167</ele>
        <time>2019-02-03T14:12:47.000Z</time>
      </trkpt>
      <trkpt lat="42.92621" lon="0.58086">
        <ele>1167</ele>
        <time>2019-02-03T14:12:48.000Z</time>
      </trkpt>
      <trkpt lat="42.92621" lon="0.58087">
        <ele>1167</ele>
        <time>2019-02-03T14:12:49.000Z</time>
      </trkpt>
      <trkpt lat="42.92621" lon="0.58089">
        <ele>1166</ele>
        <time>2019-02-03T14:12:50.000Z</time>
      </trkpt>
      <trkpt lat="42.92622" lon="0.5809">
        <ele>1166</ele>
        <time>2019-02-03T14:12:51.000Z</time>
      </trkpt>
      <trkpt lat="42.92622" lon="0.58092">
        <ele>1166</ele>
        <time>2019-02-03T14:12:52.000Z</time>
      </trkpt>
      <trkpt lat="42.92622" lon="0.58093">
        <ele>1166</ele>
        <time>2019-02-03T14:12:53.000Z</time>
      </trkpt>
      <trkpt lat="42.92622" lon="0.58095">
        <ele>1166</ele>
        <time>2019-02-03T14:12:54.000Z</time>
      </trkpt>
      <trkpt lat="42.92623" lon="0.58096">
        <ele>1166</ele>
        <time>2019-02-03T14:12:55.000Z</time>
      </trkpt>
      <trkpt lat="42.92623" lon="0.58098">
        <ele>1166</ele>
        <time>2019-02-03T14:12:56.000Z</time>
      </trkpt>
      <trkpt lat="42.92623" lon="0.58099">
        <ele>1166</ele>
        <time>2019-02-03T14:12:57.000Z</time>
      </trkpt>
      <trkpt lat="42.92623" lon="0.581">
        <ele>1165.5</ele>
        <time>2019-02-03T14:12:58.000Z</time>
      </trkpt>
      <trkpt lat="42.92623" lon="0.58102">
        <ele>1165</ele>
        <time>2019-02-03T14:12:59.000Z</time>
      </trkpt>
      <trkpt lat="42.92623" lon="0.58103">
        <ele>1165</ele>
        <time>2019-02-03T14:13:00.000Z</time>
      </trkpt>
      <trkpt lat="42.92623" lon="0.58104">
        <ele>1165</ele>
        <time>2019-02-03T14:13:01.000Z</time>
      </trkpt>
      <trkpt lat="42.92623" lon="0.58105">
        <ele>1165</ele>
        <time>2019-02-03T14:13:02.000Z</time>
      </trkpt>
      <trkpt lat="42.92622" lon="0.58107">
        <ele>1165</ele>
        <time>2019-02-03T14:13:03.000Z</time>
      </trkpt>
      <trkpt lat="42.92622" lon="0.58108">
        <ele>1165</ele>
        <time>2019-02-03T14:13:04.000Z</time>
      </trkpt>
      <trkpt lat="42.92622" lon="0.58109">
        <ele>1165</ele>
        <time>2019-02-03T14:13:05.000Z</time>
      </trkpt>
      <trkpt lat="42.92622" lon="0.58111">
        <ele>1165</ele>
        <time>2019-02-03T14:13:06.000Z</time>
      </trkpt>
      <trkpt lat="42.92622" lon="0.58112">
        <ele>1165</ele>
        <time>2019-02-03T14:13:07.000Z</time>
      </trkpt>
      <trkpt lat="42.92621" lon="0.58113">
        <ele>1165</ele>
        <time>2019-02-03T14:13:08.000Z</time>
      </trkpt>
      <trkpt lat="42.92621" lon="0.58114">
        <ele>1165</ele>
        <time>2019-02-03T14:13:09.000Z</time>
      </trkpt>
      <trkpt lat="42.92621" lon="0.58116">
        <ele>1165</ele>
        <time>2019-02-03T14:13:10.000Z</time>
      </trkpt>
      <trkpt lat="42.92621" lon="0.58117">
        <ele>1165</ele>
        <time>2019-02-03T14:13:11.000Z</time>
      </trkpt>
      <trkpt lat="42.9262" lon="0.58118">
        <ele>1165</ele>
        <time>2019-02-03T14:13:12.000Z</time>
      </trkpt>
      <trkpt lat="42.9262" lon="0.58119">
        <ele>1165</ele>
        <time>2019-02-03T14:13:13.000Z</time>
      </trkpt>
      <trkpt lat="42.92619" lon="0.5812">
        <ele>1165</ele>
        <time>2019-02-03T14:13:14.000Z</time>
      </trkpt>
      <trkpt lat="42.92618" lon="0.58121">
        <ele>1165</ele>
        <time>2019-02-03T14:13:15.000Z</time>
      </trkpt>
      <trkpt lat="42.92618" lon="0.58123">
        <ele>1164.5</ele>
        <time>2019-02-03T14:13:16.000Z</time>
      </trkpt>
      <trkpt lat="42.92618" lon="0.58124">
        <ele>1164</ele>
        <time>2019-02-03T14:13:17.000Z</time>
      </trkpt>
      <trkpt lat="42.92617" lon="0.58125">
        <ele>1164</ele>
        <time>2019-02-03T14:13:18.000Z</time>
      </trkpt>
      <trkpt lat="42.92617" lon="0.58127">
        <ele>1164</ele>
        <time>2019-02-03T14:13:19.000Z</time>
      </trkpt>
      <trkpt lat="42.92617" lon="0.58129">
        <ele>1164</ele>
        <time>2019-02-03T14:13:20.000Z</time>
      </trkpt>
      <trkpt lat="42.92617" lon="0.5813">
        <ele>1164</ele>
        <time>2019-02-03T14:13:21.000Z</time>
      </trkpt>
      <trkpt lat="42.92617" lon="0.58132">
        <ele>1163.5</ele>
        <time>2019-02-03T14:13:22.000Z</time>
      </trkpt>
      <trkpt lat="42.92617" lon="0.58133">
        <ele>1163</ele>
        <time>2019-02-03T14:13:23.000Z</time>
      </trkpt>
      <trkpt lat="42.92616" lon="0.58135">
        <ele>1163</ele>
        <time>2019-02-03T14:13:24.000Z</time>
      </trkpt>
      <trkpt lat="42.92616" lon="0.58136">
        <ele>1163</ele>
        <time>2019-02-03T14:13:25.000Z</time>
      </trkpt>
      <trkpt lat="42.92615" lon="0.58137">
        <ele>1163</ele>
        <time>2019-02-03T14:13:26.000Z</time>
      </trkpt>
      <trkpt lat="42.92615" lon="0.58139">
        <ele>1163</ele>
        <time>2019-02-03T14:13:27.000Z</time>
      </trkpt>
      <trkpt lat="42.92615" lon="0.5814">
        <ele>1163</ele>
        <time>2019-02-03T14:13:28.000Z</time>
      </trkpt>
      <trkpt lat="42.92614" lon="0.58142">
        <ele>1163</ele>
        <time>2019-02-03T14:13:29.000Z</time>
      </trkpt>
      <trkpt lat="42.92614" lon="0.58143">
        <ele>1163</ele>
        <time>2019-02-03T14:13:30.000Z</time>
      </trkpt>
      <trkpt lat="42.92614" lon="0.58145">
        <ele>1163</ele>
        <time>2019-02-03T14:13:31.000Z</time>
      </trkpt>
      <trkpt lat="42.92613" lon="0.58146">
        <ele>1162</ele>
        <time>2019-02-03T14:13:32.000Z</time>
      </trkpt>
      <trkpt lat="42.92613" lon="0.58148">
        <ele>1162.3</ele>
        <time>2019-02-03T14:13:33.000Z</time>
      </trkpt>
      <trkpt lat="42.92613" lon="0.58149">
        <ele>1162.7</ele>
        <time>2019-02-03T14:13:34.000Z</time>
      </trkpt>
      <trkpt lat="42.92613" lon="0.5815">
        <ele>1163</ele>
        <time>2019-02-03T14:13:35.000Z</time>
      </trkpt>
      <trkpt lat="42.92612" lon="0.58152">
        <ele>1163</ele>
        <time>2019-02-03T14:13:36.000Z</time>
      </trkpt>
      <trkpt lat="42.92612" lon="0.58153">
        <ele>1163</ele>
        <time>2019-02-03T14:13:37.000Z</time>
      </trkpt>
      <trkpt lat="42.92612" lon="0.58154">
        <ele>1163</ele>
        <time>2019-02-03T14:13:38.000Z</time>
      </trkpt>
      <trkpt lat="42.92612" lon="0.58156">
        <ele>1163</ele>
        <time>2019-02-03T14:13:39.000Z</time>
      </trkpt>
      <trkpt lat="42.92612" lon="0.58157">
        <ele>1162</ele>
        <time>2019-02-03T14:13:40.000Z</time>
      </trkpt>
      <trkpt lat="42.92612" lon="0.58158">
        <ele>1162</ele>
        <time>2019-02-03T14:13:41.000Z</time>
      </trkpt>
      <trkpt lat="42.92611" lon="0.58159">
        <ele>1162</ele>
        <time>2019-02-03T14:13:42.000Z</time>
      </trkpt>
      <trkpt lat="42.92611" lon="0.58161">
        <ele>1162</ele>
        <time>2019-02-03T14:13:43.000Z</time>
      </trkpt>
      <trkpt lat="42.92611" lon="0.58162">
        <ele>1162</ele>
        <time>2019-02-03T14:13:44.000Z</time>
      </trkpt>
      <trkpt lat="42.92611" lon="0.58163">
        <ele>1162</ele>
        <time>2019-02-03T14:13:45.000Z</time>
      </trkpt>
      <trkpt lat="42.92611" lon="0.58164">
        <ele>1162</ele>
        <time>2019-02-03T14:13:46.000Z</time>
      </trkpt>
      <trkpt lat="42.92611" lon="0.58166">
        <ele>1162</ele>
        <time>2019-02-03T14:13:47.000Z</time>
      </trkpt>
      <trkpt lat="42.92612" lon="0.58167">
        <ele>1162</ele>
        <time>2019-02-03T14:13:48.000Z</time>
      </trkpt>
      <trkpt lat="42.92612" lon="0.58168">
        <ele>1162</ele>
        <time>2019-02-03T14:13:49.000Z</time>
      </trkpt>
      <trkpt lat="42.92612" lon="0.5817">
        <ele>1161.5</ele>
        <time>2019-02-03T14:13:50.000Z</time>
      </trkpt>
      <trkpt lat="42.92613" lon="0.58171">
        <ele>1161</ele>
        <time>2019-02-03T14:13:51.000Z</time>
      </trkpt>
      <trkpt lat="42.92613" lon="0.58172">
        <ele>1161</ele>
        <time>2019-02-03T14:13:52.000Z</time>
      </trkpt>
      <trkpt lat="42.92614" lon="0.58174">
        <ele>1161</ele>
        <time>2019-02-03T14:13:53.000Z</time>
      </trkpt>
      <trkpt lat="42.92615" lon="0.58175">
        <ele>1161</ele>
        <time>2019-02-03T14:13:54.000Z</time>
      </trkpt>
      <trkpt lat="42.92615" lon="0.58176">
        <ele>1161</ele>
        <time>2019-02-03T14:13:55.000Z</time>
      </trkpt>
      <trkpt lat="42.92616" lon="0.58178">
        <ele>1161</ele>
        <time>2019-02-03T14:13:56.000Z</time>
      </trkpt>
      <trkpt lat="42.92617" lon="0.58179">
        <ele>1161</ele>
        <time>2019-02-03T14:13:57.000Z</time>
      </trkpt>
      <trkpt lat="42.92617" lon="0.5818">
        <ele>1160.5</ele>
        <time>2019-02-03T14:13:58.000Z</time>
      </trkpt>
      <trkpt lat="42.92618" lon="0.58182">
        <ele>1160</ele>
        <time>2019-02-03T14:13:59.000Z</time>
      </trkpt>
      <trkpt lat="42.92618" lon="0.58183">
        <ele>1160</ele>
        <time>2019-02-03T14:14:00.000Z</time>
      </trkpt>
      <trkpt lat="42.92619" lon="0.58184">
        <ele>1160</ele>
        <time>2019-02-03T14:14:01.000Z</time>
      </trkpt>
      <trkpt lat="42.92619" lon="0.58185">
        <ele>1160</ele>
        <time>2019-02-03T14:14:02.000Z</time>
      </trkpt>
      <trkpt lat="42.9262" lon="0.58186">
        <ele>1160</ele>
        <time>2019-02-03T14:14:03.000Z</time>
      </trkpt>
      <trkpt lat="42.9262" lon="0.58187">
        <ele>1160</ele>
        <time>2019-02-03T14:14:04.000Z</time>
      </trkpt>
      <trkpt lat="42.92621" lon="0.58189">
        <ele>1160</ele>
        <time>2019-02-03T14:14:05.000Z</time>
      </trkpt>
      <trkpt lat="42.92621" lon="0.5819">
        <ele>1160</ele>
        <time>2019-02-03T14:14:06.000Z</time>
      </trkpt>
      <trkpt lat="42.92622" lon="0.58191">
        <ele>1160</ele>
        <time>2019-02-03T14:14:07.000Z</time>
      </trkpt>
      <trkpt lat="42.92622" lon="0.58192">
        <ele>1160</ele>
        <time>2019-02-03T14:14:08.000Z</time>
      </trkpt>
      <trkpt lat="42.92623" lon="0.58193">
        <ele>1160</ele>
        <time>2019-02-03T14:14:09.000Z</time>
      </trkpt>
      <trkpt lat="42.92623" lon="0.58194">
        <ele>1160</ele>
        <time>2019-02-03T14:14:10.000Z</time>
      </trkpt>
      <trkpt lat="42.92624" lon="0.58195">
        <ele>1160</ele>
        <time>2019-02-03T14:14:11.000Z</time>
      </trkpt>
      <trkpt lat="42.92624" lon="0.58196">
        <ele>1160</ele>
        <time>2019-02-03T14:14:12.000Z</time>
      </trkpt>
      <trkpt lat="42.92625" lon="0.58198">
        <ele>1160</ele>
        <time>2019-02-03T14:14:13.000Z</time>
      </trkpt>
      <trkpt lat="42.92625" lon="0.58199">
        <ele>1160</ele>
        <time>2019-02-03T14:14:14.000Z</time>
      </trkpt>
      <trkpt lat="42.92626" lon="0.582">
        <ele>1160</ele>
        <time>2019-02-03T14:14:15.000Z</time>
      </trkpt>
      <trkpt lat="42.92626" lon="0.58201">
        <ele>1160</ele>
        <time>2019-02-03T14:14:16.000Z</time>
      </trkpt>
      <trkpt lat="42.92627" lon="0.58202">
        <ele>1160</ele>
        <time>2019-02-03T14:14:17.000Z</time>
      </trkpt>
      <trkpt lat="42.92628" lon="0.58203">
        <ele>1160</ele>
        <time>2019-02-03T14:14:18.000Z</time>
      </trkpt>
      <trkpt lat="42.92628" lon="0.58203">
        <ele>1160</ele>
        <time>2019-02-03T14:14:19.000Z</time>
      </trkpt>
      <trkpt lat="42.92629" lon="0.58204">
        <ele>1160</ele>
        <time>2019-02-03T14:14:20.000Z</time>
      </trkpt>
      <trkpt lat="42.9263" lon="0.58205">
        <ele>1160</ele>
        <time>2019-02-03T14:14:21.000Z</time>
      </trkpt>
      <trkpt lat="42.92631" lon="0.58206">
        <ele>1159.5</ele>
        <time>2019-02-03T14:14:22.000Z</time>
      </trkpt>
      <trkpt lat="42.92632" lon="0.58206">
        <ele>1159</ele>
        <time>2019-02-03T14:14:23.000Z</time>
      </trkpt>
      <trkpt lat="42.92633" lon="0.58207">
        <ele>1159</ele>
        <time>2019-02-03T14:14:24.000Z</time>
      </trkpt>
      <trkpt lat="42.92633" lon="0.58208">
        <ele>1159</ele>
        <time>2019-02-03T14:14:25.000Z</time>
      </trkpt>
      <trkpt lat="42.92634" lon="0.58209">
        <ele>1158.5</ele>
        <time>2019-02-03T14:14:26.000Z</time>
      </trkpt>
      <trkpt lat="42.92635" lon="0.58209">
        <ele>1158</ele>
        <time>2019-02-03T14:14:27.000Z</time>
      </trkpt>
      <trkpt lat="42.92635" lon="0.5821">
        <ele>1158</ele>
        <time>2019-02-03T14:14:28.000Z</time>
      </trkpt>
      <trkpt lat="42.92636" lon="0.58211">
        <ele>1158</ele>
        <time>2019-02-03T14:14:29.000Z</time>
      </trkpt>
      <trkpt lat="42.92637" lon="0.58212">
        <ele>1158</ele>
        <time>2019-02-03T14:14:30.000Z</time>
      </trkpt>
      <trkpt lat="42.92637" lon="0.58212">
        <ele>1158</ele>
        <time>2019-02-03T14:14:31.000Z</time>
      </trkpt>
      <trkpt lat="42.92637" lon="0.58213">
        <ele>1158</ele>
        <time>2019-02-03T14:14:32.000Z</time>
      </trkpt>
      <trkpt lat="42.92638" lon="0.58213">
        <ele>1158</ele>
        <time>2019-02-03T14:14:33.000Z</time>
      </trkpt>
      <trkpt lat="42.92638" lon="0.58214">
        <ele>1158</ele>
        <time>2019-02-03T14:14:34.000Z</time>
      </trkpt>
      <trkpt lat="42.92638" lon="0.58214">
        <ele>1158</ele>
        <time>2019-02-03T14:14:35.000Z</time>
      </trkpt>
      <trkpt lat="42.92639" lon="0.58215">
        <ele>1158</ele>
        <time>2019-02-03T14:14:36.000Z</time>
      </trkpt>
      <trkpt lat="42.92639" lon="0.58215">
        <ele>1158.3</ele>
        <time>2019-02-03T14:14:37.000Z</time>
      </trkpt>
      <trkpt lat="42.92639" lon="0.58215">
        <ele>1158.7</ele>
        <time>2019-02-03T14:14:38.000Z</time>
      </trkpt>
      <trkpt lat="42.92639" lon="0.58215">
        <ele>1159</ele>
        <time>2019-02-03T14:14:39.000Z</time>
      </trkpt>
      <trkpt lat="42.92639" lon="0.58216">
        <ele>1159</ele>
        <time>2019-02-03T14:14:40.000Z</time>
      </trkpt>
      <trkpt lat="42.92639" lon="0.58216">
        <ele>1159</ele>
        <time>2019-02-03T14:14:41.000Z</time>
      </trkpt>
      <trkpt lat="42.92639" lon="0.58216">
        <ele>1159</ele>
        <time>2019-02-03T14:14:42.000Z</time>
      </trkpt>
      <trkpt lat="42.92639" lon="0.58216">
        <ele>1159</ele>
        <time>2019-02-03T14:14:43.000Z</time>
      </trkpt>
      <trkpt lat="42.92639" lon="0.58216">
        <ele>1159</ele>
        <time>2019-02-03T14:14:44.000Z</time>
      </trkpt>
      <trkpt lat="42.92639" lon="0.58216">
        <ele>1159</ele>
        <time>2019-02-03T14:14:45.000Z</time>
      </trkpt>
      <trkpt lat="42.92639" lon="0.58215">
        <ele>1159</ele>
        <time>2019-02-03T14:14:46.000Z</time>
      </trkpt>
      <trkpt lat="42.92639" lon="0.58215">
        <ele>1159</ele>
        <time>2019-02-03T14:14:47.000Z</time>
      </trkpt>
      <trkpt lat="42.92639" lon="0.58215">
        <ele>1159</ele>
        <time>2019-02-03T14:14:48.000Z</time>
      </trkpt>
      <trkpt lat="42.92639" lon="0.58215">
        <ele>1159</ele>
        <time>2019-02-03T14:14:49.000Z</time>
      </trkpt>
      <trkpt lat="42.92639" lon="0.58215">
        <ele>1159</ele>
        <time>2019-02-03T14:14:50.000Z</time>
      </trkpt>
      <trkpt lat="42.92639" lon="0.58215">
        <ele>1159</ele>
        <time>2019-02-03T14:14:51.000Z</time>
      </trkpt>
      <trkpt lat="42.92639" lon="0.58215">
        <ele>1159</ele>
        <time>2019-02-03T14:14:52.000Z</time>
      </trkpt>
      <trkpt lat="42.92639" lon="0.58215">
        <ele>1159</ele>
        <time>2019-02-03T14:14:53.000Z</time>
      </trkpt>
      <trkpt lat="42.92639" lon="0.58215">
        <ele>1159</ele>
        <time>2019-02-03T14:14:54.000Z</time>
      </trkpt>
      <trkpt lat="42.92639" lon="0.58215">
        <ele>1159</ele>
        <time>2019-02-03T14:14:55.000Z</time>
      </trkpt>
      <trkpt lat="42.92639" lon="0.58215">
        <ele>1159</ele>
        <time>2019-02-03T14:14:56.000Z</time>
      </trkpt>
      <trkpt lat="42.92639" lon="0.58215">
        <ele>1159</ele>
        <time>2019-02-03T14:14:57.000Z</time>
      </trkpt>
      <trkpt lat="42.92639" lon="0.58215">
        <ele>1159</ele>
        <time>2019-02-03T14:14:58.000Z</time>
      </trkpt>
      <trkpt lat="42.92639" lon="0.58215">
        <ele>1159</ele>
        <time>2019-02-03T14:14:59.000Z</time>
      </trkpt>
      <trkpt lat="42.92639" lon="0.58215">
        <ele>1159</ele>
        <time>2019-02-03T14:15:00.000Z</time>
      </trkpt>
      <trkpt lat="42.92639" lon="0.58215">
        <ele>1159</ele>
        <time>2019-02-03T14:15:01.000Z</time>
      </trkpt>
      <trkpt lat="42.92639" lon="0.58215">
        <ele>1158.5</ele>
        <time>2019-02-03T14:15:02.000Z</time>
      </trkpt>
      <trkpt lat="42.92639" lon="0.58215">
        <ele>1158</ele>
        <time>2019-02-03T14:15:03.000Z</time>
      </trkpt>
      <trkpt lat="42.92639" lon="0.58215">
        <ele>1159</ele>
        <time>2019-02-03T14:15:04.000Z</time>
      </trkpt>
      <trkpt lat="42.92639" lon="0.58215">
        <ele>1159</ele>
        <time>2019-02-03T14:15:05.000Z</time>
      </trkpt>
      <trkpt lat="42.92639" lon="0.58215">
        <ele>1159</ele>
        <time>2019-02-03T14:15:06.000Z</time>
      </trkpt>
      <trkpt lat="42.92639" lon="0.58215">
        <ele>1159</ele>
        <time>2019-02-03T14:15:07.000Z</time>
      </trkpt>
      <trkpt lat="42.92639" lon="0.58215">
        <ele>1159</ele>
        <time>2019-02-03T14:15:08.000Z</time>
      </trkpt>
      <trkpt lat="42.92639" lon="0.58215">
        <ele>1159</ele>
        <time>2019-02-03T14:15:09.000Z</time>
      </trkpt>
      <trkpt lat="42.92638" lon="0.58216">
        <ele>1159</ele>
        <time>2019-02-03T14:15:10.000Z</time>
      </trkpt>
      <trkpt lat="42.92638" lon="0.58216">
        <ele>1159</ele>
        <time>2019-02-03T14:15:11.000Z</time>
      </trkpt>
      <trkpt lat="42.92638" lon="0.58216">
        <ele>1159</ele>
        <time>2019-02-03T14:15:12.000Z</time>
      </trkpt>
      <trkpt lat="42.92638" lon="0.58216">
        <ele>1159</ele>
        <time>2019-02-03T14:15:13.000Z</time>
      </trkpt>
      <trkpt lat="42.92638" lon="0.58216">
        <ele>1159</ele>
        <time>2019-02-03T14:15:14.000Z</time>
      </trkpt>
      <trkpt lat="42.92638" lon="0.58216">
        <ele>1159</ele>
        <time>2019-02-03T14:15:15.000Z</time>
      </trkpt>
      <trkpt lat="42.92638" lon="0.58216">
        <ele>1159</ele>
        <time>2019-02-03T14:15:16.000Z</time>
      </trkpt>
      <trkpt lat="42.92638" lon="0.58216">
        <ele>1159</ele>
        <time>2019-02-03T14:15:17.000Z</time>
      </trkpt>
      <trkpt lat="42.92638" lon="0.58216">
        <ele>1159</ele>
        <time>2019-02-03T14:15:18.000Z</time>
      </trkpt>
      <trkpt lat="42.92638" lon="0.58216">
        <ele>1159</ele>
        <time>2019-02-03T14:15:19.000Z</time>
      </trkpt>
      <trkpt lat="42.92637" lon="0.58216">
        <ele>1159</ele>
        <time>2019-02-03T14:15:20.000Z</time>
      </trkpt>
      <trkpt lat="42.92637" lon="0.58216">
        <ele>1159</ele>
        <time>2019-02-03T14:15:21.000Z</time>
      </trkpt>
      <trkpt lat="42.92636" lon="0.58217">
        <ele>1159</ele>
        <time>2019-02-03T14:15:22.000Z</time>
      </trkpt>
      <trkpt lat="42.92636" lon="0.58217">
        <ele>1159</ele>
        <time>2019-02-03T14:15:23.000Z</time>
      </trkpt>
      <trkpt lat="42.92635" lon="0.58217">
        <ele>1159</ele>
        <time>2019-02-03T14:15:24.000Z</time>
      </trkpt>
      <trkpt lat="42.92635" lon="0.58217">
        <ele>1159</ele>
        <time>2019-02-03T14:15:25.000Z</time>
      </trkpt>
      <trkpt lat="42.92635" lon="0.58217">
        <ele>1159</ele>
        <time>2019-02-03T14:15:26.000Z</time>
      </trkpt>
      <trkpt lat="42.92635" lon="0.58217">
        <ele>1159</ele>
        <time>2019-02-03T14:15:27.000Z</time>
      </trkpt>
      <trkpt lat="42.92635" lon="0.58217">
        <ele>1159</ele>
        <time>2019-02-03T14:15:28.000Z</time>
      </trkpt>
      <trkpt lat="42.92635" lon="0.58217">
        <ele>1159</ele>
        <time>2019-02-03T14:15:29.000Z</time>
      </trkpt>
      <trkpt lat="42.92635" lon="0.58217">
        <ele>1159</ele>
        <time>2019-02-03T14:15:30.000Z</time>
      </trkpt>
      <trkpt lat="42.92635" lon="0.58217">
        <ele>1159</ele>
        <time>2019-02-03T14:15:31.000Z</time>
      </trkpt>
      <trkpt lat="42.92635" lon="0.58217">
        <ele>1159</ele>
        <time>2019-02-03T14:15:32.000Z</time>
      </trkpt>
      <trkpt lat="42.92635" lon="0.58217">
        <ele>1159</ele>
        <time>2019-02-03T14:15:33.000Z</time>
      </trkpt>
      <trkpt lat="42.92635" lon="0.58217">
        <ele>1159</ele>
        <time>2019-02-03T14:15:34.000Z</time>
      </trkpt>
      <trkpt lat="42.92635" lon="0.58217">
        <ele>1159</ele>
        <time>2019-02-03T14:15:35.000Z</time>
      </trkpt>
      <trkpt lat="42.92635" lon="0.58217">
        <ele>1159</ele>
        <time>2019-02-03T14:15:36.000Z</time>
      </trkpt>
      <trkpt lat="42.92635" lon="0.58217">
        <ele>1159</ele>
        <time>2019-02-03T14:15:37.000Z</time>
      </trkpt>
      <trkpt lat="42.92635" lon="0.58217">
        <ele>1159</ele>
        <time>2019-02-03T14:15:38.000Z</time>
      </trkpt>
      <trkpt lat="42.92635" lon="0.58217">
        <ele>1159</ele>
        <time>2019-02-03T14:15:39.000Z</time>
      </trkpt>
      <trkpt lat="42.92635" lon="0.58217">
        <ele>1159</ele>
        <time>2019-02-03T14:15:40.000Z</time>
      </trkpt>
      <trkpt lat="42.92635" lon="0.58217">
        <ele>1159</ele>
        <time>2019-02-03T14:15:41.000Z</time>
      </trkpt>
      <trkpt lat="42.92635" lon="0.58217">
        <ele>1159</ele>
        <time>2019-02-03T14:15:42.000Z</time>
      </trkpt>
      <trkpt lat="42.92635" lon="0.58217">
        <ele>1159</ele>
        <time>2019-02-03T14:15:43.000Z</time>
      </trkpt>
      <trkpt lat="42.92635" lon="0.58216">
        <ele>1158</ele>
        <time>2019-02-03T14:15:44.000Z</time>
      </trkpt>
      <trkpt lat="42.92635" lon="0.58216">
        <ele>1158</ele>
        <time>2019-02-03T14:15:45.000Z</time>
      </trkpt>
      <trkpt lat="42.92636" lon="0.58216">
        <ele>1158</ele>
        <time>2019-02-03T14:15:46.000Z</time>
      </trkpt>
      <trkpt lat="42.92636" lon="0.58215">
        <ele>1158</ele>
        <time>2019-02-03T14:15:47.000Z</time>
      </trkpt>
      <trkpt lat="42.92636" lon="0.58215">
        <ele>1158</ele>
        <time>2019-02-03T14:15:48.000Z</time>
      </trkpt>
      <trkpt lat="42.92636" lon="0.58214">
        <ele>1158</ele>
        <time>2019-02-03T14:15:49.000Z</time>
      </trkpt>
      <trkpt lat="42.92637" lon="0.58214">
        <ele>1158</ele>
        <time>2019-02-03T14:15:50.000Z</time>
      </trkpt>
      <trkpt lat="42.92637" lon="0.58213">
        <ele>1158</ele>
        <time>2019-02-03T14:15:51.000Z</time>
      </trkpt>
      <trkpt lat="42.92637" lon="0.58213">
        <ele>1158</ele>
        <time>2019-02-03T14:15:52.000Z</time>
      </trkpt>
      <trkpt lat="42.92638" lon="0.58212">
        <ele>1158</ele>
        <time>2019-02-03T14:15:53.000Z</time>
      </trkpt>
      <trkpt lat="42.92638" lon="0.58212">
        <ele>1158</ele>
        <time>2019-02-03T14:15:54.000Z</time>
      </trkpt>
      <trkpt lat="42.92638" lon="0.58212">
        <ele>1158</ele>
        <time>2019-02-03T14:15:55.000Z</time>
      </trkpt>
      <trkpt lat="42.92639" lon="0.58212">
        <ele>1158</ele>
        <time>2019-02-03T14:15:56.000Z</time>
      </trkpt>
      <trkpt lat="42.92639" lon="0.58212">
        <ele>1158</ele>
        <time>2019-02-03T14:15:57.000Z</time>
      </trkpt>
      <trkpt lat="42.92639" lon="0.58211">
        <ele>1158</ele>
        <time>2019-02-03T14:15:58.000Z</time>
      </trkpt>
      <trkpt lat="42.92639" lon="0.58211">
        <ele>1158</ele>
        <time>2019-02-03T14:15:59.000Z</time>
      </trkpt>
      <trkpt lat="42.92639" lon="0.58211">
        <ele>1159</ele>
        <time>2019-02-03T14:16:00.000Z</time>
      </trkpt>
      <trkpt lat="42.92639" lon="0.58211">
        <ele>1159</ele>
        <time>2019-02-03T14:16:01.000Z</time>
      </trkpt>
      <trkpt lat="42.92639" lon="0.58211">
        <ele>1159</ele>
        <time>2019-02-03T14:16:02.000Z</time>
      </trkpt>
      <trkpt lat="42.92639" lon="0.58211">
        <ele>1159</ele>
        <time>2019-02-03T14:16:03.000Z</time>
      </trkpt>
      <trkpt lat="42.92639" lon="0.58211">
        <ele>1159</ele>
        <time>2019-02-03T14:16:04.000Z</time>
      </trkpt>
      <trkpt lat="42.92639" lon="0.58211">
        <ele>1159</ele>
        <time>2019-02-03T14:16:05.000Z</time>
      </trkpt>
      <trkpt lat="42.92639" lon="0.58211">
        <ele>1159</ele>
        <time>2019-02-03T14:16:06.000Z</time>
      </trkpt>
      <trkpt lat="42.92639" lon="0.58211">
        <ele>1159</ele>
        <time>2019-02-03T14:16:07.000Z</time>
      </trkpt>
      <trkpt lat="42.92639" lon="0.58211">
        <ele>1159</ele>
        <time>2019-02-03T14:16:08.000Z</time>
      </trkpt>
      <trkpt lat="42.92639" lon="0.58211">
        <ele>1159</ele>
        <time>2019-02-03T14:16:09.000Z</time>
      </trkpt>
      <trkpt lat="42.92639" lon="0.58211">
        <ele>1159</ele>
        <time>2019-02-03T14:16:10.000Z</time>
      </trkpt>
      <trkpt lat="42.92639" lon="0.58211">
        <ele>1159</ele>
        <time>2019-02-03T14:16:11.000Z</time>
      </trkpt>
      <trkpt lat="42.92639" lon="0.58211">
        <ele>1159</ele>
        <time>2019-02-03T14:16:12.000Z</time>
      </trkpt>
      <trkpt lat="42.92639" lon="0.58211">
        <ele>1159</ele>
        <time>2019-02-03T14:16:13.000Z</time>
      </trkpt>
      <trkpt lat="42.92639" lon="0.58211">
        <ele>1159</ele>
        <time>2019-02-03T14:16:14.000Z</time>
      </trkpt>
      <trkpt lat="42.92639" lon="0.58211">
        <ele>1159</ele>
        <time>2019-02-03T14:16:15.000Z</time>
      </trkpt>
      <trkpt lat="42.92639" lon="0.58211">
        <ele>1159</ele>
        <time>2019-02-03T14:16:16.000Z</time>
      </trkpt>
      <trkpt lat="42.92639" lon="0.58211">
        <ele>1159</ele>
        <time>2019-02-03T14:16:17.000Z</time>
      </trkpt>
      <trkpt lat="42.92639" lon="0.58211">
        <ele>1159</ele>
        <time>2019-02-03T14:16:18.000Z</time>
      </trkpt>
      <trkpt lat="42.92639" lon="0.58211">
        <ele>1159</ele>
        <time>2019-02-03T14:16:19.000Z</time>
      </trkpt>
      <trkpt lat="42.92639" lon="0.58211">
        <ele>1159</ele>
        <time>2019-02-03T14:16:20.000Z</time>
      </trkpt>
      <trkpt lat="42.92639" lon="0.58211">
        <ele>1159</ele>
        <time>2019-02-03T14:16:21.000Z</time>
      </trkpt>
      <trkpt lat="42.92639" lon="0.58211">
        <ele>1159</ele>
        <time>2019-02-03T14:16:22.000Z</time>
      </trkpt>
      <trkpt lat="42.92639" lon="0.58211">
        <ele>1159</ele>
        <time>2019-02-03T14:16:23.000Z</time>
      </trkpt>
      <trkpt lat="42.92639" lon="0.58211">
        <ele>1158</ele>
        <time>2019-02-03T14:16:24.000Z</time>
      </trkpt>
      <trkpt lat="42.92639" lon="0.58211">
        <ele>1158</ele>
        <time>2019-02-03T14:16:25.000Z</time>
      </trkpt>
      <trkpt lat="42.92639" lon="0.58211">
        <ele>1158</ele>
        <time>2019-02-03T14:16:26.000Z</time>
      </trkpt>
      <trkpt lat="42.92639" lon="0.58211">
        <ele>1158</ele>
        <time>2019-02-03T14:16:27.000Z</time>
      </trkpt>
      <trkpt lat="42.92639" lon="0.58211">
        <ele>1158</ele>
        <time>2019-02-03T14:16:30.000Z</time>
      </trkpt>
      <trkpt lat="42.92639" lon="0.58211">
        <ele>1158</ele>
        <time>2019-02-03T14:16:31.000Z</time>
      </trkpt>
      <trkpt lat="42.92639" lon="0.58211">
        <ele>1158</ele>
        <time>2019-02-03T14:16:32.000Z</time>
      </trkpt>
      <trkpt lat="42.92639" lon="0.58211">
        <ele>1158</ele>
        <time>2019-02-03T14:16:33.000Z</time>
      </trkpt>
      <trkpt lat="42.92639" lon="0.58211">
        <ele>1158</ele>
        <time>2019-02-03T14:16:34.000Z</time>
      </trkpt>
      <trkpt lat="42.92639" lon="0.58211">
        <ele>1158</ele>
        <time>2019-02-03T14:16:35.000Z</time>
      </trkpt>
      <trkpt lat="42.92639" lon="0.58211">
        <ele>1158</ele>
        <time>2019-02-03T14:16:36.000Z</time>
      </trkpt>
      <trkpt lat="42.92639" lon="0.58211">
        <ele>1158</ele>
        <time>2019-02-03T14:16:37.000Z</time>
      </trkpt>
      <trkpt lat="42.92639" lon="0.58211">
        <ele>1158</ele>
        <time>2019-02-03T14:16:38.000Z</time>
      </trkpt>
      <trkpt lat="42.92639" lon="0.58211">
        <ele>1158</ele>
        <time>2019-02-03T14:16:39.000Z</time>
      </trkpt>
      <trkpt lat="42.92639" lon="0.58211">
        <ele>1158</ele>
        <time>2019-02-03T14:16:40.000Z</time>
      </trkpt>
      <trkpt lat="42.92639" lon="0.58211">
        <ele>1158</ele>
        <time>2019-02-03T14:16:41.000Z</time>
      </trkpt>
      <trkpt lat="42.92639" lon="0.58211">
        <ele>1158</ele>
        <time>2019-02-03T14:16:42.000Z</time>
      </trkpt>
      <trkpt lat="42.92639" lon="0.58211">
        <ele>1158</ele>
        <time>2019-02-03T14:16:43.000Z</time>
      </trkpt>
      <trkpt lat="42.92639" lon="0.58211">
        <ele>1158</ele>
        <time>2019-02-03T14:16:44.000Z</time>
      </trkpt>
      <trkpt lat="42.92639" lon="0.58211">
        <ele>1158</ele>
        <time>2019-02-03T14:16:45.000Z</time>
      </trkpt>
      <trkpt lat="42.92639" lon="0.58211">
        <ele>1158</ele>
        <time>2019-02-03T14:16:46.000Z</time>
      </trkpt>
      <trkpt lat="42.92639" lon="0.58211">
        <ele>1158</ele>
        <time>2019-02-03T14:16:47.000Z</time>
      </trkpt>
      <trkpt lat="42.92639" lon="0.58211">
        <ele>1158</ele>
        <time>2019-02-03T14:16:48.000Z</time>
      </trkpt>
      <trkpt lat="42.92639" lon="0.58211">
        <ele>1158</ele>
        <time>2019-02-03T14:16:49.000Z</time>
      </trkpt>
      <trkpt lat="42.92639" lon="0.58211">
        <ele>1158</ele>
        <time>2019-02-03T14:16:50.000Z</time>
      </trkpt>
      <trkpt lat="42.92639" lon="0.58211">
        <ele>1158</ele>
        <time>2019-02-03T14:16:51.000Z</time>
      </trkpt>
      <trkpt lat="42.92639" lon="0.58211">
        <ele>1158</ele>
        <time>2019-02-03T14:16:52.000Z</time>
      </trkpt>
      <trkpt lat="42.92639" lon="0.58211">
        <ele>1158</ele>
        <time>2019-02-03T14:16:53.000Z</time>
      </trkpt>
      <trkpt lat="42.92639" lon="0.58211">
        <ele>1158</ele>
        <time>2019-02-03T14:16:54.000Z</time>
      </trkpt>
      <trkpt lat="42.92639" lon="0.58211">
        <ele>1158</ele>
        <time>2019-02-03T14:16:55.000Z</time>
      </trkpt>
      <trkpt lat="42.92639" lon="0.58211">
        <ele>1158</ele>
        <time>2019-02-03T14:16:56.000Z</time>
      </trkpt>
      <trkpt lat="42.92639" lon="0.58211">
        <ele>1158</ele>
        <time>2019-02-03T14:16:57.000Z</time>
      </trkpt>
      <trkpt lat="42.92639" lon="0.58211">
        <ele>1158</ele>
        <time>2019-02-03T14:16:58.000Z</time>
      </trkpt>
      <trkpt lat="42.92639" lon="0.58211">
        <ele>1158</ele>
        <time>2019-02-03T14:16:59.000Z</time>
      </trkpt>
      <trkpt lat="42.92639" lon="0.58211">
        <ele>1158</ele>
        <time>2019-02-03T14:17:00.000Z</time>
      </trkpt>
      <trkpt lat="42.92639" lon="0.58211">
        <ele>1158</ele>
        <time>2019-02-03T14:17:01.000Z</time>
      </trkpt>
      <trkpt lat="42.92639" lon="0.58211">
        <ele>1158</ele>
        <time>2019-02-03T14:17:02.000Z</time>
      </trkpt>
      <trkpt lat="42.92639" lon="0.58211">
        <ele>1158</ele>
        <time>2019-02-03T14:17:03.000Z</time>
      </trkpt>
      <trkpt lat="42.92639" lon="0.58211">
        <ele>1158</ele>
        <time>2019-02-03T14:17:04.000Z</time>
      </trkpt>
      <trkpt lat="42.92639" lon="0.58211">
        <ele>1158</ele>
        <time>2019-02-03T14:17:05.000Z</time>
      </trkpt>
      <trkpt lat="42.92639" lon="0.58211">
        <ele>1158</ele>
        <time>2019-02-03T14:17:06.000Z</time>
      </trkpt>
      <trkpt lat="42.92639" lon="0.58211">
        <ele>1158</ele>
        <time>2019-02-03T14:17:07.000Z</time>
      </trkpt>
      <trkpt lat="42.92639" lon="0.58211">
        <ele>1158</ele>
        <time>2019-02-03T14:17:08.000Z</time>
      </trkpt>
      <trkpt lat="42.9264" lon="0.58211">
        <ele>1158</ele>
        <time>2019-02-03T14:17:09.000Z</time>
      </trkpt>
      <trkpt lat="42.9264" lon="0.58211">
        <ele>1158</ele>
        <time>2019-02-03T14:17:10.000Z</time>
      </trkpt>
      <trkpt lat="42.9264" lon="0.5821">
        <ele>1158</ele>
        <time>2019-02-03T14:17:11.000Z</time>
      </trkpt>
      <trkpt lat="42.9264" lon="0.5821">
        <ele>1158</ele>
        <time>2019-02-03T14:17:12.000Z</time>
      </trkpt>
      <trkpt lat="42.9264" lon="0.58209">
        <ele>1158</ele>
        <time>2019-02-03T14:17:13.000Z</time>
      </trkpt>
      <trkpt lat="42.9264" lon="0.58208">
        <ele>1158</ele>
        <time>2019-02-03T14:17:14.000Z</time>
      </trkpt>
      <trkpt lat="42.9264" lon="0.58207">
        <ele>1158</ele>
        <time>2019-02-03T14:17:15.000Z</time>
      </trkpt>
      <trkpt lat="42.92641" lon="0.58206">
        <ele>1158</ele>
        <time>2019-02-03T14:17:16.000Z</time>
      </trkpt>
      <trkpt lat="42.92641" lon="0.58206">
        <ele>1158</ele>
        <time>2019-02-03T14:17:17.000Z</time>
      </trkpt>
      <trkpt lat="42.92641" lon="0.58205">
        <ele>1158</ele>
        <time>2019-02-03T14:17:18.000Z</time>
      </trkpt>
      <trkpt lat="42.92641" lon="0.58205">
        <ele>1158</ele>
        <time>2019-02-03T14:17:19.000Z</time>
      </trkpt>
      <trkpt lat="42.92641" lon="0.58205">
        <ele>1158</ele>
        <time>2019-02-03T14:17:20.000Z</time>
      </trkpt>
      <trkpt lat="42.92641" lon="0.58205">
        <ele>1158</ele>
        <time>2019-02-03T14:17:21.000Z</time>
      </trkpt>
      <trkpt lat="42.92641" lon="0.58205">
        <ele>1158</ele>
        <time>2019-02-03T14:17:22.000Z</time>
      </trkpt>
      <trkpt lat="42.92641" lon="0.58205">
        <ele>1158</ele>
        <time>2019-02-03T14:17:23.000Z</time>
      </trkpt>
      <trkpt lat="42.92641" lon="0.58205">
        <ele>1158</ele>
        <time>2019-02-03T14:17:24.000Z</time>
      </trkpt>
      <trkpt lat="42.92641" lon="0.58206">
        <ele>1158</ele>
        <time>2019-02-03T14:17:25.000Z</time>
      </trkpt>
      <trkpt lat="42.92642" lon="0.58206">
        <ele>1158</ele>
        <time>2019-02-03T14:17:26.000Z</time>
      </trkpt>
      <trkpt lat="42.92642" lon="0.58206">
        <ele>1158</ele>
        <time>2019-02-03T14:17:27.000Z</time>
      </trkpt>
      <trkpt lat="42.92643" lon="0.58207">
        <ele>1158</ele>
        <time>2019-02-03T14:17:28.000Z</time>
      </trkpt>
      <trkpt lat="42.92644" lon="0.58208">
        <ele>1158</ele>
        <time>2019-02-03T14:17:29.000Z</time>
      </trkpt>
      <trkpt lat="42.92644" lon="0.58209">
        <ele>1157.7</ele>
        <time>2019-02-03T14:17:30.000Z</time>
      </trkpt>
      <trkpt lat="42.92645" lon="0.58209">
        <ele>1157.3</ele>
        <time>2019-02-03T14:17:31.000Z</time>
      </trkpt>
      <trkpt lat="42.92646" lon="0.5821">
        <ele>1157</ele>
        <time>2019-02-03T14:17:32.000Z</time>
      </trkpt>
      <trkpt lat="42.92647" lon="0.5821">
        <ele>1157</ele>
        <time>2019-02-03T14:17:33.000Z</time>
      </trkpt>
      <trkpt lat="42.92647" lon="0.5821">
        <ele>1157</ele>
        <time>2019-02-03T14:17:34.000Z</time>
      </trkpt>
      <trkpt lat="42.92648" lon="0.5821">
        <ele>1157</ele>
        <time>2019-02-03T14:17:35.000Z</time>
      </trkpt>
      <trkpt lat="42.92649" lon="0.58209">
        <ele>1157</ele>
        <time>2019-02-03T14:17:36.000Z</time>
      </trkpt>
      <trkpt lat="42.92649" lon="0.58209">
        <ele>1157</ele>
        <time>2019-02-03T14:17:37.000Z</time>
      </trkpt>
      <trkpt lat="42.9265" lon="0.58208">
        <ele>1157</ele>
        <time>2019-02-03T14:17:38.000Z</time>
      </trkpt>
      <trkpt lat="42.9265" lon="0.58207">
        <ele>1157</ele>
        <time>2019-02-03T14:17:39.000Z</time>
      </trkpt>
      <trkpt lat="42.92651" lon="0.58207">
        <ele>1156.7</ele>
        <time>2019-02-03T14:17:40.000Z</time>
      </trkpt>
      <trkpt lat="42.92651" lon="0.58206">
        <ele>1156.3</ele>
        <time>2019-02-03T14:17:41.000Z</time>
      </trkpt>
      <trkpt lat="42.92651" lon="0.58204">
        <ele>1156</ele>
        <time>2019-02-03T14:17:42.000Z</time>
      </trkpt>
      <trkpt lat="42.92652" lon="0.58203">
        <ele>1156</ele>
        <time>2019-02-03T14:17:43.000Z</time>
      </trkpt>
      <trkpt lat="42.92652" lon="0.58202">
        <ele>1156</ele>
        <time>2019-02-03T14:17:44.000Z</time>
      </trkpt>
      <trkpt lat="42.92652" lon="0.58201">
        <ele>1155.5</ele>
        <time>2019-02-03T14:17:45.000Z</time>
      </trkpt>
      <trkpt lat="42.92653" lon="0.582">
        <ele>1155</ele>
        <time>2019-02-03T14:17:46.000Z</time>
      </trkpt>
      <trkpt lat="42.92653" lon="0.58198">
        <ele>1155</ele>
        <time>2019-02-03T14:17:47.000Z</time>
      </trkpt>
      <trkpt lat="42.92654" lon="0.58197">
        <ele>1155</ele>
        <time>2019-02-03T14:17:48.000Z</time>
      </trkpt>
      <trkpt lat="42.92654" lon="0.58196">
        <ele>1155</ele>
        <time>2019-02-03T14:17:49.000Z</time>
      </trkpt>
      <trkpt lat="42.92655" lon="0.58195">
        <ele>1154.7</ele>
        <time>2019-02-03T14:17:50.000Z</time>
      </trkpt>
      <trkpt lat="42.92655" lon="0.58193">
        <ele>1154.3</ele>
        <time>2019-02-03T14:17:51.000Z</time>
      </trkpt>
      <trkpt lat="42.92656" lon="0.58192">
        <ele>1154</ele>
        <time>2019-02-03T14:17:52.000Z</time>
      </trkpt>
      <trkpt lat="42.92656" lon="0.58191">
        <ele>1154</ele>
        <time>2019-02-03T14:17:53.000Z</time>
      </trkpt>
      <trkpt lat="42.92657" lon="0.5819">
        <ele>1154</ele>
        <time>2019-02-03T14:17:54.000Z</time>
      </trkpt>
      <trkpt lat="42.92658" lon="0.58189">
        <ele>1154</ele>
        <time>2019-02-03T14:17:55.000Z</time>
      </trkpt>
      <trkpt lat="42.92658" lon="0.58188">
        <ele>1154</ele>
        <time>2019-02-03T14:17:56.000Z</time>
      </trkpt>
      <trkpt lat="42.92659" lon="0.58187">
        <ele>1154</ele>
        <time>2019-02-03T14:17:57.000Z</time>
      </trkpt>
      <trkpt lat="42.9266" lon="0.58186">
        <ele>1154</ele>
        <time>2019-02-03T14:17:58.000Z</time>
      </trkpt>
      <trkpt lat="42.9266" lon="0.58185">
        <ele>1153.5</ele>
        <time>2019-02-03T14:17:59.000Z</time>
      </trkpt>
      <trkpt lat="42.92661" lon="0.58184">
        <ele>1153</ele>
        <time>2019-02-03T14:18:00.000Z</time>
      </trkpt>
      <trkpt lat="42.92662" lon="0.58184">
        <ele>1153</ele>
        <time>2019-02-03T14:18:01.000Z</time>
      </trkpt>
      <trkpt lat="42.92663" lon="0.58183">
        <ele>1152.7</ele>
        <time>2019-02-03T14:18:02.000Z</time>
      </trkpt>
      <trkpt lat="42.92663" lon="0.58183">
        <ele>1152.3</ele>
        <time>2019-02-03T14:18:03.000Z</time>
      </trkpt>
      <trkpt lat="42.92664" lon="0.58182">
        <ele>1152</ele>
        <time>2019-02-03T14:18:04.000Z</time>
      </trkpt>
      <trkpt lat="42.92665" lon="0.58182">
        <ele>1152</ele>
        <time>2019-02-03T14:18:05.000Z</time>
      </trkpt>
      <trkpt lat="42.92666" lon="0.58181">
        <ele>1152</ele>
        <time>2019-02-03T14:18:06.000Z</time>
      </trkpt>
      <trkpt lat="42.92666" lon="0.58181">
        <ele>1151.5</ele>
        <time>2019-02-03T14:18:07.000Z</time>
      </trkpt>
      <trkpt lat="42.92667" lon="0.5818">
        <ele>1151</ele>
        <time>2019-02-03T14:18:08.000Z</time>
      </trkpt>
      <trkpt lat="42.92668" lon="0.5818">
        <ele>1151</ele>
        <time>2019-02-03T14:18:09.000Z</time>
      </trkpt>
      <trkpt lat="42.92669" lon="0.58179">
        <ele>1151</ele>
        <time>2019-02-03T14:18:10.000Z</time>
      </trkpt>
      <trkpt lat="42.9267" lon="0.58179">
        <ele>1150.5</ele>
        <time>2019-02-03T14:18:11.000Z</time>
      </trkpt>
      <trkpt lat="42.9267" lon="0.58179">
        <ele>1150</ele>
        <time>2019-02-03T14:18:12.000Z</time>
      </trkpt>
      <trkpt lat="42.92671" lon="0.58178">
        <ele>1149</ele>
        <time>2019-02-03T14:18:13.000Z</time>
      </trkpt>
      <trkpt lat="42.92672" lon="0.58178">
        <ele>1149</ele>
        <time>2019-02-03T14:18:14.000Z</time>
      </trkpt>
      <trkpt lat="42.92673" lon="0.58178">
        <ele>1149</ele>
        <time>2019-02-03T14:18:15.000Z</time>
      </trkpt>
      <trkpt lat="42.92674" lon="0.58177">
        <ele>1149</ele>
        <time>2019-02-03T14:18:16.000Z</time>
      </trkpt>
      <trkpt lat="42.92675" lon="0.58177">
        <ele>1148.5</ele>
        <time>2019-02-03T14:18:17.000Z</time>
      </trkpt>
      <trkpt lat="42.92676" lon="0.58177">
        <ele>1148</ele>
        <time>2019-02-03T14:18:18.000Z</time>
      </trkpt>
      <trkpt lat="42.92677" lon="0.58176">
        <ele>1147</ele>
        <time>2019-02-03T14:18:19.000Z</time>
      </trkpt>
      <trkpt lat="42.92677" lon="0.58176">
        <ele>1147</ele>
        <time>2019-02-03T14:18:20.000Z</time>
      </trkpt>
      <trkpt lat="42.92678" lon="0.58176">
        <ele>1147</ele>
        <time>2019-02-03T14:18:21.000Z</time>
      </trkpt>
      <trkpt lat="42.92679" lon="0.58175">
        <ele>1147</ele>
        <time>2019-02-03T14:18:22.000Z</time>
      </trkpt>
      <trkpt lat="42.9268" lon="0.58175">
        <ele>1146.5</ele>
        <time>2019-02-03T14:18:23.000Z</time>
      </trkpt>
      <trkpt lat="42.92681" lon="0.58175">
        <ele>1146</ele>
        <time>2019-02-03T14:18:24.000Z</time>
      </trkpt>
      <trkpt lat="42.92682" lon="0.58175">
        <ele>1146</ele>
        <time>2019-02-03T14:18:25.000Z</time>
      </trkpt>
      <trkpt lat="42.92683" lon="0.58174">
        <ele>1145.7</ele>
        <time>2019-02-03T14:18:26.000Z</time>
      </trkpt>
      <trkpt lat="42.92684" lon="0.58174">
        <ele>1145.3</ele>
        <time>2019-02-03T14:18:27.000Z</time>
      </trkpt>
      <trkpt lat="42.92685" lon="0.58173">
        <ele>1145</ele>
        <time>2019-02-03T14:18:28.000Z</time>
      </trkpt>
      <trkpt lat="42.92685" lon="0.58172">
        <ele>1145</ele>
        <time>2019-02-03T14:18:29.000Z</time>
      </trkpt>
      <trkpt lat="42.92686" lon="0.58171">
        <ele>1145</ele>
        <time>2019-02-03T14:18:30.000Z</time>
      </trkpt>
      <trkpt lat="42.92687" lon="0.5817">
        <ele>1144.5</ele>
        <time>2019-02-03T14:18:31.000Z</time>
      </trkpt>
      <trkpt lat="42.92688" lon="0.58169">
        <ele>1144</ele>
        <time>2019-02-03T14:18:32.000Z</time>
      </trkpt>
      <trkpt lat="42.92688" lon="0.58168">
        <ele>1144</ele>
        <time>2019-02-03T14:18:33.000Z</time>
      </trkpt>
      <trkpt lat="42.92689" lon="0.58167">
        <ele>1144</ele>
        <time>2019-02-03T14:18:34.000Z</time>
      </trkpt>
      <trkpt lat="42.92689" lon="0.58166">
        <ele>1144</ele>
        <time>2019-02-03T14:18:35.000Z</time>
      </trkpt>
      <trkpt lat="42.9269" lon="0.58165">
        <ele>1144</ele>
        <time>2019-02-03T14:18:36.000Z</time>
      </trkpt>
      <trkpt lat="42.92691" lon="0.58164">
        <ele>1143.5</ele>
        <time>2019-02-03T14:18:37.000Z</time>
      </trkpt>
      <trkpt lat="42.92691" lon="0.58163">
        <ele>1143</ele>
        <time>2019-02-03T14:18:38.000Z</time>
      </trkpt>
      <trkpt lat="42.92692" lon="0.58162">
        <ele>1143</ele>
        <time>2019-02-03T14:18:39.000Z</time>
      </trkpt>
      <trkpt lat="42.92692" lon="0.58161">
        <ele>1143</ele>
        <time>2019-02-03T14:18:40.000Z</time>
      </trkpt>
      <trkpt lat="42.92693" lon="0.5816">
        <ele>1142.5</ele>
        <time>2019-02-03T14:18:41.000Z</time>
      </trkpt>
      <trkpt lat="42.92693" lon="0.58159">
        <ele>1142</ele>
        <time>2019-02-03T14:18:42.000Z</time>
      </trkpt>
      <trkpt lat="42.92694" lon="0.58158">
        <ele>1142</ele>
        <time>2019-02-03T14:18:43.000Z</time>
      </trkpt>
      <trkpt lat="42.92695" lon="0.58156">
        <ele>1141.7</ele>
        <time>2019-02-03T14:18:44.000Z</time>
      </trkpt>
      <trkpt lat="42.92695" lon="0.58155">
        <ele>1141.3</ele>
        <time>2019-02-03T14:18:45.000Z</time>
      </trkpt>
      <trkpt lat="42.92696" lon="0.58153">
        <ele>1141</ele>
        <time>2019-02-03T14:18:46.000Z</time>
      </trkpt>
      <trkpt lat="42.92696" lon="0.58152">
        <ele>1141</ele>
        <time>2019-02-03T14:18:47.000Z</time>
      </trkpt>
      <trkpt lat="42.92697" lon="0.5815">
        <ele>1141</ele>
        <time>2019-02-03T14:18:48.000Z</time>
      </trkpt>
      <trkpt lat="42.92697" lon="0.58149">
        <ele>1140.5</ele>
        <time>2019-02-03T14:18:49.000Z</time>
      </trkpt>
      <trkpt lat="42.92698" lon="0.58148">
        <ele>1140</ele>
        <time>2019-02-03T14:18:50.000Z</time>
      </trkpt>
      <trkpt lat="42.92699" lon="0.58146">
        <ele>1140</ele>
        <time>2019-02-03T14:18:51.000Z</time>
      </trkpt>
      <trkpt lat="42.92699" lon="0.58145">
        <ele>1140</ele>
        <time>2019-02-03T14:18:52.000Z</time>
      </trkpt>
      <trkpt lat="42.927" lon="0.58144">
        <ele>1139</ele>
        <time>2019-02-03T14:18:53.000Z</time>
      </trkpt>
      <trkpt lat="42.927" lon="0.58143">
        <ele>1139</ele>
        <time>2019-02-03T14:18:54.000Z</time>
      </trkpt>
      <trkpt lat="42.92701" lon="0.58143">
        <ele>1139</ele>
        <time>2019-02-03T14:18:55.000Z</time>
      </trkpt>
      <trkpt lat="42.92701" lon="0.58142">
        <ele>1139</ele>
        <time>2019-02-03T14:18:56.000Z</time>
      </trkpt>
      <trkpt lat="42.92701" lon="0.58142">
        <ele>1139</ele>
        <time>2019-02-03T14:18:57.000Z</time>
      </trkpt>
      <trkpt lat="42.92702" lon="0.58141">
        <ele>1139</ele>
        <time>2019-02-03T14:18:58.000Z</time>
      </trkpt>
      <trkpt lat="42.92702" lon="0.5814">
        <ele>1139</ele>
        <time>2019-02-03T14:18:59.000Z</time>
      </trkpt>
      <trkpt lat="42.92703" lon="0.58139">
        <ele>1139</ele>
        <time>2019-02-03T14:19:00.000Z</time>
      </trkpt>
      <trkpt lat="42.92703" lon="0.58138">
        <ele>1139</ele>
        <time>2019-02-03T14:19:01.000Z</time>
      </trkpt>
      <trkpt lat="42.92704" lon="0.58137">
        <ele>1139</ele>
        <time>2019-02-03T14:19:02.000Z</time>
      </trkpt>
      <trkpt lat="42.92705" lon="0.58136">
        <ele>1138.5</ele>
        <time>2019-02-03T14:19:03.000Z</time>
      </trkpt>
      <trkpt lat="42.92705" lon="0.58135">
        <ele>1138</ele>
        <time>2019-02-03T14:19:04.000Z</time>
      </trkpt>
      <trkpt lat="42.92706" lon="0.58134">
        <ele>1138</ele>
        <time>2019-02-03T14:19:05.000Z</time>
      </trkpt>
      <trkpt lat="42.92707" lon="0.58133">
        <ele>1138</ele>
        <time>2019-02-03T14:19:06.000Z</time>
      </trkpt>
      <trkpt lat="42.92708" lon="0.58132">
        <ele>1138</ele>
        <time>2019-02-03T14:19:07.000Z</time>
      </trkpt>
      <trkpt lat="42.92708" lon="0.58131">
        <ele>1138</ele>
        <time>2019-02-03T14:19:08.000Z</time>
      </trkpt>
      <trkpt lat="42.92709" lon="0.5813">
        <ele>1137.5</ele>
        <time>2019-02-03T14:19:09.000Z</time>
      </trkpt>
      <trkpt lat="42.9271" lon="0.58129">
        <ele>1137</ele>
        <time>2019-02-03T14:19:10.000Z</time>
      </trkpt>
      <trkpt lat="42.92711" lon="0.58128">
        <ele>1137</ele>
        <time>2019-02-03T14:19:11.000Z</time>
      </trkpt>
      <trkpt lat="42.92712" lon="0.58127">
        <ele>1137</ele>
        <time>2019-02-03T14:19:12.000Z</time>
      </trkpt>
      <trkpt lat="42.92713" lon="0.58126">
        <ele>1137</ele>
        <time>2019-02-03T14:19:13.000Z</time>
      </trkpt>
      <trkpt lat="42.92714" lon="0.58125">
        <ele>1137</ele>
        <time>2019-02-03T14:19:14.000Z</time>
      </trkpt>
      <trkpt lat="42.92715" lon="0.58124">
        <ele>1137</ele>
        <time>2019-02-03T14:19:15.000Z</time>
      </trkpt>
      <trkpt lat="42.92716" lon="0.58122">
        <ele>1137</ele>
        <time>2019-02-03T14:19:16.000Z</time>
      </trkpt>
      <trkpt lat="42.92717" lon="0.58121">
        <ele>1137</ele>
        <time>2019-02-03T14:19:17.000Z</time>
      </trkpt>
      <trkpt lat="42.92718" lon="0.58121">
        <ele>1136.7</ele>
        <time>2019-02-03T14:19:18.000Z</time>
      </trkpt>
      <trkpt lat="42.92719" lon="0.5812">
        <ele>1136.3</ele>
        <time>2019-02-03T14:19:19.000Z</time>
      </trkpt>
      <trkpt lat="42.9272" lon="0.5812">
        <ele>1136</ele>
        <time>2019-02-03T14:19:20.000Z</time>
      </trkpt>
      <trkpt lat="42.92721" lon="0.58119">
        <ele>1136</ele>
        <time>2019-02-03T14:19:21.000Z</time>
      </trkpt>
      <trkpt lat="42.92721" lon="0.58118">
        <ele>1136</ele>
        <time>2019-02-03T14:19:22.000Z</time>
      </trkpt>
      <trkpt lat="42.92722" lon="0.58117">
        <ele>1135</ele>
        <time>2019-02-03T14:19:23.000Z</time>
      </trkpt>
      <trkpt lat="42.92723" lon="0.58115">
        <ele>1135</ele>
        <time>2019-02-03T14:19:24.000Z</time>
      </trkpt>
      <trkpt lat="42.92724" lon="0.58114">
        <ele>1135</ele>
        <time>2019-02-03T14:19:25.000Z</time>
      </trkpt>
      <trkpt lat="42.92724" lon="0.58113">
        <ele>1135</ele>
        <time>2019-02-03T14:19:26.000Z</time>
      </trkpt>
      <trkpt lat="42.92725" lon="0.58112">
        <ele>1135</ele>
        <time>2019-02-03T14:19:27.000Z</time>
      </trkpt>
      <trkpt lat="42.92726" lon="0.58111">
        <ele>1135</ele>
        <time>2019-02-03T14:19:28.000Z</time>
      </trkpt>
      <trkpt lat="42.92727" lon="0.5811">
        <ele>1134</ele>
        <time>2019-02-03T14:19:29.000Z</time>
      </trkpt>
      <trkpt lat="42.92728" lon="0.58109">
        <ele>1134</ele>
        <time>2019-02-03T14:19:30.000Z</time>
      </trkpt>
      <trkpt lat="42.92729" lon="0.58108">
        <ele>1134</ele>
        <time>2019-02-03T14:19:31.000Z</time>
      </trkpt>
      <trkpt lat="42.9273" lon="0.58107">
        <ele>1134</ele>
        <time>2019-02-03T14:19:32.000Z</time>
      </trkpt>
      <trkpt lat="42.92731" lon="0.58106">
        <ele>1133.5</ele>
        <time>2019-02-03T14:19:33.000Z</time>
      </trkpt>
      <trkpt lat="42.92732" lon="0.58105">
        <ele>1133</ele>
        <time>2019-02-03T14:19:34.000Z</time>
      </trkpt>
      <trkpt lat="42.92733" lon="0.58105">
        <ele>1133</ele>
        <time>2019-02-03T14:19:35.000Z</time>
      </trkpt>
      <trkpt lat="42.92734" lon="0.58104">
        <ele>1133</ele>
        <time>2019-02-03T14:19:36.000Z</time>
      </trkpt>
      <trkpt lat="42.92735" lon="0.58103">
        <ele>1132.5</ele>
        <time>2019-02-03T14:19:37.000Z</time>
      </trkpt>
      <trkpt lat="42.92735" lon="0.58103">
        <ele>1132</ele>
        <time>2019-02-03T14:19:38.000Z</time>
      </trkpt>
      <trkpt lat="42.92736" lon="0.58102">
        <ele>1132</ele>
        <time>2019-02-03T14:19:39.000Z</time>
      </trkpt>
      <trkpt lat="42.92737" lon="0.58102">
        <ele>1132</ele>
        <time>2019-02-03T14:19:40.000Z</time>
      </trkpt>
      <trkpt lat="42.92737" lon="0.58101">
        <ele>1131</ele>
        <time>2019-02-03T14:19:41.000Z</time>
      </trkpt>
      <trkpt lat="42.92738" lon="0.58101">
        <ele>1131</ele>
        <time>2019-02-03T14:19:42.000Z</time>
      </trkpt>
      <trkpt lat="42.92739" lon="0.581">
        <ele>1131</ele>
        <time>2019-02-03T14:19:43.000Z</time>
      </trkpt>
      <trkpt lat="42.92739" lon="0.581">
        <ele>1131</ele>
        <time>2019-02-03T14:19:44.000Z</time>
      </trkpt>
      <trkpt lat="42.9274" lon="0.581">
        <ele>1130.5</ele>
        <time>2019-02-03T14:19:45.000Z</time>
      </trkpt>
      <trkpt lat="42.92741" lon="0.58099">
        <ele>1130</ele>
        <time>2019-02-03T14:19:46.000Z</time>
      </trkpt>
      <trkpt lat="42.92741" lon="0.58099">
        <ele>1129.5</ele>
        <time>2019-02-03T14:19:47.000Z</time>
      </trkpt>
      <trkpt lat="42.92742" lon="0.58099">
        <ele>1129</ele>
        <time>2019-02-03T14:19:48.000Z</time>
      </trkpt>
      <trkpt lat="42.92743" lon="0.58098">
        <ele>1129</ele>
        <time>2019-02-03T14:19:49.000Z</time>
      </trkpt>
      <trkpt lat="42.92744" lon="0.58098">
        <ele>1128.5</ele>
        <time>2019-02-03T14:19:50.000Z</time>
      </trkpt>
      <trkpt lat="42.92745" lon="0.58098">
        <ele>1128</ele>
        <time>2019-02-03T14:19:51.000Z</time>
      </trkpt>
      <trkpt lat="42.92746" lon="0.58097">
        <ele>1128</ele>
        <time>2019-02-03T14:19:52.000Z</time>
      </trkpt>
      <trkpt lat="42.92747" lon="0.58097">
        <ele>1128</ele>
        <time>2019-02-03T14:19:53.000Z</time>
      </trkpt>
      <trkpt lat="42.92748" lon="0.58097">
        <ele>1128</ele>
        <time>2019-02-03T14:19:54.000Z</time>
      </trkpt>
      <trkpt lat="42.92749" lon="0.58096">
        <ele>1128</ele>
        <time>2019-02-03T14:19:55.000Z</time>
      </trkpt>
      <trkpt lat="42.9275" lon="0.58096">
        <ele>1128</ele>
        <time>2019-02-03T14:19:56.000Z</time>
      </trkpt>
      <trkpt lat="42.9275" lon="0.58095">
        <ele>1127</ele>
        <time>2019-02-03T14:19:57.000Z</time>
      </trkpt>
      <trkpt lat="42.92751" lon="0.58095">
        <ele>1127</ele>
        <time>2019-02-03T14:19:58.000Z</time>
      </trkpt>
      <trkpt lat="42.92752" lon="0.58094">
        <ele>1127</ele>
        <time>2019-02-03T14:19:59.000Z</time>
      </trkpt>
      <trkpt lat="42.92753" lon="0.58094">
        <ele>1127</ele>
        <time>2019-02-03T14:20:00.000Z</time>
      </trkpt>
      <trkpt lat="42.92754" lon="0.58094">
        <ele>1126.5</ele>
        <time>2019-02-03T14:20:01.000Z</time>
      </trkpt>
      <trkpt lat="42.92754" lon="0.58094">
        <ele>1126</ele>
        <time>2019-02-03T14:20:02.000Z</time>
      </trkpt>
      <trkpt lat="42.92755" lon="0.58094">
        <ele>1126</ele>
        <time>2019-02-03T14:20:03.000Z</time>
      </trkpt>
      <trkpt lat="42.92756" lon="0.58093">
        <ele>1126</ele>
        <time>2019-02-03T14:20:04.000Z</time>
      </trkpt>
      <trkpt lat="42.92757" lon="0.58093">
        <ele>1125.5</ele>
        <time>2019-02-03T14:20:05.000Z</time>
      </trkpt>
      <trkpt lat="42.92758" lon="0.58093">
        <ele>1125</ele>
        <time>2019-02-03T14:20:06.000Z</time>
      </trkpt>
      <trkpt lat="42.92759" lon="0.58093">
        <ele>1125</ele>
        <time>2019-02-03T14:20:07.000Z</time>
      </trkpt>
      <trkpt lat="42.92759" lon="0.58093">
        <ele>1125</ele>
        <time>2019-02-03T14:20:08.000Z</time>
      </trkpt>
      <trkpt lat="42.9276" lon="0.58093">
        <ele>1124</ele>
        <time>2019-02-03T14:20:09.000Z</time>
      </trkpt>
      <trkpt lat="42.92761" lon="0.58093">
        <ele>1124</ele>
        <time>2019-02-03T14:20:10.000Z</time>
      </trkpt>
      <trkpt lat="42.92761" lon="0.58093">
        <ele>1124</ele>
        <time>2019-02-03T14:20:11.000Z</time>
      </trkpt>
      <trkpt lat="42.92762" lon="0.58093">
        <ele>1124</ele>
        <time>2019-02-03T14:20:12.000Z</time>
      </trkpt>
      <trkpt lat="42.92763" lon="0.58093">
        <ele>1124</ele>
        <time>2019-02-03T14:20:13.000Z</time>
      </trkpt>
      <trkpt lat="42.92763" lon="0.58093">
        <ele>1124</ele>
        <time>2019-02-03T14:20:14.000Z</time>
      </trkpt>
      <trkpt lat="42.92763" lon="0.58093">
        <ele>1124</ele>
        <time>2019-02-03T14:20:15.000Z</time>
      </trkpt>
      <trkpt lat="42.92764" lon="0.58093">
        <ele>1124</ele>
        <time>2019-02-03T14:20:16.000Z</time>
      </trkpt>
      <trkpt lat="42.92764" lon="0.58092">
        <ele>1123</ele>
        <time>2019-02-03T14:20:17.000Z</time>
      </trkpt>
      <trkpt lat="42.92764" lon="0.58092">
        <ele>1123</ele>
        <time>2019-02-03T14:20:18.000Z</time>
      </trkpt>
      <trkpt lat="42.92764" lon="0.58092">
        <ele>1123</ele>
        <time>2019-02-03T14:20:19.000Z</time>
      </trkpt>
      <trkpt lat="42.92764" lon="0.58092">
        <ele>1123</ele>
        <time>2019-02-03T14:20:20.000Z</time>
      </trkpt>
      <trkpt lat="42.92764" lon="0.58092">
        <ele>1123</ele>
        <time>2019-02-03T14:20:21.000Z</time>
      </trkpt>
      <trkpt lat="42.92764" lon="0.58092">
        <ele>1123</ele>
        <time>2019-02-03T14:20:22.000Z</time>
      </trkpt>
      <trkpt lat="42.92764" lon="0.58092">
        <ele>1123</ele>
        <time>2019-02-03T14:20:23.000Z</time>
      </trkpt>
      <trkpt lat="42.92764" lon="0.58092">
        <ele>1123</ele>
        <time>2019-02-03T14:20:24.000Z</time>
      </trkpt>
      <trkpt lat="42.92764" lon="0.58092">
        <ele>1123</ele>
        <time>2019-02-03T14:20:25.000Z</time>
      </trkpt>
      <trkpt lat="42.92765" lon="0.58092">
        <ele>1123.3</ele>
        <time>2019-02-03T14:20:26.000Z</time>
      </trkpt>
      <trkpt lat="42.92765" lon="0.58092">
        <ele>1123.7</ele>
        <time>2019-02-03T14:20:27.000Z</time>
      </trkpt>
      <trkpt lat="42.92766" lon="0.58091">
        <ele>1124</ele>
        <time>2019-02-03T14:20:28.000Z</time>
      </trkpt>
      <trkpt lat="42.92767" lon="0.58091">
        <ele>1123</ele>
        <time>2019-02-03T14:20:29.000Z</time>
      </trkpt>
      <trkpt lat="42.92768" lon="0.58091">
        <ele>1123</ele>
        <time>2019-02-03T14:20:30.000Z</time>
      </trkpt>
      <trkpt lat="42.92769" lon="0.58091">
        <ele>1123</ele>
        <time>2019-02-03T14:20:31.000Z</time>
      </trkpt>
      <trkpt lat="42.92769" lon="0.58091">
        <ele>1123</ele>
        <time>2019-02-03T14:20:32.000Z</time>
      </trkpt>
      <trkpt lat="42.9277" lon="0.58091">
        <ele>1123</ele>
        <time>2019-02-03T14:20:33.000Z</time>
      </trkpt>
      <trkpt lat="42.92771" lon="0.58091">
        <ele>1122.7</ele>
        <time>2019-02-03T14:20:34.000Z</time>
      </trkpt>
      <trkpt lat="42.92772" lon="0.58091">
        <ele>1122.3</ele>
        <time>2019-02-03T14:20:35.000Z</time>
      </trkpt>
      <trkpt lat="42.92773" lon="0.58091">
        <ele>1122</ele>
        <time>2019-02-03T14:20:36.000Z</time>
      </trkpt>
      <trkpt lat="42.92774" lon="0.58091">
        <ele>1122</ele>
        <time>2019-02-03T14:20:37.000Z</time>
      </trkpt>
      <trkpt lat="42.92774" lon="0.58091">
        <ele>1122</ele>
        <time>2019-02-03T14:20:38.000Z</time>
      </trkpt>
      <trkpt lat="42.92775" lon="0.58091">
        <ele>1121</ele>
        <time>2019-02-03T14:20:39.000Z</time>
      </trkpt>
      <trkpt lat="42.92775" lon="0.58091">
        <ele>1121</ele>
        <time>2019-02-03T14:20:40.000Z</time>
      </trkpt>
      <trkpt lat="42.92776" lon="0.58091">
        <ele>1121</ele>
        <time>2019-02-03T14:20:41.000Z</time>
      </trkpt>
      <trkpt lat="42.92776" lon="0.58091">
        <ele>1121</ele>
        <time>2019-02-03T14:20:42.000Z</time>
      </trkpt>
      <trkpt lat="42.92776" lon="0.58091">
        <ele>1121</ele>
        <time>2019-02-03T14:20:43.000Z</time>
      </trkpt>
      <trkpt lat="42.92777" lon="0.58091">
        <ele>1121</ele>
        <time>2019-02-03T14:20:44.000Z</time>
      </trkpt>
      <trkpt lat="42.92777" lon="0.58091">
        <ele>1121</ele>
        <time>2019-02-03T14:20:45.000Z</time>
      </trkpt>
      <trkpt lat="42.92777" lon="0.58091">
        <ele>1121</ele>
        <time>2019-02-03T14:20:46.000Z</time>
      </trkpt>
      <trkpt lat="42.92777" lon="0.5809">
        <ele>1121</ele>
        <time>2019-02-03T14:20:47.000Z</time>
      </trkpt>
      <trkpt lat="42.92777" lon="0.5809">
        <ele>1121</ele>
        <time>2019-02-03T14:20:48.000Z</time>
      </trkpt>
      <trkpt lat="42.92777" lon="0.5809">
        <ele>1121</ele>
        <time>2019-02-03T14:20:49.000Z</time>
      </trkpt>
      <trkpt lat="42.92777" lon="0.5809">
        <ele>1121</ele>
        <time>2019-02-03T14:20:50.000Z</time>
      </trkpt>
      <trkpt lat="42.92777" lon="0.5809">
        <ele>1121</ele>
        <time>2019-02-03T14:20:51.000Z</time>
      </trkpt>
      <trkpt lat="42.92777" lon="0.5809">
        <ele>1121</ele>
        <time>2019-02-03T14:20:52.000Z</time>
      </trkpt>
      <trkpt lat="42.92777" lon="0.5809">
        <ele>1121</ele>
        <time>2019-02-03T14:20:53.000Z</time>
      </trkpt>
      <trkpt lat="42.92777" lon="0.5809">
        <ele>1121</ele>
        <time>2019-02-03T14:20:54.000Z</time>
      </trkpt>
      <trkpt lat="42.92777" lon="0.5809">
        <ele>1121</ele>
        <time>2019-02-03T14:20:55.000Z</time>
      </trkpt>
      <trkpt lat="42.92777" lon="0.5809">
        <ele>1121</ele>
        <time>2019-02-03T14:20:56.000Z</time>
      </trkpt>
      <trkpt lat="42.92777" lon="0.5809">
        <ele>1121</ele>
        <time>2019-02-03T14:20:57.000Z</time>
      </trkpt>
      <trkpt lat="42.92777" lon="0.5809">
        <ele>1121</ele>
        <time>2019-02-03T14:20:58.000Z</time>
      </trkpt>
      <trkpt lat="42.92778" lon="0.58089">
        <ele>1121</ele>
        <time>2019-02-03T14:20:59.000Z</time>
      </trkpt>
      <trkpt lat="42.92778" lon="0.58089">
        <ele>1121</ele>
        <time>2019-02-03T14:21:00.000Z</time>
      </trkpt>
      <trkpt lat="42.92778" lon="0.58088">
        <ele>1121</ele>
        <time>2019-02-03T14:21:01.000Z</time>
      </trkpt>
      <trkpt lat="42.92779" lon="0.58088">
        <ele>1120.7</ele>
        <time>2019-02-03T14:21:02.000Z</time>
      </trkpt>
      <trkpt lat="42.92779" lon="0.58087">
        <ele>1120.3</ele>
        <time>2019-02-03T14:21:03.000Z</time>
      </trkpt>
      <trkpt lat="42.9278" lon="0.58087">
        <ele>1120</ele>
        <time>2019-02-03T14:21:04.000Z</time>
      </trkpt>
      <trkpt lat="42.92781" lon="0.58087">
        <ele>1120</ele>
        <time>2019-02-03T14:21:05.000Z</time>
      </trkpt>
      <trkpt lat="42.92782" lon="0.58087">
        <ele>1120</ele>
        <time>2019-02-03T14:21:06.000Z</time>
      </trkpt>
      <trkpt lat="42.92783" lon="0.58087">
        <ele>1119</ele>
        <time>2019-02-03T14:21:07.000Z</time>
      </trkpt>
      <trkpt lat="42.92784" lon="0.58087">
        <ele>1119</ele>
        <time>2019-02-03T14:21:08.000Z</time>
      </trkpt>
      <trkpt lat="42.92785" lon="0.58087">
        <ele>1119</ele>
        <time>2019-02-03T14:21:09.000Z</time>
      </trkpt>
      <trkpt lat="42.92785" lon="0.58087">
        <ele>1119</ele>
        <time>2019-02-03T14:21:10.000Z</time>
      </trkpt>
      <trkpt lat="42.92786" lon="0.58087">
        <ele>1119</ele>
        <time>2019-02-03T14:21:11.000Z</time>
      </trkpt>
      <trkpt lat="42.92787" lon="0.58087">
        <ele>1119</ele>
        <time>2019-02-03T14:21:12.000Z</time>
      </trkpt>
      <trkpt lat="42.92788" lon="0.58087">
        <ele>1118.5</ele>
        <time>2019-02-03T14:21:13.000Z</time>
      </trkpt>
      <trkpt lat="42.92789" lon="0.58087">
        <ele>1118</ele>
        <time>2019-02-03T14:21:14.000Z</time>
      </trkpt>
      <trkpt lat="42.9279" lon="0.58087">
        <ele>1118</ele>
        <time>2019-02-03T14:21:15.000Z</time>
      </trkpt>
      <trkpt lat="42.9279" lon="0.58087">
        <ele>1118</ele>
        <time>2019-02-03T14:21:16.000Z</time>
      </trkpt>
      <trkpt lat="42.92791" lon="0.58086">
        <ele>1118</ele>
        <time>2019-02-03T14:21:17.000Z</time>
      </trkpt>
      <trkpt lat="42.92792" lon="0.58086">
        <ele>1118</ele>
        <time>2019-02-03T14:21:18.000Z</time>
      </trkpt>
      <trkpt lat="42.92793" lon="0.58086">
        <ele>1117.5</ele>
        <time>2019-02-03T14:21:19.000Z</time>
      </trkpt>
      <trkpt lat="42.92794" lon="0.58086">
        <ele>1117</ele>
        <time>2019-02-03T14:21:20.000Z</time>
      </trkpt>
      <trkpt lat="42.92795" lon="0.58086">
        <ele>1117</ele>
        <time>2019-02-03T14:21:21.000Z</time>
      </trkpt>
      <trkpt lat="42.92796" lon="0.58085">
        <ele>1117</ele>
        <time>2019-02-03T14:21:22.000Z</time>
      </trkpt>
      <trkpt lat="42.92797" lon="0.58085">
        <ele>1116.5</ele>
        <time>2019-02-03T14:21:23.000Z</time>
      </trkpt>
      <trkpt lat="42.92798" lon="0.58085">
        <ele>1116</ele>
        <time>2019-02-03T14:21:24.000Z</time>
      </trkpt>
      <trkpt lat="42.92799" lon="0.58085">
        <ele>1116</ele>
        <time>2019-02-03T14:21:25.000Z</time>
      </trkpt>
      <trkpt lat="42.928" lon="0.58084">
        <ele>1115.7</ele>
        <time>2019-02-03T14:21:26.000Z</time>
      </trkpt>
      <trkpt lat="42.92801" lon="0.58084">
        <ele>1115.3</ele>
        <time>2019-02-03T14:21:27.000Z</time>
      </trkpt>
      <trkpt lat="42.92802" lon="0.58083">
        <ele>1115</ele>
        <time>2019-02-03T14:21:28.000Z</time>
      </trkpt>
      <trkpt lat="42.92803" lon="0.58083">
        <ele>1115</ele>
        <time>2019-02-03T14:21:29.000Z</time>
      </trkpt>
      <trkpt lat="42.92804" lon="0.58082">
        <ele>1114.7</ele>
        <time>2019-02-03T14:21:30.000Z</time>
      </trkpt>
      <trkpt lat="42.92805" lon="0.58082">
        <ele>1114.3</ele>
        <time>2019-02-03T14:21:31.000Z</time>
      </trkpt>
      <trkpt lat="42.92806" lon="0.58081">
        <ele>1114</ele>
        <time>2019-02-03T14:21:32.000Z</time>
      </trkpt>
      <trkpt lat="42.92807" lon="0.5808">
        <ele>1114</ele>
        <time>2019-02-03T14:21:33.000Z</time>
      </trkpt>
      <trkpt lat="42.92808" lon="0.58079">
        <ele>1114</ele>
        <time>2019-02-03T14:21:34.000Z</time>
      </trkpt>
      <trkpt lat="42.92809" lon="0.58078">
        <ele>1113.5</ele>
        <time>2019-02-03T14:21:35.000Z</time>
      </trkpt>
      <trkpt lat="42.9281" lon="0.58078">
        <ele>1113</ele>
        <time>2019-02-03T14:21:36.000Z</time>
      </trkpt>
      <trkpt lat="42.92811" lon="0.58077">
        <ele>1112.5</ele>
        <time>2019-02-03T14:21:37.000Z</time>
      </trkpt>
      <trkpt lat="42.92812" lon="0.58076">
        <ele>1112</ele>
        <time>2019-02-03T14:21:38.000Z</time>
      </trkpt>
      <trkpt lat="42.92813" lon="0.58075">
        <ele>1112</ele>
        <time>2019-02-03T14:21:39.000Z</time>
      </trkpt>
      <trkpt lat="42.92813" lon="0.58074">
        <ele>1112</ele>
        <time>2019-02-03T14:21:40.000Z</time>
      </trkpt>
      <trkpt lat="42.92814" lon="0.58073">
        <ele>1111.5</ele>
        <time>2019-02-03T14:21:41.000Z</time>
      </trkpt>
      <trkpt lat="42.92815" lon="0.58072">
        <ele>1111</ele>
        <time>2019-02-03T14:21:42.000Z</time>
      </trkpt>
      <trkpt lat="42.92815" lon="0.5807">
        <ele>1110</ele>
        <time>2019-02-03T14:21:43.000Z</time>
      </trkpt>
      <trkpt lat="42.92816" lon="0.58069">
        <ele>1110</ele>
        <time>2019-02-03T14:21:44.000Z</time>
      </trkpt>
      <trkpt lat="42.92816" lon="0.58068">
        <ele>1110</ele>
        <time>2019-02-03T14:21:45.000Z</time>
      </trkpt>
      <trkpt lat="42.92817" lon="0.58067">
        <ele>1110</ele>
        <time>2019-02-03T14:21:46.000Z</time>
      </trkpt>
      <trkpt lat="42.92817" lon="0.58066">
        <ele>1110</ele>
        <time>2019-02-03T14:21:47.000Z</time>
      </trkpt>
      <trkpt lat="42.92818" lon="0.58065">
        <ele>1110</ele>
        <time>2019-02-03T14:21:48.000Z</time>
      </trkpt>
      <trkpt lat="42.92819" lon="0.58065">
        <ele>1110</ele>
        <time>2019-02-03T14:21:49.000Z</time>
      </trkpt>
      <trkpt lat="42.92819" lon="0.58064">
        <ele>1110</ele>
        <time>2019-02-03T14:21:50.000Z</time>
      </trkpt>
      <trkpt lat="42.9282" lon="0.58063">
        <ele>1109.5</ele>
        <time>2019-02-03T14:21:51.000Z</time>
      </trkpt>
      <trkpt lat="42.9282" lon="0.58062">
        <ele>1109</ele>
        <time>2019-02-03T14:21:52.000Z</time>
      </trkpt>
      <trkpt lat="42.92821" lon="0.58061">
        <ele>1109</ele>
        <time>2019-02-03T14:21:53.000Z</time>
      </trkpt>
      <trkpt lat="42.92822" lon="0.5806">
        <ele>1109</ele>
        <time>2019-02-03T14:21:54.000Z</time>
      </trkpt>
      <trkpt lat="42.92822" lon="0.58059">
        <ele>1109</ele>
        <time>2019-02-03T14:21:55.000Z</time>
      </trkpt>
      <trkpt lat="42.92823" lon="0.58057">
        <ele>1109</ele>
        <time>2019-02-03T14:21:56.000Z</time>
      </trkpt>
      <trkpt lat="42.92823" lon="0.58056">
        <ele>1108.5</ele>
        <time>2019-02-03T14:21:57.000Z</time>
      </trkpt>
      <trkpt lat="42.92824" lon="0.58055">
        <ele>1108</ele>
        <time>2019-02-03T14:21:58.000Z</time>
      </trkpt>
      <trkpt lat="42.92824" lon="0.58053">
        <ele>1108</ele>
        <time>2019-02-03T14:21:59.000Z</time>
      </trkpt>
      <trkpt lat="42.92825" lon="0.58052">
        <ele>1108</ele>
        <time>2019-02-03T14:22:00.000Z</time>
      </trkpt>
      <trkpt lat="42.92825" lon="0.5805">
        <ele>1107.5</ele>
        <time>2019-02-03T14:22:01.000Z</time>
      </trkpt>
      <trkpt lat="42.92826" lon="0.58049">
        <ele>1107</ele>
        <time>2019-02-03T14:22:02.000Z</time>
      </trkpt>
      <trkpt lat="42.92826" lon="0.58047">
        <ele>1107</ele>
        <time>2019-02-03T14:22:03.000Z</time>
      </trkpt>
      <trkpt lat="42.92827" lon="0.58046">
        <ele>1107</ele>
        <time>2019-02-03T14:22:04.000Z</time>
      </trkpt>
      <trkpt lat="42.92827" lon="0.58044">
        <ele>1106</ele>
        <time>2019-02-03T14:22:05.000Z</time>
      </trkpt>
      <trkpt lat="42.92828" lon="0.58043">
        <ele>1106</ele>
        <time>2019-02-03T14:22:06.000Z</time>
      </trkpt>
      <trkpt lat="42.92828" lon="0.58041">
        <ele>1106</ele>
        <time>2019-02-03T14:22:07.000Z</time>
      </trkpt>
      <trkpt lat="42.92828" lon="0.5804">
        <ele>1106</ele>
        <time>2019-02-03T14:22:08.000Z</time>
      </trkpt>
      <trkpt lat="42.92829" lon="0.58039">
        <ele>1106</ele>
        <time>2019-02-03T14:22:09.000Z</time>
      </trkpt>
      <trkpt lat="42.92829" lon="0.58037">
        <ele>1105.7</ele>
        <time>2019-02-03T14:22:10.000Z</time>
      </trkpt>
      <trkpt lat="42.92829" lon="0.58036">
        <ele>1105.3</ele>
        <time>2019-02-03T14:22:11.000Z</time>
      </trkpt>
      <trkpt lat="42.9283" lon="0.58035">
        <ele>1105</ele>
        <time>2019-02-03T14:22:12.000Z</time>
      </trkpt>
      <trkpt lat="42.9283" lon="0.58034">
        <ele>1104.5</ele>
        <time>2019-02-03T14:22:13.000Z</time>
      </trkpt>
      <trkpt lat="42.9283" lon="0.58033">
        <ele>1104</ele>
        <time>2019-02-03T14:22:14.000Z</time>
      </trkpt>
      <trkpt lat="42.9283" lon="0.58031">
        <ele>1104</ele>
        <time>2019-02-03T14:22:15.000Z</time>
      </trkpt>
      <trkpt lat="42.92831" lon="0.5803">
        <ele>1104</ele>
        <time>2019-02-03T14:22:16.000Z</time>
      </trkpt>
      <trkpt lat="42.92831" lon="0.58029">
        <ele>1103.5</ele>
        <time>2019-02-03T14:22:17.000Z</time>
      </trkpt>
      <trkpt lat="42.92831" lon="0.58028">
        <ele>1103</ele>
        <time>2019-02-03T14:22:18.000Z</time>
      </trkpt>
      <trkpt lat="42.92831" lon="0.58027">
        <ele>1103</ele>
        <time>2019-02-03T14:22:19.000Z</time>
      </trkpt>
      <trkpt lat="42.92832" lon="0.58025">
        <ele>1103</ele>
        <time>2019-02-03T14:22:20.000Z</time>
      </trkpt>
      <trkpt lat="42.92832" lon="0.58024">
        <ele>1102</ele>
        <time>2019-02-03T14:22:21.000Z</time>
      </trkpt>
      <trkpt lat="42.92832" lon="0.58023">
        <ele>1102</ele>
        <time>2019-02-03T14:22:22.000Z</time>
      </trkpt>
      <trkpt lat="42.92832" lon="0.58022">
        <ele>1102</ele>
        <time>2019-02-03T14:22:23.000Z</time>
      </trkpt>
      <trkpt lat="42.92832" lon="0.5802">
        <ele>1102</ele>
        <time>2019-02-03T14:22:24.000Z</time>
      </trkpt>
      <trkpt lat="42.92833" lon="0.58019">
        <ele>1101.5</ele>
        <time>2019-02-03T14:22:25.000Z</time>
      </trkpt>
      <trkpt lat="42.92833" lon="0.58018">
        <ele>1101</ele>
        <time>2019-02-03T14:22:26.000Z</time>
      </trkpt>
      <trkpt lat="42.92833" lon="0.58017">
        <ele>1101</ele>
        <time>2019-02-03T14:22:27.000Z</time>
      </trkpt>
      <trkpt lat="42.92834" lon="0.58016">
        <ele>1101</ele>
        <time>2019-02-03T14:22:28.000Z</time>
      </trkpt>
      <trkpt lat="42.92834" lon="0.58015">
        <ele>1100.5</ele>
        <time>2019-02-03T14:22:29.000Z</time>
      </trkpt>
      <trkpt lat="42.92834" lon="0.58014">
        <ele>1100</ele>
        <time>2019-02-03T14:22:30.000Z</time>
      </trkpt>
      <trkpt lat="42.92835" lon="0.58012">
        <ele>1100</ele>
        <time>2019-02-03T14:22:31.000Z</time>
      </trkpt>
      <trkpt lat="42.92835" lon="0.58011">
        <ele>1100</ele>
        <time>2019-02-03T14:22:32.000Z</time>
      </trkpt>
      <trkpt lat="42.92835" lon="0.58011">
        <ele>1100</ele>
        <time>2019-02-03T14:22:33.000Z</time>
      </trkpt>
      <trkpt lat="42.92836" lon="0.5801">
        <ele>1100</ele>
        <time>2019-02-03T14:22:34.000Z</time>
      </trkpt>
      <trkpt lat="42.92836" lon="0.58009">
        <ele>1099</ele>
        <time>2019-02-03T14:22:35.000Z</time>
      </trkpt>
      <trkpt lat="42.92837" lon="0.58008">
        <ele>1098.7</ele>
        <time>2019-02-03T14:22:36.000Z</time>
      </trkpt>
      <trkpt lat="42.92837" lon="0.58007">
        <ele>1098.3</ele>
        <time>2019-02-03T14:22:37.000Z</time>
      </trkpt>
      <trkpt lat="42.92837" lon="0.58006">
        <ele>1098</ele>
        <time>2019-02-03T14:22:38.000Z</time>
      </trkpt>
      <trkpt lat="42.92838" lon="0.58005">
        <ele>1098</ele>
        <time>2019-02-03T14:22:39.000Z</time>
      </trkpt>
      <trkpt lat="42.92838" lon="0.58004">
        <ele>1098</ele>
        <time>2019-02-03T14:22:40.000Z</time>
      </trkpt>
      <trkpt lat="42.92839" lon="0.58003">
        <ele>1098</ele>
        <time>2019-02-03T14:22:41.000Z</time>
      </trkpt>
      <trkpt lat="42.92839" lon="0.58002">
        <ele>1098</ele>
        <time>2019-02-03T14:22:42.000Z</time>
      </trkpt>
      <trkpt lat="42.9284" lon="0.58001">
        <ele>1097.5</ele>
        <time>2019-02-03T14:22:43.000Z</time>
      </trkpt>
      <trkpt lat="42.9284" lon="0.58">
        <ele>1097</ele>
        <time>2019-02-03T14:22:44.000Z</time>
      </trkpt>
      <trkpt lat="42.92841" lon="0.57999">
        <ele>1097</ele>
        <time>2019-02-03T14:22:45.000Z</time>
      </trkpt>
      <trkpt lat="42.92841" lon="0.57998">
        <ele>1097</ele>
        <time>2019-02-03T14:22:46.000Z</time>
      </trkpt>
      <trkpt lat="42.92841" lon="0.57997">
        <ele>1096</ele>
        <time>2019-02-03T14:22:47.000Z</time>
      </trkpt>
      <trkpt lat="42.92842" lon="0.57996">
        <ele>1096</ele>
        <time>2019-02-03T14:22:48.000Z</time>
      </trkpt>
      <trkpt lat="42.92842" lon="0.57994">
        <ele>1096</ele>
        <time>2019-02-03T14:22:49.000Z</time>
      </trkpt>
      <trkpt lat="42.92842" lon="0.57993">
        <ele>1096</ele>
        <time>2019-02-03T14:22:50.000Z</time>
      </trkpt>
      <trkpt lat="42.92843" lon="0.57992">
        <ele>1095</ele>
        <time>2019-02-03T14:22:51.000Z</time>
      </trkpt>
      <trkpt lat="42.92843" lon="0.57991">
        <ele>1094.7</ele>
        <time>2019-02-03T14:22:52.000Z</time>
      </trkpt>
      <trkpt lat="42.92843" lon="0.5799">
        <ele>1094.3</ele>
        <time>2019-02-03T14:22:53.000Z</time>
      </trkpt>
      <trkpt lat="42.92843" lon="0.57989">
        <ele>1094</ele>
        <time>2019-02-03T14:22:54.000Z</time>
      </trkpt>
      <trkpt lat="42.92844" lon="0.57988">
        <ele>1094</ele>
        <time>2019-02-03T14:22:55.000Z</time>
      </trkpt>
      <trkpt lat="42.92844" lon="0.57987">
        <ele>1094</ele>
        <time>2019-02-03T14:22:56.000Z</time>
      </trkpt>
      <trkpt lat="42.92844" lon="0.57986">
        <ele>1093</ele>
        <time>2019-02-03T14:22:57.000Z</time>
      </trkpt>
      <trkpt lat="42.92844" lon="0.57985">
        <ele>1093</ele>
        <time>2019-02-03T14:22:58.000Z</time>
      </trkpt>
      <trkpt lat="42.92844" lon="0.57984">
        <ele>1093</ele>
        <time>2019-02-03T14:22:59.000Z</time>
      </trkpt>
      <trkpt lat="42.92845" lon="0.57983">
        <ele>1093</ele>
        <time>2019-02-03T14:23:00.000Z</time>
      </trkpt>
      <trkpt lat="42.92845" lon="0.57982">
        <ele>1092.5</ele>
        <time>2019-02-03T14:23:01.000Z</time>
      </trkpt>
      <trkpt lat="42.92845" lon="0.57981">
        <ele>1092</ele>
        <time>2019-02-03T14:23:02.000Z</time>
      </trkpt>
      <trkpt lat="42.92845" lon="0.5798">
        <ele>1091.5</ele>
        <time>2019-02-03T14:23:03.000Z</time>
      </trkpt>
      <trkpt lat="42.92846" lon="0.57979">
        <ele>1091</ele>
        <time>2019-02-03T14:23:04.000Z</time>
      </trkpt>
      <trkpt lat="42.92846" lon="0.57977">
        <ele>1091</ele>
        <time>2019-02-03T14:23:05.000Z</time>
      </trkpt>
      <trkpt lat="42.92846" lon="0.57976">
        <ele>1091</ele>
        <time>2019-02-03T14:23:06.000Z</time>
      </trkpt>
      <trkpt lat="42.92846" lon="0.57975">
        <ele>1090</ele>
        <time>2019-02-03T14:23:07.000Z</time>
      </trkpt>
      <trkpt lat="42.92847" lon="0.57974">
        <ele>1090</ele>
        <time>2019-02-03T14:23:08.000Z</time>
      </trkpt>
      <trkpt lat="42.92847" lon="0.57973">
        <ele>1090</ele>
        <time>2019-02-03T14:23:09.000Z</time>
      </trkpt>
      <trkpt lat="42.92847" lon="0.57972">
        <ele>1090</ele>
        <time>2019-02-03T14:23:10.000Z</time>
      </trkpt>
      <trkpt lat="42.92848" lon="0.57971">
        <ele>1089.5</ele>
        <time>2019-02-03T14:23:11.000Z</time>
      </trkpt>
      <trkpt lat="42.92848" lon="0.5797">
        <ele>1089</ele>
        <time>2019-02-03T14:23:12.000Z</time>
      </trkpt>
      <trkpt lat="42.92848" lon="0.57969">
        <ele>1088.5</ele>
        <time>2019-02-03T14:23:13.000Z</time>
      </trkpt>
      <trkpt lat="42.92849" lon="0.57968">
        <ele>1088</ele>
        <time>2019-02-03T14:23:14.000Z</time>
      </trkpt>
      <trkpt lat="42.92849" lon="0.57967">
        <ele>1088</ele>
        <time>2019-02-03T14:23:15.000Z</time>
      </trkpt>
      <trkpt lat="42.92849" lon="0.57966">
        <ele>1088</ele>
        <time>2019-02-03T14:23:16.000Z</time>
      </trkpt>
      <trkpt lat="42.9285" lon="0.57965">
        <ele>1087.5</ele>
        <time>2019-02-03T14:23:17.000Z</time>
      </trkpt>
      <trkpt lat="42.9285" lon="0.57964">
        <ele>1087</ele>
        <time>2019-02-03T14:23:18.000Z</time>
      </trkpt>
      <trkpt lat="42.92851" lon="0.57962">
        <ele>1087</ele>
        <time>2019-02-03T14:23:19.000Z</time>
      </trkpt>
      <trkpt lat="42.92851" lon="0.57961">
        <ele>1087</ele>
        <time>2019-02-03T14:23:20.000Z</time>
      </trkpt>
      <trkpt lat="42.92852" lon="0.5796">
        <ele>1086</ele>
        <time>2019-02-03T14:23:21.000Z</time>
      </trkpt>
      <trkpt lat="42.92852" lon="0.57959">
        <ele>1086</ele>
        <time>2019-02-03T14:23:22.000Z</time>
      </trkpt>
      <trkpt lat="42.92852" lon="0.57958">
        <ele>1086</ele>
        <time>2019-02-03T14:23:23.000Z</time>
      </trkpt>
      <trkpt lat="42.92853" lon="0.57957">
        <ele>1086</ele>
        <time>2019-02-03T14:23:24.000Z</time>
      </trkpt>
      <trkpt lat="42.92853" lon="0.57956">
        <ele>1085.5</ele>
        <time>2019-02-03T14:23:25.000Z</time>
      </trkpt>
      <trkpt lat="42.92853" lon="0.57955">
        <ele>1085</ele>
        <time>2019-02-03T14:23:26.000Z</time>
      </trkpt>
      <trkpt lat="42.92853" lon="0.57954">
        <ele>1085</ele>
        <time>2019-02-03T14:23:27.000Z</time>
      </trkpt>
      <trkpt lat="42.92853" lon="0.57954">
        <ele>1085</ele>
        <time>2019-02-03T14:23:28.000Z</time>
      </trkpt>
      <trkpt lat="42.92853" lon="0.57954">
        <ele>1084</ele>
        <time>2019-02-03T14:23:29.000Z</time>
      </trkpt>
      <trkpt lat="42.92853" lon="0.57954">
        <ele>1084</ele>
        <time>2019-02-03T14:23:30.000Z</time>
      </trkpt>
      <trkpt lat="42.92853" lon="0.57953">
        <ele>1084</ele>
        <time>2019-02-03T14:23:31.000Z</time>
      </trkpt>
      <trkpt lat="42.92853" lon="0.57953">
        <ele>1084</ele>
        <time>2019-02-03T14:23:32.000Z</time>
      </trkpt>
      <trkpt lat="42.92853" lon="0.57952">
        <ele>1084</ele>
        <time>2019-02-03T14:23:33.000Z</time>
      </trkpt>
      <trkpt lat="42.92853" lon="0.57952">
        <ele>1084</ele>
        <time>2019-02-03T14:23:34.000Z</time>
      </trkpt>
      <trkpt lat="42.92854" lon="0.57951">
        <ele>1083</ele>
        <time>2019-02-03T14:23:35.000Z</time>
      </trkpt>
      <trkpt lat="42.92854" lon="0.5795">
        <ele>1083</ele>
        <time>2019-02-03T14:23:36.000Z</time>
      </trkpt>
      <trkpt lat="42.92855" lon="0.57949">
        <ele>1083</ele>
        <time>2019-02-03T14:23:37.000Z</time>
      </trkpt>
      <trkpt lat="42.92855" lon="0.57947">
        <ele>1083</ele>
        <time>2019-02-03T14:23:38.000Z</time>
      </trkpt>
      <trkpt lat="42.92855" lon="0.57946">
        <ele>1082.5</ele>
        <time>2019-02-03T14:23:39.000Z</time>
      </trkpt>
      <trkpt lat="42.92856" lon="0.57945">
        <ele>1082</ele>
        <time>2019-02-03T14:23:40.000Z</time>
      </trkpt>
      <trkpt lat="42.92856" lon="0.57943">
        <ele>1082</ele>
        <time>2019-02-03T14:23:41.000Z</time>
      </trkpt>
      <trkpt lat="42.92857" lon="0.57942">
        <ele>1082</ele>
        <time>2019-02-03T14:23:42.000Z</time>
      </trkpt>
      <trkpt lat="42.92857" lon="0.57941">
        <ele>1081.5</ele>
        <time>2019-02-03T14:23:43.000Z</time>
      </trkpt>
      <trkpt lat="42.92858" lon="0.5794">
        <ele>1081</ele>
        <time>2019-02-03T14:23:44.000Z</time>
      </trkpt>
      <trkpt lat="42.92858" lon="0.57938">
        <ele>1081</ele>
        <time>2019-02-03T14:23:45.000Z</time>
      </trkpt>
      <trkpt lat="42.92859" lon="0.57937">
        <ele>1081</ele>
        <time>2019-02-03T14:23:46.000Z</time>
      </trkpt>
      <trkpt lat="42.92859" lon="0.57936">
        <ele>1081</ele>
        <time>2019-02-03T14:23:47.000Z</time>
      </trkpt>
      <trkpt lat="42.92859" lon="0.57935">
        <ele>1080.7</ele>
        <time>2019-02-03T14:23:48.000Z</time>
      </trkpt>
      <trkpt lat="42.92859" lon="0.57934">
        <ele>1080.3</ele>
        <time>2019-02-03T14:23:49.000Z</time>
      </trkpt>
      <trkpt lat="42.92859" lon="0.57934">
        <ele>1080</ele>
        <time>2019-02-03T14:23:50.000Z</time>
      </trkpt>
      <trkpt lat="42.92859" lon="0.57933">
        <ele>1080</ele>
        <time>2019-02-03T14:23:51.000Z</time>
      </trkpt>
      <trkpt lat="42.92859" lon="0.57933">
        <ele>1080</ele>
        <time>2019-02-03T14:23:52.000Z</time>
      </trkpt>
      <trkpt lat="42.92859" lon="0.57932">
        <ele>1080</ele>
        <time>2019-02-03T14:23:53.000Z</time>
      </trkpt>
      <trkpt lat="42.92859" lon="0.57932">
        <ele>1080</ele>
        <time>2019-02-03T14:23:54.000Z</time>
      </trkpt>
      <trkpt lat="42.92859" lon="0.57932">
        <ele>1080</ele>
        <time>2019-02-03T14:23:55.000Z</time>
      </trkpt>
      <trkpt lat="42.92859" lon="0.57932">
        <ele>1080</ele>
        <time>2019-02-03T14:23:56.000Z</time>
      </trkpt>
      <trkpt lat="42.92859" lon="0.57931">
        <ele>1080</ele>
        <time>2019-02-03T14:23:57.000Z</time>
      </trkpt>
      <trkpt lat="42.92859" lon="0.57931">
        <ele>1080</ele>
        <time>2019-02-03T14:23:58.000Z</time>
      </trkpt>
      <trkpt lat="42.92859" lon="0.57931">
        <ele>1079</ele>
        <time>2019-02-03T14:23:59.000Z</time>
      </trkpt>
      <trkpt lat="42.92859" lon="0.57931">
        <ele>1079</ele>
        <time>2019-02-03T14:24:00.000Z</time>
      </trkpt>
      <trkpt lat="42.92859" lon="0.57931">
        <ele>1079</ele>
        <time>2019-02-03T14:24:01.000Z</time>
      </trkpt>
      <trkpt lat="42.92859" lon="0.57931">
        <ele>1079</ele>
        <time>2019-02-03T14:24:02.000Z</time>
      </trkpt>
      <trkpt lat="42.92859" lon="0.57931">
        <ele>1079</ele>
        <time>2019-02-03T14:24:03.000Z</time>
      </trkpt>
      <trkpt lat="42.92859" lon="0.57931">
        <ele>1079</ele>
        <time>2019-02-03T14:24:04.000Z</time>
      </trkpt>
      <trkpt lat="42.92859" lon="0.57931">
        <ele>1079</ele>
        <time>2019-02-03T14:24:05.000Z</time>
      </trkpt>
      <trkpt lat="42.92858" lon="0.5793">
        <ele>1079</ele>
        <time>2019-02-03T14:24:06.000Z</time>
      </trkpt>
      <trkpt lat="42.92858" lon="0.57928">
        <ele>1079</ele>
        <time>2019-02-03T14:24:07.000Z</time>
      </trkpt>
      <trkpt lat="42.92857" lon="0.57925">
        <ele>1079</ele>
        <time>2019-02-03T14:24:08.000Z</time>
      </trkpt>
      <trkpt lat="42.92857" lon="0.57923">
        <ele>1079</ele>
        <time>2019-02-03T14:24:09.000Z</time>
      </trkpt>
      <trkpt lat="42.92857" lon="0.57922">
        <ele>1079</ele>
        <time>2019-02-03T14:24:10.000Z</time>
      </trkpt>
      <trkpt lat="42.92858" lon="0.57921">
        <ele>1078</ele>
        <time>2019-02-03T14:24:11.000Z</time>
      </trkpt>
      <trkpt lat="42.92858" lon="0.57921">
        <ele>1078</ele>
        <time>2019-02-03T14:24:12.000Z</time>
      </trkpt>
      <trkpt lat="42.92858" lon="0.57921">
        <ele>1078</ele>
        <time>2019-02-03T14:24:13.000Z</time>
      </trkpt>
      <trkpt lat="42.92858" lon="0.57921">
        <ele>1078</ele>
        <time>2019-02-03T14:24:14.000Z</time>
      </trkpt>
      <trkpt lat="42.92858" lon="0.57921">
        <ele>1078</ele>
        <time>2019-02-03T14:24:15.000Z</time>
      </trkpt>
      <trkpt lat="42.92858" lon="0.57921">
        <ele>1078</ele>
        <time>2019-02-03T14:24:16.000Z</time>
      </trkpt>
      <trkpt lat="42.92858" lon="0.57921">
        <ele>1078</ele>
        <time>2019-02-03T14:24:17.000Z</time>
      </trkpt>
      <trkpt lat="42.92858" lon="0.57921">
        <ele>1078</ele>
        <time>2019-02-03T14:24:18.000Z</time>
      </trkpt>
      <trkpt lat="42.92858" lon="0.57921">
        <ele>1078</ele>
        <time>2019-02-03T14:24:19.000Z</time>
      </trkpt>
      <trkpt lat="42.92858" lon="0.57921">
        <ele>1078</ele>
        <time>2019-02-03T14:24:20.000Z</time>
      </trkpt>
      <trkpt lat="42.92858" lon="0.57921">
        <ele>1078</ele>
        <time>2019-02-03T14:24:21.000Z</time>
      </trkpt>
      <trkpt lat="42.92858" lon="0.57921">
        <ele>1078</ele>
        <time>2019-02-03T14:24:22.000Z</time>
      </trkpt>
      <trkpt lat="42.92858" lon="0.57921">
        <ele>1078</ele>
        <time>2019-02-03T14:24:23.000Z</time>
      </trkpt>
      <trkpt lat="42.92858" lon="0.57921">
        <ele>1078</ele>
        <time>2019-02-03T14:24:24.000Z</time>
      </trkpt>
      <trkpt lat="42.92858" lon="0.57921">
        <ele>1078</ele>
        <time>2019-02-03T14:24:25.000Z</time>
      </trkpt>
      <trkpt lat="42.92858" lon="0.57921">
        <ele>1078</ele>
        <time>2019-02-03T14:24:26.000Z</time>
      </trkpt>
      <trkpt lat="42.92858" lon="0.57921">
        <ele>1078</ele>
        <time>2019-02-03T14:24:27.000Z</time>
      </trkpt>
      <trkpt lat="42.92858" lon="0.57921">
        <ele>1078</ele>
        <time>2019-02-03T14:24:28.000Z</time>
      </trkpt>
      <trkpt lat="42.92858" lon="0.57921">
        <ele>1078</ele>
        <time>2019-02-03T14:24:29.000Z</time>
      </trkpt>
      <trkpt lat="42.92858" lon="0.57921">
        <ele>1078</ele>
        <time>2019-02-03T14:24:30.000Z</time>
      </trkpt>
      <trkpt lat="42.92858" lon="0.57921">
        <ele>1078</ele>
        <time>2019-02-03T14:24:31.000Z</time>
      </trkpt>
      <trkpt lat="42.92858" lon="0.5792">
        <ele>1078</ele>
        <time>2019-02-03T14:24:32.000Z</time>
      </trkpt>
      <trkpt lat="42.92858" lon="0.5792">
        <ele>1078</ele>
        <time>2019-02-03T14:24:33.000Z</time>
      </trkpt>
      <trkpt lat="42.92859" lon="0.57919">
        <ele>1078</ele>
        <time>2019-02-03T14:24:34.000Z</time>
      </trkpt>
      <trkpt lat="42.92859" lon="0.57919">
        <ele>1078</ele>
        <time>2019-02-03T14:24:35.000Z</time>
      </trkpt>
      <trkpt lat="42.9286" lon="0.57918">
        <ele>1078</ele>
        <time>2019-02-03T14:24:36.000Z</time>
      </trkpt>
      <trkpt lat="42.9286" lon="0.57918">
        <ele>1078</ele>
        <time>2019-02-03T14:24:37.000Z</time>
      </trkpt>
      <trkpt lat="42.92861" lon="0.57918">
        <ele>1078</ele>
        <time>2019-02-03T14:24:38.000Z</time>
      </trkpt>
      <trkpt lat="42.92862" lon="0.57918">
        <ele>1078</ele>
        <time>2019-02-03T14:24:39.000Z</time>
      </trkpt>
      <trkpt lat="42.92862" lon="0.57918">
        <ele>1078</ele>
        <time>2019-02-03T14:24:40.000Z</time>
      </trkpt>
      <trkpt lat="42.92862" lon="0.57918">
        <ele>1078</ele>
        <time>2019-02-03T14:24:41.000Z</time>
      </trkpt>
      <trkpt lat="42.92863" lon="0.57918">
        <ele>1078</ele>
        <time>2019-02-03T14:24:42.000Z</time>
      </trkpt>
      <trkpt lat="42.92863" lon="0.57918">
        <ele>1078</ele>
        <time>2019-02-03T14:24:43.000Z</time>
      </trkpt>
      <trkpt lat="42.92863" lon="0.57918">
        <ele>1078</ele>
        <time>2019-02-03T14:24:44.000Z</time>
      </trkpt>
      <trkpt lat="42.92863" lon="0.57918">
        <ele>1078</ele>
        <time>2019-02-03T14:24:45.000Z</time>
      </trkpt>
      <trkpt lat="42.92863" lon="0.57918">
        <ele>1078</ele>
        <time>2019-02-03T14:24:46.000Z</time>
      </trkpt>
      <trkpt lat="42.92863" lon="0.57918">
        <ele>1078</ele>
        <time>2019-02-03T14:24:47.000Z</time>
      </trkpt>
      <trkpt lat="42.92863" lon="0.57918">
        <ele>1078</ele>
        <time>2019-02-03T14:24:48.000Z</time>
      </trkpt>
      <trkpt lat="42.92863" lon="0.57918">
        <ele>1078</ele>
        <time>2019-02-03T14:24:49.000Z</time>
      </trkpt>
      <trkpt lat="42.92863" lon="0.57917">
        <ele>1078</ele>
        <time>2019-02-03T14:24:50.000Z</time>
      </trkpt>
      <trkpt lat="42.92863" lon="0.57917">
        <ele>1078</ele>
        <time>2019-02-03T14:24:51.000Z</time>
      </trkpt>
      <trkpt lat="42.92864" lon="0.57916">
        <ele>1078</ele>
        <time>2019-02-03T14:24:52.000Z</time>
      </trkpt>
      <trkpt lat="42.92864" lon="0.57915">
        <ele>1078</ele>
        <time>2019-02-03T14:24:53.000Z</time>
      </trkpt>
      <trkpt lat="42.92864" lon="0.57914">
        <ele>1078</ele>
        <time>2019-02-03T14:24:54.000Z</time>
      </trkpt>
      <trkpt lat="42.92864" lon="0.57914">
        <ele>1078</ele>
        <time>2019-02-03T14:24:55.000Z</time>
      </trkpt>
      <trkpt lat="42.92865" lon="0.57913">
        <ele>1078</ele>
        <time>2019-02-03T14:24:56.000Z</time>
      </trkpt>
      <trkpt lat="42.92865" lon="0.57912">
        <ele>1077.5</ele>
        <time>2019-02-03T14:24:57.000Z</time>
      </trkpt>
      <trkpt lat="42.92865" lon="0.57912">
        <ele>1077</ele>
        <time>2019-02-03T14:24:58.000Z</time>
      </trkpt>
      <trkpt lat="42.92865" lon="0.57911">
        <ele>1077</ele>
        <time>2019-02-03T14:24:59.000Z</time>
      </trkpt>
      <trkpt lat="42.92865" lon="0.57911">
        <ele>1077</ele>
        <time>2019-02-03T14:25:00.000Z</time>
      </trkpt>
      <trkpt lat="42.92865" lon="0.57911">
        <ele>1077</ele>
        <time>2019-02-03T14:25:01.000Z</time>
      </trkpt>
      <trkpt lat="42.92865" lon="0.5791">
        <ele>1077</ele>
        <time>2019-02-03T14:25:02.000Z</time>
      </trkpt>
      <trkpt lat="42.92865" lon="0.5791">
        <ele>1076</ele>
        <time>2019-02-03T14:25:03.000Z</time>
      </trkpt>
      <trkpt lat="42.92865" lon="0.5791">
        <ele>1076.5</ele>
        <time>2019-02-03T14:25:04.000Z</time>
      </trkpt>
      <trkpt lat="42.92865" lon="0.5791">
        <ele>1077</ele>
        <time>2019-02-03T14:25:05.000Z</time>
      </trkpt>
      <trkpt lat="42.92865" lon="0.5791">
        <ele>1077</ele>
        <time>2019-02-03T14:25:06.000Z</time>
      </trkpt>
      <trkpt lat="42.92865" lon="0.57909">
        <ele>1077</ele>
        <time>2019-02-03T14:25:07.000Z</time>
      </trkpt>
      <trkpt lat="42.92865" lon="0.57909">
        <ele>1077</ele>
        <time>2019-02-03T14:25:08.000Z</time>
      </trkpt>
      <trkpt lat="42.92866" lon="0.57908">
        <ele>1076.5</ele>
        <time>2019-02-03T14:25:09.000Z</time>
      </trkpt>
      <trkpt lat="42.92866" lon="0.57908">
        <ele>1076</ele>
        <time>2019-02-03T14:25:10.000Z</time>
      </trkpt>
      <trkpt lat="42.92866" lon="0.57907">
        <ele>1076</ele>
        <time>2019-02-03T14:25:11.000Z</time>
      </trkpt>
      <trkpt lat="42.92866" lon="0.57906">
        <ele>1076</ele>
        <time>2019-02-03T14:25:12.000Z</time>
      </trkpt>
      <trkpt lat="42.92867" lon="0.57906">
        <ele>1076</ele>
        <time>2019-02-03T14:25:13.000Z</time>
      </trkpt>
      <trkpt lat="42.92867" lon="0.57905">
        <ele>1076</ele>
        <time>2019-02-03T14:25:14.000Z</time>
      </trkpt>
      <trkpt lat="42.92867" lon="0.57905">
        <ele>1075.5</ele>
        <time>2019-02-03T14:25:15.000Z</time>
      </trkpt>
      <trkpt lat="42.92867" lon="0.57905">
        <ele>1075</ele>
        <time>2019-02-03T14:25:16.000Z</time>
      </trkpt>
      <trkpt lat="42.92867" lon="0.57904">
        <ele>1075</ele>
        <time>2019-02-03T14:25:17.000Z</time>
      </trkpt>
      <trkpt lat="42.92868" lon="0.57904">
        <ele>1074.7</ele>
        <time>2019-02-03T14:25:18.000Z</time>
      </trkpt>
      <trkpt lat="42.92868" lon="0.57903">
        <ele>1074.3</ele>
        <time>2019-02-03T14:25:19.000Z</time>
      </trkpt>
      <trkpt lat="42.92869" lon="0.57903">
        <ele>1074</ele>
        <time>2019-02-03T14:25:20.000Z</time>
      </trkpt>
      <trkpt lat="42.92869" lon="0.57902">
        <ele>1073.5</ele>
        <time>2019-02-03T14:25:21.000Z</time>
      </trkpt>
      <trkpt lat="42.9287" lon="0.57902">
        <ele>1073</ele>
        <time>2019-02-03T14:25:22.000Z</time>
      </trkpt>
      <trkpt lat="42.9287" lon="0.57901">
        <ele>1073</ele>
        <time>2019-02-03T14:25:23.000Z</time>
      </trkpt>
      <trkpt lat="42.92871" lon="0.579">
        <ele>1073</ele>
        <time>2019-02-03T14:25:24.000Z</time>
      </trkpt>
      <trkpt lat="42.92871" lon="0.579">
        <ele>1072.5</ele>
        <time>2019-02-03T14:25:25.000Z</time>
      </trkpt>
      <trkpt lat="42.92872" lon="0.57899">
        <ele>1072</ele>
        <time>2019-02-03T14:25:26.000Z</time>
      </trkpt>
      <trkpt lat="42.92872" lon="0.57899">
        <ele>1072</ele>
        <time>2019-02-03T14:25:27.000Z</time>
      </trkpt>
      <trkpt lat="42.92872" lon="0.57899">
        <ele>1071.7</ele>
        <time>2019-02-03T14:25:28.000Z</time>
      </trkpt>
      <trkpt lat="42.92872" lon="0.57898">
        <ele>1071.3</ele>
        <time>2019-02-03T14:25:29.000Z</time>
      </trkpt>
      <trkpt lat="42.92872" lon="0.57898">
        <ele>1071</ele>
        <time>2019-02-03T14:25:30.000Z</time>
      </trkpt>
      <trkpt lat="42.92872" lon="0.57897">
        <ele>1071</ele>
        <time>2019-02-03T14:25:31.000Z</time>
      </trkpt>
      <trkpt lat="42.92873" lon="0.57896">
        <ele>1071</ele>
        <time>2019-02-03T14:25:32.000Z</time>
      </trkpt>
      <trkpt lat="42.92874" lon="0.57896">
        <ele>1070.5</ele>
        <time>2019-02-03T14:25:33.000Z</time>
      </trkpt>
      <trkpt lat="42.92874" lon="0.57895">
        <ele>1070</ele>
        <time>2019-02-03T14:25:34.000Z</time>
      </trkpt>
      <trkpt lat="42.92875" lon="0.57894">
        <ele>1070</ele>
        <time>2019-02-03T14:25:35.000Z</time>
      </trkpt>
      <trkpt lat="42.92876" lon="0.57893">
        <ele>1070</ele>
        <time>2019-02-03T14:25:36.000Z</time>
      </trkpt>
      <trkpt lat="42.92876" lon="0.57892">
        <ele>1069.5</ele>
        <time>2019-02-03T14:25:37.000Z</time>
      </trkpt>
      <trkpt lat="42.92877" lon="0.57891">
        <ele>1069</ele>
        <time>2019-02-03T14:25:38.000Z</time>
      </trkpt>
      <trkpt lat="42.92878" lon="0.5789">
        <ele>1069</ele>
        <time>2019-02-03T14:25:39.000Z</time>
      </trkpt>
      <trkpt lat="42.92879" lon="0.5789">
        <ele>1068.7</ele>
        <time>2019-02-03T14:25:40.000Z</time>
      </trkpt>
      <trkpt lat="42.92879" lon="0.57889">
        <ele>1068.3</ele>
        <time>2019-02-03T14:25:41.000Z</time>
      </trkpt>
      <trkpt lat="42.9288" lon="0.57888">
        <ele>1068</ele>
        <time>2019-02-03T14:25:42.000Z</time>
      </trkpt>
      <trkpt lat="42.92881" lon="0.57888">
        <ele>1067.5</ele>
        <time>2019-02-03T14:25:43.000Z</time>
      </trkpt>
      <trkpt lat="42.92882" lon="0.57887">
        <ele>1067</ele>
        <time>2019-02-03T14:25:44.000Z</time>
      </trkpt>
      <trkpt lat="42.92882" lon="0.57886">
        <ele>1067</ele>
        <time>2019-02-03T14:25:45.000Z</time>
      </trkpt>
      <trkpt lat="42.92883" lon="0.57886">
        <ele>1067</ele>
        <time>2019-02-03T14:25:46.000Z</time>
      </trkpt>
      <trkpt lat="42.92884" lon="0.57885">
        <ele>1066.5</ele>
        <time>2019-02-03T14:25:47.000Z</time>
      </trkpt>
      <trkpt lat="42.92885" lon="0.57884">
        <ele>1066</ele>
        <time>2019-02-03T14:25:48.000Z</time>
      </trkpt>
      <trkpt lat="42.92885" lon="0.57883">
        <ele>1066</ele>
        <time>2019-02-03T14:25:49.000Z</time>
      </trkpt>
      <trkpt lat="42.92886" lon="0.57882">
        <ele>1066</ele>
        <time>2019-02-03T14:25:50.000Z</time>
      </trkpt>
      <trkpt lat="42.92886" lon="0.57881">
        <ele>1065</ele>
        <time>2019-02-03T14:25:51.000Z</time>
      </trkpt>
      <trkpt lat="42.92887" lon="0.5788">
        <ele>1064.7</ele>
        <time>2019-02-03T14:25:52.000Z</time>
      </trkpt>
      <trkpt lat="42.92887" lon="0.57879">
        <ele>1064.3</ele>
        <time>2019-02-03T14:25:53.000Z</time>
      </trkpt>
      <trkpt lat="42.92887" lon="0.57877">
        <ele>1064</ele>
        <time>2019-02-03T14:25:54.000Z</time>
      </trkpt>
      <trkpt lat="42.92887" lon="0.57876">
        <ele>1064</ele>
        <time>2019-02-03T14:25:55.000Z</time>
      </trkpt>
      <trkpt lat="42.92887" lon="0.57875">
        <ele>1064</ele>
        <time>2019-02-03T14:25:56.000Z</time>
      </trkpt>
      <trkpt lat="42.92887" lon="0.57873">
        <ele>1063.5</ele>
        <time>2019-02-03T14:25:57.000Z</time>
      </trkpt>
      <trkpt lat="42.92887" lon="0.57872">
        <ele>1063</ele>
        <time>2019-02-03T14:25:58.000Z</time>
      </trkpt>
      <trkpt lat="42.92887" lon="0.5787">
        <ele>1063</ele>
        <time>2019-02-03T14:25:59.000Z</time>
      </trkpt>
      <trkpt lat="42.92886" lon="0.57869">
        <ele>1063</ele>
        <time>2019-02-03T14:26:00.000Z</time>
      </trkpt>
      <trkpt lat="42.92886" lon="0.57867">
        <ele>1062.5</ele>
        <time>2019-02-03T14:26:01.000Z</time>
      </trkpt>
      <trkpt lat="42.92886" lon="0.57866">
        <ele>1062</ele>
        <time>2019-02-03T14:26:02.000Z</time>
      </trkpt>
      <trkpt lat="42.92885" lon="0.57865">
        <ele>1061.5</ele>
        <time>2019-02-03T14:26:03.000Z</time>
      </trkpt>
      <trkpt lat="42.92885" lon="0.57863">
        <ele>1061</ele>
        <time>2019-02-03T14:26:04.000Z</time>
      </trkpt>
      <trkpt lat="42.92885" lon="0.57862">
        <ele>1060.5</ele>
        <time>2019-02-03T14:26:05.000Z</time>
      </trkpt>
      <trkpt lat="42.92884" lon="0.57861">
        <ele>1060</ele>
        <time>2019-02-03T14:26:06.000Z</time>
      </trkpt>
      <trkpt lat="42.92884" lon="0.5786">
        <ele>1060</ele>
        <time>2019-02-03T14:26:07.000Z</time>
      </trkpt>
      <trkpt lat="42.92883" lon="0.57859">
        <ele>1060</ele>
        <time>2019-02-03T14:26:08.000Z</time>
      </trkpt>
      <trkpt lat="42.92883" lon="0.57858">
        <ele>1059.5</ele>
        <time>2019-02-03T14:26:09.000Z</time>
      </trkpt>
      <trkpt lat="42.92883" lon="0.57856">
        <ele>1059</ele>
        <time>2019-02-03T14:26:10.000Z</time>
      </trkpt>
      <trkpt lat="42.92883" lon="0.57855">
        <ele>1059</ele>
        <time>2019-02-03T14:26:11.000Z</time>
      </trkpt>
      <trkpt lat="42.92883" lon="0.57854">
        <ele>1059</ele>
        <time>2019-02-03T14:26:12.000Z</time>
      </trkpt>
      <trkpt lat="42.92883" lon="0.57853">
        <ele>1059</ele>
        <time>2019-02-03T14:26:13.000Z</time>
      </trkpt>
      <trkpt lat="42.92883" lon="0.57852">
        <ele>1059</ele>
        <time>2019-02-03T14:26:14.000Z</time>
      </trkpt>
      <trkpt lat="42.92882" lon="0.57851">
        <ele>1058.5</ele>
        <time>2019-02-03T14:26:15.000Z</time>
      </trkpt>
      <trkpt lat="42.92882" lon="0.5785">
        <ele>1058</ele>
        <time>2019-02-03T14:26:16.000Z</time>
      </trkpt>
      <trkpt lat="42.92882" lon="0.57849">
        <ele>1057.5</ele>
        <time>2019-02-03T14:26:17.000Z</time>
      </trkpt>
      <trkpt lat="42.92882" lon="0.57848">
        <ele>1057</ele>
        <time>2019-02-03T14:26:18.000Z</time>
      </trkpt>
      <trkpt lat="42.92882" lon="0.57846">
        <ele>1057</ele>
        <time>2019-02-03T14:26:19.000Z</time>
      </trkpt>
      <trkpt lat="42.92882" lon="0.57845">
        <ele>1057</ele>
        <time>2019-02-03T14:26:20.000Z</time>
      </trkpt>
      <trkpt lat="42.92882" lon="0.57844">
        <ele>1056</ele>
        <time>2019-02-03T14:26:21.000Z</time>
      </trkpt>
      <trkpt lat="42.92882" lon="0.57843">
        <ele>1055.7</ele>
        <time>2019-02-03T14:26:22.000Z</time>
      </trkpt>
      <trkpt lat="42.92881" lon="0.57842">
        <ele>1055.3</ele>
        <time>2019-02-03T14:26:23.000Z</time>
      </trkpt>
      <trkpt lat="42.92881" lon="0.5784">
        <ele>1055</ele>
        <time>2019-02-03T14:26:24.000Z</time>
      </trkpt>
      <trkpt lat="42.92881" lon="0.57839">
        <ele>1054.5</ele>
        <time>2019-02-03T14:26:25.000Z</time>
      </trkpt>
      <trkpt lat="42.92881" lon="0.57838">
        <ele>1054</ele>
        <time>2019-02-03T14:26:26.000Z</time>
      </trkpt>
      <trkpt lat="42.9288" lon="0.57837">
        <ele>1054</ele>
        <time>2019-02-03T14:26:27.000Z</time>
      </trkpt>
      <trkpt lat="42.9288" lon="0.57836">
        <ele>1053.7</ele>
        <time>2019-02-03T14:26:28.000Z</time>
      </trkpt>
      <trkpt lat="42.9288" lon="0.57834">
        <ele>1053.3</ele>
        <time>2019-02-03T14:26:29.000Z</time>
      </trkpt>
      <trkpt lat="42.92879" lon="0.57833">
        <ele>1053</ele>
        <time>2019-02-03T14:26:30.000Z</time>
      </trkpt>
      <trkpt lat="42.92879" lon="0.57832">
        <ele>1053</ele>
        <time>2019-02-03T14:26:31.000Z</time>
      </trkpt>
      <trkpt lat="42.92878" lon="0.5783">
        <ele>1053</ele>
        <time>2019-02-03T14:26:32.000Z</time>
      </trkpt>
      <trkpt lat="42.92878" lon="0.57829">
        <ele>1052.5</ele>
        <time>2019-02-03T14:26:33.000Z</time>
      </trkpt>
      <trkpt lat="42.92877" lon="0.57828">
        <ele>1052</ele>
        <time>2019-02-03T14:26:34.000Z</time>
      </trkpt>
      <trkpt lat="42.92876" lon="0.57826">
        <ele>1051.5</ele>
        <time>2019-02-03T14:26:35.000Z</time>
      </trkpt>
      <trkpt lat="42.92876" lon="0.57824">
        <ele>1051</ele>
        <time>2019-02-03T14:26:36.000Z</time>
      </trkpt>
      <trkpt lat="42.92875" lon="0.57823">
        <ele>1051</ele>
        <time>2019-02-03T14:26:37.000Z</time>
      </trkpt>
      <trkpt lat="42.92874" lon="0.57821">
        <ele>1050</ele>
        <time>2019-02-03T14:26:38.000Z</time>
      </trkpt>
      <trkpt lat="42.92873" lon="0.5782">
        <ele>1050</ele>
        <time>2019-02-03T14:26:39.000Z</time>
      </trkpt>
      <trkpt lat="42.92873" lon="0.57818">
        <ele>1050</ele>
        <time>2019-02-03T14:26:40.000Z</time>
      </trkpt>
      <trkpt lat="42.92872" lon="0.57817">
        <ele>1049</ele>
        <time>2019-02-03T14:26:41.000Z</time>
      </trkpt>
      <trkpt lat="42.92872" lon="0.57815">
        <ele>1049</ele>
        <time>2019-02-03T14:26:42.000Z</time>
      </trkpt>
      <trkpt lat="42.92871" lon="0.57814">
        <ele>1049</ele>
        <time>2019-02-03T14:26:43.000Z</time>
      </trkpt>
      <trkpt lat="42.9287" lon="0.57813">
        <ele>1048</ele>
        <time>2019-02-03T14:26:44.000Z</time>
      </trkpt>
      <trkpt lat="42.9287" lon="0.57812">
        <ele>1047.5</ele>
        <time>2019-02-03T14:26:45.000Z</time>
      </trkpt>
      <trkpt lat="42.92869" lon="0.5781">
        <ele>1047</ele>
        <time>2019-02-03T14:26:46.000Z</time>
      </trkpt>
      <trkpt lat="42.92869" lon="0.57809">
        <ele>1046</ele>
        <time>2019-02-03T14:26:47.000Z</time>
      </trkpt>
      <trkpt lat="42.92869" lon="0.57808">
        <ele>1046</ele>
        <time>2019-02-03T14:26:48.000Z</time>
      </trkpt>
      <trkpt lat="42.92868" lon="0.57807">
        <ele>1046</ele>
        <time>2019-02-03T14:26:49.000Z</time>
      </trkpt>
      <trkpt lat="42.92868" lon="0.57806">
        <ele>1046</ele>
        <time>2019-02-03T14:26:50.000Z</time>
      </trkpt>
      <trkpt lat="42.92868" lon="0.57805">
        <ele>1045.5</ele>
        <time>2019-02-03T14:26:51.000Z</time>
      </trkpt>
      <trkpt lat="42.92867" lon="0.57805">
        <ele>1045</ele>
        <time>2019-02-03T14:26:52.000Z</time>
      </trkpt>
      <trkpt lat="42.92867" lon="0.57804">
        <ele>1044.5</ele>
        <time>2019-02-03T14:26:53.000Z</time>
      </trkpt>
      <trkpt lat="42.92867" lon="0.57803">
        <ele>1044</ele>
        <time>2019-02-03T14:26:54.000Z</time>
      </trkpt>
      <trkpt lat="42.92867" lon="0.57802">
        <ele>1044</ele>
        <time>2019-02-03T14:26:55.000Z</time>
      </trkpt>
      <trkpt lat="42.92867" lon="0.57801">
        <ele>1043.7</ele>
        <time>2019-02-03T14:26:56.000Z</time>
      </trkpt>
      <trkpt lat="42.92867" lon="0.578">
        <ele>1043.3</ele>
        <time>2019-02-03T14:26:57.000Z</time>
      </trkpt>
      <trkpt lat="42.92867" lon="0.57799">
        <ele>1043</ele>
        <time>2019-02-03T14:26:58.000Z</time>
      </trkpt>
      <trkpt lat="42.92867" lon="0.57799">
        <ele>1042.5</ele>
        <time>2019-02-03T14:26:59.000Z</time>
      </trkpt>
      <trkpt lat="42.92867" lon="0.57798">
        <ele>1042</ele>
        <time>2019-02-03T14:27:00.000Z</time>
      </trkpt>
      <trkpt lat="42.92868" lon="0.57797">
        <ele>1042</ele>
        <time>2019-02-03T14:27:01.000Z</time>
      </trkpt>
      <trkpt lat="42.92868" lon="0.57796">
        <ele>1041.7</ele>
        <time>2019-02-03T14:27:02.000Z</time>
      </trkpt>
      <trkpt lat="42.92868" lon="0.57795">
        <ele>1041.3</ele>
        <time>2019-02-03T14:27:03.000Z</time>
      </trkpt>
      <trkpt lat="42.92868" lon="0.57793">
        <ele>1041</ele>
        <time>2019-02-03T14:27:04.000Z</time>
      </trkpt>
      <trkpt lat="42.92868" lon="0.57792">
        <ele>1040</ele>
        <time>2019-02-03T14:27:05.000Z</time>
      </trkpt>
      <trkpt lat="42.92868" lon="0.57791">
        <ele>1040</ele>
        <time>2019-02-03T14:27:06.000Z</time>
      </trkpt>
      <trkpt lat="42.92868" lon="0.5779">
        <ele>1040</ele>
        <time>2019-02-03T14:27:07.000Z</time>
      </trkpt>
      <trkpt lat="42.92868" lon="0.57789">
        <ele>1040</ele>
        <time>2019-02-03T14:27:08.000Z</time>
      </trkpt>
      <trkpt lat="42.92868" lon="0.57788">
        <ele>1039.5</ele>
        <time>2019-02-03T14:27:09.000Z</time>
      </trkpt>
      <trkpt lat="42.92868" lon="0.57787">
        <ele>1039</ele>
        <time>2019-02-03T14:27:10.000Z</time>
      </trkpt>
      <trkpt lat="42.92868" lon="0.57786">
        <ele>1038.5</ele>
        <time>2019-02-03T14:27:11.000Z</time>
      </trkpt>
      <trkpt lat="42.92869" lon="0.57785">
        <ele>1038</ele>
        <time>2019-02-03T14:27:12.000Z</time>
      </trkpt>
      <trkpt lat="42.92869" lon="0.57785">
        <ele>1038</ele>
        <time>2019-02-03T14:27:13.000Z</time>
      </trkpt>
      <trkpt lat="42.92869" lon="0.57784">
        <ele>1038</ele>
        <time>2019-02-03T14:27:14.000Z</time>
      </trkpt>
      <trkpt lat="42.9287" lon="0.57784">
        <ele>1037</ele>
        <time>2019-02-03T14:27:15.000Z</time>
      </trkpt>
      <trkpt lat="42.9287" lon="0.57783">
        <ele>1037</ele>
        <time>2019-02-03T14:27:16.000Z</time>
      </trkpt>
      <trkpt lat="42.92871" lon="0.57783">
        <ele>1037</ele>
        <time>2019-02-03T14:27:17.000Z</time>
      </trkpt>
      <trkpt lat="42.92872" lon="0.57783">
        <ele>1037</ele>
        <time>2019-02-03T14:27:18.000Z</time>
      </trkpt>
      <trkpt lat="42.92872" lon="0.57783">
        <ele>1036.5</ele>
        <time>2019-02-03T14:27:19.000Z</time>
      </trkpt>
      <trkpt lat="42.92873" lon="0.57782">
        <ele>1036</ele>
        <time>2019-02-03T14:27:20.000Z</time>
      </trkpt>
      <trkpt lat="42.92874" lon="0.57782">
        <ele>1036</ele>
        <time>2019-02-03T14:27:21.000Z</time>
      </trkpt>
      <trkpt lat="42.92874" lon="0.57782">
        <ele>1035.7</ele>
        <time>2019-02-03T14:27:22.000Z</time>
      </trkpt>
      <trkpt lat="42.92875" lon="0.57782">
        <ele>1035.3</ele>
        <time>2019-02-03T14:27:23.000Z</time>
      </trkpt>
      <trkpt lat="42.92876" lon="0.57781">
        <ele>1035</ele>
        <time>2019-02-03T14:27:24.000Z</time>
      </trkpt>
      <trkpt lat="42.92877" lon="0.57781">
        <ele>1034.5</ele>
        <time>2019-02-03T14:27:25.000Z</time>
      </trkpt>
      <trkpt lat="42.92877" lon="0.57781">
        <ele>1034</ele>
        <time>2019-02-03T14:27:26.000Z</time>
      </trkpt>
      <trkpt lat="42.92878" lon="0.57781">
        <ele>1034</ele>
        <time>2019-02-03T14:27:27.000Z</time>
      </trkpt>
      <trkpt lat="42.92879" lon="0.5778">
        <ele>1033.7</ele>
        <time>2019-02-03T14:27:28.000Z</time>
      </trkpt>
      <trkpt lat="42.9288" lon="0.5778">
        <ele>1033.3</ele>
        <time>2019-02-03T14:27:29.000Z</time>
      </trkpt>
      <trkpt lat="42.92881" lon="0.5778">
        <ele>1033</ele>
        <time>2019-02-03T14:27:30.000Z</time>
      </trkpt>
      <trkpt lat="42.92881" lon="0.5778">
        <ele>1033</ele>
        <time>2019-02-03T14:27:31.000Z</time>
      </trkpt>
      <trkpt lat="42.92882" lon="0.5778">
        <ele>1032.7</ele>
        <time>2019-02-03T14:27:32.000Z</time>
      </trkpt>
      <trkpt lat="42.92883" lon="0.57779">
        <ele>1032.3</ele>
        <time>2019-02-03T14:27:33.000Z</time>
      </trkpt>
      <trkpt lat="42.92884" lon="0.57779">
        <ele>1032</ele>
        <time>2019-02-03T14:27:34.000Z</time>
      </trkpt>
      <trkpt lat="42.92885" lon="0.57779">
        <ele>1031.5</ele>
        <time>2019-02-03T14:27:35.000Z</time>
      </trkpt>
      <trkpt lat="42.92885" lon="0.57779">
        <ele>1031</ele>
        <time>2019-02-03T14:27:36.000Z</time>
      </trkpt>
      <trkpt lat="42.92886" lon="0.57779">
        <ele>1031</ele>
        <time>2019-02-03T14:27:37.000Z</time>
      </trkpt>
      <trkpt lat="42.92887" lon="0.57778">
        <ele>1031</ele>
        <time>2019-02-03T14:27:38.000Z</time>
      </trkpt>
      <trkpt lat="42.92887" lon="0.57778">
        <ele>1030.5</ele>
        <time>2019-02-03T14:27:39.000Z</time>
      </trkpt>
      <trkpt lat="42.92888" lon="0.57778">
        <ele>1030</ele>
        <time>2019-02-03T14:27:40.000Z</time>
      </trkpt>
      <trkpt lat="42.92889" lon="0.57778">
        <ele>1030</ele>
        <time>2019-02-03T14:27:41.000Z</time>
      </trkpt>
      <trkpt lat="42.92889" lon="0.57778">
        <ele>1029.7</ele>
        <time>2019-02-03T14:27:42.000Z</time>
      </trkpt>
      <trkpt lat="42.9289" lon="0.57777">
        <ele>1029.3</ele>
        <time>2019-02-03T14:27:43.000Z</time>
      </trkpt>
      <trkpt lat="42.9289" lon="0.57777">
        <ele>1029</ele>
        <time>2019-02-03T14:27:44.000Z</time>
      </trkpt>
      <trkpt lat="42.92891" lon="0.57777">
        <ele>1029</ele>
        <time>2019-02-03T14:27:45.000Z</time>
      </trkpt>
      <trkpt lat="42.92892" lon="0.57777">
        <ele>1029</ele>
        <time>2019-02-03T14:27:46.000Z</time>
      </trkpt>
      <trkpt lat="42.92892" lon="0.57777">
        <ele>1028.5</ele>
        <time>2019-02-03T14:27:47.000Z</time>
      </trkpt>
      <trkpt lat="42.92893" lon="0.57777">
        <ele>1028</ele>
        <time>2019-02-03T14:27:48.000Z</time>
      </trkpt>
      <trkpt lat="42.92894" lon="0.57777">
        <ele>1028</ele>
        <time>2019-02-03T14:27:49.000Z</time>
      </trkpt>
      <trkpt lat="42.92895" lon="0.57777">
        <ele>1028</ele>
        <time>2019-02-03T14:27:50.000Z</time>
      </trkpt>
      <trkpt lat="42.92896" lon="0.57777">
        <ele>1028</ele>
        <time>2019-02-03T14:27:51.000Z</time>
      </trkpt>
      <trkpt lat="42.92897" lon="0.57777">
        <ele>1028</ele>
        <time>2019-02-03T14:27:52.000Z</time>
      </trkpt>
      <trkpt lat="42.92898" lon="0.57777">
        <ele>1027</ele>
        <time>2019-02-03T14:27:53.000Z</time>
      </trkpt>
      <trkpt lat="42.929" lon="0.57777">
        <ele>1026.7</ele>
        <time>2019-02-03T14:27:54.000Z</time>
      </trkpt>
      <trkpt lat="42.92901" lon="0.57777">
        <ele>1026.3</ele>
        <time>2019-02-03T14:27:55.000Z</time>
      </trkpt>
      <trkpt lat="42.92903" lon="0.57777">
        <ele>1026</ele>
        <time>2019-02-03T14:27:56.000Z</time>
      </trkpt>
      <trkpt lat="42.92904" lon="0.57777">
        <ele>1026</ele>
        <time>2019-02-03T14:27:57.000Z</time>
      </trkpt>
      <trkpt lat="42.92905" lon="0.57777">
        <ele>1026</ele>
        <time>2019-02-03T14:27:58.000Z</time>
      </trkpt>
      <trkpt lat="42.92907" lon="0.57777">
        <ele>1025.5</ele>
        <time>2019-02-03T14:27:59.000Z</time>
      </trkpt>
      <trkpt lat="42.92908" lon="0.57777">
        <ele>1025</ele>
        <time>2019-02-03T14:28:00.000Z</time>
      </trkpt>
      <trkpt lat="42.92909" lon="0.57777">
        <ele>1025</ele>
        <time>2019-02-03T14:28:01.000Z</time>
      </trkpt>
      <trkpt lat="42.9291" lon="0.57777">
        <ele>1024.7</ele>
        <time>2019-02-03T14:28:02.000Z</time>
      </trkpt>
      <trkpt lat="42.9291" lon="0.57777">
        <ele>1024.3</ele>
        <time>2019-02-03T14:28:03.000Z</time>
      </trkpt>
      <trkpt lat="42.92911" lon="0.57776">
        <ele>1024</ele>
        <time>2019-02-03T14:28:04.000Z</time>
      </trkpt>
      <trkpt lat="42.92912" lon="0.57776">
        <ele>1024</ele>
        <time>2019-02-03T14:28:05.000Z</time>
      </trkpt>
      <trkpt lat="42.92912" lon="0.57776">
        <ele>1024</ele>
        <time>2019-02-03T14:28:06.000Z</time>
      </trkpt>
      <trkpt lat="42.92913" lon="0.57777">
        <ele>1023.5</ele>
        <time>2019-02-03T14:28:07.000Z</time>
      </trkpt>
      <trkpt lat="42.92913" lon="0.57777">
        <ele>1023</ele>
        <time>2019-02-03T14:28:08.000Z</time>
      </trkpt>
      <trkpt lat="42.92914" lon="0.57777">
        <ele>1023</ele>
        <time>2019-02-03T14:28:09.000Z</time>
      </trkpt>
      <trkpt lat="42.92915" lon="0.57777">
        <ele>1023</ele>
        <time>2019-02-03T14:28:10.000Z</time>
      </trkpt>
      <trkpt lat="42.92916" lon="0.57777">
        <ele>1023</ele>
        <time>2019-02-03T14:28:11.000Z</time>
      </trkpt>
      <trkpt lat="42.92916" lon="0.57778">
        <ele>1023</ele>
        <time>2019-02-03T14:28:12.000Z</time>
      </trkpt>
      <trkpt lat="42.92917" lon="0.57778">
        <ele>1022</ele>
        <time>2019-02-03T14:28:13.000Z</time>
      </trkpt>
      <trkpt lat="42.92918" lon="0.57779">
        <ele>1022</ele>
        <time>2019-02-03T14:28:14.000Z</time>
      </trkpt>
      <trkpt lat="42.92919" lon="0.57779">
        <ele>1022</ele>
        <time>2019-02-03T14:28:15.000Z</time>
      </trkpt>
      <trkpt lat="42.92919" lon="0.57779">
        <ele>1022</ele>
        <time>2019-02-03T14:28:16.000Z</time>
      </trkpt>
      <trkpt lat="42.9292" lon="0.5778">
        <ele>1021.5</ele>
        <time>2019-02-03T14:28:17.000Z</time>
      </trkpt>
      <trkpt lat="42.92921" lon="0.5778">
        <ele>1021</ele>
        <time>2019-02-03T14:28:18.000Z</time>
      </trkpt>
      <trkpt lat="42.92921" lon="0.5778">
        <ele>1021</ele>
        <time>2019-02-03T14:28:19.000Z</time>
      </trkpt>
      <trkpt lat="42.92922" lon="0.57781">
        <ele>1020.7</ele>
        <time>2019-02-03T14:28:20.000Z</time>
      </trkpt>
      <trkpt lat="42.92922" lon="0.57781">
        <ele>1020.3</ele>
        <time>2019-02-03T14:28:21.000Z</time>
      </trkpt>
      <trkpt lat="42.92923" lon="0.57781">
        <ele>1020</ele>
        <time>2019-02-03T14:28:22.000Z</time>
      </trkpt>
      <trkpt lat="42.92923" lon="0.57781">
        <ele>1020</ele>
        <time>2019-02-03T14:28:23.000Z</time>
      </trkpt>
      <trkpt lat="42.92924" lon="0.57781">
        <ele>1020</ele>
        <time>2019-02-03T14:28:24.000Z</time>
      </trkpt>
      <trkpt lat="42.92925" lon="0.57781">
        <ele>1019.5</ele>
        <time>2019-02-03T14:28:25.000Z</time>
      </trkpt>
      <trkpt lat="42.92926" lon="0.57781">
        <ele>1019</ele>
        <time>2019-02-03T14:28:26.000Z</time>
      </trkpt>
      <trkpt lat="42.92926" lon="0.57781">
        <ele>1019</ele>
        <time>2019-02-03T14:28:27.000Z</time>
      </trkpt>
      <trkpt lat="42.92927" lon="0.57781">
        <ele>1019</ele>
        <time>2019-02-03T14:28:28.000Z</time>
      </trkpt>
      <trkpt lat="42.92928" lon="0.57781">
        <ele>1019</ele>
        <time>2019-02-03T14:28:29.000Z</time>
      </trkpt>
      <trkpt lat="42.92929" lon="0.57781">
        <ele>1018.5</ele>
        <time>2019-02-03T14:28:30.000Z</time>
      </trkpt>
      <trkpt lat="42.9293" lon="0.57781">
        <ele>1018</ele>
        <time>2019-02-03T14:28:31.000Z</time>
      </trkpt>
      <trkpt lat="42.92931" lon="0.57781">
        <ele>1017.7</ele>
        <time>2019-02-03T14:28:32.000Z</time>
      </trkpt>
      <trkpt lat="42.92932" lon="0.57781">
        <ele>1017.3</ele>
        <time>2019-02-03T14:28:33.000Z</time>
      </trkpt>
      <trkpt lat="42.92932" lon="0.57781">
        <ele>1017</ele>
        <time>2019-02-03T14:28:34.000Z</time>
      </trkpt>
      <trkpt lat="42.92933" lon="0.57781">
        <ele>1017</ele>
        <time>2019-02-03T14:28:35.000Z</time>
      </trkpt>
      <trkpt lat="42.92934" lon="0.57782">
        <ele>1017</ele>
        <time>2019-02-03T14:28:36.000Z</time>
      </trkpt>
      <trkpt lat="42.92935" lon="0.57782">
        <ele>1016.5</ele>
        <time>2019-02-03T14:28:37.000Z</time>
      </trkpt>
      <trkpt lat="42.92935" lon="0.57782">
        <ele>1016</ele>
        <time>2019-02-03T14:28:38.000Z</time>
      </trkpt>
      <trkpt lat="42.92936" lon="0.57782">
        <ele>1016</ele>
        <time>2019-02-03T14:28:39.000Z</time>
      </trkpt>
      <trkpt lat="42.92937" lon="0.57782">
        <ele>1016</ele>
        <time>2019-02-03T14:28:40.000Z</time>
      </trkpt>
      <trkpt lat="42.92939" lon="0.57782">
        <ele>1015.5</ele>
        <time>2019-02-03T14:28:41.000Z</time>
      </trkpt>
      <trkpt lat="42.9294" lon="0.57782">
        <ele>1015</ele>
        <time>2019-02-03T14:28:42.000Z</time>
      </trkpt>
      <trkpt lat="42.92941" lon="0.57782">
        <ele>1015</ele>
        <time>2019-02-03T14:28:43.000Z</time>
      </trkpt>
      <trkpt lat="42.92942" lon="0.57782">
        <ele>1014.7</ele>
        <time>2019-02-03T14:28:44.000Z</time>
      </trkpt>
      <trkpt lat="42.92943" lon="0.57782">
        <ele>1014.3</ele>
        <time>2019-02-03T14:28:45.000Z</time>
      </trkpt>
      <trkpt lat="42.92944" lon="0.57782">
        <ele>1014</ele>
        <time>2019-02-03T14:28:46.000Z</time>
      </trkpt>
      <trkpt lat="42.92945" lon="0.57783">
        <ele>1013</ele>
        <time>2019-02-03T14:28:47.000Z</time>
      </trkpt>
      <trkpt lat="42.92946" lon="0.57783">
        <ele>1013</ele>
        <time>2019-02-03T14:28:48.000Z</time>
      </trkpt>
      <trkpt lat="42.92947" lon="0.57783">
        <ele>1013</ele>
        <time>2019-02-03T14:28:49.000Z</time>
      </trkpt>
      <trkpt lat="42.92948" lon="0.57784">
        <ele>1013</ele>
        <time>2019-02-03T14:28:50.000Z</time>
      </trkpt>
      <trkpt lat="42.92948" lon="0.57784">
        <ele>1012.5</ele>
        <time>2019-02-03T14:28:51.000Z</time>
      </trkpt>
      <trkpt lat="42.9295" lon="0.57784">
        <ele>1012</ele>
        <time>2019-02-03T14:28:52.000Z</time>
      </trkpt>
      <trkpt lat="42.92951" lon="0.57784">
        <ele>1012</ele>
        <time>2019-02-03T14:28:53.000Z</time>
      </trkpt>
      <trkpt lat="42.92952" lon="0.57784">
        <ele>1011.7</ele>
        <time>2019-02-03T14:28:54.000Z</time>
      </trkpt>
      <trkpt lat="42.92953" lon="0.57784">
        <ele>1011.3</ele>
        <time>2019-02-03T14:28:55.000Z</time>
      </trkpt>
      <trkpt lat="42.92954" lon="0.57784">
        <ele>1011</ele>
        <time>2019-02-03T14:28:56.000Z</time>
      </trkpt>
      <trkpt lat="42.92955" lon="0.57784">
        <ele>1011</ele>
        <time>2019-02-03T14:28:57.000Z</time>
      </trkpt>
      <trkpt lat="42.92956" lon="0.57784">
        <ele>1011</ele>
        <time>2019-02-03T14:28:58.000Z</time>
      </trkpt>
      <trkpt lat="42.92957" lon="0.57784">
        <ele>1010</ele>
        <time>2019-02-03T14:28:59.000Z</time>
      </trkpt>
      <trkpt lat="42.92958" lon="0.57784">
        <ele>1009.7</ele>
        <time>2019-02-03T14:29:00.000Z</time>
      </trkpt>
      <trkpt lat="42.92959" lon="0.57785">
        <ele>1009.3</ele>
        <time>2019-02-03T14:29:01.000Z</time>
      </trkpt>
      <trkpt lat="42.9296" lon="0.57785">
        <ele>1009</ele>
        <time>2019-02-03T14:29:02.000Z</time>
      </trkpt>
      <trkpt lat="42.92961" lon="0.57786">
        <ele>1009</ele>
        <time>2019-02-03T14:29:03.000Z</time>
      </trkpt>
      <trkpt lat="42.92962" lon="0.57787">
        <ele>1009</ele>
        <time>2019-02-03T14:29:04.000Z</time>
      </trkpt>
      <trkpt lat="42.92963" lon="0.57787">
        <ele>1009</ele>
        <time>2019-02-03T14:29:05.000Z</time>
      </trkpt>
      <trkpt lat="42.92964" lon="0.57787">
        <ele>1009</ele>
        <time>2019-02-03T14:29:06.000Z</time>
      </trkpt>
      <trkpt lat="42.92966" lon="0.57788">
        <ele>1008.5</ele>
        <time>2019-02-03T14:29:07.000Z</time>
      </trkpt>
      <trkpt lat="42.92966" lon="0.57788">
        <ele>1008</ele>
        <time>2019-02-03T14:29:08.000Z</time>
      </trkpt>
      <trkpt lat="42.92967" lon="0.57788">
        <ele>1008</ele>
        <time>2019-02-03T14:29:09.000Z</time>
      </trkpt>
      <trkpt lat="42.92967" lon="0.57789">
        <ele>1007.7</ele>
        <time>2019-02-03T14:29:10.000Z</time>
      </trkpt>
      <trkpt lat="42.92968" lon="0.57789">
        <ele>1007.3</ele>
        <time>2019-02-03T14:29:11.000Z</time>
      </trkpt>
      <trkpt lat="42.92968" lon="0.57789">
        <ele>1007</ele>
        <time>2019-02-03T14:29:12.000Z</time>
      </trkpt>
      <trkpt lat="42.92968" lon="0.57789">
        <ele>1007</ele>
        <time>2019-02-03T14:29:13.000Z</time>
      </trkpt>
      <trkpt lat="42.92968" lon="0.5779">
        <ele>1007</ele>
        <time>2019-02-03T14:29:14.000Z</time>
      </trkpt>
      <trkpt lat="42.92969" lon="0.5779">
        <ele>1006.5</ele>
        <time>2019-02-03T14:29:15.000Z</time>
      </trkpt>
      <trkpt lat="42.92969" lon="0.5779">
        <ele>1006</ele>
        <time>2019-02-03T14:29:16.000Z</time>
      </trkpt>
      <trkpt lat="42.9297" lon="0.57791">
        <ele>1005.5</ele>
        <time>2019-02-03T14:29:17.000Z</time>
      </trkpt>
      <trkpt lat="42.92971" lon="0.57791">
        <ele>1005</ele>
        <time>2019-02-03T14:29:18.000Z</time>
      </trkpt>
      <trkpt lat="42.92972" lon="0.57792">
        <ele>1005</ele>
        <time>2019-02-03T14:29:19.000Z</time>
      </trkpt>
      <trkpt lat="42.92973" lon="0.57792">
        <ele>1004.7</ele>
        <time>2019-02-03T14:29:20.000Z</time>
      </trkpt>
      <trkpt lat="42.92974" lon="0.57792">
        <ele>1004.3</ele>
        <time>2019-02-03T14:29:21.000Z</time>
      </trkpt>
      <trkpt lat="42.92975" lon="0.57792">
        <ele>1004</ele>
        <time>2019-02-03T14:29:22.000Z</time>
      </trkpt>
      <trkpt lat="42.92975" lon="0.57792">
        <ele>1004</ele>
        <time>2019-02-03T14:29:23.000Z</time>
      </trkpt>
      <trkpt lat="42.92976" lon="0.57793">
        <ele>1004</ele>
        <time>2019-02-03T14:29:24.000Z</time>
      </trkpt>
      <trkpt lat="42.92977" lon="0.57793">
        <ele>1003.5</ele>
        <time>2019-02-03T14:29:25.000Z</time>
      </trkpt>
      <trkpt lat="42.92977" lon="0.57793">
        <ele>1003</ele>
        <time>2019-02-03T14:29:26.000Z</time>
      </trkpt>
      <trkpt lat="42.92978" lon="0.57793">
        <ele>1002.5</ele>
        <time>2019-02-03T14:29:27.000Z</time>
      </trkpt>
      <trkpt lat="42.92979" lon="0.57793">
        <ele>1002</ele>
        <time>2019-02-03T14:29:28.000Z</time>
      </trkpt>
      <trkpt lat="42.9298" lon="0.57793">
        <ele>1002</ele>
        <time>2019-02-03T14:29:29.000Z</time>
      </trkpt>
      <trkpt lat="42.92981" lon="0.57793">
        <ele>1001.7</ele>
        <time>2019-02-03T14:29:30.000Z</time>
      </trkpt>
      <trkpt lat="42.92982" lon="0.57794">
        <ele>1001.3</ele>
        <time>2019-02-03T14:29:31.000Z</time>
      </trkpt>
      <trkpt lat="42.92983" lon="0.57794">
        <ele>1001</ele>
        <time>2019-02-03T14:29:32.000Z</time>
      </trkpt>
      <trkpt lat="42.92983" lon="0.57794">
        <ele>1000.5</ele>
        <time>2019-02-03T14:29:33.000Z</time>
      </trkpt>
      <trkpt lat="42.92984" lon="0.57794">
        <ele>1000</ele>
        <time>2019-02-03T14:29:34.000Z</time>
      </trkpt>
      <trkpt lat="42.92985" lon="0.57794">
        <ele>1000</ele>
        <time>2019-02-03T14:29:35.000Z</time>
      </trkpt>
      <trkpt lat="42.92985" lon="0.57794">
        <ele>1000</ele>
        <time>2019-02-03T14:29:36.000Z</time>
      </trkpt>
      <trkpt lat="42.92986" lon="0.57794">
        <ele>999.5</ele>
        <time>2019-02-03T14:29:37.000Z</time>
      </trkpt>
      <trkpt lat="42.92987" lon="0.57794">
        <ele>999</ele>
        <time>2019-02-03T14:29:38.000Z</time>
      </trkpt>
      <trkpt lat="42.92987" lon="0.57793">
        <ele>998.5</ele>
        <time>2019-02-03T14:29:39.000Z</time>
      </trkpt>
      <trkpt lat="42.92988" lon="0.57793">
        <ele>998</ele>
        <time>2019-02-03T14:29:40.000Z</time>
      </trkpt>
      <trkpt lat="42.92988" lon="0.57792">
        <ele>998</ele>
        <time>2019-02-03T14:29:41.000Z</time>
      </trkpt>
      <trkpt lat="42.92989" lon="0.57791">
        <ele>998</ele>
        <time>2019-02-03T14:29:42.000Z</time>
      </trkpt>
      <trkpt lat="42.92989" lon="0.57791">
        <ele>997</ele>
        <time>2019-02-03T14:29:43.000Z</time>
      </trkpt>
      <trkpt lat="42.92989" lon="0.5779">
        <ele>997</ele>
        <time>2019-02-03T14:29:44.000Z</time>
      </trkpt>
      <trkpt lat="42.92989" lon="0.57789">
        <ele>997</ele>
        <time>2019-02-03T14:29:45.000Z</time>
      </trkpt>
      <trkpt lat="42.92989" lon="0.57788">
        <ele>997</ele>
        <time>2019-02-03T14:29:46.000Z</time>
      </trkpt>
      <trkpt lat="42.92989" lon="0.57787">
        <ele>997</ele>
        <time>2019-02-03T14:29:47.000Z</time>
      </trkpt>
      <trkpt lat="42.92989" lon="0.57787">
        <ele>996.7</ele>
        <time>2019-02-03T14:29:48.000Z</time>
      </trkpt>
      <trkpt lat="42.92989" lon="0.57786">
        <ele>996.3</ele>
        <time>2019-02-03T14:29:49.000Z</time>
      </trkpt>
      <trkpt lat="42.92989" lon="0.57785">
        <ele>996</ele>
        <time>2019-02-03T14:29:50.000Z</time>
      </trkpt>
      <trkpt lat="42.92989" lon="0.57784">
        <ele>995</ele>
        <time>2019-02-03T14:29:51.000Z</time>
      </trkpt>
      <trkpt lat="42.92988" lon="0.57784">
        <ele>995</ele>
        <time>2019-02-03T14:29:52.000Z</time>
      </trkpt>
      <trkpt lat="42.92988" lon="0.57783">
        <ele>995</ele>
        <time>2019-02-03T14:29:53.000Z</time>
      </trkpt>
      <trkpt lat="42.92988" lon="0.57782">
        <ele>995</ele>
        <time>2019-02-03T14:29:54.000Z</time>
      </trkpt>
      <trkpt lat="42.92988" lon="0.57782">
        <ele>994.5</ele>
        <time>2019-02-03T14:29:55.000Z</time>
      </trkpt>
      <trkpt lat="42.92988" lon="0.5778">
        <ele>994</ele>
        <time>2019-02-03T14:29:56.000Z</time>
      </trkpt>
      <trkpt lat="42.92987" lon="0.57779">
        <ele>993.5</ele>
        <time>2019-02-03T14:29:57.000Z</time>
      </trkpt>
      <trkpt lat="42.92987" lon="0.57777">
        <ele>993</ele>
        <time>2019-02-03T14:29:58.000Z</time>
      </trkpt>
      <trkpt lat="42.92986" lon="0.57776">
        <ele>993</ele>
        <time>2019-02-03T14:29:59.000Z</time>
      </trkpt>
      <trkpt lat="42.92985" lon="0.57775">
        <ele>993</ele>
        <time>2019-02-03T14:30:00.000Z</time>
      </trkpt>
      <trkpt lat="42.92985" lon="0.57774">
        <ele>992.5</ele>
        <time>2019-02-03T14:30:01.000Z</time>
      </trkpt>
      <trkpt lat="42.92984" lon="0.57772">
        <ele>992</ele>
        <time>2019-02-03T14:30:02.000Z</time>
      </trkpt>
      <trkpt lat="42.92984" lon="0.57771">
        <ele>991.5</ele>
        <time>2019-02-03T14:30:03.000Z</time>
      </trkpt>
      <trkpt lat="42.92984" lon="0.5777">
        <ele>991</ele>
        <time>2019-02-03T14:30:04.000Z</time>
      </trkpt>
      <trkpt lat="42.92983" lon="0.57769">
        <ele>991</ele>
        <time>2019-02-03T14:30:05.000Z</time>
      </trkpt>
      <trkpt lat="42.92983" lon="0.57767">
        <ele>990.7</ele>
        <time>2019-02-03T14:30:06.000Z</time>
      </trkpt>
      <trkpt lat="42.92983" lon="0.57766">
        <ele>990.3</ele>
        <time>2019-02-03T14:30:07.000Z</time>
      </trkpt>
      <trkpt lat="42.92983" lon="0.57765">
        <ele>990</ele>
        <time>2019-02-03T14:30:08.000Z</time>
      </trkpt>
      <trkpt lat="42.92982" lon="0.57764">
        <ele>990</ele>
        <time>2019-02-03T14:30:09.000Z</time>
      </trkpt>
      <trkpt lat="42.92982" lon="0.57763">
        <ele>989.7</ele>
        <time>2019-02-03T14:30:10.000Z</time>
      </trkpt>
      <trkpt lat="42.92981" lon="0.57762">
        <ele>989.3</ele>
        <time>2019-02-03T14:30:11.000Z</time>
      </trkpt>
      <trkpt lat="42.92981" lon="0.5776">
        <ele>989</ele>
        <time>2019-02-03T14:30:12.000Z</time>
      </trkpt>
      <trkpt lat="42.92981" lon="0.57759">
        <ele>989</ele>
        <time>2019-02-03T14:30:13.000Z</time>
      </trkpt>
      <trkpt lat="42.92981" lon="0.57759">
        <ele>988.7</ele>
        <time>2019-02-03T14:30:14.000Z</time>
      </trkpt>
      <trkpt lat="42.92981" lon="0.57758">
        <ele>988.3</ele>
        <time>2019-02-03T14:30:15.000Z</time>
      </trkpt>
      <trkpt lat="42.92981" lon="0.57757">
        <ele>988</ele>
        <time>2019-02-03T14:30:16.000Z</time>
      </trkpt>
      <trkpt lat="42.92981" lon="0.57756">
        <ele>987.5</ele>
        <time>2019-02-03T14:30:17.000Z</time>
      </trkpt>
      <trkpt lat="42.92981" lon="0.57755">
        <ele>987</ele>
        <time>2019-02-03T14:30:18.000Z</time>
      </trkpt>
      <trkpt lat="42.92981" lon="0.57754">
        <ele>987</ele>
        <time>2019-02-03T14:30:19.000Z</time>
      </trkpt>
      <trkpt lat="42.92982" lon="0.57753">
        <ele>987</ele>
        <time>2019-02-03T14:30:20.000Z</time>
      </trkpt>
      <trkpt lat="42.92982" lon="0.57752">
        <ele>987</ele>
        <time>2019-02-03T14:30:21.000Z</time>
      </trkpt>
      <trkpt lat="42.92982" lon="0.5775">
        <ele>986.7</ele>
        <time>2019-02-03T14:30:22.000Z</time>
      </trkpt>
      <trkpt lat="42.92983" lon="0.57749">
        <ele>986.3</ele>
        <time>2019-02-03T14:30:23.000Z</time>
      </trkpt>
      <trkpt lat="42.92983" lon="0.57748">
        <ele>986</ele>
        <time>2019-02-03T14:30:24.000Z</time>
      </trkpt>
      <trkpt lat="42.92983" lon="0.57747">
        <ele>985.5</ele>
        <time>2019-02-03T14:30:25.000Z</time>
      </trkpt>
      <trkpt lat="42.92983" lon="0.57746">
        <ele>985</ele>
        <time>2019-02-03T14:30:26.000Z</time>
      </trkpt>
      <trkpt lat="42.92983" lon="0.57745">
        <ele>985</ele>
        <time>2019-02-03T14:30:27.000Z</time>
      </trkpt>
      <trkpt lat="42.92984" lon="0.57744">
        <ele>985</ele>
        <time>2019-02-03T14:30:28.000Z</time>
      </trkpt>
      <trkpt lat="42.92984" lon="0.57743">
        <ele>984.5</ele>
        <time>2019-02-03T14:30:29.000Z</time>
      </trkpt>
      <trkpt lat="42.92984" lon="0.57743">
        <ele>984</ele>
        <time>2019-02-03T14:30:30.000Z</time>
      </trkpt>
      <trkpt lat="42.92985" lon="0.57742">
        <ele>984</ele>
        <time>2019-02-03T14:30:31.000Z</time>
      </trkpt>
      <trkpt lat="42.92985" lon="0.57742">
        <ele>984</ele>
        <time>2019-02-03T14:30:32.000Z</time>
      </trkpt>
      <trkpt lat="42.92986" lon="0.57741">
        <ele>983</ele>
        <time>2019-02-03T14:30:33.000Z</time>
      </trkpt>
      <trkpt lat="42.92986" lon="0.57741">
        <ele>983</ele>
        <time>2019-02-03T14:30:34.000Z</time>
      </trkpt>
      <trkpt lat="42.92987" lon="0.57741">
        <ele>983</ele>
        <time>2019-02-03T14:30:35.000Z</time>
      </trkpt>
      <trkpt lat="42.92987" lon="0.5774">
        <ele>983</ele>
        <time>2019-02-03T14:30:36.000Z</time>
      </trkpt>
      <trkpt lat="42.92987" lon="0.5774">
        <ele>983</ele>
        <time>2019-02-03T14:30:37.000Z</time>
      </trkpt>
      <trkpt lat="42.92987" lon="0.5774">
        <ele>983</ele>
        <time>2019-02-03T14:30:38.000Z</time>
      </trkpt>
      <trkpt lat="42.92987" lon="0.5774">
        <ele>983</ele>
        <time>2019-02-03T14:30:39.000Z</time>
      </trkpt>
      <trkpt lat="42.92987" lon="0.5774">
        <ele>983</ele>
        <time>2019-02-03T14:30:40.000Z</time>
      </trkpt>
      <trkpt lat="42.92987" lon="0.5774">
        <ele>983</ele>
        <time>2019-02-03T14:30:41.000Z</time>
      </trkpt>
      <trkpt lat="42.92987" lon="0.5774">
        <ele>983</ele>
        <time>2019-02-03T14:30:42.000Z</time>
      </trkpt>
      <trkpt lat="42.92987" lon="0.5774">
        <ele>983</ele>
        <time>2019-02-03T14:30:43.000Z</time>
      </trkpt>
      <trkpt lat="42.92987" lon="0.5774">
        <ele>982.7</ele>
        <time>2019-02-03T14:30:44.000Z</time>
      </trkpt>
      <trkpt lat="42.92987" lon="0.5774">
        <ele>982.3</ele>
        <time>2019-02-03T14:30:45.000Z</time>
      </trkpt>
      <trkpt lat="42.92987" lon="0.5774">
        <ele>982</ele>
        <time>2019-02-03T14:30:46.000Z</time>
      </trkpt>
      <trkpt lat="42.92988" lon="0.5774">
        <ele>982</ele>
        <time>2019-02-03T14:30:47.000Z</time>
      </trkpt>
      <trkpt lat="42.92988" lon="0.57739">
        <ele>982</ele>
        <time>2019-02-03T14:30:48.000Z</time>
      </trkpt>
      <trkpt lat="42.92989" lon="0.57739">
        <ele>981.5</ele>
        <time>2019-02-03T14:30:49.000Z</time>
      </trkpt>
      <trkpt lat="42.92989" lon="0.57739">
        <ele>981</ele>
        <time>2019-02-03T14:30:50.000Z</time>
      </trkpt>
      <trkpt lat="42.9299" lon="0.57739">
        <ele>981</ele>
        <time>2019-02-03T14:30:51.000Z</time>
      </trkpt>
      <trkpt lat="42.92991" lon="0.57738">
        <ele>981</ele>
        <time>2019-02-03T14:30:52.000Z</time>
      </trkpt>
      <trkpt lat="42.92991" lon="0.57738">
        <ele>980</ele>
        <time>2019-02-03T14:30:53.000Z</time>
      </trkpt>
      <trkpt lat="42.92992" lon="0.57738">
        <ele>980</ele>
        <time>2019-02-03T14:30:54.000Z</time>
      </trkpt>
      <trkpt lat="42.92992" lon="0.57738">
        <ele>980</ele>
        <time>2019-02-03T14:30:55.000Z</time>
      </trkpt>
      <trkpt lat="42.92992" lon="0.57738">
        <ele>980</ele>
        <time>2019-02-03T14:30:56.000Z</time>
      </trkpt>
      <trkpt lat="42.92993" lon="0.57738">
        <ele>979</ele>
        <time>2019-02-03T14:30:57.000Z</time>
      </trkpt>
      <trkpt lat="42.92993" lon="0.57738">
        <ele>978.7</ele>
        <time>2019-02-03T14:30:58.000Z</time>
      </trkpt>
      <trkpt lat="42.92994" lon="0.57738">
        <ele>978.3</ele>
        <time>2019-02-03T14:30:59.000Z</time>
      </trkpt>
      <trkpt lat="42.92994" lon="0.57738">
        <ele>978</ele>
        <time>2019-02-03T14:31:00.000Z</time>
      </trkpt>
      <trkpt lat="42.92996" lon="0.57738">
        <ele>978</ele>
        <time>2019-02-03T14:31:01.000Z</time>
      </trkpt>
      <trkpt lat="42.92997" lon="0.57738">
        <ele>978</ele>
        <time>2019-02-03T14:31:02.000Z</time>
      </trkpt>
      <trkpt lat="42.92998" lon="0.57738">
        <ele>977</ele>
        <time>2019-02-03T14:31:03.000Z</time>
      </trkpt>
      <trkpt lat="42.93" lon="0.57738">
        <ele>977</ele>
        <time>2019-02-03T14:31:04.000Z</time>
      </trkpt>
      <trkpt lat="42.93001" lon="0.57738">
        <ele>977</ele>
        <time>2019-02-03T14:31:05.000Z</time>
      </trkpt>
      <trkpt lat="42.93001" lon="0.57738">
        <ele>977</ele>
        <time>2019-02-03T14:31:06.000Z</time>
      </trkpt>
      <trkpt lat="42.93002" lon="0.57738">
        <ele>977</ele>
        <time>2019-02-03T14:31:07.000Z</time>
      </trkpt>
      <trkpt lat="42.93003" lon="0.57738">
        <ele>977</ele>
        <time>2019-02-03T14:31:08.000Z</time>
      </trkpt>
      <trkpt lat="42.93004" lon="0.57739">
        <ele>976.5</ele>
        <time>2019-02-03T14:31:09.000Z</time>
      </trkpt>
      <trkpt lat="42.93005" lon="0.57739">
        <ele>976</ele>
        <time>2019-02-03T14:31:10.000Z</time>
      </trkpt>
      <trkpt lat="42.93006" lon="0.57739">
        <ele>976</ele>
        <time>2019-02-03T14:31:11.000Z</time>
      </trkpt>
      <trkpt lat="42.93007" lon="0.57739">
        <ele>976</ele>
        <time>2019-02-03T14:31:12.000Z</time>
      </trkpt>
      <trkpt lat="42.93008" lon="0.57739">
        <ele>975</ele>
        <time>2019-02-03T14:31:13.000Z</time>
      </trkpt>
      <trkpt lat="42.93009" lon="0.57739">
        <ele>975</ele>
        <time>2019-02-03T14:31:14.000Z</time>
      </trkpt>
      <trkpt lat="42.9301" lon="0.57739">
        <ele>975</ele>
        <time>2019-02-03T14:31:15.000Z</time>
      </trkpt>
      <trkpt lat="42.93011" lon="0.5774">
        <ele>975</ele>
        <time>2019-02-03T14:31:16.000Z</time>
      </trkpt>
      <trkpt lat="42.93011" lon="0.5774">
        <ele>974</ele>
        <time>2019-02-03T14:31:17.000Z</time>
      </trkpt>
      <trkpt lat="42.93012" lon="0.5774">
        <ele>973.7</ele>
        <time>2019-02-03T14:31:18.000Z</time>
      </trkpt>
      <trkpt lat="42.93013" lon="0.5774">
        <ele>973.3</ele>
        <time>2019-02-03T14:31:19.000Z</time>
      </trkpt>
      <trkpt lat="42.93014" lon="0.5774">
        <ele>973</ele>
        <time>2019-02-03T14:31:20.000Z</time>
      </trkpt>
      <trkpt lat="42.93016" lon="0.5774">
        <ele>973</ele>
        <time>2019-02-03T14:31:21.000Z</time>
      </trkpt>
      <trkpt lat="42.93017" lon="0.5774">
        <ele>973</ele>
        <time>2019-02-03T14:31:22.000Z</time>
      </trkpt>
      <trkpt lat="42.93018" lon="0.5774">
        <ele>972</ele>
        <time>2019-02-03T14:31:23.000Z</time>
      </trkpt>
      <trkpt lat="42.93019" lon="0.5774">
        <ele>971.7</ele>
        <time>2019-02-03T14:31:24.000Z</time>
      </trkpt>
      <trkpt lat="42.9302" lon="0.5774">
        <ele>971.3</ele>
        <time>2019-02-03T14:31:25.000Z</time>
      </trkpt>
      <trkpt lat="42.93021" lon="0.5774">
        <ele>971</ele>
        <time>2019-02-03T14:31:26.000Z</time>
      </trkpt>
      <trkpt lat="42.93022" lon="0.5774">
        <ele>971</ele>
        <time>2019-02-03T14:31:27.000Z</time>
      </trkpt>
      <trkpt lat="42.93022" lon="0.5774">
        <ele>970.7</ele>
        <time>2019-02-03T14:31:28.000Z</time>
      </trkpt>
      <trkpt lat="42.93023" lon="0.5774">
        <ele>970.3</ele>
        <time>2019-02-03T14:31:29.000Z</time>
      </trkpt>
      <trkpt lat="42.93024" lon="0.5774">
        <ele>970</ele>
        <time>2019-02-03T14:31:30.000Z</time>
      </trkpt>
      <trkpt lat="42.93025" lon="0.57741">
        <ele>970</ele>
        <time>2019-02-03T14:31:31.000Z</time>
      </trkpt>
      <trkpt lat="42.93025" lon="0.57741">
        <ele>970</ele>
        <time>2019-02-03T14:31:32.000Z</time>
      </trkpt>
      <trkpt lat="42.93027" lon="0.57741">
        <ele>970</ele>
        <time>2019-02-03T14:31:33.000Z</time>
      </trkpt>
      <trkpt lat="42.93028" lon="0.57741">
        <ele>970</ele>
        <time>2019-02-03T14:31:34.000Z</time>
      </trkpt>
      <trkpt lat="42.93029" lon="0.57741">
        <ele>969.5</ele>
        <time>2019-02-03T14:31:35.000Z</time>
      </trkpt>
      <trkpt lat="42.9303" lon="0.57741">
        <ele>969</ele>
        <time>2019-02-03T14:31:36.000Z</time>
      </trkpt>
      <trkpt lat="42.93032" lon="0.57741">
        <ele>969</ele>
        <time>2019-02-03T14:31:37.000Z</time>
      </trkpt>
      <trkpt lat="42.93033" lon="0.57741">
        <ele>969</ele>
        <time>2019-02-03T14:31:38.000Z</time>
      </trkpt>
      <trkpt lat="42.93034" lon="0.57741">
        <ele>968.5</ele>
        <time>2019-02-03T14:31:39.000Z</time>
      </trkpt>
      <trkpt lat="42.93035" lon="0.57741">
        <ele>968</ele>
        <time>2019-02-03T14:31:40.000Z</time>
      </trkpt>
      <trkpt lat="42.93037" lon="0.57741">
        <ele>968</ele>
        <time>2019-02-03T14:31:41.000Z</time>
      </trkpt>
      <trkpt lat="42.93038" lon="0.57741">
        <ele>968</ele>
        <time>2019-02-03T14:31:42.000Z</time>
      </trkpt>
      <trkpt lat="42.93039" lon="0.57741">
        <ele>967.5</ele>
        <time>2019-02-03T14:31:43.000Z</time>
      </trkpt>
      <trkpt lat="42.9304" lon="0.5774">
        <ele>967</ele>
        <time>2019-02-03T14:31:44.000Z</time>
      </trkpt>
      <trkpt lat="42.9304" lon="0.5774">
        <ele>967</ele>
        <time>2019-02-03T14:31:45.000Z</time>
      </trkpt>
      <trkpt lat="42.93041" lon="0.57739">
        <ele>967</ele>
        <time>2019-02-03T14:31:46.000Z</time>
      </trkpt>
      <trkpt lat="42.93042" lon="0.57739">
        <ele>966</ele>
        <time>2019-02-03T14:31:47.000Z</time>
      </trkpt>
      <trkpt lat="42.93043" lon="0.57738">
        <ele>966</ele>
        <time>2019-02-03T14:31:48.000Z</time>
      </trkpt>
      <trkpt lat="42.93043" lon="0.57738">
        <ele>966</ele>
        <time>2019-02-03T14:31:49.000Z</time>
      </trkpt>
      <trkpt lat="42.93044" lon="0.57737">
        <ele>966</ele>
        <time>2019-02-03T14:31:50.000Z</time>
      </trkpt>
      <trkpt lat="42.93044" lon="0.57737">
        <ele>965</ele>
        <time>2019-02-03T14:31:51.000Z</time>
      </trkpt>
      <trkpt lat="42.93045" lon="0.57736">
        <ele>965</ele>
        <time>2019-02-03T14:31:52.000Z</time>
      </trkpt>
      <trkpt lat="42.93045" lon="0.57736">
        <ele>965</ele>
        <time>2019-02-03T14:31:53.000Z</time>
      </trkpt>
      <trkpt lat="42.93046" lon="0.57735">
        <ele>965</ele>
        <time>2019-02-03T14:31:54.000Z</time>
      </trkpt>
      <trkpt lat="42.93046" lon="0.57735">
        <ele>965</ele>
        <time>2019-02-03T14:31:55.000Z</time>
      </trkpt>
      <trkpt lat="42.93046" lon="0.57734">
        <ele>965</ele>
        <time>2019-02-03T14:31:56.000Z</time>
      </trkpt>
      <trkpt lat="42.93047" lon="0.57734">
        <ele>965</ele>
        <time>2019-02-03T14:31:57.000Z</time>
      </trkpt>
      <trkpt lat="42.93047" lon="0.57734">
        <ele>965</ele>
        <time>2019-02-03T14:31:58.000Z</time>
      </trkpt>
      <trkpt lat="42.93047" lon="0.57734">
        <ele>965</ele>
        <time>2019-02-03T14:31:59.000Z</time>
      </trkpt>
      <trkpt lat="42.93047" lon="0.57733">
        <ele>965</ele>
        <time>2019-02-03T14:32:00.000Z</time>
      </trkpt>
      <trkpt lat="42.93047" lon="0.57733">
        <ele>965</ele>
        <time>2019-02-03T14:32:01.000Z</time>
      </trkpt>
      <trkpt lat="42.93048" lon="0.57732">
        <ele>965</ele>
        <time>2019-02-03T14:32:02.000Z</time>
      </trkpt>
      <trkpt lat="42.93049" lon="0.57731">
        <ele>965</ele>
        <time>2019-02-03T14:32:03.000Z</time>
      </trkpt>
      <trkpt lat="42.9305" lon="0.5773">
        <ele>964.7</ele>
        <time>2019-02-03T14:32:04.000Z</time>
      </trkpt>
      <trkpt lat="42.9305" lon="0.57729">
        <ele>964.3</ele>
        <time>2019-02-03T14:32:05.000Z</time>
      </trkpt>
      <trkpt lat="42.93051" lon="0.57728">
        <ele>964</ele>
        <time>2019-02-03T14:32:06.000Z</time>
      </trkpt>
      <trkpt lat="42.93051" lon="0.57727">
        <ele>964</ele>
        <time>2019-02-03T14:32:07.000Z</time>
      </trkpt>
      <trkpt lat="42.93052" lon="0.57726">
        <ele>964</ele>
        <time>2019-02-03T14:32:08.000Z</time>
      </trkpt>
      <trkpt lat="42.93052" lon="0.57726">
        <ele>963.5</ele>
        <time>2019-02-03T14:32:09.000Z</time>
      </trkpt>
      <trkpt lat="42.93052" lon="0.57725">
        <ele>963</ele>
        <time>2019-02-03T14:32:10.000Z</time>
      </trkpt>
      <trkpt lat="42.93053" lon="0.57724">
        <ele>963</ele>
        <time>2019-02-03T14:32:11.000Z</time>
      </trkpt>
      <trkpt lat="42.93053" lon="0.57724">
        <ele>963</ele>
        <time>2019-02-03T14:32:12.000Z</time>
      </trkpt>
      <trkpt lat="42.93054" lon="0.57723">
        <ele>962.5</ele>
        <time>2019-02-03T14:32:13.000Z</time>
      </trkpt>
      <trkpt lat="42.93054" lon="0.57723">
        <ele>962</ele>
        <time>2019-02-03T14:32:14.000Z</time>
      </trkpt>
      <trkpt lat="42.93055" lon="0.57722">
        <ele>962</ele>
        <time>2019-02-03T14:32:15.000Z</time>
      </trkpt>
      <trkpt lat="42.93055" lon="0.57721">
        <ele>962</ele>
        <time>2019-02-03T14:32:16.000Z</time>
      </trkpt>
      <trkpt lat="42.93056" lon="0.5772">
        <ele>961.5</ele>
        <time>2019-02-03T14:32:17.000Z</time>
      </trkpt>
      <trkpt lat="42.93056" lon="0.5772">
        <ele>961</ele>
        <time>2019-02-03T14:32:18.000Z</time>
      </trkpt>
      <trkpt lat="42.93057" lon="0.57719">
        <ele>961</ele>
        <time>2019-02-03T14:32:19.000Z</time>
      </trkpt>
      <trkpt lat="42.93058" lon="0.57718">
        <ele>961</ele>
        <time>2019-02-03T14:32:20.000Z</time>
      </trkpt>
      <trkpt lat="42.93058" lon="0.57717">
        <ele>961</ele>
        <time>2019-02-03T14:32:21.000Z</time>
      </trkpt>
      <trkpt lat="42.93059" lon="0.57717">
        <ele>960.7</ele>
        <time>2019-02-03T14:32:22.000Z</time>
      </trkpt>
      <trkpt lat="42.9306" lon="0.57716">
        <ele>960.3</ele>
        <time>2019-02-03T14:32:23.000Z</time>
      </trkpt>
      <trkpt lat="42.93061" lon="0.57715">
        <ele>960</ele>
        <time>2019-02-03T14:32:24.000Z</time>
      </trkpt>
      <trkpt lat="42.93062" lon="0.57714">
        <ele>959.5</ele>
        <time>2019-02-03T14:32:25.000Z</time>
      </trkpt>
      <trkpt lat="42.93062" lon="0.57713">
        <ele>959</ele>
        <time>2019-02-03T14:32:26.000Z</time>
      </trkpt>
      <trkpt lat="42.93063" lon="0.57712">
        <ele>959.5</ele>
        <time>2019-02-03T14:32:27.000Z</time>
      </trkpt>
      <trkpt lat="42.93064" lon="0.57711">
        <ele>960</ele>
        <time>2019-02-03T14:32:28.000Z</time>
      </trkpt>
      <trkpt lat="42.93065" lon="0.57711">
        <ele>959.5</ele>
        <time>2019-02-03T14:32:29.000Z</time>
      </trkpt>
      <trkpt lat="42.93066" lon="0.5771">
        <ele>959</ele>
        <time>2019-02-03T14:32:30.000Z</time>
      </trkpt>
      <trkpt lat="42.93067" lon="0.57709">
        <ele>959</ele>
        <time>2019-02-03T14:32:31.000Z</time>
      </trkpt>
      <trkpt lat="42.93067" lon="0.57708">
        <ele>959</ele>
        <time>2019-02-03T14:32:32.000Z</time>
      </trkpt>
      <trkpt lat="42.93068" lon="0.57707">
        <ele>959</ele>
        <time>2019-02-03T14:32:33.000Z</time>
      </trkpt>
      <trkpt lat="42.93069" lon="0.57705">
        <ele>959</ele>
        <time>2019-02-03T14:32:34.000Z</time>
      </trkpt>
      <trkpt lat="42.9307" lon="0.57704">
        <ele>958</ele>
        <time>2019-02-03T14:32:35.000Z</time>
      </trkpt>
      <trkpt lat="42.9307" lon="0.57703">
        <ele>958</ele>
        <time>2019-02-03T14:32:36.000Z</time>
      </trkpt>
      <trkpt lat="42.93071" lon="0.57702">
        <ele>958</ele>
        <time>2019-02-03T14:32:37.000Z</time>
      </trkpt>
      <trkpt lat="42.93071" lon="0.577">
        <ele>958</ele>
        <time>2019-02-03T14:32:38.000Z</time>
      </trkpt>
      <trkpt lat="42.93072" lon="0.57699">
        <ele>957</ele>
        <time>2019-02-03T14:32:39.000Z</time>
      </trkpt>
      <trkpt lat="42.93073" lon="0.57698">
        <ele>957</ele>
        <time>2019-02-03T14:32:40.000Z</time>
      </trkpt>
      <trkpt lat="42.93073" lon="0.57697">
        <ele>957</ele>
        <time>2019-02-03T14:32:41.000Z</time>
      </trkpt>
      <trkpt lat="42.93074" lon="0.57696">
        <ele>956.7</ele>
        <time>2019-02-03T14:32:42.000Z</time>
      </trkpt>
      <trkpt lat="42.93074" lon="0.57695">
        <ele>956.3</ele>
        <time>2019-02-03T14:32:43.000Z</time>
      </trkpt>
      <trkpt lat="42.93075" lon="0.57694">
        <ele>956</ele>
        <time>2019-02-03T14:32:44.000Z</time>
      </trkpt>
      <trkpt lat="42.93075" lon="0.57693">
        <ele>956</ele>
        <time>2019-02-03T14:32:45.000Z</time>
      </trkpt>
      <trkpt lat="42.93076" lon="0.57692">
        <ele>956</ele>
        <time>2019-02-03T14:32:46.000Z</time>
      </trkpt>
      <trkpt lat="42.93076" lon="0.57691">
        <ele>956</ele>
        <time>2019-02-03T14:32:47.000Z</time>
      </trkpt>
      <trkpt lat="42.93076" lon="0.57691">
        <ele>956</ele>
        <time>2019-02-03T14:32:48.000Z</time>
      </trkpt>
      <trkpt lat="42.93077" lon="0.5769">
        <ele>956</ele>
        <time>2019-02-03T14:32:49.000Z</time>
      </trkpt>
      <trkpt lat="42.93077" lon="0.57689">
        <ele>956</ele>
        <time>2019-02-03T14:32:50.000Z</time>
      </trkpt>
      <trkpt lat="42.93078" lon="0.57688">
        <ele>955.5</ele>
        <time>2019-02-03T14:32:51.000Z</time>
      </trkpt>
      <trkpt lat="42.93078" lon="0.57687">
        <ele>955</ele>
        <time>2019-02-03T14:32:52.000Z</time>
      </trkpt>
      <trkpt lat="42.93079" lon="0.57686">
        <ele>955</ele>
        <time>2019-02-03T14:32:53.000Z</time>
      </trkpt>
      <trkpt lat="42.93079" lon="0.57685">
        <ele>954.5</ele>
        <time>2019-02-03T14:32:54.000Z</time>
      </trkpt>
      <trkpt lat="42.9308" lon="0.57683">
        <ele>954</ele>
        <time>2019-02-03T14:32:55.000Z</time>
      </trkpt>
      <trkpt lat="42.9308" lon="0.57682">
        <ele>954</ele>
        <time>2019-02-03T14:32:56.000Z</time>
      </trkpt>
      <trkpt lat="42.9308" lon="0.57681">
        <ele>954</ele>
        <time>2019-02-03T14:32:57.000Z</time>
      </trkpt>
      <trkpt lat="42.93081" lon="0.5768">
        <ele>954</ele>
        <time>2019-02-03T14:32:58.000Z</time>
      </trkpt>
      <trkpt lat="42.93081" lon="0.57679">
        <ele>953</ele>
        <time>2019-02-03T14:32:59.000Z</time>
      </trkpt>
      <trkpt lat="42.93081" lon="0.57677">
        <ele>953</ele>
        <time>2019-02-03T14:33:00.000Z</time>
      </trkpt>
      <trkpt lat="42.93081" lon="0.57676">
        <ele>953</ele>
        <time>2019-02-03T14:33:01.000Z</time>
      </trkpt>
      <trkpt lat="42.93082" lon="0.57675">
        <ele>952.7</ele>
        <time>2019-02-03T14:33:02.000Z</time>
      </trkpt>
      <trkpt lat="42.93082" lon="0.57674">
        <ele>952.3</ele>
        <time>2019-02-03T14:33:03.000Z</time>
      </trkpt>
      <trkpt lat="42.93082" lon="0.57673">
        <ele>952</ele>
        <time>2019-02-03T14:33:04.000Z</time>
      </trkpt>
      <trkpt lat="42.93082" lon="0.57672">
        <ele>952</ele>
        <time>2019-02-03T14:33:05.000Z</time>
      </trkpt>
      <trkpt lat="42.93083" lon="0.57671">
        <ele>952</ele>
        <time>2019-02-03T14:33:06.000Z</time>
      </trkpt>
      <trkpt lat="42.93083" lon="0.5767">
        <ele>952</ele>
        <time>2019-02-03T14:33:07.000Z</time>
      </trkpt>
      <trkpt lat="42.93084" lon="0.57669">
        <ele>951.7</ele>
        <time>2019-02-03T14:33:08.000Z</time>
      </trkpt>
      <trkpt lat="42.93084" lon="0.57668">
        <ele>951.3</ele>
        <time>2019-02-03T14:33:09.000Z</time>
      </trkpt>
      <trkpt lat="42.93085" lon="0.57666">
        <ele>951</ele>
        <time>2019-02-03T14:33:10.000Z</time>
      </trkpt>
      <trkpt lat="42.93086" lon="0.57665">
        <ele>951</ele>
        <time>2019-02-03T14:33:11.000Z</time>
      </trkpt>
      <trkpt lat="42.93086" lon="0.57664">
        <ele>951</ele>
        <time>2019-02-03T14:33:12.000Z</time>
      </trkpt>
      <trkpt lat="42.93087" lon="0.57663">
        <ele>951</ele>
        <time>2019-02-03T14:33:13.000Z</time>
      </trkpt>
      <trkpt lat="42.93087" lon="0.57662">
        <ele>950.7</ele>
        <time>2019-02-03T14:33:14.000Z</time>
      </trkpt>
      <trkpt lat="42.93088" lon="0.57661">
        <ele>950.3</ele>
        <time>2019-02-03T14:33:15.000Z</time>
      </trkpt>
      <trkpt lat="42.93088" lon="0.5766">
        <ele>950</ele>
        <time>2019-02-03T14:33:16.000Z</time>
      </trkpt>
      <trkpt lat="42.93089" lon="0.57659">
        <ele>950</ele>
        <time>2019-02-03T14:33:17.000Z</time>
      </trkpt>
      <trkpt lat="42.93089" lon="0.57658">
        <ele>950</ele>
        <time>2019-02-03T14:33:18.000Z</time>
      </trkpt>
      <trkpt lat="42.93089" lon="0.57657">
        <ele>949</ele>
        <time>2019-02-03T14:33:19.000Z</time>
      </trkpt>
      <trkpt lat="42.9309" lon="0.57656">
        <ele>949</ele>
        <time>2019-02-03T14:33:20.000Z</time>
      </trkpt>
      <trkpt lat="42.9309" lon="0.57654">
        <ele>949</ele>
        <time>2019-02-03T14:33:21.000Z</time>
      </trkpt>
      <trkpt lat="42.93091" lon="0.57653">
        <ele>948.7</ele>
        <time>2019-02-03T14:33:22.000Z</time>
      </trkpt>
      <trkpt lat="42.93091" lon="0.57652">
        <ele>948.3</ele>
        <time>2019-02-03T14:33:23.000Z</time>
      </trkpt>
      <trkpt lat="42.93092" lon="0.5765">
        <ele>948</ele>
        <time>2019-02-03T14:33:24.000Z</time>
      </trkpt>
      <trkpt lat="42.93093" lon="0.57649">
        <ele>947</ele>
        <time>2019-02-03T14:33:25.000Z</time>
      </trkpt>
      <trkpt lat="42.93094" lon="0.57648">
        <ele>947</ele>
        <time>2019-02-03T14:33:26.000Z</time>
      </trkpt>
      <trkpt lat="42.93095" lon="0.57647">
        <ele>947</ele>
        <time>2019-02-03T14:33:27.000Z</time>
      </trkpt>
      <trkpt lat="42.93095" lon="0.57646">
        <ele>946.7</ele>
        <time>2019-02-03T14:33:28.000Z</time>
      </trkpt>
      <trkpt lat="42.93096" lon="0.57646">
        <ele>946.3</ele>
        <time>2019-02-03T14:33:29.000Z</time>
      </trkpt>
      <trkpt lat="42.93097" lon="0.57645">
        <ele>946</ele>
        <time>2019-02-03T14:33:30.000Z</time>
      </trkpt>
      <trkpt lat="42.93098" lon="0.57644">
        <ele>946</ele>
        <time>2019-02-03T14:33:31.000Z</time>
      </trkpt>
      <trkpt lat="42.93099" lon="0.57643">
        <ele>946</ele>
        <time>2019-02-03T14:33:32.000Z</time>
      </trkpt>
      <trkpt lat="42.93099" lon="0.57642">
        <ele>946</ele>
        <time>2019-02-03T14:33:33.000Z</time>
      </trkpt>
      <trkpt lat="42.931" lon="0.57642">
        <ele>946</ele>
        <time>2019-02-03T14:33:34.000Z</time>
      </trkpt>
      <trkpt lat="42.93101" lon="0.57641">
        <ele>945</ele>
        <time>2019-02-03T14:33:35.000Z</time>
      </trkpt>
      <trkpt lat="42.93101" lon="0.57641">
        <ele>945</ele>
        <time>2019-02-03T14:33:36.000Z</time>
      </trkpt>
      <trkpt lat="42.93102" lon="0.5764">
        <ele>945</ele>
        <time>2019-02-03T14:33:37.000Z</time>
      </trkpt>
      <trkpt lat="42.93102" lon="0.5764">
        <ele>945</ele>
        <time>2019-02-03T14:33:38.000Z</time>
      </trkpt>
      <trkpt lat="42.93103" lon="0.57639">
        <ele>945</ele>
        <time>2019-02-03T14:33:39.000Z</time>
      </trkpt>
      <trkpt lat="42.93104" lon="0.57639">
        <ele>945</ele>
        <time>2019-02-03T14:33:40.000Z</time>
      </trkpt>
      <trkpt lat="42.93105" lon="0.57638">
        <ele>944</ele>
        <time>2019-02-03T14:33:41.000Z</time>
      </trkpt>
      <trkpt lat="42.93105" lon="0.57637">
        <ele>943.7</ele>
        <time>2019-02-03T14:33:42.000Z</time>
      </trkpt>
      <trkpt lat="42.93106" lon="0.57636">
        <ele>943.3</ele>
        <time>2019-02-03T14:33:43.000Z</time>
      </trkpt>
      <trkpt lat="42.93107" lon="0.57635">
        <ele>943</ele>
        <time>2019-02-03T14:33:44.000Z</time>
      </trkpt>
      <trkpt lat="42.93108" lon="0.57635">
        <ele>942.5</ele>
        <time>2019-02-03T14:33:45.000Z</time>
      </trkpt>
      <trkpt lat="42.93108" lon="0.57634">
        <ele>942</ele>
        <time>2019-02-03T14:33:46.000Z</time>
      </trkpt>
      <trkpt lat="42.93109" lon="0.57634">
        <ele>942</ele>
        <time>2019-02-03T14:33:47.000Z</time>
      </trkpt>
      <trkpt lat="42.9311" lon="0.57634">
        <ele>942</ele>
        <time>2019-02-03T14:33:48.000Z</time>
      </trkpt>
      <trkpt lat="42.9311" lon="0.57633">
        <ele>941</ele>
        <time>2019-02-03T14:33:49.000Z</time>
      </trkpt>
      <trkpt lat="42.93111" lon="0.57633">
        <ele>941</ele>
        <time>2019-02-03T14:33:50.000Z</time>
      </trkpt>
      <trkpt lat="42.93111" lon="0.57633">
        <ele>941</ele>
        <time>2019-02-03T14:33:51.000Z</time>
      </trkpt>
      <trkpt lat="42.93112" lon="0.57632">
        <ele>941</ele>
        <time>2019-02-03T14:33:52.000Z</time>
      </trkpt>
      <trkpt lat="42.93113" lon="0.57632">
        <ele>940.5</ele>
        <time>2019-02-03T14:33:53.000Z</time>
      </trkpt>
      <trkpt lat="42.93113" lon="0.57632">
        <ele>940</ele>
        <time>2019-02-03T14:33:54.000Z</time>
      </trkpt>
      <trkpt lat="42.93114" lon="0.57631">
        <ele>940</ele>
        <time>2019-02-03T14:33:55.000Z</time>
      </trkpt>
      <trkpt lat="42.93115" lon="0.57631">
        <ele>940</ele>
        <time>2019-02-03T14:33:56.000Z</time>
      </trkpt>
      <trkpt lat="42.93115" lon="0.5763">
        <ele>939.5</ele>
        <time>2019-02-03T14:33:57.000Z</time>
      </trkpt>
      <trkpt lat="42.93116" lon="0.5763">
        <ele>939</ele>
        <time>2019-02-03T14:33:58.000Z</time>
      </trkpt>
      <trkpt lat="42.93117" lon="0.57629">
        <ele>939</ele>
        <time>2019-02-03T14:33:59.000Z</time>
      </trkpt>
      <trkpt lat="42.93117" lon="0.57629">
        <ele>938.7</ele>
        <time>2019-02-03T14:34:00.000Z</time>
      </trkpt>
      <trkpt lat="42.93118" lon="0.57628">
        <ele>938.3</ele>
        <time>2019-02-03T14:34:01.000Z</time>
      </trkpt>
      <trkpt lat="42.93119" lon="0.57628">
        <ele>938</ele>
        <time>2019-02-03T14:34:02.000Z</time>
      </trkpt>
      <trkpt lat="42.93119" lon="0.57627">
        <ele>937.5</ele>
        <time>2019-02-03T14:34:03.000Z</time>
      </trkpt>
      <trkpt lat="42.93119" lon="0.57627">
        <ele>937</ele>
        <time>2019-02-03T14:34:04.000Z</time>
      </trkpt>
      <trkpt lat="42.9312" lon="0.57626">
        <ele>936</ele>
        <time>2019-02-03T14:34:05.000Z</time>
      </trkpt>
      <trkpt lat="42.9312" lon="0.57625">
        <ele>936</ele>
        <time>2019-02-03T14:34:06.000Z</time>
      </trkpt>
      <trkpt lat="42.93121" lon="0.57624">
        <ele>936</ele>
        <time>2019-02-03T14:34:07.000Z</time>
      </trkpt>
      <trkpt lat="42.93121" lon="0.57623">
        <ele>936</ele>
        <time>2019-02-03T14:34:08.000Z</time>
      </trkpt>
      <trkpt lat="42.93122" lon="0.57622">
        <ele>935.5</ele>
        <time>2019-02-03T14:34:09.000Z</time>
      </trkpt>
      <trkpt lat="42.93123" lon="0.57621">
        <ele>935</ele>
        <time>2019-02-03T14:34:10.000Z</time>
      </trkpt>
      <trkpt lat="42.93123" lon="0.5762">
        <ele>935</ele>
        <time>2019-02-03T14:34:11.000Z</time>
      </trkpt>
      <trkpt lat="42.93124" lon="0.57618">
        <ele>935</ele>
        <time>2019-02-03T14:34:12.000Z</time>
      </trkpt>
      <trkpt lat="42.93125" lon="0.57617">
        <ele>934.5</ele>
        <time>2019-02-03T14:34:13.000Z</time>
      </trkpt>
      <trkpt lat="42.93126" lon="0.57616">
        <ele>934</ele>
        <time>2019-02-03T14:34:14.000Z</time>
      </trkpt>
      <trkpt lat="42.93127" lon="0.57615">
        <ele>934</ele>
        <time>2019-02-03T14:34:15.000Z</time>
      </trkpt>
      <trkpt lat="42.93128" lon="0.57615">
        <ele>934</ele>
        <time>2019-02-03T14:34:16.000Z</time>
      </trkpt>
      <trkpt lat="42.93128" lon="0.57614">
        <ele>933.5</ele>
        <time>2019-02-03T14:34:17.000Z</time>
      </trkpt>
      <trkpt lat="42.93129" lon="0.57613">
        <ele>933</ele>
        <time>2019-02-03T14:34:18.000Z</time>
      </trkpt>
      <trkpt lat="42.9313" lon="0.57612">
        <ele>933</ele>
        <time>2019-02-03T14:34:19.000Z</time>
      </trkpt>
      <trkpt lat="42.93131" lon="0.57612">
        <ele>933</ele>
        <time>2019-02-03T14:34:20.000Z</time>
      </trkpt>
      <trkpt lat="42.93132" lon="0.57611">
        <ele>933</ele>
        <time>2019-02-03T14:34:21.000Z</time>
      </trkpt>
      <trkpt lat="42.93132" lon="0.57611">
        <ele>933</ele>
        <time>2019-02-03T14:34:22.000Z</time>
      </trkpt>
      <trkpt lat="42.93133" lon="0.5761">
        <ele>932.5</ele>
        <time>2019-02-03T14:34:23.000Z</time>
      </trkpt>
      <trkpt lat="42.93134" lon="0.5761">
        <ele>932</ele>
        <time>2019-02-03T14:34:24.000Z</time>
      </trkpt>
      <trkpt lat="42.93135" lon="0.57609">
        <ele>932</ele>
        <time>2019-02-03T14:34:25.000Z</time>
      </trkpt>
      <trkpt lat="42.93135" lon="0.57609">
        <ele>932</ele>
        <time>2019-02-03T14:34:26.000Z</time>
      </trkpt>
      <trkpt lat="42.93136" lon="0.57608">
        <ele>932</ele>
        <time>2019-02-03T14:34:27.000Z</time>
      </trkpt>
      <trkpt lat="42.93137" lon="0.57607">
        <ele>932</ele>
        <time>2019-02-03T14:34:28.000Z</time>
      </trkpt>
      <trkpt lat="42.93138" lon="0.57607">
        <ele>932</ele>
        <time>2019-02-03T14:34:29.000Z</time>
      </trkpt>
      <trkpt lat="42.93138" lon="0.57606">
        <ele>932</ele>
        <time>2019-02-03T14:34:30.000Z</time>
      </trkpt>
      <trkpt lat="42.93139" lon="0.57605">
        <ele>931.5</ele>
        <time>2019-02-03T14:34:31.000Z</time>
      </trkpt>
      <trkpt lat="42.9314" lon="0.57605">
        <ele>931</ele>
        <time>2019-02-03T14:34:32.000Z</time>
      </trkpt>
      <trkpt lat="42.93141" lon="0.57604">
        <ele>931</ele>
        <time>2019-02-03T14:34:33.000Z</time>
      </trkpt>
      <trkpt lat="42.93142" lon="0.57604">
        <ele>930.7</ele>
        <time>2019-02-03T14:34:34.000Z</time>
      </trkpt>
      <trkpt lat="42.93143" lon="0.57603">
        <ele>930.3</ele>
        <time>2019-02-03T14:34:35.000Z</time>
      </trkpt>
      <trkpt lat="42.93144" lon="0.57603">
        <ele>930</ele>
        <time>2019-02-03T14:34:36.000Z</time>
      </trkpt>
      <trkpt lat="42.93145" lon="0.57603">
        <ele>930</ele>
        <time>2019-02-03T14:34:37.000Z</time>
      </trkpt>
      <trkpt lat="42.93146" lon="0.57603">
        <ele>930</ele>
        <time>2019-02-03T14:34:38.000Z</time>
      </trkpt>
      <trkpt lat="42.93147" lon="0.57602">
        <ele>929.5</ele>
        <time>2019-02-03T14:34:39.000Z</time>
      </trkpt>
      <trkpt lat="42.93148" lon="0.57602">
        <ele>929</ele>
        <time>2019-02-03T14:34:40.000Z</time>
      </trkpt>
      <trkpt lat="42.93149" lon="0.57602">
        <ele>929</ele>
        <time>2019-02-03T14:34:41.000Z</time>
      </trkpt>
      <trkpt lat="42.93149" lon="0.57602">
        <ele>929</ele>
        <time>2019-02-03T14:34:42.000Z</time>
      </trkpt>
      <trkpt lat="42.9315" lon="0.57601">
        <ele>929</ele>
        <time>2019-02-03T14:34:43.000Z</time>
      </trkpt>
      <trkpt lat="42.93151" lon="0.57601">
        <ele>929</ele>
        <time>2019-02-03T14:34:44.000Z</time>
      </trkpt>
      <trkpt lat="42.93152" lon="0.57601">
        <ele>928.5</ele>
        <time>2019-02-03T14:34:45.000Z</time>
      </trkpt>
      <trkpt lat="42.93152" lon="0.576">
        <ele>928</ele>
        <time>2019-02-03T14:34:46.000Z</time>
      </trkpt>
      <trkpt lat="42.93153" lon="0.576">
        <ele>928</ele>
        <time>2019-02-03T14:34:47.000Z</time>
      </trkpt>
      <trkpt lat="42.93154" lon="0.57599">
        <ele>927.7</ele>
        <time>2019-02-03T14:34:48.000Z</time>
      </trkpt>
      <trkpt lat="42.93155" lon="0.57599">
        <ele>927.3</ele>
        <time>2019-02-03T14:34:49.000Z</time>
      </trkpt>
      <trkpt lat="42.93155" lon="0.57598">
        <ele>927</ele>
        <time>2019-02-03T14:34:50.000Z</time>
      </trkpt>
      <trkpt lat="42.93156" lon="0.57598">
        <ele>927</ele>
        <time>2019-02-03T14:34:51.000Z</time>
      </trkpt>
      <trkpt lat="42.93157" lon="0.57597">
        <ele>927</ele>
        <time>2019-02-03T14:34:52.000Z</time>
      </trkpt>
      <trkpt lat="42.93157" lon="0.57597">
        <ele>927</ele>
        <time>2019-02-03T14:34:53.000Z</time>
      </trkpt>
      <trkpt lat="42.93158" lon="0.57596">
        <ele>927</ele>
        <time>2019-02-03T14:34:54.000Z</time>
      </trkpt>
      <trkpt lat="42.93159" lon="0.57596">
        <ele>926.5</ele>
        <time>2019-02-03T14:34:55.000Z</time>
      </trkpt>
      <trkpt lat="42.9316" lon="0.57595">
        <ele>926</ele>
        <time>2019-02-03T14:34:56.000Z</time>
      </trkpt>
      <trkpt lat="42.9316" lon="0.57595">
        <ele>926</ele>
        <time>2019-02-03T14:34:57.000Z</time>
      </trkpt>
      <trkpt lat="42.93161" lon="0.57594">
        <ele>926</ele>
        <time>2019-02-03T14:34:58.000Z</time>
      </trkpt>
      <trkpt lat="42.93162" lon="0.57594">
        <ele>925.5</ele>
        <time>2019-02-03T14:34:59.000Z</time>
      </trkpt>
      <trkpt lat="42.93163" lon="0.57593">
        <ele>925</ele>
        <time>2019-02-03T14:35:00.000Z</time>
      </trkpt>
      <trkpt lat="42.93163" lon="0.57593">
        <ele>925</ele>
        <time>2019-02-03T14:35:01.000Z</time>
      </trkpt>
      <trkpt lat="42.93164" lon="0.57593">
        <ele>925</ele>
        <time>2019-02-03T14:35:02.000Z</time>
      </trkpt>
      <trkpt lat="42.93165" lon="0.57593">
        <ele>924.5</ele>
        <time>2019-02-03T14:35:03.000Z</time>
      </trkpt>
      <trkpt lat="42.93166" lon="0.57592">
        <ele>924</ele>
        <time>2019-02-03T14:35:04.000Z</time>
      </trkpt>
      <trkpt lat="42.93166" lon="0.57592">
        <ele>924</ele>
        <time>2019-02-03T14:35:05.000Z</time>
      </trkpt>
      <trkpt lat="42.93167" lon="0.57592">
        <ele>923.7</ele>
        <time>2019-02-03T14:35:06.000Z</time>
      </trkpt>
      <trkpt lat="42.93168" lon="0.57592">
        <ele>923.3</ele>
        <time>2019-02-03T14:35:07.000Z</time>
      </trkpt>
      <trkpt lat="42.93168" lon="0.57592">
        <ele>923</ele>
        <time>2019-02-03T14:35:08.000Z</time>
      </trkpt>
      <trkpt lat="42.93168" lon="0.57591">
        <ele>923</ele>
        <time>2019-02-03T14:35:09.000Z</time>
      </trkpt>
      <trkpt lat="42.93169" lon="0.57591">
        <ele>923</ele>
        <time>2019-02-03T14:35:10.000Z</time>
      </trkpt>
      <trkpt lat="42.93169" lon="0.57591">
        <ele>922.5</ele>
        <time>2019-02-03T14:35:11.000Z</time>
      </trkpt>
      <trkpt lat="42.93169" lon="0.57591">
        <ele>922</ele>
        <time>2019-02-03T14:35:12.000Z</time>
      </trkpt>
      <trkpt lat="42.93169" lon="0.57591">
        <ele>922</ele>
        <time>2019-02-03T14:35:13.000Z</time>
      </trkpt>
      <trkpt lat="42.93169" lon="0.57591">
        <ele>922</ele>
        <time>2019-02-03T14:35:14.000Z</time>
      </trkpt>
      <trkpt lat="42.9317" lon="0.57591">
        <ele>922</ele>
        <time>2019-02-03T14:35:15.000Z</time>
      </trkpt>
      <trkpt lat="42.9317" lon="0.57591">
        <ele>922</ele>
        <time>2019-02-03T14:35:16.000Z</time>
      </trkpt>
      <trkpt lat="42.9317" lon="0.57591">
        <ele>922</ele>
        <time>2019-02-03T14:35:17.000Z</time>
      </trkpt>
      <trkpt lat="42.9317" lon="0.57591">
        <ele>922</ele>
        <time>2019-02-03T14:35:18.000Z</time>
      </trkpt>
      <trkpt lat="42.9317" lon="0.57591">
        <ele>922</ele>
        <time>2019-02-03T14:35:19.000Z</time>
      </trkpt>
      <trkpt lat="42.9317" lon="0.57591">
        <ele>922</ele>
        <time>2019-02-03T14:35:20.000Z</time>
      </trkpt>
      <trkpt lat="42.9317" lon="0.57591">
        <ele>922</ele>
        <time>2019-02-03T14:35:21.000Z</time>
      </trkpt>
      <trkpt lat="42.9317" lon="0.57591">
        <ele>922</ele>
        <time>2019-02-03T14:35:22.000Z</time>
      </trkpt>
      <trkpt lat="42.9317" lon="0.57591">
        <ele>921.5</ele>
        <time>2019-02-03T14:35:23.000Z</time>
      </trkpt>
      <trkpt lat="42.9317" lon="0.57591">
        <ele>921</ele>
        <time>2019-02-03T14:35:24.000Z</time>
      </trkpt>
      <trkpt lat="42.9317" lon="0.57591">
        <ele>922</ele>
        <time>2019-02-03T14:35:25.000Z</time>
      </trkpt>
      <trkpt lat="42.9317" lon="0.57591">
        <ele>922</ele>
        <time>2019-02-03T14:35:26.000Z</time>
      </trkpt>
      <trkpt lat="42.9317" lon="0.57591">
        <ele>922</ele>
        <time>2019-02-03T14:35:27.000Z</time>
      </trkpt>
      <trkpt lat="42.9317" lon="0.57591">
        <ele>922</ele>
        <time>2019-02-03T14:35:28.000Z</time>
      </trkpt>
      <trkpt lat="42.9317" lon="0.57591">
        <ele>922</ele>
        <time>2019-02-03T14:35:29.000Z</time>
      </trkpt>
      <trkpt lat="42.9317" lon="0.57591">
        <ele>922</ele>
        <time>2019-02-03T14:35:30.000Z</time>
      </trkpt>
      <trkpt lat="42.9317" lon="0.57591">
        <ele>922</ele>
        <time>2019-02-03T14:35:31.000Z</time>
      </trkpt>
      <trkpt lat="42.93171" lon="0.5759">
        <ele>922</ele>
        <time>2019-02-03T14:35:32.000Z</time>
      </trkpt>
      <trkpt lat="42.93172" lon="0.5759">
        <ele>922</ele>
        <time>2019-02-03T14:35:33.000Z</time>
      </trkpt>
      <trkpt lat="42.93173" lon="0.57589">
        <ele>921.7</ele>
        <time>2019-02-03T14:35:34.000Z</time>
      </trkpt>
      <trkpt lat="42.93175" lon="0.57588">
        <ele>921.3</ele>
        <time>2019-02-03T14:35:35.000Z</time>
      </trkpt>
      <trkpt lat="42.93177" lon="0.57587">
        <ele>921</ele>
        <time>2019-02-03T14:35:36.000Z</time>
      </trkpt>
      <trkpt lat="42.93178" lon="0.57587">
        <ele>921</ele>
        <time>2019-02-03T14:35:37.000Z</time>
      </trkpt>
      <trkpt lat="42.93179" lon="0.57587">
        <ele>921</ele>
        <time>2019-02-03T14:35:38.000Z</time>
      </trkpt>
      <trkpt lat="42.9318" lon="0.57587">
        <ele>921</ele>
        <time>2019-02-03T14:35:39.000Z</time>
      </trkpt>
      <trkpt lat="42.93181" lon="0.57587">
        <ele>921</ele>
        <time>2019-02-03T14:35:40.000Z</time>
      </trkpt>
      <trkpt lat="42.93181" lon="0.57587">
        <ele>920</ele>
        <time>2019-02-03T14:35:41.000Z</time>
      </trkpt>
      <trkpt lat="42.93182" lon="0.57588">
        <ele>920</ele>
        <time>2019-02-03T14:35:42.000Z</time>
      </trkpt>
      <trkpt lat="42.93182" lon="0.57587">
        <ele>920</ele>
        <time>2019-02-03T14:35:43.000Z</time>
      </trkpt>
      <trkpt lat="42.93183" lon="0.57587">
        <ele>920</ele>
        <time>2019-02-03T14:35:44.000Z</time>
      </trkpt>
      <trkpt lat="42.93184" lon="0.57587">
        <ele>920</ele>
        <time>2019-02-03T14:35:45.000Z</time>
      </trkpt>
      <trkpt lat="42.93185" lon="0.57586">
        <ele>919.7</ele>
        <time>2019-02-03T14:35:46.000Z</time>
      </trkpt>
      <trkpt lat="42.93187" lon="0.57586">
        <ele>919.3</ele>
        <time>2019-02-03T14:35:47.000Z</time>
      </trkpt>
      <trkpt lat="42.93188" lon="0.57585">
        <ele>919</ele>
        <time>2019-02-03T14:35:48.000Z</time>
      </trkpt>
      <trkpt lat="42.93189" lon="0.57585">
        <ele>919</ele>
        <time>2019-02-03T14:35:49.000Z</time>
      </trkpt>
      <trkpt lat="42.93189" lon="0.57584">
        <ele>919</ele>
        <time>2019-02-03T14:35:50.000Z</time>
      </trkpt>
      <trkpt lat="42.9319" lon="0.57584">
        <ele>919</ele>
        <time>2019-02-03T14:35:51.000Z</time>
      </trkpt>
      <trkpt lat="42.93191" lon="0.57584">
        <ele>919</ele>
        <time>2019-02-03T14:35:52.000Z</time>
      </trkpt>
      <trkpt lat="42.93191" lon="0.57583">
        <ele>918.5</ele>
        <time>2019-02-03T14:35:53.000Z</time>
      </trkpt>
      <trkpt lat="42.93192" lon="0.57583">
        <ele>918</ele>
        <time>2019-02-03T14:35:54.000Z</time>
      </trkpt>
      <trkpt lat="42.93192" lon="0.57583">
        <ele>918</ele>
        <time>2019-02-03T14:35:55.000Z</time>
      </trkpt>
      <trkpt lat="42.93193" lon="0.57582">
        <ele>917.7</ele>
        <time>2019-02-03T14:35:56.000Z</time>
      </trkpt>
      <trkpt lat="42.93193" lon="0.57582">
        <ele>917.3</ele>
        <time>2019-02-03T14:35:57.000Z</time>
      </trkpt>
      <trkpt lat="42.93193" lon="0.57582">
        <ele>917</ele>
        <time>2019-02-03T14:35:58.000Z</time>
      </trkpt>
      <trkpt lat="42.93193" lon="0.57582">
        <ele>917</ele>
        <time>2019-02-03T14:35:59.000Z</time>
      </trkpt>
      <trkpt lat="42.93193" lon="0.57581">
        <ele>917</ele>
        <time>2019-02-03T14:36:00.000Z</time>
      </trkpt>
      <trkpt lat="42.93194" lon="0.57581">
        <ele>916.5</ele>
        <time>2019-02-03T14:36:01.000Z</time>
      </trkpt>
      <trkpt lat="42.93194" lon="0.57581">
        <ele>916</ele>
        <time>2019-02-03T14:36:02.000Z</time>
      </trkpt>
      <trkpt lat="42.93194" lon="0.57581">
        <ele>916</ele>
        <time>2019-02-03T14:36:03.000Z</time>
      </trkpt>
      <trkpt lat="42.93194" lon="0.57581">
        <ele>916</ele>
        <time>2019-02-03T14:36:04.000Z</time>
      </trkpt>
      <trkpt lat="42.93194" lon="0.57581">
        <ele>916</ele>
        <time>2019-02-03T14:36:05.000Z</time>
      </trkpt>
      <trkpt lat="42.93194" lon="0.5758">
        <ele>916</ele>
        <time>2019-02-03T14:36:06.000Z</time>
      </trkpt>
      <trkpt lat="42.93195" lon="0.57579">
        <ele>915.5</ele>
        <time>2019-02-03T14:36:07.000Z</time>
      </trkpt>
      <trkpt lat="42.93196" lon="0.57577">
        <ele>915</ele>
        <time>2019-02-03T14:36:08.000Z</time>
      </trkpt>
      <trkpt lat="42.93196" lon="0.57576">
        <ele>915</ele>
        <time>2019-02-03T14:36:09.000Z</time>
      </trkpt>
      <trkpt lat="42.93197" lon="0.57575">
        <ele>914.7</ele>
        <time>2019-02-03T14:36:10.000Z</time>
      </trkpt>
      <trkpt lat="42.93197" lon="0.57574">
        <ele>914.3</ele>
        <time>2019-02-03T14:36:11.000Z</time>
      </trkpt>
      <trkpt lat="42.93198" lon="0.57573">
        <ele>914</ele>
        <time>2019-02-03T14:36:12.000Z</time>
      </trkpt>
      <trkpt lat="42.93198" lon="0.57572">
        <ele>914</ele>
        <time>2019-02-03T14:36:13.000Z</time>
      </trkpt>
      <trkpt lat="42.93199" lon="0.57572">
        <ele>913.7</ele>
        <time>2019-02-03T14:36:14.000Z</time>
      </trkpt>
      <trkpt lat="42.932" lon="0.57571">
        <ele>913.3</ele>
        <time>2019-02-03T14:36:15.000Z</time>
      </trkpt>
      <trkpt lat="42.932" lon="0.5757">
        <ele>913</ele>
        <time>2019-02-03T14:36:16.000Z</time>
      </trkpt>
      <trkpt lat="42.93201" lon="0.57569">
        <ele>913</ele>
        <time>2019-02-03T14:36:17.000Z</time>
      </trkpt>
      <trkpt lat="42.93202" lon="0.57568">
        <ele>913</ele>
        <time>2019-02-03T14:36:18.000Z</time>
      </trkpt>
      <trkpt lat="42.93202" lon="0.57567">
        <ele>912</ele>
        <time>2019-02-03T14:36:19.000Z</time>
      </trkpt>
      <trkpt lat="42.93203" lon="0.57567">
        <ele>912</ele>
        <time>2019-02-03T14:36:20.000Z</time>
      </trkpt>
      <trkpt lat="42.93204" lon="0.57566">
        <ele>912</ele>
        <time>2019-02-03T14:36:21.000Z</time>
      </trkpt>
      <trkpt lat="42.93204" lon="0.57565">
        <ele>912</ele>
        <time>2019-02-03T14:36:22.000Z</time>
      </trkpt>
      <trkpt lat="42.93205" lon="0.57564">
        <ele>912</ele>
        <time>2019-02-03T14:36:23.000Z</time>
      </trkpt>
      <trkpt lat="42.93206" lon="0.57563">
        <ele>912</ele>
        <time>2019-02-03T14:36:24.000Z</time>
      </trkpt>
      <trkpt lat="42.93206" lon="0.57562">
        <ele>911</ele>
        <time>2019-02-03T14:36:25.000Z</time>
      </trkpt>
      <trkpt lat="42.93207" lon="0.57561">
        <ele>911</ele>
        <time>2019-02-03T14:36:26.000Z</time>
      </trkpt>
      <trkpt lat="42.93208" lon="0.57561">
        <ele>911</ele>
        <time>2019-02-03T14:36:27.000Z</time>
      </trkpt>
      <trkpt lat="42.93208" lon="0.5756">
        <ele>910.7</ele>
        <time>2019-02-03T14:36:28.000Z</time>
      </trkpt>
      <trkpt lat="42.93209" lon="0.57559">
        <ele>910.3</ele>
        <time>2019-02-03T14:36:29.000Z</time>
      </trkpt>
      <trkpt lat="42.93209" lon="0.57558">
        <ele>910</ele>
        <time>2019-02-03T14:36:30.000Z</time>
      </trkpt>
      <trkpt lat="42.9321" lon="0.57558">
        <ele>910</ele>
        <time>2019-02-03T14:36:31.000Z</time>
      </trkpt>
      <trkpt lat="42.9321" lon="0.57557">
        <ele>910</ele>
        <time>2019-02-03T14:36:32.000Z</time>
      </trkpt>
      <trkpt lat="42.93211" lon="0.57556">
        <ele>910</ele>
        <time>2019-02-03T14:36:33.000Z</time>
      </trkpt>
      <trkpt lat="42.93211" lon="0.57555">
        <ele>910</ele>
        <time>2019-02-03T14:36:34.000Z</time>
      </trkpt>
      <trkpt lat="42.93211" lon="0.57555">
        <ele>909.5</ele>
        <time>2019-02-03T14:36:35.000Z</time>
      </trkpt>
      <trkpt lat="42.93212" lon="0.57554">
        <ele>909</ele>
        <time>2019-02-03T14:36:36.000Z</time>
      </trkpt>
      <trkpt lat="42.93212" lon="0.57553">
        <ele>909</ele>
        <time>2019-02-03T14:36:37.000Z</time>
      </trkpt>
      <trkpt lat="42.93212" lon="0.57552">
        <ele>909</ele>
        <time>2019-02-03T14:36:38.000Z</time>
      </trkpt>
      <trkpt lat="42.93213" lon="0.5755">
        <ele>908</ele>
        <time>2019-02-03T14:36:39.000Z</time>
      </trkpt>
      <trkpt lat="42.93213" lon="0.57549">
        <ele>908</ele>
        <time>2019-02-03T14:36:40.000Z</time>
      </trkpt>
      <trkpt lat="42.93213" lon="0.57548">
        <ele>908</ele>
        <time>2019-02-03T14:36:41.000Z</time>
      </trkpt>
      <trkpt lat="42.93214" lon="0.57547">
        <ele>907.7</ele>
        <time>2019-02-03T14:36:42.000Z</time>
      </trkpt>
      <trkpt lat="42.93214" lon="0.57546">
        <ele>907.3</ele>
        <time>2019-02-03T14:36:43.000Z</time>
      </trkpt>
      <trkpt lat="42.93214" lon="0.57544">
        <ele>907</ele>
        <time>2019-02-03T14:36:44.000Z</time>
      </trkpt>
      <trkpt lat="42.93215" lon="0.57543">
        <ele>907</ele>
        <time>2019-02-03T14:36:45.000Z</time>
      </trkpt>
      <trkpt lat="42.93216" lon="0.57542">
        <ele>907</ele>
        <time>2019-02-03T14:36:46.000Z</time>
      </trkpt>
      <trkpt lat="42.93216" lon="0.57541">
        <ele>906.5</ele>
        <time>2019-02-03T14:36:47.000Z</time>
      </trkpt>
      <trkpt lat="42.93217" lon="0.5754">
        <ele>906</ele>
        <time>2019-02-03T14:36:48.000Z</time>
      </trkpt>
      <trkpt lat="42.93217" lon="0.57539">
        <ele>906</ele>
        <time>2019-02-03T14:36:49.000Z</time>
      </trkpt>
      <trkpt lat="42.93217" lon="0.57538">
        <ele>905.7</ele>
        <time>2019-02-03T14:36:50.000Z</time>
      </trkpt>
      <trkpt lat="42.93218" lon="0.57537">
        <ele>905.3</ele>
        <time>2019-02-03T14:36:51.000Z</time>
      </trkpt>
      <trkpt lat="42.93218" lon="0.57536">
        <ele>905</ele>
        <time>2019-02-03T14:36:52.000Z</time>
      </trkpt>
      <trkpt lat="42.93218" lon="0.57535">
        <ele>905</ele>
        <time>2019-02-03T14:36:53.000Z</time>
      </trkpt>
      <trkpt lat="42.93219" lon="0.57534">
        <ele>905</ele>
        <time>2019-02-03T14:36:54.000Z</time>
      </trkpt>
      <trkpt lat="42.93219" lon="0.57533">
        <ele>904.5</ele>
        <time>2019-02-03T14:36:55.000Z</time>
      </trkpt>
      <trkpt lat="42.93219" lon="0.57533">
        <ele>904</ele>
        <time>2019-02-03T14:36:56.000Z</time>
      </trkpt>
      <trkpt lat="42.93219" lon="0.57532">
        <ele>904</ele>
        <time>2019-02-03T14:36:57.000Z</time>
      </trkpt>
      <trkpt lat="42.9322" lon="0.57531">
        <ele>904</ele>
        <time>2019-02-03T14:36:58.000Z</time>
      </trkpt>
      <trkpt lat="42.9322" lon="0.5753">
        <ele>903.5</ele>
        <time>2019-02-03T14:36:59.000Z</time>
      </trkpt>
      <trkpt lat="42.9322" lon="0.57529">
        <ele>903</ele>
        <time>2019-02-03T14:37:00.000Z</time>
      </trkpt>
      <trkpt lat="42.9322" lon="0.57529">
        <ele>903</ele>
        <time>2019-02-03T14:37:01.000Z</time>
      </trkpt>
      <trkpt lat="42.9322" lon="0.57528">
        <ele>902.7</ele>
        <time>2019-02-03T14:37:02.000Z</time>
      </trkpt>
      <trkpt lat="42.9322" lon="0.57527">
        <ele>902.3</ele>
        <time>2019-02-03T14:37:03.000Z</time>
      </trkpt>
      <trkpt lat="42.9322" lon="0.57526">
        <ele>902</ele>
        <time>2019-02-03T14:37:04.000Z</time>
      </trkpt>
      <trkpt lat="42.9322" lon="0.57525">
        <ele>902</ele>
        <time>2019-02-03T14:37:05.000Z</time>
      </trkpt>
      <trkpt lat="42.9322" lon="0.57523">
        <ele>902</ele>
        <time>2019-02-03T14:37:06.000Z</time>
      </trkpt>
      <trkpt lat="42.93219" lon="0.57522">
        <ele>901.5</ele>
        <time>2019-02-03T14:37:07.000Z</time>
      </trkpt>
      <trkpt lat="42.93219" lon="0.57521">
        <ele>901</ele>
        <time>2019-02-03T14:37:08.000Z</time>
      </trkpt>
      <trkpt lat="42.93219" lon="0.5752">
        <ele>901</ele>
        <time>2019-02-03T14:37:09.000Z</time>
      </trkpt>
      <trkpt lat="42.93219" lon="0.57519">
        <ele>901</ele>
        <time>2019-02-03T14:37:10.000Z</time>
      </trkpt>
      <trkpt lat="42.93218" lon="0.57517">
        <ele>900</ele>
        <time>2019-02-03T14:37:11.000Z</time>
      </trkpt>
      <trkpt lat="42.93218" lon="0.57516">
        <ele>900</ele>
        <time>2019-02-03T14:37:12.000Z</time>
      </trkpt>
      <trkpt lat="42.93218" lon="0.57515">
        <ele>900</ele>
        <time>2019-02-03T14:37:13.000Z</time>
      </trkpt>
      <trkpt lat="42.93218" lon="0.57514">
        <ele>899.7</ele>
        <time>2019-02-03T14:37:14.000Z</time>
      </trkpt>
      <trkpt lat="42.93218" lon="0.57512">
        <ele>899.3</ele>
        <time>2019-02-03T14:37:15.000Z</time>
      </trkpt>
      <trkpt lat="42.93218" lon="0.57511">
        <ele>899</ele>
        <time>2019-02-03T14:37:16.000Z</time>
      </trkpt>
      <trkpt lat="42.93218" lon="0.5751">
        <ele>899</ele>
        <time>2019-02-03T14:37:17.000Z</time>
      </trkpt>
      <trkpt lat="42.93218" lon="0.57509">
        <ele>898.7</ele>
        <time>2019-02-03T14:37:18.000Z</time>
      </trkpt>
      <trkpt lat="42.93218" lon="0.57508">
        <ele>898.3</ele>
        <time>2019-02-03T14:37:19.000Z</time>
      </trkpt>
      <trkpt lat="42.93218" lon="0.57507">
        <ele>898</ele>
        <time>2019-02-03T14:37:20.000Z</time>
      </trkpt>
      <trkpt lat="42.93218" lon="0.57506">
        <ele>898</ele>
        <time>2019-02-03T14:37:21.000Z</time>
      </trkpt>
      <trkpt lat="42.93218" lon="0.57505">
        <ele>897.7</ele>
        <time>2019-02-03T14:37:22.000Z</time>
      </trkpt>
      <trkpt lat="42.93218" lon="0.57504">
        <ele>897.3</ele>
        <time>2019-02-03T14:37:23.000Z</time>
      </trkpt>
      <trkpt lat="42.93217" lon="0.57503">
        <ele>897</ele>
        <time>2019-02-03T14:37:24.000Z</time>
      </trkpt>
      <trkpt lat="42.93217" lon="0.57502">
        <ele>897</ele>
        <time>2019-02-03T14:37:25.000Z</time>
      </trkpt>
      <trkpt lat="42.93217" lon="0.57501">
        <ele>896.7</ele>
        <time>2019-02-03T14:37:26.000Z</time>
      </trkpt>
      <trkpt lat="42.93217" lon="0.575">
        <ele>896.3</ele>
        <time>2019-02-03T14:37:27.000Z</time>
      </trkpt>
      <trkpt lat="42.93217" lon="0.57499">
        <ele>896</ele>
        <time>2019-02-03T14:37:28.000Z</time>
      </trkpt>
      <trkpt lat="42.93217" lon="0.57498">
        <ele>896</ele>
        <time>2019-02-03T14:37:29.000Z</time>
      </trkpt>
      <trkpt lat="42.93216" lon="0.57496">
        <ele>895.7</ele>
        <time>2019-02-03T14:37:30.000Z</time>
      </trkpt>
      <trkpt lat="42.93216" lon="0.57495">
        <ele>895.3</ele>
        <time>2019-02-03T14:37:31.000Z</time>
      </trkpt>
      <trkpt lat="42.93216" lon="0.57494">
        <ele>895</ele>
        <time>2019-02-03T14:37:32.000Z</time>
      </trkpt>
      <trkpt lat="42.93216" lon="0.57493">
        <ele>895</ele>
        <time>2019-02-03T14:37:33.000Z</time>
      </trkpt>
      <trkpt lat="42.93215" lon="0.57492">
        <ele>895</ele>
        <time>2019-02-03T14:37:34.000Z</time>
      </trkpt>
      <trkpt lat="42.93215" lon="0.57491">
        <ele>895</ele>
        <time>2019-02-03T14:37:35.000Z</time>
      </trkpt>
      <trkpt lat="42.93215" lon="0.5749">
        <ele>895</ele>
        <time>2019-02-03T14:37:36.000Z</time>
      </trkpt>
      <trkpt lat="42.93215" lon="0.57489">
        <ele>894</ele>
        <time>2019-02-03T14:37:37.000Z</time>
      </trkpt>
      <trkpt lat="42.93214" lon="0.57489">
        <ele>894</ele>
        <time>2019-02-03T14:37:38.000Z</time>
      </trkpt>
      <trkpt lat="42.93214" lon="0.57488">
        <ele>894</ele>
        <time>2019-02-03T14:37:39.000Z</time>
      </trkpt>
      <trkpt lat="42.93214" lon="0.57488">
        <ele>893.7</ele>
        <time>2019-02-03T14:37:40.000Z</time>
      </trkpt>
      <trkpt lat="42.93214" lon="0.57487">
        <ele>893.3</ele>
        <time>2019-02-03T14:37:41.000Z</time>
      </trkpt>
      <trkpt lat="42.93214" lon="0.57486">
        <ele>893</ele>
        <time>2019-02-03T14:37:42.000Z</time>
      </trkpt>
      <trkpt lat="42.93214" lon="0.57485">
        <ele>893</ele>
        <time>2019-02-03T14:37:43.000Z</time>
      </trkpt>
      <trkpt lat="42.93213" lon="0.57483">
        <ele>893</ele>
        <time>2019-02-03T14:37:44.000Z</time>
      </trkpt>
      <trkpt lat="42.93213" lon="0.5748">
        <ele>892</ele>
        <time>2019-02-03T14:37:45.000Z</time>
      </trkpt>
      <trkpt lat="42.93213" lon="0.57478">
        <ele>891.5</ele>
        <time>2019-02-03T14:37:46.000Z</time>
      </trkpt>
      <trkpt lat="42.93213" lon="0.57477">
        <ele>891</ele>
        <time>2019-02-03T14:37:47.000Z</time>
      </trkpt>
      <trkpt lat="42.93214" lon="0.57477">
        <ele>891</ele>
        <time>2019-02-03T14:37:48.000Z</time>
      </trkpt>
      <trkpt lat="42.93214" lon="0.57476">
        <ele>891</ele>
        <time>2019-02-03T14:37:49.000Z</time>
      </trkpt>
      <trkpt lat="42.93214" lon="0.57475">
        <ele>891</ele>
        <time>2019-02-03T14:37:50.000Z</time>
      </trkpt>
      <trkpt lat="42.93214" lon="0.57473">
        <ele>891</ele>
        <time>2019-02-03T14:37:51.000Z</time>
      </trkpt>
      <trkpt lat="42.93214" lon="0.57472">
        <ele>890.5</ele>
        <time>2019-02-03T14:37:52.000Z</time>
      </trkpt>
      <trkpt lat="42.93215" lon="0.57471">
        <ele>890</ele>
        <time>2019-02-03T14:37:53.000Z</time>
      </trkpt>
      <trkpt lat="42.93215" lon="0.5747">
        <ele>890</ele>
        <time>2019-02-03T14:37:54.000Z</time>
      </trkpt>
      <trkpt lat="42.93215" lon="0.57469">
        <ele>890</ele>
        <time>2019-02-03T14:37:55.000Z</time>
      </trkpt>
      <trkpt lat="42.93216" lon="0.57468">
        <ele>890</ele>
        <time>2019-02-03T14:37:56.000Z</time>
      </trkpt>
      <trkpt lat="42.93216" lon="0.57467">
        <ele>890</ele>
        <time>2019-02-03T14:37:57.000Z</time>
      </trkpt>
      <trkpt lat="42.93216" lon="0.57466">
        <ele>890</ele>
        <time>2019-02-03T14:37:58.000Z</time>
      </trkpt>
      <trkpt lat="42.93216" lon="0.57465">
        <ele>890</ele>
        <time>2019-02-03T14:37:59.000Z</time>
      </trkpt>
      <trkpt lat="42.93216" lon="0.57464">
        <ele>890</ele>
        <time>2019-02-03T14:38:00.000Z</time>
      </trkpt>
      <trkpt lat="42.93216" lon="0.57462">
        <ele>889.5</ele>
        <time>2019-02-03T14:38:01.000Z</time>
      </trkpt>
      <trkpt lat="42.93216" lon="0.57461">
        <ele>889</ele>
        <time>2019-02-03T14:38:02.000Z</time>
      </trkpt>
      <trkpt lat="42.93216" lon="0.57459">
        <ele>889</ele>
        <time>2019-02-03T14:38:03.000Z</time>
      </trkpt>
      <trkpt lat="42.93216" lon="0.57458">
        <ele>889</ele>
        <time>2019-02-03T14:38:04.000Z</time>
      </trkpt>
      <trkpt lat="42.93216" lon="0.57456">
        <ele>888</ele>
        <time>2019-02-03T14:38:05.000Z</time>
      </trkpt>
      <trkpt lat="42.93216" lon="0.57455">
        <ele>888</ele>
        <time>2019-02-03T14:38:06.000Z</time>
      </trkpt>
      <trkpt lat="42.93216" lon="0.57454">
        <ele>888</ele>
        <time>2019-02-03T14:38:07.000Z</time>
      </trkpt>
      <trkpt lat="42.93216" lon="0.57452">
        <ele>888</ele>
        <time>2019-02-03T14:38:08.000Z</time>
      </trkpt>
      <trkpt lat="42.93216" lon="0.57451">
        <ele>888</ele>
        <time>2019-02-03T14:38:09.000Z</time>
      </trkpt>
      <trkpt lat="42.93216" lon="0.5745">
        <ele>887.5</ele>
        <time>2019-02-03T14:38:10.000Z</time>
      </trkpt>
      <trkpt lat="42.93216" lon="0.57449">
        <ele>887</ele>
        <time>2019-02-03T14:38:11.000Z</time>
      </trkpt>
      <trkpt lat="42.93216" lon="0.57447">
        <ele>887</ele>
        <time>2019-02-03T14:38:12.000Z</time>
      </trkpt>
      <trkpt lat="42.93216" lon="0.57446">
        <ele>887</ele>
        <time>2019-02-03T14:38:13.000Z</time>
      </trkpt>
      <trkpt lat="42.93216" lon="0.57445">
        <ele>887</ele>
        <time>2019-02-03T14:38:14.000Z</time>
      </trkpt>
      <trkpt lat="42.93216" lon="0.57444">
        <ele>887</ele>
        <time>2019-02-03T14:38:15.000Z</time>
      </trkpt>
      <trkpt lat="42.93216" lon="0.57443">
        <ele>886.5</ele>
        <time>2019-02-03T14:38:16.000Z</time>
      </trkpt>
      <trkpt lat="42.93216" lon="0.57442">
        <ele>886</ele>
        <time>2019-02-03T14:38:17.000Z</time>
      </trkpt>
      <trkpt lat="42.93216" lon="0.5744">
        <ele>886</ele>
        <time>2019-02-03T14:38:18.000Z</time>
      </trkpt>
      <trkpt lat="42.93216" lon="0.57439">
        <ele>886</ele>
        <time>2019-02-03T14:38:19.000Z</time>
      </trkpt>
      <trkpt lat="42.93217" lon="0.57438">
        <ele>886</ele>
        <time>2019-02-03T14:38:20.000Z</time>
      </trkpt>
      <trkpt lat="42.93217" lon="0.57437">
        <ele>886</ele>
        <time>2019-02-03T14:38:21.000Z</time>
      </trkpt>
      <trkpt lat="42.93217" lon="0.57436">
        <ele>886</ele>
        <time>2019-02-03T14:38:22.000Z</time>
      </trkpt>
      <trkpt lat="42.93217" lon="0.57434">
        <ele>886</ele>
        <time>2019-02-03T14:38:23.000Z</time>
      </trkpt>
      <trkpt lat="42.93217" lon="0.57433">
        <ele>886</ele>
        <time>2019-02-03T14:38:24.000Z</time>
      </trkpt>
      <trkpt lat="42.93217" lon="0.57432">
        <ele>885</ele>
        <time>2019-02-03T14:38:25.000Z</time>
      </trkpt>
      <trkpt lat="42.93218" lon="0.57431">
        <ele>885</ele>
        <time>2019-02-03T14:38:26.000Z</time>
      </trkpt>
      <trkpt lat="42.93218" lon="0.57429">
        <ele>885</ele>
        <time>2019-02-03T14:38:27.000Z</time>
      </trkpt>
      <trkpt lat="42.93218" lon="0.57428">
        <ele>885</ele>
        <time>2019-02-03T14:38:28.000Z</time>
      </trkpt>
      <trkpt lat="42.93218" lon="0.57427">
        <ele>885</ele>
        <time>2019-02-03T14:38:29.000Z</time>
      </trkpt>
      <trkpt lat="42.93218" lon="0.57426">
        <ele>885</ele>
        <time>2019-02-03T14:38:30.000Z</time>
      </trkpt>
      <trkpt lat="42.93218" lon="0.57424">
        <ele>885</ele>
        <time>2019-02-03T14:38:31.000Z</time>
      </trkpt>
      <trkpt lat="42.93218" lon="0.57423">
        <ele>884.5</ele>
        <time>2019-02-03T14:38:32.000Z</time>
      </trkpt>
      <trkpt lat="42.93218" lon="0.57422">
        <ele>884</ele>
        <time>2019-02-03T14:38:33.000Z</time>
      </trkpt>
      <trkpt lat="42.93218" lon="0.57421">
        <ele>884</ele>
        <time>2019-02-03T14:38:34.000Z</time>
      </trkpt>
      <trkpt lat="42.93218" lon="0.57419">
        <ele>884</ele>
        <time>2019-02-03T14:38:35.000Z</time>
      </trkpt>
      <trkpt lat="42.93218" lon="0.57418">
        <ele>884</ele>
        <time>2019-02-03T14:38:36.000Z</time>
      </trkpt>
      <trkpt lat="42.93217" lon="0.57417">
        <ele>884</ele>
        <time>2019-02-03T14:38:37.000Z</time>
      </trkpt>
      <trkpt lat="42.93217" lon="0.57416">
        <ele>884</ele>
        <time>2019-02-03T14:38:38.000Z</time>
      </trkpt>
      <trkpt lat="42.93217" lon="0.57415">
        <ele>884</ele>
        <time>2019-02-03T14:38:39.000Z</time>
      </trkpt>
      <trkpt lat="42.93217" lon="0.57414">
        <ele>884</ele>
        <time>2019-02-03T14:38:40.000Z</time>
      </trkpt>
      <trkpt lat="42.93217" lon="0.57413">
        <ele>884</ele>
        <time>2019-02-03T14:38:41.000Z</time>
      </trkpt>
      <trkpt lat="42.93217" lon="0.57412">
        <ele>884</ele>
        <time>2019-02-03T14:38:42.000Z</time>
      </trkpt>
      <trkpt lat="42.93218" lon="0.57411">
        <ele>883</ele>
        <time>2019-02-03T14:38:43.000Z</time>
      </trkpt>
      <trkpt lat="42.93218" lon="0.57409">
        <ele>883</ele>
        <time>2019-02-03T14:38:44.000Z</time>
      </trkpt>
      <trkpt lat="42.93218" lon="0.57408">
        <ele>883</ele>
        <time>2019-02-03T14:38:45.000Z</time>
      </trkpt>
      <trkpt lat="42.93218" lon="0.57407">
        <ele>883</ele>
        <time>2019-02-03T14:38:46.000Z</time>
      </trkpt>
      <trkpt lat="42.93218" lon="0.57406">
        <ele>883</ele>
        <time>2019-02-03T14:38:47.000Z</time>
      </trkpt>
      <trkpt lat="42.93218" lon="0.57405">
        <ele>883</ele>
        <time>2019-02-03T14:38:48.000Z</time>
      </trkpt>
      <trkpt lat="42.93218" lon="0.57404">
        <ele>883</ele>
        <time>2019-02-03T14:38:49.000Z</time>
      </trkpt>
      <trkpt lat="42.93217" lon="0.57402">
        <ele>883</ele>
        <time>2019-02-03T14:38:50.000Z</time>
      </trkpt>
      <trkpt lat="42.93217" lon="0.57401">
        <ele>883</ele>
        <time>2019-02-03T14:38:51.000Z</time>
      </trkpt>
      <trkpt lat="42.93216" lon="0.574">
        <ele>883</ele>
        <time>2019-02-03T14:38:52.000Z</time>
      </trkpt>
      <trkpt lat="42.93216" lon="0.57398">
        <ele>883</ele>
        <time>2019-02-03T14:38:53.000Z</time>
      </trkpt>
      <trkpt lat="42.93215" lon="0.57398">
        <ele>883</ele>
        <time>2019-02-03T14:38:54.000Z</time>
      </trkpt>
      <trkpt lat="42.93215" lon="0.57397">
        <ele>883</ele>
        <time>2019-02-03T14:38:55.000Z</time>
      </trkpt>
      <trkpt lat="42.93214" lon="0.57397">
        <ele>883</ele>
        <time>2019-02-03T14:38:56.000Z</time>
      </trkpt>
      <trkpt lat="42.93214" lon="0.57396">
        <ele>883</ele>
        <time>2019-02-03T14:38:57.000Z</time>
      </trkpt>
      <trkpt lat="42.93214" lon="0.57396">
        <ele>883</ele>
        <time>2019-02-03T14:38:58.000Z</time>
      </trkpt>
      <trkpt lat="42.93214" lon="0.57396">
        <ele>883</ele>
        <time>2019-02-03T14:38:59.000Z</time>
      </trkpt>
      <trkpt lat="42.93214" lon="0.57396">
        <ele>883</ele>
        <time>2019-02-03T14:39:00.000Z</time>
      </trkpt>
      <trkpt lat="42.93214" lon="0.57396">
        <ele>883</ele>
        <time>2019-02-03T14:39:01.000Z</time>
      </trkpt>
      <trkpt lat="42.93214" lon="0.57396">
        <ele>883</ele>
        <time>2019-02-03T14:39:02.000Z</time>
      </trkpt>
      <trkpt lat="42.93214" lon="0.57396">
        <ele>883</ele>
        <time>2019-02-03T14:39:03.000Z</time>
      </trkpt>
      <trkpt lat="42.93214" lon="0.57396">
        <ele>883</ele>
        <time>2019-02-03T14:39:04.000Z</time>
      </trkpt>
      <trkpt lat="42.93214" lon="0.57395">
        <ele>883</ele>
        <time>2019-02-03T14:39:05.000Z</time>
      </trkpt>
      <trkpt lat="42.93214" lon="0.57395">
        <ele>883</ele>
        <time>2019-02-03T14:39:06.000Z</time>
      </trkpt>
      <trkpt lat="42.93214" lon="0.57395">
        <ele>883</ele>
        <time>2019-02-03T14:39:07.000Z</time>
      </trkpt>
      <trkpt lat="42.93214" lon="0.57395">
        <ele>882.7</ele>
        <time>2019-02-03T14:39:08.000Z</time>
      </trkpt>
      <trkpt lat="42.93214" lon="0.57395">
        <ele>882.3</ele>
        <time>2019-02-03T14:39:09.000Z</time>
      </trkpt>
      <trkpt lat="42.93214" lon="0.57395">
        <ele>882</ele>
        <time>2019-02-03T14:39:10.000Z</time>
      </trkpt>
      <trkpt lat="42.93214" lon="0.57395">
        <ele>883</ele>
        <time>2019-02-03T14:39:11.000Z</time>
      </trkpt>
      <trkpt lat="42.93214" lon="0.57395">
        <ele>883</ele>
        <time>2019-02-03T14:39:12.000Z</time>
      </trkpt>
      <trkpt lat="42.93214" lon="0.57395">
        <ele>883</ele>
        <time>2019-02-03T14:39:13.000Z</time>
      </trkpt>
      <trkpt lat="42.93214" lon="0.57395">
        <ele>883</ele>
        <time>2019-02-03T14:39:14.000Z</time>
      </trkpt>
      <trkpt lat="42.93214" lon="0.57395">
        <ele>883</ele>
        <time>2019-02-03T14:39:15.000Z</time>
      </trkpt>
      <trkpt lat="42.93214" lon="0.57395">
        <ele>883</ele>
        <time>2019-02-03T14:39:16.000Z</time>
      </trkpt>
      <trkpt lat="42.93214" lon="0.57395">
        <ele>883</ele>
        <time>2019-02-03T14:39:17.000Z</time>
      </trkpt>
      <trkpt lat="42.93215" lon="0.57395">
        <ele>883</ele>
        <time>2019-02-03T14:39:18.000Z</time>
      </trkpt>
      <trkpt lat="42.93215" lon="0.57395">
        <ele>883</ele>
        <time>2019-02-03T14:39:19.000Z</time>
      </trkpt>
      <trkpt lat="42.93215" lon="0.57394">
        <ele>883</ele>
        <time>2019-02-03T14:39:20.000Z</time>
      </trkpt>
      <trkpt lat="42.93215" lon="0.57394">
        <ele>883</ele>
        <time>2019-02-03T14:39:21.000Z</time>
      </trkpt>
      <trkpt lat="42.93215" lon="0.57393">
        <ele>883</ele>
        <time>2019-02-03T14:39:22.000Z</time>
      </trkpt>
      <trkpt lat="42.93215" lon="0.57393">
        <ele>883</ele>
        <time>2019-02-03T14:39:23.000Z</time>
      </trkpt>
      <trkpt lat="42.93215" lon="0.57393">
        <ele>882.7</ele>
        <time>2019-02-03T14:39:24.000Z</time>
      </trkpt>
      <trkpt lat="42.93215" lon="0.57393">
        <ele>882.3</ele>
        <time>2019-02-03T14:39:25.000Z</time>
      </trkpt>
      <trkpt lat="42.93216" lon="0.57393">
        <ele>882</ele>
        <time>2019-02-03T14:39:26.000Z</time>
      </trkpt>
      <trkpt lat="42.93216" lon="0.57393">
        <ele>882</ele>
        <time>2019-02-03T14:39:27.000Z</time>
      </trkpt>
      <trkpt lat="42.93216" lon="0.57393">
        <ele>882</ele>
        <time>2019-02-03T14:39:28.000Z</time>
      </trkpt>
      <trkpt lat="42.93216" lon="0.57393">
        <ele>882</ele>
        <time>2019-02-03T14:39:29.000Z</time>
      </trkpt>
      <trkpt lat="42.93216" lon="0.57393">
        <ele>882</ele>
        <time>2019-02-03T14:39:30.000Z</time>
      </trkpt>
      <trkpt lat="42.93216" lon="0.57393">
        <ele>882</ele>
        <time>2019-02-03T14:39:31.000Z</time>
      </trkpt>
      <trkpt lat="42.93216" lon="0.57393">
        <ele>882</ele>
        <time>2019-02-03T14:39:32.000Z</time>
      </trkpt>
      <trkpt lat="42.93216" lon="0.57393">
        <ele>882</ele>
        <time>2019-02-03T14:39:33.000Z</time>
      </trkpt>
      <trkpt lat="42.93216" lon="0.57393">
        <ele>882</ele>
        <time>2019-02-03T14:39:34.000Z</time>
      </trkpt>
      <trkpt lat="42.93216" lon="0.57393">
        <ele>883</ele>
        <time>2019-02-03T14:39:35.000Z</time>
      </trkpt>
      <trkpt lat="42.93216" lon="0.57393">
        <ele>883</ele>
        <time>2019-02-03T14:39:36.000Z</time>
      </trkpt>
      <trkpt lat="42.93216" lon="0.57393">
        <ele>883</ele>
        <time>2019-02-03T14:39:37.000Z</time>
      </trkpt>
      <trkpt lat="42.93216" lon="0.57393">
        <ele>883</ele>
        <time>2019-02-03T14:39:38.000Z</time>
      </trkpt>
      <trkpt lat="42.93216" lon="0.57393">
        <ele>883</ele>
        <time>2019-02-03T14:39:39.000Z</time>
      </trkpt>
      <trkpt lat="42.93216" lon="0.57393">
        <ele>883</ele>
        <time>2019-02-03T14:39:40.000Z</time>
      </trkpt>
      <trkpt lat="42.93216" lon="0.57393">
        <ele>883</ele>
        <time>2019-02-03T14:39:41.000Z</time>
      </trkpt>
      <trkpt lat="42.93216" lon="0.57393">
        <ele>883</ele>
        <time>2019-02-03T14:39:42.000Z</time>
      </trkpt>
      <trkpt lat="42.93216" lon="0.57393">
        <ele>883</ele>
        <time>2019-02-03T14:39:43.000Z</time>
      </trkpt>
      <trkpt lat="42.93216" lon="0.57393">
        <ele>883</ele>
        <time>2019-02-03T14:39:44.000Z</time>
      </trkpt>
      <trkpt lat="42.93216" lon="0.57393">
        <ele>883</ele>
        <time>2019-02-03T14:39:45.000Z</time>
      </trkpt>
      <trkpt lat="42.93216" lon="0.57393">
        <ele>883</ele>
        <time>2019-02-03T14:39:46.000Z</time>
      </trkpt>
      <trkpt lat="42.93216" lon="0.57393">
        <ele>883</ele>
        <time>2019-02-03T14:39:47.000Z</time>
      </trkpt>
      <trkpt lat="42.93216" lon="0.57393">
        <ele>882.5</ele>
        <time>2019-02-03T14:39:48.000Z</time>
      </trkpt>
      <trkpt lat="42.93216" lon="0.57393">
        <ele>882</ele>
        <time>2019-02-03T14:39:49.000Z</time>
      </trkpt>
      <trkpt lat="42.93216" lon="0.57393">
        <ele>882</ele>
        <time>2019-02-03T14:39:50.000Z</time>
      </trkpt>
      <trkpt lat="42.93216" lon="0.57393">
        <ele>882</ele>
        <time>2019-02-03T14:39:51.000Z</time>
      </trkpt>
      <trkpt lat="42.93216" lon="0.57393">
        <ele>882</ele>
        <time>2019-02-03T14:39:52.000Z</time>
      </trkpt>
      <trkpt lat="42.93216" lon="0.57393">
        <ele>882</ele>
        <time>2019-02-03T14:39:53.000Z</time>
      </trkpt>
      <trkpt lat="42.93216" lon="0.57393">
        <ele>882</ele>
        <time>2019-02-03T14:39:54.000Z</time>
      </trkpt>
      <trkpt lat="42.93216" lon="0.57393">
        <ele>882</ele>
        <time>2019-02-03T14:39:55.000Z</time>
      </trkpt>
      <trkpt lat="42.93216" lon="0.57393">
        <ele>882</ele>
        <time>2019-02-03T14:39:56.000Z</time>
      </trkpt>
      <trkpt lat="42.93216" lon="0.57393">
        <ele>882</ele>
        <time>2019-02-03T14:39:57.000Z</time>
      </trkpt>
      <trkpt lat="42.93217" lon="0.57393">
        <ele>882</ele>
        <time>2019-02-03T14:39:58.000Z</time>
      </trkpt>
      <trkpt lat="42.93217" lon="0.57393">
        <ele>882</ele>
        <time>2019-02-03T14:39:59.000Z</time>
      </trkpt>
      <trkpt lat="42.93217" lon="0.57393">
        <ele>882</ele>
        <time>2019-02-03T14:40:00.000Z</time>
      </trkpt>
      <trkpt lat="42.93217" lon="0.57393">
        <ele>882</ele>
        <time>2019-02-03T14:40:01.000Z</time>
      </trkpt>
      <trkpt lat="42.93217" lon="0.57393">
        <ele>882</ele>
        <time>2019-02-03T14:40:02.000Z</time>
      </trkpt>
      <trkpt lat="42.93217" lon="0.57393">
        <ele>882</ele>
        <time>2019-02-03T14:40:03.000Z</time>
      </trkpt>
      <trkpt lat="42.93218" lon="0.57393">
        <ele>882</ele>
        <time>2019-02-03T14:40:04.000Z</time>
      </trkpt>
      <trkpt lat="42.93218" lon="0.57393">
        <ele>882</ele>
        <time>2019-02-03T14:40:05.000Z</time>
      </trkpt>
      <trkpt lat="42.93218" lon="0.57393">
        <ele>882.3</ele>
        <time>2019-02-03T14:40:06.000Z</time>
      </trkpt>
      <trkpt lat="42.93218" lon="0.57393">
        <ele>882.7</ele>
        <time>2019-02-03T14:40:07.000Z</time>
      </trkpt>
      <trkpt lat="42.93218" lon="0.57393">
        <ele>883</ele>
        <time>2019-02-03T14:40:08.000Z</time>
      </trkpt>
      <trkpt lat="42.93218" lon="0.57393">
        <ele>883</ele>
        <time>2019-02-03T14:40:09.000Z</time>
      </trkpt>
      <trkpt lat="42.93218" lon="0.57393">
        <ele>883</ele>
        <time>2019-02-03T14:40:10.000Z</time>
      </trkpt>
      <trkpt lat="42.93218" lon="0.57393">
        <ele>883</ele>
        <time>2019-02-03T14:40:11.000Z</time>
      </trkpt>
      <trkpt lat="42.93218" lon="0.57393">
        <ele>883</ele>
        <time>2019-02-03T14:40:12.000Z</time>
      </trkpt>
      <trkpt lat="42.93218" lon="0.57393">
        <ele>883</ele>
        <time>2019-02-03T14:40:13.000Z</time>
      </trkpt>
      <trkpt lat="42.93218" lon="0.57393">
        <ele>883</ele>
        <time>2019-02-03T14:40:14.000Z</time>
      </trkpt>
      <trkpt lat="42.93218" lon="0.57393">
        <ele>883</ele>
        <time>2019-02-03T14:40:15.000Z</time>
      </trkpt>
      <trkpt lat="42.93218" lon="0.57393">
        <ele>883</ele>
        <time>2019-02-03T14:40:16.000Z</time>
      </trkpt>
      <trkpt lat="42.93218" lon="0.57393">
        <ele>883</ele>
        <time>2019-02-03T14:40:17.000Z</time>
      </trkpt>
      <trkpt lat="42.93218" lon="0.57393">
        <ele>883</ele>
        <time>2019-02-03T14:40:18.000Z</time>
      </trkpt>
      <trkpt lat="42.93218" lon="0.57393">
        <ele>883</ele>
        <time>2019-02-03T14:40:19.000Z</time>
      </trkpt>
      <trkpt lat="42.93218" lon="0.57393">
        <ele>883</ele>
        <time>2019-02-03T14:40:20.000Z</time>
      </trkpt>
      <trkpt lat="42.93218" lon="0.57393">
        <ele>883</ele>
        <time>2019-02-03T14:40:21.000Z</time>
      </trkpt>
      <trkpt lat="42.93218" lon="0.57393">
        <ele>883</ele>
        <time>2019-02-03T14:40:22.000Z</time>
      </trkpt>
      <trkpt lat="42.93218" lon="0.57393">
        <ele>883</ele>
        <time>2019-02-03T14:40:23.000Z</time>
      </trkpt>
      <trkpt lat="42.93218" lon="0.57393">
        <ele>883</ele>
        <time>2019-02-03T14:40:24.000Z</time>
      </trkpt>
      <trkpt lat="42.93218" lon="0.57393">
        <ele>883</ele>
        <time>2019-02-03T14:40:25.000Z</time>
      </trkpt>
      <trkpt lat="42.93218" lon="0.57393">
        <ele>883</ele>
        <time>2019-02-03T14:40:26.000Z</time>
      </trkpt>
      <trkpt lat="42.93218" lon="0.57393">
        <ele>883</ele>
        <time>2019-02-03T14:40:27.000Z</time>
      </trkpt>
      <trkpt lat="42.93218" lon="0.57393">
        <ele>883</ele>
        <time>2019-02-03T14:40:28.000Z</time>
      </trkpt>
      <trkpt lat="42.93218" lon="0.57393">
        <ele>883</ele>
        <time>2019-02-03T14:40:29.000Z</time>
      </trkpt>
      <trkpt lat="42.93218" lon="0.57393">
        <ele>883</ele>
        <time>2019-02-03T14:40:30.000Z</time>
      </trkpt>
      <trkpt lat="42.93218" lon="0.57393">
        <ele>883</ele>
        <time>2019-02-03T14:40:31.000Z</time>
      </trkpt>
      <trkpt lat="42.93218" lon="0.57393">
        <ele>883</ele>
        <time>2019-02-03T14:40:32.000Z</time>
      </trkpt>
      <trkpt lat="42.93218" lon="0.57393">
        <ele>883</ele>
        <time>2019-02-03T14:40:33.000Z</time>
      </trkpt>
      <trkpt lat="42.93218" lon="0.57393">
        <ele>883</ele>
        <time>2019-02-03T14:40:34.000Z</time>
      </trkpt>
      <trkpt lat="42.93218" lon="0.57393">
        <ele>883</ele>
        <time>2019-02-03T14:40:35.000Z</time>
      </trkpt>
      <trkpt lat="42.93218" lon="0.57393">
        <ele>883</ele>
        <time>2019-02-03T14:40:36.000Z</time>
      </trkpt>
      <trkpt lat="42.93218" lon="0.57393">
        <ele>882.5</ele>
        <time>2019-02-03T14:40:37.000Z</time>
      </trkpt>
      <trkpt lat="42.93218" lon="0.57393">
        <ele>882</ele>
        <time>2019-02-03T14:40:38.000Z</time>
      </trkpt>
      <trkpt lat="42.93218" lon="0.57393">
        <ele>882</ele>
        <time>2019-02-03T14:40:39.000Z</time>
      </trkpt>
      <trkpt lat="42.93218" lon="0.57393">
        <ele>882</ele>
        <time>2019-02-03T14:40:40.000Z</time>
      </trkpt>
      <trkpt lat="42.93218" lon="0.57393">
        <ele>882</ele>
        <time>2019-02-03T14:40:41.000Z</time>
      </trkpt>
      <trkpt lat="42.93218" lon="0.57393">
        <ele>882</ele>
        <time>2019-02-03T14:40:42.000Z</time>
      </trkpt>
      <trkpt lat="42.93218" lon="0.57393">
        <ele>882</ele>
        <time>2019-02-03T14:40:43.000Z</time>
      </trkpt>
      <trkpt lat="42.93218" lon="0.57393">
        <ele>882</ele>
        <time>2019-02-03T14:40:44.000Z</time>
      </trkpt>
      <trkpt lat="42.93218" lon="0.57393">
        <ele>882</ele>
        <time>2019-02-03T14:40:45.000Z</time>
      </trkpt>
      <trkpt lat="42.93218" lon="0.57393">
        <ele>882</ele>
        <time>2019-02-03T14:40:46.000Z</time>
      </trkpt>
      <trkpt lat="42.93218" lon="0.57393">
        <ele>882</ele>
        <time>2019-02-03T14:40:47.000Z</time>
      </trkpt>
      <trkpt lat="42.93218" lon="0.57393">
        <ele>882.5</ele>
        <time>2019-02-03T14:40:48.000Z</time>
      </trkpt>
      <trkpt lat="42.93218" lon="0.57393">
        <ele>883</ele>
        <time>2019-02-03T14:40:49.000Z</time>
      </trkpt>
      <trkpt lat="42.93218" lon="0.57392">
        <ele>882.7</ele>
        <time>2019-02-03T14:40:50.000Z</time>
      </trkpt>
      <trkpt lat="42.93218" lon="0.57392">
        <ele>882.3</ele>
        <time>2019-02-03T14:40:51.000Z</time>
      </trkpt>
      <trkpt lat="42.93218" lon="0.57392">
        <ele>882</ele>
        <time>2019-02-03T14:40:52.000Z</time>
      </trkpt>
      <trkpt lat="42.93218" lon="0.57392">
        <ele>882</ele>
        <time>2019-02-03T14:40:53.000Z</time>
      </trkpt>
      <trkpt lat="42.93218" lon="0.57392">
        <ele>882</ele>
        <time>2019-02-03T14:40:54.000Z</time>
      </trkpt>
      <trkpt lat="42.93218" lon="0.57392">
        <ele>882</ele>
        <time>2019-02-03T14:40:55.000Z</time>
      </trkpt>
      <trkpt lat="42.93218" lon="0.57392">
        <ele>882</ele>
        <time>2019-02-03T14:40:56.000Z</time>
      </trkpt>
      <trkpt lat="42.93218" lon="0.57392">
        <ele>882</ele>
        <time>2019-02-03T14:40:57.000Z</time>
      </trkpt>
      <trkpt lat="42.93218" lon="0.57392">
        <ele>882</ele>
        <time>2019-02-03T14:40:58.000Z</time>
      </trkpt>
      <trkpt lat="42.93218" lon="0.57392">
        <ele>882</ele>
        <time>2019-02-03T14:40:59.000Z</time>
      </trkpt>
      <trkpt lat="42.93218" lon="0.57392">
        <ele>882</ele>
        <time>2019-02-03T14:41:00.000Z</time>
      </trkpt>
      <trkpt lat="42.93218" lon="0.57392">
        <ele>882</ele>
        <time>2019-02-03T14:41:01.000Z</time>
      </trkpt>
      <trkpt lat="42.93218" lon="0.57392">
        <ele>882.5</ele>
        <time>2019-02-03T14:41:02.000Z</time>
      </trkpt>
      <trkpt lat="42.93218" lon="0.57392">
        <ele>883</ele>
        <time>2019-02-03T14:41:03.000Z</time>
      </trkpt>
      <trkpt lat="42.93218" lon="0.57392">
        <ele>883</ele>
        <time>2019-02-03T14:41:04.000Z</time>
      </trkpt>
      <trkpt lat="42.93218" lon="0.57392">
        <ele>883</ele>
        <time>2019-02-03T14:41:05.000Z</time>
      </trkpt>
      <trkpt lat="42.93218" lon="0.57392">
        <ele>883</ele>
        <time>2019-02-03T14:41:06.000Z</time>
      </trkpt>
      <trkpt lat="42.93218" lon="0.57392">
        <ele>883</ele>
        <time>2019-02-03T14:41:07.000Z</time>
      </trkpt>
      <trkpt lat="42.93218" lon="0.57392">
        <ele>883</ele>
        <time>2019-02-03T14:41:08.000Z</time>
      </trkpt>
      <trkpt lat="42.93218" lon="0.57392">
        <ele>883</ele>
        <time>2019-02-03T14:41:09.000Z</time>
      </trkpt>
      <trkpt lat="42.93218" lon="0.57392">
        <ele>883</ele>
        <time>2019-02-03T14:41:10.000Z</time>
      </trkpt>
      <trkpt lat="42.93218" lon="0.57392">
        <ele>883</ele>
        <time>2019-02-03T14:41:11.000Z</time>
      </trkpt>
      <trkpt lat="42.93218" lon="0.57392">
        <ele>883</ele>
        <time>2019-02-03T14:41:12.000Z</time>
      </trkpt>
      <trkpt lat="42.93218" lon="0.57392">
        <ele>882</ele>
        <time>2019-02-03T14:41:13.000Z</time>
      </trkpt>
      <trkpt lat="42.93218" lon="0.57392">
        <ele>882</ele>
        <time>2019-02-03T14:41:14.000Z</time>
      </trkpt>
      <trkpt lat="42.93218" lon="0.57392">
        <ele>882</ele>
        <time>2019-02-03T14:41:15.000Z</time>
      </trkpt>
      <trkpt lat="42.93218" lon="0.57392">
        <ele>882.5</ele>
        <time>2019-02-03T14:41:16.000Z</time>
      </trkpt>
      <trkpt lat="42.93218" lon="0.57392">
        <ele>883</ele>
        <time>2019-02-03T14:41:17.000Z</time>
      </trkpt>
      <trkpt lat="42.93218" lon="0.57392">
        <ele>883</ele>
        <time>2019-02-03T14:41:18.000Z</time>
      </trkpt>
      <trkpt lat="42.93218" lon="0.57392">
        <ele>883</ele>
        <time>2019-02-03T14:41:19.000Z</time>
      </trkpt>
      <trkpt lat="42.93218" lon="0.57391">
        <ele>883</ele>
        <time>2019-02-03T14:41:20.000Z</time>
      </trkpt>
      <trkpt lat="42.93218" lon="0.57391">
        <ele>883</ele>
        <time>2019-02-03T14:41:21.000Z</time>
      </trkpt>
      <trkpt lat="42.93219" lon="0.57391">
        <ele>883</ele>
        <time>2019-02-03T14:41:22.000Z</time>
      </trkpt>
      <trkpt lat="42.93219" lon="0.5739">
        <ele>883</ele>
        <time>2019-02-03T14:41:23.000Z</time>
      </trkpt>
      <trkpt lat="42.93219" lon="0.5739">
        <ele>883</ele>
        <time>2019-02-03T14:41:24.000Z</time>
      </trkpt>
      <trkpt lat="42.93219" lon="0.57389">
        <ele>882</ele>
        <time>2019-02-03T14:41:25.000Z</time>
      </trkpt>
      <trkpt lat="42.9322" lon="0.57388">
        <ele>882</ele>
        <time>2019-02-03T14:41:26.000Z</time>
      </trkpt>
      <trkpt lat="42.9322" lon="0.57387">
        <ele>882</ele>
        <time>2019-02-03T14:41:27.000Z</time>
      </trkpt>
      <trkpt lat="42.93221" lon="0.57387">
        <ele>882</ele>
        <time>2019-02-03T14:41:28.000Z</time>
      </trkpt>
      <trkpt lat="42.93221" lon="0.57386">
        <ele>882</ele>
        <time>2019-02-03T14:41:29.000Z</time>
      </trkpt>
      <trkpt lat="42.93222" lon="0.57385">
        <ele>882</ele>
        <time>2019-02-03T14:41:30.000Z</time>
      </trkpt>
      <trkpt lat="42.93222" lon="0.57384">
        <ele>882</ele>
        <time>2019-02-03T14:41:31.000Z</time>
      </trkpt>
      <trkpt lat="42.93223" lon="0.57383">
        <ele>882</ele>
        <time>2019-02-03T14:41:32.000Z</time>
      </trkpt>
      <trkpt lat="42.93223" lon="0.57383">
        <ele>882</ele>
        <time>2019-02-03T14:41:33.000Z</time>
      </trkpt>
      <trkpt lat="42.93224" lon="0.57382">
        <ele>882</ele>
        <time>2019-02-03T14:41:34.000Z</time>
      </trkpt>
      <trkpt lat="42.93225" lon="0.57381">
        <ele>882</ele>
        <time>2019-02-03T14:41:35.000Z</time>
      </trkpt>
      <trkpt lat="42.93226" lon="0.57381">
        <ele>882</ele>
        <time>2019-02-03T14:41:36.000Z</time>
      </trkpt>
      <trkpt lat="42.93227" lon="0.5738">
        <ele>882</ele>
        <time>2019-02-03T14:41:37.000Z</time>
      </trkpt>
      <trkpt lat="42.93228" lon="0.5738">
        <ele>881.7</ele>
        <time>2019-02-03T14:41:38.000Z</time>
      </trkpt>
      <trkpt lat="42.93229" lon="0.5738">
        <ele>881.3</ele>
        <time>2019-02-03T14:41:39.000Z</time>
      </trkpt>
      <trkpt lat="42.9323" lon="0.57379">
        <ele>881</ele>
        <time>2019-02-03T14:41:40.000Z</time>
      </trkpt>
      <trkpt lat="42.9323" lon="0.57379">
        <ele>881</ele>
        <time>2019-02-03T14:41:41.000Z</time>
      </trkpt>
      <trkpt lat="42.93231" lon="0.57379">
        <ele>881</ele>
        <time>2019-02-03T14:41:42.000Z</time>
      </trkpt>
      <trkpt lat="42.93232" lon="0.57379">
        <ele>882</ele>
        <time>2019-02-03T14:41:43.000Z</time>
      </trkpt>
      <trkpt lat="42.93233" lon="0.57378">
        <ele>882</ele>
        <time>2019-02-03T14:41:44.000Z</time>
      </trkpt>
      <trkpt lat="42.93234" lon="0.57378">
        <ele>882</ele>
        <time>2019-02-03T14:41:45.000Z</time>
      </trkpt>
      <trkpt lat="42.93235" lon="0.57378">
        <ele>882</ele>
        <time>2019-02-03T14:41:46.000Z</time>
      </trkpt>
      <trkpt lat="42.93236" lon="0.57377">
        <ele>882</ele>
        <time>2019-02-03T14:41:47.000Z</time>
      </trkpt>
      <trkpt lat="42.93237" lon="0.57377">
        <ele>882</ele>
        <time>2019-02-03T14:41:48.000Z</time>
      </trkpt>
      <trkpt lat="42.93238" lon="0.57376">
        <ele>882</ele>
        <time>2019-02-03T14:41:49.000Z</time>
      </trkpt>
      <trkpt lat="42.93239" lon="0.57376">
        <ele>881.7</ele>
        <time>2019-02-03T14:41:50.000Z</time>
      </trkpt>
      <trkpt lat="42.9324" lon="0.57375">
        <ele>881.3</ele>
        <time>2019-02-03T14:41:51.000Z</time>
      </trkpt>
      <trkpt lat="42.93241" lon="0.57375">
        <ele>881</ele>
        <time>2019-02-03T14:41:52.000Z</time>
      </trkpt>
      <trkpt lat="42.93242" lon="0.57375">
        <ele>881</ele>
        <time>2019-02-03T14:41:53.000Z</time>
      </trkpt>
      <trkpt lat="42.93243" lon="0.57374">
        <ele>881</ele>
        <time>2019-02-03T14:41:54.000Z</time>
      </trkpt>
      <trkpt lat="42.93243" lon="0.57374">
        <ele>881</ele>
        <time>2019-02-03T14:41:55.000Z</time>
      </trkpt>
      <trkpt lat="42.93244" lon="0.57373">
        <ele>880.7</ele>
        <time>2019-02-03T14:41:56.000Z</time>
      </trkpt>
      <trkpt lat="42.93245" lon="0.57373">
        <ele>880.3</ele>
        <time>2019-02-03T14:41:57.000Z</time>
      </trkpt>
      <trkpt lat="42.93246" lon="0.57373">
        <ele>880</ele>
        <time>2019-02-03T14:41:58.000Z</time>
      </trkpt>
      <trkpt lat="42.93247" lon="0.57372">
        <ele>880</ele>
        <time>2019-02-03T14:41:59.000Z</time>
      </trkpt>
      <trkpt lat="42.93248" lon="0.57372">
        <ele>880</ele>
        <time>2019-02-03T14:42:00.000Z</time>
      </trkpt>
      <trkpt lat="42.93249" lon="0.57372">
        <ele>880</ele>
        <time>2019-02-03T14:42:01.000Z</time>
      </trkpt>
      <trkpt lat="42.9325" lon="0.57371">
        <ele>880</ele>
        <time>2019-02-03T14:42:02.000Z</time>
      </trkpt>
      <trkpt lat="42.93251" lon="0.57371">
        <ele>880</ele>
        <time>2019-02-03T14:42:03.000Z</time>
      </trkpt>
      <trkpt lat="42.93252" lon="0.5737">
        <ele>880</ele>
        <time>2019-02-03T14:42:04.000Z</time>
      </trkpt>
      <trkpt lat="42.93253" lon="0.5737">
        <ele>880</ele>
        <time>2019-02-03T14:42:05.000Z</time>
      </trkpt>
      <trkpt lat="42.93254" lon="0.5737">
        <ele>880</ele>
        <time>2019-02-03T14:42:06.000Z</time>
      </trkpt>
      <trkpt lat="42.93255" lon="0.5737">
        <ele>880</ele>
        <time>2019-02-03T14:42:07.000Z</time>
      </trkpt>
      <trkpt lat="42.93256" lon="0.57369">
        <ele>880</ele>
        <time>2019-02-03T14:42:08.000Z</time>
      </trkpt>
      <trkpt lat="42.93257" lon="0.57369">
        <ele>880</ele>
        <time>2019-02-03T14:42:09.000Z</time>
      </trkpt>
      <trkpt lat="42.93258" lon="0.57369">
        <ele>880</ele>
        <time>2019-02-03T14:42:10.000Z</time>
      </trkpt>
      <trkpt lat="42.93259" lon="0.57368">
        <ele>880.5</ele>
        <time>2019-02-03T14:42:11.000Z</time>
      </trkpt>
      <trkpt lat="42.9326" lon="0.57368">
        <ele>881</ele>
        <time>2019-02-03T14:42:12.000Z</time>
      </trkpt>
      <trkpt lat="42.93261" lon="0.57367">
        <ele>881</ele>
        <time>2019-02-03T14:42:13.000Z</time>
      </trkpt>
      <trkpt lat="42.93262" lon="0.57367">
        <ele>881</ele>
        <time>2019-02-03T14:42:14.000Z</time>
      </trkpt>
      <trkpt lat="42.93264" lon="0.57367">
        <ele>881</ele>
        <time>2019-02-03T14:42:15.000Z</time>
      </trkpt>
      <trkpt lat="42.93265" lon="0.57366">
        <ele>881</ele>
        <time>2019-02-03T14:42:16.000Z</time>
      </trkpt>
      <trkpt lat="42.93266" lon="0.57366">
        <ele>881</ele>
        <time>2019-02-03T14:42:17.000Z</time>
      </trkpt>
      <trkpt lat="42.93267" lon="0.57366">
        <ele>881</ele>
        <time>2019-02-03T14:42:18.000Z</time>
      </trkpt>
      <trkpt lat="42.93268" lon="0.57366">
        <ele>881</ele>
        <time>2019-02-03T14:42:19.000Z</time>
      </trkpt>
      <trkpt lat="42.93269" lon="0.57366">
        <ele>881</ele>
        <time>2019-02-03T14:42:20.000Z</time>
      </trkpt>
      <trkpt lat="42.9327" lon="0.57366">
        <ele>881</ele>
        <time>2019-02-03T14:42:21.000Z</time>
      </trkpt>
      <trkpt lat="42.93271" lon="0.57366">
        <ele>881</ele>
        <time>2019-02-03T14:42:22.000Z</time>
      </trkpt>
      <trkpt lat="42.93272" lon="0.57366">
        <ele>881</ele>
        <time>2019-02-03T14:42:23.000Z</time>
      </trkpt>
      <trkpt lat="42.93273" lon="0.57367">
        <ele>881</ele>
        <time>2019-02-03T14:42:24.000Z</time>
      </trkpt>
      <trkpt lat="42.93274" lon="0.57367">
        <ele>881</ele>
        <time>2019-02-03T14:42:25.000Z</time>
      </trkpt>
      <trkpt lat="42.93275" lon="0.57367">
        <ele>881</ele>
        <time>2019-02-03T14:42:26.000Z</time>
      </trkpt>
      <trkpt lat="42.93276" lon="0.57366">
        <ele>881</ele>
        <time>2019-02-03T14:42:27.000Z</time>
      </trkpt>
      <trkpt lat="42.93277" lon="0.57366">
        <ele>881</ele>
        <time>2019-02-03T14:42:28.000Z</time>
      </trkpt>
      <trkpt lat="42.93278" lon="0.57366">
        <ele>881</ele>
        <time>2019-02-03T14:42:29.000Z</time>
      </trkpt>
      <trkpt lat="42.9328" lon="0.57366">
        <ele>880.7</ele>
        <time>2019-02-03T14:42:30.000Z</time>
      </trkpt>
      <trkpt lat="42.93281" lon="0.57366">
        <ele>880.3</ele>
        <time>2019-02-03T14:42:31.000Z</time>
      </trkpt>
      <trkpt lat="42.93282" lon="0.57365">
        <ele>880</ele>
        <time>2019-02-03T14:42:32.000Z</time>
      </trkpt>
      <trkpt lat="42.93283" lon="0.57365">
        <ele>880</ele>
        <time>2019-02-03T14:42:33.000Z</time>
      </trkpt>
      <trkpt lat="42.93284" lon="0.57365">
        <ele>879.7</ele>
        <time>2019-02-03T14:42:34.000Z</time>
      </trkpt>
      <trkpt lat="42.93285" lon="0.57365">
        <ele>879.3</ele>
        <time>2019-02-03T14:42:35.000Z</time>
      </trkpt>
      <trkpt lat="42.93287" lon="0.57365">
        <ele>879</ele>
        <time>2019-02-03T14:42:36.000Z</time>
      </trkpt>
      <trkpt lat="42.93288" lon="0.57364">
        <ele>879</ele>
        <time>2019-02-03T14:42:37.000Z</time>
      </trkpt>
      <trkpt lat="42.93289" lon="0.57364">
        <ele>879</ele>
        <time>2019-02-03T14:42:38.000Z</time>
      </trkpt>
      <trkpt lat="42.9329" lon="0.57364">
        <ele>879</ele>
        <time>2019-02-03T14:42:39.000Z</time>
      </trkpt>
      <trkpt lat="42.93291" lon="0.57364">
        <ele>878.7</ele>
        <time>2019-02-03T14:42:40.000Z</time>
      </trkpt>
      <trkpt lat="42.93292" lon="0.57363">
        <ele>878.3</ele>
        <time>2019-02-03T14:42:41.000Z</time>
      </trkpt>
      <trkpt lat="42.93293" lon="0.57363">
        <ele>878</ele>
        <time>2019-02-03T14:42:42.000Z</time>
      </trkpt>
      <trkpt lat="42.93294" lon="0.57363">
        <ele>878</ele>
        <time>2019-02-03T14:42:43.000Z</time>
      </trkpt>
      <trkpt lat="42.93295" lon="0.57363">
        <ele>878</ele>
        <time>2019-02-03T14:42:44.000Z</time>
      </trkpt>
      <trkpt lat="42.93296" lon="0.57363">
        <ele>877</ele>
        <time>2019-02-03T14:42:45.000Z</time>
      </trkpt>
      <trkpt lat="42.93297" lon="0.57363">
        <ele>877</ele>
        <time>2019-02-03T14:42:46.000Z</time>
      </trkpt>
      <trkpt lat="42.93298" lon="0.57363">
        <ele>877</ele>
        <time>2019-02-03T14:42:47.000Z</time>
      </trkpt>
      <trkpt lat="42.93299" lon="0.57363">
        <ele>877</ele>
        <time>2019-02-03T14:42:48.000Z</time>
      </trkpt>
      <trkpt lat="42.933" lon="0.57363">
        <ele>876</ele>
        <time>2019-02-03T14:42:49.000Z</time>
      </trkpt>
      <trkpt lat="42.93301" lon="0.57363">
        <ele>875.5</ele>
        <time>2019-02-03T14:42:50.000Z</time>
      </trkpt>
      <trkpt lat="42.93303" lon="0.57363">
        <ele>875</ele>
        <time>2019-02-03T14:42:51.000Z</time>
      </trkpt>
      <trkpt lat="42.93304" lon="0.57363">
        <ele>875</ele>
        <time>2019-02-03T14:42:52.000Z</time>
      </trkpt>
      <trkpt lat="42.93305" lon="0.57364">
        <ele>875</ele>
        <time>2019-02-03T14:42:53.000Z</time>
      </trkpt>
      <trkpt lat="42.93306" lon="0.57364">
        <ele>875</ele>
        <time>2019-02-03T14:42:54.000Z</time>
      </trkpt>
      <trkpt lat="42.93308" lon="0.57364">
        <ele>875</ele>
        <time>2019-02-03T14:42:55.000Z</time>
      </trkpt>
      <trkpt lat="42.93309" lon="0.57364">
        <ele>874.7</ele>
        <time>2019-02-03T14:42:56.000Z</time>
      </trkpt>
      <trkpt lat="42.9331" lon="0.57364">
        <ele>874.3</ele>
        <time>2019-02-03T14:42:57.000Z</time>
      </trkpt>
      <trkpt lat="42.93311" lon="0.57365">
        <ele>874</ele>
        <time>2019-02-03T14:42:58.000Z</time>
      </trkpt>
      <trkpt lat="42.93311" lon="0.57365">
        <ele>874</ele>
        <time>2019-02-03T14:42:59.000Z</time>
      </trkpt>
      <trkpt lat="42.93312" lon="0.57365">
        <ele>873.7</ele>
        <time>2019-02-03T14:43:00.000Z</time>
      </trkpt>
      <trkpt lat="42.93313" lon="0.57366">
        <ele>873.3</ele>
        <time>2019-02-03T14:43:01.000Z</time>
      </trkpt>
      <trkpt lat="42.93314" lon="0.57366">
        <ele>873</ele>
        <time>2019-02-03T14:43:02.000Z</time>
      </trkpt>
      <trkpt lat="42.93315" lon="0.57366">
        <ele>873</ele>
        <time>2019-02-03T14:43:03.000Z</time>
      </trkpt>
      <trkpt lat="42.93315" lon="0.57366">
        <ele>872.7</ele>
        <time>2019-02-03T14:43:04.000Z</time>
      </trkpt>
      <trkpt lat="42.93316" lon="0.57366">
        <ele>872.3</ele>
        <time>2019-02-03T14:43:05.000Z</time>
      </trkpt>
      <trkpt lat="42.93317" lon="0.57366">
        <ele>872</ele>
        <time>2019-02-03T14:43:06.000Z</time>
      </trkpt>
      <trkpt lat="42.93318" lon="0.57366">
        <ele>872</ele>
        <time>2019-02-03T14:43:07.000Z</time>
      </trkpt>
      <trkpt lat="42.93319" lon="0.57366">
        <ele>872</ele>
        <time>2019-02-03T14:43:08.000Z</time>
      </trkpt>
      <trkpt lat="42.9332" lon="0.57367">
        <ele>871.5</ele>
        <time>2019-02-03T14:43:09.000Z</time>
      </trkpt>
      <trkpt lat="42.9332" lon="0.57367">
        <ele>871</ele>
        <time>2019-02-03T14:43:10.000Z</time>
      </trkpt>
      <trkpt lat="42.93321" lon="0.57367">
        <ele>871</ele>
        <time>2019-02-03T14:43:11.000Z</time>
      </trkpt>
      <trkpt lat="42.93322" lon="0.57367">
        <ele>871</ele>
        <time>2019-02-03T14:43:12.000Z</time>
      </trkpt>
      <trkpt lat="42.93323" lon="0.57368">
        <ele>870.5</ele>
        <time>2019-02-03T14:43:13.000Z</time>
      </trkpt>
      <trkpt lat="42.93324" lon="0.57368">
        <ele>870</ele>
        <time>2019-02-03T14:43:14.000Z</time>
      </trkpt>
      <trkpt lat="42.93325" lon="0.57369">
        <ele>870</ele>
        <time>2019-02-03T14:43:15.000Z</time>
      </trkpt>
      <trkpt lat="42.93326" lon="0.57369">
        <ele>869.7</ele>
        <time>2019-02-03T14:43:16.000Z</time>
      </trkpt>
      <trkpt lat="42.93327" lon="0.5737">
        <ele>869.3</ele>
        <time>2019-02-03T14:43:17.000Z</time>
      </trkpt>
      <trkpt lat="42.93328" lon="0.5737">
        <ele>869</ele>
        <time>2019-02-03T14:43:18.000Z</time>
      </trkpt>
      <trkpt lat="42.93329" lon="0.57371">
        <ele>869</ele>
        <time>2019-02-03T14:43:19.000Z</time>
      </trkpt>
      <trkpt lat="42.9333" lon="0.57371">
        <ele>869</ele>
        <time>2019-02-03T14:43:20.000Z</time>
      </trkpt>
      <trkpt lat="42.93331" lon="0.57372">
        <ele>868.5</ele>
        <time>2019-02-03T14:43:21.000Z</time>
      </trkpt>
      <trkpt lat="42.93332" lon="0.57372">
        <ele>868</ele>
        <time>2019-02-03T14:43:22.000Z</time>
      </trkpt>
      <trkpt lat="42.93333" lon="0.57372">
        <ele>868</ele>
        <time>2019-02-03T14:43:23.000Z</time>
      </trkpt>
      <trkpt lat="42.93333" lon="0.57373">
        <ele>867.7</ele>
        <time>2019-02-03T14:43:24.000Z</time>
      </trkpt>
      <trkpt lat="42.93334" lon="0.57373">
        <ele>867.3</ele>
        <time>2019-02-03T14:43:25.000Z</time>
      </trkpt>
      <trkpt lat="42.93335" lon="0.57374">
        <ele>867</ele>
        <time>2019-02-03T14:43:26.000Z</time>
      </trkpt>
      <trkpt lat="42.93336" lon="0.57374">
        <ele>866</ele>
        <time>2019-02-03T14:43:27.000Z</time>
      </trkpt>
      <trkpt lat="42.93337" lon="0.57375">
        <ele>866</ele>
        <time>2019-02-03T14:43:28.000Z</time>
      </trkpt>
      <trkpt lat="42.93338" lon="0.57376">
        <ele>866</ele>
        <time>2019-02-03T14:43:29.000Z</time>
      </trkpt>
      <trkpt lat="42.93339" lon="0.57376">
        <ele>866</ele>
        <time>2019-02-03T14:43:30.000Z</time>
      </trkpt>
      <trkpt lat="42.9334" lon="0.57376">
        <ele>866</ele>
        <time>2019-02-03T14:43:31.000Z</time>
      </trkpt>
      <trkpt lat="42.93341" lon="0.57376">
        <ele>865.7</ele>
        <time>2019-02-03T14:43:32.000Z</time>
      </trkpt>
      <trkpt lat="42.93342" lon="0.57376">
        <ele>865.3</ele>
        <time>2019-02-03T14:43:33.000Z</time>
      </trkpt>
      <trkpt lat="42.93343" lon="0.57376">
        <ele>865</ele>
        <time>2019-02-03T14:43:34.000Z</time>
      </trkpt>
      <trkpt lat="42.93344" lon="0.57375">
        <ele>865</ele>
        <time>2019-02-03T14:43:35.000Z</time>
      </trkpt>
      <trkpt lat="42.93344" lon="0.57375">
        <ele>865</ele>
        <time>2019-02-03T14:43:36.000Z</time>
      </trkpt>
      <trkpt lat="42.93345" lon="0.57376">
        <ele>864</ele>
        <time>2019-02-03T14:43:37.000Z</time>
      </trkpt>
      <trkpt lat="42.93346" lon="0.57376">
        <ele>864</ele>
        <time>2019-02-03T14:43:38.000Z</time>
      </trkpt>
      <trkpt lat="42.93347" lon="0.57376">
        <ele>864</ele>
        <time>2019-02-03T14:43:39.000Z</time>
      </trkpt>
      <trkpt lat="42.93348" lon="0.57376">
        <ele>864</ele>
        <time>2019-02-03T14:43:40.000Z</time>
      </trkpt>
      <trkpt lat="42.93348" lon="0.57377">
        <ele>863</ele>
        <time>2019-02-03T14:43:41.000Z</time>
      </trkpt>
      <trkpt lat="42.93349" lon="0.57377">
        <ele>863</ele>
        <time>2019-02-03T14:43:42.000Z</time>
      </trkpt>
      <trkpt lat="42.9335" lon="0.57377">
        <ele>863</ele>
        <time>2019-02-03T14:43:43.000Z</time>
      </trkpt>
      <trkpt lat="42.93351" lon="0.57377">
        <ele>863</ele>
        <time>2019-02-03T14:43:44.000Z</time>
      </trkpt>
      <trkpt lat="42.93351" lon="0.57377">
        <ele>862.5</ele>
        <time>2019-02-03T14:43:45.000Z</time>
      </trkpt>
      <trkpt lat="42.93352" lon="0.57377">
        <ele>862</ele>
        <time>2019-02-03T14:43:46.000Z</time>
      </trkpt>
      <trkpt lat="42.93353" lon="0.57377">
        <ele>862</ele>
        <time>2019-02-03T14:43:47.000Z</time>
      </trkpt>
      <trkpt lat="42.93353" lon="0.57377">
        <ele>861.7</ele>
        <time>2019-02-03T14:43:48.000Z</time>
      </trkpt>
      <trkpt lat="42.93354" lon="0.57377">
        <ele>861.3</ele>
        <time>2019-02-03T14:43:49.000Z</time>
      </trkpt>
      <trkpt lat="42.93355" lon="0.57377">
        <ele>861</ele>
        <time>2019-02-03T14:43:50.000Z</time>
      </trkpt>
      <trkpt lat="42.93356" lon="0.57377">
        <ele>861</ele>
        <time>2019-02-03T14:43:51.000Z</time>
      </trkpt>
      <trkpt lat="42.93356" lon="0.57377">
        <ele>861</ele>
        <time>2019-02-03T14:43:52.000Z</time>
      </trkpt>
      <trkpt lat="42.93357" lon="0.57376">
        <ele>860.5</ele>
        <time>2019-02-03T14:43:53.000Z</time>
      </trkpt>
      <trkpt lat="42.93358" lon="0.57376">
        <ele>860</ele>
        <time>2019-02-03T14:43:54.000Z</time>
      </trkpt>
      <trkpt lat="42.93359" lon="0.57376">
        <ele>859.5</ele>
        <time>2019-02-03T14:43:55.000Z</time>
      </trkpt>
      <trkpt lat="42.9336" lon="0.57376">
        <ele>859</ele>
        <time>2019-02-03T14:43:56.000Z</time>
      </trkpt>
      <trkpt lat="42.9336" lon="0.57376">
        <ele>859</ele>
        <time>2019-02-03T14:43:57.000Z</time>
      </trkpt>
      <trkpt lat="42.93361" lon="0.57376">
        <ele>859</ele>
        <time>2019-02-03T14:43:58.000Z</time>
      </trkpt>
      <trkpt lat="42.93363" lon="0.57376">
        <ele>858.5</ele>
        <time>2019-02-03T14:43:59.000Z</time>
      </trkpt>
      <trkpt lat="42.93364" lon="0.57376">
        <ele>858</ele>
        <time>2019-02-03T14:44:00.000Z</time>
      </trkpt>
      <trkpt lat="42.93365" lon="0.57377">
        <ele>857.5</ele>
        <time>2019-02-03T14:44:01.000Z</time>
      </trkpt>
      <trkpt lat="42.93366" lon="0.57378">
        <ele>857</ele>
        <time>2019-02-03T14:44:02.000Z</time>
      </trkpt>
      <trkpt lat="42.93367" lon="0.57379">
        <ele>856</ele>
        <time>2019-02-03T14:44:03.000Z</time>
      </trkpt>
      <trkpt lat="42.93368" lon="0.5738">
        <ele>855.7</ele>
        <time>2019-02-03T14:44:04.000Z</time>
      </trkpt>
      <trkpt lat="42.93369" lon="0.57381">
        <ele>855.3</ele>
        <time>2019-02-03T14:44:05.000Z</time>
      </trkpt>
      <trkpt lat="42.9337" lon="0.57382">
        <ele>855</ele>
        <time>2019-02-03T14:44:06.000Z</time>
      </trkpt>
      <trkpt lat="42.9337" lon="0.57383">
        <ele>855</ele>
        <time>2019-02-03T14:44:07.000Z</time>
      </trkpt>
      <trkpt lat="42.9337" lon="0.57385">
        <ele>854.7</ele>
        <time>2019-02-03T14:44:08.000Z</time>
      </trkpt>
      <trkpt lat="42.93371" lon="0.57386">
        <ele>854.3</ele>
        <time>2019-02-03T14:44:09.000Z</time>
      </trkpt>
      <trkpt lat="42.93371" lon="0.57387">
        <ele>854</ele>
        <time>2019-02-03T14:44:10.000Z</time>
      </trkpt>
      <trkpt lat="42.93371" lon="0.57388">
        <ele>854</ele>
        <time>2019-02-03T14:44:11.000Z</time>
      </trkpt>
      <trkpt lat="42.93372" lon="0.57388">
        <ele>854</ele>
        <time>2019-02-03T14:44:12.000Z</time>
      </trkpt>
      <trkpt lat="42.93372" lon="0.57389">
        <ele>854</ele>
        <time>2019-02-03T14:44:13.000Z</time>
      </trkpt>
      <trkpt lat="42.93372" lon="0.57389">
        <ele>854</ele>
        <time>2019-02-03T14:44:14.000Z</time>
      </trkpt>
      <trkpt lat="42.93373" lon="0.57389">
        <ele>853.5</ele>
        <time>2019-02-03T14:44:15.000Z</time>
      </trkpt>
      <trkpt lat="42.93373" lon="0.5739">
        <ele>853</ele>
        <time>2019-02-03T14:44:16.000Z</time>
      </trkpt>
      <trkpt lat="42.93373" lon="0.5739">
        <ele>853</ele>
        <time>2019-02-03T14:44:17.000Z</time>
      </trkpt>
      <trkpt lat="42.93374" lon="0.5739">
        <ele>853</ele>
        <time>2019-02-03T14:44:18.000Z</time>
      </trkpt>
      <trkpt lat="42.93374" lon="0.57391">
        <ele>852.5</ele>
        <time>2019-02-03T14:44:19.000Z</time>
      </trkpt>
      <trkpt lat="42.93374" lon="0.57392">
        <ele>852</ele>
        <time>2019-02-03T14:44:20.000Z</time>
      </trkpt>
      <trkpt lat="42.93375" lon="0.57392">
        <ele>851.5</ele>
        <time>2019-02-03T14:44:21.000Z</time>
      </trkpt>
      <trkpt lat="42.93375" lon="0.57393">
        <ele>851</ele>
        <time>2019-02-03T14:44:22.000Z</time>
      </trkpt>
      <trkpt lat="42.93376" lon="0.57395">
        <ele>850</ele>
        <time>2019-02-03T14:44:23.000Z</time>
      </trkpt>
      <trkpt lat="42.93376" lon="0.57395">
        <ele>850</ele>
        <time>2019-02-03T14:44:24.000Z</time>
      </trkpt>
      <trkpt lat="42.93377" lon="0.57396">
        <ele>850</ele>
        <time>2019-02-03T14:44:25.000Z</time>
      </trkpt>
      <trkpt lat="42.93378" lon="0.57396">
        <ele>850</ele>
        <time>2019-02-03T14:44:26.000Z</time>
      </trkpt>
      <trkpt lat="42.93378" lon="0.57397">
        <ele>849</ele>
        <time>2019-02-03T14:44:27.000Z</time>
      </trkpt>
      <trkpt lat="42.93379" lon="0.57397">
        <ele>849</ele>
        <time>2019-02-03T14:44:28.000Z</time>
      </trkpt>
      <trkpt lat="42.9338" lon="0.57396">
        <ele>849</ele>
        <time>2019-02-03T14:44:29.000Z</time>
      </trkpt>
      <trkpt lat="42.9338" lon="0.57396">
        <ele>849</ele>
        <time>2019-02-03T14:44:30.000Z</time>
      </trkpt>
      <trkpt lat="42.93381" lon="0.57396">
        <ele>848.5</ele>
        <time>2019-02-03T14:44:31.000Z</time>
      </trkpt>
      <trkpt lat="42.93382" lon="0.57396">
        <ele>848</ele>
        <time>2019-02-03T14:44:32.000Z</time>
      </trkpt>
      <trkpt lat="42.93382" lon="0.57395">
        <ele>848</ele>
        <time>2019-02-03T14:44:33.000Z</time>
      </trkpt>
      <trkpt lat="42.93383" lon="0.57395">
        <ele>848</ele>
        <time>2019-02-03T14:44:34.000Z</time>
      </trkpt>
      <trkpt lat="42.93384" lon="0.57395">
        <ele>847</ele>
        <time>2019-02-03T14:44:35.000Z</time>
      </trkpt>
      <trkpt lat="42.93385" lon="0.57395">
        <ele>847</ele>
        <time>2019-02-03T14:44:36.000Z</time>
      </trkpt>
      <trkpt lat="42.93385" lon="0.57395">
        <ele>847</ele>
        <time>2019-02-03T14:44:37.000Z</time>
      </trkpt>
      <trkpt lat="42.93385" lon="0.57395">
        <ele>847</ele>
        <time>2019-02-03T14:44:38.000Z</time>
      </trkpt>
      <trkpt lat="42.93386" lon="0.57395">
        <ele>846.5</ele>
        <time>2019-02-03T14:44:39.000Z</time>
      </trkpt>
      <trkpt lat="42.93386" lon="0.57394">
        <ele>846</ele>
        <time>2019-02-03T14:44:40.000Z</time>
      </trkpt>
      <trkpt lat="42.93387" lon="0.57393">
        <ele>846</ele>
        <time>2019-02-03T14:44:41.000Z</time>
      </trkpt>
      <trkpt lat="42.93388" lon="0.57392">
        <ele>845.5</ele>
        <time>2019-02-03T14:44:42.000Z</time>
      </trkpt>
      <trkpt lat="42.93388" lon="0.57392">
        <ele>845</ele>
        <time>2019-02-03T14:44:43.000Z</time>
      </trkpt>
      <trkpt lat="42.93389" lon="0.5739">
        <ele>845</ele>
        <time>2019-02-03T14:44:44.000Z</time>
      </trkpt>
      <trkpt lat="42.93391" lon="0.57389">
        <ele>845</ele>
        <time>2019-02-03T14:44:45.000Z</time>
      </trkpt>
      <trkpt lat="42.93392" lon="0.57388">
        <ele>845</ele>
        <time>2019-02-03T14:44:46.000Z</time>
      </trkpt>
      <trkpt lat="42.93393" lon="0.57387">
        <ele>844.5</ele>
        <time>2019-02-03T14:44:47.000Z</time>
      </trkpt>
      <trkpt lat="42.93394" lon="0.57386">
        <ele>844</ele>
        <time>2019-02-03T14:44:48.000Z</time>
      </trkpt>
      <trkpt lat="42.93395" lon="0.57386">
        <ele>843</ele>
        <time>2019-02-03T14:44:49.000Z</time>
      </trkpt>
      <trkpt lat="42.93395" lon="0.57385">
        <ele>843</ele>
        <time>2019-02-03T14:44:50.000Z</time>
      </trkpt>
      <trkpt lat="42.93396" lon="0.57385">
        <ele>843</ele>
        <time>2019-02-03T14:44:51.000Z</time>
      </trkpt>
      <trkpt lat="42.93397" lon="0.57384">
        <ele>842.7</ele>
        <time>2019-02-03T14:44:52.000Z</time>
      </trkpt>
      <trkpt lat="42.93397" lon="0.57384">
        <ele>842.3</ele>
        <time>2019-02-03T14:44:53.000Z</time>
      </trkpt>
      <trkpt lat="42.93398" lon="0.57384">
        <ele>842</ele>
        <time>2019-02-03T14:44:54.000Z</time>
      </trkpt>
      <trkpt lat="42.93398" lon="0.57383">
        <ele>841.5</ele>
        <time>2019-02-03T14:44:55.000Z</time>
      </trkpt>
      <trkpt lat="42.93399" lon="0.57382">
        <ele>841</ele>
        <time>2019-02-03T14:44:56.000Z</time>
      </trkpt>
      <trkpt lat="42.934" lon="0.57381">
        <ele>841</ele>
        <time>2019-02-03T14:44:57.000Z</time>
      </trkpt>
      <trkpt lat="42.934" lon="0.5738">
        <ele>841</ele>
        <time>2019-02-03T14:44:58.000Z</time>
      </trkpt>
      <trkpt lat="42.93401" lon="0.57379">
        <ele>840</ele>
        <time>2019-02-03T14:44:59.000Z</time>
      </trkpt>
      <trkpt lat="42.93402" lon="0.57378">
        <ele>840</ele>
        <time>2019-02-03T14:45:00.000Z</time>
      </trkpt>
      <trkpt lat="42.93403" lon="0.57378">
        <ele>840</ele>
        <time>2019-02-03T14:45:01.000Z</time>
      </trkpt>
      <trkpt lat="42.93404" lon="0.57378">
        <ele>840</ele>
        <time>2019-02-03T14:45:02.000Z</time>
      </trkpt>
      <trkpt lat="42.93405" lon="0.57378">
        <ele>839</ele>
        <time>2019-02-03T14:45:03.000Z</time>
      </trkpt>
      <trkpt lat="42.93406" lon="0.57377">
        <ele>839</ele>
        <time>2019-02-03T14:45:04.000Z</time>
      </trkpt>
      <trkpt lat="42.93407" lon="0.57375">
        <ele>839</ele>
        <time>2019-02-03T14:45:05.000Z</time>
      </trkpt>
      <trkpt lat="42.93408" lon="0.57374">
        <ele>839</ele>
        <time>2019-02-03T14:45:06.000Z</time>
      </trkpt>
      <trkpt lat="42.93409" lon="0.57372">
        <ele>838</ele>
        <time>2019-02-03T14:45:07.000Z</time>
      </trkpt>
      <trkpt lat="42.9341" lon="0.5737">
        <ele>837.5</ele>
        <time>2019-02-03T14:45:08.000Z</time>
      </trkpt>
      <trkpt lat="42.93411" lon="0.57368">
        <ele>837</ele>
        <time>2019-02-03T14:45:09.000Z</time>
      </trkpt>
      <trkpt lat="42.93411" lon="0.57367">
        <ele>837</ele>
        <time>2019-02-03T14:45:10.000Z</time>
      </trkpt>
      <trkpt lat="42.93412" lon="0.57366">
        <ele>837</ele>
        <time>2019-02-03T14:45:11.000Z</time>
      </trkpt>
      <trkpt lat="42.93412" lon="0.57365">
        <ele>837</ele>
        <time>2019-02-03T14:45:12.000Z</time>
      </trkpt>
      <trkpt lat="42.93412" lon="0.57364">
        <ele>836</ele>
        <time>2019-02-03T14:45:13.000Z</time>
      </trkpt>
      <trkpt lat="42.93412" lon="0.57363">
        <ele>836</ele>
        <time>2019-02-03T14:45:14.000Z</time>
      </trkpt>
      <trkpt lat="42.93413" lon="0.57362">
        <ele>836</ele>
        <time>2019-02-03T14:45:15.000Z</time>
      </trkpt>
      <trkpt lat="42.93413" lon="0.57361">
        <ele>836</ele>
        <time>2019-02-03T14:45:16.000Z</time>
      </trkpt>
      <trkpt lat="42.93413" lon="0.5736">
        <ele>835</ele>
        <time>2019-02-03T14:45:17.000Z</time>
      </trkpt>
      <trkpt lat="42.93414" lon="0.57359">
        <ele>835</ele>
        <time>2019-02-03T14:45:18.000Z</time>
      </trkpt>
      <trkpt lat="42.93414" lon="0.57358">
        <ele>835</ele>
        <time>2019-02-03T14:45:19.000Z</time>
      </trkpt>
      <trkpt lat="42.93414" lon="0.57357">
        <ele>835</ele>
        <time>2019-02-03T14:45:20.000Z</time>
      </trkpt>
      <trkpt lat="42.93415" lon="0.57356">
        <ele>834</ele>
        <time>2019-02-03T14:45:21.000Z</time>
      </trkpt>
      <trkpt lat="42.93415" lon="0.57355">
        <ele>834</ele>
        <time>2019-02-03T14:45:22.000Z</time>
      </trkpt>
      <trkpt lat="42.93416" lon="0.57354">
        <ele>834</ele>
        <time>2019-02-03T14:45:23.000Z</time>
      </trkpt>
      <trkpt lat="42.93416" lon="0.57354">
        <ele>833.7</ele>
        <time>2019-02-03T14:45:24.000Z</time>
      </trkpt>
      <trkpt lat="42.93417" lon="0.57352">
        <ele>833.3</ele>
        <time>2019-02-03T14:45:25.000Z</time>
      </trkpt>
      <trkpt lat="42.93417" lon="0.57351">
        <ele>833</ele>
        <time>2019-02-03T14:45:26.000Z</time>
      </trkpt>
      <trkpt lat="42.93417" lon="0.5735">
        <ele>833</ele>
        <time>2019-02-03T14:45:27.000Z</time>
      </trkpt>
      <trkpt lat="42.93417" lon="0.57349">
        <ele>832.7</ele>
        <time>2019-02-03T14:45:28.000Z</time>
      </trkpt>
      <trkpt lat="42.93417" lon="0.57347">
        <ele>832.3</ele>
        <time>2019-02-03T14:45:29.000Z</time>
      </trkpt>
      <trkpt lat="42.93417" lon="0.57346">
        <ele>832</ele>
        <time>2019-02-03T14:45:30.000Z</time>
      </trkpt>
      <trkpt lat="42.93417" lon="0.57344">
        <ele>831.5</ele>
        <time>2019-02-03T14:45:31.000Z</time>
      </trkpt>
      <trkpt lat="42.93417" lon="0.57342">
        <ele>831</ele>
        <time>2019-02-03T14:45:32.000Z</time>
      </trkpt>
      <trkpt lat="42.93417" lon="0.57341">
        <ele>831</ele>
        <time>2019-02-03T14:45:33.000Z</time>
      </trkpt>
      <trkpt lat="42.93417" lon="0.57339">
        <ele>830.5</ele>
        <time>2019-02-03T14:45:34.000Z</time>
      </trkpt>
      <trkpt lat="42.93417" lon="0.57337">
        <ele>830</ele>
        <time>2019-02-03T14:45:35.000Z</time>
      </trkpt>
      <trkpt lat="42.93417" lon="0.57335">
        <ele>830</ele>
        <time>2019-02-03T14:45:36.000Z</time>
      </trkpt>
      <trkpt lat="42.93417" lon="0.57334">
        <ele>830</ele>
        <time>2019-02-03T14:45:37.000Z</time>
      </trkpt>
      <trkpt lat="42.93417" lon="0.57332">
        <ele>830</ele>
        <time>2019-02-03T14:45:38.000Z</time>
      </trkpt>
      <trkpt lat="42.93417" lon="0.5733">
        <ele>829</ele>
        <time>2019-02-03T14:45:39.000Z</time>
      </trkpt>
      <trkpt lat="42.93417" lon="0.57329">
        <ele>829</ele>
        <time>2019-02-03T14:45:40.000Z</time>
      </trkpt>
      <trkpt lat="42.93418" lon="0.57327">
        <ele>829</ele>
        <time>2019-02-03T14:45:41.000Z</time>
      </trkpt>
      <trkpt lat="42.93418" lon="0.57326">
        <ele>829</ele>
        <time>2019-02-03T14:45:42.000Z</time>
      </trkpt>
      <trkpt lat="42.93418" lon="0.57324">
        <ele>828.5</ele>
        <time>2019-02-03T14:45:43.000Z</time>
      </trkpt>
      <trkpt lat="42.93418" lon="0.57323">
        <ele>828</ele>
        <time>2019-02-03T14:45:44.000Z</time>
      </trkpt>
      <trkpt lat="42.93419" lon="0.57322">
        <ele>828</ele>
        <time>2019-02-03T14:45:45.000Z</time>
      </trkpt>
      <trkpt lat="42.93419" lon="0.57321">
        <ele>827.5</ele>
        <time>2019-02-03T14:45:46.000Z</time>
      </trkpt>
      <trkpt lat="42.9342" lon="0.5732">
        <ele>827</ele>
        <time>2019-02-03T14:45:47.000Z</time>
      </trkpt>
      <trkpt lat="42.9342" lon="0.57319">
        <ele>827</ele>
        <time>2019-02-03T14:45:48.000Z</time>
      </trkpt>
      <trkpt lat="42.93421" lon="0.57318">
        <ele>827</ele>
        <time>2019-02-03T14:45:49.000Z</time>
      </trkpt>
      <trkpt lat="42.93421" lon="0.57317">
        <ele>827</ele>
        <time>2019-02-03T14:45:50.000Z</time>
      </trkpt>
      <trkpt lat="42.93422" lon="0.57317">
        <ele>827</ele>
        <time>2019-02-03T14:45:51.000Z</time>
      </trkpt>
      <trkpt lat="42.93422" lon="0.57316">
        <ele>826.5</ele>
        <time>2019-02-03T14:45:52.000Z</time>
      </trkpt>
      <trkpt lat="42.93423" lon="0.57315">
        <ele>826</ele>
        <time>2019-02-03T14:45:53.000Z</time>
      </trkpt>
      <trkpt lat="42.93424" lon="0.57315">
        <ele>826</ele>
        <time>2019-02-03T14:45:54.000Z</time>
      </trkpt>
      <trkpt lat="42.93425" lon="0.57314">
        <ele>826</ele>
        <time>2019-02-03T14:45:55.000Z</time>
      </trkpt>
      <trkpt lat="42.93425" lon="0.57313">
        <ele>826</ele>
        <time>2019-02-03T14:45:56.000Z</time>
      </trkpt>
      <trkpt lat="42.93426" lon="0.57312">
        <ele>825.5</ele>
        <time>2019-02-03T14:45:57.000Z</time>
      </trkpt>
      <trkpt lat="42.93427" lon="0.57312">
        <ele>825</ele>
        <time>2019-02-03T14:45:58.000Z</time>
      </trkpt>
      <trkpt lat="42.93427" lon="0.57311">
        <ele>825</ele>
        <time>2019-02-03T14:45:59.000Z</time>
      </trkpt>
      <trkpt lat="42.93428" lon="0.5731">
        <ele>825</ele>
        <time>2019-02-03T14:46:00.000Z</time>
      </trkpt>
      <trkpt lat="42.93429" lon="0.57309">
        <ele>824.5</ele>
        <time>2019-02-03T14:46:01.000Z</time>
      </trkpt>
      <trkpt lat="42.93429" lon="0.57309">
        <ele>824</ele>
        <time>2019-02-03T14:46:02.000Z</time>
      </trkpt>
      <trkpt lat="42.9343" lon="0.57308">
        <ele>824</ele>
        <time>2019-02-03T14:46:03.000Z</time>
      </trkpt>
      <trkpt lat="42.9343" lon="0.57308">
        <ele>824</ele>
        <time>2019-02-03T14:46:04.000Z</time>
      </trkpt>
      <trkpt lat="42.93431" lon="0.57308">
        <ele>824</ele>
        <time>2019-02-03T14:46:05.000Z</time>
      </trkpt>
      <trkpt lat="42.93431" lon="0.57307">
        <ele>824</ele>
        <time>2019-02-03T14:46:06.000Z</time>
      </trkpt>
      <trkpt lat="42.93432" lon="0.57307">
        <ele>823.5</ele>
        <time>2019-02-03T14:46:07.000Z</time>
      </trkpt>
      <trkpt lat="42.93432" lon="0.57306">
        <ele>823</ele>
        <time>2019-02-03T14:46:08.000Z</time>
      </trkpt>
      <trkpt lat="42.93433" lon="0.57306">
        <ele>823</ele>
        <time>2019-02-03T14:46:09.000Z</time>
      </trkpt>
      <trkpt lat="42.93434" lon="0.57305">
        <ele>822.7</ele>
        <time>2019-02-03T14:46:10.000Z</time>
      </trkpt>
      <trkpt lat="42.93435" lon="0.57305">
        <ele>822.3</ele>
        <time>2019-02-03T14:46:11.000Z</time>
      </trkpt>
      <trkpt lat="42.93435" lon="0.57305">
        <ele>822</ele>
        <time>2019-02-03T14:46:12.000Z</time>
      </trkpt>
      <trkpt lat="42.93436" lon="0.57304">
        <ele>821.5</ele>
        <time>2019-02-03T14:46:13.000Z</time>
      </trkpt>
      <trkpt lat="42.93437" lon="0.57304">
        <ele>821</ele>
        <time>2019-02-03T14:46:14.000Z</time>
      </trkpt>
      <trkpt lat="42.93437" lon="0.57304">
        <ele>821</ele>
        <time>2019-02-03T14:46:15.000Z</time>
      </trkpt>
      <trkpt lat="42.93438" lon="0.57304">
        <ele>821</ele>
        <time>2019-02-03T14:46:16.000Z</time>
      </trkpt>
      <trkpt lat="42.93439" lon="0.57304">
        <ele>820.5</ele>
        <time>2019-02-03T14:46:17.000Z</time>
      </trkpt>
      <trkpt lat="42.9344" lon="0.57304">
        <ele>820</ele>
        <time>2019-02-03T14:46:18.000Z</time>
      </trkpt>
      <trkpt lat="42.9344" lon="0.57304">
        <ele>820</ele>
        <time>2019-02-03T14:46:19.000Z</time>
      </trkpt>
      <trkpt lat="42.93441" lon="0.57304">
        <ele>820</ele>
        <time>2019-02-03T14:46:20.000Z</time>
      </trkpt>
      <trkpt lat="42.93442" lon="0.57304">
        <ele>819.5</ele>
        <time>2019-02-03T14:46:21.000Z</time>
      </trkpt>
      <trkpt lat="42.93443" lon="0.57304">
        <ele>819</ele>
        <time>2019-02-03T14:46:22.000Z</time>
      </trkpt>
      <trkpt lat="42.93443" lon="0.57304">
        <ele>819</ele>
        <time>2019-02-03T14:46:23.000Z</time>
      </trkpt>
      <trkpt lat="42.93444" lon="0.57304">
        <ele>819</ele>
        <time>2019-02-03T14:46:24.000Z</time>
      </trkpt>
      <trkpt lat="42.93445" lon="0.57304">
        <ele>818.5</ele>
        <time>2019-02-03T14:46:25.000Z</time>
      </trkpt>
      <trkpt lat="42.93446" lon="0.57304">
        <ele>818</ele>
        <time>2019-02-03T14:46:26.000Z</time>
      </trkpt>
      <trkpt lat="42.93446" lon="0.57304">
        <ele>818</ele>
        <time>2019-02-03T14:46:27.000Z</time>
      </trkpt>
      <trkpt lat="42.93447" lon="0.57304">
        <ele>818</ele>
        <time>2019-02-03T14:46:28.000Z</time>
      </trkpt>
      <trkpt lat="42.93448" lon="0.57304">
        <ele>817</ele>
        <time>2019-02-03T14:46:29.000Z</time>
      </trkpt>
      <trkpt lat="42.93449" lon="0.57304">
        <ele>816.7</ele>
        <time>2019-02-03T14:46:30.000Z</time>
      </trkpt>
      <trkpt lat="42.9345" lon="0.57304">
        <ele>816.3</ele>
        <time>2019-02-03T14:46:31.000Z</time>
      </trkpt>
      <trkpt lat="42.9345" lon="0.57304">
        <ele>816</ele>
        <time>2019-02-03T14:46:32.000Z</time>
      </trkpt>
      <trkpt lat="42.93451" lon="0.57303">
        <ele>815.5</ele>
        <time>2019-02-03T14:46:33.000Z</time>
      </trkpt>
      <trkpt lat="42.93452" lon="0.57303">
        <ele>815</ele>
        <time>2019-02-03T14:46:34.000Z</time>
      </trkpt>
      <trkpt lat="42.93453" lon="0.57303">
        <ele>815</ele>
        <time>2019-02-03T14:46:35.000Z</time>
      </trkpt>
      <trkpt lat="42.93454" lon="0.57302">
        <ele>814.7</ele>
        <time>2019-02-03T14:46:36.000Z</time>
      </trkpt>
      <trkpt lat="42.93454" lon="0.57302">
        <ele>814.3</ele>
        <time>2019-02-03T14:46:37.000Z</time>
      </trkpt>
      <trkpt lat="42.93455" lon="0.57301">
        <ele>814</ele>
        <time>2019-02-03T14:46:38.000Z</time>
      </trkpt>
      <trkpt lat="42.93456" lon="0.57301">
        <ele>814</ele>
        <time>2019-02-03T14:46:39.000Z</time>
      </trkpt>
      <trkpt lat="42.93457" lon="0.573">
        <ele>814</ele>
        <time>2019-02-03T14:46:40.000Z</time>
      </trkpt>
      <trkpt lat="42.93458" lon="0.57299">
        <ele>813.5</ele>
        <time>2019-02-03T14:46:41.000Z</time>
      </trkpt>
      <trkpt lat="42.93459" lon="0.57298">
        <ele>813</ele>
        <time>2019-02-03T14:46:42.000Z</time>
      </trkpt>
      <trkpt lat="42.9346" lon="0.57297">
        <ele>812.5</ele>
        <time>2019-02-03T14:46:43.000Z</time>
      </trkpt>
      <trkpt lat="42.93461" lon="0.57296">
        <ele>812</ele>
        <time>2019-02-03T14:46:44.000Z</time>
      </trkpt>
      <trkpt lat="42.93462" lon="0.57295">
        <ele>812</ele>
        <time>2019-02-03T14:46:45.000Z</time>
      </trkpt>
      <trkpt lat="42.93463" lon="0.57295">
        <ele>811.5</ele>
        <time>2019-02-03T14:46:46.000Z</time>
      </trkpt>
      <trkpt lat="42.93463" lon="0.57294">
        <ele>811</ele>
        <time>2019-02-03T14:46:47.000Z</time>
      </trkpt>
      <trkpt lat="42.93464" lon="0.57293">
        <ele>811</ele>
        <time>2019-02-03T14:46:48.000Z</time>
      </trkpt>
      <trkpt lat="42.93464" lon="0.57293">
        <ele>811</ele>
        <time>2019-02-03T14:46:49.000Z</time>
      </trkpt>
      <trkpt lat="42.93465" lon="0.57292">
        <ele>811</ele>
        <time>2019-02-03T14:46:50.000Z</time>
      </trkpt>
      <trkpt lat="42.93465" lon="0.57292">
        <ele>810.5</ele>
        <time>2019-02-03T14:46:51.000Z</time>
      </trkpt>
      <trkpt lat="42.93465" lon="0.57291">
        <ele>810</ele>
        <time>2019-02-03T14:46:52.000Z</time>
      </trkpt>
      <trkpt lat="42.93466" lon="0.5729">
        <ele>810</ele>
        <time>2019-02-03T14:46:53.000Z</time>
      </trkpt>
      <trkpt lat="42.93466" lon="0.5729">
        <ele>810</ele>
        <time>2019-02-03T14:46:54.000Z</time>
      </trkpt>
      <trkpt lat="42.93467" lon="0.57289">
        <ele>809.5</ele>
        <time>2019-02-03T14:46:55.000Z</time>
      </trkpt>
      <trkpt lat="42.93467" lon="0.57288">
        <ele>809</ele>
        <time>2019-02-03T14:46:56.000Z</time>
      </trkpt>
      <trkpt lat="42.93467" lon="0.57287">
        <ele>809</ele>
        <time>2019-02-03T14:46:57.000Z</time>
      </trkpt>
      <trkpt lat="42.93468" lon="0.57286">
        <ele>809</ele>
        <time>2019-02-03T14:46:58.000Z</time>
      </trkpt>
      <trkpt lat="42.93468" lon="0.57285">
        <ele>808</ele>
        <time>2019-02-03T14:46:59.000Z</time>
      </trkpt>
      <trkpt lat="42.93469" lon="0.57284">
        <ele>808</ele>
        <time>2019-02-03T14:47:00.000Z</time>
      </trkpt>
      <trkpt lat="42.9347" lon="0.57284">
        <ele>808</ele>
        <time>2019-02-03T14:47:01.000Z</time>
      </trkpt>
      <trkpt lat="42.93471" lon="0.57283">
        <ele>808</ele>
        <time>2019-02-03T14:47:02.000Z</time>
      </trkpt>
      <trkpt lat="42.93471" lon="0.57282">
        <ele>807.5</ele>
        <time>2019-02-03T14:47:03.000Z</time>
      </trkpt>
      <trkpt lat="42.93472" lon="0.57281">
        <ele>807</ele>
        <time>2019-02-03T14:47:04.000Z</time>
      </trkpt>
      <trkpt lat="42.93473" lon="0.57281">
        <ele>806</ele>
        <time>2019-02-03T14:47:05.000Z</time>
      </trkpt>
      <trkpt lat="42.93474" lon="0.5728">
        <ele>806</ele>
        <time>2019-02-03T14:47:06.000Z</time>
      </trkpt>
      <trkpt lat="42.93475" lon="0.57279">
        <ele>806</ele>
        <time>2019-02-03T14:47:07.000Z</time>
      </trkpt>
      <trkpt lat="42.93476" lon="0.57279">
        <ele>806</ele>
        <time>2019-02-03T14:47:08.000Z</time>
      </trkpt>
      <trkpt lat="42.93476" lon="0.57278">
        <ele>805</ele>
        <time>2019-02-03T14:47:09.000Z</time>
      </trkpt>
      <trkpt lat="42.93477" lon="0.57278">
        <ele>805</ele>
        <time>2019-02-03T14:47:10.000Z</time>
      </trkpt>
      <trkpt lat="42.93478" lon="0.57278">
        <ele>805</ele>
        <time>2019-02-03T14:47:11.000Z</time>
      </trkpt>
      <trkpt lat="42.93479" lon="0.57277">
        <ele>804.7</ele>
        <time>2019-02-03T14:47:12.000Z</time>
      </trkpt>
      <trkpt lat="42.93479" lon="0.57277">
        <ele>804.3</ele>
        <time>2019-02-03T14:47:13.000Z</time>
      </trkpt>
      <trkpt lat="42.9348" lon="0.57277">
        <ele>804</ele>
        <time>2019-02-03T14:47:14.000Z</time>
      </trkpt>
      <trkpt lat="42.93481" lon="0.57276">
        <ele>803.5</ele>
        <time>2019-02-03T14:47:15.000Z</time>
      </trkpt>
      <trkpt lat="42.93481" lon="0.57276">
        <ele>803</ele>
        <time>2019-02-03T14:47:16.000Z</time>
      </trkpt>
      <trkpt lat="42.93482" lon="0.57276">
        <ele>803</ele>
        <time>2019-02-03T14:47:17.000Z</time>
      </trkpt>
      <trkpt lat="42.93483" lon="0.57276">
        <ele>803</ele>
        <time>2019-02-03T14:47:18.000Z</time>
      </trkpt>
      <trkpt lat="42.93484" lon="0.57276">
        <ele>802.5</ele>
        <time>2019-02-03T14:47:19.000Z</time>
      </trkpt>
      <trkpt lat="42.93485" lon="0.57276">
        <ele>802</ele>
        <time>2019-02-03T14:47:20.000Z</time>
      </trkpt>
      <trkpt lat="42.93486" lon="0.57275">
        <ele>801.5</ele>
        <time>2019-02-03T14:47:21.000Z</time>
      </trkpt>
      <trkpt lat="42.93487" lon="0.57275">
        <ele>801</ele>
        <time>2019-02-03T14:47:22.000Z</time>
      </trkpt>
      <trkpt lat="42.93487" lon="0.57275">
        <ele>801</ele>
        <time>2019-02-03T14:47:23.000Z</time>
      </trkpt>
      <trkpt lat="42.93488" lon="0.57275">
        <ele>800.7</ele>
        <time>2019-02-03T14:47:24.000Z</time>
      </trkpt>
      <trkpt lat="42.93489" lon="0.57275">
        <ele>800.3</ele>
        <time>2019-02-03T14:47:25.000Z</time>
      </trkpt>
      <trkpt lat="42.93489" lon="0.57275">
        <ele>800</ele>
        <time>2019-02-03T14:47:26.000Z</time>
      </trkpt>
      <trkpt lat="42.9349" lon="0.57274">
        <ele>800</ele>
        <time>2019-02-03T14:47:27.000Z</time>
      </trkpt>
      <trkpt lat="42.9349" lon="0.57274">
        <ele>800</ele>
        <time>2019-02-03T14:47:28.000Z</time>
      </trkpt>
      <trkpt lat="42.9349" lon="0.57274">
        <ele>799</ele>
        <time>2019-02-03T14:47:29.000Z</time>
      </trkpt>
      <trkpt lat="42.93491" lon="0.57274">
        <ele>798.7</ele>
        <time>2019-02-03T14:47:30.000Z</time>
      </trkpt>
      <trkpt lat="42.93491" lon="0.57273">
        <ele>798.3</ele>
        <time>2019-02-03T14:47:31.000Z</time>
      </trkpt>
      <trkpt lat="42.93492" lon="0.57273">
        <ele>798</ele>
        <time>2019-02-03T14:47:32.000Z</time>
      </trkpt>
      <trkpt lat="42.93492" lon="0.57272">
        <ele>798</ele>
        <time>2019-02-03T14:47:33.000Z</time>
      </trkpt>
      <trkpt lat="42.93492" lon="0.57272">
        <ele>798</ele>
        <time>2019-02-03T14:47:34.000Z</time>
      </trkpt>
      <trkpt lat="42.93493" lon="0.57271">
        <ele>797</ele>
        <time>2019-02-03T14:47:35.000Z</time>
      </trkpt>
      <trkpt lat="42.93494" lon="0.57271">
        <ele>797</ele>
        <time>2019-02-03T14:47:36.000Z</time>
      </trkpt>
      <trkpt lat="42.93494" lon="0.5727">
        <ele>797</ele>
        <time>2019-02-03T14:47:37.000Z</time>
      </trkpt>
      <trkpt lat="42.93495" lon="0.57269">
        <ele>797</ele>
        <time>2019-02-03T14:47:38.000Z</time>
      </trkpt>
      <trkpt lat="42.93496" lon="0.57268">
        <ele>796</ele>
        <time>2019-02-03T14:47:39.000Z</time>
      </trkpt>
      <trkpt lat="42.93496" lon="0.57268">
        <ele>796</ele>
        <time>2019-02-03T14:47:40.000Z</time>
      </trkpt>
      <trkpt lat="42.93497" lon="0.57267">
        <ele>796</ele>
        <time>2019-02-03T14:47:41.000Z</time>
      </trkpt>
      <trkpt lat="42.93497" lon="0.57266">
        <ele>796</ele>
        <time>2019-02-03T14:47:42.000Z</time>
      </trkpt>
      <trkpt lat="42.93498" lon="0.57266">
        <ele>796</ele>
        <time>2019-02-03T14:47:43.000Z</time>
      </trkpt>
      <trkpt lat="42.93498" lon="0.57265">
        <ele>796</ele>
        <time>2019-02-03T14:47:44.000Z</time>
      </trkpt>
      <trkpt lat="42.93498" lon="0.57265">
        <ele>795.5</ele>
        <time>2019-02-03T14:47:45.000Z</time>
      </trkpt>
      <trkpt lat="42.93498" lon="0.57265">
        <ele>795</ele>
        <time>2019-02-03T14:47:46.000Z</time>
      </trkpt>
      <trkpt lat="42.93498" lon="0.57264">
        <ele>795</ele>
        <time>2019-02-03T14:47:47.000Z</time>
      </trkpt>
      <trkpt lat="42.93498" lon="0.57264">
        <ele>794.7</ele>
        <time>2019-02-03T14:47:48.000Z</time>
      </trkpt>
      <trkpt lat="42.93499" lon="0.57263">
        <ele>794.3</ele>
        <time>2019-02-03T14:47:49.000Z</time>
      </trkpt>
      <trkpt lat="42.93499" lon="0.57263">
        <ele>794</ele>
        <time>2019-02-03T14:47:50.000Z</time>
      </trkpt>
      <trkpt lat="42.93499" lon="0.57262">
        <ele>794</ele>
        <time>2019-02-03T14:47:51.000Z</time>
      </trkpt>
      <trkpt lat="42.93499" lon="0.57261">
        <ele>794</ele>
        <time>2019-02-03T14:47:52.000Z</time>
      </trkpt>
      <trkpt lat="42.93499" lon="0.57261">
        <ele>794</ele>
        <time>2019-02-03T14:47:53.000Z</time>
      </trkpt>
      <trkpt lat="42.93499" lon="0.5726">
        <ele>794</ele>
        <time>2019-02-03T14:47:54.000Z</time>
      </trkpt>
      <trkpt lat="42.935" lon="0.57259">
        <ele>794</ele>
        <time>2019-02-03T14:47:55.000Z</time>
      </trkpt>
      <trkpt lat="42.935" lon="0.57258">
        <ele>794</ele>
        <time>2019-02-03T14:47:56.000Z</time>
      </trkpt>
      <trkpt lat="42.93501" lon="0.57258">
        <ele>793</ele>
        <time>2019-02-03T14:47:57.000Z</time>
      </trkpt>
      <trkpt lat="42.93501" lon="0.57257">
        <ele>793</ele>
        <time>2019-02-03T14:47:58.000Z</time>
      </trkpt>
      <trkpt lat="42.93502" lon="0.57256">
        <ele>793</ele>
        <time>2019-02-03T14:47:59.000Z</time>
      </trkpt>
      <trkpt lat="42.93502" lon="0.57256">
        <ele>793</ele>
        <time>2019-02-03T14:48:00.000Z</time>
      </trkpt>
      <trkpt lat="42.93502" lon="0.57255">
        <ele>793</ele>
        <time>2019-02-03T14:48:01.000Z</time>
      </trkpt>
      <trkpt lat="42.93502" lon="0.57254">
        <ele>793</ele>
        <time>2019-02-03T14:48:02.000Z</time>
      </trkpt>
      <trkpt lat="42.93502" lon="0.57253">
        <ele>792</ele>
        <time>2019-02-03T14:48:03.000Z</time>
      </trkpt>
      <trkpt lat="42.93502" lon="0.57252">
        <ele>792</ele>
        <time>2019-02-03T14:48:04.000Z</time>
      </trkpt>
      <trkpt lat="42.93502" lon="0.57252">
        <ele>792</ele>
        <time>2019-02-03T14:48:05.000Z</time>
      </trkpt>
      <trkpt lat="42.93502" lon="0.57251">
        <ele>792</ele>
        <time>2019-02-03T14:48:06.000Z</time>
      </trkpt>
      <trkpt lat="42.93502" lon="0.5725">
        <ele>791</ele>
        <time>2019-02-03T14:48:07.000Z</time>
      </trkpt>
      <trkpt lat="42.93502" lon="0.57249">
        <ele>790.7</ele>
        <time>2019-02-03T14:48:08.000Z</time>
      </trkpt>
      <trkpt lat="42.93501" lon="0.57248">
        <ele>790.3</ele>
        <time>2019-02-03T14:48:09.000Z</time>
      </trkpt>
      <trkpt lat="42.93501" lon="0.57247">
        <ele>790</ele>
        <time>2019-02-03T14:48:10.000Z</time>
      </trkpt>
      <trkpt lat="42.93501" lon="0.57246">
        <ele>790</ele>
        <time>2019-02-03T14:48:11.000Z</time>
      </trkpt>
      <trkpt lat="42.93501" lon="0.57245">
        <ele>789.5</ele>
        <time>2019-02-03T14:48:12.000Z</time>
      </trkpt>
      <trkpt lat="42.93502" lon="0.57244">
        <ele>789</ele>
        <time>2019-02-03T14:48:13.000Z</time>
      </trkpt>
      <trkpt lat="42.93502" lon="0.57243">
        <ele>789</ele>
        <time>2019-02-03T14:48:14.000Z</time>
      </trkpt>
      <trkpt lat="42.93502" lon="0.57242">
        <ele>789</ele>
        <time>2019-02-03T14:48:15.000Z</time>
      </trkpt>
      <trkpt lat="42.93502" lon="0.57241">
        <ele>789</ele>
        <time>2019-02-03T14:48:16.000Z</time>
      </trkpt>
      <trkpt lat="42.93503" lon="0.5724">
        <ele>788</ele>
        <time>2019-02-03T14:48:17.000Z</time>
      </trkpt>
      <trkpt lat="42.93503" lon="0.57239">
        <ele>788</ele>
        <time>2019-02-03T14:48:18.000Z</time>
      </trkpt>
      <trkpt lat="42.93503" lon="0.57238">
        <ele>788</ele>
        <time>2019-02-03T14:48:19.000Z</time>
      </trkpt>
      <trkpt lat="42.93504" lon="0.57238">
        <ele>788</ele>
        <time>2019-02-03T14:48:20.000Z</time>
      </trkpt>
      <trkpt lat="42.93504" lon="0.57238">
        <ele>788</ele>
        <time>2019-02-03T14:48:21.000Z</time>
      </trkpt>
      <trkpt lat="42.93505" lon="0.57237">
        <ele>788</ele>
        <time>2019-02-03T14:48:22.000Z</time>
      </trkpt>
      <trkpt lat="42.93505" lon="0.57237">
        <ele>787</ele>
        <time>2019-02-03T14:48:23.000Z</time>
      </trkpt>
      <trkpt lat="42.93506" lon="0.57237">
        <ele>787</ele>
        <time>2019-02-03T14:48:24.000Z</time>
      </trkpt>
      <trkpt lat="42.93506" lon="0.57237">
        <ele>787</ele>
        <time>2019-02-03T14:48:25.000Z</time>
      </trkpt>
      <trkpt lat="42.93507" lon="0.57237">
        <ele>787</ele>
        <time>2019-02-03T14:48:26.000Z</time>
      </trkpt>
      <trkpt lat="42.93507" lon="0.57237">
        <ele>786.5</ele>
        <time>2019-02-03T14:48:27.000Z</time>
      </trkpt>
      <trkpt lat="42.93508" lon="0.57237">
        <ele>786</ele>
        <time>2019-02-03T14:48:28.000Z</time>
      </trkpt>
      <trkpt lat="42.93509" lon="0.57237">
        <ele>786</ele>
        <time>2019-02-03T14:48:29.000Z</time>
      </trkpt>
      <trkpt lat="42.93509" lon="0.57236">
        <ele>785.7</ele>
        <time>2019-02-03T14:48:30.000Z</time>
      </trkpt>
      <trkpt lat="42.9351" lon="0.57236">
        <ele>785.3</ele>
        <time>2019-02-03T14:48:31.000Z</time>
      </trkpt>
      <trkpt lat="42.9351" lon="0.57235">
        <ele>785</ele>
        <time>2019-02-03T14:48:32.000Z</time>
      </trkpt>
      <trkpt lat="42.93511" lon="0.57235">
        <ele>785</ele>
        <time>2019-02-03T14:48:33.000Z</time>
      </trkpt>
      <trkpt lat="42.93511" lon="0.57235">
        <ele>785</ele>
        <time>2019-02-03T14:48:34.000Z</time>
      </trkpt>
      <trkpt lat="42.93512" lon="0.57235">
        <ele>784</ele>
        <time>2019-02-03T14:48:35.000Z</time>
      </trkpt>
      <trkpt lat="42.93512" lon="0.57234">
        <ele>784</ele>
        <time>2019-02-03T14:48:36.000Z</time>
      </trkpt>
      <trkpt lat="42.93512" lon="0.57234">
        <ele>784</ele>
        <time>2019-02-03T14:48:37.000Z</time>
      </trkpt>
      <trkpt lat="42.93512" lon="0.57234">
        <ele>784</ele>
        <time>2019-02-03T14:48:38.000Z</time>
      </trkpt>
      <trkpt lat="42.93512" lon="0.57234">
        <ele>784</ele>
        <time>2019-02-03T14:48:39.000Z</time>
      </trkpt>
      <trkpt lat="42.93512" lon="0.57234">
        <ele>784</ele>
        <time>2019-02-03T14:48:40.000Z</time>
      </trkpt>
      <trkpt lat="42.93512" lon="0.57234">
        <ele>783</ele>
        <time>2019-02-03T14:48:41.000Z</time>
      </trkpt>
      <trkpt lat="42.93512" lon="0.57234">
        <ele>783</ele>
        <time>2019-02-03T14:48:42.000Z</time>
      </trkpt>
      <trkpt lat="42.93512" lon="0.57234">
        <ele>783</ele>
        <time>2019-02-03T14:48:43.000Z</time>
      </trkpt>
      <trkpt lat="42.93512" lon="0.57234">
        <ele>783</ele>
        <time>2019-02-03T14:48:44.000Z</time>
      </trkpt>
      <trkpt lat="42.93512" lon="0.57234">
        <ele>783</ele>
        <time>2019-02-03T14:48:45.000Z</time>
      </trkpt>
      <trkpt lat="42.93512" lon="0.57234">
        <ele>783</ele>
        <time>2019-02-03T14:48:46.000Z</time>
      </trkpt>
      <trkpt lat="42.93513" lon="0.57234">
        <ele>783</ele>
        <time>2019-02-03T14:48:47.000Z</time>
      </trkpt>
      <trkpt lat="42.93513" lon="0.57233">
        <ele>783</ele>
        <time>2019-02-03T14:48:48.000Z</time>
      </trkpt>
      <trkpt lat="42.93513" lon="0.57233">
        <ele>783</ele>
        <time>2019-02-03T14:48:49.000Z</time>
      </trkpt>
      <trkpt lat="42.93513" lon="0.57233">
        <ele>783</ele>
        <time>2019-02-03T14:48:50.000Z</time>
      </trkpt>
      <trkpt lat="42.93513" lon="0.57233">
        <ele>782.5</ele>
        <time>2019-02-03T14:48:51.000Z</time>
      </trkpt>
      <trkpt lat="42.93514" lon="0.57232">
        <ele>782</ele>
        <time>2019-02-03T14:48:52.000Z</time>
      </trkpt>
      <trkpt lat="42.93514" lon="0.57232">
        <ele>782</ele>
        <time>2019-02-03T14:48:53.000Z</time>
      </trkpt>
      <trkpt lat="42.93515" lon="0.57232">
        <ele>781.7</ele>
        <time>2019-02-03T14:48:54.000Z</time>
      </trkpt>
      <trkpt lat="42.93516" lon="0.57232">
        <ele>781.3</ele>
        <time>2019-02-03T14:48:55.000Z</time>
      </trkpt>
      <trkpt lat="42.93516" lon="0.57231">
        <ele>781</ele>
        <time>2019-02-03T14:48:56.000Z</time>
      </trkpt>
      <trkpt lat="42.93517" lon="0.57231">
        <ele>781</ele>
        <time>2019-02-03T14:48:57.000Z</time>
      </trkpt>
      <trkpt lat="42.93517" lon="0.5723">
        <ele>781</ele>
        <time>2019-02-03T14:48:58.000Z</time>
      </trkpt>
      <trkpt lat="42.93517" lon="0.57229">
        <ele>781</ele>
        <time>2019-02-03T14:48:59.000Z</time>
      </trkpt>
      <trkpt lat="42.93517" lon="0.57228">
        <ele>781</ele>
        <time>2019-02-03T14:49:00.000Z</time>
      </trkpt>
      <trkpt lat="42.93517" lon="0.57228">
        <ele>781</ele>
        <time>2019-02-03T14:49:01.000Z</time>
      </trkpt>
      <trkpt lat="42.93517" lon="0.57227">
        <ele>781</ele>
        <time>2019-02-03T14:49:02.000Z</time>
      </trkpt>
      <trkpt lat="42.93517" lon="0.57227">
        <ele>780.5</ele>
        <time>2019-02-03T14:49:03.000Z</time>
      </trkpt>
      <trkpt lat="42.93517" lon="0.57227">
        <ele>780</ele>
        <time>2019-02-03T14:49:04.000Z</time>
      </trkpt>
      <trkpt lat="42.93516" lon="0.57227">
        <ele>780</ele>
        <time>2019-02-03T14:49:05.000Z</time>
      </trkpt>
      <trkpt lat="42.93516" lon="0.57227">
        <ele>780</ele>
        <time>2019-02-03T14:49:06.000Z</time>
      </trkpt>
      <trkpt lat="42.93516" lon="0.57227">
        <ele>780</ele>
        <time>2019-02-03T14:49:07.000Z</time>
      </trkpt>
      <trkpt lat="42.93516" lon="0.57227">
        <ele>780</ele>
        <time>2019-02-03T14:49:08.000Z</time>
      </trkpt>
      <trkpt lat="42.93516" lon="0.57227">
        <ele>780</ele>
        <time>2019-02-03T14:49:09.000Z</time>
      </trkpt>
      <trkpt lat="42.93516" lon="0.57227">
        <ele>780</ele>
        <time>2019-02-03T14:49:10.000Z</time>
      </trkpt>
      <trkpt lat="42.93516" lon="0.57227">
        <ele>780</ele>
        <time>2019-02-03T14:49:11.000Z</time>
      </trkpt>
      <trkpt lat="42.93516" lon="0.57227">
        <ele>780</ele>
        <time>2019-02-03T14:49:12.000Z</time>
      </trkpt>
      <trkpt lat="42.93516" lon="0.57227">
        <ele>780</ele>
        <time>2019-02-03T14:49:13.000Z</time>
      </trkpt>
      <trkpt lat="42.93516" lon="0.57227">
        <ele>780</ele>
        <time>2019-02-03T14:49:14.000Z</time>
      </trkpt>
      <trkpt lat="42.93516" lon="0.57227">
        <ele>780</ele>
        <time>2019-02-03T14:49:15.000Z</time>
      </trkpt>
      <trkpt lat="42.93516" lon="0.57227">
        <ele>780</ele>
        <time>2019-02-03T14:49:16.000Z</time>
      </trkpt>
      <trkpt lat="42.93516" lon="0.57226">
        <ele>780</ele>
        <time>2019-02-03T14:49:17.000Z</time>
      </trkpt>
      <trkpt lat="42.93516" lon="0.57226">
        <ele>780</ele>
        <time>2019-02-03T14:49:18.000Z</time>
      </trkpt>
      <trkpt lat="42.93516" lon="0.57226">
        <ele>780</ele>
        <time>2019-02-03T14:49:19.000Z</time>
      </trkpt>
      <trkpt lat="42.93516" lon="0.57226">
        <ele>780</ele>
        <time>2019-02-03T14:49:20.000Z</time>
      </trkpt>
      <trkpt lat="42.93516" lon="0.57226">
        <ele>780</ele>
        <time>2019-02-03T14:49:21.000Z</time>
      </trkpt>
      <trkpt lat="42.93516" lon="0.57225">
        <ele>780</ele>
        <time>2019-02-03T14:49:22.000Z</time>
      </trkpt>
      <trkpt lat="42.93516" lon="0.57225">
        <ele>780</ele>
        <time>2019-02-03T14:49:23.000Z</time>
      </trkpt>
      <trkpt lat="42.93515" lon="0.57225">
        <ele>780</ele>
        <time>2019-02-03T14:49:24.000Z</time>
      </trkpt>
      <trkpt lat="42.93515" lon="0.57225">
        <ele>780</ele>
        <time>2019-02-03T14:49:25.000Z</time>
      </trkpt>
      <trkpt lat="42.93515" lon="0.57225">
        <ele>780</ele>
        <time>2019-02-03T14:49:26.000Z</time>
      </trkpt>
      <trkpt lat="42.93516" lon="0.57225">
        <ele>780</ele>
        <time>2019-02-03T14:49:27.000Z</time>
      </trkpt>
      <trkpt lat="42.93516" lon="0.57225">
        <ele>780</ele>
        <time>2019-02-03T14:49:28.000Z</time>
      </trkpt>
      <trkpt lat="42.93517" lon="0.57226">
        <ele>780</ele>
        <time>2019-02-03T14:49:29.000Z</time>
      </trkpt>
      <trkpt lat="42.93518" lon="0.57226">
        <ele>780</ele>
        <time>2019-02-03T14:49:30.000Z</time>
      </trkpt>
      <trkpt lat="42.93519" lon="0.57227">
        <ele>780</ele>
        <time>2019-02-03T14:49:31.000Z</time>
      </trkpt>
      <trkpt lat="42.93519" lon="0.57227">
        <ele>780</ele>
        <time>2019-02-03T14:49:32.000Z</time>
      </trkpt>
      <trkpt lat="42.93519" lon="0.57228">
        <ele>780</ele>
        <time>2019-02-03T14:49:33.000Z</time>
      </trkpt>
      <trkpt lat="42.93519" lon="0.57228">
        <ele>780</ele>
        <time>2019-02-03T14:49:34.000Z</time>
      </trkpt>
      <trkpt lat="42.93519" lon="0.57228">
        <ele>781</ele>
        <time>2019-02-03T14:49:35.000Z</time>
      </trkpt>
      <trkpt lat="42.9352" lon="0.57228">
        <ele>780</ele>
        <time>2019-02-03T14:49:36.000Z</time>
      </trkpt>
      <trkpt lat="42.9352" lon="0.57228">
        <ele>780</ele>
        <time>2019-02-03T14:49:37.000Z</time>
      </trkpt>
      <trkpt lat="42.93521" lon="0.57228">
        <ele>780</ele>
        <time>2019-02-03T14:49:38.000Z</time>
      </trkpt>
      <trkpt lat="42.93522" lon="0.57228">
        <ele>780</ele>
        <time>2019-02-03T14:49:39.000Z</time>
      </trkpt>
      <trkpt lat="42.93523" lon="0.57229">
        <ele>780</ele>
        <time>2019-02-03T14:49:40.000Z</time>
      </trkpt>
      <trkpt lat="42.93524" lon="0.57229">
        <ele>779.5</ele>
        <time>2019-02-03T14:49:41.000Z</time>
      </trkpt>
      <trkpt lat="42.93524" lon="0.57229">
        <ele>779</ele>
        <time>2019-02-03T14:49:42.000Z</time>
      </trkpt>
      <trkpt lat="42.93525" lon="0.57229">
        <ele>779</ele>
        <time>2019-02-03T14:49:43.000Z</time>
      </trkpt>
      <trkpt lat="42.93526" lon="0.57229">
        <ele>779</ele>
        <time>2019-02-03T14:49:44.000Z</time>
      </trkpt>
      <trkpt lat="42.93526" lon="0.5723">
        <ele>778.5</ele>
        <time>2019-02-03T14:49:45.000Z</time>
      </trkpt>
      <trkpt lat="42.93527" lon="0.5723">
        <ele>778</ele>
        <time>2019-02-03T14:49:46.000Z</time>
      </trkpt>
      <trkpt lat="42.93528" lon="0.5723">
        <ele>778</ele>
        <time>2019-02-03T14:49:47.000Z</time>
      </trkpt>
      <trkpt lat="42.93528" lon="0.5723">
        <ele>778</ele>
        <time>2019-02-03T14:49:48.000Z</time>
      </trkpt>
      <trkpt lat="42.93529" lon="0.5723">
        <ele>778</ele>
        <time>2019-02-03T14:49:49.000Z</time>
      </trkpt>
      <trkpt lat="42.93529" lon="0.5723">
        <ele>777.7</ele>
        <time>2019-02-03T14:49:50.000Z</time>
      </trkpt>
      <trkpt lat="42.9353" lon="0.57231">
        <ele>777.3</ele>
        <time>2019-02-03T14:49:51.000Z</time>
      </trkpt>
      <trkpt lat="42.9353" lon="0.57231">
        <ele>777</ele>
        <time>2019-02-03T14:49:52.000Z</time>
      </trkpt>
      <trkpt lat="42.93531" lon="0.57231">
        <ele>777</ele>
        <time>2019-02-03T14:49:53.000Z</time>
      </trkpt>
      <trkpt lat="42.93532" lon="0.57231">
        <ele>777</ele>
        <time>2019-02-03T14:49:54.000Z</time>
      </trkpt>
      <trkpt lat="42.93532" lon="0.57231">
        <ele>776.5</ele>
        <time>2019-02-03T14:49:55.000Z</time>
      </trkpt>
      <trkpt lat="42.93533" lon="0.57231">
        <ele>776</ele>
        <time>2019-02-03T14:49:56.000Z</time>
      </trkpt>
      <trkpt lat="42.93534" lon="0.57231">
        <ele>776</ele>
        <time>2019-02-03T14:49:57.000Z</time>
      </trkpt>
      <trkpt lat="42.93534" lon="0.57231">
        <ele>776</ele>
        <time>2019-02-03T14:49:58.000Z</time>
      </trkpt>
      <trkpt lat="42.93535" lon="0.57231">
        <ele>775.5</ele>
        <time>2019-02-03T14:49:59.000Z</time>
      </trkpt>
      <trkpt lat="42.93536" lon="0.57231">
        <ele>775</ele>
        <time>2019-02-03T14:50:00.000Z</time>
      </trkpt>
      <trkpt lat="42.93536" lon="0.57231">
        <ele>775</ele>
        <time>2019-02-03T14:50:01.000Z</time>
      </trkpt>
      <trkpt lat="42.93537" lon="0.57231">
        <ele>775</ele>
        <time>2019-02-03T14:50:02.000Z</time>
      </trkpt>
      <trkpt lat="42.93537" lon="0.5723">
        <ele>774</ele>
        <time>2019-02-03T14:50:03.000Z</time>
      </trkpt>
      <trkpt lat="42.93538" lon="0.5723">
        <ele>774</ele>
        <time>2019-02-03T14:50:04.000Z</time>
      </trkpt>
      <trkpt lat="42.93538" lon="0.5723">
        <ele>774</ele>
        <time>2019-02-03T14:50:05.000Z</time>
      </trkpt>
      <trkpt lat="42.93539" lon="0.5723">
        <ele>774</ele>
        <time>2019-02-03T14:50:06.000Z</time>
      </trkpt>
      <trkpt lat="42.93539" lon="0.5723">
        <ele>773.5</ele>
        <time>2019-02-03T14:50:07.000Z</time>
      </trkpt>
      <trkpt lat="42.93539" lon="0.57229">
        <ele>773</ele>
        <time>2019-02-03T14:50:08.000Z</time>
      </trkpt>
      <trkpt lat="42.9354" lon="0.57229">
        <ele>773</ele>
        <time>2019-02-03T14:50:09.000Z</time>
      </trkpt>
      <trkpt lat="42.9354" lon="0.57228">
        <ele>772.7</ele>
        <time>2019-02-03T14:50:10.000Z</time>
      </trkpt>
      <trkpt lat="42.9354" lon="0.57228">
        <ele>772.3</ele>
        <time>2019-02-03T14:50:11.000Z</time>
      </trkpt>
      <trkpt lat="42.93541" lon="0.57227">
        <ele>772</ele>
        <time>2019-02-03T14:50:12.000Z</time>
      </trkpt>
      <trkpt lat="42.93541" lon="0.57227">
        <ele>772</ele>
        <time>2019-02-03T14:50:13.000Z</time>
      </trkpt>
      <trkpt lat="42.93542" lon="0.57226">
        <ele>772</ele>
        <time>2019-02-03T14:50:14.000Z</time>
      </trkpt>
      <trkpt lat="42.93542" lon="0.57225">
        <ele>771</ele>
        <time>2019-02-03T14:50:15.000Z</time>
      </trkpt>
      <trkpt lat="42.93543" lon="0.57224">
        <ele>771</ele>
        <time>2019-02-03T14:50:16.000Z</time>
      </trkpt>
      <trkpt lat="42.93543" lon="0.57224">
        <ele>771</ele>
        <time>2019-02-03T14:50:17.000Z</time>
      </trkpt>
      <trkpt lat="42.93544" lon="0.57223">
        <ele>771</ele>
        <time>2019-02-03T14:50:18.000Z</time>
      </trkpt>
      <trkpt lat="42.93544" lon="0.57222">
        <ele>770.5</ele>
        <time>2019-02-03T14:50:19.000Z</time>
      </trkpt>
      <trkpt lat="42.93545" lon="0.57222">
        <ele>770</ele>
        <time>2019-02-03T14:50:20.000Z</time>
      </trkpt>
      <trkpt lat="42.93545" lon="0.57221">
        <ele>770</ele>
        <time>2019-02-03T14:50:21.000Z</time>
      </trkpt>
      <trkpt lat="42.93546" lon="0.57221">
        <ele>769.7</ele>
        <time>2019-02-03T14:50:22.000Z</time>
      </trkpt>
      <trkpt lat="42.93546" lon="0.5722">
        <ele>769.3</ele>
        <time>2019-02-03T14:50:23.000Z</time>
      </trkpt>
      <trkpt lat="42.93547" lon="0.57219">
        <ele>769</ele>
        <time>2019-02-03T14:50:24.000Z</time>
      </trkpt>
      <trkpt lat="42.93547" lon="0.57219">
        <ele>769</ele>
        <time>2019-02-03T14:50:25.000Z</time>
      </trkpt>
      <trkpt lat="42.93548" lon="0.57218">
        <ele>769</ele>
        <time>2019-02-03T14:50:26.000Z</time>
      </trkpt>
      <trkpt lat="42.93549" lon="0.57218">
        <ele>768.5</ele>
        <time>2019-02-03T14:50:27.000Z</time>
      </trkpt>
      <trkpt lat="42.93549" lon="0.57217">
        <ele>768</ele>
        <time>2019-02-03T14:50:28.000Z</time>
      </trkpt>
      <trkpt lat="42.9355" lon="0.57216">
        <ele>768</ele>
        <time>2019-02-03T14:50:29.000Z</time>
      </trkpt>
      <trkpt lat="42.9355" lon="0.57215">
        <ele>768</ele>
        <time>2019-02-03T14:50:30.000Z</time>
      </trkpt>
      <trkpt lat="42.9355" lon="0.57215">
        <ele>767</ele>
        <time>2019-02-03T14:50:31.000Z</time>
      </trkpt>
      <trkpt lat="42.93551" lon="0.57214">
        <ele>767</ele>
        <time>2019-02-03T14:50:32.000Z</time>
      </trkpt>
      <trkpt lat="42.93551" lon="0.57213">
        <ele>767</ele>
        <time>2019-02-03T14:50:33.000Z</time>
      </trkpt>
      <trkpt lat="42.93551" lon="0.57213">
        <ele>767</ele>
        <time>2019-02-03T14:50:34.000Z</time>
      </trkpt>
      <trkpt lat="42.93551" lon="0.57212">
        <ele>766.5</ele>
        <time>2019-02-03T14:50:35.000Z</time>
      </trkpt>
      <trkpt lat="42.93551" lon="0.57212">
        <ele>766</ele>
        <time>2019-02-03T14:50:36.000Z</time>
      </trkpt>
      <trkpt lat="42.93551" lon="0.57212">
        <ele>766</ele>
        <time>2019-02-03T14:50:37.000Z</time>
      </trkpt>
      <trkpt lat="42.93552" lon="0.57211">
        <ele>766</ele>
        <time>2019-02-03T14:50:38.000Z</time>
      </trkpt>
      <trkpt lat="42.93552" lon="0.57211">
        <ele>766</ele>
        <time>2019-02-03T14:50:39.000Z</time>
      </trkpt>
      <trkpt lat="42.93552" lon="0.57211">
        <ele>766</ele>
        <time>2019-02-03T14:50:40.000Z</time>
      </trkpt>
      <trkpt lat="42.93552" lon="0.57211">
        <ele>766</ele>
        <time>2019-02-03T14:50:41.000Z</time>
      </trkpt>
      <trkpt lat="42.93552" lon="0.57211">
        <ele>766</ele>
        <time>2019-02-03T14:50:42.000Z</time>
      </trkpt>
      <trkpt lat="42.93552" lon="0.57211">
        <ele>766</ele>
        <time>2019-02-03T14:50:43.000Z</time>
      </trkpt>
      <trkpt lat="42.93552" lon="0.57211">
        <ele>766</ele>
        <time>2019-02-03T14:50:44.000Z</time>
      </trkpt>
      <trkpt lat="42.93552" lon="0.57211">
        <ele>766</ele>
        <time>2019-02-03T14:50:45.000Z</time>
      </trkpt>
      <trkpt lat="42.93552" lon="0.57211">
        <ele>766</ele>
        <time>2019-02-03T14:50:46.000Z</time>
      </trkpt>
      <trkpt lat="42.93552" lon="0.57211">
        <ele>766</ele>
        <time>2019-02-03T14:50:47.000Z</time>
      </trkpt>
      <trkpt lat="42.93552" lon="0.57211">
        <ele>766</ele>
        <time>2019-02-03T14:50:48.000Z</time>
      </trkpt>
      <trkpt lat="42.93552" lon="0.57211">
        <ele>765</ele>
        <time>2019-02-03T14:50:49.000Z</time>
      </trkpt>
      <trkpt lat="42.93552" lon="0.57211">
        <ele>765</ele>
        <time>2019-02-03T14:50:50.000Z</time>
      </trkpt>
      <trkpt lat="42.93552" lon="0.57211">
        <ele>765</ele>
        <time>2019-02-03T14:50:51.000Z</time>
      </trkpt>
      <trkpt lat="42.93552" lon="0.57211">
        <ele>765</ele>
        <time>2019-02-03T14:50:52.000Z</time>
      </trkpt>
      <trkpt lat="42.93552" lon="0.57211">
        <ele>765</ele>
        <time>2019-02-03T14:50:53.000Z</time>
      </trkpt>
      <trkpt lat="42.93552" lon="0.5721">
        <ele>765</ele>
        <time>2019-02-03T14:50:54.000Z</time>
      </trkpt>
      <trkpt lat="42.93552" lon="0.5721">
        <ele>765</ele>
        <time>2019-02-03T14:50:55.000Z</time>
      </trkpt>
      <trkpt lat="42.93553" lon="0.5721">
        <ele>765</ele>
        <time>2019-02-03T14:50:56.000Z</time>
      </trkpt>
      <trkpt lat="42.93553" lon="0.57209">
        <ele>765</ele>
        <time>2019-02-03T14:50:57.000Z</time>
      </trkpt>
      <trkpt lat="42.93554" lon="0.57209">
        <ele>765</ele>
        <time>2019-02-03T14:50:58.000Z</time>
      </trkpt>
      <trkpt lat="42.93555" lon="0.57208">
        <ele>764.5</ele>
        <time>2019-02-03T14:50:59.000Z</time>
      </trkpt>
      <trkpt lat="42.93555" lon="0.57208">
        <ele>764</ele>
        <time>2019-02-03T14:51:00.000Z</time>
      </trkpt>
      <trkpt lat="42.93556" lon="0.57207">
        <ele>764</ele>
        <time>2019-02-03T14:51:01.000Z</time>
      </trkpt>
      <trkpt lat="42.93557" lon="0.57207">
        <ele>764</ele>
        <time>2019-02-03T14:51:02.000Z</time>
      </trkpt>
      <trkpt lat="42.93557" lon="0.57207">
        <ele>763</ele>
        <time>2019-02-03T14:51:03.000Z</time>
      </trkpt>
      <trkpt lat="42.93558" lon="0.57207">
        <ele>763</ele>
        <time>2019-02-03T14:51:04.000Z</time>
      </trkpt>
      <trkpt lat="42.93559" lon="0.57207">
        <ele>763</ele>
        <time>2019-02-03T14:51:05.000Z</time>
      </trkpt>
      <trkpt lat="42.93559" lon="0.57207">
        <ele>763</ele>
        <time>2019-02-03T14:51:06.000Z</time>
      </trkpt>
      <trkpt lat="42.9356" lon="0.57207">
        <ele>762.5</ele>
        <time>2019-02-03T14:51:07.000Z</time>
      </trkpt>
      <trkpt lat="42.9356" lon="0.57208">
        <ele>762</ele>
        <time>2019-02-03T14:51:08.000Z</time>
      </trkpt>
      <trkpt lat="42.93561" lon="0.57208">
        <ele>762</ele>
        <time>2019-02-03T14:51:09.000Z</time>
      </trkpt>
      <trkpt lat="42.93561" lon="0.57208">
        <ele>761.7</ele>
        <time>2019-02-03T14:51:10.000Z</time>
      </trkpt>
      <trkpt lat="42.93561" lon="0.57208">
        <ele>761.3</ele>
        <time>2019-02-03T14:51:11.000Z</time>
      </trkpt>
      <trkpt lat="42.93562" lon="0.57208">
        <ele>761</ele>
        <time>2019-02-03T14:51:12.000Z</time>
      </trkpt>
      <trkpt lat="42.93562" lon="0.57208">
        <ele>761</ele>
        <time>2019-02-03T14:51:13.000Z</time>
      </trkpt>
      <trkpt lat="42.93562" lon="0.57208">
        <ele>761</ele>
        <time>2019-02-03T14:51:14.000Z</time>
      </trkpt>
      <trkpt lat="42.93562" lon="0.57208">
        <ele>761</ele>
        <time>2019-02-03T14:51:15.000Z</time>
      </trkpt>
      <trkpt lat="42.93562" lon="0.57208">
        <ele>761</ele>
        <time>2019-02-03T14:51:16.000Z</time>
      </trkpt>
      <trkpt lat="42.93562" lon="0.57208">
        <ele>761</ele>
        <time>2019-02-03T14:51:17.000Z</time>
      </trkpt>
      <trkpt lat="42.93563" lon="0.57208">
        <ele>761</ele>
        <time>2019-02-03T14:51:18.000Z</time>
      </trkpt>
      <trkpt lat="42.93564" lon="0.57208">
        <ele>761</ele>
        <time>2019-02-03T14:51:19.000Z</time>
      </trkpt>
      <trkpt lat="42.93565" lon="0.57209">
        <ele>761</ele>
        <time>2019-02-03T14:51:20.000Z</time>
      </trkpt>
      <trkpt lat="42.93566" lon="0.57209">
        <ele>761</ele>
        <time>2019-02-03T14:51:21.000Z</time>
      </trkpt>
      <trkpt lat="42.93567" lon="0.57209">
        <ele>761</ele>
        <time>2019-02-03T14:51:22.000Z</time>
      </trkpt>
      <trkpt lat="42.93567" lon="0.57209">
        <ele>760.5</ele>
        <time>2019-02-03T14:51:23.000Z</time>
      </trkpt>
      <trkpt lat="42.93567" lon="0.5721">
        <ele>760</ele>
        <time>2019-02-03T14:51:24.000Z</time>
      </trkpt>
      <trkpt lat="42.93568" lon="0.5721">
        <ele>760</ele>
        <time>2019-02-03T14:51:25.000Z</time>
      </trkpt>
      <trkpt lat="42.93568" lon="0.5721">
        <ele>760</ele>
        <time>2019-02-03T14:51:26.000Z</time>
      </trkpt>
      <trkpt lat="42.93569" lon="0.5721">
        <ele>759.5</ele>
        <time>2019-02-03T14:51:27.000Z</time>
      </trkpt>
      <trkpt lat="42.93569" lon="0.5721">
        <ele>759</ele>
        <time>2019-02-03T14:51:28.000Z</time>
      </trkpt>
      <trkpt lat="42.93569" lon="0.57211">
        <ele>759</ele>
        <time>2019-02-03T14:51:29.000Z</time>
      </trkpt>
      <trkpt lat="42.9357" lon="0.57211">
        <ele>759</ele>
        <time>2019-02-03T14:51:30.000Z</time>
      </trkpt>
      <trkpt lat="42.9357" lon="0.57212">
        <ele>759</ele>
        <time>2019-02-03T14:51:31.000Z</time>
      </trkpt>
      <trkpt lat="42.93571" lon="0.57212">
        <ele>759</ele>
        <time>2019-02-03T14:51:32.000Z</time>
      </trkpt>
      <trkpt lat="42.93571" lon="0.57213">
        <ele>758</ele>
        <time>2019-02-03T14:51:33.000Z</time>
      </trkpt>
      <trkpt lat="42.93572" lon="0.57214">
        <ele>758</ele>
        <time>2019-02-03T14:51:34.000Z</time>
      </trkpt>
      <trkpt lat="42.93572" lon="0.57214">
        <ele>758</ele>
        <time>2019-02-03T14:51:35.000Z</time>
      </trkpt>
      <trkpt lat="42.93572" lon="0.57215">
        <ele>758</ele>
        <time>2019-02-03T14:51:36.000Z</time>
      </trkpt>
      <trkpt lat="42.93573" lon="0.57215">
        <ele>758</ele>
        <time>2019-02-03T14:51:37.000Z</time>
      </trkpt>
      <trkpt lat="42.93573" lon="0.57215">
        <ele>758</ele>
        <time>2019-02-03T14:51:38.000Z</time>
      </trkpt>
      <trkpt lat="42.93573" lon="0.57216">
        <ele>757</ele>
        <time>2019-02-03T14:51:39.000Z</time>
      </trkpt>
      <trkpt lat="42.93573" lon="0.57216">
        <ele>757</ele>
        <time>2019-02-03T14:51:40.000Z</time>
      </trkpt>
      <trkpt lat="42.93574" lon="0.57216">
        <ele>757</ele>
        <time>2019-02-03T14:51:41.000Z</time>
      </trkpt>
      <trkpt lat="42.93574" lon="0.57216">
        <ele>757</ele>
        <time>2019-02-03T14:51:42.000Z</time>
      </trkpt>
      <trkpt lat="42.93574" lon="0.57216">
        <ele>756.5</ele>
        <time>2019-02-03T14:51:43.000Z</time>
      </trkpt>
      <trkpt lat="42.93575" lon="0.57217">
        <ele>756</ele>
        <time>2019-02-03T14:51:44.000Z</time>
      </trkpt>
      <trkpt lat="42.93575" lon="0.57217">
        <ele>756</ele>
        <time>2019-02-03T14:51:45.000Z</time>
      </trkpt>
      <trkpt lat="42.93576" lon="0.57217">
        <ele>756</ele>
        <time>2019-02-03T14:51:46.000Z</time>
      </trkpt>
      <trkpt lat="42.93576" lon="0.57217">
        <ele>756</ele>
        <time>2019-02-03T14:51:47.000Z</time>
      </trkpt>
      <trkpt lat="42.93577" lon="0.57217">
        <ele>756</ele>
        <time>2019-02-03T14:51:48.000Z</time>
      </trkpt>
      <trkpt lat="42.93578" lon="0.57217">
        <ele>756</ele>
        <time>2019-02-03T14:51:49.000Z</time>
      </trkpt>
      <trkpt lat="42.93578" lon="0.57217">
        <ele>756</ele>
        <time>2019-02-03T14:51:50.000Z</time>
      </trkpt>
      <trkpt lat="42.93579" lon="0.57218">
        <ele>756</ele>
        <time>2019-02-03T14:51:51.000Z</time>
      </trkpt>
      <trkpt lat="42.93579" lon="0.57218">
        <ele>756</ele>
        <time>2019-02-03T14:51:52.000Z</time>
      </trkpt>
      <trkpt lat="42.9358" lon="0.57218">
        <ele>756</ele>
        <time>2019-02-03T14:51:53.000Z</time>
      </trkpt>
      <trkpt lat="42.9358" lon="0.57218">
        <ele>756</ele>
        <time>2019-02-03T14:51:54.000Z</time>
      </trkpt>
      <trkpt lat="42.9358" lon="0.57218">
        <ele>755.5</ele>
        <time>2019-02-03T14:51:55.000Z</time>
      </trkpt>
      <trkpt lat="42.9358" lon="0.57219">
        <ele>755</ele>
        <time>2019-02-03T14:51:56.000Z</time>
      </trkpt>
      <trkpt lat="42.93581" lon="0.57219">
        <ele>755</ele>
        <time>2019-02-03T14:51:57.000Z</time>
      </trkpt>
      <trkpt lat="42.93581" lon="0.57219">
        <ele>755</ele>
        <time>2019-02-03T14:51:58.000Z</time>
      </trkpt>
      <trkpt lat="42.93581" lon="0.5722">
        <ele>755</ele>
        <time>2019-02-03T14:51:59.000Z</time>
      </trkpt>
      <trkpt lat="42.93582" lon="0.5722">
        <ele>755</ele>
        <time>2019-02-03T14:52:00.000Z</time>
      </trkpt>
      <trkpt lat="42.93582" lon="0.57221">
        <ele>755</ele>
        <time>2019-02-03T14:52:01.000Z</time>
      </trkpt>
      <trkpt lat="42.93583" lon="0.57221">
        <ele>754.7</ele>
        <time>2019-02-03T14:52:02.000Z</time>
      </trkpt>
      <trkpt lat="42.93583" lon="0.57222">
        <ele>754.3</ele>
        <time>2019-02-03T14:52:03.000Z</time>
      </trkpt>
      <trkpt lat="42.93583" lon="0.57222">
        <ele>754</ele>
        <time>2019-02-03T14:52:04.000Z</time>
      </trkpt>
      <trkpt lat="42.93584" lon="0.57223">
        <ele>754</ele>
        <time>2019-02-03T14:52:05.000Z</time>
      </trkpt>
      <trkpt lat="42.93584" lon="0.57223">
        <ele>753.7</ele>
        <time>2019-02-03T14:52:06.000Z</time>
      </trkpt>
      <trkpt lat="42.93584" lon="0.57223">
        <ele>753.3</ele>
        <time>2019-02-03T14:52:07.000Z</time>
      </trkpt>
      <trkpt lat="42.93585" lon="0.57224">
        <ele>753</ele>
        <time>2019-02-03T14:52:08.000Z</time>
      </trkpt>
      <trkpt lat="42.93585" lon="0.57224">
        <ele>753</ele>
        <time>2019-02-03T14:52:09.000Z</time>
      </trkpt>
      <trkpt lat="42.93585" lon="0.57224">
        <ele>753</ele>
        <time>2019-02-03T14:52:10.000Z</time>
      </trkpt>
      <trkpt lat="42.93586" lon="0.57225">
        <ele>753</ele>
        <time>2019-02-03T14:52:11.000Z</time>
      </trkpt>
      <trkpt lat="42.93586" lon="0.57225">
        <ele>753</ele>
        <time>2019-02-03T14:52:12.000Z</time>
      </trkpt>
      <trkpt lat="42.93587" lon="0.57225">
        <ele>752</ele>
        <time>2019-02-03T14:52:13.000Z</time>
      </trkpt>
      <trkpt lat="42.93587" lon="0.57225">
        <ele>752</ele>
        <time>2019-02-03T14:52:14.000Z</time>
      </trkpt>
      <trkpt lat="42.93588" lon="0.57226">
        <ele>752</ele>
        <time>2019-02-03T14:52:15.000Z</time>
      </trkpt>
      <trkpt lat="42.93588" lon="0.57226">
        <ele>752</ele>
        <time>2019-02-03T14:52:16.000Z</time>
      </trkpt>
      <trkpt lat="42.93589" lon="0.57226">
        <ele>752</ele>
        <time>2019-02-03T14:52:17.000Z</time>
      </trkpt>
      <trkpt lat="42.9359" lon="0.57226">
        <ele>751.7</ele>
        <time>2019-02-03T14:52:18.000Z</time>
      </trkpt>
      <trkpt lat="42.9359" lon="0.57226">
        <ele>751.3</ele>
        <time>2019-02-03T14:52:19.000Z</time>
      </trkpt>
      <trkpt lat="42.93591" lon="0.57226">
        <ele>751</ele>
        <time>2019-02-03T14:52:20.000Z</time>
      </trkpt>
      <trkpt lat="42.93592" lon="0.57226">
        <ele>751</ele>
        <time>2019-02-03T14:52:21.000Z</time>
      </trkpt>
      <trkpt lat="42.93593" lon="0.57226">
        <ele>751</ele>
        <time>2019-02-03T14:52:22.000Z</time>
      </trkpt>
      <trkpt lat="42.93593" lon="0.57226">
        <ele>750.5</ele>
        <time>2019-02-03T14:52:23.000Z</time>
      </trkpt>
      <trkpt lat="42.93594" lon="0.57226">
        <ele>750</ele>
        <time>2019-02-03T14:52:24.000Z</time>
      </trkpt>
      <trkpt lat="42.93595" lon="0.57226">
        <ele>750</ele>
        <time>2019-02-03T14:52:25.000Z</time>
      </trkpt>
      <trkpt lat="42.93595" lon="0.57225">
        <ele>750</ele>
        <time>2019-02-03T14:52:26.000Z</time>
      </trkpt>
      <trkpt lat="42.93596" lon="0.57225">
        <ele>750</ele>
        <time>2019-02-03T14:52:27.000Z</time>
      </trkpt>
      <trkpt lat="42.93596" lon="0.57225">
        <ele>750</ele>
        <time>2019-02-03T14:52:28.000Z</time>
      </trkpt>
      <trkpt lat="42.93597" lon="0.57224">
        <ele>749.5</ele>
        <time>2019-02-03T14:52:29.000Z</time>
      </trkpt>
      <trkpt lat="42.93597" lon="0.57224">
        <ele>749</ele>
        <time>2019-02-03T14:52:30.000Z</time>
      </trkpt>
      <trkpt lat="42.93598" lon="0.57224">
        <ele>749</ele>
        <time>2019-02-03T14:52:31.000Z</time>
      </trkpt>
      <trkpt lat="42.93598" lon="0.57224">
        <ele>749</ele>
        <time>2019-02-03T14:52:32.000Z</time>
      </trkpt>
      <trkpt lat="42.93599" lon="0.57224">
        <ele>749</ele>
        <time>2019-02-03T14:52:33.000Z</time>
      </trkpt>
      <trkpt lat="42.93599" lon="0.57223">
        <ele>749</ele>
        <time>2019-02-03T14:52:34.000Z</time>
      </trkpt>
      <trkpt lat="42.936" lon="0.57223">
        <ele>748.5</ele>
        <time>2019-02-03T14:52:35.000Z</time>
      </trkpt>
      <trkpt lat="42.936" lon="0.57223">
        <ele>748</ele>
        <time>2019-02-03T14:52:36.000Z</time>
      </trkpt>
      <trkpt lat="42.93601" lon="0.57224">
        <ele>748</ele>
        <time>2019-02-03T14:52:37.000Z</time>
      </trkpt>
      <trkpt lat="42.93602" lon="0.57224">
        <ele>748</ele>
        <time>2019-02-03T14:52:38.000Z</time>
      </trkpt>
      <trkpt lat="42.93602" lon="0.57224">
        <ele>748</ele>
        <time>2019-02-03T14:52:39.000Z</time>
      </trkpt>
      <trkpt lat="42.93603" lon="0.57224">
        <ele>748</ele>
        <time>2019-02-03T14:52:40.000Z</time>
      </trkpt>
      <trkpt lat="42.93603" lon="0.57224">
        <ele>748</ele>
        <time>2019-02-03T14:52:41.000Z</time>
      </trkpt>
      <trkpt lat="42.93604" lon="0.57225">
        <ele>748</ele>
        <time>2019-02-03T14:52:42.000Z</time>
      </trkpt>
      <trkpt lat="42.93605" lon="0.57225">
        <ele>747.5</ele>
        <time>2019-02-03T14:52:43.000Z</time>
      </trkpt>
      <trkpt lat="42.93605" lon="0.57225">
        <ele>747</ele>
        <time>2019-02-03T14:52:44.000Z</time>
      </trkpt>
      <trkpt lat="42.93606" lon="0.57226">
        <ele>747</ele>
        <time>2019-02-03T14:52:45.000Z</time>
      </trkpt>
      <trkpt lat="42.93607" lon="0.57226">
        <ele>747</ele>
        <time>2019-02-03T14:52:46.000Z</time>
      </trkpt>
      <trkpt lat="42.93608" lon="0.57226">
        <ele>747</ele>
        <time>2019-02-03T14:52:47.000Z</time>
      </trkpt>
      <trkpt lat="42.93608" lon="0.57226">
        <ele>747</ele>
        <time>2019-02-03T14:52:48.000Z</time>
      </trkpt>
      <trkpt lat="42.93609" lon="0.57227">
        <ele>746</ele>
        <time>2019-02-03T14:52:49.000Z</time>
      </trkpt>
      <trkpt lat="42.9361" lon="0.57227">
        <ele>746</ele>
        <time>2019-02-03T14:52:50.000Z</time>
      </trkpt>
      <trkpt lat="42.93611" lon="0.57227">
        <ele>746</ele>
        <time>2019-02-03T14:52:51.000Z</time>
      </trkpt>
      <trkpt lat="42.93612" lon="0.57227">
        <ele>746</ele>
        <time>2019-02-03T14:52:52.000Z</time>
      </trkpt>
      <trkpt lat="42.93612" lon="0.57227">
        <ele>746</ele>
        <time>2019-02-03T14:52:53.000Z</time>
      </trkpt>
      <trkpt lat="42.93613" lon="0.57227">
        <ele>746</ele>
        <time>2019-02-03T14:52:54.000Z</time>
      </trkpt>
      <trkpt lat="42.93614" lon="0.57227">
        <ele>746</ele>
        <time>2019-02-03T14:52:55.000Z</time>
      </trkpt>
      <trkpt lat="42.93615" lon="0.57227">
        <ele>746</ele>
        <time>2019-02-03T14:52:56.000Z</time>
      </trkpt>
      <trkpt lat="42.93615" lon="0.57228">
        <ele>746</ele>
        <time>2019-02-03T14:52:57.000Z</time>
      </trkpt>
      <trkpt lat="42.93616" lon="0.57228">
        <ele>745.7</ele>
        <time>2019-02-03T14:52:58.000Z</time>
      </trkpt>
      <trkpt lat="42.93617" lon="0.57228">
        <ele>745.3</ele>
        <time>2019-02-03T14:52:59.000Z</time>
      </trkpt>
      <trkpt lat="42.93617" lon="0.57228">
        <ele>745</ele>
        <time>2019-02-03T14:53:00.000Z</time>
      </trkpt>
      <trkpt lat="42.93618" lon="0.57229">
        <ele>745</ele>
        <time>2019-02-03T14:53:01.000Z</time>
      </trkpt>
      <trkpt lat="42.93618" lon="0.57229">
        <ele>745</ele>
        <time>2019-02-03T14:53:02.000Z</time>
      </trkpt>
      <trkpt lat="42.93619" lon="0.57229">
        <ele>745</ele>
        <time>2019-02-03T14:53:03.000Z</time>
      </trkpt>
      <trkpt lat="42.9362" lon="0.57229">
        <ele>744</ele>
        <time>2019-02-03T14:53:04.000Z</time>
      </trkpt>
      <trkpt lat="42.9362" lon="0.57229">
        <ele>744</ele>
        <time>2019-02-03T14:53:05.000Z</time>
      </trkpt>
      <trkpt lat="42.93621" lon="0.57229">
        <ele>744</ele>
        <time>2019-02-03T14:53:06.000Z</time>
      </trkpt>
      <trkpt lat="42.93622" lon="0.57229">
        <ele>744</ele>
        <time>2019-02-03T14:53:07.000Z</time>
      </trkpt>
      <trkpt lat="42.93623" lon="0.57228">
        <ele>744</ele>
        <time>2019-02-03T14:53:08.000Z</time>
      </trkpt>
      <trkpt lat="42.93624" lon="0.57227">
        <ele>744</ele>
        <time>2019-02-03T14:53:09.000Z</time>
      </trkpt>
      <trkpt lat="42.93625" lon="0.57227">
        <ele>744</ele>
        <time>2019-02-03T14:53:10.000Z</time>
      </trkpt>
      <trkpt lat="42.93627" lon="0.57226">
        <ele>744</ele>
        <time>2019-02-03T14:53:11.000Z</time>
      </trkpt>
      <trkpt lat="42.93628" lon="0.57225">
        <ele>743</ele>
        <time>2019-02-03T14:53:12.000Z</time>
      </trkpt>
      <trkpt lat="42.93629" lon="0.57225">
        <ele>743</ele>
        <time>2019-02-03T14:53:13.000Z</time>
      </trkpt>
      <trkpt lat="42.9363" lon="0.57224">
        <ele>743</ele>
        <time>2019-02-03T14:53:14.000Z</time>
      </trkpt>
      <trkpt lat="42.93631" lon="0.57224">
        <ele>743</ele>
        <time>2019-02-03T14:53:15.000Z</time>
      </trkpt>
      <trkpt lat="42.93631" lon="0.57223">
        <ele>743</ele>
        <time>2019-02-03T14:53:16.000Z</time>
      </trkpt>
      <trkpt lat="42.93632" lon="0.57223">
        <ele>743</ele>
        <time>2019-02-03T14:53:17.000Z</time>
      </trkpt>
      <trkpt lat="42.93633" lon="0.57223">
        <ele>743</ele>
        <time>2019-02-03T14:53:18.000Z</time>
      </trkpt>
      <trkpt lat="42.93634" lon="0.57223">
        <ele>742</ele>
        <time>2019-02-03T14:53:19.000Z</time>
      </trkpt>
      <trkpt lat="42.93635" lon="0.57223">
        <ele>742</ele>
        <time>2019-02-03T14:53:20.000Z</time>
      </trkpt>
      <trkpt lat="42.93636" lon="0.57223">
        <ele>742</ele>
        <time>2019-02-03T14:53:21.000Z</time>
      </trkpt>
      <trkpt lat="42.93637" lon="0.57223">
        <ele>742</ele>
        <time>2019-02-03T14:53:22.000Z</time>
      </trkpt>
      <trkpt lat="42.93638" lon="0.57223">
        <ele>742</ele>
        <time>2019-02-03T14:53:23.000Z</time>
      </trkpt>
      <trkpt lat="42.93638" lon="0.57224">
        <ele>742</ele>
        <time>2019-02-03T14:53:24.000Z</time>
      </trkpt>
      <trkpt lat="42.93639" lon="0.57224">
        <ele>741</ele>
        <time>2019-02-03T14:53:25.000Z</time>
      </trkpt>
      <trkpt lat="42.9364" lon="0.57224">
        <ele>741</ele>
        <time>2019-02-03T14:53:26.000Z</time>
      </trkpt>
      <trkpt lat="42.93641" lon="0.57224">
        <ele>741</ele>
        <time>2019-02-03T14:53:27.000Z</time>
      </trkpt>
      <trkpt lat="42.93642" lon="0.57224">
        <ele>741</ele>
        <time>2019-02-03T14:53:28.000Z</time>
      </trkpt>
      <trkpt lat="42.93643" lon="0.57224">
        <ele>741</ele>
        <time>2019-02-03T14:53:29.000Z</time>
      </trkpt>
      <trkpt lat="42.93643" lon="0.57225">
        <ele>740</ele>
        <time>2019-02-03T14:53:30.000Z</time>
      </trkpt>
      <trkpt lat="42.93644" lon="0.57225">
        <ele>740</ele>
        <time>2019-02-03T14:53:31.000Z</time>
      </trkpt>
      <trkpt lat="42.93645" lon="0.57225">
        <ele>740</ele>
        <time>2019-02-03T14:53:32.000Z</time>
      </trkpt>
      <trkpt lat="42.93646" lon="0.57225">
        <ele>740</ele>
        <time>2019-02-03T14:53:33.000Z</time>
      </trkpt>
      <trkpt lat="42.93646" lon="0.57225">
        <ele>740</ele>
        <time>2019-02-03T14:53:34.000Z</time>
      </trkpt>
      <trkpt lat="42.93647" lon="0.57225">
        <ele>740</ele>
        <time>2019-02-03T14:53:35.000Z</time>
      </trkpt>
      <trkpt lat="42.93648" lon="0.57225">
        <ele>740</ele>
        <time>2019-02-03T14:53:36.000Z</time>
      </trkpt>
      <trkpt lat="42.93649" lon="0.57225">
        <ele>740</ele>
        <time>2019-02-03T14:53:37.000Z</time>
      </trkpt>
      <trkpt lat="42.9365" lon="0.57224">
        <ele>739</ele>
        <time>2019-02-03T14:53:38.000Z</time>
      </trkpt>
      <trkpt lat="42.9365" lon="0.57224">
        <ele>739</ele>
        <time>2019-02-03T14:53:39.000Z</time>
      </trkpt>
      <trkpt lat="42.93651" lon="0.57224">
        <ele>739</ele>
        <time>2019-02-03T14:53:40.000Z</time>
      </trkpt>
      <trkpt lat="42.93652" lon="0.57224">
        <ele>739</ele>
        <time>2019-02-03T14:53:41.000Z</time>
      </trkpt>
      <trkpt lat="42.93653" lon="0.57224">
        <ele>738.7</ele>
        <time>2019-02-03T14:53:42.000Z</time>
      </trkpt>
      <trkpt lat="42.93654" lon="0.57223">
        <ele>738.3</ele>
        <time>2019-02-03T14:53:43.000Z</time>
      </trkpt>
      <trkpt lat="42.93654" lon="0.57223">
        <ele>738</ele>
        <time>2019-02-03T14:53:44.000Z</time>
      </trkpt>
      <trkpt lat="42.93655" lon="0.57223">
        <ele>738</ele>
        <time>2019-02-03T14:53:45.000Z</time>
      </trkpt>
      <trkpt lat="42.93656" lon="0.57223">
        <ele>738</ele>
        <time>2019-02-03T14:53:46.000Z</time>
      </trkpt>
      <trkpt lat="42.93657" lon="0.57222">
        <ele>738</ele>
        <time>2019-02-03T14:53:47.000Z</time>
      </trkpt>
      <trkpt lat="42.93658" lon="0.57222">
        <ele>738</ele>
        <time>2019-02-03T14:53:48.000Z</time>
      </trkpt>
      <trkpt lat="42.93659" lon="0.57221">
        <ele>737</ele>
        <time>2019-02-03T14:53:49.000Z</time>
      </trkpt>
      <trkpt lat="42.9366" lon="0.57221">
        <ele>737</ele>
        <time>2019-02-03T14:53:50.000Z</time>
      </trkpt>
      <trkpt lat="42.93661" lon="0.57221">
        <ele>737</ele>
        <time>2019-02-03T14:53:51.000Z</time>
      </trkpt>
      <trkpt lat="42.93662" lon="0.5722">
        <ele>737</ele>
        <time>2019-02-03T14:53:52.000Z</time>
      </trkpt>
      <trkpt lat="42.93663" lon="0.5722">
        <ele>737</ele>
        <time>2019-02-03T14:53:53.000Z</time>
      </trkpt>
      <trkpt lat="42.93664" lon="0.57219">
        <ele>737</ele>
        <time>2019-02-03T14:53:54.000Z</time>
      </trkpt>
      <trkpt lat="42.93665" lon="0.57219">
        <ele>737</ele>
        <time>2019-02-03T14:53:55.000Z</time>
      </trkpt>
      <trkpt lat="42.93665" lon="0.57218">
        <ele>737</ele>
        <time>2019-02-03T14:53:56.000Z</time>
      </trkpt>
      <trkpt lat="42.93666" lon="0.57218">
        <ele>737</ele>
        <time>2019-02-03T14:53:57.000Z</time>
      </trkpt>
      <trkpt lat="42.93667" lon="0.57217">
        <ele>737</ele>
        <time>2019-02-03T14:53:58.000Z</time>
      </trkpt>
      <trkpt lat="42.93668" lon="0.57217">
        <ele>737</ele>
        <time>2019-02-03T14:53:59.000Z</time>
      </trkpt>
      <trkpt lat="42.93669" lon="0.57216">
        <ele>737</ele>
        <time>2019-02-03T14:54:00.000Z</time>
      </trkpt>
      <trkpt lat="42.9367" lon="0.57216">
        <ele>737</ele>
        <time>2019-02-03T14:54:01.000Z</time>
      </trkpt>
      <trkpt lat="42.93671" lon="0.57215">
        <ele>737</ele>
        <time>2019-02-03T14:54:02.000Z</time>
      </trkpt>
      <trkpt lat="42.93672" lon="0.57215">
        <ele>736</ele>
        <time>2019-02-03T14:54:03.000Z</time>
      </trkpt>
      <trkpt lat="42.93672" lon="0.57214">
        <ele>736</ele>
        <time>2019-02-03T14:54:04.000Z</time>
      </trkpt>
      <trkpt lat="42.93673" lon="0.57214">
        <ele>736</ele>
        <time>2019-02-03T14:54:05.000Z</time>
      </trkpt>
      <trkpt lat="42.93674" lon="0.57213">
        <ele>736</ele>
        <time>2019-02-03T14:54:06.000Z</time>
      </trkpt>
      <trkpt lat="42.93675" lon="0.57212">
        <ele>736</ele>
        <time>2019-02-03T14:54:07.000Z</time>
      </trkpt>
      <trkpt lat="42.93675" lon="0.57212">
        <ele>736</ele>
        <time>2019-02-03T14:54:08.000Z</time>
      </trkpt>
      <trkpt lat="42.93676" lon="0.57211">
        <ele>736</ele>
        <time>2019-02-03T14:54:09.000Z</time>
      </trkpt>
      <trkpt lat="42.93677" lon="0.57211">
        <ele>736</ele>
        <time>2019-02-03T14:54:10.000Z</time>
      </trkpt>
      <trkpt lat="42.93678" lon="0.5721">
        <ele>736</ele>
        <time>2019-02-03T14:54:11.000Z</time>
      </trkpt>
      <trkpt lat="42.93679" lon="0.5721">
        <ele>736</ele>
        <time>2019-02-03T14:54:12.000Z</time>
      </trkpt>
      <trkpt lat="42.9368" lon="0.57209">
        <ele>736</ele>
        <time>2019-02-03T14:54:13.000Z</time>
      </trkpt>
      <trkpt lat="42.93681" lon="0.57209">
        <ele>736</ele>
        <time>2019-02-03T14:54:14.000Z</time>
      </trkpt>
      <trkpt lat="42.93682" lon="0.57208">
        <ele>736</ele>
        <time>2019-02-03T14:54:15.000Z</time>
      </trkpt>
      <trkpt lat="42.93682" lon="0.57207">
        <ele>736</ele>
        <time>2019-02-03T14:54:16.000Z</time>
      </trkpt>
      <trkpt lat="42.93683" lon="0.57207">
        <ele>737</ele>
        <time>2019-02-03T14:54:17.000Z</time>
      </trkpt>
      <trkpt lat="42.93685" lon="0.57206">
        <ele>737</ele>
        <time>2019-02-03T14:54:18.000Z</time>
      </trkpt>
      <trkpt lat="42.93686" lon="0.57206">
        <ele>737</ele>
        <time>2019-02-03T14:54:19.000Z</time>
      </trkpt>
      <trkpt lat="42.93687" lon="0.57205">
        <ele>737</ele>
        <time>2019-02-03T14:54:20.000Z</time>
      </trkpt>
      <trkpt lat="42.93688" lon="0.57204">
        <ele>737</ele>
        <time>2019-02-03T14:54:21.000Z</time>
      </trkpt>
      <trkpt lat="42.93689" lon="0.57204">
        <ele>737</ele>
        <time>2019-02-03T14:54:22.000Z</time>
      </trkpt>
      <trkpt lat="42.9369" lon="0.57203">
        <ele>737</ele>
        <time>2019-02-03T14:54:23.000Z</time>
      </trkpt>
      <trkpt lat="42.93691" lon="0.57203">
        <ele>737</ele>
        <time>2019-02-03T14:54:24.000Z</time>
      </trkpt>
      <trkpt lat="42.93692" lon="0.57202">
        <ele>737</ele>
        <time>2019-02-03T14:54:25.000Z</time>
      </trkpt>
      <trkpt lat="42.93693" lon="0.57201">
        <ele>737</ele>
        <time>2019-02-03T14:54:26.000Z</time>
      </trkpt>
      <trkpt lat="42.93694" lon="0.57201">
        <ele>737</ele>
        <time>2019-02-03T14:54:27.000Z</time>
      </trkpt>
      <trkpt lat="42.93694" lon="0.572">
        <ele>737</ele>
        <time>2019-02-03T14:54:28.000Z</time>
      </trkpt>
      <trkpt lat="42.93695" lon="0.572">
        <ele>737</ele>
        <time>2019-02-03T14:54:29.000Z</time>
      </trkpt>
      <trkpt lat="42.93696" lon="0.57199">
        <ele>737</ele>
        <time>2019-02-03T14:54:30.000Z</time>
      </trkpt>
      <trkpt lat="42.93697" lon="0.57199">
        <ele>737.5</ele>
        <time>2019-02-03T14:54:31.000Z</time>
      </trkpt>
      <trkpt lat="42.93698" lon="0.57198">
        <ele>738</ele>
        <time>2019-02-03T14:54:32.000Z</time>
      </trkpt>
      <trkpt lat="42.93699" lon="0.57198">
        <ele>738</ele>
        <time>2019-02-03T14:54:33.000Z</time>
      </trkpt>
      <trkpt lat="42.937" lon="0.57198">
        <ele>738</ele>
        <time>2019-02-03T14:54:34.000Z</time>
      </trkpt>
      <trkpt lat="42.93701" lon="0.57198">
        <ele>738</ele>
        <time>2019-02-03T14:54:35.000Z</time>
      </trkpt>
      <trkpt lat="42.93701" lon="0.57198">
        <ele>738</ele>
        <time>2019-02-03T14:54:36.000Z</time>
      </trkpt>
      <trkpt lat="42.93702" lon="0.57198">
        <ele>738</ele>
        <time>2019-02-03T14:54:37.000Z</time>
      </trkpt>
      <trkpt lat="42.93703" lon="0.57199">
        <ele>738</ele>
        <time>2019-02-03T14:54:38.000Z</time>
      </trkpt>
      <trkpt lat="42.93704" lon="0.57199">
        <ele>738</ele>
        <time>2019-02-03T14:54:39.000Z</time>
      </trkpt>
      <trkpt lat="42.93705" lon="0.57199">
        <ele>738</ele>
        <time>2019-02-03T14:54:40.000Z</time>
      </trkpt>
      <trkpt lat="42.93705" lon="0.57199">
        <ele>738</ele>
        <time>2019-02-03T14:54:41.000Z</time>
      </trkpt>
      <trkpt lat="42.93706" lon="0.57199">
        <ele>738</ele>
        <time>2019-02-03T14:54:42.000Z</time>
      </trkpt>
      <trkpt lat="42.93707" lon="0.57199">
        <ele>739</ele>
        <time>2019-02-03T14:54:43.000Z</time>
      </trkpt>
      <trkpt lat="42.93708" lon="0.57199">
        <ele>739</ele>
        <time>2019-02-03T14:54:44.000Z</time>
      </trkpt>
      <trkpt lat="42.93709" lon="0.57199">
        <ele>739</ele>
        <time>2019-02-03T14:54:45.000Z</time>
      </trkpt>
      <trkpt lat="42.9371" lon="0.57198">
        <ele>739</ele>
        <time>2019-02-03T14:54:46.000Z</time>
      </trkpt>
      <trkpt lat="42.93711" lon="0.57198">
        <ele>739</ele>
        <time>2019-02-03T14:54:47.000Z</time>
      </trkpt>
      <trkpt lat="42.93712" lon="0.57198">
        <ele>739</ele>
        <time>2019-02-03T14:54:48.000Z</time>
      </trkpt>
      <trkpt lat="42.93713" lon="0.57198">
        <ele>739</ele>
        <time>2019-02-03T14:54:49.000Z</time>
      </trkpt>
      <trkpt lat="42.93714" lon="0.57197">
        <ele>739</ele>
        <time>2019-02-03T14:54:50.000Z</time>
      </trkpt>
      <trkpt lat="42.93715" lon="0.57197">
        <ele>739</ele>
        <time>2019-02-03T14:54:51.000Z</time>
      </trkpt>
      <trkpt lat="42.93716" lon="0.57196">
        <ele>739</ele>
        <time>2019-02-03T14:54:52.000Z</time>
      </trkpt>
      <trkpt lat="42.93717" lon="0.57196">
        <ele>739</ele>
        <time>2019-02-03T14:54:53.000Z</time>
      </trkpt>
      <trkpt lat="42.93718" lon="0.57196">
        <ele>739</ele>
        <time>2019-02-03T14:54:54.000Z</time>
      </trkpt>
      <trkpt lat="42.93719" lon="0.57196">
        <ele>739</ele>
        <time>2019-02-03T14:54:55.000Z</time>
      </trkpt>
      <trkpt lat="42.93719" lon="0.57196">
        <ele>739</ele>
        <time>2019-02-03T14:54:56.000Z</time>
      </trkpt>
      <trkpt lat="42.9372" lon="0.57196">
        <ele>739</ele>
        <time>2019-02-03T14:54:57.000Z</time>
      </trkpt>
      <trkpt lat="42.93721" lon="0.57195">
        <ele>739</ele>
        <time>2019-02-03T14:54:58.000Z</time>
      </trkpt>
      <trkpt lat="42.93722" lon="0.57195">
        <ele>739</ele>
        <time>2019-02-03T14:54:59.000Z</time>
      </trkpt>
      <trkpt lat="42.93723" lon="0.57195">
        <ele>739</ele>
        <time>2019-02-03T14:55:00.000Z</time>
      </trkpt>
      <trkpt lat="42.93724" lon="0.57195">
        <ele>739</ele>
        <time>2019-02-03T14:55:01.000Z</time>
      </trkpt>
      <trkpt lat="42.93725" lon="0.57194">
        <ele>739</ele>
        <time>2019-02-03T14:55:02.000Z</time>
      </trkpt>
      <trkpt lat="42.93726" lon="0.57194">
        <ele>740</ele>
        <time>2019-02-03T14:55:03.000Z</time>
      </trkpt>
      <trkpt lat="42.93727" lon="0.57193">
        <ele>740</ele>
        <time>2019-02-03T14:55:04.000Z</time>
      </trkpt>
      <trkpt lat="42.93728" lon="0.57193">
        <ele>740</ele>
        <time>2019-02-03T14:55:05.000Z</time>
      </trkpt>
      <trkpt lat="42.93729" lon="0.57193">
        <ele>740</ele>
        <time>2019-02-03T14:55:06.000Z</time>
      </trkpt>
      <trkpt lat="42.9373" lon="0.57192">
        <ele>740</ele>
        <time>2019-02-03T14:55:07.000Z</time>
      </trkpt>
      <trkpt lat="42.9373" lon="0.57192">
        <ele>740</ele>
        <time>2019-02-03T14:55:08.000Z</time>
      </trkpt>
      <trkpt lat="42.93731" lon="0.57192">
        <ele>740</ele>
        <time>2019-02-03T14:55:09.000Z</time>
      </trkpt>
      <trkpt lat="42.93732" lon="0.57192">
        <ele>740</ele>
        <time>2019-02-03T14:55:10.000Z</time>
      </trkpt>
      <trkpt lat="42.93733" lon="0.57191">
        <ele>740</ele>
        <time>2019-02-03T14:55:11.000Z</time>
      </trkpt>
      <trkpt lat="42.93733" lon="0.57191">
        <ele>740</ele>
        <time>2019-02-03T14:55:12.000Z</time>
      </trkpt>
      <trkpt lat="42.93734" lon="0.57191">
        <ele>740.5</ele>
        <time>2019-02-03T14:55:13.000Z</time>
      </trkpt>
      <trkpt lat="42.93735" lon="0.5719">
        <ele>741</ele>
        <time>2019-02-03T14:55:14.000Z</time>
      </trkpt>
      <trkpt lat="42.93736" lon="0.5719">
        <ele>741</ele>
        <time>2019-02-03T14:55:15.000Z</time>
      </trkpt>
      <trkpt lat="42.93737" lon="0.57189">
        <ele>741</ele>
        <time>2019-02-03T14:55:16.000Z</time>
      </trkpt>
      <trkpt lat="42.93738" lon="0.57189">
        <ele>741</ele>
        <time>2019-02-03T14:55:17.000Z</time>
      </trkpt>
      <trkpt lat="42.93739" lon="0.57188">
        <ele>741</ele>
        <time>2019-02-03T14:55:18.000Z</time>
      </trkpt>
      <trkpt lat="42.9374" lon="0.57188">
        <ele>741</ele>
        <time>2019-02-03T14:55:19.000Z</time>
      </trkpt>
      <trkpt lat="42.93741" lon="0.57187">
        <ele>741</ele>
        <time>2019-02-03T14:55:20.000Z</time>
      </trkpt>
      <trkpt lat="42.93742" lon="0.57187">
        <ele>741</ele>
        <time>2019-02-03T14:55:21.000Z</time>
      </trkpt>
      <trkpt lat="42.93743" lon="0.57186">
        <ele>741</ele>
        <time>2019-02-03T14:55:22.000Z</time>
      </trkpt>
      <trkpt lat="42.93744" lon="0.57186">
        <ele>741</ele>
        <time>2019-02-03T14:55:23.000Z</time>
      </trkpt>
      <trkpt lat="42.93745" lon="0.57185">
        <ele>741</ele>
        <time>2019-02-03T14:55:24.000Z</time>
      </trkpt>
      <trkpt lat="42.93745" lon="0.57185">
        <ele>741</ele>
        <time>2019-02-03T14:55:25.000Z</time>
      </trkpt>
      <trkpt lat="42.93746" lon="0.57184">
        <ele>741</ele>
        <time>2019-02-03T14:55:26.000Z</time>
      </trkpt>
      <trkpt lat="42.93747" lon="0.57184">
        <ele>741</ele>
        <time>2019-02-03T14:55:27.000Z</time>
      </trkpt>
      <trkpt lat="42.93748" lon="0.57184">
        <ele>741</ele>
        <time>2019-02-03T14:55:28.000Z</time>
      </trkpt>
      <trkpt lat="42.93749" lon="0.57183">
        <ele>741</ele>
        <time>2019-02-03T14:55:29.000Z</time>
      </trkpt>
      <trkpt lat="42.9375" lon="0.57183">
        <ele>741.3</ele>
        <time>2019-02-03T14:55:30.000Z</time>
      </trkpt>
      <trkpt lat="42.9375" lon="0.57183">
        <ele>741.7</ele>
        <time>2019-02-03T14:55:31.000Z</time>
      </trkpt>
      <trkpt lat="42.93751" lon="0.57183">
        <ele>742</ele>
        <time>2019-02-03T14:55:32.000Z</time>
      </trkpt>
      <trkpt lat="42.93752" lon="0.57183">
        <ele>742</ele>
        <time>2019-02-03T14:55:33.000Z</time>
      </trkpt>
      <trkpt lat="42.93753" lon="0.57183">
        <ele>742</ele>
        <time>2019-02-03T14:55:34.000Z</time>
      </trkpt>
      <trkpt lat="42.93754" lon="0.57182">
        <ele>742</ele>
        <time>2019-02-03T14:55:35.000Z</time>
      </trkpt>
      <trkpt lat="42.93755" lon="0.57182">
        <ele>742</ele>
        <time>2019-02-03T14:55:36.000Z</time>
      </trkpt>
      <trkpt lat="42.93756" lon="0.57182">
        <ele>742</ele>
        <time>2019-02-03T14:55:37.000Z</time>
      </trkpt>
      <trkpt lat="42.93757" lon="0.57181">
        <ele>742</ele>
        <time>2019-02-03T14:55:38.000Z</time>
      </trkpt>
      <trkpt lat="42.93758" lon="0.5718">
        <ele>742</ele>
        <time>2019-02-03T14:55:39.000Z</time>
      </trkpt>
      <trkpt lat="42.93759" lon="0.5718">
        <ele>742.5</ele>
        <time>2019-02-03T14:55:40.000Z</time>
      </trkpt>
      <trkpt lat="42.9376" lon="0.57179">
        <ele>743</ele>
        <time>2019-02-03T14:55:41.000Z</time>
      </trkpt>
      <trkpt lat="42.93761" lon="0.57179">
        <ele>743</ele>
        <time>2019-02-03T14:55:42.000Z</time>
      </trkpt>
      <trkpt lat="42.93762" lon="0.57178">
        <ele>743</ele>
        <time>2019-02-03T14:55:43.000Z</time>
      </trkpt>
      <trkpt lat="42.93763" lon="0.57177">
        <ele>743</ele>
        <time>2019-02-03T14:55:44.000Z</time>
      </trkpt>
      <trkpt lat="42.93763" lon="0.57177">
        <ele>743</ele>
        <time>2019-02-03T14:55:45.000Z</time>
      </trkpt>
      <trkpt lat="42.93764" lon="0.57176">
        <ele>743</ele>
        <time>2019-02-03T14:55:46.000Z</time>
      </trkpt>
      <trkpt lat="42.93765" lon="0.57176">
        <ele>743</ele>
        <time>2019-02-03T14:55:47.000Z</time>
      </trkpt>
      <trkpt lat="42.93766" lon="0.57175">
        <ele>743</ele>
        <time>2019-02-03T14:55:48.000Z</time>
      </trkpt>
      <trkpt lat="42.93767" lon="0.57174">
        <ele>743</ele>
        <time>2019-02-03T14:55:49.000Z</time>
      </trkpt>
      <trkpt lat="42.93768" lon="0.57174">
        <ele>743</ele>
        <time>2019-02-03T14:55:50.000Z</time>
      </trkpt>
      <trkpt lat="42.93769" lon="0.57173">
        <ele>743</ele>
        <time>2019-02-03T14:55:51.000Z</time>
      </trkpt>
      <trkpt lat="42.9377" lon="0.57173">
        <ele>743</ele>
        <time>2019-02-03T14:55:52.000Z</time>
      </trkpt>
      <trkpt lat="42.93771" lon="0.57172">
        <ele>742</ele>
        <time>2019-02-03T14:55:53.000Z</time>
      </trkpt>
      <trkpt lat="42.93772" lon="0.57171">
        <ele>742</ele>
        <time>2019-02-03T14:55:54.000Z</time>
      </trkpt>
      <trkpt lat="42.93773" lon="0.57171">
        <ele>742</ele>
        <time>2019-02-03T14:55:55.000Z</time>
      </trkpt>
      <trkpt lat="42.93774" lon="0.57171">
        <ele>742</ele>
        <time>2019-02-03T14:55:56.000Z</time>
      </trkpt>
      <trkpt lat="42.93775" lon="0.5717">
        <ele>742</ele>
        <time>2019-02-03T14:55:57.000Z</time>
      </trkpt>
      <trkpt lat="42.93776" lon="0.5717">
        <ele>742</ele>
        <time>2019-02-03T14:55:58.000Z</time>
      </trkpt>
      <trkpt lat="42.93777" lon="0.5717">
        <ele>742</ele>
        <time>2019-02-03T14:55:59.000Z</time>
      </trkpt>
      <trkpt lat="42.93778" lon="0.57169">
        <ele>742.3</ele>
        <time>2019-02-03T14:56:00.000Z</time>
      </trkpt>
      <trkpt lat="42.93778" lon="0.57169">
        <ele>742.7</ele>
        <time>2019-02-03T14:56:01.000Z</time>
      </trkpt>
      <trkpt lat="42.93779" lon="0.57168">
        <ele>743</ele>
        <time>2019-02-03T14:56:02.000Z</time>
      </trkpt>
      <trkpt lat="42.9378" lon="0.57168">
        <ele>743</ele>
        <time>2019-02-03T14:56:03.000Z</time>
      </trkpt>
      <trkpt lat="42.9378" lon="0.57167">
        <ele>743</ele>
        <time>2019-02-03T14:56:04.000Z</time>
      </trkpt>
      <trkpt lat="42.93781" lon="0.57167">
        <ele>743</ele>
        <time>2019-02-03T14:56:05.000Z</time>
      </trkpt>
      <trkpt lat="42.93782" lon="0.57166">
        <ele>743</ele>
        <time>2019-02-03T14:56:06.000Z</time>
      </trkpt>
      <trkpt lat="42.93783" lon="0.57166">
        <ele>743</ele>
        <time>2019-02-03T14:56:07.000Z</time>
      </trkpt>
      <trkpt lat="42.93783" lon="0.57165">
        <ele>743</ele>
        <time>2019-02-03T14:56:08.000Z</time>
      </trkpt>
      <trkpt lat="42.93784" lon="0.57165">
        <ele>743</ele>
        <time>2019-02-03T14:56:09.000Z</time>
      </trkpt>
      <trkpt lat="42.93785" lon="0.57164">
        <ele>743</ele>
        <time>2019-02-03T14:56:10.000Z</time>
      </trkpt>
      <trkpt lat="42.93786" lon="0.57164">
        <ele>743</ele>
        <time>2019-02-03T14:56:11.000Z</time>
      </trkpt>
      <trkpt lat="42.93787" lon="0.57163">
        <ele>743</ele>
        <time>2019-02-03T14:56:12.000Z</time>
      </trkpt>
      <trkpt lat="42.93787" lon="0.57163">
        <ele>743</ele>
        <time>2019-02-03T14:56:13.000Z</time>
      </trkpt>
      <trkpt lat="42.93788" lon="0.57162">
        <ele>743</ele>
        <time>2019-02-03T14:56:14.000Z</time>
      </trkpt>
      <trkpt lat="42.93789" lon="0.57162">
        <ele>743</ele>
        <time>2019-02-03T14:56:15.000Z</time>
      </trkpt>
      <trkpt lat="42.9379" lon="0.57161">
        <ele>743.5</ele>
        <time>2019-02-03T14:56:16.000Z</time>
      </trkpt>
      <trkpt lat="42.9379" lon="0.57161">
        <ele>744</ele>
        <time>2019-02-03T14:56:17.000Z</time>
      </trkpt>
      <trkpt lat="42.93791" lon="0.57161">
        <ele>744</ele>
        <time>2019-02-03T14:56:18.000Z</time>
      </trkpt>
      <trkpt lat="42.93792" lon="0.5716">
        <ele>744</ele>
        <time>2019-02-03T14:56:19.000Z</time>
      </trkpt>
      <trkpt lat="42.93793" lon="0.5716">
        <ele>744</ele>
        <time>2019-02-03T14:56:20.000Z</time>
      </trkpt>
      <trkpt lat="42.93794" lon="0.57159">
        <ele>744</ele>
        <time>2019-02-03T14:56:21.000Z</time>
      </trkpt>
      <trkpt lat="42.93794" lon="0.57158">
        <ele>744</ele>
        <time>2019-02-03T14:56:22.000Z</time>
      </trkpt>
      <trkpt lat="42.93795" lon="0.57158">
        <ele>744</ele>
        <time>2019-02-03T14:56:23.000Z</time>
      </trkpt>
      <trkpt lat="42.93796" lon="0.57157">
        <ele>744</ele>
        <time>2019-02-03T14:56:24.000Z</time>
      </trkpt>
      <trkpt lat="42.93797" lon="0.57156">
        <ele>744</ele>
        <time>2019-02-03T14:56:25.000Z</time>
      </trkpt>
      <trkpt lat="42.93798" lon="0.57156">
        <ele>744</ele>
        <time>2019-02-03T14:56:26.000Z</time>
      </trkpt>
      <trkpt lat="42.93798" lon="0.57155">
        <ele>744</ele>
        <time>2019-02-03T14:56:27.000Z</time>
      </trkpt>
      <trkpt lat="42.93799" lon="0.57154">
        <ele>744</ele>
        <time>2019-02-03T14:56:28.000Z</time>
      </trkpt>
      <trkpt lat="42.938" lon="0.57153">
        <ele>744.5</ele>
        <time>2019-02-03T14:56:29.000Z</time>
      </trkpt>
      <trkpt lat="42.93801" lon="0.57152">
        <ele>745</ele>
        <time>2019-02-03T14:56:30.000Z</time>
      </trkpt>
      <trkpt lat="42.93801" lon="0.57151">
        <ele>745</ele>
        <time>2019-02-03T14:56:31.000Z</time>
      </trkpt>
      <trkpt lat="42.93802" lon="0.57151">
        <ele>744.7</ele>
        <time>2019-02-03T14:56:32.000Z</time>
      </trkpt>
      <trkpt lat="42.93803" lon="0.5715">
        <ele>744.3</ele>
        <time>2019-02-03T14:56:33.000Z</time>
      </trkpt>
      <trkpt lat="42.93803" lon="0.57149">
        <ele>744</ele>
        <time>2019-02-03T14:56:34.000Z</time>
      </trkpt>
      <trkpt lat="42.93804" lon="0.57148">
        <ele>744</ele>
        <time>2019-02-03T14:56:35.000Z</time>
      </trkpt>
      <trkpt lat="42.93805" lon="0.57147">
        <ele>744</ele>
        <time>2019-02-03T14:56:36.000Z</time>
      </trkpt>
      <trkpt lat="42.93805" lon="0.57146">
        <ele>744</ele>
        <time>2019-02-03T14:56:37.000Z</time>
      </trkpt>
      <trkpt lat="42.93806" lon="0.57145">
        <ele>744</ele>
        <time>2019-02-03T14:56:38.000Z</time>
      </trkpt>
      <trkpt lat="42.93807" lon="0.57144">
        <ele>744</ele>
        <time>2019-02-03T14:56:39.000Z</time>
      </trkpt>
      <trkpt lat="42.93808" lon="0.57143">
        <ele>744</ele>
        <time>2019-02-03T14:56:40.000Z</time>
      </trkpt>
      <trkpt lat="42.93808" lon="0.57142">
        <ele>744</ele>
        <time>2019-02-03T14:56:41.000Z</time>
      </trkpt>
      <trkpt lat="42.93809" lon="0.57142">
        <ele>744</ele>
        <time>2019-02-03T14:56:42.000Z</time>
      </trkpt>
      <trkpt lat="42.9381" lon="0.57141">
        <ele>744</ele>
        <time>2019-02-03T14:56:43.000Z</time>
      </trkpt>
      <trkpt lat="42.93811" lon="0.5714">
        <ele>744</ele>
        <time>2019-02-03T14:56:44.000Z</time>
      </trkpt>
      <trkpt lat="42.93812" lon="0.57139">
        <ele>744</ele>
        <time>2019-02-03T14:56:45.000Z</time>
      </trkpt>
      <trkpt lat="42.93813" lon="0.57138">
        <ele>744</ele>
        <time>2019-02-03T14:56:46.000Z</time>
      </trkpt>
      <trkpt lat="42.93814" lon="0.57137">
        <ele>744</ele>
        <time>2019-02-03T14:56:47.000Z</time>
      </trkpt>
      <trkpt lat="42.93815" lon="0.57136">
        <ele>744</ele>
        <time>2019-02-03T14:56:48.000Z</time>
      </trkpt>
      <trkpt lat="42.93816" lon="0.57135">
        <ele>744</ele>
        <time>2019-02-03T14:56:49.000Z</time>
      </trkpt>
      <trkpt lat="42.93817" lon="0.57135">
        <ele>744</ele>
        <time>2019-02-03T14:56:50.000Z</time>
      </trkpt>
      <trkpt lat="42.93818" lon="0.57134">
        <ele>744</ele>
        <time>2019-02-03T14:56:51.000Z</time>
      </trkpt>
      <trkpt lat="42.93818" lon="0.57133">
        <ele>744</ele>
        <time>2019-02-03T14:56:52.000Z</time>
      </trkpt>
      <trkpt lat="42.93819" lon="0.57132">
        <ele>744</ele>
        <time>2019-02-03T14:56:53.000Z</time>
      </trkpt>
      <trkpt lat="42.9382" lon="0.57131">
        <ele>744</ele>
        <time>2019-02-03T14:56:54.000Z</time>
      </trkpt>
      <trkpt lat="42.93821" lon="0.57129">
        <ele>744.5</ele>
        <time>2019-02-03T14:56:55.000Z</time>
      </trkpt>
      <trkpt lat="42.93821" lon="0.57128">
        <ele>745</ele>
        <time>2019-02-03T14:56:56.000Z</time>
      </trkpt>
      <trkpt lat="42.93822" lon="0.57127">
        <ele>745</ele>
        <time>2019-02-03T14:56:57.000Z</time>
      </trkpt>
      <trkpt lat="42.93823" lon="0.57126">
        <ele>745</ele>
        <time>2019-02-03T14:56:58.000Z</time>
      </trkpt>
      <trkpt lat="42.93824" lon="0.57125">
        <ele>745</ele>
        <time>2019-02-03T14:56:59.000Z</time>
      </trkpt>
      <trkpt lat="42.93825" lon="0.57125">
        <ele>745</ele>
        <time>2019-02-03T14:57:00.000Z</time>
      </trkpt>
      <trkpt lat="42.93826" lon="0.57124">
        <ele>745</ele>
        <time>2019-02-03T14:57:01.000Z</time>
      </trkpt>
      <trkpt lat="42.93827" lon="0.57124">
        <ele>745</ele>
        <time>2019-02-03T14:57:02.000Z</time>
      </trkpt>
      <trkpt lat="42.93827" lon="0.57123">
        <ele>745</ele>
        <time>2019-02-03T14:57:03.000Z</time>
      </trkpt>
      <trkpt lat="42.93828" lon="0.57123">
        <ele>745</ele>
        <time>2019-02-03T14:57:04.000Z</time>
      </trkpt>
      <trkpt lat="42.93829" lon="0.57123">
        <ele>745</ele>
        <time>2019-02-03T14:57:05.000Z</time>
      </trkpt>
      <trkpt lat="42.9383" lon="0.57122">
        <ele>745</ele>
        <time>2019-02-03T14:57:06.000Z</time>
      </trkpt>
      <trkpt lat="42.93831" lon="0.57122">
        <ele>745</ele>
        <time>2019-02-03T14:57:07.000Z</time>
      </trkpt>
      <trkpt lat="42.93832" lon="0.57122">
        <ele>745</ele>
        <time>2019-02-03T14:57:08.000Z</time>
      </trkpt>
      <trkpt lat="42.93833" lon="0.57122">
        <ele>746</ele>
        <time>2019-02-03T14:57:09.000Z</time>
      </trkpt>
      <trkpt lat="42.93834" lon="0.57122">
        <ele>746</ele>
        <time>2019-02-03T14:57:10.000Z</time>
      </trkpt>
      <trkpt lat="42.93835" lon="0.57122">
        <ele>746</ele>
        <time>2019-02-03T14:57:11.000Z</time>
      </trkpt>
      <trkpt lat="42.93836" lon="0.57122">
        <ele>746</ele>
        <time>2019-02-03T14:57:12.000Z</time>
      </trkpt>
      <trkpt lat="42.93837" lon="0.57122">
        <ele>746</ele>
        <time>2019-02-03T14:57:13.000Z</time>
      </trkpt>
      <trkpt lat="42.93838" lon="0.57122">
        <ele>746</ele>
        <time>2019-02-03T14:57:14.000Z</time>
      </trkpt>
      <trkpt lat="42.93838" lon="0.57122">
        <ele>746.5</ele>
        <time>2019-02-03T14:57:15.000Z</time>
      </trkpt>
      <trkpt lat="42.93839" lon="0.57122">
        <ele>747</ele>
        <time>2019-02-03T14:57:16.000Z</time>
      </trkpt>
      <trkpt lat="42.9384" lon="0.57122">
        <ele>747</ele>
        <time>2019-02-03T14:57:17.000Z</time>
      </trkpt>
      <trkpt lat="42.93841" lon="0.57122">
        <ele>747</ele>
        <time>2019-02-03T14:57:18.000Z</time>
      </trkpt>
      <trkpt lat="42.93841" lon="0.57122">
        <ele>747</ele>
        <time>2019-02-03T14:57:19.000Z</time>
      </trkpt>
      <trkpt lat="42.93842" lon="0.57123">
        <ele>747</ele>
        <time>2019-02-03T14:57:20.000Z</time>
      </trkpt>
      <trkpt lat="42.93843" lon="0.57123">
        <ele>747</ele>
        <time>2019-02-03T14:57:21.000Z</time>
      </trkpt>
      <trkpt lat="42.93843" lon="0.57123">
        <ele>747</ele>
        <time>2019-02-03T14:57:22.000Z</time>
      </trkpt>
      <trkpt lat="42.93844" lon="0.57123">
        <ele>748</ele>
        <time>2019-02-03T14:57:23.000Z</time>
      </trkpt>
      <trkpt lat="42.93844" lon="0.57124">
        <ele>748</ele>
        <time>2019-02-03T14:57:24.000Z</time>
      </trkpt>
      <trkpt lat="42.93845" lon="0.57124">
        <ele>748</ele>
        <time>2019-02-03T14:57:25.000Z</time>
      </trkpt>
      <trkpt lat="42.93846" lon="0.57124">
        <ele>748</ele>
        <time>2019-02-03T14:57:26.000Z</time>
      </trkpt>
      <trkpt lat="42.93846" lon="0.57125">
        <ele>748</ele>
        <time>2019-02-03T14:57:27.000Z</time>
      </trkpt>
      <trkpt lat="42.93847" lon="0.57125">
        <ele>748</ele>
        <time>2019-02-03T14:57:28.000Z</time>
      </trkpt>
      <trkpt lat="42.93849" lon="0.57125">
        <ele>748</ele>
        <time>2019-02-03T14:57:29.000Z</time>
      </trkpt>
      <trkpt lat="42.93849" lon="0.57125">
        <ele>748</ele>
        <time>2019-02-03T14:57:30.000Z</time>
      </trkpt>
      <trkpt lat="42.9385" lon="0.57125">
        <ele>748</ele>
        <time>2019-02-03T14:57:31.000Z</time>
      </trkpt>
      <trkpt lat="42.93851" lon="0.57125">
        <ele>748</ele>
        <time>2019-02-03T14:57:32.000Z</time>
      </trkpt>
      <trkpt lat="42.93851" lon="0.57125">
        <ele>748</ele>
        <time>2019-02-03T14:57:33.000Z</time>
      </trkpt>
      <trkpt lat="42.93852" lon="0.57125">
        <ele>748</ele>
        <time>2019-02-03T14:57:34.000Z</time>
      </trkpt>
      <trkpt lat="42.93853" lon="0.57126">
        <ele>748.5</ele>
        <time>2019-02-03T14:57:35.000Z</time>
      </trkpt>
      <trkpt lat="42.93853" lon="0.57126">
        <ele>749</ele>
        <time>2019-02-03T14:57:36.000Z</time>
      </trkpt>
      <trkpt lat="42.93854" lon="0.57126">
        <ele>749</ele>
        <time>2019-02-03T14:57:37.000Z</time>
      </trkpt>
      <trkpt lat="42.93854" lon="0.57126">
        <ele>749</ele>
        <time>2019-02-03T14:57:38.000Z</time>
      </trkpt>
      <trkpt lat="42.93855" lon="0.57126">
        <ele>749</ele>
        <time>2019-02-03T14:57:39.000Z</time>
      </trkpt>
      <trkpt lat="42.93856" lon="0.57126">
        <ele>749</ele>
        <time>2019-02-03T14:57:40.000Z</time>
      </trkpt>
      <trkpt lat="42.93857" lon="0.57127">
        <ele>749</ele>
        <time>2019-02-03T14:57:41.000Z</time>
      </trkpt>
      <trkpt lat="42.93858" lon="0.57127">
        <ele>749.3</ele>
        <time>2019-02-03T14:57:42.000Z</time>
      </trkpt>
      <trkpt lat="42.93859" lon="0.57127">
        <ele>749.7</ele>
        <time>2019-02-03T14:57:43.000Z</time>
      </trkpt>
      <trkpt lat="42.9386" lon="0.57127">
        <ele>750</ele>
        <time>2019-02-03T14:57:44.000Z</time>
      </trkpt>
      <trkpt lat="42.93861" lon="0.57127">
        <ele>750</ele>
        <time>2019-02-03T14:57:45.000Z</time>
      </trkpt>
      <trkpt lat="42.93862" lon="0.57127">
        <ele>750</ele>
        <time>2019-02-03T14:57:46.000Z</time>
      </trkpt>
      <trkpt lat="42.93863" lon="0.57127">
        <ele>750</ele>
        <time>2019-02-03T14:57:47.000Z</time>
      </trkpt>
      <trkpt lat="42.93863" lon="0.57127">
        <ele>750</ele>
        <time>2019-02-03T14:57:48.000Z</time>
      </trkpt>
      <trkpt lat="42.93864" lon="0.57126">
        <ele>750</ele>
        <time>2019-02-03T14:57:49.000Z</time>
      </trkpt>
      <trkpt lat="42.93865" lon="0.57126">
        <ele>750</ele>
        <time>2019-02-03T14:57:50.000Z</time>
      </trkpt>
      <trkpt lat="42.93866" lon="0.57126">
        <ele>750</ele>
        <time>2019-02-03T14:57:51.000Z</time>
      </trkpt>
      <trkpt lat="42.93867" lon="0.57126">
        <ele>750</ele>
        <time>2019-02-03T14:57:52.000Z</time>
      </trkpt>
      <trkpt lat="42.93868" lon="0.57126">
        <ele>750</ele>
        <time>2019-02-03T14:57:53.000Z</time>
      </trkpt>
      <trkpt lat="42.93868" lon="0.57126">
        <ele>750</ele>
        <time>2019-02-03T14:57:54.000Z</time>
      </trkpt>
      <trkpt lat="42.93869" lon="0.57126">
        <ele>750</ele>
        <time>2019-02-03T14:57:55.000Z</time>
      </trkpt>
      <trkpt lat="42.9387" lon="0.57125">
        <ele>750</ele>
        <time>2019-02-03T14:57:56.000Z</time>
      </trkpt>
      <trkpt lat="42.93871" lon="0.57125">
        <ele>751</ele>
        <time>2019-02-03T14:57:57.000Z</time>
      </trkpt>
      <trkpt lat="42.93872" lon="0.57125">
        <ele>751</ele>
        <time>2019-02-03T14:57:58.000Z</time>
      </trkpt>
      <trkpt lat="42.93873" lon="0.57125">
        <ele>751</ele>
        <time>2019-02-03T14:57:59.000Z</time>
      </trkpt>
      <trkpt lat="42.93874" lon="0.57125">
        <ele>751</ele>
        <time>2019-02-03T14:58:00.000Z</time>
      </trkpt>
      <trkpt lat="42.93874" lon="0.57125">
        <ele>751.5</ele>
        <time>2019-02-03T14:58:01.000Z</time>
      </trkpt>
      <trkpt lat="42.93875" lon="0.57125">
        <ele>752</ele>
        <time>2019-02-03T14:58:02.000Z</time>
      </trkpt>
      <trkpt lat="42.93876" lon="0.57124">
        <ele>752</ele>
        <time>2019-02-03T14:58:03.000Z</time>
      </trkpt>
      <trkpt lat="42.93877" lon="0.57124">
        <ele>752</ele>
        <time>2019-02-03T14:58:04.000Z</time>
      </trkpt>
      <trkpt lat="42.93878" lon="0.57124">
        <ele>752</ele>
        <time>2019-02-03T14:58:05.000Z</time>
      </trkpt>
      <trkpt lat="42.93878" lon="0.57124">
        <ele>752</ele>
        <time>2019-02-03T14:58:06.000Z</time>
      </trkpt>
      <trkpt lat="42.93879" lon="0.57124">
        <ele>752</ele>
        <time>2019-02-03T14:58:07.000Z</time>
      </trkpt>
      <trkpt lat="42.9388" lon="0.57124">
        <ele>752</ele>
        <time>2019-02-03T14:58:08.000Z</time>
      </trkpt>
      <trkpt lat="42.93881" lon="0.57124">
        <ele>752</ele>
        <time>2019-02-03T14:58:09.000Z</time>
      </trkpt>
      <trkpt lat="42.93881" lon="0.57124">
        <ele>752</ele>
        <time>2019-02-03T14:58:10.000Z</time>
      </trkpt>
      <trkpt lat="42.93882" lon="0.57124">
        <ele>752.5</ele>
        <time>2019-02-03T14:58:11.000Z</time>
      </trkpt>
      <trkpt lat="42.93883" lon="0.57124">
        <ele>753</ele>
        <time>2019-02-03T14:58:12.000Z</time>
      </trkpt>
      <trkpt lat="42.93884" lon="0.57123">
        <ele>753</ele>
        <time>2019-02-03T14:58:13.000Z</time>
      </trkpt>
      <trkpt lat="42.93884" lon="0.57123">
        <ele>753</ele>
        <time>2019-02-03T14:58:14.000Z</time>
      </trkpt>
      <trkpt lat="42.93885" lon="0.57123">
        <ele>753</ele>
        <time>2019-02-03T14:58:15.000Z</time>
      </trkpt>
      <trkpt lat="42.93886" lon="0.57123">
        <ele>753</ele>
        <time>2019-02-03T14:58:16.000Z</time>
      </trkpt>
      <trkpt lat="42.93887" lon="0.57123">
        <ele>753</ele>
        <time>2019-02-03T14:58:17.000Z</time>
      </trkpt>
      <trkpt lat="42.93888" lon="0.57123">
        <ele>753</ele>
        <time>2019-02-03T14:58:18.000Z</time>
      </trkpt>
      <trkpt lat="42.93888" lon="0.57123">
        <ele>753</ele>
        <time>2019-02-03T14:58:19.000Z</time>
      </trkpt>
      <trkpt lat="42.93889" lon="0.57123">
        <ele>753</ele>
        <time>2019-02-03T14:58:20.000Z</time>
      </trkpt>
      <trkpt lat="42.9389" lon="0.57122">
        <ele>753</ele>
        <time>2019-02-03T14:58:21.000Z</time>
      </trkpt>
      <trkpt lat="42.93891" lon="0.57122">
        <ele>753</ele>
        <time>2019-02-03T14:58:22.000Z</time>
      </trkpt>
      <trkpt lat="42.93891" lon="0.57122">
        <ele>753.5</ele>
        <time>2019-02-03T14:58:23.000Z</time>
      </trkpt>
      <trkpt lat="42.93892" lon="0.57121">
        <ele>754</ele>
        <time>2019-02-03T14:58:24.000Z</time>
      </trkpt>
      <trkpt lat="42.93893" lon="0.57121">
        <ele>754</ele>
        <time>2019-02-03T14:58:25.000Z</time>
      </trkpt>
      <trkpt lat="42.93893" lon="0.57121">
        <ele>754</ele>
        <time>2019-02-03T14:58:26.000Z</time>
      </trkpt>
      <trkpt lat="42.93894" lon="0.5712">
        <ele>754</ele>
        <time>2019-02-03T14:58:27.000Z</time>
      </trkpt>
      <trkpt lat="42.93895" lon="0.5712">
        <ele>754</ele>
        <time>2019-02-03T14:58:28.000Z</time>
      </trkpt>
      <trkpt lat="42.93895" lon="0.5712">
        <ele>754</ele>
        <time>2019-02-03T14:58:29.000Z</time>
      </trkpt>
      <trkpt lat="42.93896" lon="0.57119">
        <ele>754</ele>
        <time>2019-02-03T14:58:30.000Z</time>
      </trkpt>
      <trkpt lat="42.93897" lon="0.57119">
        <ele>754</ele>
        <time>2019-02-03T14:58:31.000Z</time>
      </trkpt>
      <trkpt lat="42.93897" lon="0.57119">
        <ele>754</ele>
        <time>2019-02-03T14:58:32.000Z</time>
      </trkpt>
      <trkpt lat="42.93898" lon="0.57118">
        <ele>754</ele>
        <time>2019-02-03T14:58:33.000Z</time>
      </trkpt>
      <trkpt lat="42.93899" lon="0.57118">
        <ele>754</ele>
        <time>2019-02-03T14:58:34.000Z</time>
      </trkpt>
      <trkpt lat="42.93899" lon="0.57118">
        <ele>754</ele>
        <time>2019-02-03T14:58:35.000Z</time>
      </trkpt>
      <trkpt lat="42.939" lon="0.57117">
        <ele>754</ele>
        <time>2019-02-03T14:58:36.000Z</time>
      </trkpt>
      <trkpt lat="42.93901" lon="0.57117">
        <ele>754</ele>
        <time>2019-02-03T14:58:37.000Z</time>
      </trkpt>
      <trkpt lat="42.93902" lon="0.57117">
        <ele>754</ele>
        <time>2019-02-03T14:58:38.000Z</time>
      </trkpt>
      <trkpt lat="42.93902" lon="0.57117">
        <ele>754</ele>
        <time>2019-02-03T14:58:39.000Z</time>
      </trkpt>
      <trkpt lat="42.93903" lon="0.57117">
        <ele>754</ele>
        <time>2019-02-03T14:58:40.000Z</time>
      </trkpt>
      <trkpt lat="42.93904" lon="0.57117">
        <ele>754</ele>
        <time>2019-02-03T14:58:41.000Z</time>
      </trkpt>
      <trkpt lat="42.93904" lon="0.57117">
        <ele>754</ele>
        <time>2019-02-03T14:58:42.000Z</time>
      </trkpt>
      <trkpt lat="42.93905" lon="0.57117">
        <ele>754</ele>
        <time>2019-02-03T14:58:43.000Z</time>
      </trkpt>
      <trkpt lat="42.93905" lon="0.57117">
        <ele>754</ele>
        <time>2019-02-03T14:58:44.000Z</time>
      </trkpt>
      <trkpt lat="42.93905" lon="0.57117">
        <ele>754</ele>
        <time>2019-02-03T14:58:45.000Z</time>
      </trkpt>
      <trkpt lat="42.93906" lon="0.57117">
        <ele>754</ele>
        <time>2019-02-03T14:58:46.000Z</time>
      </trkpt>
      <trkpt lat="42.93906" lon="0.57117">
        <ele>754</ele>
        <time>2019-02-03T14:58:47.000Z</time>
      </trkpt>
      <trkpt lat="42.93906" lon="0.57117">
        <ele>754</ele>
        <time>2019-02-03T14:58:48.000Z</time>
      </trkpt>
      <trkpt lat="42.93906" lon="0.57117">
        <ele>754</ele>
        <time>2019-02-03T14:58:49.000Z</time>
      </trkpt>
      <trkpt lat="42.93906" lon="0.57117">
        <ele>754</ele>
        <time>2019-02-03T14:58:50.000Z</time>
      </trkpt>
      <trkpt lat="42.93906" lon="0.57117">
        <ele>754</ele>
        <time>2019-02-03T14:58:51.000Z</time>
      </trkpt>
      <trkpt lat="42.93906" lon="0.57117">
        <ele>754</ele>
        <time>2019-02-03T14:58:52.000Z</time>
      </trkpt>
      <trkpt lat="42.93906" lon="0.57116">
        <ele>754</ele>
        <time>2019-02-03T14:58:53.000Z</time>
      </trkpt>
      <trkpt lat="42.93906" lon="0.57116">
        <ele>754</ele>
        <time>2019-02-03T14:58:54.000Z</time>
      </trkpt>
      <trkpt lat="42.93906" lon="0.57116">
        <ele>754</ele>
        <time>2019-02-03T14:58:55.000Z</time>
      </trkpt>
      <trkpt lat="42.93906" lon="0.57116">
        <ele>754</ele>
        <time>2019-02-03T14:58:56.000Z</time>
      </trkpt>
      <trkpt lat="42.93906" lon="0.57116">
        <ele>754</ele>
        <time>2019-02-03T14:58:57.000Z</time>
      </trkpt>
      <trkpt lat="42.93906" lon="0.57116">
        <ele>754</ele>
        <time>2019-02-03T14:58:58.000Z</time>
      </trkpt>
      <trkpt lat="42.93906" lon="0.57116">
        <ele>754</ele>
        <time>2019-02-03T14:58:59.000Z</time>
      </trkpt>
      <trkpt lat="42.93906" lon="0.57116">
        <ele>754</ele>
        <time>2019-02-03T14:59:00.000Z</time>
      </trkpt>
      <trkpt lat="42.93906" lon="0.57115">
        <ele>754</ele>
        <time>2019-02-03T14:59:01.000Z</time>
      </trkpt>
      <trkpt lat="42.93906" lon="0.57115">
        <ele>754</ele>
        <time>2019-02-03T14:59:02.000Z</time>
      </trkpt>
      <trkpt lat="42.93906" lon="0.57115">
        <ele>754</ele>
        <time>2019-02-03T14:59:03.000Z</time>
      </trkpt>
      <trkpt lat="42.93906" lon="0.57115">
        <ele>754</ele>
        <time>2019-02-03T14:59:04.000Z</time>
      </trkpt>
      <trkpt lat="42.93906" lon="0.57114">
        <ele>754</ele>
        <time>2019-02-03T14:59:05.000Z</time>
      </trkpt>
      <trkpt lat="42.93906" lon="0.57114">
        <ele>754</ele>
        <time>2019-02-03T14:59:06.000Z</time>
      </trkpt>
      <trkpt lat="42.93906" lon="0.57114">
        <ele>754</ele>
        <time>2019-02-03T14:59:07.000Z</time>
      </trkpt>
      <trkpt lat="42.93906" lon="0.57114">
        <ele>754</ele>
        <time>2019-02-03T14:59:08.000Z</time>
      </trkpt>
      <trkpt lat="42.93906" lon="0.57113">
        <ele>754</ele>
        <time>2019-02-03T14:59:09.000Z</time>
      </trkpt>
      <trkpt lat="42.93906" lon="0.57113">
        <ele>754</ele>
        <time>2019-02-03T14:59:10.000Z</time>
      </trkpt>
      <trkpt lat="42.93906" lon="0.57113">
        <ele>754</ele>
        <time>2019-02-03T14:59:11.000Z</time>
      </trkpt>
      <trkpt lat="42.93906" lon="0.57113">
        <ele>754</ele>
        <time>2019-02-03T14:59:12.000Z</time>
      </trkpt>
      <trkpt lat="42.93906" lon="0.57113">
        <ele>754</ele>
        <time>2019-02-03T14:59:13.000Z</time>
      </trkpt>
      <trkpt lat="42.93906" lon="0.57113">
        <ele>754</ele>
        <time>2019-02-03T14:59:14.000Z</time>
      </trkpt>
      <trkpt lat="42.93906" lon="0.57114">
        <ele>753.5</ele>
        <time>2019-02-03T14:59:15.000Z</time>
      </trkpt>
      <trkpt lat="42.93907" lon="0.57114">
        <ele>753</ele>
        <time>2019-02-03T14:59:16.000Z</time>
      </trkpt>
      <trkpt lat="42.93907" lon="0.57114">
        <ele>753</ele>
        <time>2019-02-03T14:59:17.000Z</time>
      </trkpt>
      <trkpt lat="42.93907" lon="0.57114">
        <ele>753</ele>
        <time>2019-02-03T14:59:18.000Z</time>
      </trkpt>
      <trkpt lat="42.93907" lon="0.57115">
        <ele>753.5</ele>
        <time>2019-02-03T14:59:19.000Z</time>
      </trkpt>
      <trkpt lat="42.93907" lon="0.57115">
        <ele>754</ele>
        <time>2019-02-03T14:59:20.000Z</time>
      </trkpt>
      <trkpt lat="42.93907" lon="0.57115">
        <ele>754</ele>
        <time>2019-02-03T14:59:21.000Z</time>
      </trkpt>
      <trkpt lat="42.93907" lon="0.57115">
        <ele>754</ele>
        <time>2019-02-03T14:59:22.000Z</time>
      </trkpt>
      <trkpt lat="42.93907" lon="0.57115">
        <ele>754</ele>
        <time>2019-02-03T14:59:23.000Z</time>
      </trkpt>
      <trkpt lat="42.93907" lon="0.57115">
        <ele>754</ele>
        <time>2019-02-03T14:59:24.000Z</time>
      </trkpt>
      <trkpt lat="42.93907" lon="0.57115">
        <ele>754</ele>
        <time>2019-02-03T14:59:25.000Z</time>
      </trkpt>
      <trkpt lat="42.93907" lon="0.57115">
        <ele>754</ele>
        <time>2019-02-03T14:59:26.000Z</time>
      </trkpt>
      <trkpt lat="42.93907" lon="0.57115">
        <ele>754</ele>
        <time>2019-02-03T14:59:27.000Z</time>
      </trkpt>
      <trkpt lat="42.93907" lon="0.57115">
        <ele>754</ele>
        <time>2019-02-03T14:59:28.000Z</time>
      </trkpt>
      <trkpt lat="42.93907" lon="0.57115">
        <ele>754</ele>
        <time>2019-02-03T14:59:29.000Z</time>
      </trkpt>
      <trkpt lat="42.93907" lon="0.57115">
        <ele>753.7</ele>
        <time>2019-02-03T14:59:30.000Z</time>
      </trkpt>
      <trkpt lat="42.93907" lon="0.57115">
        <ele>753.3</ele>
        <time>2019-02-03T14:59:31.000Z</time>
      </trkpt>
      <trkpt lat="42.93907" lon="0.57115">
        <ele>753</ele>
        <time>2019-02-03T14:59:32.000Z</time>
      </trkpt>
      <trkpt lat="42.93907" lon="0.57115">
        <ele>753.5</ele>
        <time>2019-02-03T14:59:33.000Z</time>
      </trkpt>
      <trkpt lat="42.93907" lon="0.57115">
        <ele>754</ele>
        <time>2019-02-03T14:59:34.000Z</time>
      </trkpt>
      <trkpt lat="42.93907" lon="0.57115">
        <ele>754</ele>
        <time>2019-02-03T14:59:35.000Z</time>
      </trkpt>
      <trkpt lat="42.93907" lon="0.57116">
        <ele>754</ele>
        <time>2019-02-03T14:59:36.000Z</time>
      </trkpt>
      <trkpt lat="42.93907" lon="0.57116">
        <ele>754</ele>
        <time>2019-02-03T14:59:37.000Z</time>
      </trkpt>
      <trkpt lat="42.93907" lon="0.57116">
        <ele>754</ele>
        <time>2019-02-03T14:59:38.000Z</time>
      </trkpt>
      <trkpt lat="42.93907" lon="0.57116">
        <ele>754</ele>
        <time>2019-02-03T14:59:39.000Z</time>
      </trkpt>
      <trkpt lat="42.93907" lon="0.57116">
        <ele>754</ele>
        <time>2019-02-03T14:59:40.000Z</time>
      </trkpt>
      <trkpt lat="42.93907" lon="0.57116">
        <ele>754</ele>
        <time>2019-02-03T14:59:41.000Z</time>
      </trkpt>
      <trkpt lat="42.93907" lon="0.57116">
        <ele>754</ele>
        <time>2019-02-03T14:59:42.000Z</time>
      </trkpt>
      <trkpt lat="42.93907" lon="0.57116">
        <ele>754</ele>
        <time>2019-02-03T14:59:43.000Z</time>
      </trkpt>
      <trkpt lat="42.93907" lon="0.57116">
        <ele>754</ele>
        <time>2019-02-03T14:59:44.000Z</time>
      </trkpt>
      <trkpt lat="42.93907" lon="0.57116">
        <ele>754</ele>
        <time>2019-02-03T14:59:45.000Z</time>
      </trkpt>
      <trkpt lat="42.93907" lon="0.57116">
        <ele>754</ele>
        <time>2019-02-03T14:59:46.000Z</time>
      </trkpt>
      <trkpt lat="42.93907" lon="0.57116">
        <ele>754</ele>
        <time>2019-02-03T14:59:47.000Z</time>
      </trkpt>
      <trkpt lat="42.93907" lon="0.57116">
        <ele>754</ele>
        <time>2019-02-03T14:59:48.000Z</time>
      </trkpt>
      <trkpt lat="42.93907" lon="0.57116">
        <ele>754</ele>
        <time>2019-02-03T14:59:49.000Z</time>
      </trkpt>
      <trkpt lat="42.93907" lon="0.57116">
        <ele>754</ele>
        <time>2019-02-03T14:59:50.000Z</time>
      </trkpt>
      <trkpt lat="42.93907" lon="0.57116">
        <ele>754</ele>
        <time>2019-02-03T14:59:51.000Z</time>
      </trkpt>
      <trkpt lat="42.93907" lon="0.57116">
        <ele>754</ele>
        <time>2019-02-03T14:59:52.000Z</time>
      </trkpt>
      <trkpt lat="42.93907" lon="0.57116">
        <ele>754</ele>
        <time>2019-02-03T14:59:53.000Z</time>
      </trkpt>
      <trkpt lat="42.93907" lon="0.57116">
        <ele>754</ele>
        <time>2019-02-03T14:59:54.000Z</time>
      </trkpt>
      <trkpt lat="42.93907" lon="0.57116">
        <ele>754</ele>
        <time>2019-02-03T14:59:55.000Z</time>
      </trkpt>
      <trkpt lat="42.93907" lon="0.57116">
        <ele>754</ele>
        <time>2019-02-03T14:59:56.000Z</time>
      </trkpt>
      <trkpt lat="42.93907" lon="0.57116">
        <ele>754</ele>
        <time>2019-02-03T14:59:57.000Z</time>
      </trkpt>
      <trkpt lat="42.93907" lon="0.57116">
        <ele>754</ele>
        <time>2019-02-03T14:59:58.000Z</time>
      </trkpt>
      <trkpt lat="42.93907" lon="0.57116">
        <ele>754</ele>
        <time>2019-02-03T14:59:59.000Z</time>
      </trkpt>
      <trkpt lat="42.93907" lon="0.57116">
        <ele>754</ele>
        <time>2019-02-03T15:00:00.000Z</time>
      </trkpt>
      <trkpt lat="42.93907" lon="0.57116">
        <ele>754</ele>
        <time>2019-02-03T15:00:01.000Z</time>
      </trkpt>
      <trkpt lat="42.93907" lon="0.57116">
        <ele>754</ele>
        <time>2019-02-03T15:00:02.000Z</time>
      </trkpt>
      <trkpt lat="42.93906" lon="0.57116">
        <ele>754</ele>
        <time>2019-02-03T15:00:03.000Z</time>
      </trkpt>
      <trkpt lat="42.93906" lon="0.57116">
        <ele>754</ele>
        <time>2019-02-03T15:00:04.000Z</time>
      </trkpt>
      <trkpt lat="42.93906" lon="0.57116">
        <ele>754</ele>
        <time>2019-02-03T15:00:05.000Z</time>
      </trkpt>
      <trkpt lat="42.93906" lon="0.57116">
        <ele>754</ele>
        <time>2019-02-03T15:00:06.000Z</time>
      </trkpt>
      <trkpt lat="42.93906" lon="0.57116">
        <ele>754</ele>
        <time>2019-02-03T15:00:07.000Z</time>
      </trkpt>
      <trkpt lat="42.93906" lon="0.57116">
        <ele>754.3</ele>
        <time>2019-02-03T15:00:08.000Z</time>
      </trkpt>
      <trkpt lat="42.93907" lon="0.57116">
        <ele>754.7</ele>
        <time>2019-02-03T15:00:09.000Z</time>
      </trkpt>
      <trkpt lat="42.93907" lon="0.57116">
        <ele>755</ele>
        <time>2019-02-03T15:00:10.000Z</time>
      </trkpt>
      <trkpt lat="42.93907" lon="0.57116">
        <ele>754.5</ele>
        <time>2019-02-03T15:00:11.000Z</time>
      </trkpt>
      <trkpt lat="42.93908" lon="0.57116">
        <ele>754</ele>
        <time>2019-02-03T15:00:12.000Z</time>
      </trkpt>
      <trkpt lat="42.93908" lon="0.57116">
        <ele>754</ele>
        <time>2019-02-03T15:00:13.000Z</time>
      </trkpt>
      <trkpt lat="42.93908" lon="0.57116">
        <ele>754</ele>
        <time>2019-02-03T15:00:14.000Z</time>
      </trkpt>
      <trkpt lat="42.93909" lon="0.57116">
        <ele>754</ele>
        <time>2019-02-03T15:00:15.000Z</time>
      </trkpt>
      <trkpt lat="42.93909" lon="0.57116">
        <ele>754</ele>
        <time>2019-02-03T15:00:16.000Z</time>
      </trkpt>
      <trkpt lat="42.93909" lon="0.57116">
        <ele>754</ele>
        <time>2019-02-03T15:00:17.000Z</time>
      </trkpt>
      <trkpt lat="42.93909" lon="0.57116">
        <ele>754</ele>
        <time>2019-02-03T15:00:18.000Z</time>
      </trkpt>
      <trkpt lat="42.93909" lon="0.57116">
        <ele>754</ele>
        <time>2019-02-03T15:00:19.000Z</time>
      </trkpt>
      <trkpt lat="42.93909" lon="0.57116">
        <ele>754</ele>
        <time>2019-02-03T15:00:20.000Z</time>
      </trkpt>
      <trkpt lat="42.93909" lon="0.57116">
        <ele>754</ele>
        <time>2019-02-03T15:00:21.000Z</time>
      </trkpt>
      <trkpt lat="42.93909" lon="0.57116">
        <ele>754</ele>
        <time>2019-02-03T15:00:22.000Z</time>
      </trkpt>
      <trkpt lat="42.93909" lon="0.57115">
        <ele>754</ele>
        <time>2019-02-03T15:00:23.000Z</time>
      </trkpt>
      <trkpt lat="42.93909" lon="0.57115">
        <ele>754</ele>
        <time>2019-02-03T15:00:24.000Z</time>
      </trkpt>
      <trkpt lat="42.9391" lon="0.57115">
        <ele>754</ele>
        <time>2019-02-03T15:00:25.000Z</time>
      </trkpt>
      <trkpt lat="42.9391" lon="0.57115">
        <ele>754</ele>
        <time>2019-02-03T15:00:26.000Z</time>
      </trkpt>
      <trkpt lat="42.9391" lon="0.57114">
        <ele>754</ele>
        <time>2019-02-03T15:00:27.000Z</time>
      </trkpt>
      <trkpt lat="42.9391" lon="0.57114">
        <ele>754</ele>
        <time>2019-02-03T15:00:28.000Z</time>
      </trkpt>
      <trkpt lat="42.9391" lon="0.57114">
        <ele>754</ele>
        <time>2019-02-03T15:00:29.000Z</time>
      </trkpt>
      <trkpt lat="42.9391" lon="0.57113">
        <ele>754</ele>
        <time>2019-02-03T15:00:30.000Z</time>
      </trkpt>
      <trkpt lat="42.9391" lon="0.57113">
        <ele>754</ele>
        <time>2019-02-03T15:00:31.000Z</time>
      </trkpt>
      <trkpt lat="42.9391" lon="0.57113">
        <ele>754</ele>
        <time>2019-02-03T15:00:32.000Z</time>
      </trkpt>
      <trkpt lat="42.9391" lon="0.57113">
        <ele>754</ele>
        <time>2019-02-03T15:00:33.000Z</time>
      </trkpt>
      <trkpt lat="42.9391" lon="0.57113">
        <ele>754</ele>
        <time>2019-02-03T15:00:34.000Z</time>
      </trkpt>
      <trkpt lat="42.9391" lon="0.57113">
        <ele>754</ele>
        <time>2019-02-03T15:00:35.000Z</time>
      </trkpt>
      <trkpt lat="42.93909" lon="0.57113">
        <ele>754</ele>
        <time>2019-02-03T15:00:36.000Z</time>
      </trkpt>
      <trkpt lat="42.93909" lon="0.57114">
        <ele>754</ele>
        <time>2019-02-03T15:00:37.000Z</time>
      </trkpt>
      <trkpt lat="42.93909" lon="0.57115">
        <ele>754</ele>
        <time>2019-02-03T15:00:38.000Z</time>
      </trkpt>
      <trkpt lat="42.93908" lon="0.57115">
        <ele>754</ele>
        <time>2019-02-03T15:00:39.000Z</time>
      </trkpt>
      <trkpt lat="42.93908" lon="0.57115">
        <ele>754</ele>
        <time>2019-02-03T15:00:40.000Z</time>
      </trkpt>
      <trkpt lat="42.93908" lon="0.57115">
        <ele>754</ele>
        <time>2019-02-03T15:00:41.000Z</time>
      </trkpt>
      <trkpt lat="42.93907" lon="0.57115">
        <ele>754</ele>
        <time>2019-02-03T15:00:42.000Z</time>
      </trkpt>
      <trkpt lat="42.93907" lon="0.57115">
        <ele>754</ele>
        <time>2019-02-03T15:00:43.000Z</time>
      </trkpt>
      <trkpt lat="42.93907" lon="0.57115">
        <ele>754</ele>
        <time>2019-02-03T15:00:44.000Z</time>
      </trkpt>
      <trkpt lat="42.93907" lon="0.57115">
        <ele>754</ele>
        <time>2019-02-03T15:00:45.000Z</time>
      </trkpt>
      <trkpt lat="42.93907" lon="0.57115">
        <ele>754</ele>
        <time>2019-02-03T15:00:46.000Z</time>
      </trkpt>
      <trkpt lat="42.93907" lon="0.57115">
        <ele>754</ele>
        <time>2019-02-03T15:00:47.000Z</time>
      </trkpt>
      <trkpt lat="42.93907" lon="0.57115">
        <ele>754</ele>
        <time>2019-02-03T15:00:48.000Z</time>
      </trkpt>
      <trkpt lat="42.93907" lon="0.57115">
        <ele>754</ele>
        <time>2019-02-03T15:00:49.000Z</time>
      </trkpt>
      <trkpt lat="42.93907" lon="0.57115">
        <ele>754</ele>
        <time>2019-02-03T15:00:50.000Z</time>
      </trkpt>
      <trkpt lat="42.93907" lon="0.57115">
        <ele>754</ele>
        <time>2019-02-03T15:00:51.000Z</time>
      </trkpt>
      <trkpt lat="42.93907" lon="0.57115">
        <ele>754</ele>
        <time>2019-02-03T15:00:52.000Z</time>
      </trkpt>
      <trkpt lat="42.93907" lon="0.57115">
        <ele>754</ele>
        <time>2019-02-03T15:00:53.000Z</time>
      </trkpt>
      <trkpt lat="42.93907" lon="0.57115">
        <ele>754</ele>
        <time>2019-02-03T15:00:54.000Z</time>
      </trkpt>
      <trkpt lat="42.93907" lon="0.57115">
        <ele>754</ele>
        <time>2019-02-03T15:00:55.000Z</time>
      </trkpt>
      <trkpt lat="42.93907" lon="0.57115">
        <ele>754</ele>
        <time>2019-02-03T15:00:56.000Z</time>
      </trkpt>
      <trkpt lat="42.93907" lon="0.57115">
        <ele>754</ele>
        <time>2019-02-03T15:00:57.000Z</time>
      </trkpt>
      <trkpt lat="42.93907" lon="0.57115">
        <ele>754</ele>
        <time>2019-02-03T15:00:58.000Z</time>
      </trkpt>
      <trkpt lat="42.93907" lon="0.57115">
        <ele>754</ele>
        <time>2019-02-03T15:00:59.000Z</time>
      </trkpt>
      <trkpt lat="42.93907" lon="0.57115">
        <ele>754</ele>
        <time>2019-02-03T15:01:00.000Z</time>
      </trkpt>
      <trkpt lat="42.93907" lon="0.57115">
        <ele>754</ele>
        <time>2019-02-03T15:01:01.000Z</time>
      </trkpt>
      <trkpt lat="42.93907" lon="0.57115">
        <ele>754</ele>
        <time>2019-02-03T15:01:02.000Z</time>
      </trkpt>
      <trkpt lat="42.93907" lon="0.57115">
        <ele>754.5</ele>
        <time>2019-02-03T15:01:03.000Z</time>
      </trkpt>
      <trkpt lat="42.93907" lon="0.57115">
        <ele>755</ele>
        <time>2019-02-03T15:01:04.000Z</time>
      </trkpt>
      <trkpt lat="42.93907" lon="0.57115">
        <ele>755</ele>
        <time>2019-02-03T15:01:05.000Z</time>
      </trkpt>
      <trkpt lat="42.93907" lon="0.57115">
        <ele>755</ele>
        <time>2019-02-03T15:01:06.000Z</time>
      </trkpt>
      <trkpt lat="42.93907" lon="0.57115">
        <ele>755</ele>
        <time>2019-02-03T15:01:07.000Z</time>
      </trkpt>
      <trkpt lat="42.93907" lon="0.57115">
        <ele>755</ele>
        <time>2019-02-03T15:01:08.000Z</time>
      </trkpt>
      <trkpt lat="42.93908" lon="0.57115">
        <ele>755</ele>
        <time>2019-02-03T15:01:09.000Z</time>
      </trkpt>
      <trkpt lat="42.93908" lon="0.57115">
        <ele>755</ele>
        <time>2019-02-03T15:01:10.000Z</time>
      </trkpt>
      <trkpt lat="42.93908" lon="0.57115">
        <ele>755</ele>
        <time>2019-02-03T15:01:11.000Z</time>
      </trkpt>
      <trkpt lat="42.93908" lon="0.57115">
        <ele>754.7</ele>
        <time>2019-02-03T15:01:12.000Z</time>
      </trkpt>
      <trkpt lat="42.93908" lon="0.57115">
        <ele>754.3</ele>
        <time>2019-02-03T15:01:13.000Z</time>
      </trkpt>
      <trkpt lat="42.93908" lon="0.57115">
        <ele>754</ele>
        <time>2019-02-03T15:01:14.000Z</time>
      </trkpt>
      <trkpt lat="42.93908" lon="0.57115">
        <ele>754</ele>
        <time>2019-02-03T15:01:15.000Z</time>
      </trkpt>
      <trkpt lat="42.93908" lon="0.57115">
        <ele>753.7</ele>
        <time>2019-02-03T15:01:16.000Z</time>
      </trkpt>
      <trkpt lat="42.93908" lon="0.57115">
        <ele>753.3</ele>
        <time>2019-02-03T15:01:17.000Z</time>
      </trkpt>
      <trkpt lat="42.93908" lon="0.57115">
        <ele>753</ele>
        <time>2019-02-03T15:01:18.000Z</time>
      </trkpt>
      <trkpt lat="42.93908" lon="0.57115">
        <ele>753</ele>
        <time>2019-02-03T15:01:19.000Z</time>
      </trkpt>
      <trkpt lat="42.93908" lon="0.57115">
        <ele>753</ele>
        <time>2019-02-03T15:01:20.000Z</time>
      </trkpt>
      <trkpt lat="42.93908" lon="0.57115">
        <ele>753</ele>
        <time>2019-02-03T15:01:21.000Z</time>
      </trkpt>
      <trkpt lat="42.93908" lon="0.57115">
        <ele>753</ele>
        <time>2019-02-03T15:01:22.000Z</time>
      </trkpt>
      <trkpt lat="42.93908" lon="0.57115">
        <ele>753</ele>
        <time>2019-02-03T15:01:23.000Z</time>
      </trkpt>
      <trkpt lat="42.93908" lon="0.57115">
        <ele>753</ele>
        <time>2019-02-03T15:01:24.000Z</time>
      </trkpt>
      <trkpt lat="42.93908" lon="0.57115">
        <ele>754</ele>
        <time>2019-02-03T15:01:25.000Z</time>
      </trkpt>
      <trkpt lat="42.93908" lon="0.57115">
        <ele>754</ele>
        <time>2019-02-03T15:01:26.000Z</time>
      </trkpt>
      <trkpt lat="42.93908" lon="0.57115">
        <ele>754</ele>
        <time>2019-02-03T15:01:27.000Z</time>
      </trkpt>
      <trkpt lat="42.93908" lon="0.57116">
        <ele>754</ele>
        <time>2019-02-03T15:01:28.000Z</time>
      </trkpt>
      <trkpt lat="42.93908" lon="0.57116">
        <ele>754</ele>
        <time>2019-02-03T15:01:29.000Z</time>
      </trkpt>
      <trkpt lat="42.93908" lon="0.57116">
        <ele>754</ele>
        <time>2019-02-03T15:01:30.000Z</time>
      </trkpt>
      <trkpt lat="42.93908" lon="0.57116">
        <ele>754</ele>
        <time>2019-02-03T15:01:31.000Z</time>
      </trkpt>
      <trkpt lat="42.93908" lon="0.57116">
        <ele>754</ele>
        <time>2019-02-03T15:01:32.000Z</time>
      </trkpt>
      <trkpt lat="42.93908" lon="0.57116">
        <ele>754</ele>
        <time>2019-02-03T15:01:33.000Z</time>
      </trkpt>
      <trkpt lat="42.93908" lon="0.57116">
        <ele>754</ele>
        <time>2019-02-03T15:01:34.000Z</time>
      </trkpt>
      <trkpt lat="42.93908" lon="0.57116">
        <ele>754</ele>
        <time>2019-02-03T15:01:35.000Z</time>
      </trkpt>
      <trkpt lat="42.93908" lon="0.57116">
        <ele>754</ele>
        <time>2019-02-03T15:01:36.000Z</time>
      </trkpt>
      <trkpt lat="42.93908" lon="0.57116">
        <ele>754</ele>
        <time>2019-02-03T15:01:37.000Z</time>
      </trkpt>
      <trkpt lat="42.93908" lon="0.57116">
        <ele>754</ele>
        <time>2019-02-03T15:01:38.000Z</time>
      </trkpt>
      <trkpt lat="42.93908" lon="0.57116">
        <ele>753</ele>
        <time>2019-02-03T15:01:39.000Z</time>
      </trkpt>
      <trkpt lat="42.93908" lon="0.57116">
        <ele>753</ele>
        <time>2019-02-03T15:01:40.000Z</time>
      </trkpt>
      <trkpt lat="42.93908" lon="0.57116">
        <ele>753</ele>
        <time>2019-02-03T15:01:41.000Z</time>
      </trkpt>
      <trkpt lat="42.93908" lon="0.57116">
        <ele>753</ele>
        <time>2019-02-03T15:01:42.000Z</time>
      </trkpt>
      <trkpt lat="42.93907" lon="0.57116">
        <ele>753</ele>
        <time>2019-02-03T15:01:43.000Z</time>
      </trkpt>
      <trkpt lat="42.93907" lon="0.57116">
        <ele>753</ele>
        <time>2019-02-03T15:01:44.000Z</time>
      </trkpt>
      <trkpt lat="42.93907" lon="0.57116">
        <ele>753</ele>
        <time>2019-02-03T15:01:45.000Z</time>
      </trkpt>
      <trkpt lat="42.93906" lon="0.57116">
        <ele>753</ele>
        <time>2019-02-03T15:01:46.000Z</time>
      </trkpt>
      <trkpt lat="42.93906" lon="0.57116">
        <ele>753</ele>
        <time>2019-02-03T15:01:47.000Z</time>
      </trkpt>
      <trkpt lat="42.93906" lon="0.57116">
        <ele>753</ele>
        <time>2019-02-03T15:01:48.000Z</time>
      </trkpt>
      <trkpt lat="42.93906" lon="0.57116">
        <ele>753</ele>
        <time>2019-02-03T15:01:49.000Z</time>
      </trkpt>
      <trkpt lat="42.93905" lon="0.57116">
        <ele>753</ele>
        <time>2019-02-03T15:01:50.000Z</time>
      </trkpt>
      <trkpt lat="42.93906" lon="0.57116">
        <ele>753.5</ele>
        <time>2019-02-03T15:01:51.000Z</time>
      </trkpt>
      <trkpt lat="42.93906" lon="0.57116">
        <ele>754</ele>
        <time>2019-02-03T15:01:52.000Z</time>
      </trkpt>
      <trkpt lat="42.93906" lon="0.57116">
        <ele>754</ele>
        <time>2019-02-03T15:01:53.000Z</time>
      </trkpt>
      <trkpt lat="42.93906" lon="0.57116">
        <ele>754</ele>
        <time>2019-02-03T15:01:54.000Z</time>
      </trkpt>
      <trkpt lat="42.93906" lon="0.57116">
        <ele>754</ele>
        <time>2019-02-03T15:01:55.000Z</time>
      </trkpt>
      <trkpt lat="42.93906" lon="0.57116">
        <ele>754</ele>
        <time>2019-02-03T15:01:56.000Z</time>
      </trkpt>
      <trkpt lat="42.93907" lon="0.57116">
        <ele>754</ele>
        <time>2019-02-03T15:01:57.000Z</time>
      </trkpt>
      <trkpt lat="42.93907" lon="0.57116">
        <ele>754</ele>
        <time>2019-02-03T15:01:58.000Z</time>
      </trkpt>
      <trkpt lat="42.93907" lon="0.57116">
        <ele>754</ele>
        <time>2019-02-03T15:01:59.000Z</time>
      </trkpt>
      <trkpt lat="42.93907" lon="0.57116">
        <ele>754</ele>
        <time>2019-02-03T15:02:00.000Z</time>
      </trkpt>
      <trkpt lat="42.93907" lon="0.57116">
        <ele>755</ele>
        <time>2019-02-03T15:02:01.000Z</time>
      </trkpt>
      <trkpt lat="42.93907" lon="0.57116">
        <ele>754.7</ele>
        <time>2019-02-03T15:02:02.000Z</time>
      </trkpt>
      <trkpt lat="42.93907" lon="0.57116">
        <ele>754.3</ele>
        <time>2019-02-03T15:02:03.000Z</time>
      </trkpt>
      <trkpt lat="42.93907" lon="0.57116">
        <ele>754</ele>
        <time>2019-02-03T15:02:04.000Z</time>
      </trkpt>
      <trkpt lat="42.93907" lon="0.57116">
        <ele>754</ele>
        <time>2019-02-03T15:02:05.000Z</time>
      </trkpt>
      <trkpt lat="42.93907" lon="0.57116">
        <ele>754</ele>
        <time>2019-02-03T15:02:06.000Z</time>
      </trkpt>
      <trkpt lat="42.93907" lon="0.57116">
        <ele>754</ele>
        <time>2019-02-03T15:02:07.000Z</time>
      </trkpt>
      <trkpt lat="42.93907" lon="0.57116">
        <ele>754</ele>
        <time>2019-02-03T15:02:08.000Z</time>
      </trkpt>
      <trkpt lat="42.93907" lon="0.57116">
        <ele>754</ele>
        <time>2019-02-03T15:02:09.000Z</time>
      </trkpt>
      <trkpt lat="42.93907" lon="0.57116">
        <ele>754</ele>
        <time>2019-02-03T15:02:10.000Z</time>
      </trkpt>
      <trkpt lat="42.93907" lon="0.57116">
        <ele>754</ele>
        <time>2019-02-03T15:02:11.000Z</time>
      </trkpt>
      <trkpt lat="42.93907" lon="0.57116">
        <ele>754</ele>
        <time>2019-02-03T15:02:12.000Z</time>
      </trkpt>
      <trkpt lat="42.93907" lon="0.57116">
        <ele>754.5</ele>
        <time>2019-02-03T15:02:13.000Z</time>
      </trkpt>
      <trkpt lat="42.93907" lon="0.57116">
        <ele>755</ele>
        <time>2019-02-03T15:02:14.000Z</time>
      </trkpt>
      <trkpt lat="42.93907" lon="0.57116">
        <ele>755</ele>
        <time>2019-02-03T15:02:15.000Z</time>
      </trkpt>
      <trkpt lat="42.93907" lon="0.57116">
        <ele>755</ele>
        <time>2019-02-03T15:02:16.000Z</time>
      </trkpt>
      <trkpt lat="42.93907" lon="0.57115">
        <ele>755</ele>
        <time>2019-02-03T15:02:17.000Z</time>
      </trkpt>
      <trkpt lat="42.93907" lon="0.57115">
        <ele>755</ele>
        <time>2019-02-03T15:02:18.000Z</time>
      </trkpt>
      <trkpt lat="42.93908" lon="0.57115">
        <ele>754.5</ele>
        <time>2019-02-03T15:02:19.000Z</time>
      </trkpt>
      <trkpt lat="42.93908" lon="0.57115">
        <ele>754</ele>
        <time>2019-02-03T15:02:20.000Z</time>
      </trkpt>
      <trkpt lat="42.93908" lon="0.57115">
        <ele>754</ele>
        <time>2019-02-03T15:02:21.000Z</time>
      </trkpt>
      <trkpt lat="42.93908" lon="0.57115">
        <ele>753.7</ele>
        <time>2019-02-03T15:02:22.000Z</time>
      </trkpt>
      <trkpt lat="42.93908" lon="0.57115">
        <ele>753.3</ele>
        <time>2019-02-03T15:02:23.000Z</time>
      </trkpt>
      <trkpt lat="42.93908" lon="0.57115">
        <ele>753</ele>
        <time>2019-02-03T15:02:24.000Z</time>
      </trkpt>
      <trkpt lat="42.93908" lon="0.57115">
        <ele>753</ele>
        <time>2019-02-03T15:02:25.000Z</time>
      </trkpt>
      <trkpt lat="42.93909" lon="0.57115">
        <ele>753</ele>
        <time>2019-02-03T15:02:26.000Z</time>
      </trkpt>
      <trkpt lat="42.93909" lon="0.57114">
        <ele>753</ele>
        <time>2019-02-03T15:02:27.000Z</time>
      </trkpt>
      <trkpt lat="42.93909" lon="0.57114">
        <ele>753</ele>
        <time>2019-02-03T15:02:28.000Z</time>
      </trkpt>
      <trkpt lat="42.93909" lon="0.57114">
        <ele>753</ele>
        <time>2019-02-03T15:02:29.000Z</time>
      </trkpt>
      <trkpt lat="42.93909" lon="0.57114">
        <ele>753</ele>
        <time>2019-02-03T15:02:30.000Z</time>
      </trkpt>
      <trkpt lat="42.93909" lon="0.57114">
        <ele>753</ele>
        <time>2019-02-03T15:02:31.000Z</time>
      </trkpt>
      <trkpt lat="42.93909" lon="0.57114">
        <ele>753</ele>
        <time>2019-02-03T15:02:32.000Z</time>
      </trkpt>
      <trkpt lat="42.93909" lon="0.57114">
        <ele>753</ele>
        <time>2019-02-03T15:02:33.000Z</time>
      </trkpt>
      <trkpt lat="42.93909" lon="0.57114">
        <ele>753</ele>
        <time>2019-02-03T15:02:34.000Z</time>
      </trkpt>
      <trkpt lat="42.93909" lon="0.57114">
        <ele>753</ele>
        <time>2019-02-03T15:02:35.000Z</time>
      </trkpt>
      <trkpt lat="42.93909" lon="0.57114">
        <ele>753</ele>
        <time>2019-02-03T15:02:36.000Z</time>
      </trkpt>
      <trkpt lat="42.93909" lon="0.57114">
        <ele>753</ele>
        <time>2019-02-03T15:02:37.000Z</time>
      </trkpt>
      <trkpt lat="42.93909" lon="0.57114">
        <ele>753</ele>
        <time>2019-02-03T15:02:38.000Z</time>
      </trkpt>
      <trkpt lat="42.93909" lon="0.57114">
        <ele>753</ele>
        <time>2019-02-03T15:02:39.000Z</time>
      </trkpt>
      <trkpt lat="42.93909" lon="0.57114">
        <ele>753</ele>
        <time>2019-02-03T15:02:40.000Z</time>
      </trkpt>
      <trkpt lat="42.93909" lon="0.57114">
        <ele>753</ele>
        <time>2019-02-03T15:02:41.000Z</time>
      </trkpt>
      <trkpt lat="42.93909" lon="0.57114">
        <ele>753</ele>
        <time>2019-02-03T15:02:42.000Z</time>
      </trkpt>
      <trkpt lat="42.93909" lon="0.57114">
        <ele>753</ele>
        <time>2019-02-03T15:02:43.000Z</time>
      </trkpt>
      <trkpt lat="42.93909" lon="0.57114">
        <ele>753</ele>
        <time>2019-02-03T15:02:44.000Z</time>
      </trkpt>
      <trkpt lat="42.93909" lon="0.57114">
        <ele>753</ele>
        <time>2019-02-03T15:02:45.000Z</time>
      </trkpt>
      <trkpt lat="42.93909" lon="0.57114">
        <ele>753</ele>
        <time>2019-02-03T15:02:46.000Z</time>
      </trkpt>
      <trkpt lat="42.93909" lon="0.57114">
        <ele>753</ele>
        <time>2019-02-03T15:02:47.000Z</time>
      </trkpt>
      <trkpt lat="42.93909" lon="0.57114">
        <ele>753</ele>
        <time>2019-02-03T15:02:48.000Z</time>
      </trkpt>
      <trkpt lat="42.93909" lon="0.57114">
        <ele>754</ele>
        <time>2019-02-03T15:02:49.000Z</time>
      </trkpt>
      <trkpt lat="42.93909" lon="0.57114">
        <ele>754</ele>
        <time>2019-02-03T15:02:50.000Z</time>
      </trkpt>
      <trkpt lat="42.93909" lon="0.57114">
        <ele>754</ele>
        <time>2019-02-03T15:02:51.000Z</time>
      </trkpt>
      <trkpt lat="42.93909" lon="0.57114">
        <ele>754</ele>
        <time>2019-02-03T15:02:52.000Z</time>
      </trkpt>
      <trkpt lat="42.93909" lon="0.57114">
        <ele>754</ele>
        <time>2019-02-03T15:02:53.000Z</time>
      </trkpt>
      <trkpt lat="42.93909" lon="0.57114">
        <ele>754</ele>
        <time>2019-02-03T15:02:54.000Z</time>
      </trkpt>
      <trkpt lat="42.93909" lon="0.57114">
        <ele>754</ele>
        <time>2019-02-03T15:02:55.000Z</time>
      </trkpt>
      <trkpt lat="42.93909" lon="0.57114">
        <ele>754</ele>
        <time>2019-02-03T15:02:56.000Z</time>
      </trkpt>
      <trkpt lat="42.93909" lon="0.57114">
        <ele>754</ele>
        <time>2019-02-03T15:02:57.000Z</time>
      </trkpt>
      <trkpt lat="42.93909" lon="0.57114">
        <ele>754</ele>
        <time>2019-02-03T15:02:58.000Z</time>
      </trkpt>
      <trkpt lat="42.93909" lon="0.57114">
        <ele>754</ele>
        <time>2019-02-03T15:02:59.000Z</time>
      </trkpt>
      <trkpt lat="42.93909" lon="0.57114">
        <ele>754</ele>
        <time>2019-02-03T15:03:00.000Z</time>
      </trkpt>
      <trkpt lat="42.93909" lon="0.57114">
        <ele>754</ele>
        <time>2019-02-03T15:03:01.000Z</time>
      </trkpt>
      <trkpt lat="42.93909" lon="0.57114">
        <ele>754.3</ele>
        <time>2019-02-03T15:03:02.000Z</time>
      </trkpt>
      <trkpt lat="42.93909" lon="0.57114">
        <ele>754.7</ele>
        <time>2019-02-03T15:03:03.000Z</time>
      </trkpt>
      <trkpt lat="42.93909" lon="0.57114">
        <ele>755</ele>
        <time>2019-02-03T15:03:04.000Z</time>
      </trkpt>
      <trkpt lat="42.93909" lon="0.57114">
        <ele>755</ele>
        <time>2019-02-03T15:03:05.000Z</time>
      </trkpt>
      <trkpt lat="42.93909" lon="0.57114">
        <ele>754.7</ele>
        <time>2019-02-03T15:03:06.000Z</time>
      </trkpt>
      <trkpt lat="42.93909" lon="0.57114">
        <ele>754.3</ele>
        <time>2019-02-03T15:03:07.000Z</time>
      </trkpt>
      <trkpt lat="42.93909" lon="0.57114">
        <ele>754</ele>
        <time>2019-02-03T15:03:08.000Z</time>
      </trkpt>
      <trkpt lat="42.93909" lon="0.57114">
        <ele>754</ele>
        <time>2019-02-03T15:03:09.000Z</time>
      </trkpt>
      <trkpt lat="42.93909" lon="0.57114">
        <ele>754</ele>
        <time>2019-02-03T15:03:10.000Z</time>
      </trkpt>
      <trkpt lat="42.93909" lon="0.57114">
        <ele>754</ele>
        <time>2019-02-03T15:03:11.000Z</time>
      </trkpt>
      <trkpt lat="42.93909" lon="0.57114">
        <ele>754.3</ele>
        <time>2019-02-03T15:03:12.000Z</time>
      </trkpt>
      <trkpt lat="42.93909" lon="0.57114">
        <ele>754.7</ele>
        <time>2019-02-03T15:03:13.000Z</time>
      </trkpt>
      <trkpt lat="42.93909" lon="0.57114">
        <ele>755</ele>
        <time>2019-02-03T15:03:14.000Z</time>
      </trkpt>
      <trkpt lat="42.93909" lon="0.57114">
        <ele>755</ele>
        <time>2019-02-03T15:03:15.000Z</time>
      </trkpt>
      <trkpt lat="42.93909" lon="0.57114">
        <ele>755</ele>
        <time>2019-02-03T15:03:16.000Z</time>
      </trkpt>
      <trkpt lat="42.93909" lon="0.57114">
        <ele>755</ele>
        <time>2019-02-03T15:03:17.000Z</time>
      </trkpt>
      <trkpt lat="42.93909" lon="0.57114">
        <ele>755</ele>
        <time>2019-02-03T15:03:18.000Z</time>
      </trkpt>
      <trkpt lat="42.93909" lon="0.57114">
        <ele>755</ele>
        <time>2019-02-03T15:03:19.000Z</time>
      </trkpt>
      <trkpt lat="42.93909" lon="0.57113">
        <ele>755</ele>
        <time>2019-02-03T15:03:20.000Z</time>
      </trkpt>
      <trkpt lat="42.93909" lon="0.57112">
        <ele>755</ele>
        <time>2019-02-03T15:03:21.000Z</time>
      </trkpt>
      <trkpt lat="42.93909" lon="0.57112">
        <ele>755</ele>
        <time>2019-02-03T15:03:22.000Z</time>
      </trkpt>
      <trkpt lat="42.9391" lon="0.57112">
        <ele>755</ele>
        <time>2019-02-03T15:03:23.000Z</time>
      </trkpt>
      <trkpt lat="42.9391" lon="0.57112">
        <ele>755</ele>
        <time>2019-02-03T15:03:24.000Z</time>
      </trkpt>
      <trkpt lat="42.9391" lon="0.57112">
        <ele>754.5</ele>
        <time>2019-02-03T15:03:25.000Z</time>
      </trkpt>
      <trkpt lat="42.9391" lon="0.57112">
        <ele>754</ele>
        <time>2019-02-03T15:03:26.000Z</time>
      </trkpt>
      <trkpt lat="42.93911" lon="0.57111">
        <ele>754</ele>
        <time>2019-02-03T15:03:27.000Z</time>
      </trkpt>
      <trkpt lat="42.93912" lon="0.57111">
        <ele>754</ele>
        <time>2019-02-03T15:03:28.000Z</time>
      </trkpt>
      <trkpt lat="42.93913" lon="0.57111">
        <ele>754</ele>
        <time>2019-02-03T15:03:29.000Z</time>
      </trkpt>
      <trkpt lat="42.93913" lon="0.57111">
        <ele>754</ele>
        <time>2019-02-03T15:03:30.000Z</time>
      </trkpt>
      <trkpt lat="42.93914" lon="0.57111">
        <ele>754</ele>
        <time>2019-02-03T15:03:31.000Z</time>
      </trkpt>
      <trkpt lat="42.93915" lon="0.57111">
        <ele>754</ele>
        <time>2019-02-03T15:03:32.000Z</time>
      </trkpt>
      <trkpt lat="42.93915" lon="0.57111">
        <ele>754</ele>
        <time>2019-02-03T15:03:33.000Z</time>
      </trkpt>
      <trkpt lat="42.93916" lon="0.57111">
        <ele>754</ele>
        <time>2019-02-03T15:03:34.000Z</time>
      </trkpt>
      <trkpt lat="42.93916" lon="0.57111">
        <ele>754</ele>
        <time>2019-02-03T15:03:35.000Z</time>
      </trkpt>
      <trkpt lat="42.93917" lon="0.5711">
        <ele>754</ele>
        <time>2019-02-03T15:03:36.000Z</time>
      </trkpt>
      <trkpt lat="42.93917" lon="0.5711">
        <ele>753</ele>
        <time>2019-02-03T15:03:37.000Z</time>
      </trkpt>
      <trkpt lat="42.93918" lon="0.57109">
        <ele>753</ele>
        <time>2019-02-03T15:03:38.000Z</time>
      </trkpt>
      <trkpt lat="42.93918" lon="0.57109">
        <ele>753</ele>
        <time>2019-02-03T15:03:39.000Z</time>
      </trkpt>
      <trkpt lat="42.93919" lon="0.57108">
        <ele>753</ele>
        <time>2019-02-03T15:03:40.000Z</time>
      </trkpt>
      <trkpt lat="42.93919" lon="0.57107">
        <ele>753</ele>
        <time>2019-02-03T15:03:41.000Z</time>
      </trkpt>
      <trkpt lat="42.9392" lon="0.57107">
        <ele>753</ele>
        <time>2019-02-03T15:03:42.000Z</time>
      </trkpt>
      <trkpt lat="42.9392" lon="0.57106">
        <ele>752</ele>
        <time>2019-02-03T15:03:43.000Z</time>
      </trkpt>
      <trkpt lat="42.93921" lon="0.57105">
        <ele>752</ele>
        <time>2019-02-03T15:03:44.000Z</time>
      </trkpt>
      <trkpt lat="42.93922" lon="0.57105">
        <ele>752</ele>
        <time>2019-02-03T15:03:45.000Z</time>
      </trkpt>
      <trkpt lat="42.93922" lon="0.57104">
        <ele>752</ele>
        <time>2019-02-03T15:03:46.000Z</time>
      </trkpt>
      <trkpt lat="42.93923" lon="0.57104">
        <ele>752</ele>
        <time>2019-02-03T15:03:47.000Z</time>
      </trkpt>
      <trkpt lat="42.93924" lon="0.57103">
        <ele>752</ele>
        <time>2019-02-03T15:03:48.000Z</time>
      </trkpt>
      <trkpt lat="42.93925" lon="0.57102">
        <ele>751.5</ele>
        <time>2019-02-03T15:03:49.000Z</time>
      </trkpt>
      <trkpt lat="42.93925" lon="0.57102">
        <ele>751</ele>
        <time>2019-02-03T15:03:50.000Z</time>
      </trkpt>
      <trkpt lat="42.93926" lon="0.57101">
        <ele>751</ele>
        <time>2019-02-03T15:03:51.000Z</time>
      </trkpt>
      <trkpt lat="42.93927" lon="0.571">
        <ele>751</ele>
        <time>2019-02-03T15:03:52.000Z</time>
      </trkpt>
      <trkpt lat="42.93928" lon="0.57099">
        <ele>751</ele>
        <time>2019-02-03T15:03:53.000Z</time>
      </trkpt>
      <trkpt lat="42.93929" lon="0.57098">
        <ele>751</ele>
        <time>2019-02-03T15:03:54.000Z</time>
      </trkpt>
      <trkpt lat="42.9393" lon="0.57097">
        <ele>750</ele>
        <time>2019-02-03T15:03:55.000Z</time>
      </trkpt>
      <trkpt lat="42.93931" lon="0.57096">
        <ele>750</ele>
        <time>2019-02-03T15:03:56.000Z</time>
      </trkpt>
      <trkpt lat="42.93931" lon="0.57095">
        <ele>750</ele>
        <time>2019-02-03T15:03:57.000Z</time>
      </trkpt>
      <trkpt lat="42.93932" lon="0.57094">
        <ele>750</ele>
        <time>2019-02-03T15:03:58.000Z</time>
      </trkpt>
      <trkpt lat="42.93933" lon="0.57092">
        <ele>750</ele>
        <time>2019-02-03T15:03:59.000Z</time>
      </trkpt>
      <trkpt lat="42.93934" lon="0.57091">
        <ele>750</ele>
        <time>2019-02-03T15:04:00.000Z</time>
      </trkpt>
      <trkpt lat="42.93934" lon="0.57089">
        <ele>750</ele>
        <time>2019-02-03T15:04:01.000Z</time>
      </trkpt>
      <trkpt lat="42.93935" lon="0.57088">
        <ele>750</ele>
        <time>2019-02-03T15:04:02.000Z</time>
      </trkpt>
      <trkpt lat="42.93935" lon="0.57086">
        <ele>749.5</ele>
        <time>2019-02-03T15:04:03.000Z</time>
      </trkpt>
      <trkpt lat="42.93935" lon="0.57085">
        <ele>749</ele>
        <time>2019-02-03T15:04:04.000Z</time>
      </trkpt>
      <trkpt lat="42.93936" lon="0.57083">
        <ele>749</ele>
        <time>2019-02-03T15:04:05.000Z</time>
      </trkpt>
      <trkpt lat="42.93936" lon="0.57082">
        <ele>749</ele>
        <time>2019-02-03T15:04:06.000Z</time>
      </trkpt>
      <trkpt lat="42.93936" lon="0.5708">
        <ele>749</ele>
        <time>2019-02-03T15:04:07.000Z</time>
      </trkpt>
      <trkpt lat="42.93936" lon="0.57079">
        <ele>749</ele>
        <time>2019-02-03T15:04:08.000Z</time>
      </trkpt>
      <trkpt lat="42.93937" lon="0.57078">
        <ele>748.5</ele>
        <time>2019-02-03T15:04:09.000Z</time>
      </trkpt>
      <trkpt lat="42.93937" lon="0.57077">
        <ele>748</ele>
        <time>2019-02-03T15:04:10.000Z</time>
      </trkpt>
      <trkpt lat="42.93937" lon="0.57075">
        <ele>748</ele>
        <time>2019-02-03T15:04:11.000Z</time>
      </trkpt>
      <trkpt lat="42.93937" lon="0.57074">
        <ele>748</ele>
        <time>2019-02-03T15:04:12.000Z</time>
      </trkpt>
      <trkpt lat="42.93937" lon="0.57072">
        <ele>748</ele>
        <time>2019-02-03T15:04:13.000Z</time>
      </trkpt>
      <trkpt lat="42.93937" lon="0.5707">
        <ele>748</ele>
        <time>2019-02-03T15:04:14.000Z</time>
      </trkpt>
      <trkpt lat="42.93937" lon="0.57068">
        <ele>748</ele>
        <time>2019-02-03T15:04:15.000Z</time>
      </trkpt>
      <trkpt lat="42.93937" lon="0.57067">
        <ele>748</ele>
        <time>2019-02-03T15:04:16.000Z</time>
      </trkpt>
      <trkpt lat="42.93937" lon="0.57066">
        <ele>747.5</ele>
        <time>2019-02-03T15:04:17.000Z</time>
      </trkpt>
      <trkpt lat="42.93937" lon="0.57065">
        <ele>747</ele>
        <time>2019-02-03T15:04:18.000Z</time>
      </trkpt>
      <trkpt lat="42.93937" lon="0.57063">
        <ele>747</ele>
        <time>2019-02-03T15:04:19.000Z</time>
      </trkpt>
      <trkpt lat="42.93937" lon="0.57062">
        <ele>747</ele>
        <time>2019-02-03T15:04:20.000Z</time>
      </trkpt>
      <trkpt lat="42.93936" lon="0.5706">
        <ele>747</ele>
        <time>2019-02-03T15:04:21.000Z</time>
      </trkpt>
      <trkpt lat="42.93936" lon="0.57059">
        <ele>747</ele>
        <time>2019-02-03T15:04:22.000Z</time>
      </trkpt>
      <trkpt lat="42.93936" lon="0.57058">
        <ele>747</ele>
        <time>2019-02-03T15:04:23.000Z</time>
      </trkpt>
      <trkpt lat="42.93935" lon="0.57056">
        <ele>747</ele>
        <time>2019-02-03T15:04:24.000Z</time>
      </trkpt>
      <trkpt lat="42.93935" lon="0.57055">
        <ele>746.5</ele>
        <time>2019-02-03T15:04:25.000Z</time>
      </trkpt>
      <trkpt lat="42.93935" lon="0.57054">
        <ele>746</ele>
        <time>2019-02-03T15:04:26.000Z</time>
      </trkpt>
      <trkpt lat="42.93934" lon="0.57053">
        <ele>746</ele>
        <time>2019-02-03T15:04:27.000Z</time>
      </trkpt>
      <trkpt lat="42.93934" lon="0.57052">
        <ele>746</ele>
        <time>2019-02-03T15:04:28.000Z</time>
      </trkpt>
      <trkpt lat="42.93934" lon="0.57051">
        <ele>746</ele>
        <time>2019-02-03T15:04:29.000Z</time>
      </trkpt>
      <trkpt lat="42.93933" lon="0.5705">
        <ele>745.7</ele>
        <time>2019-02-03T15:04:30.000Z</time>
      </trkpt>
      <trkpt lat="42.93933" lon="0.57049">
        <ele>745.3</ele>
        <time>2019-02-03T15:04:31.000Z</time>
      </trkpt>
      <trkpt lat="42.93933" lon="0.57049">
        <ele>745</ele>
        <time>2019-02-03T15:04:32.000Z</time>
      </trkpt>
      <trkpt lat="42.93932" lon="0.57048">
        <ele>745</ele>
        <time>2019-02-03T15:04:33.000Z</time>
      </trkpt>
      <trkpt lat="42.93932" lon="0.57047">
        <ele>745</ele>
        <time>2019-02-03T15:04:34.000Z</time>
      </trkpt>
      <trkpt lat="42.93932" lon="0.57046">
        <ele>745</ele>
        <time>2019-02-03T15:04:35.000Z</time>
      </trkpt>
      <trkpt lat="42.93932" lon="0.57045">
        <ele>745</ele>
        <time>2019-02-03T15:04:36.000Z</time>
      </trkpt>
      <trkpt lat="42.93931" lon="0.57044">
        <ele>745</ele>
        <time>2019-02-03T15:04:37.000Z</time>
      </trkpt>
      <trkpt lat="42.93931" lon="0.57043">
        <ele>744.7</ele>
        <time>2019-02-03T15:04:38.000Z</time>
      </trkpt>
      <trkpt lat="42.93931" lon="0.57042">
        <ele>744.3</ele>
        <time>2019-02-03T15:04:39.000Z</time>
      </trkpt>
      <trkpt lat="42.93931" lon="0.57041">
        <ele>744</ele>
        <time>2019-02-03T15:04:40.000Z</time>
      </trkpt>
      <trkpt lat="42.93931" lon="0.57041">
        <ele>744</ele>
        <time>2019-02-03T15:04:41.000Z</time>
      </trkpt>
      <trkpt lat="42.93931" lon="0.57039">
        <ele>744</ele>
        <time>2019-02-03T15:04:42.000Z</time>
      </trkpt>
      <trkpt lat="42.93931" lon="0.57038">
        <ele>744</ele>
        <time>2019-02-03T15:04:43.000Z</time>
      </trkpt>
      <trkpt lat="42.93931" lon="0.57037">
        <ele>744</ele>
        <time>2019-02-03T15:04:44.000Z</time>
      </trkpt>
      <trkpt lat="42.93931" lon="0.57036">
        <ele>744</ele>
        <time>2019-02-03T15:04:45.000Z</time>
      </trkpt>
      <trkpt lat="42.93931" lon="0.57035">
        <ele>744</ele>
        <time>2019-02-03T15:04:46.000Z</time>
      </trkpt>
      <trkpt lat="42.93931" lon="0.57034">
        <ele>744</ele>
        <time>2019-02-03T15:04:47.000Z</time>
      </trkpt>
      <trkpt lat="42.93931" lon="0.57033">
        <ele>744</ele>
        <time>2019-02-03T15:04:48.000Z</time>
      </trkpt>
      <trkpt lat="42.93931" lon="0.57032">
        <ele>743.5</ele>
        <time>2019-02-03T15:04:49.000Z</time>
      </trkpt>
      <trkpt lat="42.93931" lon="0.57031">
        <ele>743</ele>
        <time>2019-02-03T15:04:50.000Z</time>
      </trkpt>
      <trkpt lat="42.9393" lon="0.57029">
        <ele>743</ele>
        <time>2019-02-03T15:04:51.000Z</time>
      </trkpt>
      <trkpt lat="42.9393" lon="0.57028">
        <ele>743</ele>
        <time>2019-02-03T15:04:52.000Z</time>
      </trkpt>
      <trkpt lat="42.93929" lon="0.57027">
        <ele>743</ele>
        <time>2019-02-03T15:04:53.000Z</time>
      </trkpt>
      <trkpt lat="42.93929" lon="0.57025">
        <ele>743</ele>
        <time>2019-02-03T15:04:54.000Z</time>
      </trkpt>
      <trkpt lat="42.93928" lon="0.57024">
        <ele>743</ele>
        <time>2019-02-03T15:04:55.000Z</time>
      </trkpt>
      <trkpt lat="42.93928" lon="0.57022">
        <ele>743</ele>
        <time>2019-02-03T15:04:56.000Z</time>
      </trkpt>
      <trkpt lat="42.93927" lon="0.57021">
        <ele>743</ele>
        <time>2019-02-03T15:04:57.000Z</time>
      </trkpt>
      <trkpt lat="42.93927" lon="0.57019">
        <ele>743</ele>
        <time>2019-02-03T15:04:58.000Z</time>
      </trkpt>
      <trkpt lat="42.93926" lon="0.57018">
        <ele>742.5</ele>
        <time>2019-02-03T15:04:59.000Z</time>
      </trkpt>
      <trkpt lat="42.93926" lon="0.57016">
        <ele>742</ele>
        <time>2019-02-03T15:05:00.000Z</time>
      </trkpt>
      <trkpt lat="42.93925" lon="0.57014">
        <ele>742</ele>
        <time>2019-02-03T15:05:01.000Z</time>
      </trkpt>
      <trkpt lat="42.93924" lon="0.57013">
        <ele>742</ele>
        <time>2019-02-03T15:05:02.000Z</time>
      </trkpt>
      <trkpt lat="42.93924" lon="0.57012">
        <ele>742</ele>
        <time>2019-02-03T15:05:03.000Z</time>
      </trkpt>
      <trkpt lat="42.93923" lon="0.5701">
        <ele>742</ele>
        <time>2019-02-03T15:05:04.000Z</time>
      </trkpt>
      <trkpt lat="42.93923" lon="0.57009">
        <ele>741</ele>
        <time>2019-02-03T15:05:05.000Z</time>
      </trkpt>
      <trkpt lat="42.93922" lon="0.57008">
        <ele>741</ele>
        <time>2019-02-03T15:05:06.000Z</time>
      </trkpt>
      <trkpt lat="42.93922" lon="0.57007">
        <ele>741</ele>
        <time>2019-02-03T15:05:07.000Z</time>
      </trkpt>
      <trkpt lat="42.93921" lon="0.57005">
        <ele>741</ele>
        <time>2019-02-03T15:05:08.000Z</time>
      </trkpt>
      <trkpt lat="42.93921" lon="0.57004">
        <ele>741</ele>
        <time>2019-02-03T15:05:09.000Z</time>
      </trkpt>
      <trkpt lat="42.9392" lon="0.57002">
        <ele>741</ele>
        <time>2019-02-03T15:05:10.000Z</time>
      </trkpt>
      <trkpt lat="42.9392" lon="0.57001">
        <ele>740.5</ele>
        <time>2019-02-03T15:05:11.000Z</time>
      </trkpt>
      <trkpt lat="42.93919" lon="0.56999">
        <ele>740</ele>
        <time>2019-02-03T15:05:12.000Z</time>
      </trkpt>
      <trkpt lat="42.93919" lon="0.56997">
        <ele>740</ele>
        <time>2019-02-03T15:05:13.000Z</time>
      </trkpt>
      <trkpt lat="42.93918" lon="0.56995">
        <ele>740</ele>
        <time>2019-02-03T15:05:14.000Z</time>
      </trkpt>
      <trkpt lat="42.93918" lon="0.56993">
        <ele>740</ele>
        <time>2019-02-03T15:05:15.000Z</time>
      </trkpt>
      <trkpt lat="42.93918" lon="0.56992">
        <ele>740</ele>
        <time>2019-02-03T15:05:16.000Z</time>
      </trkpt>
      <trkpt lat="42.93917" lon="0.5699">
        <ele>740</ele>
        <time>2019-02-03T15:05:17.000Z</time>
      </trkpt>
      <trkpt lat="42.93917" lon="0.56989">
        <ele>740</ele>
        <time>2019-02-03T15:05:18.000Z</time>
      </trkpt>
      <trkpt lat="42.93916" lon="0.56987">
        <ele>740</ele>
        <time>2019-02-03T15:05:19.000Z</time>
      </trkpt>
      <trkpt lat="42.93916" lon="0.56986">
        <ele>740</ele>
        <time>2019-02-03T15:05:20.000Z</time>
      </trkpt>
      <trkpt lat="42.93916" lon="0.56984">
        <ele>740</ele>
        <time>2019-02-03T15:05:21.000Z</time>
      </trkpt>
      <trkpt lat="42.93915" lon="0.56982">
        <ele>739.7</ele>
        <time>2019-02-03T15:05:22.000Z</time>
      </trkpt>
      <trkpt lat="42.93915" lon="0.5698">
        <ele>739.3</ele>
        <time>2019-02-03T15:05:23.000Z</time>
      </trkpt>
      <trkpt lat="42.93915" lon="0.56978">
        <ele>739</ele>
        <time>2019-02-03T15:05:24.000Z</time>
      </trkpt>
      <trkpt lat="42.93915" lon="0.56977">
        <ele>739</ele>
        <time>2019-02-03T15:05:25.000Z</time>
      </trkpt>
      <trkpt lat="42.93914" lon="0.56976">
        <ele>739</ele>
        <time>2019-02-03T15:05:26.000Z</time>
      </trkpt>
      <trkpt lat="42.93914" lon="0.56975">
        <ele>739</ele>
        <time>2019-02-03T15:05:27.000Z</time>
      </trkpt>
      <trkpt lat="42.93914" lon="0.56973">
        <ele>739</ele>
        <time>2019-02-03T15:05:28.000Z</time>
      </trkpt>
      <trkpt lat="42.93914" lon="0.56972">
        <ele>739</ele>
        <time>2019-02-03T15:05:29.000Z</time>
      </trkpt>
      <trkpt lat="42.93914" lon="0.56971">
        <ele>739</ele>
        <time>2019-02-03T15:05:30.000Z</time>
      </trkpt>
      <trkpt lat="42.93914" lon="0.5697">
        <ele>738</ele>
        <time>2019-02-03T15:05:31.000Z</time>
      </trkpt>
      <trkpt lat="42.93914" lon="0.56968">
        <ele>738</ele>
        <time>2019-02-03T15:05:32.000Z</time>
      </trkpt>
      <trkpt lat="42.93914" lon="0.56967">
        <ele>738</ele>
        <time>2019-02-03T15:05:33.000Z</time>
      </trkpt>
      <trkpt lat="42.93914" lon="0.56965">
        <ele>738</ele>
        <time>2019-02-03T15:05:34.000Z</time>
      </trkpt>
      <trkpt lat="42.93913" lon="0.56963">
        <ele>738</ele>
        <time>2019-02-03T15:05:35.000Z</time>
      </trkpt>
      <trkpt lat="42.93913" lon="0.56961">
        <ele>738</ele>
        <time>2019-02-03T15:05:36.000Z</time>
      </trkpt>
      <trkpt lat="42.93912" lon="0.56959">
        <ele>738</ele>
        <time>2019-02-03T15:05:37.000Z</time>
      </trkpt>
      <trkpt lat="42.93912" lon="0.56957">
        <ele>738</ele>
        <time>2019-02-03T15:05:38.000Z</time>
      </trkpt>
      <trkpt lat="42.93912" lon="0.56955">
        <ele>738</ele>
        <time>2019-02-03T15:05:39.000Z</time>
      </trkpt>
      <trkpt lat="42.93912" lon="0.56953">
        <ele>738</ele>
        <time>2019-02-03T15:05:40.000Z</time>
      </trkpt>
      <trkpt lat="42.93912" lon="0.56952">
        <ele>737.5</ele>
        <time>2019-02-03T15:05:41.000Z</time>
      </trkpt>
      <trkpt lat="42.93911" lon="0.5695">
        <ele>737</ele>
        <time>2019-02-03T15:05:42.000Z</time>
      </trkpt>
      <trkpt lat="42.93911" lon="0.56949">
        <ele>737</ele>
        <time>2019-02-03T15:05:43.000Z</time>
      </trkpt>
      <trkpt lat="42.93911" lon="0.56947">
        <ele>737</ele>
        <time>2019-02-03T15:05:44.000Z</time>
      </trkpt>
      <trkpt lat="42.93911" lon="0.56945">
        <ele>737</ele>
        <time>2019-02-03T15:05:45.000Z</time>
      </trkpt>
      <trkpt lat="42.93911" lon="0.56944">
        <ele>736.7</ele>
        <time>2019-02-03T15:05:46.000Z</time>
      </trkpt>
      <trkpt lat="42.93911" lon="0.56942">
        <ele>736.3</ele>
        <time>2019-02-03T15:05:47.000Z</time>
      </trkpt>
      <trkpt lat="42.93911" lon="0.5694">
        <ele>736</ele>
        <time>2019-02-03T15:05:48.000Z</time>
      </trkpt>
      <trkpt lat="42.93911" lon="0.56938">
        <ele>736</ele>
        <time>2019-02-03T15:05:49.000Z</time>
      </trkpt>
      <trkpt lat="42.93911" lon="0.56937">
        <ele>736</ele>
        <time>2019-02-03T15:05:50.000Z</time>
      </trkpt>
      <trkpt lat="42.9391" lon="0.56935">
        <ele>735</ele>
        <time>2019-02-03T15:05:51.000Z</time>
      </trkpt>
      <trkpt lat="42.9391" lon="0.56933">
        <ele>735</ele>
        <time>2019-02-03T15:05:52.000Z</time>
      </trkpt>
      <trkpt lat="42.9391" lon="0.56932">
        <ele>735</ele>
        <time>2019-02-03T15:05:53.000Z</time>
      </trkpt>
      <trkpt lat="42.93909" lon="0.5693">
        <ele>735</ele>
        <time>2019-02-03T15:05:54.000Z</time>
      </trkpt>
      <trkpt lat="42.93909" lon="0.56929">
        <ele>735</ele>
        <time>2019-02-03T15:05:55.000Z</time>
      </trkpt>
      <trkpt lat="42.93909" lon="0.56927">
        <ele>734.5</ele>
        <time>2019-02-03T15:05:56.000Z</time>
      </trkpt>
      <trkpt lat="42.93908" lon="0.56926">
        <ele>734</ele>
        <time>2019-02-03T15:05:57.000Z</time>
      </trkpt>
      <trkpt lat="42.93908" lon="0.56924">
        <ele>734</ele>
        <time>2019-02-03T15:05:58.000Z</time>
      </trkpt>
      <trkpt lat="42.93908" lon="0.56923">
        <ele>734</ele>
        <time>2019-02-03T15:05:59.000Z</time>
      </trkpt>
      <trkpt lat="42.93908" lon="0.56921">
        <ele>734</ele>
        <time>2019-02-03T15:06:00.000Z</time>
      </trkpt>
      <trkpt lat="42.93908" lon="0.5692">
        <ele>733.5</ele>
        <time>2019-02-03T15:06:01.000Z</time>
      </trkpt>
      <trkpt lat="42.93907" lon="0.56918">
        <ele>733</ele>
        <time>2019-02-03T15:06:02.000Z</time>
      </trkpt>
      <trkpt lat="42.93907" lon="0.56917">
        <ele>733</ele>
        <time>2019-02-03T15:06:03.000Z</time>
      </trkpt>
      <trkpt lat="42.93907" lon="0.56915">
        <ele>733</ele>
        <time>2019-02-03T15:06:04.000Z</time>
      </trkpt>
      <trkpt lat="42.93907" lon="0.56914">
        <ele>733</ele>
        <time>2019-02-03T15:06:05.000Z</time>
      </trkpt>
      <trkpt lat="42.93907" lon="0.56913">
        <ele>733</ele>
        <time>2019-02-03T15:06:06.000Z</time>
      </trkpt>
      <trkpt lat="42.93907" lon="0.56912">
        <ele>733</ele>
        <time>2019-02-03T15:06:07.000Z</time>
      </trkpt>
      <trkpt lat="42.93907" lon="0.56911">
        <ele>733</ele>
        <time>2019-02-03T15:06:08.000Z</time>
      </trkpt>
      <trkpt lat="42.93907" lon="0.5691">
        <ele>733</ele>
        <time>2019-02-03T15:06:09.000Z</time>
      </trkpt>
      <trkpt lat="42.93907" lon="0.56909">
        <ele>733</ele>
        <time>2019-02-03T15:06:10.000Z</time>
      </trkpt>
      <trkpt lat="42.93906" lon="0.56907">
        <ele>733</ele>
        <time>2019-02-03T15:06:11.000Z</time>
      </trkpt>
      <trkpt lat="42.93906" lon="0.56906">
        <ele>733</ele>
        <time>2019-02-03T15:06:12.000Z</time>
      </trkpt>
      <trkpt lat="42.93906" lon="0.56905">
        <ele>733</ele>
        <time>2019-02-03T15:06:13.000Z</time>
      </trkpt>
      <trkpt lat="42.93906" lon="0.56903">
        <ele>732.7</ele>
        <time>2019-02-03T15:06:14.000Z</time>
      </trkpt>
      <trkpt lat="42.93906" lon="0.56902">
        <ele>732.3</ele>
        <time>2019-02-03T15:06:15.000Z</time>
      </trkpt>
      <trkpt lat="42.93906" lon="0.569">
        <ele>732</ele>
        <time>2019-02-03T15:06:16.000Z</time>
      </trkpt>
      <trkpt lat="42.93906" lon="0.56899">
        <ele>732</ele>
        <time>2019-02-03T15:06:17.000Z</time>
      </trkpt>
      <trkpt lat="42.93905" lon="0.56897">
        <ele>732</ele>
        <time>2019-02-03T15:06:18.000Z</time>
      </trkpt>
      <trkpt lat="42.93905" lon="0.56895">
        <ele>732</ele>
        <time>2019-02-03T15:06:19.000Z</time>
      </trkpt>
      <trkpt lat="42.93905" lon="0.56894">
        <ele>732</ele>
        <time>2019-02-03T15:06:20.000Z</time>
      </trkpt>
      <trkpt lat="42.93904" lon="0.56892">
        <ele>732</ele>
        <time>2019-02-03T15:06:21.000Z</time>
      </trkpt>
      <trkpt lat="42.93904" lon="0.5689">
        <ele>731.7</ele>
        <time>2019-02-03T15:06:22.000Z</time>
      </trkpt>
      <trkpt lat="42.93904" lon="0.56889">
        <ele>731.3</ele>
        <time>2019-02-03T15:06:23.000Z</time>
      </trkpt>
      <trkpt lat="42.93903" lon="0.56887">
        <ele>731</ele>
        <time>2019-02-03T15:06:24.000Z</time>
      </trkpt>
      <trkpt lat="42.93903" lon="0.56885">
        <ele>731</ele>
        <time>2019-02-03T15:06:25.000Z</time>
      </trkpt>
      <trkpt lat="42.93903" lon="0.56884">
        <ele>731</ele>
        <time>2019-02-03T15:06:26.000Z</time>
      </trkpt>
      <trkpt lat="42.93902" lon="0.56882">
        <ele>731</ele>
        <time>2019-02-03T15:06:27.000Z</time>
      </trkpt>
      <trkpt lat="42.93902" lon="0.5688">
        <ele>731</ele>
        <time>2019-02-03T15:06:28.000Z</time>
      </trkpt>
      <trkpt lat="42.93901" lon="0.56879">
        <ele>730.5</ele>
        <time>2019-02-03T15:06:29.000Z</time>
      </trkpt>
      <trkpt lat="42.93901" lon="0.56877">
        <ele>730</ele>
        <time>2019-02-03T15:06:30.000Z</time>
      </trkpt>
      <trkpt lat="42.93901" lon="0.56875">
        <ele>730</ele>
        <time>2019-02-03T15:06:31.000Z</time>
      </trkpt>
      <trkpt lat="42.939" lon="0.56874">
        <ele>730</ele>
        <time>2019-02-03T15:06:32.000Z</time>
      </trkpt>
      <trkpt lat="42.939" lon="0.56872">
        <ele>730</ele>
        <time>2019-02-03T15:06:33.000Z</time>
      </trkpt>
      <trkpt lat="42.939" lon="0.5687">
        <ele>729.7</ele>
        <time>2019-02-03T15:06:34.000Z</time>
      </trkpt>
      <trkpt lat="42.93899" lon="0.56869">
        <ele>729.3</ele>
        <time>2019-02-03T15:06:35.000Z</time>
      </trkpt>
      <trkpt lat="42.93899" lon="0.56867">
        <ele>729</ele>
        <time>2019-02-03T15:06:36.000Z</time>
      </trkpt>
      <trkpt lat="42.93898" lon="0.56865">
        <ele>729</ele>
        <time>2019-02-03T15:06:37.000Z</time>
      </trkpt>
      <trkpt lat="42.93898" lon="0.56864">
        <ele>729</ele>
        <time>2019-02-03T15:06:38.000Z</time>
      </trkpt>
      <trkpt lat="42.93898" lon="0.56862">
        <ele>729</ele>
        <time>2019-02-03T15:06:39.000Z</time>
      </trkpt>
      <trkpt lat="42.93897" lon="0.56861">
        <ele>729</ele>
        <time>2019-02-03T15:06:40.000Z</time>
      </trkpt>
      <trkpt lat="42.93897" lon="0.56859">
        <ele>729</ele>
        <time>2019-02-03T15:06:41.000Z</time>
      </trkpt>
      <trkpt lat="42.93897" lon="0.56858">
        <ele>729</ele>
        <time>2019-02-03T15:06:42.000Z</time>
      </trkpt>
      <trkpt lat="42.93897" lon="0.56856">
        <ele>729</ele>
        <time>2019-02-03T15:06:43.000Z</time>
      </trkpt>
      <trkpt lat="42.93897" lon="0.56855">
        <ele>729</ele>
        <time>2019-02-03T15:06:44.000Z</time>
      </trkpt>
      <trkpt lat="42.93897" lon="0.56854">
        <ele>729</ele>
        <time>2019-02-03T15:06:45.000Z</time>
      </trkpt>
      <trkpt lat="42.93896" lon="0.56852">
        <ele>729</ele>
        <time>2019-02-03T15:06:46.000Z</time>
      </trkpt>
      <trkpt lat="42.93896" lon="0.56851">
        <ele>729</ele>
        <time>2019-02-03T15:06:47.000Z</time>
      </trkpt>
      <trkpt lat="42.93896" lon="0.5685">
        <ele>729</ele>
        <time>2019-02-03T15:06:48.000Z</time>
      </trkpt>
      <trkpt lat="42.93896" lon="0.56848">
        <ele>728.5</ele>
        <time>2019-02-03T15:06:49.000Z</time>
      </trkpt>
      <trkpt lat="42.93895" lon="0.56846">
        <ele>728</ele>
        <time>2019-02-03T15:06:50.000Z</time>
      </trkpt>
      <trkpt lat="42.93895" lon="0.56845">
        <ele>728</ele>
        <time>2019-02-03T15:06:51.000Z</time>
      </trkpt>
      <trkpt lat="42.93894" lon="0.56843">
        <ele>727.7</ele>
        <time>2019-02-03T15:06:52.000Z</time>
      </trkpt>
      <trkpt lat="42.93894" lon="0.56841">
        <ele>727.3</ele>
        <time>2019-02-03T15:06:53.000Z</time>
      </trkpt>
      <trkpt lat="42.93894" lon="0.56839">
        <ele>727</ele>
        <time>2019-02-03T15:06:54.000Z</time>
      </trkpt>
      <trkpt lat="42.93893" lon="0.56838">
        <ele>727</ele>
        <time>2019-02-03T15:06:55.000Z</time>
      </trkpt>
      <trkpt lat="42.93893" lon="0.56837">
        <ele>727</ele>
        <time>2019-02-03T15:06:56.000Z</time>
      </trkpt>
      <trkpt lat="42.93892" lon="0.56835">
        <ele>727</ele>
        <time>2019-02-03T15:06:57.000Z</time>
      </trkpt>
      <trkpt lat="42.93892" lon="0.56834">
        <ele>727</ele>
        <time>2019-02-03T15:06:58.000Z</time>
      </trkpt>
      <trkpt lat="42.93892" lon="0.56833">
        <ele>726.5</ele>
        <time>2019-02-03T15:06:59.000Z</time>
      </trkpt>
      <trkpt lat="42.93891" lon="0.56831">
        <ele>726</ele>
        <time>2019-02-03T15:07:00.000Z</time>
      </trkpt>
      <trkpt lat="42.93891" lon="0.5683">
        <ele>726</ele>
        <time>2019-02-03T15:07:01.000Z</time>
      </trkpt>
      <trkpt lat="42.9389" lon="0.56829">
        <ele>726</ele>
        <time>2019-02-03T15:07:02.000Z</time>
      </trkpt>
      <trkpt lat="42.9389" lon="0.56828">
        <ele>726</ele>
        <time>2019-02-03T15:07:03.000Z</time>
      </trkpt>
      <trkpt lat="42.9389" lon="0.56827">
        <ele>726</ele>
        <time>2019-02-03T15:07:04.000Z</time>
      </trkpt>
      <trkpt lat="42.93889" lon="0.56826">
        <ele>726</ele>
        <time>2019-02-03T15:07:05.000Z</time>
      </trkpt>
      <trkpt lat="42.93889" lon="0.56824">
        <ele>726</ele>
        <time>2019-02-03T15:07:06.000Z</time>
      </trkpt>
      <trkpt lat="42.93888" lon="0.56823">
        <ele>726</ele>
        <time>2019-02-03T15:07:07.000Z</time>
      </trkpt>
      <trkpt lat="42.93888" lon="0.56822">
        <ele>725.7</ele>
        <time>2019-02-03T15:07:08.000Z</time>
      </trkpt>
      <trkpt lat="42.93888" lon="0.5682">
        <ele>725.3</ele>
        <time>2019-02-03T15:07:09.000Z</time>
      </trkpt>
      <trkpt lat="42.93887" lon="0.56819">
        <ele>725</ele>
        <time>2019-02-03T15:07:10.000Z</time>
      </trkpt>
      <trkpt lat="42.93887" lon="0.56818">
        <ele>725</ele>
        <time>2019-02-03T15:07:11.000Z</time>
      </trkpt>
      <trkpt lat="42.93887" lon="0.56816">
        <ele>725</ele>
        <time>2019-02-03T15:07:12.000Z</time>
      </trkpt>
      <trkpt lat="42.93886" lon="0.56815">
        <ele>724</ele>
        <time>2019-02-03T15:07:13.000Z</time>
      </trkpt>
      <trkpt lat="42.93886" lon="0.56813">
        <ele>724</ele>
        <time>2019-02-03T15:07:14.000Z</time>
      </trkpt>
      <trkpt lat="42.93885" lon="0.56812">
        <ele>724</ele>
        <time>2019-02-03T15:07:15.000Z</time>
      </trkpt>
      <trkpt lat="42.93885" lon="0.5681">
        <ele>724</ele>
        <time>2019-02-03T15:07:16.000Z</time>
      </trkpt>
      <trkpt lat="42.93884" lon="0.56808">
        <ele>724</ele>
        <time>2019-02-03T15:07:17.000Z</time>
      </trkpt>
      <trkpt lat="42.93883" lon="0.56805">
        <ele>724</ele>
        <time>2019-02-03T15:07:18.000Z</time>
      </trkpt>
      <trkpt lat="42.93883" lon="0.56803">
        <ele>723</ele>
        <time>2019-02-03T15:07:19.000Z</time>
      </trkpt>
      <trkpt lat="42.93882" lon="0.56802">
        <ele>723</ele>
        <time>2019-02-03T15:07:20.000Z</time>
      </trkpt>
      <trkpt lat="42.93881" lon="0.568">
        <ele>723</ele>
        <time>2019-02-03T15:07:21.000Z</time>
      </trkpt>
      <trkpt lat="42.9388" lon="0.56798">
        <ele>723</ele>
        <time>2019-02-03T15:07:22.000Z</time>
      </trkpt>
      <trkpt lat="42.93879" lon="0.56797">
        <ele>722.5</ele>
        <time>2019-02-03T15:07:23.000Z</time>
      </trkpt>
      <trkpt lat="42.93879" lon="0.56796">
        <ele>722</ele>
        <time>2019-02-03T15:07:24.000Z</time>
      </trkpt>
      <trkpt lat="42.93878" lon="0.56794">
        <ele>722</ele>
        <time>2019-02-03T15:07:25.000Z</time>
      </trkpt>
      <trkpt lat="42.93877" lon="0.56793">
        <ele>721.7</ele>
        <time>2019-02-03T15:07:26.000Z</time>
      </trkpt>
      <trkpt lat="42.93877" lon="0.56792">
        <ele>721.3</ele>
        <time>2019-02-03T15:07:27.000Z</time>
      </trkpt>
      <trkpt lat="42.93876" lon="0.56791">
        <ele>721</ele>
        <time>2019-02-03T15:07:28.000Z</time>
      </trkpt>
      <trkpt lat="42.93876" lon="0.5679">
        <ele>721</ele>
        <time>2019-02-03T15:07:29.000Z</time>
      </trkpt>
      <trkpt lat="42.93875" lon="0.56788">
        <ele>721</ele>
        <time>2019-02-03T15:07:30.000Z</time>
      </trkpt>
      <trkpt lat="42.93874" lon="0.56787">
        <ele>720</ele>
        <time>2019-02-03T15:07:31.000Z</time>
      </trkpt>
      <trkpt lat="42.93873" lon="0.56785">
        <ele>720</ele>
        <time>2019-02-03T15:07:32.000Z</time>
      </trkpt>
      <trkpt lat="42.93872" lon="0.56784">
        <ele>720</ele>
        <time>2019-02-03T15:07:33.000Z</time>
      </trkpt>
      <trkpt lat="42.93871" lon="0.56782">
        <ele>720</ele>
        <time>2019-02-03T15:07:34.000Z</time>
      </trkpt>
      <trkpt lat="42.9387" lon="0.56781">
        <ele>720</ele>
        <time>2019-02-03T15:07:35.000Z</time>
      </trkpt>
      <trkpt lat="42.93869" lon="0.56779">
        <ele>720</ele>
        <time>2019-02-03T15:07:36.000Z</time>
      </trkpt>
      <trkpt lat="42.93869" lon="0.56778">
        <ele>720</ele>
        <time>2019-02-03T15:07:37.000Z</time>
      </trkpt>
      <trkpt lat="42.93868" lon="0.56777">
        <ele>720</ele>
        <time>2019-02-03T15:07:38.000Z</time>
      </trkpt>
      <trkpt lat="42.93867" lon="0.56776">
        <ele>720</ele>
        <time>2019-02-03T15:07:39.000Z</time>
      </trkpt>
      <trkpt lat="42.93867" lon="0.56776">
        <ele>720</ele>
        <time>2019-02-03T15:07:40.000Z</time>
      </trkpt>
      <trkpt lat="42.93866" lon="0.56775">
        <ele>719.5</ele>
        <time>2019-02-03T15:07:41.000Z</time>
      </trkpt>
      <trkpt lat="42.93865" lon="0.56774">
        <ele>719</ele>
        <time>2019-02-03T15:07:42.000Z</time>
      </trkpt>
      <trkpt lat="42.93864" lon="0.56772">
        <ele>719</ele>
        <time>2019-02-03T15:07:43.000Z</time>
      </trkpt>
      <trkpt lat="42.93863" lon="0.56771">
        <ele>719</ele>
        <time>2019-02-03T15:07:44.000Z</time>
      </trkpt>
      <trkpt lat="42.93863" lon="0.56769">
        <ele>719</ele>
        <time>2019-02-03T15:07:45.000Z</time>
      </trkpt>
      <trkpt lat="42.93862" lon="0.56768">
        <ele>719</ele>
        <time>2019-02-03T15:07:46.000Z</time>
      </trkpt>
      <trkpt lat="42.93861" lon="0.56766">
        <ele>719</ele>
        <time>2019-02-03T15:07:47.000Z</time>
      </trkpt>
      <trkpt lat="42.9386" lon="0.56765">
        <ele>719</ele>
        <time>2019-02-03T15:07:48.000Z</time>
      </trkpt>
      <trkpt lat="42.93859" lon="0.56763">
        <ele>718.5</ele>
        <time>2019-02-03T15:07:49.000Z</time>
      </trkpt>
      <trkpt lat="42.93859" lon="0.56762">
        <ele>718</ele>
        <time>2019-02-03T15:07:50.000Z</time>
      </trkpt>
      <trkpt lat="42.93858" lon="0.5676">
        <ele>718</ele>
        <time>2019-02-03T15:07:51.000Z</time>
      </trkpt>
      <trkpt lat="42.93857" lon="0.56759">
        <ele>718</ele>
        <time>2019-02-03T15:07:52.000Z</time>
      </trkpt>
      <trkpt lat="42.93856" lon="0.56757">
        <ele>718</ele>
        <time>2019-02-03T15:07:53.000Z</time>
      </trkpt>
      <trkpt lat="42.93856" lon="0.56756">
        <ele>718</ele>
        <time>2019-02-03T15:07:54.000Z</time>
      </trkpt>
      <trkpt lat="42.93855" lon="0.56755">
        <ele>718</ele>
        <time>2019-02-03T15:07:55.000Z</time>
      </trkpt>
      <trkpt lat="42.93854" lon="0.56753">
        <ele>718</ele>
        <time>2019-02-03T15:07:56.000Z</time>
      </trkpt>
      <trkpt lat="42.93853" lon="0.56752">
        <ele>718</ele>
        <time>2019-02-03T15:07:57.000Z</time>
      </trkpt>
      <trkpt lat="42.93853" lon="0.56751">
        <ele>718</ele>
        <time>2019-02-03T15:07:58.000Z</time>
      </trkpt>
      <trkpt lat="42.93852" lon="0.56749">
        <ele>717.5</ele>
        <time>2019-02-03T15:07:59.000Z</time>
      </trkpt>
      <trkpt lat="42.93851" lon="0.56748">
        <ele>717</ele>
        <time>2019-02-03T15:08:00.000Z</time>
      </trkpt>
      <trkpt lat="42.93851" lon="0.56747">
        <ele>717</ele>
        <time>2019-02-03T15:08:01.000Z</time>
      </trkpt>
      <trkpt lat="42.9385" lon="0.56745">
        <ele>717</ele>
        <time>2019-02-03T15:08:02.000Z</time>
      </trkpt>
      <trkpt lat="42.93849" lon="0.56744">
        <ele>717</ele>
        <time>2019-02-03T15:08:03.000Z</time>
      </trkpt>
      <trkpt lat="42.93849" lon="0.56742">
        <ele>717</ele>
        <time>2019-02-03T15:08:04.000Z</time>
      </trkpt>
      <trkpt lat="42.93848" lon="0.56741">
        <ele>717</ele>
        <time>2019-02-03T15:08:05.000Z</time>
      </trkpt>
      <trkpt lat="42.93847" lon="0.5674">
        <ele>717</ele>
        <time>2019-02-03T15:08:06.000Z</time>
      </trkpt>
      <trkpt lat="42.93847" lon="0.56738">
        <ele>717</ele>
        <time>2019-02-03T15:08:07.000Z</time>
      </trkpt>
      <trkpt lat="42.93846" lon="0.56737">
        <ele>716.7</ele>
        <time>2019-02-03T15:08:08.000Z</time>
      </trkpt>
      <trkpt lat="42.93845" lon="0.56736">
        <ele>716.3</ele>
        <time>2019-02-03T15:08:09.000Z</time>
      </trkpt>
      <trkpt lat="42.93845" lon="0.56735">
        <ele>716</ele>
        <time>2019-02-03T15:08:10.000Z</time>
      </trkpt>
      <trkpt lat="42.93844" lon="0.56734">
        <ele>716</ele>
        <time>2019-02-03T15:08:11.000Z</time>
      </trkpt>
      <trkpt lat="42.93844" lon="0.56732">
        <ele>716</ele>
        <time>2019-02-03T15:08:12.000Z</time>
      </trkpt>
      <trkpt lat="42.93843" lon="0.56731">
        <ele>716</ele>
        <time>2019-02-03T15:08:13.000Z</time>
      </trkpt>
      <trkpt lat="42.93842" lon="0.5673">
        <ele>716</ele>
        <time>2019-02-03T15:08:14.000Z</time>
      </trkpt>
      <trkpt lat="42.93841" lon="0.56729">
        <ele>716</ele>
        <time>2019-02-03T15:08:15.000Z</time>
      </trkpt>
      <trkpt lat="42.93841" lon="0.56727">
        <ele>716</ele>
        <time>2019-02-03T15:08:16.000Z</time>
      </trkpt>
      <trkpt lat="42.9384" lon="0.56726">
        <ele>716</ele>
        <time>2019-02-03T15:08:17.000Z</time>
      </trkpt>
      <trkpt lat="42.93839" lon="0.56724">
        <ele>715.7</ele>
        <time>2019-02-03T15:08:18.000Z</time>
      </trkpt>
      <trkpt lat="42.93838" lon="0.56723">
        <ele>715.3</ele>
        <time>2019-02-03T15:08:19.000Z</time>
      </trkpt>
      <trkpt lat="42.93837" lon="0.56721">
        <ele>715</ele>
        <time>2019-02-03T15:08:20.000Z</time>
      </trkpt>
      <trkpt lat="42.93836" lon="0.5672">
        <ele>715</ele>
        <time>2019-02-03T15:08:21.000Z</time>
      </trkpt>
      <trkpt lat="42.93835" lon="0.56719">
        <ele>715</ele>
        <time>2019-02-03T15:08:22.000Z</time>
      </trkpt>
      <trkpt lat="42.93834" lon="0.56718">
        <ele>715</ele>
        <time>2019-02-03T15:08:23.000Z</time>
      </trkpt>
      <trkpt lat="42.93833" lon="0.56716">
        <ele>715</ele>
        <time>2019-02-03T15:08:24.000Z</time>
      </trkpt>
      <trkpt lat="42.93833" lon="0.56715">
        <ele>715</ele>
        <time>2019-02-03T15:08:25.000Z</time>
      </trkpt>
      <trkpt lat="42.93832" lon="0.56714">
        <ele>715</ele>
        <time>2019-02-03T15:08:26.000Z</time>
      </trkpt>
      <trkpt lat="42.93831" lon="0.56712">
        <ele>715</ele>
        <time>2019-02-03T15:08:27.000Z</time>
      </trkpt>
      <trkpt lat="42.9383" lon="0.56711">
        <ele>715</ele>
        <time>2019-02-03T15:08:28.000Z</time>
      </trkpt>
      <trkpt lat="42.93829" lon="0.56709">
        <ele>715</ele>
        <time>2019-02-03T15:08:29.000Z</time>
      </trkpt>
      <trkpt lat="42.93828" lon="0.56707">
        <ele>714.7</ele>
        <time>2019-02-03T15:08:30.000Z</time>
      </trkpt>
      <trkpt lat="42.93827" lon="0.56706">
        <ele>714.3</ele>
        <time>2019-02-03T15:08:31.000Z</time>
      </trkpt>
      <trkpt lat="42.93827" lon="0.56705">
        <ele>714</ele>
        <time>2019-02-03T15:08:32.000Z</time>
      </trkpt>
      <trkpt lat="42.93826" lon="0.56703">
        <ele>714</ele>
        <time>2019-02-03T15:08:33.000Z</time>
      </trkpt>
      <trkpt lat="42.93825" lon="0.56702">
        <ele>714</ele>
        <time>2019-02-03T15:08:34.000Z</time>
      </trkpt>
      <trkpt lat="42.93825" lon="0.56701">
        <ele>714</ele>
        <time>2019-02-03T15:08:35.000Z</time>
      </trkpt>
      <trkpt lat="42.93824" lon="0.567">
        <ele>714</ele>
        <time>2019-02-03T15:08:36.000Z</time>
      </trkpt>
      <trkpt lat="42.93824" lon="0.56699">
        <ele>714</ele>
        <time>2019-02-03T15:08:37.000Z</time>
      </trkpt>
      <trkpt lat="42.93823" lon="0.56697">
        <ele>714</ele>
        <time>2019-02-03T15:08:38.000Z</time>
      </trkpt>
      <trkpt lat="42.93823" lon="0.56696">
        <ele>714</ele>
        <time>2019-02-03T15:08:39.000Z</time>
      </trkpt>
      <trkpt lat="42.93822" lon="0.56695">
        <ele>714</ele>
        <time>2019-02-03T15:08:40.000Z</time>
      </trkpt>
      <trkpt lat="42.93822" lon="0.56694">
        <ele>713.5</ele>
        <time>2019-02-03T15:08:41.000Z</time>
      </trkpt>
      <trkpt lat="42.93821" lon="0.56692">
        <ele>713</ele>
        <time>2019-02-03T15:08:42.000Z</time>
      </trkpt>
      <trkpt lat="42.9382" lon="0.56691">
        <ele>713</ele>
        <time>2019-02-03T15:08:43.000Z</time>
      </trkpt>
      <trkpt lat="42.9382" lon="0.56689">
        <ele>713</ele>
        <time>2019-02-03T15:08:44.000Z</time>
      </trkpt>
      <trkpt lat="42.93819" lon="0.56687">
        <ele>712.5</ele>
        <time>2019-02-03T15:08:45.000Z</time>
      </trkpt>
      <trkpt lat="42.93818" lon="0.56685">
        <ele>712</ele>
        <time>2019-02-03T15:08:46.000Z</time>
      </trkpt>
      <trkpt lat="42.93818" lon="0.56684">
        <ele>712</ele>
        <time>2019-02-03T15:08:47.000Z</time>
      </trkpt>
      <trkpt lat="42.93817" lon="0.56682">
        <ele>712</ele>
        <time>2019-02-03T15:08:48.000Z</time>
      </trkpt>
      <trkpt lat="42.93816" lon="0.5668">
        <ele>712</ele>
        <time>2019-02-03T15:08:49.000Z</time>
      </trkpt>
      <trkpt lat="42.93816" lon="0.56678">
        <ele>711.7</ele>
        <time>2019-02-03T15:08:50.000Z</time>
      </trkpt>
      <trkpt lat="42.93815" lon="0.56676">
        <ele>711.3</ele>
        <time>2019-02-03T15:08:51.000Z</time>
      </trkpt>
      <trkpt lat="42.93815" lon="0.56675">
        <ele>711</ele>
        <time>2019-02-03T15:08:52.000Z</time>
      </trkpt>
      <trkpt lat="42.93815" lon="0.56673">
        <ele>711</ele>
        <time>2019-02-03T15:08:53.000Z</time>
      </trkpt>
      <trkpt lat="42.93814" lon="0.56672">
        <ele>711</ele>
        <time>2019-02-03T15:08:54.000Z</time>
      </trkpt>
      <trkpt lat="42.93814" lon="0.5667">
        <ele>711</ele>
        <time>2019-02-03T15:08:55.000Z</time>
      </trkpt>
      <trkpt lat="42.93813" lon="0.56668">
        <ele>711</ele>
        <time>2019-02-03T15:08:56.000Z</time>
      </trkpt>
      <trkpt lat="42.93813" lon="0.56666">
        <ele>711</ele>
        <time>2019-02-03T15:08:57.000Z</time>
      </trkpt>
      <trkpt lat="42.93812" lon="0.56664">
        <ele>711</ele>
        <time>2019-02-03T15:08:58.000Z</time>
      </trkpt>
      <trkpt lat="42.93812" lon="0.56662">
        <ele>710</ele>
        <time>2019-02-03T15:08:59.000Z</time>
      </trkpt>
      <trkpt lat="42.93811" lon="0.56661">
        <ele>710</ele>
        <time>2019-02-03T15:09:00.000Z</time>
      </trkpt>
      <trkpt lat="42.93811" lon="0.56659">
        <ele>710</ele>
        <time>2019-02-03T15:09:01.000Z</time>
      </trkpt>
      <trkpt lat="42.93811" lon="0.56658">
        <ele>710</ele>
        <time>2019-02-03T15:09:02.000Z</time>
      </trkpt>
      <trkpt lat="42.93811" lon="0.56656">
        <ele>710</ele>
        <time>2019-02-03T15:09:03.000Z</time>
      </trkpt>
      <trkpt lat="42.93811" lon="0.56654">
        <ele>710</ele>
        <time>2019-02-03T15:09:04.000Z</time>
      </trkpt>
      <trkpt lat="42.93811" lon="0.56653">
        <ele>710</ele>
        <time>2019-02-03T15:09:05.000Z</time>
      </trkpt>
      <trkpt lat="42.93811" lon="0.56651">
        <ele>710</ele>
        <time>2019-02-03T15:09:06.000Z</time>
      </trkpt>
      <trkpt lat="42.93811" lon="0.5665">
        <ele>709.5</ele>
        <time>2019-02-03T15:09:07.000Z</time>
      </trkpt>
      <trkpt lat="42.93811" lon="0.56648">
        <ele>709</ele>
        <time>2019-02-03T15:09:08.000Z</time>
      </trkpt>
      <trkpt lat="42.93811" lon="0.56646">
        <ele>709</ele>
        <time>2019-02-03T15:09:09.000Z</time>
      </trkpt>
      <trkpt lat="42.93812" lon="0.56644">
        <ele>709</ele>
        <time>2019-02-03T15:09:10.000Z</time>
      </trkpt>
      <trkpt lat="42.93812" lon="0.56642">
        <ele>709</ele>
        <time>2019-02-03T15:09:11.000Z</time>
      </trkpt>
      <trkpt lat="42.93812" lon="0.5664">
        <ele>708.7</ele>
        <time>2019-02-03T15:09:12.000Z</time>
      </trkpt>
      <trkpt lat="42.93812" lon="0.56639">
        <ele>708.3</ele>
        <time>2019-02-03T15:09:13.000Z</time>
      </trkpt>
      <trkpt lat="42.93811" lon="0.56637">
        <ele>708</ele>
        <time>2019-02-03T15:09:14.000Z</time>
      </trkpt>
      <trkpt lat="42.93811" lon="0.56636">
        <ele>708</ele>
        <time>2019-02-03T15:09:15.000Z</time>
      </trkpt>
      <trkpt lat="42.93811" lon="0.56634">
        <ele>708</ele>
        <time>2019-02-03T15:09:16.000Z</time>
      </trkpt>
      <trkpt lat="42.93811" lon="0.56632">
        <ele>708</ele>
        <time>2019-02-03T15:09:17.000Z</time>
      </trkpt>
      <trkpt lat="42.93811" lon="0.56631">
        <ele>708</ele>
        <time>2019-02-03T15:09:18.000Z</time>
      </trkpt>
      <trkpt lat="42.93811" lon="0.56629">
        <ele>708</ele>
        <time>2019-02-03T15:09:19.000Z</time>
      </trkpt>
      <trkpt lat="42.93811" lon="0.56627">
        <ele>708</ele>
        <time>2019-02-03T15:09:20.000Z</time>
      </trkpt>
      <trkpt lat="42.93811" lon="0.56626">
        <ele>708</ele>
        <time>2019-02-03T15:09:21.000Z</time>
      </trkpt>
      <trkpt lat="42.9381" lon="0.56624">
        <ele>708</ele>
        <time>2019-02-03T15:09:22.000Z</time>
      </trkpt>
      <trkpt lat="42.9381" lon="0.56623">
        <ele>708</ele>
        <time>2019-02-03T15:09:23.000Z</time>
      </trkpt>
      <trkpt lat="42.9381" lon="0.56621">
        <ele>708</ele>
        <time>2019-02-03T15:09:24.000Z</time>
      </trkpt>
      <trkpt lat="42.9381" lon="0.5662">
        <ele>708</ele>
        <time>2019-02-03T15:09:25.000Z</time>
      </trkpt>
      <trkpt lat="42.9381" lon="0.56618">
        <ele>708</ele>
        <time>2019-02-03T15:09:26.000Z</time>
      </trkpt>
      <trkpt lat="42.9381" lon="0.56617">
        <ele>707</ele>
        <time>2019-02-03T15:09:27.000Z</time>
      </trkpt>
      <trkpt lat="42.9381" lon="0.56615">
        <ele>707</ele>
        <time>2019-02-03T15:09:28.000Z</time>
      </trkpt>
      <trkpt lat="42.9381" lon="0.56613">
        <ele>707</ele>
        <time>2019-02-03T15:09:29.000Z</time>
      </trkpt>
      <trkpt lat="42.9381" lon="0.56611">
        <ele>707</ele>
        <time>2019-02-03T15:09:30.000Z</time>
      </trkpt>
      <trkpt lat="42.9381" lon="0.56609">
        <ele>707</ele>
        <time>2019-02-03T15:09:31.000Z</time>
      </trkpt>
      <trkpt lat="42.9381" lon="0.56606">
        <ele>707</ele>
        <time>2019-02-03T15:09:32.000Z</time>
      </trkpt>
      <trkpt lat="42.9381" lon="0.56604">
        <ele>707</ele>
        <time>2019-02-03T15:09:33.000Z</time>
      </trkpt>
      <trkpt lat="42.9381" lon="0.56602">
        <ele>707</ele>
        <time>2019-02-03T15:09:34.000Z</time>
      </trkpt>
      <trkpt lat="42.93809" lon="0.566">
        <ele>707</ele>
        <time>2019-02-03T15:09:35.000Z</time>
      </trkpt>
      <trkpt lat="42.93809" lon="0.56598">
        <ele>707</ele>
        <time>2019-02-03T15:09:36.000Z</time>
      </trkpt>
      <trkpt lat="42.93809" lon="0.56596">
        <ele>707</ele>
        <time>2019-02-03T15:09:37.000Z</time>
      </trkpt>
      <trkpt lat="42.93809" lon="0.56594">
        <ele>707</ele>
        <time>2019-02-03T15:09:38.000Z</time>
      </trkpt>
      <trkpt lat="42.93809" lon="0.56593">
        <ele>707</ele>
        <time>2019-02-03T15:09:39.000Z</time>
      </trkpt>
      <trkpt lat="42.93809" lon="0.56591">
        <ele>707</ele>
        <time>2019-02-03T15:09:40.000Z</time>
      </trkpt>
      <trkpt lat="42.93809" lon="0.5659">
        <ele>707</ele>
        <time>2019-02-03T15:09:41.000Z</time>
      </trkpt>
      <trkpt lat="42.93809" lon="0.56589">
        <ele>707</ele>
        <time>2019-02-03T15:09:42.000Z</time>
      </trkpt>
      <trkpt lat="42.93809" lon="0.56587">
        <ele>707</ele>
        <time>2019-02-03T15:09:43.000Z</time>
      </trkpt>
      <trkpt lat="42.93809" lon="0.56586">
        <ele>707</ele>
        <time>2019-02-03T15:09:44.000Z</time>
      </trkpt>
      <trkpt lat="42.93809" lon="0.56584">
        <ele>706</ele>
        <time>2019-02-03T15:09:45.000Z</time>
      </trkpt>
      <trkpt lat="42.93809" lon="0.56583">
        <ele>706</ele>
        <time>2019-02-03T15:09:46.000Z</time>
      </trkpt>
      <trkpt lat="42.9381" lon="0.56582">
        <ele>706</ele>
        <time>2019-02-03T15:09:47.000Z</time>
      </trkpt>
      <trkpt lat="42.9381" lon="0.56581">
        <ele>706</ele>
        <time>2019-02-03T15:09:48.000Z</time>
      </trkpt>
      <trkpt lat="42.93811" lon="0.5658">
        <ele>706</ele>
        <time>2019-02-03T15:09:49.000Z</time>
      </trkpt>
      <trkpt lat="42.93811" lon="0.56579">
        <ele>706</ele>
        <time>2019-02-03T15:09:50.000Z</time>
      </trkpt>
      <trkpt lat="42.93812" lon="0.56578">
        <ele>706</ele>
        <time>2019-02-03T15:09:51.000Z</time>
      </trkpt>
      <trkpt lat="42.93813" lon="0.56577">
        <ele>706</ele>
        <time>2019-02-03T15:09:52.000Z</time>
      </trkpt>
      <trkpt lat="42.93814" lon="0.56576">
        <ele>706</ele>
        <time>2019-02-03T15:09:53.000Z</time>
      </trkpt>
      <trkpt lat="42.93815" lon="0.56576">
        <ele>706</ele>
        <time>2019-02-03T15:09:54.000Z</time>
      </trkpt>
      <trkpt lat="42.93816" lon="0.56575">
        <ele>706</ele>
        <time>2019-02-03T15:09:55.000Z</time>
      </trkpt>
      <trkpt lat="42.93816" lon="0.56574">
        <ele>706</ele>
        <time>2019-02-03T15:09:56.000Z</time>
      </trkpt>
      <trkpt lat="42.93817" lon="0.56573">
        <ele>706</ele>
        <time>2019-02-03T15:09:57.000Z</time>
      </trkpt>
      <trkpt lat="42.93818" lon="0.56573">
        <ele>706</ele>
        <time>2019-02-03T15:09:58.000Z</time>
      </trkpt>
      <trkpt lat="42.93819" lon="0.56572">
        <ele>706</ele>
        <time>2019-02-03T15:09:59.000Z</time>
      </trkpt>
      <trkpt lat="42.93819" lon="0.56571">
        <ele>706</ele>
        <time>2019-02-03T15:10:00.000Z</time>
      </trkpt>
      <trkpt lat="42.9382" lon="0.5657">
        <ele>706</ele>
        <time>2019-02-03T15:10:01.000Z</time>
      </trkpt>
      <trkpt lat="42.93821" lon="0.56569">
        <ele>706</ele>
        <time>2019-02-03T15:10:02.000Z</time>
      </trkpt>
      <trkpt lat="42.93822" lon="0.56569">
        <ele>705.5</ele>
        <time>2019-02-03T15:10:03.000Z</time>
      </trkpt>
      <trkpt lat="42.93823" lon="0.56568">
        <ele>705</ele>
        <time>2019-02-03T15:10:04.000Z</time>
      </trkpt>
      <trkpt lat="42.93824" lon="0.56567">
        <ele>705</ele>
        <time>2019-02-03T15:10:05.000Z</time>
      </trkpt>
      <trkpt lat="42.93825" lon="0.56566">
        <ele>705</ele>
        <time>2019-02-03T15:10:06.000Z</time>
      </trkpt>
      <trkpt lat="42.93826" lon="0.56566">
        <ele>705</ele>
        <time>2019-02-03T15:10:07.000Z</time>
      </trkpt>
      <trkpt lat="42.93826" lon="0.56565">
        <ele>705</ele>
        <time>2019-02-03T15:10:08.000Z</time>
      </trkpt>
      <trkpt lat="42.93827" lon="0.56564">
        <ele>705</ele>
        <time>2019-02-03T15:10:09.000Z</time>
      </trkpt>
      <trkpt lat="42.93828" lon="0.56564">
        <ele>705</ele>
        <time>2019-02-03T15:10:10.000Z</time>
      </trkpt>
      <trkpt lat="42.93828" lon="0.56563">
        <ele>705</ele>
        <time>2019-02-03T15:10:11.000Z</time>
      </trkpt>
      <trkpt lat="42.93829" lon="0.56563">
        <ele>705</ele>
        <time>2019-02-03T15:10:12.000Z</time>
      </trkpt>
      <trkpt lat="42.9383" lon="0.56562">
        <ele>704.5</ele>
        <time>2019-02-03T15:10:13.000Z</time>
      </trkpt>
      <trkpt lat="42.93831" lon="0.56562">
        <ele>704</ele>
        <time>2019-02-03T15:10:14.000Z</time>
      </trkpt>
      <trkpt lat="42.93832" lon="0.56561">
        <ele>704</ele>
        <time>2019-02-03T15:10:15.000Z</time>
      </trkpt>
      <trkpt lat="42.93833" lon="0.56561">
        <ele>704</ele>
        <time>2019-02-03T15:10:16.000Z</time>
      </trkpt>
      <trkpt lat="42.93834" lon="0.56561">
        <ele>704</ele>
        <time>2019-02-03T15:10:17.000Z</time>
      </trkpt>
      <trkpt lat="42.93835" lon="0.5656">
        <ele>704</ele>
        <time>2019-02-03T15:10:18.000Z</time>
      </trkpt>
      <trkpt lat="42.93836" lon="0.5656">
        <ele>703.5</ele>
        <time>2019-02-03T15:10:19.000Z</time>
      </trkpt>
      <trkpt lat="42.93836" lon="0.56561">
        <ele>703</ele>
        <time>2019-02-03T15:10:20.000Z</time>
      </trkpt>
      <trkpt lat="42.93837" lon="0.56561">
        <ele>703</ele>
        <time>2019-02-03T15:10:21.000Z</time>
      </trkpt>
      <trkpt lat="42.93837" lon="0.56561">
        <ele>703</ele>
        <time>2019-02-03T15:10:22.000Z</time>
      </trkpt>
      <trkpt lat="42.93837" lon="0.56561">
        <ele>703</ele>
        <time>2019-02-03T15:10:23.000Z</time>
      </trkpt>
      <trkpt lat="42.93838" lon="0.56562">
        <ele>703</ele>
        <time>2019-02-03T15:10:24.000Z</time>
      </trkpt>
      <trkpt lat="42.93838" lon="0.56562">
        <ele>702.5</ele>
        <time>2019-02-03T15:10:25.000Z</time>
      </trkpt>
      <trkpt lat="42.93838" lon="0.56562">
        <ele>702</ele>
        <time>2019-02-03T15:10:26.000Z</time>
      </trkpt>
      <trkpt lat="42.93838" lon="0.56562">
        <ele>702</ele>
        <time>2019-02-03T15:10:27.000Z</time>
      </trkpt>
      <trkpt lat="42.93838" lon="0.56562">
        <ele>702</ele>
        <time>2019-02-03T15:10:28.000Z</time>
      </trkpt>
      <trkpt lat="42.93838" lon="0.56561">
        <ele>702</ele>
        <time>2019-02-03T15:10:29.000Z</time>
      </trkpt>
      <trkpt lat="42.93839" lon="0.56561">
        <ele>702</ele>
        <time>2019-02-03T15:10:30.000Z</time>
      </trkpt>
      <trkpt lat="42.93839" lon="0.56561">
        <ele>703</ele>
        <time>2019-02-03T15:10:31.000Z</time>
      </trkpt>
      <trkpt lat="42.9384" lon="0.56561">
        <ele>703</ele>
        <time>2019-02-03T15:10:32.000Z</time>
      </trkpt>
      <trkpt lat="42.9384" lon="0.56561">
        <ele>703</ele>
        <time>2019-02-03T15:10:33.000Z</time>
      </trkpt>
      <trkpt lat="42.93841" lon="0.56561">
        <ele>703</ele>
        <time>2019-02-03T15:10:34.000Z</time>
      </trkpt>
      <trkpt lat="42.93842" lon="0.56561">
        <ele>702</ele>
        <time>2019-02-03T15:10:35.000Z</time>
      </trkpt>
      <trkpt lat="42.93843" lon="0.56561">
        <ele>702</ele>
        <time>2019-02-03T15:10:36.000Z</time>
      </trkpt>
      <trkpt lat="42.93844" lon="0.56561">
        <ele>702</ele>
        <time>2019-02-03T15:10:37.000Z</time>
      </trkpt>
      <trkpt lat="42.93844" lon="0.56562">
        <ele>702</ele>
        <time>2019-02-03T15:10:38.000Z</time>
      </trkpt>
      <trkpt lat="42.93845" lon="0.56562">
        <ele>702</ele>
        <time>2019-02-03T15:10:39.000Z</time>
      </trkpt>
      <trkpt lat="42.93846" lon="0.56562">
        <ele>702</ele>
        <time>2019-02-03T15:10:40.000Z</time>
      </trkpt>
      <trkpt lat="42.93846" lon="0.56563">
        <ele>702</ele>
        <time>2019-02-03T15:10:41.000Z</time>
      </trkpt>
      <trkpt lat="42.93847" lon="0.56563">
        <ele>701.5</ele>
        <time>2019-02-03T15:10:42.000Z</time>
      </trkpt>
      <trkpt lat="42.93847" lon="0.56564">
        <ele>701</ele>
        <time>2019-02-03T15:10:43.000Z</time>
      </trkpt>
      <trkpt lat="42.93848" lon="0.56564">
        <ele>701</ele>
        <time>2019-02-03T15:10:44.000Z</time>
      </trkpt>
      <trkpt lat="42.93848" lon="0.56565">
        <ele>701</ele>
        <time>2019-02-03T15:10:45.000Z</time>
      </trkpt>
      <trkpt lat="42.93848" lon="0.56565">
        <ele>701</ele>
        <time>2019-02-03T15:10:46.000Z</time>
      </trkpt>
      <trkpt lat="42.93849" lon="0.56566">
        <ele>701</ele>
        <time>2019-02-03T15:10:47.000Z</time>
      </trkpt>
      <trkpt lat="42.93849" lon="0.56566">
        <ele>701</ele>
        <time>2019-02-03T15:10:48.000Z</time>
      </trkpt>
      <trkpt lat="42.9385" lon="0.56567">
        <ele>700</ele>
        <time>2019-02-03T15:10:49.000Z</time>
      </trkpt>
      <trkpt lat="42.9385" lon="0.56567">
        <ele>700</ele>
        <time>2019-02-03T15:10:50.000Z</time>
      </trkpt>
      <trkpt lat="42.93851" lon="0.56568">
        <ele>700</ele>
        <time>2019-02-03T15:10:51.000Z</time>
      </trkpt>
      <trkpt lat="42.93852" lon="0.56568">
        <ele>700</ele>
        <time>2019-02-03T15:10:52.000Z</time>
      </trkpt>
      <trkpt lat="42.93853" lon="0.56569">
        <ele>700</ele>
        <time>2019-02-03T15:10:53.000Z</time>
      </trkpt>
      <trkpt lat="42.93854" lon="0.56569">
        <ele>700</ele>
        <time>2019-02-03T15:10:54.000Z</time>
      </trkpt>
      <trkpt lat="42.93855" lon="0.5657">
        <ele>700</ele>
        <time>2019-02-03T15:10:55.000Z</time>
      </trkpt>
      <trkpt lat="42.93856" lon="0.5657">
        <ele>700</ele>
        <time>2019-02-03T15:10:56.000Z</time>
      </trkpt>
      <trkpt lat="42.93858" lon="0.5657">
        <ele>700</ele>
        <time>2019-02-03T15:10:57.000Z</time>
      </trkpt>
      <trkpt lat="42.93859" lon="0.56571">
        <ele>700</ele>
        <time>2019-02-03T15:10:58.000Z</time>
      </trkpt>
      <trkpt lat="42.9386" lon="0.56572">
        <ele>700</ele>
        <time>2019-02-03T15:10:59.000Z</time>
      </trkpt>
      <trkpt lat="42.93861" lon="0.56572">
        <ele>699.7</ele>
        <time>2019-02-03T15:11:00.000Z</time>
      </trkpt>
      <trkpt lat="42.93861" lon="0.56573">
        <ele>699.3</ele>
        <time>2019-02-03T15:11:01.000Z</time>
      </trkpt>
      <trkpt lat="42.93862" lon="0.56574">
        <ele>699</ele>
        <time>2019-02-03T15:11:02.000Z</time>
      </trkpt>
      <trkpt lat="42.93863" lon="0.56575">
        <ele>699</ele>
        <time>2019-02-03T15:11:03.000Z</time>
      </trkpt>
      <trkpt lat="42.93863" lon="0.56576">
        <ele>699</ele>
        <time>2019-02-03T15:11:04.000Z</time>
      </trkpt>
      <trkpt lat="42.93864" lon="0.56576">
        <ele>699</ele>
        <time>2019-02-03T15:11:05.000Z</time>
      </trkpt>
      <trkpt lat="42.93864" lon="0.56577">
        <ele>698.5</ele>
        <time>2019-02-03T15:11:06.000Z</time>
      </trkpt>
      <trkpt lat="42.93865" lon="0.56578">
        <ele>698</ele>
        <time>2019-02-03T15:11:07.000Z</time>
      </trkpt>
      <trkpt lat="42.93865" lon="0.56579">
        <ele>698</ele>
        <time>2019-02-03T15:11:08.000Z</time>
      </trkpt>
      <trkpt lat="42.93866" lon="0.5658">
        <ele>698</ele>
        <time>2019-02-03T15:11:09.000Z</time>
      </trkpt>
      <trkpt lat="42.93867" lon="0.56581">
        <ele>698</ele>
        <time>2019-02-03T15:11:10.000Z</time>
      </trkpt>
      <trkpt lat="42.93868" lon="0.56582">
        <ele>698</ele>
        <time>2019-02-03T15:11:11.000Z</time>
      </trkpt>
      <trkpt lat="42.93869" lon="0.56584">
        <ele>698</ele>
        <time>2019-02-03T15:11:12.000Z</time>
      </trkpt>
      <trkpt lat="42.9387" lon="0.56585">
        <ele>698</ele>
        <time>2019-02-03T15:11:13.000Z</time>
      </trkpt>
      <trkpt lat="42.93871" lon="0.56586">
        <ele>698</ele>
        <time>2019-02-03T15:11:14.000Z</time>
      </trkpt>
      <trkpt lat="42.93872" lon="0.56587">
        <ele>698</ele>
        <time>2019-02-03T15:11:15.000Z</time>
      </trkpt>
      <trkpt lat="42.93873" lon="0.56588">
        <ele>698</ele>
        <time>2019-02-03T15:11:16.000Z</time>
      </trkpt>
      <trkpt lat="42.93874" lon="0.56588">
        <ele>698</ele>
        <time>2019-02-03T15:11:17.000Z</time>
      </trkpt>
      <trkpt lat="42.93875" lon="0.56589">
        <ele>698</ele>
        <time>2019-02-03T15:11:18.000Z</time>
      </trkpt>
      <trkpt lat="42.93876" lon="0.56589">
        <ele>697</ele>
        <time>2019-02-03T15:11:19.000Z</time>
      </trkpt>
      <trkpt lat="42.93877" lon="0.5659">
        <ele>697</ele>
        <time>2019-02-03T15:11:20.000Z</time>
      </trkpt>
      <trkpt lat="42.93878" lon="0.5659">
        <ele>697</ele>
        <time>2019-02-03T15:11:21.000Z</time>
      </trkpt>
      <trkpt lat="42.93878" lon="0.56591">
        <ele>697</ele>
        <time>2019-02-03T15:11:22.000Z</time>
      </trkpt>
      <trkpt lat="42.93879" lon="0.56592">
        <ele>697</ele>
        <time>2019-02-03T15:11:23.000Z</time>
      </trkpt>
      <trkpt lat="42.9388" lon="0.56592">
        <ele>697</ele>
        <time>2019-02-03T15:11:24.000Z</time>
      </trkpt>
      <trkpt lat="42.93881" lon="0.56593">
        <ele>697</ele>
        <time>2019-02-03T15:11:25.000Z</time>
      </trkpt>
      <trkpt lat="42.93882" lon="0.56594">
        <ele>697</ele>
        <time>2019-02-03T15:11:26.000Z</time>
      </trkpt>
      <trkpt lat="42.93882" lon="0.56594">
        <ele>697</ele>
        <time>2019-02-03T15:11:27.000Z</time>
      </trkpt>
      <trkpt lat="42.93883" lon="0.56595">
        <ele>696.5</ele>
        <time>2019-02-03T15:11:28.000Z</time>
      </trkpt>
      <trkpt lat="42.93884" lon="0.56596">
        <ele>696</ele>
        <time>2019-02-03T15:11:29.000Z</time>
      </trkpt>
      <trkpt lat="42.93885" lon="0.56596">
        <ele>696</ele>
        <time>2019-02-03T15:11:30.000Z</time>
      </trkpt>
      <trkpt lat="42.93887" lon="0.56597">
        <ele>696</ele>
        <time>2019-02-03T15:11:31.000Z</time>
      </trkpt>
      <trkpt lat="42.93888" lon="0.56597">
        <ele>696</ele>
        <time>2019-02-03T15:11:32.000Z</time>
      </trkpt>
      <trkpt lat="42.93889" lon="0.56598">
        <ele>695.5</ele>
        <time>2019-02-03T15:11:33.000Z</time>
      </trkpt>
      <trkpt lat="42.93891" lon="0.56598">
        <ele>695</ele>
        <time>2019-02-03T15:11:34.000Z</time>
      </trkpt>
      <trkpt lat="42.93892" lon="0.56598">
        <ele>695</ele>
        <time>2019-02-03T15:11:35.000Z</time>
      </trkpt>
      <trkpt lat="42.93893" lon="0.56598">
        <ele>695</ele>
        <time>2019-02-03T15:11:36.000Z</time>
      </trkpt>
      <trkpt lat="42.93895" lon="0.56599">
        <ele>695</ele>
        <time>2019-02-03T15:11:37.000Z</time>
      </trkpt>
      <trkpt lat="42.93896" lon="0.56599">
        <ele>695</ele>
        <time>2019-02-03T15:11:38.000Z</time>
      </trkpt>
      <trkpt lat="42.93897" lon="0.56599">
        <ele>695</ele>
        <time>2019-02-03T15:11:39.000Z</time>
      </trkpt>
      <trkpt lat="42.93899" lon="0.56599">
        <ele>695</ele>
        <time>2019-02-03T15:11:40.000Z</time>
      </trkpt>
      <trkpt lat="42.939" lon="0.56599">
        <ele>694</ele>
        <time>2019-02-03T15:11:41.000Z</time>
      </trkpt>
      <trkpt lat="42.939" lon="0.56599">
        <ele>694</ele>
        <time>2019-02-03T15:11:42.000Z</time>
      </trkpt>
      <trkpt lat="42.93901" lon="0.56599">
        <ele>694</ele>
        <time>2019-02-03T15:11:43.000Z</time>
      </trkpt>
      <trkpt lat="42.93902" lon="0.56599">
        <ele>694</ele>
        <time>2019-02-03T15:11:44.000Z</time>
      </trkpt>
      <trkpt lat="42.93903" lon="0.56599">
        <ele>694</ele>
        <time>2019-02-03T15:11:45.000Z</time>
      </trkpt>
      <trkpt lat="42.93904" lon="0.56599">
        <ele>694</ele>
        <time>2019-02-03T15:11:46.000Z</time>
      </trkpt>
      <trkpt lat="42.93905" lon="0.566">
        <ele>694</ele>
        <time>2019-02-03T15:11:47.000Z</time>
      </trkpt>
      <trkpt lat="42.93906" lon="0.566">
        <ele>694</ele>
        <time>2019-02-03T15:11:48.000Z</time>
      </trkpt>
      <trkpt lat="42.93906" lon="0.566">
        <ele>694</ele>
        <time>2019-02-03T15:11:49.000Z</time>
      </trkpt>
      <trkpt lat="42.93907" lon="0.566">
        <ele>694</ele>
        <time>2019-02-03T15:11:50.000Z</time>
      </trkpt>
      <trkpt lat="42.93907" lon="0.566">
        <ele>694</ele>
        <time>2019-02-03T15:11:51.000Z</time>
      </trkpt>
      <trkpt lat="42.93907" lon="0.566">
        <ele>694</ele>
        <time>2019-02-03T15:11:52.000Z</time>
      </trkpt>
      <trkpt lat="42.93907" lon="0.566">
        <ele>694</ele>
        <time>2019-02-03T15:11:53.000Z</time>
      </trkpt>
      <trkpt lat="42.93907" lon="0.56601">
        <ele>694</ele>
        <time>2019-02-03T15:11:54.000Z</time>
      </trkpt>
      <trkpt lat="42.93907" lon="0.56601">
        <ele>694</ele>
        <time>2019-02-03T15:11:55.000Z</time>
      </trkpt>
      <trkpt lat="42.93907" lon="0.56601">
        <ele>694</ele>
        <time>2019-02-03T15:11:56.000Z</time>
      </trkpt>
      <trkpt lat="42.93907" lon="0.56601">
        <ele>694</ele>
        <time>2019-02-03T15:11:57.000Z</time>
      </trkpt>
      <trkpt lat="42.93907" lon="0.56601">
        <ele>694</ele>
        <time>2019-02-03T15:11:58.000Z</time>
      </trkpt>
      <trkpt lat="42.93907" lon="0.56601">
        <ele>694</ele>
        <time>2019-02-03T15:11:59.000Z</time>
      </trkpt>
      <trkpt lat="42.93907" lon="0.56601">
        <ele>694</ele>
        <time>2019-02-03T15:12:00.000Z</time>
      </trkpt>
      <trkpt lat="42.93907" lon="0.56601">
        <ele>694</ele>
        <time>2019-02-03T15:12:01.000Z</time>
      </trkpt>
      <trkpt lat="42.93907" lon="0.56601">
        <ele>693.7</ele>
        <time>2019-02-03T15:12:02.000Z</time>
      </trkpt>
      <trkpt lat="42.93907" lon="0.56601">
        <ele>693.3</ele>
        <time>2019-02-03T15:12:03.000Z</time>
      </trkpt>
      <trkpt lat="42.93907" lon="0.56601">
        <ele>693</ele>
        <time>2019-02-03T15:12:04.000Z</time>
      </trkpt>
      <trkpt lat="42.93907" lon="0.56601">
        <ele>693</ele>
        <time>2019-02-03T15:12:05.000Z</time>
      </trkpt>
      <trkpt lat="42.93907" lon="0.56601">
        <ele>693</ele>
        <time>2019-02-03T15:12:06.000Z</time>
      </trkpt>
      <trkpt lat="42.93907" lon="0.56601">
        <ele>693</ele>
        <time>2019-02-03T15:12:07.000Z</time>
      </trkpt>
      <trkpt lat="42.93907" lon="0.56601">
        <ele>693</ele>
        <time>2019-02-03T15:12:08.000Z</time>
      </trkpt>
      <trkpt lat="42.93907" lon="0.56601">
        <ele>693</ele>
        <time>2019-02-03T15:12:09.000Z</time>
      </trkpt>
      <trkpt lat="42.93907" lon="0.56601">
        <ele>693</ele>
        <time>2019-02-03T15:12:10.000Z</time>
      </trkpt>
      <trkpt lat="42.93907" lon="0.56601">
        <ele>693</ele>
        <time>2019-02-03T15:12:11.000Z</time>
      </trkpt>
      <trkpt lat="42.93907" lon="0.56601">
        <ele>693</ele>
        <time>2019-02-03T15:12:12.000Z</time>
      </trkpt>
      <trkpt lat="42.93907" lon="0.56601">
        <ele>693</ele>
        <time>2019-02-03T15:12:13.000Z</time>
      </trkpt>
      <trkpt lat="42.93907" lon="0.56602">
        <ele>693</ele>
        <time>2019-02-03T15:12:14.000Z</time>
      </trkpt>
      <trkpt lat="42.93907" lon="0.56603">
        <ele>693</ele>
        <time>2019-02-03T15:12:15.000Z</time>
      </trkpt>
      <trkpt lat="42.93907" lon="0.56605">
        <ele>693</ele>
        <time>2019-02-03T15:12:16.000Z</time>
      </trkpt>
      <trkpt lat="42.93907" lon="0.56605">
        <ele>693</ele>
        <time>2019-02-03T15:12:17.000Z</time>
      </trkpt>
      <trkpt lat="42.93907" lon="0.56605">
        <ele>693</ele>
        <time>2019-02-03T15:12:18.000Z</time>
      </trkpt>
      <trkpt lat="42.93907" lon="0.56605">
        <ele>693</ele>
        <time>2019-02-03T15:12:19.000Z</time>
      </trkpt>
      <trkpt lat="42.93907" lon="0.56606">
        <ele>693</ele>
        <time>2019-02-03T15:12:20.000Z</time>
      </trkpt>
      <trkpt lat="42.93907" lon="0.56606">
        <ele>693</ele>
        <time>2019-02-03T15:12:21.000Z</time>
      </trkpt>
      <trkpt lat="42.93907" lon="0.56606">
        <ele>693</ele>
        <time>2019-02-03T15:12:22.000Z</time>
      </trkpt>
      <trkpt lat="42.93907" lon="0.56606">
        <ele>693</ele>
        <time>2019-02-03T15:12:23.000Z</time>
      </trkpt>
      <trkpt lat="42.93907" lon="0.56606">
        <ele>693</ele>
        <time>2019-02-03T15:12:24.000Z</time>
      </trkpt>
      <trkpt lat="42.93907" lon="0.56606">
        <ele>693</ele>
        <time>2019-02-03T15:12:25.000Z</time>
      </trkpt>
      <trkpt lat="42.93907" lon="0.56606">
        <ele>693</ele>
        <time>2019-02-03T15:12:26.000Z</time>
      </trkpt>
      <trkpt lat="42.93907" lon="0.56606">
        <ele>693</ele>
        <time>2019-02-03T15:12:27.000Z</time>
      </trkpt>
      <trkpt lat="42.93907" lon="0.56606">
        <ele>693</ele>
        <time>2019-02-03T15:12:28.000Z</time>
      </trkpt>
      <trkpt lat="42.93907" lon="0.56606">
        <ele>693</ele>
        <time>2019-02-03T15:12:29.000Z</time>
      </trkpt>
      <trkpt lat="42.93907" lon="0.56606">
        <ele>693</ele>
        <time>2019-02-03T15:12:30.000Z</time>
      </trkpt>
      <trkpt lat="42.93907" lon="0.56606">
        <ele>693</ele>
        <time>2019-02-03T15:12:31.000Z</time>
      </trkpt>
      <trkpt lat="42.93907" lon="0.56606">
        <ele>693</ele>
        <time>2019-02-03T15:12:32.000Z</time>
      </trkpt>
      <trkpt lat="42.93907" lon="0.56606">
        <ele>693</ele>
        <time>2019-02-03T15:12:33.000Z</time>
      </trkpt>
      <trkpt lat="42.93907" lon="0.56606">
        <ele>693</ele>
        <time>2019-02-03T15:12:34.000Z</time>
      </trkpt>
      <trkpt lat="42.93907" lon="0.56606">
        <ele>693</ele>
        <time>2019-02-03T15:12:35.000Z</time>
      </trkpt>
      <trkpt lat="42.93907" lon="0.56606">
        <ele>693</ele>
        <time>2019-02-03T15:12:36.000Z</time>
      </trkpt>
      <trkpt lat="42.93907" lon="0.56606">
        <ele>693</ele>
        <time>2019-02-03T15:12:37.000Z</time>
      </trkpt>
      <trkpt lat="42.93907" lon="0.56606">
        <ele>693</ele>
        <time>2019-02-03T15:12:38.000Z</time>
      </trkpt>
      <trkpt lat="42.93907" lon="0.56606">
        <ele>693</ele>
        <time>2019-02-03T15:12:39.000Z</time>
      </trkpt>
      <trkpt lat="42.93907" lon="0.56606">
        <ele>693</ele>
        <time>2019-02-03T15:12:40.000Z</time>
      </trkpt>
      <trkpt lat="42.93908" lon="0.56607">
        <ele>693</ele>
        <time>2019-02-03T15:12:41.000Z</time>
      </trkpt>
      <trkpt lat="42.93908" lon="0.56607">
        <ele>693</ele>
        <time>2019-02-03T15:12:42.000Z</time>
      </trkpt>
      <trkpt lat="42.93908" lon="0.56607">
        <ele>693</ele>
        <time>2019-02-03T15:12:43.000Z</time>
      </trkpt>
      <trkpt lat="42.93908" lon="0.56607">
        <ele>693</ele>
        <time>2019-02-03T15:12:44.000Z</time>
      </trkpt>
      <trkpt lat="42.93908" lon="0.56607">
        <ele>693</ele>
        <time>2019-02-03T15:12:45.000Z</time>
      </trkpt>
      <trkpt lat="42.93908" lon="0.56607">
        <ele>693</ele>
        <time>2019-02-03T15:12:46.000Z</time>
      </trkpt>
      <trkpt lat="42.93908" lon="0.56607">
        <ele>693</ele>
        <time>2019-02-03T15:12:47.000Z</time>
      </trkpt>
      <trkpt lat="42.93908" lon="0.56607">
        <ele>693</ele>
        <time>2019-02-03T15:12:48.000Z</time>
      </trkpt>
      <trkpt lat="42.93909" lon="0.56608">
        <ele>693</ele>
        <time>2019-02-03T15:12:49.000Z</time>
      </trkpt>
      <trkpt lat="42.93909" lon="0.56608">
        <ele>693</ele>
        <time>2019-02-03T15:12:50.000Z</time>
      </trkpt>
      <trkpt lat="42.93909" lon="0.56608">
        <ele>693</ele>
        <time>2019-02-03T15:12:51.000Z</time>
      </trkpt>
      <trkpt lat="42.9391" lon="0.56608">
        <ele>693</ele>
        <time>2019-02-03T15:12:52.000Z</time>
      </trkpt>
      <trkpt lat="42.9391" lon="0.56608">
        <ele>693</ele>
        <time>2019-02-03T15:12:53.000Z</time>
      </trkpt>
      <trkpt lat="42.9391" lon="0.56608">
        <ele>693</ele>
        <time>2019-02-03T15:12:54.000Z</time>
      </trkpt>
      <trkpt lat="42.93911" lon="0.56608">
        <ele>693</ele>
        <time>2019-02-03T15:12:55.000Z</time>
      </trkpt>
      <trkpt lat="42.93911" lon="0.56608">
        <ele>693</ele>
        <time>2019-02-03T15:12:56.000Z</time>
      </trkpt>
      <trkpt lat="42.93911" lon="0.56608">
        <ele>693</ele>
        <time>2019-02-03T15:12:57.000Z</time>
      </trkpt>
      <trkpt lat="42.93911" lon="0.56608">
        <ele>693</ele>
        <time>2019-02-03T15:12:58.000Z</time>
      </trkpt>
      <trkpt lat="42.93911" lon="0.56608">
        <ele>693</ele>
        <time>2019-02-03T15:12:59.000Z</time>
      </trkpt>
      <trkpt lat="42.93911" lon="0.56608">
        <ele>693</ele>
        <time>2019-02-03T15:13:00.000Z</time>
      </trkpt>
      <trkpt lat="42.93911" lon="0.56608">
        <ele>693</ele>
        <time>2019-02-03T15:13:01.000Z</time>
      </trkpt>
      <trkpt lat="42.93911" lon="0.56608">
        <ele>693</ele>
        <time>2019-02-03T15:13:02.000Z</time>
      </trkpt>
      <trkpt lat="42.93911" lon="0.56608">
        <ele>693</ele>
        <time>2019-02-03T15:13:03.000Z</time>
      </trkpt>
      <trkpt lat="42.93911" lon="0.56608">
        <ele>693</ele>
        <time>2019-02-03T15:13:04.000Z</time>
      </trkpt>
      <trkpt lat="42.93911" lon="0.56608">
        <ele>693</ele>
        <time>2019-02-03T15:13:05.000Z</time>
      </trkpt>
      <trkpt lat="42.93911" lon="0.56608">
        <ele>693</ele>
        <time>2019-02-03T15:13:06.000Z</time>
      </trkpt>
      <trkpt lat="42.93912" lon="0.56607">
        <ele>693</ele>
        <time>2019-02-03T15:13:07.000Z</time>
      </trkpt>
      <trkpt lat="42.93912" lon="0.56607">
        <ele>693</ele>
        <time>2019-02-03T15:13:08.000Z</time>
      </trkpt>
      <trkpt lat="42.93913" lon="0.56606">
        <ele>693</ele>
        <time>2019-02-03T15:13:09.000Z</time>
      </trkpt>
      <trkpt lat="42.93913" lon="0.56606">
        <ele>693</ele>
        <time>2019-02-03T15:13:10.000Z</time>
      </trkpt>
      <trkpt lat="42.93913" lon="0.56606">
        <ele>693</ele>
        <time>2019-02-03T15:13:11.000Z</time>
      </trkpt>
      <trkpt lat="42.93914" lon="0.56605">
        <ele>693</ele>
        <time>2019-02-03T15:13:12.000Z</time>
      </trkpt>
      <trkpt lat="42.93914" lon="0.56605">
        <ele>693</ele>
        <time>2019-02-03T15:13:13.000Z</time>
      </trkpt>
      <trkpt lat="42.93915" lon="0.56605">
        <ele>693</ele>
        <time>2019-02-03T15:13:14.000Z</time>
      </trkpt>
      <trkpt lat="42.93916" lon="0.56605">
        <ele>693</ele>
        <time>2019-02-03T15:13:15.000Z</time>
      </trkpt>
      <trkpt lat="42.93918" lon="0.56605">
        <ele>693</ele>
        <time>2019-02-03T15:13:16.000Z</time>
      </trkpt>
      <trkpt lat="42.93919" lon="0.56605">
        <ele>693</ele>
        <time>2019-02-03T15:13:17.000Z</time>
      </trkpt>
      <trkpt lat="42.9392" lon="0.56605">
        <ele>693</ele>
        <time>2019-02-03T15:13:18.000Z</time>
      </trkpt>
      <trkpt lat="42.93922" lon="0.56606">
        <ele>693</ele>
        <time>2019-02-03T15:13:19.000Z</time>
      </trkpt>
      <trkpt lat="42.93923" lon="0.56606">
        <ele>693</ele>
        <time>2019-02-03T15:13:20.000Z</time>
      </trkpt>
      <trkpt lat="42.93924" lon="0.56606">
        <ele>692</ele>
        <time>2019-02-03T15:13:21.000Z</time>
      </trkpt>
      <trkpt lat="42.93925" lon="0.56606">
        <ele>692</ele>
        <time>2019-02-03T15:13:22.000Z</time>
      </trkpt>
      <trkpt lat="42.93926" lon="0.56606">
        <ele>692</ele>
        <time>2019-02-03T15:13:23.000Z</time>
      </trkpt>
      <trkpt lat="42.93927" lon="0.56606">
        <ele>692</ele>
        <time>2019-02-03T15:13:24.000Z</time>
      </trkpt>
      <trkpt lat="42.93928" lon="0.56606">
        <ele>692</ele>
        <time>2019-02-03T15:13:25.000Z</time>
      </trkpt>
      <trkpt lat="42.93929" lon="0.56606">
        <ele>692</ele>
        <time>2019-02-03T15:13:26.000Z</time>
      </trkpt>
      <trkpt lat="42.9393" lon="0.56606">
        <ele>692</ele>
        <time>2019-02-03T15:13:27.000Z</time>
      </trkpt>
      <trkpt lat="42.93931" lon="0.56606">
        <ele>691.5</ele>
        <time>2019-02-03T15:13:28.000Z</time>
      </trkpt>
      <trkpt lat="42.93932" lon="0.56606">
        <ele>691</ele>
        <time>2019-02-03T15:13:29.000Z</time>
      </trkpt>
      <trkpt lat="42.93933" lon="0.56606">
        <ele>691</ele>
        <time>2019-02-03T15:13:30.000Z</time>
      </trkpt>
      <trkpt lat="42.93933" lon="0.56606">
        <ele>691</ele>
        <time>2019-02-03T15:13:31.000Z</time>
      </trkpt>
      <trkpt lat="42.93934" lon="0.56605">
        <ele>691</ele>
        <time>2019-02-03T15:13:32.000Z</time>
      </trkpt>
      <trkpt lat="42.93935" lon="0.56605">
        <ele>691</ele>
        <time>2019-02-03T15:13:33.000Z</time>
      </trkpt>
      <trkpt lat="42.93936" lon="0.56605">
        <ele>691</ele>
        <time>2019-02-03T15:13:34.000Z</time>
      </trkpt>
      <trkpt lat="42.93937" lon="0.56605">
        <ele>691</ele>
        <time>2019-02-03T15:13:35.000Z</time>
      </trkpt>
      <trkpt lat="42.93937" lon="0.56605">
        <ele>690.7</ele>
        <time>2019-02-03T15:13:36.000Z</time>
      </trkpt>
      <trkpt lat="42.93938" lon="0.56605">
        <ele>690.3</ele>
        <time>2019-02-03T15:13:37.000Z</time>
      </trkpt>
      <trkpt lat="42.93939" lon="0.56605">
        <ele>690</ele>
        <time>2019-02-03T15:13:38.000Z</time>
      </trkpt>
      <trkpt lat="42.9394" lon="0.56605">
        <ele>690</ele>
        <time>2019-02-03T15:13:39.000Z</time>
      </trkpt>
      <trkpt lat="42.9394" lon="0.56604">
        <ele>690</ele>
        <time>2019-02-03T15:13:40.000Z</time>
      </trkpt>
      <trkpt lat="42.93941" lon="0.56604">
        <ele>690</ele>
        <time>2019-02-03T15:13:41.000Z</time>
      </trkpt>
      <trkpt lat="42.93942" lon="0.56604">
        <ele>690</ele>
        <time>2019-02-03T15:13:42.000Z</time>
      </trkpt>
      <trkpt lat="42.93943" lon="0.56604">
        <ele>690</ele>
        <time>2019-02-03T15:13:43.000Z</time>
      </trkpt>
      <trkpt lat="42.93944" lon="0.56604">
        <ele>690</ele>
        <time>2019-02-03T15:13:44.000Z</time>
      </trkpt>
      <trkpt lat="42.93945" lon="0.56605">
        <ele>689.5</ele>
        <time>2019-02-03T15:13:45.000Z</time>
      </trkpt>
      <trkpt lat="42.93946" lon="0.56605">
        <ele>689</ele>
        <time>2019-02-03T15:13:46.000Z</time>
      </trkpt>
      <trkpt lat="42.93948" lon="0.56605">
        <ele>689</ele>
        <time>2019-02-03T15:13:47.000Z</time>
      </trkpt>
      <trkpt lat="42.93949" lon="0.56605">
        <ele>689</ele>
        <time>2019-02-03T15:13:48.000Z</time>
      </trkpt>
      <trkpt lat="42.93951" lon="0.56606">
        <ele>689</ele>
        <time>2019-02-03T15:13:49.000Z</time>
      </trkpt>
      <trkpt lat="42.93953" lon="0.56606">
        <ele>688.5</ele>
        <time>2019-02-03T15:13:50.000Z</time>
      </trkpt>
      <trkpt lat="42.93954" lon="0.56606">
        <ele>688</ele>
        <time>2019-02-03T15:13:51.000Z</time>
      </trkpt>
      <trkpt lat="42.93955" lon="0.56606">
        <ele>688</ele>
        <time>2019-02-03T15:13:52.000Z</time>
      </trkpt>
      <trkpt lat="42.93957" lon="0.56606">
        <ele>688</ele>
        <time>2019-02-03T15:13:53.000Z</time>
      </trkpt>
      <trkpt lat="42.93958" lon="0.56606">
        <ele>688</ele>
        <time>2019-02-03T15:13:54.000Z</time>
      </trkpt>
      <trkpt lat="42.93959" lon="0.56606">
        <ele>688</ele>
        <time>2019-02-03T15:13:55.000Z</time>
      </trkpt>
      <trkpt lat="42.9396" lon="0.56606">
        <ele>688</ele>
        <time>2019-02-03T15:13:56.000Z</time>
      </trkpt>
      <trkpt lat="42.93962" lon="0.56606">
        <ele>688</ele>
        <time>2019-02-03T15:13:57.000Z</time>
      </trkpt>
      <trkpt lat="42.93963" lon="0.56606">
        <ele>688</ele>
        <time>2019-02-03T15:13:58.000Z</time>
      </trkpt>
      <trkpt lat="42.93964" lon="0.56606">
        <ele>687</ele>
        <time>2019-02-03T15:13:59.000Z</time>
      </trkpt>
      <trkpt lat="42.93966" lon="0.56605">
        <ele>687</ele>
        <time>2019-02-03T15:14:00.000Z</time>
      </trkpt>
      <trkpt lat="42.93967" lon="0.56605">
        <ele>687</ele>
        <time>2019-02-03T15:14:01.000Z</time>
      </trkpt>
      <trkpt lat="42.93968" lon="0.56605">
        <ele>687</ele>
        <time>2019-02-03T15:14:02.000Z</time>
      </trkpt>
      <trkpt lat="42.93969" lon="0.56605">
        <ele>687</ele>
        <time>2019-02-03T15:14:03.000Z</time>
      </trkpt>
      <trkpt lat="42.9397" lon="0.56605">
        <ele>687</ele>
        <time>2019-02-03T15:14:04.000Z</time>
      </trkpt>
      <trkpt lat="42.93971" lon="0.56605">
        <ele>687</ele>
        <time>2019-02-03T15:14:05.000Z</time>
      </trkpt>
      <trkpt lat="42.93972" lon="0.56605">
        <ele>687</ele>
        <time>2019-02-03T15:14:06.000Z</time>
      </trkpt>
      <trkpt lat="42.93973" lon="0.56605">
        <ele>686</ele>
        <time>2019-02-03T15:14:07.000Z</time>
      </trkpt>
      <trkpt lat="42.93975" lon="0.56606">
        <ele>686</ele>
        <time>2019-02-03T15:14:08.000Z</time>
      </trkpt>
      <trkpt lat="42.93976" lon="0.56606">
        <ele>686</ele>
        <time>2019-02-03T15:14:09.000Z</time>
      </trkpt>
      <trkpt lat="42.93977" lon="0.56606">
        <ele>686</ele>
        <time>2019-02-03T15:14:10.000Z</time>
      </trkpt>
      <trkpt lat="42.93978" lon="0.56606">
        <ele>686</ele>
        <time>2019-02-03T15:14:11.000Z</time>
      </trkpt>
      <trkpt lat="42.93979" lon="0.56606">
        <ele>686</ele>
        <time>2019-02-03T15:14:12.000Z</time>
      </trkpt>
      <trkpt lat="42.9398" lon="0.56606">
        <ele>686</ele>
        <time>2019-02-03T15:14:13.000Z</time>
      </trkpt>
      <trkpt lat="42.93982" lon="0.56606">
        <ele>686</ele>
        <time>2019-02-03T15:14:14.000Z</time>
      </trkpt>
      <trkpt lat="42.93984" lon="0.56607">
        <ele>685</ele>
        <time>2019-02-03T15:14:15.000Z</time>
      </trkpt>
      <trkpt lat="42.93985" lon="0.56607">
        <ele>685</ele>
        <time>2019-02-03T15:14:16.000Z</time>
      </trkpt>
      <trkpt lat="42.93987" lon="0.56607">
        <ele>685</ele>
        <time>2019-02-03T15:14:17.000Z</time>
      </trkpt>
      <trkpt lat="42.93988" lon="0.56607">
        <ele>685</ele>
        <time>2019-02-03T15:14:18.000Z</time>
      </trkpt>
      <trkpt lat="42.9399" lon="0.56607">
        <ele>685</ele>
        <time>2019-02-03T15:14:19.000Z</time>
      </trkpt>
      <trkpt lat="42.93991" lon="0.56608">
        <ele>685</ele>
        <time>2019-02-03T15:14:20.000Z</time>
      </trkpt>
      <trkpt lat="42.93993" lon="0.56608">
        <ele>685</ele>
        <time>2019-02-03T15:14:21.000Z</time>
      </trkpt>
      <trkpt lat="42.93994" lon="0.56609">
        <ele>684.7</ele>
        <time>2019-02-03T15:14:22.000Z</time>
      </trkpt>
      <trkpt lat="42.93995" lon="0.56609">
        <ele>684.3</ele>
        <time>2019-02-03T15:14:23.000Z</time>
      </trkpt>
      <trkpt lat="42.93996" lon="0.5661">
        <ele>684</ele>
        <time>2019-02-03T15:14:24.000Z</time>
      </trkpt>
      <trkpt lat="42.93997" lon="0.5661">
        <ele>684</ele>
        <time>2019-02-03T15:14:25.000Z</time>
      </trkpt>
      <trkpt lat="42.93999" lon="0.56611">
        <ele>684</ele>
        <time>2019-02-03T15:14:26.000Z</time>
      </trkpt>
      <trkpt lat="42.94" lon="0.56611">
        <ele>684</ele>
        <time>2019-02-03T15:14:27.000Z</time>
      </trkpt>
      <trkpt lat="42.94002" lon="0.56611">
        <ele>683.5</ele>
        <time>2019-02-03T15:14:28.000Z</time>
      </trkpt>
      <trkpt lat="42.94003" lon="0.56612">
        <ele>683</ele>
        <time>2019-02-03T15:14:29.000Z</time>
      </trkpt>
      <trkpt lat="42.94004" lon="0.56612">
        <ele>683</ele>
        <time>2019-02-03T15:14:30.000Z</time>
      </trkpt>
      <trkpt lat="42.94006" lon="0.56612">
        <ele>683</ele>
        <time>2019-02-03T15:14:31.000Z</time>
      </trkpt>
      <trkpt lat="42.94007" lon="0.56613">
        <ele>683</ele>
        <time>2019-02-03T15:14:32.000Z</time>
      </trkpt>
      <trkpt lat="42.94008" lon="0.56613">
        <ele>683</ele>
        <time>2019-02-03T15:14:33.000Z</time>
      </trkpt>
      <trkpt lat="42.9401" lon="0.56613">
        <ele>683</ele>
        <time>2019-02-03T15:14:34.000Z</time>
      </trkpt>
      <trkpt lat="42.94011" lon="0.56613">
        <ele>683</ele>
        <time>2019-02-03T15:14:35.000Z</time>
      </trkpt>
      <trkpt lat="42.94012" lon="0.56614">
        <ele>682.5</ele>
        <time>2019-02-03T15:14:36.000Z</time>
      </trkpt>
      <trkpt lat="42.94013" lon="0.56614">
        <ele>682</ele>
        <time>2019-02-03T15:14:37.000Z</time>
      </trkpt>
      <trkpt lat="42.94014" lon="0.56615">
        <ele>682</ele>
        <time>2019-02-03T15:14:38.000Z</time>
      </trkpt>
      <trkpt lat="42.94015" lon="0.56615">
        <ele>682</ele>
        <time>2019-02-03T15:14:39.000Z</time>
      </trkpt>
      <trkpt lat="42.94017" lon="0.56616">
        <ele>682</ele>
        <time>2019-02-03T15:14:40.000Z</time>
      </trkpt>
      <trkpt lat="42.94018" lon="0.56616">
        <ele>682</ele>
        <time>2019-02-03T15:14:41.000Z</time>
      </trkpt>
      <trkpt lat="42.94019" lon="0.56617">
        <ele>681.5</ele>
        <time>2019-02-03T15:14:42.000Z</time>
      </trkpt>
      <trkpt lat="42.9402" lon="0.56617">
        <ele>681</ele>
        <time>2019-02-03T15:14:43.000Z</time>
      </trkpt>
      <trkpt lat="42.94021" lon="0.56618">
        <ele>681</ele>
        <time>2019-02-03T15:14:44.000Z</time>
      </trkpt>
      <trkpt lat="42.94023" lon="0.56619">
        <ele>681</ele>
        <time>2019-02-03T15:14:45.000Z</time>
      </trkpt>
      <trkpt lat="42.94024" lon="0.56619">
        <ele>681</ele>
        <time>2019-02-03T15:14:46.000Z</time>
      </trkpt>
      <trkpt lat="42.94025" lon="0.5662">
        <ele>681</ele>
        <time>2019-02-03T15:14:47.000Z</time>
      </trkpt>
      <trkpt lat="42.94026" lon="0.56621">
        <ele>681</ele>
        <time>2019-02-03T15:14:48.000Z</time>
      </trkpt>
      <trkpt lat="42.94027" lon="0.56622">
        <ele>681</ele>
        <time>2019-02-03T15:14:49.000Z</time>
      </trkpt>
      <trkpt lat="42.94028" lon="0.56622">
        <ele>680.5</ele>
        <time>2019-02-03T15:14:50.000Z</time>
      </trkpt>
      <trkpt lat="42.94029" lon="0.56623">
        <ele>680</ele>
        <time>2019-02-03T15:14:51.000Z</time>
      </trkpt>
      <trkpt lat="42.9403" lon="0.56623">
        <ele>680</ele>
        <time>2019-02-03T15:14:52.000Z</time>
      </trkpt>
      <trkpt lat="42.94031" lon="0.56624">
        <ele>680</ele>
        <time>2019-02-03T15:14:53.000Z</time>
      </trkpt>
      <trkpt lat="42.94032" lon="0.56625">
        <ele>680</ele>
        <time>2019-02-03T15:14:54.000Z</time>
      </trkpt>
      <trkpt lat="42.94033" lon="0.56625">
        <ele>680</ele>
        <time>2019-02-03T15:14:55.000Z</time>
      </trkpt>
      <trkpt lat="42.94034" lon="0.56625">
        <ele>680</ele>
        <time>2019-02-03T15:14:56.000Z</time>
      </trkpt>
      <trkpt lat="42.94036" lon="0.56626">
        <ele>680</ele>
        <time>2019-02-03T15:14:57.000Z</time>
      </trkpt>
      <trkpt lat="42.94037" lon="0.56626">
        <ele>679.5</ele>
        <time>2019-02-03T15:14:58.000Z</time>
      </trkpt>
      <trkpt lat="42.94038" lon="0.56627">
        <ele>679</ele>
        <time>2019-02-03T15:14:59.000Z</time>
      </trkpt>
      <trkpt lat="42.9404" lon="0.56627">
        <ele>679</ele>
        <time>2019-02-03T15:15:00.000Z</time>
      </trkpt>
      <trkpt lat="42.94041" lon="0.56627">
        <ele>679</ele>
        <time>2019-02-03T15:15:01.000Z</time>
      </trkpt>
      <trkpt lat="42.94042" lon="0.56628">
        <ele>679</ele>
        <time>2019-02-03T15:15:02.000Z</time>
      </trkpt>
      <trkpt lat="42.94044" lon="0.56628">
        <ele>679</ele>
        <time>2019-02-03T15:15:03.000Z</time>
      </trkpt>
      <trkpt lat="42.94045" lon="0.56628">
        <ele>679</ele>
        <time>2019-02-03T15:15:04.000Z</time>
      </trkpt>
      <trkpt lat="42.94046" lon="0.56629">
        <ele>679</ele>
        <time>2019-02-03T15:15:05.000Z</time>
      </trkpt>
      <trkpt lat="42.94048" lon="0.56629">
        <ele>679</ele>
        <time>2019-02-03T15:15:06.000Z</time>
      </trkpt>
      <trkpt lat="42.94049" lon="0.56629">
        <ele>679</ele>
        <time>2019-02-03T15:15:07.000Z</time>
      </trkpt>
      <trkpt lat="42.9405" lon="0.5663">
        <ele>679</ele>
        <time>2019-02-03T15:15:08.000Z</time>
      </trkpt>
      <trkpt lat="42.94051" lon="0.5663">
        <ele>678</ele>
        <time>2019-02-03T15:15:09.000Z</time>
      </trkpt>
      <trkpt lat="42.94052" lon="0.56631">
        <ele>678</ele>
        <time>2019-02-03T15:15:10.000Z</time>
      </trkpt>
      <trkpt lat="42.94054" lon="0.56631">
        <ele>678</ele>
        <time>2019-02-03T15:15:11.000Z</time>
      </trkpt>
      <trkpt lat="42.94056" lon="0.56632">
        <ele>678</ele>
        <time>2019-02-03T15:15:12.000Z</time>
      </trkpt>
      <trkpt lat="42.94057" lon="0.56632">
        <ele>678</ele>
        <time>2019-02-03T15:15:13.000Z</time>
      </trkpt>
      <trkpt lat="42.94058" lon="0.56633">
        <ele>678</ele>
        <time>2019-02-03T15:15:14.000Z</time>
      </trkpt>
      <trkpt lat="42.94059" lon="0.56633">
        <ele>678</ele>
        <time>2019-02-03T15:15:15.000Z</time>
      </trkpt>
      <trkpt lat="42.9406" lon="0.56633">
        <ele>678</ele>
        <time>2019-02-03T15:15:16.000Z</time>
      </trkpt>
      <trkpt lat="42.94061" lon="0.56634">
        <ele>677</ele>
        <time>2019-02-03T15:15:17.000Z</time>
      </trkpt>
      <trkpt lat="42.94062" lon="0.56635">
        <ele>677</ele>
        <time>2019-02-03T15:15:18.000Z</time>
      </trkpt>
      <trkpt lat="42.94063" lon="0.56635">
        <ele>677</ele>
        <time>2019-02-03T15:15:19.000Z</time>
      </trkpt>
      <trkpt lat="42.94064" lon="0.56636">
        <ele>677</ele>
        <time>2019-02-03T15:15:20.000Z</time>
      </trkpt>
      <trkpt lat="42.94065" lon="0.56637">
        <ele>677</ele>
        <time>2019-02-03T15:15:21.000Z</time>
      </trkpt>
      <trkpt lat="42.94067" lon="0.56637">
        <ele>677</ele>
        <time>2019-02-03T15:15:22.000Z</time>
      </trkpt>
      <trkpt lat="42.94068" lon="0.56637">
        <ele>677</ele>
        <time>2019-02-03T15:15:23.000Z</time>
      </trkpt>
      <trkpt lat="42.94069" lon="0.56638">
        <ele>677</ele>
        <time>2019-02-03T15:15:24.000Z</time>
      </trkpt>
      <trkpt lat="42.9407" lon="0.56638">
        <ele>677</ele>
        <time>2019-02-03T15:15:25.000Z</time>
      </trkpt>
      <trkpt lat="42.94072" lon="0.56638">
        <ele>676.7</ele>
        <time>2019-02-03T15:15:26.000Z</time>
      </trkpt>
      <trkpt lat="42.94073" lon="0.56639">
        <ele>676.3</ele>
        <time>2019-02-03T15:15:27.000Z</time>
      </trkpt>
      <trkpt lat="42.94074" lon="0.56639">
        <ele>676</ele>
        <time>2019-02-03T15:15:28.000Z</time>
      </trkpt>
      <trkpt lat="42.94075" lon="0.56639">
        <ele>676</ele>
        <time>2019-02-03T15:15:29.000Z</time>
      </trkpt>
      <trkpt lat="42.94076" lon="0.56639">
        <ele>676</ele>
        <time>2019-02-03T15:15:30.000Z</time>
      </trkpt>
      <trkpt lat="42.94078" lon="0.5664">
        <ele>676</ele>
        <time>2019-02-03T15:15:31.000Z</time>
      </trkpt>
      <trkpt lat="42.94079" lon="0.5664">
        <ele>676</ele>
        <time>2019-02-03T15:15:32.000Z</time>
      </trkpt>
      <trkpt lat="42.9408" lon="0.5664">
        <ele>676</ele>
        <time>2019-02-03T15:15:33.000Z</time>
      </trkpt>
      <trkpt lat="42.94081" lon="0.5664">
        <ele>675.7</ele>
        <time>2019-02-03T15:15:34.000Z</time>
      </trkpt>
      <trkpt lat="42.94083" lon="0.5664">
        <ele>675.3</ele>
        <time>2019-02-03T15:15:35.000Z</time>
      </trkpt>
      <trkpt lat="42.94084" lon="0.5664">
        <ele>675</ele>
        <time>2019-02-03T15:15:36.000Z</time>
      </trkpt>
      <trkpt lat="42.94085" lon="0.5664">
        <ele>675</ele>
        <time>2019-02-03T15:15:37.000Z</time>
      </trkpt>
      <trkpt lat="42.94086" lon="0.5664">
        <ele>675</ele>
        <time>2019-02-03T15:15:38.000Z</time>
      </trkpt>
      <trkpt lat="42.94087" lon="0.56641">
        <ele>675</ele>
        <time>2019-02-03T15:15:39.000Z</time>
      </trkpt>
      <trkpt lat="42.94088" lon="0.56641">
        <ele>675</ele>
        <time>2019-02-03T15:15:40.000Z</time>
      </trkpt>
      <trkpt lat="42.94089" lon="0.56641">
        <ele>675</ele>
        <time>2019-02-03T15:15:41.000Z</time>
      </trkpt>
      <trkpt lat="42.94091" lon="0.56641">
        <ele>674.7</ele>
        <time>2019-02-03T15:15:42.000Z</time>
      </trkpt>
      <trkpt lat="42.94092" lon="0.56641">
        <ele>674.3</ele>
        <time>2019-02-03T15:15:43.000Z</time>
      </trkpt>
      <trkpt lat="42.94093" lon="0.56641">
        <ele>674</ele>
        <time>2019-02-03T15:15:44.000Z</time>
      </trkpt>
      <trkpt lat="42.94095" lon="0.56641">
        <ele>674</ele>
        <time>2019-02-03T15:15:45.000Z</time>
      </trkpt>
      <trkpt lat="42.94097" lon="0.56642">
        <ele>674</ele>
        <time>2019-02-03T15:15:46.000Z</time>
      </trkpt>
      <trkpt lat="42.94098" lon="0.56642">
        <ele>674</ele>
        <time>2019-02-03T15:15:47.000Z</time>
      </trkpt>
      <trkpt lat="42.941" lon="0.56642">
        <ele>674</ele>
        <time>2019-02-03T15:15:48.000Z</time>
      </trkpt>
      <trkpt lat="42.94101" lon="0.56642">
        <ele>674</ele>
        <time>2019-02-03T15:15:49.000Z</time>
      </trkpt>
      <trkpt lat="42.94103" lon="0.56642">
        <ele>674</ele>
        <time>2019-02-03T15:15:50.000Z</time>
      </trkpt>
      <trkpt lat="42.94104" lon="0.56642">
        <ele>674</ele>
        <time>2019-02-03T15:15:51.000Z</time>
      </trkpt>
      <trkpt lat="42.94105" lon="0.56642">
        <ele>674</ele>
        <time>2019-02-03T15:15:52.000Z</time>
      </trkpt>
      <trkpt lat="42.94106" lon="0.56642">
        <ele>674</ele>
        <time>2019-02-03T15:15:53.000Z</time>
      </trkpt>
      <trkpt lat="42.94108" lon="0.56643">
        <ele>674</ele>
        <time>2019-02-03T15:15:54.000Z</time>
      </trkpt>
      <trkpt lat="42.94109" lon="0.56643">
        <ele>673.5</ele>
        <time>2019-02-03T15:15:55.000Z</time>
      </trkpt>
      <trkpt lat="42.9411" lon="0.56644">
        <ele>673</ele>
        <time>2019-02-03T15:15:56.000Z</time>
      </trkpt>
      <trkpt lat="42.94112" lon="0.56644">
        <ele>673</ele>
        <time>2019-02-03T15:15:57.000Z</time>
      </trkpt>
      <trkpt lat="42.94113" lon="0.56645">
        <ele>673</ele>
        <time>2019-02-03T15:15:58.000Z</time>
      </trkpt>
      <trkpt lat="42.94114" lon="0.56645">
        <ele>673</ele>
        <time>2019-02-03T15:15:59.000Z</time>
      </trkpt>
      <trkpt lat="42.94115" lon="0.56646">
        <ele>672.5</ele>
        <time>2019-02-03T15:16:00.000Z</time>
      </trkpt>
      <trkpt lat="42.94116" lon="0.56646">
        <ele>672</ele>
        <time>2019-02-03T15:16:01.000Z</time>
      </trkpt>
      <trkpt lat="42.94118" lon="0.56647">
        <ele>672</ele>
        <time>2019-02-03T15:16:02.000Z</time>
      </trkpt>
      <trkpt lat="42.94119" lon="0.56647">
        <ele>672</ele>
        <time>2019-02-03T15:16:03.000Z</time>
      </trkpt>
      <trkpt lat="42.9412" lon="0.56648">
        <ele>672</ele>
        <time>2019-02-03T15:16:04.000Z</time>
      </trkpt>
      <trkpt lat="42.94121" lon="0.56649">
        <ele>672</ele>
        <time>2019-02-03T15:16:05.000Z</time>
      </trkpt>
      <trkpt lat="42.94121" lon="0.56649">
        <ele>672</ele>
        <time>2019-02-03T15:16:06.000Z</time>
      </trkpt>
      <trkpt lat="42.94122" lon="0.56648">
        <ele>672</ele>
        <time>2019-02-03T15:16:07.000Z</time>
      </trkpt>
      <trkpt lat="42.94122" lon="0.56647">
        <ele>672</ele>
        <time>2019-02-03T15:16:08.000Z</time>
      </trkpt>
      <trkpt lat="42.94122" lon="0.56645">
        <ele>672</ele>
        <time>2019-02-03T15:16:09.000Z</time>
      </trkpt>
      <trkpt lat="42.94122" lon="0.56644">
        <ele>672</ele>
        <time>2019-02-03T15:16:10.000Z</time>
      </trkpt>
      <trkpt lat="42.94123" lon="0.56643">
        <ele>672</ele>
        <time>2019-02-03T15:16:11.000Z</time>
      </trkpt>
      <trkpt lat="42.94124" lon="0.56643">
        <ele>672</ele>
        <time>2019-02-03T15:16:12.000Z</time>
      </trkpt>
      <trkpt lat="42.94125" lon="0.56644">
        <ele>671</ele>
        <time>2019-02-03T15:16:13.000Z</time>
      </trkpt>
      <trkpt lat="42.94126" lon="0.56644">
        <ele>671</ele>
        <time>2019-02-03T15:16:14.000Z</time>
      </trkpt>
      <trkpt lat="42.94128" lon="0.56644">
        <ele>671</ele>
        <time>2019-02-03T15:16:15.000Z</time>
      </trkpt>
      <trkpt lat="42.94129" lon="0.56643">
        <ele>671</ele>
        <time>2019-02-03T15:16:16.000Z</time>
      </trkpt>
      <trkpt lat="42.9413" lon="0.56643">
        <ele>671</ele>
        <time>2019-02-03T15:16:17.000Z</time>
      </trkpt>
      <trkpt lat="42.94131" lon="0.56643">
        <ele>670.7</ele>
        <time>2019-02-03T15:16:18.000Z</time>
      </trkpt>
      <trkpt lat="42.94131" lon="0.56642">
        <ele>670.3</ele>
        <time>2019-02-03T15:16:19.000Z</time>
      </trkpt>
      <trkpt lat="42.94132" lon="0.56642">
        <ele>670</ele>
        <time>2019-02-03T15:16:20.000Z</time>
      </trkpt>
      <trkpt lat="42.94133" lon="0.56641">
        <ele>670</ele>
        <time>2019-02-03T15:16:21.000Z</time>
      </trkpt>
      <trkpt lat="42.94134" lon="0.56641">
        <ele>670</ele>
        <time>2019-02-03T15:16:22.000Z</time>
      </trkpt>
      <trkpt lat="42.94135" lon="0.5664">
        <ele>670</ele>
        <time>2019-02-03T15:16:23.000Z</time>
      </trkpt>
      <trkpt lat="42.94135" lon="0.5664">
        <ele>670</ele>
        <time>2019-02-03T15:16:24.000Z</time>
      </trkpt>
      <trkpt lat="42.94136" lon="0.56639">
        <ele>670</ele>
        <time>2019-02-03T15:16:25.000Z</time>
      </trkpt>
      <trkpt lat="42.94137" lon="0.56638">
        <ele>670</ele>
        <time>2019-02-03T15:16:26.000Z</time>
      </trkpt>
      <trkpt lat="42.94138" lon="0.56637">
        <ele>670</ele>
        <time>2019-02-03T15:16:27.000Z</time>
      </trkpt>
      <trkpt lat="42.94138" lon="0.56636">
        <ele>669.7</ele>
        <time>2019-02-03T15:16:28.000Z</time>
      </trkpt>
      <trkpt lat="42.94139" lon="0.56635">
        <ele>669.3</ele>
        <time>2019-02-03T15:16:29.000Z</time>
      </trkpt>
      <trkpt lat="42.94139" lon="0.56634">
        <ele>669</ele>
        <time>2019-02-03T15:16:30.000Z</time>
      </trkpt>
      <trkpt lat="42.9414" lon="0.56633">
        <ele>669</ele>
        <time>2019-02-03T15:16:31.000Z</time>
      </trkpt>
      <trkpt lat="42.94141" lon="0.56632">
        <ele>669</ele>
        <time>2019-02-03T15:16:32.000Z</time>
      </trkpt>
      <trkpt lat="42.94142" lon="0.56631">
        <ele>669</ele>
        <time>2019-02-03T15:16:33.000Z</time>
      </trkpt>
      <trkpt lat="42.94143" lon="0.56631">
        <ele>669</ele>
        <time>2019-02-03T15:16:34.000Z</time>
      </trkpt>
      <trkpt lat="42.94144" lon="0.5663">
        <ele>669</ele>
        <time>2019-02-03T15:16:35.000Z</time>
      </trkpt>
      <trkpt lat="42.94145" lon="0.56629">
        <ele>669</ele>
        <time>2019-02-03T15:16:36.000Z</time>
      </trkpt>
      <trkpt lat="42.94146" lon="0.56629">
        <ele>669</ele>
        <time>2019-02-03T15:16:37.000Z</time>
      </trkpt>
      <trkpt lat="42.94147" lon="0.56628">
        <ele>669</ele>
        <time>2019-02-03T15:16:38.000Z</time>
      </trkpt>
      <trkpt lat="42.94148" lon="0.56627">
        <ele>669</ele>
        <time>2019-02-03T15:16:39.000Z</time>
      </trkpt>
      <trkpt lat="42.9415" lon="0.56626">
        <ele>669</ele>
        <time>2019-02-03T15:16:40.000Z</time>
      </trkpt>
      <trkpt lat="42.94151" lon="0.56626">
        <ele>668</ele>
        <time>2019-02-03T15:16:41.000Z</time>
      </trkpt>
      <trkpt lat="42.94152" lon="0.56625">
        <ele>668</ele>
        <time>2019-02-03T15:16:42.000Z</time>
      </trkpt>
      <trkpt lat="42.94154" lon="0.56624">
        <ele>668</ele>
        <time>2019-02-03T15:16:43.000Z</time>
      </trkpt>
      <trkpt lat="42.94156" lon="0.56624">
        <ele>668</ele>
        <time>2019-02-03T15:16:44.000Z</time>
      </trkpt>
      <trkpt lat="42.94157" lon="0.56624">
        <ele>668</ele>
        <time>2019-02-03T15:16:45.000Z</time>
      </trkpt>
      <trkpt lat="42.94159" lon="0.56623">
        <ele>668</ele>
        <time>2019-02-03T15:16:46.000Z</time>
      </trkpt>
      <trkpt lat="42.9416" lon="0.56622">
        <ele>668</ele>
        <time>2019-02-03T15:16:47.000Z</time>
      </trkpt>
      <trkpt lat="42.9416" lon="0.56621">
        <ele>668</ele>
        <time>2019-02-03T15:16:48.000Z</time>
      </trkpt>
      <trkpt lat="42.9416" lon="0.56618">
        <ele>668</ele>
        <time>2019-02-03T15:16:49.000Z</time>
      </trkpt>
      <trkpt lat="42.94161" lon="0.56616">
        <ele>668</ele>
        <time>2019-02-03T15:16:50.000Z</time>
      </trkpt>
      <trkpt lat="42.94163" lon="0.56616">
        <ele>668</ele>
        <time>2019-02-03T15:16:51.000Z</time>
      </trkpt>
      <trkpt lat="42.94164" lon="0.56616">
        <ele>668</ele>
        <time>2019-02-03T15:16:52.000Z</time>
      </trkpt>
      <trkpt lat="42.94166" lon="0.56615">
        <ele>668</ele>
        <time>2019-02-03T15:16:53.000Z</time>
      </trkpt>
      <trkpt lat="42.94167" lon="0.56615">
        <ele>668</ele>
        <time>2019-02-03T15:16:54.000Z</time>
      </trkpt>
      <trkpt lat="42.94168" lon="0.56615">
        <ele>668</ele>
        <time>2019-02-03T15:16:55.000Z</time>
      </trkpt>
      <trkpt lat="42.9417" lon="0.56615">
        <ele>667.7</ele>
        <time>2019-02-03T15:16:56.000Z</time>
      </trkpt>
      <trkpt lat="42.94171" lon="0.56615">
        <ele>667.3</ele>
        <time>2019-02-03T15:16:57.000Z</time>
      </trkpt>
      <trkpt lat="42.94172" lon="0.56614">
        <ele>667</ele>
        <time>2019-02-03T15:16:58.000Z</time>
      </trkpt>
      <trkpt lat="42.94173" lon="0.56614">
        <ele>667</ele>
        <time>2019-02-03T15:16:59.000Z</time>
      </trkpt>
      <trkpt lat="42.94175" lon="0.56614">
        <ele>667</ele>
        <time>2019-02-03T15:17:00.000Z</time>
      </trkpt>
      <trkpt lat="42.94176" lon="0.56613">
        <ele>667</ele>
        <time>2019-02-03T15:17:01.000Z</time>
      </trkpt>
      <trkpt lat="42.94177" lon="0.56613">
        <ele>667</ele>
        <time>2019-02-03T15:17:02.000Z</time>
      </trkpt>
      <trkpt lat="42.94179" lon="0.56612">
        <ele>667</ele>
        <time>2019-02-03T15:17:03.000Z</time>
      </trkpt>
      <trkpt lat="42.9418" lon="0.56611">
        <ele>667</ele>
        <time>2019-02-03T15:17:04.000Z</time>
      </trkpt>
      <trkpt lat="42.94181" lon="0.56611">
        <ele>667</ele>
        <time>2019-02-03T15:17:05.000Z</time>
      </trkpt>
      <trkpt lat="42.94182" lon="0.56609">
        <ele>667</ele>
        <time>2019-02-03T15:17:06.000Z</time>
      </trkpt>
      <trkpt lat="42.94183" lon="0.56608">
        <ele>667</ele>
        <time>2019-02-03T15:17:07.000Z</time>
      </trkpt>
      <trkpt lat="42.94184" lon="0.56607">
        <ele>667</ele>
        <time>2019-02-03T15:17:08.000Z</time>
      </trkpt>
      <trkpt lat="42.94185" lon="0.56606">
        <ele>667</ele>
        <time>2019-02-03T15:17:09.000Z</time>
      </trkpt>
      <trkpt lat="42.94186" lon="0.56605">
        <ele>666.7</ele>
        <time>2019-02-03T15:17:10.000Z</time>
      </trkpt>
      <trkpt lat="42.94187" lon="0.56604">
        <ele>666.3</ele>
        <time>2019-02-03T15:17:11.000Z</time>
      </trkpt>
      <trkpt lat="42.94187" lon="0.56603">
        <ele>666</ele>
        <time>2019-02-03T15:17:12.000Z</time>
      </trkpt>
      <trkpt lat="42.94188" lon="0.56602">
        <ele>666</ele>
        <time>2019-02-03T15:17:13.000Z</time>
      </trkpt>
      <trkpt lat="42.94189" lon="0.56601">
        <ele>666</ele>
        <time>2019-02-03T15:17:14.000Z</time>
      </trkpt>
      <trkpt lat="42.9419" lon="0.566">
        <ele>666</ele>
        <time>2019-02-03T15:17:15.000Z</time>
      </trkpt>
      <trkpt lat="42.94191" lon="0.56599">
        <ele>666</ele>
        <time>2019-02-03T15:17:16.000Z</time>
      </trkpt>
      <trkpt lat="42.94191" lon="0.56597">
        <ele>666</ele>
        <time>2019-02-03T15:17:17.000Z</time>
      </trkpt>
      <trkpt lat="42.94192" lon="0.56596">
        <ele>666</ele>
        <time>2019-02-03T15:17:18.000Z</time>
      </trkpt>
      <trkpt lat="42.94193" lon="0.56595">
        <ele>666</ele>
        <time>2019-02-03T15:17:19.000Z</time>
      </trkpt>
      <trkpt lat="42.94193" lon="0.56594">
        <ele>666</ele>
        <time>2019-02-03T15:17:20.000Z</time>
      </trkpt>
      <trkpt lat="42.94194" lon="0.56593">
        <ele>666</ele>
        <time>2019-02-03T15:17:21.000Z</time>
      </trkpt>
      <trkpt lat="42.94195" lon="0.56592">
        <ele>666</ele>
        <time>2019-02-03T15:17:22.000Z</time>
      </trkpt>
      <trkpt lat="42.94195" lon="0.56591">
        <ele>666</ele>
        <time>2019-02-03T15:17:23.000Z</time>
      </trkpt>
      <trkpt lat="42.94196" lon="0.5659">
        <ele>666</ele>
        <time>2019-02-03T15:17:24.000Z</time>
      </trkpt>
      <trkpt lat="42.94196" lon="0.5659">
        <ele>665.5</ele>
        <time>2019-02-03T15:17:25.000Z</time>
      </trkpt>
      <trkpt lat="42.94197" lon="0.56589">
        <ele>665</ele>
        <time>2019-02-03T15:17:26.000Z</time>
      </trkpt>
      <trkpt lat="42.94197" lon="0.56589">
        <ele>665</ele>
        <time>2019-02-03T15:17:27.000Z</time>
      </trkpt>
      <trkpt lat="42.94198" lon="0.56588">
        <ele>665</ele>
        <time>2019-02-03T15:17:28.000Z</time>
      </trkpt>
      <trkpt lat="42.94199" lon="0.56587">
        <ele>665</ele>
        <time>2019-02-03T15:17:29.000Z</time>
      </trkpt>
      <trkpt lat="42.94199" lon="0.56586">
        <ele>665</ele>
        <time>2019-02-03T15:17:30.000Z</time>
      </trkpt>
      <trkpt lat="42.942" lon="0.56585">
        <ele>665</ele>
        <time>2019-02-03T15:17:31.000Z</time>
      </trkpt>
      <trkpt lat="42.94201" lon="0.56584">
        <ele>665</ele>
        <time>2019-02-03T15:17:32.000Z</time>
      </trkpt>
      <trkpt lat="42.94201" lon="0.56582">
        <ele>665</ele>
        <time>2019-02-03T15:17:33.000Z</time>
      </trkpt>
      <trkpt lat="42.94202" lon="0.56581">
        <ele>665</ele>
        <time>2019-02-03T15:17:34.000Z</time>
      </trkpt>
      <trkpt lat="42.94203" lon="0.5658">
        <ele>664.5</ele>
        <time>2019-02-03T15:17:35.000Z</time>
      </trkpt>
      <trkpt lat="42.94203" lon="0.56578">
        <ele>664</ele>
        <time>2019-02-03T15:17:36.000Z</time>
      </trkpt>
      <trkpt lat="42.94204" lon="0.56577">
        <ele>664</ele>
        <time>2019-02-03T15:17:37.000Z</time>
      </trkpt>
      <trkpt lat="42.94205" lon="0.56575">
        <ele>664</ele>
        <time>2019-02-03T15:17:38.000Z</time>
      </trkpt>
      <trkpt lat="42.94205" lon="0.56574">
        <ele>664</ele>
        <time>2019-02-03T15:17:39.000Z</time>
      </trkpt>
      <trkpt lat="42.94206" lon="0.56572">
        <ele>664</ele>
        <time>2019-02-03T15:17:40.000Z</time>
      </trkpt>
      <trkpt lat="42.94206" lon="0.56571">
        <ele>663.5</ele>
        <time>2019-02-03T15:17:41.000Z</time>
      </trkpt>
      <trkpt lat="42.94206" lon="0.56569">
        <ele>663</ele>
        <time>2019-02-03T15:17:42.000Z</time>
      </trkpt>
      <trkpt lat="42.94207" lon="0.56568">
        <ele>663</ele>
        <time>2019-02-03T15:17:43.000Z</time>
      </trkpt>
      <trkpt lat="42.94207" lon="0.56566">
        <ele>663</ele>
        <time>2019-02-03T15:17:44.000Z</time>
      </trkpt>
      <trkpt lat="42.94207" lon="0.56565">
        <ele>663</ele>
        <time>2019-02-03T15:17:45.000Z</time>
      </trkpt>
      <trkpt lat="42.94207" lon="0.56564">
        <ele>663</ele>
        <time>2019-02-03T15:17:46.000Z</time>
      </trkpt>
      <trkpt lat="42.94207" lon="0.56562">
        <ele>663</ele>
        <time>2019-02-03T15:17:47.000Z</time>
      </trkpt>
      <trkpt lat="42.94208" lon="0.56561">
        <ele>663</ele>
        <time>2019-02-03T15:17:48.000Z</time>
      </trkpt>
      <trkpt lat="42.94208" lon="0.5656">
        <ele>662.5</ele>
        <time>2019-02-03T15:17:49.000Z</time>
      </trkpt>
      <trkpt lat="42.94208" lon="0.56558">
        <ele>662</ele>
        <time>2019-02-03T15:17:50.000Z</time>
      </trkpt>
      <trkpt lat="42.94208" lon="0.56557">
        <ele>662</ele>
        <time>2019-02-03T15:17:51.000Z</time>
      </trkpt>
      <trkpt lat="42.94208" lon="0.56555">
        <ele>662</ele>
        <time>2019-02-03T15:17:52.000Z</time>
      </trkpt>
      <trkpt lat="42.94208" lon="0.56554">
        <ele>662</ele>
        <time>2019-02-03T15:17:53.000Z</time>
      </trkpt>
      <trkpt lat="42.94208" lon="0.56552">
        <ele>662</ele>
        <time>2019-02-03T15:17:54.000Z</time>
      </trkpt>
      <trkpt lat="42.94208" lon="0.56551">
        <ele>662</ele>
        <time>2019-02-03T15:17:55.000Z</time>
      </trkpt>
      <trkpt lat="42.94208" lon="0.5655">
        <ele>661.7</ele>
        <time>2019-02-03T15:17:56.000Z</time>
      </trkpt>
      <trkpt lat="42.94208" lon="0.56548">
        <ele>661.3</ele>
        <time>2019-02-03T15:17:57.000Z</time>
      </trkpt>
      <trkpt lat="42.94208" lon="0.56547">
        <ele>661</ele>
        <time>2019-02-03T15:17:58.000Z</time>
      </trkpt>
      <trkpt lat="42.94208" lon="0.56547">
        <ele>661</ele>
        <time>2019-02-03T15:17:59.000Z</time>
      </trkpt>
      <trkpt lat="42.94208" lon="0.56546">
        <ele>661</ele>
        <time>2019-02-03T15:18:00.000Z</time>
      </trkpt>
      <trkpt lat="42.94207" lon="0.56544">
        <ele>661</ele>
        <time>2019-02-03T15:18:01.000Z</time>
      </trkpt>
      <trkpt lat="42.94207" lon="0.56543">
        <ele>660.7</ele>
        <time>2019-02-03T15:18:02.000Z</time>
      </trkpt>
      <trkpt lat="42.94207" lon="0.56541">
        <ele>660.3</ele>
        <time>2019-02-03T15:18:03.000Z</time>
      </trkpt>
      <trkpt lat="42.94207" lon="0.5654">
        <ele>660</ele>
        <time>2019-02-03T15:18:04.000Z</time>
      </trkpt>
      <trkpt lat="42.94207" lon="0.56538">
        <ele>660</ele>
        <time>2019-02-03T15:18:05.000Z</time>
      </trkpt>
      <trkpt lat="42.94207" lon="0.56537">
        <ele>660</ele>
        <time>2019-02-03T15:18:06.000Z</time>
      </trkpt>
      <trkpt lat="42.94207" lon="0.56536">
        <ele>660</ele>
        <time>2019-02-03T15:18:07.000Z</time>
      </trkpt>
      <trkpt lat="42.94207" lon="0.56535">
        <ele>660</ele>
        <time>2019-02-03T15:18:08.000Z</time>
      </trkpt>
      <trkpt lat="42.94207" lon="0.56534">
        <ele>660</ele>
        <time>2019-02-03T15:18:09.000Z</time>
      </trkpt>
      <trkpt lat="42.94208" lon="0.56532">
        <ele>660</ele>
        <time>2019-02-03T15:18:10.000Z</time>
      </trkpt>
      <trkpt lat="42.94208" lon="0.56531">
        <ele>659.5</ele>
        <time>2019-02-03T15:18:11.000Z</time>
      </trkpt>
      <trkpt lat="42.94208" lon="0.5653">
        <ele>659</ele>
        <time>2019-02-03T15:18:12.000Z</time>
      </trkpt>
      <trkpt lat="42.94208" lon="0.56528">
        <ele>659</ele>
        <time>2019-02-03T15:18:13.000Z</time>
      </trkpt>
      <trkpt lat="42.94208" lon="0.56526">
        <ele>659</ele>
        <time>2019-02-03T15:18:14.000Z</time>
      </trkpt>
      <trkpt lat="42.94208" lon="0.56524">
        <ele>659</ele>
        <time>2019-02-03T15:18:15.000Z</time>
      </trkpt>
      <trkpt lat="42.94208" lon="0.56522">
        <ele>659</ele>
        <time>2019-02-03T15:18:16.000Z</time>
      </trkpt>
      <trkpt lat="42.94208" lon="0.5652">
        <ele>659</ele>
        <time>2019-02-03T15:18:17.000Z</time>
      </trkpt>
      <trkpt lat="42.94209" lon="0.56518">
        <ele>658.7</ele>
        <time>2019-02-03T15:18:18.000Z</time>
      </trkpt>
      <trkpt lat="42.94209" lon="0.56517">
        <ele>658.3</ele>
        <time>2019-02-03T15:18:19.000Z</time>
      </trkpt>
      <trkpt lat="42.94209" lon="0.56515">
        <ele>658</ele>
        <time>2019-02-03T15:18:20.000Z</time>
      </trkpt>
      <trkpt lat="42.9421" lon="0.56513">
        <ele>658</ele>
        <time>2019-02-03T15:18:21.000Z</time>
      </trkpt>
      <trkpt lat="42.9421" lon="0.56512">
        <ele>658</ele>
        <time>2019-02-03T15:18:22.000Z</time>
      </trkpt>
      <trkpt lat="42.9421" lon="0.5651">
        <ele>658</ele>
        <time>2019-02-03T15:18:23.000Z</time>
      </trkpt>
      <trkpt lat="42.94211" lon="0.56508">
        <ele>658</ele>
        <time>2019-02-03T15:18:24.000Z</time>
      </trkpt>
      <trkpt lat="42.94212" lon="0.56507">
        <ele>658</ele>
        <time>2019-02-03T15:18:25.000Z</time>
      </trkpt>
      <trkpt lat="42.94212" lon="0.56505">
        <ele>658</ele>
        <time>2019-02-03T15:18:26.000Z</time>
      </trkpt>
      <trkpt lat="42.94213" lon="0.56503">
        <ele>657.5</ele>
        <time>2019-02-03T15:18:27.000Z</time>
      </trkpt>
      <trkpt lat="42.94213" lon="0.56501">
        <ele>657</ele>
        <time>2019-02-03T15:18:28.000Z</time>
      </trkpt>
      <trkpt lat="42.94214" lon="0.56499">
        <ele>657</ele>
        <time>2019-02-03T15:18:29.000Z</time>
      </trkpt>
      <trkpt lat="42.94215" lon="0.56497">
        <ele>657</ele>
        <time>2019-02-03T15:18:30.000Z</time>
      </trkpt>
      <trkpt lat="42.94215" lon="0.56496">
        <ele>657</ele>
        <time>2019-02-03T15:18:31.000Z</time>
      </trkpt>
      <trkpt lat="42.94216" lon="0.56494">
        <ele>657</ele>
        <time>2019-02-03T15:18:32.000Z</time>
      </trkpt>
      <trkpt lat="42.94217" lon="0.56492">
        <ele>656</ele>
        <time>2019-02-03T15:18:33.000Z</time>
      </trkpt>
      <trkpt lat="42.94217" lon="0.5649">
        <ele>656</ele>
        <time>2019-02-03T15:18:34.000Z</time>
      </trkpt>
      <trkpt lat="42.94217" lon="0.56489">
        <ele>656</ele>
        <time>2019-02-03T15:18:35.000Z</time>
      </trkpt>
      <trkpt lat="42.94217" lon="0.56488">
        <ele>656</ele>
        <time>2019-02-03T15:18:36.000Z</time>
      </trkpt>
      <trkpt lat="42.94217" lon="0.56487">
        <ele>656</ele>
        <time>2019-02-03T15:18:37.000Z</time>
      </trkpt>
      <trkpt lat="42.94217" lon="0.56487">
        <ele>656</ele>
        <time>2019-02-03T15:18:38.000Z</time>
      </trkpt>
      <trkpt lat="42.94217" lon="0.56487">
        <ele>656</ele>
        <time>2019-02-03T15:18:39.000Z</time>
      </trkpt>
      <trkpt lat="42.94216" lon="0.56487">
        <ele>656</ele>
        <time>2019-02-03T15:18:40.000Z</time>
      </trkpt>
      <trkpt lat="42.94216" lon="0.56486">
        <ele>656</ele>
        <time>2019-02-03T15:18:41.000Z</time>
      </trkpt>
      <trkpt lat="42.94216" lon="0.56486">
        <ele>656</ele>
        <time>2019-02-03T15:18:42.000Z</time>
      </trkpt>
      <trkpt lat="42.94216" lon="0.56486">
        <ele>656</ele>
        <time>2019-02-03T15:18:43.000Z</time>
      </trkpt>
      <trkpt lat="42.94216" lon="0.56486">
        <ele>656</ele>
        <time>2019-02-03T15:18:44.000Z</time>
      </trkpt>
      <trkpt lat="42.94216" lon="0.56486">
        <ele>656</ele>
        <time>2019-02-03T15:18:45.000Z</time>
      </trkpt>
      <trkpt lat="42.94216" lon="0.56486">
        <ele>656</ele>
        <time>2019-02-03T15:18:46.000Z</time>
      </trkpt>
      <trkpt lat="42.94216" lon="0.56486">
        <ele>656</ele>
        <time>2019-02-03T15:18:47.000Z</time>
      </trkpt>
      <trkpt lat="42.94216" lon="0.56486">
        <ele>656</ele>
        <time>2019-02-03T15:18:48.000Z</time>
      </trkpt>
      <trkpt lat="42.94216" lon="0.56486">
        <ele>656</ele>
        <time>2019-02-03T15:18:49.000Z</time>
      </trkpt>
      <trkpt lat="42.94216" lon="0.56486">
        <ele>656</ele>
        <time>2019-02-03T15:18:50.000Z</time>
      </trkpt>
      <trkpt lat="42.94216" lon="0.56486">
        <ele>656</ele>
        <time>2019-02-03T15:18:51.000Z</time>
      </trkpt>
      <trkpt lat="42.94216" lon="0.56486">
        <ele>656</ele>
        <time>2019-02-03T15:18:52.000Z</time>
      </trkpt>
      <trkpt lat="42.94216" lon="0.56486">
        <ele>656</ele>
        <time>2019-02-03T15:18:53.000Z</time>
      </trkpt>
      <trkpt lat="42.94216" lon="0.56486">
        <ele>656</ele>
        <time>2019-02-03T15:18:54.000Z</time>
      </trkpt>
      <trkpt lat="42.94216" lon="0.56486">
        <ele>656</ele>
        <time>2019-02-03T15:18:55.000Z</time>
      </trkpt>
      <trkpt lat="42.94216" lon="0.56486">
        <ele>656</ele>
        <time>2019-02-03T15:18:56.000Z</time>
      </trkpt>
      <trkpt lat="42.94216" lon="0.56486">
        <ele>656</ele>
        <time>2019-02-03T15:18:57.000Z</time>
      </trkpt>
      <trkpt lat="42.94216" lon="0.56486">
        <ele>656</ele>
        <time>2019-02-03T15:18:58.000Z</time>
      </trkpt>
      <trkpt lat="42.94216" lon="0.56486">
        <ele>656</ele>
        <time>2019-02-03T15:18:59.000Z</time>
      </trkpt>
      <trkpt lat="42.94216" lon="0.56486">
        <ele>656</ele>
        <time>2019-02-03T15:19:00.000Z</time>
      </trkpt>
      <trkpt lat="42.94216" lon="0.56486">
        <ele>656</ele>
        <time>2019-02-03T15:19:01.000Z</time>
      </trkpt>
      <trkpt lat="42.94216" lon="0.56486">
        <ele>656</ele>
        <time>2019-02-03T15:19:02.000Z</time>
      </trkpt>
      <trkpt lat="42.94216" lon="0.56486">
        <ele>656</ele>
        <time>2019-02-03T15:19:03.000Z</time>
      </trkpt>
      <trkpt lat="42.94216" lon="0.56486">
        <ele>656</ele>
        <time>2019-02-03T15:19:04.000Z</time>
      </trkpt>
      <trkpt lat="42.94216" lon="0.56486">
        <ele>656</ele>
        <time>2019-02-03T15:19:05.000Z</time>
      </trkpt>
      <trkpt lat="42.94216" lon="0.56486">
        <ele>656</ele>
        <time>2019-02-03T15:19:06.000Z</time>
      </trkpt>
      <trkpt lat="42.94217" lon="0.56485">
        <ele>656</ele>
        <time>2019-02-03T15:19:07.000Z</time>
      </trkpt>
      <trkpt lat="42.94217" lon="0.56484">
        <ele>656</ele>
        <time>2019-02-03T15:19:08.000Z</time>
      </trkpt>
      <trkpt lat="42.94217" lon="0.56483">
        <ele>656</ele>
        <time>2019-02-03T15:19:09.000Z</time>
      </trkpt>
      <trkpt lat="42.94217" lon="0.56482">
        <ele>656</ele>
        <time>2019-02-03T15:19:10.000Z</time>
      </trkpt>
      <trkpt lat="42.94216" lon="0.56481">
        <ele>656</ele>
        <time>2019-02-03T15:19:11.000Z</time>
      </trkpt>
      <trkpt lat="42.94215" lon="0.56481">
        <ele>656</ele>
        <time>2019-02-03T15:19:12.000Z</time>
      </trkpt>
      <trkpt lat="42.94215" lon="0.56481">
        <ele>656</ele>
        <time>2019-02-03T15:19:13.000Z</time>
      </trkpt>
      <trkpt lat="42.94214" lon="0.5648">
        <ele>656</ele>
        <time>2019-02-03T15:19:14.000Z</time>
      </trkpt>
      <trkpt lat="42.94214" lon="0.56479">
        <ele>656</ele>
        <time>2019-02-03T15:19:15.000Z</time>
      </trkpt>
      <trkpt lat="42.94213" lon="0.56478">
        <ele>656</ele>
        <time>2019-02-03T15:19:16.000Z</time>
      </trkpt>
      <trkpt lat="42.94213" lon="0.56476">
        <ele>656</ele>
        <time>2019-02-03T15:19:17.000Z</time>
      </trkpt>
      <trkpt lat="42.94213" lon="0.56475">
        <ele>656</ele>
        <time>2019-02-03T15:19:18.000Z</time>
      </trkpt>
      <trkpt lat="42.94212" lon="0.56473">
        <ele>656</ele>
        <time>2019-02-03T15:19:19.000Z</time>
      </trkpt>
      <trkpt lat="42.94212" lon="0.56472">
        <ele>656</ele>
        <time>2019-02-03T15:19:20.000Z</time>
      </trkpt>
      <trkpt lat="42.94212" lon="0.56471">
        <ele>656</ele>
        <time>2019-02-03T15:19:21.000Z</time>
      </trkpt>
      <trkpt lat="42.94211" lon="0.5647">
        <ele>656</ele>
        <time>2019-02-03T15:19:22.000Z</time>
      </trkpt>
      <trkpt lat="42.94211" lon="0.56469">
        <ele>655.5</ele>
        <time>2019-02-03T15:19:23.000Z</time>
      </trkpt>
      <trkpt lat="42.9421" lon="0.56468">
        <ele>655</ele>
        <time>2019-02-03T15:19:24.000Z</time>
      </trkpt>
      <trkpt lat="42.9421" lon="0.56467">
        <ele>655</ele>
        <time>2019-02-03T15:19:25.000Z</time>
      </trkpt>
      <trkpt lat="42.9421" lon="0.56465">
        <ele>655</ele>
        <time>2019-02-03T15:19:26.000Z</time>
      </trkpt>
      <trkpt lat="42.9421" lon="0.56464">
        <ele>655</ele>
        <time>2019-02-03T15:19:27.000Z</time>
      </trkpt>
      <trkpt lat="42.9421" lon="0.56462">
        <ele>655</ele>
        <time>2019-02-03T15:19:28.000Z</time>
      </trkpt>
      <trkpt lat="42.9421" lon="0.5646">
        <ele>655</ele>
        <time>2019-02-03T15:19:29.000Z</time>
      </trkpt>
      <trkpt lat="42.94209" lon="0.56459">
        <ele>655</ele>
        <time>2019-02-03T15:19:30.000Z</time>
      </trkpt>
      <trkpt lat="42.94209" lon="0.56457">
        <ele>654</ele>
        <time>2019-02-03T15:19:31.000Z</time>
      </trkpt>
      <trkpt lat="42.94208" lon="0.56456">
        <ele>654</ele>
        <time>2019-02-03T15:19:32.000Z</time>
      </trkpt>
      <trkpt lat="42.94207" lon="0.56454">
        <ele>654</ele>
        <time>2019-02-03T15:19:33.000Z</time>
      </trkpt>
      <trkpt lat="42.94207" lon="0.56453">
        <ele>654</ele>
        <time>2019-02-03T15:19:34.000Z</time>
      </trkpt>
      <trkpt lat="42.94206" lon="0.56452">
        <ele>654</ele>
        <time>2019-02-03T15:19:35.000Z</time>
      </trkpt>
      <trkpt lat="42.94206" lon="0.56452">
        <ele>654</ele>
        <time>2019-02-03T15:19:36.000Z</time>
      </trkpt>
      <trkpt lat="42.94205" lon="0.56451">
        <ele>654</ele>
        <time>2019-02-03T15:19:37.000Z</time>
      </trkpt>
      <trkpt lat="42.94205" lon="0.5645">
        <ele>654</ele>
        <time>2019-02-03T15:19:38.000Z</time>
      </trkpt>
      <trkpt lat="42.94204" lon="0.56449">
        <ele>653.5</ele>
        <time>2019-02-03T15:19:39.000Z</time>
      </trkpt>
      <trkpt lat="42.94203" lon="0.56448">
        <ele>653</ele>
        <time>2019-02-03T15:19:40.000Z</time>
      </trkpt>
      <trkpt lat="42.94202" lon="0.56447">
        <ele>653</ele>
        <time>2019-02-03T15:19:41.000Z</time>
      </trkpt>
      <trkpt lat="42.94201" lon="0.56446">
        <ele>653</ele>
        <time>2019-02-03T15:19:42.000Z</time>
      </trkpt>
      <trkpt lat="42.942" lon="0.56444">
        <ele>653</ele>
        <time>2019-02-03T15:19:43.000Z</time>
      </trkpt>
      <trkpt lat="42.94199" lon="0.56443">
        <ele>653</ele>
        <time>2019-02-03T15:19:44.000Z</time>
      </trkpt>
      <trkpt lat="42.94198" lon="0.56442">
        <ele>653</ele>
        <time>2019-02-03T15:19:45.000Z</time>
      </trkpt>
      <trkpt lat="42.94197" lon="0.56441">
        <ele>652.5</ele>
        <time>2019-02-03T15:19:46.000Z</time>
      </trkpt>
      <trkpt lat="42.94196" lon="0.56441">
        <ele>652</ele>
        <time>2019-02-03T15:19:47.000Z</time>
      </trkpt>
      <trkpt lat="42.94195" lon="0.5644">
        <ele>652</ele>
        <time>2019-02-03T15:19:48.000Z</time>
      </trkpt>
      <trkpt lat="42.94194" lon="0.56439">
        <ele>652</ele>
        <time>2019-02-03T15:19:49.000Z</time>
      </trkpt>
      <trkpt lat="42.94192" lon="0.56439">
        <ele>652</ele>
        <time>2019-02-03T15:19:50.000Z</time>
      </trkpt>
      <trkpt lat="42.94191" lon="0.56438">
        <ele>652</ele>
        <time>2019-02-03T15:19:51.000Z</time>
      </trkpt>
      <trkpt lat="42.9419" lon="0.56438">
        <ele>652</ele>
        <time>2019-02-03T15:19:52.000Z</time>
      </trkpt>
      <trkpt lat="42.94189" lon="0.56437">
        <ele>652</ele>
        <time>2019-02-03T15:19:53.000Z</time>
      </trkpt>
      <trkpt lat="42.94188" lon="0.56436">
        <ele>651.5</ele>
        <time>2019-02-03T15:19:54.000Z</time>
      </trkpt>
      <trkpt lat="42.94187" lon="0.56436">
        <ele>651</ele>
        <time>2019-02-03T15:19:55.000Z</time>
      </trkpt>
      <trkpt lat="42.94185" lon="0.56435">
        <ele>651</ele>
        <time>2019-02-03T15:19:56.000Z</time>
      </trkpt>
      <trkpt lat="42.94184" lon="0.56434">
        <ele>651</ele>
        <time>2019-02-03T15:19:57.000Z</time>
      </trkpt>
      <trkpt lat="42.94182" lon="0.56434">
        <ele>651</ele>
        <time>2019-02-03T15:19:58.000Z</time>
      </trkpt>
      <trkpt lat="42.9418" lon="0.56433">
        <ele>651</ele>
        <time>2019-02-03T15:19:59.000Z</time>
      </trkpt>
      <trkpt lat="42.94179" lon="0.56433">
        <ele>651</ele>
        <time>2019-02-03T15:20:00.000Z</time>
      </trkpt>
      <trkpt lat="42.94177" lon="0.56432">
        <ele>651</ele>
        <time>2019-02-03T15:20:01.000Z</time>
      </trkpt>
      <trkpt lat="42.94176" lon="0.56431">
        <ele>650.7</ele>
        <time>2019-02-03T15:20:02.000Z</time>
      </trkpt>
      <trkpt lat="42.94175" lon="0.5643">
        <ele>650.3</ele>
        <time>2019-02-03T15:20:03.000Z</time>
      </trkpt>
      <trkpt lat="42.94174" lon="0.5643">
        <ele>650</ele>
        <time>2019-02-03T15:20:04.000Z</time>
      </trkpt>
      <trkpt lat="42.94172" lon="0.56429">
        <ele>650</ele>
        <time>2019-02-03T15:20:05.000Z</time>
      </trkpt>
      <trkpt lat="42.94171" lon="0.56429">
        <ele>650</ele>
        <time>2019-02-03T15:20:06.000Z</time>
      </trkpt>
      <trkpt lat="42.94169" lon="0.56429">
        <ele>650</ele>
        <time>2019-02-03T15:20:07.000Z</time>
      </trkpt>
      <trkpt lat="42.94168" lon="0.56429">
        <ele>650</ele>
        <time>2019-02-03T15:20:08.000Z</time>
      </trkpt>
      <trkpt lat="42.94167" lon="0.56429">
        <ele>650</ele>
        <time>2019-02-03T15:20:09.000Z</time>
      </trkpt>
      <trkpt lat="42.94166" lon="0.56429">
        <ele>650</ele>
        <time>2019-02-03T15:20:10.000Z</time>
      </trkpt>
      <trkpt lat="42.94165" lon="0.56429">
        <ele>649</ele>
        <time>2019-02-03T15:20:11.000Z</time>
      </trkpt>
      <trkpt lat="42.94163" lon="0.56429">
        <ele>649</ele>
        <time>2019-02-03T15:20:12.000Z</time>
      </trkpt>
      <trkpt lat="42.94162" lon="0.56429">
        <ele>649</ele>
        <time>2019-02-03T15:20:13.000Z</time>
      </trkpt>
      <trkpt lat="42.94161" lon="0.56429">
        <ele>649</ele>
        <time>2019-02-03T15:20:14.000Z</time>
      </trkpt>
      <trkpt lat="42.94159" lon="0.56429">
        <ele>649</ele>
        <time>2019-02-03T15:20:15.000Z</time>
      </trkpt>
      <trkpt lat="42.94158" lon="0.56429">
        <ele>649</ele>
        <time>2019-02-03T15:20:16.000Z</time>
      </trkpt>
      <trkpt lat="42.94157" lon="0.56429">
        <ele>649</ele>
        <time>2019-02-03T15:20:17.000Z</time>
      </trkpt>
      <trkpt lat="42.94156" lon="0.56428">
        <ele>649</ele>
        <time>2019-02-03T15:20:18.000Z</time>
      </trkpt>
      <trkpt lat="42.94154" lon="0.56428">
        <ele>649</ele>
        <time>2019-02-03T15:20:19.000Z</time>
      </trkpt>
      <trkpt lat="42.94152" lon="0.56428">
        <ele>649</ele>
        <time>2019-02-03T15:20:20.000Z</time>
      </trkpt>
      <trkpt lat="42.9415" lon="0.56428">
        <ele>648</ele>
        <time>2019-02-03T15:20:21.000Z</time>
      </trkpt>
      <trkpt lat="42.94148" lon="0.56428">
        <ele>648</ele>
        <time>2019-02-03T15:20:22.000Z</time>
      </trkpt>
      <trkpt lat="42.94146" lon="0.56428">
        <ele>648</ele>
        <time>2019-02-03T15:20:23.000Z</time>
      </trkpt>
      <trkpt lat="42.94145" lon="0.56427">
        <ele>648</ele>
        <time>2019-02-03T15:20:24.000Z</time>
      </trkpt>
      <trkpt lat="42.94143" lon="0.56427">
        <ele>648</ele>
        <time>2019-02-03T15:20:25.000Z</time>
      </trkpt>
      <trkpt lat="42.94142" lon="0.56427">
        <ele>648</ele>
        <time>2019-02-03T15:20:26.000Z</time>
      </trkpt>
      <trkpt lat="42.9414" lon="0.56427">
        <ele>648</ele>
        <time>2019-02-03T15:20:27.000Z</time>
      </trkpt>
      <trkpt lat="42.94137" lon="0.56427">
        <ele>648</ele>
        <time>2019-02-03T15:20:28.000Z</time>
      </trkpt>
      <trkpt lat="42.94135" lon="0.56427">
        <ele>647</ele>
        <time>2019-02-03T15:20:29.000Z</time>
      </trkpt>
      <trkpt lat="42.94134" lon="0.56427">
        <ele>647</ele>
        <time>2019-02-03T15:20:30.000Z</time>
      </trkpt>
      <trkpt lat="42.94133" lon="0.56427">
        <ele>647</ele>
        <time>2019-02-03T15:20:31.000Z</time>
      </trkpt>
      <trkpt lat="42.94132" lon="0.56427">
        <ele>647</ele>
        <time>2019-02-03T15:20:32.000Z</time>
      </trkpt>
      <trkpt lat="42.9413" lon="0.56426">
        <ele>647</ele>
        <time>2019-02-03T15:20:33.000Z</time>
      </trkpt>
      <trkpt lat="42.94129" lon="0.56426">
        <ele>647</ele>
        <time>2019-02-03T15:20:34.000Z</time>
      </trkpt>
      <trkpt lat="42.94127" lon="0.56426">
        <ele>646</ele>
        <time>2019-02-03T15:20:35.000Z</time>
      </trkpt>
      <trkpt lat="42.94126" lon="0.56426">
        <ele>646</ele>
        <time>2019-02-03T15:20:36.000Z</time>
      </trkpt>
      <trkpt lat="42.94125" lon="0.56426">
        <ele>646</ele>
        <time>2019-02-03T15:20:37.000Z</time>
      </trkpt>
      <trkpt lat="42.94124" lon="0.56426">
        <ele>646</ele>
        <time>2019-02-03T15:20:38.000Z</time>
      </trkpt>
      <trkpt lat="42.94122" lon="0.56426">
        <ele>646</ele>
        <time>2019-02-03T15:20:39.000Z</time>
      </trkpt>
      <trkpt lat="42.94121" lon="0.56426">
        <ele>646</ele>
        <time>2019-02-03T15:20:40.000Z</time>
      </trkpt>
      <trkpt lat="42.9412" lon="0.56426">
        <ele>646</ele>
        <time>2019-02-03T15:20:41.000Z</time>
      </trkpt>
      <trkpt lat="42.94119" lon="0.56426">
        <ele>645.7</ele>
        <time>2019-02-03T15:20:42.000Z</time>
      </trkpt>
      <trkpt lat="42.94118" lon="0.56426">
        <ele>645.3</ele>
        <time>2019-02-03T15:20:43.000Z</time>
      </trkpt>
      <trkpt lat="42.94117" lon="0.56426">
        <ele>645</ele>
        <time>2019-02-03T15:20:44.000Z</time>
      </trkpt>
      <trkpt lat="42.94116" lon="0.56426">
        <ele>645</ele>
        <time>2019-02-03T15:20:45.000Z</time>
      </trkpt>
      <trkpt lat="42.94115" lon="0.56426">
        <ele>645</ele>
        <time>2019-02-03T15:20:46.000Z</time>
      </trkpt>
      <trkpt lat="42.94114" lon="0.56426">
        <ele>645</ele>
        <time>2019-02-03T15:20:47.000Z</time>
      </trkpt>
      <trkpt lat="42.94113" lon="0.56425">
        <ele>645</ele>
        <time>2019-02-03T15:20:48.000Z</time>
      </trkpt>
      <trkpt lat="42.94113" lon="0.56425">
        <ele>645</ele>
        <time>2019-02-03T15:20:49.000Z</time>
      </trkpt>
      <trkpt lat="42.94112" lon="0.56425">
        <ele>644.5</ele>
        <time>2019-02-03T15:20:50.000Z</time>
      </trkpt>
      <trkpt lat="42.94111" lon="0.56424">
        <ele>644</ele>
        <time>2019-02-03T15:20:51.000Z</time>
      </trkpt>
      <trkpt lat="42.9411" lon="0.56423">
        <ele>644</ele>
        <time>2019-02-03T15:20:52.000Z</time>
      </trkpt>
      <trkpt lat="42.94109" lon="0.56423">
        <ele>644</ele>
        <time>2019-02-03T15:20:53.000Z</time>
      </trkpt>
      <trkpt lat="42.94108" lon="0.56422">
        <ele>644</ele>
        <time>2019-02-03T15:20:54.000Z</time>
      </trkpt>
      <trkpt lat="42.94107" lon="0.56422">
        <ele>644</ele>
        <time>2019-02-03T15:20:55.000Z</time>
      </trkpt>
      <trkpt lat="42.94106" lon="0.56421">
        <ele>644</ele>
        <time>2019-02-03T15:20:56.000Z</time>
      </trkpt>
      <trkpt lat="42.94104" lon="0.5642">
        <ele>644</ele>
        <time>2019-02-03T15:20:57.000Z</time>
      </trkpt>
      <trkpt lat="42.94103" lon="0.5642">
        <ele>644</ele>
        <time>2019-02-03T15:20:58.000Z</time>
      </trkpt>
      <trkpt lat="42.94102" lon="0.5642">
        <ele>643</ele>
        <time>2019-02-03T15:20:59.000Z</time>
      </trkpt>
      <trkpt lat="42.94101" lon="0.5642">
        <ele>643</ele>
        <time>2019-02-03T15:21:00.000Z</time>
      </trkpt>
      <trkpt lat="42.941" lon="0.5642">
        <ele>643</ele>
        <time>2019-02-03T15:21:01.000Z</time>
      </trkpt>
      <trkpt lat="42.94099" lon="0.5642">
        <ele>643</ele>
        <time>2019-02-03T15:21:02.000Z</time>
      </trkpt>
      <trkpt lat="42.94099" lon="0.56419">
        <ele>643</ele>
        <time>2019-02-03T15:21:03.000Z</time>
      </trkpt>
      <trkpt lat="42.94098" lon="0.56418">
        <ele>643</ele>
        <time>2019-02-03T15:21:04.000Z</time>
      </trkpt>
      <trkpt lat="42.94098" lon="0.56417">
        <ele>643</ele>
        <time>2019-02-03T15:21:05.000Z</time>
      </trkpt>
      <trkpt lat="42.94098" lon="0.56415">
        <ele>642.7</ele>
        <time>2019-02-03T15:21:06.000Z</time>
      </trkpt>
      <trkpt lat="42.94099" lon="0.56414">
        <ele>642.3</ele>
        <time>2019-02-03T15:21:07.000Z</time>
      </trkpt>
      <trkpt lat="42.941" lon="0.56413">
        <ele>642</ele>
        <time>2019-02-03T15:21:08.000Z</time>
      </trkpt>
      <trkpt lat="42.94102" lon="0.56412">
        <ele>642</ele>
        <time>2019-02-03T15:21:09.000Z</time>
      </trkpt>
      <trkpt lat="42.94103" lon="0.56412">
        <ele>642</ele>
        <time>2019-02-03T15:21:10.000Z</time>
      </trkpt>
      <trkpt lat="42.94105" lon="0.56411">
        <ele>642</ele>
        <time>2019-02-03T15:21:11.000Z</time>
      </trkpt>
      <trkpt lat="42.94106" lon="0.56411">
        <ele>642</ele>
        <time>2019-02-03T15:21:12.000Z</time>
      </trkpt>
      <trkpt lat="42.94107" lon="0.56411">
        <ele>642</ele>
        <time>2019-02-03T15:21:13.000Z</time>
      </trkpt>
      <trkpt lat="42.94108" lon="0.56411">
        <ele>642</ele>
        <time>2019-02-03T15:21:14.000Z</time>
      </trkpt>
      <trkpt lat="42.94109" lon="0.5641">
        <ele>642</ele>
        <time>2019-02-03T15:21:15.000Z</time>
      </trkpt>
      <trkpt lat="42.94111" lon="0.5641">
        <ele>642</ele>
        <time>2019-02-03T15:21:16.000Z</time>
      </trkpt>
      <trkpt lat="42.94112" lon="0.5641">
        <ele>642</ele>
        <time>2019-02-03T15:21:17.000Z</time>
      </trkpt>
      <trkpt lat="42.94113" lon="0.5641">
        <ele>642</ele>
        <time>2019-02-03T15:21:18.000Z</time>
      </trkpt>
      <trkpt lat="42.94113" lon="0.56409">
        <ele>641</ele>
        <time>2019-02-03T15:21:19.000Z</time>
      </trkpt>
      <trkpt lat="42.94114" lon="0.56409">
        <ele>641</ele>
        <time>2019-02-03T15:21:20.000Z</time>
      </trkpt>
      <trkpt lat="42.94115" lon="0.56409">
        <ele>641</ele>
        <time>2019-02-03T15:21:21.000Z</time>
      </trkpt>
      <trkpt lat="42.94116" lon="0.56408">
        <ele>641</ele>
        <time>2019-02-03T15:21:22.000Z</time>
      </trkpt>
      <trkpt lat="42.94117" lon="0.56408">
        <ele>641</ele>
        <time>2019-02-03T15:21:23.000Z</time>
      </trkpt>
      <trkpt lat="42.94118" lon="0.56408">
        <ele>641</ele>
        <time>2019-02-03T15:21:24.000Z</time>
      </trkpt>
      <trkpt lat="42.94119" lon="0.56407">
        <ele>641</ele>
        <time>2019-02-03T15:21:25.000Z</time>
      </trkpt>
      <trkpt lat="42.9412" lon="0.56407">
        <ele>641</ele>
        <time>2019-02-03T15:21:26.000Z</time>
      </trkpt>
      <trkpt lat="42.94121" lon="0.56406">
        <ele>641</ele>
        <time>2019-02-03T15:21:27.000Z</time>
      </trkpt>
      <trkpt lat="42.94122" lon="0.56406">
        <ele>641</ele>
        <time>2019-02-03T15:21:28.000Z</time>
      </trkpt>
      <trkpt lat="42.94123" lon="0.56406">
        <ele>641</ele>
        <time>2019-02-03T15:21:29.000Z</time>
      </trkpt>
      <trkpt lat="42.94125" lon="0.56405">
        <ele>641</ele>
        <time>2019-02-03T15:21:30.000Z</time>
      </trkpt>
      <trkpt lat="42.94126" lon="0.56405">
        <ele>641</ele>
        <time>2019-02-03T15:21:31.000Z</time>
      </trkpt>
      <trkpt lat="42.94127" lon="0.56404">
        <ele>640.7</ele>
        <time>2019-02-03T15:21:32.000Z</time>
      </trkpt>
      <trkpt lat="42.94128" lon="0.56404">
        <ele>640.3</ele>
        <time>2019-02-03T15:21:33.000Z</time>
      </trkpt>
      <trkpt lat="42.94129" lon="0.56404">
        <ele>640</ele>
        <time>2019-02-03T15:21:34.000Z</time>
      </trkpt>
      <trkpt lat="42.9413" lon="0.56404">
        <ele>640</ele>
        <time>2019-02-03T15:21:35.000Z</time>
      </trkpt>
      <trkpt lat="42.94131" lon="0.56403">
        <ele>640</ele>
        <time>2019-02-03T15:21:36.000Z</time>
      </trkpt>
      <trkpt lat="42.94132" lon="0.56403">
        <ele>640</ele>
        <time>2019-02-03T15:21:37.000Z</time>
      </trkpt>
      <trkpt lat="42.94133" lon="0.56403">
        <ele>640</ele>
        <time>2019-02-03T15:21:38.000Z</time>
      </trkpt>
      <trkpt lat="42.94134" lon="0.56403">
        <ele>640</ele>
        <time>2019-02-03T15:21:39.000Z</time>
      </trkpt>
      <trkpt lat="42.94135" lon="0.56403">
        <ele>640</ele>
        <time>2019-02-03T15:21:40.000Z</time>
      </trkpt>
      <trkpt lat="42.94135" lon="0.56403">
        <ele>640</ele>
        <time>2019-02-03T15:21:41.000Z</time>
      </trkpt>
      <trkpt lat="42.94136" lon="0.56403">
        <ele>640</ele>
        <time>2019-02-03T15:21:42.000Z</time>
      </trkpt>
      <trkpt lat="42.94137" lon="0.56403">
        <ele>640</ele>
        <time>2019-02-03T15:21:43.000Z</time>
      </trkpt>
      <trkpt lat="42.94137" lon="0.56403">
        <ele>640</ele>
        <time>2019-02-03T15:21:44.000Z</time>
      </trkpt>
      <trkpt lat="42.94137" lon="0.56403">
        <ele>640</ele>
        <time>2019-02-03T15:21:45.000Z</time>
      </trkpt>
      <trkpt lat="42.94138" lon="0.56402">
        <ele>640</ele>
        <time>2019-02-03T15:21:46.000Z</time>
      </trkpt>
      <trkpt lat="42.94138" lon="0.56402">
        <ele>640</ele>
        <time>2019-02-03T15:21:47.000Z</time>
      </trkpt>
      <trkpt lat="42.94138" lon="0.56402">
        <ele>640</ele>
        <time>2019-02-03T15:21:48.000Z</time>
      </trkpt>
      <trkpt lat="42.94138" lon="0.56402">
        <ele>640</ele>
        <time>2019-02-03T15:21:49.000Z</time>
      </trkpt>
      <trkpt lat="42.94139" lon="0.56402">
        <ele>640</ele>
        <time>2019-02-03T15:21:50.000Z</time>
      </trkpt>
      <trkpt lat="42.94139" lon="0.56402">
        <ele>640</ele>
        <time>2019-02-03T15:21:51.000Z</time>
      </trkpt>
      <trkpt lat="42.94139" lon="0.56402">
        <ele>639.7</ele>
        <time>2019-02-03T15:21:52.000Z</time>
      </trkpt>
      <trkpt lat="42.9414" lon="0.56402">
        <ele>639.3</ele>
        <time>2019-02-03T15:21:53.000Z</time>
      </trkpt>
      <trkpt lat="42.9414" lon="0.56402">
        <ele>639</ele>
        <time>2019-02-03T15:21:54.000Z</time>
      </trkpt>
      <trkpt lat="42.9414" lon="0.56402">
        <ele>639</ele>
        <time>2019-02-03T15:21:55.000Z</time>
      </trkpt>
      <trkpt lat="42.9414" lon="0.56402">
        <ele>639</ele>
        <time>2019-02-03T15:21:56.000Z</time>
      </trkpt>
      <trkpt lat="42.9414" lon="0.56402">
        <ele>639</ele>
        <time>2019-02-03T15:21:57.000Z</time>
      </trkpt>
      <trkpt lat="42.9414" lon="0.56402">
        <ele>639</ele>
        <time>2019-02-03T15:21:58.000Z</time>
      </trkpt>
      <trkpt lat="42.9414" lon="0.56401">
        <ele>639</ele>
        <time>2019-02-03T15:21:59.000Z</time>
      </trkpt>
      <trkpt lat="42.94139" lon="0.56401">
        <ele>639</ele>
        <time>2019-02-03T15:22:00.000Z</time>
      </trkpt>
      <trkpt lat="42.94139" lon="0.56401">
        <ele>639</ele>
        <time>2019-02-03T15:22:01.000Z</time>
      </trkpt>
      <trkpt lat="42.94138" lon="0.56401">
        <ele>639</ele>
        <time>2019-02-03T15:22:02.000Z</time>
      </trkpt>
      <trkpt lat="42.94138" lon="0.56401">
        <ele>639</ele>
        <time>2019-02-03T15:22:03.000Z</time>
      </trkpt>
      <trkpt lat="42.94137" lon="0.56401">
        <ele>639</ele>
        <time>2019-02-03T15:22:04.000Z</time>
      </trkpt>
      <trkpt lat="42.94137" lon="0.56402">
        <ele>639</ele>
        <time>2019-02-03T15:22:05.000Z</time>
      </trkpt>
      <trkpt lat="42.94137" lon="0.56403">
        <ele>639</ele>
        <time>2019-02-03T15:22:06.000Z</time>
      </trkpt>
      <trkpt lat="42.94136" lon="0.56404">
        <ele>639</ele>
        <time>2019-02-03T15:22:07.000Z</time>
      </trkpt>
      <trkpt lat="42.94136" lon="0.56404">
        <ele>639</ele>
        <time>2019-02-03T15:22:08.000Z</time>
      </trkpt>
      <trkpt lat="42.94136" lon="0.56405">
        <ele>639</ele>
        <time>2019-02-03T15:22:09.000Z</time>
      </trkpt>
      <trkpt lat="42.94135" lon="0.56405">
        <ele>639</ele>
        <time>2019-02-03T15:22:10.000Z</time>
      </trkpt>
      <trkpt lat="42.94135" lon="0.56404">
        <ele>639</ele>
        <time>2019-02-03T15:22:11.000Z</time>
      </trkpt>
      <trkpt lat="42.94135" lon="0.56404">
        <ele>639</ele>
        <time>2019-02-03T15:22:12.000Z</time>
      </trkpt>
      <trkpt lat="42.94135" lon="0.56403">
        <ele>639</ele>
        <time>2019-02-03T15:22:13.000Z</time>
      </trkpt>
      <trkpt lat="42.94135" lon="0.56401">
        <ele>639</ele>
        <time>2019-02-03T15:22:14.000Z</time>
      </trkpt>
      <trkpt lat="42.94135" lon="0.564">
        <ele>639</ele>
        <time>2019-02-03T15:22:15.000Z</time>
      </trkpt>
      <trkpt lat="42.94135" lon="0.56399">
        <ele>639</ele>
        <time>2019-02-03T15:22:16.000Z</time>
      </trkpt>
      <trkpt lat="42.94135" lon="0.56398">
        <ele>639</ele>
        <time>2019-02-03T15:22:17.000Z</time>
      </trkpt>
      <trkpt lat="42.94135" lon="0.56397">
        <ele>639</ele>
        <time>2019-02-03T15:22:18.000Z</time>
      </trkpt>
      <trkpt lat="42.94135" lon="0.56396">
        <ele>639</ele>
        <time>2019-02-03T15:22:19.000Z</time>
      </trkpt>
      <trkpt lat="42.94135" lon="0.56395">
        <ele>639</ele>
        <time>2019-02-03T15:22:20.000Z</time>
      </trkpt>
      <trkpt lat="42.94135" lon="0.56394">
        <ele>639</ele>
        <time>2019-02-03T15:22:21.000Z</time>
      </trkpt>
      <trkpt lat="42.94135" lon="0.56394">
        <ele>639</ele>
        <time>2019-02-03T15:22:22.000Z</time>
      </trkpt>
      <trkpt lat="42.94135" lon="0.56393">
        <ele>639</ele>
        <time>2019-02-03T15:22:23.000Z</time>
      </trkpt>
      <trkpt lat="42.94135" lon="0.56393">
        <ele>639</ele>
        <time>2019-02-03T15:22:24.000Z</time>
      </trkpt>
      <trkpt lat="42.94135" lon="0.56393">
        <ele>639</ele>
        <time>2019-02-03T15:22:25.000Z</time>
      </trkpt>
      <trkpt lat="42.94135" lon="0.56393">
        <ele>639</ele>
        <time>2019-02-03T15:22:26.000Z</time>
      </trkpt>
      <trkpt lat="42.94135" lon="0.56393">
        <ele>639.3</ele>
        <time>2019-02-03T15:22:27.000Z</time>
      </trkpt>
      <trkpt lat="42.94135" lon="0.56393">
        <ele>639.7</ele>
        <time>2019-02-03T15:22:28.000Z</time>
      </trkpt>
      <trkpt lat="42.94135" lon="0.56393">
        <ele>640</ele>
        <time>2019-02-03T15:22:29.000Z</time>
      </trkpt>
      <trkpt lat="42.94135" lon="0.56393">
        <ele>640</ele>
        <time>2019-02-03T15:22:30.000Z</time>
      </trkpt>
      <trkpt lat="42.94135" lon="0.56393">
        <ele>640</ele>
        <time>2019-02-03T15:22:31.000Z</time>
      </trkpt>
      <trkpt lat="42.94135" lon="0.56393">
        <ele>640</ele>
        <time>2019-02-03T15:22:32.000Z</time>
      </trkpt>
      <trkpt lat="42.94135" lon="0.56393">
        <ele>640</ele>
        <time>2019-02-03T15:22:33.000Z</time>
      </trkpt>
      <trkpt lat="42.94135" lon="0.56393">
        <ele>640</ele>
        <time>2019-02-03T15:22:34.000Z</time>
      </trkpt>
      <trkpt lat="42.94135" lon="0.56392">
        <ele>640</ele>
        <time>2019-02-03T15:22:35.000Z</time>
      </trkpt>
      <trkpt lat="42.94135" lon="0.56392">
        <ele>640</ele>
        <time>2019-02-03T15:22:36.000Z</time>
      </trkpt>
      <trkpt lat="42.94135" lon="0.56392">
        <ele>640</ele>
        <time>2019-02-03T15:22:37.000Z</time>
      </trkpt>
      <trkpt lat="42.94135" lon="0.56392">
        <ele>640</ele>
        <time>2019-02-03T15:22:38.000Z</time>
      </trkpt>
      <trkpt lat="42.94136" lon="0.56391">
        <ele>640</ele>
        <time>2019-02-03T15:22:39.000Z</time>
      </trkpt>
      <trkpt lat="42.94136" lon="0.56391">
        <ele>640</ele>
        <time>2019-02-03T15:22:40.000Z</time>
      </trkpt>
      <trkpt lat="42.94136" lon="0.5639">
        <ele>640</ele>
        <time>2019-02-03T15:22:41.000Z</time>
      </trkpt>
      <trkpt lat="42.94136" lon="0.56389">
        <ele>640</ele>
        <time>2019-02-03T15:22:42.000Z</time>
      </trkpt>
      <trkpt lat="42.94137" lon="0.56389">
        <ele>640</ele>
        <time>2019-02-03T15:22:43.000Z</time>
      </trkpt>
      <trkpt lat="42.94137" lon="0.56388">
        <ele>640</ele>
        <time>2019-02-03T15:22:44.000Z</time>
      </trkpt>
      <trkpt lat="42.94138" lon="0.56388">
        <ele>639.7</ele>
        <time>2019-02-03T15:22:45.000Z</time>
      </trkpt>
      <trkpt lat="42.94138" lon="0.56387">
        <ele>639.3</ele>
        <time>2019-02-03T15:22:46.000Z</time>
      </trkpt>
      <trkpt lat="42.94139" lon="0.56387">
        <ele>639</ele>
        <time>2019-02-03T15:22:47.000Z</time>
      </trkpt>
      <trkpt lat="42.9414" lon="0.56386">
        <ele>639</ele>
        <time>2019-02-03T15:22:48.000Z</time>
      </trkpt>
      <trkpt lat="42.94141" lon="0.56385">
        <ele>639</ele>
        <time>2019-02-03T15:22:49.000Z</time>
      </trkpt>
      <trkpt lat="42.94142" lon="0.56384">
        <ele>639</ele>
        <time>2019-02-03T15:22:50.000Z</time>
      </trkpt>
      <trkpt lat="42.94143" lon="0.56383">
        <ele>639</ele>
        <time>2019-02-03T15:22:51.000Z</time>
      </trkpt>
      <trkpt lat="42.94143" lon="0.56383">
        <ele>639</ele>
        <time>2019-02-03T15:22:52.000Z</time>
      </trkpt>
      <trkpt lat="42.94143" lon="0.56383">
        <ele>639</ele>
        <time>2019-02-03T15:22:53.000Z</time>
      </trkpt>
      <trkpt lat="42.94143" lon="0.56383">
        <ele>639.5</ele>
        <time>2019-02-03T15:22:54.000Z</time>
      </trkpt>
      <trkpt lat="42.94143" lon="0.56383">
        <ele>640</ele>
        <time>2019-02-03T15:22:55.000Z</time>
      </trkpt>
      <trkpt lat="42.94144" lon="0.56383">
        <ele>640</ele>
        <time>2019-02-03T15:22:56.000Z</time>
      </trkpt>
      <trkpt lat="42.94144" lon="0.56383">
        <ele>640</ele>
        <time>2019-02-03T15:22:57.000Z</time>
      </trkpt>
      <trkpt lat="42.94144" lon="0.56383">
        <ele>640</ele>
        <time>2019-02-03T15:22:58.000Z</time>
      </trkpt>
      <trkpt lat="42.94144" lon="0.56383">
        <ele>640</ele>
        <time>2019-02-03T15:22:59.000Z</time>
      </trkpt>
      <trkpt lat="42.94144" lon="0.56383">
        <ele>640</ele>
        <time>2019-02-03T15:23:00.000Z</time>
      </trkpt>
      <trkpt lat="42.94144" lon="0.56382">
        <ele>640</ele>
        <time>2019-02-03T15:23:01.000Z</time>
      </trkpt>
      <trkpt lat="42.94145" lon="0.56382">
        <ele>639.5</ele>
        <time>2019-02-03T15:23:02.000Z</time>
      </trkpt>
      <trkpt lat="42.94145" lon="0.56381">
        <ele>639</ele>
        <time>2019-02-03T15:23:03.000Z</time>
      </trkpt>
      <trkpt lat="42.94146" lon="0.56381">
        <ele>639.5</ele>
        <time>2019-02-03T15:23:04.000Z</time>
      </trkpt>
      <trkpt lat="42.94146" lon="0.5638">
        <ele>640</ele>
        <time>2019-02-03T15:23:05.000Z</time>
      </trkpt>
      <trkpt lat="42.94146" lon="0.5638">
        <ele>640</ele>
        <time>2019-02-03T15:23:06.000Z</time>
      </trkpt>
      <trkpt lat="42.94147" lon="0.5638">
        <ele>640</ele>
        <time>2019-02-03T15:23:07.000Z</time>
      </trkpt>
      <trkpt lat="42.94148" lon="0.56379">
        <ele>640</ele>
        <time>2019-02-03T15:23:08.000Z</time>
      </trkpt>
      <trkpt lat="42.94148" lon="0.56379">
        <ele>640</ele>
        <time>2019-02-03T15:23:09.000Z</time>
      </trkpt>
      <trkpt lat="42.94148" lon="0.56378">
        <ele>640</ele>
        <time>2019-02-03T15:23:10.000Z</time>
      </trkpt>
      <trkpt lat="42.94149" lon="0.56377">
        <ele>640</ele>
        <time>2019-02-03T15:23:11.000Z</time>
      </trkpt>
      <trkpt lat="42.94149" lon="0.56377">
        <ele>640</ele>
        <time>2019-02-03T15:23:12.000Z</time>
      </trkpt>
      <trkpt lat="42.94149" lon="0.56376">
        <ele>640</ele>
        <time>2019-02-03T15:23:13.000Z</time>
      </trkpt>
      <trkpt lat="42.94149" lon="0.56376">
        <ele>640</ele>
        <time>2019-02-03T15:23:14.000Z</time>
      </trkpt>
      <trkpt lat="42.94149" lon="0.56375">
        <ele>640</ele>
        <time>2019-02-03T15:23:15.000Z</time>
      </trkpt>
      <trkpt lat="42.94149" lon="0.56375">
        <ele>639.5</ele>
        <time>2019-02-03T15:23:16.000Z</time>
      </trkpt>
      <trkpt lat="42.94149" lon="0.56375">
        <ele>639</ele>
        <time>2019-02-03T15:23:17.000Z</time>
      </trkpt>
      <trkpt lat="42.94149" lon="0.56375">
        <ele>639.5</ele>
        <time>2019-02-03T15:23:18.000Z</time>
      </trkpt>
      <trkpt lat="42.94149" lon="0.56374">
        <ele>640</ele>
        <time>2019-02-03T15:23:19.000Z</time>
      </trkpt>
      <trkpt lat="42.94149" lon="0.56374">
        <ele>640</ele>
        <time>2019-02-03T15:23:20.000Z</time>
      </trkpt>
      <trkpt lat="42.94149" lon="0.56374">
        <ele>640</ele>
        <time>2019-02-03T15:23:21.000Z</time>
      </trkpt>
      <trkpt lat="42.94149" lon="0.56374">
        <ele>640</ele>
        <time>2019-02-03T15:23:22.000Z</time>
      </trkpt>
      <trkpt lat="42.94149" lon="0.56374">
        <ele>640</ele>
        <time>2019-02-03T15:23:23.000Z</time>
      </trkpt>
      <trkpt lat="42.94149" lon="0.56374">
        <ele>640</ele>
        <time>2019-02-03T15:23:24.000Z</time>
      </trkpt>
      <trkpt lat="42.94149" lon="0.56374">
        <ele>639.7</ele>
        <time>2019-02-03T15:23:25.000Z</time>
      </trkpt>
      <trkpt lat="42.94149" lon="0.56374">
        <ele>639.3</ele>
        <time>2019-02-03T15:23:26.000Z</time>
      </trkpt>
      <trkpt lat="42.94148" lon="0.56374">
        <ele>639</ele>
        <time>2019-02-03T15:23:27.000Z</time>
      </trkpt>
      <trkpt lat="42.94148" lon="0.56374">
        <ele>639</ele>
        <time>2019-02-03T15:23:28.000Z</time>
      </trkpt>
      <trkpt lat="42.94148" lon="0.56374">
        <ele>639</ele>
        <time>2019-02-03T15:23:29.000Z</time>
      </trkpt>
      <trkpt lat="42.94148" lon="0.56374">
        <ele>639</ele>
        <time>2019-02-03T15:23:30.000Z</time>
      </trkpt>
      <trkpt lat="42.94147" lon="0.56374">
        <ele>639</ele>
        <time>2019-02-03T15:23:31.000Z</time>
      </trkpt>
      <trkpt lat="42.94147" lon="0.56373">
        <ele>639</ele>
        <time>2019-02-03T15:23:32.000Z</time>
      </trkpt>
      <trkpt lat="42.94147" lon="0.56373">
        <ele>639</ele>
        <time>2019-02-03T15:23:33.000Z</time>
      </trkpt>
      <trkpt lat="42.94147" lon="0.56373">
        <ele>639</ele>
        <time>2019-02-03T15:23:34.000Z</time>
      </trkpt>
      <trkpt lat="42.94146" lon="0.56373">
        <ele>639</ele>
        <time>2019-02-03T15:23:35.000Z</time>
      </trkpt>
      <trkpt lat="42.94146" lon="0.56373">
        <ele>639</ele>
        <time>2019-02-03T15:23:36.000Z</time>
      </trkpt>
      <trkpt lat="42.94146" lon="0.56373">
        <ele>639</ele>
        <time>2019-02-03T15:23:37.000Z</time>
      </trkpt>
      <trkpt lat="42.94146" lon="0.56372">
        <ele>639</ele>
        <time>2019-02-03T15:23:38.000Z</time>
      </trkpt>
      <trkpt lat="42.94146" lon="0.56372">
        <ele>639</ele>
        <time>2019-02-03T15:23:39.000Z</time>
      </trkpt>
      <trkpt lat="42.94146" lon="0.56372">
        <ele>639</ele>
        <time>2019-02-03T15:23:40.000Z</time>
      </trkpt>
      <trkpt lat="42.94145" lon="0.56372">
        <ele>639</ele>
        <time>2019-02-03T15:23:41.000Z</time>
      </trkpt>
      <trkpt lat="42.94145" lon="0.56372">
        <ele>639</ele>
        <time>2019-02-03T15:23:42.000Z</time>
      </trkpt>
      <trkpt lat="42.94144" lon="0.56372">
        <ele>639</ele>
        <time>2019-02-03T15:23:43.000Z</time>
      </trkpt>
      <trkpt lat="42.94144" lon="0.56372">
        <ele>639</ele>
        <time>2019-02-03T15:23:44.000Z</time>
      </trkpt>
      <trkpt lat="42.94143" lon="0.56372">
        <ele>639</ele>
        <time>2019-02-03T15:23:45.000Z</time>
      </trkpt>
      <trkpt lat="42.94143" lon="0.56372">
        <ele>639</ele>
        <time>2019-02-03T15:23:46.000Z</time>
      </trkpt>
      <trkpt lat="42.94142" lon="0.56373">
        <ele>639</ele>
        <time>2019-02-03T15:23:47.000Z</time>
      </trkpt>
      <trkpt lat="42.94141" lon="0.56373">
        <ele>639</ele>
        <time>2019-02-03T15:23:48.000Z</time>
      </trkpt>
      <trkpt lat="42.94141" lon="0.56374">
        <ele>639</ele>
        <time>2019-02-03T15:23:49.000Z</time>
      </trkpt>
      <trkpt lat="42.9414" lon="0.56374">
        <ele>639</ele>
        <time>2019-02-03T15:23:50.000Z</time>
      </trkpt>
      <trkpt lat="42.9414" lon="0.56375">
        <ele>639</ele>
        <time>2019-02-03T15:23:51.000Z</time>
      </trkpt>
      <trkpt lat="42.94139" lon="0.56375">
        <ele>639</ele>
        <time>2019-02-03T15:23:52.000Z</time>
      </trkpt>
      <trkpt lat="42.94139" lon="0.56376">
        <ele>639</ele>
        <time>2019-02-03T15:23:53.000Z</time>
      </trkpt>
      <trkpt lat="42.94139" lon="0.56376">
        <ele>639</ele>
        <time>2019-02-03T15:23:54.000Z</time>
      </trkpt>
      <trkpt lat="42.94139" lon="0.56376">
        <ele>639</ele>
        <time>2019-02-03T15:23:55.000Z</time>
      </trkpt>
      <trkpt lat="42.94139" lon="0.56376">
        <ele>639</ele>
        <time>2019-02-03T15:23:56.000Z</time>
      </trkpt>
      <trkpt lat="42.94139" lon="0.56376">
        <ele>639</ele>
        <time>2019-02-03T15:23:57.000Z</time>
      </trkpt>
      <trkpt lat="42.94138" lon="0.56377">
        <ele>639</ele>
        <time>2019-02-03T15:23:58.000Z</time>
      </trkpt>
      <trkpt lat="42.94138" lon="0.56377">
        <ele>639</ele>
        <time>2019-02-03T15:23:59.000Z</time>
      </trkpt>
      <trkpt lat="42.94137" lon="0.56378">
        <ele>639.5</ele>
        <time>2019-02-03T15:24:00.000Z</time>
      </trkpt>
      <trkpt lat="42.94137" lon="0.56378">
        <ele>640</ele>
        <time>2019-02-03T15:24:01.000Z</time>
      </trkpt>
      <trkpt lat="42.94136" lon="0.56379">
        <ele>640</ele>
        <time>2019-02-03T15:24:02.000Z</time>
      </trkpt>
      <trkpt lat="42.94136" lon="0.56379">
        <ele>640</ele>
        <time>2019-02-03T15:24:03.000Z</time>
      </trkpt>
      <trkpt lat="42.94136" lon="0.56379">
        <ele>640</ele>
        <time>2019-02-03T15:24:04.000Z</time>
      </trkpt>
      <trkpt lat="42.94136" lon="0.56379">
        <ele>640</ele>
        <time>2019-02-03T15:24:05.000Z</time>
      </trkpt>
      <trkpt lat="42.94136" lon="0.56379">
        <ele>640</ele>
        <time>2019-02-03T15:24:06.000Z</time>
      </trkpt>
      <trkpt lat="42.94136" lon="0.56379">
        <ele>640</ele>
        <time>2019-02-03T15:24:07.000Z</time>
      </trkpt>
      <trkpt lat="42.94136" lon="0.56379">
        <ele>640</ele>
        <time>2019-02-03T15:24:08.000Z</time>
      </trkpt>
      <trkpt lat="42.94136" lon="0.56379">
        <ele>640</ele>
        <time>2019-02-03T15:24:09.000Z</time>
      </trkpt>
      <trkpt lat="42.94136" lon="0.56379">
        <ele>640</ele>
        <time>2019-02-03T15:24:10.000Z</time>
      </trkpt>
      <trkpt lat="42.94136" lon="0.56379">
        <ele>640</ele>
        <time>2019-02-03T15:24:11.000Z</time>
      </trkpt>
      <trkpt lat="42.94135" lon="0.56379">
        <ele>640</ele>
        <time>2019-02-03T15:24:12.000Z</time>
      </trkpt>
      <trkpt lat="42.94135" lon="0.56379">
        <ele>640</ele>
        <time>2019-02-03T15:24:13.000Z</time>
      </trkpt>
      <trkpt lat="42.94135" lon="0.56379">
        <ele>640</ele>
        <time>2019-02-03T15:24:14.000Z</time>
      </trkpt>
      <trkpt lat="42.94135" lon="0.56379">
        <ele>640</ele>
        <time>2019-02-03T15:24:15.000Z</time>
      </trkpt>
      <trkpt lat="42.94135" lon="0.56379">
        <ele>639.5</ele>
        <time>2019-02-03T15:24:16.000Z</time>
      </trkpt>
      <trkpt lat="42.94134" lon="0.56379">
        <ele>639</ele>
        <time>2019-02-03T15:24:17.000Z</time>
      </trkpt>
      <trkpt lat="42.94134" lon="0.56379">
        <ele>639</ele>
        <time>2019-02-03T15:24:18.000Z</time>
      </trkpt>
      <trkpt lat="42.94134" lon="0.56379">
        <ele>639</ele>
        <time>2019-02-03T15:24:19.000Z</time>
      </trkpt>
      <trkpt lat="42.94134" lon="0.56379">
        <ele>639</ele>
        <time>2019-02-03T15:24:20.000Z</time>
      </trkpt>
      <trkpt lat="42.94134" lon="0.5638">
        <ele>639</ele>
        <time>2019-02-03T15:24:21.000Z</time>
      </trkpt>
      <trkpt lat="42.94134" lon="0.5638">
        <ele>639</ele>
        <time>2019-02-03T15:24:22.000Z</time>
      </trkpt>
      <trkpt lat="42.94134" lon="0.5638">
        <ele>639</ele>
        <time>2019-02-03T15:24:23.000Z</time>
      </trkpt>
      <trkpt lat="42.94134" lon="0.56381">
        <ele>639</ele>
        <time>2019-02-03T15:24:24.000Z</time>
      </trkpt>
      <trkpt lat="42.94135" lon="0.56381">
        <ele>639</ele>
        <time>2019-02-03T15:24:25.000Z</time>
      </trkpt>
      <trkpt lat="42.94135" lon="0.56381">
        <ele>639</ele>
        <time>2019-02-03T15:24:26.000Z</time>
      </trkpt>
      <trkpt lat="42.94135" lon="0.56382">
        <ele>639</ele>
        <time>2019-02-03T15:24:27.000Z</time>
      </trkpt>
      <trkpt lat="42.94135" lon="0.56381">
        <ele>639</ele>
        <time>2019-02-03T15:24:28.000Z</time>
      </trkpt>
      <trkpt lat="42.94135" lon="0.56381">
        <ele>639</ele>
        <time>2019-02-03T15:24:29.000Z</time>
      </trkpt>
      <trkpt lat="42.94135" lon="0.56381">
        <ele>639</ele>
        <time>2019-02-03T15:24:30.000Z</time>
      </trkpt>
      <trkpt lat="42.94136" lon="0.5638">
        <ele>639</ele>
        <time>2019-02-03T15:24:31.000Z</time>
      </trkpt>
      <trkpt lat="42.94136" lon="0.56379">
        <ele>639</ele>
        <time>2019-02-03T15:24:32.000Z</time>
      </trkpt>
      <trkpt lat="42.94136" lon="0.56378">
        <ele>639</ele>
        <time>2019-02-03T15:24:33.000Z</time>
      </trkpt>
      <trkpt lat="42.94137" lon="0.56377">
        <ele>639</ele>
        <time>2019-02-03T15:24:34.000Z</time>
      </trkpt>
      <trkpt lat="42.94137" lon="0.56376">
        <ele>639</ele>
        <time>2019-02-03T15:24:35.000Z</time>
      </trkpt>
      <trkpt lat="42.94138" lon="0.56376">
        <ele>639</ele>
        <time>2019-02-03T15:24:36.000Z</time>
      </trkpt>
      <trkpt lat="42.94138" lon="0.56375">
        <ele>639</ele>
        <time>2019-02-03T15:24:37.000Z</time>
      </trkpt>
      <trkpt lat="42.94139" lon="0.56375">
        <ele>639</ele>
        <time>2019-02-03T15:24:38.000Z</time>
      </trkpt>
      <trkpt lat="42.94139" lon="0.56375">
        <ele>639</ele>
        <time>2019-02-03T15:24:39.000Z</time>
      </trkpt>
      <trkpt lat="42.94139" lon="0.56374">
        <ele>639</ele>
        <time>2019-02-03T15:24:40.000Z</time>
      </trkpt>
      <trkpt lat="42.9414" lon="0.56374">
        <ele>639</ele>
        <time>2019-02-03T15:24:41.000Z</time>
      </trkpt>
      <trkpt lat="42.9414" lon="0.56374">
        <ele>640</ele>
        <time>2019-02-03T15:24:42.000Z</time>
      </trkpt>
      <trkpt lat="42.9414" lon="0.56374">
        <ele>640</ele>
        <time>2019-02-03T15:24:43.000Z</time>
      </trkpt>
      <trkpt lat="42.9414" lon="0.56374">
        <ele>640</ele>
        <time>2019-02-03T15:24:44.000Z</time>
      </trkpt>
      <trkpt lat="42.9414" lon="0.56374">
        <ele>640</ele>
        <time>2019-02-03T15:24:45.000Z</time>
      </trkpt>
      <trkpt lat="42.9414" lon="0.56374">
        <ele>640</ele>
        <time>2019-02-03T15:24:46.000Z</time>
      </trkpt>
      <trkpt lat="42.9414" lon="0.56374">
        <ele>640</ele>
        <time>2019-02-03T15:24:47.000Z</time>
      </trkpt>
      <trkpt lat="42.9414" lon="0.56374">
        <ele>640</ele>
        <time>2019-02-03T15:24:48.000Z</time>
      </trkpt>
      <trkpt lat="42.9414" lon="0.56374">
        <ele>640</ele>
        <time>2019-02-03T15:24:49.000Z</time>
      </trkpt>
      <trkpt lat="42.9414" lon="0.56374">
        <ele>640</ele>
        <time>2019-02-03T15:24:50.000Z</time>
      </trkpt>
      <trkpt lat="42.9414" lon="0.56374">
        <ele>640</ele>
        <time>2019-02-03T15:24:51.000Z</time>
      </trkpt>
      <trkpt lat="42.9414" lon="0.56374">
        <ele>640</ele>
        <time>2019-02-03T15:24:52.000Z</time>
      </trkpt>
      <trkpt lat="42.9414" lon="0.56374">
        <ele>640</ele>
        <time>2019-02-03T15:24:53.000Z</time>
      </trkpt>
      <trkpt lat="42.9414" lon="0.56374">
        <ele>640</ele>
        <time>2019-02-03T15:24:54.000Z</time>
      </trkpt>
      <trkpt lat="42.94139" lon="0.56374">
        <ele>640</ele>
        <time>2019-02-03T15:24:55.000Z</time>
      </trkpt>
      <trkpt lat="42.94139" lon="0.56375">
        <ele>640</ele>
        <time>2019-02-03T15:24:56.000Z</time>
      </trkpt>
      <trkpt lat="42.94139" lon="0.56375">
        <ele>640</ele>
        <time>2019-02-03T15:24:57.000Z</time>
      </trkpt>
      <trkpt lat="42.94138" lon="0.56376">
        <ele>640</ele>
        <time>2019-02-03T15:24:58.000Z</time>
      </trkpt>
      <trkpt lat="42.94138" lon="0.56377">
        <ele>640</ele>
        <time>2019-02-03T15:24:59.000Z</time>
      </trkpt>
      <trkpt lat="42.94138" lon="0.56378">
        <ele>640</ele>
        <time>2019-02-03T15:25:00.000Z</time>
      </trkpt>
      <trkpt lat="42.94137" lon="0.56378">
        <ele>640</ele>
        <time>2019-02-03T15:25:01.000Z</time>
      </trkpt>
      <trkpt lat="42.94137" lon="0.56379">
        <ele>640</ele>
        <time>2019-02-03T15:25:02.000Z</time>
      </trkpt>
      <trkpt lat="42.94137" lon="0.56379">
        <ele>640</ele>
        <time>2019-02-03T15:25:03.000Z</time>
      </trkpt>
      <trkpt lat="42.94137" lon="0.56379">
        <ele>640</ele>
        <time>2019-02-03T15:25:04.000Z</time>
      </trkpt>
      <trkpt lat="42.94137" lon="0.56379">
        <ele>640</ele>
        <time>2019-02-03T15:25:05.000Z</time>
      </trkpt>
      <trkpt lat="42.94136" lon="0.56379">
        <ele>640</ele>
        <time>2019-02-03T15:25:06.000Z</time>
      </trkpt>
      <trkpt lat="42.94136" lon="0.56379">
        <ele>640</ele>
        <time>2019-02-03T15:25:07.000Z</time>
      </trkpt>
      <trkpt lat="42.94136" lon="0.56379">
        <ele>640</ele>
        <time>2019-02-03T15:25:08.000Z</time>
      </trkpt>
      <trkpt lat="42.94136" lon="0.56379">
        <ele>640</ele>
        <time>2019-02-03T15:25:09.000Z</time>
      </trkpt>
      <trkpt lat="42.94136" lon="0.56379">
        <ele>640</ele>
        <time>2019-02-03T15:25:10.000Z</time>
      </trkpt>
      <trkpt lat="42.94136" lon="0.56379">
        <ele>640</ele>
        <time>2019-02-03T15:25:11.000Z</time>
      </trkpt>
      <trkpt lat="42.94136" lon="0.56379">
        <ele>640</ele>
        <time>2019-02-03T15:25:12.000Z</time>
      </trkpt>
      <trkpt lat="42.94136" lon="0.56379">
        <ele>640</ele>
        <time>2019-02-03T15:25:13.000Z</time>
      </trkpt>
      <trkpt lat="42.94136" lon="0.56379">
        <ele>640</ele>
        <time>2019-02-03T15:25:14.000Z</time>
      </trkpt>
      <trkpt lat="42.94136" lon="0.56379">
        <ele>640</ele>
        <time>2019-02-03T15:25:15.000Z</time>
      </trkpt>
      <trkpt lat="42.94136" lon="0.56379">
        <ele>640</ele>
        <time>2019-02-03T15:25:16.000Z</time>
      </trkpt>
      <trkpt lat="42.94136" lon="0.56379">
        <ele>640</ele>
        <time>2019-02-03T15:25:17.000Z</time>
      </trkpt>
      <trkpt lat="42.94136" lon="0.56379">
        <ele>640</ele>
        <time>2019-02-03T15:25:18.000Z</time>
      </trkpt>
      <trkpt lat="42.94136" lon="0.56379">
        <ele>640</ele>
        <time>2019-02-03T15:25:19.000Z</time>
      </trkpt>
      <trkpt lat="42.94136" lon="0.56379">
        <ele>640</ele>
        <time>2019-02-03T15:25:20.000Z</time>
      </trkpt>
      <trkpt lat="42.94136" lon="0.56379">
        <ele>640</ele>
        <time>2019-02-03T15:25:21.000Z</time>
      </trkpt>
      <trkpt lat="42.94136" lon="0.56379">
        <ele>640</ele>
        <time>2019-02-03T15:25:22.000Z</time>
      </trkpt>
      <trkpt lat="42.94136" lon="0.5638">
        <ele>640</ele>
        <time>2019-02-03T15:25:23.000Z</time>
      </trkpt>
      <trkpt lat="42.94136" lon="0.5638">
        <ele>640</ele>
        <time>2019-02-03T15:25:24.000Z</time>
      </trkpt>
      <trkpt lat="42.94136" lon="0.5638">
        <ele>640</ele>
        <time>2019-02-03T15:25:25.000Z</time>
      </trkpt>
      <trkpt lat="42.94136" lon="0.5638">
        <ele>640</ele>
        <time>2019-02-03T15:25:26.000Z</time>
      </trkpt>
      <trkpt lat="42.94136" lon="0.5638">
        <ele>640</ele>
        <time>2019-02-03T15:25:27.000Z</time>
      </trkpt>
      <trkpt lat="42.94135" lon="0.5638">
        <ele>640</ele>
        <time>2019-02-03T15:25:28.000Z</time>
      </trkpt>
      <trkpt lat="42.94135" lon="0.5638">
        <ele>640</ele>
        <time>2019-02-03T15:25:29.000Z</time>
      </trkpt>
      <trkpt lat="42.94135" lon="0.56381">
        <ele>640</ele>
        <time>2019-02-03T15:25:30.000Z</time>
      </trkpt>
      <trkpt lat="42.94134" lon="0.56381">
        <ele>640</ele>
        <time>2019-02-03T15:25:31.000Z</time>
      </trkpt>
      <trkpt lat="42.94134" lon="0.56382">
        <ele>640</ele>
        <time>2019-02-03T15:25:32.000Z</time>
      </trkpt>
      <trkpt lat="42.94134" lon="0.56382">
        <ele>640</ele>
        <time>2019-02-03T15:25:33.000Z</time>
      </trkpt>
      <trkpt lat="42.94133" lon="0.56382">
        <ele>640</ele>
        <time>2019-02-03T15:25:34.000Z</time>
      </trkpt>
      <trkpt lat="42.94134" lon="0.56382">
        <ele>640</ele>
        <time>2019-02-03T15:25:35.000Z</time>
      </trkpt>
      <trkpt lat="42.94134" lon="0.56381">
        <ele>640</ele>
        <time>2019-02-03T15:25:36.000Z</time>
      </trkpt>
      <trkpt lat="42.94135" lon="0.5638">
        <ele>639.7</ele>
        <time>2019-02-03T15:25:37.000Z</time>
      </trkpt>
      <trkpt lat="42.94135" lon="0.5638">
        <ele>639.3</ele>
        <time>2019-02-03T15:25:38.000Z</time>
      </trkpt>
      <trkpt lat="42.94136" lon="0.56379">
        <ele>639</ele>
        <time>2019-02-03T15:25:39.000Z</time>
      </trkpt>
      <trkpt lat="42.94136" lon="0.56378">
        <ele>639.5</ele>
        <time>2019-02-03T15:25:40.000Z</time>
      </trkpt>
      <trkpt lat="42.94137" lon="0.56378">
        <ele>640</ele>
        <time>2019-02-03T15:25:41.000Z</time>
      </trkpt>
      <trkpt lat="42.94137" lon="0.56377">
        <ele>639</ele>
        <time>2019-02-03T15:25:42.000Z</time>
      </trkpt>
      <trkpt lat="42.94137" lon="0.56377">
        <ele>639.3</ele>
        <time>2019-02-03T15:25:43.000Z</time>
      </trkpt>
      <trkpt lat="42.94137" lon="0.56377">
        <ele>639.7</ele>
        <time>2019-02-03T15:25:44.000Z</time>
      </trkpt>
      <trkpt lat="42.94137" lon="0.56377">
        <ele>640</ele>
        <time>2019-02-03T15:25:45.000Z</time>
      </trkpt>
      <trkpt lat="42.94137" lon="0.56377">
        <ele>640</ele>
        <time>2019-02-03T15:25:46.000Z</time>
      </trkpt>
      <trkpt lat="42.94137" lon="0.56377">
        <ele>640</ele>
        <time>2019-02-03T15:25:47.000Z</time>
      </trkpt>
      <trkpt lat="42.94137" lon="0.56377">
        <ele>640</ele>
        <time>2019-02-03T15:25:48.000Z</time>
      </trkpt>
      <trkpt lat="42.94137" lon="0.56377">
        <ele>640</ele>
        <time>2019-02-03T15:25:49.000Z</time>
      </trkpt>
      <trkpt lat="42.94137" lon="0.56377">
        <ele>640</ele>
        <time>2019-02-03T15:25:50.000Z</time>
      </trkpt>
      <trkpt lat="42.94137" lon="0.56377">
        <ele>640</ele>
        <time>2019-02-03T15:25:51.000Z</time>
      </trkpt>
      <trkpt lat="42.94137" lon="0.56377">
        <ele>640</ele>
        <time>2019-02-03T15:25:52.000Z</time>
      </trkpt>
      <trkpt lat="42.94137" lon="0.56377">
        <ele>640</ele>
        <time>2019-02-03T15:25:53.000Z</time>
      </trkpt>
      <trkpt lat="42.94137" lon="0.56377">
        <ele>640</ele>
        <time>2019-02-03T15:25:54.000Z</time>
      </trkpt>
      <trkpt lat="42.94137" lon="0.56377">
        <ele>640</ele>
        <time>2019-02-03T15:25:55.000Z</time>
      </trkpt>
      <trkpt lat="42.94137" lon="0.56377">
        <ele>640</ele>
        <time>2019-02-03T15:25:56.000Z</time>
      </trkpt>
      <trkpt lat="42.94137" lon="0.56377">
        <ele>640</ele>
        <time>2019-02-03T15:25:57.000Z</time>
      </trkpt>
      <trkpt lat="42.94137" lon="0.56377">
        <ele>640</ele>
        <time>2019-02-03T15:25:58.000Z</time>
      </trkpt>
      <trkpt lat="42.94137" lon="0.56377">
        <ele>640</ele>
        <time>2019-02-03T15:25:59.000Z</time>
      </trkpt>
      <trkpt lat="42.94137" lon="0.56377">
        <ele>640</ele>
        <time>2019-02-03T15:26:00.000Z</time>
      </trkpt>
      <trkpt lat="42.94137" lon="0.56377">
        <ele>640</ele>
        <time>2019-02-03T15:26:01.000Z</time>
      </trkpt>
      <trkpt lat="42.94137" lon="0.56377">
        <ele>640</ele>
        <time>2019-02-03T15:26:02.000Z</time>
      </trkpt>
      <trkpt lat="42.94137" lon="0.56377">
        <ele>640</ele>
        <time>2019-02-03T15:26:03.000Z</time>
      </trkpt>
      <trkpt lat="42.94137" lon="0.56377">
        <ele>640</ele>
        <time>2019-02-03T15:26:04.000Z</time>
      </trkpt>
      <trkpt lat="42.94137" lon="0.56377">
        <ele>640</ele>
        <time>2019-02-03T15:26:05.000Z</time>
      </trkpt>
      <trkpt lat="42.94137" lon="0.56377">
        <ele>640</ele>
        <time>2019-02-03T15:26:06.000Z</time>
      </trkpt>
      <trkpt lat="42.94137" lon="0.56377">
        <ele>640</ele>
        <time>2019-02-03T15:26:07.000Z</time>
      </trkpt>
      <trkpt lat="42.94138" lon="0.56378">
        <ele>640</ele>
        <time>2019-02-03T15:26:08.000Z</time>
      </trkpt>
      <trkpt lat="42.94138" lon="0.56378">
        <ele>640</ele>
        <time>2019-02-03T15:26:09.000Z</time>
      </trkpt>
      <trkpt lat="42.94138" lon="0.56378">
        <ele>640</ele>
        <time>2019-02-03T15:26:10.000Z</time>
      </trkpt>
    </trkseg>
  </trk>
</gpx>